<?xml version="1.0" encoding="UTF-8" standalone="no" ?>
<gpx xmlns="http://www.topografix.com/GPX/1/1" xmlns:xsi="http://www.w3.org/2001/XMLSchema-instance" xsi:schemaLocation="http://www.topografix.com/GPX/1/1 http://www.topografix.com/GPX/1/1/gpx.xsd" version="1.1" creator="VisuGPX - https://www.visugpx.com">
  <metadata>
    <name>Dròme 24-2</name>
    <desc><![CDATA[... avec parcours de François "Valouse"]]></desc>
  </metadata>
  <trk>
    <name><![CDATA[S-Gumiane-Valouse-18498435]]></name>
    <extensions>
      <line xmlns="http://www.topografix.com/GPX/gpx_style/0/2">
        <color>ff0000</color>
        <opacity>0.8</opacity>
        <width>3</width>
      </line>
    </extensions>
    <trkseg>
      <trkpt lat="44.53869" lon="4.96045">
        <ele>239</ele>
        <time>2024-08-15T11:22:58Z</time>
      </trkpt>
      <trkpt lat="44.53886" lon="4.96002">
        <ele>238</ele>
        <time>2024-08-15T11:23:04Z</time>
      </trkpt>
      <trkpt lat="44.53883" lon="4.95999">
        <ele>238</ele>
        <time>2024-08-15T11:23:05Z</time>
      </trkpt>
      <trkpt lat="44.53881" lon="4.95996">
        <ele>238</ele>
        <time>2024-08-15T11:23:05Z</time>
      </trkpt>
      <trkpt lat="44.53871" lon="4.96018">
        <ele>238</ele>
        <time>2024-08-15T11:23:09Z</time>
      </trkpt>
      <trkpt lat="44.5386" lon="4.96057">
        <ele>239</ele>
        <time>2024-08-15T11:23:14Z</time>
      </trkpt>
      <trkpt lat="44.53855" lon="4.96096">
        <ele>239</ele>
        <time>2024-08-15T11:23:19Z</time>
      </trkpt>
      <trkpt lat="44.53843" lon="4.96164">
        <ele>241</ele>
        <time>2024-08-15T11:23:28Z</time>
      </trkpt>
      <trkpt lat="44.53831" lon="4.96209">
        <ele>246</ele>
        <time>2024-08-15T11:23:34Z</time>
      </trkpt>
      <trkpt lat="44.53808" lon="4.96251">
        <ele>249</ele>
        <time>2024-08-15T11:23:41Z</time>
      </trkpt>
      <trkpt lat="44.53781" lon="4.96282">
        <ele>251</ele>
        <time>2024-08-15T11:23:47Z</time>
      </trkpt>
      <trkpt lat="44.53763" lon="4.96299">
        <ele>249</ele>
        <time>2024-08-15T11:23:51Z</time>
      </trkpt>
      <trkpt lat="44.53704" lon="4.96346">
        <ele>248</ele>
        <time>2024-08-15T11:24:03Z</time>
      </trkpt>
      <trkpt lat="44.53657" lon="4.96376">
        <ele>248</ele>
        <time>2024-08-15T11:24:12Z</time>
      </trkpt>
      <trkpt lat="44.53565" lon="4.96416">
        <ele>245</ele>
        <time>2024-08-15T11:24:29Z</time>
      </trkpt>
      <trkpt lat="44.53536" lon="4.96433">
        <ele>246</ele>
        <time>2024-08-15T11:24:35Z</time>
      </trkpt>
      <trkpt lat="44.53511" lon="4.96454">
        <ele>247</ele>
        <time>2024-08-15T11:24:40Z</time>
      </trkpt>
      <trkpt lat="44.53485" lon="4.96487">
        <ele>249</ele>
        <time>2024-08-15T11:24:46Z</time>
      </trkpt>
      <trkpt lat="44.53446" lon="4.96546">
        <ele>253</ele>
        <time>2024-08-15T11:24:56Z</time>
      </trkpt>
      <trkpt lat="44.53416" lon="4.96584">
        <ele>255</ele>
        <time>2024-08-15T11:25:04Z</time>
      </trkpt>
      <trkpt lat="44.53398" lon="4.96601">
        <ele>259</ele>
        <time>2024-08-15T11:25:08Z</time>
      </trkpt>
      <trkpt lat="44.53178" lon="4.96719">
        <ele>266</ele>
        <time>2024-08-15T11:25:49Z</time>
      </trkpt>
      <trkpt lat="44.53154" lon="4.9674">
        <ele>266</ele>
        <time>2024-08-15T11:25:54Z</time>
      </trkpt>
      <trkpt lat="44.53139" lon="4.96756">
        <ele>267</ele>
        <time>2024-08-15T11:25:58Z</time>
      </trkpt>
      <trkpt lat="44.53118" lon="4.96782">
        <ele>267</ele>
        <time>2024-08-15T11:26:03Z</time>
      </trkpt>
      <trkpt lat="44.53095" lon="4.96819">
        <ele>265</ele>
        <time>2024-08-15T11:26:09Z</time>
      </trkpt>
      <trkpt lat="44.53054" lon="4.96887">
        <ele>263</ele>
        <time>2024-08-15T11:26:20Z</time>
      </trkpt>
      <trkpt lat="44.53049" lon="4.96897">
        <ele>264</ele>
        <time>2024-08-15T11:26:22Z</time>
      </trkpt>
      <trkpt lat="44.52629" lon="4.9755">
        <ele>264</ele>
        <time>2024-08-15T11:28:13Z</time>
      </trkpt>
      <trkpt lat="44.52591" lon="4.97627">
        <ele>264</ele>
        <time>2024-08-15T11:28:25Z</time>
      </trkpt>
      <trkpt lat="44.52569" lon="4.97697">
        <ele>265</ele>
        <time>2024-08-15T11:28:35Z</time>
      </trkpt>
      <trkpt lat="44.52557" lon="4.97767">
        <ele>265</ele>
        <time>2024-08-15T11:28:44Z</time>
      </trkpt>
      <trkpt lat="44.52555" lon="4.97823">
        <ele>266</ele>
        <time>2024-08-15T11:28:51Z</time>
      </trkpt>
      <trkpt lat="44.52555" lon="4.97995">
        <ele>272</ele>
        <time>2024-08-15T11:29:13Z</time>
      </trkpt>
      <trkpt lat="44.52557" lon="4.98063">
        <ele>274</ele>
        <time>2024-08-15T11:29:22Z</time>
      </trkpt>
      <trkpt lat="44.52556" lon="4.981">
        <ele>275</ele>
        <time>2024-08-15T11:29:26Z</time>
      </trkpt>
      <trkpt lat="44.52558" lon="4.98139">
        <ele>275</ele>
        <time>2024-08-15T11:29:31Z</time>
      </trkpt>
      <trkpt lat="44.52562" lon="4.98167">
        <ele>276</ele>
        <time>2024-08-15T11:29:35Z</time>
      </trkpt>
      <trkpt lat="44.52585" lon="4.98241">
        <ele>275</ele>
        <time>2024-08-15T11:29:45Z</time>
      </trkpt>
      <trkpt lat="44.52588" lon="4.98252">
        <ele>275</ele>
        <time>2024-08-15T11:29:47Z</time>
      </trkpt>
      <trkpt lat="44.52683" lon="4.98562">
        <ele>282</ele>
        <time>2024-08-15T11:30:30Z</time>
      </trkpt>
      <trkpt lat="44.52702" lon="4.98609">
        <ele>283</ele>
        <time>2024-08-15T11:30:36Z</time>
      </trkpt>
      <trkpt lat="44.52726" lon="4.98649">
        <ele>284</ele>
        <time>2024-08-15T11:30:43Z</time>
      </trkpt>
      <trkpt lat="44.52971" lon="4.98966">
        <ele>286</ele>
        <time>2024-08-15T11:31:42Z</time>
      </trkpt>
      <trkpt lat="44.5299" lon="4.98995">
        <ele>286</ele>
        <time>2024-08-15T11:31:47Z</time>
      </trkpt>
      <trkpt lat="44.53005" lon="4.9902">
        <ele>287</ele>
        <time>2024-08-15T11:31:51Z</time>
      </trkpt>
      <trkpt lat="44.53023" lon="4.99056">
        <ele>288</ele>
        <time>2024-08-15T11:31:57Z</time>
      </trkpt>
      <trkpt lat="44.53052" lon="4.99124">
        <ele>287</ele>
        <time>2024-08-15T11:32:07Z</time>
      </trkpt>
      <trkpt lat="44.53063" lon="4.9916">
        <ele>285</ele>
        <time>2024-08-15T11:32:12Z</time>
      </trkpt>
      <trkpt lat="44.5323" lon="4.99784">
        <ele>291</ele>
        <time>2024-08-15T11:33:37Z</time>
      </trkpt>
      <trkpt lat="44.53239" lon="4.99833">
        <ele>292</ele>
        <time>2024-08-15T11:33:43Z</time>
      </trkpt>
      <trkpt lat="44.53247" lon="4.9989">
        <ele>293</ele>
        <time>2024-08-15T11:33:50Z</time>
      </trkpt>
      <trkpt lat="44.53248" lon="4.99946">
        <ele>294</ele>
        <time>2024-08-15T11:33:57Z</time>
      </trkpt>
      <trkpt lat="44.53243" lon="5.00026">
        <ele>295</ele>
        <time>2024-08-15T11:34:08Z</time>
      </trkpt>
      <trkpt lat="44.53234" lon="5.0008">
        <ele>296</ele>
        <time>2024-08-15T11:34:15Z</time>
      </trkpt>
      <trkpt lat="44.5319" lon="5.00271">
        <ele>299</ele>
        <time>2024-08-15T11:34:40Z</time>
      </trkpt>
      <trkpt lat="44.53166" lon="5.00398">
        <ele>299</ele>
        <time>2024-08-15T11:34:57Z</time>
      </trkpt>
      <trkpt lat="44.53159" lon="5.00453">
        <ele>300</ele>
        <time>2024-08-15T11:35:04Z</time>
      </trkpt>
      <trkpt lat="44.53119" lon="5.00837">
        <ele>308</ele>
        <time>2024-08-15T11:35:53Z</time>
      </trkpt>
      <trkpt lat="44.53108" lon="5.00981">
        <ele>308</ele>
        <time>2024-08-15T11:36:11Z</time>
      </trkpt>
      <trkpt lat="44.53107" lon="5.01033">
        <ele>309</ele>
        <time>2024-08-15T11:36:18Z</time>
      </trkpt>
      <trkpt lat="44.53101" lon="5.01083">
        <ele>310</ele>
        <time>2024-08-15T11:36:25Z</time>
      </trkpt>
      <trkpt lat="44.53081" lon="5.01199">
        <ele>311</ele>
        <time>2024-08-15T11:36:40Z</time>
      </trkpt>
      <trkpt lat="44.53069" lon="5.01253">
        <ele>313</ele>
        <time>2024-08-15T11:36:47Z</time>
      </trkpt>
      <trkpt lat="44.53047" lon="5.01329">
        <ele>314</ele>
        <time>2024-08-15T11:36:57Z</time>
      </trkpt>
      <trkpt lat="44.53027" lon="5.0141">
        <ele>315</ele>
        <time>2024-08-15T11:37:08Z</time>
      </trkpt>
      <trkpt lat="44.52988" lon="5.01548">
        <ele>313</ele>
        <time>2024-08-15T11:37:27Z</time>
      </trkpt>
      <trkpt lat="44.52985" lon="5.01559">
        <ele>313</ele>
        <time>2024-08-15T11:37:28Z</time>
      </trkpt>
      <trkpt lat="44.52958" lon="5.0166">
        <ele>312</ele>
        <time>2024-08-15T11:37:42Z</time>
      </trkpt>
      <trkpt lat="44.52954" lon="5.01681">
        <ele>312</ele>
        <time>2024-08-15T11:37:45Z</time>
      </trkpt>
      <trkpt lat="44.52963" lon="5.01974">
        <ele>313</ele>
        <time>2024-08-15T11:38:22Z</time>
      </trkpt>
      <trkpt lat="44.52965" lon="5.02099">
        <ele>316</ele>
        <time>2024-08-15T11:38:38Z</time>
      </trkpt>
      <trkpt lat="44.52964" lon="5.0211">
        <ele>316</ele>
        <time>2024-08-15T11:38:39Z</time>
      </trkpt>
      <trkpt lat="44.52958" lon="5.02354">
        <ele>323</ele>
        <time>2024-08-15T11:39:10Z</time>
      </trkpt>
      <trkpt lat="44.52954" lon="5.02417">
        <ele>325</ele>
        <time>2024-08-15T11:39:18Z</time>
      </trkpt>
      <trkpt lat="44.52945" lon="5.02455">
        <ele>326</ele>
        <time>2024-08-15T11:39:23Z</time>
      </trkpt>
      <trkpt lat="44.52934" lon="5.02489">
        <ele>326</ele>
        <time>2024-08-15T11:39:28Z</time>
      </trkpt>
      <trkpt lat="44.5291" lon="5.02533">
        <ele>327</ele>
        <time>2024-08-15T11:39:35Z</time>
      </trkpt>
      <trkpt lat="44.52883" lon="5.02574">
        <ele>327</ele>
        <time>2024-08-15T11:39:42Z</time>
      </trkpt>
      <trkpt lat="44.5289" lon="5.02578">
        <ele>327</ele>
        <time>2024-08-15T11:39:44Z</time>
      </trkpt>
      <trkpt lat="44.52912" lon="5.02565">
        <ele>327</ele>
        <time>2024-08-15T11:39:48Z</time>
      </trkpt>
      <trkpt lat="44.5289" lon="5.02578">
        <ele>327</ele>
        <time>2024-08-15T11:39:52Z</time>
      </trkpt>
      <trkpt lat="44.52883" lon="5.02574">
        <ele>327</ele>
        <time>2024-08-15T11:39:53Z</time>
      </trkpt>
      <trkpt lat="44.52702" lon="5.02801">
        <ele>328</ele>
        <time>2024-08-15T11:40:37Z</time>
      </trkpt>
      <trkpt lat="44.52691" lon="5.02818">
        <ele>329</ele>
        <time>2024-08-15T11:40:40Z</time>
      </trkpt>
      <trkpt lat="44.52683" lon="5.02834">
        <ele>329</ele>
        <time>2024-08-15T11:40:42Z</time>
      </trkpt>
      <trkpt lat="44.5267" lon="5.02865">
        <ele>330</ele>
        <time>2024-08-15T11:40:47Z</time>
      </trkpt>
      <trkpt lat="44.52619" lon="5.03041">
        <ele>330</ele>
        <time>2024-08-15T11:41:11Z</time>
      </trkpt>
      <trkpt lat="44.52603" lon="5.03111">
        <ele>330</ele>
        <time>2024-08-15T11:41:20Z</time>
      </trkpt>
      <trkpt lat="44.52592" lon="5.03174">
        <ele>330</ele>
        <time>2024-08-15T11:41:28Z</time>
      </trkpt>
      <trkpt lat="44.52591" lon="5.03185">
        <ele>330</ele>
        <time>2024-08-15T11:41:30Z</time>
      </trkpt>
      <trkpt lat="44.52579" lon="5.03264">
        <ele>331</ele>
        <time>2024-08-15T11:41:40Z</time>
      </trkpt>
      <trkpt lat="44.52569" lon="5.03357">
        <ele>333</ele>
        <time>2024-08-15T11:41:52Z</time>
      </trkpt>
      <trkpt lat="44.52564" lon="5.03437">
        <ele>334</ele>
        <time>2024-08-15T11:42:02Z</time>
      </trkpt>
      <trkpt lat="44.52557" lon="5.03525">
        <ele>334</ele>
        <time>2024-08-15T11:42:13Z</time>
      </trkpt>
      <trkpt lat="44.52544" lon="5.03741">
        <ele>341</ele>
        <time>2024-08-15T11:42:41Z</time>
      </trkpt>
      <trkpt lat="44.52532" lon="5.0382">
        <ele>346</ele>
        <time>2024-08-15T11:42:51Z</time>
      </trkpt>
      <trkpt lat="44.52524" lon="5.03855">
        <ele>346</ele>
        <time>2024-08-15T11:42:56Z</time>
      </trkpt>
      <trkpt lat="44.52514" lon="5.03889">
        <ele>344</ele>
        <time>2024-08-15T11:43:00Z</time>
      </trkpt>
      <trkpt lat="44.5241" lon="5.04149">
        <ele>342</ele>
        <time>2024-08-15T11:43:38Z</time>
      </trkpt>
      <trkpt lat="44.52393" lon="5.04201">
        <ele>341</ele>
        <time>2024-08-15T11:43:45Z</time>
      </trkpt>
      <trkpt lat="44.52378" lon="5.04262">
        <ele>340</ele>
        <time>2024-08-15T11:43:54Z</time>
      </trkpt>
      <trkpt lat="44.5236" lon="5.04367">
        <ele>339</ele>
        <time>2024-08-15T11:44:07Z</time>
      </trkpt>
      <trkpt lat="44.52347" lon="5.04447">
        <ele>339</ele>
        <time>2024-08-15T11:44:18Z</time>
      </trkpt>
      <trkpt lat="44.5234" lon="5.04476">
        <ele>339</ele>
        <time>2024-08-15T11:44:22Z</time>
      </trkpt>
      <trkpt lat="44.52324" lon="5.04562">
        <ele>340</ele>
        <time>2024-08-15T11:44:33Z</time>
      </trkpt>
      <trkpt lat="44.52313" lon="5.04604">
        <ele>341</ele>
        <time>2024-08-15T11:44:39Z</time>
      </trkpt>
      <trkpt lat="44.52307" lon="5.04619">
        <ele>342</ele>
        <time>2024-08-15T11:44:41Z</time>
      </trkpt>
      <trkpt lat="44.52292" lon="5.04654">
        <ele>343</ele>
        <time>2024-08-15T11:44:46Z</time>
      </trkpt>
      <trkpt lat="44.52277" lon="5.04667">
        <ele>343</ele>
        <time>2024-08-15T11:44:49Z</time>
      </trkpt>
      <trkpt lat="44.5227" lon="5.04667">
        <ele>343</ele>
        <time>2024-08-15T11:44:50Z</time>
      </trkpt>
      <trkpt lat="44.52262" lon="5.04676">
        <ele>343</ele>
        <time>2024-08-15T11:44:52Z</time>
      </trkpt>
      <trkpt lat="44.52261" lon="5.04689">
        <ele>343</ele>
        <time>2024-08-15T11:44:54Z</time>
      </trkpt>
      <trkpt lat="44.52252" lon="5.04711">
        <ele>343</ele>
        <time>2024-08-15T11:44:57Z</time>
      </trkpt>
      <trkpt lat="44.5218" lon="5.0482">
        <ele>344</ele>
        <time>2024-08-15T11:45:16Z</time>
      </trkpt>
      <trkpt lat="44.52171" lon="5.04842">
        <ele>344</ele>
        <time>2024-08-15T11:45:19Z</time>
      </trkpt>
      <trkpt lat="44.52161" lon="5.04882">
        <ele>345</ele>
        <time>2024-08-15T11:45:24Z</time>
      </trkpt>
      <trkpt lat="44.52158" lon="5.04921">
        <ele>346</ele>
        <time>2024-08-15T11:45:29Z</time>
      </trkpt>
      <trkpt lat="44.52157" lon="5.04964">
        <ele>348</ele>
        <time>2024-08-15T11:45:35Z</time>
      </trkpt>
      <trkpt lat="44.52137" lon="5.05192">
        <ele>355</ele>
        <time>2024-08-15T11:46:04Z</time>
      </trkpt>
      <trkpt lat="44.52127" lon="5.0549">
        <ele>364</ele>
        <time>2024-08-15T11:46:42Z</time>
      </trkpt>
      <trkpt lat="44.52121" lon="5.05559">
        <ele>366</ele>
        <time>2024-08-15T11:46:51Z</time>
      </trkpt>
      <trkpt lat="44.5212" lon="5.0567">
        <ele>368</ele>
        <time>2024-08-15T11:47:05Z</time>
      </trkpt>
      <trkpt lat="44.52131" lon="5.05731">
        <ele>369</ele>
        <time>2024-08-15T11:47:13Z</time>
      </trkpt>
      <trkpt lat="44.52329" lon="5.06306">
        <ele>377</ele>
        <time>2024-08-15T11:48:34Z</time>
      </trkpt>
      <trkpt lat="44.52327" lon="5.06313">
        <ele>377</ele>
        <time>2024-08-15T11:48:35Z</time>
      </trkpt>
      <trkpt lat="44.52331" lon="5.0632">
        <ele>377</ele>
        <time>2024-08-15T11:48:36Z</time>
      </trkpt>
      <trkpt lat="44.52337" lon="5.06319">
        <ele>377</ele>
        <time>2024-08-15T11:48:37Z</time>
      </trkpt>
      <trkpt lat="44.5234" lon="5.06312">
        <ele>377</ele>
        <time>2024-08-15T11:48:38Z</time>
      </trkpt>
      <trkpt lat="44.52339" lon="5.06307">
        <ele>377</ele>
        <time>2024-08-15T11:48:39Z</time>
      </trkpt>
      <trkpt lat="44.52344" lon="5.06305">
        <ele>377</ele>
        <time>2024-08-15T11:48:40Z</time>
      </trkpt>
      <trkpt lat="44.52347" lon="5.063">
        <ele>378</ele>
        <time>2024-08-15T11:48:40Z</time>
      </trkpt>
      <trkpt lat="44.52381" lon="5.06242">
        <ele>380</ele>
        <time>2024-08-15T11:48:50Z</time>
      </trkpt>
      <trkpt lat="44.52347" lon="5.063">
        <ele>378</ele>
        <time>2024-08-15T11:48:59Z</time>
      </trkpt>
      <trkpt lat="44.52344" lon="5.06305">
        <ele>377</ele>
        <time>2024-08-15T11:49:00Z</time>
      </trkpt>
      <trkpt lat="44.52339" lon="5.06307">
        <ele>377</ele>
        <time>2024-08-15T11:49:01Z</time>
      </trkpt>
      <trkpt lat="44.52333" lon="5.06303">
        <ele>377</ele>
        <time>2024-08-15T11:49:02Z</time>
      </trkpt>
      <trkpt lat="44.52329" lon="5.06306">
        <ele>377</ele>
        <time>2024-08-15T11:49:03Z</time>
      </trkpt>
      <trkpt lat="44.52327" lon="5.06313">
        <ele>377</ele>
        <time>2024-08-15T11:49:04Z</time>
      </trkpt>
      <trkpt lat="44.52331" lon="5.0632">
        <ele>377</ele>
        <time>2024-08-15T11:49:05Z</time>
      </trkpt>
      <trkpt lat="44.52315" lon="5.06357">
        <ele>377</ele>
        <time>2024-08-15T11:49:11Z</time>
      </trkpt>
      <trkpt lat="44.523" lon="5.06383">
        <ele>378</ele>
        <time>2024-08-15T11:49:15Z</time>
      </trkpt>
      <trkpt lat="44.52297" lon="5.06389">
        <ele>378</ele>
        <time>2024-08-15T11:49:16Z</time>
      </trkpt>
      <trkpt lat="44.5234" lon="5.06439">
        <ele>378</ele>
        <time>2024-08-15T11:49:26Z</time>
      </trkpt>
      <trkpt lat="44.52355" lon="5.06447">
        <ele>379</ele>
        <time>2024-08-15T11:49:29Z</time>
      </trkpt>
      <trkpt lat="44.52377" lon="5.06455">
        <ele>380</ele>
        <time>2024-08-15T11:49:33Z</time>
      </trkpt>
      <trkpt lat="44.52394" lon="5.06455">
        <ele>380</ele>
        <time>2024-08-15T11:49:36Z</time>
      </trkpt>
      <trkpt lat="44.52406" lon="5.06453">
        <ele>380</ele>
        <time>2024-08-15T11:49:38Z</time>
      </trkpt>
      <trkpt lat="44.52464" lon="5.06423">
        <ele>379</ele>
        <time>2024-08-15T11:49:49Z</time>
      </trkpt>
      <trkpt lat="44.52477" lon="5.06421">
        <ele>379</ele>
        <time>2024-08-15T11:49:51Z</time>
      </trkpt>
      <trkpt lat="44.52503" lon="5.06425">
        <ele>381</ele>
        <time>2024-08-15T11:49:56Z</time>
      </trkpt>
      <trkpt lat="44.52514" lon="5.06434">
        <ele>382</ele>
        <time>2024-08-15T11:49:58Z</time>
      </trkpt>
      <trkpt lat="44.52573" lon="5.06491">
        <ele>384</ele>
        <time>2024-08-15T11:50:11Z</time>
      </trkpt>
      <trkpt lat="44.52593" lon="5.06507">
        <ele>384</ele>
        <time>2024-08-15T11:50:15Z</time>
      </trkpt>
      <trkpt lat="44.52614" lon="5.06536">
        <ele>387</ele>
        <time>2024-08-15T11:50:20Z</time>
      </trkpt>
      <trkpt lat="44.52607" lon="5.06555">
        <ele>389</ele>
        <time>2024-08-15T11:50:23Z</time>
      </trkpt>
      <trkpt lat="44.52628" lon="5.06572">
        <ele>390</ele>
        <time>2024-08-15T11:50:27Z</time>
      </trkpt>
      <trkpt lat="44.52652" lon="5.06599">
        <ele>391</ele>
        <time>2024-08-15T11:50:33Z</time>
      </trkpt>
      <trkpt lat="44.52668" lon="5.06598">
        <ele>389</ele>
        <time>2024-08-15T11:50:36Z</time>
      </trkpt>
      <trkpt lat="44.52681" lon="5.06603">
        <ele>389</ele>
        <time>2024-08-15T11:50:38Z</time>
      </trkpt>
      <trkpt lat="44.52714" lon="5.06636">
        <ele>390</ele>
        <time>2024-08-15T11:50:45Z</time>
      </trkpt>
      <trkpt lat="44.52718" lon="5.06639">
        <ele>390</ele>
        <time>2024-08-15T11:50:46Z</time>
      </trkpt>
      <trkpt lat="44.52754" lon="5.06663">
        <ele>389</ele>
        <time>2024-08-15T11:50:53Z</time>
      </trkpt>
      <trkpt lat="44.52775" lon="5.06661">
        <ele>388</ele>
        <time>2024-08-15T11:50:57Z</time>
      </trkpt>
      <trkpt lat="44.5279" lon="5.06657">
        <ele>388</ele>
        <time>2024-08-15T11:51:00Z</time>
      </trkpt>
      <trkpt lat="44.5286" lon="5.06653">
        <ele>388</ele>
        <time>2024-08-15T11:51:12Z</time>
      </trkpt>
      <trkpt lat="44.52879" lon="5.06655">
        <ele>388</ele>
        <time>2024-08-15T11:51:15Z</time>
      </trkpt>
      <trkpt lat="44.52898" lon="5.06663">
        <ele>389</ele>
        <time>2024-08-15T11:51:19Z</time>
      </trkpt>
      <trkpt lat="44.52917" lon="5.0668">
        <ele>390</ele>
        <time>2024-08-15T11:51:23Z</time>
      </trkpt>
      <trkpt lat="44.5293" lon="5.06699">
        <ele>391</ele>
        <time>2024-08-15T11:51:26Z</time>
      </trkpt>
      <trkpt lat="44.52947" lon="5.06736">
        <ele>393</ele>
        <time>2024-08-15T11:51:32Z</time>
      </trkpt>
      <trkpt lat="44.52949" lon="5.06747">
        <ele>394</ele>
        <time>2024-08-15T11:51:33Z</time>
      </trkpt>
      <trkpt lat="44.52976" lon="5.06757">
        <ele>395</ele>
        <time>2024-08-15T11:51:38Z</time>
      </trkpt>
      <trkpt lat="44.52994" lon="5.06762">
        <ele>395</ele>
        <time>2024-08-15T11:51:42Z</time>
      </trkpt>
      <trkpt lat="44.53012" lon="5.06755">
        <ele>395</ele>
        <time>2024-08-15T11:51:45Z</time>
      </trkpt>
      <trkpt lat="44.53047" lon="5.06738">
        <ele>397</ele>
        <time>2024-08-15T11:51:51Z</time>
      </trkpt>
      <trkpt lat="44.53065" lon="5.06741">
        <ele>398</ele>
        <time>2024-08-15T11:51:55Z</time>
      </trkpt>
      <trkpt lat="44.53069" lon="5.06745">
        <ele>399</ele>
        <time>2024-08-15T11:51:56Z</time>
      </trkpt>
      <trkpt lat="44.53074" lon="5.06747">
        <ele>399</ele>
        <time>2024-08-15T11:51:56Z</time>
      </trkpt>
      <trkpt lat="44.53079" lon="5.06746">
        <ele>400</ele>
        <time>2024-08-15T11:51:57Z</time>
      </trkpt>
      <trkpt lat="44.53084" lon="5.06742">
        <ele>400</ele>
        <time>2024-08-15T11:51:58Z</time>
      </trkpt>
      <trkpt lat="44.53094" lon="5.06739">
        <ele>400</ele>
        <time>2024-08-15T11:52:00Z</time>
      </trkpt>
      <trkpt lat="44.53121" lon="5.06743">
        <ele>402</ele>
        <time>2024-08-15T11:52:05Z</time>
      </trkpt>
      <trkpt lat="44.53235" lon="5.06792">
        <ele>410</ele>
        <time>2024-08-15T11:52:26Z</time>
      </trkpt>
      <trkpt lat="44.53294" lon="5.06831">
        <ele>412</ele>
        <time>2024-08-15T11:52:38Z</time>
      </trkpt>
      <trkpt lat="44.53486" lon="5.06976">
        <ele>420</ele>
        <time>2024-08-15T11:53:17Z</time>
      </trkpt>
      <trkpt lat="44.53604" lon="5.07088">
        <ele>425</ele>
        <time>2024-08-15T11:53:42Z</time>
      </trkpt>
      <trkpt lat="44.53799" lon="5.07277">
        <ele>432</ele>
        <time>2024-08-15T11:54:24Z</time>
      </trkpt>
      <trkpt lat="44.53956" lon="5.0745">
        <ele>437</ele>
        <time>2024-08-15T11:55:00Z</time>
      </trkpt>
      <trkpt lat="44.53967" lon="5.07456">
        <ele>436</ele>
        <time>2024-08-15T11:55:02Z</time>
      </trkpt>
      <trkpt lat="44.54001" lon="5.07454">
        <ele>432</ele>
        <time>2024-08-15T11:55:08Z</time>
      </trkpt>
      <trkpt lat="44.54019" lon="5.07462">
        <ele>435</ele>
        <time>2024-08-15T11:55:11Z</time>
      </trkpt>
      <trkpt lat="44.54102" lon="5.07544">
        <ele>444</ele>
        <time>2024-08-15T11:55:29Z</time>
      </trkpt>
      <trkpt lat="44.54152" lon="5.07584">
        <ele>444</ele>
        <time>2024-08-15T11:55:40Z</time>
      </trkpt>
      <trkpt lat="44.54193" lon="5.07612">
        <ele>451</ele>
        <time>2024-08-15T11:55:48Z</time>
      </trkpt>
      <trkpt lat="44.54306" lon="5.07706">
        <ele>464</ele>
        <time>2024-08-15T11:56:11Z</time>
      </trkpt>
      <trkpt lat="44.54349" lon="5.07733">
        <ele>462</ele>
        <time>2024-08-15T11:56:19Z</time>
      </trkpt>
      <trkpt lat="44.54394" lon="5.07754">
        <ele>458</ele>
        <time>2024-08-15T11:56:28Z</time>
      </trkpt>
      <trkpt lat="44.54473" lon="5.07796">
        <ele>464</ele>
        <time>2024-08-15T11:56:43Z</time>
      </trkpt>
      <trkpt lat="44.54574" lon="5.07816">
        <ele>464</ele>
        <time>2024-08-15T11:57:01Z</time>
      </trkpt>
      <trkpt lat="44.54611" lon="5.07831">
        <ele>463</ele>
        <time>2024-08-15T11:57:08Z</time>
      </trkpt>
      <trkpt lat="44.54623" lon="5.07838">
        <ele>464</ele>
        <time>2024-08-15T11:57:10Z</time>
      </trkpt>
      <trkpt lat="44.54664" lon="5.07872">
        <ele>466</ele>
        <time>2024-08-15T11:57:19Z</time>
      </trkpt>
      <trkpt lat="44.54724" lon="5.0793">
        <ele>469</ele>
        <time>2024-08-15T11:57:32Z</time>
      </trkpt>
      <trkpt lat="44.54784" lon="5.07977">
        <ele>474</ele>
        <time>2024-08-15T11:57:44Z</time>
      </trkpt>
      <trkpt lat="44.54807" lon="5.07999">
        <ele>474</ele>
        <time>2024-08-15T11:57:49Z</time>
      </trkpt>
      <trkpt lat="44.54875" lon="5.08101">
        <ele>475</ele>
        <time>2024-08-15T11:58:07Z</time>
      </trkpt>
      <trkpt lat="44.54883" lon="5.08115">
        <ele>476</ele>
        <time>2024-08-15T11:58:09Z</time>
      </trkpt>
      <trkpt lat="44.54888" lon="5.0813">
        <ele>475</ele>
        <time>2024-08-15T11:58:11Z</time>
      </trkpt>
      <trkpt lat="44.54902" lon="5.08189">
        <ele>472</ele>
        <time>2024-08-15T11:58:19Z</time>
      </trkpt>
      <trkpt lat="44.54911" lon="5.08211">
        <ele>470</ele>
        <time>2024-08-15T11:58:22Z</time>
      </trkpt>
      <trkpt lat="44.54924" lon="5.0823">
        <ele>470</ele>
        <time>2024-08-15T11:58:25Z</time>
      </trkpt>
      <trkpt lat="44.54943" lon="5.08246">
        <ele>473</ele>
        <time>2024-08-15T11:58:29Z</time>
      </trkpt>
      <trkpt lat="44.54962" lon="5.08257">
        <ele>476</ele>
        <time>2024-08-15T11:58:33Z</time>
      </trkpt>
      <trkpt lat="44.54994" lon="5.08291">
        <ele>478</ele>
        <time>2024-08-15T11:58:40Z</time>
      </trkpt>
      <trkpt lat="44.55025" lon="5.08329">
        <ele>481</ele>
        <time>2024-08-15T11:58:47Z</time>
      </trkpt>
      <trkpt lat="44.55034" lon="5.08349">
        <ele>483</ele>
        <time>2024-08-15T11:58:50Z</time>
      </trkpt>
      <trkpt lat="44.55061" lon="5.08418">
        <ele>486</ele>
        <time>2024-08-15T11:59:00Z</time>
      </trkpt>
      <trkpt lat="44.55081" lon="5.08447">
        <ele>487</ele>
        <time>2024-08-15T11:59:06Z</time>
      </trkpt>
      <trkpt lat="44.55113" lon="5.08487">
        <ele>490</ele>
        <time>2024-08-15T11:59:13Z</time>
      </trkpt>
      <trkpt lat="44.55144" lon="5.08532">
        <ele>492</ele>
        <time>2024-08-15T11:59:21Z</time>
      </trkpt>
      <trkpt lat="44.55174" lon="5.08582">
        <ele>494</ele>
        <time>2024-08-15T11:59:29Z</time>
      </trkpt>
      <trkpt lat="44.55303" lon="5.08822">
        <ele>505</ele>
        <time>2024-08-15T12:00:07Z</time>
      </trkpt>
      <trkpt lat="44.5531" lon="5.08826">
        <ele>506</ele>
        <time>2024-08-15T12:00:09Z</time>
      </trkpt>
      <trkpt lat="44.55314" lon="5.08826">
        <ele>507</ele>
        <time>2024-08-15T12:00:10Z</time>
      </trkpt>
      <trkpt lat="44.55319" lon="5.08822">
        <ele>508</ele>
        <time>2024-08-15T12:00:11Z</time>
      </trkpt>
      <trkpt lat="44.55321" lon="5.08815">
        <ele>509</ele>
        <time>2024-08-15T12:00:12Z</time>
      </trkpt>
      <trkpt lat="44.55322" lon="5.08768">
        <ele>512</ele>
        <time>2024-08-15T12:00:17Z</time>
      </trkpt>
      <trkpt lat="44.55333" lon="5.08655">
        <ele>521</ele>
        <time>2024-08-15T12:00:32Z</time>
      </trkpt>
      <trkpt lat="44.55337" lon="5.08632">
        <ele>523</ele>
        <time>2024-08-15T12:00:35Z</time>
      </trkpt>
      <trkpt lat="44.5534" lon="5.08622">
        <ele>525</ele>
        <time>2024-08-15T12:00:36Z</time>
      </trkpt>
      <trkpt lat="44.55343" lon="5.08617">
        <ele>526</ele>
        <time>2024-08-15T12:00:37Z</time>
      </trkpt>
      <trkpt lat="44.55351" lon="5.08617">
        <ele>528</ele>
        <time>2024-08-15T12:00:39Z</time>
      </trkpt>
      <trkpt lat="44.55354" lon="5.08621">
        <ele>528</ele>
        <time>2024-08-15T12:00:39Z</time>
      </trkpt>
      <trkpt lat="44.55356" lon="5.08627">
        <ele>528</ele>
        <time>2024-08-15T12:00:40Z</time>
      </trkpt>
      <trkpt lat="44.55354" lon="5.08652">
        <ele>526</ele>
        <time>2024-08-15T12:00:43Z</time>
      </trkpt>
      <trkpt lat="44.55354" lon="5.08672">
        <ele>524</ele>
        <time>2024-08-15T12:00:46Z</time>
      </trkpt>
      <trkpt lat="44.55365" lon="5.08703">
        <ele>525</ele>
        <time>2024-08-15T12:00:50Z</time>
      </trkpt>
      <trkpt lat="44.55373" lon="5.08714">
        <ele>526</ele>
        <time>2024-08-15T12:00:52Z</time>
      </trkpt>
      <trkpt lat="44.55391" lon="5.08732">
        <ele>528</ele>
        <time>2024-08-15T12:00:56Z</time>
      </trkpt>
      <trkpt lat="44.55463" lon="5.0878">
        <ele>539</ele>
        <time>2024-08-15T12:01:10Z</time>
      </trkpt>
      <trkpt lat="44.55472" lon="5.08791">
        <ele>540</ele>
        <time>2024-08-15T12:01:12Z</time>
      </trkpt>
      <trkpt lat="44.55494" lon="5.08839">
        <ele>541</ele>
        <time>2024-08-15T12:01:20Z</time>
      </trkpt>
      <trkpt lat="44.55497" lon="5.08851">
        <ele>542</ele>
        <time>2024-08-15T12:01:21Z</time>
      </trkpt>
      <trkpt lat="44.55498" lon="5.08863">
        <ele>541</ele>
        <time>2024-08-15T12:01:23Z</time>
      </trkpt>
      <trkpt lat="44.55491" lon="5.08897">
        <ele>538</ele>
        <time>2024-08-15T12:01:27Z</time>
      </trkpt>
      <trkpt lat="44.55492" lon="5.08905">
        <ele>538</ele>
        <time>2024-08-15T12:01:28Z</time>
      </trkpt>
      <trkpt lat="44.55499" lon="5.08914">
        <ele>539</ele>
        <time>2024-08-15T12:01:30Z</time>
      </trkpt>
      <trkpt lat="44.55504" lon="5.08915">
        <ele>540</ele>
        <time>2024-08-15T12:01:31Z</time>
      </trkpt>
      <trkpt lat="44.5554" lon="5.0891">
        <ele>545</ele>
        <time>2024-08-15T12:01:37Z</time>
      </trkpt>
      <trkpt lat="44.55586" lon="5.08915">
        <ele>551</ele>
        <time>2024-08-15T12:01:46Z</time>
      </trkpt>
      <trkpt lat="44.55603" lon="5.08921">
        <ele>554</ele>
        <time>2024-08-15T12:01:49Z</time>
      </trkpt>
      <trkpt lat="44.55611" lon="5.08926">
        <ele>555</ele>
        <time>2024-08-15T12:01:50Z</time>
      </trkpt>
      <trkpt lat="44.55619" lon="5.08937">
        <ele>555</ele>
        <time>2024-08-15T12:01:52Z</time>
      </trkpt>
      <trkpt lat="44.55623" lon="5.08952">
        <ele>555</ele>
        <time>2024-08-15T12:01:54Z</time>
      </trkpt>
      <trkpt lat="44.55622" lon="5.08974">
        <ele>552</ele>
        <time>2024-08-15T12:01:57Z</time>
      </trkpt>
      <trkpt lat="44.55623" lon="5.08985">
        <ele>551</ele>
        <time>2024-08-15T12:01:59Z</time>
      </trkpt>
      <trkpt lat="44.5563" lon="5.08995">
        <ele>551</ele>
        <time>2024-08-15T12:02:00Z</time>
      </trkpt>
      <trkpt lat="44.5564" lon="5.09002">
        <ele>552</ele>
        <time>2024-08-15T12:02:02Z</time>
      </trkpt>
      <trkpt lat="44.55654" lon="5.09006">
        <ele>554</ele>
        <time>2024-08-15T12:02:05Z</time>
      </trkpt>
      <trkpt lat="44.55764" lon="5.09027">
        <ele>566</ele>
        <time>2024-08-15T12:02:25Z</time>
      </trkpt>
      <trkpt lat="44.55771" lon="5.09026">
        <ele>567</ele>
        <time>2024-08-15T12:02:26Z</time>
      </trkpt>
      <trkpt lat="44.55776" lon="5.09021">
        <ele>568</ele>
        <time>2024-08-15T12:02:27Z</time>
      </trkpt>
      <trkpt lat="44.55778" lon="5.09014">
        <ele>569</ele>
        <time>2024-08-15T12:02:28Z</time>
      </trkpt>
      <trkpt lat="44.55777" lon="5.09004">
        <ele>571</ele>
        <time>2024-08-15T12:02:29Z</time>
      </trkpt>
      <trkpt lat="44.55773" lon="5.08998">
        <ele>572</ele>
        <time>2024-08-15T12:02:30Z</time>
      </trkpt>
      <trkpt lat="44.55763" lon="5.08994">
        <ele>572</ele>
        <time>2024-08-15T12:02:32Z</time>
      </trkpt>
      <trkpt lat="44.55748" lon="5.08991">
        <ele>571</ele>
        <time>2024-08-15T12:02:35Z</time>
      </trkpt>
      <trkpt lat="44.55734" lon="5.08984">
        <ele>570</ele>
        <time>2024-08-15T12:02:37Z</time>
      </trkpt>
      <trkpt lat="44.55716" lon="5.08971">
        <ele>569</ele>
        <time>2024-08-15T12:02:41Z</time>
      </trkpt>
      <trkpt lat="44.55707" lon="5.0896">
        <ele>569</ele>
        <time>2024-08-15T12:02:43Z</time>
      </trkpt>
      <trkpt lat="44.557" lon="5.08951">
        <ele>569</ele>
        <time>2024-08-15T12:02:45Z</time>
      </trkpt>
      <trkpt lat="44.55698" lon="5.08941">
        <ele>571</ele>
        <time>2024-08-15T12:02:46Z</time>
      </trkpt>
      <trkpt lat="44.55697" lon="5.08928">
        <ele>572</ele>
        <time>2024-08-15T12:02:48Z</time>
      </trkpt>
      <trkpt lat="44.55699" lon="5.08915">
        <ele>575</ele>
        <time>2024-08-15T12:02:49Z</time>
      </trkpt>
      <trkpt lat="44.5571" lon="5.08872">
        <ele>581</ele>
        <time>2024-08-15T12:02:55Z</time>
      </trkpt>
      <trkpt lat="44.55713" lon="5.08858">
        <ele>584</ele>
        <time>2024-08-15T12:02:57Z</time>
      </trkpt>
      <trkpt lat="44.55714" lon="5.08848">
        <ele>585</ele>
        <time>2024-08-15T12:02:58Z</time>
      </trkpt>
      <trkpt lat="44.55712" lon="5.08839">
        <ele>585</ele>
        <time>2024-08-15T12:03:00Z</time>
      </trkpt>
      <trkpt lat="44.55706" lon="5.0883">
        <ele>585</ele>
        <time>2024-08-15T12:03:01Z</time>
      </trkpt>
      <trkpt lat="44.55684" lon="5.08819">
        <ele>580</ele>
        <time>2024-08-15T12:03:05Z</time>
      </trkpt>
      <trkpt lat="44.55677" lon="5.0881">
        <ele>580</ele>
        <time>2024-08-15T12:03:07Z</time>
      </trkpt>
      <trkpt lat="44.55674" lon="5.08798">
        <ele>580</ele>
        <time>2024-08-15T12:03:09Z</time>
      </trkpt>
      <trkpt lat="44.55682" lon="5.08749">
        <ele>586</ele>
        <time>2024-08-15T12:03:15Z</time>
      </trkpt>
      <trkpt lat="44.55685" lon="5.08742">
        <ele>588</ele>
        <time>2024-08-15T12:03:16Z</time>
      </trkpt>
      <trkpt lat="44.5569" lon="5.0874">
        <ele>590</ele>
        <time>2024-08-15T12:03:17Z</time>
      </trkpt>
      <trkpt lat="44.55698" lon="5.0874">
        <ele>592</ele>
        <time>2024-08-15T12:03:18Z</time>
      </trkpt>
      <trkpt lat="44.55704" lon="5.08745">
        <ele>593</ele>
        <time>2024-08-15T12:03:20Z</time>
      </trkpt>
      <trkpt lat="44.5572" lon="5.08791">
        <ele>592</ele>
        <time>2024-08-15T12:03:26Z</time>
      </trkpt>
      <trkpt lat="44.55745" lon="5.08839">
        <ele>593</ele>
        <time>2024-08-15T12:03:34Z</time>
      </trkpt>
      <trkpt lat="44.55758" lon="5.08855">
        <ele>594</ele>
        <time>2024-08-15T12:03:37Z</time>
      </trkpt>
      <trkpt lat="44.55775" lon="5.08867">
        <ele>595</ele>
        <time>2024-08-15T12:03:40Z</time>
      </trkpt>
      <trkpt lat="44.55827" lon="5.08892">
        <ele>599</ele>
        <time>2024-08-15T12:03:50Z</time>
      </trkpt>
      <trkpt lat="44.55838" lon="5.08893">
        <ele>600</ele>
        <time>2024-08-15T12:03:52Z</time>
      </trkpt>
      <trkpt lat="44.55848" lon="5.0889">
        <ele>601</ele>
        <time>2024-08-15T12:03:54Z</time>
      </trkpt>
      <trkpt lat="44.55857" lon="5.08884">
        <ele>602</ele>
        <time>2024-08-15T12:03:55Z</time>
      </trkpt>
      <trkpt lat="44.55879" lon="5.08862">
        <ele>608</ele>
        <time>2024-08-15T12:04:00Z</time>
      </trkpt>
      <trkpt lat="44.55888" lon="5.08858">
        <ele>609</ele>
        <time>2024-08-15T12:04:02Z</time>
      </trkpt>
      <trkpt lat="44.55902" lon="5.08858">
        <ele>610</ele>
        <time>2024-08-15T12:04:04Z</time>
      </trkpt>
      <trkpt lat="44.56071" lon="5.08896">
        <ele>615</ele>
        <time>2024-08-15T12:04:35Z</time>
      </trkpt>
      <trkpt lat="44.562" lon="5.08924">
        <ele>625</ele>
        <time>2024-08-15T12:04:58Z</time>
      </trkpt>
      <trkpt lat="44.5621" lon="5.08928">
        <ele>626</ele>
        <time>2024-08-15T12:05:00Z</time>
      </trkpt>
      <trkpt lat="44.56217" lon="5.08934">
        <ele>626</ele>
        <time>2024-08-15T12:05:01Z</time>
      </trkpt>
      <trkpt lat="44.56221" lon="5.08939">
        <ele>627</ele>
        <time>2024-08-15T12:05:02Z</time>
      </trkpt>
      <trkpt lat="44.56224" lon="5.08947">
        <ele>627</ele>
        <time>2024-08-15T12:05:03Z</time>
      </trkpt>
      <trkpt lat="44.56225" lon="5.08956">
        <ele>627</ele>
        <time>2024-08-15T12:05:05Z</time>
      </trkpt>
      <trkpt lat="44.56224" lon="5.0897">
        <ele>627</ele>
        <time>2024-08-15T12:05:06Z</time>
      </trkpt>
      <trkpt lat="44.56216" lon="5.08988">
        <ele>626</ele>
        <time>2024-08-15T12:05:09Z</time>
      </trkpt>
      <trkpt lat="44.56173" lon="5.09062">
        <ele>628</ele>
        <time>2024-08-15T12:05:21Z</time>
      </trkpt>
      <trkpt lat="44.56167" lon="5.09081">
        <ele>629</ele>
        <time>2024-08-15T12:05:24Z</time>
      </trkpt>
      <trkpt lat="44.56164" lon="5.09103">
        <ele>630</ele>
        <time>2024-08-15T12:05:27Z</time>
      </trkpt>
      <trkpt lat="44.56177" lon="5.09312">
        <ele>636</ele>
        <time>2024-08-15T12:05:53Z</time>
      </trkpt>
      <trkpt lat="44.56189" lon="5.0938">
        <ele>638</ele>
        <time>2024-08-15T12:06:02Z</time>
      </trkpt>
      <trkpt lat="44.56209" lon="5.09467">
        <ele>642</ele>
        <time>2024-08-15T12:06:14Z</time>
      </trkpt>
      <trkpt lat="44.56216" lon="5.09529">
        <ele>643</ele>
        <time>2024-08-15T12:06:22Z</time>
      </trkpt>
      <trkpt lat="44.56217" lon="5.09565">
        <ele>643</ele>
        <time>2024-08-15T12:06:26Z</time>
      </trkpt>
      <trkpt lat="44.5621" lon="5.09635">
        <ele>639</ele>
        <time>2024-08-15T12:06:35Z</time>
      </trkpt>
      <trkpt lat="44.56212" lon="5.09658">
        <ele>638</ele>
        <time>2024-08-15T12:06:38Z</time>
      </trkpt>
      <trkpt lat="44.56218" lon="5.0968">
        <ele>638</ele>
        <time>2024-08-15T12:06:41Z</time>
      </trkpt>
      <trkpt lat="44.56228" lon="5.097">
        <ele>639</ele>
        <time>2024-08-15T12:06:44Z</time>
      </trkpt>
      <trkpt lat="44.56247" lon="5.0973">
        <ele>640</ele>
        <time>2024-08-15T12:06:49Z</time>
      </trkpt>
      <trkpt lat="44.56371" lon="5.09887">
        <ele>635</ele>
        <time>2024-08-15T12:07:19Z</time>
      </trkpt>
      <trkpt lat="44.5658" lon="5.10197">
        <ele>628</ele>
        <time>2024-08-15T12:08:13Z</time>
      </trkpt>
      <trkpt lat="44.56627" lon="5.10263">
        <ele>626</ele>
        <time>2024-08-15T12:08:25Z</time>
      </trkpt>
      <trkpt lat="44.56702" lon="5.10379">
        <ele>625</ele>
        <time>2024-08-15T12:08:45Z</time>
      </trkpt>
      <trkpt lat="44.56732" lon="5.10423">
        <ele>623</ele>
        <time>2024-08-15T12:08:53Z</time>
      </trkpt>
      <trkpt lat="44.56747" lon="5.10441">
        <ele>623</ele>
        <time>2024-08-15T12:08:56Z</time>
      </trkpt>
      <trkpt lat="44.56764" lon="5.10457">
        <ele>623</ele>
        <time>2024-08-15T12:09:00Z</time>
      </trkpt>
      <trkpt lat="44.56836" lon="5.1051">
        <ele>622</ele>
        <time>2024-08-15T12:09:14Z</time>
      </trkpt>
      <trkpt lat="44.56848" lon="5.10525">
        <ele>621</ele>
        <time>2024-08-15T12:09:17Z</time>
      </trkpt>
      <trkpt lat="44.56854" lon="5.1054">
        <ele>622</ele>
        <time>2024-08-15T12:09:19Z</time>
      </trkpt>
      <trkpt lat="44.56881" lon="5.10616">
        <ele>627</ele>
        <time>2024-08-15T12:09:30Z</time>
      </trkpt>
      <trkpt lat="44.56889" lon="5.10629">
        <ele>628</ele>
        <time>2024-08-15T12:09:32Z</time>
      </trkpt>
      <trkpt lat="44.569" lon="5.1064">
        <ele>628</ele>
        <time>2024-08-15T12:09:35Z</time>
      </trkpt>
      <trkpt lat="44.56909" lon="5.10644">
        <ele>629</ele>
        <time>2024-08-15T12:09:36Z</time>
      </trkpt>
      <trkpt lat="44.56919" lon="5.10645">
        <ele>629</ele>
        <time>2024-08-15T12:09:38Z</time>
      </trkpt>
      <trkpt lat="44.56929" lon="5.10643">
        <ele>630</ele>
        <time>2024-08-15T12:09:40Z</time>
      </trkpt>
      <trkpt lat="44.57011" lon="5.10574">
        <ele>624</ele>
        <time>2024-08-15T12:09:57Z</time>
      </trkpt>
      <trkpt lat="44.57034" lon="5.10561">
        <ele>623</ele>
        <time>2024-08-15T12:10:01Z</time>
      </trkpt>
      <trkpt lat="44.57045" lon="5.10559">
        <ele>624</ele>
        <time>2024-08-15T12:10:03Z</time>
      </trkpt>
      <trkpt lat="44.57074" lon="5.10564">
        <ele>626</ele>
        <time>2024-08-15T12:10:08Z</time>
      </trkpt>
      <trkpt lat="44.57165" lon="5.10616">
        <ele>634</ele>
        <time>2024-08-15T12:10:26Z</time>
      </trkpt>
      <trkpt lat="44.57201" lon="5.10648">
        <ele>636</ele>
        <time>2024-08-15T12:10:34Z</time>
      </trkpt>
      <trkpt lat="44.57236" lon="5.10689">
        <ele>636</ele>
        <time>2024-08-15T12:10:42Z</time>
      </trkpt>
      <trkpt lat="44.5727" lon="5.1075">
        <ele>645</ele>
        <time>2024-08-15T12:10:51Z</time>
      </trkpt>
      <trkpt lat="44.57278" lon="5.10761">
        <ele>646</ele>
        <time>2024-08-15T12:10:53Z</time>
      </trkpt>
      <trkpt lat="44.57288" lon="5.10772">
        <ele>646</ele>
        <time>2024-08-15T12:10:56Z</time>
      </trkpt>
      <trkpt lat="44.57298" lon="5.10777">
        <ele>645</ele>
        <time>2024-08-15T12:10:58Z</time>
      </trkpt>
      <trkpt lat="44.57308" lon="5.10777">
        <ele>644</ele>
        <time>2024-08-15T12:10:59Z</time>
      </trkpt>
      <trkpt lat="44.57324" lon="5.1077">
        <ele>642</ele>
        <time>2024-08-15T12:11:02Z</time>
      </trkpt>
      <trkpt lat="44.57334" lon="5.10754">
        <ele>639</ele>
        <time>2024-08-15T12:11:05Z</time>
      </trkpt>
      <trkpt lat="44.57347" lon="5.10721">
        <ele>636</ele>
        <time>2024-08-15T12:11:10Z</time>
      </trkpt>
      <trkpt lat="44.57358" lon="5.10709">
        <ele>635</ele>
        <time>2024-08-15T12:11:12Z</time>
      </trkpt>
      <trkpt lat="44.5737" lon="5.10701">
        <ele>635</ele>
        <time>2024-08-15T12:11:15Z</time>
      </trkpt>
      <trkpt lat="44.57397" lon="5.10702">
        <ele>638</ele>
        <time>2024-08-15T12:11:19Z</time>
      </trkpt>
      <trkpt lat="44.57458" lon="5.10721">
        <ele>650</ele>
        <time>2024-08-15T12:11:31Z</time>
      </trkpt>
      <trkpt lat="44.57484" lon="5.10722">
        <ele>652</ele>
        <time>2024-08-15T12:11:35Z</time>
      </trkpt>
      <trkpt lat="44.57503" lon="5.10719">
        <ele>653</ele>
        <time>2024-08-15T12:11:39Z</time>
      </trkpt>
      <trkpt lat="44.57537" lon="5.10702">
        <ele>652</ele>
        <time>2024-08-15T12:11:45Z</time>
      </trkpt>
      <trkpt lat="44.57569" lon="5.10681">
        <ele>652</ele>
        <time>2024-08-15T12:11:51Z</time>
      </trkpt>
      <trkpt lat="44.57632" lon="5.10611">
        <ele>647</ele>
        <time>2024-08-15T12:12:06Z</time>
      </trkpt>
      <trkpt lat="44.57666" lon="5.10584">
        <ele>649</ele>
        <time>2024-08-15T12:12:13Z</time>
      </trkpt>
      <trkpt lat="44.5771" lon="5.10567">
        <ele>645</ele>
        <time>2024-08-15T12:12:21Z</time>
      </trkpt>
      <trkpt lat="44.57738" lon="5.10565">
        <ele>646</ele>
        <time>2024-08-15T12:12:26Z</time>
      </trkpt>
      <trkpt lat="44.57771" lon="5.1057">
        <ele>644</ele>
        <time>2024-08-15T12:12:32Z</time>
      </trkpt>
      <trkpt lat="44.57787" lon="5.10589">
        <ele>644</ele>
        <time>2024-08-15T12:12:35Z</time>
      </trkpt>
      <trkpt lat="44.57791" lon="5.10607">
        <ele>645</ele>
        <time>2024-08-15T12:12:38Z</time>
      </trkpt>
      <trkpt lat="44.57781" lon="5.10655">
        <ele>654</ele>
        <time>2024-08-15T12:12:44Z</time>
      </trkpt>
      <trkpt lat="44.57768" lon="5.10683">
        <ele>659</ele>
        <time>2024-08-15T12:12:48Z</time>
      </trkpt>
      <trkpt lat="44.57746" lon="5.10718">
        <ele>664</ele>
        <time>2024-08-15T12:12:54Z</time>
      </trkpt>
      <trkpt lat="44.57722" lon="5.10751">
        <ele>666</ele>
        <time>2024-08-15T12:13:00Z</time>
      </trkpt>
      <trkpt lat="44.5771" lon="5.10785">
        <ele>668</ele>
        <time>2024-08-15T12:13:05Z</time>
      </trkpt>
      <trkpt lat="44.57707" lon="5.1081">
        <ele>669</ele>
        <time>2024-08-15T12:13:08Z</time>
      </trkpt>
      <trkpt lat="44.57712" lon="5.10822">
        <ele>668</ele>
        <time>2024-08-15T12:13:10Z</time>
      </trkpt>
      <trkpt lat="44.57729" lon="5.10838">
        <ele>666</ele>
        <time>2024-08-15T12:13:14Z</time>
      </trkpt>
      <trkpt lat="44.57752" lon="5.10843">
        <ele>663</ele>
        <time>2024-08-15T12:13:18Z</time>
      </trkpt>
      <trkpt lat="44.57766" lon="5.10855">
        <ele>660</ele>
        <time>2024-08-15T12:13:21Z</time>
      </trkpt>
      <trkpt lat="44.578" lon="5.10898">
        <ele>655</ele>
        <time>2024-08-15T12:13:29Z</time>
      </trkpt>
      <trkpt lat="44.57811" lon="5.10909">
        <ele>654</ele>
        <time>2024-08-15T12:13:31Z</time>
      </trkpt>
      <trkpt lat="44.57822" lon="5.10918">
        <ele>652</ele>
        <time>2024-08-15T12:13:33Z</time>
      </trkpt>
      <trkpt lat="44.57907" lon="5.10971">
        <ele>648</ele>
        <time>2024-08-15T12:13:50Z</time>
      </trkpt>
      <trkpt lat="44.57964" lon="5.10993">
        <ele>646</ele>
        <time>2024-08-15T12:14:01Z</time>
      </trkpt>
      <trkpt lat="44.58003" lon="5.11001">
        <ele>645</ele>
        <time>2024-08-15T12:14:08Z</time>
      </trkpt>
      <trkpt lat="44.58063" lon="5.11007">
        <ele>647</ele>
        <time>2024-08-15T12:14:18Z</time>
      </trkpt>
      <trkpt lat="44.58124" lon="5.11022">
        <ele>643</ele>
        <time>2024-08-15T12:14:29Z</time>
      </trkpt>
      <trkpt lat="44.58147" lon="5.11024">
        <ele>642</ele>
        <time>2024-08-15T12:14:33Z</time>
      </trkpt>
      <trkpt lat="44.58221" lon="5.11011">
        <ele>636</ele>
        <time>2024-08-15T12:14:47Z</time>
      </trkpt>
      <trkpt lat="44.5823" lon="5.11014">
        <ele>634</ele>
        <time>2024-08-15T12:14:48Z</time>
      </trkpt>
      <trkpt lat="44.58234" lon="5.11018">
        <ele>633</ele>
        <time>2024-08-15T12:14:49Z</time>
      </trkpt>
      <trkpt lat="44.58235" lon="5.1103">
        <ele>630</ele>
        <time>2024-08-15T12:14:51Z</time>
      </trkpt>
      <trkpt lat="44.58231" lon="5.11042">
        <ele>629</ele>
        <time>2024-08-15T12:14:52Z</time>
      </trkpt>
      <trkpt lat="44.58201" lon="5.11096">
        <ele>622</ele>
        <time>2024-08-15T12:15:01Z</time>
      </trkpt>
      <trkpt lat="44.58187" lon="5.11119">
        <ele>620</ele>
        <time>2024-08-15T12:15:05Z</time>
      </trkpt>
      <trkpt lat="44.58175" lon="5.1113">
        <ele>620</ele>
        <time>2024-08-15T12:15:07Z</time>
      </trkpt>
      <trkpt lat="44.58162" lon="5.1114">
        <ele>619</ele>
        <time>2024-08-15T12:15:10Z</time>
      </trkpt>
      <trkpt lat="44.58127" lon="5.11154">
        <ele>619</ele>
        <time>2024-08-15T12:15:17Z</time>
      </trkpt>
      <trkpt lat="44.5809" lon="5.11165">
        <ele>619</ele>
        <time>2024-08-15T12:15:23Z</time>
      </trkpt>
      <trkpt lat="44.58075" lon="5.11175">
        <ele>620</ele>
        <time>2024-08-15T12:15:26Z</time>
      </trkpt>
      <trkpt lat="44.58067" lon="5.11188">
        <ele>620</ele>
        <time>2024-08-15T12:15:28Z</time>
      </trkpt>
      <trkpt lat="44.58064" lon="5.11203">
        <ele>621</ele>
        <time>2024-08-15T12:15:30Z</time>
      </trkpt>
      <trkpt lat="44.58065" lon="5.11212">
        <ele>621</ele>
        <time>2024-08-15T12:15:32Z</time>
      </trkpt>
      <trkpt lat="44.58071" lon="5.11224">
        <ele>620</ele>
        <time>2024-08-15T12:15:33Z</time>
      </trkpt>
      <trkpt lat="44.58085" lon="5.11237">
        <ele>619</ele>
        <time>2024-08-15T12:15:36Z</time>
      </trkpt>
      <trkpt lat="44.58106" lon="5.11252">
        <ele>617</ele>
        <time>2024-08-15T12:15:41Z</time>
      </trkpt>
      <trkpt lat="44.58139" lon="5.11269">
        <ele>615</ele>
        <time>2024-08-15T12:15:47Z</time>
      </trkpt>
      <trkpt lat="44.58205" lon="5.11294">
        <ele>611</ele>
        <time>2024-08-15T12:15:59Z</time>
      </trkpt>
      <trkpt lat="44.58225" lon="5.11305">
        <ele>609</ele>
        <time>2024-08-15T12:16:03Z</time>
      </trkpt>
      <trkpt lat="44.58259" lon="5.11332">
        <ele>607</ele>
        <time>2024-08-15T12:16:10Z</time>
      </trkpt>
      <trkpt lat="44.58323" lon="5.11387">
        <ele>604</ele>
        <time>2024-08-15T12:16:23Z</time>
      </trkpt>
      <trkpt lat="44.58346" lon="5.11412">
        <ele>602</ele>
        <time>2024-08-15T12:16:28Z</time>
      </trkpt>
      <trkpt lat="44.58368" lon="5.11446">
        <ele>600</ele>
        <time>2024-08-15T12:16:34Z</time>
      </trkpt>
      <trkpt lat="44.5839" lon="5.11486">
        <ele>597</ele>
        <time>2024-08-15T12:16:41Z</time>
      </trkpt>
      <trkpt lat="44.58411" lon="5.11556">
        <ele>594</ele>
        <time>2024-08-15T12:16:50Z</time>
      </trkpt>
      <trkpt lat="44.58422" lon="5.11577">
        <ele>592</ele>
        <time>2024-08-15T12:16:53Z</time>
      </trkpt>
      <trkpt lat="44.5849" lon="5.11661">
        <ele>585</ele>
        <time>2024-08-15T12:17:10Z</time>
      </trkpt>
      <trkpt lat="44.58503" lon="5.11686">
        <ele>583</ele>
        <time>2024-08-15T12:17:13Z</time>
      </trkpt>
      <trkpt lat="44.58538" lon="5.11815">
        <ele>577</ele>
        <time>2024-08-15T12:17:31Z</time>
      </trkpt>
      <trkpt lat="44.58539" lon="5.11832">
        <ele>577</ele>
        <time>2024-08-15T12:17:33Z</time>
      </trkpt>
      <trkpt lat="44.58536" lon="5.11853">
        <ele>577</ele>
        <time>2024-08-15T12:17:36Z</time>
      </trkpt>
      <trkpt lat="44.58526" lon="5.11889">
        <ele>577</ele>
        <time>2024-08-15T12:17:41Z</time>
      </trkpt>
      <trkpt lat="44.58524" lon="5.11907">
        <ele>577</ele>
        <time>2024-08-15T12:17:43Z</time>
      </trkpt>
      <trkpt lat="44.58529" lon="5.11928">
        <ele>576</ele>
        <time>2024-08-15T12:17:46Z</time>
      </trkpt>
      <trkpt lat="44.58534" lon="5.11938">
        <ele>574</ele>
        <time>2024-08-15T12:17:47Z</time>
      </trkpt>
      <trkpt lat="44.5854" lon="5.11946">
        <ele>573</ele>
        <time>2024-08-15T12:17:49Z</time>
      </trkpt>
      <trkpt lat="44.58548" lon="5.11946">
        <ele>571</ele>
        <time>2024-08-15T12:17:50Z</time>
      </trkpt>
      <trkpt lat="44.58556" lon="5.1194">
        <ele>570</ele>
        <time>2024-08-15T12:17:52Z</time>
      </trkpt>
      <trkpt lat="44.58616" lon="5.11828">
        <ele>565</ele>
        <time>2024-08-15T12:18:10Z</time>
      </trkpt>
      <trkpt lat="44.58624" lon="5.11823">
        <ele>563</ele>
        <time>2024-08-15T12:18:11Z</time>
      </trkpt>
      <trkpt lat="44.58632" lon="5.11822">
        <ele>561</ele>
        <time>2024-08-15T12:18:13Z</time>
      </trkpt>
      <trkpt lat="44.5864" lon="5.11827">
        <ele>559</ele>
        <time>2024-08-15T12:18:14Z</time>
      </trkpt>
      <trkpt lat="44.58644" lon="5.11838">
        <ele>558</ele>
        <time>2024-08-15T12:18:16Z</time>
      </trkpt>
      <trkpt lat="44.58645" lon="5.11851">
        <ele>557</ele>
        <time>2024-08-15T12:18:17Z</time>
      </trkpt>
      <trkpt lat="44.58642" lon="5.11869">
        <ele>557</ele>
        <time>2024-08-15T12:18:20Z</time>
      </trkpt>
      <trkpt lat="44.58623" lon="5.11915">
        <ele>559</ele>
        <time>2024-08-15T12:18:27Z</time>
      </trkpt>
      <trkpt lat="44.58606" lon="5.11945">
        <ele>558</ele>
        <time>2024-08-15T12:18:31Z</time>
      </trkpt>
      <trkpt lat="44.58569" lon="5.11988">
        <ele>561</ele>
        <time>2024-08-15T12:18:40Z</time>
      </trkpt>
      <trkpt lat="44.5856" lon="5.12002">
        <ele>562</ele>
        <time>2024-08-15T12:18:42Z</time>
      </trkpt>
      <trkpt lat="44.58555" lon="5.12014">
        <ele>562</ele>
        <time>2024-08-15T12:18:44Z</time>
      </trkpt>
      <trkpt lat="44.5855" lon="5.12039">
        <ele>560</ele>
        <time>2024-08-15T12:18:47Z</time>
      </trkpt>
      <trkpt lat="44.58539" lon="5.12115">
        <ele>552</ele>
        <time>2024-08-15T12:18:57Z</time>
      </trkpt>
      <trkpt lat="44.58534" lon="5.12135">
        <ele>551</ele>
        <time>2024-08-15T12:19:00Z</time>
      </trkpt>
      <trkpt lat="44.58526" lon="5.1215">
        <ele>550</ele>
        <time>2024-08-15T12:19:02Z</time>
      </trkpt>
      <trkpt lat="44.58517" lon="5.12162">
        <ele>550</ele>
        <time>2024-08-15T12:19:04Z</time>
      </trkpt>
      <trkpt lat="44.58506" lon="5.12171">
        <ele>551</ele>
        <time>2024-08-15T12:19:07Z</time>
      </trkpt>
      <trkpt lat="44.58443" lon="5.12213">
        <ele>552</ele>
        <time>2024-08-15T12:19:19Z</time>
      </trkpt>
      <trkpt lat="44.58401" lon="5.12255">
        <ele>546</ele>
        <time>2024-08-15T12:19:28Z</time>
      </trkpt>
      <trkpt lat="44.58387" lon="5.12265">
        <ele>546</ele>
        <time>2024-08-15T12:19:31Z</time>
      </trkpt>
      <trkpt lat="44.58356" lon="5.12283">
        <ele>547</ele>
        <time>2024-08-15T12:19:37Z</time>
      </trkpt>
      <trkpt lat="44.58343" lon="5.12294">
        <ele>545</ele>
        <time>2024-08-15T12:19:40Z</time>
      </trkpt>
      <trkpt lat="44.58313" lon="5.12328">
        <ele>539</ele>
        <time>2024-08-15T12:19:47Z</time>
      </trkpt>
      <trkpt lat="44.58289" lon="5.12361">
        <ele>537</ele>
        <time>2024-08-15T12:19:53Z</time>
      </trkpt>
      <trkpt lat="44.58281" lon="5.12376">
        <ele>535</ele>
        <time>2024-08-15T12:19:55Z</time>
      </trkpt>
      <trkpt lat="44.5826" lon="5.12426">
        <ele>528</ele>
        <time>2024-08-15T12:20:02Z</time>
      </trkpt>
      <trkpt lat="44.58254" lon="5.12439">
        <ele>527</ele>
        <time>2024-08-15T12:20:04Z</time>
      </trkpt>
      <trkpt lat="44.58246" lon="5.1245">
        <ele>526</ele>
        <time>2024-08-15T12:20:06Z</time>
      </trkpt>
      <trkpt lat="44.58234" lon="5.12459">
        <ele>526</ele>
        <time>2024-08-15T12:20:09Z</time>
      </trkpt>
      <trkpt lat="44.58213" lon="5.12467">
        <ele>527</ele>
        <time>2024-08-15T12:20:13Z</time>
      </trkpt>
      <trkpt lat="44.58192" lon="5.12478">
        <ele>528</ele>
        <time>2024-08-15T12:20:17Z</time>
      </trkpt>
      <trkpt lat="44.58182" lon="5.12488">
        <ele>528</ele>
        <time>2024-08-15T12:20:19Z</time>
      </trkpt>
      <trkpt lat="44.58164" lon="5.12526">
        <ele>521</ele>
        <time>2024-08-15T12:20:25Z</time>
      </trkpt>
      <trkpt lat="44.5815" lon="5.12542">
        <ele>517</ele>
        <time>2024-08-15T12:20:28Z</time>
      </trkpt>
      <trkpt lat="44.58143" lon="5.12547">
        <ele>516</ele>
        <time>2024-08-15T12:20:29Z</time>
      </trkpt>
      <trkpt lat="44.58136" lon="5.12548">
        <ele>515</ele>
        <time>2024-08-15T12:20:30Z</time>
      </trkpt>
      <trkpt lat="44.58126" lon="5.12547">
        <ele>515</ele>
        <time>2024-08-15T12:20:32Z</time>
      </trkpt>
      <trkpt lat="44.58083" lon="5.12522">
        <ele>520</ele>
        <time>2024-08-15T12:20:40Z</time>
      </trkpt>
      <trkpt lat="44.5807" lon="5.12519">
        <ele>522</ele>
        <time>2024-08-15T12:20:43Z</time>
      </trkpt>
      <trkpt lat="44.58035" lon="5.1252">
        <ele>525</ele>
        <time>2024-08-15T12:20:49Z</time>
      </trkpt>
      <trkpt lat="44.58023" lon="5.12524">
        <ele>524</ele>
        <time>2024-08-15T12:20:51Z</time>
      </trkpt>
      <trkpt lat="44.58014" lon="5.1253">
        <ele>523</ele>
        <time>2024-08-15T12:20:53Z</time>
      </trkpt>
      <trkpt lat="44.58007" lon="5.12539">
        <ele>521</ele>
        <time>2024-08-15T12:20:55Z</time>
      </trkpt>
      <trkpt lat="44.57947" lon="5.12639">
        <ele>503</ele>
        <time>2024-08-15T12:21:11Z</time>
      </trkpt>
      <trkpt lat="44.57935" lon="5.12652">
        <ele>502</ele>
        <time>2024-08-15T12:21:14Z</time>
      </trkpt>
      <trkpt lat="44.57873" lon="5.127">
        <ele>497</ele>
        <time>2024-08-15T12:21:27Z</time>
      </trkpt>
      <trkpt lat="44.5785" lon="5.12726">
        <ele>494</ele>
        <time>2024-08-15T12:21:32Z</time>
      </trkpt>
      <trkpt lat="44.57841" lon="5.12744">
        <ele>492</ele>
        <time>2024-08-15T12:21:35Z</time>
      </trkpt>
      <trkpt lat="44.57839" lon="5.12751">
        <ele>491</ele>
        <time>2024-08-15T12:21:36Z</time>
      </trkpt>
      <trkpt lat="44.57839" lon="5.12762">
        <ele>491</ele>
        <time>2024-08-15T12:21:37Z</time>
      </trkpt>
      <trkpt lat="44.57845" lon="5.1277">
        <ele>490</ele>
        <time>2024-08-15T12:21:38Z</time>
      </trkpt>
      <trkpt lat="44.57851" lon="5.1277">
        <ele>490</ele>
        <time>2024-08-15T12:21:39Z</time>
      </trkpt>
      <trkpt lat="44.57877" lon="5.12753">
        <ele>490</ele>
        <time>2024-08-15T12:21:45Z</time>
      </trkpt>
      <trkpt lat="44.57889" lon="5.1275">
        <ele>490</ele>
        <time>2024-08-15T12:21:47Z</time>
      </trkpt>
      <trkpt lat="44.57897" lon="5.12751">
        <ele>489</ele>
        <time>2024-08-15T12:21:48Z</time>
      </trkpt>
      <trkpt lat="44.5793" lon="5.12763">
        <ele>486</ele>
        <time>2024-08-15T12:21:54Z</time>
      </trkpt>
      <trkpt lat="44.57941" lon="5.12763">
        <ele>485</ele>
        <time>2024-08-15T12:21:56Z</time>
      </trkpt>
      <trkpt lat="44.57952" lon="5.12758">
        <ele>484</ele>
        <time>2024-08-15T12:21:58Z</time>
      </trkpt>
      <trkpt lat="44.5796" lon="5.12746">
        <ele>484</ele>
        <time>2024-08-15T12:22:00Z</time>
      </trkpt>
      <trkpt lat="44.57976" lon="5.12717">
        <ele>486</ele>
        <time>2024-08-15T12:22:05Z</time>
      </trkpt>
      <trkpt lat="44.57983" lon="5.12709">
        <ele>486</ele>
        <time>2024-08-15T12:22:07Z</time>
      </trkpt>
      <trkpt lat="44.57991" lon="5.12705">
        <ele>485</ele>
        <time>2024-08-15T12:22:08Z</time>
      </trkpt>
      <trkpt lat="44.58004" lon="5.12701">
        <ele>484</ele>
        <time>2024-08-15T12:22:10Z</time>
      </trkpt>
      <trkpt lat="44.58014" lon="5.12702">
        <ele>484</ele>
        <time>2024-08-15T12:22:12Z</time>
      </trkpt>
      <trkpt lat="44.58026" lon="5.12713">
        <ele>483</ele>
        <time>2024-08-15T12:22:15Z</time>
      </trkpt>
      <trkpt lat="44.58045" lon="5.12751">
        <ele>478</ele>
        <time>2024-08-15T12:22:21Z</time>
      </trkpt>
      <trkpt lat="44.58049" lon="5.1277">
        <ele>478</ele>
        <time>2024-08-15T12:22:23Z</time>
      </trkpt>
      <trkpt lat="44.58047" lon="5.12792">
        <ele>477</ele>
        <time>2024-08-15T12:22:26Z</time>
      </trkpt>
      <trkpt lat="44.58035" lon="5.12842">
        <ele>474</ele>
        <time>2024-08-15T12:22:33Z</time>
      </trkpt>
      <trkpt lat="44.58019" lon="5.12894">
        <ele>468</ele>
        <time>2024-08-15T12:22:40Z</time>
      </trkpt>
      <trkpt lat="44.58018" lon="5.12914">
        <ele>466</ele>
        <time>2024-08-15T12:22:42Z</time>
      </trkpt>
      <trkpt lat="44.58022" lon="5.12973">
        <ele>460</ele>
        <time>2024-08-15T12:22:50Z</time>
      </trkpt>
      <trkpt lat="44.58027" lon="5.12988">
        <ele>460</ele>
        <time>2024-08-15T12:22:52Z</time>
      </trkpt>
      <trkpt lat="44.58034" lon="5.13">
        <ele>459</ele>
        <time>2024-08-15T12:22:54Z</time>
      </trkpt>
      <trkpt lat="44.58063" lon="5.1303">
        <ele>459</ele>
        <time>2024-08-15T12:23:00Z</time>
      </trkpt>
      <trkpt lat="44.58076" lon="5.13047">
        <ele>457</ele>
        <time>2024-08-15T12:23:04Z</time>
      </trkpt>
      <trkpt lat="44.58113" lon="5.13134">
        <ele>447</ele>
        <time>2024-08-15T12:23:16Z</time>
      </trkpt>
      <trkpt lat="44.58127" lon="5.13149">
        <ele>446</ele>
        <time>2024-08-15T12:23:20Z</time>
      </trkpt>
      <trkpt lat="44.58157" lon="5.13168">
        <ele>447</ele>
        <time>2024-08-15T12:23:25Z</time>
      </trkpt>
      <trkpt lat="44.58167" lon="5.13178">
        <ele>447</ele>
        <time>2024-08-15T12:23:28Z</time>
      </trkpt>
      <trkpt lat="44.5817" lon="5.13186">
        <ele>447</ele>
        <time>2024-08-15T12:23:29Z</time>
      </trkpt>
      <trkpt lat="44.58173" lon="5.13199">
        <ele>446</ele>
        <time>2024-08-15T12:23:30Z</time>
      </trkpt>
      <trkpt lat="44.58172" lon="5.13214">
        <ele>445</ele>
        <time>2024-08-15T12:23:32Z</time>
      </trkpt>
      <trkpt lat="44.58163" lon="5.13251">
        <ele>440</ele>
        <time>2024-08-15T12:23:37Z</time>
      </trkpt>
      <trkpt lat="44.58162" lon="5.13276">
        <ele>438</ele>
        <time>2024-08-15T12:23:41Z</time>
      </trkpt>
      <trkpt lat="44.58163" lon="5.13288">
        <ele>438</ele>
        <time>2024-08-15T12:23:42Z</time>
      </trkpt>
      <trkpt lat="44.58171" lon="5.13316">
        <ele>436</ele>
        <time>2024-08-15T12:23:46Z</time>
      </trkpt>
      <trkpt lat="44.58183" lon="5.13339">
        <ele>436</ele>
        <time>2024-08-15T12:23:49Z</time>
      </trkpt>
      <trkpt lat="44.58218" lon="5.13364">
        <ele>437</ele>
        <time>2024-08-15T12:23:56Z</time>
      </trkpt>
      <trkpt lat="44.58235" lon="5.13387">
        <ele>434</ele>
        <time>2024-08-15T12:24:01Z</time>
      </trkpt>
      <trkpt lat="44.58253" lon="5.13425">
        <ele>427</ele>
        <time>2024-08-15T12:24:06Z</time>
      </trkpt>
      <trkpt lat="44.58265" lon="5.13486">
        <ele>421</ele>
        <time>2024-08-15T12:24:14Z</time>
      </trkpt>
      <trkpt lat="44.58269" lon="5.13496">
        <ele>420</ele>
        <time>2024-08-15T12:24:16Z</time>
      </trkpt>
      <trkpt lat="44.58276" lon="5.13501">
        <ele>419</ele>
        <time>2024-08-15T12:24:17Z</time>
      </trkpt>
      <trkpt lat="44.58285" lon="5.13501">
        <ele>419</ele>
        <time>2024-08-15T12:24:19Z</time>
      </trkpt>
      <trkpt lat="44.58309" lon="5.13491">
        <ele>419</ele>
        <time>2024-08-15T12:24:23Z</time>
      </trkpt>
      <trkpt lat="44.58372" lon="5.13445">
        <ele>419</ele>
        <time>2024-08-15T12:24:36Z</time>
      </trkpt>
      <trkpt lat="44.58397" lon="5.13433">
        <ele>416</ele>
        <time>2024-08-15T12:24:41Z</time>
      </trkpt>
      <trkpt lat="44.58423" lon="5.13425">
        <ele>413</ele>
        <time>2024-08-15T12:24:45Z</time>
      </trkpt>
      <trkpt lat="44.58463" lon="5.13416">
        <ele>412</ele>
        <time>2024-08-15T12:24:53Z</time>
      </trkpt>
      <trkpt lat="44.58502" lon="5.13394">
        <ele>411</ele>
        <time>2024-08-15T12:25:00Z</time>
      </trkpt>
      <trkpt lat="44.58519" lon="5.13382">
        <ele>410</ele>
        <time>2024-08-15T12:25:04Z</time>
      </trkpt>
      <trkpt lat="44.58526" lon="5.1338">
        <ele>410</ele>
        <time>2024-08-15T12:25:05Z</time>
      </trkpt>
      <trkpt lat="44.58568" lon="5.1339">
        <ele>407</ele>
        <time>2024-08-15T12:25:12Z</time>
      </trkpt>
      <trkpt lat="44.58592" lon="5.13397">
        <ele>406</ele>
        <time>2024-08-15T12:25:17Z</time>
      </trkpt>
      <trkpt lat="44.58638" lon="5.13406">
        <ele>407</ele>
        <time>2024-08-15T12:25:25Z</time>
      </trkpt>
      <trkpt lat="44.58624" lon="5.13435">
        <ele>406</ele>
        <time>2024-08-15T12:25:29Z</time>
      </trkpt>
      <trkpt lat="44.58621" lon="5.13489">
        <ele>406</ele>
        <time>2024-08-15T12:25:36Z</time>
      </trkpt>
      <trkpt lat="44.58632" lon="5.13507">
        <ele>406</ele>
        <time>2024-08-15T12:25:39Z</time>
      </trkpt>
      <trkpt lat="44.58637" lon="5.13512">
        <ele>407</ele>
        <time>2024-08-15T12:25:40Z</time>
      </trkpt>
      <trkpt lat="44.58642" lon="5.1355">
        <ele>408</ele>
        <time>2024-08-15T12:25:45Z</time>
      </trkpt>
      <trkpt lat="44.58641" lon="5.1356">
        <ele>408</ele>
        <time>2024-08-15T12:25:47Z</time>
      </trkpt>
      <trkpt lat="44.58599" lon="5.13629">
        <ele>407</ele>
        <time>2024-08-15T12:25:58Z</time>
      </trkpt>
      <trkpt lat="44.58582" lon="5.13664">
        <ele>407</ele>
        <time>2024-08-15T12:26:03Z</time>
      </trkpt>
      <trkpt lat="44.58545" lon="5.13729">
        <ele>409</ele>
        <time>2024-08-15T12:26:14Z</time>
      </trkpt>
      <trkpt lat="44.58529" lon="5.13751">
        <ele>409</ele>
        <time>2024-08-15T12:26:18Z</time>
      </trkpt>
      <trkpt lat="44.5852" lon="5.13759">
        <ele>409</ele>
        <time>2024-08-15T12:26:20Z</time>
      </trkpt>
      <trkpt lat="44.58481" lon="5.13789">
        <ele>409</ele>
        <time>2024-08-15T12:26:28Z</time>
      </trkpt>
      <trkpt lat="44.58329" lon="5.13893">
        <ele>412</ele>
        <time>2024-08-15T12:26:58Z</time>
      </trkpt>
      <trkpt lat="44.58238" lon="5.13957">
        <ele>417</ele>
        <time>2024-08-15T12:27:16Z</time>
      </trkpt>
      <trkpt lat="44.58227" lon="5.13966">
        <ele>418</ele>
        <time>2024-08-15T12:27:18Z</time>
      </trkpt>
      <trkpt lat="44.58168" lon="5.1403">
        <ele>418</ele>
        <time>2024-08-15T12:27:32Z</time>
      </trkpt>
      <trkpt lat="44.57877" lon="5.14353">
        <ele>428</ele>
        <time>2024-08-15T12:28:38Z</time>
      </trkpt>
      <trkpt lat="44.57856" lon="5.1438">
        <ele>428</ele>
        <time>2024-08-15T12:28:43Z</time>
      </trkpt>
      <trkpt lat="44.57834" lon="5.14415">
        <ele>429</ele>
        <time>2024-08-15T12:28:48Z</time>
      </trkpt>
      <trkpt lat="44.57823" lon="5.14436">
        <ele>430</ele>
        <time>2024-08-15T12:28:52Z</time>
      </trkpt>
      <trkpt lat="44.57787" lon="5.1452">
        <ele>432</ele>
        <time>2024-08-15T12:29:04Z</time>
      </trkpt>
      <trkpt lat="44.57693" lon="5.14704">
        <ele>434</ele>
        <time>2024-08-15T12:29:33Z</time>
      </trkpt>
      <trkpt lat="44.57551" lon="5.15">
        <ele>436</ele>
        <time>2024-08-15T12:30:18Z</time>
      </trkpt>
      <trkpt lat="44.57526" lon="5.15058">
        <ele>437</ele>
        <time>2024-08-15T12:30:27Z</time>
      </trkpt>
      <trkpt lat="44.57506" lon="5.15124">
        <ele>438</ele>
        <time>2024-08-15T12:30:36Z</time>
      </trkpt>
      <trkpt lat="44.57498" lon="5.15144">
        <ele>439</ele>
        <time>2024-08-15T12:30:39Z</time>
      </trkpt>
      <trkpt lat="44.57484" lon="5.15169">
        <ele>440</ele>
        <time>2024-08-15T12:30:43Z</time>
      </trkpt>
      <trkpt lat="44.57474" lon="5.15179">
        <ele>441</ele>
        <time>2024-08-15T12:30:45Z</time>
      </trkpt>
      <trkpt lat="44.57461" lon="5.15189">
        <ele>440</ele>
        <time>2024-08-15T12:30:48Z</time>
      </trkpt>
      <trkpt lat="44.57412" lon="5.15218">
        <ele>435</ele>
        <time>2024-08-15T12:30:57Z</time>
      </trkpt>
      <trkpt lat="44.57381" lon="5.15242">
        <ele>436</ele>
        <time>2024-08-15T12:31:03Z</time>
      </trkpt>
      <trkpt lat="44.57362" lon="5.15266">
        <ele>435</ele>
        <time>2024-08-15T12:31:08Z</time>
      </trkpt>
      <trkpt lat="44.57244" lon="5.1544">
        <ele>434</ele>
        <time>2024-08-15T12:31:38Z</time>
      </trkpt>
      <trkpt lat="44.57179" lon="5.15538">
        <ele>435</ele>
        <time>2024-08-15T12:31:55Z</time>
      </trkpt>
      <trkpt lat="44.57166" lon="5.15559">
        <ele>434</ele>
        <time>2024-08-15T12:31:59Z</time>
      </trkpt>
      <trkpt lat="44.57159" lon="5.15578">
        <ele>436</ele>
        <time>2024-08-15T12:32:02Z</time>
      </trkpt>
      <trkpt lat="44.57153" lon="5.156">
        <ele>437</ele>
        <time>2024-08-15T12:32:05Z</time>
      </trkpt>
      <trkpt lat="44.57151" lon="5.15625">
        <ele>438</ele>
        <time>2024-08-15T12:32:08Z</time>
      </trkpt>
      <trkpt lat="44.57151" lon="5.15657">
        <ele>438</ele>
        <time>2024-08-15T12:32:12Z</time>
      </trkpt>
      <trkpt lat="44.57152" lon="5.15714">
        <ele>439</ele>
        <time>2024-08-15T12:32:19Z</time>
      </trkpt>
      <trkpt lat="44.57155" lon="5.15739">
        <ele>440</ele>
        <time>2024-08-15T12:32:22Z</time>
      </trkpt>
      <trkpt lat="44.57175" lon="5.15838">
        <ele>442</ele>
        <time>2024-08-15T12:32:35Z</time>
      </trkpt>
      <trkpt lat="44.57178" lon="5.15856">
        <ele>444</ele>
        <time>2024-08-15T12:32:38Z</time>
      </trkpt>
      <trkpt lat="44.57175" lon="5.15897">
        <ele>445</ele>
        <time>2024-08-15T12:32:43Z</time>
      </trkpt>
      <trkpt lat="44.57164" lon="5.15987">
        <ele>445</ele>
        <time>2024-08-15T12:32:54Z</time>
      </trkpt>
      <trkpt lat="44.57159" lon="5.16">
        <ele>444</ele>
        <time>2024-08-15T12:32:56Z</time>
      </trkpt>
      <trkpt lat="44.57152" lon="5.16012">
        <ele>443</ele>
        <time>2024-08-15T12:32:58Z</time>
      </trkpt>
      <trkpt lat="44.57138" lon="5.16027">
        <ele>442</ele>
        <time>2024-08-15T12:33:01Z</time>
      </trkpt>
      <trkpt lat="44.57125" lon="5.16037">
        <ele>441</ele>
        <time>2024-08-15T12:33:04Z</time>
      </trkpt>
      <trkpt lat="44.57015" lon="5.1612">
        <ele>442</ele>
        <time>2024-08-15T12:33:26Z</time>
      </trkpt>
      <trkpt lat="44.56998" lon="5.1613">
        <ele>442</ele>
        <time>2024-08-15T12:33:30Z</time>
      </trkpt>
      <trkpt lat="44.56985" lon="5.16134">
        <ele>442</ele>
        <time>2024-08-15T12:33:32Z</time>
      </trkpt>
      <trkpt lat="44.56968" lon="5.16134">
        <ele>442</ele>
        <time>2024-08-15T12:33:35Z</time>
      </trkpt>
      <trkpt lat="44.56797" lon="5.16081">
        <ele>442</ele>
        <time>2024-08-15T12:34:06Z</time>
      </trkpt>
      <trkpt lat="44.56776" lon="5.16076">
        <ele>443</ele>
        <time>2024-08-15T12:34:10Z</time>
      </trkpt>
      <trkpt lat="44.5676" lon="5.16076">
        <ele>443</ele>
        <time>2024-08-15T12:34:13Z</time>
      </trkpt>
      <trkpt lat="44.56747" lon="5.16078">
        <ele>444</ele>
        <time>2024-08-15T12:34:15Z</time>
      </trkpt>
      <trkpt lat="44.56734" lon="5.16084">
        <ele>444</ele>
        <time>2024-08-15T12:34:17Z</time>
      </trkpt>
      <trkpt lat="44.56659" lon="5.16131">
        <ele>450</ele>
        <time>2024-08-15T12:34:32Z</time>
      </trkpt>
      <trkpt lat="44.56582" lon="5.16174">
        <ele>451</ele>
        <time>2024-08-15T12:34:47Z</time>
      </trkpt>
      <trkpt lat="44.56569" lon="5.16177">
        <ele>452</ele>
        <time>2024-08-15T12:34:49Z</time>
      </trkpt>
      <trkpt lat="44.56555" lon="5.16176">
        <ele>454</ele>
        <time>2024-08-15T12:34:52Z</time>
      </trkpt>
      <trkpt lat="44.56517" lon="5.1616">
        <ele>456</ele>
        <time>2024-08-15T12:34:59Z</time>
      </trkpt>
      <trkpt lat="44.56472" lon="5.1613">
        <ele>459</ele>
        <time>2024-08-15T12:35:08Z</time>
      </trkpt>
      <trkpt lat="44.56457" lon="5.16116">
        <ele>460</ele>
        <time>2024-08-15T12:35:11Z</time>
      </trkpt>
      <trkpt lat="44.56446" lon="5.16101">
        <ele>460</ele>
        <time>2024-08-15T12:35:14Z</time>
      </trkpt>
      <trkpt lat="44.56417" lon="5.16038">
        <ele>459</ele>
        <time>2024-08-15T12:35:23Z</time>
      </trkpt>
      <trkpt lat="44.564" lon="5.15994">
        <ele>455</ele>
        <time>2024-08-15T12:35:29Z</time>
      </trkpt>
      <trkpt lat="44.56392" lon="5.15977">
        <ele>455</ele>
        <time>2024-08-15T12:35:32Z</time>
      </trkpt>
      <trkpt lat="44.56383" lon="5.15962">
        <ele>454</ele>
        <time>2024-08-15T12:35:34Z</time>
      </trkpt>
      <trkpt lat="44.56366" lon="5.15949">
        <ele>454</ele>
        <time>2024-08-15T12:35:38Z</time>
      </trkpt>
      <trkpt lat="44.56356" lon="5.15945">
        <ele>454</ele>
        <time>2024-08-15T12:35:40Z</time>
      </trkpt>
      <trkpt lat="44.56338" lon="5.15944">
        <ele>455</ele>
        <time>2024-08-15T12:35:43Z</time>
      </trkpt>
      <trkpt lat="44.56307" lon="5.15947">
        <ele>455</ele>
        <time>2024-08-15T12:35:48Z</time>
      </trkpt>
      <trkpt lat="44.56286" lon="5.15961">
        <ele>455</ele>
        <time>2024-08-15T12:35:53Z</time>
      </trkpt>
      <trkpt lat="44.56274" lon="5.15974">
        <ele>455</ele>
        <time>2024-08-15T12:35:55Z</time>
      </trkpt>
      <trkpt lat="44.5621" lon="5.16076">
        <ele>458</ele>
        <time>2024-08-15T12:36:13Z</time>
      </trkpt>
      <trkpt lat="44.56123" lon="5.16188">
        <ele>461</ele>
        <time>2024-08-15T12:36:34Z</time>
      </trkpt>
      <trkpt lat="44.56105" lon="5.16208">
        <ele>461</ele>
        <time>2024-08-15T12:36:38Z</time>
      </trkpt>
      <trkpt lat="44.56088" lon="5.16221">
        <ele>461</ele>
        <time>2024-08-15T12:36:41Z</time>
      </trkpt>
      <trkpt lat="44.55889" lon="5.1634">
        <ele>464</ele>
        <time>2024-08-15T12:37:20Z</time>
      </trkpt>
      <trkpt lat="44.55807" lon="5.16401">
        <ele>469</ele>
        <time>2024-08-15T12:37:36Z</time>
      </trkpt>
      <trkpt lat="44.55759" lon="5.16444">
        <ele>471</ele>
        <time>2024-08-15T12:37:46Z</time>
      </trkpt>
      <trkpt lat="44.55721" lon="5.16502">
        <ele>475</ele>
        <time>2024-08-15T12:37:56Z</time>
      </trkpt>
      <trkpt lat="44.5571" lon="5.16513">
        <ele>475</ele>
        <time>2024-08-15T12:37:59Z</time>
      </trkpt>
      <trkpt lat="44.55651" lon="5.16562">
        <ele>478</ele>
        <time>2024-08-15T12:38:11Z</time>
      </trkpt>
      <trkpt lat="44.55591" lon="5.16609">
        <ele>478</ele>
        <time>2024-08-15T12:38:23Z</time>
      </trkpt>
      <trkpt lat="44.55572" lon="5.16628">
        <ele>478</ele>
        <time>2024-08-15T12:38:27Z</time>
      </trkpt>
      <trkpt lat="44.5556" lon="5.16668">
        <ele>479</ele>
        <time>2024-08-15T12:38:33Z</time>
      </trkpt>
      <trkpt lat="44.55556" lon="5.167">
        <ele>481</ele>
        <time>2024-08-15T12:38:37Z</time>
      </trkpt>
      <trkpt lat="44.55556" lon="5.16755">
        <ele>484</ele>
        <time>2024-08-15T12:38:44Z</time>
      </trkpt>
      <trkpt lat="44.5555" lon="5.16807">
        <ele>484</ele>
        <time>2024-08-15T12:38:50Z</time>
      </trkpt>
      <trkpt lat="44.55513" lon="5.16932">
        <ele>481</ele>
        <time>2024-08-15T12:39:08Z</time>
      </trkpt>
      <trkpt lat="44.55444" lon="5.17184">
        <ele>482</ele>
        <time>2024-08-15T12:39:42Z</time>
      </trkpt>
      <trkpt lat="44.55433" lon="5.17209">
        <ele>484</ele>
        <time>2024-08-15T12:39:46Z</time>
      </trkpt>
      <trkpt lat="44.55412" lon="5.17245">
        <ele>485</ele>
        <time>2024-08-15T12:39:51Z</time>
      </trkpt>
      <trkpt lat="44.55249" lon="5.17501">
        <ele>492</ele>
        <time>2024-08-15T12:40:35Z</time>
      </trkpt>
      <trkpt lat="44.55235" lon="5.1753">
        <ele>495</ele>
        <time>2024-08-15T12:40:39Z</time>
      </trkpt>
      <trkpt lat="44.55167" lon="5.17679">
        <ele>504</ele>
        <time>2024-08-15T12:41:02Z</time>
      </trkpt>
      <trkpt lat="44.55157" lon="5.17704">
        <ele>510</ele>
        <time>2024-08-15T12:41:06Z</time>
      </trkpt>
      <trkpt lat="44.55149" lon="5.17751">
        <ele>518</ele>
        <time>2024-08-15T12:41:12Z</time>
      </trkpt>
      <trkpt lat="44.55134" lon="5.17795">
        <ele>524</ele>
        <time>2024-08-15T12:41:18Z</time>
      </trkpt>
      <trkpt lat="44.55131" lon="5.17814">
        <ele>525</ele>
        <time>2024-08-15T12:41:20Z</time>
      </trkpt>
      <trkpt lat="44.55129" lon="5.17859">
        <ele>529</ele>
        <time>2024-08-15T12:41:26Z</time>
      </trkpt>
      <trkpt lat="44.55121" lon="5.17886">
        <ele>530</ele>
        <time>2024-08-15T12:41:30Z</time>
      </trkpt>
      <trkpt lat="44.55102" lon="5.17924">
        <ele>524</ele>
        <time>2024-08-15T12:41:36Z</time>
      </trkpt>
      <trkpt lat="44.55088" lon="5.17974">
        <ele>519</ele>
        <time>2024-08-15T12:41:42Z</time>
      </trkpt>
      <trkpt lat="44.55068" lon="5.18107">
        <ele>529</ele>
        <time>2024-08-15T12:42:00Z</time>
      </trkpt>
      <trkpt lat="44.55055" lon="5.18163">
        <ele>530</ele>
        <time>2024-08-15T12:42:07Z</time>
      </trkpt>
      <trkpt lat="44.55055" lon="5.18184">
        <ele>528</ele>
        <time>2024-08-15T12:42:10Z</time>
      </trkpt>
      <trkpt lat="44.55061" lon="5.18203">
        <ele>526</ele>
        <time>2024-08-15T12:42:12Z</time>
      </trkpt>
      <trkpt lat="44.55093" lon="5.18253">
        <ele>523</ele>
        <time>2024-08-15T12:42:21Z</time>
      </trkpt>
      <trkpt lat="44.55105" lon="5.18285">
        <ele>522</ele>
        <time>2024-08-15T12:42:26Z</time>
      </trkpt>
      <trkpt lat="44.55109" lon="5.18319">
        <ele>520</ele>
        <time>2024-08-15T12:42:30Z</time>
      </trkpt>
      <trkpt lat="44.55109" lon="5.18334">
        <ele>519</ele>
        <time>2024-08-15T12:42:32Z</time>
      </trkpt>
      <trkpt lat="44.55102" lon="5.18358">
        <ele>523</ele>
        <time>2024-08-15T12:42:35Z</time>
      </trkpt>
      <trkpt lat="44.55057" lon="5.18444">
        <ele>529</ele>
        <time>2024-08-15T12:42:49Z</time>
      </trkpt>
      <trkpt lat="44.55011" lon="5.18506">
        <ele>528</ele>
        <time>2024-08-15T12:43:00Z</time>
      </trkpt>
      <trkpt lat="44.54987" lon="5.18565">
        <ele>535</ele>
        <time>2024-08-15T12:43:09Z</time>
      </trkpt>
      <trkpt lat="44.54973" lon="5.18586">
        <ele>535</ele>
        <time>2024-08-15T12:43:12Z</time>
      </trkpt>
      <trkpt lat="44.54958" lon="5.186">
        <ele>534</ele>
        <time>2024-08-15T12:43:15Z</time>
      </trkpt>
      <trkpt lat="44.54908" lon="5.18637">
        <ele>532</ele>
        <time>2024-08-15T12:43:25Z</time>
      </trkpt>
      <trkpt lat="44.54859" lon="5.1867">
        <ele>534</ele>
        <time>2024-08-15T12:43:35Z</time>
      </trkpt>
      <trkpt lat="44.54823" lon="5.18713">
        <ele>539</ele>
        <time>2024-08-15T12:43:44Z</time>
      </trkpt>
      <trkpt lat="44.54805" lon="5.18731">
        <ele>542</ele>
        <time>2024-08-15T12:43:47Z</time>
      </trkpt>
      <trkpt lat="44.54793" lon="5.18735">
        <ele>542</ele>
        <time>2024-08-15T12:43:50Z</time>
      </trkpt>
      <trkpt lat="44.54781" lon="5.18735">
        <ele>542</ele>
        <time>2024-08-15T12:43:52Z</time>
      </trkpt>
      <trkpt lat="44.54756" lon="5.18726">
        <ele>538</ele>
        <time>2024-08-15T12:43:56Z</time>
      </trkpt>
      <trkpt lat="44.54738" lon="5.18724">
        <ele>537</ele>
        <time>2024-08-15T12:44:00Z</time>
      </trkpt>
      <trkpt lat="44.54672" lon="5.18731">
        <ele>536</ele>
        <time>2024-08-15T12:44:11Z</time>
      </trkpt>
      <trkpt lat="44.54652" lon="5.18741">
        <ele>536</ele>
        <time>2024-08-15T12:44:15Z</time>
      </trkpt>
      <trkpt lat="44.54583" lon="5.18825">
        <ele>553</ele>
        <time>2024-08-15T12:44:31Z</time>
      </trkpt>
      <trkpt lat="44.54561" lon="5.18839">
        <ele>556</ele>
        <time>2024-08-15T12:44:36Z</time>
      </trkpt>
      <trkpt lat="44.54522" lon="5.18846">
        <ele>553</ele>
        <time>2024-08-15T12:44:43Z</time>
      </trkpt>
      <trkpt lat="44.54452" lon="5.18851">
        <ele>546</ele>
        <time>2024-08-15T12:44:55Z</time>
      </trkpt>
      <trkpt lat="44.54431" lon="5.18862">
        <ele>546</ele>
        <time>2024-08-15T12:44:59Z</time>
      </trkpt>
      <trkpt lat="44.54402" lon="5.18891">
        <ele>549</ele>
        <time>2024-08-15T12:45:06Z</time>
      </trkpt>
      <trkpt lat="44.54351" lon="5.18978">
        <ele>553</ele>
        <time>2024-08-15T12:45:20Z</time>
      </trkpt>
      <trkpt lat="44.54314" lon="5.19022">
        <ele>556</ele>
        <time>2024-08-15T12:45:28Z</time>
      </trkpt>
      <trkpt lat="44.54253" lon="5.19076">
        <ele>556</ele>
        <time>2024-08-15T12:45:41Z</time>
      </trkpt>
      <trkpt lat="44.5418" lon="5.1912">
        <ele>553</ele>
        <time>2024-08-15T12:45:55Z</time>
      </trkpt>
      <trkpt lat="44.54116" lon="5.19176">
        <ele>553</ele>
        <time>2024-08-15T12:46:09Z</time>
      </trkpt>
      <trkpt lat="44.54103" lon="5.19196">
        <ele>554</ele>
        <time>2024-08-15T12:46:12Z</time>
      </trkpt>
      <trkpt lat="44.54085" lon="5.19256">
        <ele>559</ele>
        <time>2024-08-15T12:46:21Z</time>
      </trkpt>
      <trkpt lat="44.54077" lon="5.19275">
        <ele>562</ele>
        <time>2024-08-15T12:46:23Z</time>
      </trkpt>
      <trkpt lat="44.54038" lon="5.19341">
        <ele>562</ele>
        <time>2024-08-15T12:46:34Z</time>
      </trkpt>
      <trkpt lat="44.54031" lon="5.19371">
        <ele>563</ele>
        <time>2024-08-15T12:46:38Z</time>
      </trkpt>
      <trkpt lat="44.54024" lon="5.19425">
        <ele>566</ele>
        <time>2024-08-15T12:46:45Z</time>
      </trkpt>
      <trkpt lat="44.54015" lon="5.19453">
        <ele>566</ele>
        <time>2024-08-15T12:46:49Z</time>
      </trkpt>
      <trkpt lat="44.54008" lon="5.19469">
        <ele>565</ele>
        <time>2024-08-15T12:46:51Z</time>
      </trkpt>
      <trkpt lat="44.53994" lon="5.1949">
        <ele>562</ele>
        <time>2024-08-15T12:46:55Z</time>
      </trkpt>
      <trkpt lat="44.53982" lon="5.19503">
        <ele>561</ele>
        <time>2024-08-15T12:46:58Z</time>
      </trkpt>
      <trkpt lat="44.53971" lon="5.19513">
        <ele>559</ele>
        <time>2024-08-15T12:47:00Z</time>
      </trkpt>
      <trkpt lat="44.5395" lon="5.19534">
        <ele>557</ele>
        <time>2024-08-15T12:47:05Z</time>
      </trkpt>
      <trkpt lat="44.53939" lon="5.1955">
        <ele>556</ele>
        <time>2024-08-15T12:47:08Z</time>
      </trkpt>
      <trkpt lat="44.5393" lon="5.19567">
        <ele>555</ele>
        <time>2024-08-15T12:47:10Z</time>
      </trkpt>
      <trkpt lat="44.53924" lon="5.19583">
        <ele>555</ele>
        <time>2024-08-15T12:47:12Z</time>
      </trkpt>
      <trkpt lat="44.53914" lon="5.19628">
        <ele>557</ele>
        <time>2024-08-15T12:47:18Z</time>
      </trkpt>
      <trkpt lat="44.53907" lon="5.19646">
        <ele>557</ele>
        <time>2024-08-15T12:47:21Z</time>
      </trkpt>
      <trkpt lat="44.53845" lon="5.19795">
        <ele>563</ele>
        <time>2024-08-15T12:47:43Z</time>
      </trkpt>
      <trkpt lat="44.53825" lon="5.19827">
        <ele>564</ele>
        <time>2024-08-15T12:47:48Z</time>
      </trkpt>
      <trkpt lat="44.53789" lon="5.19869">
        <ele>568</ele>
        <time>2024-08-15T12:47:57Z</time>
      </trkpt>
      <trkpt lat="44.53733" lon="5.19952">
        <ele>572</ele>
        <time>2024-08-15T12:48:11Z</time>
      </trkpt>
      <trkpt lat="44.53692" lon="5.20002">
        <ele>568</ele>
        <time>2024-08-15T12:48:21Z</time>
      </trkpt>
      <trkpt lat="44.5368" lon="5.20021">
        <ele>567</ele>
        <time>2024-08-15T12:48:24Z</time>
      </trkpt>
      <trkpt lat="44.53672" lon="5.20037">
        <ele>566</ele>
        <time>2024-08-15T12:48:27Z</time>
      </trkpt>
      <trkpt lat="44.53661" lon="5.20065">
        <ele>567</ele>
        <time>2024-08-15T12:48:31Z</time>
      </trkpt>
      <trkpt lat="44.53648" lon="5.20089">
        <ele>567</ele>
        <time>2024-08-15T12:48:34Z</time>
      </trkpt>
      <trkpt lat="44.53606" lon="5.20153">
        <ele>565</ele>
        <time>2024-08-15T12:48:45Z</time>
      </trkpt>
      <trkpt lat="44.53593" lon="5.20175">
        <ele>564</ele>
        <time>2024-08-15T12:48:49Z</time>
      </trkpt>
      <trkpt lat="44.53581" lon="5.20199">
        <ele>565</ele>
        <time>2024-08-15T12:48:53Z</time>
      </trkpt>
      <trkpt lat="44.53559" lon="5.20235">
        <ele>568</ele>
        <time>2024-08-15T12:48:59Z</time>
      </trkpt>
      <trkpt lat="44.53545" lon="5.20254">
        <ele>568</ele>
        <time>2024-08-15T12:49:02Z</time>
      </trkpt>
      <trkpt lat="44.53538" lon="5.20267">
        <ele>568</ele>
        <time>2024-08-15T12:49:04Z</time>
      </trkpt>
      <trkpt lat="44.53535" lon="5.20278">
        <ele>568</ele>
        <time>2024-08-15T12:49:06Z</time>
      </trkpt>
      <trkpt lat="44.53528" lon="5.20328">
        <ele>570</ele>
        <time>2024-08-15T12:49:12Z</time>
      </trkpt>
      <trkpt lat="44.53527" lon="5.2035">
        <ele>571</ele>
        <time>2024-08-15T12:49:15Z</time>
      </trkpt>
      <trkpt lat="44.53529" lon="5.20401">
        <ele>575</ele>
        <time>2024-08-15T12:49:22Z</time>
      </trkpt>
      <trkpt lat="44.53528" lon="5.20431">
        <ele>577</ele>
        <time>2024-08-15T12:49:25Z</time>
      </trkpt>
      <trkpt lat="44.53522" lon="5.20469">
        <ele>579</ele>
        <time>2024-08-15T12:49:30Z</time>
      </trkpt>
      <trkpt lat="44.53509" lon="5.20515">
        <ele>578</ele>
        <time>2024-08-15T12:49:37Z</time>
      </trkpt>
      <trkpt lat="44.53498" lon="5.20533">
        <ele>578</ele>
        <time>2024-08-15T12:49:40Z</time>
      </trkpt>
      <trkpt lat="44.53487" lon="5.20544">
        <ele>580</ele>
        <time>2024-08-15T12:49:42Z</time>
      </trkpt>
      <trkpt lat="44.5347" lon="5.20555">
        <ele>579</ele>
        <time>2024-08-15T12:49:45Z</time>
      </trkpt>
      <trkpt lat="44.5345" lon="5.20567">
        <ele>578</ele>
        <time>2024-08-15T12:49:49Z</time>
      </trkpt>
      <trkpt lat="44.53398" lon="5.20586">
        <ele>570</ele>
        <time>2024-08-15T12:49:59Z</time>
      </trkpt>
      <trkpt lat="44.53381" lon="5.20596">
        <ele>570</ele>
        <time>2024-08-15T12:50:02Z</time>
      </trkpt>
      <trkpt lat="44.53373" lon="5.20603">
        <ele>569</ele>
        <time>2024-08-15T12:50:04Z</time>
      </trkpt>
      <trkpt lat="44.53362" lon="5.20618">
        <ele>570</ele>
        <time>2024-08-15T12:50:06Z</time>
      </trkpt>
      <trkpt lat="44.53352" lon="5.2064">
        <ele>570</ele>
        <time>2024-08-15T12:50:10Z</time>
      </trkpt>
      <trkpt lat="44.53346" lon="5.20665">
        <ele>571</ele>
        <time>2024-08-15T12:50:13Z</time>
      </trkpt>
      <trkpt lat="44.53323" lon="5.20829">
        <ele>576</ele>
        <time>2024-08-15T12:50:34Z</time>
      </trkpt>
      <trkpt lat="44.53312" lon="5.20873">
        <ele>578</ele>
        <time>2024-08-15T12:50:40Z</time>
      </trkpt>
      <trkpt lat="44.5329" lon="5.20944">
        <ele>578</ele>
        <time>2024-08-15T12:50:50Z</time>
      </trkpt>
      <trkpt lat="44.53285" lon="5.2097">
        <ele>577</ele>
        <time>2024-08-15T12:50:53Z</time>
      </trkpt>
      <trkpt lat="44.53286" lon="5.20987">
        <ele>578</ele>
        <time>2024-08-15T12:50:56Z</time>
      </trkpt>
      <trkpt lat="44.53291" lon="5.21009">
        <ele>578</ele>
        <time>2024-08-15T12:50:59Z</time>
      </trkpt>
      <trkpt lat="44.53326" lon="5.21113">
        <ele>581</ele>
        <time>2024-08-15T12:51:13Z</time>
      </trkpt>
      <trkpt lat="44.53351" lon="5.21176">
        <ele>582</ele>
        <time>2024-08-15T12:51:22Z</time>
      </trkpt>
      <trkpt lat="44.5336" lon="5.21192">
        <ele>583</ele>
        <time>2024-08-15T12:51:25Z</time>
      </trkpt>
      <trkpt lat="44.53392" lon="5.21226">
        <ele>585</ele>
        <time>2024-08-15T12:51:32Z</time>
      </trkpt>
      <trkpt lat="44.53414" lon="5.21254">
        <ele>586</ele>
        <time>2024-08-15T12:51:37Z</time>
      </trkpt>
      <trkpt lat="44.53429" lon="5.21277">
        <ele>588</ele>
        <time>2024-08-15T12:51:41Z</time>
      </trkpt>
      <trkpt lat="44.53453" lon="5.21323">
        <ele>590</ele>
        <time>2024-08-15T12:51:48Z</time>
      </trkpt>
      <trkpt lat="44.53461" lon="5.2135">
        <ele>590</ele>
        <time>2024-08-15T12:51:52Z</time>
      </trkpt>
      <trkpt lat="44.53462" lon="5.21359">
        <ele>590</ele>
        <time>2024-08-15T12:51:53Z</time>
      </trkpt>
      <trkpt lat="44.53459" lon="5.21387">
        <ele>588</ele>
        <time>2024-08-15T12:51:57Z</time>
      </trkpt>
      <trkpt lat="44.53455" lon="5.21399">
        <ele>587</ele>
        <time>2024-08-15T12:51:59Z</time>
      </trkpt>
      <trkpt lat="44.53446" lon="5.21413">
        <ele>586</ele>
        <time>2024-08-15T12:52:01Z</time>
      </trkpt>
      <trkpt lat="44.5338" lon="5.21515">
        <ele>587</ele>
        <time>2024-08-15T12:52:18Z</time>
      </trkpt>
      <trkpt lat="44.53362" lon="5.21532">
        <ele>588</ele>
        <time>2024-08-15T12:52:22Z</time>
      </trkpt>
      <trkpt lat="44.53152" lon="5.2168">
        <ele>588</ele>
        <time>2024-08-15T12:53:04Z</time>
      </trkpt>
      <trkpt lat="44.52887" lon="5.21811">
        <ele>591</ele>
        <time>2024-08-15T12:53:54Z</time>
      </trkpt>
      <trkpt lat="44.52772" lon="5.21871">
        <ele>590</ele>
        <time>2024-08-15T12:54:16Z</time>
      </trkpt>
      <trkpt lat="44.5275" lon="5.21881">
        <ele>590</ele>
        <time>2024-08-15T12:54:20Z</time>
      </trkpt>
      <trkpt lat="44.52735" lon="5.21883">
        <ele>590</ele>
        <time>2024-08-15T12:54:23Z</time>
      </trkpt>
      <trkpt lat="44.52715" lon="5.21883">
        <ele>591</ele>
        <time>2024-08-15T12:54:26Z</time>
      </trkpt>
      <trkpt lat="44.52472" lon="5.21824">
        <ele>593</ele>
        <time>2024-08-15T12:55:10Z</time>
      </trkpt>
      <trkpt lat="44.52407" lon="5.2182">
        <ele>597</ele>
        <time>2024-08-15T12:55:22Z</time>
      </trkpt>
      <trkpt lat="44.52383" lon="5.21814">
        <ele>597</ele>
        <time>2024-08-15T12:55:26Z</time>
      </trkpt>
      <trkpt lat="44.52368" lon="5.21809">
        <ele>598</ele>
        <time>2024-08-15T12:55:29Z</time>
      </trkpt>
      <trkpt lat="44.52349" lon="5.21798">
        <ele>597</ele>
        <time>2024-08-15T12:55:33Z</time>
      </trkpt>
      <trkpt lat="44.52296" lon="5.21755">
        <ele>596</ele>
        <time>2024-08-15T12:55:43Z</time>
      </trkpt>
      <trkpt lat="44.52271" lon="5.21745">
        <ele>596</ele>
        <time>2024-08-15T12:55:48Z</time>
      </trkpt>
      <trkpt lat="44.52244" lon="5.21751">
        <ele>597</ele>
        <time>2024-08-15T12:55:53Z</time>
      </trkpt>
      <trkpt lat="44.52215" lon="5.21762">
        <ele>600</ele>
        <time>2024-08-15T12:55:58Z</time>
      </trkpt>
      <trkpt lat="44.52202" lon="5.21765">
        <ele>600</ele>
        <time>2024-08-15T12:56:01Z</time>
      </trkpt>
      <trkpt lat="44.52181" lon="5.2176">
        <ele>601</ele>
        <time>2024-08-15T12:56:04Z</time>
      </trkpt>
      <trkpt lat="44.52024" lon="5.2169">
        <ele>607</ele>
        <time>2024-08-15T12:56:34Z</time>
      </trkpt>
      <trkpt lat="44.51976" lon="5.21674">
        <ele>609</ele>
        <time>2024-08-15T12:56:42Z</time>
      </trkpt>
      <trkpt lat="44.51954" lon="5.21655">
        <ele>611</ele>
        <time>2024-08-15T12:56:47Z</time>
      </trkpt>
      <trkpt lat="44.51933" lon="5.21634">
        <ele>612</ele>
        <time>2024-08-15T12:56:52Z</time>
      </trkpt>
      <trkpt lat="44.5192" lon="5.21622">
        <ele>612</ele>
        <time>2024-08-15T12:56:54Z</time>
      </trkpt>
      <trkpt lat="44.51865" lon="5.21583">
        <ele>613</ele>
        <time>2024-08-15T12:57:05Z</time>
      </trkpt>
      <trkpt lat="44.51848" lon="5.21575">
        <ele>613</ele>
        <time>2024-08-15T12:57:09Z</time>
      </trkpt>
      <trkpt lat="44.51776" lon="5.21556">
        <ele>616</ele>
        <time>2024-08-15T12:57:22Z</time>
      </trkpt>
      <trkpt lat="44.51758" lon="5.21555">
        <ele>617</ele>
        <time>2024-08-15T12:57:25Z</time>
      </trkpt>
      <trkpt lat="44.51693" lon="5.21559">
        <ele>616</ele>
        <time>2024-08-15T12:57:36Z</time>
      </trkpt>
      <trkpt lat="44.51672" lon="5.21591">
        <ele>616</ele>
        <time>2024-08-15T12:57:42Z</time>
      </trkpt>
      <trkpt lat="44.51652" lon="5.2161">
        <ele>619</ele>
        <time>2024-08-15T12:57:46Z</time>
      </trkpt>
      <trkpt lat="44.51623" lon="5.21647">
        <ele>623</ele>
        <time>2024-08-15T12:57:53Z</time>
      </trkpt>
      <trkpt lat="44.51601" lon="5.21668">
        <ele>622</ele>
        <time>2024-08-15T12:57:58Z</time>
      </trkpt>
      <trkpt lat="44.51576" lon="5.21706">
        <ele>624</ele>
        <time>2024-08-15T12:58:04Z</time>
      </trkpt>
      <trkpt lat="44.51549" lon="5.21807">
        <ele>634</ele>
        <time>2024-08-15T12:58:18Z</time>
      </trkpt>
      <trkpt lat="44.51538" lon="5.21859">
        <ele>636</ele>
        <time>2024-08-15T12:58:25Z</time>
      </trkpt>
      <trkpt lat="44.51519" lon="5.21893">
        <ele>635</ele>
        <time>2024-08-15T12:58:31Z</time>
      </trkpt>
      <trkpt lat="44.51476" lon="5.21981">
        <ele>643</ele>
        <time>2024-08-15T12:58:44Z</time>
      </trkpt>
      <trkpt lat="44.51436" lon="5.22096">
        <ele>642</ele>
        <time>2024-08-15T12:59:00Z</time>
      </trkpt>
      <trkpt lat="44.51428" lon="5.22146">
        <ele>642</ele>
        <time>2024-08-15T12:59:07Z</time>
      </trkpt>
      <trkpt lat="44.51411" lon="5.22218">
        <ele>642</ele>
        <time>2024-08-15T12:59:16Z</time>
      </trkpt>
      <trkpt lat="44.51403" lon="5.22246">
        <ele>644</ele>
        <time>2024-08-15T12:59:20Z</time>
      </trkpt>
      <trkpt lat="44.51392" lon="5.22274">
        <ele>646</ele>
        <time>2024-08-15T12:59:24Z</time>
      </trkpt>
      <trkpt lat="44.51338" lon="5.22376">
        <ele>648</ele>
        <time>2024-08-15T12:59:40Z</time>
      </trkpt>
      <trkpt lat="44.51326" lon="5.22404">
        <ele>650</ele>
        <time>2024-08-15T12:59:45Z</time>
      </trkpt>
      <trkpt lat="44.51319" lon="5.22428">
        <ele>653</ele>
        <time>2024-08-15T12:59:48Z</time>
      </trkpt>
      <trkpt lat="44.5131" lon="5.22478">
        <ele>658</ele>
        <time>2024-08-15T12:59:54Z</time>
      </trkpt>
      <trkpt lat="44.51297" lon="5.22538">
        <ele>662</ele>
        <time>2024-08-15T13:00:02Z</time>
      </trkpt>
      <trkpt lat="44.51296" lon="5.22549">
        <ele>663</ele>
        <time>2024-08-15T13:00:04Z</time>
      </trkpt>
      <trkpt lat="44.51298" lon="5.22593">
        <ele>668</ele>
        <time>2024-08-15T13:00:09Z</time>
      </trkpt>
      <trkpt lat="44.51296" lon="5.22634">
        <ele>672</ele>
        <time>2024-08-15T13:00:15Z</time>
      </trkpt>
      <trkpt lat="44.51293" lon="5.22654">
        <ele>673</ele>
        <time>2024-08-15T13:00:17Z</time>
      </trkpt>
      <trkpt lat="44.51288" lon="5.22673">
        <ele>672</ele>
        <time>2024-08-15T13:00:20Z</time>
      </trkpt>
      <trkpt lat="44.5126" lon="5.22718">
        <ele>665</ele>
        <time>2024-08-15T13:00:27Z</time>
      </trkpt>
      <trkpt lat="44.51253" lon="5.22734">
        <ele>663</ele>
        <time>2024-08-15T13:00:30Z</time>
      </trkpt>
      <trkpt lat="44.51248" lon="5.22748">
        <ele>664</ele>
        <time>2024-08-15T13:00:32Z</time>
      </trkpt>
      <trkpt lat="44.51245" lon="5.22771">
        <ele>664</ele>
        <time>2024-08-15T13:00:35Z</time>
      </trkpt>
      <trkpt lat="44.51247" lon="5.2279">
        <ele>664</ele>
        <time>2024-08-15T13:00:37Z</time>
      </trkpt>
      <trkpt lat="44.51251" lon="5.22805">
        <ele>664</ele>
        <time>2024-08-15T13:00:39Z</time>
      </trkpt>
      <trkpt lat="44.513" lon="5.22892">
        <ele>672</ele>
        <time>2024-08-15T13:00:53Z</time>
      </trkpt>
      <trkpt lat="44.5131" lon="5.22913">
        <ele>672</ele>
        <time>2024-08-15T13:00:56Z</time>
      </trkpt>
      <trkpt lat="44.51314" lon="5.22926">
        <ele>673</ele>
        <time>2024-08-15T13:00:58Z</time>
      </trkpt>
      <trkpt lat="44.51316" lon="5.22941">
        <ele>675</ele>
        <time>2024-08-15T13:01:00Z</time>
      </trkpt>
      <trkpt lat="44.51313" lon="5.22959">
        <ele>677</ele>
        <time>2024-08-15T13:01:02Z</time>
      </trkpt>
      <trkpt lat="44.51307" lon="5.2297">
        <ele>677</ele>
        <time>2024-08-15T13:01:04Z</time>
      </trkpt>
      <trkpt lat="44.51299" lon="5.22981">
        <ele>677</ele>
        <time>2024-08-15T13:01:06Z</time>
      </trkpt>
      <trkpt lat="44.51274" lon="5.23003">
        <ele>676</ele>
        <time>2024-08-15T13:01:11Z</time>
      </trkpt>
      <trkpt lat="44.51257" lon="5.23024">
        <ele>677</ele>
        <time>2024-08-15T13:01:16Z</time>
      </trkpt>
      <trkpt lat="44.51232" lon="5.23065">
        <ele>680</ele>
        <time>2024-08-15T13:01:22Z</time>
      </trkpt>
      <trkpt lat="44.51222" lon="5.23076">
        <ele>681</ele>
        <time>2024-08-15T13:01:25Z</time>
      </trkpt>
      <trkpt lat="44.51195" lon="5.23094">
        <ele>680</ele>
        <time>2024-08-15T13:01:30Z</time>
      </trkpt>
      <trkpt lat="44.51192" lon="5.23105">
        <ele>682</ele>
        <time>2024-08-15T13:01:31Z</time>
      </trkpt>
      <trkpt lat="44.51197" lon="5.23111">
        <ele>683</ele>
        <time>2024-08-15T13:01:33Z</time>
      </trkpt>
      <trkpt lat="44.51201" lon="5.23113">
        <ele>684</ele>
        <time>2024-08-15T13:01:33Z</time>
      </trkpt>
      <trkpt lat="44.51213" lon="5.23107">
        <ele>685</ele>
        <time>2024-08-15T13:01:36Z</time>
      </trkpt>
      <trkpt lat="44.51269" lon="5.23053">
        <ele>685</ele>
        <time>2024-08-15T13:01:48Z</time>
      </trkpt>
      <trkpt lat="44.51285" lon="5.23041">
        <ele>685</ele>
        <time>2024-08-15T13:01:51Z</time>
      </trkpt>
      <trkpt lat="44.51297" lon="5.23035">
        <ele>687</ele>
        <time>2024-08-15T13:01:53Z</time>
      </trkpt>
      <trkpt lat="44.51317" lon="5.2303">
        <ele>689</ele>
        <time>2024-08-15T13:01:57Z</time>
      </trkpt>
      <trkpt lat="44.51419" lon="5.23014">
        <ele>697</ele>
        <time>2024-08-15T13:02:15Z</time>
      </trkpt>
      <trkpt lat="44.51423" lon="5.23018">
        <ele>698</ele>
        <time>2024-08-15T13:02:16Z</time>
      </trkpt>
      <trkpt lat="44.51423" lon="5.23025">
        <ele>700</ele>
        <time>2024-08-15T13:02:17Z</time>
      </trkpt>
      <trkpt lat="44.51421" lon="5.23032">
        <ele>700</ele>
        <time>2024-08-15T13:02:18Z</time>
      </trkpt>
      <trkpt lat="44.51412" lon="5.2304">
        <ele>701</ele>
        <time>2024-08-15T13:02:20Z</time>
      </trkpt>
      <trkpt lat="44.5137" lon="5.23042">
        <ele>698</ele>
        <time>2024-08-15T13:02:27Z</time>
      </trkpt>
      <trkpt lat="44.51329" lon="5.23054">
        <ele>698</ele>
        <time>2024-08-15T13:02:35Z</time>
      </trkpt>
      <trkpt lat="44.51317" lon="5.23062">
        <ele>697</ele>
        <time>2024-08-15T13:02:37Z</time>
      </trkpt>
      <trkpt lat="44.51307" lon="5.23071">
        <ele>697</ele>
        <time>2024-08-15T13:02:39Z</time>
      </trkpt>
      <trkpt lat="44.51302" lon="5.23081">
        <ele>698</ele>
        <time>2024-08-15T13:02:41Z</time>
      </trkpt>
      <trkpt lat="44.51298" lon="5.23095">
        <ele>699</ele>
        <time>2024-08-15T13:02:43Z</time>
      </trkpt>
      <trkpt lat="44.51297" lon="5.23108">
        <ele>701</ele>
        <time>2024-08-15T13:02:44Z</time>
      </trkpt>
      <trkpt lat="44.513" lon="5.23154">
        <ele>709</ele>
        <time>2024-08-15T13:02:50Z</time>
      </trkpt>
      <trkpt lat="44.51301" lon="5.23186">
        <ele>712</ele>
        <time>2024-08-15T13:02:54Z</time>
      </trkpt>
      <trkpt lat="44.51297" lon="5.23222">
        <ele>715</ele>
        <time>2024-08-15T13:02:59Z</time>
      </trkpt>
      <trkpt lat="44.51273" lon="5.23316">
        <ele>718</ele>
        <time>2024-08-15T13:03:11Z</time>
      </trkpt>
      <trkpt lat="44.51266" lon="5.23335">
        <ele>718</ele>
        <time>2024-08-15T13:03:14Z</time>
      </trkpt>
      <trkpt lat="44.51221" lon="5.23415">
        <ele>725</ele>
        <time>2024-08-15T13:03:27Z</time>
      </trkpt>
      <trkpt lat="44.5121" lon="5.23427">
        <ele>726</ele>
        <time>2024-08-15T13:03:30Z</time>
      </trkpt>
      <trkpt lat="44.51174" lon="5.23449">
        <ele>725</ele>
        <time>2024-08-15T13:03:37Z</time>
      </trkpt>
      <trkpt lat="44.51164" lon="5.23458">
        <ele>726</ele>
        <time>2024-08-15T13:03:39Z</time>
      </trkpt>
      <trkpt lat="44.51157" lon="5.23468">
        <ele>726</ele>
        <time>2024-08-15T13:03:40Z</time>
      </trkpt>
      <trkpt lat="44.51154" lon="5.23474">
        <ele>726</ele>
        <time>2024-08-15T13:03:41Z</time>
      </trkpt>
      <trkpt lat="44.51147" lon="5.23508">
        <ele>732</ele>
        <time>2024-08-15T13:03:46Z</time>
      </trkpt>
      <trkpt lat="44.51141" lon="5.23526">
        <ele>735</ele>
        <time>2024-08-15T13:03:48Z</time>
      </trkpt>
      <trkpt lat="44.51133" lon="5.23542">
        <ele>738</ele>
        <time>2024-08-15T13:03:51Z</time>
      </trkpt>
      <trkpt lat="44.51119" lon="5.23562">
        <ele>739</ele>
        <time>2024-08-15T13:03:54Z</time>
      </trkpt>
      <trkpt lat="44.51112" lon="5.2357">
        <ele>739</ele>
        <time>2024-08-15T13:03:56Z</time>
      </trkpt>
      <trkpt lat="44.51098" lon="5.23581">
        <ele>738</ele>
        <time>2024-08-15T13:03:59Z</time>
      </trkpt>
      <trkpt lat="44.51079" lon="5.2359">
        <ele>737</ele>
        <time>2024-08-15T13:04:02Z</time>
      </trkpt>
      <trkpt lat="44.51057" lon="5.23605">
        <ele>739</ele>
        <time>2024-08-15T13:04:07Z</time>
      </trkpt>
      <trkpt lat="44.51007" lon="5.23652">
        <ele>741</ele>
        <time>2024-08-15T13:04:18Z</time>
      </trkpt>
      <trkpt lat="44.50946" lon="5.23691">
        <ele>743</ele>
        <time>2024-08-15T13:04:29Z</time>
      </trkpt>
      <trkpt lat="44.50864" lon="5.23748">
        <ele>747</ele>
        <time>2024-08-15T13:04:46Z</time>
      </trkpt>
      <trkpt lat="44.50849" lon="5.23763">
        <ele>748</ele>
        <time>2024-08-15T13:04:49Z</time>
      </trkpt>
      <trkpt lat="44.50818" lon="5.23803">
        <ele>752</ele>
        <time>2024-08-15T13:04:57Z</time>
      </trkpt>
      <trkpt lat="44.50798" lon="5.2382">
        <ele>753</ele>
        <time>2024-08-15T13:05:01Z</time>
      </trkpt>
      <trkpt lat="44.50783" lon="5.2384">
        <ele>753</ele>
        <time>2024-08-15T13:05:04Z</time>
      </trkpt>
      <trkpt lat="44.50781" lon="5.23852">
        <ele>754</ele>
        <time>2024-08-15T13:05:06Z</time>
      </trkpt>
      <trkpt lat="44.5078" lon="5.23864">
        <ele>756</ele>
        <time>2024-08-15T13:05:07Z</time>
      </trkpt>
      <trkpt lat="44.50789" lon="5.2393">
        <ele>767</ele>
        <time>2024-08-15T13:05:16Z</time>
      </trkpt>
      <trkpt lat="44.50788" lon="5.23944">
        <ele>768</ele>
        <time>2024-08-15T13:05:18Z</time>
      </trkpt>
      <trkpt lat="44.50785" lon="5.23957">
        <ele>767</ele>
        <time>2024-08-15T13:05:19Z</time>
      </trkpt>
      <trkpt lat="44.50778" lon="5.23975">
        <ele>766</ele>
        <time>2024-08-15T13:05:22Z</time>
      </trkpt>
      <trkpt lat="44.50762" lon="5.24002">
        <ele>762</ele>
        <time>2024-08-15T13:05:27Z</time>
      </trkpt>
      <trkpt lat="44.50756" lon="5.24016">
        <ele>762</ele>
        <time>2024-08-15T13:05:29Z</time>
      </trkpt>
      <trkpt lat="44.50755" lon="5.24028">
        <ele>762</ele>
        <time>2024-08-15T13:05:30Z</time>
      </trkpt>
      <trkpt lat="44.50763" lon="5.24179">
        <ele>780</ele>
        <time>2024-08-15T13:05:49Z</time>
      </trkpt>
      <trkpt lat="44.50762" lon="5.24194">
        <ele>782</ele>
        <time>2024-08-15T13:05:51Z</time>
      </trkpt>
      <trkpt lat="44.50752" lon="5.24271">
        <ele>786</ele>
        <time>2024-08-15T13:06:01Z</time>
      </trkpt>
      <trkpt lat="44.50741" lon="5.24319">
        <ele>792</ele>
        <time>2024-08-15T13:06:08Z</time>
      </trkpt>
      <trkpt lat="44.50738" lon="5.24327">
        <ele>794</ele>
        <time>2024-08-15T13:06:09Z</time>
      </trkpt>
      <trkpt lat="44.50737" lon="5.2434">
        <ele>795</ele>
        <time>2024-08-15T13:06:10Z</time>
      </trkpt>
      <trkpt lat="44.5074" lon="5.24348">
        <ele>796</ele>
        <time>2024-08-15T13:06:12Z</time>
      </trkpt>
      <trkpt lat="44.50743" lon="5.24352">
        <ele>796</ele>
        <time>2024-08-15T13:06:12Z</time>
      </trkpt>
      <trkpt lat="44.50751" lon="5.24352">
        <ele>795</ele>
        <time>2024-08-15T13:06:14Z</time>
      </trkpt>
      <trkpt lat="44.50758" lon="5.24336">
        <ele>796</ele>
        <time>2024-08-15T13:06:16Z</time>
      </trkpt>
      <trkpt lat="44.50772" lon="5.24272">
        <ele>796</ele>
        <time>2024-08-15T13:06:25Z</time>
      </trkpt>
      <trkpt lat="44.50788" lon="5.24216">
        <ele>798</ele>
        <time>2024-08-15T13:06:32Z</time>
      </trkpt>
      <trkpt lat="44.50791" lon="5.24161">
        <ele>793</ele>
        <time>2024-08-15T13:06:39Z</time>
      </trkpt>
      <trkpt lat="44.50799" lon="5.24084">
        <ele>786</ele>
        <time>2024-08-15T13:06:49Z</time>
      </trkpt>
      <trkpt lat="44.50801" lon="5.24079">
        <ele>786</ele>
        <time>2024-08-15T13:06:50Z</time>
      </trkpt>
      <trkpt lat="44.50806" lon="5.24077">
        <ele>787</ele>
        <time>2024-08-15T13:06:51Z</time>
      </trkpt>
      <trkpt lat="44.5081" lon="5.24077">
        <ele>789</ele>
        <time>2024-08-15T13:06:51Z</time>
      </trkpt>
      <trkpt lat="44.50835" lon="5.2407">
        <ele>797</ele>
        <time>2024-08-15T13:06:56Z</time>
      </trkpt>
      <trkpt lat="44.50854" lon="5.24081">
        <ele>805</ele>
        <time>2024-08-15T13:07:00Z</time>
      </trkpt>
      <trkpt lat="44.5087" lon="5.2408">
        <ele>809</ele>
        <time>2024-08-15T13:07:03Z</time>
      </trkpt>
      <trkpt lat="44.50885" lon="5.24066">
        <ele>812</ele>
        <time>2024-08-15T13:07:06Z</time>
      </trkpt>
      <trkpt lat="44.50895" lon="5.24047">
        <ele>814</ele>
        <time>2024-08-15T13:07:09Z</time>
      </trkpt>
      <trkpt lat="44.50894" lon="5.24032">
        <ele>813</ele>
        <time>2024-08-15T13:07:11Z</time>
      </trkpt>
      <trkpt lat="44.50886" lon="5.24018">
        <ele>809</ele>
        <time>2024-08-15T13:07:13Z</time>
      </trkpt>
      <trkpt lat="44.50894" lon="5.24032">
        <ele>813</ele>
        <time>2024-08-15T13:07:15Z</time>
      </trkpt>
      <trkpt lat="44.50895" lon="5.24047">
        <ele>814</ele>
        <time>2024-08-15T13:07:17Z</time>
      </trkpt>
      <trkpt lat="44.50885" lon="5.24066">
        <ele>812</ele>
        <time>2024-08-15T13:07:20Z</time>
      </trkpt>
      <trkpt lat="44.5087" lon="5.2408">
        <ele>809</ele>
        <time>2024-08-15T13:07:23Z</time>
      </trkpt>
      <trkpt lat="44.50854" lon="5.24081">
        <ele>805</ele>
        <time>2024-08-15T13:07:26Z</time>
      </trkpt>
      <trkpt lat="44.50835" lon="5.2407">
        <ele>797</ele>
        <time>2024-08-15T13:07:30Z</time>
      </trkpt>
      <trkpt lat="44.5081" lon="5.24077">
        <ele>789</ele>
        <time>2024-08-15T13:07:34Z</time>
      </trkpt>
      <trkpt lat="44.50815" lon="5.24084">
        <ele>792</ele>
        <time>2024-08-15T13:07:36Z</time>
      </trkpt>
      <trkpt lat="44.50815" lon="5.24091">
        <ele>793</ele>
        <time>2024-08-15T13:07:37Z</time>
      </trkpt>
      <trkpt lat="44.50811" lon="5.24109">
        <ele>795</ele>
        <time>2024-08-15T13:07:39Z</time>
      </trkpt>
      <trkpt lat="44.50805" lon="5.24123">
        <ele>794</ele>
        <time>2024-08-15T13:07:41Z</time>
      </trkpt>
      <trkpt lat="44.50803" lon="5.24139">
        <ele>796</ele>
        <time>2024-08-15T13:07:43Z</time>
      </trkpt>
      <trkpt lat="44.50802" lon="5.24159">
        <ele>799</ele>
        <time>2024-08-15T13:07:46Z</time>
      </trkpt>
      <trkpt lat="44.50806" lon="5.24229">
        <ele>809</ele>
        <time>2024-08-15T13:07:54Z</time>
      </trkpt>
      <trkpt lat="44.50805" lon="5.24247">
        <ele>811</ele>
        <time>2024-08-15T13:07:57Z</time>
      </trkpt>
      <trkpt lat="44.50796" lon="5.24295">
        <ele>811</ele>
        <time>2024-08-15T13:08:03Z</time>
      </trkpt>
      <trkpt lat="44.50792" lon="5.24375">
        <ele>818</ele>
        <time>2024-08-15T13:08:13Z</time>
      </trkpt>
      <trkpt lat="44.50778" lon="5.24463">
        <ele>820</ele>
        <time>2024-08-15T13:08:25Z</time>
      </trkpt>
      <trkpt lat="44.50775" lon="5.24498">
        <ele>822</ele>
        <time>2024-08-15T13:08:29Z</time>
      </trkpt>
      <trkpt lat="44.50769" lon="5.24647">
        <ele>827</ele>
        <time>2024-08-15T13:08:48Z</time>
      </trkpt>
      <trkpt lat="44.50772" lon="5.24729">
        <ele>829</ele>
        <time>2024-08-15T13:08:59Z</time>
      </trkpt>
      <trkpt lat="44.5078" lon="5.24827">
        <ele>828</ele>
        <time>2024-08-15T13:09:11Z</time>
      </trkpt>
      <trkpt lat="44.50788" lon="5.24876">
        <ele>827</ele>
        <time>2024-08-15T13:09:17Z</time>
      </trkpt>
      <trkpt lat="44.50787" lon="5.24893">
        <ele>828</ele>
        <time>2024-08-15T13:09:20Z</time>
      </trkpt>
      <trkpt lat="44.50791" lon="5.24945">
        <ele>828</ele>
        <time>2024-08-15T13:09:26Z</time>
      </trkpt>
      <trkpt lat="44.50786" lon="5.24976">
        <ele>829</ele>
        <time>2024-08-15T13:09:30Z</time>
      </trkpt>
      <trkpt lat="44.50774" lon="5.24991">
        <ele>833</ele>
        <time>2024-08-15T13:09:33Z</time>
      </trkpt>
      <trkpt lat="44.50758" lon="5.25003">
        <ele>836</ele>
        <time>2024-08-15T13:09:36Z</time>
      </trkpt>
      <trkpt lat="44.5075" lon="5.25014">
        <ele>837</ele>
        <time>2024-08-15T13:09:38Z</time>
      </trkpt>
      <trkpt lat="44.50747" lon="5.25028">
        <ele>837</ele>
        <time>2024-08-15T13:09:40Z</time>
      </trkpt>
      <trkpt lat="44.50744" lon="5.25054">
        <ele>835</ele>
        <time>2024-08-15T13:09:44Z</time>
      </trkpt>
      <trkpt lat="44.50716" lon="5.2515">
        <ele>831</ele>
        <time>2024-08-15T13:09:57Z</time>
      </trkpt>
      <trkpt lat="44.50697" lon="5.25193">
        <ele>829</ele>
        <time>2024-08-15T13:10:03Z</time>
      </trkpt>
      <trkpt lat="44.50583" lon="5.25342">
        <ele>823</ele>
        <time>2024-08-15T13:10:31Z</time>
      </trkpt>
      <trkpt lat="44.50538" lon="5.25408">
        <ele>821</ele>
        <time>2024-08-15T13:10:42Z</time>
      </trkpt>
      <trkpt lat="44.50514" lon="5.25447">
        <ele>821</ele>
        <time>2024-08-15T13:10:49Z</time>
      </trkpt>
      <trkpt lat="44.50505" lon="5.25473">
        <ele>818</ele>
        <time>2024-08-15T13:10:53Z</time>
      </trkpt>
      <trkpt lat="44.50499" lon="5.25498">
        <ele>814</ele>
        <time>2024-08-15T13:10:56Z</time>
      </trkpt>
      <trkpt lat="44.50496" lon="5.25538">
        <ele>813</ele>
        <time>2024-08-15T13:11:01Z</time>
      </trkpt>
      <trkpt lat="44.50495" lon="5.2556">
        <ele>812</ele>
        <time>2024-08-15T13:11:04Z</time>
      </trkpt>
      <trkpt lat="44.50498" lon="5.25584">
        <ele>811</ele>
        <time>2024-08-15T13:11:07Z</time>
      </trkpt>
      <trkpt lat="44.50501" lon="5.256">
        <ele>811</ele>
        <time>2024-08-15T13:11:09Z</time>
      </trkpt>
      <trkpt lat="44.50505" lon="5.25615">
        <ele>812</ele>
        <time>2024-08-15T13:11:11Z</time>
      </trkpt>
      <trkpt lat="44.50513" lon="5.2563">
        <ele>812</ele>
        <time>2024-08-15T13:11:13Z</time>
      </trkpt>
      <trkpt lat="44.50535" lon="5.2565">
        <ele>809</ele>
        <time>2024-08-15T13:11:18Z</time>
      </trkpt>
      <trkpt lat="44.50549" lon="5.25655">
        <ele>807</ele>
        <time>2024-08-15T13:11:21Z</time>
      </trkpt>
      <trkpt lat="44.5058" lon="5.25661">
        <ele>801</ele>
        <time>2024-08-15T13:11:26Z</time>
      </trkpt>
      <trkpt lat="44.50595" lon="5.25668">
        <ele>800</ele>
        <time>2024-08-15T13:11:29Z</time>
      </trkpt>
      <trkpt lat="44.50607" lon="5.25677">
        <ele>799</ele>
        <time>2024-08-15T13:11:32Z</time>
      </trkpt>
      <trkpt lat="44.50634" lon="5.25706">
        <ele>800</ele>
        <time>2024-08-15T13:11:38Z</time>
      </trkpt>
      <trkpt lat="44.50663" lon="5.25749">
        <ele>801</ele>
        <time>2024-08-15T13:11:45Z</time>
      </trkpt>
      <trkpt lat="44.50676" lon="5.25785">
        <ele>799</ele>
        <time>2024-08-15T13:11:50Z</time>
      </trkpt>
      <trkpt lat="44.50679" lon="5.2581">
        <ele>799</ele>
        <time>2024-08-15T13:11:53Z</time>
      </trkpt>
      <trkpt lat="44.50682" lon="5.25836">
        <ele>799</ele>
        <time>2024-08-15T13:11:57Z</time>
      </trkpt>
      <trkpt lat="44.50684" lon="5.25879">
        <ele>798</ele>
        <time>2024-08-15T13:12:02Z</time>
      </trkpt>
      <trkpt lat="44.50694" lon="5.25965">
        <ele>796</ele>
        <time>2024-08-15T13:12:13Z</time>
      </trkpt>
      <trkpt lat="44.50706" lon="5.26022">
        <ele>795</ele>
        <time>2024-08-15T13:12:21Z</time>
      </trkpt>
      <trkpt lat="44.50717" lon="5.26054">
        <ele>794</ele>
        <time>2024-08-15T13:12:25Z</time>
      </trkpt>
      <trkpt lat="44.50723" lon="5.26105">
        <ele>793</ele>
        <time>2024-08-15T13:12:32Z</time>
      </trkpt>
      <trkpt lat="44.50727" lon="5.26114">
        <ele>793</ele>
        <time>2024-08-15T13:12:33Z</time>
      </trkpt>
      <trkpt lat="44.50729" lon="5.26129">
        <ele>792</ele>
        <time>2024-08-15T13:12:35Z</time>
      </trkpt>
      <trkpt lat="44.50728" lon="5.26166">
        <ele>792</ele>
        <time>2024-08-15T13:12:40Z</time>
      </trkpt>
      <trkpt lat="44.50722" lon="5.26201">
        <ele>797</ele>
        <time>2024-08-15T13:12:44Z</time>
      </trkpt>
      <trkpt lat="44.50718" lon="5.26218">
        <ele>799</ele>
        <time>2024-08-15T13:12:47Z</time>
      </trkpt>
      <trkpt lat="44.50721" lon="5.26228">
        <ele>799</ele>
        <time>2024-08-15T13:12:48Z</time>
      </trkpt>
      <trkpt lat="44.50729" lon="5.26237">
        <ele>799</ele>
        <time>2024-08-15T13:12:50Z</time>
      </trkpt>
      <trkpt lat="44.5074" lon="5.26246">
        <ele>798</ele>
        <time>2024-08-15T13:12:52Z</time>
      </trkpt>
      <trkpt lat="44.5076" lon="5.26271">
        <ele>797</ele>
        <time>2024-08-15T13:12:57Z</time>
      </trkpt>
      <trkpt lat="44.50774" lon="5.26298">
        <ele>796</ele>
        <time>2024-08-15T13:13:01Z</time>
      </trkpt>
      <trkpt lat="44.5079" lon="5.2634">
        <ele>796</ele>
        <time>2024-08-15T13:13:07Z</time>
      </trkpt>
      <trkpt lat="44.50801" lon="5.2638">
        <ele>794</ele>
        <time>2024-08-15T13:13:13Z</time>
      </trkpt>
      <trkpt lat="44.50806" lon="5.2645">
        <ele>798</ele>
        <time>2024-08-15T13:13:22Z</time>
      </trkpt>
      <trkpt lat="44.50814" lon="5.26486">
        <ele>795</ele>
        <time>2024-08-15T13:13:26Z</time>
      </trkpt>
      <trkpt lat="44.50819" lon="5.26535">
        <ele>791</ele>
        <time>2024-08-15T13:13:33Z</time>
      </trkpt>
      <trkpt lat="44.50819" lon="5.26552">
        <ele>789</ele>
        <time>2024-08-15T13:13:35Z</time>
      </trkpt>
      <trkpt lat="44.50816" lon="5.26575">
        <ele>790</ele>
        <time>2024-08-15T13:13:38Z</time>
      </trkpt>
      <trkpt lat="44.50805" lon="5.26616">
        <ele>794</ele>
        <time>2024-08-15T13:13:43Z</time>
      </trkpt>
      <trkpt lat="44.50797" lon="5.26638">
        <ele>796</ele>
        <time>2024-08-15T13:13:46Z</time>
      </trkpt>
      <trkpt lat="44.50793" lon="5.26645">
        <ele>797</ele>
        <time>2024-08-15T13:13:48Z</time>
      </trkpt>
      <trkpt lat="44.50788" lon="5.26665">
        <ele>796</ele>
        <time>2024-08-15T13:13:50Z</time>
      </trkpt>
      <trkpt lat="44.50771" lon="5.26709">
        <ele>796</ele>
        <time>2024-08-15T13:13:57Z</time>
      </trkpt>
      <trkpt lat="44.50757" lon="5.26753">
        <ele>790</ele>
        <time>2024-08-15T13:14:03Z</time>
      </trkpt>
      <trkpt lat="44.50753" lon="5.26788">
        <ele>787</ele>
        <time>2024-08-15T13:14:07Z</time>
      </trkpt>
      <trkpt lat="44.50753" lon="5.26829">
        <ele>783</ele>
        <time>2024-08-15T13:14:12Z</time>
      </trkpt>
      <trkpt lat="44.50755" lon="5.26849">
        <ele>782</ele>
        <time>2024-08-15T13:14:15Z</time>
      </trkpt>
      <trkpt lat="44.50766" lon="5.26879">
        <ele>781</ele>
        <time>2024-08-15T13:14:19Z</time>
      </trkpt>
      <trkpt lat="44.5077" lon="5.26885">
        <ele>782</ele>
        <time>2024-08-15T13:14:20Z</time>
      </trkpt>
      <trkpt lat="44.50777" lon="5.26888">
        <ele>783</ele>
        <time>2024-08-15T13:14:22Z</time>
      </trkpt>
      <trkpt lat="44.50788" lon="5.26897">
        <ele>784</ele>
        <time>2024-08-15T13:14:24Z</time>
      </trkpt>
      <trkpt lat="44.50819" lon="5.26963">
        <ele>784</ele>
        <time>2024-08-15T13:14:34Z</time>
      </trkpt>
      <trkpt lat="44.50881" lon="5.27114">
        <ele>788</ele>
        <time>2024-08-15T13:14:56Z</time>
      </trkpt>
      <trkpt lat="44.50919" lon="5.27209">
        <ele>796</ele>
        <time>2024-08-15T13:15:10Z</time>
      </trkpt>
      <trkpt lat="44.50915" lon="5.27246">
        <ele>797</ele>
        <time>2024-08-15T13:15:15Z</time>
      </trkpt>
      <trkpt lat="44.50907" lon="5.27285">
        <ele>798</ele>
        <time>2024-08-15T13:15:20Z</time>
      </trkpt>
      <trkpt lat="44.50913" lon="5.27327">
        <ele>800</ele>
        <time>2024-08-15T13:15:25Z</time>
      </trkpt>
      <trkpt lat="44.50915" lon="5.27365">
        <ele>802</ele>
        <time>2024-08-15T13:15:30Z</time>
      </trkpt>
      <trkpt lat="44.50913" lon="5.27409">
        <ele>804</ele>
        <time>2024-08-15T13:15:36Z</time>
      </trkpt>
      <trkpt lat="44.50914" lon="5.2746">
        <ele>806</ele>
        <time>2024-08-15T13:15:42Z</time>
      </trkpt>
      <trkpt lat="44.50917" lon="5.27511">
        <ele>808</ele>
        <time>2024-08-15T13:15:49Z</time>
      </trkpt>
      <trkpt lat="44.50931" lon="5.2755">
        <ele>812</ele>
        <time>2024-08-15T13:15:54Z</time>
      </trkpt>
      <trkpt lat="44.50945" lon="5.27582">
        <ele>814</ele>
        <time>2024-08-15T13:15:59Z</time>
      </trkpt>
      <trkpt lat="44.50984" lon="5.27636">
        <ele>822</ele>
        <time>2024-08-15T13:16:09Z</time>
      </trkpt>
      <trkpt lat="44.50991" lon="5.2765">
        <ele>823</ele>
        <time>2024-08-15T13:16:11Z</time>
      </trkpt>
      <trkpt lat="44.50993" lon="5.27662">
        <ele>824</ele>
        <time>2024-08-15T13:16:12Z</time>
      </trkpt>
      <trkpt lat="44.5099" lon="5.27674">
        <ele>824</ele>
        <time>2024-08-15T13:16:14Z</time>
      </trkpt>
      <trkpt lat="44.50984" lon="5.27687">
        <ele>825</ele>
        <time>2024-08-15T13:16:16Z</time>
      </trkpt>
      <trkpt lat="44.50942" lon="5.27752">
        <ele>826</ele>
        <time>2024-08-15T13:16:27Z</time>
      </trkpt>
      <trkpt lat="44.50925" lon="5.27789">
        <ele>827</ele>
        <time>2024-08-15T13:16:33Z</time>
      </trkpt>
      <trkpt lat="44.50922" lon="5.27832">
        <ele>831</ele>
        <time>2024-08-15T13:16:38Z</time>
      </trkpt>
      <trkpt lat="44.50925" lon="5.27878">
        <ele>832</ele>
        <time>2024-08-15T13:16:44Z</time>
      </trkpt>
      <trkpt lat="44.50938" lon="5.27923">
        <ele>835</ele>
        <time>2024-08-15T13:16:50Z</time>
      </trkpt>
      <trkpt lat="44.50971" lon="5.28008">
        <ele>843</ele>
        <time>2024-08-15T13:17:02Z</time>
      </trkpt>
      <trkpt lat="44.50975" lon="5.28031">
        <ele>845</ele>
        <time>2024-08-15T13:17:05Z</time>
      </trkpt>
      <trkpt lat="44.5097" lon="5.28066">
        <ele>847</ele>
        <time>2024-08-15T13:17:10Z</time>
      </trkpt>
      <trkpt lat="44.50969" lon="5.28092">
        <ele>849</ele>
        <time>2024-08-15T13:17:13Z</time>
      </trkpt>
      <trkpt lat="44.50973" lon="5.28118">
        <ele>851</ele>
        <time>2024-08-15T13:17:17Z</time>
      </trkpt>
      <trkpt lat="44.50979" lon="5.28138">
        <ele>852</ele>
        <time>2024-08-15T13:17:19Z</time>
      </trkpt>
      <trkpt lat="44.50985" lon="5.28164">
        <ele>853</ele>
        <time>2024-08-15T13:17:23Z</time>
      </trkpt>
      <trkpt lat="44.50989" lon="5.28194">
        <ele>856</ele>
        <time>2024-08-15T13:17:27Z</time>
      </trkpt>
      <trkpt lat="44.50997" lon="5.28213">
        <ele>858</ele>
        <time>2024-08-15T13:17:30Z</time>
      </trkpt>
      <trkpt lat="44.51011" lon="5.28243">
        <ele>859</ele>
        <time>2024-08-15T13:17:34Z</time>
      </trkpt>
      <trkpt lat="44.51068" lon="5.28328">
        <ele>859</ele>
        <time>2024-08-15T13:17:49Z</time>
      </trkpt>
      <trkpt lat="44.51079" lon="5.2837">
        <ele>859</ele>
        <time>2024-08-15T13:17:55Z</time>
      </trkpt>
      <trkpt lat="44.51072" lon="5.28421">
        <ele>864</ele>
        <time>2024-08-15T13:18:01Z</time>
      </trkpt>
      <trkpt lat="44.51048" lon="5.28461">
        <ele>866</ele>
        <time>2024-08-15T13:18:08Z</time>
      </trkpt>
      <trkpt lat="44.50984" lon="5.28518">
        <ele>873</ele>
        <time>2024-08-15T13:18:21Z</time>
      </trkpt>
      <trkpt lat="44.50959" lon="5.28561">
        <ele>876</ele>
        <time>2024-08-15T13:18:28Z</time>
      </trkpt>
      <trkpt lat="44.50955" lon="5.28611">
        <ele>875</ele>
        <time>2024-08-15T13:18:35Z</time>
      </trkpt>
      <trkpt lat="44.50953" lon="5.28677">
        <ele>872</ele>
        <time>2024-08-15T13:18:43Z</time>
      </trkpt>
      <trkpt lat="44.50947" lon="5.28734">
        <ele>870</ele>
        <time>2024-08-15T13:18:50Z</time>
      </trkpt>
      <trkpt lat="44.50942" lon="5.28756">
        <ele>869</ele>
        <time>2024-08-15T13:18:53Z</time>
      </trkpt>
      <trkpt lat="44.50937" lon="5.28766">
        <ele>868</ele>
        <time>2024-08-15T13:18:55Z</time>
      </trkpt>
      <trkpt lat="44.5093" lon="5.28771">
        <ele>870</ele>
        <time>2024-08-15T13:18:56Z</time>
      </trkpt>
      <trkpt lat="44.5092" lon="5.28772">
        <ele>873</ele>
        <time>2024-08-15T13:18:58Z</time>
      </trkpt>
      <trkpt lat="44.50909" lon="5.2877">
        <ele>875</ele>
        <time>2024-08-15T13:19:00Z</time>
      </trkpt>
      <trkpt lat="44.50898" lon="5.28766">
        <ele>877</ele>
        <time>2024-08-15T13:19:02Z</time>
      </trkpt>
      <trkpt lat="44.50868" lon="5.28748">
        <ele>883</ele>
        <time>2024-08-15T13:19:08Z</time>
      </trkpt>
      <trkpt lat="44.50846" lon="5.28737">
        <ele>887</ele>
        <time>2024-08-15T13:19:12Z</time>
      </trkpt>
      <trkpt lat="44.50831" lon="5.28738">
        <ele>888</ele>
        <time>2024-08-15T13:19:15Z</time>
      </trkpt>
      <trkpt lat="44.50717" lon="5.28796">
        <ele>893</ele>
        <time>2024-08-15T13:19:36Z</time>
      </trkpt>
      <trkpt lat="44.50684" lon="5.28831">
        <ele>892</ele>
        <time>2024-08-15T13:19:44Z</time>
      </trkpt>
      <trkpt lat="44.50655" lon="5.28875">
        <ele>895</ele>
        <time>2024-08-15T13:19:51Z</time>
      </trkpt>
      <trkpt lat="44.50648" lon="5.28925">
        <ele>898</ele>
        <time>2024-08-15T13:19:58Z</time>
      </trkpt>
      <trkpt lat="44.50662" lon="5.28965">
        <ele>897</ele>
        <time>2024-08-15T13:20:03Z</time>
      </trkpt>
      <trkpt lat="44.50684" lon="5.29048">
        <ele>900</ele>
        <time>2024-08-15T13:20:15Z</time>
      </trkpt>
      <trkpt lat="44.50703" lon="5.2909">
        <ele>901</ele>
        <time>2024-08-15T13:20:21Z</time>
      </trkpt>
      <trkpt lat="44.50731" lon="5.29123">
        <ele>900</ele>
        <time>2024-08-15T13:20:27Z</time>
      </trkpt>
      <trkpt lat="44.50763" lon="5.29208">
        <ele>904</ele>
        <time>2024-08-15T13:20:40Z</time>
      </trkpt>
      <trkpt lat="44.50763" lon="5.29245">
        <ele>907</ele>
        <time>2024-08-15T13:20:44Z</time>
      </trkpt>
      <trkpt lat="44.50757" lon="5.29288">
        <ele>911</ele>
        <time>2024-08-15T13:20:50Z</time>
      </trkpt>
      <trkpt lat="44.50767" lon="5.29335">
        <ele>913</ele>
        <time>2024-08-15T13:20:56Z</time>
      </trkpt>
      <trkpt lat="44.50788" lon="5.29377">
        <ele>914</ele>
        <time>2024-08-15T13:21:03Z</time>
      </trkpt>
      <trkpt lat="44.50798" lon="5.2942">
        <ele>916</ele>
        <time>2024-08-15T13:21:08Z</time>
      </trkpt>
      <trkpt lat="44.50789" lon="5.2947">
        <ele>919</ele>
        <time>2024-08-15T13:21:15Z</time>
      </trkpt>
      <trkpt lat="44.50764" lon="5.2951">
        <ele>919</ele>
        <time>2024-08-15T13:21:22Z</time>
      </trkpt>
      <trkpt lat="44.50737" lon="5.2955">
        <ele>912</ele>
        <time>2024-08-15T13:21:29Z</time>
      </trkpt>
      <trkpt lat="44.50725" lon="5.29557">
        <ele>911</ele>
        <time>2024-08-15T13:21:31Z</time>
      </trkpt>
      <trkpt lat="44.50626" lon="5.29578">
        <ele>922</ele>
        <time>2024-08-15T13:21:49Z</time>
      </trkpt>
      <trkpt lat="44.50615" lon="5.29585">
        <ele>924</ele>
        <time>2024-08-15T13:21:51Z</time>
      </trkpt>
      <trkpt lat="44.50608" lon="5.29594">
        <ele>925</ele>
        <time>2024-08-15T13:21:53Z</time>
      </trkpt>
      <trkpt lat="44.50602" lon="5.29608">
        <ele>926</ele>
        <time>2024-08-15T13:21:55Z</time>
      </trkpt>
      <trkpt lat="44.506" lon="5.29646">
        <ele>922</ele>
        <time>2024-08-15T13:22:00Z</time>
      </trkpt>
      <trkpt lat="44.50602" lon="5.29669">
        <ele>919</ele>
        <time>2024-08-15T13:22:02Z</time>
      </trkpt>
      <trkpt lat="44.50637" lon="5.29836">
        <ele>918</ele>
        <time>2024-08-15T13:22:25Z</time>
      </trkpt>
      <trkpt lat="44.50639" lon="5.29861">
        <ele>918</ele>
        <time>2024-08-15T13:22:28Z</time>
      </trkpt>
      <trkpt lat="44.50642" lon="5.2988">
        <ele>917</ele>
        <time>2024-08-15T13:22:30Z</time>
      </trkpt>
      <trkpt lat="44.50629" lon="5.29942">
        <ele>919</ele>
        <time>2024-08-15T13:22:38Z</time>
      </trkpt>
      <trkpt lat="44.50599" lon="5.30016">
        <ele>919</ele>
        <time>2024-08-15T13:22:49Z</time>
      </trkpt>
      <trkpt lat="44.50539" lon="5.30141">
        <ele>917</ele>
        <time>2024-08-15T13:23:08Z</time>
      </trkpt>
      <trkpt lat="44.50527" lon="5.30155">
        <ele>916</ele>
        <time>2024-08-15T13:23:11Z</time>
      </trkpt>
      <trkpt lat="44.50494" lon="5.30169">
        <ele>919</ele>
        <time>2024-08-15T13:23:17Z</time>
      </trkpt>
      <trkpt lat="44.50485" lon="5.30179">
        <ele>919</ele>
        <time>2024-08-15T13:23:19Z</time>
      </trkpt>
      <trkpt lat="44.50478" lon="5.30191">
        <ele>920</ele>
        <time>2024-08-15T13:23:21Z</time>
      </trkpt>
      <trkpt lat="44.50475" lon="5.30202">
        <ele>919</ele>
        <time>2024-08-15T13:23:23Z</time>
      </trkpt>
      <trkpt lat="44.5045" lon="5.30355">
        <ele>918</ele>
        <time>2024-08-15T13:23:43Z</time>
      </trkpt>
      <trkpt lat="44.50449" lon="5.30369">
        <ele>919</ele>
        <time>2024-08-15T13:23:44Z</time>
      </trkpt>
      <trkpt lat="44.50459" lon="5.30456">
        <ele>917</ele>
        <time>2024-08-15T13:23:56Z</time>
      </trkpt>
      <trkpt lat="44.50478" lon="5.3053">
        <ele>915</ele>
        <time>2024-08-15T13:24:06Z</time>
      </trkpt>
      <trkpt lat="44.50478" lon="5.30551">
        <ele>915</ele>
        <time>2024-08-15T13:24:08Z</time>
      </trkpt>
      <trkpt lat="44.50472" lon="5.3058">
        <ele>916</ele>
        <time>2024-08-15T13:24:12Z</time>
      </trkpt>
      <trkpt lat="44.50461" lon="5.30599">
        <ele>915</ele>
        <time>2024-08-15T13:24:15Z</time>
      </trkpt>
      <trkpt lat="44.50407" lon="5.30648">
        <ele>909</ele>
        <time>2024-08-15T13:24:27Z</time>
      </trkpt>
      <trkpt lat="44.50355" lon="5.30694">
        <ele>908</ele>
        <time>2024-08-15T13:24:38Z</time>
      </trkpt>
      <trkpt lat="44.50308" lon="5.30726">
        <ele>906</ele>
        <time>2024-08-15T13:24:47Z</time>
      </trkpt>
      <trkpt lat="44.50179" lon="5.3085">
        <ele>896</ele>
        <time>2024-08-15T13:25:15Z</time>
      </trkpt>
      <trkpt lat="44.5016" lon="5.30857">
        <ele>895</ele>
        <time>2024-08-15T13:25:18Z</time>
      </trkpt>
      <trkpt lat="44.50118" lon="5.30861">
        <ele>895</ele>
        <time>2024-08-15T13:25:26Z</time>
      </trkpt>
      <trkpt lat="44.50055" lon="5.30842">
        <ele>897</ele>
        <time>2024-08-15T13:25:37Z</time>
      </trkpt>
      <trkpt lat="44.50023" lon="5.30847">
        <ele>897</ele>
        <time>2024-08-15T13:25:43Z</time>
      </trkpt>
      <trkpt lat="44.49946" lon="5.30898">
        <ele>891</ele>
        <time>2024-08-15T13:25:58Z</time>
      </trkpt>
      <trkpt lat="44.49914" lon="5.30912">
        <ele>888</ele>
        <time>2024-08-15T13:26:04Z</time>
      </trkpt>
      <trkpt lat="44.49897" lon="5.30924">
        <ele>887</ele>
        <time>2024-08-15T13:26:07Z</time>
      </trkpt>
      <trkpt lat="44.49855" lon="5.30963">
        <ele>879</ele>
        <time>2024-08-15T13:26:16Z</time>
      </trkpt>
      <trkpt lat="44.49846" lon="5.30966">
        <ele>879</ele>
        <time>2024-08-15T13:26:18Z</time>
      </trkpt>
      <trkpt lat="44.49835" lon="5.30966">
        <ele>880</ele>
        <time>2024-08-15T13:26:20Z</time>
      </trkpt>
      <trkpt lat="44.49809" lon="5.30956">
        <ele>878</ele>
        <time>2024-08-15T13:26:25Z</time>
      </trkpt>
      <trkpt lat="44.49798" lon="5.30947">
        <ele>877</ele>
        <time>2024-08-15T13:26:27Z</time>
      </trkpt>
      <trkpt lat="44.49764" lon="5.30852">
        <ele>890</ele>
        <time>2024-08-15T13:26:41Z</time>
      </trkpt>
      <trkpt lat="44.49758" lon="5.30844">
        <ele>890</ele>
        <time>2024-08-15T13:26:42Z</time>
      </trkpt>
      <trkpt lat="44.49752" lon="5.30842">
        <ele>890</ele>
        <time>2024-08-15T13:26:43Z</time>
      </trkpt>
      <trkpt lat="44.49745" lon="5.30842">
        <ele>889</ele>
        <time>2024-08-15T13:26:44Z</time>
      </trkpt>
      <trkpt lat="44.49714" lon="5.30867">
        <ele>881</ele>
        <time>2024-08-15T13:26:51Z</time>
      </trkpt>
      <trkpt lat="44.49691" lon="5.30878">
        <ele>878</ele>
        <time>2024-08-15T13:26:55Z</time>
      </trkpt>
      <trkpt lat="44.49671" lon="5.3088">
        <ele>877</ele>
        <time>2024-08-15T13:26:59Z</time>
      </trkpt>
      <trkpt lat="44.49649" lon="5.30878">
        <ele>874</ele>
        <time>2024-08-15T13:27:03Z</time>
      </trkpt>
      <trkpt lat="44.49636" lon="5.30871">
        <ele>872</ele>
        <time>2024-08-15T13:27:05Z</time>
      </trkpt>
      <trkpt lat="44.4962" lon="5.30858">
        <ele>870</ele>
        <time>2024-08-15T13:27:08Z</time>
      </trkpt>
      <trkpt lat="44.49609" lon="5.30843">
        <ele>869</ele>
        <time>2024-08-15T13:27:11Z</time>
      </trkpt>
      <trkpt lat="44.49596" lon="5.30819">
        <ele>866</ele>
        <time>2024-08-15T13:27:15Z</time>
      </trkpt>
      <trkpt lat="44.49555" lon="5.30722">
        <ele>861</ele>
        <time>2024-08-15T13:27:29Z</time>
      </trkpt>
      <trkpt lat="44.4952" lon="5.30659">
        <ele>857</ele>
        <time>2024-08-15T13:27:39Z</time>
      </trkpt>
      <trkpt lat="44.4949" lon="5.30618">
        <ele>855</ele>
        <time>2024-08-15T13:27:47Z</time>
      </trkpt>
      <trkpt lat="44.49466" lon="5.30597">
        <ele>854</ele>
        <time>2024-08-15T13:27:52Z</time>
      </trkpt>
      <trkpt lat="44.49397" lon="5.30573">
        <ele>844</ele>
        <time>2024-08-15T13:28:04Z</time>
      </trkpt>
      <trkpt lat="44.49376" lon="5.3056">
        <ele>842</ele>
        <time>2024-08-15T13:28:09Z</time>
      </trkpt>
      <trkpt lat="44.49361" lon="5.30545">
        <ele>841</ele>
        <time>2024-08-15T13:28:12Z</time>
      </trkpt>
      <trkpt lat="44.49345" lon="5.30525">
        <ele>840</ele>
        <time>2024-08-15T13:28:16Z</time>
      </trkpt>
      <trkpt lat="44.49299" lon="5.30444">
        <ele>835</ele>
        <time>2024-08-15T13:28:29Z</time>
      </trkpt>
      <trkpt lat="44.49274" lon="5.30394">
        <ele>831</ele>
        <time>2024-08-15T13:28:36Z</time>
      </trkpt>
      <trkpt lat="44.49267" lon="5.30354">
        <ele>830</ele>
        <time>2024-08-15T13:28:42Z</time>
      </trkpt>
      <trkpt lat="44.49268" lon="5.30332">
        <ele>832</ele>
        <time>2024-08-15T13:28:45Z</time>
      </trkpt>
      <trkpt lat="44.49278" lon="5.30253">
        <ele>832</ele>
        <time>2024-08-15T13:28:55Z</time>
      </trkpt>
      <trkpt lat="44.49278" lon="5.30246">
        <ele>831</ele>
        <time>2024-08-15T13:28:56Z</time>
      </trkpt>
      <trkpt lat="44.49276" lon="5.30241">
        <ele>831</ele>
        <time>2024-08-15T13:28:56Z</time>
      </trkpt>
      <trkpt lat="44.49271" lon="5.30238">
        <ele>829</ele>
        <time>2024-08-15T13:28:57Z</time>
      </trkpt>
      <trkpt lat="44.49278" lon="5.30204">
        <ele>830</ele>
        <time>2024-08-15T13:29:02Z</time>
      </trkpt>
      <trkpt lat="44.49293" lon="5.30181">
        <ele>833</ele>
        <time>2024-08-15T13:29:06Z</time>
      </trkpt>
      <trkpt lat="44.49293" lon="5.30169">
        <ele>833</ele>
        <time>2024-08-15T13:29:07Z</time>
      </trkpt>
      <trkpt lat="44.49288" lon="5.3016">
        <ele>832</ele>
        <time>2024-08-15T13:29:09Z</time>
      </trkpt>
      <trkpt lat="44.4927" lon="5.30151">
        <ele>830</ele>
        <time>2024-08-15T13:29:12Z</time>
      </trkpt>
      <trkpt lat="44.49259" lon="5.30098">
        <ele>833</ele>
        <time>2024-08-15T13:29:19Z</time>
      </trkpt>
      <trkpt lat="44.49233" lon="5.30064">
        <ele>837</ele>
        <time>2024-08-15T13:29:25Z</time>
      </trkpt>
      <trkpt lat="44.49215" lon="5.30057">
        <ele>838</ele>
        <time>2024-08-15T13:29:29Z</time>
      </trkpt>
      <trkpt lat="44.49221" lon="5.30041">
        <ele>840</ele>
        <time>2024-08-15T13:29:31Z</time>
      </trkpt>
      <trkpt lat="44.49245" lon="5.30025">
        <ele>841</ele>
        <time>2024-08-15T13:29:36Z</time>
      </trkpt>
      <trkpt lat="44.49266" lon="5.30022">
        <ele>841</ele>
        <time>2024-08-15T13:29:40Z</time>
      </trkpt>
      <trkpt lat="44.49274" lon="5.30016">
        <ele>842</ele>
        <time>2024-08-15T13:29:41Z</time>
      </trkpt>
      <trkpt lat="44.49314" lon="5.29925">
        <ele>850</ele>
        <time>2024-08-15T13:29:55Z</time>
      </trkpt>
      <trkpt lat="44.49314" lon="5.29914">
        <ele>852</ele>
        <time>2024-08-15T13:29:56Z</time>
      </trkpt>
      <trkpt lat="44.49309" lon="5.29908">
        <ele>852</ele>
        <time>2024-08-15T13:29:57Z</time>
      </trkpt>
      <trkpt lat="44.49279" lon="5.29894">
        <ele>854</ele>
        <time>2024-08-15T13:30:03Z</time>
      </trkpt>
      <trkpt lat="44.49255" lon="5.29868">
        <ele>858</ele>
        <time>2024-08-15T13:30:08Z</time>
      </trkpt>
      <trkpt lat="44.4924" lon="5.29856">
        <ele>861</ele>
        <time>2024-08-15T13:30:11Z</time>
      </trkpt>
      <trkpt lat="44.49224" lon="5.29847">
        <ele>864</ele>
        <time>2024-08-15T13:30:14Z</time>
      </trkpt>
      <trkpt lat="44.49206" lon="5.29845">
        <ele>866</ele>
        <time>2024-08-15T13:30:18Z</time>
      </trkpt>
      <trkpt lat="44.49187" lon="5.2985">
        <ele>868</ele>
        <time>2024-08-15T13:30:21Z</time>
      </trkpt>
      <trkpt lat="44.49173" lon="5.29862">
        <ele>869</ele>
        <time>2024-08-15T13:30:24Z</time>
      </trkpt>
      <trkpt lat="44.49167" lon="5.29858">
        <ele>870</ele>
        <time>2024-08-15T13:30:25Z</time>
      </trkpt>
      <trkpt lat="44.49168" lon="5.2985">
        <ele>871</ele>
        <time>2024-08-15T13:30:26Z</time>
      </trkpt>
      <trkpt lat="44.4918" lon="5.29831">
        <ele>872</ele>
        <time>2024-08-15T13:30:29Z</time>
      </trkpt>
      <trkpt lat="44.49195" lon="5.29812">
        <ele>872</ele>
        <time>2024-08-15T13:30:33Z</time>
      </trkpt>
      <trkpt lat="44.49205" lon="5.29805">
        <ele>872</ele>
        <time>2024-08-15T13:30:35Z</time>
      </trkpt>
      <trkpt lat="44.49209" lon="5.29798">
        <ele>872</ele>
        <time>2024-08-15T13:30:36Z</time>
      </trkpt>
      <trkpt lat="44.49207" lon="5.29791">
        <ele>873</ele>
        <time>2024-08-15T13:30:37Z</time>
      </trkpt>
      <trkpt lat="44.49202" lon="5.29789">
        <ele>874</ele>
        <time>2024-08-15T13:30:38Z</time>
      </trkpt>
      <trkpt lat="44.49184" lon="5.29801">
        <ele>875</ele>
        <time>2024-08-15T13:30:42Z</time>
      </trkpt>
      <trkpt lat="44.49135" lon="5.29816">
        <ele>881</ele>
        <time>2024-08-15T13:30:51Z</time>
      </trkpt>
      <trkpt lat="44.4912" lon="5.29828">
        <ele>882</ele>
        <time>2024-08-15T13:30:54Z</time>
      </trkpt>
      <trkpt lat="44.49101" lon="5.29862">
        <ele>879</ele>
        <time>2024-08-15T13:30:59Z</time>
      </trkpt>
      <trkpt lat="44.49089" lon="5.29873">
        <ele>879</ele>
        <time>2024-08-15T13:31:02Z</time>
      </trkpt>
      <trkpt lat="44.49058" lon="5.29872">
        <ele>877</ele>
        <time>2024-08-15T13:31:07Z</time>
      </trkpt>
      <trkpt lat="44.4905" lon="5.29865">
        <ele>878</ele>
        <time>2024-08-15T13:31:09Z</time>
      </trkpt>
      <trkpt lat="44.48986" lon="5.29717">
        <ele>896</ele>
        <time>2024-08-15T13:31:31Z</time>
      </trkpt>
      <trkpt lat="44.48962" lon="5.297">
        <ele>894</ele>
        <time>2024-08-15T13:31:36Z</time>
      </trkpt>
      <trkpt lat="44.48955" lon="5.29687">
        <ele>894</ele>
        <time>2024-08-15T13:31:38Z</time>
      </trkpt>
      <trkpt lat="44.48938" lon="5.29636">
        <ele>897</ele>
        <time>2024-08-15T13:31:45Z</time>
      </trkpt>
      <trkpt lat="44.48937" lon="5.29609">
        <ele>901</ele>
        <time>2024-08-15T13:31:48Z</time>
      </trkpt>
      <trkpt lat="44.48914" lon="5.29552">
        <ele>904</ele>
        <time>2024-08-15T13:31:57Z</time>
      </trkpt>
      <trkpt lat="44.48891" lon="5.29532">
        <ele>905</ele>
        <time>2024-08-15T13:32:01Z</time>
      </trkpt>
      <trkpt lat="44.48872" lon="5.29503">
        <ele>908</ele>
        <time>2024-08-15T13:32:06Z</time>
      </trkpt>
      <trkpt lat="44.48824" lon="5.29462">
        <ele>908</ele>
        <time>2024-08-15T13:32:16Z</time>
      </trkpt>
      <trkpt lat="44.48794" lon="5.29406">
        <ele>913</ele>
        <time>2024-08-15T13:32:25Z</time>
      </trkpt>
      <trkpt lat="44.48777" lon="5.29363">
        <ele>917</ele>
        <time>2024-08-15T13:32:31Z</time>
      </trkpt>
      <trkpt lat="44.48748" lon="5.29341">
        <ele>917</ele>
        <time>2024-08-15T13:32:37Z</time>
      </trkpt>
      <trkpt lat="44.487" lon="5.29334">
        <ele>914</ele>
        <time>2024-08-15T13:32:46Z</time>
      </trkpt>
      <trkpt lat="44.48671" lon="5.29316">
        <ele>916</ele>
        <time>2024-08-15T13:32:52Z</time>
      </trkpt>
      <trkpt lat="44.48619" lon="5.29307">
        <ele>917</ele>
        <time>2024-08-15T13:33:01Z</time>
      </trkpt>
      <trkpt lat="44.48595" lon="5.29294">
        <ele>919</ele>
        <time>2024-08-15T13:33:05Z</time>
      </trkpt>
      <trkpt lat="44.48579" lon="5.29293">
        <ele>919</ele>
        <time>2024-08-15T13:33:08Z</time>
      </trkpt>
      <trkpt lat="44.48566" lon="5.29288">
        <ele>921</ele>
        <time>2024-08-15T13:33:11Z</time>
      </trkpt>
      <trkpt lat="44.48552" lon="5.29281">
        <ele>923</ele>
        <time>2024-08-15T13:33:13Z</time>
      </trkpt>
      <trkpt lat="44.48525" lon="5.29262">
        <ele>927</ele>
        <time>2024-08-15T13:33:19Z</time>
      </trkpt>
      <trkpt lat="44.48483" lon="5.2924">
        <ele>932</ele>
        <time>2024-08-15T13:33:27Z</time>
      </trkpt>
      <trkpt lat="44.48455" lon="5.29212">
        <ele>939</ele>
        <time>2024-08-15T13:33:33Z</time>
      </trkpt>
      <trkpt lat="44.48416" lon="5.2919">
        <ele>944</ele>
        <time>2024-08-15T13:33:40Z</time>
      </trkpt>
      <trkpt lat="44.48403" lon="5.29195">
        <ele>946</ele>
        <time>2024-08-15T13:33:43Z</time>
      </trkpt>
      <trkpt lat="44.48392" lon="5.29212">
        <ele>947</ele>
        <time>2024-08-15T13:33:46Z</time>
      </trkpt>
      <trkpt lat="44.48375" lon="5.29251">
        <ele>947</ele>
        <time>2024-08-15T13:33:51Z</time>
      </trkpt>
      <trkpt lat="44.48355" lon="5.29275">
        <ele>951</ele>
        <time>2024-08-15T13:33:56Z</time>
      </trkpt>
      <trkpt lat="44.48333" lon="5.2933">
        <ele>951</ele>
        <time>2024-08-15T13:34:04Z</time>
      </trkpt>
      <trkpt lat="44.48305" lon="5.29349">
        <ele>959</ele>
        <time>2024-08-15T13:34:10Z</time>
      </trkpt>
      <trkpt lat="44.48277" lon="5.2939">
        <ele>964</ele>
        <time>2024-08-15T13:34:17Z</time>
      </trkpt>
      <trkpt lat="44.48261" lon="5.29469">
        <ele>967</ele>
        <time>2024-08-15T13:34:27Z</time>
      </trkpt>
      <trkpt lat="44.48209" lon="5.29535">
        <ele>972</ele>
        <time>2024-08-15T13:34:40Z</time>
      </trkpt>
      <trkpt lat="44.48163" lon="5.29557">
        <ele>969</ele>
        <time>2024-08-15T13:34:48Z</time>
      </trkpt>
      <trkpt lat="44.48144" lon="5.2957">
        <ele>968</ele>
        <time>2024-08-15T13:34:52Z</time>
      </trkpt>
      <trkpt lat="44.4807" lon="5.29647">
        <ele>958</ele>
        <time>2024-08-15T13:35:09Z</time>
      </trkpt>
      <trkpt lat="44.48009" lon="5.29664">
        <ele>955</ele>
        <time>2024-08-15T13:35:20Z</time>
      </trkpt>
      <trkpt lat="44.47978" lon="5.29696">
        <ele>955</ele>
        <time>2024-08-15T13:35:27Z</time>
      </trkpt>
      <trkpt lat="44.47965" lon="5.29701">
        <ele>957</ele>
        <time>2024-08-15T13:35:29Z</time>
      </trkpt>
      <trkpt lat="44.4795" lon="5.29716">
        <ele>956</ele>
        <time>2024-08-15T13:35:32Z</time>
      </trkpt>
      <trkpt lat="44.47938" lon="5.29742">
        <ele>953</ele>
        <time>2024-08-15T13:35:36Z</time>
      </trkpt>
      <trkpt lat="44.47921" lon="5.29761">
        <ele>951</ele>
        <time>2024-08-15T13:35:40Z</time>
      </trkpt>
      <trkpt lat="44.47904" lon="5.29824">
        <ele>946</ele>
        <time>2024-08-15T13:35:49Z</time>
      </trkpt>
      <trkpt lat="44.479" lon="5.29887">
        <ele>938</ele>
        <time>2024-08-15T13:35:57Z</time>
      </trkpt>
      <trkpt lat="44.47874" lon="5.2996">
        <ele>934</ele>
        <time>2024-08-15T13:36:07Z</time>
      </trkpt>
      <trkpt lat="44.4787" lon="5.29992">
        <ele>931</ele>
        <time>2024-08-15T13:36:11Z</time>
      </trkpt>
      <trkpt lat="44.47854" lon="5.30021">
        <ele>927</ele>
        <time>2024-08-15T13:36:16Z</time>
      </trkpt>
      <trkpt lat="44.47822" lon="5.30057">
        <ele>923</ele>
        <time>2024-08-15T13:36:23Z</time>
      </trkpt>
      <trkpt lat="44.47773" lon="5.30131">
        <ele>917</ele>
        <time>2024-08-15T13:36:36Z</time>
      </trkpt>
      <trkpt lat="44.47767" lon="5.30167">
        <ele>910</ele>
        <time>2024-08-15T13:36:41Z</time>
      </trkpt>
      <trkpt lat="44.47742" lon="5.30218">
        <ele>903</ele>
        <time>2024-08-15T13:36:48Z</time>
      </trkpt>
      <trkpt lat="44.47714" lon="5.30246">
        <ele>902</ele>
        <time>2024-08-15T13:36:54Z</time>
      </trkpt>
      <trkpt lat="44.47687" lon="5.30258">
        <ele>904</ele>
        <time>2024-08-15T13:37:00Z</time>
      </trkpt>
      <trkpt lat="44.47651" lon="5.30302">
        <ele>900</ele>
        <time>2024-08-15T13:37:08Z</time>
      </trkpt>
      <trkpt lat="44.47559" lon="5.30438">
        <ele>884</ele>
        <time>2024-08-15T13:37:32Z</time>
      </trkpt>
      <trkpt lat="44.47494" lon="5.30511">
        <ele>875</ele>
        <time>2024-08-15T13:37:47Z</time>
      </trkpt>
      <trkpt lat="44.4747" lon="5.30569">
        <ele>866</ele>
        <time>2024-08-15T13:37:55Z</time>
      </trkpt>
      <trkpt lat="44.47449" lon="5.3059">
        <ele>863</ele>
        <time>2024-08-15T13:38:00Z</time>
      </trkpt>
      <trkpt lat="44.47427" lon="5.30631">
        <ele>857</ele>
        <time>2024-08-15T13:38:06Z</time>
      </trkpt>
      <trkpt lat="44.47405" lon="5.30643">
        <ele>855</ele>
        <time>2024-08-15T13:38:10Z</time>
      </trkpt>
      <trkpt lat="44.47384" lon="5.30639">
        <ele>855</ele>
        <time>2024-08-15T13:38:14Z</time>
      </trkpt>
      <trkpt lat="44.47337" lon="5.30593">
        <ele>856</ele>
        <time>2024-08-15T13:38:24Z</time>
      </trkpt>
      <trkpt lat="44.47293" lon="5.3057">
        <ele>858</ele>
        <time>2024-08-15T13:38:33Z</time>
      </trkpt>
      <trkpt lat="44.47217" lon="5.30556">
        <ele>860</ele>
        <time>2024-08-15T13:38:46Z</time>
      </trkpt>
      <trkpt lat="44.47165" lon="5.30564">
        <ele>860</ele>
        <time>2024-08-15T13:38:56Z</time>
      </trkpt>
      <trkpt lat="44.47102" lon="5.30542">
        <ele>854</ele>
        <time>2024-08-15T13:39:07Z</time>
      </trkpt>
      <trkpt lat="44.47088" lon="5.30547">
        <ele>851</ele>
        <time>2024-08-15T13:39:10Z</time>
      </trkpt>
      <trkpt lat="44.47074" lon="5.30567">
        <ele>847</ele>
        <time>2024-08-15T13:39:13Z</time>
      </trkpt>
      <trkpt lat="44.47053" lon="5.30582">
        <ele>845</ele>
        <time>2024-08-15T13:39:18Z</time>
      </trkpt>
      <trkpt lat="44.4703" lon="5.30588">
        <ele>846</ele>
        <time>2024-08-15T13:39:22Z</time>
      </trkpt>
      <trkpt lat="44.47004" lon="5.30622">
        <ele>843</ele>
        <time>2024-08-15T13:39:28Z</time>
      </trkpt>
      <trkpt lat="44.46988" lon="5.30637">
        <ele>842</ele>
        <time>2024-08-15T13:39:32Z</time>
      </trkpt>
      <trkpt lat="44.46976" lon="5.30659">
        <ele>838</ele>
        <time>2024-08-15T13:39:35Z</time>
      </trkpt>
      <trkpt lat="44.4696" lon="5.30674">
        <ele>838</ele>
        <time>2024-08-15T13:39:38Z</time>
      </trkpt>
      <trkpt lat="44.46926" lon="5.30689">
        <ele>837</ele>
        <time>2024-08-15T13:39:45Z</time>
      </trkpt>
      <trkpt lat="44.46906" lon="5.30722">
        <ele>834</ele>
        <time>2024-08-15T13:39:50Z</time>
      </trkpt>
      <trkpt lat="44.46868" lon="5.30759">
        <ele>831</ele>
        <time>2024-08-15T13:39:59Z</time>
      </trkpt>
      <trkpt lat="44.46852" lon="5.30784">
        <ele>832</ele>
        <time>2024-08-15T13:40:03Z</time>
      </trkpt>
      <trkpt lat="44.46841" lon="5.30797">
        <ele>831</ele>
        <time>2024-08-15T13:40:05Z</time>
      </trkpt>
      <trkpt lat="44.46812" lon="5.30818">
        <ele>826</ele>
        <time>2024-08-15T13:40:11Z</time>
      </trkpt>
      <trkpt lat="44.46783" lon="5.30832">
        <ele>820</ele>
        <time>2024-08-15T13:40:17Z</time>
      </trkpt>
      <trkpt lat="44.46701" lon="5.30865">
        <ele>815</ele>
        <time>2024-08-15T13:40:32Z</time>
      </trkpt>
      <trkpt lat="44.46682" lon="5.30885">
        <ele>813</ele>
        <time>2024-08-15T13:40:36Z</time>
      </trkpt>
      <trkpt lat="44.46639" lon="5.30979">
        <ele>814</ele>
        <time>2024-08-15T13:40:50Z</time>
      </trkpt>
      <trkpt lat="44.46584" lon="5.31007">
        <ele>807</ele>
        <time>2024-08-15T13:41:01Z</time>
      </trkpt>
      <trkpt lat="44.46509" lon="5.31054">
        <ele>806</ele>
        <time>2024-08-15T13:41:15Z</time>
      </trkpt>
      <trkpt lat="44.46395" lon="5.31104">
        <ele>796</ele>
        <time>2024-08-15T13:41:37Z</time>
      </trkpt>
      <trkpt lat="44.46375" lon="5.31117">
        <ele>795</ele>
        <time>2024-08-15T13:41:40Z</time>
      </trkpt>
      <trkpt lat="44.4625" lon="5.3126">
        <ele>792</ele>
        <time>2024-08-15T13:42:09Z</time>
      </trkpt>
      <trkpt lat="44.46183" lon="5.31311">
        <ele>792</ele>
        <time>2024-08-15T13:42:23Z</time>
      </trkpt>
      <trkpt lat="44.46134" lon="5.31337">
        <ele>789</ele>
        <time>2024-08-15T13:42:32Z</time>
      </trkpt>
      <trkpt lat="44.46106" lon="5.31368">
        <ele>790</ele>
        <time>2024-08-15T13:42:38Z</time>
      </trkpt>
      <trkpt lat="44.46061" lon="5.31374">
        <ele>786</ele>
        <time>2024-08-15T13:42:46Z</time>
      </trkpt>
      <trkpt lat="44.46008" lon="5.31398">
        <ele>784</ele>
        <time>2024-08-15T13:42:56Z</time>
      </trkpt>
      <trkpt lat="44.4596" lon="5.31399">
        <ele>782</ele>
        <time>2024-08-15T13:43:05Z</time>
      </trkpt>
      <trkpt lat="44.45924" lon="5.31436">
        <ele>780</ele>
        <time>2024-08-15T13:43:13Z</time>
      </trkpt>
      <trkpt lat="44.45914" lon="5.31457">
        <ele>780</ele>
        <time>2024-08-15T13:43:16Z</time>
      </trkpt>
      <trkpt lat="44.45902" lon="5.31493">
        <ele>779</ele>
        <time>2024-08-15T13:43:21Z</time>
      </trkpt>
      <trkpt lat="44.45891" lon="5.3151">
        <ele>779</ele>
        <time>2024-08-15T13:43:24Z</time>
      </trkpt>
      <trkpt lat="44.45862" lon="5.31525">
        <ele>778</ele>
        <time>2024-08-15T13:43:29Z</time>
      </trkpt>
      <trkpt lat="44.45848" lon="5.31535">
        <ele>777</ele>
        <time>2024-08-15T13:43:32Z</time>
      </trkpt>
      <trkpt lat="44.45828" lon="5.31558">
        <ele>776</ele>
        <time>2024-08-15T13:43:37Z</time>
      </trkpt>
      <trkpt lat="44.45821" lon="5.3156">
        <ele>776</ele>
        <time>2024-08-15T13:43:38Z</time>
      </trkpt>
      <trkpt lat="44.45819" lon="5.31557">
        <ele>776</ele>
        <time>2024-08-15T13:43:39Z</time>
      </trkpt>
      <trkpt lat="44.45814" lon="5.31548">
        <ele>776</ele>
        <time>2024-08-15T13:43:40Z</time>
      </trkpt>
      <trkpt lat="44.45774" lon="5.31506">
        <ele>777</ele>
        <time>2024-08-15T13:43:49Z</time>
      </trkpt>
      <trkpt lat="44.45767" lon="5.31502">
        <ele>777</ele>
        <time>2024-08-15T13:43:50Z</time>
      </trkpt>
      <trkpt lat="44.45747" lon="5.31502">
        <ele>777</ele>
        <time>2024-08-15T13:43:54Z</time>
      </trkpt>
      <trkpt lat="44.45718" lon="5.31514">
        <ele>778</ele>
        <time>2024-08-15T13:43:59Z</time>
      </trkpt>
      <trkpt lat="44.45682" lon="5.3152">
        <ele>779</ele>
        <time>2024-08-15T13:44:06Z</time>
      </trkpt>
      <trkpt lat="44.45626" lon="5.31522">
        <ele>781</ele>
        <time>2024-08-15T13:44:16Z</time>
      </trkpt>
      <trkpt lat="44.45608" lon="5.3153">
        <ele>781</ele>
        <time>2024-08-15T13:44:19Z</time>
      </trkpt>
      <trkpt lat="44.45574" lon="5.31551">
        <ele>779</ele>
        <time>2024-08-15T13:44:26Z</time>
      </trkpt>
      <trkpt lat="44.45495" lon="5.31572">
        <ele>776</ele>
        <time>2024-08-15T13:44:40Z</time>
      </trkpt>
      <trkpt lat="44.45483" lon="5.31578">
        <ele>775</ele>
        <time>2024-08-15T13:44:42Z</time>
      </trkpt>
      <trkpt lat="44.4547" lon="5.3158">
        <ele>774</ele>
        <time>2024-08-15T13:44:45Z</time>
      </trkpt>
      <trkpt lat="44.45438" lon="5.31553">
        <ele>775</ele>
        <time>2024-08-15T13:44:51Z</time>
      </trkpt>
      <trkpt lat="44.45418" lon="5.3153">
        <ele>776</ele>
        <time>2024-08-15T13:44:56Z</time>
      </trkpt>
      <trkpt lat="44.45395" lon="5.31474">
        <ele>780</ele>
        <time>2024-08-15T13:45:04Z</time>
      </trkpt>
      <trkpt lat="44.45366" lon="5.31453">
        <ele>782</ele>
        <time>2024-08-15T13:45:10Z</time>
      </trkpt>
      <trkpt lat="44.45316" lon="5.31451">
        <ele>779</ele>
        <time>2024-08-15T13:45:19Z</time>
      </trkpt>
      <trkpt lat="44.45279" lon="5.31476">
        <ele>770</ele>
        <time>2024-08-15T13:45:26Z</time>
      </trkpt>
      <trkpt lat="44.45214" lon="5.31477">
        <ele>762</ele>
        <time>2024-08-15T13:45:38Z</time>
      </trkpt>
      <trkpt lat="44.45177" lon="5.31438">
        <ele>766</ele>
        <time>2024-08-15T13:45:46Z</time>
      </trkpt>
      <trkpt lat="44.45153" lon="5.31425">
        <ele>765</ele>
        <time>2024-08-15T13:45:50Z</time>
      </trkpt>
      <trkpt lat="44.45112" lon="5.31439">
        <ele>755</ele>
        <time>2024-08-15T13:45:58Z</time>
      </trkpt>
      <trkpt lat="44.45088" lon="5.31427">
        <ele>754</ele>
        <time>2024-08-15T13:46:02Z</time>
      </trkpt>
      <trkpt lat="44.45061" lon="5.31422">
        <ele>751</ele>
        <time>2024-08-15T13:46:07Z</time>
      </trkpt>
      <trkpt lat="44.45028" lon="5.31403">
        <ele>752</ele>
        <time>2024-08-15T13:46:14Z</time>
      </trkpt>
      <trkpt lat="44.44942" lon="5.31401">
        <ele>739</ele>
        <time>2024-08-15T13:46:29Z</time>
      </trkpt>
      <trkpt lat="44.44917" lon="5.31394">
        <ele>738</ele>
        <time>2024-08-15T13:46:34Z</time>
      </trkpt>
      <trkpt lat="44.44887" lon="5.31379">
        <ele>744</ele>
        <time>2024-08-15T13:46:39Z</time>
      </trkpt>
      <trkpt lat="44.44866" lon="5.31363">
        <ele>756</ele>
        <time>2024-08-15T13:46:43Z</time>
      </trkpt>
      <trkpt lat="44.44852" lon="5.3135">
        <ele>767</ele>
        <time>2024-08-15T13:46:46Z</time>
      </trkpt>
      <trkpt lat="44.44842" lon="5.31344">
        <ele>774</ele>
        <time>2024-08-15T13:46:48Z</time>
      </trkpt>
      <trkpt lat="44.44832" lon="5.31343">
        <ele>777</ele>
        <time>2024-08-15T13:46:50Z</time>
      </trkpt>
      <trkpt lat="44.44819" lon="5.31345">
        <ele>781</ele>
        <time>2024-08-15T13:46:52Z</time>
      </trkpt>
      <trkpt lat="44.44772" lon="5.31363">
        <ele>784</ele>
        <time>2024-08-15T13:47:01Z</time>
      </trkpt>
      <trkpt lat="44.44753" lon="5.31376">
        <ele>777</ele>
        <time>2024-08-15T13:47:05Z</time>
      </trkpt>
      <trkpt lat="44.44714" lon="5.31411">
        <ele>770</ele>
        <time>2024-08-15T13:47:13Z</time>
      </trkpt>
      <trkpt lat="44.44633" lon="5.31523">
        <ele>729</ele>
        <time>2024-08-15T13:47:33Z</time>
      </trkpt>
      <trkpt lat="44.44618" lon="5.31539">
        <ele>725</ele>
        <time>2024-08-15T13:47:37Z</time>
      </trkpt>
      <trkpt lat="44.44605" lon="5.31546">
        <ele>725</ele>
        <time>2024-08-15T13:47:39Z</time>
      </trkpt>
      <trkpt lat="44.44568" lon="5.31558">
        <ele>728</ele>
        <time>2024-08-15T13:47:46Z</time>
      </trkpt>
      <trkpt lat="44.44525" lon="5.31582">
        <ele>721</ele>
        <time>2024-08-15T13:47:54Z</time>
      </trkpt>
      <trkpt lat="44.44495" lon="5.31583">
        <ele>725</ele>
        <time>2024-08-15T13:48:00Z</time>
      </trkpt>
      <trkpt lat="44.44473" lon="5.31593">
        <ele>722</ele>
        <time>2024-08-15T13:48:04Z</time>
      </trkpt>
      <trkpt lat="44.44461" lon="5.31605">
        <ele>716</ele>
        <time>2024-08-15T13:48:06Z</time>
      </trkpt>
      <trkpt lat="44.44458" lon="5.31606">
        <ele>716</ele>
        <time>2024-08-15T13:48:07Z</time>
      </trkpt>
      <trkpt lat="44.4444" lon="5.31597">
        <ele>723</ele>
        <time>2024-08-15T13:48:10Z</time>
      </trkpt>
      <trkpt lat="44.44413" lon="5.3161">
        <ele>718</ele>
        <time>2024-08-15T13:48:15Z</time>
      </trkpt>
      <trkpt lat="44.44384" lon="5.31618">
        <ele>715</ele>
        <time>2024-08-15T13:48:21Z</time>
      </trkpt>
      <trkpt lat="44.44379" lon="5.31616">
        <ele>717</ele>
        <time>2024-08-15T13:48:22Z</time>
      </trkpt>
      <trkpt lat="44.44365" lon="5.31606">
        <ele>723</ele>
        <time>2024-08-15T13:48:24Z</time>
      </trkpt>
      <trkpt lat="44.4436" lon="5.31604">
        <ele>724</ele>
        <time>2024-08-15T13:48:25Z</time>
      </trkpt>
      <trkpt lat="44.44333" lon="5.31611">
        <ele>722</ele>
        <time>2024-08-15T13:48:30Z</time>
      </trkpt>
      <trkpt lat="44.44315" lon="5.31625">
        <ele>716</ele>
        <time>2024-08-15T13:48:34Z</time>
      </trkpt>
      <trkpt lat="44.44296" lon="5.31644">
        <ele>710</ele>
        <time>2024-08-15T13:48:38Z</time>
      </trkpt>
      <trkpt lat="44.44274" lon="5.31671">
        <ele>702</ele>
        <time>2024-08-15T13:48:43Z</time>
      </trkpt>
      <trkpt lat="44.44262" lon="5.31678">
        <ele>701</ele>
        <time>2024-08-15T13:48:45Z</time>
      </trkpt>
      <trkpt lat="44.44243" lon="5.31677">
        <ele>703</ele>
        <time>2024-08-15T13:48:49Z</time>
      </trkpt>
      <trkpt lat="44.44191" lon="5.31658">
        <ele>706</ele>
        <time>2024-08-15T13:48:58Z</time>
      </trkpt>
      <trkpt lat="44.44162" lon="5.31655">
        <ele>705</ele>
        <time>2024-08-15T13:49:04Z</time>
      </trkpt>
      <trkpt lat="44.4413" lon="5.31658">
        <ele>701</ele>
        <time>2024-08-15T13:49:09Z</time>
      </trkpt>
      <trkpt lat="44.4409" lon="5.31671">
        <ele>695</ele>
        <time>2024-08-15T13:49:17Z</time>
      </trkpt>
      <trkpt lat="44.44069" lon="5.31673">
        <ele>692</ele>
        <time>2024-08-15T13:49:20Z</time>
      </trkpt>
      <trkpt lat="44.44051" lon="5.3167">
        <ele>691</ele>
        <time>2024-08-15T13:49:24Z</time>
      </trkpt>
      <trkpt lat="44.44039" lon="5.31664">
        <ele>690</ele>
        <time>2024-08-15T13:49:26Z</time>
      </trkpt>
      <trkpt lat="44.44027" lon="5.31649">
        <ele>689</ele>
        <time>2024-08-15T13:49:29Z</time>
      </trkpt>
      <trkpt lat="44.44003" lon="5.31588">
        <ele>690</ele>
        <time>2024-08-15T13:49:38Z</time>
      </trkpt>
      <trkpt lat="44.43982" lon="5.31558">
        <ele>686</ele>
        <time>2024-08-15T13:49:43Z</time>
      </trkpt>
      <trkpt lat="44.43977" lon="5.31546">
        <ele>685</ele>
        <time>2024-08-15T13:49:45Z</time>
      </trkpt>
      <trkpt lat="44.43969" lon="5.31521">
        <ele>683</ele>
        <time>2024-08-15T13:49:48Z</time>
      </trkpt>
      <trkpt lat="44.43963" lon="5.31491">
        <ele>682</ele>
        <time>2024-08-15T13:49:52Z</time>
      </trkpt>
      <trkpt lat="44.43962" lon="5.31468">
        <ele>680</ele>
        <time>2024-08-15T13:49:55Z</time>
      </trkpt>
      <trkpt lat="44.43966" lon="5.31437">
        <ele>679</ele>
        <time>2024-08-15T13:49:59Z</time>
      </trkpt>
      <trkpt lat="44.43973" lon="5.31418">
        <ele>679</ele>
        <time>2024-08-15T13:50:02Z</time>
      </trkpt>
      <trkpt lat="44.43978" lon="5.31411">
        <ele>679</ele>
        <time>2024-08-15T13:50:03Z</time>
      </trkpt>
      <trkpt lat="44.43997" lon="5.3139">
        <ele>679</ele>
        <time>2024-08-15T13:50:07Z</time>
      </trkpt>
      <trkpt lat="44.43997" lon="5.31381">
        <ele>677</ele>
        <time>2024-08-15T13:50:08Z</time>
      </trkpt>
      <trkpt lat="44.43992" lon="5.31375">
        <ele>675</ele>
        <time>2024-08-15T13:50:10Z</time>
      </trkpt>
      <trkpt lat="44.43985" lon="5.31377">
        <ele>674</ele>
        <time>2024-08-15T13:50:11Z</time>
      </trkpt>
      <trkpt lat="44.43969" lon="5.31392">
        <ele>674</ele>
        <time>2024-08-15T13:50:14Z</time>
      </trkpt>
      <trkpt lat="44.43956" lon="5.31401">
        <ele>673</ele>
        <time>2024-08-15T13:50:17Z</time>
      </trkpt>
      <trkpt lat="44.43906" lon="5.31424">
        <ele>667</ele>
        <time>2024-08-15T13:50:26Z</time>
      </trkpt>
      <trkpt lat="44.43894" lon="5.31432">
        <ele>665</ele>
        <time>2024-08-15T13:50:29Z</time>
      </trkpt>
      <trkpt lat="44.4387" lon="5.31453">
        <ele>662</ele>
        <time>2024-08-15T13:50:34Z</time>
      </trkpt>
      <trkpt lat="44.43854" lon="5.31475">
        <ele>660</ele>
        <time>2024-08-15T13:50:38Z</time>
      </trkpt>
      <trkpt lat="44.43851" lon="5.31484">
        <ele>660</ele>
        <time>2024-08-15T13:50:39Z</time>
      </trkpt>
      <trkpt lat="44.43851" lon="5.315">
        <ele>661</ele>
        <time>2024-08-15T13:50:41Z</time>
      </trkpt>
      <trkpt lat="44.43858" lon="5.31524">
        <ele>659</ele>
        <time>2024-08-15T13:50:44Z</time>
      </trkpt>
      <trkpt lat="44.43859" lon="5.31529">
        <ele>659</ele>
        <time>2024-08-15T13:50:45Z</time>
      </trkpt>
      <trkpt lat="44.43857" lon="5.31533">
        <ele>658</ele>
        <time>2024-08-15T13:50:46Z</time>
      </trkpt>
      <trkpt lat="44.43854" lon="5.31535">
        <ele>657</ele>
        <time>2024-08-15T13:50:46Z</time>
      </trkpt>
      <trkpt lat="44.43846" lon="5.31532">
        <ele>655</ele>
        <time>2024-08-15T13:50:48Z</time>
      </trkpt>
      <trkpt lat="44.43823" lon="5.31495">
        <ele>656</ele>
        <time>2024-08-15T13:50:54Z</time>
      </trkpt>
      <trkpt lat="44.4382" lon="5.3148">
        <ele>655</ele>
        <time>2024-08-15T13:50:56Z</time>
      </trkpt>
      <trkpt lat="44.43821" lon="5.31464">
        <ele>654</ele>
        <time>2024-08-15T13:50:58Z</time>
      </trkpt>
      <trkpt lat="44.43865" lon="5.31364">
        <ele>651</ele>
        <time>2024-08-15T13:51:13Z</time>
      </trkpt>
      <trkpt lat="44.43875" lon="5.31335">
        <ele>648</ele>
        <time>2024-08-15T13:51:17Z</time>
      </trkpt>
      <trkpt lat="44.43878" lon="5.31307">
        <ele>645</ele>
        <time>2024-08-15T13:51:20Z</time>
      </trkpt>
      <trkpt lat="44.43885" lon="5.31289">
        <ele>644</ele>
        <time>2024-08-15T13:51:23Z</time>
      </trkpt>
      <trkpt lat="44.43907" lon="5.31261">
        <ele>644</ele>
        <time>2024-08-15T13:51:28Z</time>
      </trkpt>
      <trkpt lat="44.43912" lon="5.31238">
        <ele>641</ele>
        <time>2024-08-15T13:51:31Z</time>
      </trkpt>
      <trkpt lat="44.43915" lon="5.31213">
        <ele>638</ele>
        <time>2024-08-15T13:51:35Z</time>
      </trkpt>
      <trkpt lat="44.43922" lon="5.31202">
        <ele>637</ele>
        <time>2024-08-15T13:51:36Z</time>
      </trkpt>
      <trkpt lat="44.4394" lon="5.31198">
        <ele>640</ele>
        <time>2024-08-15T13:51:40Z</time>
      </trkpt>
      <trkpt lat="44.43965" lon="5.31201">
        <ele>645</ele>
        <time>2024-08-15T13:51:44Z</time>
      </trkpt>
      <trkpt lat="44.43969" lon="5.31196">
        <ele>645</ele>
        <time>2024-08-15T13:51:45Z</time>
      </trkpt>
      <trkpt lat="44.43967" lon="5.3119">
        <ele>644</ele>
        <time>2024-08-15T13:51:46Z</time>
      </trkpt>
      <trkpt lat="44.43964" lon="5.31187">
        <ele>643</ele>
        <time>2024-08-15T13:51:47Z</time>
      </trkpt>
      <trkpt lat="44.43948" lon="5.31188">
        <ele>640</ele>
        <time>2024-08-15T13:51:49Z</time>
      </trkpt>
      <trkpt lat="44.43931" lon="5.31183">
        <ele>636</ele>
        <time>2024-08-15T13:51:53Z</time>
      </trkpt>
      <trkpt lat="44.43877" lon="5.31164">
        <ele>626</ele>
        <time>2024-08-15T13:52:02Z</time>
      </trkpt>
      <trkpt lat="44.43868" lon="5.31164">
        <ele>625</ele>
        <time>2024-08-15T13:52:04Z</time>
      </trkpt>
      <trkpt lat="44.43858" lon="5.31168">
        <ele>625</ele>
        <time>2024-08-15T13:52:06Z</time>
      </trkpt>
      <trkpt lat="44.43852" lon="5.31167">
        <ele>624</ele>
        <time>2024-08-15T13:52:07Z</time>
      </trkpt>
      <trkpt lat="44.4385" lon="5.31163">
        <ele>623</ele>
        <time>2024-08-15T13:52:08Z</time>
      </trkpt>
      <trkpt lat="44.4385" lon="5.31158">
        <ele>622</ele>
        <time>2024-08-15T13:52:08Z</time>
      </trkpt>
      <trkpt lat="44.43853" lon="5.31153">
        <ele>622</ele>
        <time>2024-08-15T13:52:09Z</time>
      </trkpt>
      <trkpt lat="44.43856" lon="5.31152">
        <ele>622</ele>
        <time>2024-08-15T13:52:10Z</time>
      </trkpt>
      <trkpt lat="44.43916" lon="5.31155">
        <ele>630</ele>
        <time>2024-08-15T13:52:20Z</time>
      </trkpt>
      <trkpt lat="44.43921" lon="5.31153">
        <ele>631</ele>
        <time>2024-08-15T13:52:21Z</time>
      </trkpt>
      <trkpt lat="44.43925" lon="5.31148">
        <ele>631</ele>
        <time>2024-08-15T13:52:22Z</time>
      </trkpt>
      <trkpt lat="44.43926" lon="5.31142">
        <ele>631</ele>
        <time>2024-08-15T13:52:23Z</time>
      </trkpt>
      <trkpt lat="44.43925" lon="5.31135">
        <ele>630</ele>
        <time>2024-08-15T13:52:24Z</time>
      </trkpt>
      <trkpt lat="44.43907" lon="5.31098">
        <ele>622</ele>
        <time>2024-08-15T13:52:30Z</time>
      </trkpt>
      <trkpt lat="44.439" lon="5.3107">
        <ele>618</ele>
        <time>2024-08-15T13:52:33Z</time>
      </trkpt>
      <trkpt lat="44.43901" lon="5.31044">
        <ele>617</ele>
        <time>2024-08-15T13:52:37Z</time>
      </trkpt>
      <trkpt lat="44.43913" lon="5.31009">
        <ele>618</ele>
        <time>2024-08-15T13:52:42Z</time>
      </trkpt>
      <trkpt lat="44.43911" lon="5.30991">
        <ele>617</ele>
        <time>2024-08-15T13:52:44Z</time>
      </trkpt>
      <trkpt lat="44.43901" lon="5.30966">
        <ele>616</ele>
        <time>2024-08-15T13:52:48Z</time>
      </trkpt>
      <trkpt lat="44.4387" lon="5.30924">
        <ele>611</ele>
        <time>2024-08-15T13:52:55Z</time>
      </trkpt>
      <trkpt lat="44.43824" lon="5.30898">
        <ele>603</ele>
        <time>2024-08-15T13:53:04Z</time>
      </trkpt>
      <trkpt lat="44.43811" lon="5.30877">
        <ele>601</ele>
        <time>2024-08-15T13:53:08Z</time>
      </trkpt>
      <trkpt lat="44.43807" lon="5.30848">
        <ele>600</ele>
        <time>2024-08-15T13:53:11Z</time>
      </trkpt>
      <trkpt lat="44.4383" lon="5.30775">
        <ele>598</ele>
        <time>2024-08-15T13:53:21Z</time>
      </trkpt>
      <trkpt lat="44.43846" lon="5.30751">
        <ele>598</ele>
        <time>2024-08-15T13:53:26Z</time>
      </trkpt>
      <trkpt lat="44.43909" lon="5.3068">
        <ele>592</ele>
        <time>2024-08-15T13:53:40Z</time>
      </trkpt>
      <trkpt lat="44.43956" lon="5.30671">
        <ele>588</ele>
        <time>2024-08-15T13:53:48Z</time>
      </trkpt>
      <trkpt lat="44.43996" lon="5.30687">
        <ele>591</ele>
        <time>2024-08-15T13:53:56Z</time>
      </trkpt>
      <trkpt lat="44.44023" lon="5.3069">
        <ele>590</ele>
        <time>2024-08-15T13:54:01Z</time>
      </trkpt>
      <trkpt lat="44.44054" lon="5.30703">
        <ele>592</ele>
        <time>2024-08-15T13:54:06Z</time>
      </trkpt>
      <trkpt lat="44.44084" lon="5.30722">
        <ele>596</ele>
        <time>2024-08-15T13:54:12Z</time>
      </trkpt>
      <trkpt lat="44.44094" lon="5.30723">
        <ele>598</ele>
        <time>2024-08-15T13:54:14Z</time>
      </trkpt>
      <trkpt lat="44.441" lon="5.30718">
        <ele>597</ele>
        <time>2024-08-15T13:54:15Z</time>
      </trkpt>
      <trkpt lat="44.44105" lon="5.30698">
        <ele>593</ele>
        <time>2024-08-15T13:54:18Z</time>
      </trkpt>
      <trkpt lat="44.44122" lon="5.30674">
        <ele>589</ele>
        <time>2024-08-15T13:54:22Z</time>
      </trkpt>
      <trkpt lat="44.4414" lon="5.30657">
        <ele>590</ele>
        <time>2024-08-15T13:54:26Z</time>
      </trkpt>
      <trkpt lat="44.44155" lon="5.30656">
        <ele>594</ele>
        <time>2024-08-15T13:54:29Z</time>
      </trkpt>
      <trkpt lat="44.4417" lon="5.30658">
        <ele>598</ele>
        <time>2024-08-15T13:54:32Z</time>
      </trkpt>
      <trkpt lat="44.44177" lon="5.30654">
        <ele>601</ele>
        <time>2024-08-15T13:54:33Z</time>
      </trkpt>
      <trkpt lat="44.44182" lon="5.30644">
        <ele>604</ele>
        <time>2024-08-15T13:54:34Z</time>
      </trkpt>
      <trkpt lat="44.44179" lon="5.30629">
        <ele>602</ele>
        <time>2024-08-15T13:54:36Z</time>
      </trkpt>
      <trkpt lat="44.44146" lon="5.30569">
        <ele>588</ele>
        <time>2024-08-15T13:54:46Z</time>
      </trkpt>
      <trkpt lat="44.44111" lon="5.30517">
        <ele>577</ele>
        <time>2024-08-15T13:54:55Z</time>
      </trkpt>
      <trkpt lat="44.44086" lon="5.30444">
        <ele>566</ele>
        <time>2024-08-15T13:55:05Z</time>
      </trkpt>
      <trkpt lat="44.4409" lon="5.30415">
        <ele>567</ele>
        <time>2024-08-15T13:55:09Z</time>
      </trkpt>
      <trkpt lat="44.44127" lon="5.30367">
        <ele>581</ele>
        <time>2024-08-15T13:55:18Z</time>
      </trkpt>
      <trkpt lat="44.4413" lon="5.30348">
        <ele>581</ele>
        <time>2024-08-15T13:55:21Z</time>
      </trkpt>
      <trkpt lat="44.44119" lon="5.30321">
        <ele>577</ele>
        <time>2024-08-15T13:55:25Z</time>
      </trkpt>
      <trkpt lat="44.44114" lon="5.30281">
        <ele>579</ele>
        <time>2024-08-15T13:55:30Z</time>
      </trkpt>
      <trkpt lat="44.44104" lon="5.30259">
        <ele>578</ele>
        <time>2024-08-15T13:55:33Z</time>
      </trkpt>
      <trkpt lat="44.44061" lon="5.30215">
        <ele>570</ele>
        <time>2024-08-15T13:55:42Z</time>
      </trkpt>
      <trkpt lat="44.44002" lon="5.30185">
        <ele>561</ele>
        <time>2024-08-15T13:55:54Z</time>
      </trkpt>
      <trkpt lat="44.43984" lon="5.30172">
        <ele>558</ele>
        <time>2024-08-15T13:55:57Z</time>
      </trkpt>
      <trkpt lat="44.43966" lon="5.30148">
        <ele>554</ele>
        <time>2024-08-15T13:56:02Z</time>
      </trkpt>
      <trkpt lat="44.43959" lon="5.30129">
        <ele>552</ele>
        <time>2024-08-15T13:56:04Z</time>
      </trkpt>
      <trkpt lat="44.43959" lon="5.30097">
        <ele>553</ele>
        <time>2024-08-15T13:56:08Z</time>
      </trkpt>
      <trkpt lat="44.43982" lon="5.30073">
        <ele>555</ele>
        <time>2024-08-15T13:56:14Z</time>
      </trkpt>
      <trkpt lat="44.44041" lon="5.30031">
        <ele>561</ele>
        <time>2024-08-15T13:56:25Z</time>
      </trkpt>
      <trkpt lat="44.44055" lon="5.30001">
        <ele>561</ele>
        <time>2024-08-15T13:56:30Z</time>
      </trkpt>
      <trkpt lat="44.44057" lon="5.29988">
        <ele>562</ele>
        <time>2024-08-15T13:56:32Z</time>
      </trkpt>
      <trkpt lat="44.44052" lon="5.2998">
        <ele>560</ele>
        <time>2024-08-15T13:56:33Z</time>
      </trkpt>
      <trkpt lat="44.4403" lon="5.2997">
        <ele>553</ele>
        <time>2024-08-15T13:56:37Z</time>
      </trkpt>
      <trkpt lat="44.43995" lon="5.29877">
        <ele>540</ele>
        <time>2024-08-15T13:56:50Z</time>
      </trkpt>
      <trkpt lat="44.43995" lon="5.29859">
        <ele>540</ele>
        <time>2024-08-15T13:56:53Z</time>
      </trkpt>
      <trkpt lat="44.44049" lon="5.29697">
        <ele>539</ele>
        <time>2024-08-15T13:57:15Z</time>
      </trkpt>
      <trkpt lat="44.44066" lon="5.29682">
        <ele>543</ele>
        <time>2024-08-15T13:57:19Z</time>
      </trkpt>
      <trkpt lat="44.44063" lon="5.29651">
        <ele>541</ele>
        <time>2024-08-15T13:57:23Z</time>
      </trkpt>
      <trkpt lat="44.44031" lon="5.29611">
        <ele>534</ele>
        <time>2024-08-15T13:57:31Z</time>
      </trkpt>
      <trkpt lat="44.43984" lon="5.29603">
        <ele>525</ele>
        <time>2024-08-15T13:57:39Z</time>
      </trkpt>
      <trkpt lat="44.43961" lon="5.29606">
        <ele>519</ele>
        <time>2024-08-15T13:57:43Z</time>
      </trkpt>
      <trkpt lat="44.4395" lon="5.29599">
        <ele>518</ele>
        <time>2024-08-15T13:57:45Z</time>
      </trkpt>
      <trkpt lat="44.43958" lon="5.29501">
        <ele>516</ele>
        <time>2024-08-15T13:57:58Z</time>
      </trkpt>
      <trkpt lat="44.43977" lon="5.29469">
        <ele>515</ele>
        <time>2024-08-15T13:58:03Z</time>
      </trkpt>
      <trkpt lat="44.44016" lon="5.29478">
        <ele>523</ele>
        <time>2024-08-15T13:58:10Z</time>
      </trkpt>
      <trkpt lat="44.44055" lon="5.29457">
        <ele>519</ele>
        <time>2024-08-15T13:58:18Z</time>
      </trkpt>
      <trkpt lat="44.44077" lon="5.29449">
        <ele>518</ele>
        <time>2024-08-15T13:58:22Z</time>
      </trkpt>
      <trkpt lat="44.44153" lon="5.29443">
        <ele>515</ele>
        <time>2024-08-15T13:58:35Z</time>
      </trkpt>
      <trkpt lat="44.44169" lon="5.29454">
        <ele>517</ele>
        <time>2024-08-15T13:58:38Z</time>
      </trkpt>
      <trkpt lat="44.44186" lon="5.29476">
        <ele>523</ele>
        <time>2024-08-15T13:58:42Z</time>
      </trkpt>
      <trkpt lat="44.44197" lon="5.29474">
        <ele>523</ele>
        <time>2024-08-15T13:58:44Z</time>
      </trkpt>
      <trkpt lat="44.44216" lon="5.29449">
        <ele>520</ele>
        <time>2024-08-15T13:58:49Z</time>
      </trkpt>
      <trkpt lat="44.44246" lon="5.2944">
        <ele>521</ele>
        <time>2024-08-15T13:58:55Z</time>
      </trkpt>
      <trkpt lat="44.4425" lon="5.29425">
        <ele>519</ele>
        <time>2024-08-15T13:58:57Z</time>
      </trkpt>
      <trkpt lat="44.44222" lon="5.29367">
        <ele>510</ele>
        <time>2024-08-15T13:59:05Z</time>
      </trkpt>
      <trkpt lat="44.44222" lon="5.29351">
        <ele>509</ele>
        <time>2024-08-15T13:59:07Z</time>
      </trkpt>
      <trkpt lat="44.44226" lon="5.29338">
        <ele>508</ele>
        <time>2024-08-15T13:59:09Z</time>
      </trkpt>
      <trkpt lat="44.44244" lon="5.29321">
        <ele>510</ele>
        <time>2024-08-15T13:59:13Z</time>
      </trkpt>
      <trkpt lat="44.44262" lon="5.29312">
        <ele>514</ele>
        <time>2024-08-15T13:59:17Z</time>
      </trkpt>
      <trkpt lat="44.4427" lon="5.29299">
        <ele>516</ele>
        <time>2024-08-15T13:59:19Z</time>
      </trkpt>
      <trkpt lat="44.44268" lon="5.29286">
        <ele>515</ele>
        <time>2024-08-15T13:59:20Z</time>
      </trkpt>
      <trkpt lat="44.44228" lon="5.29208">
        <ele>507</ele>
        <time>2024-08-15T13:59:33Z</time>
      </trkpt>
      <trkpt lat="44.44194" lon="5.29111">
        <ele>501</ele>
        <time>2024-08-15T13:59:46Z</time>
      </trkpt>
      <trkpt lat="44.44187" lon="5.29031">
        <ele>495</ele>
        <time>2024-08-15T13:59:57Z</time>
      </trkpt>
      <trkpt lat="44.44185" lon="5.28954">
        <ele>489</ele>
        <time>2024-08-15T14:00:06Z</time>
      </trkpt>
      <trkpt lat="44.44187" lon="5.2891">
        <ele>486</ele>
        <time>2024-08-15T14:00:12Z</time>
      </trkpt>
      <trkpt lat="44.44186" lon="5.28849">
        <ele>484</ele>
        <time>2024-08-15T14:00:20Z</time>
      </trkpt>
      <trkpt lat="44.44165" lon="5.28775">
        <ele>484</ele>
        <time>2024-08-15T14:00:30Z</time>
      </trkpt>
      <trkpt lat="44.44162" lon="5.28701">
        <ele>482</ele>
        <time>2024-08-15T14:00:39Z</time>
      </trkpt>
      <trkpt lat="44.44168" lon="5.28687">
        <ele>482</ele>
        <time>2024-08-15T14:00:41Z</time>
      </trkpt>
      <trkpt lat="44.44178" lon="5.2867">
        <ele>481</ele>
        <time>2024-08-15T14:00:44Z</time>
      </trkpt>
      <trkpt lat="44.44203" lon="5.28647">
        <ele>477</ele>
        <time>2024-08-15T14:00:49Z</time>
      </trkpt>
      <trkpt lat="44.44194" lon="5.28645">
        <ele>476</ele>
        <time>2024-08-15T14:00:51Z</time>
      </trkpt>
      <trkpt lat="44.44138" lon="5.28679">
        <ele>475</ele>
        <time>2024-08-15T14:01:02Z</time>
      </trkpt>
      <trkpt lat="44.44118" lon="5.28692">
        <ele>472</ele>
        <time>2024-08-15T14:01:06Z</time>
      </trkpt>
      <trkpt lat="44.44113" lon="5.28699">
        <ele>471</ele>
        <time>2024-08-15T14:01:07Z</time>
      </trkpt>
      <trkpt lat="44.44112" lon="5.28706">
        <ele>471</ele>
        <time>2024-08-15T14:01:08Z</time>
      </trkpt>
      <trkpt lat="44.44111" lon="5.28724">
        <ele>472</ele>
        <time>2024-08-15T14:01:10Z</time>
      </trkpt>
      <trkpt lat="44.44118" lon="5.28816">
        <ele>472</ele>
        <time>2024-08-15T14:01:22Z</time>
      </trkpt>
      <trkpt lat="44.44115" lon="5.28836">
        <ele>471</ele>
        <time>2024-08-15T14:01:25Z</time>
      </trkpt>
      <trkpt lat="44.441" lon="5.28855">
        <ele>469</ele>
        <time>2024-08-15T14:01:28Z</time>
      </trkpt>
      <trkpt lat="44.4408" lon="5.28866">
        <ele>467</ele>
        <time>2024-08-15T14:01:32Z</time>
      </trkpt>
      <trkpt lat="44.43955" lon="5.28842">
        <ele>456</ele>
        <time>2024-08-15T14:01:55Z</time>
      </trkpt>
      <trkpt lat="44.4391" lon="5.28799">
        <ele>451</ele>
        <time>2024-08-15T14:02:04Z</time>
      </trkpt>
      <trkpt lat="44.43899" lon="5.28794">
        <ele>451</ele>
        <time>2024-08-15T14:02:06Z</time>
      </trkpt>
      <trkpt lat="44.43891" lon="5.28793">
        <ele>450</ele>
        <time>2024-08-15T14:02:08Z</time>
      </trkpt>
      <trkpt lat="44.43873" lon="5.28796">
        <ele>449</ele>
        <time>2024-08-15T14:02:11Z</time>
      </trkpt>
      <trkpt lat="44.43857" lon="5.28803">
        <ele>449</ele>
        <time>2024-08-15T14:02:14Z</time>
      </trkpt>
      <trkpt lat="44.43829" lon="5.2884">
        <ele>447</ele>
        <time>2024-08-15T14:02:21Z</time>
      </trkpt>
      <trkpt lat="44.43807" lon="5.28879">
        <ele>446</ele>
        <time>2024-08-15T14:02:27Z</time>
      </trkpt>
      <trkpt lat="44.43733" lon="5.28905">
        <ele>440</ele>
        <time>2024-08-15T14:02:41Z</time>
      </trkpt>
      <trkpt lat="44.43731" lon="5.28924">
        <ele>441</ele>
        <time>2024-08-15T14:02:43Z</time>
      </trkpt>
      <trkpt lat="44.43749" lon="5.28961">
        <ele>443</ele>
        <time>2024-08-15T14:02:49Z</time>
      </trkpt>
      <trkpt lat="44.43749" lon="5.28969">
        <ele>444</ele>
        <time>2024-08-15T14:02:50Z</time>
      </trkpt>
      <trkpt lat="44.43739" lon="5.28976">
        <ele>444</ele>
        <time>2024-08-15T14:02:52Z</time>
      </trkpt>
      <trkpt lat="44.43691" lon="5.28914">
        <ele>438</ele>
        <time>2024-08-15T14:03:03Z</time>
      </trkpt>
      <trkpt lat="44.43635" lon="5.28876">
        <ele>435</ele>
        <time>2024-08-15T14:03:14Z</time>
      </trkpt>
      <trkpt lat="44.43558" lon="5.28885">
        <ele>429</ele>
        <time>2024-08-15T14:03:28Z</time>
      </trkpt>
      <trkpt lat="44.43543" lon="5.28895">
        <ele>426</ele>
        <time>2024-08-15T14:03:31Z</time>
      </trkpt>
      <trkpt lat="44.43519" lon="5.28933">
        <ele>422</ele>
        <time>2024-08-15T14:03:38Z</time>
      </trkpt>
      <trkpt lat="44.435" lon="5.28948">
        <ele>419</ele>
        <time>2024-08-15T14:03:41Z</time>
      </trkpt>
      <trkpt lat="44.43452" lon="5.28953">
        <ele>406</ele>
        <time>2024-08-15T14:03:50Z</time>
      </trkpt>
      <trkpt lat="44.43443" lon="5.28965">
        <ele>403</ele>
        <time>2024-08-15T14:03:52Z</time>
      </trkpt>
      <trkpt lat="44.43441" lon="5.28974">
        <ele>402</ele>
        <time>2024-08-15T14:03:53Z</time>
      </trkpt>
      <trkpt lat="44.4345" lon="5.29011">
        <ele>405</ele>
        <time>2024-08-15T14:03:58Z</time>
      </trkpt>
      <trkpt lat="44.43451" lon="5.29057">
        <ele>406</ele>
        <time>2024-08-15T14:04:04Z</time>
      </trkpt>
      <trkpt lat="44.43471" lon="5.29083">
        <ele>412</ele>
        <time>2024-08-15T14:04:09Z</time>
      </trkpt>
      <trkpt lat="44.43479" lon="5.29115">
        <ele>411</ele>
        <time>2024-08-15T14:04:13Z</time>
      </trkpt>
      <trkpt lat="44.43479" lon="5.2915">
        <ele>408</ele>
        <time>2024-08-15T14:04:18Z</time>
      </trkpt>
      <trkpt lat="44.43461" lon="5.29254">
        <ele>402</ele>
        <time>2024-08-15T14:04:31Z</time>
      </trkpt>
      <trkpt lat="44.43465" lon="5.29277">
        <ele>401</ele>
        <time>2024-08-15T14:04:34Z</time>
      </trkpt>
      <trkpt lat="44.43471" lon="5.29298">
        <ele>399</ele>
        <time>2024-08-15T14:04:37Z</time>
      </trkpt>
      <trkpt lat="44.43491" lon="5.29329">
        <ele>393</ele>
        <time>2024-08-15T14:04:43Z</time>
      </trkpt>
      <trkpt lat="44.43502" lon="5.29338">
        <ele>392</ele>
        <time>2024-08-15T14:04:45Z</time>
      </trkpt>
      <trkpt lat="44.43512" lon="5.29343">
        <ele>393</ele>
        <time>2024-08-15T14:04:47Z</time>
      </trkpt>
      <trkpt lat="44.43528" lon="5.29338">
        <ele>391</ele>
        <time>2024-08-15T14:04:50Z</time>
      </trkpt>
      <trkpt lat="44.43542" lon="5.29326">
        <ele>391</ele>
        <time>2024-08-15T14:04:53Z</time>
      </trkpt>
      <trkpt lat="44.43553" lon="5.29323">
        <ele>391</ele>
        <time>2024-08-15T14:04:55Z</time>
      </trkpt>
      <trkpt lat="44.43538" lon="5.29343">
        <ele>392</ele>
        <time>2024-08-15T14:04:58Z</time>
      </trkpt>
      <trkpt lat="44.43529" lon="5.2935">
        <ele>394</ele>
        <time>2024-08-15T14:05:00Z</time>
      </trkpt>
      <trkpt lat="44.43518" lon="5.29353">
        <ele>394</ele>
        <time>2024-08-15T14:05:02Z</time>
      </trkpt>
      <trkpt lat="44.43502" lon="5.29351">
        <ele>394</ele>
        <time>2024-08-15T14:05:05Z</time>
      </trkpt>
      <trkpt lat="44.4349" lon="5.29344">
        <ele>395</ele>
        <time>2024-08-15T14:05:07Z</time>
      </trkpt>
      <trkpt lat="44.43473" lon="5.29323">
        <ele>397</ele>
        <time>2024-08-15T14:05:11Z</time>
      </trkpt>
      <trkpt lat="44.43455" lon="5.29282">
        <ele>401</ele>
        <time>2024-08-15T14:05:17Z</time>
      </trkpt>
      <trkpt lat="44.43449" lon="5.29248">
        <ele>403</ele>
        <time>2024-08-15T14:05:22Z</time>
      </trkpt>
      <trkpt lat="44.43447" lon="5.29208">
        <ele>403</ele>
        <time>2024-08-15T14:05:27Z</time>
      </trkpt>
      <trkpt lat="44.43451" lon="5.29128">
        <ele>405</ele>
        <time>2024-08-15T14:05:37Z</time>
      </trkpt>
      <trkpt lat="44.43447" lon="5.29091">
        <ele>405</ele>
        <time>2024-08-15T14:05:42Z</time>
      </trkpt>
      <trkpt lat="44.43441" lon="5.29053">
        <ele>403</ele>
        <time>2024-08-15T14:05:47Z</time>
      </trkpt>
      <trkpt lat="44.43432" lon="5.29019">
        <ele>400</ele>
        <time>2024-08-15T14:05:52Z</time>
      </trkpt>
      <trkpt lat="44.43367" lon="5.28832">
        <ele>395</ele>
        <time>2024-08-15T14:06:18Z</time>
      </trkpt>
      <trkpt lat="44.43354" lon="5.28809">
        <ele>396</ele>
        <time>2024-08-15T14:06:22Z</time>
      </trkpt>
      <trkpt lat="44.43339" lon="5.28791">
        <ele>398</ele>
        <time>2024-08-15T14:06:25Z</time>
      </trkpt>
      <trkpt lat="44.4331" lon="5.28777">
        <ele>400</ele>
        <time>2024-08-15T14:06:31Z</time>
      </trkpt>
      <trkpt lat="44.43281" lon="5.28776">
        <ele>401</ele>
        <time>2024-08-15T14:06:36Z</time>
      </trkpt>
      <trkpt lat="44.4326" lon="5.28782">
        <ele>400</ele>
        <time>2024-08-15T14:06:40Z</time>
      </trkpt>
      <trkpt lat="44.43234" lon="5.28793">
        <ele>400</ele>
        <time>2024-08-15T14:06:44Z</time>
      </trkpt>
      <trkpt lat="44.43221" lon="5.28794">
        <ele>400</ele>
        <time>2024-08-15T14:06:47Z</time>
      </trkpt>
      <trkpt lat="44.43209" lon="5.28791">
        <ele>400</ele>
        <time>2024-08-15T14:06:49Z</time>
      </trkpt>
      <trkpt lat="44.432" lon="5.28779">
        <ele>400</ele>
        <time>2024-08-15T14:06:51Z</time>
      </trkpt>
      <trkpt lat="44.43196" lon="5.28767">
        <ele>399</ele>
        <time>2024-08-15T14:06:53Z</time>
      </trkpt>
      <trkpt lat="44.43194" lon="5.28744">
        <ele>397</ele>
        <time>2024-08-15T14:06:56Z</time>
      </trkpt>
      <trkpt lat="44.43192" lon="5.2865">
        <ele>403</ele>
        <time>2024-08-15T14:07:08Z</time>
      </trkpt>
      <trkpt lat="44.43194" lon="5.28616">
        <ele>404</ele>
        <time>2024-08-15T14:07:12Z</time>
      </trkpt>
      <trkpt lat="44.43199" lon="5.28593">
        <ele>405</ele>
        <time>2024-08-15T14:07:15Z</time>
      </trkpt>
      <trkpt lat="44.43224" lon="5.28525">
        <ele>403</ele>
        <time>2024-08-15T14:07:25Z</time>
      </trkpt>
      <trkpt lat="44.43286" lon="5.28407">
        <ele>396</ele>
        <time>2024-08-15T14:07:43Z</time>
      </trkpt>
      <trkpt lat="44.43314" lon="5.28341">
        <ele>394</ele>
        <time>2024-08-15T14:07:53Z</time>
      </trkpt>
      <trkpt lat="44.43322" lon="5.28315">
        <ele>396</ele>
        <time>2024-08-15T14:07:57Z</time>
      </trkpt>
      <trkpt lat="44.43326" lon="5.28291">
        <ele>400</ele>
        <time>2024-08-15T14:08:00Z</time>
      </trkpt>
      <trkpt lat="44.43324" lon="5.28262">
        <ele>403</ele>
        <time>2024-08-15T14:08:04Z</time>
      </trkpt>
      <trkpt lat="44.43317" lon="5.28246">
        <ele>403</ele>
        <time>2024-08-15T14:08:06Z</time>
      </trkpt>
      <trkpt lat="44.43304" lon="5.28228">
        <ele>406</ele>
        <time>2024-08-15T14:08:09Z</time>
      </trkpt>
      <trkpt lat="44.43292" lon="5.28216">
        <ele>407</ele>
        <time>2024-08-15T14:08:12Z</time>
      </trkpt>
      <trkpt lat="44.43276" lon="5.28208">
        <ele>406</ele>
        <time>2024-08-15T14:08:15Z</time>
      </trkpt>
      <trkpt lat="44.43256" lon="5.28208">
        <ele>400</ele>
        <time>2024-08-15T14:08:18Z</time>
      </trkpt>
      <trkpt lat="44.43225" lon="5.28217">
        <ele>391</ele>
        <time>2024-08-15T14:08:24Z</time>
      </trkpt>
      <trkpt lat="44.43188" lon="5.28222">
        <ele>384</ele>
        <time>2024-08-15T14:08:31Z</time>
      </trkpt>
      <trkpt lat="44.43178" lon="5.2822">
        <ele>383</ele>
        <time>2024-08-15T14:08:33Z</time>
      </trkpt>
      <trkpt lat="44.43168" lon="5.2821">
        <ele>382</ele>
        <time>2024-08-15T14:08:35Z</time>
      </trkpt>
      <trkpt lat="44.43159" lon="5.28194">
        <ele>387</ele>
        <time>2024-08-15T14:08:37Z</time>
      </trkpt>
      <trkpt lat="44.43156" lon="5.28175">
        <ele>390</ele>
        <time>2024-08-15T14:08:40Z</time>
      </trkpt>
      <trkpt lat="44.43156" lon="5.28156">
        <ele>390</ele>
        <time>2024-08-15T14:08:42Z</time>
      </trkpt>
      <trkpt lat="44.43161" lon="5.28132">
        <ele>388</ele>
        <time>2024-08-15T14:08:45Z</time>
      </trkpt>
      <trkpt lat="44.43205" lon="5.27997">
        <ele>404</ele>
        <time>2024-08-15T14:09:04Z</time>
      </trkpt>
      <trkpt lat="44.43207" lon="5.27972">
        <ele>405</ele>
        <time>2024-08-15T14:09:07Z</time>
      </trkpt>
      <trkpt lat="44.43201" lon="5.27904">
        <ele>403</ele>
        <time>2024-08-15T14:09:16Z</time>
      </trkpt>
      <trkpt lat="44.43195" lon="5.2788">
        <ele>404</ele>
        <time>2024-08-15T14:09:19Z</time>
      </trkpt>
      <trkpt lat="44.43185" lon="5.27854">
        <ele>402</ele>
        <time>2024-08-15T14:09:23Z</time>
      </trkpt>
      <trkpt lat="44.43161" lon="5.27808">
        <ele>395</ele>
        <time>2024-08-15T14:09:30Z</time>
      </trkpt>
      <trkpt lat="44.43138" lon="5.27776">
        <ele>391</ele>
        <time>2024-08-15T14:09:36Z</time>
      </trkpt>
      <trkpt lat="44.43112" lon="5.27746">
        <ele>385</ele>
        <time>2024-08-15T14:09:42Z</time>
      </trkpt>
      <trkpt lat="44.43097" lon="5.27732">
        <ele>383</ele>
        <time>2024-08-15T14:09:45Z</time>
      </trkpt>
      <trkpt lat="44.43068" lon="5.27711">
        <ele>383</ele>
        <time>2024-08-15T14:09:51Z</time>
      </trkpt>
      <trkpt lat="44.43032" lon="5.27691">
        <ele>384</ele>
        <time>2024-08-15T14:09:58Z</time>
      </trkpt>
      <trkpt lat="44.42987" lon="5.27672">
        <ele>386</ele>
        <time>2024-08-15T14:10:06Z</time>
      </trkpt>
      <trkpt lat="44.42978" lon="5.27671">
        <ele>386</ele>
        <time>2024-08-15T14:10:08Z</time>
      </trkpt>
      <trkpt lat="44.42964" lon="5.27669">
        <ele>387</ele>
        <time>2024-08-15T14:10:10Z</time>
      </trkpt>
      <trkpt lat="44.42949" lon="5.27671">
        <ele>386</ele>
        <time>2024-08-15T14:10:13Z</time>
      </trkpt>
      <trkpt lat="44.42921" lon="5.27681">
        <ele>384</ele>
        <time>2024-08-15T14:10:18Z</time>
      </trkpt>
      <trkpt lat="44.429" lon="5.27692">
        <ele>393</ele>
        <time>2024-08-15T14:10:22Z</time>
      </trkpt>
      <trkpt lat="44.42885" lon="5.27705">
        <ele>399</ele>
        <time>2024-08-15T14:10:25Z</time>
      </trkpt>
      <trkpt lat="44.42867" lon="5.2773">
        <ele>398</ele>
        <time>2024-08-15T14:10:30Z</time>
      </trkpt>
      <trkpt lat="44.42851" lon="5.27766">
        <ele>393</ele>
        <time>2024-08-15T14:10:35Z</time>
      </trkpt>
      <trkpt lat="44.42846" lon="5.27789">
        <ele>390</ele>
        <time>2024-08-15T14:10:38Z</time>
      </trkpt>
      <trkpt lat="44.42822" lon="5.27929">
        <ele>373</ele>
        <time>2024-08-15T14:10:57Z</time>
      </trkpt>
      <trkpt lat="44.42814" lon="5.27959">
        <ele>371</ele>
        <time>2024-08-15T14:11:01Z</time>
      </trkpt>
      <trkpt lat="44.42801" lon="5.27978">
        <ele>369</ele>
        <time>2024-08-15T14:11:04Z</time>
      </trkpt>
      <trkpt lat="44.4279" lon="5.27981">
        <ele>369</ele>
        <time>2024-08-15T14:11:06Z</time>
      </trkpt>
      <trkpt lat="44.4278" lon="5.27978">
        <ele>369</ele>
        <time>2024-08-15T14:11:08Z</time>
      </trkpt>
      <trkpt lat="44.42767" lon="5.27971">
        <ele>371</ele>
        <time>2024-08-15T14:11:10Z</time>
      </trkpt>
      <trkpt lat="44.42743" lon="5.27954">
        <ele>374</ele>
        <time>2024-08-15T14:11:15Z</time>
      </trkpt>
      <trkpt lat="44.42729" lon="5.27936">
        <ele>376</ele>
        <time>2024-08-15T14:11:19Z</time>
      </trkpt>
      <trkpt lat="44.42704" lon="5.27897">
        <ele>380</ele>
        <time>2024-08-15T14:11:25Z</time>
      </trkpt>
      <trkpt lat="44.42679" lon="5.27861">
        <ele>385</ele>
        <time>2024-08-15T14:11:32Z</time>
      </trkpt>
      <trkpt lat="44.42651" lon="5.2783">
        <ele>385</ele>
        <time>2024-08-15T14:11:38Z</time>
      </trkpt>
      <trkpt lat="44.42623" lon="5.27805">
        <ele>388</ele>
        <time>2024-08-15T14:11:44Z</time>
      </trkpt>
      <trkpt lat="44.42602" lon="5.2779">
        <ele>387</ele>
        <time>2024-08-15T14:11:48Z</time>
      </trkpt>
      <trkpt lat="44.42447" lon="5.27691">
        <ele>380</ele>
        <time>2024-08-15T14:12:18Z</time>
      </trkpt>
      <trkpt lat="44.42396" lon="5.27669">
        <ele>374</ele>
        <time>2024-08-15T14:12:28Z</time>
      </trkpt>
      <trkpt lat="44.42351" lon="5.27653">
        <ele>373</ele>
        <time>2024-08-15T14:12:36Z</time>
      </trkpt>
      <trkpt lat="44.42296" lon="5.27623">
        <ele>374</ele>
        <time>2024-08-15T14:12:47Z</time>
      </trkpt>
      <trkpt lat="44.42217" lon="5.27591">
        <ele>372</ele>
        <time>2024-08-15T14:13:01Z</time>
      </trkpt>
      <trkpt lat="44.42179" lon="5.27572">
        <ele>370</ele>
        <time>2024-08-15T14:13:08Z</time>
      </trkpt>
      <trkpt lat="44.42141" lon="5.27542">
        <ele>371</ele>
        <time>2024-08-15T14:13:16Z</time>
      </trkpt>
      <trkpt lat="44.42085" lon="5.27479">
        <ele>369</ele>
        <time>2024-08-15T14:13:29Z</time>
      </trkpt>
      <trkpt lat="44.41999" lon="5.27371">
        <ele>372</ele>
        <time>2024-08-15T14:13:50Z</time>
      </trkpt>
      <trkpt lat="44.41975" lon="5.27344">
        <ele>373</ele>
        <time>2024-08-15T14:13:55Z</time>
      </trkpt>
      <trkpt lat="44.41911" lon="5.27297">
        <ele>368</ele>
        <time>2024-08-15T14:14:08Z</time>
      </trkpt>
      <trkpt lat="44.41862" lon="5.2724">
        <ele>368</ele>
        <time>2024-08-15T14:14:19Z</time>
      </trkpt>
      <trkpt lat="44.41826" lon="5.27207">
        <ele>368</ele>
        <time>2024-08-15T14:14:27Z</time>
      </trkpt>
      <trkpt lat="44.41784" lon="5.27165">
        <ele>368</ele>
        <time>2024-08-15T14:14:36Z</time>
      </trkpt>
      <trkpt lat="44.41659" lon="5.27043">
        <ele>372</ele>
        <time>2024-08-15T14:15:03Z</time>
      </trkpt>
      <trkpt lat="44.41547" lon="5.26951">
        <ele>366</ele>
        <time>2024-08-15T14:15:26Z</time>
      </trkpt>
      <trkpt lat="44.41531" lon="5.26932">
        <ele>365</ele>
        <time>2024-08-15T14:15:30Z</time>
      </trkpt>
      <trkpt lat="44.41514" lon="5.26901">
        <ele>365</ele>
        <time>2024-08-15T14:15:35Z</time>
      </trkpt>
      <trkpt lat="44.4151" lon="5.26887">
        <ele>365</ele>
        <time>2024-08-15T14:15:37Z</time>
      </trkpt>
      <trkpt lat="44.41497" lon="5.26858">
        <ele>366</ele>
        <time>2024-08-15T14:15:41Z</time>
      </trkpt>
      <trkpt lat="44.41443" lon="5.26749">
        <ele>364</ele>
        <time>2024-08-15T14:15:58Z</time>
      </trkpt>
      <trkpt lat="44.41437" lon="5.26733">
        <ele>363</ele>
        <time>2024-08-15T14:16:00Z</time>
      </trkpt>
      <trkpt lat="44.41432" lon="5.26717">
        <ele>362</ele>
        <time>2024-08-15T14:16:03Z</time>
      </trkpt>
      <trkpt lat="44.41428" lon="5.26692">
        <ele>361</ele>
        <time>2024-08-15T14:16:06Z</time>
      </trkpt>
      <trkpt lat="44.41427" lon="5.26665">
        <ele>361</ele>
        <time>2024-08-15T14:16:09Z</time>
      </trkpt>
      <trkpt lat="44.4143" lon="5.2662">
        <ele>361</ele>
        <time>2024-08-15T14:16:15Z</time>
      </trkpt>
      <trkpt lat="44.41442" lon="5.26496">
        <ele>364</ele>
        <time>2024-08-15T14:16:31Z</time>
      </trkpt>
      <trkpt lat="44.4144" lon="5.2648">
        <ele>364</ele>
        <time>2024-08-15T14:16:33Z</time>
      </trkpt>
      <trkpt lat="44.41436" lon="5.26458">
        <ele>364</ele>
        <time>2024-08-15T14:16:36Z</time>
      </trkpt>
      <trkpt lat="44.41426" lon="5.2642">
        <ele>362</ele>
        <time>2024-08-15T14:16:41Z</time>
      </trkpt>
      <trkpt lat="44.41393" lon="5.26342">
        <ele>365</ele>
        <time>2024-08-15T14:16:53Z</time>
      </trkpt>
      <trkpt lat="44.41363" lon="5.26291">
        <ele>366</ele>
        <time>2024-08-15T14:17:01Z</time>
      </trkpt>
      <trkpt lat="44.41342" lon="5.26267">
        <ele>363</ele>
        <time>2024-08-15T14:17:06Z</time>
      </trkpt>
      <trkpt lat="44.41298" lon="5.26231">
        <ele>361</ele>
        <time>2024-08-15T14:17:15Z</time>
      </trkpt>
      <trkpt lat="44.41272" lon="5.26198">
        <ele>361</ele>
        <time>2024-08-15T14:17:21Z</time>
      </trkpt>
      <trkpt lat="44.41265" lon="5.26179">
        <ele>361</ele>
        <time>2024-08-15T14:17:24Z</time>
      </trkpt>
      <trkpt lat="44.41258" lon="5.26154">
        <ele>361</ele>
        <time>2024-08-15T14:17:27Z</time>
      </trkpt>
      <trkpt lat="44.41247" lon="5.26126">
        <ele>361</ele>
        <time>2024-08-15T14:17:31Z</time>
      </trkpt>
      <trkpt lat="44.41209" lon="5.26054">
        <ele>359</ele>
        <time>2024-08-15T14:17:43Z</time>
      </trkpt>
      <trkpt lat="44.41196" lon="5.26018">
        <ele>358</ele>
        <time>2024-08-15T14:17:48Z</time>
      </trkpt>
      <trkpt lat="44.41187" lon="5.2598">
        <ele>358</ele>
        <time>2024-08-15T14:17:53Z</time>
      </trkpt>
      <trkpt lat="44.41164" lon="5.2584">
        <ele>360</ele>
        <time>2024-08-15T14:18:11Z</time>
      </trkpt>
      <trkpt lat="44.41154" lon="5.25812">
        <ele>361</ele>
        <time>2024-08-15T14:18:15Z</time>
      </trkpt>
      <trkpt lat="44.41143" lon="5.25793">
        <ele>360</ele>
        <time>2024-08-15T14:18:18Z</time>
      </trkpt>
      <trkpt lat="44.41096" lon="5.25734">
        <ele>355</ele>
        <time>2024-08-15T14:18:29Z</time>
      </trkpt>
      <trkpt lat="44.41082" lon="5.25706">
        <ele>353</ele>
        <time>2024-08-15T14:18:34Z</time>
      </trkpt>
      <trkpt lat="44.41075" lon="5.25673">
        <ele>354</ele>
        <time>2024-08-15T14:18:38Z</time>
      </trkpt>
      <trkpt lat="44.41067" lon="5.25579">
        <ele>356</ele>
        <time>2024-08-15T14:18:50Z</time>
      </trkpt>
      <trkpt lat="44.41062" lon="5.25551">
        <ele>355</ele>
        <time>2024-08-15T14:18:54Z</time>
      </trkpt>
      <trkpt lat="44.41055" lon="5.2553">
        <ele>353</ele>
        <time>2024-08-15T14:18:57Z</time>
      </trkpt>
      <trkpt lat="44.41048" lon="5.25514">
        <ele>352</ele>
        <time>2024-08-15T14:18:59Z</time>
      </trkpt>
      <trkpt lat="44.41027" lon="5.25486">
        <ele>352</ele>
        <time>2024-08-15T14:19:04Z</time>
      </trkpt>
      <trkpt lat="44.40986" lon="5.25439">
        <ele>356</ele>
        <time>2024-08-15T14:19:14Z</time>
      </trkpt>
      <trkpt lat="44.4097" lon="5.25425">
        <ele>356</ele>
        <time>2024-08-15T14:19:17Z</time>
      </trkpt>
      <trkpt lat="44.40921" lon="5.25395">
        <ele>354</ele>
        <time>2024-08-15T14:19:27Z</time>
      </trkpt>
      <trkpt lat="44.40905" lon="5.25381">
        <ele>354</ele>
        <time>2024-08-15T14:19:30Z</time>
      </trkpt>
      <trkpt lat="44.40889" lon="5.25361">
        <ele>355</ele>
        <time>2024-08-15T14:19:34Z</time>
      </trkpt>
      <trkpt lat="44.40839" lon="5.25271">
        <ele>354</ele>
        <time>2024-08-15T14:19:48Z</time>
      </trkpt>
      <trkpt lat="44.4082" lon="5.2524">
        <ele>354</ele>
        <time>2024-08-15T14:19:54Z</time>
      </trkpt>
      <trkpt lat="44.40807" lon="5.25224">
        <ele>355</ele>
        <time>2024-08-15T14:19:57Z</time>
      </trkpt>
      <trkpt lat="44.40794" lon="5.25213">
        <ele>356</ele>
        <time>2024-08-15T14:19:59Z</time>
      </trkpt>
      <trkpt lat="44.40768" lon="5.25196">
        <ele>356</ele>
        <time>2024-08-15T14:20:04Z</time>
      </trkpt>
      <trkpt lat="44.40769" lon="5.2519">
        <ele>356</ele>
        <time>2024-08-15T14:20:05Z</time>
      </trkpt>
      <trkpt lat="44.40762" lon="5.25172">
        <ele>358</ele>
        <time>2024-08-15T14:20:08Z</time>
      </trkpt>
      <trkpt lat="44.40738" lon="5.25169">
        <ele>357</ele>
        <time>2024-08-15T14:20:12Z</time>
      </trkpt>
      <trkpt lat="44.40713" lon="5.25157">
        <ele>356</ele>
        <time>2024-08-15T14:20:17Z</time>
      </trkpt>
      <trkpt lat="44.40675" lon="5.25131">
        <ele>355</ele>
        <time>2024-08-15T14:20:24Z</time>
      </trkpt>
      <trkpt lat="44.40666" lon="5.25108">
        <ele>357</ele>
        <time>2024-08-15T14:20:28Z</time>
      </trkpt>
      <trkpt lat="44.40666" lon="5.25012">
        <ele>370</ele>
        <time>2024-08-15T14:20:40Z</time>
      </trkpt>
      <trkpt lat="44.40653" lon="5.24996">
        <ele>371</ele>
        <time>2024-08-15T14:20:43Z</time>
      </trkpt>
      <trkpt lat="44.40588" lon="5.24948">
        <ele>371</ele>
        <time>2024-08-15T14:20:56Z</time>
      </trkpt>
      <trkpt lat="44.4058" lon="5.2493">
        <ele>372</ele>
        <time>2024-08-15T14:20:59Z</time>
      </trkpt>
      <trkpt lat="44.40572" lon="5.24877">
        <ele>381</ele>
        <time>2024-08-15T14:21:06Z</time>
      </trkpt>
      <trkpt lat="44.40565" lon="5.24852">
        <ele>385</ele>
        <time>2024-08-15T14:21:09Z</time>
      </trkpt>
      <trkpt lat="44.40521" lon="5.24774">
        <ele>395</ele>
        <time>2024-08-15T14:21:22Z</time>
      </trkpt>
      <trkpt lat="44.40495" lon="5.24755">
        <ele>393</ele>
        <time>2024-08-15T14:21:27Z</time>
      </trkpt>
      <trkpt lat="44.40471" lon="5.24722">
        <ele>401</ele>
        <time>2024-08-15T14:21:33Z</time>
      </trkpt>
      <trkpt lat="44.40397" lon="5.24704">
        <ele>397</ele>
        <time>2024-08-15T14:21:46Z</time>
      </trkpt>
      <trkpt lat="44.4036" lon="5.24707">
        <ele>394</ele>
        <time>2024-08-15T14:21:53Z</time>
      </trkpt>
      <trkpt lat="44.40337" lon="5.24702">
        <ele>393</ele>
        <time>2024-08-15T14:21:57Z</time>
      </trkpt>
      <trkpt lat="44.40314" lon="5.24685">
        <ele>393</ele>
        <time>2024-08-15T14:22:02Z</time>
      </trkpt>
      <trkpt lat="44.40307" lon="5.24671">
        <ele>394</ele>
        <time>2024-08-15T14:22:04Z</time>
      </trkpt>
      <trkpt lat="44.40305" lon="5.24661">
        <ele>395</ele>
        <time>2024-08-15T14:22:05Z</time>
      </trkpt>
      <trkpt lat="44.40315" lon="5.24626">
        <ele>399</ele>
        <time>2024-08-15T14:22:10Z</time>
      </trkpt>
      <trkpt lat="44.40343" lon="5.24585">
        <ele>411</ele>
        <time>2024-08-15T14:22:17Z</time>
      </trkpt>
      <trkpt lat="44.40352" lon="5.2456">
        <ele>414</ele>
        <time>2024-08-15T14:22:21Z</time>
      </trkpt>
      <trkpt lat="44.4035" lon="5.24536">
        <ele>414</ele>
        <time>2024-08-15T14:22:24Z</time>
      </trkpt>
      <trkpt lat="44.40343" lon="5.24513">
        <ele>413</ele>
        <time>2024-08-15T14:22:27Z</time>
      </trkpt>
      <trkpt lat="44.40342" lon="5.24499">
        <ele>413</ele>
        <time>2024-08-15T14:22:29Z</time>
      </trkpt>
      <trkpt lat="44.40346" lon="5.24495">
        <ele>415</ele>
        <time>2024-08-15T14:22:30Z</time>
      </trkpt>
      <trkpt lat="44.40352" lon="5.24495">
        <ele>417</ele>
        <time>2024-08-15T14:22:31Z</time>
      </trkpt>
      <trkpt lat="44.40358" lon="5.24511">
        <ele>419</ele>
        <time>2024-08-15T14:22:33Z</time>
      </trkpt>
      <trkpt lat="44.40381" lon="5.24589">
        <ele>420</ele>
        <time>2024-08-15T14:22:44Z</time>
      </trkpt>
      <trkpt lat="44.40392" lon="5.24615">
        <ele>418</ele>
        <time>2024-08-15T14:22:47Z</time>
      </trkpt>
      <trkpt lat="44.40405" lon="5.24625">
        <ele>419</ele>
        <time>2024-08-15T14:22:50Z</time>
      </trkpt>
      <trkpt lat="44.4041" lon="5.24613">
        <ele>422</ele>
        <time>2024-08-15T14:22:52Z</time>
      </trkpt>
      <trkpt lat="44.40398" lon="5.24589">
        <ele>425</ele>
        <time>2024-08-15T14:22:56Z</time>
      </trkpt>
      <trkpt lat="44.40396" lon="5.24545">
        <ele>430</ele>
        <time>2024-08-15T14:23:01Z</time>
      </trkpt>
      <trkpt lat="44.40385" lon="5.24503">
        <ele>430</ele>
        <time>2024-08-15T14:23:07Z</time>
      </trkpt>
      <trkpt lat="44.40367" lon="5.24395">
        <ele>445</ele>
        <time>2024-08-15T14:23:21Z</time>
      </trkpt>
      <trkpt lat="44.40337" lon="5.2433">
        <ele>439</ele>
        <time>2024-08-15T14:23:31Z</time>
      </trkpt>
      <trkpt lat="44.40326" lon="5.24266">
        <ele>438</ele>
        <time>2024-08-15T14:23:39Z</time>
      </trkpt>
      <trkpt lat="44.4033" lon="5.24232">
        <ele>439</ele>
        <time>2024-08-15T14:23:44Z</time>
      </trkpt>
      <trkpt lat="44.40374" lon="5.24161">
        <ele>444</ele>
        <time>2024-08-15T14:23:56Z</time>
      </trkpt>
      <trkpt lat="44.40421" lon="5.24151">
        <ele>459</ele>
        <time>2024-08-15T14:24:04Z</time>
      </trkpt>
      <trkpt lat="44.40478" lon="5.24108">
        <ele>464</ele>
        <time>2024-08-15T14:24:15Z</time>
      </trkpt>
      <trkpt lat="44.40511" lon="5.24067">
        <ele>459</ele>
        <time>2024-08-15T14:24:23Z</time>
      </trkpt>
      <trkpt lat="44.40533" lon="5.24049">
        <ele>458</ele>
        <time>2024-08-15T14:24:28Z</time>
      </trkpt>
      <trkpt lat="44.40576" lon="5.24034">
        <ele>464</ele>
        <time>2024-08-15T14:24:36Z</time>
      </trkpt>
      <trkpt lat="44.40638" lon="5.24046">
        <ele>478</ele>
        <time>2024-08-15T14:24:47Z</time>
      </trkpt>
      <trkpt lat="44.40692" lon="5.24048">
        <ele>485</ele>
        <time>2024-08-15T14:24:57Z</time>
      </trkpt>
      <trkpt lat="44.40721" lon="5.24065">
        <ele>495</ele>
        <time>2024-08-15T14:25:02Z</time>
      </trkpt>
      <trkpt lat="44.40772" lon="5.24041">
        <ele>499</ele>
        <time>2024-08-15T14:25:12Z</time>
      </trkpt>
      <trkpt lat="44.40804" lon="5.23991">
        <ele>494</ele>
        <time>2024-08-15T14:25:20Z</time>
      </trkpt>
      <trkpt lat="44.40844" lon="5.23943">
        <ele>495</ele>
        <time>2024-08-15T14:25:30Z</time>
      </trkpt>
      <trkpt lat="44.40891" lon="5.23925">
        <ele>505</ele>
        <time>2024-08-15T14:25:38Z</time>
      </trkpt>
      <trkpt lat="44.40914" lon="5.23895">
        <ele>506</ele>
        <time>2024-08-15T14:25:44Z</time>
      </trkpt>
      <trkpt lat="44.4093" lon="5.2385">
        <ele>504</ele>
        <time>2024-08-15T14:25:50Z</time>
      </trkpt>
      <trkpt lat="44.40939" lon="5.23808">
        <ele>503</ele>
        <time>2024-08-15T14:25:56Z</time>
      </trkpt>
      <trkpt lat="44.40959" lon="5.23768">
        <ele>505</ele>
        <time>2024-08-15T14:26:02Z</time>
      </trkpt>
      <trkpt lat="44.40973" lon="5.23704">
        <ele>502</ele>
        <time>2024-08-15T14:26:11Z</time>
      </trkpt>
      <trkpt lat="44.40986" lon="5.23684">
        <ele>500</ele>
        <time>2024-08-15T14:26:14Z</time>
      </trkpt>
      <trkpt lat="44.41013" lon="5.23681">
        <ele>499</ele>
        <time>2024-08-15T14:26:19Z</time>
      </trkpt>
      <trkpt lat="44.41087" lon="5.23688">
        <ele>504</ele>
        <time>2024-08-15T14:26:32Z</time>
      </trkpt>
      <trkpt lat="44.41164" lon="5.23744">
        <ele>503</ele>
        <time>2024-08-15T14:26:47Z</time>
      </trkpt>
      <trkpt lat="44.41192" lon="5.23773">
        <ele>506</ele>
        <time>2024-08-15T14:26:54Z</time>
      </trkpt>
      <trkpt lat="44.41202" lon="5.23778">
        <ele>506</ele>
        <time>2024-08-15T14:26:55Z</time>
      </trkpt>
      <trkpt lat="44.41208" lon="5.23776">
        <ele>505</ele>
        <time>2024-08-15T14:26:57Z</time>
      </trkpt>
      <trkpt lat="44.41218" lon="5.23771">
        <ele>504</ele>
        <time>2024-08-15T14:26:58Z</time>
      </trkpt>
      <trkpt lat="44.41229" lon="5.23771">
        <ele>504</ele>
        <time>2024-08-15T14:27:00Z</time>
      </trkpt>
      <trkpt lat="44.41251" lon="5.23788">
        <ele>504</ele>
        <time>2024-08-15T14:27:05Z</time>
      </trkpt>
      <trkpt lat="44.4126" lon="5.23789">
        <ele>505</ele>
        <time>2024-08-15T14:27:07Z</time>
      </trkpt>
      <trkpt lat="44.41275" lon="5.23784">
        <ele>505</ele>
        <time>2024-08-15T14:27:09Z</time>
      </trkpt>
      <trkpt lat="44.41308" lon="5.23768">
        <ele>505</ele>
        <time>2024-08-15T14:27:15Z</time>
      </trkpt>
      <trkpt lat="44.41313" lon="5.23765">
        <ele>505</ele>
        <time>2024-08-15T14:27:16Z</time>
      </trkpt>
      <trkpt lat="44.41322" lon="5.23755">
        <ele>504</ele>
        <time>2024-08-15T14:27:18Z</time>
      </trkpt>
      <trkpt lat="44.41337" lon="5.23718">
        <ele>507</ele>
        <time>2024-08-15T14:27:24Z</time>
      </trkpt>
      <trkpt lat="44.41339" lon="5.23667">
        <ele>511</ele>
        <time>2024-08-15T14:27:30Z</time>
      </trkpt>
      <trkpt lat="44.41332" lon="5.23631">
        <ele>513</ele>
        <time>2024-08-15T14:27:35Z</time>
      </trkpt>
      <trkpt lat="44.41321" lon="5.2359">
        <ele>517</ele>
        <time>2024-08-15T14:27:41Z</time>
      </trkpt>
      <trkpt lat="44.41309" lon="5.23559">
        <ele>520</ele>
        <time>2024-08-15T14:27:45Z</time>
      </trkpt>
      <trkpt lat="44.41309" lon="5.23529">
        <ele>521</ele>
        <time>2024-08-15T14:27:49Z</time>
      </trkpt>
      <trkpt lat="44.41326" lon="5.23487">
        <ele>520</ele>
        <time>2024-08-15T14:27:55Z</time>
      </trkpt>
      <trkpt lat="44.41393" lon="5.23432">
        <ele>526</ele>
        <time>2024-08-15T14:28:09Z</time>
      </trkpt>
      <trkpt lat="44.41429" lon="5.23357">
        <ele>529</ele>
        <time>2024-08-15T14:28:20Z</time>
      </trkpt>
      <trkpt lat="44.41457" lon="5.2332">
        <ele>531</ele>
        <time>2024-08-15T14:28:27Z</time>
      </trkpt>
      <trkpt lat="44.41497" lon="5.23279">
        <ele>533</ele>
        <time>2024-08-15T14:28:36Z</time>
      </trkpt>
      <trkpt lat="44.41513" lon="5.2325">
        <ele>531</ele>
        <time>2024-08-15T14:28:41Z</time>
      </trkpt>
      <trkpt lat="44.41524" lon="5.23224">
        <ele>532</ele>
        <time>2024-08-15T14:28:45Z</time>
      </trkpt>
      <trkpt lat="44.4152" lon="5.23172">
        <ele>530</ele>
        <time>2024-08-15T14:28:51Z</time>
      </trkpt>
      <trkpt lat="44.41514" lon="5.23138">
        <ele>531</ele>
        <time>2024-08-15T14:28:56Z</time>
      </trkpt>
      <trkpt lat="44.41515" lon="5.23113">
        <ele>532</ele>
        <time>2024-08-15T14:28:59Z</time>
      </trkpt>
      <trkpt lat="44.41519" lon="5.23093">
        <ele>532</ele>
        <time>2024-08-15T14:29:02Z</time>
      </trkpt>
      <trkpt lat="44.4152" lon="5.23065">
        <ele>533</ele>
        <time>2024-08-15T14:29:05Z</time>
      </trkpt>
      <trkpt lat="44.41522" lon="5.23055">
        <ele>534</ele>
        <time>2024-08-15T14:29:06Z</time>
      </trkpt>
      <trkpt lat="44.41525" lon="5.23051">
        <ele>534</ele>
        <time>2024-08-15T14:29:07Z</time>
      </trkpt>
      <trkpt lat="44.41532" lon="5.23046">
        <ele>535</ele>
        <time>2024-08-15T14:29:09Z</time>
      </trkpt>
      <trkpt lat="44.41552" lon="5.23033">
        <ele>536</ele>
        <time>2024-08-15T14:29:12Z</time>
      </trkpt>
      <trkpt lat="44.41563" lon="5.23034">
        <ele>537</ele>
        <time>2024-08-15T14:29:14Z</time>
      </trkpt>
      <trkpt lat="44.41586" lon="5.23058">
        <ele>536</ele>
        <time>2024-08-15T14:29:20Z</time>
      </trkpt>
      <trkpt lat="44.41606" lon="5.23068">
        <ele>537</ele>
        <time>2024-08-15T14:29:23Z</time>
      </trkpt>
      <trkpt lat="44.41621" lon="5.23069">
        <ele>538</ele>
        <time>2024-08-15T14:29:26Z</time>
      </trkpt>
      <trkpt lat="44.4163" lon="5.23068">
        <ele>539</ele>
        <time>2024-08-15T14:29:28Z</time>
      </trkpt>
      <trkpt lat="44.4167" lon="5.2306">
        <ele>543</ele>
        <time>2024-08-15T14:29:35Z</time>
      </trkpt>
      <trkpt lat="44.4172" lon="5.23076">
        <ele>546</ele>
        <time>2024-08-15T14:29:44Z</time>
      </trkpt>
      <trkpt lat="44.4175" lon="5.23094">
        <ele>547</ele>
        <time>2024-08-15T14:29:50Z</time>
      </trkpt>
      <trkpt lat="44.41753" lon="5.23089">
        <ele>548</ele>
        <time>2024-08-15T14:29:51Z</time>
      </trkpt>
      <trkpt lat="44.41718" lon="5.22981">
        <ele>553</ele>
        <time>2024-08-15T14:30:06Z</time>
      </trkpt>
      <trkpt lat="44.41707" lon="5.22935">
        <ele>555</ele>
        <time>2024-08-15T14:30:12Z</time>
      </trkpt>
      <trkpt lat="44.41709" lon="5.22919">
        <ele>556</ele>
        <time>2024-08-15T14:30:14Z</time>
      </trkpt>
      <trkpt lat="44.41724" lon="5.22886">
        <ele>559</ele>
        <time>2024-08-15T14:30:19Z</time>
      </trkpt>
      <trkpt lat="44.41754" lon="5.22859">
        <ele>562</ele>
        <time>2024-08-15T14:30:25Z</time>
      </trkpt>
      <trkpt lat="44.41771" lon="5.22851">
        <ele>565</ele>
        <time>2024-08-15T14:30:28Z</time>
      </trkpt>
      <trkpt lat="44.41785" lon="5.22831">
        <ele>568</ele>
        <time>2024-08-15T14:30:32Z</time>
      </trkpt>
      <trkpt lat="44.41806" lon="5.22764">
        <ele>573</ele>
        <time>2024-08-15T14:30:41Z</time>
      </trkpt>
      <trkpt lat="44.41808" lon="5.22733">
        <ele>574</ele>
        <time>2024-08-15T14:30:45Z</time>
      </trkpt>
      <trkpt lat="44.41798" lon="5.22667">
        <ele>576</ele>
        <time>2024-08-15T14:30:54Z</time>
      </trkpt>
      <trkpt lat="44.4176" lon="5.22638">
        <ele>571</ele>
        <time>2024-08-15T14:31:01Z</time>
      </trkpt>
      <trkpt lat="44.41754" lon="5.22622">
        <ele>571</ele>
        <time>2024-08-15T14:31:04Z</time>
      </trkpt>
      <trkpt lat="44.41756" lon="5.22601">
        <ele>572</ele>
        <time>2024-08-15T14:31:06Z</time>
      </trkpt>
      <trkpt lat="44.41834" lon="5.22542">
        <ele>580</ele>
        <time>2024-08-15T14:31:22Z</time>
      </trkpt>
      <trkpt lat="44.41863" lon="5.22505">
        <ele>583</ele>
        <time>2024-08-15T14:31:29Z</time>
      </trkpt>
      <trkpt lat="44.41903" lon="5.22479">
        <ele>588</ele>
        <time>2024-08-15T14:31:37Z</time>
      </trkpt>
      <trkpt lat="44.41937" lon="5.22448">
        <ele>589</ele>
        <time>2024-08-15T14:31:44Z</time>
      </trkpt>
      <trkpt lat="44.4195" lon="5.22444">
        <ele>589</ele>
        <time>2024-08-15T14:31:47Z</time>
      </trkpt>
      <trkpt lat="44.4199" lon="5.22448">
        <ele>592</ele>
        <time>2024-08-15T14:31:54Z</time>
      </trkpt>
      <trkpt lat="44.41995" lon="5.22443">
        <ele>591</ele>
        <time>2024-08-15T14:31:55Z</time>
      </trkpt>
      <trkpt lat="44.42006" lon="5.2243">
        <ele>591</ele>
        <time>2024-08-15T14:31:57Z</time>
      </trkpt>
      <trkpt lat="44.42041" lon="5.22352">
        <ele>586</ele>
        <time>2024-08-15T14:32:09Z</time>
      </trkpt>
      <trkpt lat="44.42054" lon="5.2234">
        <ele>585</ele>
        <time>2024-08-15T14:32:12Z</time>
      </trkpt>
      <trkpt lat="44.42079" lon="5.22333">
        <ele>587</ele>
        <time>2024-08-15T14:32:16Z</time>
      </trkpt>
      <trkpt lat="44.42106" lon="5.22303">
        <ele>587</ele>
        <time>2024-08-15T14:32:23Z</time>
      </trkpt>
      <trkpt lat="44.42122" lon="5.22264">
        <ele>582</ele>
        <time>2024-08-15T14:32:28Z</time>
      </trkpt>
      <trkpt lat="44.4214" lon="5.22238">
        <ele>579</ele>
        <time>2024-08-15T14:32:33Z</time>
      </trkpt>
      <trkpt lat="44.42159" lon="5.22195">
        <ele>570</ele>
        <time>2024-08-15T14:32:39Z</time>
      </trkpt>
      <trkpt lat="44.42174" lon="5.22157">
        <ele>560</ele>
        <time>2024-08-15T14:32:45Z</time>
      </trkpt>
      <trkpt lat="44.42184" lon="5.22147">
        <ele>557</ele>
        <time>2024-08-15T14:32:47Z</time>
      </trkpt>
      <trkpt lat="44.42193" lon="5.22145">
        <ele>556</ele>
        <time>2024-08-15T14:32:49Z</time>
      </trkpt>
      <trkpt lat="44.4222" lon="5.22157">
        <ele>559</ele>
        <time>2024-08-15T14:32:54Z</time>
      </trkpt>
      <trkpt lat="44.42244" lon="5.22153">
        <ele>557</ele>
        <time>2024-08-15T14:32:58Z</time>
      </trkpt>
      <trkpt lat="44.42251" lon="5.22156">
        <ele>558</ele>
        <time>2024-08-15T14:32:59Z</time>
      </trkpt>
      <trkpt lat="44.42262" lon="5.22168">
        <ele>559</ele>
        <time>2024-08-15T14:33:02Z</time>
      </trkpt>
      <trkpt lat="44.42273" lon="5.22183">
        <ele>561</ele>
        <time>2024-08-15T14:33:04Z</time>
      </trkpt>
      <trkpt lat="44.42286" lon="5.22191">
        <ele>561</ele>
        <time>2024-08-15T14:33:07Z</time>
      </trkpt>
      <trkpt lat="44.42301" lon="5.22196">
        <ele>560</ele>
        <time>2024-08-15T14:33:10Z</time>
      </trkpt>
      <trkpt lat="44.4232" lon="5.22214">
        <ele>564</ele>
        <time>2024-08-15T14:33:14Z</time>
      </trkpt>
      <trkpt lat="44.42346" lon="5.22212">
        <ele>559</ele>
        <time>2024-08-15T14:33:18Z</time>
      </trkpt>
      <trkpt lat="44.42409" lon="5.22198">
        <ele>541</ele>
        <time>2024-08-15T14:33:30Z</time>
      </trkpt>
      <trkpt lat="44.42418" lon="5.22199">
        <ele>539</ele>
        <time>2024-08-15T14:33:31Z</time>
      </trkpt>
      <trkpt lat="44.42426" lon="5.22201">
        <ele>539</ele>
        <time>2024-08-15T14:33:33Z</time>
      </trkpt>
      <trkpt lat="44.42446" lon="5.22226">
        <ele>545</ele>
        <time>2024-08-15T14:33:38Z</time>
      </trkpt>
      <trkpt lat="44.42462" lon="5.22236">
        <ele>546</ele>
        <time>2024-08-15T14:33:41Z</time>
      </trkpt>
      <trkpt lat="44.42475" lon="5.2224">
        <ele>544</ele>
        <time>2024-08-15T14:33:43Z</time>
      </trkpt>
      <trkpt lat="44.42506" lon="5.22244">
        <ele>538</ele>
        <time>2024-08-15T14:33:49Z</time>
      </trkpt>
      <trkpt lat="44.42512" lon="5.22243">
        <ele>536</ele>
        <time>2024-08-15T14:33:50Z</time>
      </trkpt>
      <trkpt lat="44.42514" lon="5.22236">
        <ele>533</ele>
        <time>2024-08-15T14:33:51Z</time>
      </trkpt>
      <trkpt lat="44.42511" lon="5.22232">
        <ele>533</ele>
        <time>2024-08-15T14:33:51Z</time>
      </trkpt>
      <trkpt lat="44.42488" lon="5.2223">
        <ele>537</ele>
        <time>2024-08-15T14:33:56Z</time>
      </trkpt>
      <trkpt lat="44.4248" lon="5.22227">
        <ele>538</ele>
        <time>2024-08-15T14:33:57Z</time>
      </trkpt>
      <trkpt lat="44.42443" lon="5.22197">
        <ele>534</ele>
        <time>2024-08-15T14:34:05Z</time>
      </trkpt>
      <trkpt lat="44.42434" lon="5.22185">
        <ele>530</ele>
        <time>2024-08-15T14:34:07Z</time>
      </trkpt>
      <trkpt lat="44.42433" lon="5.22178">
        <ele>527</ele>
        <time>2024-08-15T14:34:08Z</time>
      </trkpt>
      <trkpt lat="44.42437" lon="5.22176">
        <ele>526</ele>
        <time>2024-08-15T14:34:08Z</time>
      </trkpt>
      <trkpt lat="44.42445" lon="5.22185">
        <ele>528</ele>
        <time>2024-08-15T14:34:10Z</time>
      </trkpt>
      <trkpt lat="44.42455" lon="5.22192">
        <ele>529</ele>
        <time>2024-08-15T14:34:12Z</time>
      </trkpt>
      <trkpt lat="44.42486" lon="5.22205">
        <ele>528</ele>
        <time>2024-08-15T14:34:18Z</time>
      </trkpt>
      <trkpt lat="44.42497" lon="5.22202">
        <ele>525</ele>
        <time>2024-08-15T14:34:20Z</time>
      </trkpt>
      <trkpt lat="44.42506" lon="5.22197">
        <ele>521</ele>
        <time>2024-08-15T14:34:22Z</time>
      </trkpt>
      <trkpt lat="44.42527" lon="5.22176">
        <ele>511</ele>
        <time>2024-08-15T14:34:26Z</time>
      </trkpt>
      <trkpt lat="44.42534" lon="5.22173">
        <ele>510</ele>
        <time>2024-08-15T14:34:28Z</time>
      </trkpt>
      <trkpt lat="44.42575" lon="5.22174">
        <ele>505</ele>
        <time>2024-08-15T14:34:35Z</time>
      </trkpt>
      <trkpt lat="44.42591" lon="5.2217">
        <ele>502</ele>
        <time>2024-08-15T14:34:38Z</time>
      </trkpt>
      <trkpt lat="44.426" lon="5.22173">
        <ele>500</ele>
        <time>2024-08-15T14:34:39Z</time>
      </trkpt>
      <trkpt lat="44.42603" lon="5.22181">
        <ele>501</ele>
        <time>2024-08-15T14:34:41Z</time>
      </trkpt>
      <trkpt lat="44.42608" lon="5.22217">
        <ele>505</ele>
        <time>2024-08-15T14:34:45Z</time>
      </trkpt>
      <trkpt lat="44.42616" lon="5.22255">
        <ele>508</ele>
        <time>2024-08-15T14:34:50Z</time>
      </trkpt>
      <trkpt lat="44.42622" lon="5.22308">
        <ele>510</ele>
        <time>2024-08-15T14:34:57Z</time>
      </trkpt>
      <trkpt lat="44.42625" lon="5.22318">
        <ele>510</ele>
        <time>2024-08-15T14:34:59Z</time>
      </trkpt>
      <trkpt lat="44.4263" lon="5.22327">
        <ele>509</ele>
        <time>2024-08-15T14:35:00Z</time>
      </trkpt>
      <trkpt lat="44.42666" lon="5.22354">
        <ele>501</ele>
        <time>2024-08-15T14:35:07Z</time>
      </trkpt>
      <trkpt lat="44.42691" lon="5.22367">
        <ele>496</ele>
        <time>2024-08-15T14:35:12Z</time>
      </trkpt>
      <trkpt lat="44.42695" lon="5.22378">
        <ele>497</ele>
        <time>2024-08-15T14:35:14Z</time>
      </trkpt>
      <trkpt lat="44.42707" lon="5.22388">
        <ele>495</ele>
        <time>2024-08-15T14:35:16Z</time>
      </trkpt>
      <trkpt lat="44.4271" lon="5.22382">
        <ele>493</ele>
        <time>2024-08-15T14:35:17Z</time>
      </trkpt>
      <trkpt lat="44.42709" lon="5.22376">
        <ele>492</ele>
        <time>2024-08-15T14:35:18Z</time>
      </trkpt>
      <trkpt lat="44.42674" lon="5.22326">
        <ele>494</ele>
        <time>2024-08-15T14:35:27Z</time>
      </trkpt>
      <trkpt lat="44.42666" lon="5.22305">
        <ele>494</ele>
        <time>2024-08-15T14:35:30Z</time>
      </trkpt>
      <trkpt lat="44.42669" lon="5.22298">
        <ele>493</ele>
        <time>2024-08-15T14:35:31Z</time>
      </trkpt>
      <trkpt lat="44.42681" lon="5.22289">
        <ele>488</ele>
        <time>2024-08-15T14:35:33Z</time>
      </trkpt>
      <trkpt lat="44.42691" lon="5.22275">
        <ele>484</ele>
        <time>2024-08-15T14:35:36Z</time>
      </trkpt>
      <trkpt lat="44.42695" lon="5.22258">
        <ele>481</ele>
        <time>2024-08-15T14:35:38Z</time>
      </trkpt>
      <trkpt lat="44.42697" lon="5.22227">
        <ele>478</ele>
        <time>2024-08-15T14:35:42Z</time>
      </trkpt>
      <trkpt lat="44.42693" lon="5.22184">
        <ele>477</ele>
        <time>2024-08-15T14:35:47Z</time>
      </trkpt>
      <trkpt lat="44.42694" lon="5.22172">
        <ele>477</ele>
        <time>2024-08-15T14:35:49Z</time>
      </trkpt>
      <trkpt lat="44.42713" lon="5.22132">
        <ele>467</ele>
        <time>2024-08-15T14:35:55Z</time>
      </trkpt>
      <trkpt lat="44.42733" lon="5.22113">
        <ele>461</ele>
        <time>2024-08-15T14:35:59Z</time>
      </trkpt>
      <trkpt lat="44.42739" lon="5.22118">
        <ele>461</ele>
        <time>2024-08-15T14:36:01Z</time>
      </trkpt>
      <trkpt lat="44.42737" lon="5.22125">
        <ele>462</ele>
        <time>2024-08-15T14:36:02Z</time>
      </trkpt>
      <trkpt lat="44.42716" lon="5.22151">
        <ele>469</ele>
        <time>2024-08-15T14:36:07Z</time>
      </trkpt>
      <trkpt lat="44.42713" lon="5.22167">
        <ele>471</ele>
        <time>2024-08-15T14:36:09Z</time>
      </trkpt>
      <trkpt lat="44.42713" lon="5.22183">
        <ele>472</ele>
        <time>2024-08-15T14:36:11Z</time>
      </trkpt>
      <trkpt lat="44.42726" lon="5.22207">
        <ele>469</ele>
        <time>2024-08-15T14:36:14Z</time>
      </trkpt>
      <trkpt lat="44.4273" lon="5.22225">
        <ele>469</ele>
        <time>2024-08-15T14:36:17Z</time>
      </trkpt>
      <trkpt lat="44.42735" lon="5.22234">
        <ele>468</ele>
        <time>2024-08-15T14:36:18Z</time>
      </trkpt>
      <trkpt lat="44.42742" lon="5.22235">
        <ele>466</ele>
        <time>2024-08-15T14:36:20Z</time>
      </trkpt>
      <trkpt lat="44.42747" lon="5.22227">
        <ele>464</ele>
        <time>2024-08-15T14:36:21Z</time>
      </trkpt>
      <trkpt lat="44.42743" lon="5.22213">
        <ele>465</ele>
        <time>2024-08-15T14:36:23Z</time>
      </trkpt>
      <trkpt lat="44.42739" lon="5.2219">
        <ele>465</ele>
        <time>2024-08-15T14:36:26Z</time>
      </trkpt>
      <trkpt lat="44.42739" lon="5.22173">
        <ele>464</ele>
        <time>2024-08-15T14:36:28Z</time>
      </trkpt>
      <trkpt lat="44.42766" lon="5.22131">
        <ele>453</ele>
        <time>2024-08-15T14:36:35Z</time>
      </trkpt>
      <trkpt lat="44.42773" lon="5.2211">
        <ele>449</ele>
        <time>2024-08-15T14:36:38Z</time>
      </trkpt>
      <trkpt lat="44.42775" lon="5.22092">
        <ele>448</ele>
        <time>2024-08-15T14:36:40Z</time>
      </trkpt>
      <trkpt lat="44.42762" lon="5.22043">
        <ele>443</ele>
        <time>2024-08-15T14:36:47Z</time>
      </trkpt>
      <trkpt lat="44.42768" lon="5.21997">
        <ele>431</ele>
        <time>2024-08-15T14:36:53Z</time>
      </trkpt>
      <trkpt lat="44.42768" lon="5.21979">
        <ele>428</ele>
        <time>2024-08-15T14:36:55Z</time>
      </trkpt>
      <trkpt lat="44.4277" lon="5.2197">
        <ele>426</ele>
        <time>2024-08-15T14:36:57Z</time>
      </trkpt>
      <trkpt lat="44.42776" lon="5.21972">
        <ele>425</ele>
        <time>2024-08-15T14:36:58Z</time>
      </trkpt>
      <trkpt lat="44.42779" lon="5.21982">
        <ele>427</ele>
        <time>2024-08-15T14:36:59Z</time>
      </trkpt>
      <trkpt lat="44.42781" lon="5.21999">
        <ele>429</ele>
        <time>2024-08-15T14:37:01Z</time>
      </trkpt>
      <trkpt lat="44.4278" lon="5.22025">
        <ele>434</ele>
        <time>2024-08-15T14:37:05Z</time>
      </trkpt>
      <trkpt lat="44.42782" lon="5.22038">
        <ele>436</ele>
        <time>2024-08-15T14:37:06Z</time>
      </trkpt>
      <trkpt lat="44.42786" lon="5.22053">
        <ele>438</ele>
        <time>2024-08-15T14:37:08Z</time>
      </trkpt>
      <trkpt lat="44.42804" lon="5.22082">
        <ele>436</ele>
        <time>2024-08-15T14:37:13Z</time>
      </trkpt>
      <trkpt lat="44.42811" lon="5.22118">
        <ele>435</ele>
        <time>2024-08-15T14:37:18Z</time>
      </trkpt>
      <trkpt lat="44.42815" lon="5.22174">
        <ele>436</ele>
        <time>2024-08-15T14:37:25Z</time>
      </trkpt>
      <trkpt lat="44.42833" lon="5.2221">
        <ele>432</ele>
        <time>2024-08-15T14:37:31Z</time>
      </trkpt>
      <trkpt lat="44.42839" lon="5.2221">
        <ele>431</ele>
        <time>2024-08-15T14:37:32Z</time>
      </trkpt>
      <trkpt lat="44.42842" lon="5.22205">
        <ele>430</ele>
        <time>2024-08-15T14:37:32Z</time>
      </trkpt>
      <trkpt lat="44.42837" lon="5.2218">
        <ele>429</ele>
        <time>2024-08-15T14:37:36Z</time>
      </trkpt>
      <trkpt lat="44.42836" lon="5.22169">
        <ele>428</ele>
        <time>2024-08-15T14:37:37Z</time>
      </trkpt>
      <trkpt lat="44.42839" lon="5.22159">
        <ele>427</ele>
        <time>2024-08-15T14:37:39Z</time>
      </trkpt>
      <trkpt lat="44.42857" lon="5.22141">
        <ele>425</ele>
        <time>2024-08-15T14:37:43Z</time>
      </trkpt>
      <trkpt lat="44.42906" lon="5.22119">
        <ele>420</ele>
        <time>2024-08-15T14:37:52Z</time>
      </trkpt>
      <trkpt lat="44.42921" lon="5.22122">
        <ele>420</ele>
        <time>2024-08-15T14:37:54Z</time>
      </trkpt>
      <trkpt lat="44.42934" lon="5.22121">
        <ele>421</ele>
        <time>2024-08-15T14:37:57Z</time>
      </trkpt>
      <trkpt lat="44.42944" lon="5.22113">
        <ele>422</ele>
        <time>2024-08-15T14:37:59Z</time>
      </trkpt>
      <trkpt lat="44.42929" lon="5.22069">
        <ele>422</ele>
        <time>2024-08-15T14:38:05Z</time>
      </trkpt>
      <trkpt lat="44.42894" lon="5.22003">
        <ele>425</ele>
        <time>2024-08-15T14:38:15Z</time>
      </trkpt>
      <trkpt lat="44.42875" lon="5.2191">
        <ele>424</ele>
        <time>2024-08-15T14:38:28Z</time>
      </trkpt>
      <trkpt lat="44.42863" lon="5.21871">
        <ele>425</ele>
        <time>2024-08-15T14:38:33Z</time>
      </trkpt>
      <trkpt lat="44.42852" lon="5.21846">
        <ele>424</ele>
        <time>2024-08-15T14:38:37Z</time>
      </trkpt>
      <trkpt lat="44.42785" lon="5.21772">
        <ele>417</ele>
        <time>2024-08-15T14:38:52Z</time>
      </trkpt>
      <trkpt lat="44.42777" lon="5.21748">
        <ele>417</ele>
        <time>2024-08-15T14:38:55Z</time>
      </trkpt>
      <trkpt lat="44.42873" lon="5.21705">
        <ele>423</ele>
        <time>2024-08-15T14:39:13Z</time>
      </trkpt>
      <trkpt lat="44.42905" lon="5.21677">
        <ele>422</ele>
        <time>2024-08-15T14:39:20Z</time>
      </trkpt>
      <trkpt lat="44.43103" lon="5.21456">
        <ele>429</ele>
        <time>2024-08-15T14:40:05Z</time>
      </trkpt>
      <trkpt lat="44.4317" lon="5.21393">
        <ele>434</ele>
        <time>2024-08-15T14:40:19Z</time>
      </trkpt>
      <trkpt lat="44.43243" lon="5.21329">
        <ele>436</ele>
        <time>2024-08-15T14:40:35Z</time>
      </trkpt>
      <trkpt lat="44.43268" lon="5.21313">
        <ele>439</ele>
        <time>2024-08-15T14:40:40Z</time>
      </trkpt>
      <trkpt lat="44.43318" lon="5.2129">
        <ele>445</ele>
        <time>2024-08-15T14:40:49Z</time>
      </trkpt>
      <trkpt lat="44.43343" lon="5.21287">
        <ele>447</ele>
        <time>2024-08-15T14:40:53Z</time>
      </trkpt>
      <trkpt lat="44.43394" lon="5.21287">
        <ele>451</ele>
        <time>2024-08-15T14:41:03Z</time>
      </trkpt>
      <trkpt lat="44.4341" lon="5.21285">
        <ele>451</ele>
        <time>2024-08-15T14:41:05Z</time>
      </trkpt>
      <trkpt lat="44.43513" lon="5.21228">
        <ele>447</ele>
        <time>2024-08-15T14:41:25Z</time>
      </trkpt>
      <trkpt lat="44.43521" lon="5.21224">
        <ele>448</ele>
        <time>2024-08-15T14:41:27Z</time>
      </trkpt>
      <trkpt lat="44.43543" lon="5.21211">
        <ele>448</ele>
        <time>2024-08-15T14:41:31Z</time>
      </trkpt>
      <trkpt lat="44.43574" lon="5.21198">
        <ele>449</ele>
        <time>2024-08-15T14:41:37Z</time>
      </trkpt>
      <trkpt lat="44.43639" lon="5.21178">
        <ele>454</ele>
        <time>2024-08-15T14:41:48Z</time>
      </trkpt>
      <trkpt lat="44.43659" lon="5.21169">
        <ele>455</ele>
        <time>2024-08-15T14:41:52Z</time>
      </trkpt>
      <trkpt lat="44.43672" lon="5.21161">
        <ele>455</ele>
        <time>2024-08-15T14:41:55Z</time>
      </trkpt>
      <trkpt lat="44.43691" lon="5.21138">
        <ele>456</ele>
        <time>2024-08-15T14:41:59Z</time>
      </trkpt>
      <trkpt lat="44.4372" lon="5.21088">
        <ele>456</ele>
        <time>2024-08-15T14:42:07Z</time>
      </trkpt>
      <trkpt lat="44.43728" lon="5.21077">
        <ele>456</ele>
        <time>2024-08-15T14:42:09Z</time>
      </trkpt>
      <trkpt lat="44.43736" lon="5.21068">
        <ele>457</ele>
        <time>2024-08-15T14:42:11Z</time>
      </trkpt>
      <trkpt lat="44.43778" lon="5.21019">
        <ele>457</ele>
        <time>2024-08-15T14:42:21Z</time>
      </trkpt>
      <trkpt lat="44.43809" lon="5.20978">
        <ele>458</ele>
        <time>2024-08-15T14:42:28Z</time>
      </trkpt>
      <trkpt lat="44.43835" lon="5.20962">
        <ele>459</ele>
        <time>2024-08-15T14:42:34Z</time>
      </trkpt>
      <trkpt lat="44.43859" lon="5.20954">
        <ele>460</ele>
        <time>2024-08-15T14:42:38Z</time>
      </trkpt>
      <trkpt lat="44.43912" lon="5.20962">
        <ele>465</ele>
        <time>2024-08-15T14:42:47Z</time>
      </trkpt>
      <trkpt lat="44.43981" lon="5.20946">
        <ele>468</ele>
        <time>2024-08-15T14:43:00Z</time>
      </trkpt>
      <trkpt lat="44.4409" lon="5.20955">
        <ele>473</ele>
        <time>2024-08-15T14:43:19Z</time>
      </trkpt>
      <trkpt lat="44.44103" lon="5.20956">
        <ele>473</ele>
        <time>2024-08-15T14:43:22Z</time>
      </trkpt>
      <trkpt lat="44.44112" lon="5.20953">
        <ele>473</ele>
        <time>2024-08-15T14:43:23Z</time>
      </trkpt>
      <trkpt lat="44.4413" lon="5.20938">
        <ele>471</ele>
        <time>2024-08-15T14:43:27Z</time>
      </trkpt>
      <trkpt lat="44.44164" lon="5.2091">
        <ele>473</ele>
        <time>2024-08-15T14:43:34Z</time>
      </trkpt>
      <trkpt lat="44.44156" lon="5.20899">
        <ele>475</ele>
        <time>2024-08-15T14:43:36Z</time>
      </trkpt>
      <trkpt lat="44.44095" lon="5.20844">
        <ele>475</ele>
        <time>2024-08-15T14:43:49Z</time>
      </trkpt>
      <trkpt lat="44.44084" lon="5.20831">
        <ele>475</ele>
        <time>2024-08-15T14:43:51Z</time>
      </trkpt>
      <trkpt lat="44.44053" lon="5.20769">
        <ele>480</ele>
        <time>2024-08-15T14:44:01Z</time>
      </trkpt>
      <trkpt lat="44.44033" lon="5.20739">
        <ele>478</ele>
        <time>2024-08-15T14:44:06Z</time>
      </trkpt>
      <trkpt lat="44.44029" lon="5.20729">
        <ele>477</ele>
        <time>2024-08-15T14:44:08Z</time>
      </trkpt>
      <trkpt lat="44.44028" lon="5.20715">
        <ele>478</ele>
        <time>2024-08-15T14:44:10Z</time>
      </trkpt>
      <trkpt lat="44.44043" lon="5.20596">
        <ele>486</ele>
        <time>2024-08-15T14:44:25Z</time>
      </trkpt>
      <trkpt lat="44.4405" lon="5.20561">
        <ele>488</ele>
        <time>2024-08-15T14:44:29Z</time>
      </trkpt>
      <trkpt lat="44.44063" lon="5.20518">
        <ele>489</ele>
        <time>2024-08-15T14:44:35Z</time>
      </trkpt>
      <trkpt lat="44.4409" lon="5.2045">
        <ele>486</ele>
        <time>2024-08-15T14:44:45Z</time>
      </trkpt>
      <trkpt lat="44.441" lon="5.20428">
        <ele>485</ele>
        <time>2024-08-15T14:44:49Z</time>
      </trkpt>
      <trkpt lat="44.44117" lon="5.2041">
        <ele>489</ele>
        <time>2024-08-15T14:44:52Z</time>
      </trkpt>
      <trkpt lat="44.44165" lon="5.20378">
        <ele>497</ele>
        <time>2024-08-15T14:45:02Z</time>
      </trkpt>
      <trkpt lat="44.44179" lon="5.20365">
        <ele>500</ele>
        <time>2024-08-15T14:45:05Z</time>
      </trkpt>
      <trkpt lat="44.44213" lon="5.20306">
        <ele>505</ele>
        <time>2024-08-15T14:45:14Z</time>
      </trkpt>
      <trkpt lat="44.4425" lon="5.20222">
        <ele>504</ele>
        <time>2024-08-15T14:45:27Z</time>
      </trkpt>
      <trkpt lat="44.44261" lon="5.20204">
        <ele>509</ele>
        <time>2024-08-15T14:45:30Z</time>
      </trkpt>
      <trkpt lat="44.44275" lon="5.2019">
        <ele>511</ele>
        <time>2024-08-15T14:45:33Z</time>
      </trkpt>
      <trkpt lat="44.44319" lon="5.20164">
        <ele>507</ele>
        <time>2024-08-15T14:45:42Z</time>
      </trkpt>
      <trkpt lat="44.44334" lon="5.20161">
        <ele>507</ele>
        <time>2024-08-15T14:45:44Z</time>
      </trkpt>
      <trkpt lat="44.44346" lon="5.20162">
        <ele>507</ele>
        <time>2024-08-15T14:45:46Z</time>
      </trkpt>
      <trkpt lat="44.44437" lon="5.20183">
        <ele>519</ele>
        <time>2024-08-15T14:46:03Z</time>
      </trkpt>
      <trkpt lat="44.44447" lon="5.20181">
        <ele>519</ele>
        <time>2024-08-15T14:46:05Z</time>
      </trkpt>
      <trkpt lat="44.44472" lon="5.20165">
        <ele>515</ele>
        <time>2024-08-15T14:46:10Z</time>
      </trkpt>
      <trkpt lat="44.44482" lon="5.20167">
        <ele>515</ele>
        <time>2024-08-15T14:46:11Z</time>
      </trkpt>
      <trkpt lat="44.4449" lon="5.20176">
        <ele>519</ele>
        <time>2024-08-15T14:46:13Z</time>
      </trkpt>
      <trkpt lat="44.44496" lon="5.2019">
        <ele>524</ele>
        <time>2024-08-15T14:46:15Z</time>
      </trkpt>
      <trkpt lat="44.44502" lon="5.20198">
        <ele>527</ele>
        <time>2024-08-15T14:46:17Z</time>
      </trkpt>
      <trkpt lat="44.44514" lon="5.20204">
        <ele>529</ele>
        <time>2024-08-15T14:46:19Z</time>
      </trkpt>
      <trkpt lat="44.44526" lon="5.20203">
        <ele>528</ele>
        <time>2024-08-15T14:46:21Z</time>
      </trkpt>
      <trkpt lat="44.44543" lon="5.20196">
        <ele>527</ele>
        <time>2024-08-15T14:46:24Z</time>
      </trkpt>
      <trkpt lat="44.44555" lon="5.20194">
        <ele>527</ele>
        <time>2024-08-15T14:46:26Z</time>
      </trkpt>
      <trkpt lat="44.44565" lon="5.20196">
        <ele>528</ele>
        <time>2024-08-15T14:46:28Z</time>
      </trkpt>
      <trkpt lat="44.44585" lon="5.20207">
        <ele>530</ele>
        <time>2024-08-15T14:46:32Z</time>
      </trkpt>
      <trkpt lat="44.44606" lon="5.20205">
        <ele>532</ele>
        <time>2024-08-15T14:46:36Z</time>
      </trkpt>
      <trkpt lat="44.44623" lon="5.20216">
        <ele>535</ele>
        <time>2024-08-15T14:46:39Z</time>
      </trkpt>
      <trkpt lat="44.44646" lon="5.20218">
        <ele>537</ele>
        <time>2024-08-15T14:46:43Z</time>
      </trkpt>
      <trkpt lat="44.44661" lon="5.20212">
        <ele>538</ele>
        <time>2024-08-15T14:46:46Z</time>
      </trkpt>
      <trkpt lat="44.44674" lon="5.20198">
        <ele>537</ele>
        <time>2024-08-15T14:46:49Z</time>
      </trkpt>
      <trkpt lat="44.44681" lon="5.20181">
        <ele>534</ele>
        <time>2024-08-15T14:46:51Z</time>
      </trkpt>
      <trkpt lat="44.44686" lon="5.20163">
        <ele>532</ele>
        <time>2024-08-15T14:46:54Z</time>
      </trkpt>
      <trkpt lat="44.44694" lon="5.20157">
        <ele>531</ele>
        <time>2024-08-15T14:46:55Z</time>
      </trkpt>
      <trkpt lat="44.44703" lon="5.20163">
        <ele>529</ele>
        <time>2024-08-15T14:46:57Z</time>
      </trkpt>
      <trkpt lat="44.44713" lon="5.20166">
        <ele>527</ele>
        <time>2024-08-15T14:46:59Z</time>
      </trkpt>
      <trkpt lat="44.44733" lon="5.20155">
        <ele>524</ele>
        <time>2024-08-15T14:47:03Z</time>
      </trkpt>
      <trkpt lat="44.44741" lon="5.20154">
        <ele>523</ele>
        <time>2024-08-15T14:47:04Z</time>
      </trkpt>
      <trkpt lat="44.44752" lon="5.20162">
        <ele>521</ele>
        <time>2024-08-15T14:47:07Z</time>
      </trkpt>
      <trkpt lat="44.44765" lon="5.20166">
        <ele>522</ele>
        <time>2024-08-15T14:47:09Z</time>
      </trkpt>
      <trkpt lat="44.44783" lon="5.20165">
        <ele>524</ele>
        <time>2024-08-15T14:47:12Z</time>
      </trkpt>
      <trkpt lat="44.44834" lon="5.2017">
        <ele>531</ele>
        <time>2024-08-15T14:47:21Z</time>
      </trkpt>
      <trkpt lat="44.44915" lon="5.20156">
        <ele>523</ele>
        <time>2024-08-15T14:47:36Z</time>
      </trkpt>
      <trkpt lat="44.44924" lon="5.20149">
        <ele>523</ele>
        <time>2024-08-15T14:47:38Z</time>
      </trkpt>
      <trkpt lat="44.44926" lon="5.20137">
        <ele>522</ele>
        <time>2024-08-15T14:47:39Z</time>
      </trkpt>
      <trkpt lat="44.44926" lon="5.20122">
        <ele>522</ele>
        <time>2024-08-15T14:47:41Z</time>
      </trkpt>
      <trkpt lat="44.44926" lon="5.20097">
        <ele>521</ele>
        <time>2024-08-15T14:47:44Z</time>
      </trkpt>
      <trkpt lat="44.44931" lon="5.2008">
        <ele>521</ele>
        <time>2024-08-15T14:47:47Z</time>
      </trkpt>
      <trkpt lat="44.44939" lon="5.20068">
        <ele>524</ele>
        <time>2024-08-15T14:47:49Z</time>
      </trkpt>
      <trkpt lat="44.44962" lon="5.20059">
        <ele>526</ele>
        <time>2024-08-15T14:47:53Z</time>
      </trkpt>
      <trkpt lat="44.44995" lon="5.20055">
        <ele>528</ele>
        <time>2024-08-15T14:47:59Z</time>
      </trkpt>
      <trkpt lat="44.45006" lon="5.20049">
        <ele>529</ele>
        <time>2024-08-15T14:48:01Z</time>
      </trkpt>
      <trkpt lat="44.45009" lon="5.20038">
        <ele>530</ele>
        <time>2024-08-15T14:48:02Z</time>
      </trkpt>
      <trkpt lat="44.45007" lon="5.20028">
        <ele>531</ele>
        <time>2024-08-15T14:48:04Z</time>
      </trkpt>
      <trkpt lat="44.44987" lon="5.20009">
        <ele>533</ele>
        <time>2024-08-15T14:48:08Z</time>
      </trkpt>
      <trkpt lat="44.44955" lon="5.19997">
        <ele>535</ele>
        <time>2024-08-15T14:48:14Z</time>
      </trkpt>
      <trkpt lat="44.44926" lon="5.20001">
        <ele>534</ele>
        <time>2024-08-15T14:48:19Z</time>
      </trkpt>
      <trkpt lat="44.44895" lon="5.2001">
        <ele>533</ele>
        <time>2024-08-15T14:48:25Z</time>
      </trkpt>
      <trkpt lat="44.44885" lon="5.20006">
        <ele>533</ele>
        <time>2024-08-15T14:48:27Z</time>
      </trkpt>
      <trkpt lat="44.4487" lon="5.19989">
        <ele>537</ele>
        <time>2024-08-15T14:48:30Z</time>
      </trkpt>
      <trkpt lat="44.44858" lon="5.19968">
        <ele>541</ele>
        <time>2024-08-15T14:48:33Z</time>
      </trkpt>
      <trkpt lat="44.44831" lon="5.19954">
        <ele>545</ele>
        <time>2024-08-15T14:48:38Z</time>
      </trkpt>
      <trkpt lat="44.44797" lon="5.19949">
        <ele>549</ele>
        <time>2024-08-15T14:48:45Z</time>
      </trkpt>
      <trkpt lat="44.44776" lon="5.19963">
        <ele>548</ele>
        <time>2024-08-15T14:48:49Z</time>
      </trkpt>
      <trkpt lat="44.44763" lon="5.19981">
        <ele>545</ele>
        <time>2024-08-15T14:48:52Z</time>
      </trkpt>
      <trkpt lat="44.44756" lon="5.1998">
        <ele>545</ele>
        <time>2024-08-15T14:48:53Z</time>
      </trkpt>
      <trkpt lat="44.44752" lon="5.19976">
        <ele>547</ele>
        <time>2024-08-15T14:48:54Z</time>
      </trkpt>
      <trkpt lat="44.44753" lon="5.19968">
        <ele>548</ele>
        <time>2024-08-15T14:48:55Z</time>
      </trkpt>
      <trkpt lat="44.44797" lon="5.19917">
        <ele>556</ele>
        <time>2024-08-15T14:49:05Z</time>
      </trkpt>
      <trkpt lat="44.44829" lon="5.19903">
        <ele>558</ele>
        <time>2024-08-15T14:49:11Z</time>
      </trkpt>
      <trkpt lat="44.44854" lon="5.19903">
        <ele>556</ele>
        <time>2024-08-15T14:49:16Z</time>
      </trkpt>
      <trkpt lat="44.44875" lon="5.19893">
        <ele>559</ele>
        <time>2024-08-15T14:49:20Z</time>
      </trkpt>
      <trkpt lat="44.44893" lon="5.19891">
        <ele>559</ele>
        <time>2024-08-15T14:49:23Z</time>
      </trkpt>
      <trkpt lat="44.44914" lon="5.19896">
        <ele>556</ele>
        <time>2024-08-15T14:49:27Z</time>
      </trkpt>
      <trkpt lat="44.44931" lon="5.19895">
        <ele>557</ele>
        <time>2024-08-15T14:49:30Z</time>
      </trkpt>
      <trkpt lat="44.44946" lon="5.19888">
        <ele>560</ele>
        <time>2024-08-15T14:49:32Z</time>
      </trkpt>
      <trkpt lat="44.44956" lon="5.19888">
        <ele>561</ele>
        <time>2024-08-15T14:49:34Z</time>
      </trkpt>
      <trkpt lat="44.44964" lon="5.19891">
        <ele>560</ele>
        <time>2024-08-15T14:49:36Z</time>
      </trkpt>
      <trkpt lat="44.44993" lon="5.19912">
        <ele>557</ele>
        <time>2024-08-15T14:49:42Z</time>
      </trkpt>
      <trkpt lat="44.4501" lon="5.19913">
        <ele>557</ele>
        <time>2024-08-15T14:49:45Z</time>
      </trkpt>
      <trkpt lat="44.45016" lon="5.19908">
        <ele>558</ele>
        <time>2024-08-15T14:49:46Z</time>
      </trkpt>
      <trkpt lat="44.45021" lon="5.19896">
        <ele>561</ele>
        <time>2024-08-15T14:49:48Z</time>
      </trkpt>
      <trkpt lat="44.45022" lon="5.19853">
        <ele>573</ele>
        <time>2024-08-15T14:49:53Z</time>
      </trkpt>
      <trkpt lat="44.45025" lon="5.19844">
        <ele>576</ele>
        <time>2024-08-15T14:49:54Z</time>
      </trkpt>
      <trkpt lat="44.45031" lon="5.19841">
        <ele>577</ele>
        <time>2024-08-15T14:49:55Z</time>
      </trkpt>
      <trkpt lat="44.45039" lon="5.19842">
        <ele>577</ele>
        <time>2024-08-15T14:49:57Z</time>
      </trkpt>
      <trkpt lat="44.45066" lon="5.19878">
        <ele>567</ele>
        <time>2024-08-15T14:50:04Z</time>
      </trkpt>
      <trkpt lat="44.45075" lon="5.19885">
        <ele>565</ele>
        <time>2024-08-15T14:50:05Z</time>
      </trkpt>
      <trkpt lat="44.45088" lon="5.19884">
        <ele>565</ele>
        <time>2024-08-15T14:50:08Z</time>
      </trkpt>
      <trkpt lat="44.45121" lon="5.19867">
        <ele>572</ele>
        <time>2024-08-15T14:50:14Z</time>
      </trkpt>
      <trkpt lat="44.45178" lon="5.1982">
        <ele>590</ele>
        <time>2024-08-15T14:50:26Z</time>
      </trkpt>
      <trkpt lat="44.45242" lon="5.19781">
        <ele>591</ele>
        <time>2024-08-15T14:50:38Z</time>
      </trkpt>
      <trkpt lat="44.45253" lon="5.19761">
        <ele>596</ele>
        <time>2024-08-15T14:50:41Z</time>
      </trkpt>
      <trkpt lat="44.45269" lon="5.19753">
        <ele>596</ele>
        <time>2024-08-15T14:50:44Z</time>
      </trkpt>
      <trkpt lat="44.45289" lon="5.19745">
        <ele>595</ele>
        <time>2024-08-15T14:50:48Z</time>
      </trkpt>
      <trkpt lat="44.45372" lon="5.19681">
        <ele>599</ele>
        <time>2024-08-15T14:51:05Z</time>
      </trkpt>
      <trkpt lat="44.45385" lon="5.19659">
        <ele>602</ele>
        <time>2024-08-15T14:51:09Z</time>
      </trkpt>
      <trkpt lat="44.45393" lon="5.19632">
        <ele>607</ele>
        <time>2024-08-15T14:51:12Z</time>
      </trkpt>
      <trkpt lat="44.45425" lon="5.19564">
        <ele>614</ele>
        <time>2024-08-15T14:51:23Z</time>
      </trkpt>
      <trkpt lat="44.45453" lon="5.19474">
        <ele>625</ele>
        <time>2024-08-15T14:51:35Z</time>
      </trkpt>
      <trkpt lat="44.45462" lon="5.19457">
        <ele>625</ele>
        <time>2024-08-15T14:51:38Z</time>
      </trkpt>
      <trkpt lat="44.45494" lon="5.19424">
        <ele>620</ele>
        <time>2024-08-15T14:51:45Z</time>
      </trkpt>
      <trkpt lat="44.45506" lon="5.19404">
        <ele>621</ele>
        <time>2024-08-15T14:51:48Z</time>
      </trkpt>
      <trkpt lat="44.45515" lon="5.19373">
        <ele>624</ele>
        <time>2024-08-15T14:51:52Z</time>
      </trkpt>
      <trkpt lat="44.45552" lon="5.19298">
        <ele>629</ele>
        <time>2024-08-15T14:52:04Z</time>
      </trkpt>
      <trkpt lat="44.45554" lon="5.19284">
        <ele>631</ele>
        <time>2024-08-15T14:52:06Z</time>
      </trkpt>
      <trkpt lat="44.45551" lon="5.19268">
        <ele>635</ele>
        <time>2024-08-15T14:52:08Z</time>
      </trkpt>
      <trkpt lat="44.4555" lon="5.19234">
        <ele>642</ele>
        <time>2024-08-15T14:52:12Z</time>
      </trkpt>
      <trkpt lat="44.45563" lon="5.19174">
        <ele>649</ele>
        <time>2024-08-15T14:52:20Z</time>
      </trkpt>
      <trkpt lat="44.4558" lon="5.19145">
        <ele>648</ele>
        <time>2024-08-15T14:52:25Z</time>
      </trkpt>
      <trkpt lat="44.45583" lon="5.19129">
        <ele>650</ele>
        <time>2024-08-15T14:52:27Z</time>
      </trkpt>
      <trkpt lat="44.45582" lon="5.19099">
        <ele>657</ele>
        <time>2024-08-15T14:52:31Z</time>
      </trkpt>
      <trkpt lat="44.45585" lon="5.19076">
        <ele>662</ele>
        <time>2024-08-15T14:52:34Z</time>
      </trkpt>
      <trkpt lat="44.45595" lon="5.19059">
        <ele>663</ele>
        <time>2024-08-15T14:52:37Z</time>
      </trkpt>
      <trkpt lat="44.45617" lon="5.19048">
        <ele>660</ele>
        <time>2024-08-15T14:52:41Z</time>
      </trkpt>
      <trkpt lat="44.45649" lon="5.19015">
        <ele>660</ele>
        <time>2024-08-15T14:52:48Z</time>
      </trkpt>
      <trkpt lat="44.45678" lon="5.18991">
        <ele>660</ele>
        <time>2024-08-15T14:52:54Z</time>
      </trkpt>
      <trkpt lat="44.45695" lon="5.18984">
        <ele>658</ele>
        <time>2024-08-15T14:52:57Z</time>
      </trkpt>
      <trkpt lat="44.45719" lon="5.18971">
        <ele>657</ele>
        <time>2024-08-15T14:53:02Z</time>
      </trkpt>
      <trkpt lat="44.45727" lon="5.18962">
        <ele>657</ele>
        <time>2024-08-15T14:53:03Z</time>
      </trkpt>
      <trkpt lat="44.4573" lon="5.18944">
        <ele>661</ele>
        <time>2024-08-15T14:53:06Z</time>
      </trkpt>
      <trkpt lat="44.45731" lon="5.18916">
        <ele>667</ele>
        <time>2024-08-15T14:53:09Z</time>
      </trkpt>
      <trkpt lat="44.45738" lon="5.1888">
        <ele>671</ele>
        <time>2024-08-15T14:53:14Z</time>
      </trkpt>
      <trkpt lat="44.45757" lon="5.18856">
        <ele>672</ele>
        <time>2024-08-15T14:53:19Z</time>
      </trkpt>
      <trkpt lat="44.45781" lon="5.1884">
        <ele>672</ele>
        <time>2024-08-15T14:53:23Z</time>
      </trkpt>
      <trkpt lat="44.45809" lon="5.18824">
        <ele>671</ele>
        <time>2024-08-15T14:53:29Z</time>
      </trkpt>
      <trkpt lat="44.45817" lon="5.18814">
        <ele>672</ele>
        <time>2024-08-15T14:53:31Z</time>
      </trkpt>
      <trkpt lat="44.45828" lon="5.18793">
        <ele>674</ele>
        <time>2024-08-15T14:53:34Z</time>
      </trkpt>
      <trkpt lat="44.45855" lon="5.18711">
        <ele>682</ele>
        <time>2024-08-15T14:53:45Z</time>
      </trkpt>
      <trkpt lat="44.45862" lon="5.18703">
        <ele>682</ele>
        <time>2024-08-15T14:53:47Z</time>
      </trkpt>
      <trkpt lat="44.45883" lon="5.18685">
        <ele>681</ele>
        <time>2024-08-15T14:53:51Z</time>
      </trkpt>
      <trkpt lat="44.45889" lon="5.18673">
        <ele>682</ele>
        <time>2024-08-15T14:53:53Z</time>
      </trkpt>
      <trkpt lat="44.45895" lon="5.18652">
        <ele>683</ele>
        <time>2024-08-15T14:53:56Z</time>
      </trkpt>
      <trkpt lat="44.45899" lon="5.18628">
        <ele>684</ele>
        <time>2024-08-15T14:53:59Z</time>
      </trkpt>
      <trkpt lat="44.459" lon="5.186">
        <ele>686</ele>
        <time>2024-08-15T14:54:03Z</time>
      </trkpt>
      <trkpt lat="44.45896" lon="5.18578">
        <ele>689</ele>
        <time>2024-08-15T14:54:06Z</time>
      </trkpt>
      <trkpt lat="44.45887" lon="5.18549">
        <ele>692</ele>
        <time>2024-08-15T14:54:10Z</time>
      </trkpt>
      <trkpt lat="44.45875" lon="5.1853">
        <ele>696</ele>
        <time>2024-08-15T14:54:13Z</time>
      </trkpt>
      <trkpt lat="44.45874" lon="5.18514">
        <ele>697</ele>
        <time>2024-08-15T14:54:15Z</time>
      </trkpt>
      <trkpt lat="44.45881" lon="5.18323">
        <ele>708</ele>
        <time>2024-08-15T14:54:39Z</time>
      </trkpt>
      <trkpt lat="44.45883" lon="5.18303">
        <ele>710</ele>
        <time>2024-08-15T14:54:42Z</time>
      </trkpt>
      <trkpt lat="44.45888" lon="5.18278">
        <ele>712</ele>
        <time>2024-08-15T14:54:45Z</time>
      </trkpt>
      <trkpt lat="44.45897" lon="5.18256">
        <ele>712</ele>
        <time>2024-08-15T14:54:48Z</time>
      </trkpt>
      <trkpt lat="44.45911" lon="5.18185">
        <ele>715</ele>
        <time>2024-08-15T14:54:58Z</time>
      </trkpt>
      <trkpt lat="44.45925" lon="5.18149">
        <ele>714</ele>
        <time>2024-08-15T14:55:03Z</time>
      </trkpt>
      <trkpt lat="44.45925" lon="5.1814">
        <ele>714</ele>
        <time>2024-08-15T14:55:04Z</time>
      </trkpt>
      <trkpt lat="44.45923" lon="5.18129">
        <ele>714</ele>
        <time>2024-08-15T14:55:05Z</time>
      </trkpt>
      <trkpt lat="44.45916" lon="5.1812">
        <ele>715</ele>
        <time>2024-08-15T14:55:07Z</time>
      </trkpt>
      <trkpt lat="44.45903" lon="5.18113">
        <ele>717</ele>
        <time>2024-08-15T14:55:10Z</time>
      </trkpt>
      <trkpt lat="44.45893" lon="5.18098">
        <ele>719</ele>
        <time>2024-08-15T14:55:12Z</time>
      </trkpt>
      <trkpt lat="44.45884" lon="5.18046">
        <ele>722</ele>
        <time>2024-08-15T14:55:19Z</time>
      </trkpt>
      <trkpt lat="44.45885" lon="5.18036">
        <ele>722</ele>
        <time>2024-08-15T14:55:20Z</time>
      </trkpt>
      <trkpt lat="44.45901" lon="5.17996">
        <ele>720</ele>
        <time>2024-08-15T14:55:26Z</time>
      </trkpt>
      <trkpt lat="44.45904" lon="5.17962">
        <ele>721</ele>
        <time>2024-08-15T14:55:30Z</time>
      </trkpt>
      <trkpt lat="44.45902" lon="5.17923">
        <ele>723</ele>
        <time>2024-08-15T14:55:35Z</time>
      </trkpt>
      <trkpt lat="44.45894" lon="5.1786">
        <ele>734</ele>
        <time>2024-08-15T14:55:44Z</time>
      </trkpt>
      <trkpt lat="44.45904" lon="5.17838">
        <ele>735</ele>
        <time>2024-08-15T14:55:47Z</time>
      </trkpt>
      <trkpt lat="44.45938" lon="5.1781">
        <ele>734</ele>
        <time>2024-08-15T14:55:54Z</time>
      </trkpt>
      <trkpt lat="44.46095" lon="5.17602">
        <ele>739</ele>
        <time>2024-08-15T14:56:32Z</time>
      </trkpt>
      <trkpt lat="44.46127" lon="5.1759">
        <ele>738</ele>
        <time>2024-08-15T14:56:38Z</time>
      </trkpt>
      <trkpt lat="44.46157" lon="5.17591">
        <ele>736</ele>
        <time>2024-08-15T14:56:44Z</time>
      </trkpt>
      <trkpt lat="44.46175" lon="5.17596">
        <ele>735</ele>
        <time>2024-08-15T14:56:47Z</time>
      </trkpt>
      <trkpt lat="44.46186" lon="5.17569">
        <ele>735</ele>
        <time>2024-08-15T14:56:51Z</time>
      </trkpt>
      <trkpt lat="44.46217" lon="5.1752">
        <ele>735</ele>
        <time>2024-08-15T14:56:59Z</time>
      </trkpt>
      <trkpt lat="44.46238" lon="5.1749">
        <ele>733</ele>
        <time>2024-08-15T14:57:04Z</time>
      </trkpt>
      <trkpt lat="44.46243" lon="5.17453">
        <ele>735</ele>
        <time>2024-08-15T14:57:09Z</time>
      </trkpt>
      <trkpt lat="44.46252" lon="5.17416">
        <ele>736</ele>
        <time>2024-08-15T14:57:14Z</time>
      </trkpt>
      <trkpt lat="44.46272" lon="5.17372">
        <ele>730</ele>
        <time>2024-08-15T14:57:21Z</time>
      </trkpt>
      <trkpt lat="44.46275" lon="5.17359">
        <ele>729</ele>
        <time>2024-08-15T14:57:23Z</time>
      </trkpt>
      <trkpt lat="44.4627" lon="5.17346">
        <ele>730</ele>
        <time>2024-08-15T14:57:24Z</time>
      </trkpt>
      <trkpt lat="44.46254" lon="5.17311">
        <ele>729</ele>
        <time>2024-08-15T14:57:30Z</time>
      </trkpt>
      <trkpt lat="44.4624" lon="5.17268">
        <ele>728</ele>
        <time>2024-08-15T14:57:36Z</time>
      </trkpt>
      <trkpt lat="44.46193" lon="5.17172">
        <ele>735</ele>
        <time>2024-08-15T14:57:50Z</time>
      </trkpt>
      <trkpt lat="44.46189" lon="5.17158">
        <ele>736</ele>
        <time>2024-08-15T14:57:52Z</time>
      </trkpt>
      <trkpt lat="44.46191" lon="5.17152">
        <ele>735</ele>
        <time>2024-08-15T14:57:53Z</time>
      </trkpt>
      <trkpt lat="44.4621" lon="5.17128">
        <ele>726</ele>
        <time>2024-08-15T14:57:58Z</time>
      </trkpt>
      <trkpt lat="44.46233" lon="5.17094">
        <ele>715</ele>
        <time>2024-08-15T14:58:04Z</time>
      </trkpt>
      <trkpt lat="44.46237" lon="5.17079">
        <ele>712</ele>
        <time>2024-08-15T14:58:06Z</time>
      </trkpt>
      <trkpt lat="44.46234" lon="5.17068">
        <ele>711</ele>
        <time>2024-08-15T14:58:07Z</time>
      </trkpt>
      <trkpt lat="44.4617" lon="5.16982">
        <ele>713</ele>
        <time>2024-08-15T14:58:23Z</time>
      </trkpt>
      <trkpt lat="44.46083" lon="5.1693">
        <ele>712</ele>
        <time>2024-08-15T14:58:40Z</time>
      </trkpt>
      <trkpt lat="44.46041" lon="5.16912">
        <ele>711</ele>
        <time>2024-08-15T14:58:48Z</time>
      </trkpt>
      <trkpt lat="44.46002" lon="5.16866">
        <ele>705</ele>
        <time>2024-08-15T14:58:57Z</time>
      </trkpt>
      <trkpt lat="44.45986" lon="5.16837">
        <ele>700</ele>
        <time>2024-08-15T14:59:01Z</time>
      </trkpt>
      <trkpt lat="44.45948" lon="5.1683">
        <ele>703</ele>
        <time>2024-08-15T14:59:08Z</time>
      </trkpt>
      <trkpt lat="44.45892" lon="5.16774">
        <ele>701</ele>
        <time>2024-08-15T14:59:20Z</time>
      </trkpt>
      <trkpt lat="44.45868" lon="5.1677">
        <ele>702</ele>
        <time>2024-08-15T14:59:25Z</time>
      </trkpt>
      <trkpt lat="44.45856" lon="5.16747">
        <ele>701</ele>
        <time>2024-08-15T14:59:28Z</time>
      </trkpt>
      <trkpt lat="44.45847" lon="5.16599">
        <ele>692</ele>
        <time>2024-08-15T14:59:47Z</time>
      </trkpt>
      <trkpt lat="44.45855" lon="5.16571">
        <ele>686</ele>
        <time>2024-08-15T14:59:51Z</time>
      </trkpt>
      <trkpt lat="44.4586" lon="5.16531">
        <ele>677</ele>
        <time>2024-08-15T14:59:56Z</time>
      </trkpt>
      <trkpt lat="44.45834" lon="5.1648">
        <ele>674</ele>
        <time>2024-08-15T15:00:04Z</time>
      </trkpt>
      <trkpt lat="44.45814" lon="5.16475">
        <ele>673</ele>
        <time>2024-08-15T15:00:08Z</time>
      </trkpt>
      <trkpt lat="44.45765" lon="5.16517">
        <ele>686</ele>
        <time>2024-08-15T15:00:18Z</time>
      </trkpt>
      <trkpt lat="44.45729" lon="5.16498">
        <ele>686</ele>
        <time>2024-08-15T15:00:25Z</time>
      </trkpt>
      <trkpt lat="44.45696" lon="5.16493">
        <ele>693</ele>
        <time>2024-08-15T15:00:31Z</time>
      </trkpt>
      <trkpt lat="44.45691" lon="5.16479">
        <ele>695</ele>
        <time>2024-08-15T15:00:33Z</time>
      </trkpt>
      <trkpt lat="44.45726" lon="5.16422">
        <ele>681</ele>
        <time>2024-08-15T15:00:42Z</time>
      </trkpt>
      <trkpt lat="44.4575" lon="5.16401">
        <ele>671</ele>
        <time>2024-08-15T15:00:47Z</time>
      </trkpt>
      <trkpt lat="44.45769" lon="5.1634">
        <ele>669</ele>
        <time>2024-08-15T15:00:56Z</time>
      </trkpt>
      <trkpt lat="44.45751" lon="5.16282">
        <ele>671</ele>
        <time>2024-08-15T15:01:04Z</time>
      </trkpt>
      <trkpt lat="44.45739" lon="5.16163">
        <ele>663</ele>
        <time>2024-08-15T15:01:19Z</time>
      </trkpt>
      <trkpt lat="44.45728" lon="5.16101">
        <ele>660</ele>
        <time>2024-08-15T15:01:27Z</time>
      </trkpt>
      <trkpt lat="44.4571" lon="5.16049">
        <ele>658</ele>
        <time>2024-08-15T15:01:35Z</time>
      </trkpt>
      <trkpt lat="44.45706" lon="5.16001">
        <ele>652</ele>
        <time>2024-08-15T15:01:41Z</time>
      </trkpt>
      <trkpt lat="44.45699" lon="5.15955">
        <ele>649</ele>
        <time>2024-08-15T15:01:47Z</time>
      </trkpt>
      <trkpt lat="44.45653" lon="5.15854">
        <ele>648</ele>
        <time>2024-08-15T15:02:02Z</time>
      </trkpt>
      <trkpt lat="44.45623" lon="5.15811">
        <ele>649</ele>
        <time>2024-08-15T15:02:10Z</time>
      </trkpt>
      <trkpt lat="44.45612" lon="5.1578">
        <ele>649</ele>
        <time>2024-08-15T15:02:14Z</time>
      </trkpt>
      <trkpt lat="44.45622" lon="5.15741">
        <ele>643</ele>
        <time>2024-08-15T15:02:19Z</time>
      </trkpt>
      <trkpt lat="44.45617" lon="5.15678">
        <ele>637</ele>
        <time>2024-08-15T15:02:27Z</time>
      </trkpt>
      <trkpt lat="44.45606" lon="5.15647">
        <ele>634</ele>
        <time>2024-08-15T15:02:32Z</time>
      </trkpt>
      <trkpt lat="44.45591" lon="5.15628">
        <ele>633</ele>
        <time>2024-08-15T15:02:35Z</time>
      </trkpt>
      <trkpt lat="44.45554" lon="5.15621">
        <ele>634</ele>
        <time>2024-08-15T15:02:42Z</time>
      </trkpt>
      <trkpt lat="44.4551" lon="5.15589">
        <ele>629</ele>
        <time>2024-08-15T15:02:51Z</time>
      </trkpt>
      <trkpt lat="44.45492" lon="5.15581">
        <ele>628</ele>
        <time>2024-08-15T15:02:54Z</time>
      </trkpt>
      <trkpt lat="44.45471" lon="5.1558">
        <ele>630</ele>
        <time>2024-08-15T15:02:58Z</time>
      </trkpt>
      <trkpt lat="44.45458" lon="5.15575">
        <ele>630</ele>
        <time>2024-08-15T15:03:00Z</time>
      </trkpt>
      <trkpt lat="44.45446" lon="5.15567">
        <ele>629</ele>
        <time>2024-08-15T15:03:03Z</time>
      </trkpt>
      <trkpt lat="44.45441" lon="5.1556">
        <ele>629</ele>
        <time>2024-08-15T15:03:04Z</time>
      </trkpt>
      <trkpt lat="44.45436" lon="5.1555">
        <ele>627</ele>
        <time>2024-08-15T15:03:05Z</time>
      </trkpt>
      <trkpt lat="44.45428" lon="5.15509">
        <ele>622</ele>
        <time>2024-08-15T15:03:11Z</time>
      </trkpt>
      <trkpt lat="44.45423" lon="5.15497">
        <ele>620</ele>
        <time>2024-08-15T15:03:13Z</time>
      </trkpt>
      <trkpt lat="44.45406" lon="5.15487">
        <ele>620</ele>
        <time>2024-08-15T15:03:16Z</time>
      </trkpt>
      <trkpt lat="44.45351" lon="5.15473">
        <ele>621</ele>
        <time>2024-08-15T15:03:26Z</time>
      </trkpt>
      <trkpt lat="44.45336" lon="5.15466">
        <ele>621</ele>
        <time>2024-08-15T15:03:29Z</time>
      </trkpt>
      <trkpt lat="44.45322" lon="5.1545">
        <ele>620</ele>
        <time>2024-08-15T15:03:32Z</time>
      </trkpt>
      <trkpt lat="44.45311" lon="5.15429">
        <ele>619</ele>
        <time>2024-08-15T15:03:35Z</time>
      </trkpt>
      <trkpt lat="44.45298" lon="5.15411">
        <ele>618</ele>
        <time>2024-08-15T15:03:38Z</time>
      </trkpt>
      <trkpt lat="44.45287" lon="5.15399">
        <ele>617</ele>
        <time>2024-08-15T15:03:41Z</time>
      </trkpt>
      <trkpt lat="44.45264" lon="5.1538">
        <ele>617</ele>
        <time>2024-08-15T15:03:46Z</time>
      </trkpt>
      <trkpt lat="44.45254" lon="5.15366">
        <ele>617</ele>
        <time>2024-08-15T15:03:48Z</time>
      </trkpt>
      <trkpt lat="44.45249" lon="5.15336">
        <ele>614</ele>
        <time>2024-08-15T15:03:52Z</time>
      </trkpt>
      <trkpt lat="44.45249" lon="5.15291">
        <ele>615</ele>
        <time>2024-08-15T15:03:58Z</time>
      </trkpt>
      <trkpt lat="44.4525" lon="5.15278">
        <ele>615</ele>
        <time>2024-08-15T15:03:59Z</time>
      </trkpt>
      <trkpt lat="44.4525" lon="5.15261">
        <ele>615</ele>
        <time>2024-08-15T15:04:02Z</time>
      </trkpt>
      <trkpt lat="44.45264" lon="5.15248">
        <ele>615</ele>
        <time>2024-08-15T15:04:05Z</time>
      </trkpt>
      <trkpt lat="44.453" lon="5.15252">
        <ele>613</ele>
        <time>2024-08-15T15:04:11Z</time>
      </trkpt>
      <trkpt lat="44.45445" lon="5.15289">
        <ele>610</ele>
        <time>2024-08-15T15:04:37Z</time>
      </trkpt>
      <trkpt lat="44.45543" lon="5.15298">
        <ele>609</ele>
        <time>2024-08-15T15:04:55Z</time>
      </trkpt>
      <trkpt lat="44.45667" lon="5.15287">
        <ele>602</ele>
        <time>2024-08-15T15:05:17Z</time>
      </trkpt>
      <trkpt lat="44.45684" lon="5.15282">
        <ele>602</ele>
        <time>2024-08-15T15:05:20Z</time>
      </trkpt>
      <trkpt lat="44.45701" lon="5.1527">
        <ele>601</ele>
        <time>2024-08-15T15:05:23Z</time>
      </trkpt>
      <trkpt lat="44.45716" lon="5.15253">
        <ele>601</ele>
        <time>2024-08-15T15:05:27Z</time>
      </trkpt>
      <trkpt lat="44.45769" lon="5.15168">
        <ele>603</ele>
        <time>2024-08-15T15:05:41Z</time>
      </trkpt>
      <trkpt lat="44.4581" lon="5.15115">
        <ele>607</ele>
        <time>2024-08-15T15:05:51Z</time>
      </trkpt>
      <trkpt lat="44.45829" lon="5.15102">
        <ele>607</ele>
        <time>2024-08-15T15:05:55Z</time>
      </trkpt>
      <trkpt lat="44.45862" lon="5.15097">
        <ele>603</ele>
        <time>2024-08-15T15:06:01Z</time>
      </trkpt>
      <trkpt lat="44.45912" lon="5.15066">
        <ele>600</ele>
        <time>2024-08-15T15:06:10Z</time>
      </trkpt>
      <trkpt lat="44.45982" lon="5.15009">
        <ele>597</ele>
        <time>2024-08-15T15:06:25Z</time>
      </trkpt>
      <trkpt lat="44.46051" lon="5.14924">
        <ele>596</ele>
        <time>2024-08-15T15:06:41Z</time>
      </trkpt>
      <trkpt lat="44.46079" lon="5.14865">
        <ele>599</ele>
        <time>2024-08-15T15:06:50Z</time>
      </trkpt>
      <trkpt lat="44.46179" lon="5.14752">
        <ele>586</ele>
        <time>2024-08-15T15:07:13Z</time>
      </trkpt>
      <trkpt lat="44.4619" lon="5.1474">
        <ele>586</ele>
        <time>2024-08-15T15:07:15Z</time>
      </trkpt>
      <trkpt lat="44.4622" lon="5.14707">
        <ele>587</ele>
        <time>2024-08-15T15:07:22Z</time>
      </trkpt>
      <trkpt lat="44.46282" lon="5.14727">
        <ele>583</ele>
        <time>2024-08-15T15:07:34Z</time>
      </trkpt>
      <trkpt lat="44.46298" lon="5.14722">
        <ele>583</ele>
        <time>2024-08-15T15:07:36Z</time>
      </trkpt>
      <trkpt lat="44.46322" lon="5.14685">
        <ele>584</ele>
        <time>2024-08-15T15:07:43Z</time>
      </trkpt>
      <trkpt lat="44.46406" lon="5.14509">
        <ele>584</ele>
        <time>2024-08-15T15:08:10Z</time>
      </trkpt>
      <trkpt lat="44.46496" lon="5.14258">
        <ele>580</ele>
        <time>2024-08-15T15:08:45Z</time>
      </trkpt>
      <trkpt lat="44.46544" lon="5.14204">
        <ele>582</ele>
        <time>2024-08-15T15:08:56Z</time>
      </trkpt>
      <trkpt lat="44.46784" lon="5.14018">
        <ele>568</ele>
        <time>2024-08-15T15:09:45Z</time>
      </trkpt>
      <trkpt lat="44.46801" lon="5.13996">
        <ele>568</ele>
        <time>2024-08-15T15:09:49Z</time>
      </trkpt>
      <trkpt lat="44.46806" lon="5.13988">
        <ele>568</ele>
        <time>2024-08-15T15:09:51Z</time>
      </trkpt>
      <trkpt lat="44.46896" lon="5.13863">
        <ele>566</ele>
        <time>2024-08-15T15:10:13Z</time>
      </trkpt>
      <trkpt lat="44.46953" lon="5.13708">
        <ele>568</ele>
        <time>2024-08-15T15:10:35Z</time>
      </trkpt>
      <trkpt lat="44.47002" lon="5.13621">
        <ele>557</ele>
        <time>2024-08-15T15:10:49Z</time>
      </trkpt>
      <trkpt lat="44.47017" lon="5.13609">
        <ele>557</ele>
        <time>2024-08-15T15:10:52Z</time>
      </trkpt>
      <trkpt lat="44.47033" lon="5.1361">
        <ele>556</ele>
        <time>2024-08-15T15:10:55Z</time>
      </trkpt>
      <trkpt lat="44.47055" lon="5.13616">
        <ele>554</ele>
        <time>2024-08-15T15:10:59Z</time>
      </trkpt>
      <trkpt lat="44.47078" lon="5.13622">
        <ele>552</ele>
        <time>2024-08-15T15:11:03Z</time>
      </trkpt>
      <trkpt lat="44.47111" lon="5.13617">
        <ele>556</ele>
        <time>2024-08-15T15:11:09Z</time>
      </trkpt>
      <trkpt lat="44.47137" lon="5.13597">
        <ele>558</ele>
        <time>2024-08-15T15:11:15Z</time>
      </trkpt>
      <trkpt lat="44.47293" lon="5.13393">
        <ele>554</ele>
        <time>2024-08-15T15:11:53Z</time>
      </trkpt>
      <trkpt lat="44.47414" lon="5.13306">
        <ele>554</ele>
        <time>2024-08-15T15:12:17Z</time>
      </trkpt>
      <trkpt lat="44.47485" lon="5.13236">
        <ele>551</ele>
        <time>2024-08-15T15:12:32Z</time>
      </trkpt>
      <trkpt lat="44.47538" lon="5.13148">
        <ele>547</ele>
        <time>2024-08-15T15:12:47Z</time>
      </trkpt>
      <trkpt lat="44.47613" lon="5.13048">
        <ele>544</ele>
        <time>2024-08-15T15:13:05Z</time>
      </trkpt>
      <trkpt lat="44.47654" lon="5.13025">
        <ele>545</ele>
        <time>2024-08-15T15:13:13Z</time>
      </trkpt>
      <trkpt lat="44.47873" lon="5.12885">
        <ele>539</ele>
        <time>2024-08-15T15:13:56Z</time>
      </trkpt>
      <trkpt lat="44.47924" lon="5.12877">
        <ele>540</ele>
        <time>2024-08-15T15:14:05Z</time>
      </trkpt>
      <trkpt lat="44.48172" lon="5.12848">
        <ele>534</ele>
        <time>2024-08-15T15:14:49Z</time>
      </trkpt>
      <trkpt lat="44.48291" lon="5.12809">
        <ele>523</ele>
        <time>2024-08-15T15:15:11Z</time>
      </trkpt>
      <trkpt lat="44.48312" lon="5.12802">
        <ele>523</ele>
        <time>2024-08-15T15:15:15Z</time>
      </trkpt>
      <trkpt lat="44.4837" lon="5.12781">
        <ele>529</ele>
        <time>2024-08-15T15:15:26Z</time>
      </trkpt>
      <trkpt lat="44.48389" lon="5.1277">
        <ele>530</ele>
        <time>2024-08-15T15:15:29Z</time>
      </trkpt>
      <trkpt lat="44.48406" lon="5.12756">
        <ele>528</ele>
        <time>2024-08-15T15:15:33Z</time>
      </trkpt>
      <trkpt lat="44.48416" lon="5.12745">
        <ele>526</ele>
        <time>2024-08-15T15:15:35Z</time>
      </trkpt>
      <trkpt lat="44.48425" lon="5.12732">
        <ele>528</ele>
        <time>2024-08-15T15:15:37Z</time>
      </trkpt>
      <trkpt lat="44.48437" lon="5.12707">
        <ele>528</ele>
        <time>2024-08-15T15:15:41Z</time>
      </trkpt>
      <trkpt lat="44.48478" lon="5.126">
        <ele>519</ele>
        <time>2024-08-15T15:15:57Z</time>
      </trkpt>
      <trkpt lat="44.48488" lon="5.12579">
        <ele>518</ele>
        <time>2024-08-15T15:16:00Z</time>
      </trkpt>
      <trkpt lat="44.487" lon="5.12259">
        <ele>507</ele>
        <time>2024-08-15T15:16:55Z</time>
      </trkpt>
      <trkpt lat="44.48723" lon="5.12204">
        <ele>506</ele>
        <time>2024-08-15T15:17:03Z</time>
      </trkpt>
      <trkpt lat="44.48726" lon="5.12196">
        <ele>506</ele>
        <time>2024-08-15T15:17:04Z</time>
      </trkpt>
      <trkpt lat="44.48795" lon="5.12024">
        <ele>505</ele>
        <time>2024-08-15T15:17:29Z</time>
      </trkpt>
      <trkpt lat="44.48808" lon="5.12">
        <ele>505</ele>
        <time>2024-08-15T15:17:33Z</time>
      </trkpt>
      <trkpt lat="44.48818" lon="5.1199">
        <ele>505</ele>
        <time>2024-08-15T15:17:35Z</time>
      </trkpt>
      <trkpt lat="44.48837" lon="5.11977">
        <ele>506</ele>
        <time>2024-08-15T15:17:39Z</time>
      </trkpt>
      <trkpt lat="44.48883" lon="5.11956">
        <ele>509</ele>
        <time>2024-08-15T15:17:48Z</time>
      </trkpt>
      <trkpt lat="44.49134" lon="5.11816">
        <ele>508</ele>
        <time>2024-08-15T15:18:36Z</time>
      </trkpt>
      <trkpt lat="44.49211" lon="5.11777">
        <ele>503</ele>
        <time>2024-08-15T15:18:50Z</time>
      </trkpt>
      <trkpt lat="44.49251" lon="5.11763">
        <ele>502</ele>
        <time>2024-08-15T15:18:58Z</time>
      </trkpt>
      <trkpt lat="44.49413" lon="5.11694">
        <ele>494</ele>
        <time>2024-08-15T15:19:28Z</time>
      </trkpt>
      <trkpt lat="44.49434" lon="5.11679">
        <ele>493</ele>
        <time>2024-08-15T15:19:32Z</time>
      </trkpt>
      <trkpt lat="44.4945" lon="5.11664">
        <ele>492</ele>
        <time>2024-08-15T15:19:36Z</time>
      </trkpt>
      <trkpt lat="44.49531" lon="5.11562">
        <ele>487</ele>
        <time>2024-08-15T15:19:55Z</time>
      </trkpt>
      <trkpt lat="44.49551" lon="5.11544">
        <ele>486</ele>
        <time>2024-08-15T15:19:59Z</time>
      </trkpt>
      <trkpt lat="44.49563" lon="5.11537">
        <ele>486</ele>
        <time>2024-08-15T15:20:01Z</time>
      </trkpt>
      <trkpt lat="44.4964" lon="5.11507">
        <ele>483</ele>
        <time>2024-08-15T15:20:16Z</time>
      </trkpt>
      <trkpt lat="44.49659" lon="5.11504">
        <ele>483</ele>
        <time>2024-08-15T15:20:19Z</time>
      </trkpt>
      <trkpt lat="44.49679" lon="5.11497">
        <ele>482</ele>
        <time>2024-08-15T15:20:23Z</time>
      </trkpt>
      <trkpt lat="44.49711" lon="5.11479">
        <ele>481</ele>
        <time>2024-08-15T15:20:29Z</time>
      </trkpt>
      <trkpt lat="44.49752" lon="5.11463">
        <ele>480</ele>
        <time>2024-08-15T15:20:36Z</time>
      </trkpt>
      <trkpt lat="44.49928" lon="5.11424">
        <ele>483</ele>
        <time>2024-08-15T15:21:08Z</time>
      </trkpt>
      <trkpt lat="44.49944" lon="5.11421">
        <ele>485</ele>
        <time>2024-08-15T15:21:11Z</time>
      </trkpt>
      <trkpt lat="44.49947" lon="5.11418">
        <ele>485</ele>
        <time>2024-08-15T15:21:12Z</time>
      </trkpt>
      <trkpt lat="44.49959" lon="5.11399">
        <ele>485</ele>
        <time>2024-08-15T15:21:15Z</time>
      </trkpt>
      <trkpt lat="44.50013" lon="5.11286">
        <ele>480</ele>
        <time>2024-08-15T15:21:32Z</time>
      </trkpt>
      <trkpt lat="44.50029" lon="5.11258">
        <ele>478</ele>
        <time>2024-08-15T15:21:37Z</time>
      </trkpt>
      <trkpt lat="44.50103" lon="5.11158">
        <ele>476</ele>
        <time>2024-08-15T15:21:55Z</time>
      </trkpt>
      <trkpt lat="44.50128" lon="5.1113">
        <ele>477</ele>
        <time>2024-08-15T15:22:01Z</time>
      </trkpt>
      <trkpt lat="44.50135" lon="5.11122">
        <ele>477</ele>
        <time>2024-08-15T15:22:02Z</time>
      </trkpt>
      <trkpt lat="44.50219" lon="5.11013">
        <ele>478</ele>
        <time>2024-08-15T15:22:23Z</time>
      </trkpt>
      <trkpt lat="44.50317" lon="5.10892">
        <ele>478</ele>
        <time>2024-08-15T15:22:46Z</time>
      </trkpt>
      <trkpt lat="44.50336" lon="5.10854">
        <ele>479</ele>
        <time>2024-08-15T15:22:52Z</time>
      </trkpt>
      <trkpt lat="44.50429" lon="5.10426">
        <ele>473</ele>
        <time>2024-08-15T15:23:49Z</time>
      </trkpt>
      <trkpt lat="44.50456" lon="5.10267">
        <ele>475</ele>
        <time>2024-08-15T15:24:09Z</time>
      </trkpt>
      <trkpt lat="44.50483" lon="5.1008">
        <ele>480</ele>
        <time>2024-08-15T15:24:34Z</time>
      </trkpt>
      <trkpt lat="44.50494" lon="5.09989">
        <ele>483</ele>
        <time>2024-08-15T15:24:45Z</time>
      </trkpt>
      <trkpt lat="44.50494" lon="5.09953">
        <ele>483</ele>
        <time>2024-08-15T15:24:50Z</time>
      </trkpt>
      <trkpt lat="44.50488" lon="5.09839">
        <ele>481</ele>
        <time>2024-08-15T15:25:04Z</time>
      </trkpt>
      <trkpt lat="44.50491" lon="5.09818">
        <ele>480</ele>
        <time>2024-08-15T15:25:07Z</time>
      </trkpt>
      <trkpt lat="44.50498" lon="5.09806">
        <ele>481</ele>
        <time>2024-08-15T15:25:09Z</time>
      </trkpt>
      <trkpt lat="44.50512" lon="5.09799">
        <ele>482</ele>
        <time>2024-08-15T15:25:12Z</time>
      </trkpt>
      <trkpt lat="44.50577" lon="5.0979">
        <ele>492</ele>
        <time>2024-08-15T15:25:23Z</time>
      </trkpt>
      <trkpt lat="44.50703" lon="5.09785">
        <ele>496</ele>
        <time>2024-08-15T15:25:46Z</time>
      </trkpt>
      <trkpt lat="44.50712" lon="5.09783">
        <ele>496</ele>
        <time>2024-08-15T15:25:47Z</time>
      </trkpt>
      <trkpt lat="44.50718" lon="5.09776">
        <ele>495</ele>
        <time>2024-08-15T15:25:49Z</time>
      </trkpt>
      <trkpt lat="44.50732" lon="5.09781">
        <ele>496</ele>
        <time>2024-08-15T15:25:51Z</time>
      </trkpt>
      <trkpt lat="44.50744" lon="5.09783">
        <ele>497</ele>
        <time>2024-08-15T15:25:53Z</time>
      </trkpt>
      <trkpt lat="44.50802" lon="5.09782">
        <ele>501</ele>
        <time>2024-08-15T15:26:04Z</time>
      </trkpt>
      <trkpt lat="44.50844" lon="5.09778">
        <ele>503</ele>
        <time>2024-08-15T15:26:11Z</time>
      </trkpt>
      <trkpt lat="44.50883" lon="5.09761">
        <ele>502</ele>
        <time>2024-08-15T15:26:19Z</time>
      </trkpt>
      <trkpt lat="44.50898" lon="5.09751">
        <ele>502</ele>
        <time>2024-08-15T15:26:21Z</time>
      </trkpt>
      <trkpt lat="44.50909" lon="5.09737">
        <ele>502</ele>
        <time>2024-08-15T15:26:24Z</time>
      </trkpt>
      <trkpt lat="44.50916" lon="5.09725">
        <ele>502</ele>
        <time>2024-08-15T15:26:26Z</time>
      </trkpt>
      <trkpt lat="44.50974" lon="5.09586">
        <ele>499</ele>
        <time>2024-08-15T15:26:47Z</time>
      </trkpt>
      <trkpt lat="44.50983" lon="5.09546">
        <ele>497</ele>
        <time>2024-08-15T15:26:52Z</time>
      </trkpt>
      <trkpt lat="44.50997" lon="5.09425">
        <ele>492</ele>
        <time>2024-08-15T15:27:07Z</time>
      </trkpt>
      <trkpt lat="44.51023" lon="5.09333">
        <ele>485</ele>
        <time>2024-08-15T15:27:20Z</time>
      </trkpt>
      <trkpt lat="44.51035" lon="5.09256">
        <ele>483</ele>
        <time>2024-08-15T15:27:30Z</time>
      </trkpt>
      <trkpt lat="44.51042" lon="5.09248">
        <ele>481</ele>
        <time>2024-08-15T15:27:32Z</time>
      </trkpt>
      <trkpt lat="44.51048" lon="5.09247">
        <ele>480</ele>
        <time>2024-08-15T15:27:33Z</time>
      </trkpt>
      <trkpt lat="44.51056" lon="5.09251">
        <ele>478</ele>
        <time>2024-08-15T15:27:34Z</time>
      </trkpt>
      <trkpt lat="44.5106" lon="5.09259">
        <ele>477</ele>
        <time>2024-08-15T15:27:35Z</time>
      </trkpt>
      <trkpt lat="44.51068" lon="5.09308">
        <ele>476</ele>
        <time>2024-08-15T15:27:42Z</time>
      </trkpt>
      <trkpt lat="44.51095" lon="5.09429">
        <ele>474</ele>
        <time>2024-08-15T15:27:58Z</time>
      </trkpt>
      <trkpt lat="44.5111" lon="5.09481">
        <ele>473</ele>
        <time>2024-08-15T15:28:05Z</time>
      </trkpt>
      <trkpt lat="44.51135" lon="5.09527">
        <ele>473</ele>
        <time>2024-08-15T15:28:12Z</time>
      </trkpt>
      <trkpt lat="44.51197" lon="5.09604">
        <ele>469</ele>
        <time>2024-08-15T15:28:27Z</time>
      </trkpt>
      <trkpt lat="44.51206" lon="5.09613">
        <ele>468</ele>
        <time>2024-08-15T15:28:29Z</time>
      </trkpt>
      <trkpt lat="44.51214" lon="5.09615">
        <ele>467</ele>
        <time>2024-08-15T15:28:30Z</time>
      </trkpt>
      <trkpt lat="44.51222" lon="5.09611">
        <ele>465</ele>
        <time>2024-08-15T15:28:32Z</time>
      </trkpt>
      <trkpt lat="44.51227" lon="5.09603">
        <ele>464</ele>
        <time>2024-08-15T15:28:33Z</time>
      </trkpt>
      <trkpt lat="44.5123" lon="5.09592">
        <ele>462</ele>
        <time>2024-08-15T15:28:35Z</time>
      </trkpt>
      <trkpt lat="44.51227" lon="5.09548">
        <ele>459</ele>
        <time>2024-08-15T15:28:40Z</time>
      </trkpt>
      <trkpt lat="44.51226" lon="5.09516">
        <ele>457</ele>
        <time>2024-08-15T15:28:44Z</time>
      </trkpt>
      <trkpt lat="44.51227" lon="5.09502">
        <ele>455</ele>
        <time>2024-08-15T15:28:46Z</time>
      </trkpt>
      <trkpt lat="44.51232" lon="5.09474">
        <ele>455</ele>
        <time>2024-08-15T15:28:50Z</time>
      </trkpt>
      <trkpt lat="44.51295" lon="5.09304">
        <ele>448</ele>
        <time>2024-08-15T15:29:14Z</time>
      </trkpt>
      <trkpt lat="44.513" lon="5.09281">
        <ele>447</ele>
        <time>2024-08-15T15:29:17Z</time>
      </trkpt>
      <trkpt lat="44.51323" lon="5.09093">
        <ele>442</ele>
        <time>2024-08-15T15:29:41Z</time>
      </trkpt>
      <trkpt lat="44.5133" lon="5.09062">
        <ele>441</ele>
        <time>2024-08-15T15:29:46Z</time>
      </trkpt>
      <trkpt lat="44.5134" lon="5.09042">
        <ele>441</ele>
        <time>2024-08-15T15:29:49Z</time>
      </trkpt>
      <trkpt lat="44.51352" lon="5.09031">
        <ele>441</ele>
        <time>2024-08-15T15:29:51Z</time>
      </trkpt>
      <trkpt lat="44.51366" lon="5.09024">
        <ele>441</ele>
        <time>2024-08-15T15:29:54Z</time>
      </trkpt>
      <trkpt lat="44.51374" lon="5.09019">
        <ele>441</ele>
        <time>2024-08-15T15:29:55Z</time>
      </trkpt>
      <trkpt lat="44.51395" lon="5.09009">
        <ele>442</ele>
        <time>2024-08-15T15:29:59Z</time>
      </trkpt>
      <trkpt lat="44.5141" lon="5.08997">
        <ele>442</ele>
        <time>2024-08-15T15:30:02Z</time>
      </trkpt>
      <trkpt lat="44.51421" lon="5.08982">
        <ele>441</ele>
        <time>2024-08-15T15:30:05Z</time>
      </trkpt>
      <trkpt lat="44.51468" lon="5.08873">
        <ele>439</ele>
        <time>2024-08-15T15:30:21Z</time>
      </trkpt>
      <trkpt lat="44.5149" lon="5.08838">
        <ele>435</ele>
        <time>2024-08-15T15:30:27Z</time>
      </trkpt>
      <trkpt lat="44.51552" lon="5.0876">
        <ele>432</ele>
        <time>2024-08-15T15:30:42Z</time>
      </trkpt>
      <trkpt lat="44.51564" lon="5.08739">
        <ele>430</ele>
        <time>2024-08-15T15:30:46Z</time>
      </trkpt>
      <trkpt lat="44.51572" lon="5.08715">
        <ele>429</ele>
        <time>2024-08-15T15:30:49Z</time>
      </trkpt>
      <trkpt lat="44.51575" lon="5.08692">
        <ele>428</ele>
        <time>2024-08-15T15:30:52Z</time>
      </trkpt>
      <trkpt lat="44.51582" lon="5.08511">
        <ele>425</ele>
        <time>2024-08-15T15:31:15Z</time>
      </trkpt>
      <trkpt lat="44.51586" lon="5.08485">
        <ele>425</ele>
        <time>2024-08-15T15:31:18Z</time>
      </trkpt>
      <trkpt lat="44.51592" lon="5.0846">
        <ele>424</ele>
        <time>2024-08-15T15:31:22Z</time>
      </trkpt>
      <trkpt lat="44.51605" lon="5.08416">
        <ele>423</ele>
        <time>2024-08-15T15:31:28Z</time>
      </trkpt>
      <trkpt lat="44.51668" lon="5.08236">
        <ele>412</ele>
        <time>2024-08-15T15:31:53Z</time>
      </trkpt>
      <trkpt lat="44.51684" lon="5.08196">
        <ele>414</ele>
        <time>2024-08-15T15:31:59Z</time>
      </trkpt>
      <trkpt lat="44.51694" lon="5.08171">
        <ele>416</ele>
        <time>2024-08-15T15:32:03Z</time>
      </trkpt>
      <trkpt lat="44.51741" lon="5.08061">
        <ele>412</ele>
        <time>2024-08-15T15:32:19Z</time>
      </trkpt>
      <trkpt lat="44.51752" lon="5.08044">
        <ele>410</ele>
        <time>2024-08-15T15:32:22Z</time>
      </trkpt>
      <trkpt lat="44.51776" lon="5.08013">
        <ele>411</ele>
        <time>2024-08-15T15:32:28Z</time>
      </trkpt>
      <trkpt lat="44.51817" lon="5.07966">
        <ele>412</ele>
        <time>2024-08-15T15:32:37Z</time>
      </trkpt>
      <trkpt lat="44.51834" lon="5.07936">
        <ele>411</ele>
        <time>2024-08-15T15:32:42Z</time>
      </trkpt>
      <trkpt lat="44.51838" lon="5.07924">
        <ele>410</ele>
        <time>2024-08-15T15:32:43Z</time>
      </trkpt>
      <trkpt lat="44.51858" lon="5.07855">
        <ele>411</ele>
        <time>2024-08-15T15:32:53Z</time>
      </trkpt>
      <trkpt lat="44.5188" lon="5.07806">
        <ele>413</ele>
        <time>2024-08-15T15:33:00Z</time>
      </trkpt>
      <trkpt lat="44.519" lon="5.07749">
        <ele>415</ele>
        <time>2024-08-15T15:33:08Z</time>
      </trkpt>
      <trkpt lat="44.51937" lon="5.07556">
        <ele>413</ele>
        <time>2024-08-15T15:33:34Z</time>
      </trkpt>
      <trkpt lat="44.51958" lon="5.07466">
        <ele>413</ele>
        <time>2024-08-15T15:33:46Z</time>
      </trkpt>
      <trkpt lat="44.51945" lon="5.07463">
        <ele>410</ele>
        <time>2024-08-15T15:33:48Z</time>
      </trkpt>
      <trkpt lat="44.51915" lon="5.07468">
        <ele>404</ele>
        <time>2024-08-15T15:33:53Z</time>
      </trkpt>
      <trkpt lat="44.51907" lon="5.07465">
        <ele>403</ele>
        <time>2024-08-15T15:33:55Z</time>
      </trkpt>
      <trkpt lat="44.51888" lon="5.07525">
        <ele>403</ele>
        <time>2024-08-15T15:34:03Z</time>
      </trkpt>
      <trkpt lat="44.51865" lon="5.07556">
        <ele>402</ele>
        <time>2024-08-15T15:34:09Z</time>
      </trkpt>
      <trkpt lat="44.51841" lon="5.07599">
        <ele>400</ele>
        <time>2024-08-15T15:34:16Z</time>
      </trkpt>
      <trkpt lat="44.51865" lon="5.07556">
        <ele>402</ele>
        <time>2024-08-15T15:34:23Z</time>
      </trkpt>
      <trkpt lat="44.51888" lon="5.07525">
        <ele>403</ele>
        <time>2024-08-15T15:34:28Z</time>
      </trkpt>
      <trkpt lat="44.51907" lon="5.07465">
        <ele>403</ele>
        <time>2024-08-15T15:34:37Z</time>
      </trkpt>
      <trkpt lat="44.51915" lon="5.07468">
        <ele>404</ele>
        <time>2024-08-15T15:34:38Z</time>
      </trkpt>
      <trkpt lat="44.51945" lon="5.07463">
        <ele>410</ele>
        <time>2024-08-15T15:34:44Z</time>
      </trkpt>
      <trkpt lat="44.51958" lon="5.07466">
        <ele>413</ele>
        <time>2024-08-15T15:34:46Z</time>
      </trkpt>
      <trkpt lat="44.52004" lon="5.07274">
        <ele>406</ele>
        <time>2024-08-15T15:35:12Z</time>
      </trkpt>
      <trkpt lat="44.52022" lon="5.07188">
        <ele>401</ele>
        <time>2024-08-15T15:35:23Z</time>
      </trkpt>
      <trkpt lat="44.52031" lon="5.07162">
        <ele>399</ele>
        <time>2024-08-15T15:35:27Z</time>
      </trkpt>
      <trkpt lat="44.52065" lon="5.07088">
        <ele>397</ele>
        <time>2024-08-15T15:35:38Z</time>
      </trkpt>
      <trkpt lat="44.52109" lon="5.06933">
        <ele>395</ele>
        <time>2024-08-15T15:35:59Z</time>
      </trkpt>
      <trkpt lat="44.52124" lon="5.06895">
        <ele>394</ele>
        <time>2024-08-15T15:36:05Z</time>
      </trkpt>
      <trkpt lat="44.52159" lon="5.06817">
        <ele>393</ele>
        <time>2024-08-15T15:36:16Z</time>
      </trkpt>
      <trkpt lat="44.52169" lon="5.06777">
        <ele>393</ele>
        <time>2024-08-15T15:36:22Z</time>
      </trkpt>
      <trkpt lat="44.5219" lon="5.0667">
        <ele>392</ele>
        <time>2024-08-15T15:36:36Z</time>
      </trkpt>
      <trkpt lat="44.52196" lon="5.06658">
        <ele>392</ele>
        <time>2024-08-15T15:36:38Z</time>
      </trkpt>
      <trkpt lat="44.5222" lon="5.06626">
        <ele>392</ele>
        <time>2024-08-15T15:36:43Z</time>
      </trkpt>
      <trkpt lat="44.5228" lon="5.06577">
        <ele>391</ele>
        <time>2024-08-15T15:36:56Z</time>
      </trkpt>
      <trkpt lat="44.5231" lon="5.06558">
        <ele>390</ele>
        <time>2024-08-15T15:37:02Z</time>
      </trkpt>
      <trkpt lat="44.52324" lon="5.06551">
        <ele>390</ele>
        <time>2024-08-15T15:37:04Z</time>
      </trkpt>
      <trkpt lat="44.5231" lon="5.06536">
        <ele>388</ele>
        <time>2024-08-15T15:37:07Z</time>
      </trkpt>
      <trkpt lat="44.52288" lon="5.06517">
        <ele>386</ele>
        <time>2024-08-15T15:37:12Z</time>
      </trkpt>
      <trkpt lat="44.52284" lon="5.0651">
        <ele>386</ele>
        <time>2024-08-15T15:37:13Z</time>
      </trkpt>
      <trkpt lat="44.52278" lon="5.06485">
        <ele>384</ele>
        <time>2024-08-15T15:37:16Z</time>
      </trkpt>
      <trkpt lat="44.52277" lon="5.06464">
        <ele>383</ele>
        <time>2024-08-15T15:37:19Z</time>
      </trkpt>
      <trkpt lat="44.52281" lon="5.06429">
        <ele>381</ele>
        <time>2024-08-15T15:37:24Z</time>
      </trkpt>
      <trkpt lat="44.52285" lon="5.06413">
        <ele>379</ele>
        <time>2024-08-15T15:37:26Z</time>
      </trkpt>
      <trkpt lat="44.523" lon="5.06383">
        <ele>378</ele>
        <time>2024-08-15T15:37:30Z</time>
      </trkpt>
      <trkpt lat="44.52315" lon="5.06357">
        <ele>377</ele>
        <time>2024-08-15T15:37:35Z</time>
      </trkpt>
      <trkpt lat="44.52331" lon="5.0632">
        <ele>377</ele>
        <time>2024-08-15T15:37:40Z</time>
      </trkpt>
      <trkpt lat="44.52337" lon="5.06319">
        <ele>377</ele>
        <time>2024-08-15T15:37:41Z</time>
      </trkpt>
      <trkpt lat="44.5234" lon="5.06312">
        <ele>377</ele>
        <time>2024-08-15T15:37:42Z</time>
      </trkpt>
      <trkpt lat="44.52339" lon="5.06307">
        <ele>377</ele>
        <time>2024-08-15T15:37:43Z</time>
      </trkpt>
      <trkpt lat="44.52333" lon="5.06303">
        <ele>377</ele>
        <time>2024-08-15T15:37:44Z</time>
      </trkpt>
      <trkpt lat="44.52329" lon="5.06306">
        <ele>377</ele>
        <time>2024-08-15T15:37:45Z</time>
      </trkpt>
      <trkpt lat="44.52312" lon="5.06257">
        <ele>378</ele>
        <time>2024-08-15T15:37:52Z</time>
      </trkpt>
      <trkpt lat="44.52131" lon="5.05731">
        <ele>369</ele>
        <time>2024-08-15T15:39:06Z</time>
      </trkpt>
      <trkpt lat="44.52126" lon="5.05709">
        <ele>369</ele>
        <time>2024-08-15T15:39:09Z</time>
      </trkpt>
      <trkpt lat="44.52128" lon="5.0556">
        <ele>366</ele>
        <time>2024-08-15T15:39:28Z</time>
      </trkpt>
      <trkpt lat="44.52126" lon="5.05499">
        <ele>364</ele>
        <time>2024-08-15T15:39:36Z</time>
      </trkpt>
      <trkpt lat="44.52137" lon="5.05192">
        <ele>355</ele>
        <time>2024-08-15T15:40:15Z</time>
      </trkpt>
      <trkpt lat="44.52157" lon="5.04964">
        <ele>348</ele>
        <time>2024-08-15T15:40:44Z</time>
      </trkpt>
      <trkpt lat="44.52168" lon="5.04873">
        <ele>345</ele>
        <time>2024-08-15T15:40:55Z</time>
      </trkpt>
      <trkpt lat="44.52176" lon="5.04843">
        <ele>344</ele>
        <time>2024-08-15T15:40:59Z</time>
      </trkpt>
      <trkpt lat="44.52181" lon="5.0483">
        <ele>344</ele>
        <time>2024-08-15T15:41:01Z</time>
      </trkpt>
      <trkpt lat="44.52256" lon="5.04718">
        <ele>344</ele>
        <time>2024-08-15T15:41:21Z</time>
      </trkpt>
      <trkpt lat="44.52264" lon="5.04711">
        <ele>344</ele>
        <time>2024-08-15T15:41:22Z</time>
      </trkpt>
      <trkpt lat="44.52273" lon="5.04705">
        <ele>345</ele>
        <time>2024-08-15T15:41:24Z</time>
      </trkpt>
      <trkpt lat="44.52281" lon="5.04702">
        <ele>345</ele>
        <time>2024-08-15T15:41:26Z</time>
      </trkpt>
      <trkpt lat="44.52287" lon="5.04693">
        <ele>345</ele>
        <time>2024-08-15T15:41:27Z</time>
      </trkpt>
      <trkpt lat="44.52288" lon="5.04685">
        <ele>345</ele>
        <time>2024-08-15T15:41:28Z</time>
      </trkpt>
      <trkpt lat="44.52296" lon="5.04662">
        <ele>344</ele>
        <time>2024-08-15T15:41:32Z</time>
      </trkpt>
      <trkpt lat="44.52314" lon="5.04623">
        <ele>342</ele>
        <time>2024-08-15T15:41:37Z</time>
      </trkpt>
      <trkpt lat="44.52325" lon="5.04588">
        <ele>340</ele>
        <time>2024-08-15T15:41:42Z</time>
      </trkpt>
      <trkpt lat="44.52334" lon="5.04541">
        <ele>340</ele>
        <time>2024-08-15T15:41:49Z</time>
      </trkpt>
      <trkpt lat="44.52347" lon="5.04447">
        <ele>339</ele>
        <time>2024-08-15T15:42:01Z</time>
      </trkpt>
      <trkpt lat="44.52378" lon="5.04262">
        <ele>340</ele>
        <time>2024-08-15T15:42:25Z</time>
      </trkpt>
      <trkpt lat="44.52393" lon="5.04201">
        <ele>341</ele>
        <time>2024-08-15T15:42:33Z</time>
      </trkpt>
      <trkpt lat="44.5241" lon="5.04149">
        <ele>342</ele>
        <time>2024-08-15T15:42:40Z</time>
      </trkpt>
      <trkpt lat="44.52514" lon="5.03889">
        <ele>344</ele>
        <time>2024-08-15T15:43:18Z</time>
      </trkpt>
      <trkpt lat="44.52524" lon="5.03855">
        <ele>346</ele>
        <time>2024-08-15T15:43:23Z</time>
      </trkpt>
      <trkpt lat="44.52532" lon="5.0382">
        <ele>346</ele>
        <time>2024-08-15T15:43:27Z</time>
      </trkpt>
      <trkpt lat="44.52553" lon="5.03673">
        <ele>338</ele>
        <time>2024-08-15T15:43:46Z</time>
      </trkpt>
      <trkpt lat="44.5256" lon="5.03568">
        <ele>335</ele>
        <time>2024-08-15T15:44:00Z</time>
      </trkpt>
      <trkpt lat="44.52564" lon="5.03491">
        <ele>334</ele>
        <time>2024-08-15T15:44:10Z</time>
      </trkpt>
      <trkpt lat="44.52564" lon="5.03437">
        <ele>334</ele>
        <time>2024-08-15T15:44:16Z</time>
      </trkpt>
      <trkpt lat="44.52569" lon="5.03357">
        <ele>333</ele>
        <time>2024-08-15T15:44:27Z</time>
      </trkpt>
      <trkpt lat="44.52585" lon="5.03265">
        <ele>331</ele>
        <time>2024-08-15T15:44:39Z</time>
      </trkpt>
      <trkpt lat="44.52596" lon="5.03193">
        <ele>330</ele>
        <time>2024-08-15T15:44:48Z</time>
      </trkpt>
      <trkpt lat="44.52597" lon="5.03186">
        <ele>330</ele>
        <time>2024-08-15T15:44:49Z</time>
      </trkpt>
      <trkpt lat="44.52612" lon="5.031">
        <ele>331</ele>
        <time>2024-08-15T15:45:00Z</time>
      </trkpt>
      <trkpt lat="44.5263" lon="5.03004">
        <ele>331</ele>
        <time>2024-08-15T15:45:13Z</time>
      </trkpt>
      <trkpt lat="44.5267" lon="5.02865">
        <ele>330</ele>
        <time>2024-08-15T15:45:32Z</time>
      </trkpt>
      <trkpt lat="44.52683" lon="5.02834">
        <ele>329</ele>
        <time>2024-08-15T15:45:36Z</time>
      </trkpt>
      <trkpt lat="44.52691" lon="5.02818">
        <ele>329</ele>
        <time>2024-08-15T15:45:39Z</time>
      </trkpt>
      <trkpt lat="44.52702" lon="5.02801">
        <ele>328</ele>
        <time>2024-08-15T15:45:42Z</time>
      </trkpt>
      <trkpt lat="44.52883" lon="5.02574">
        <ele>327</ele>
        <time>2024-08-15T15:46:25Z</time>
      </trkpt>
      <trkpt lat="44.5291" lon="5.02533">
        <ele>327</ele>
        <time>2024-08-15T15:46:32Z</time>
      </trkpt>
      <trkpt lat="44.52934" lon="5.02489">
        <ele>326</ele>
        <time>2024-08-15T15:46:39Z</time>
      </trkpt>
      <trkpt lat="44.52945" lon="5.02455">
        <ele>326</ele>
        <time>2024-08-15T15:46:44Z</time>
      </trkpt>
      <trkpt lat="44.52954" lon="5.02417">
        <ele>325</ele>
        <time>2024-08-15T15:46:49Z</time>
      </trkpt>
      <trkpt lat="44.52958" lon="5.02354">
        <ele>323</ele>
        <time>2024-08-15T15:46:57Z</time>
      </trkpt>
      <trkpt lat="44.52964" lon="5.0211">
        <ele>316</ele>
        <time>2024-08-15T15:47:28Z</time>
      </trkpt>
      <trkpt lat="44.52965" lon="5.02099">
        <ele>316</ele>
        <time>2024-08-15T15:47:29Z</time>
      </trkpt>
      <trkpt lat="44.52963" lon="5.01974">
        <ele>313</ele>
        <time>2024-08-15T15:47:45Z</time>
      </trkpt>
      <trkpt lat="44.52954" lon="5.01681">
        <ele>312</ele>
        <time>2024-08-15T15:48:22Z</time>
      </trkpt>
      <trkpt lat="44.52958" lon="5.0166">
        <ele>312</ele>
        <time>2024-08-15T15:48:25Z</time>
      </trkpt>
      <trkpt lat="44.52985" lon="5.01559">
        <ele>313</ele>
        <time>2024-08-15T15:48:39Z</time>
      </trkpt>
      <trkpt lat="44.52988" lon="5.01548">
        <ele>313</ele>
        <time>2024-08-15T15:48:40Z</time>
      </trkpt>
      <trkpt lat="44.53027" lon="5.0141">
        <ele>315</ele>
        <time>2024-08-15T15:48:59Z</time>
      </trkpt>
      <trkpt lat="44.53047" lon="5.01329">
        <ele>314</ele>
        <time>2024-08-15T15:49:10Z</time>
      </trkpt>
      <trkpt lat="44.53069" lon="5.01253">
        <ele>313</ele>
        <time>2024-08-15T15:49:20Z</time>
      </trkpt>
      <trkpt lat="44.53081" lon="5.01199">
        <ele>311</ele>
        <time>2024-08-15T15:49:27Z</time>
      </trkpt>
      <trkpt lat="44.53101" lon="5.01083">
        <ele>310</ele>
        <time>2024-08-15T15:49:43Z</time>
      </trkpt>
      <trkpt lat="44.53114" lon="5.00982">
        <ele>309</ele>
        <time>2024-08-15T15:49:56Z</time>
      </trkpt>
      <trkpt lat="44.53139" lon="5.0069">
        <ele>304</ele>
        <time>2024-08-15T15:50:33Z</time>
      </trkpt>
      <trkpt lat="44.53143" lon="5.00614">
        <ele>302</ele>
        <time>2024-08-15T15:50:43Z</time>
      </trkpt>
      <trkpt lat="44.53159" lon="5.00453">
        <ele>300</ele>
        <time>2024-08-15T15:51:03Z</time>
      </trkpt>
      <trkpt lat="44.53166" lon="5.00398">
        <ele>299</ele>
        <time>2024-08-15T15:51:10Z</time>
      </trkpt>
      <trkpt lat="44.5319" lon="5.00271">
        <ele>299</ele>
        <time>2024-08-15T15:51:27Z</time>
      </trkpt>
      <trkpt lat="44.53234" lon="5.0008">
        <ele>296</ele>
        <time>2024-08-15T15:51:52Z</time>
      </trkpt>
      <trkpt lat="44.53243" lon="5.00026">
        <ele>295</ele>
        <time>2024-08-15T15:51:59Z</time>
      </trkpt>
      <trkpt lat="44.53248" lon="4.99946">
        <ele>294</ele>
        <time>2024-08-15T15:52:10Z</time>
      </trkpt>
      <trkpt lat="44.53247" lon="4.9989">
        <ele>293</ele>
        <time>2024-08-15T15:52:17Z</time>
      </trkpt>
      <trkpt lat="44.53239" lon="4.99833">
        <ele>292</ele>
        <time>2024-08-15T15:52:24Z</time>
      </trkpt>
      <trkpt lat="44.5323" lon="4.99784">
        <ele>291</ele>
        <time>2024-08-15T15:52:30Z</time>
      </trkpt>
      <trkpt lat="44.53063" lon="4.9916">
        <ele>285</ele>
        <time>2024-08-15T15:53:55Z</time>
      </trkpt>
      <trkpt lat="44.53052" lon="4.99124">
        <ele>287</ele>
        <time>2024-08-15T15:54:00Z</time>
      </trkpt>
      <trkpt lat="44.53023" lon="4.99056">
        <ele>288</ele>
        <time>2024-08-15T15:54:10Z</time>
      </trkpt>
      <trkpt lat="44.53005" lon="4.9902">
        <ele>287</ele>
        <time>2024-08-15T15:54:16Z</time>
      </trkpt>
      <trkpt lat="44.5299" lon="4.98995">
        <ele>286</ele>
        <time>2024-08-15T15:54:20Z</time>
      </trkpt>
      <trkpt lat="44.52971" lon="4.98966">
        <ele>286</ele>
        <time>2024-08-15T15:54:25Z</time>
      </trkpt>
      <trkpt lat="44.52726" lon="4.98649">
        <ele>284</ele>
        <time>2024-08-15T15:55:24Z</time>
      </trkpt>
      <trkpt lat="44.52702" lon="4.98609">
        <ele>283</ele>
        <time>2024-08-15T15:55:31Z</time>
      </trkpt>
      <trkpt lat="44.52683" lon="4.98562">
        <ele>282</ele>
        <time>2024-08-15T15:55:38Z</time>
      </trkpt>
      <trkpt lat="44.52588" lon="4.98252">
        <ele>275</ele>
        <time>2024-08-15T15:56:20Z</time>
      </trkpt>
      <trkpt lat="44.52585" lon="4.98241">
        <ele>275</ele>
        <time>2024-08-15T15:56:22Z</time>
      </trkpt>
      <trkpt lat="44.52578" lon="4.98218">
        <ele>276</ele>
        <time>2024-08-15T15:56:25Z</time>
      </trkpt>
      <trkpt lat="44.52569" lon="4.98165">
        <ele>276</ele>
        <time>2024-08-15T15:56:32Z</time>
      </trkpt>
      <trkpt lat="44.52557" lon="4.98063">
        <ele>274</ele>
        <time>2024-08-15T15:56:45Z</time>
      </trkpt>
      <trkpt lat="44.52555" lon="4.97995">
        <ele>272</ele>
        <time>2024-08-15T15:56:54Z</time>
      </trkpt>
      <trkpt lat="44.52555" lon="4.97823">
        <ele>266</ele>
        <time>2024-08-15T15:57:15Z</time>
      </trkpt>
      <trkpt lat="44.52557" lon="4.97767">
        <ele>265</ele>
        <time>2024-08-15T15:57:23Z</time>
      </trkpt>
      <trkpt lat="44.52569" lon="4.97697">
        <ele>265</ele>
        <time>2024-08-15T15:57:32Z</time>
      </trkpt>
      <trkpt lat="44.52591" lon="4.97627">
        <ele>264</ele>
        <time>2024-08-15T15:57:41Z</time>
      </trkpt>
      <trkpt lat="44.52629" lon="4.9755">
        <ele>264</ele>
        <time>2024-08-15T15:57:53Z</time>
      </trkpt>
      <trkpt lat="44.53049" lon="4.96897">
        <ele>264</ele>
        <time>2024-08-15T15:59:45Z</time>
      </trkpt>
      <trkpt lat="44.53054" lon="4.96887">
        <ele>263</ele>
        <time>2024-08-15T15:59:46Z</time>
      </trkpt>
      <trkpt lat="44.53095" lon="4.96819">
        <ele>265</ele>
        <time>2024-08-15T15:59:58Z</time>
      </trkpt>
      <trkpt lat="44.53118" lon="4.96782">
        <ele>267</ele>
        <time>2024-08-15T16:00:04Z</time>
      </trkpt>
      <trkpt lat="44.53139" lon="4.96756">
        <ele>267</ele>
        <time>2024-08-15T16:00:09Z</time>
      </trkpt>
      <trkpt lat="44.53154" lon="4.9674">
        <ele>266</ele>
        <time>2024-08-15T16:00:12Z</time>
      </trkpt>
      <trkpt lat="44.53178" lon="4.96719">
        <ele>266</ele>
        <time>2024-08-15T16:00:17Z</time>
      </trkpt>
      <trkpt lat="44.53277" lon="4.96665">
        <ele>261</ele>
        <time>2024-08-15T16:00:36Z</time>
      </trkpt>
      <trkpt lat="44.53398" lon="4.96601">
        <ele>259</ele>
        <time>2024-08-15T16:00:59Z</time>
      </trkpt>
      <trkpt lat="44.53416" lon="4.96584">
        <ele>255</ele>
        <time>2024-08-15T16:01:03Z</time>
      </trkpt>
      <trkpt lat="44.53446" lon="4.96546">
        <ele>253</ele>
        <time>2024-08-15T16:01:10Z</time>
      </trkpt>
      <trkpt lat="44.53485" lon="4.96487">
        <ele>249</ele>
        <time>2024-08-15T16:01:20Z</time>
      </trkpt>
      <trkpt lat="44.53511" lon="4.96454">
        <ele>247</ele>
        <time>2024-08-15T16:01:27Z</time>
      </trkpt>
      <trkpt lat="44.53536" lon="4.96433">
        <ele>246</ele>
        <time>2024-08-15T16:01:32Z</time>
      </trkpt>
      <trkpt lat="44.53575" lon="4.96411">
        <ele>245</ele>
        <time>2024-08-15T16:01:39Z</time>
      </trkpt>
      <trkpt lat="44.53657" lon="4.96376">
        <ele>248</ele>
        <time>2024-08-15T16:01:55Z</time>
      </trkpt>
      <trkpt lat="44.53704" lon="4.96346">
        <ele>248</ele>
        <time>2024-08-15T16:02:04Z</time>
      </trkpt>
      <trkpt lat="44.53763" lon="4.96299">
        <ele>249</ele>
        <time>2024-08-15T16:02:16Z</time>
      </trkpt>
      <trkpt lat="44.53781" lon="4.96282">
        <ele>251</ele>
        <time>2024-08-15T16:02:20Z</time>
      </trkpt>
      <trkpt lat="44.53808" lon="4.96251">
        <ele>249</ele>
        <time>2024-08-15T16:02:26Z</time>
      </trkpt>
      <trkpt lat="44.53831" lon="4.96209">
        <ele>246</ele>
        <time>2024-08-15T16:02:33Z</time>
      </trkpt>
      <trkpt lat="44.53843" lon="4.96164">
        <ele>241</ele>
        <time>2024-08-15T16:02:39Z</time>
      </trkpt>
      <trkpt lat="44.53855" lon="4.96096">
        <ele>239</ele>
        <time>2024-08-15T16:02:48Z</time>
      </trkpt>
      <trkpt lat="44.53872" lon="4.96038">
        <ele>238</ele>
        <time>2024-08-15T16:02:56Z</time>
      </trkpt>
      <trkpt lat="44.53886" lon="4.96002">
        <ele>238</ele>
        <time>2024-08-15T16:03:01Z</time>
      </trkpt>
      <trkpt lat="44.53992" lon="4.95829">
        <ele>239</ele>
        <time>2024-08-15T16:03:30Z</time>
      </trkpt>
      <trkpt lat="44.54037" lon="4.95746">
        <ele>241</ele>
        <time>2024-08-15T16:03:43Z</time>
      </trkpt>
      <trkpt lat="44.54053" lon="4.95713">
        <ele>240</ele>
        <time>2024-08-15T16:03:48Z</time>
      </trkpt>
      <trkpt lat="44.54062" lon="4.9569">
        <ele>238</ele>
        <time>2024-08-15T16:03:51Z</time>
      </trkpt>
      <trkpt lat="44.54078" lon="4.95629">
        <ele>235</ele>
        <time>2024-08-15T16:04:00Z</time>
      </trkpt>
      <trkpt lat="44.54089" lon="4.95574">
        <ele>234</ele>
        <time>2024-08-15T16:04:07Z</time>
        <extensions>
          <visugpx:TrkExtension xmlns:visugpx="https://www.visugpx.com/editgpx/">
            <visugpx:node>1</visugpx:node>
            </visugpx:TrkExtension>
        </extensions>
      </trkpt>
    </trkseg>
  </trk>
  <trk>
    <name><![CDATA[Souspierre_3]]></name>
    <extensions>
      <line xmlns="http://www.topografix.com/GPX/gpx_style/0/2">
        <color>0000FF</color>
        <width>4</width>
      </line>
    </extensions>
    <trkseg>
      <trkpt lat="44.52848" lon="4.96769">
        <ele>262</ele>
      </trkpt>
      <trkpt lat="44.52986" lon="4.96697">
        <ele>261</ele>
      </trkpt>
      <trkpt lat="44.53006" lon="4.96693">
        <ele>262</ele>
      </trkpt>
      <trkpt lat="44.53017" lon="4.96706">
        <ele>258</ele>
      </trkpt>
      <trkpt lat="44.53044" lon="4.96744">
        <ele>255</ele>
      </trkpt>
      <trkpt lat="44.53095" lon="4.96819">
        <ele>269</ele>
      </trkpt>
      <trkpt lat="44.53049" lon="4.96897">
        <ele>264</ele>
      </trkpt>
      <trkpt lat="44.52629" lon="4.9755">
        <ele>263</ele>
      </trkpt>
      <trkpt lat="44.52591" lon="4.97628">
        <ele>265</ele>
      </trkpt>
      <trkpt lat="44.5257" lon="4.97698">
        <ele>265</ele>
      </trkpt>
      <trkpt lat="44.52558" lon="4.97767">
        <ele>266</ele>
      </trkpt>
      <trkpt lat="44.52555" lon="4.97824">
        <ele>266</ele>
      </trkpt>
      <trkpt lat="44.52555" lon="4.97995">
        <ele>273</ele>
      </trkpt>
      <trkpt lat="44.52557" lon="4.98064">
        <ele>275</ele>
      </trkpt>
      <trkpt lat="44.52557" lon="4.98101">
        <ele>276</ele>
      </trkpt>
      <trkpt lat="44.52559" lon="4.98139">
        <ele>276</ele>
      </trkpt>
      <trkpt lat="44.52563" lon="4.98167">
        <ele>277</ele>
      </trkpt>
      <trkpt lat="44.52598" lon="4.98287">
        <ele>279</ele>
      </trkpt>
      <trkpt lat="44.52683" lon="4.98563">
        <ele>289</ele>
      </trkpt>
      <trkpt lat="44.52703" lon="4.9861">
        <ele>287</ele>
      </trkpt>
      <trkpt lat="44.52726" lon="4.9865">
        <ele>287</ele>
      </trkpt>
      <trkpt lat="44.52971" lon="4.98966">
        <ele>286</ele>
      </trkpt>
      <trkpt lat="44.53005" lon="4.99021">
        <ele>287</ele>
      </trkpt>
      <trkpt lat="44.53024" lon="4.99057">
        <ele>289</ele>
      </trkpt>
      <trkpt lat="44.53052" lon="4.99125">
        <ele>290</ele>
      </trkpt>
      <trkpt lat="44.53064" lon="4.99161">
        <ele>287</ele>
      </trkpt>
      <trkpt lat="44.53231" lon="4.99785">
        <ele>292</ele>
      </trkpt>
      <trkpt lat="44.5324" lon="4.99833">
        <ele>295</ele>
      </trkpt>
      <trkpt lat="44.53247" lon="4.9989">
        <ele>294</ele>
      </trkpt>
      <trkpt lat="44.53248" lon="4.99967">
        <ele>296</ele>
      </trkpt>
      <trkpt lat="44.53244" lon="5.00027">
        <ele>299</ele>
      </trkpt>
      <trkpt lat="44.53235" lon="5.00081">
        <ele>297</ele>
      </trkpt>
      <trkpt lat="44.53191" lon="5.00272">
        <ele>301</ele>
      </trkpt>
      <trkpt lat="44.53167" lon="5.00399">
        <ele>301</ele>
      </trkpt>
      <trkpt lat="44.53159" lon="5.00454">
        <ele>301</ele>
      </trkpt>
      <trkpt lat="44.5312" lon="5.00837">
        <ele>309</ele>
      </trkpt>
      <trkpt lat="44.53109" lon="5.00982">
        <ele>308</ele>
      </trkpt>
      <trkpt lat="44.53107" lon="5.01034">
        <ele>310</ele>
      </trkpt>
      <trkpt lat="44.53102" lon="5.01084">
        <ele>312</ele>
      </trkpt>
      <trkpt lat="44.53082" lon="5.012">
        <ele>314</ele>
      </trkpt>
      <trkpt lat="44.5307" lon="5.01254">
        <ele>315</ele>
      </trkpt>
      <trkpt lat="44.53047" lon="5.0133">
        <ele>316</ele>
      </trkpt>
      <trkpt lat="44.53026" lon="5.01415">
        <ele>318</ele>
      </trkpt>
      <trkpt lat="44.52958" lon="5.0166">
        <ele>314</ele>
      </trkpt>
      <trkpt lat="44.52955" lon="5.01681">
        <ele>314</ele>
      </trkpt>
      <trkpt lat="44.52963" lon="5.01975">
        <ele>313</ele>
      </trkpt>
      <trkpt lat="44.52965" lon="5.021">
        <ele>317</ele>
      </trkpt>
      <trkpt lat="44.52958" lon="5.02355">
        <ele>324</ele>
      </trkpt>
      <trkpt lat="44.52955" lon="5.02418">
        <ele>326</ele>
      </trkpt>
      <trkpt lat="44.52946" lon="5.02456">
        <ele>327</ele>
      </trkpt>
      <trkpt lat="44.52934" lon="5.02489">
        <ele>328</ele>
      </trkpt>
      <trkpt lat="44.52911" lon="5.02533">
        <ele>328</ele>
      </trkpt>
      <trkpt lat="44.52881" lon="5.02578">
        <ele>328</ele>
      </trkpt>
      <trkpt lat="44.52703" lon="5.02801">
        <ele>328</ele>
      </trkpt>
      <trkpt lat="44.52691" lon="5.02819">
        <ele>329</ele>
      </trkpt>
      <trkpt lat="44.52684" lon="5.02834">
        <ele>330</ele>
      </trkpt>
      <trkpt lat="44.52671" lon="5.02866">
        <ele>332</ele>
      </trkpt>
      <trkpt lat="44.52619" lon="5.03041">
        <ele>332</ele>
      </trkpt>
      <trkpt lat="44.52604" lon="5.03112">
        <ele>333</ele>
      </trkpt>
      <trkpt lat="44.52593" lon="5.03174">
        <ele>331</ele>
      </trkpt>
      <trkpt lat="44.5258" lon="5.03264">
        <ele>332</ele>
      </trkpt>
      <trkpt lat="44.52569" lon="5.03357">
        <ele>334</ele>
      </trkpt>
      <trkpt lat="44.52555" lon="5.03566">
        <ele>336</ele>
      </trkpt>
      <trkpt lat="44.5256" lon="5.03569">
        <ele>336</ele>
      </trkpt>
      <trkpt lat="44.52664" lon="5.03602">
        <ele>348</ele>
      </trkpt>
      <trkpt lat="44.52673" lon="5.03612">
        <ele>349</ele>
      </trkpt>
      <trkpt lat="44.52686" lon="5.03632">
        <ele>354</ele>
      </trkpt>
      <trkpt lat="44.52693" lon="5.03663">
        <ele>355</ele>
      </trkpt>
      <trkpt lat="44.52699" lon="5.03698">
        <ele>356</ele>
      </trkpt>
      <trkpt lat="44.52702" lon="5.03739">
        <ele>357</ele>
      </trkpt>
      <trkpt lat="44.52705" lon="5.03752">
        <ele>358</ele>
      </trkpt>
      <trkpt lat="44.52709" lon="5.03759">
        <ele>358</ele>
      </trkpt>
      <trkpt lat="44.52754" lon="5.038">
        <ele>364</ele>
      </trkpt>
      <trkpt lat="44.52763" lon="5.03823">
        <ele>365</ele>
      </trkpt>
      <trkpt lat="44.52807" lon="5.03972">
        <ele>372</ele>
      </trkpt>
      <trkpt lat="44.52814" lon="5.03989">
        <ele>374</ele>
      </trkpt>
      <trkpt lat="44.52823" lon="5.03996">
        <ele>374</ele>
      </trkpt>
      <trkpt lat="44.52838" lon="5.03999">
        <ele>374</ele>
      </trkpt>
      <trkpt lat="44.52851" lon="5.04006">
        <ele>375</ele>
      </trkpt>
      <trkpt lat="44.52861" lon="5.04016">
        <ele>375</ele>
      </trkpt>
      <trkpt lat="44.52861" lon="5.04041">
        <ele>375</ele>
      </trkpt>
      <trkpt lat="44.52843" lon="5.04067">
        <ele>378</ele>
      </trkpt>
      <trkpt lat="44.52802" lon="5.04083">
        <ele>383</ele>
      </trkpt>
      <trkpt lat="44.52744" lon="5.04109">
        <ele>391</ele>
      </trkpt>
      <trkpt lat="44.52737" lon="5.0413">
        <ele>393</ele>
      </trkpt>
      <trkpt lat="44.52744" lon="5.04174">
        <ele>394</ele>
      </trkpt>
      <trkpt lat="44.52761" lon="5.0424">
        <ele>393</ele>
      </trkpt>
      <trkpt lat="44.52772" lon="5.04298">
        <ele>392</ele>
      </trkpt>
      <trkpt lat="44.52762" lon="5.04376">
        <ele>398</ele>
      </trkpt>
      <trkpt lat="44.52747" lon="5.04426">
        <ele>404</ele>
      </trkpt>
      <trkpt lat="44.52722" lon="5.04481">
        <ele>409</ele>
      </trkpt>
      <trkpt lat="44.52696" lon="5.04513">
        <ele>411</ele>
      </trkpt>
      <trkpt lat="44.52631" lon="5.04576">
        <ele>416</ele>
      </trkpt>
      <trkpt lat="44.52611" lon="5.04615">
        <ele>421</ele>
      </trkpt>
      <trkpt lat="44.5258" lon="5.04701">
        <ele>425</ele>
      </trkpt>
      <trkpt lat="44.52569" lon="5.04774">
        <ele>422</ele>
      </trkpt>
      <trkpt lat="44.5257" lon="5.04819">
        <ele>424</ele>
      </trkpt>
      <trkpt lat="44.52573" lon="5.04852">
        <ele>430</ele>
      </trkpt>
      <trkpt lat="44.52584" lon="5.04901">
        <ele>429</ele>
      </trkpt>
      <trkpt lat="44.52609" lon="5.04995">
        <ele>426</ele>
      </trkpt>
      <trkpt lat="44.52625" lon="5.0503">
        <ele>424</ele>
      </trkpt>
      <trkpt lat="44.52677" lon="5.05113">
        <ele>420</ele>
      </trkpt>
      <trkpt lat="44.52712" lon="5.05139">
        <ele>425</ele>
      </trkpt>
      <trkpt lat="44.52765" lon="5.05193">
        <ele>424</ele>
      </trkpt>
      <trkpt lat="44.52817" lon="5.0525">
        <ele>424</ele>
      </trkpt>
      <trkpt lat="44.52833" lon="5.0527">
        <ele>425</ele>
      </trkpt>
      <trkpt lat="44.52858" lon="5.0534">
        <ele>420</ele>
      </trkpt>
      <trkpt lat="44.52881" lon="5.05366">
        <ele>419</ele>
      </trkpt>
      <trkpt lat="44.52888" lon="5.05381">
        <ele>419</ele>
      </trkpt>
      <trkpt lat="44.52885" lon="5.05439">
        <ele>416</ele>
      </trkpt>
      <trkpt lat="44.52872" lon="5.05507">
        <ele>415</ele>
      </trkpt>
      <trkpt lat="44.5285" lon="5.05539">
        <ele>416</ele>
      </trkpt>
      <trkpt lat="44.52822" lon="5.05583">
        <ele>417</ele>
      </trkpt>
      <trkpt lat="44.52796" lon="5.05639">
        <ele>415</ele>
      </trkpt>
      <trkpt lat="44.52768" lon="5.05691">
        <ele>413</ele>
      </trkpt>
      <trkpt lat="44.52764" lon="5.05706">
        <ele>412</ele>
      </trkpt>
      <trkpt lat="44.52754" lon="5.05761">
        <ele>410</ele>
      </trkpt>
      <trkpt lat="44.52745" lon="5.05832">
        <ele>409</ele>
      </trkpt>
      <trkpt lat="44.52733" lon="5.05869">
        <ele>403</ele>
      </trkpt>
      <trkpt lat="44.52731" lon="5.05887">
        <ele>402</ele>
      </trkpt>
      <trkpt lat="44.52641" lon="5.05955">
        <ele>392</ele>
      </trkpt>
      <trkpt lat="44.52619" lon="5.05975">
        <ele>391</ele>
      </trkpt>
      <trkpt lat="44.52603" lon="5.05974">
        <ele>391</ele>
      </trkpt>
      <trkpt lat="44.52544" lon="5.05979">
        <ele>393</ele>
      </trkpt>
      <trkpt lat="44.52536" lon="5.05976">
        <ele>392</ele>
      </trkpt>
      <trkpt lat="44.5251" lon="5.05977">
        <ele>390</ele>
      </trkpt>
      <trkpt lat="44.52505" lon="5.05981">
        <ele>390</ele>
      </trkpt>
      <trkpt lat="44.52503" lon="5.05985">
        <ele>390</ele>
      </trkpt>
      <trkpt lat="44.52503" lon="5.05994">
        <ele>390</ele>
      </trkpt>
      <trkpt lat="44.52507" lon="5.06001">
        <ele>390</ele>
      </trkpt>
      <trkpt lat="44.52501" lon="5.0602">
        <ele>389</ele>
      </trkpt>
      <trkpt lat="44.52478" lon="5.06066">
        <ele>386</ele>
      </trkpt>
      <trkpt lat="44.52469" lon="5.06098">
        <ele>386</ele>
      </trkpt>
      <trkpt lat="44.52457" lon="5.06116">
        <ele>384</ele>
      </trkpt>
      <trkpt lat="44.52452" lon="5.06114">
        <ele>384</ele>
      </trkpt>
      <trkpt lat="44.52447" lon="5.06116">
        <ele>384</ele>
      </trkpt>
      <trkpt lat="44.52445" lon="5.06123">
        <ele>384</ele>
      </trkpt>
      <trkpt lat="44.52447" lon="5.06131">
        <ele>384</ele>
      </trkpt>
      <trkpt lat="44.52348" lon="5.063">
        <ele>379</ele>
      </trkpt>
      <trkpt lat="44.52344" lon="5.06305">
        <ele>378</ele>
      </trkpt>
      <trkpt lat="44.52339" lon="5.06308">
        <ele>377</ele>
      </trkpt>
      <trkpt lat="44.52334" lon="5.06304">
        <ele>378</ele>
      </trkpt>
      <trkpt lat="44.5233" lon="5.06306">
        <ele>377</ele>
      </trkpt>
      <trkpt lat="44.52328" lon="5.06314">
        <ele>376</ele>
      </trkpt>
      <trkpt lat="44.52332" lon="5.06321">
        <ele>376</ele>
      </trkpt>
      <trkpt lat="44.52329" lon="5.06329">
        <ele>376</ele>
      </trkpt>
      <trkpt lat="44.52316" lon="5.06357">
        <ele>375</ele>
      </trkpt>
      <trkpt lat="44.52301" lon="5.06384">
        <ele>374</ele>
      </trkpt>
      <trkpt lat="44.52286" lon="5.06413">
        <ele>377</ele>
      </trkpt>
      <trkpt lat="44.52281" lon="5.0643">
        <ele>379</ele>
      </trkpt>
      <trkpt lat="44.52278" lon="5.06465">
        <ele>382</ele>
      </trkpt>
      <trkpt lat="44.52278" lon="5.06485">
        <ele>385</ele>
      </trkpt>
      <trkpt lat="44.52284" lon="5.06511">
        <ele>388</ele>
      </trkpt>
      <trkpt lat="44.52288" lon="5.06517">
        <ele>388</ele>
      </trkpt>
      <trkpt lat="44.52297" lon="5.06524">
        <ele>388</ele>
      </trkpt>
      <trkpt lat="44.52311" lon="5.06537">
        <ele>390</ele>
      </trkpt>
      <trkpt lat="44.52308" lon="5.06552">
        <ele>391</ele>
      </trkpt>
      <trkpt lat="44.5231" lon="5.06559">
        <ele>393</ele>
      </trkpt>
      <trkpt lat="44.5228" lon="5.06578">
        <ele>392</ele>
      </trkpt>
      <trkpt lat="44.5222" lon="5.06626">
        <ele>393</ele>
      </trkpt>
      <trkpt lat="44.52196" lon="5.06659">
        <ele>392</ele>
      </trkpt>
      <trkpt lat="44.5219" lon="5.0667">
        <ele>393</ele>
      </trkpt>
      <trkpt lat="44.5217" lon="5.06778">
        <ele>393</ele>
      </trkpt>
      <trkpt lat="44.52159" lon="5.06818">
        <ele>394</ele>
      </trkpt>
      <trkpt lat="44.52124" lon="5.06895">
        <ele>395</ele>
      </trkpt>
      <trkpt lat="44.52109" lon="5.06933">
        <ele>397</ele>
      </trkpt>
      <trkpt lat="44.52066" lon="5.07089">
        <ele>400</ele>
      </trkpt>
      <trkpt lat="44.52031" lon="5.07163">
        <ele>400</ele>
      </trkpt>
      <trkpt lat="44.52022" lon="5.07188">
        <ele>402</ele>
      </trkpt>
      <trkpt lat="44.52005" lon="5.07275">
        <ele>411</ele>
      </trkpt>
      <trkpt lat="44.51937" lon="5.07556">
        <ele>425</ele>
      </trkpt>
      <trkpt lat="44.51901" lon="5.0775">
        <ele>419</ele>
      </trkpt>
      <trkpt lat="44.5188" lon="5.07807">
        <ele>420</ele>
      </trkpt>
      <trkpt lat="44.51858" lon="5.07856">
        <ele>416</ele>
      </trkpt>
      <trkpt lat="44.51839" lon="5.07925">
        <ele>413</ele>
      </trkpt>
      <trkpt lat="44.51834" lon="5.07937">
        <ele>413</ele>
      </trkpt>
      <trkpt lat="44.51818" lon="5.07966">
        <ele>415</ele>
      </trkpt>
      <trkpt lat="44.51753" lon="5.08044">
        <ele>413</ele>
      </trkpt>
      <trkpt lat="44.51742" lon="5.08062">
        <ele>413</ele>
      </trkpt>
      <trkpt lat="44.51729" lon="5.0809">
        <ele>413</ele>
      </trkpt>
      <trkpt lat="44.51694" lon="5.08171">
        <ele>412</ele>
      </trkpt>
      <trkpt lat="44.51669" lon="5.08237">
        <ele>408</ele>
      </trkpt>
      <trkpt lat="44.51606" lon="5.08417">
        <ele>424</ele>
      </trkpt>
      <trkpt lat="44.51592" lon="5.08461">
        <ele>426</ele>
      </trkpt>
      <trkpt lat="44.51586" lon="5.08486">
        <ele>428</ele>
      </trkpt>
      <trkpt lat="44.51583" lon="5.08512">
        <ele>429</ele>
      </trkpt>
      <trkpt lat="44.51575" lon="5.08692">
        <ele>429</ele>
      </trkpt>
      <trkpt lat="44.51572" lon="5.08716">
        <ele>430</ele>
      </trkpt>
      <trkpt lat="44.51565" lon="5.0874">
        <ele>430</ele>
      </trkpt>
      <trkpt lat="44.51553" lon="5.08761">
        <ele>431</ele>
      </trkpt>
      <trkpt lat="44.51491" lon="5.08839">
        <ele>437</ele>
      </trkpt>
      <trkpt lat="44.51468" lon="5.08874">
        <ele>442</ele>
      </trkpt>
      <trkpt lat="44.51422" lon="5.08983">
        <ele>447</ele>
      </trkpt>
      <trkpt lat="44.51411" lon="5.08997">
        <ele>447</ele>
      </trkpt>
      <trkpt lat="44.51395" lon="5.09009">
        <ele>443</ele>
      </trkpt>
      <trkpt lat="44.51353" lon="5.09031">
        <ele>438</ele>
      </trkpt>
      <trkpt lat="44.51341" lon="5.09043">
        <ele>437</ele>
      </trkpt>
      <trkpt lat="44.5133" lon="5.09063">
        <ele>437</ele>
      </trkpt>
      <trkpt lat="44.51324" lon="5.09094">
        <ele>437</ele>
      </trkpt>
      <trkpt lat="44.513" lon="5.09282">
        <ele>445</ele>
      </trkpt>
      <trkpt lat="44.51296" lon="5.09304">
        <ele>445</ele>
      </trkpt>
      <trkpt lat="44.51233" lon="5.09475">
        <ele>451</ele>
      </trkpt>
      <trkpt lat="44.51228" lon="5.09503">
        <ele>452</ele>
      </trkpt>
      <trkpt lat="44.51227" lon="5.09548">
        <ele>454</ele>
      </trkpt>
      <trkpt lat="44.5123" lon="5.09592">
        <ele>460</ele>
      </trkpt>
      <trkpt lat="44.51228" lon="5.09603">
        <ele>461</ele>
      </trkpt>
      <trkpt lat="44.51222" lon="5.09612">
        <ele>462</ele>
      </trkpt>
      <trkpt lat="44.51215" lon="5.09616">
        <ele>464</ele>
      </trkpt>
      <trkpt lat="44.51207" lon="5.09613">
        <ele>465</ele>
      </trkpt>
      <trkpt lat="44.51198" lon="5.09604">
        <ele>465</ele>
      </trkpt>
      <trkpt lat="44.51135" lon="5.09527">
        <ele>468</ele>
      </trkpt>
      <trkpt lat="44.5111" lon="5.09481">
        <ele>470</ele>
      </trkpt>
      <trkpt lat="44.51095" lon="5.0943">
        <ele>470</ele>
      </trkpt>
      <trkpt lat="44.51069" lon="5.09308">
        <ele>471</ele>
      </trkpt>
      <trkpt lat="44.51061" lon="5.0926">
        <ele>472</ele>
      </trkpt>
      <trkpt lat="44.51056" lon="5.09252">
        <ele>472</ele>
      </trkpt>
      <trkpt lat="44.51049" lon="5.09247">
        <ele>473</ele>
      </trkpt>
      <trkpt lat="44.51042" lon="5.09248">
        <ele>473</ele>
      </trkpt>
      <trkpt lat="44.51036" lon="5.09256">
        <ele>477</ele>
      </trkpt>
      <trkpt lat="44.51023" lon="5.09333">
        <ele>478</ele>
      </trkpt>
      <trkpt lat="44.50997" lon="5.09426">
        <ele>486</ele>
      </trkpt>
      <trkpt lat="44.50984" lon="5.09546">
        <ele>495</ele>
      </trkpt>
      <trkpt lat="44.50974" lon="5.09587">
        <ele>498</ele>
      </trkpt>
      <trkpt lat="44.50917" lon="5.09725">
        <ele>499</ele>
      </trkpt>
      <trkpt lat="44.50909" lon="5.09738">
        <ele>499</ele>
      </trkpt>
      <trkpt lat="44.50898" lon="5.09751">
        <ele>501</ele>
      </trkpt>
      <trkpt lat="44.50884" lon="5.09762">
        <ele>502</ele>
      </trkpt>
      <trkpt lat="44.50844" lon="5.09778">
        <ele>503</ele>
      </trkpt>
      <trkpt lat="44.50803" lon="5.09783">
        <ele>502</ele>
      </trkpt>
      <trkpt lat="44.50745" lon="5.09783">
        <ele>500</ele>
      </trkpt>
      <trkpt lat="44.50733" lon="5.09782">
        <ele>499</ele>
      </trkpt>
      <trkpt lat="44.50719" lon="5.09777">
        <ele>495</ele>
      </trkpt>
      <trkpt lat="44.50713" lon="5.09784">
        <ele>499</ele>
      </trkpt>
      <trkpt lat="44.50703" lon="5.09785">
        <ele>498</ele>
      </trkpt>
      <trkpt lat="44.50577" lon="5.0979">
        <ele>493</ele>
      </trkpt>
      <trkpt lat="44.50513" lon="5.098">
        <ele>487</ele>
      </trkpt>
      <trkpt lat="44.50498" lon="5.09806">
        <ele>486</ele>
      </trkpt>
      <trkpt lat="44.50492" lon="5.09818">
        <ele>490</ele>
      </trkpt>
      <trkpt lat="44.50488" lon="5.09839">
        <ele>492</ele>
      </trkpt>
      <trkpt lat="44.50494" lon="5.09953">
        <ele>497</ele>
      </trkpt>
      <trkpt lat="44.50495" lon="5.09989">
        <ele>497</ele>
      </trkpt>
      <trkpt lat="44.50483" lon="5.1008">
        <ele>487</ele>
      </trkpt>
      <trkpt lat="44.50456" lon="5.10268">
        <ele>480</ele>
      </trkpt>
      <trkpt lat="44.50433" lon="5.10409">
        <ele>477</ele>
      </trkpt>
      <trkpt lat="44.50336" lon="5.10855">
        <ele>482</ele>
      </trkpt>
      <trkpt lat="44.50318" lon="5.10893">
        <ele>481</ele>
      </trkpt>
      <trkpt lat="44.50219" lon="5.11014">
        <ele>482</ele>
      </trkpt>
      <trkpt lat="44.50136" lon="5.11123">
        <ele>479</ele>
      </trkpt>
      <trkpt lat="44.50104" lon="5.11158">
        <ele>476</ele>
      </trkpt>
      <trkpt lat="44.5003" lon="5.11258">
        <ele>481</ele>
      </trkpt>
      <trkpt lat="44.50013" lon="5.11286">
        <ele>484</ele>
      </trkpt>
      <trkpt lat="44.49959" lon="5.114">
        <ele>489</ele>
      </trkpt>
      <trkpt lat="44.49948" lon="5.11419">
        <ele>487</ele>
      </trkpt>
      <trkpt lat="44.49945" lon="5.11421">
        <ele>487</ele>
      </trkpt>
      <trkpt lat="44.49753" lon="5.11464">
        <ele>479</ele>
      </trkpt>
      <trkpt lat="44.49712" lon="5.1148">
        <ele>481</ele>
      </trkpt>
      <trkpt lat="44.4968" lon="5.11498">
        <ele>483</ele>
      </trkpt>
      <trkpt lat="44.49659" lon="5.11505">
        <ele>483</ele>
      </trkpt>
      <trkpt lat="44.4965" lon="5.11506">
        <ele>484</ele>
      </trkpt>
      <trkpt lat="44.49641" lon="5.11508">
        <ele>484</ele>
      </trkpt>
      <trkpt lat="44.4958" lon="5.11531">
        <ele>487</ele>
      </trkpt>
      <trkpt lat="44.49564" lon="5.11538">
        <ele>488</ele>
      </trkpt>
      <trkpt lat="44.49552" lon="5.11545">
        <ele>489</ele>
      </trkpt>
      <trkpt lat="44.49532" lon="5.11562">
        <ele>491</ele>
      </trkpt>
      <trkpt lat="44.4945" lon="5.11664">
        <ele>496</ele>
      </trkpt>
      <trkpt lat="44.49435" lon="5.1168">
        <ele>501</ele>
      </trkpt>
      <trkpt lat="44.49414" lon="5.11694">
        <ele>497</ele>
      </trkpt>
      <trkpt lat="44.49251" lon="5.11763">
        <ele>506</ele>
      </trkpt>
      <trkpt lat="44.49212" lon="5.11778">
        <ele>506</ele>
      </trkpt>
      <trkpt lat="44.49183" lon="5.11792">
        <ele>512</ele>
      </trkpt>
      <trkpt lat="44.48883" lon="5.11956">
        <ele>515</ele>
      </trkpt>
      <trkpt lat="44.48837" lon="5.11978">
        <ele>511</ele>
      </trkpt>
      <trkpt lat="44.48818" lon="5.1199">
        <ele>508</ele>
      </trkpt>
      <trkpt lat="44.48808" lon="5.12">
        <ele>509</ele>
      </trkpt>
      <trkpt lat="44.48795" lon="5.12024">
        <ele>510</ele>
      </trkpt>
      <trkpt lat="44.48701" lon="5.1226">
        <ele>508</ele>
      </trkpt>
      <trkpt lat="44.48489" lon="5.12579">
        <ele>528</ele>
      </trkpt>
      <trkpt lat="44.48478" lon="5.126">
        <ele>526</ele>
      </trkpt>
      <trkpt lat="44.48438" lon="5.12708">
        <ele>535</ele>
      </trkpt>
      <trkpt lat="44.48425" lon="5.12732">
        <ele>535</ele>
      </trkpt>
      <trkpt lat="44.48417" lon="5.12746">
        <ele>535</ele>
      </trkpt>
      <trkpt lat="44.48406" lon="5.12757">
        <ele>544</ele>
      </trkpt>
      <trkpt lat="44.4839" lon="5.1277">
        <ele>537</ele>
      </trkpt>
      <trkpt lat="44.48371" lon="5.12782">
        <ele>538</ele>
      </trkpt>
      <trkpt lat="44.48313" lon="5.12803">
        <ele>523</ele>
      </trkpt>
      <trkpt lat="44.48292" lon="5.12809">
        <ele>522</ele>
      </trkpt>
      <trkpt lat="44.48173" lon="5.12848">
        <ele>539</ele>
      </trkpt>
      <trkpt lat="44.47924" lon="5.12878">
        <ele>541</ele>
      </trkpt>
      <trkpt lat="44.47873" lon="5.12885">
        <ele>542</ele>
      </trkpt>
      <trkpt lat="44.47654" lon="5.13025">
        <ele>552</ele>
      </trkpt>
      <trkpt lat="44.47614" lon="5.13049">
        <ele>549</ele>
      </trkpt>
      <trkpt lat="44.47539" lon="5.13149">
        <ele>552</ele>
      </trkpt>
      <trkpt lat="44.47486" lon="5.13237">
        <ele>564</ele>
      </trkpt>
      <trkpt lat="44.47414" lon="5.13307">
        <ele>559</ele>
      </trkpt>
      <trkpt lat="44.47294" lon="5.13393">
        <ele>565</ele>
      </trkpt>
      <trkpt lat="44.47137" lon="5.13598">
        <ele>563</ele>
      </trkpt>
      <trkpt lat="44.47111" lon="5.13618">
        <ele>559</ele>
      </trkpt>
      <trkpt lat="44.47079" lon="5.13622">
        <ele>556</ele>
      </trkpt>
      <trkpt lat="44.47034" lon="5.1361">
        <ele>550</ele>
      </trkpt>
      <trkpt lat="44.47018" lon="5.13609">
        <ele>550</ele>
      </trkpt>
      <trkpt lat="44.47002" lon="5.13621">
        <ele>551</ele>
      </trkpt>
      <trkpt lat="44.46954" lon="5.13709">
        <ele>554</ele>
      </trkpt>
      <trkpt lat="44.46897" lon="5.13863">
        <ele>560</ele>
      </trkpt>
      <trkpt lat="44.46802" lon="5.13996">
        <ele>566</ele>
      </trkpt>
      <trkpt lat="44.46784" lon="5.14019">
        <ele>564</ele>
      </trkpt>
      <trkpt lat="44.46607" lon="5.14156">
        <ele>568</ele>
      </trkpt>
      <trkpt lat="44.46545" lon="5.14204">
        <ele>568</ele>
      </trkpt>
      <trkpt lat="44.46496" lon="5.14259">
        <ele>569</ele>
      </trkpt>
      <trkpt lat="44.46407" lon="5.1451">
        <ele>574</ele>
      </trkpt>
      <trkpt lat="44.46323" lon="5.14686">
        <ele>577</ele>
      </trkpt>
      <trkpt lat="44.46299" lon="5.14722">
        <ele>580</ele>
      </trkpt>
      <trkpt lat="44.46283" lon="5.14727">
        <ele>581</ele>
      </trkpt>
      <trkpt lat="44.4622" lon="5.14708">
        <ele>583</ele>
      </trkpt>
      <trkpt lat="44.46191" lon="5.1474">
        <ele>582</ele>
      </trkpt>
      <trkpt lat="44.4618" lon="5.14753">
        <ele>581</ele>
      </trkpt>
      <trkpt lat="44.4608" lon="5.14865">
        <ele>588</ele>
      </trkpt>
      <trkpt lat="44.46052" lon="5.14924">
        <ele>586</ele>
      </trkpt>
      <trkpt lat="44.45983" lon="5.15009">
        <ele>589</ele>
      </trkpt>
      <trkpt lat="44.45912" lon="5.15066">
        <ele>593</ele>
      </trkpt>
      <trkpt lat="44.45863" lon="5.15097">
        <ele>594</ele>
      </trkpt>
      <trkpt lat="44.45829" lon="5.15103">
        <ele>596</ele>
      </trkpt>
      <trkpt lat="44.45811" lon="5.15116">
        <ele>598</ele>
      </trkpt>
      <trkpt lat="44.45769" lon="5.15168">
        <ele>597</ele>
      </trkpt>
      <trkpt lat="44.45717" lon="5.15253">
        <ele>597</ele>
      </trkpt>
      <trkpt lat="44.45701" lon="5.15271">
        <ele>597</ele>
      </trkpt>
      <trkpt lat="44.45685" lon="5.15282">
        <ele>597</ele>
      </trkpt>
      <trkpt lat="44.45668" lon="5.15287">
        <ele>598</ele>
      </trkpt>
      <trkpt lat="44.45543" lon="5.15299">
        <ele>606</ele>
      </trkpt>
      <trkpt lat="44.45446" lon="5.1529">
        <ele>609</ele>
      </trkpt>
      <trkpt lat="44.45301" lon="5.15253">
        <ele>611</ele>
      </trkpt>
      <trkpt lat="44.45264" lon="5.15249">
        <ele>613</ele>
      </trkpt>
      <trkpt lat="44.4525" lon="5.15262">
        <ele>614</ele>
      </trkpt>
      <trkpt lat="44.4525" lon="5.15337">
        <ele>614</ele>
      </trkpt>
      <trkpt lat="44.45255" lon="5.15367">
        <ele>615</ele>
      </trkpt>
      <trkpt lat="44.45265" lon="5.1538">
        <ele>616</ele>
      </trkpt>
      <trkpt lat="44.45287" lon="5.15399">
        <ele>618</ele>
      </trkpt>
      <trkpt lat="44.45299" lon="5.15412">
        <ele>618</ele>
      </trkpt>
      <trkpt lat="44.45312" lon="5.1543">
        <ele>619</ele>
      </trkpt>
      <trkpt lat="44.45323" lon="5.15451">
        <ele>619</ele>
      </trkpt>
      <trkpt lat="44.45337" lon="5.15467">
        <ele>619</ele>
      </trkpt>
      <trkpt lat="44.45352" lon="5.15474">
        <ele>619</ele>
      </trkpt>
      <trkpt lat="44.45407" lon="5.15487">
        <ele>619</ele>
      </trkpt>
      <trkpt lat="44.45416" lon="5.15492">
        <ele>620</ele>
      </trkpt>
      <trkpt lat="44.45423" lon="5.15498">
        <ele>621</ele>
      </trkpt>
      <trkpt lat="44.45429" lon="5.15509">
        <ele>622</ele>
      </trkpt>
      <trkpt lat="44.45437" lon="5.15551">
        <ele>625</ele>
      </trkpt>
      <trkpt lat="44.45441" lon="5.15561">
        <ele>626</ele>
      </trkpt>
      <trkpt lat="44.45447" lon="5.15568">
        <ele>626</ele>
      </trkpt>
      <trkpt lat="44.45459" lon="5.15575">
        <ele>627</ele>
      </trkpt>
      <trkpt lat="44.45471" lon="5.1558">
        <ele>628</ele>
      </trkpt>
      <trkpt lat="44.45493" lon="5.15582">
        <ele>630</ele>
      </trkpt>
      <trkpt lat="44.4551" lon="5.15589">
        <ele>631</ele>
      </trkpt>
      <trkpt lat="44.45555" lon="5.15622">
        <ele>637</ele>
      </trkpt>
      <trkpt lat="44.45592" lon="5.15629">
        <ele>634</ele>
      </trkpt>
      <trkpt lat="44.45606" lon="5.15648">
        <ele>632</ele>
      </trkpt>
      <trkpt lat="44.45617" lon="5.15679">
        <ele>634</ele>
      </trkpt>
      <trkpt lat="44.45623" lon="5.15742">
        <ele>639</ele>
      </trkpt>
      <trkpt lat="44.45612" lon="5.15781">
        <ele>643</ele>
      </trkpt>
      <trkpt lat="44.45623" lon="5.15812">
        <ele>646</ele>
      </trkpt>
      <trkpt lat="44.45654" lon="5.15855">
        <ele>641</ele>
      </trkpt>
      <trkpt lat="44.45699" lon="5.15956">
        <ele>645</ele>
      </trkpt>
      <trkpt lat="44.45707" lon="5.16002">
        <ele>646</ele>
      </trkpt>
      <trkpt lat="44.4571" lon="5.16049">
        <ele>648</ele>
      </trkpt>
      <trkpt lat="44.45728" lon="5.16101">
        <ele>654</ele>
      </trkpt>
      <trkpt lat="44.4574" lon="5.16163">
        <ele>650</ele>
      </trkpt>
      <trkpt lat="44.45751" lon="5.16283">
        <ele>659</ele>
      </trkpt>
      <trkpt lat="44.4577" lon="5.16341">
        <ele>654</ele>
      </trkpt>
      <trkpt lat="44.4575" lon="5.16401">
        <ele>660</ele>
      </trkpt>
      <trkpt lat="44.45727" lon="5.16423">
        <ele>668</ele>
      </trkpt>
      <trkpt lat="44.45692" lon="5.16479">
        <ele>683</ele>
      </trkpt>
      <trkpt lat="44.45697" lon="5.16493">
        <ele>683</ele>
      </trkpt>
      <trkpt lat="44.45729" lon="5.16499">
        <ele>682</ele>
      </trkpt>
      <trkpt lat="44.45766" lon="5.16517">
        <ele>692</ele>
      </trkpt>
      <trkpt lat="44.45815" lon="5.16475">
        <ele>672</ele>
      </trkpt>
      <trkpt lat="44.45834" lon="5.16481">
        <ele>671</ele>
      </trkpt>
      <trkpt lat="44.4586" lon="5.16532">
        <ele>669</ele>
      </trkpt>
      <trkpt lat="44.45855" lon="5.16572">
        <ele>674</ele>
      </trkpt>
      <trkpt lat="44.45848" lon="5.16599">
        <ele>677</ele>
      </trkpt>
      <trkpt lat="44.45856" lon="5.16748">
        <ele>698</ele>
      </trkpt>
      <trkpt lat="44.45868" lon="5.16771">
        <ele>698</ele>
      </trkpt>
      <trkpt lat="44.45893" lon="5.16775">
        <ele>699</ele>
      </trkpt>
      <trkpt lat="44.45948" lon="5.16831">
        <ele>699</ele>
      </trkpt>
      <trkpt lat="44.45987" lon="5.16838">
        <ele>697</ele>
      </trkpt>
      <trkpt lat="44.46002" lon="5.16866">
        <ele>700</ele>
      </trkpt>
      <trkpt lat="44.46042" lon="5.16913">
        <ele>707</ele>
      </trkpt>
      <trkpt lat="44.46083" lon="5.16931">
        <ele>710</ele>
      </trkpt>
      <trkpt lat="44.46171" lon="5.16982">
        <ele>708</ele>
      </trkpt>
      <trkpt lat="44.46235" lon="5.17068">
        <ele>705</ele>
      </trkpt>
      <trkpt lat="44.46237" lon="5.1708">
        <ele>706</ele>
      </trkpt>
      <trkpt lat="44.46233" lon="5.17094">
        <ele>707</ele>
      </trkpt>
      <trkpt lat="44.4621" lon="5.17129">
        <ele>710</ele>
      </trkpt>
      <trkpt lat="44.46191" lon="5.17152">
        <ele>717</ele>
      </trkpt>
      <trkpt lat="44.4619" lon="5.17159">
        <ele>718</ele>
      </trkpt>
      <trkpt lat="44.46194" lon="5.17173">
        <ele>721</ele>
      </trkpt>
      <trkpt lat="44.4624" lon="5.17268">
        <ele>720</ele>
      </trkpt>
      <trkpt lat="44.46255" lon="5.17312">
        <ele>720</ele>
      </trkpt>
      <trkpt lat="44.46271" lon="5.17346">
        <ele>720</ele>
      </trkpt>
      <trkpt lat="44.46275" lon="5.17359">
        <ele>721</ele>
      </trkpt>
      <trkpt lat="44.46272" lon="5.17373">
        <ele>723</ele>
      </trkpt>
      <trkpt lat="44.46253" lon="5.17416">
        <ele>727</ele>
      </trkpt>
      <trkpt lat="44.46243" lon="5.17454">
        <ele>725</ele>
      </trkpt>
      <trkpt lat="44.46239" lon="5.17491">
        <ele>723</ele>
      </trkpt>
      <trkpt lat="44.46217" lon="5.17521">
        <ele>726</ele>
      </trkpt>
      <trkpt lat="44.46186" lon="5.17569">
        <ele>730</ele>
      </trkpt>
      <trkpt lat="44.46176" lon="5.17596">
        <ele>732</ele>
      </trkpt>
      <trkpt lat="44.46158" lon="5.17592">
        <ele>733</ele>
      </trkpt>
      <trkpt lat="44.46128" lon="5.1759">
        <ele>733</ele>
      </trkpt>
      <trkpt lat="44.46096" lon="5.17602">
        <ele>734</ele>
      </trkpt>
      <trkpt lat="44.45938" lon="5.1781">
        <ele>726</ele>
      </trkpt>
      <trkpt lat="44.45904" lon="5.17838">
        <ele>726</ele>
      </trkpt>
      <trkpt lat="44.45894" lon="5.17861">
        <ele>723</ele>
      </trkpt>
      <trkpt lat="44.45902" lon="5.17923">
        <ele>716</ele>
      </trkpt>
      <trkpt lat="44.45905" lon="5.17962">
        <ele>716</ele>
      </trkpt>
      <trkpt lat="44.45901" lon="5.17997">
        <ele>716</ele>
      </trkpt>
      <trkpt lat="44.45886" lon="5.18036">
        <ele>713</ele>
      </trkpt>
      <trkpt lat="44.45885" lon="5.18047">
        <ele>712</ele>
      </trkpt>
      <trkpt lat="44.45893" lon="5.18099">
        <ele>713</ele>
      </trkpt>
      <trkpt lat="44.45904" lon="5.18113">
        <ele>714</ele>
      </trkpt>
      <trkpt lat="44.45916" lon="5.1812">
        <ele>714</ele>
      </trkpt>
      <trkpt lat="44.45924" lon="5.1813">
        <ele>714</ele>
      </trkpt>
      <trkpt lat="44.45926" lon="5.18141">
        <ele>714</ele>
      </trkpt>
      <trkpt lat="44.45925" lon="5.1815">
        <ele>714</ele>
      </trkpt>
      <trkpt lat="44.45912" lon="5.18186">
        <ele>711</ele>
      </trkpt>
      <trkpt lat="44.45898" lon="5.18256">
        <ele>705</ele>
      </trkpt>
      <trkpt lat="44.45888" lon="5.18279">
        <ele>702</ele>
      </trkpt>
      <trkpt lat="44.45883" lon="5.18304">
        <ele>700</ele>
      </trkpt>
      <trkpt lat="44.45881" lon="5.18324">
        <ele>698</ele>
      </trkpt>
      <trkpt lat="44.45874" lon="5.18514">
        <ele>686</ele>
      </trkpt>
      <trkpt lat="44.45876" lon="5.1853">
        <ele>685</ele>
      </trkpt>
      <trkpt lat="44.45888" lon="5.1855">
        <ele>684</ele>
      </trkpt>
      <trkpt lat="44.45897" lon="5.18578">
        <ele>683</ele>
      </trkpt>
      <trkpt lat="44.459" lon="5.186">
        <ele>681</ele>
      </trkpt>
      <trkpt lat="44.45899" lon="5.18628">
        <ele>679</ele>
      </trkpt>
      <trkpt lat="44.45896" lon="5.18653">
        <ele>677</ele>
      </trkpt>
      <trkpt lat="44.4589" lon="5.18673">
        <ele>676</ele>
      </trkpt>
      <trkpt lat="44.45884" lon="5.18686">
        <ele>676</ele>
      </trkpt>
      <trkpt lat="44.45863" lon="5.18703">
        <ele>675</ele>
      </trkpt>
      <trkpt lat="44.45856" lon="5.18711">
        <ele>674</ele>
      </trkpt>
      <trkpt lat="44.45828" lon="5.18794">
        <ele>668</ele>
      </trkpt>
      <trkpt lat="44.45818" lon="5.18815">
        <ele>667</ele>
      </trkpt>
      <trkpt lat="44.4581" lon="5.18825">
        <ele>666</ele>
      </trkpt>
      <trkpt lat="44.45782" lon="5.1884">
        <ele>664</ele>
      </trkpt>
      <trkpt lat="44.45757" lon="5.18856">
        <ele>663</ele>
      </trkpt>
      <trkpt lat="44.45739" lon="5.1888">
        <ele>662</ele>
      </trkpt>
      <trkpt lat="44.45731" lon="5.18916">
        <ele>659</ele>
      </trkpt>
      <trkpt lat="44.45731" lon="5.18945">
        <ele>656</ele>
      </trkpt>
      <trkpt lat="44.45727" lon="5.18962">
        <ele>654</ele>
      </trkpt>
      <trkpt lat="44.4572" lon="5.18971">
        <ele>652</ele>
      </trkpt>
      <trkpt lat="44.45695" lon="5.18985">
        <ele>648</ele>
      </trkpt>
      <trkpt lat="44.45678" lon="5.18992">
        <ele>648</ele>
      </trkpt>
      <trkpt lat="44.4565" lon="5.19016">
        <ele>647</ele>
      </trkpt>
      <trkpt lat="44.45617" lon="5.19049">
        <ele>646</ele>
      </trkpt>
      <trkpt lat="44.45595" lon="5.1906">
        <ele>647</ele>
      </trkpt>
      <trkpt lat="44.45585" lon="5.19076">
        <ele>648</ele>
      </trkpt>
      <trkpt lat="44.45582" lon="5.19099">
        <ele>644</ele>
      </trkpt>
      <trkpt lat="44.45584" lon="5.19129">
        <ele>638</ele>
      </trkpt>
      <trkpt lat="44.45581" lon="5.19146">
        <ele>638</ele>
      </trkpt>
      <trkpt lat="44.45563" lon="5.19175">
        <ele>637</ele>
      </trkpt>
      <trkpt lat="44.4555" lon="5.19235">
        <ele>630</ele>
      </trkpt>
      <trkpt lat="44.45552" lon="5.19268">
        <ele>624</ele>
      </trkpt>
      <trkpt lat="44.45554" lon="5.19284">
        <ele>622</ele>
      </trkpt>
      <trkpt lat="44.45552" lon="5.19299">
        <ele>619</ele>
      </trkpt>
      <trkpt lat="44.45515" lon="5.19374">
        <ele>615</ele>
      </trkpt>
      <trkpt lat="44.45507" lon="5.19405">
        <ele>610</ele>
      </trkpt>
      <trkpt lat="44.45495" lon="5.19424">
        <ele>606</ele>
      </trkpt>
      <trkpt lat="44.45462" lon="5.19458">
        <ele>606</ele>
      </trkpt>
      <trkpt lat="44.45454" lon="5.19475">
        <ele>604</ele>
      </trkpt>
      <trkpt lat="44.45426" lon="5.19565">
        <ele>593</ele>
      </trkpt>
      <trkpt lat="44.45393" lon="5.19632">
        <ele>594</ele>
      </trkpt>
      <trkpt lat="44.45385" lon="5.19659">
        <ele>590</ele>
      </trkpt>
      <trkpt lat="44.45372" lon="5.19681">
        <ele>587</ele>
      </trkpt>
      <trkpt lat="44.4529" lon="5.19746">
        <ele>590</ele>
      </trkpt>
      <trkpt lat="44.4527" lon="5.19753">
        <ele>587</ele>
      </trkpt>
      <trkpt lat="44.45254" lon="5.19762">
        <ele>584</ele>
      </trkpt>
      <trkpt lat="44.45242" lon="5.19782">
        <ele>581</ele>
      </trkpt>
      <trkpt lat="44.45179" lon="5.19821">
        <ele>584</ele>
      </trkpt>
      <trkpt lat="44.45122" lon="5.19868">
        <ele>569</ele>
      </trkpt>
      <trkpt lat="44.45088" lon="5.19885">
        <ele>567</ele>
      </trkpt>
      <trkpt lat="44.45076" lon="5.19886">
        <ele>566</ele>
      </trkpt>
      <trkpt lat="44.45066" lon="5.19878">
        <ele>568</ele>
      </trkpt>
      <trkpt lat="44.45039" lon="5.19843">
        <ele>574</ele>
      </trkpt>
      <trkpt lat="44.45032" lon="5.19841">
        <ele>572</ele>
      </trkpt>
      <trkpt lat="44.45026" lon="5.19844">
        <ele>570</ele>
      </trkpt>
      <trkpt lat="44.45022" lon="5.19853">
        <ele>567</ele>
      </trkpt>
      <trkpt lat="44.45021" lon="5.19897">
        <ele>557</ele>
      </trkpt>
      <trkpt lat="44.45017" lon="5.19909">
        <ele>558</ele>
      </trkpt>
      <trkpt lat="44.45011" lon="5.19914">
        <ele>558</ele>
      </trkpt>
      <trkpt lat="44.44994" lon="5.19912">
        <ele>560</ele>
      </trkpt>
      <trkpt lat="44.44964" lon="5.19892">
        <ele>563</ele>
      </trkpt>
      <trkpt lat="44.44957" lon="5.19888">
        <ele>562</ele>
      </trkpt>
      <trkpt lat="44.44947" lon="5.19888">
        <ele>560</ele>
      </trkpt>
      <trkpt lat="44.44931" lon="5.19895">
        <ele>557</ele>
      </trkpt>
      <trkpt lat="44.44915" lon="5.19897">
        <ele>554</ele>
      </trkpt>
      <trkpt lat="44.44894" lon="5.19891">
        <ele>555</ele>
      </trkpt>
      <trkpt lat="44.44876" lon="5.19894">
        <ele>556</ele>
      </trkpt>
      <trkpt lat="44.44854" lon="5.19904">
        <ele>554</ele>
      </trkpt>
      <trkpt lat="44.4483" lon="5.19903">
        <ele>551</ele>
      </trkpt>
      <trkpt lat="44.44797" lon="5.19918">
        <ele>548</ele>
      </trkpt>
      <trkpt lat="44.44754" lon="5.19969">
        <ele>543</ele>
      </trkpt>
      <trkpt lat="44.44753" lon="5.19976">
        <ele>543</ele>
      </trkpt>
      <trkpt lat="44.44757" lon="5.19981">
        <ele>543</ele>
      </trkpt>
      <trkpt lat="44.44764" lon="5.19981">
        <ele>542</ele>
      </trkpt>
      <trkpt lat="44.44777" lon="5.19964">
        <ele>542</ele>
      </trkpt>
      <trkpt lat="44.44798" lon="5.1995">
        <ele>541</ele>
      </trkpt>
      <trkpt lat="44.44832" lon="5.19954">
        <ele>539</ele>
      </trkpt>
      <trkpt lat="44.44859" lon="5.19968">
        <ele>538</ele>
      </trkpt>
      <trkpt lat="44.44871" lon="5.1999">
        <ele>534</ele>
      </trkpt>
      <trkpt lat="44.44885" lon="5.20007">
        <ele>531</ele>
      </trkpt>
      <trkpt lat="44.44896" lon="5.20011">
        <ele>531</ele>
      </trkpt>
      <trkpt lat="44.44926" lon="5.20001">
        <ele>532</ele>
      </trkpt>
      <trkpt lat="44.44956" lon="5.19998">
        <ele>531</ele>
      </trkpt>
      <trkpt lat="44.44987" lon="5.2001">
        <ele>530</ele>
      </trkpt>
      <trkpt lat="44.45008" lon="5.20029">
        <ele>528</ele>
      </trkpt>
      <trkpt lat="44.4501" lon="5.20039">
        <ele>527</ele>
      </trkpt>
      <trkpt lat="44.45007" lon="5.2005">
        <ele>526</ele>
      </trkpt>
      <trkpt lat="44.44995" lon="5.20055">
        <ele>526</ele>
      </trkpt>
      <trkpt lat="44.44962" lon="5.20059">
        <ele>526</ele>
      </trkpt>
      <trkpt lat="44.4494" lon="5.20069">
        <ele>523</ele>
      </trkpt>
      <trkpt lat="44.44932" lon="5.2008">
        <ele>521</ele>
      </trkpt>
      <trkpt lat="44.44927" lon="5.20097">
        <ele>519</ele>
      </trkpt>
      <trkpt lat="44.44926" lon="5.20137">
        <ele>521</ele>
      </trkpt>
      <trkpt lat="44.44924" lon="5.20149">
        <ele>521</ele>
      </trkpt>
      <trkpt lat="44.44915" lon="5.20156">
        <ele>522</ele>
      </trkpt>
      <trkpt lat="44.44835" lon="5.2017">
        <ele>530</ele>
      </trkpt>
      <trkpt lat="44.44784" lon="5.20166">
        <ele>526</ele>
      </trkpt>
      <trkpt lat="44.44765" lon="5.20167">
        <ele>523</ele>
      </trkpt>
      <trkpt lat="44.44752" lon="5.20163">
        <ele>522</ele>
      </trkpt>
      <trkpt lat="44.44741" lon="5.20155">
        <ele>520</ele>
      </trkpt>
      <trkpt lat="44.44733" lon="5.20155">
        <ele>521</ele>
      </trkpt>
      <trkpt lat="44.44714" lon="5.20167">
        <ele>522</ele>
      </trkpt>
      <trkpt lat="44.44703" lon="5.20164">
        <ele>523</ele>
      </trkpt>
      <trkpt lat="44.44694" lon="5.20157">
        <ele>525</ele>
      </trkpt>
      <trkpt lat="44.44686" lon="5.20163">
        <ele>527</ele>
      </trkpt>
      <trkpt lat="44.44681" lon="5.20182">
        <ele>529</ele>
      </trkpt>
      <trkpt lat="44.44675" lon="5.20199">
        <ele>532</ele>
      </trkpt>
      <trkpt lat="44.44661" lon="5.20213">
        <ele>532</ele>
      </trkpt>
      <trkpt lat="44.44646" lon="5.20219">
        <ele>533</ele>
      </trkpt>
      <trkpt lat="44.44624" lon="5.20216">
        <ele>533</ele>
      </trkpt>
      <trkpt lat="44.44606" lon="5.20206">
        <ele>528</ele>
      </trkpt>
      <trkpt lat="44.44586" lon="5.20207">
        <ele>522</ele>
      </trkpt>
      <trkpt lat="44.44565" lon="5.20197">
        <ele>520</ele>
      </trkpt>
      <trkpt lat="44.44556" lon="5.20195">
        <ele>519</ele>
      </trkpt>
      <trkpt lat="44.44544" lon="5.20196">
        <ele>518</ele>
      </trkpt>
      <trkpt lat="44.44527" lon="5.20204">
        <ele>519</ele>
      </trkpt>
      <trkpt lat="44.44514" lon="5.20205">
        <ele>520</ele>
      </trkpt>
      <trkpt lat="44.44502" lon="5.20199">
        <ele>521</ele>
      </trkpt>
      <trkpt lat="44.44496" lon="5.2019">
        <ele>519</ele>
      </trkpt>
      <trkpt lat="44.44491" lon="5.20177">
        <ele>517</ele>
      </trkpt>
      <trkpt lat="44.44483" lon="5.20168">
        <ele>515</ele>
      </trkpt>
      <trkpt lat="44.44472" lon="5.20166">
        <ele>513</ele>
      </trkpt>
      <trkpt lat="44.44448" lon="5.20181">
        <ele>514</ele>
      </trkpt>
      <trkpt lat="44.44437" lon="5.20184">
        <ele>514</ele>
      </trkpt>
      <trkpt lat="44.44346" lon="5.20163">
        <ele>508</ele>
      </trkpt>
      <trkpt lat="44.44334" lon="5.20162">
        <ele>507</ele>
      </trkpt>
      <trkpt lat="44.4432" lon="5.20165">
        <ele>506</ele>
      </trkpt>
      <trkpt lat="44.44275" lon="5.20191">
        <ele>501</ele>
      </trkpt>
      <trkpt lat="44.44262" lon="5.20205">
        <ele>502</ele>
      </trkpt>
      <trkpt lat="44.44251" lon="5.20223">
        <ele>503</ele>
      </trkpt>
      <trkpt lat="44.44214" lon="5.20307">
        <ele>508</ele>
      </trkpt>
      <trkpt lat="44.44179" lon="5.20366">
        <ele>516</ele>
      </trkpt>
      <trkpt lat="44.44166" lon="5.20379">
        <ele>510</ele>
      </trkpt>
      <trkpt lat="44.44117" lon="5.2041">
        <ele>490</ele>
      </trkpt>
      <trkpt lat="44.441" lon="5.20429">
        <ele>489</ele>
      </trkpt>
      <trkpt lat="44.4409" lon="5.2045">
        <ele>489</ele>
      </trkpt>
      <trkpt lat="44.44064" lon="5.20519">
        <ele>497</ele>
      </trkpt>
      <trkpt lat="44.44051" lon="5.20561">
        <ele>500</ele>
      </trkpt>
      <trkpt lat="44.44044" lon="5.20596">
        <ele>502</ele>
      </trkpt>
      <trkpt lat="44.44029" lon="5.20715">
        <ele>483</ele>
      </trkpt>
      <trkpt lat="44.44029" lon="5.20729">
        <ele>484</ele>
      </trkpt>
      <trkpt lat="44.44033" lon="5.2074">
        <ele>484</ele>
      </trkpt>
      <trkpt lat="44.44053" lon="5.20769">
        <ele>486</ele>
      </trkpt>
      <trkpt lat="44.44084" lon="5.20831">
        <ele>481</ele>
      </trkpt>
      <trkpt lat="44.44095" lon="5.20844">
        <ele>480</ele>
      </trkpt>
      <trkpt lat="44.44157" lon="5.20899">
        <ele>474</ele>
      </trkpt>
      <trkpt lat="44.44165" lon="5.2091">
        <ele>473</ele>
      </trkpt>
      <trkpt lat="44.44131" lon="5.20938">
        <ele>469</ele>
      </trkpt>
      <trkpt lat="44.44112" lon="5.20954">
        <ele>471</ele>
      </trkpt>
      <trkpt lat="44.44104" lon="5.20956">
        <ele>472</ele>
      </trkpt>
      <trkpt lat="44.4409" lon="5.20956">
        <ele>473</ele>
      </trkpt>
      <trkpt lat="44.43981" lon="5.20947">
        <ele>469</ele>
      </trkpt>
      <trkpt lat="44.43912" lon="5.20962">
        <ele>467</ele>
      </trkpt>
      <trkpt lat="44.4386" lon="5.20954">
        <ele>464</ele>
      </trkpt>
      <trkpt lat="44.43835" lon="5.20962">
        <ele>464</ele>
      </trkpt>
      <trkpt lat="44.43809" lon="5.20979">
        <ele>463</ele>
      </trkpt>
      <trkpt lat="44.43778" lon="5.2102">
        <ele>465</ele>
      </trkpt>
      <trkpt lat="44.43736" lon="5.21069">
        <ele>465</ele>
      </trkpt>
      <trkpt lat="44.43729" lon="5.21077">
        <ele>464</ele>
      </trkpt>
      <trkpt lat="44.4372" lon="5.21088">
        <ele>463</ele>
      </trkpt>
      <trkpt lat="44.43692" lon="5.21138">
        <ele>459</ele>
      </trkpt>
      <trkpt lat="44.43673" lon="5.21161">
        <ele>458</ele>
      </trkpt>
      <trkpt lat="44.4366" lon="5.2117">
        <ele>458</ele>
      </trkpt>
      <trkpt lat="44.43639" lon="5.21179">
        <ele>458</ele>
      </trkpt>
      <trkpt lat="44.43574" lon="5.21198">
        <ele>456</ele>
      </trkpt>
      <trkpt lat="44.43544" lon="5.21211">
        <ele>451</ele>
      </trkpt>
      <trkpt lat="44.43522" lon="5.21224">
        <ele>448</ele>
      </trkpt>
      <trkpt lat="44.43513" lon="5.21229">
        <ele>449</ele>
      </trkpt>
      <trkpt lat="44.43411" lon="5.21285">
        <ele>460</ele>
      </trkpt>
      <trkpt lat="44.43394" lon="5.21288">
        <ele>458</ele>
      </trkpt>
      <trkpt lat="44.43344" lon="5.21287">
        <ele>451</ele>
      </trkpt>
      <trkpt lat="44.43319" lon="5.21291">
        <ele>451</ele>
      </trkpt>
      <trkpt lat="44.43269" lon="5.21314">
        <ele>451</ele>
      </trkpt>
      <trkpt lat="44.43243" lon="5.21329">
        <ele>448</ele>
      </trkpt>
      <trkpt lat="44.4317" lon="5.21394">
        <ele>438</ele>
      </trkpt>
      <trkpt lat="44.43104" lon="5.21457">
        <ele>433</ele>
      </trkpt>
      <trkpt lat="44.42905" lon="5.21678">
        <ele>426</ele>
      </trkpt>
      <trkpt lat="44.42873" lon="5.21706">
        <ele>425</ele>
      </trkpt>
      <trkpt lat="44.42777" lon="5.21748">
        <ele>420</ele>
      </trkpt>
      <trkpt lat="44.42753" lon="5.2174">
        <ele>417</ele>
      </trkpt>
      <trkpt lat="44.42735" lon="5.21717">
        <ele>415</ele>
      </trkpt>
      <trkpt lat="44.42724" lon="5.21702">
        <ele>415</ele>
      </trkpt>
      <trkpt lat="44.42719" lon="5.21704">
        <ele>414</ele>
      </trkpt>
      <trkpt lat="44.42624" lon="5.21757">
        <ele>412</ele>
      </trkpt>
      <trkpt lat="44.42603" lon="5.2176">
        <ele>412</ele>
      </trkpt>
      <trkpt lat="44.42458" lon="5.2173">
        <ele>410</ele>
      </trkpt>
      <trkpt lat="44.42446" lon="5.21723">
        <ele>410</ele>
      </trkpt>
      <trkpt lat="44.42435" lon="5.21716">
        <ele>410</ele>
      </trkpt>
      <trkpt lat="44.42422" lon="5.21702">
        <ele>410</ele>
      </trkpt>
      <trkpt lat="44.4241" lon="5.21677">
        <ele>413</ele>
      </trkpt>
      <trkpt lat="44.42401" lon="5.2164">
        <ele>417</ele>
      </trkpt>
      <trkpt lat="44.4236" lon="5.21434">
        <ele>407</ele>
      </trkpt>
      <trkpt lat="44.42356" lon="5.21396">
        <ele>408</ele>
      </trkpt>
      <trkpt lat="44.42354" lon="5.21358">
        <ele>409</ele>
      </trkpt>
      <trkpt lat="44.42351" lon="5.2133">
        <ele>408</ele>
      </trkpt>
      <trkpt lat="44.42339" lon="5.2129">
        <ele>407</ele>
      </trkpt>
      <trkpt lat="44.42323" lon="5.21252">
        <ele>406</ele>
      </trkpt>
      <trkpt lat="44.42309" lon="5.21227">
        <ele>405</ele>
      </trkpt>
      <trkpt lat="44.42279" lon="5.21198">
        <ele>401</ele>
      </trkpt>
      <trkpt lat="44.42257" lon="5.2117">
        <ele>397</ele>
      </trkpt>
      <trkpt lat="44.42218" lon="5.21081">
        <ele>399</ele>
      </trkpt>
      <trkpt lat="44.422" lon="5.21044">
        <ele>399</ele>
      </trkpt>
      <trkpt lat="44.42162" lon="5.20985">
        <ele>398</ele>
      </trkpt>
      <trkpt lat="44.42157" lon="5.20978">
        <ele>397</ele>
      </trkpt>
      <trkpt lat="44.42086" lon="5.20879">
        <ele>393</ele>
      </trkpt>
      <trkpt lat="44.42033" lon="5.20817">
        <ele>389</ele>
      </trkpt>
      <trkpt lat="44.4184" lon="5.20641">
        <ele>382</ele>
      </trkpt>
      <trkpt lat="44.41823" lon="5.20627">
        <ele>382</ele>
      </trkpt>
      <trkpt lat="44.41741" lon="5.20609">
        <ele>381</ele>
      </trkpt>
      <trkpt lat="44.41725" lon="5.20594">
        <ele>383</ele>
      </trkpt>
      <trkpt lat="44.41694" lon="5.20549">
        <ele>388</ele>
      </trkpt>
      <trkpt lat="44.41671" lon="5.20529">
        <ele>388</ele>
      </trkpt>
      <trkpt lat="44.41618" lon="5.205">
        <ele>387</ele>
      </trkpt>
      <trkpt lat="44.41599" lon="5.20495">
        <ele>386</ele>
      </trkpt>
      <trkpt lat="44.41563" lon="5.20497">
        <ele>385</ele>
      </trkpt>
      <trkpt lat="44.41543" lon="5.20494">
        <ele>385</ele>
      </trkpt>
      <trkpt lat="44.41514" lon="5.20481">
        <ele>386</ele>
      </trkpt>
      <trkpt lat="44.41486" lon="5.20479">
        <ele>382</ele>
      </trkpt>
      <trkpt lat="44.41442" lon="5.20482">
        <ele>375</ele>
      </trkpt>
      <trkpt lat="44.41422" lon="5.20478">
        <ele>374</ele>
      </trkpt>
      <trkpt lat="44.41363" lon="5.20456">
        <ele>372</ele>
      </trkpt>
      <trkpt lat="44.41339" lon="5.20444">
        <ele>371</ele>
      </trkpt>
      <trkpt lat="44.41175" lon="5.20315">
        <ele>364</ele>
      </trkpt>
      <trkpt lat="44.41155" lon="5.20291">
        <ele>364</ele>
      </trkpt>
      <trkpt lat="44.41119" lon="5.2024">
        <ele>364</ele>
      </trkpt>
      <trkpt lat="44.41106" lon="5.20224">
        <ele>364</ele>
      </trkpt>
      <trkpt lat="44.41086" lon="5.20209">
        <ele>363</ele>
      </trkpt>
      <trkpt lat="44.41056" lon="5.20196">
        <ele>361</ele>
      </trkpt>
      <trkpt lat="44.40923" lon="5.20147">
        <ele>355</ele>
      </trkpt>
      <trkpt lat="44.40884" lon="5.20136">
        <ele>357</ele>
      </trkpt>
      <trkpt lat="44.40812" lon="5.20102">
        <ele>357</ele>
      </trkpt>
      <trkpt lat="44.40756" lon="5.20082">
        <ele>357</ele>
      </trkpt>
      <trkpt lat="44.40731" lon="5.20067">
        <ele>357</ele>
      </trkpt>
      <trkpt lat="44.40556" lon="5.19866">
        <ele>354</ele>
      </trkpt>
      <trkpt lat="44.40539" lon="5.19854">
        <ele>355</ele>
      </trkpt>
      <trkpt lat="44.40501" lon="5.19831">
        <ele>356</ele>
      </trkpt>
      <trkpt lat="44.405" lon="5.19838">
        <ele>355</ele>
      </trkpt>
      <trkpt lat="44.40495" lon="5.19847">
        <ele>355</ele>
      </trkpt>
      <trkpt lat="44.40442" lon="5.19948">
        <ele>345</ele>
      </trkpt>
      <trkpt lat="44.40356" lon="5.20101">
        <ele>340</ele>
      </trkpt>
      <trkpt lat="44.40353" lon="5.20112">
        <ele>340</ele>
      </trkpt>
      <trkpt lat="44.40354" lon="5.20125">
        <ele>341</ele>
      </trkpt>
      <trkpt lat="44.4038" lon="5.20206">
        <ele>343</ele>
      </trkpt>
      <trkpt lat="44.40355" lon="5.2024">
        <ele>345</ele>
      </trkpt>
      <trkpt lat="44.40349" lon="5.20239">
        <ele>345</ele>
      </trkpt>
      <trkpt lat="44.40324" lon="5.20208">
        <ele>344</ele>
      </trkpt>
      <trkpt lat="44.40318" lon="5.20202">
        <ele>344</ele>
      </trkpt>
      <trkpt lat="44.40312" lon="5.202">
        <ele>344</ele>
      </trkpt>
      <trkpt lat="44.40304" lon="5.20201">
        <ele>344</ele>
      </trkpt>
      <trkpt lat="44.40248" lon="5.20236">
        <ele>346</ele>
      </trkpt>
      <trkpt lat="44.40244" lon="5.20226">
        <ele>346</ele>
      </trkpt>
      <trkpt lat="44.40238" lon="5.2018">
        <ele>346</ele>
      </trkpt>
      <trkpt lat="44.4022" lon="5.20103">
        <ele>343</ele>
      </trkpt>
      <trkpt lat="44.40208" lon="5.2007">
        <ele>342</ele>
      </trkpt>
      <trkpt lat="44.40195" lon="5.20059">
        <ele>341</ele>
      </trkpt>
      <trkpt lat="44.40175" lon="5.20059">
        <ele>342</ele>
      </trkpt>
      <trkpt lat="44.40156" lon="5.20073">
        <ele>343</ele>
      </trkpt>
      <trkpt lat="44.40118" lon="5.2014">
        <ele>343</ele>
      </trkpt>
      <trkpt lat="44.40107" lon="5.20156">
        <ele>343</ele>
      </trkpt>
      <trkpt lat="44.40093" lon="5.20163">
        <ele>343</ele>
      </trkpt>
      <trkpt lat="44.40069" lon="5.2017">
        <ele>343</ele>
      </trkpt>
      <trkpt lat="44.40041" lon="5.20195">
        <ele>343</ele>
      </trkpt>
      <trkpt lat="44.40015" lon="5.20237">
        <ele>344</ele>
      </trkpt>
      <trkpt lat="44.40003" lon="5.20247">
        <ele>344</ele>
      </trkpt>
      <trkpt lat="44.39968" lon="5.20236">
        <ele>345</ele>
      </trkpt>
      <trkpt lat="44.39936" lon="5.2022">
        <ele>343</ele>
      </trkpt>
      <trkpt lat="44.39921" lon="5.202">
        <ele>342</ele>
      </trkpt>
      <trkpt lat="44.39907" lon="5.20156">
        <ele>341</ele>
      </trkpt>
      <trkpt lat="44.39895" lon="5.20135">
        <ele>340</ele>
      </trkpt>
      <trkpt lat="44.39886" lon="5.20129">
        <ele>340</ele>
      </trkpt>
      <trkpt lat="44.39881" lon="5.20132">
        <ele>341</ele>
      </trkpt>
      <trkpt lat="44.39863" lon="5.20206">
        <ele>343</ele>
      </trkpt>
      <trkpt lat="44.39858" lon="5.20219">
        <ele>344</ele>
      </trkpt>
      <trkpt lat="44.39835" lon="5.20245">
        <ele>347</ele>
      </trkpt>
      <trkpt lat="44.3983" lon="5.20256">
        <ele>348</ele>
      </trkpt>
      <trkpt lat="44.39823" lon="5.20289">
        <ele>350</ele>
      </trkpt>
      <trkpt lat="44.39816" lon="5.20364">
        <ele>354</ele>
      </trkpt>
      <trkpt lat="44.39801" lon="5.20418">
        <ele>357</ele>
      </trkpt>
      <trkpt lat="44.39785" lon="5.20443">
        <ele>358</ele>
      </trkpt>
      <trkpt lat="44.39777" lon="5.20463">
        <ele>359</ele>
      </trkpt>
      <trkpt lat="44.39765" lon="5.20509">
        <ele>362</ele>
      </trkpt>
      <trkpt lat="44.39756" lon="5.2053">
        <ele>363</ele>
      </trkpt>
      <trkpt lat="44.39726" lon="5.20555">
        <ele>363</ele>
      </trkpt>
      <trkpt lat="44.39701" lon="5.20562">
        <ele>363</ele>
      </trkpt>
      <trkpt lat="44.39663" lon="5.20592">
        <ele>365</ele>
      </trkpt>
      <trkpt lat="44.39652" lon="5.20594">
        <ele>364</ele>
      </trkpt>
      <trkpt lat="44.39625" lon="5.20591">
        <ele>363</ele>
      </trkpt>
      <trkpt lat="44.39608" lon="5.20594">
        <ele>362</ele>
      </trkpt>
      <trkpt lat="44.39558" lon="5.20613">
        <ele>358</ele>
      </trkpt>
      <trkpt lat="44.39532" lon="5.20619">
        <ele>355</ele>
      </trkpt>
      <trkpt lat="44.39507" lon="5.20619">
        <ele>353</ele>
      </trkpt>
      <trkpt lat="44.39473" lon="5.20626">
        <ele>351</ele>
      </trkpt>
      <trkpt lat="44.3945" lon="5.20641">
        <ele>350</ele>
      </trkpt>
      <trkpt lat="44.3944" lon="5.20656">
        <ele>349</ele>
      </trkpt>
      <trkpt lat="44.3941" lon="5.20677">
        <ele>347</ele>
      </trkpt>
      <trkpt lat="44.394" lon="5.2068">
        <ele>347</ele>
      </trkpt>
      <trkpt lat="44.39359" lon="5.20677">
        <ele>346</ele>
      </trkpt>
      <trkpt lat="44.39348" lon="5.20672">
        <ele>346</ele>
      </trkpt>
      <trkpt lat="44.39305" lon="5.20593">
        <ele>343</ele>
      </trkpt>
      <trkpt lat="44.3929" lon="5.20531">
        <ele>347</ele>
      </trkpt>
      <trkpt lat="44.39284" lon="5.20519">
        <ele>345</ele>
      </trkpt>
      <trkpt lat="44.39273" lon="5.20515">
        <ele>343</ele>
      </trkpt>
      <trkpt lat="44.39259" lon="5.20523">
        <ele>340</ele>
      </trkpt>
      <trkpt lat="44.39172" lon="5.20551">
        <ele>324</ele>
      </trkpt>
      <trkpt lat="44.39253" lon="5.21101">
        <ele>325</ele>
      </trkpt>
      <trkpt lat="44.3926" lon="5.21149">
        <ele>327</ele>
      </trkpt>
      <trkpt lat="44.39262" lon="5.2117">
        <ele>328</ele>
      </trkpt>
      <trkpt lat="44.39259" lon="5.21205">
        <ele>329</ele>
      </trkpt>
      <trkpt lat="44.39253" lon="5.21238">
        <ele>330</ele>
      </trkpt>
      <trkpt lat="44.39113" lon="5.21681">
        <ele>335</ele>
      </trkpt>
      <trkpt lat="44.39099" lon="5.21716">
        <ele>334</ele>
      </trkpt>
      <trkpt lat="44.39087" lon="5.21737">
        <ele>334</ele>
      </trkpt>
      <trkpt lat="44.39055" lon="5.21782">
        <ele>334</ele>
      </trkpt>
      <trkpt lat="44.39045" lon="5.21802">
        <ele>336</ele>
      </trkpt>
      <trkpt lat="44.39026" lon="5.21849">
        <ele>340</ele>
      </trkpt>
      <trkpt lat="44.39003" lon="5.21926">
        <ele>338</ele>
      </trkpt>
      <trkpt lat="44.39" lon="5.21948">
        <ele>339</ele>
      </trkpt>
      <trkpt lat="44.39" lon="5.21961">
        <ele>339</ele>
      </trkpt>
      <trkpt lat="44.39035" lon="5.22131">
        <ele>343</ele>
      </trkpt>
      <trkpt lat="44.39035" lon="5.22151">
        <ele>345</ele>
      </trkpt>
      <trkpt lat="44.39033" lon="5.2217">
        <ele>346</ele>
      </trkpt>
      <trkpt lat="44.39026" lon="5.22195">
        <ele>348</ele>
      </trkpt>
      <trkpt lat="44.39005" lon="5.22246">
        <ele>348</ele>
      </trkpt>
      <trkpt lat="44.38996" lon="5.22262">
        <ele>348</ele>
      </trkpt>
      <trkpt lat="44.38946" lon="5.22331">
        <ele>347</ele>
      </trkpt>
      <trkpt lat="44.38937" lon="5.22347">
        <ele>347</ele>
      </trkpt>
      <trkpt lat="44.38928" lon="5.22372">
        <ele>348</ele>
      </trkpt>
      <trkpt lat="44.38923" lon="5.22404">
        <ele>348</ele>
      </trkpt>
      <trkpt lat="44.38916" lon="5.22473">
        <ele>348</ele>
      </trkpt>
      <trkpt lat="44.38899" lon="5.22566">
        <ele>347</ele>
      </trkpt>
      <trkpt lat="44.3889" lon="5.226">
        <ele>347</ele>
      </trkpt>
      <trkpt lat="44.3888" lon="5.22627">
        <ele>347</ele>
      </trkpt>
      <trkpt lat="44.38839" lon="5.22721">
        <ele>343</ele>
      </trkpt>
      <trkpt lat="44.38832" lon="5.22747">
        <ele>343</ele>
      </trkpt>
      <trkpt lat="44.38826" lon="5.2279">
        <ele>342</ele>
      </trkpt>
      <trkpt lat="44.38827" lon="5.22821">
        <ele>343</ele>
      </trkpt>
      <trkpt lat="44.3884" lon="5.2293">
        <ele>345</ele>
      </trkpt>
      <trkpt lat="44.38839" lon="5.2296">
        <ele>344</ele>
      </trkpt>
      <trkpt lat="44.38836" lon="5.22989">
        <ele>344</ele>
      </trkpt>
      <trkpt lat="44.38799" lon="5.23126">
        <ele>342</ele>
      </trkpt>
      <trkpt lat="44.38792" lon="5.23144">
        <ele>340</ele>
      </trkpt>
      <trkpt lat="44.38783" lon="5.23178">
        <ele>337</ele>
      </trkpt>
      <trkpt lat="44.38781" lon="5.23198">
        <ele>336</ele>
      </trkpt>
      <trkpt lat="44.38783" lon="5.23217">
        <ele>334</ele>
      </trkpt>
      <trkpt lat="44.38787" lon="5.23238">
        <ele>333</ele>
      </trkpt>
      <trkpt lat="44.38794" lon="5.23254">
        <ele>333</ele>
      </trkpt>
      <trkpt lat="44.38801" lon="5.23267">
        <ele>333</ele>
      </trkpt>
      <trkpt lat="44.38813" lon="5.2328">
        <ele>333</ele>
      </trkpt>
      <trkpt lat="44.3882" lon="5.23286">
        <ele>333</ele>
      </trkpt>
      <trkpt lat="44.38818" lon="5.2329">
        <ele>333</ele>
      </trkpt>
      <trkpt lat="44.38817" lon="5.2331">
        <ele>332</ele>
      </trkpt>
      <trkpt lat="44.38805" lon="5.234">
        <ele>331</ele>
      </trkpt>
      <trkpt lat="44.38796" lon="5.23446">
        <ele>333</ele>
      </trkpt>
      <trkpt lat="44.3878" lon="5.23504">
        <ele>336</ele>
      </trkpt>
      <trkpt lat="44.38766" lon="5.23547">
        <ele>339</ele>
      </trkpt>
      <trkpt lat="44.38745" lon="5.23602">
        <ele>344</ele>
      </trkpt>
      <trkpt lat="44.38708" lon="5.23664">
        <ele>349</ele>
      </trkpt>
      <trkpt lat="44.38693" lon="5.23704">
        <ele>352</ele>
      </trkpt>
      <trkpt lat="44.3868" lon="5.23802">
        <ele>358</ele>
      </trkpt>
      <trkpt lat="44.38657" lon="5.23897">
        <ele>356</ele>
      </trkpt>
      <trkpt lat="44.38639" lon="5.23938">
        <ele>356</ele>
      </trkpt>
      <trkpt lat="44.3855" lon="5.24084">
        <ele>352</ele>
      </trkpt>
      <trkpt lat="44.38437" lon="5.24229">
        <ele>349</ele>
      </trkpt>
      <trkpt lat="44.38389" lon="5.24279">
        <ele>349</ele>
      </trkpt>
      <trkpt lat="44.38367" lon="5.24306">
        <ele>348</ele>
      </trkpt>
      <trkpt lat="44.38345" lon="5.2433">
        <ele>347</ele>
      </trkpt>
      <trkpt lat="44.38327" lon="5.24342">
        <ele>346</ele>
      </trkpt>
      <trkpt lat="44.38237" lon="5.24385">
        <ele>347</ele>
      </trkpt>
      <trkpt lat="44.38212" lon="5.24393">
        <ele>347</ele>
      </trkpt>
      <trkpt lat="44.38171" lon="5.24402">
        <ele>348</ele>
      </trkpt>
      <trkpt lat="44.38124" lon="5.24413">
        <ele>349</ele>
      </trkpt>
      <trkpt lat="44.38108" lon="5.24419">
        <ele>349</ele>
      </trkpt>
      <trkpt lat="44.38094" lon="5.24431">
        <ele>350</ele>
      </trkpt>
      <trkpt lat="44.38081" lon="5.24449">
        <ele>350</ele>
      </trkpt>
      <trkpt lat="44.38057" lon="5.2449">
        <ele>353</ele>
      </trkpt>
      <trkpt lat="44.38044" lon="5.24508">
        <ele>355</ele>
      </trkpt>
      <trkpt lat="44.38028" lon="5.24524">
        <ele>354</ele>
      </trkpt>
      <trkpt lat="44.37976" lon="5.24561">
        <ele>352</ele>
      </trkpt>
      <trkpt lat="44.37919" lon="5.24593">
        <ele>355</ele>
      </trkpt>
      <trkpt lat="44.37901" lon="5.24606">
        <ele>356</ele>
      </trkpt>
      <trkpt lat="44.37885" lon="5.24622">
        <ele>356</ele>
      </trkpt>
      <trkpt lat="44.37872" lon="5.24641">
        <ele>358</ele>
      </trkpt>
      <trkpt lat="44.37847" lon="5.24683">
        <ele>361</ele>
      </trkpt>
      <trkpt lat="44.37601" lon="5.25026">
        <ele>367</ele>
      </trkpt>
      <trkpt lat="44.37587" lon="5.25043">
        <ele>367</ele>
      </trkpt>
      <trkpt lat="44.37542" lon="5.25086">
        <ele>365</ele>
      </trkpt>
      <trkpt lat="44.37518" lon="5.25116">
        <ele>366</ele>
      </trkpt>
      <trkpt lat="44.37499" lon="5.25155">
        <ele>368</ele>
      </trkpt>
      <trkpt lat="44.37491" lon="5.25177">
        <ele>370</ele>
      </trkpt>
      <trkpt lat="44.37484" lon="5.252">
        <ele>372</ele>
      </trkpt>
      <trkpt lat="44.37463" lon="5.25281">
        <ele>378</ele>
      </trkpt>
      <trkpt lat="44.3745" lon="5.2531">
        <ele>381</ele>
      </trkpt>
      <trkpt lat="44.37428" lon="5.25342">
        <ele>385</ele>
      </trkpt>
      <trkpt lat="44.37413" lon="5.25356">
        <ele>382</ele>
      </trkpt>
      <trkpt lat="44.37398" lon="5.25367">
        <ele>379</ele>
      </trkpt>
      <trkpt lat="44.37365" lon="5.25384">
        <ele>372</ele>
      </trkpt>
      <trkpt lat="44.37331" lon="5.2539">
        <ele>369</ele>
      </trkpt>
      <trkpt lat="44.37265" lon="5.25388">
        <ele>364</ele>
      </trkpt>
      <trkpt lat="44.3725" lon="5.25389">
        <ele>365</ele>
      </trkpt>
      <trkpt lat="44.37237" lon="5.25394">
        <ele>367</ele>
      </trkpt>
      <trkpt lat="44.37225" lon="5.25406">
        <ele>368</ele>
      </trkpt>
      <trkpt lat="44.3718" lon="5.25494">
        <ele>367</ele>
      </trkpt>
      <trkpt lat="44.37094" lon="5.25676">
        <ele>377</ele>
      </trkpt>
      <trkpt lat="44.37077" lon="5.25722">
        <ele>378</ele>
      </trkpt>
      <trkpt lat="44.37022" lon="5.25892">
        <ele>385</ele>
      </trkpt>
      <trkpt lat="44.3697" lon="5.25996">
        <ele>379</ele>
      </trkpt>
      <trkpt lat="44.36958" lon="5.26017">
        <ele>378</ele>
      </trkpt>
      <trkpt lat="44.36945" lon="5.26038">
        <ele>378</ele>
      </trkpt>
      <trkpt lat="44.36764" lon="5.26237">
        <ele>378</ele>
      </trkpt>
      <trkpt lat="44.36726" lon="5.26287">
        <ele>380</ele>
      </trkpt>
      <trkpt lat="44.36712" lon="5.26301">
        <ele>380</ele>
      </trkpt>
      <trkpt lat="44.36698" lon="5.2631">
        <ele>380</ele>
      </trkpt>
      <trkpt lat="44.36677" lon="5.26317">
        <ele>380</ele>
      </trkpt>
      <trkpt lat="44.36632" lon="5.26318">
        <ele>379</ele>
      </trkpt>
      <trkpt lat="44.36614" lon="5.2632">
        <ele>379</ele>
      </trkpt>
      <trkpt lat="44.36596" lon="5.26323">
        <ele>379</ele>
      </trkpt>
      <trkpt lat="44.36579" lon="5.2633">
        <ele>379</ele>
      </trkpt>
      <trkpt lat="44.36563" lon="5.26339">
        <ele>381</ele>
      </trkpt>
      <trkpt lat="44.36549" lon="5.26353">
        <ele>383</ele>
      </trkpt>
      <trkpt lat="44.36524" lon="5.26382">
        <ele>387</ele>
      </trkpt>
      <trkpt lat="44.3651" lon="5.26395">
        <ele>386</ele>
      </trkpt>
      <trkpt lat="44.36466" lon="5.26415">
        <ele>385</ele>
      </trkpt>
      <trkpt lat="44.36451" lon="5.26425">
        <ele>386</ele>
      </trkpt>
      <trkpt lat="44.36434" lon="5.26443">
        <ele>388</ele>
      </trkpt>
      <trkpt lat="44.36421" lon="5.2646">
        <ele>389</ele>
      </trkpt>
      <trkpt lat="44.3641" lon="5.26479">
        <ele>390</ele>
      </trkpt>
      <trkpt lat="44.36401" lon="5.26498">
        <ele>391</ele>
      </trkpt>
      <trkpt lat="44.36387" lon="5.26545">
        <ele>394</ele>
      </trkpt>
      <trkpt lat="44.36332" lon="5.26633">
        <ele>393</ele>
      </trkpt>
      <trkpt lat="44.36314" lon="5.26654">
        <ele>394</ele>
      </trkpt>
      <trkpt lat="44.36237" lon="5.26734">
        <ele>402</ele>
      </trkpt>
      <trkpt lat="44.36159" lon="5.26796">
        <ele>402</ele>
      </trkpt>
      <trkpt lat="44.3614" lon="5.26806">
        <ele>401</ele>
      </trkpt>
      <trkpt lat="44.36101" lon="5.26819">
        <ele>399</ele>
      </trkpt>
      <trkpt lat="44.36082" lon="5.26824">
        <ele>398</ele>
      </trkpt>
      <trkpt lat="44.36021" lon="5.26829">
        <ele>394</ele>
      </trkpt>
      <trkpt lat="44.35964" lon="5.26829">
        <ele>393</ele>
      </trkpt>
      <trkpt lat="44.35892" lon="5.2682">
        <ele>392</ele>
      </trkpt>
      <trkpt lat="44.35877" lon="5.2682">
        <ele>392</ele>
      </trkpt>
      <trkpt lat="44.35862" lon="5.26825">
        <ele>391</ele>
      </trkpt>
      <trkpt lat="44.35848" lon="5.26834">
        <ele>391</ele>
      </trkpt>
      <trkpt lat="44.35836" lon="5.26846">
        <ele>392</ele>
      </trkpt>
      <trkpt lat="44.35819" lon="5.26879">
        <ele>394</ele>
      </trkpt>
      <trkpt lat="44.35804" lon="5.26911">
        <ele>392</ele>
      </trkpt>
      <trkpt lat="44.35748" lon="5.27035">
        <ele>392</ele>
      </trkpt>
      <trkpt lat="44.35698" lon="5.27118">
        <ele>397</ele>
      </trkpt>
      <trkpt lat="44.35684" lon="5.27148">
        <ele>400</ele>
      </trkpt>
      <trkpt lat="44.35673" lon="5.27177">
        <ele>402</ele>
      </trkpt>
      <trkpt lat="44.35657" lon="5.27236">
        <ele>411</ele>
      </trkpt>
      <trkpt lat="44.35646" lon="5.27257">
        <ele>409</ele>
      </trkpt>
      <trkpt lat="44.35634" lon="5.27277">
        <ele>406</ele>
      </trkpt>
      <trkpt lat="44.35518" lon="5.27432">
        <ele>393</ele>
      </trkpt>
      <trkpt lat="44.35455" lon="5.27512">
        <ele>400</ele>
      </trkpt>
      <trkpt lat="44.35421" lon="5.27552">
        <ele>399</ele>
      </trkpt>
      <trkpt lat="44.35277" lon="5.27686">
        <ele>399</ele>
      </trkpt>
      <trkpt lat="44.35251" lon="5.27712">
        <ele>401</ele>
      </trkpt>
      <trkpt lat="44.35236" lon="5.27734">
        <ele>402</ele>
      </trkpt>
      <trkpt lat="44.35162" lon="5.27872">
        <ele>408</ele>
      </trkpt>
      <trkpt lat="44.35142" lon="5.27902">
        <ele>406</ele>
      </trkpt>
      <trkpt lat="44.35128" lon="5.27915">
        <ele>405</ele>
      </trkpt>
      <trkpt lat="44.35078" lon="5.27952">
        <ele>399</ele>
      </trkpt>
      <trkpt lat="44.34944" lon="5.28026">
        <ele>397</ele>
      </trkpt>
      <trkpt lat="44.34897" lon="5.28061">
        <ele>398</ele>
      </trkpt>
      <trkpt lat="44.34866" lon="5.28088">
        <ele>401</ele>
      </trkpt>
      <trkpt lat="44.34846" lon="5.28111">
        <ele>403</ele>
      </trkpt>
      <trkpt lat="44.34833" lon="5.28139">
        <ele>405</ele>
      </trkpt>
      <trkpt lat="44.34828" lon="5.28154">
        <ele>406</ele>
      </trkpt>
      <trkpt lat="44.34815" lon="5.28217">
        <ele>411</ele>
      </trkpt>
      <trkpt lat="44.34803" lon="5.2826">
        <ele>411</ele>
      </trkpt>
      <trkpt lat="44.34787" lon="5.28284">
        <ele>411</ele>
      </trkpt>
      <trkpt lat="44.34777" lon="5.28294">
        <ele>410</ele>
      </trkpt>
      <trkpt lat="44.34767" lon="5.28301">
        <ele>409</ele>
      </trkpt>
      <trkpt lat="44.34748" lon="5.28307">
        <ele>407</ele>
      </trkpt>
      <trkpt lat="44.34729" lon="5.28311">
        <ele>406</ele>
      </trkpt>
      <trkpt lat="44.34714" lon="5.28311">
        <ele>406</ele>
      </trkpt>
      <trkpt lat="44.34571" lon="5.28284">
        <ele>404</ele>
      </trkpt>
      <trkpt lat="44.34559" lon="5.28285">
        <ele>405</ele>
      </trkpt>
      <trkpt lat="44.34525" lon="5.28292">
        <ele>407</ele>
      </trkpt>
      <trkpt lat="44.34489" lon="5.28306">
        <ele>407</ele>
      </trkpt>
      <trkpt lat="44.34467" lon="5.28335">
        <ele>407</ele>
      </trkpt>
      <trkpt lat="44.34454" lon="5.28369">
        <ele>408</ele>
      </trkpt>
      <trkpt lat="44.34454" lon="5.28397">
        <ele>408</ele>
      </trkpt>
      <trkpt lat="44.34442" lon="5.284">
        <ele>408</ele>
      </trkpt>
      <trkpt lat="44.34435" lon="5.28399">
        <ele>407</ele>
      </trkpt>
      <trkpt lat="44.3417" lon="5.28296">
        <ele>404</ele>
      </trkpt>
      <trkpt lat="44.34154" lon="5.28287">
        <ele>405</ele>
      </trkpt>
      <trkpt lat="44.34147" lon="5.28281">
        <ele>406</ele>
      </trkpt>
      <trkpt lat="44.34142" lon="5.28272">
        <ele>406</ele>
      </trkpt>
      <trkpt lat="44.34143" lon="5.28256">
        <ele>407</ele>
      </trkpt>
      <trkpt lat="44.34156" lon="5.28216">
        <ele>409</ele>
      </trkpt>
      <trkpt lat="44.34157" lon="5.28205">
        <ele>409</ele>
      </trkpt>
      <trkpt lat="44.34153" lon="5.28192">
        <ele>409</ele>
      </trkpt>
      <trkpt lat="44.34098" lon="5.28105">
        <ele>410</ele>
      </trkpt>
      <trkpt lat="44.34079" lon="5.28086">
        <ele>411</ele>
      </trkpt>
      <trkpt lat="44.34054" lon="5.28078">
        <ele>412</ele>
      </trkpt>
      <trkpt lat="44.34015" lon="5.2808">
        <ele>412</ele>
      </trkpt>
      <trkpt lat="44.33901" lon="5.28094">
        <ele>414</ele>
      </trkpt>
      <trkpt lat="44.33875" lon="5.28092">
        <ele>414</ele>
      </trkpt>
      <trkpt lat="44.33777" lon="5.28046">
        <ele>413</ele>
      </trkpt>
      <trkpt lat="44.33747" lon="5.28027">
        <ele>415</ele>
      </trkpt>
      <trkpt lat="44.33666" lon="5.27951">
        <ele>422</ele>
      </trkpt>
      <trkpt lat="44.33577" lon="5.27865">
        <ele>431</ele>
      </trkpt>
      <trkpt lat="44.33563" lon="5.2786">
        <ele>432</ele>
      </trkpt>
      <trkpt lat="44.33557" lon="5.27862">
        <ele>432</ele>
      </trkpt>
      <trkpt lat="44.33544" lon="5.27871">
        <ele>433</ele>
      </trkpt>
      <trkpt lat="44.33537" lon="5.27884">
        <ele>433</ele>
      </trkpt>
      <trkpt lat="44.33505" lon="5.28027">
        <ele>441</ele>
      </trkpt>
      <trkpt lat="44.33497" lon="5.2804">
        <ele>442</ele>
      </trkpt>
      <trkpt lat="44.33493" lon="5.28042">
        <ele>442</ele>
      </trkpt>
      <trkpt lat="44.33488" lon="5.28043">
        <ele>442</ele>
      </trkpt>
      <trkpt lat="44.3348" lon="5.28038">
        <ele>442</ele>
      </trkpt>
      <trkpt lat="44.33474" lon="5.28027">
        <ele>443</ele>
      </trkpt>
      <trkpt lat="44.33394" lon="5.27788">
        <ele>452</ele>
      </trkpt>
      <trkpt lat="44.33386" lon="5.2777">
        <ele>453</ele>
      </trkpt>
      <trkpt lat="44.33379" lon="5.27758">
        <ele>454</ele>
      </trkpt>
      <trkpt lat="44.33343" lon="5.27733">
        <ele>458</ele>
      </trkpt>
      <trkpt lat="44.33312" lon="5.27714">
        <ele>462</ele>
      </trkpt>
      <trkpt lat="44.33294" lon="5.27696">
        <ele>465</ele>
      </trkpt>
      <trkpt lat="44.33289" lon="5.27684">
        <ele>465</ele>
      </trkpt>
      <trkpt lat="44.33287" lon="5.27672">
        <ele>466</ele>
      </trkpt>
      <trkpt lat="44.33283" lon="5.27629">
        <ele>467</ele>
      </trkpt>
      <trkpt lat="44.3328" lon="5.27611">
        <ele>468</ele>
      </trkpt>
      <trkpt lat="44.33276" lon="5.276">
        <ele>469</ele>
      </trkpt>
      <trkpt lat="44.33258" lon="5.27563">
        <ele>471</ele>
      </trkpt>
      <trkpt lat="44.33253" lon="5.27548">
        <ele>473</ele>
      </trkpt>
      <trkpt lat="44.33254" lon="5.2754">
        <ele>473</ele>
      </trkpt>
      <trkpt lat="44.33259" lon="5.27529">
        <ele>474</ele>
      </trkpt>
      <trkpt lat="44.33271" lon="5.27522">
        <ele>476</ele>
      </trkpt>
      <trkpt lat="44.33309" lon="5.27506">
        <ele>475</ele>
      </trkpt>
      <trkpt lat="44.33319" lon="5.2749">
        <ele>474</ele>
      </trkpt>
      <trkpt lat="44.33322" lon="5.27477">
        <ele>474</ele>
      </trkpt>
      <trkpt lat="44.33322" lon="5.27463">
        <ele>473</ele>
      </trkpt>
      <trkpt lat="44.3332" lon="5.2745">
        <ele>473</ele>
      </trkpt>
      <trkpt lat="44.33307" lon="5.27422">
        <ele>475</ele>
      </trkpt>
      <trkpt lat="44.33301" lon="5.27404">
        <ele>477</ele>
      </trkpt>
      <trkpt lat="44.33289" lon="5.27329">
        <ele>482</ele>
      </trkpt>
      <trkpt lat="44.33281" lon="5.27285">
        <ele>487</ele>
      </trkpt>
      <trkpt lat="44.33282" lon="5.27266">
        <ele>489</ele>
      </trkpt>
      <trkpt lat="44.33286" lon="5.27251">
        <ele>489</ele>
      </trkpt>
      <trkpt lat="44.33292" lon="5.27241">
        <ele>489</ele>
      </trkpt>
      <trkpt lat="44.3333" lon="5.27221">
        <ele>490</ele>
      </trkpt>
      <trkpt lat="44.33338" lon="5.27214">
        <ele>490</ele>
      </trkpt>
      <trkpt lat="44.33345" lon="5.27202">
        <ele>490</ele>
      </trkpt>
      <trkpt lat="44.3335" lon="5.27183">
        <ele>490</ele>
      </trkpt>
      <trkpt lat="44.33352" lon="5.27169">
        <ele>490</ele>
      </trkpt>
      <trkpt lat="44.33352" lon="5.27151">
        <ele>491</ele>
      </trkpt>
      <trkpt lat="44.33348" lon="5.27138">
        <ele>492</ele>
      </trkpt>
      <trkpt lat="44.33342" lon="5.27127">
        <ele>492</ele>
      </trkpt>
      <trkpt lat="44.33297" lon="5.27072">
        <ele>497</ele>
      </trkpt>
      <trkpt lat="44.33281" lon="5.27057">
        <ele>500</ele>
      </trkpt>
      <trkpt lat="44.33253" lon="5.27045">
        <ele>505</ele>
      </trkpt>
      <trkpt lat="44.33248" lon="5.2704">
        <ele>505</ele>
      </trkpt>
      <trkpt lat="44.33246" lon="5.27033">
        <ele>505</ele>
      </trkpt>
      <trkpt lat="44.33244" lon="5.27023">
        <ele>505</ele>
      </trkpt>
      <trkpt lat="44.33248" lon="5.27001">
        <ele>505</ele>
      </trkpt>
      <trkpt lat="44.33247" lon="5.2698">
        <ele>505</ele>
      </trkpt>
      <trkpt lat="44.33215" lon="5.26876">
        <ele>513</ele>
      </trkpt>
      <trkpt lat="44.33209" lon="5.26835">
        <ele>513</ele>
      </trkpt>
      <trkpt lat="44.3321" lon="5.26817">
        <ele>513</ele>
      </trkpt>
      <trkpt lat="44.33213" lon="5.26797">
        <ele>514</ele>
      </trkpt>
      <trkpt lat="44.33229" lon="5.26718">
        <ele>517</ele>
      </trkpt>
      <trkpt lat="44.33232" lon="5.26695">
        <ele>518</ele>
      </trkpt>
      <trkpt lat="44.3323" lon="5.26685">
        <ele>518</ele>
      </trkpt>
      <trkpt lat="44.33225" lon="5.26679">
        <ele>518</ele>
      </trkpt>
      <trkpt lat="44.33221" lon="5.26678">
        <ele>519</ele>
      </trkpt>
      <trkpt lat="44.33214" lon="5.2668">
        <ele>519</ele>
      </trkpt>
      <trkpt lat="44.33203" lon="5.267">
        <ele>519</ele>
      </trkpt>
      <trkpt lat="44.33188" lon="5.26719">
        <ele>520</ele>
      </trkpt>
      <trkpt lat="44.33154" lon="5.26748">
        <ele>524</ele>
      </trkpt>
      <trkpt lat="44.33139" lon="5.26758">
        <ele>526</ele>
      </trkpt>
      <trkpt lat="44.33079" lon="5.26791">
        <ele>533</ele>
      </trkpt>
      <trkpt lat="44.33067" lon="5.26794">
        <ele>534</ele>
      </trkpt>
      <trkpt lat="44.33056" lon="5.26794">
        <ele>535</ele>
      </trkpt>
      <trkpt lat="44.33008" lon="5.26785">
        <ele>539</ele>
      </trkpt>
      <trkpt lat="44.32999" lon="5.26785">
        <ele>539</ele>
      </trkpt>
      <trkpt lat="44.32993" lon="5.26786">
        <ele>539</ele>
      </trkpt>
      <trkpt lat="44.32958" lon="5.26813">
        <ele>540</ele>
      </trkpt>
      <trkpt lat="44.32948" lon="5.26814">
        <ele>540</ele>
      </trkpt>
      <trkpt lat="44.32944" lon="5.26811">
        <ele>541</ele>
      </trkpt>
      <trkpt lat="44.32942" lon="5.26805">
        <ele>541</ele>
      </trkpt>
      <trkpt lat="44.32944" lon="5.26793">
        <ele>541</ele>
      </trkpt>
      <trkpt lat="44.32955" lon="5.26773">
        <ele>542</ele>
      </trkpt>
      <trkpt lat="44.32961" lon="5.26755">
        <ele>543</ele>
      </trkpt>
      <trkpt lat="44.32979" lon="5.26662">
        <ele>549</ele>
      </trkpt>
      <trkpt lat="44.3299" lon="5.2657">
        <ele>550</ele>
      </trkpt>
      <trkpt lat="44.32989" lon="5.26539">
        <ele>553</ele>
      </trkpt>
      <trkpt lat="44.32985" lon="5.26525">
        <ele>554</ele>
      </trkpt>
      <trkpt lat="44.32949" lon="5.26463">
        <ele>561</ele>
      </trkpt>
      <trkpt lat="44.32936" lon="5.26428">
        <ele>561</ele>
      </trkpt>
      <trkpt lat="44.32908" lon="5.26334">
        <ele>561</ele>
      </trkpt>
      <trkpt lat="44.32901" lon="5.26318">
        <ele>562</ele>
      </trkpt>
      <trkpt lat="44.32892" lon="5.26305">
        <ele>564</ele>
      </trkpt>
      <trkpt lat="44.32849" lon="5.26252">
        <ele>570</ele>
      </trkpt>
      <trkpt lat="44.3284" lon="5.26249">
        <ele>571</ele>
      </trkpt>
      <trkpt lat="44.32834" lon="5.26251">
        <ele>572</ele>
      </trkpt>
      <trkpt lat="44.32829" lon="5.26256">
        <ele>573</ele>
      </trkpt>
      <trkpt lat="44.32812" lon="5.26302">
        <ele>578</ele>
      </trkpt>
      <trkpt lat="44.32802" lon="5.26319">
        <ele>579</ele>
      </trkpt>
      <trkpt lat="44.32788" lon="5.26337">
        <ele>580</ele>
      </trkpt>
      <trkpt lat="44.32759" lon="5.26362">
        <ele>583</ele>
      </trkpt>
      <trkpt lat="44.32735" lon="5.26374">
        <ele>585</ele>
      </trkpt>
      <trkpt lat="44.32714" lon="5.26377">
        <ele>586</ele>
      </trkpt>
      <trkpt lat="44.32694" lon="5.26375">
        <ele>588</ele>
      </trkpt>
      <trkpt lat="44.3264" lon="5.26364">
        <ele>592</ele>
      </trkpt>
      <trkpt lat="44.32623" lon="5.26355">
        <ele>593</ele>
      </trkpt>
      <trkpt lat="44.32608" lon="5.26343">
        <ele>594</ele>
      </trkpt>
      <trkpt lat="44.32594" lon="5.26325">
        <ele>595</ele>
      </trkpt>
      <trkpt lat="44.32571" lon="5.26287">
        <ele>599</ele>
      </trkpt>
      <trkpt lat="44.32559" lon="5.26271">
        <ele>601</ele>
      </trkpt>
      <trkpt lat="44.32538" lon="5.26257">
        <ele>600</ele>
      </trkpt>
      <trkpt lat="44.32528" lon="5.26255">
        <ele>600</ele>
      </trkpt>
      <trkpt lat="44.32502" lon="5.26264">
        <ele>599</ele>
      </trkpt>
      <trkpt lat="44.32493" lon="5.26264">
        <ele>600</ele>
      </trkpt>
      <trkpt lat="44.32482" lon="5.26261">
        <ele>602</ele>
      </trkpt>
      <trkpt lat="44.32444" lon="5.26236">
        <ele>607</ele>
      </trkpt>
      <trkpt lat="44.32424" lon="5.26234">
        <ele>608</ele>
      </trkpt>
      <trkpt lat="44.32407" lon="5.26239">
        <ele>608</ele>
      </trkpt>
      <trkpt lat="44.32393" lon="5.26249">
        <ele>609</ele>
      </trkpt>
      <trkpt lat="44.32387" lon="5.26257">
        <ele>609</ele>
      </trkpt>
      <trkpt lat="44.32381" lon="5.26282">
        <ele>609</ele>
      </trkpt>
      <trkpt lat="44.32386" lon="5.26335">
        <ele>608</ele>
      </trkpt>
      <trkpt lat="44.32383" lon="5.26343">
        <ele>609</ele>
      </trkpt>
      <trkpt lat="44.32378" lon="5.2635">
        <ele>609</ele>
      </trkpt>
      <trkpt lat="44.32373" lon="5.26352">
        <ele>610</ele>
      </trkpt>
      <trkpt lat="44.32363" lon="5.26353">
        <ele>610</ele>
      </trkpt>
      <trkpt lat="44.32331" lon="5.26346">
        <ele>613</ele>
      </trkpt>
      <trkpt lat="44.32318" lon="5.26348">
        <ele>613</ele>
      </trkpt>
      <trkpt lat="44.32308" lon="5.26352">
        <ele>614</ele>
      </trkpt>
      <trkpt lat="44.32265" lon="5.26394">
        <ele>615</ele>
      </trkpt>
      <trkpt lat="44.32254" lon="5.26402">
        <ele>616</ele>
      </trkpt>
      <trkpt lat="44.32242" lon="5.26406">
        <ele>618</ele>
      </trkpt>
      <trkpt lat="44.3223" lon="5.26404">
        <ele>619</ele>
      </trkpt>
      <trkpt lat="44.3222" lon="5.26399">
        <ele>620</ele>
      </trkpt>
      <trkpt lat="44.32209" lon="5.2639">
        <ele>622</ele>
      </trkpt>
      <trkpt lat="44.32198" lon="5.26377">
        <ele>624</ele>
      </trkpt>
      <trkpt lat="44.32145" lon="5.26284">
        <ele>636</ele>
      </trkpt>
      <trkpt lat="44.32134" lon="5.26271">
        <ele>637</ele>
      </trkpt>
      <trkpt lat="44.32122" lon="5.26263">
        <ele>637</ele>
      </trkpt>
      <trkpt lat="44.32109" lon="5.26257">
        <ele>638</ele>
      </trkpt>
      <trkpt lat="44.32094" lon="5.26256">
        <ele>637</ele>
      </trkpt>
      <trkpt lat="44.32079" lon="5.26259">
        <ele>636</ele>
      </trkpt>
      <trkpt lat="44.32066" lon="5.26266">
        <ele>635</ele>
      </trkpt>
      <trkpt lat="44.3205" lon="5.26284">
        <ele>634</ele>
      </trkpt>
      <trkpt lat="44.32012" lon="5.26336">
        <ele>633</ele>
      </trkpt>
      <trkpt lat="44.31991" lon="5.26405">
        <ele>633</ele>
      </trkpt>
      <trkpt lat="44.31982" lon="5.26421">
        <ele>634</ele>
      </trkpt>
      <trkpt lat="44.31973" lon="5.26432">
        <ele>635</ele>
      </trkpt>
      <trkpt lat="44.31949" lon="5.2645">
        <ele>638</ele>
      </trkpt>
      <trkpt lat="44.31934" lon="5.26459">
        <ele>639</ele>
      </trkpt>
      <trkpt lat="44.31924" lon="5.26468">
        <ele>639</ele>
      </trkpt>
      <trkpt lat="44.31913" lon="5.2649">
        <ele>640</ele>
      </trkpt>
      <trkpt lat="44.31893" lon="5.26543">
        <ele>642</ele>
      </trkpt>
      <trkpt lat="44.31886" lon="5.26552">
        <ele>643</ele>
      </trkpt>
      <trkpt lat="44.31845" lon="5.26581">
        <ele>645</ele>
      </trkpt>
      <trkpt lat="44.31801" lon="5.26642">
        <ele>648</ele>
      </trkpt>
      <trkpt lat="44.31736" lon="5.26696">
        <ele>653</ele>
      </trkpt>
      <trkpt lat="44.31715" lon="5.26725">
        <ele>654</ele>
      </trkpt>
      <trkpt lat="44.31614" lon="5.26841">
        <ele>658</ele>
      </trkpt>
      <trkpt lat="44.31605" lon="5.26849">
        <ele>660</ele>
      </trkpt>
      <trkpt lat="44.31593" lon="5.26855">
        <ele>662</ele>
      </trkpt>
      <trkpt lat="44.31557" lon="5.26864">
        <ele>668</ele>
      </trkpt>
      <trkpt lat="44.3154" lon="5.26873">
        <ele>668</ele>
      </trkpt>
      <trkpt lat="44.31514" lon="5.26902">
        <ele>667</ele>
      </trkpt>
      <trkpt lat="44.31503" lon="5.26909">
        <ele>668</ele>
      </trkpt>
      <trkpt lat="44.3145" lon="5.26908">
        <ele>674</ele>
      </trkpt>
      <trkpt lat="44.31441" lon="5.26911">
        <ele>674</ele>
      </trkpt>
      <trkpt lat="44.31428" lon="5.26929">
        <ele>675</ele>
      </trkpt>
      <trkpt lat="44.31367" lon="5.27044">
        <ele>681</ele>
      </trkpt>
      <trkpt lat="44.31344" lon="5.27084">
        <ele>684</ele>
      </trkpt>
      <trkpt lat="44.31334" lon="5.27105">
        <ele>685</ele>
      </trkpt>
      <trkpt lat="44.31327" lon="5.27128">
        <ele>684</ele>
      </trkpt>
      <trkpt lat="44.31318" lon="5.27173">
        <ele>682</ele>
      </trkpt>
      <trkpt lat="44.31285" lon="5.27258">
        <ele>690</ele>
      </trkpt>
      <trkpt lat="44.3128" lon="5.27279">
        <ele>691</ele>
      </trkpt>
      <trkpt lat="44.31278" lon="5.27308">
        <ele>693</ele>
      </trkpt>
      <trkpt lat="44.3128" lon="5.27329">
        <ele>694</ele>
      </trkpt>
      <trkpt lat="44.31284" lon="5.27347">
        <ele>693</ele>
      </trkpt>
      <trkpt lat="44.313" lon="5.27393">
        <ele>691</ele>
      </trkpt>
      <trkpt lat="44.31304" lon="5.27414">
        <ele>692</ele>
      </trkpt>
      <trkpt lat="44.31305" lon="5.27447">
        <ele>693</ele>
      </trkpt>
      <trkpt lat="44.31299" lon="5.2757">
        <ele>698</ele>
      </trkpt>
      <trkpt lat="44.31294" lon="5.27628">
        <ele>697</ele>
      </trkpt>
      <trkpt lat="44.31279" lon="5.27751">
        <ele>705</ele>
      </trkpt>
      <trkpt lat="44.31275" lon="5.27765">
        <ele>706</ele>
      </trkpt>
      <trkpt lat="44.3127" lon="5.27768">
        <ele>706</ele>
      </trkpt>
      <trkpt lat="44.31265" lon="5.2776">
        <ele>707</ele>
      </trkpt>
      <trkpt lat="44.31253" lon="5.27696">
        <ele>711</ele>
      </trkpt>
      <trkpt lat="44.31235" lon="5.27637">
        <ele>710</ele>
      </trkpt>
      <trkpt lat="44.31217" lon="5.27547">
        <ele>714</ele>
      </trkpt>
      <trkpt lat="44.31205" lon="5.27498">
        <ele>714</ele>
      </trkpt>
      <trkpt lat="44.31182" lon="5.2743">
        <ele>715</ele>
      </trkpt>
      <trkpt lat="44.31166" lon="5.27393">
        <ele>711</ele>
      </trkpt>
      <trkpt lat="44.3114" lon="5.27345">
        <ele>705</ele>
      </trkpt>
      <trkpt lat="44.3113" lon="5.27319">
        <ele>701</ele>
      </trkpt>
      <trkpt lat="44.31127" lon="5.27314">
        <ele>701</ele>
      </trkpt>
      <trkpt lat="44.31123" lon="5.27311">
        <ele>700</ele>
      </trkpt>
      <trkpt lat="44.31119" lon="5.27312">
        <ele>699</ele>
      </trkpt>
      <trkpt lat="44.31116" lon="5.27318">
        <ele>698</ele>
      </trkpt>
      <trkpt lat="44.31117" lon="5.27327">
        <ele>698</ele>
      </trkpt>
      <trkpt lat="44.31127" lon="5.27344">
        <ele>699</ele>
      </trkpt>
      <trkpt lat="44.31139" lon="5.2737">
        <ele>701</ele>
      </trkpt>
      <trkpt lat="44.31156" lon="5.27435">
        <ele>704</ele>
      </trkpt>
      <trkpt lat="44.31166" lon="5.27488">
        <ele>697</ele>
      </trkpt>
      <trkpt lat="44.31171" lon="5.27544">
        <ele>693</ele>
      </trkpt>
      <trkpt lat="44.31173" lon="5.27588">
        <ele>692</ele>
      </trkpt>
      <trkpt lat="44.3117" lon="5.27614">
        <ele>692</ele>
      </trkpt>
      <trkpt lat="44.31164" lon="5.27648">
        <ele>691</ele>
      </trkpt>
      <trkpt lat="44.31161" lon="5.27675">
        <ele>691</ele>
      </trkpt>
      <trkpt lat="44.31155" lon="5.27692">
        <ele>689</ele>
      </trkpt>
      <trkpt lat="44.31147" lon="5.27696">
        <ele>688</ele>
      </trkpt>
      <trkpt lat="44.3114" lon="5.2769">
        <ele>686</ele>
      </trkpt>
      <trkpt lat="44.31136" lon="5.27683">
        <ele>685</ele>
      </trkpt>
      <trkpt lat="44.31126" lon="5.27641">
        <ele>680</ele>
      </trkpt>
      <trkpt lat="44.31118" lon="5.27618">
        <ele>677</ele>
      </trkpt>
      <trkpt lat="44.31098" lon="5.27584">
        <ele>671</ele>
      </trkpt>
      <trkpt lat="44.31052" lon="5.27496">
        <ele>660</ele>
      </trkpt>
      <trkpt lat="44.31045" lon="5.27489">
        <ele>660</ele>
      </trkpt>
      <trkpt lat="44.31038" lon="5.27486">
        <ele>660</ele>
      </trkpt>
      <trkpt lat="44.31033" lon="5.27487">
        <ele>659</ele>
      </trkpt>
      <trkpt lat="44.31018" lon="5.27501">
        <ele>659</ele>
      </trkpt>
      <trkpt lat="44.31012" lon="5.27504">
        <ele>658</ele>
      </trkpt>
      <trkpt lat="44.31005" lon="5.27502">
        <ele>658</ele>
      </trkpt>
      <trkpt lat="44.30999" lon="5.27496">
        <ele>657</ele>
      </trkpt>
      <trkpt lat="44.30984" lon="5.27464">
        <ele>654</ele>
      </trkpt>
      <trkpt lat="44.30974" lon="5.2745">
        <ele>652</ele>
      </trkpt>
      <trkpt lat="44.30928" lon="5.27406">
        <ele>645</ele>
      </trkpt>
      <trkpt lat="44.30919" lon="5.27402">
        <ele>647</ele>
      </trkpt>
      <trkpt lat="44.30912" lon="5.27404">
        <ele>648</ele>
      </trkpt>
      <trkpt lat="44.30906" lon="5.27408">
        <ele>649</ele>
      </trkpt>
      <trkpt lat="44.309" lon="5.27419">
        <ele>651</ele>
      </trkpt>
      <trkpt lat="44.30887" lon="5.27462">
        <ele>658</ele>
      </trkpt>
      <trkpt lat="44.30875" lon="5.27515">
        <ele>665</ele>
      </trkpt>
      <trkpt lat="44.3087" lon="5.27525">
        <ele>662</ele>
      </trkpt>
      <trkpt lat="44.30865" lon="5.27528">
        <ele>661</ele>
      </trkpt>
      <trkpt lat="44.30855" lon="5.27528">
        <ele>658</ele>
      </trkpt>
      <trkpt lat="44.30851" lon="5.27525">
        <ele>656</ele>
      </trkpt>
      <trkpt lat="44.30826" lon="5.27492">
        <ele>646</ele>
      </trkpt>
      <trkpt lat="44.30808" lon="5.27475">
        <ele>641</ele>
      </trkpt>
      <trkpt lat="44.3078" lon="5.27463">
        <ele>634</ele>
      </trkpt>
      <trkpt lat="44.30739" lon="5.2743">
        <ele>627</ele>
      </trkpt>
      <trkpt lat="44.30698" lon="5.27411">
        <ele>627</ele>
      </trkpt>
      <trkpt lat="44.30687" lon="5.27403">
        <ele>625</ele>
      </trkpt>
      <trkpt lat="44.30668" lon="5.27386">
        <ele>620</ele>
      </trkpt>
      <trkpt lat="44.30631" lon="5.27332">
        <ele>609</ele>
      </trkpt>
      <trkpt lat="44.30623" lon="5.27328">
        <ele>612</ele>
      </trkpt>
      <trkpt lat="44.30599" lon="5.27322">
        <ele>619</ele>
      </trkpt>
      <trkpt lat="44.30588" lon="5.27323">
        <ele>622</ele>
      </trkpt>
      <trkpt lat="44.30574" lon="5.27328">
        <ele>626</ele>
      </trkpt>
      <trkpt lat="44.30563" lon="5.27339">
        <ele>630</ele>
      </trkpt>
      <trkpt lat="44.30549" lon="5.2736">
        <ele>635</ele>
      </trkpt>
      <trkpt lat="44.30539" lon="5.27373">
        <ele>634</ele>
      </trkpt>
      <trkpt lat="44.3053" lon="5.27381">
        <ele>634</ele>
      </trkpt>
      <trkpt lat="44.30496" lon="5.274">
        <ele>632</ele>
      </trkpt>
      <trkpt lat="44.3048" lon="5.27415">
        <ele>632</ele>
      </trkpt>
      <trkpt lat="44.30458" lon="5.27447">
        <ele>632</ele>
      </trkpt>
      <trkpt lat="44.3045" lon="5.27454">
        <ele>630</ele>
      </trkpt>
      <trkpt lat="44.30441" lon="5.27456">
        <ele>627</ele>
      </trkpt>
      <trkpt lat="44.30425" lon="5.27451">
        <ele>623</ele>
      </trkpt>
      <trkpt lat="44.30417" lon="5.27445">
        <ele>620</ele>
      </trkpt>
      <trkpt lat="44.30389" lon="5.27418">
        <ele>613</ele>
      </trkpt>
      <trkpt lat="44.30353" lon="5.27373">
        <ele>604</ele>
      </trkpt>
      <trkpt lat="44.30333" lon="5.27353">
        <ele>604</ele>
      </trkpt>
      <trkpt lat="44.30324" lon="5.27348">
        <ele>604</ele>
      </trkpt>
      <trkpt lat="44.3031" lon="5.27346">
        <ele>604</ele>
      </trkpt>
      <trkpt lat="44.30286" lon="5.27348">
        <ele>605</ele>
      </trkpt>
      <trkpt lat="44.30269" lon="5.27356">
        <ele>606</ele>
      </trkpt>
      <trkpt lat="44.30207" lon="5.27395">
        <ele>605</ele>
      </trkpt>
      <trkpt lat="44.30193" lon="5.27411">
        <ele>606</ele>
      </trkpt>
      <trkpt lat="44.30181" lon="5.27456">
        <ele>609</ele>
      </trkpt>
      <trkpt lat="44.30177" lon="5.2748">
        <ele>611</ele>
      </trkpt>
      <trkpt lat="44.30176" lon="5.27511">
        <ele>614</ele>
      </trkpt>
      <trkpt lat="44.30172" lon="5.27525">
        <ele>613</ele>
      </trkpt>
      <trkpt lat="44.30121" lon="5.27596">
        <ele>606</ele>
      </trkpt>
      <trkpt lat="44.30105" lon="5.27636">
        <ele>604</ele>
      </trkpt>
      <trkpt lat="44.30088" lon="5.27728">
        <ele>599</ele>
      </trkpt>
      <trkpt lat="44.30075" lon="5.2778">
        <ele>597</ele>
      </trkpt>
      <trkpt lat="44.3007" lon="5.27812">
        <ele>591</ele>
      </trkpt>
      <trkpt lat="44.30069" lon="5.2783">
        <ele>588</ele>
      </trkpt>
      <trkpt lat="44.3007" lon="5.27849">
        <ele>585</ele>
      </trkpt>
      <trkpt lat="44.30074" lon="5.27863">
        <ele>585</ele>
      </trkpt>
      <trkpt lat="44.30091" lon="5.27895">
        <ele>584</ele>
      </trkpt>
      <trkpt lat="44.30107" lon="5.27913">
        <ele>586</ele>
      </trkpt>
      <trkpt lat="44.30111" lon="5.2792">
        <ele>587</ele>
      </trkpt>
      <trkpt lat="44.30116" lon="5.27949">
        <ele>589</ele>
      </trkpt>
      <trkpt lat="44.30121" lon="5.27962">
        <ele>591</ele>
      </trkpt>
      <trkpt lat="44.30132" lon="5.27984">
        <ele>595</ele>
      </trkpt>
      <trkpt lat="44.30135" lon="5.27996">
        <ele>597</ele>
      </trkpt>
      <trkpt lat="44.30133" lon="5.28009">
        <ele>594</ele>
      </trkpt>
      <trkpt lat="44.3012" lon="5.28036">
        <ele>586</ele>
      </trkpt>
      <trkpt lat="44.30118" lon="5.28048">
        <ele>583</ele>
      </trkpt>
      <trkpt lat="44.30117" lon="5.28061">
        <ele>585</ele>
      </trkpt>
      <trkpt lat="44.30122" lon="5.28104">
        <ele>594</ele>
      </trkpt>
      <trkpt lat="44.30135" lon="5.28162">
        <ele>599</ele>
      </trkpt>
      <trkpt lat="44.30134" lon="5.28172">
        <ele>597</ele>
      </trkpt>
      <trkpt lat="44.30129" lon="5.28186">
        <ele>594</ele>
      </trkpt>
      <trkpt lat="44.30115" lon="5.28204">
        <ele>589</ele>
      </trkpt>
      <trkpt lat="44.30069" lon="5.2827">
        <ele>571</ele>
      </trkpt>
      <trkpt lat="44.30056" lon="5.28293">
        <ele>569</ele>
      </trkpt>
      <trkpt lat="44.30051" lon="5.28311">
        <ele>568</ele>
      </trkpt>
      <trkpt lat="44.30048" lon="5.28332">
        <ele>567</ele>
      </trkpt>
      <trkpt lat="44.30047" lon="5.28357">
        <ele>567</ele>
      </trkpt>
      <trkpt lat="44.30048" lon="5.28377">
        <ele>566</ele>
      </trkpt>
      <trkpt lat="44.30064" lon="5.28448">
        <ele>565</ele>
      </trkpt>
      <trkpt lat="44.30068" lon="5.28486">
        <ele>561</ele>
      </trkpt>
      <trkpt lat="44.30072" lon="5.28503">
        <ele>559</ele>
      </trkpt>
      <trkpt lat="44.30088" lon="5.28526">
        <ele>559</ele>
      </trkpt>
      <trkpt lat="44.30093" lon="5.28537">
        <ele>559</ele>
      </trkpt>
      <trkpt lat="44.30096" lon="5.28566">
        <ele>559</ele>
      </trkpt>
      <trkpt lat="44.301" lon="5.28581">
        <ele>558</ele>
      </trkpt>
      <trkpt lat="44.30113" lon="5.28606">
        <ele>557</ele>
      </trkpt>
      <trkpt lat="44.30117" lon="5.28619">
        <ele>556</ele>
      </trkpt>
      <trkpt lat="44.30117" lon="5.28633">
        <ele>552</ele>
      </trkpt>
      <trkpt lat="44.30114" lon="5.28651">
        <ele>547</ele>
      </trkpt>
      <trkpt lat="44.30113" lon="5.28666">
        <ele>543</ele>
      </trkpt>
      <trkpt lat="44.30119" lon="5.28684">
        <ele>537</ele>
      </trkpt>
      <trkpt lat="44.30133" lon="5.28706">
        <ele>538</ele>
      </trkpt>
      <trkpt lat="44.30142" lon="5.28715">
        <ele>538</ele>
      </trkpt>
      <trkpt lat="44.30153" lon="5.28719">
        <ele>539</ele>
      </trkpt>
      <trkpt lat="44.30184" lon="5.28725">
        <ele>540</ele>
      </trkpt>
      <trkpt lat="44.30193" lon="5.28734">
        <ele>540</ele>
      </trkpt>
      <trkpt lat="44.3021" lon="5.28755">
        <ele>542</ele>
      </trkpt>
      <trkpt lat="44.3022" lon="5.28772">
        <ele>543</ele>
      </trkpt>
      <trkpt lat="44.3023" lon="5.28801">
        <ele>542</ele>
      </trkpt>
      <trkpt lat="44.30249" lon="5.28822">
        <ele>540</ele>
      </trkpt>
      <trkpt lat="44.30259" lon="5.28845">
        <ele>539</ele>
      </trkpt>
      <trkpt lat="44.30281" lon="5.28933">
        <ele>535</ele>
      </trkpt>
      <trkpt lat="44.30283" lon="5.28944">
        <ele>533</ele>
      </trkpt>
      <trkpt lat="44.30277" lon="5.28974">
        <ele>528</ele>
      </trkpt>
      <trkpt lat="44.30276" lon="5.28989">
        <ele>525</ele>
      </trkpt>
      <trkpt lat="44.30277" lon="5.29003">
        <ele>525</ele>
      </trkpt>
      <trkpt lat="44.30285" lon="5.2904">
        <ele>524</ele>
      </trkpt>
      <trkpt lat="44.3029" lon="5.29094">
        <ele>522</ele>
      </trkpt>
      <trkpt lat="44.30294" lon="5.29114">
        <ele>522</ele>
      </trkpt>
      <trkpt lat="44.30299" lon="5.29128">
        <ele>523</ele>
      </trkpt>
      <trkpt lat="44.30324" lon="5.29156">
        <ele>524</ele>
      </trkpt>
      <trkpt lat="44.3033" lon="5.29166">
        <ele>523</ele>
      </trkpt>
      <trkpt lat="44.30333" lon="5.29179">
        <ele>522</ele>
      </trkpt>
      <trkpt lat="44.30335" lon="5.29232">
        <ele>517</ele>
      </trkpt>
      <trkpt lat="44.30334" lon="5.29252">
        <ele>517</ele>
      </trkpt>
      <trkpt lat="44.3033" lon="5.2927">
        <ele>516</ele>
      </trkpt>
      <trkpt lat="44.30322" lon="5.29285">
        <ele>516</ele>
      </trkpt>
      <trkpt lat="44.30312" lon="5.29295">
        <ele>514</ele>
      </trkpt>
      <trkpt lat="44.30297" lon="5.29308">
        <ele>510</ele>
      </trkpt>
      <trkpt lat="44.30288" lon="5.29312">
        <ele>508</ele>
      </trkpt>
      <trkpt lat="44.30257" lon="5.29313">
        <ele>501</ele>
      </trkpt>
      <trkpt lat="44.30235" lon="5.29311">
        <ele>496</ele>
      </trkpt>
      <trkpt lat="44.3023" lon="5.29308">
        <ele>496</ele>
      </trkpt>
      <trkpt lat="44.30229" lon="5.29303">
        <ele>495</ele>
      </trkpt>
      <trkpt lat="44.30234" lon="5.29286">
        <ele>495</ele>
      </trkpt>
      <trkpt lat="44.30234" lon="5.29272">
        <ele>494</ele>
      </trkpt>
      <trkpt lat="44.30231" lon="5.29248">
        <ele>493</ele>
      </trkpt>
      <trkpt lat="44.30186" lon="5.29132">
        <ele>490</ele>
      </trkpt>
      <trkpt lat="44.30176" lon="5.2911">
        <ele>488</ele>
      </trkpt>
      <trkpt lat="44.30158" lon="5.29081">
        <ele>485</ele>
      </trkpt>
      <trkpt lat="44.30147" lon="5.29052">
        <ele>484</ele>
      </trkpt>
      <trkpt lat="44.30125" lon="5.28967">
        <ele>481</ele>
      </trkpt>
      <trkpt lat="44.30121" lon="5.28947">
        <ele>480</ele>
      </trkpt>
      <trkpt lat="44.30118" lon="5.28926">
        <ele>480</ele>
      </trkpt>
      <trkpt lat="44.30115" lon="5.28916">
        <ele>480</ele>
      </trkpt>
      <trkpt lat="44.30105" lon="5.28894">
        <ele>479</ele>
      </trkpt>
      <trkpt lat="44.30102" lon="5.28885">
        <ele>480</ele>
      </trkpt>
      <trkpt lat="44.30102" lon="5.28873">
        <ele>482</ele>
      </trkpt>
      <trkpt lat="44.30104" lon="5.28856">
        <ele>484</ele>
      </trkpt>
      <trkpt lat="44.30103" lon="5.28843">
        <ele>486</ele>
      </trkpt>
      <trkpt lat="44.301" lon="5.28833">
        <ele>487</ele>
      </trkpt>
      <trkpt lat="44.30047" lon="5.2875">
        <ele>483</ele>
      </trkpt>
      <trkpt lat="44.30017" lon="5.28699">
        <ele>481</ele>
      </trkpt>
      <trkpt lat="44.30012" lon="5.28689">
        <ele>481</ele>
      </trkpt>
      <trkpt lat="44.30001" lon="5.28657">
        <ele>482</ele>
      </trkpt>
      <trkpt lat="44.29989" lon="5.28637">
        <ele>482</ele>
      </trkpt>
      <trkpt lat="44.29983" lon="5.28631">
        <ele>479</ele>
      </trkpt>
      <trkpt lat="44.29962" lon="5.28621">
        <ele>470</ele>
      </trkpt>
      <trkpt lat="44.29948" lon="5.28612">
        <ele>463</ele>
      </trkpt>
      <trkpt lat="44.29909" lon="5.2857">
        <ele>459</ele>
      </trkpt>
      <trkpt lat="44.29816" lon="5.28434">
        <ele>461</ele>
      </trkpt>
      <trkpt lat="44.29761" lon="5.28388">
        <ele>442</ele>
      </trkpt>
      <trkpt lat="44.29741" lon="5.28367">
        <ele>437</ele>
      </trkpt>
      <trkpt lat="44.29735" lon="5.28357">
        <ele>436</ele>
      </trkpt>
      <trkpt lat="44.29734" lon="5.28347">
        <ele>434</ele>
      </trkpt>
      <trkpt lat="44.29736" lon="5.28338">
        <ele>434</ele>
      </trkpt>
      <trkpt lat="44.29752" lon="5.28303">
        <ele>436</ele>
      </trkpt>
      <trkpt lat="44.29754" lon="5.28291">
        <ele>437</ele>
      </trkpt>
      <trkpt lat="44.29753" lon="5.2828">
        <ele>436</ele>
      </trkpt>
      <trkpt lat="44.29749" lon="5.2827">
        <ele>435</ele>
      </trkpt>
      <trkpt lat="44.29737" lon="5.28259">
        <ele>434</ele>
      </trkpt>
      <trkpt lat="44.29714" lon="5.28243">
        <ele>431</ele>
      </trkpt>
      <trkpt lat="44.29695" lon="5.28233">
        <ele>429</ele>
      </trkpt>
      <trkpt lat="44.29656" lon="5.28222">
        <ele>424</ele>
      </trkpt>
      <trkpt lat="44.29616" lon="5.28198">
        <ele>416</ele>
      </trkpt>
      <trkpt lat="44.2961" lon="5.28198">
        <ele>416</ele>
      </trkpt>
      <trkpt lat="44.29606" lon="5.28201">
        <ele>417</ele>
      </trkpt>
      <trkpt lat="44.29604" lon="5.28206">
        <ele>417</ele>
      </trkpt>
      <trkpt lat="44.29604" lon="5.28213">
        <ele>417</ele>
      </trkpt>
      <trkpt lat="44.29607" lon="5.28217">
        <ele>417</ele>
      </trkpt>
      <trkpt lat="44.29621" lon="5.28224">
        <ele>418</ele>
      </trkpt>
      <trkpt lat="44.29642" lon="5.28232">
        <ele>416</ele>
      </trkpt>
      <trkpt lat="44.29646" lon="5.28239">
        <ele>416</ele>
      </trkpt>
      <trkpt lat="44.29648" lon="5.28247">
        <ele>415</ele>
      </trkpt>
      <trkpt lat="44.29644" lon="5.28262">
        <ele>414</ele>
      </trkpt>
      <trkpt lat="44.29551" lon="5.28195">
        <ele>406</ele>
      </trkpt>
      <trkpt lat="44.29469" lon="5.28181">
        <ele>405</ele>
      </trkpt>
      <trkpt lat="44.29462" lon="5.28176">
        <ele>406</ele>
      </trkpt>
      <trkpt lat="44.29455" lon="5.28166">
        <ele>407</ele>
      </trkpt>
      <trkpt lat="44.29452" lon="5.28156">
        <ele>408</ele>
      </trkpt>
      <trkpt lat="44.29443" lon="5.28107">
        <ele>411</ele>
      </trkpt>
      <trkpt lat="44.29436" lon="5.28084">
        <ele>415</ele>
      </trkpt>
      <trkpt lat="44.29429" lon="5.28057">
        <ele>419</ele>
      </trkpt>
      <trkpt lat="44.29424" lon="5.28048">
        <ele>419</ele>
      </trkpt>
      <trkpt lat="44.29421" lon="5.28042">
        <ele>418</ele>
      </trkpt>
      <trkpt lat="44.29386" lon="5.2801">
        <ele>416</ele>
      </trkpt>
      <trkpt lat="44.29372" lon="5.28003">
        <ele>415</ele>
      </trkpt>
      <trkpt lat="44.29366" lon="5.28002">
        <ele>414</ele>
      </trkpt>
      <trkpt lat="44.29358" lon="5.28005">
        <ele>413</ele>
      </trkpt>
      <trkpt lat="44.29325" lon="5.28023">
        <ele>410</ele>
      </trkpt>
      <trkpt lat="44.29248" lon="5.28069">
        <ele>417</ele>
      </trkpt>
      <trkpt lat="44.29173" lon="5.28086">
        <ele>401</ele>
      </trkpt>
      <trkpt lat="44.29137" lon="5.28104">
        <ele>401</ele>
      </trkpt>
      <trkpt lat="44.29086" lon="5.28114">
        <ele>400</ele>
      </trkpt>
      <trkpt lat="44.29068" lon="5.28118">
        <ele>400</ele>
      </trkpt>
      <trkpt lat="44.29054" lon="5.28125">
        <ele>399</ele>
      </trkpt>
      <trkpt lat="44.28901" lon="5.28201">
        <ele>399</ele>
      </trkpt>
      <trkpt lat="44.28721" lon="5.28301">
        <ele>395</ele>
      </trkpt>
      <trkpt lat="44.28708" lon="5.28306">
        <ele>395</ele>
      </trkpt>
      <trkpt lat="44.28685" lon="5.28311">
        <ele>394</ele>
      </trkpt>
      <trkpt lat="44.28649" lon="5.28309">
        <ele>393</ele>
      </trkpt>
      <trkpt lat="44.28624" lon="5.2831">
        <ele>393</ele>
      </trkpt>
      <trkpt lat="44.28552" lon="5.28361">
        <ele>393</ele>
      </trkpt>
      <trkpt lat="44.28543" lon="5.28364">
        <ele>392</ele>
      </trkpt>
      <trkpt lat="44.28495" lon="5.28366">
        <ele>389</ele>
      </trkpt>
      <trkpt lat="44.28469" lon="5.28366">
        <ele>390</ele>
      </trkpt>
      <trkpt lat="44.28397" lon="5.28368">
        <ele>391</ele>
      </trkpt>
      <trkpt lat="44.28373" lon="5.28365">
        <ele>391</ele>
      </trkpt>
      <trkpt lat="44.28276" lon="5.28318">
        <ele>387</ele>
      </trkpt>
      <trkpt lat="44.28164" lon="5.28271">
        <ele>382</ele>
      </trkpt>
      <trkpt lat="44.28102" lon="5.28213">
        <ele>380</ele>
      </trkpt>
      <trkpt lat="44.28086" lon="5.28192">
        <ele>379</ele>
      </trkpt>
      <trkpt lat="44.28081" lon="5.28181">
        <ele>379</ele>
      </trkpt>
      <trkpt lat="44.28061" lon="5.2811">
        <ele>377</ele>
      </trkpt>
      <trkpt lat="44.28031" lon="5.28021">
        <ele>378</ele>
      </trkpt>
      <trkpt lat="44.28015" lon="5.27986">
        <ele>378</ele>
      </trkpt>
      <trkpt lat="44.27991" lon="5.27942">
        <ele>379</ele>
      </trkpt>
      <trkpt lat="44.2798" lon="5.27923">
        <ele>378</ele>
      </trkpt>
      <trkpt lat="44.2797" lon="5.27915">
        <ele>378</ele>
      </trkpt>
      <trkpt lat="44.27947" lon="5.27907">
        <ele>377</ele>
      </trkpt>
      <trkpt lat="44.27921" lon="5.27891">
        <ele>376</ele>
      </trkpt>
      <trkpt lat="44.2786" lon="5.27833">
        <ele>374</ele>
      </trkpt>
      <trkpt lat="44.27634" lon="5.27604">
        <ele>373</ele>
      </trkpt>
      <trkpt lat="44.27629" lon="5.27592">
        <ele>373</ele>
      </trkpt>
      <trkpt lat="44.27629" lon="5.27581">
        <ele>373</ele>
      </trkpt>
      <trkpt lat="44.27631" lon="5.27565">
        <ele>373</ele>
      </trkpt>
      <trkpt lat="44.27641" lon="5.27522">
        <ele>374</ele>
      </trkpt>
      <trkpt lat="44.27653" lon="5.27483">
        <ele>376</ele>
      </trkpt>
      <trkpt lat="44.27661" lon="5.27438">
        <ele>378</ele>
      </trkpt>
      <trkpt lat="44.27656" lon="5.27331">
        <ele>380</ele>
      </trkpt>
      <trkpt lat="44.27652" lon="5.27315">
        <ele>379</ele>
      </trkpt>
      <trkpt lat="44.27633" lon="5.27272">
        <ele>377</ele>
      </trkpt>
      <trkpt lat="44.27613" lon="5.2724">
        <ele>376</ele>
      </trkpt>
      <trkpt lat="44.27591" lon="5.27213">
        <ele>376</ele>
      </trkpt>
      <trkpt lat="44.27586" lon="5.27209">
        <ele>376</ele>
      </trkpt>
      <trkpt lat="44.2758" lon="5.27208">
        <ele>376</ele>
      </trkpt>
      <trkpt lat="44.27544" lon="5.27217">
        <ele>375</ele>
      </trkpt>
      <trkpt lat="44.27518" lon="5.27226">
        <ele>374</ele>
      </trkpt>
      <trkpt lat="44.27505" lon="5.27229">
        <ele>373</ele>
      </trkpt>
      <trkpt lat="44.27502" lon="5.27228">
        <ele>373</ele>
      </trkpt>
      <trkpt lat="44.27498" lon="5.27214">
        <ele>373</ele>
      </trkpt>
      <trkpt lat="44.27482" lon="5.27158">
        <ele>372</ele>
      </trkpt>
      <trkpt lat="44.27472" lon="5.27133">
        <ele>372</ele>
      </trkpt>
      <trkpt lat="44.27361" lon="5.26889">
        <ele>374</ele>
      </trkpt>
      <trkpt lat="44.27331" lon="5.26844">
        <ele>371</ele>
      </trkpt>
      <trkpt lat="44.27319" lon="5.26822">
        <ele>370</ele>
      </trkpt>
      <trkpt lat="44.27296" lon="5.268">
        <ele>368</ele>
      </trkpt>
      <trkpt lat="44.27281" lon="5.26789">
        <ele>368</ele>
      </trkpt>
      <trkpt lat="44.27117" lon="5.26624">
        <ele>363</ele>
      </trkpt>
      <trkpt lat="44.26975" lon="5.26485">
        <ele>360</ele>
      </trkpt>
      <trkpt lat="44.2687" lon="5.26384">
        <ele>364</ele>
      </trkpt>
      <trkpt lat="44.26857" lon="5.26369">
        <ele>363</ele>
      </trkpt>
      <trkpt lat="44.26784" lon="5.263">
        <ele>359</ele>
      </trkpt>
      <trkpt lat="44.26725" lon="5.26257">
        <ele>356</ele>
      </trkpt>
      <trkpt lat="44.26681" lon="5.26228">
        <ele>356</ele>
      </trkpt>
      <trkpt lat="44.26586" lon="5.26179">
        <ele>355</ele>
      </trkpt>
      <trkpt lat="44.26575" lon="5.26176">
        <ele>355</ele>
      </trkpt>
      <trkpt lat="44.26561" lon="5.2616">
        <ele>355</ele>
      </trkpt>
      <trkpt lat="44.26559" lon="5.26156">
        <ele>355</ele>
      </trkpt>
      <trkpt lat="44.26553" lon="5.26152">
        <ele>355</ele>
      </trkpt>
      <trkpt lat="44.26547" lon="5.26155">
        <ele>355</ele>
      </trkpt>
      <trkpt lat="44.26527" lon="5.26153">
        <ele>355</ele>
      </trkpt>
      <trkpt lat="44.26493" lon="5.26143">
        <ele>355</ele>
      </trkpt>
      <trkpt lat="44.26473" lon="5.26142">
        <ele>355</ele>
      </trkpt>
      <trkpt lat="44.26448" lon="5.26146">
        <ele>355</ele>
      </trkpt>
      <trkpt lat="44.26345" lon="5.26172">
        <ele>357</ele>
      </trkpt>
      <trkpt lat="44.26288" lon="5.26184">
        <ele>352</ele>
      </trkpt>
      <trkpt lat="44.26267" lon="5.26186">
        <ele>352</ele>
      </trkpt>
      <trkpt lat="44.26249" lon="5.26185">
        <ele>352</ele>
      </trkpt>
      <trkpt lat="44.26234" lon="5.26181">
        <ele>352</ele>
      </trkpt>
      <trkpt lat="44.26193" lon="5.2616">
        <ele>351</ele>
      </trkpt>
      <trkpt lat="44.26092" lon="5.26089">
        <ele>348</ele>
      </trkpt>
      <trkpt lat="44.26056" lon="5.26064">
        <ele>346</ele>
      </trkpt>
      <trkpt lat="44.26035" lon="5.26052">
        <ele>348</ele>
      </trkpt>
      <trkpt lat="44.2599" lon="5.26033">
        <ele>350</ele>
      </trkpt>
      <trkpt lat="44.25936" lon="5.26015">
        <ele>350</ele>
      </trkpt>
      <trkpt lat="44.25889" lon="5.25987">
        <ele>350</ele>
      </trkpt>
      <trkpt lat="44.25864" lon="5.25965">
        <ele>347</ele>
      </trkpt>
      <trkpt lat="44.25835" lon="5.25928">
        <ele>346</ele>
      </trkpt>
      <trkpt lat="44.2568" lon="5.25711">
        <ele>343</ele>
      </trkpt>
      <trkpt lat="44.25592" lon="5.25599">
        <ele>340</ele>
      </trkpt>
      <trkpt lat="44.25549" lon="5.25548">
        <ele>341</ele>
      </trkpt>
      <trkpt lat="44.25497" lon="5.25495">
        <ele>338</ele>
      </trkpt>
      <trkpt lat="44.25475" lon="5.25477">
        <ele>338</ele>
      </trkpt>
      <trkpt lat="44.25409" lon="5.25432">
        <ele>337</ele>
      </trkpt>
      <trkpt lat="44.25377" lon="5.25417">
        <ele>338</ele>
      </trkpt>
      <trkpt lat="44.25348" lon="5.2541">
        <ele>338</ele>
      </trkpt>
      <trkpt lat="44.2533" lon="5.2541">
        <ele>337</ele>
      </trkpt>
      <trkpt lat="44.25239" lon="5.25389">
        <ele>332</ele>
      </trkpt>
      <trkpt lat="44.25216" lon="5.2538">
        <ele>334</ele>
      </trkpt>
      <trkpt lat="44.25189" lon="5.25362">
        <ele>340</ele>
      </trkpt>
      <trkpt lat="44.25168" lon="5.25343">
        <ele>339</ele>
      </trkpt>
      <trkpt lat="44.25148" lon="5.25319">
        <ele>341</ele>
      </trkpt>
      <trkpt lat="44.25131" lon="5.25292">
        <ele>337</ele>
      </trkpt>
      <trkpt lat="44.25118" lon="5.25264">
        <ele>334</ele>
      </trkpt>
      <trkpt lat="44.2511" lon="5.25243">
        <ele>333</ele>
      </trkpt>
      <trkpt lat="44.25101" lon="5.25199">
        <ele>335</ele>
      </trkpt>
      <trkpt lat="44.25095" lon="5.25156">
        <ele>338</ele>
      </trkpt>
      <trkpt lat="44.25108" lon="5.24878">
        <ele>346</ele>
      </trkpt>
      <trkpt lat="44.25108" lon="5.24819">
        <ele>348</ele>
      </trkpt>
      <trkpt lat="44.25106" lon="5.24777">
        <ele>351</ele>
      </trkpt>
      <trkpt lat="44.25096" lon="5.24702">
        <ele>355</ele>
      </trkpt>
      <trkpt lat="44.25082" lon="5.24625">
        <ele>350</ele>
      </trkpt>
      <trkpt lat="44.25065" lon="5.24572">
        <ele>349</ele>
      </trkpt>
      <trkpt lat="44.25038" lon="5.24496">
        <ele>340</ele>
      </trkpt>
      <trkpt lat="44.24997" lon="5.24411">
        <ele>328</ele>
      </trkpt>
      <trkpt lat="44.24915" lon="5.24233">
        <ele>337</ele>
      </trkpt>
      <trkpt lat="44.24894" lon="5.24184">
        <ele>334</ele>
      </trkpt>
      <trkpt lat="44.24865" lon="5.24096">
        <ele>337</ele>
      </trkpt>
      <trkpt lat="44.24851" lon="5.24052">
        <ele>344</ele>
      </trkpt>
      <trkpt lat="44.24823" lon="5.23928">
        <ele>338</ele>
      </trkpt>
      <trkpt lat="44.24812" lon="5.23886">
        <ele>334</ele>
      </trkpt>
      <trkpt lat="44.24651" lon="5.2345">
        <ele>318</ele>
      </trkpt>
      <trkpt lat="44.24625" lon="5.23377">
        <ele>318</ele>
      </trkpt>
      <trkpt lat="44.24616" lon="5.23346">
        <ele>320</ele>
      </trkpt>
      <trkpt lat="44.24606" lon="5.23302">
        <ele>325</ele>
      </trkpt>
      <trkpt lat="44.24595" lon="5.23239">
        <ele>337</ele>
      </trkpt>
      <trkpt lat="44.24585" lon="5.23123">
        <ele>339</ele>
      </trkpt>
      <trkpt lat="44.24575" lon="5.22951">
        <ele>353</ele>
      </trkpt>
      <trkpt lat="44.24568" lon="5.22903">
        <ele>354</ele>
      </trkpt>
      <trkpt lat="44.2456" lon="5.22868">
        <ele>349</ele>
      </trkpt>
      <trkpt lat="44.24537" lon="5.22816">
        <ele>357</ele>
      </trkpt>
      <trkpt lat="44.2452" lon="5.22789">
        <ele>358</ele>
      </trkpt>
      <trkpt lat="44.24455" lon="5.22719">
        <ele>356</ele>
      </trkpt>
      <trkpt lat="44.2445" lon="5.22709">
        <ele>351</ele>
      </trkpt>
      <trkpt lat="44.24444" lon="5.22695">
        <ele>353</ele>
      </trkpt>
      <trkpt lat="44.24441" lon="5.2268">
        <ele>353</ele>
      </trkpt>
      <trkpt lat="44.24441" lon="5.22657">
        <ele>352</ele>
      </trkpt>
      <trkpt lat="44.24446" lon="5.22641">
        <ele>348</ele>
      </trkpt>
      <trkpt lat="44.24455" lon="5.22625">
        <ele>351</ele>
      </trkpt>
      <trkpt lat="44.24474" lon="5.22606">
        <ele>346</ele>
      </trkpt>
      <trkpt lat="44.24639" lon="5.22488">
        <ele>323</ele>
      </trkpt>
      <trkpt lat="44.24668" lon="5.22463">
        <ele>323</ele>
      </trkpt>
      <trkpt lat="44.2468" lon="5.22449">
        <ele>326</ele>
      </trkpt>
      <trkpt lat="44.24693" lon="5.22421">
        <ele>322</ele>
      </trkpt>
      <trkpt lat="44.24704" lon="5.22374">
        <ele>325</ele>
      </trkpt>
      <trkpt lat="44.24733" lon="5.22199">
        <ele>325</ele>
      </trkpt>
      <trkpt lat="44.24738" lon="5.22166">
        <ele>323</ele>
      </trkpt>
      <trkpt lat="44.24741" lon="5.2212">
        <ele>320</ele>
      </trkpt>
      <trkpt lat="44.24739" lon="5.22076">
        <ele>314</ele>
      </trkpt>
      <trkpt lat="44.24734" lon="5.22043">
        <ele>311</ele>
      </trkpt>
      <trkpt lat="44.24716" lon="5.21967">
        <ele>304</ele>
      </trkpt>
      <trkpt lat="44.24694" lon="5.21889">
        <ele>309</ele>
      </trkpt>
      <trkpt lat="44.24675" lon="5.2184">
        <ele>311</ele>
      </trkpt>
      <trkpt lat="44.24641" lon="5.21762">
        <ele>309</ele>
      </trkpt>
      <trkpt lat="44.24635" lon="5.2175">
        <ele>309</ele>
      </trkpt>
      <trkpt lat="44.24601" lon="5.21666">
        <ele>310</ele>
      </trkpt>
      <trkpt lat="44.24567" lon="5.21559">
        <ele>308</ele>
      </trkpt>
      <trkpt lat="44.24548" lon="5.21469">
        <ele>308</ele>
      </trkpt>
      <trkpt lat="44.24532" lon="5.2138">
        <ele>308</ele>
      </trkpt>
      <trkpt lat="44.24527" lon="5.21361">
        <ele>309</ele>
      </trkpt>
      <trkpt lat="44.24514" lon="5.21323">
        <ele>312</ele>
      </trkpt>
      <trkpt lat="44.24492" lon="5.21284">
        <ele>314</ele>
      </trkpt>
      <trkpt lat="44.24466" lon="5.21245">
        <ele>317</ele>
      </trkpt>
      <trkpt lat="44.24431" lon="5.21189">
        <ele>320</ele>
      </trkpt>
      <trkpt lat="44.24418" lon="5.21173">
        <ele>315</ele>
      </trkpt>
      <trkpt lat="44.24372" lon="5.21128">
        <ele>314</ele>
      </trkpt>
      <trkpt lat="44.24272" lon="5.21044">
        <ele>310</ele>
      </trkpt>
      <trkpt lat="44.2424" lon="5.21013">
        <ele>310</ele>
      </trkpt>
      <trkpt lat="44.24222" lon="5.20993">
        <ele>310</ele>
      </trkpt>
      <trkpt lat="44.24207" lon="5.20969">
        <ele>314</ele>
      </trkpt>
      <trkpt lat="44.24196" lon="5.20941">
        <ele>316</ele>
      </trkpt>
      <trkpt lat="44.24173" lon="5.20877">
        <ele>322</ele>
      </trkpt>
      <trkpt lat="44.24162" lon="5.20854">
        <ele>326</ele>
      </trkpt>
      <trkpt lat="44.24142" lon="5.20826">
        <ele>322</ele>
      </trkpt>
      <trkpt lat="44.24073" lon="5.20742">
        <ele>318</ele>
      </trkpt>
      <trkpt lat="44.24064" lon="5.20728">
        <ele>318</ele>
      </trkpt>
      <trkpt lat="44.24057" lon="5.20711">
        <ele>317</ele>
      </trkpt>
      <trkpt lat="44.24053" lon="5.2068">
        <ele>323</ele>
      </trkpt>
      <trkpt lat="44.24057" lon="5.20611">
        <ele>330</ele>
      </trkpt>
      <trkpt lat="44.24056" lon="5.20585">
        <ele>333</ele>
      </trkpt>
      <trkpt lat="44.24053" lon="5.20559">
        <ele>335</ele>
      </trkpt>
      <trkpt lat="44.24023" lon="5.20445">
        <ele>327</ele>
      </trkpt>
      <trkpt lat="44.24005" lon="5.20384">
        <ele>324</ele>
      </trkpt>
      <trkpt lat="44.23959" lon="5.20275">
        <ele>319</ele>
      </trkpt>
      <trkpt lat="44.2395" lon="5.20227">
        <ele>315</ele>
      </trkpt>
      <trkpt lat="44.23936" lon="5.19965">
        <ele>313</ele>
      </trkpt>
      <trkpt lat="44.23936" lon="5.19929">
        <ele>314</ele>
      </trkpt>
      <trkpt lat="44.23939" lon="5.19898">
        <ele>316</ele>
      </trkpt>
      <trkpt lat="44.23951" lon="5.19812">
        <ele>321</ele>
      </trkpt>
      <trkpt lat="44.23952" lon="5.1976">
        <ele>332</ele>
      </trkpt>
      <trkpt lat="44.23949" lon="5.19687">
        <ele>323</ele>
      </trkpt>
      <trkpt lat="44.23944" lon="5.19641">
        <ele>323</ele>
      </trkpt>
      <trkpt lat="44.23933" lon="5.19572">
        <ele>321</ele>
      </trkpt>
      <trkpt lat="44.23922" lon="5.19528">
        <ele>313</ele>
      </trkpt>
      <trkpt lat="44.23899" lon="5.19467">
        <ele>308</ele>
      </trkpt>
      <trkpt lat="44.23897" lon="5.19449">
        <ele>307</ele>
      </trkpt>
      <trkpt lat="44.23899" lon="5.19414">
        <ele>305</ele>
      </trkpt>
      <trkpt lat="44.23904" lon="5.19395">
        <ele>305</ele>
      </trkpt>
      <trkpt lat="44.23922" lon="5.19346">
        <ele>300</ele>
      </trkpt>
      <trkpt lat="44.23932" lon="5.19314">
        <ele>300</ele>
      </trkpt>
      <trkpt lat="44.23935" lon="5.19277">
        <ele>302</ele>
      </trkpt>
      <trkpt lat="44.23934" lon="5.1926">
        <ele>302</ele>
      </trkpt>
      <trkpt lat="44.23928" lon="5.19236">
        <ele>302</ele>
      </trkpt>
      <trkpt lat="44.23899" lon="5.19139">
        <ele>295</ele>
      </trkpt>
      <trkpt lat="44.23892" lon="5.19105">
        <ele>293</ele>
      </trkpt>
      <trkpt lat="44.23891" lon="5.19073">
        <ele>293</ele>
      </trkpt>
      <trkpt lat="44.23893" lon="5.19041">
        <ele>292</ele>
      </trkpt>
      <trkpt lat="44.23909" lon="5.18855">
        <ele>285</ele>
      </trkpt>
      <trkpt lat="44.23913" lon="5.18793">
        <ele>280</ele>
      </trkpt>
      <trkpt lat="44.23913" lon="5.18768">
        <ele>279</ele>
      </trkpt>
      <trkpt lat="44.23922" lon="5.18662">
        <ele>279</ele>
      </trkpt>
      <trkpt lat="44.23927" lon="5.18557">
        <ele>281</ele>
      </trkpt>
      <trkpt lat="44.23911" lon="5.18558">
        <ele>277</ele>
      </trkpt>
      <trkpt lat="44.23896" lon="5.18552">
        <ele>277</ele>
      </trkpt>
      <trkpt lat="44.23863" lon="5.18528">
        <ele>272</ele>
      </trkpt>
      <trkpt lat="44.23817" lon="5.18496">
        <ele>271</ele>
      </trkpt>
      <trkpt lat="44.23777" lon="5.18475">
        <ele>269</ele>
      </trkpt>
      <trkpt lat="44.23697" lon="5.18442">
        <ele>267</ele>
      </trkpt>
      <trkpt lat="44.23384" lon="5.1832">
        <ele>280</ele>
      </trkpt>
      <trkpt lat="44.23316" lon="5.18288">
        <ele>281</ele>
      </trkpt>
      <trkpt lat="44.23279" lon="5.18266">
        <ele>282</ele>
      </trkpt>
      <trkpt lat="44.23237" lon="5.1823">
        <ele>287</ele>
      </trkpt>
      <trkpt lat="44.23214" lon="5.18205">
        <ele>292</ele>
      </trkpt>
      <trkpt lat="44.23165" lon="5.18142">
        <ele>297</ele>
      </trkpt>
      <trkpt lat="44.23137" lon="5.181">
        <ele>299</ele>
      </trkpt>
      <trkpt lat="44.23101" lon="5.18027">
        <ele>301</ele>
      </trkpt>
      <trkpt lat="44.23075" lon="5.17957">
        <ele>303</ele>
      </trkpt>
      <trkpt lat="44.23027" lon="5.17786">
        <ele>311</ele>
      </trkpt>
      <trkpt lat="44.23008" lon="5.178">
        <ele>312</ele>
      </trkpt>
      <trkpt lat="44.22997" lon="5.17812">
        <ele>313</ele>
      </trkpt>
      <trkpt lat="44.22972" lon="5.17848">
        <ele>315</ele>
      </trkpt>
      <trkpt lat="44.22947" lon="5.17889">
        <ele>318</ele>
      </trkpt>
      <trkpt lat="44.22927" lon="5.1793">
        <ele>318</ele>
      </trkpt>
      <trkpt lat="44.22921" lon="5.17951">
        <ele>320</ele>
      </trkpt>
      <trkpt lat="44.22918" lon="5.17973">
        <ele>320</ele>
      </trkpt>
      <trkpt lat="44.22917" lon="5.18002">
        <ele>321</ele>
      </trkpt>
      <trkpt lat="44.22919" lon="5.18029">
        <ele>323</ele>
      </trkpt>
      <trkpt lat="44.22928" lon="5.18062">
        <ele>325</ele>
      </trkpt>
      <trkpt lat="44.22987" lon="5.18267">
        <ele>332</ele>
      </trkpt>
      <trkpt lat="44.23015" lon="5.18348">
        <ele>340</ele>
      </trkpt>
      <trkpt lat="44.23047" lon="5.18434">
        <ele>343</ele>
      </trkpt>
      <trkpt lat="44.23054" lon="5.18458">
        <ele>345</ele>
      </trkpt>
      <trkpt lat="44.23063" lon="5.18505">
        <ele>342</ele>
      </trkpt>
      <trkpt lat="44.23063" lon="5.18546">
        <ele>345</ele>
      </trkpt>
      <trkpt lat="44.2306" lon="5.18564">
        <ele>350</ele>
      </trkpt>
      <trkpt lat="44.23055" lon="5.18584">
        <ele>350</ele>
      </trkpt>
      <trkpt lat="44.22987" lon="5.18759">
        <ele>358</ele>
      </trkpt>
      <trkpt lat="44.22963" lon="5.188">
        <ele>368</ele>
      </trkpt>
      <trkpt lat="44.22893" lon="5.18885">
        <ele>383</ele>
      </trkpt>
      <trkpt lat="44.22871" lon="5.18932">
        <ele>386</ele>
      </trkpt>
      <trkpt lat="44.22863" lon="5.18959">
        <ele>388</ele>
      </trkpt>
      <trkpt lat="44.22859" lon="5.18982">
        <ele>391</ele>
      </trkpt>
      <trkpt lat="44.22847" lon="5.18975">
        <ele>388</ele>
      </trkpt>
      <trkpt lat="44.22837" lon="5.18973">
        <ele>388</ele>
      </trkpt>
      <trkpt lat="44.22833" lon="5.18974">
        <ele>388</ele>
      </trkpt>
      <trkpt lat="44.22789" lon="5.19015">
        <ele>388</ele>
      </trkpt>
      <trkpt lat="44.22773" lon="5.19028">
        <ele>386</ele>
      </trkpt>
      <trkpt lat="44.22754" lon="5.19039">
        <ele>385</ele>
      </trkpt>
      <trkpt lat="44.22735" lon="5.19044">
        <ele>384</ele>
      </trkpt>
      <trkpt lat="44.22704" lon="5.19041">
        <ele>383</ele>
      </trkpt>
      <trkpt lat="44.22681" lon="5.19034">
        <ele>382</ele>
      </trkpt>
      <trkpt lat="44.22669" lon="5.19033">
        <ele>382</ele>
      </trkpt>
      <trkpt lat="44.22663" lon="5.19035">
        <ele>381</ele>
      </trkpt>
      <trkpt lat="44.22657" lon="5.1904">
        <ele>381</ele>
      </trkpt>
      <trkpt lat="44.22653" lon="5.19052">
        <ele>381</ele>
      </trkpt>
      <trkpt lat="44.22652" lon="5.19065">
        <ele>379</ele>
      </trkpt>
      <trkpt lat="44.22658" lon="5.19087">
        <ele>378</ele>
      </trkpt>
      <trkpt lat="44.2267" lon="5.19109">
        <ele>375</ele>
      </trkpt>
      <trkpt lat="44.2269" lon="5.19131">
        <ele>376</ele>
      </trkpt>
      <trkpt lat="44.22697" lon="5.19143">
        <ele>376</ele>
      </trkpt>
      <trkpt lat="44.22701" lon="5.19152">
        <ele>379</ele>
      </trkpt>
      <trkpt lat="44.22701" lon="5.19162">
        <ele>380</ele>
      </trkpt>
      <trkpt lat="44.22699" lon="5.19171">
        <ele>377</ele>
      </trkpt>
      <trkpt lat="44.22694" lon="5.19181">
        <ele>377</ele>
      </trkpt>
      <trkpt lat="44.22678" lon="5.19198">
        <ele>376</ele>
      </trkpt>
      <trkpt lat="44.22635" lon="5.19224">
        <ele>371</ele>
      </trkpt>
      <trkpt lat="44.22589" lon="5.19272">
        <ele>365</ele>
      </trkpt>
      <trkpt lat="44.22576" lon="5.19281">
        <ele>364</ele>
      </trkpt>
      <trkpt lat="44.22567" lon="5.19294">
        <ele>363</ele>
      </trkpt>
      <trkpt lat="44.22561" lon="5.19316">
        <ele>360</ele>
      </trkpt>
      <trkpt lat="44.22544" lon="5.19343">
        <ele>360</ele>
      </trkpt>
      <trkpt lat="44.22501" lon="5.19385">
        <ele>357</ele>
      </trkpt>
      <trkpt lat="44.22492" lon="5.19403">
        <ele>358</ele>
      </trkpt>
      <trkpt lat="44.22476" lon="5.1944">
        <ele>357</ele>
      </trkpt>
      <trkpt lat="44.22466" lon="5.19459">
        <ele>356</ele>
      </trkpt>
      <trkpt lat="44.22437" lon="5.19495">
        <ele>351</ele>
      </trkpt>
      <trkpt lat="44.22403" lon="5.19525">
        <ele>349</ele>
      </trkpt>
      <trkpt lat="44.22377" lon="5.19537">
        <ele>348</ele>
      </trkpt>
      <trkpt lat="44.22359" lon="5.19548">
        <ele>348</ele>
      </trkpt>
      <trkpt lat="44.22324" lon="5.19579">
        <ele>349</ele>
      </trkpt>
      <trkpt lat="44.22314" lon="5.19594">
        <ele>350</ele>
      </trkpt>
      <trkpt lat="44.22306" lon="5.19614">
        <ele>350</ele>
      </trkpt>
      <trkpt lat="44.22286" lon="5.19708">
        <ele>351</ele>
      </trkpt>
      <trkpt lat="44.2228" lon="5.19723">
        <ele>348</ele>
      </trkpt>
      <trkpt lat="44.22274" lon="5.19731">
        <ele>349</ele>
      </trkpt>
      <trkpt lat="44.22265" lon="5.19737">
        <ele>349</ele>
      </trkpt>
      <trkpt lat="44.2222" lon="5.1975">
        <ele>347</ele>
      </trkpt>
      <trkpt lat="44.22166" lon="5.19773">
        <ele>348</ele>
      </trkpt>
      <trkpt lat="44.22156" lon="5.19775">
        <ele>348</ele>
      </trkpt>
      <trkpt lat="44.22144" lon="5.19774">
        <ele>348</ele>
      </trkpt>
      <trkpt lat="44.22108" lon="5.19753">
        <ele>345</ele>
      </trkpt>
      <trkpt lat="44.22095" lon="5.19753">
        <ele>346</ele>
      </trkpt>
      <trkpt lat="44.22089" lon="5.19761">
        <ele>349</ele>
      </trkpt>
      <trkpt lat="44.22077" lon="5.19798">
        <ele>353</ele>
      </trkpt>
      <trkpt lat="44.22068" lon="5.19816">
        <ele>355</ele>
      </trkpt>
      <trkpt lat="44.21983" lon="5.19903">
        <ele>353</ele>
      </trkpt>
      <trkpt lat="44.21978" lon="5.19907">
        <ele>351</ele>
      </trkpt>
      <trkpt lat="44.21972" lon="5.19908">
        <ele>351</ele>
      </trkpt>
      <trkpt lat="44.21966" lon="5.19905">
        <ele>350</ele>
      </trkpt>
      <trkpt lat="44.21951" lon="5.19894">
        <ele>349</ele>
      </trkpt>
      <trkpt lat="44.21937" lon="5.19889">
        <ele>348</ele>
      </trkpt>
      <trkpt lat="44.21926" lon="5.19888">
        <ele>347</ele>
      </trkpt>
      <trkpt lat="44.21918" lon="5.19891">
        <ele>346</ele>
      </trkpt>
      <trkpt lat="44.21909" lon="5.199">
        <ele>347</ele>
      </trkpt>
      <trkpt lat="44.21885" lon="5.1995">
        <ele>345</ele>
      </trkpt>
      <trkpt lat="44.21867" lon="5.19983">
        <ele>343</ele>
      </trkpt>
      <trkpt lat="44.21864" lon="5.1999">
        <ele>343</ele>
      </trkpt>
      <trkpt lat="44.21864" lon="5.20008">
        <ele>343</ele>
      </trkpt>
      <trkpt lat="44.21875" lon="5.20048">
        <ele>346</ele>
      </trkpt>
      <trkpt lat="44.21873" lon="5.2006">
        <ele>347</ele>
      </trkpt>
      <trkpt lat="44.21865" lon="5.20069">
        <ele>347</ele>
      </trkpt>
      <trkpt lat="44.21836" lon="5.2007">
        <ele>342</ele>
      </trkpt>
      <trkpt lat="44.2183" lon="5.20073">
        <ele>342</ele>
      </trkpt>
      <trkpt lat="44.21821" lon="5.20081">
        <ele>341</ele>
      </trkpt>
      <trkpt lat="44.21818" lon="5.20087">
        <ele>341</ele>
      </trkpt>
      <trkpt lat="44.2182" lon="5.2014">
        <ele>343</ele>
      </trkpt>
      <trkpt lat="44.21817" lon="5.20211">
        <ele>344</ele>
      </trkpt>
      <trkpt lat="44.21815" lon="5.20288">
        <ele>344</ele>
      </trkpt>
      <trkpt lat="44.21817" lon="5.20339">
        <ele>343</ele>
      </trkpt>
      <trkpt lat="44.21817" lon="5.20388">
        <ele>341</ele>
      </trkpt>
      <trkpt lat="44.21814" lon="5.20424">
        <ele>337</ele>
      </trkpt>
      <trkpt lat="44.21808" lon="5.20593">
        <ele>325</ele>
      </trkpt>
      <trkpt lat="44.21815" lon="5.20691">
        <ele>329</ele>
      </trkpt>
      <trkpt lat="44.21815" lon="5.2076">
        <ele>331</ele>
      </trkpt>
      <trkpt lat="44.21821" lon="5.208">
        <ele>332</ele>
      </trkpt>
      <trkpt lat="44.21825" lon="5.20872">
        <ele>333</ele>
      </trkpt>
      <trkpt lat="44.21821" lon="5.20919">
        <ele>333</ele>
      </trkpt>
      <trkpt lat="44.21807" lon="5.21007">
        <ele>333</ele>
      </trkpt>
      <trkpt lat="44.21785" lon="5.21082">
        <ele>332</ele>
      </trkpt>
      <trkpt lat="44.21774" lon="5.21107">
        <ele>330</ele>
      </trkpt>
      <trkpt lat="44.21758" lon="5.21115">
        <ele>329</ele>
      </trkpt>
      <trkpt lat="44.21722" lon="5.21131">
        <ele>327</ele>
      </trkpt>
      <trkpt lat="44.21675" lon="5.21169">
        <ele>325</ele>
      </trkpt>
      <trkpt lat="44.21595" lon="5.21223">
        <ele>324</ele>
      </trkpt>
      <trkpt lat="44.21579" lon="5.2124">
        <ele>323</ele>
      </trkpt>
      <trkpt lat="44.21542" lon="5.21299">
        <ele>324</ele>
      </trkpt>
      <trkpt lat="44.21531" lon="5.21326">
        <ele>324</ele>
      </trkpt>
      <trkpt lat="44.21523" lon="5.21354">
        <ele>325</ele>
      </trkpt>
      <trkpt lat="44.21512" lon="5.21382">
        <ele>325</ele>
      </trkpt>
      <trkpt lat="44.21506" lon="5.21387">
        <ele>324</ele>
      </trkpt>
      <trkpt lat="44.21496" lon="5.21386">
        <ele>321</ele>
      </trkpt>
      <trkpt lat="44.21489" lon="5.21381">
        <ele>321</ele>
      </trkpt>
      <trkpt lat="44.21486" lon="5.21376">
        <ele>321</ele>
      </trkpt>
      <trkpt lat="44.21475" lon="5.21349">
        <ele>319</ele>
      </trkpt>
      <trkpt lat="44.21486" lon="5.21376">
        <ele>321</ele>
      </trkpt>
      <trkpt lat="44.21489" lon="5.21381">
        <ele>321</ele>
      </trkpt>
      <trkpt lat="44.21496" lon="5.21386">
        <ele>321</ele>
      </trkpt>
      <trkpt lat="44.21506" lon="5.21387">
        <ele>324</ele>
      </trkpt>
      <trkpt lat="44.21512" lon="5.21382">
        <ele>325</ele>
      </trkpt>
      <trkpt lat="44.21523" lon="5.21354">
        <ele>325</ele>
      </trkpt>
      <trkpt lat="44.21531" lon="5.21326">
        <ele>324</ele>
      </trkpt>
      <trkpt lat="44.21542" lon="5.21299">
        <ele>324</ele>
      </trkpt>
      <trkpt lat="44.21579" lon="5.2124">
        <ele>323</ele>
      </trkpt>
      <trkpt lat="44.21595" lon="5.21223">
        <ele>324</ele>
      </trkpt>
      <trkpt lat="44.21675" lon="5.21169">
        <ele>325</ele>
      </trkpt>
      <trkpt lat="44.21722" lon="5.21131">
        <ele>327</ele>
      </trkpt>
      <trkpt lat="44.21758" lon="5.21115">
        <ele>329</ele>
      </trkpt>
      <trkpt lat="44.21774" lon="5.21107">
        <ele>330</ele>
      </trkpt>
      <trkpt lat="44.21785" lon="5.21082">
        <ele>332</ele>
      </trkpt>
      <trkpt lat="44.21807" lon="5.21007">
        <ele>333</ele>
      </trkpt>
      <trkpt lat="44.21821" lon="5.20919">
        <ele>333</ele>
      </trkpt>
      <trkpt lat="44.21825" lon="5.20872">
        <ele>333</ele>
      </trkpt>
      <trkpt lat="44.21821" lon="5.208">
        <ele>332</ele>
      </trkpt>
      <trkpt lat="44.21815" lon="5.2076">
        <ele>331</ele>
      </trkpt>
      <trkpt lat="44.21815" lon="5.20691">
        <ele>329</ele>
      </trkpt>
      <trkpt lat="44.21808" lon="5.20593">
        <ele>325</ele>
      </trkpt>
      <trkpt lat="44.21814" lon="5.20424">
        <ele>337</ele>
      </trkpt>
      <trkpt lat="44.21817" lon="5.20388">
        <ele>341</ele>
      </trkpt>
      <trkpt lat="44.21817" lon="5.20339">
        <ele>343</ele>
      </trkpt>
      <trkpt lat="44.21815" lon="5.20288">
        <ele>344</ele>
      </trkpt>
      <trkpt lat="44.21817" lon="5.20211">
        <ele>344</ele>
      </trkpt>
      <trkpt lat="44.2182" lon="5.2014">
        <ele>343</ele>
      </trkpt>
      <trkpt lat="44.21818" lon="5.20087">
        <ele>341</ele>
      </trkpt>
      <trkpt lat="44.21821" lon="5.20081">
        <ele>341</ele>
      </trkpt>
      <trkpt lat="44.2183" lon="5.20073">
        <ele>342</ele>
      </trkpt>
      <trkpt lat="44.21836" lon="5.2007">
        <ele>342</ele>
      </trkpt>
      <trkpt lat="44.21865" lon="5.20069">
        <ele>347</ele>
      </trkpt>
      <trkpt lat="44.21873" lon="5.2006">
        <ele>347</ele>
      </trkpt>
      <trkpt lat="44.21875" lon="5.20048">
        <ele>346</ele>
      </trkpt>
      <trkpt lat="44.21864" lon="5.20008">
        <ele>343</ele>
      </trkpt>
      <trkpt lat="44.21864" lon="5.1999">
        <ele>343</ele>
      </trkpt>
      <trkpt lat="44.21867" lon="5.19983">
        <ele>343</ele>
      </trkpt>
      <trkpt lat="44.21885" lon="5.1995">
        <ele>345</ele>
      </trkpt>
      <trkpt lat="44.21909" lon="5.199">
        <ele>347</ele>
      </trkpt>
      <trkpt lat="44.21918" lon="5.19891">
        <ele>346</ele>
      </trkpt>
      <trkpt lat="44.21926" lon="5.19888">
        <ele>347</ele>
      </trkpt>
      <trkpt lat="44.21937" lon="5.19889">
        <ele>348</ele>
      </trkpt>
      <trkpt lat="44.21951" lon="5.19894">
        <ele>349</ele>
      </trkpt>
      <trkpt lat="44.21966" lon="5.19905">
        <ele>350</ele>
      </trkpt>
      <trkpt lat="44.21972" lon="5.19908">
        <ele>351</ele>
      </trkpt>
      <trkpt lat="44.21978" lon="5.19907">
        <ele>351</ele>
      </trkpt>
      <trkpt lat="44.21983" lon="5.19903">
        <ele>353</ele>
      </trkpt>
      <trkpt lat="44.22068" lon="5.19816">
        <ele>355</ele>
      </trkpt>
      <trkpt lat="44.22077" lon="5.19798">
        <ele>353</ele>
      </trkpt>
      <trkpt lat="44.22089" lon="5.19761">
        <ele>349</ele>
      </trkpt>
      <trkpt lat="44.22095" lon="5.19753">
        <ele>346</ele>
      </trkpt>
      <trkpt lat="44.22108" lon="5.19753">
        <ele>345</ele>
      </trkpt>
      <trkpt lat="44.22144" lon="5.19774">
        <ele>348</ele>
      </trkpt>
      <trkpt lat="44.22156" lon="5.19775">
        <ele>348</ele>
      </trkpt>
      <trkpt lat="44.22166" lon="5.19773">
        <ele>348</ele>
      </trkpt>
      <trkpt lat="44.2222" lon="5.1975">
        <ele>347</ele>
      </trkpt>
      <trkpt lat="44.22265" lon="5.19737">
        <ele>349</ele>
      </trkpt>
      <trkpt lat="44.22274" lon="5.19731">
        <ele>349</ele>
      </trkpt>
      <trkpt lat="44.2228" lon="5.19723">
        <ele>348</ele>
      </trkpt>
      <trkpt lat="44.22286" lon="5.19708">
        <ele>351</ele>
      </trkpt>
      <trkpt lat="44.22306" lon="5.19614">
        <ele>350</ele>
      </trkpt>
      <trkpt lat="44.22314" lon="5.19594">
        <ele>350</ele>
      </trkpt>
      <trkpt lat="44.22324" lon="5.19579">
        <ele>349</ele>
      </trkpt>
      <trkpt lat="44.22359" lon="5.19548">
        <ele>348</ele>
      </trkpt>
      <trkpt lat="44.22377" lon="5.19537">
        <ele>348</ele>
      </trkpt>
      <trkpt lat="44.22403" lon="5.19525">
        <ele>349</ele>
      </trkpt>
      <trkpt lat="44.22437" lon="5.19495">
        <ele>351</ele>
      </trkpt>
      <trkpt lat="44.22466" lon="5.19459">
        <ele>356</ele>
      </trkpt>
      <trkpt lat="44.22476" lon="5.1944">
        <ele>357</ele>
      </trkpt>
      <trkpt lat="44.22492" lon="5.19403">
        <ele>358</ele>
      </trkpt>
      <trkpt lat="44.22501" lon="5.19385">
        <ele>357</ele>
      </trkpt>
      <trkpt lat="44.22544" lon="5.19343">
        <ele>360</ele>
      </trkpt>
      <trkpt lat="44.22561" lon="5.19316">
        <ele>360</ele>
      </trkpt>
      <trkpt lat="44.22567" lon="5.19294">
        <ele>363</ele>
      </trkpt>
      <trkpt lat="44.22576" lon="5.19281">
        <ele>364</ele>
      </trkpt>
      <trkpt lat="44.22589" lon="5.19272">
        <ele>365</ele>
      </trkpt>
      <trkpt lat="44.22635" lon="5.19224">
        <ele>371</ele>
      </trkpt>
      <trkpt lat="44.22678" lon="5.19198">
        <ele>376</ele>
      </trkpt>
      <trkpt lat="44.22694" lon="5.19181">
        <ele>377</ele>
      </trkpt>
      <trkpt lat="44.22699" lon="5.19171">
        <ele>377</ele>
      </trkpt>
      <trkpt lat="44.22701" lon="5.19162">
        <ele>380</ele>
      </trkpt>
      <trkpt lat="44.22701" lon="5.19152">
        <ele>379</ele>
      </trkpt>
      <trkpt lat="44.22697" lon="5.19143">
        <ele>376</ele>
      </trkpt>
      <trkpt lat="44.2269" lon="5.19131">
        <ele>376</ele>
      </trkpt>
      <trkpt lat="44.2267" lon="5.19109">
        <ele>375</ele>
      </trkpt>
      <trkpt lat="44.22658" lon="5.19087">
        <ele>378</ele>
      </trkpt>
      <trkpt lat="44.22652" lon="5.19065">
        <ele>379</ele>
      </trkpt>
      <trkpt lat="44.22653" lon="5.19052">
        <ele>381</ele>
      </trkpt>
      <trkpt lat="44.22657" lon="5.1904">
        <ele>381</ele>
      </trkpt>
      <trkpt lat="44.22663" lon="5.19035">
        <ele>381</ele>
      </trkpt>
      <trkpt lat="44.22669" lon="5.19033">
        <ele>382</ele>
      </trkpt>
      <trkpt lat="44.22681" lon="5.19034">
        <ele>382</ele>
      </trkpt>
      <trkpt lat="44.22704" lon="5.19041">
        <ele>383</ele>
      </trkpt>
      <trkpt lat="44.22735" lon="5.19044">
        <ele>384</ele>
      </trkpt>
      <trkpt lat="44.22754" lon="5.19039">
        <ele>385</ele>
      </trkpt>
      <trkpt lat="44.22773" lon="5.19028">
        <ele>386</ele>
      </trkpt>
      <trkpt lat="44.22789" lon="5.19015">
        <ele>388</ele>
      </trkpt>
      <trkpt lat="44.22833" lon="5.18974">
        <ele>388</ele>
      </trkpt>
      <trkpt lat="44.22837" lon="5.18973">
        <ele>388</ele>
      </trkpt>
      <trkpt lat="44.22847" lon="5.18975">
        <ele>388</ele>
      </trkpt>
      <trkpt lat="44.22859" lon="5.18982">
        <ele>391</ele>
      </trkpt>
      <trkpt lat="44.22863" lon="5.18959">
        <ele>388</ele>
      </trkpt>
      <trkpt lat="44.22871" lon="5.18932">
        <ele>386</ele>
      </trkpt>
      <trkpt lat="44.22893" lon="5.18885">
        <ele>383</ele>
      </trkpt>
      <trkpt lat="44.22963" lon="5.188">
        <ele>368</ele>
      </trkpt>
      <trkpt lat="44.22987" lon="5.18759">
        <ele>358</ele>
      </trkpt>
      <trkpt lat="44.23055" lon="5.18584">
        <ele>350</ele>
      </trkpt>
      <trkpt lat="44.2306" lon="5.18564">
        <ele>350</ele>
      </trkpt>
      <trkpt lat="44.23063" lon="5.18546">
        <ele>345</ele>
      </trkpt>
      <trkpt lat="44.23063" lon="5.18505">
        <ele>342</ele>
      </trkpt>
      <trkpt lat="44.23054" lon="5.18458">
        <ele>345</ele>
      </trkpt>
      <trkpt lat="44.23047" lon="5.18434">
        <ele>343</ele>
      </trkpt>
      <trkpt lat="44.23015" lon="5.18348">
        <ele>340</ele>
      </trkpt>
      <trkpt lat="44.22987" lon="5.18267">
        <ele>332</ele>
      </trkpt>
      <trkpt lat="44.22928" lon="5.18062">
        <ele>325</ele>
      </trkpt>
      <trkpt lat="44.22919" lon="5.18029">
        <ele>323</ele>
      </trkpt>
      <trkpt lat="44.22917" lon="5.18002">
        <ele>321</ele>
      </trkpt>
      <trkpt lat="44.22918" lon="5.17973">
        <ele>320</ele>
      </trkpt>
      <trkpt lat="44.22921" lon="5.17951">
        <ele>320</ele>
      </trkpt>
      <trkpt lat="44.22927" lon="5.1793">
        <ele>318</ele>
      </trkpt>
      <trkpt lat="44.22947" lon="5.17889">
        <ele>318</ele>
      </trkpt>
      <trkpt lat="44.22972" lon="5.17848">
        <ele>315</ele>
      </trkpt>
      <trkpt lat="44.22997" lon="5.17812">
        <ele>313</ele>
      </trkpt>
      <trkpt lat="44.23008" lon="5.178">
        <ele>312</ele>
      </trkpt>
      <trkpt lat="44.23027" lon="5.17786">
        <ele>311</ele>
      </trkpt>
      <trkpt lat="44.23075" lon="5.17957">
        <ele>303</ele>
      </trkpt>
      <trkpt lat="44.23101" lon="5.18027">
        <ele>301</ele>
      </trkpt>
      <trkpt lat="44.23137" lon="5.181">
        <ele>299</ele>
      </trkpt>
      <trkpt lat="44.23165" lon="5.18142">
        <ele>297</ele>
      </trkpt>
      <trkpt lat="44.23214" lon="5.18205">
        <ele>292</ele>
      </trkpt>
      <trkpt lat="44.23237" lon="5.1823">
        <ele>287</ele>
      </trkpt>
      <trkpt lat="44.23279" lon="5.18266">
        <ele>282</ele>
      </trkpt>
      <trkpt lat="44.23316" lon="5.18288">
        <ele>281</ele>
      </trkpt>
      <trkpt lat="44.23384" lon="5.1832">
        <ele>280</ele>
      </trkpt>
      <trkpt lat="44.23445" lon="5.18345">
        <ele>276</ele>
      </trkpt>
      <trkpt lat="44.23435" lon="5.18296">
        <ele>276</ele>
      </trkpt>
      <trkpt lat="44.23352" lon="5.18063">
        <ele>280</ele>
      </trkpt>
      <trkpt lat="44.23335" lon="5.18008">
        <ele>279</ele>
      </trkpt>
      <trkpt lat="44.2333" lon="5.17984">
        <ele>279</ele>
      </trkpt>
      <trkpt lat="44.23323" lon="5.17924">
        <ele>279</ele>
      </trkpt>
      <trkpt lat="44.23322" lon="5.17887">
        <ele>280</ele>
      </trkpt>
      <trkpt lat="44.23329" lon="5.17791">
        <ele>280</ele>
      </trkpt>
      <trkpt lat="44.23334" lon="5.17753">
        <ele>279</ele>
      </trkpt>
      <trkpt lat="44.23337" lon="5.17707">
        <ele>279</ele>
      </trkpt>
      <trkpt lat="44.23332" lon="5.17612">
        <ele>278</ele>
      </trkpt>
      <trkpt lat="44.23326" lon="5.17546">
        <ele>276</ele>
      </trkpt>
      <trkpt lat="44.23325" lon="5.17517">
        <ele>274</ele>
      </trkpt>
      <trkpt lat="44.23326" lon="5.17469">
        <ele>274</ele>
      </trkpt>
      <trkpt lat="44.23329" lon="5.17437">
        <ele>275</ele>
      </trkpt>
      <trkpt lat="44.2334" lon="5.17376">
        <ele>273</ele>
      </trkpt>
      <trkpt lat="44.23357" lon="5.17297">
        <ele>280</ele>
      </trkpt>
      <trkpt lat="44.23367" lon="5.17229">
        <ele>283</ele>
      </trkpt>
      <trkpt lat="44.23369" lon="5.17206">
        <ele>279</ele>
      </trkpt>
      <trkpt lat="44.23368" lon="5.17167">
        <ele>279</ele>
      </trkpt>
      <trkpt lat="44.2337" lon="5.17085">
        <ele>282</ele>
      </trkpt>
      <trkpt lat="44.23379" lon="5.17014">
        <ele>282</ele>
      </trkpt>
      <trkpt lat="44.23394" lon="5.16942">
        <ele>280</ele>
      </trkpt>
      <trkpt lat="44.23433" lon="5.16814">
        <ele>276</ele>
      </trkpt>
      <trkpt lat="44.23484" lon="5.16655">
        <ele>274</ele>
      </trkpt>
      <trkpt lat="44.23502" lon="5.16585">
        <ele>275</ele>
      </trkpt>
      <trkpt lat="44.23527" lon="5.16456">
        <ele>270</ele>
      </trkpt>
      <trkpt lat="44.23531" lon="5.16413">
        <ele>270</ele>
      </trkpt>
      <trkpt lat="44.23536" lon="5.16389">
        <ele>264</ele>
      </trkpt>
      <trkpt lat="44.23533" lon="5.16363">
        <ele>267</ele>
      </trkpt>
      <trkpt lat="44.23523" lon="5.16326">
        <ele>265</ele>
      </trkpt>
      <trkpt lat="44.23504" lon="5.16277">
        <ele>265</ele>
      </trkpt>
      <trkpt lat="44.23496" lon="5.1626">
        <ele>265</ele>
      </trkpt>
      <trkpt lat="44.23491" lon="5.16255">
        <ele>265</ele>
      </trkpt>
      <trkpt lat="44.2348" lon="5.16251">
        <ele>265</ele>
      </trkpt>
      <trkpt lat="44.23463" lon="5.16252">
        <ele>270</ele>
      </trkpt>
      <trkpt lat="44.23456" lon="5.16246">
        <ele>270</ele>
      </trkpt>
      <trkpt lat="44.23443" lon="5.16227">
        <ele>273</ele>
      </trkpt>
      <trkpt lat="44.2343" lon="5.16181">
        <ele>270</ele>
      </trkpt>
      <trkpt lat="44.23427" lon="5.16152">
        <ele>268</ele>
      </trkpt>
      <trkpt lat="44.23427" lon="5.16118">
        <ele>267</ele>
      </trkpt>
      <trkpt lat="44.2343" lon="5.16079">
        <ele>269</ele>
      </trkpt>
      <trkpt lat="44.23479" lon="5.15739">
        <ele>267</ele>
      </trkpt>
      <trkpt lat="44.23486" lon="5.15713">
        <ele>267</ele>
      </trkpt>
      <trkpt lat="44.2351" lon="5.15537">
        <ele>260</ele>
      </trkpt>
      <trkpt lat="44.23514" lon="5.15504">
        <ele>260</ele>
      </trkpt>
      <trkpt lat="44.23515" lon="5.15456">
        <ele>260</ele>
      </trkpt>
      <trkpt lat="44.23513" lon="5.15423">
        <ele>259</ele>
      </trkpt>
      <trkpt lat="44.23494" lon="5.15302">
        <ele>256</ele>
      </trkpt>
      <trkpt lat="44.23492" lon="5.15276">
        <ele>256</ele>
      </trkpt>
      <trkpt lat="44.23492" lon="5.15244">
        <ele>255</ele>
      </trkpt>
      <trkpt lat="44.23494" lon="5.15212">
        <ele>253</ele>
      </trkpt>
      <trkpt lat="44.23505" lon="5.15172">
        <ele>253</ele>
      </trkpt>
      <trkpt lat="44.23513" lon="5.15153">
        <ele>251</ele>
      </trkpt>
      <trkpt lat="44.23533" lon="5.1512">
        <ele>251</ele>
      </trkpt>
      <trkpt lat="44.23556" lon="5.15095">
        <ele>250</ele>
      </trkpt>
      <trkpt lat="44.23623" lon="5.15049">
        <ele>252</ele>
      </trkpt>
      <trkpt lat="44.23663" lon="5.15023">
        <ele>254</ele>
      </trkpt>
      <trkpt lat="44.23688" lon="5.15003">
        <ele>254</ele>
      </trkpt>
      <trkpt lat="44.23697" lon="5.14992">
        <ele>255</ele>
      </trkpt>
      <trkpt lat="44.23711" lon="5.14971">
        <ele>256</ele>
      </trkpt>
      <trkpt lat="44.23726" lon="5.14939">
        <ele>257</ele>
      </trkpt>
      <trkpt lat="44.23732" lon="5.14917">
        <ele>257</ele>
      </trkpt>
      <trkpt lat="44.23736" lon="5.14898">
        <ele>257</ele>
      </trkpt>
      <trkpt lat="44.23737" lon="5.14878">
        <ele>258</ele>
      </trkpt>
      <trkpt lat="44.23737" lon="5.14828">
        <ele>257</ele>
      </trkpt>
      <trkpt lat="44.23735" lon="5.14808">
        <ele>255</ele>
      </trkpt>
      <trkpt lat="44.23722" lon="5.1476">
        <ele>253</ele>
      </trkpt>
      <trkpt lat="44.23705" lon="5.1473">
        <ele>250</ele>
      </trkpt>
      <trkpt lat="44.23672" lon="5.14686">
        <ele>252</ele>
      </trkpt>
      <trkpt lat="44.23654" lon="5.14655">
        <ele>252</ele>
      </trkpt>
      <trkpt lat="44.23639" lon="5.14619">
        <ele>251</ele>
      </trkpt>
      <trkpt lat="44.2363" lon="5.1458">
        <ele>244</ele>
      </trkpt>
      <trkpt lat="44.23608" lon="5.14442">
        <ele>245</ele>
      </trkpt>
      <trkpt lat="44.236" lon="5.14404">
        <ele>246</ele>
      </trkpt>
      <trkpt lat="44.23567" lon="5.14294">
        <ele>245</ele>
      </trkpt>
      <trkpt lat="44.23554" lon="5.14241">
        <ele>245</ele>
      </trkpt>
      <trkpt lat="44.23543" lon="5.14209">
        <ele>243</ele>
      </trkpt>
      <trkpt lat="44.23528" lon="5.14177">
        <ele>244</ele>
      </trkpt>
      <trkpt lat="44.2352" lon="5.14164">
        <ele>242</ele>
      </trkpt>
      <trkpt lat="44.235" lon="5.14139">
        <ele>243</ele>
      </trkpt>
      <trkpt lat="44.23478" lon="5.1412">
        <ele>246</ele>
      </trkpt>
      <trkpt lat="44.23454" lon="5.14105">
        <ele>244</ele>
      </trkpt>
      <trkpt lat="44.23405" lon="5.14085">
        <ele>247</ele>
      </trkpt>
      <trkpt lat="44.23353" lon="5.14079">
        <ele>248</ele>
      </trkpt>
      <trkpt lat="44.23312" lon="5.14066">
        <ele>250</ele>
      </trkpt>
      <trkpt lat="44.23269" lon="5.14044">
        <ele>244</ele>
      </trkpt>
      <trkpt lat="44.23195" lon="5.13994">
        <ele>252</ele>
      </trkpt>
      <trkpt lat="44.23183" lon="5.13984">
        <ele>252</ele>
      </trkpt>
      <trkpt lat="44.23161" lon="5.13962">
        <ele>251</ele>
      </trkpt>
      <trkpt lat="44.23091" lon="5.13869">
        <ele>250</ele>
      </trkpt>
      <trkpt lat="44.22982" lon="5.13746">
        <ele>244</ele>
      </trkpt>
      <trkpt lat="44.22974" lon="5.13746">
        <ele>246</ele>
      </trkpt>
      <trkpt lat="44.22948" lon="5.13722">
        <ele>246</ele>
      </trkpt>
      <trkpt lat="44.22925" lon="5.13706">
        <ele>246</ele>
      </trkpt>
      <trkpt lat="44.22908" lon="5.13699">
        <ele>248</ele>
      </trkpt>
      <trkpt lat="44.22911" lon="5.13693">
        <ele>245</ele>
      </trkpt>
      <trkpt lat="44.22931" lon="5.13638">
        <ele>246</ele>
      </trkpt>
      <trkpt lat="44.22934" lon="5.13625">
        <ele>247</ele>
      </trkpt>
      <trkpt lat="44.22937" lon="5.13607">
        <ele>249</ele>
      </trkpt>
      <trkpt lat="44.22936" lon="5.13548">
        <ele>253</ele>
      </trkpt>
      <trkpt lat="44.22931" lon="5.13503">
        <ele>256</ele>
      </trkpt>
      <trkpt lat="44.22897" lon="5.13328">
        <ele>261</ele>
      </trkpt>
      <trkpt lat="44.22899" lon="5.13323">
        <ele>262</ele>
      </trkpt>
      <trkpt lat="44.22898" lon="5.13305">
        <ele>265</ele>
      </trkpt>
      <trkpt lat="44.22857" lon="5.13133">
        <ele>266</ele>
      </trkpt>
      <trkpt lat="44.22843" lon="5.13087">
        <ele>266</ele>
      </trkpt>
      <trkpt lat="44.22839" lon="5.13075">
        <ele>263</ele>
      </trkpt>
      <trkpt lat="44.22831" lon="5.13059">
        <ele>263</ele>
      </trkpt>
      <trkpt lat="44.22803" lon="5.13016">
        <ele>262</ele>
      </trkpt>
      <trkpt lat="44.2279" lon="5.12991">
        <ele>261</ele>
      </trkpt>
      <trkpt lat="44.22788" lon="5.12982">
        <ele>261</ele>
      </trkpt>
      <trkpt lat="44.22789" lon="5.12972">
        <ele>260</ele>
      </trkpt>
      <trkpt lat="44.22792" lon="5.12964">
        <ele>260</ele>
      </trkpt>
      <trkpt lat="44.22798" lon="5.12958">
        <ele>261</ele>
      </trkpt>
      <trkpt lat="44.22816" lon="5.12955">
        <ele>258</ele>
      </trkpt>
      <trkpt lat="44.2284" lon="5.12961">
        <ele>255</ele>
      </trkpt>
      <trkpt lat="44.2285" lon="5.12967">
        <ele>255</ele>
      </trkpt>
      <trkpt lat="44.22906" lon="5.1301">
        <ele>257</ele>
      </trkpt>
      <trkpt lat="44.22928" lon="5.13023">
        <ele>254</ele>
      </trkpt>
      <trkpt lat="44.22994" lon="5.13053">
        <ele>255</ele>
      </trkpt>
      <trkpt lat="44.23007" lon="5.13057">
        <ele>253</ele>
      </trkpt>
      <trkpt lat="44.23047" lon="5.13059">
        <ele>250</ele>
      </trkpt>
      <trkpt lat="44.231" lon="5.13055">
        <ele>250</ele>
      </trkpt>
      <trkpt lat="44.23114" lon="5.13049">
        <ele>251</ele>
      </trkpt>
      <trkpt lat="44.23123" lon="5.13041">
        <ele>252</ele>
      </trkpt>
      <trkpt lat="44.23129" lon="5.13029">
        <ele>250</ele>
      </trkpt>
      <trkpt lat="44.23132" lon="5.13015">
        <ele>250</ele>
      </trkpt>
      <trkpt lat="44.23133" lon="5.12991">
        <ele>247</ele>
      </trkpt>
      <trkpt lat="44.2313" lon="5.12978">
        <ele>247</ele>
      </trkpt>
      <trkpt lat="44.23123" lon="5.12957">
        <ele>247</ele>
      </trkpt>
      <trkpt lat="44.23111" lon="5.12937">
        <ele>247</ele>
      </trkpt>
      <trkpt lat="44.23106" lon="5.12925">
        <ele>248</ele>
      </trkpt>
      <trkpt lat="44.23105" lon="5.12914">
        <ele>248</ele>
      </trkpt>
      <trkpt lat="44.23106" lon="5.12903">
        <ele>248</ele>
      </trkpt>
      <trkpt lat="44.2311" lon="5.12897">
        <ele>248</ele>
      </trkpt>
      <trkpt lat="44.2312" lon="5.1289">
        <ele>248</ele>
      </trkpt>
      <trkpt lat="44.23131" lon="5.12889">
        <ele>248</ele>
      </trkpt>
      <trkpt lat="44.2316" lon="5.12898">
        <ele>249</ele>
      </trkpt>
      <trkpt lat="44.23179" lon="5.12898">
        <ele>250</ele>
      </trkpt>
      <trkpt lat="44.2321" lon="5.12895">
        <ele>252</ele>
      </trkpt>
      <trkpt lat="44.23262" lon="5.12886">
        <ele>258</ele>
      </trkpt>
      <trkpt lat="44.23277" lon="5.12889">
        <ele>258</ele>
      </trkpt>
      <trkpt lat="44.23317" lon="5.12917">
        <ele>260</ele>
      </trkpt>
      <trkpt lat="44.23333" lon="5.12919">
        <ele>260</ele>
      </trkpt>
      <trkpt lat="44.23348" lon="5.12916">
        <ele>261</ele>
      </trkpt>
      <trkpt lat="44.23394" lon="5.12898">
        <ele>263</ele>
      </trkpt>
      <trkpt lat="44.2342" lon="5.12899">
        <ele>265</ele>
      </trkpt>
      <trkpt lat="44.23526" lon="5.12923">
        <ele>266</ele>
      </trkpt>
      <trkpt lat="44.23554" lon="5.12924">
        <ele>267</ele>
      </trkpt>
      <trkpt lat="44.2359" lon="5.12913">
        <ele>271</ele>
      </trkpt>
      <trkpt lat="44.23645" lon="5.1289">
        <ele>274</ele>
      </trkpt>
      <trkpt lat="44.23664" lon="5.12878">
        <ele>276</ele>
      </trkpt>
      <trkpt lat="44.23702" lon="5.12848">
        <ele>283</ele>
      </trkpt>
      <trkpt lat="44.23718" lon="5.12845">
        <ele>284</ele>
      </trkpt>
      <trkpt lat="44.23735" lon="5.1285">
        <ele>288</ele>
      </trkpt>
      <trkpt lat="44.2375" lon="5.12858">
        <ele>288</ele>
      </trkpt>
      <trkpt lat="44.2379" lon="5.12891">
        <ele>290</ele>
      </trkpt>
      <trkpt lat="44.23891" lon="5.12962">
        <ele>293</ele>
      </trkpt>
      <trkpt lat="44.23952" lon="5.13">
        <ele>298</ele>
      </trkpt>
      <trkpt lat="44.24018" lon="5.13057">
        <ele>296</ele>
      </trkpt>
      <trkpt lat="44.24029" lon="5.13062">
        <ele>291</ele>
      </trkpt>
      <trkpt lat="44.24059" lon="5.13067">
        <ele>294</ele>
      </trkpt>
      <trkpt lat="44.24101" lon="5.13082">
        <ele>301</ele>
      </trkpt>
      <trkpt lat="44.24193" lon="5.13129">
        <ele>298</ele>
      </trkpt>
      <trkpt lat="44.24282" lon="5.13164">
        <ele>302</ele>
      </trkpt>
      <trkpt lat="44.24417" lon="5.132">
        <ele>299</ele>
      </trkpt>
      <trkpt lat="44.2443" lon="5.13201">
        <ele>298</ele>
      </trkpt>
      <trkpt lat="44.24441" lon="5.13201">
        <ele>299</ele>
      </trkpt>
      <trkpt lat="44.24476" lon="5.13189">
        <ele>305</ele>
      </trkpt>
      <trkpt lat="44.24526" lon="5.13189">
        <ele>305</ele>
      </trkpt>
      <trkpt lat="44.2457" lon="5.13178">
        <ele>304</ele>
      </trkpt>
      <trkpt lat="44.2459" lon="5.1318">
        <ele>304</ele>
      </trkpt>
      <trkpt lat="44.24636" lon="5.13193">
        <ele>307</ele>
      </trkpt>
      <trkpt lat="44.24642" lon="5.13185">
        <ele>307</ele>
      </trkpt>
      <trkpt lat="44.24648" lon="5.13183">
        <ele>309</ele>
      </trkpt>
      <trkpt lat="44.24687" lon="5.13187">
        <ele>311</ele>
      </trkpt>
      <trkpt lat="44.24692" lon="5.13185">
        <ele>311</ele>
      </trkpt>
      <trkpt lat="44.24696" lon="5.13183">
        <ele>311</ele>
      </trkpt>
      <trkpt lat="44.24697" lon="5.13176">
        <ele>311</ele>
      </trkpt>
      <trkpt lat="44.24696" lon="5.1317">
        <ele>314</ele>
      </trkpt>
      <trkpt lat="44.24689" lon="5.13161">
        <ele>315</ele>
      </trkpt>
      <trkpt lat="44.24678" lon="5.13151">
        <ele>316</ele>
      </trkpt>
      <trkpt lat="44.24661" lon="5.13143">
        <ele>315</ele>
      </trkpt>
      <trkpt lat="44.24648" lon="5.13133">
        <ele>317</ele>
      </trkpt>
      <trkpt lat="44.24636" lon="5.13107">
        <ele>319</ele>
      </trkpt>
      <trkpt lat="44.24624" lon="5.13087">
        <ele>320</ele>
      </trkpt>
      <trkpt lat="44.24622" lon="5.13078">
        <ele>323</ele>
      </trkpt>
      <trkpt lat="44.24622" lon="5.13068">
        <ele>323</ele>
      </trkpt>
      <trkpt lat="44.24636" lon="5.13015">
        <ele>327</ele>
      </trkpt>
      <trkpt lat="44.24633" lon="5.1298">
        <ele>326</ele>
      </trkpt>
      <trkpt lat="44.24616" lon="5.12842">
        <ele>317</ele>
      </trkpt>
      <trkpt lat="44.24616" lon="5.12831">
        <ele>316</ele>
      </trkpt>
      <trkpt lat="44.24617" lon="5.12821">
        <ele>316</ele>
      </trkpt>
      <trkpt lat="44.24633" lon="5.12782">
        <ele>314</ele>
      </trkpt>
      <trkpt lat="44.24637" lon="5.12766">
        <ele>312</ele>
      </trkpt>
      <trkpt lat="44.24634" lon="5.12737">
        <ele>312</ele>
      </trkpt>
      <trkpt lat="44.2462" lon="5.12666">
        <ele>316</ele>
      </trkpt>
      <trkpt lat="44.2461" lon="5.12644">
        <ele>314</ele>
      </trkpt>
      <trkpt lat="44.24608" lon="5.12632">
        <ele>315</ele>
      </trkpt>
      <trkpt lat="44.2461" lon="5.12614">
        <ele>317</ele>
      </trkpt>
      <trkpt lat="44.24644" lon="5.12529">
        <ele>323</ele>
      </trkpt>
      <trkpt lat="44.24688" lon="5.12461">
        <ele>332</ele>
      </trkpt>
      <trkpt lat="44.24735" lon="5.12371">
        <ele>334</ele>
      </trkpt>
      <trkpt lat="44.24765" lon="5.1232">
        <ele>330</ele>
      </trkpt>
      <trkpt lat="44.24779" lon="5.123">
        <ele>328</ele>
      </trkpt>
      <trkpt lat="44.24785" lon="5.12279">
        <ele>329</ele>
      </trkpt>
      <trkpt lat="44.24796" lon="5.12201">
        <ele>334</ele>
      </trkpt>
      <trkpt lat="44.24805" lon="5.1217">
        <ele>336</ele>
      </trkpt>
      <trkpt lat="44.2481" lon="5.12156">
        <ele>336</ele>
      </trkpt>
      <trkpt lat="44.24827" lon="5.12131">
        <ele>339</ele>
      </trkpt>
      <trkpt lat="44.24836" lon="5.12123">
        <ele>340</ele>
      </trkpt>
      <trkpt lat="44.2487" lon="5.121">
        <ele>348</ele>
      </trkpt>
      <trkpt lat="44.24874" lon="5.12083">
        <ele>348</ele>
      </trkpt>
      <trkpt lat="44.24876" lon="5.1205">
        <ele>349</ele>
      </trkpt>
      <trkpt lat="44.24879" lon="5.12036">
        <ele>349</ele>
      </trkpt>
      <trkpt lat="44.24886" lon="5.12019">
        <ele>349</ele>
      </trkpt>
      <trkpt lat="44.24904" lon="5.12">
        <ele>356</ele>
      </trkpt>
      <trkpt lat="44.24907" lon="5.11987">
        <ele>356</ele>
      </trkpt>
      <trkpt lat="44.24903" lon="5.11952">
        <ele>356</ele>
      </trkpt>
      <trkpt lat="44.24891" lon="5.1191">
        <ele>356</ele>
      </trkpt>
      <trkpt lat="44.2489" lon="5.11868">
        <ele>360</ele>
      </trkpt>
      <trkpt lat="44.2488" lon="5.11836">
        <ele>362</ele>
      </trkpt>
      <trkpt lat="44.24879" lon="5.11823">
        <ele>362</ele>
      </trkpt>
      <trkpt lat="44.24886" lon="5.11818">
        <ele>363</ele>
      </trkpt>
      <trkpt lat="44.24931" lon="5.11827">
        <ele>365</ele>
      </trkpt>
      <trkpt lat="44.24987" lon="5.11819">
        <ele>365</ele>
      </trkpt>
      <trkpt lat="44.25018" lon="5.1181">
        <ele>367</ele>
      </trkpt>
      <trkpt lat="44.25022" lon="5.11804">
        <ele>365</ele>
      </trkpt>
      <trkpt lat="44.25023" lon="5.11799">
        <ele>364</ele>
      </trkpt>
      <trkpt lat="44.25022" lon="5.11777">
        <ele>362</ele>
      </trkpt>
      <trkpt lat="44.25024" lon="5.11769">
        <ele>362</ele>
      </trkpt>
      <trkpt lat="44.2503" lon="5.11759">
        <ele>362</ele>
      </trkpt>
      <trkpt lat="44.2504" lon="5.11755">
        <ele>363</ele>
      </trkpt>
      <trkpt lat="44.25056" lon="5.11756">
        <ele>364</ele>
      </trkpt>
      <trkpt lat="44.25068" lon="5.11754">
        <ele>364</ele>
      </trkpt>
      <trkpt lat="44.25089" lon="5.11745">
        <ele>358</ele>
      </trkpt>
      <trkpt lat="44.25204" lon="5.11731">
        <ele>358</ele>
      </trkpt>
      <trkpt lat="44.25281" lon="5.1169">
        <ele>345</ele>
      </trkpt>
      <trkpt lat="44.25307" lon="5.11664">
        <ele>339</ele>
      </trkpt>
      <trkpt lat="44.25316" lon="5.1165">
        <ele>337</ele>
      </trkpt>
      <trkpt lat="44.25348" lon="5.11625">
        <ele>328</ele>
      </trkpt>
      <trkpt lat="44.25383" lon="5.11564">
        <ele>313</ele>
      </trkpt>
      <trkpt lat="44.25388" lon="5.11561">
        <ele>312</ele>
      </trkpt>
      <trkpt lat="44.25393" lon="5.1156">
        <ele>312</ele>
      </trkpt>
      <trkpt lat="44.254" lon="5.11563">
        <ele>308</ele>
      </trkpt>
      <trkpt lat="44.25404" lon="5.11568">
        <ele>307</ele>
      </trkpt>
      <trkpt lat="44.25425" lon="5.11624">
        <ele>310</ele>
      </trkpt>
      <trkpt lat="44.25463" lon="5.1167">
        <ele>308</ele>
      </trkpt>
      <trkpt lat="44.2547" lon="5.11683">
        <ele>308</ele>
      </trkpt>
      <trkpt lat="44.25482" lon="5.11714">
        <ele>307</ele>
      </trkpt>
      <trkpt lat="44.25487" lon="5.11717">
        <ele>307</ele>
      </trkpt>
      <trkpt lat="44.25492" lon="5.11716">
        <ele>307</ele>
      </trkpt>
      <trkpt lat="44.25499" lon="5.117">
        <ele>306</ele>
      </trkpt>
      <trkpt lat="44.255" lon="5.11684">
        <ele>304</ele>
      </trkpt>
      <trkpt lat="44.25498" lon="5.11662">
        <ele>302</ele>
      </trkpt>
      <trkpt lat="44.25493" lon="5.11635">
        <ele>300</ele>
      </trkpt>
      <trkpt lat="44.25489" lon="5.11628">
        <ele>299</ele>
      </trkpt>
      <trkpt lat="44.25477" lon="5.11617">
        <ele>302</ele>
      </trkpt>
      <trkpt lat="44.25477" lon="5.1161">
        <ele>300</ele>
      </trkpt>
      <trkpt lat="44.25479" lon="5.11603">
        <ele>300</ele>
      </trkpt>
      <trkpt lat="44.25489" lon="5.11582">
        <ele>297</ele>
      </trkpt>
      <trkpt lat="44.25502" lon="5.11549">
        <ele>295</ele>
      </trkpt>
      <trkpt lat="44.25509" lon="5.1152">
        <ele>292</ele>
      </trkpt>
      <trkpt lat="44.25511" lon="5.11504">
        <ele>292</ele>
      </trkpt>
      <trkpt lat="44.25511" lon="5.11458">
        <ele>288</ele>
      </trkpt>
      <trkpt lat="44.25514" lon="5.11446">
        <ele>286</ele>
      </trkpt>
      <trkpt lat="44.2554" lon="5.11409">
        <ele>284</ele>
      </trkpt>
      <trkpt lat="44.25553" lon="5.11394">
        <ele>284</ele>
      </trkpt>
      <trkpt lat="44.2558" lon="5.11373">
        <ele>284</ele>
      </trkpt>
      <trkpt lat="44.25625" lon="5.1131">
        <ele>277</ele>
      </trkpt>
      <trkpt lat="44.25642" lon="5.11282">
        <ele>275</ele>
      </trkpt>
      <trkpt lat="44.25655" lon="5.11243">
        <ele>271</ele>
      </trkpt>
      <trkpt lat="44.25678" lon="5.11125">
        <ele>267</ele>
      </trkpt>
      <trkpt lat="44.2568" lon="5.11109">
        <ele>267</ele>
      </trkpt>
      <trkpt lat="44.25681" lon="5.11077">
        <ele>267</ele>
      </trkpt>
      <trkpt lat="44.25686" lon="5.11052">
        <ele>266</ele>
      </trkpt>
      <trkpt lat="44.25707" lon="5.10988">
        <ele>266</ele>
      </trkpt>
      <trkpt lat="44.25711" lon="5.1098">
        <ele>266</ele>
      </trkpt>
      <trkpt lat="44.25723" lon="5.1097">
        <ele>266</ele>
      </trkpt>
      <trkpt lat="44.25761" lon="5.10952">
        <ele>266</ele>
      </trkpt>
      <trkpt lat="44.25759" lon="5.10938">
        <ele>266</ele>
      </trkpt>
      <trkpt lat="44.25759" lon="5.10926">
        <ele>266</ele>
      </trkpt>
      <trkpt lat="44.25761" lon="5.10913">
        <ele>265</ele>
      </trkpt>
      <trkpt lat="44.25766" lon="5.10899">
        <ele>265</ele>
      </trkpt>
      <trkpt lat="44.25789" lon="5.10875">
        <ele>263</ele>
      </trkpt>
      <trkpt lat="44.25799" lon="5.10868">
        <ele>262</ele>
      </trkpt>
      <trkpt lat="44.25809" lon="5.10888">
        <ele>263</ele>
      </trkpt>
      <trkpt lat="44.25814" lon="5.10894">
        <ele>263</ele>
      </trkpt>
      <trkpt lat="44.25838" lon="5.10909">
        <ele>262</ele>
      </trkpt>
      <trkpt lat="44.25844" lon="5.10915">
        <ele>260</ele>
      </trkpt>
      <trkpt lat="44.25847" lon="5.10922">
        <ele>260</ele>
      </trkpt>
      <trkpt lat="44.25849" lon="5.10935">
        <ele>260</ele>
      </trkpt>
      <trkpt lat="44.25848" lon="5.10947">
        <ele>260</ele>
      </trkpt>
      <trkpt lat="44.25845" lon="5.10956">
        <ele>260</ele>
      </trkpt>
      <trkpt lat="44.25878" lon="5.10976">
        <ele>256</ele>
      </trkpt>
      <trkpt lat="44.25886" lon="5.10958">
        <ele>255</ele>
      </trkpt>
      <trkpt lat="44.25889" lon="5.10953">
        <ele>255</ele>
      </trkpt>
      <trkpt lat="44.25893" lon="5.10952">
        <ele>255</ele>
      </trkpt>
      <trkpt lat="44.25895" lon="5.11002">
        <ele>255</ele>
      </trkpt>
      <trkpt lat="44.25899" lon="5.11018">
        <ele>253</ele>
      </trkpt>
      <trkpt lat="44.25905" lon="5.1103">
        <ele>253</ele>
      </trkpt>
      <trkpt lat="44.25912" lon="5.11039">
        <ele>253</ele>
      </trkpt>
      <trkpt lat="44.2592" lon="5.11044">
        <ele>253</ele>
      </trkpt>
      <trkpt lat="44.25935" lon="5.11045">
        <ele>253</ele>
      </trkpt>
      <trkpt lat="44.25956" lon="5.11045">
        <ele>255</ele>
      </trkpt>
      <trkpt lat="44.25971" lon="5.11048">
        <ele>255</ele>
      </trkpt>
      <trkpt lat="44.25982" lon="5.11034">
        <ele>257</ele>
      </trkpt>
      <trkpt lat="44.26046" lon="5.11016">
        <ele>257</ele>
      </trkpt>
      <trkpt lat="44.26059" lon="5.11009">
        <ele>256</ele>
      </trkpt>
      <trkpt lat="44.26067" lon="5.10999">
        <ele>253</ele>
      </trkpt>
      <trkpt lat="44.26079" lon="5.10967">
        <ele>250</ele>
      </trkpt>
      <trkpt lat="44.26083" lon="5.10955">
        <ele>250</ele>
      </trkpt>
      <trkpt lat="44.26093" lon="5.10936">
        <ele>252</ele>
      </trkpt>
      <trkpt lat="44.26105" lon="5.10925">
        <ele>252</ele>
      </trkpt>
      <trkpt lat="44.26222" lon="5.10851">
        <ele>260</ele>
      </trkpt>
      <trkpt lat="44.26251" lon="5.10845">
        <ele>263</ele>
      </trkpt>
      <trkpt lat="44.26301" lon="5.10853">
        <ele>263</ele>
      </trkpt>
      <trkpt lat="44.26314" lon="5.10851">
        <ele>263</ele>
      </trkpt>
      <trkpt lat="44.26322" lon="5.10849">
        <ele>263</ele>
      </trkpt>
      <trkpt lat="44.26332" lon="5.10839">
        <ele>264</ele>
      </trkpt>
      <trkpt lat="44.2639" lon="5.10748">
        <ele>273</ele>
      </trkpt>
      <trkpt lat="44.26402" lon="5.10713">
        <ele>272</ele>
      </trkpt>
      <trkpt lat="44.2643" lon="5.10617">
        <ele>273</ele>
      </trkpt>
      <trkpt lat="44.26439" lon="5.10602">
        <ele>275</ele>
      </trkpt>
      <trkpt lat="44.26448" lon="5.10592">
        <ele>275</ele>
      </trkpt>
      <trkpt lat="44.2658" lon="5.10529">
        <ele>277</ele>
      </trkpt>
      <trkpt lat="44.26593" lon="5.10522">
        <ele>277</ele>
      </trkpt>
      <trkpt lat="44.26605" lon="5.10509">
        <ele>277</ele>
      </trkpt>
      <trkpt lat="44.26613" lon="5.10495">
        <ele>278</ele>
      </trkpt>
      <trkpt lat="44.2662" lon="5.10477">
        <ele>279</ele>
      </trkpt>
      <trkpt lat="44.26637" lon="5.10375">
        <ele>280</ele>
      </trkpt>
      <trkpt lat="44.2664" lon="5.10344">
        <ele>280</ele>
      </trkpt>
      <trkpt lat="44.26886" lon="5.10321">
        <ele>283</ele>
      </trkpt>
      <trkpt lat="44.26938" lon="5.10318">
        <ele>285</ele>
      </trkpt>
      <trkpt lat="44.26954" lon="5.1032">
        <ele>285</ele>
      </trkpt>
      <trkpt lat="44.26985" lon="5.10327">
        <ele>286</ele>
      </trkpt>
      <trkpt lat="44.27164" lon="5.10395">
        <ele>290</ele>
      </trkpt>
      <trkpt lat="44.27204" lon="5.10412">
        <ele>292</ele>
      </trkpt>
      <trkpt lat="44.27231" lon="5.10427">
        <ele>294</ele>
      </trkpt>
      <trkpt lat="44.27269" lon="5.10456">
        <ele>295</ele>
      </trkpt>
      <trkpt lat="44.27303" lon="5.10491">
        <ele>293</ele>
      </trkpt>
      <trkpt lat="44.27407" lon="5.10639">
        <ele>284</ele>
      </trkpt>
      <trkpt lat="44.27444" lon="5.1069">
        <ele>287</ele>
      </trkpt>
      <trkpt lat="44.27463" lon="5.10712">
        <ele>289</ele>
      </trkpt>
      <trkpt lat="44.27488" lon="5.10726">
        <ele>290</ele>
      </trkpt>
      <trkpt lat="44.27549" lon="5.10748">
        <ele>290</ele>
      </trkpt>
      <trkpt lat="44.27583" lon="5.10764">
        <ele>289</ele>
      </trkpt>
      <trkpt lat="44.27599" lon="5.10778">
        <ele>290</ele>
      </trkpt>
      <trkpt lat="44.27606" lon="5.1079">
        <ele>290</ele>
      </trkpt>
      <trkpt lat="44.27615" lon="5.10795">
        <ele>290</ele>
      </trkpt>
      <trkpt lat="44.27624" lon="5.10792">
        <ele>289</ele>
      </trkpt>
      <trkpt lat="44.27628" lon="5.10788">
        <ele>289</ele>
      </trkpt>
      <trkpt lat="44.27633" lon="5.10776">
        <ele>289</ele>
      </trkpt>
      <trkpt lat="44.27651" lon="5.10763">
        <ele>289</ele>
      </trkpt>
      <trkpt lat="44.2774" lon="5.10725">
        <ele>293</ele>
      </trkpt>
      <trkpt lat="44.27831" lon="5.10686">
        <ele>294</ele>
      </trkpt>
      <trkpt lat="44.27878" lon="5.10657">
        <ele>293</ele>
      </trkpt>
      <trkpt lat="44.27969" lon="5.10591">
        <ele>297</ele>
      </trkpt>
      <trkpt lat="44.28016" lon="5.10559">
        <ele>299</ele>
      </trkpt>
      <trkpt lat="44.28048" lon="5.10548">
        <ele>300</ele>
      </trkpt>
      <trkpt lat="44.28077" lon="5.10548">
        <ele>300</ele>
      </trkpt>
      <trkpt lat="44.28094" lon="5.10552">
        <ele>300</ele>
      </trkpt>
      <trkpt lat="44.2825" lon="5.1061">
        <ele>303</ele>
      </trkpt>
      <trkpt lat="44.28316" lon="5.10626">
        <ele>306</ele>
      </trkpt>
      <trkpt lat="44.28348" lon="5.10631">
        <ele>305</ele>
      </trkpt>
      <trkpt lat="44.28362" lon="5.1063">
        <ele>305</ele>
      </trkpt>
      <trkpt lat="44.28399" lon="5.10622">
        <ele>304</ele>
      </trkpt>
      <trkpt lat="44.28475" lon="5.10589">
        <ele>304</ele>
      </trkpt>
      <trkpt lat="44.28611" lon="5.10537">
        <ele>299</ele>
      </trkpt>
      <trkpt lat="44.28615" lon="5.10548">
        <ele>299</ele>
      </trkpt>
      <trkpt lat="44.28623" lon="5.10556">
        <ele>298</ele>
      </trkpt>
      <trkpt lat="44.28734" lon="5.10605">
        <ele>291</ele>
      </trkpt>
      <trkpt lat="44.28773" lon="5.10625">
        <ele>292</ele>
      </trkpt>
      <trkpt lat="44.28889" lon="5.10672">
        <ele>287</ele>
      </trkpt>
      <trkpt lat="44.28977" lon="5.10687">
        <ele>284</ele>
      </trkpt>
      <trkpt lat="44.29019" lon="5.10696">
        <ele>282</ele>
      </trkpt>
      <trkpt lat="44.29257" lon="5.1076">
        <ele>278</ele>
      </trkpt>
      <trkpt lat="44.29278" lon="5.10767">
        <ele>277</ele>
      </trkpt>
      <trkpt lat="44.29301" lon="5.10786">
        <ele>277</ele>
      </trkpt>
      <trkpt lat="44.29417" lon="5.10911">
        <ele>279</ele>
      </trkpt>
      <trkpt lat="44.29472" lon="5.10962">
        <ele>280</ele>
      </trkpt>
      <trkpt lat="44.29503" lon="5.10986">
        <ele>279</ele>
      </trkpt>
      <trkpt lat="44.29577" lon="5.11032">
        <ele>277</ele>
      </trkpt>
      <trkpt lat="44.29635" lon="5.11065">
        <ele>278</ele>
      </trkpt>
      <trkpt lat="44.29653" lon="5.11078">
        <ele>278</ele>
      </trkpt>
      <trkpt lat="44.2968" lon="5.11108">
        <ele>278</ele>
      </trkpt>
      <trkpt lat="44.29761" lon="5.11191">
        <ele>274</ele>
      </trkpt>
      <trkpt lat="44.29868" lon="5.11312">
        <ele>278</ele>
      </trkpt>
      <trkpt lat="44.29886" lon="5.11325">
        <ele>277</ele>
      </trkpt>
      <trkpt lat="44.29947" lon="5.1136">
        <ele>276</ele>
      </trkpt>
      <trkpt lat="44.29968" lon="5.11385">
        <ele>277</ele>
      </trkpt>
      <trkpt lat="44.29999" lon="5.11434">
        <ele>278</ele>
      </trkpt>
      <trkpt lat="44.30032" lon="5.11481">
        <ele>279</ele>
      </trkpt>
      <trkpt lat="44.30058" lon="5.11527">
        <ele>280</ele>
      </trkpt>
      <trkpt lat="44.30079" lon="5.11585">
        <ele>281</ele>
      </trkpt>
      <trkpt lat="44.30092" lon="5.11612">
        <ele>282</ele>
      </trkpt>
      <trkpt lat="44.30105" lon="5.11631">
        <ele>283</ele>
      </trkpt>
      <trkpt lat="44.3014" lon="5.11669">
        <ele>284</ele>
      </trkpt>
      <trkpt lat="44.30162" lon="5.11672">
        <ele>284</ele>
      </trkpt>
      <trkpt lat="44.30259" lon="5.11705">
        <ele>282</ele>
      </trkpt>
      <trkpt lat="44.30285" lon="5.11708">
        <ele>282</ele>
      </trkpt>
      <trkpt lat="44.30308" lon="5.11706">
        <ele>282</ele>
      </trkpt>
      <trkpt lat="44.30323" lon="5.11699">
        <ele>282</ele>
      </trkpt>
      <trkpt lat="44.30341" lon="5.11676">
        <ele>281</ele>
      </trkpt>
      <trkpt lat="44.30394" lon="5.11579">
        <ele>279</ele>
      </trkpt>
      <trkpt lat="44.30402" lon="5.11557">
        <ele>277</ele>
      </trkpt>
      <trkpt lat="44.30409" lon="5.11532">
        <ele>277</ele>
      </trkpt>
      <trkpt lat="44.30452" lon="5.11369">
        <ele>274</ele>
      </trkpt>
      <trkpt lat="44.30474" lon="5.11308">
        <ele>273</ele>
      </trkpt>
      <trkpt lat="44.30525" lon="5.11185">
        <ele>270</ele>
      </trkpt>
      <trkpt lat="44.3054" lon="5.11138">
        <ele>267</ele>
      </trkpt>
      <trkpt lat="44.30566" lon="5.10988">
        <ele>265</ele>
      </trkpt>
      <trkpt lat="44.30641" lon="5.10784">
        <ele>262</ele>
      </trkpt>
      <trkpt lat="44.3065" lon="5.1074">
        <ele>259</ele>
      </trkpt>
      <trkpt lat="44.30667" lon="5.10595">
        <ele>258</ele>
      </trkpt>
      <trkpt lat="44.3067" lon="5.10583">
        <ele>258</ele>
      </trkpt>
      <trkpt lat="44.30674" lon="5.10573">
        <ele>258</ele>
      </trkpt>
      <trkpt lat="44.30709" lon="5.10538">
        <ele>256</ele>
      </trkpt>
      <trkpt lat="44.30727" lon="5.10518">
        <ele>256</ele>
      </trkpt>
      <trkpt lat="44.30817" lon="5.10365">
        <ele>254</ele>
      </trkpt>
      <trkpt lat="44.3084" lon="5.10328">
        <ele>253</ele>
      </trkpt>
      <trkpt lat="44.30849" lon="5.10312">
        <ele>251</ele>
      </trkpt>
      <trkpt lat="44.30925" lon="5.10072">
        <ele>254</ele>
      </trkpt>
      <trkpt lat="44.30938" lon="5.10042">
        <ele>258</ele>
      </trkpt>
      <trkpt lat="44.30945" lon="5.10033">
        <ele>258</ele>
      </trkpt>
      <trkpt lat="44.30979" lon="5.10008">
        <ele>259</ele>
      </trkpt>
      <trkpt lat="44.31008" lon="5.0998">
        <ele>261</ele>
      </trkpt>
      <trkpt lat="44.31023" lon="5.09961">
        <ele>265</ele>
      </trkpt>
      <trkpt lat="44.31029" lon="5.09948">
        <ele>265</ele>
      </trkpt>
      <trkpt lat="44.31047" lon="5.09886">
        <ele>267</ele>
      </trkpt>
      <trkpt lat="44.31047" lon="5.09879">
        <ele>267</ele>
      </trkpt>
      <trkpt lat="44.31075" lon="5.0985">
        <ele>265</ele>
      </trkpt>
      <trkpt lat="44.31096" lon="5.09831">
        <ele>263</ele>
      </trkpt>
      <trkpt lat="44.31109" lon="5.09815">
        <ele>263</ele>
      </trkpt>
      <trkpt lat="44.31122" lon="5.09792">
        <ele>262</ele>
      </trkpt>
      <trkpt lat="44.31137" lon="5.09772">
        <ele>260</ele>
      </trkpt>
      <trkpt lat="44.31147" lon="5.09761">
        <ele>260</ele>
      </trkpt>
      <trkpt lat="44.31158" lon="5.09753">
        <ele>260</ele>
      </trkpt>
      <trkpt lat="44.3119" lon="5.09736">
        <ele>258</ele>
      </trkpt>
      <trkpt lat="44.31232" lon="5.09723">
        <ele>251</ele>
      </trkpt>
      <trkpt lat="44.3129" lon="5.09717">
        <ele>245</ele>
      </trkpt>
      <trkpt lat="44.313" lon="5.09718">
        <ele>245</ele>
      </trkpt>
      <trkpt lat="44.31326" lon="5.09725">
        <ele>242</ele>
      </trkpt>
      <trkpt lat="44.31408" lon="5.09738">
        <ele>240</ele>
      </trkpt>
      <trkpt lat="44.31423" lon="5.09745">
        <ele>240</ele>
      </trkpt>
      <trkpt lat="44.3151" lon="5.09811">
        <ele>248</ele>
      </trkpt>
      <trkpt lat="44.3154" lon="5.09828">
        <ele>248</ele>
      </trkpt>
      <trkpt lat="44.31546" lon="5.09837">
        <ele>248</ele>
      </trkpt>
      <trkpt lat="44.31554" lon="5.09837">
        <ele>248</ele>
      </trkpt>
      <trkpt lat="44.31558" lon="5.09834">
        <ele>248</ele>
      </trkpt>
      <trkpt lat="44.31561" lon="5.09828">
        <ele>248</ele>
      </trkpt>
      <trkpt lat="44.31561" lon="5.09818">
        <ele>248</ele>
      </trkpt>
      <trkpt lat="44.31563" lon="5.09806">
        <ele>248</ele>
      </trkpt>
      <trkpt lat="44.31576" lon="5.09777">
        <ele>248</ele>
      </trkpt>
      <trkpt lat="44.31743" lon="5.09562">
        <ele>243</ele>
      </trkpt>
      <trkpt lat="44.31899" lon="5.09368">
        <ele>238</ele>
      </trkpt>
      <trkpt lat="44.32113" lon="5.09093">
        <ele>228</ele>
      </trkpt>
      <trkpt lat="44.32433" lon="5.08687">
        <ele>224</ele>
      </trkpt>
      <trkpt lat="44.32459" lon="5.0866">
        <ele>223</ele>
      </trkpt>
      <trkpt lat="44.32477" lon="5.08645">
        <ele>223</ele>
      </trkpt>
      <trkpt lat="44.32678" lon="5.08502">
        <ele>224</ele>
      </trkpt>
      <trkpt lat="44.32963" lon="5.08301">
        <ele>230</ele>
      </trkpt>
      <trkpt lat="44.33002" lon="5.08275">
        <ele>230</ele>
      </trkpt>
      <trkpt lat="44.33007" lon="5.08276">
        <ele>230</ele>
      </trkpt>
      <trkpt lat="44.33016" lon="5.08272">
        <ele>231</ele>
      </trkpt>
      <trkpt lat="44.33019" lon="5.08268">
        <ele>230</ele>
      </trkpt>
      <trkpt lat="44.33023" lon="5.08256">
        <ele>231</ele>
      </trkpt>
      <trkpt lat="44.33022" lon="5.08243">
        <ele>231</ele>
      </trkpt>
      <trkpt lat="44.33038" lon="5.08212">
        <ele>233</ele>
      </trkpt>
      <trkpt lat="44.33105" lon="5.08146">
        <ele>234</ele>
      </trkpt>
      <trkpt lat="44.33109" lon="5.08139">
        <ele>235</ele>
      </trkpt>
      <trkpt lat="44.3311" lon="5.08131">
        <ele>235</ele>
      </trkpt>
      <trkpt lat="44.3311" lon="5.08122">
        <ele>235</ele>
      </trkpt>
      <trkpt lat="44.33105" lon="5.08106">
        <ele>235</ele>
      </trkpt>
      <trkpt lat="44.33106" lon="5.08088">
        <ele>235</ele>
      </trkpt>
      <trkpt lat="44.3312" lon="5.08066">
        <ele>236</ele>
      </trkpt>
      <trkpt lat="44.33153" lon="5.08029">
        <ele>241</ele>
      </trkpt>
      <trkpt lat="44.33181" lon="5.08013">
        <ele>244</ele>
      </trkpt>
      <trkpt lat="44.33186" lon="5.08006">
        <ele>245</ele>
      </trkpt>
      <trkpt lat="44.332" lon="5.0797">
        <ele>248</ele>
      </trkpt>
      <trkpt lat="44.33206" lon="5.07958">
        <ele>251</ele>
      </trkpt>
      <trkpt lat="44.33249" lon="5.07913">
        <ele>256</ele>
      </trkpt>
      <trkpt lat="44.33276" lon="5.07862">
        <ele>257</ele>
      </trkpt>
      <trkpt lat="44.33308" lon="5.07818">
        <ele>260</ele>
      </trkpt>
      <trkpt lat="44.3333" lon="5.07799">
        <ele>264</ele>
      </trkpt>
      <trkpt lat="44.3336" lon="5.07794">
        <ele>268</ele>
      </trkpt>
      <trkpt lat="44.33395" lon="5.07798">
        <ele>271</ele>
      </trkpt>
      <trkpt lat="44.33448" lon="5.07813">
        <ele>273</ele>
      </trkpt>
      <trkpt lat="44.33499" lon="5.07809">
        <ele>274</ele>
      </trkpt>
      <trkpt lat="44.33566" lon="5.07789">
        <ele>276</ele>
      </trkpt>
      <trkpt lat="44.33665" lon="5.07729">
        <ele>281</ele>
      </trkpt>
      <trkpt lat="44.33779" lon="5.07671">
        <ele>288</ele>
      </trkpt>
      <trkpt lat="44.33738" lon="5.07585">
        <ele>290</ele>
      </trkpt>
      <trkpt lat="44.33723" lon="5.07555">
        <ele>291</ele>
      </trkpt>
      <trkpt lat="44.33688" lon="5.07524">
        <ele>292</ele>
      </trkpt>
      <trkpt lat="44.33544" lon="5.07459">
        <ele>281</ele>
      </trkpt>
      <trkpt lat="44.3354" lon="5.07451">
        <ele>280</ele>
      </trkpt>
      <trkpt lat="44.33541" lon="5.07442">
        <ele>279</ele>
      </trkpt>
      <trkpt lat="44.33545" lon="5.07434">
        <ele>278</ele>
      </trkpt>
      <trkpt lat="44.33651" lon="5.07363">
        <ele>274</ele>
      </trkpt>
      <trkpt lat="44.33654" lon="5.07351">
        <ele>274</ele>
      </trkpt>
      <trkpt lat="44.33653" lon="5.0726">
        <ele>269</ele>
      </trkpt>
      <trkpt lat="44.33656" lon="5.07252">
        <ele>270</ele>
      </trkpt>
      <trkpt lat="44.33661" lon="5.07247">
        <ele>270</ele>
      </trkpt>
      <trkpt lat="44.33688" lon="5.07239">
        <ele>270</ele>
      </trkpt>
      <trkpt lat="44.3369" lon="5.07234">
        <ele>270</ele>
      </trkpt>
      <trkpt lat="44.33689" lon="5.07222">
        <ele>271</ele>
      </trkpt>
      <trkpt lat="44.33686" lon="5.07218">
        <ele>271</ele>
      </trkpt>
      <trkpt lat="44.3368" lon="5.07214">
        <ele>272</ele>
      </trkpt>
      <trkpt lat="44.33658" lon="5.0721">
        <ele>272</ele>
      </trkpt>
      <trkpt lat="44.33551" lon="5.07201">
        <ele>276</ele>
      </trkpt>
      <trkpt lat="44.33528" lon="5.07197">
        <ele>278</ele>
      </trkpt>
      <trkpt lat="44.33512" lon="5.0719">
        <ele>281</ele>
      </trkpt>
      <trkpt lat="44.33505" lon="5.07185">
        <ele>282</ele>
      </trkpt>
      <trkpt lat="44.33495" lon="5.07165">
        <ele>285</ele>
      </trkpt>
      <trkpt lat="44.33474" lon="5.07099">
        <ele>287</ele>
      </trkpt>
      <trkpt lat="44.33451" lon="5.07004">
        <ele>289</ele>
      </trkpt>
      <trkpt lat="44.33448" lon="5.06968">
        <ele>289</ele>
      </trkpt>
      <trkpt lat="44.33451" lon="5.06903">
        <ele>290</ele>
      </trkpt>
      <trkpt lat="44.33453" lon="5.06891">
        <ele>290</ele>
      </trkpt>
      <trkpt lat="44.33478" lon="5.06829">
        <ele>289</ele>
      </trkpt>
      <trkpt lat="44.33482" lon="5.06806">
        <ele>291</ele>
      </trkpt>
      <trkpt lat="44.33482" lon="5.06784">
        <ele>291</ele>
      </trkpt>
      <trkpt lat="44.33477" lon="5.06736">
        <ele>291</ele>
      </trkpt>
      <trkpt lat="44.33411" lon="5.06552">
        <ele>291</ele>
      </trkpt>
      <trkpt lat="44.33374" lon="5.06462">
        <ele>291</ele>
      </trkpt>
      <trkpt lat="44.33351" lon="5.06397">
        <ele>291</ele>
      </trkpt>
      <trkpt lat="44.33345" lon="5.06365">
        <ele>292</ele>
      </trkpt>
      <trkpt lat="44.33315" lon="5.06296">
        <ele>291</ele>
      </trkpt>
      <trkpt lat="44.33323" lon="5.06274">
        <ele>292</ele>
      </trkpt>
      <trkpt lat="44.33329" lon="5.0625">
        <ele>293</ele>
      </trkpt>
      <trkpt lat="44.33334" lon="5.06209">
        <ele>294</ele>
      </trkpt>
      <trkpt lat="44.33335" lon="5.06184">
        <ele>296</ele>
      </trkpt>
      <trkpt lat="44.33335" lon="5.06149">
        <ele>298</ele>
      </trkpt>
      <trkpt lat="44.33331" lon="5.06123">
        <ele>300</ele>
      </trkpt>
      <trkpt lat="44.33321" lon="5.06089">
        <ele>303</ele>
      </trkpt>
      <trkpt lat="44.3332" lon="5.06071">
        <ele>305</ele>
      </trkpt>
      <trkpt lat="44.33325" lon="5.06049">
        <ele>307</ele>
      </trkpt>
      <trkpt lat="44.3334" lon="5.06045">
        <ele>307</ele>
      </trkpt>
      <trkpt lat="44.33345" lon="5.06047">
        <ele>309</ele>
      </trkpt>
      <trkpt lat="44.33359" lon="5.06043">
        <ele>310</ele>
      </trkpt>
      <trkpt lat="44.33361" lon="5.06028">
        <ele>311</ele>
      </trkpt>
      <trkpt lat="44.33359" lon="5.06005">
        <ele>311</ele>
      </trkpt>
      <trkpt lat="44.33359" lon="5.06004">
        <ele>311</ele>
      </trkpt>
      <trkpt lat="44.3336" lon="5.06006">
        <ele>311</ele>
      </trkpt>
      <trkpt lat="44.33374" lon="5.05996">
        <ele>315</ele>
      </trkpt>
      <trkpt lat="44.33392" lon="5.06029">
        <ele>316</ele>
      </trkpt>
      <trkpt lat="44.33405" lon="5.06045">
        <ele>318</ele>
      </trkpt>
      <trkpt lat="44.3342" lon="5.06059">
        <ele>315</ele>
      </trkpt>
      <trkpt lat="44.33446" lon="5.06079">
        <ele>317</ele>
      </trkpt>
      <trkpt lat="44.3349" lon="5.06091">
        <ele>316</ele>
      </trkpt>
      <trkpt lat="44.33502" lon="5.06088">
        <ele>316</ele>
      </trkpt>
      <trkpt lat="44.3353" lon="5.06063">
        <ele>319</ele>
      </trkpt>
      <trkpt lat="44.3358" lon="5.06042">
        <ele>322</ele>
      </trkpt>
      <trkpt lat="44.33585" lon="5.06021">
        <ele>324</ele>
      </trkpt>
      <trkpt lat="44.33588" lon="5.05996">
        <ele>325</ele>
      </trkpt>
      <trkpt lat="44.3358" lon="5.05961">
        <ele>323</ele>
      </trkpt>
      <trkpt lat="44.33581" lon="5.05956">
        <ele>323</ele>
      </trkpt>
      <trkpt lat="44.33585" lon="5.05954">
        <ele>323</ele>
      </trkpt>
      <trkpt lat="44.33622" lon="5.05956">
        <ele>327</ele>
      </trkpt>
      <trkpt lat="44.33634" lon="5.05952">
        <ele>328</ele>
      </trkpt>
      <trkpt lat="44.33645" lon="5.05943">
        <ele>324</ele>
      </trkpt>
      <trkpt lat="44.33655" lon="5.05938">
        <ele>326</ele>
      </trkpt>
      <trkpt lat="44.33662" lon="5.05942">
        <ele>327</ele>
      </trkpt>
      <trkpt lat="44.33692" lon="5.05937">
        <ele>332</ele>
      </trkpt>
      <trkpt lat="44.33742" lon="5.05918">
        <ele>337</ele>
      </trkpt>
      <trkpt lat="44.33765" lon="5.0589">
        <ele>334</ele>
      </trkpt>
      <trkpt lat="44.3379" lon="5.05872">
        <ele>334</ele>
      </trkpt>
      <trkpt lat="44.33813" lon="5.05866">
        <ele>334</ele>
      </trkpt>
      <trkpt lat="44.33852" lon="5.05863">
        <ele>335</ele>
      </trkpt>
      <trkpt lat="44.33898" lon="5.05876">
        <ele>333</ele>
      </trkpt>
      <trkpt lat="44.33906" lon="5.05891">
        <ele>333</ele>
      </trkpt>
      <trkpt lat="44.33914" lon="5.05913">
        <ele>333</ele>
      </trkpt>
      <trkpt lat="44.3394" lon="5.06043">
        <ele>345</ele>
      </trkpt>
      <trkpt lat="44.33946" lon="5.06052">
        <ele>346</ele>
      </trkpt>
      <trkpt lat="44.33954" lon="5.06058">
        <ele>348</ele>
      </trkpt>
      <trkpt lat="44.34007" lon="5.06068">
        <ele>349</ele>
      </trkpt>
      <trkpt lat="44.34013" lon="5.06064">
        <ele>350</ele>
      </trkpt>
      <trkpt lat="44.34018" lon="5.06052">
        <ele>348</ele>
      </trkpt>
      <trkpt lat="44.34026" lon="5.06017">
        <ele>347</ele>
      </trkpt>
      <trkpt lat="44.34034" lon="5.06006">
        <ele>347</ele>
      </trkpt>
      <trkpt lat="44.34041" lon="5.06001">
        <ele>346</ele>
      </trkpt>
      <trkpt lat="44.34054" lon="5.06002">
        <ele>347</ele>
      </trkpt>
      <trkpt lat="44.34064" lon="5.06005">
        <ele>347</ele>
      </trkpt>
      <trkpt lat="44.34087" lon="5.06018">
        <ele>347</ele>
      </trkpt>
      <trkpt lat="44.34109" lon="5.06043">
        <ele>352</ele>
      </trkpt>
      <trkpt lat="44.3413" lon="5.06051">
        <ele>357</ele>
      </trkpt>
      <trkpt lat="44.34147" lon="5.0605">
        <ele>357</ele>
      </trkpt>
      <trkpt lat="44.34184" lon="5.06039">
        <ele>361</ele>
      </trkpt>
      <trkpt lat="44.34223" lon="5.0603">
        <ele>360</ele>
      </trkpt>
      <trkpt lat="44.34261" lon="5.06037">
        <ele>356</ele>
      </trkpt>
      <trkpt lat="44.34292" lon="5.0606">
        <ele>356</ele>
      </trkpt>
      <trkpt lat="44.34314" lon="5.06082">
        <ele>355</ele>
      </trkpt>
      <trkpt lat="44.34327" lon="5.06102">
        <ele>353</ele>
      </trkpt>
      <trkpt lat="44.34343" lon="5.06137">
        <ele>352</ele>
      </trkpt>
      <trkpt lat="44.34414" lon="5.06264">
        <ele>359</ele>
      </trkpt>
      <trkpt lat="44.34445" lon="5.06302">
        <ele>359</ele>
      </trkpt>
      <trkpt lat="44.34459" lon="5.06303">
        <ele>359</ele>
      </trkpt>
      <trkpt lat="44.3449" lon="5.06287">
        <ele>359</ele>
      </trkpt>
      <trkpt lat="44.34504" lon="5.06283">
        <ele>360</ele>
      </trkpt>
      <trkpt lat="44.34516" lon="5.06283">
        <ele>361</ele>
      </trkpt>
      <trkpt lat="44.34564" lon="5.06296">
        <ele>363</ele>
      </trkpt>
      <trkpt lat="44.34575" lon="5.06296">
        <ele>364</ele>
      </trkpt>
      <trkpt lat="44.34651" lon="5.06281">
        <ele>369</ele>
      </trkpt>
      <trkpt lat="44.34731" lon="5.06295">
        <ele>374</ele>
      </trkpt>
      <trkpt lat="44.34749" lon="5.06293">
        <ele>375</ele>
      </trkpt>
      <trkpt lat="44.34778" lon="5.06281">
        <ele>373</ele>
      </trkpt>
      <trkpt lat="44.34789" lon="5.06279">
        <ele>368</ele>
      </trkpt>
      <trkpt lat="44.3485" lon="5.06286">
        <ele>366</ele>
      </trkpt>
      <trkpt lat="44.34881" lon="5.06303">
        <ele>360</ele>
      </trkpt>
      <trkpt lat="44.3492" lon="5.06362">
        <ele>368</ele>
      </trkpt>
      <trkpt lat="44.35008" lon="5.06438">
        <ele>365</ele>
      </trkpt>
      <trkpt lat="44.35081" lon="5.06515">
        <ele>367</ele>
      </trkpt>
      <trkpt lat="44.35138" lon="5.06558">
        <ele>365</ele>
      </trkpt>
      <trkpt lat="44.35166" lon="5.06585">
        <ele>366</ele>
      </trkpt>
      <trkpt lat="44.35207" lon="5.06582">
        <ele>372</ele>
      </trkpt>
      <trkpt lat="44.35219" lon="5.06575">
        <ele>372</ele>
      </trkpt>
      <trkpt lat="44.35336" lon="5.06533">
        <ele>374</ele>
      </trkpt>
      <trkpt lat="44.35351" lon="5.06531">
        <ele>373</ele>
      </trkpt>
      <trkpt lat="44.35375" lon="5.06533">
        <ele>370</ele>
      </trkpt>
      <trkpt lat="44.35413" lon="5.06556">
        <ele>367</ele>
      </trkpt>
      <trkpt lat="44.35435" lon="5.06583">
        <ele>367</ele>
      </trkpt>
      <trkpt lat="44.35467" lon="5.06652">
        <ele>374</ele>
      </trkpt>
      <trkpt lat="44.35509" lon="5.06724">
        <ele>380</ele>
      </trkpt>
      <trkpt lat="44.35516" lon="5.06729">
        <ele>381</ele>
      </trkpt>
      <trkpt lat="44.3554" lon="5.06742">
        <ele>380</ele>
      </trkpt>
      <trkpt lat="44.35583" lon="5.06786">
        <ele>391</ele>
      </trkpt>
      <trkpt lat="44.35633" lon="5.06796">
        <ele>392</ele>
      </trkpt>
      <trkpt lat="44.35666" lon="5.06786">
        <ele>389</ele>
      </trkpt>
      <trkpt lat="44.35687" lon="5.06784">
        <ele>388</ele>
      </trkpt>
      <trkpt lat="44.35732" lon="5.06805">
        <ele>388</ele>
      </trkpt>
      <trkpt lat="44.35775" lon="5.06843">
        <ele>392</ele>
      </trkpt>
      <trkpt lat="44.35784" lon="5.06865">
        <ele>395</ele>
      </trkpt>
      <trkpt lat="44.35826" lon="5.06902">
        <ele>393</ele>
      </trkpt>
      <trkpt lat="44.35902" lon="5.06987">
        <ele>392</ele>
      </trkpt>
      <trkpt lat="44.35913" lon="5.06975">
        <ele>392</ele>
      </trkpt>
      <trkpt lat="44.35935" lon="5.06961">
        <ele>392</ele>
      </trkpt>
      <trkpt lat="44.36" lon="5.06939">
        <ele>390</ele>
      </trkpt>
      <trkpt lat="44.36083" lon="5.06915">
        <ele>393</ele>
      </trkpt>
      <trkpt lat="44.36238" lon="5.06876">
        <ele>405</ele>
      </trkpt>
      <trkpt lat="44.36254" lon="5.06873">
        <ele>406</ele>
      </trkpt>
      <trkpt lat="44.3635" lon="5.06878">
        <ele>413</ele>
      </trkpt>
      <trkpt lat="44.36366" lon="5.06877">
        <ele>413</ele>
      </trkpt>
      <trkpt lat="44.36478" lon="5.06845">
        <ele>422</ele>
      </trkpt>
      <trkpt lat="44.36502" lon="5.06819">
        <ele>423</ele>
      </trkpt>
      <trkpt lat="44.3654" lon="5.06806">
        <ele>423</ele>
      </trkpt>
      <trkpt lat="44.36553" lon="5.068">
        <ele>423</ele>
      </trkpt>
      <trkpt lat="44.3659" lon="5.06772">
        <ele>425</ele>
      </trkpt>
      <trkpt lat="44.36619" lon="5.06748">
        <ele>426</ele>
      </trkpt>
      <trkpt lat="44.3663" lon="5.06733">
        <ele>428</ele>
      </trkpt>
      <trkpt lat="44.36646" lon="5.06708">
        <ele>431</ele>
      </trkpt>
      <trkpt lat="44.36653" lon="5.06701">
        <ele>434</ele>
      </trkpt>
      <trkpt lat="44.36661" lon="5.06699">
        <ele>435</ele>
      </trkpt>
      <trkpt lat="44.367" lon="5.06702">
        <ele>440</ele>
      </trkpt>
      <trkpt lat="44.36759" lon="5.06752">
        <ele>436</ele>
      </trkpt>
      <trkpt lat="44.36827" lon="5.06846">
        <ele>435</ele>
      </trkpt>
      <trkpt lat="44.36872" lon="5.06895">
        <ele>434</ele>
      </trkpt>
      <trkpt lat="44.36925" lon="5.06943">
        <ele>434</ele>
      </trkpt>
      <trkpt lat="44.3696" lon="5.06988">
        <ele>434</ele>
      </trkpt>
      <trkpt lat="44.36968" lon="5.07005">
        <ele>430</ele>
      </trkpt>
      <trkpt lat="44.36968" lon="5.07021">
        <ele>430</ele>
      </trkpt>
      <trkpt lat="44.36962" lon="5.07064">
        <ele>421</ele>
      </trkpt>
      <trkpt lat="44.36963" lon="5.07082">
        <ele>420</ele>
      </trkpt>
      <trkpt lat="44.36965" lon="5.07092">
        <ele>418</ele>
      </trkpt>
      <trkpt lat="44.36972" lon="5.07099">
        <ele>418</ele>
      </trkpt>
      <trkpt lat="44.36985" lon="5.07103">
        <ele>420</ele>
      </trkpt>
      <trkpt lat="44.36999" lon="5.0711">
        <ele>420</ele>
      </trkpt>
      <trkpt lat="44.37008" lon="5.07121">
        <ele>418</ele>
      </trkpt>
      <trkpt lat="44.37014" lon="5.07138">
        <ele>419</ele>
      </trkpt>
      <trkpt lat="44.37012" lon="5.0716">
        <ele>416</ele>
      </trkpt>
      <trkpt lat="44.37007" lon="5.07177">
        <ele>414</ele>
      </trkpt>
      <trkpt lat="44.37003" lon="5.07195">
        <ele>414</ele>
      </trkpt>
      <trkpt lat="44.37003" lon="5.07213">
        <ele>415</ele>
      </trkpt>
      <trkpt lat="44.37008" lon="5.07226">
        <ele>417</ele>
      </trkpt>
      <trkpt lat="44.37029" lon="5.0725">
        <ele>419</ele>
      </trkpt>
      <trkpt lat="44.37035" lon="5.07264">
        <ele>422</ele>
      </trkpt>
      <trkpt lat="44.37036" lon="5.07282">
        <ele>424</ele>
      </trkpt>
      <trkpt lat="44.3703" lon="5.073">
        <ele>424</ele>
      </trkpt>
      <trkpt lat="44.37014" lon="5.07326">
        <ele>424</ele>
      </trkpt>
      <trkpt lat="44.37014" lon="5.07372">
        <ele>425</ele>
      </trkpt>
      <trkpt lat="44.37029" lon="5.07439">
        <ele>426</ele>
      </trkpt>
      <trkpt lat="44.37025" lon="5.07591">
        <ele>431</ele>
      </trkpt>
      <trkpt lat="44.37027" lon="5.07608">
        <ele>431</ele>
      </trkpt>
      <trkpt lat="44.37036" lon="5.07621">
        <ele>433</ele>
      </trkpt>
      <trkpt lat="44.37055" lon="5.07629">
        <ele>434</ele>
      </trkpt>
      <trkpt lat="44.37119" lon="5.07622">
        <ele>435</ele>
      </trkpt>
      <trkpt lat="44.3717" lon="5.07652">
        <ele>439</ele>
      </trkpt>
      <trkpt lat="44.37215" lon="5.07684">
        <ele>443</ele>
      </trkpt>
      <trkpt lat="44.3723" lon="5.07705">
        <ele>444</ele>
      </trkpt>
      <trkpt lat="44.37247" lon="5.07771">
        <ele>447</ele>
      </trkpt>
      <trkpt lat="44.37252" lon="5.07777">
        <ele>447</ele>
      </trkpt>
      <trkpt lat="44.37258" lon="5.07781">
        <ele>445</ele>
      </trkpt>
      <trkpt lat="44.37268" lon="5.07784">
        <ele>446</ele>
      </trkpt>
      <trkpt lat="44.37277" lon="5.07783">
        <ele>446</ele>
      </trkpt>
      <trkpt lat="44.37297" lon="5.07767">
        <ele>450</ele>
      </trkpt>
      <trkpt lat="44.37323" lon="5.07755">
        <ele>453</ele>
      </trkpt>
      <trkpt lat="44.3736" lon="5.07748">
        <ele>459</ele>
      </trkpt>
      <trkpt lat="44.37373" lon="5.07753">
        <ele>460</ele>
      </trkpt>
      <trkpt lat="44.37382" lon="5.07764">
        <ele>461</ele>
      </trkpt>
      <trkpt lat="44.37393" lon="5.07791">
        <ele>457</ele>
      </trkpt>
      <trkpt lat="44.37411" lon="5.07816">
        <ele>460</ele>
      </trkpt>
      <trkpt lat="44.37424" lon="5.07828">
        <ele>461</ele>
      </trkpt>
      <trkpt lat="44.37435" lon="5.07851">
        <ele>465</ele>
      </trkpt>
      <trkpt lat="44.37458" lon="5.07912">
        <ele>463</ele>
      </trkpt>
      <trkpt lat="44.37471" lon="5.0799">
        <ele>455</ele>
      </trkpt>
      <trkpt lat="44.37487" lon="5.08014">
        <ele>452</ele>
      </trkpt>
      <trkpt lat="44.37501" lon="5.0803">
        <ele>451</ele>
      </trkpt>
      <trkpt lat="44.3751" lon="5.08052">
        <ele>448</ele>
      </trkpt>
      <trkpt lat="44.37519" lon="5.08105">
        <ele>438</ele>
      </trkpt>
      <trkpt lat="44.37519" lon="5.08132">
        <ele>436</ele>
      </trkpt>
      <trkpt lat="44.37514" lon="5.08151">
        <ele>435</ele>
      </trkpt>
      <trkpt lat="44.37505" lon="5.08166">
        <ele>441</ele>
      </trkpt>
      <trkpt lat="44.375" lon="5.08178">
        <ele>440</ele>
      </trkpt>
      <trkpt lat="44.375" lon="5.08186">
        <ele>440</ele>
      </trkpt>
      <trkpt lat="44.37502" lon="5.08191">
        <ele>439</ele>
      </trkpt>
      <trkpt lat="44.37505" lon="5.08193">
        <ele>438</ele>
      </trkpt>
      <trkpt lat="44.37513" lon="5.08191">
        <ele>433</ele>
      </trkpt>
      <trkpt lat="44.37518" lon="5.08184">
        <ele>433</ele>
      </trkpt>
      <trkpt lat="44.37578" lon="5.08045">
        <ele>429</ele>
      </trkpt>
      <trkpt lat="44.37607" lon="5.07997">
        <ele>432</ele>
      </trkpt>
      <trkpt lat="44.37619" lon="5.0799">
        <ele>432</ele>
      </trkpt>
      <trkpt lat="44.37631" lon="5.07989">
        <ele>432</ele>
      </trkpt>
      <trkpt lat="44.37645" lon="5.07995">
        <ele>433</ele>
      </trkpt>
      <trkpt lat="44.37655" lon="5.08011">
        <ele>435</ele>
      </trkpt>
      <trkpt lat="44.37672" lon="5.08074">
        <ele>435</ele>
      </trkpt>
      <trkpt lat="44.37725" lon="5.08193">
        <ele>444</ele>
      </trkpt>
      <trkpt lat="44.3774" lon="5.0821">
        <ele>446</ele>
      </trkpt>
      <trkpt lat="44.37795" lon="5.08258">
        <ele>453</ele>
      </trkpt>
      <trkpt lat="44.37919" lon="5.08329">
        <ele>462</ele>
      </trkpt>
      <trkpt lat="44.37946" lon="5.08369">
        <ele>464</ele>
      </trkpt>
      <trkpt lat="44.37956" lon="5.08375">
        <ele>466</ele>
      </trkpt>
      <trkpt lat="44.37981" lon="5.0838">
        <ele>467</ele>
      </trkpt>
      <trkpt lat="44.38018" lon="5.08376">
        <ele>463</ele>
      </trkpt>
      <trkpt lat="44.38062" lon="5.08379">
        <ele>458</ele>
      </trkpt>
      <trkpt lat="44.38086" lon="5.08394">
        <ele>454</ele>
      </trkpt>
      <trkpt lat="44.38109" lon="5.08425">
        <ele>449</ele>
      </trkpt>
      <trkpt lat="44.38125" lon="5.08459">
        <ele>447</ele>
      </trkpt>
      <trkpt lat="44.3813" lon="5.08463">
        <ele>446</ele>
      </trkpt>
      <trkpt lat="44.38135" lon="5.0846">
        <ele>445</ele>
      </trkpt>
      <trkpt lat="44.38137" lon="5.08452">
        <ele>446</ele>
      </trkpt>
      <trkpt lat="44.38135" lon="5.08439">
        <ele>445</ele>
      </trkpt>
      <trkpt lat="44.38125" lon="5.08419">
        <ele>444</ele>
      </trkpt>
      <trkpt lat="44.38117" lon="5.08384">
        <ele>446</ele>
      </trkpt>
      <trkpt lat="44.38109" lon="5.08324">
        <ele>443</ele>
      </trkpt>
      <trkpt lat="44.38109" lon="5.08304">
        <ele>443</ele>
      </trkpt>
      <trkpt lat="44.38127" lon="5.08243">
        <ele>441</ele>
      </trkpt>
      <trkpt lat="44.38142" lon="5.08209">
        <ele>443</ele>
      </trkpt>
      <trkpt lat="44.38148" lon="5.08206">
        <ele>443</ele>
      </trkpt>
      <trkpt lat="44.38155" lon="5.08207">
        <ele>442</ele>
      </trkpt>
      <trkpt lat="44.38179" lon="5.08236">
        <ele>440</ele>
      </trkpt>
      <trkpt lat="44.38269" lon="5.08338">
        <ele>433</ele>
      </trkpt>
      <trkpt lat="44.38341" lon="5.08405">
        <ele>430</ele>
      </trkpt>
      <trkpt lat="44.38351" lon="5.08425">
        <ele>429</ele>
      </trkpt>
      <trkpt lat="44.38395" lon="5.08598">
        <ele>415</ele>
      </trkpt>
      <trkpt lat="44.38414" lon="5.0864">
        <ele>413</ele>
      </trkpt>
      <trkpt lat="44.38441" lon="5.08761">
        <ele>408</ele>
      </trkpt>
      <trkpt lat="44.38472" lon="5.08796">
        <ele>405</ele>
      </trkpt>
      <trkpt lat="44.38479" lon="5.088">
        <ele>405</ele>
      </trkpt>
      <trkpt lat="44.38485" lon="5.08807">
        <ele>406</ele>
      </trkpt>
      <trkpt lat="44.38489" lon="5.08818">
        <ele>405</ele>
      </trkpt>
      <trkpt lat="44.38488" lon="5.08831">
        <ele>405</ele>
      </trkpt>
      <trkpt lat="44.3847" lon="5.08886">
        <ele>402</ele>
      </trkpt>
      <trkpt lat="44.38441" lon="5.08966">
        <ele>403</ele>
      </trkpt>
      <trkpt lat="44.38422" lon="5.09013">
        <ele>403</ele>
      </trkpt>
      <trkpt lat="44.38415" lon="5.09024">
        <ele>402</ele>
      </trkpt>
      <trkpt lat="44.38373" lon="5.09064">
        <ele>397</ele>
      </trkpt>
      <trkpt lat="44.3837" lon="5.09072">
        <ele>394</ele>
      </trkpt>
      <trkpt lat="44.38371" lon="5.09081">
        <ele>394</ele>
      </trkpt>
      <trkpt lat="44.38376" lon="5.09088">
        <ele>394</ele>
      </trkpt>
      <trkpt lat="44.38404" lon="5.09098">
        <ele>396</ele>
      </trkpt>
      <trkpt lat="44.38432" lon="5.09119">
        <ele>394</ele>
      </trkpt>
      <trkpt lat="44.38456" lon="5.09146">
        <ele>388</ele>
      </trkpt>
      <trkpt lat="44.38486" lon="5.09159">
        <ele>385</ele>
      </trkpt>
      <trkpt lat="44.38515" lon="5.09156">
        <ele>382</ele>
      </trkpt>
      <trkpt lat="44.38543" lon="5.0915">
        <ele>381</ele>
      </trkpt>
      <trkpt lat="44.38564" lon="5.09151">
        <ele>382</ele>
      </trkpt>
      <trkpt lat="44.38576" lon="5.09161">
        <ele>382</ele>
      </trkpt>
      <trkpt lat="44.38611" lon="5.09253">
        <ele>381</ele>
      </trkpt>
      <trkpt lat="44.3862" lon="5.09273">
        <ele>380</ele>
      </trkpt>
      <trkpt lat="44.38639" lon="5.09305">
        <ele>380</ele>
      </trkpt>
      <trkpt lat="44.38968" lon="5.09043">
        <ele>392</ele>
      </trkpt>
      <trkpt lat="44.39116" lon="5.0894">
        <ele>396</ele>
      </trkpt>
      <trkpt lat="44.39149" lon="5.08897">
        <ele>398</ele>
      </trkpt>
      <trkpt lat="44.39297" lon="5.08681">
        <ele>404</ele>
      </trkpt>
      <trkpt lat="44.39321" lon="5.08654">
        <ele>406</ele>
      </trkpt>
      <trkpt lat="44.39342" lon="5.08639">
        <ele>408</ele>
      </trkpt>
      <trkpt lat="44.39404" lon="5.08616">
        <ele>407</ele>
      </trkpt>
      <trkpt lat="44.39429" lon="5.08599">
        <ele>408</ele>
      </trkpt>
      <trkpt lat="44.39464" lon="5.08568">
        <ele>409</ele>
      </trkpt>
      <trkpt lat="44.39544" lon="5.08503">
        <ele>410</ele>
      </trkpt>
      <trkpt lat="44.39615" lon="5.08448">
        <ele>412</ele>
      </trkpt>
      <trkpt lat="44.3966" lon="5.084">
        <ele>415</ele>
      </trkpt>
      <trkpt lat="44.39708" lon="5.08333">
        <ele>418</ele>
      </trkpt>
      <trkpt lat="44.39761" lon="5.08251">
        <ele>420</ele>
      </trkpt>
      <trkpt lat="44.3978" lon="5.0821">
        <ele>421</ele>
      </trkpt>
      <trkpt lat="44.39815" lon="5.08105">
        <ele>422</ele>
      </trkpt>
      <trkpt lat="44.39829" lon="5.08079">
        <ele>423</ele>
      </trkpt>
      <trkpt lat="44.39851" lon="5.08045">
        <ele>424</ele>
      </trkpt>
      <trkpt lat="44.39876" lon="5.08017">
        <ele>425</ele>
      </trkpt>
      <trkpt lat="44.39986" lon="5.07928">
        <ele>425</ele>
      </trkpt>
      <trkpt lat="44.40023" lon="5.07893">
        <ele>425</ele>
      </trkpt>
      <trkpt lat="44.40041" lon="5.0787">
        <ele>424</ele>
      </trkpt>
      <trkpt lat="44.40152" lon="5.07704">
        <ele>426</ele>
      </trkpt>
      <trkpt lat="44.40199" lon="5.07615">
        <ele>428</ele>
      </trkpt>
      <trkpt lat="44.40212" lon="5.07583">
        <ele>429</ele>
      </trkpt>
      <trkpt lat="44.40217" lon="5.07563">
        <ele>429</ele>
      </trkpt>
      <trkpt lat="44.40221" lon="5.07534">
        <ele>429</ele>
      </trkpt>
      <trkpt lat="44.40222" lon="5.07466">
        <ele>426</ele>
      </trkpt>
      <trkpt lat="44.40222" lon="5.07368">
        <ele>426</ele>
      </trkpt>
      <trkpt lat="44.40227" lon="5.07334">
        <ele>427</ele>
      </trkpt>
      <trkpt lat="44.40233" lon="5.07327">
        <ele>427</ele>
      </trkpt>
      <trkpt lat="44.40236" lon="5.07321">
        <ele>428</ele>
      </trkpt>
      <trkpt lat="44.40236" lon="5.07314">
        <ele>427</ele>
      </trkpt>
      <trkpt lat="44.40233" lon="5.07301">
        <ele>426</ele>
      </trkpt>
      <trkpt lat="44.40226" lon="5.07294">
        <ele>426</ele>
      </trkpt>
      <trkpt lat="44.4022" lon="5.07274">
        <ele>424</ele>
      </trkpt>
      <trkpt lat="44.4021" lon="5.07225">
        <ele>423</ele>
      </trkpt>
      <trkpt lat="44.40207" lon="5.07171">
        <ele>421</ele>
      </trkpt>
      <trkpt lat="44.40224" lon="5.06855">
        <ele>406</ele>
      </trkpt>
      <trkpt lat="44.4022" lon="5.06788">
        <ele>404</ele>
      </trkpt>
      <trkpt lat="44.40216" lon="5.06765">
        <ele>403</ele>
      </trkpt>
      <trkpt lat="44.40106" lon="5.06409">
        <ele>381</ele>
      </trkpt>
      <trkpt lat="44.40094" lon="5.06361">
        <ele>379</ele>
      </trkpt>
      <trkpt lat="44.40072" lon="5.06291">
        <ele>377</ele>
      </trkpt>
      <trkpt lat="44.40048" lon="5.06216">
        <ele>372</ele>
      </trkpt>
      <trkpt lat="44.40032" lon="5.06174">
        <ele>368</ele>
      </trkpt>
      <trkpt lat="44.3993" lon="5.05861">
        <ele>359</ele>
      </trkpt>
      <trkpt lat="44.39885" lon="5.05674">
        <ele>354</ele>
      </trkpt>
      <trkpt lat="44.39855" lon="5.05542">
        <ele>351</ele>
      </trkpt>
      <trkpt lat="44.39842" lon="5.05464">
        <ele>350</ele>
      </trkpt>
      <trkpt lat="44.39786" lon="5.05051">
        <ele>337</ele>
      </trkpt>
      <trkpt lat="44.39731" lon="5.04699">
        <ele>326</ele>
      </trkpt>
      <trkpt lat="44.39708" lon="5.04542">
        <ele>321</ele>
      </trkpt>
      <trkpt lat="44.397" lon="5.04481">
        <ele>321</ele>
      </trkpt>
      <trkpt lat="44.39702" lon="5.04475">
        <ele>321</ele>
      </trkpt>
      <trkpt lat="44.39703" lon="5.04464">
        <ele>321</ele>
      </trkpt>
      <trkpt lat="44.39699" lon="5.04455">
        <ele>321</ele>
      </trkpt>
      <trkpt lat="44.39695" lon="5.0445">
        <ele>321</ele>
      </trkpt>
      <trkpt lat="44.39686" lon="5.04384">
        <ele>320</ele>
      </trkpt>
      <trkpt lat="44.39676" lon="5.04338">
        <ele>317</ele>
      </trkpt>
      <trkpt lat="44.39656" lon="5.04281">
        <ele>315</ele>
      </trkpt>
      <trkpt lat="44.39579" lon="5.04081">
        <ele>312</ele>
      </trkpt>
      <trkpt lat="44.39535" lon="5.03957">
        <ele>311</ele>
      </trkpt>
      <trkpt lat="44.39478" lon="5.03835">
        <ele>304</ele>
      </trkpt>
      <trkpt lat="44.39334" lon="5.03544">
        <ele>298</ele>
      </trkpt>
      <trkpt lat="44.39311" lon="5.03471">
        <ele>296</ele>
      </trkpt>
      <trkpt lat="44.39282" lon="5.03344">
        <ele>293</ele>
      </trkpt>
      <trkpt lat="44.3924" lon="5.03148">
        <ele>287</ele>
      </trkpt>
      <trkpt lat="44.39211" lon="5.02984">
        <ele>282</ele>
      </trkpt>
      <trkpt lat="44.39174" lon="5.029">
        <ele>281</ele>
      </trkpt>
      <trkpt lat="44.39144" lon="5.02843">
        <ele>282</ele>
      </trkpt>
      <trkpt lat="44.39135" lon="5.02821">
        <ele>281</ele>
      </trkpt>
      <trkpt lat="44.39118" lon="5.02768">
        <ele>281</ele>
      </trkpt>
      <trkpt lat="44.39102" lon="5.02697">
        <ele>281</ele>
      </trkpt>
      <trkpt lat="44.38975" lon="5.01884">
        <ele>267</ele>
      </trkpt>
      <trkpt lat="44.38968" lon="5.01859">
        <ele>266</ele>
      </trkpt>
      <trkpt lat="44.3896" lon="5.01838">
        <ele>266</ele>
      </trkpt>
      <trkpt lat="44.38838" lon="5.01598">
        <ele>260</ele>
      </trkpt>
      <trkpt lat="44.38827" lon="5.01575">
        <ele>260</ele>
      </trkpt>
      <trkpt lat="44.38817" lon="5.01546">
        <ele>259</ele>
      </trkpt>
      <trkpt lat="44.38763" lon="5.01374">
        <ele>258</ele>
      </trkpt>
      <trkpt lat="44.3875" lon="5.01327">
        <ele>258</ele>
      </trkpt>
      <trkpt lat="44.38729" lon="5.01232">
        <ele>257</ele>
      </trkpt>
      <trkpt lat="44.38708" lon="5.0115">
        <ele>255</ele>
      </trkpt>
      <trkpt lat="44.38639" lon="5.00918">
        <ele>255</ele>
      </trkpt>
      <trkpt lat="44.38628" lon="5.00869">
        <ele>255</ele>
      </trkpt>
      <trkpt lat="44.38627" lon="5.00852">
        <ele>254</ele>
      </trkpt>
      <trkpt lat="44.38627" lon="5.00847">
        <ele>254</ele>
      </trkpt>
      <trkpt lat="44.38626" lon="5.00839">
        <ele>254</ele>
      </trkpt>
      <trkpt lat="44.38619" lon="5.00832">
        <ele>254</ele>
      </trkpt>
      <trkpt lat="44.3861" lon="5.00811">
        <ele>254</ele>
      </trkpt>
      <trkpt lat="44.38604" lon="5.00792">
        <ele>254</ele>
      </trkpt>
      <trkpt lat="44.38598" lon="5.00752">
        <ele>254</ele>
      </trkpt>
      <trkpt lat="44.38598" lon="5.00727">
        <ele>254</ele>
      </trkpt>
      <trkpt lat="44.38602" lon="5.00708">
        <ele>253</ele>
      </trkpt>
      <trkpt lat="44.38612" lon="5.00687">
        <ele>252</ele>
      </trkpt>
      <trkpt lat="44.38614" lon="5.00683">
        <ele>252</ele>
      </trkpt>
      <trkpt lat="44.38617" lon="5.00672">
        <ele>252</ele>
      </trkpt>
      <trkpt lat="44.38626" lon="5.00603">
        <ele>251</ele>
      </trkpt>
      <trkpt lat="44.38626" lon="5.00588">
        <ele>251</ele>
      </trkpt>
      <trkpt lat="44.38633" lon="5.00537">
        <ele>251</ele>
      </trkpt>
      <trkpt lat="44.38636" lon="5.00509">
        <ele>251</ele>
      </trkpt>
      <trkpt lat="44.38668" lon="5.00238">
        <ele>247</ele>
      </trkpt>
      <trkpt lat="44.38684" lon="5.00093">
        <ele>243</ele>
      </trkpt>
      <trkpt lat="44.38696" lon="4.99951">
        <ele>242</ele>
      </trkpt>
      <trkpt lat="44.38703" lon="4.99935">
        <ele>242</ele>
      </trkpt>
      <trkpt lat="44.3871" lon="4.99936">
        <ele>241</ele>
      </trkpt>
      <trkpt lat="44.38715" lon="4.99933">
        <ele>241</ele>
      </trkpt>
      <trkpt lat="44.38718" lon="4.99929">
        <ele>241</ele>
      </trkpt>
      <trkpt lat="44.38721" lon="4.99917">
        <ele>241</ele>
      </trkpt>
      <trkpt lat="44.38721" lon="4.99911">
        <ele>241</ele>
      </trkpt>
      <trkpt lat="44.38715" lon="4.99902">
        <ele>242</ele>
      </trkpt>
      <trkpt lat="44.38711" lon="4.99899">
        <ele>242</ele>
      </trkpt>
      <trkpt lat="44.38708" lon="4.99888">
        <ele>242</ele>
      </trkpt>
      <trkpt lat="44.38707" lon="4.99876">
        <ele>242</ele>
      </trkpt>
      <trkpt lat="44.38749" lon="4.99502">
        <ele>238</ele>
      </trkpt>
      <trkpt lat="44.38756" lon="4.99409">
        <ele>235</ele>
      </trkpt>
      <trkpt lat="44.38759" lon="4.99344">
        <ele>235</ele>
      </trkpt>
      <trkpt lat="44.38758" lon="4.99299">
        <ele>234</ele>
      </trkpt>
      <trkpt lat="44.38747" lon="4.99158">
        <ele>232</ele>
      </trkpt>
      <trkpt lat="44.38745" lon="4.99085">
        <ele>231</ele>
      </trkpt>
      <trkpt lat="44.38752" lon="4.99063">
        <ele>231</ele>
      </trkpt>
      <trkpt lat="44.38758" lon="4.99046">
        <ele>230</ele>
      </trkpt>
      <trkpt lat="44.38764" lon="4.9904">
        <ele>230</ele>
      </trkpt>
      <trkpt lat="44.3888" lon="4.99001">
        <ele>230</ele>
      </trkpt>
      <trkpt lat="44.3898" lon="4.98971">
        <ele>229</ele>
      </trkpt>
      <trkpt lat="44.39072" lon="4.9894">
        <ele>229</ele>
      </trkpt>
      <trkpt lat="44.39103" lon="4.98919">
        <ele>229</ele>
      </trkpt>
      <trkpt lat="44.39138" lon="4.98889">
        <ele>228</ele>
      </trkpt>
      <trkpt lat="44.39156" lon="4.98875">
        <ele>228</ele>
      </trkpt>
      <trkpt lat="44.39187" lon="4.98858">
        <ele>227</ele>
      </trkpt>
      <trkpt lat="44.39305" lon="4.98799">
        <ele>229</ele>
      </trkpt>
      <trkpt lat="44.39367" lon="4.98784">
        <ele>228</ele>
      </trkpt>
      <trkpt lat="44.39405" lon="4.98772">
        <ele>228</ele>
      </trkpt>
      <trkpt lat="44.39552" lon="4.98722">
        <ele>230</ele>
      </trkpt>
      <trkpt lat="44.39579" lon="4.98711">
        <ele>230</ele>
      </trkpt>
      <trkpt lat="44.39767" lon="4.98607">
        <ele>232</ele>
      </trkpt>
      <trkpt lat="44.39798" lon="4.98591">
        <ele>232</ele>
      </trkpt>
      <trkpt lat="44.39889" lon="4.98557">
        <ele>233</ele>
      </trkpt>
      <trkpt lat="44.39904" lon="4.98562">
        <ele>233</ele>
      </trkpt>
      <trkpt lat="44.3992" lon="4.98571">
        <ele>234</ele>
      </trkpt>
      <trkpt lat="44.39915" lon="4.98561">
        <ele>234</ele>
      </trkpt>
      <trkpt lat="44.39912" lon="4.98549">
        <ele>233</ele>
      </trkpt>
      <trkpt lat="44.40068" lon="4.98508">
        <ele>236</ele>
      </trkpt>
      <trkpt lat="44.40129" lon="4.98484">
        <ele>233</ele>
      </trkpt>
      <trkpt lat="44.40323" lon="4.98397">
        <ele>234</ele>
      </trkpt>
      <trkpt lat="44.40411" lon="4.9836">
        <ele>234</ele>
      </trkpt>
      <trkpt lat="44.40647" lon="4.98295">
        <ele>232</ele>
      </trkpt>
      <trkpt lat="44.40709" lon="4.98274">
        <ele>235</ele>
      </trkpt>
      <trkpt lat="44.40741" lon="4.98267">
        <ele>234</ele>
      </trkpt>
      <trkpt lat="44.40826" lon="4.98254">
        <ele>236</ele>
      </trkpt>
      <trkpt lat="44.40884" lon="4.98249">
        <ele>237</ele>
      </trkpt>
      <trkpt lat="44.41028" lon="4.98253">
        <ele>238</ele>
      </trkpt>
      <trkpt lat="44.41069" lon="4.98257">
        <ele>239</ele>
      </trkpt>
      <trkpt lat="44.41112" lon="4.98264">
        <ele>239</ele>
      </trkpt>
      <trkpt lat="44.41185" lon="4.98289">
        <ele>240</ele>
      </trkpt>
      <trkpt lat="44.41204" lon="4.98298">
        <ele>240</ele>
      </trkpt>
      <trkpt lat="44.41222" lon="4.98308">
        <ele>240</ele>
      </trkpt>
      <trkpt lat="44.4133" lon="4.98391">
        <ele>243</ele>
      </trkpt>
      <trkpt lat="44.41346" lon="4.98401">
        <ele>244</ele>
      </trkpt>
      <trkpt lat="44.41357" lon="4.98404">
        <ele>244</ele>
      </trkpt>
      <trkpt lat="44.41371" lon="4.98406">
        <ele>244</ele>
      </trkpt>
      <trkpt lat="44.41855" lon="4.98304">
        <ele>249</ele>
      </trkpt>
      <trkpt lat="44.41896" lon="4.98305">
        <ele>250</ele>
      </trkpt>
      <trkpt lat="44.42068" lon="4.98321">
        <ele>251</ele>
      </trkpt>
      <trkpt lat="44.42291" lon="4.98376">
        <ele>246</ele>
      </trkpt>
      <trkpt lat="44.42332" lon="4.98387">
        <ele>246</ele>
      </trkpt>
      <trkpt lat="44.4238" lon="4.98401">
        <ele>246</ele>
      </trkpt>
      <trkpt lat="44.42444" lon="4.98409">
        <ele>248</ele>
      </trkpt>
      <trkpt lat="44.42495" lon="4.98409">
        <ele>248</ele>
      </trkpt>
      <trkpt lat="44.42531" lon="4.98405">
        <ele>248</ele>
      </trkpt>
      <trkpt lat="44.42576" lon="4.98395">
        <ele>248</ele>
      </trkpt>
      <trkpt lat="44.42607" lon="4.98385">
        <ele>247</ele>
      </trkpt>
      <trkpt lat="44.42753" lon="4.98323">
        <ele>248</ele>
      </trkpt>
      <trkpt lat="44.42809" lon="4.98308">
        <ele>250</ele>
      </trkpt>
      <trkpt lat="44.42927" lon="4.98294">
        <ele>252</ele>
      </trkpt>
      <trkpt lat="44.42962" lon="4.98293">
        <ele>256</ele>
      </trkpt>
      <trkpt lat="44.43069" lon="4.98298">
        <ele>258</ele>
      </trkpt>
      <trkpt lat="44.43178" lon="4.98295">
        <ele>255</ele>
      </trkpt>
      <trkpt lat="44.43199" lon="4.98292">
        <ele>255</ele>
      </trkpt>
      <trkpt lat="44.43229" lon="4.98283">
        <ele>255</ele>
      </trkpt>
      <trkpt lat="44.43254" lon="4.98271">
        <ele>256</ele>
      </trkpt>
      <trkpt lat="44.43267" lon="4.98263">
        <ele>257</ele>
      </trkpt>
      <trkpt lat="44.43282" lon="4.9825">
        <ele>257</ele>
      </trkpt>
      <trkpt lat="44.43292" lon="4.98237">
        <ele>257</ele>
      </trkpt>
      <trkpt lat="44.433" lon="4.9822">
        <ele>257</ele>
      </trkpt>
      <trkpt lat="44.43311" lon="4.98189">
        <ele>257</ele>
      </trkpt>
      <trkpt lat="44.43362" lon="4.97947">
        <ele>266</ele>
      </trkpt>
      <trkpt lat="44.4337" lon="4.97916">
        <ele>265</ele>
      </trkpt>
      <trkpt lat="44.43396" lon="4.97855">
        <ele>268</ele>
      </trkpt>
      <trkpt lat="44.43437" lon="4.9778">
        <ele>273</ele>
      </trkpt>
      <trkpt lat="44.43463" lon="4.97736">
        <ele>275</ele>
      </trkpt>
      <trkpt lat="44.4348" lon="4.97716">
        <ele>275</ele>
      </trkpt>
      <trkpt lat="44.43499" lon="4.97703">
        <ele>275</ele>
      </trkpt>
      <trkpt lat="44.43539" lon="4.97679">
        <ele>272</ele>
      </trkpt>
      <trkpt lat="44.43589" lon="4.97661">
        <ele>266</ele>
      </trkpt>
      <trkpt lat="44.43613" lon="4.9766">
        <ele>265</ele>
      </trkpt>
      <trkpt lat="44.43639" lon="4.97667">
        <ele>266</ele>
      </trkpt>
      <trkpt lat="44.43685" lon="4.97693">
        <ele>260</ele>
      </trkpt>
      <trkpt lat="44.43773" lon="4.97732">
        <ele>260</ele>
      </trkpt>
      <trkpt lat="44.43904" lon="4.97794">
        <ele>262</ele>
      </trkpt>
      <trkpt lat="44.43941" lon="4.97816">
        <ele>264</ele>
      </trkpt>
      <trkpt lat="44.43977" lon="4.97843">
        <ele>264</ele>
      </trkpt>
      <trkpt lat="44.44048" lon="4.97921">
        <ele>262</ele>
      </trkpt>
      <trkpt lat="44.44149" lon="4.98053">
        <ele>267</ele>
      </trkpt>
      <trkpt lat="44.44173" lon="4.98075">
        <ele>270</ele>
      </trkpt>
      <trkpt lat="44.44174" lon="4.98079">
        <ele>270</ele>
      </trkpt>
      <trkpt lat="44.44177" lon="4.98081">
        <ele>270</ele>
      </trkpt>
      <trkpt lat="44.4418" lon="4.98081">
        <ele>270</ele>
      </trkpt>
      <trkpt lat="44.44183" lon="4.98076">
        <ele>270</ele>
      </trkpt>
      <trkpt lat="44.44191" lon="4.9807">
        <ele>271</ele>
      </trkpt>
      <trkpt lat="44.44203" lon="4.98059">
        <ele>270</ele>
      </trkpt>
      <trkpt lat="44.44219" lon="4.9804">
        <ele>271</ele>
      </trkpt>
      <trkpt lat="44.44221" lon="4.98044">
        <ele>271</ele>
      </trkpt>
      <trkpt lat="44.44241" lon="4.98026">
        <ele>272</ele>
      </trkpt>
      <trkpt lat="44.44246" lon="4.98027">
        <ele>272</ele>
      </trkpt>
      <trkpt lat="44.44257" lon="4.97992">
        <ele>271</ele>
      </trkpt>
      <trkpt lat="44.44266" lon="4.97969">
        <ele>271</ele>
      </trkpt>
      <trkpt lat="44.44274" lon="4.97958">
        <ele>270</ele>
      </trkpt>
      <trkpt lat="44.4428" lon="4.97954">
        <ele>271</ele>
      </trkpt>
      <trkpt lat="44.44288" lon="4.97952">
        <ele>271</ele>
      </trkpt>
      <trkpt lat="44.44298" lon="4.97952">
        <ele>273</ele>
      </trkpt>
      <trkpt lat="44.4432" lon="4.97962">
        <ele>275</ele>
      </trkpt>
      <trkpt lat="44.4433" lon="4.97961">
        <ele>276</ele>
      </trkpt>
      <trkpt lat="44.44358" lon="4.97944">
        <ele>276</ele>
      </trkpt>
      <trkpt lat="44.44364" lon="4.97934">
        <ele>274</ele>
      </trkpt>
      <trkpt lat="44.44376" lon="4.97945">
        <ele>276</ele>
      </trkpt>
      <trkpt lat="44.44396" lon="4.97948">
        <ele>276</ele>
      </trkpt>
      <trkpt lat="44.4441" lon="4.97952">
        <ele>276</ele>
      </trkpt>
      <trkpt lat="44.44427" lon="4.97963">
        <ele>276</ele>
      </trkpt>
      <trkpt lat="44.4444" lon="4.97945">
        <ele>277</ele>
      </trkpt>
      <trkpt lat="44.44457" lon="4.97906">
        <ele>280</ele>
      </trkpt>
      <trkpt lat="44.44484" lon="4.97914">
        <ele>280</ele>
      </trkpt>
      <trkpt lat="44.44506" lon="4.97917">
        <ele>281</ele>
      </trkpt>
      <trkpt lat="44.44543" lon="4.97917">
        <ele>283</ele>
      </trkpt>
      <trkpt lat="44.44648" lon="4.97927">
        <ele>288</ele>
      </trkpt>
      <trkpt lat="44.44671" lon="4.97922">
        <ele>290</ele>
      </trkpt>
      <trkpt lat="44.44706" lon="4.97924">
        <ele>291</ele>
      </trkpt>
      <trkpt lat="44.44754" lon="4.97861">
        <ele>295</ele>
      </trkpt>
      <trkpt lat="44.44826" lon="4.97758">
        <ele>300</ele>
      </trkpt>
      <trkpt lat="44.44862" lon="4.97718">
        <ele>301</ele>
      </trkpt>
      <trkpt lat="44.4491" lon="4.97679">
        <ele>302</ele>
      </trkpt>
      <trkpt lat="44.45016" lon="4.97585">
        <ele>306</ele>
      </trkpt>
      <trkpt lat="44.45139" lon="4.97513">
        <ele>314</ele>
      </trkpt>
      <trkpt lat="44.45169" lon="4.97498">
        <ele>315</ele>
      </trkpt>
      <trkpt lat="44.45459" lon="4.97312">
        <ele>301</ele>
      </trkpt>
      <trkpt lat="44.45514" lon="4.97274">
        <ele>304</ele>
      </trkpt>
      <trkpt lat="44.45538" lon="4.97247">
        <ele>305</ele>
      </trkpt>
      <trkpt lat="44.45569" lon="4.97201">
        <ele>311</ele>
      </trkpt>
      <trkpt lat="44.45599" lon="4.97164">
        <ele>309</ele>
      </trkpt>
      <trkpt lat="44.45709" lon="4.97073">
        <ele>309</ele>
      </trkpt>
      <trkpt lat="44.45758" lon="4.97054">
        <ele>305</ele>
      </trkpt>
      <trkpt lat="44.45881" lon="4.9702">
        <ele>304</ele>
      </trkpt>
      <trkpt lat="44.45904" lon="4.97001">
        <ele>305</ele>
      </trkpt>
      <trkpt lat="44.46088" lon="4.96763">
        <ele>311</ele>
      </trkpt>
      <trkpt lat="44.46204" lon="4.96591">
        <ele>313</ele>
      </trkpt>
      <trkpt lat="44.46364" lon="4.96447">
        <ele>319</ele>
      </trkpt>
      <trkpt lat="44.46394" lon="4.96433">
        <ele>318</ele>
      </trkpt>
      <trkpt lat="44.46461" lon="4.96424">
        <ele>316</ele>
      </trkpt>
      <trkpt lat="44.4651" lon="4.96414">
        <ele>317</ele>
      </trkpt>
      <trkpt lat="44.46546" lon="4.96404">
        <ele>320</ele>
      </trkpt>
      <trkpt lat="44.4656" lon="4.96393">
        <ele>320</ele>
      </trkpt>
      <trkpt lat="44.46572" lon="4.96377">
        <ele>321</ele>
      </trkpt>
      <trkpt lat="44.46598" lon="4.96306">
        <ele>323</ele>
      </trkpt>
      <trkpt lat="44.46609" lon="4.96291">
        <ele>323</ele>
      </trkpt>
      <trkpt lat="44.46622" lon="4.9628">
        <ele>323</ele>
      </trkpt>
      <trkpt lat="44.46637" lon="4.96272">
        <ele>325</ele>
      </trkpt>
      <trkpt lat="44.46673" lon="4.96222">
        <ele>327</ele>
      </trkpt>
      <trkpt lat="44.46697" lon="4.962">
        <ele>329</ele>
      </trkpt>
      <trkpt lat="44.46722" lon="4.96184">
        <ele>331</ele>
      </trkpt>
      <trkpt lat="44.46774" lon="4.96128">
        <ele>332</ele>
      </trkpt>
      <trkpt lat="44.46802" lon="4.96093">
        <ele>333</ele>
      </trkpt>
      <trkpt lat="44.46844" lon="4.96028">
        <ele>336</ele>
      </trkpt>
      <trkpt lat="44.46855" lon="4.96014">
        <ele>337</ele>
      </trkpt>
      <trkpt lat="44.46875" lon="4.96001">
        <ele>337</ele>
      </trkpt>
      <trkpt lat="44.4703" lon="4.95929">
        <ele>344</ele>
      </trkpt>
      <trkpt lat="44.47045" lon="4.95918">
        <ele>348</ele>
      </trkpt>
      <trkpt lat="44.47087" lon="4.95847">
        <ele>349</ele>
      </trkpt>
      <trkpt lat="44.47101" lon="4.95834">
        <ele>353</ele>
      </trkpt>
      <trkpt lat="44.47113" lon="4.95829">
        <ele>355</ele>
      </trkpt>
      <trkpt lat="44.47132" lon="4.95829">
        <ele>358</ele>
      </trkpt>
      <trkpt lat="44.47301" lon="4.95875">
        <ele>371</ele>
      </trkpt>
      <trkpt lat="44.47392" lon="4.9591">
        <ele>378</ele>
      </trkpt>
      <trkpt lat="44.47422" lon="4.9592">
        <ele>376</ele>
      </trkpt>
      <trkpt lat="44.47452" lon="4.95921">
        <ele>378</ele>
      </trkpt>
      <trkpt lat="44.47537" lon="4.95931">
        <ele>387</ele>
      </trkpt>
      <trkpt lat="44.47615" lon="4.95947">
        <ele>387</ele>
      </trkpt>
      <trkpt lat="44.47649" lon="4.95947">
        <ele>389</ele>
      </trkpt>
      <trkpt lat="44.47738" lon="4.95925">
        <ele>399</ele>
      </trkpt>
      <trkpt lat="44.47771" lon="4.95927">
        <ele>402</ele>
      </trkpt>
      <trkpt lat="44.47827" lon="4.95943">
        <ele>407</ele>
      </trkpt>
      <trkpt lat="44.479" lon="4.95957">
        <ele>410</ele>
      </trkpt>
      <trkpt lat="44.4797" lon="4.95975">
        <ele>415</ele>
      </trkpt>
      <trkpt lat="44.47993" lon="4.95981">
        <ele>417</ele>
      </trkpt>
      <trkpt lat="44.48026" lon="4.95998">
        <ele>418</ele>
      </trkpt>
      <trkpt lat="44.48046" lon="4.96005">
        <ele>416</ele>
      </trkpt>
      <trkpt lat="44.48061" lon="4.96007">
        <ele>416</ele>
      </trkpt>
      <trkpt lat="44.48066" lon="4.96001">
        <ele>417</ele>
      </trkpt>
      <trkpt lat="44.48063" lon="4.95994">
        <ele>421</ele>
      </trkpt>
      <trkpt lat="44.4801" lon="4.95967">
        <ele>422</ele>
      </trkpt>
      <trkpt lat="44.47993" lon="4.95954">
        <ele>423</ele>
      </trkpt>
      <trkpt lat="44.47974" lon="4.95944">
        <ele>420</ele>
      </trkpt>
      <trkpt lat="44.47871" lon="4.95898">
        <ele>421</ele>
      </trkpt>
      <trkpt lat="44.4777" lon="4.95845">
        <ele>418</ele>
      </trkpt>
      <trkpt lat="44.47761" lon="4.95838">
        <ele>417</ele>
      </trkpt>
      <trkpt lat="44.47758" lon="4.95829">
        <ele>416</ele>
      </trkpt>
      <trkpt lat="44.47762" lon="4.95821">
        <ele>415</ele>
      </trkpt>
      <trkpt lat="44.47772" lon="4.95819">
        <ele>416</ele>
      </trkpt>
      <trkpt lat="44.47822" lon="4.95827">
        <ele>422</ele>
      </trkpt>
      <trkpt lat="44.47847" lon="4.95825">
        <ele>425</ele>
      </trkpt>
      <trkpt lat="44.47879" lon="4.95813">
        <ele>428</ele>
      </trkpt>
      <trkpt lat="44.47958" lon="4.95801">
        <ele>434</ele>
      </trkpt>
      <trkpt lat="44.48009" lon="4.95789">
        <ele>436</ele>
      </trkpt>
      <trkpt lat="44.48029" lon="4.95789">
        <ele>439</ele>
      </trkpt>
      <trkpt lat="44.48115" lon="4.95774">
        <ele>440</ele>
      </trkpt>
      <trkpt lat="44.48229" lon="4.95775">
        <ele>448</ele>
      </trkpt>
      <trkpt lat="44.48388" lon="4.95751">
        <ele>465</ele>
      </trkpt>
      <trkpt lat="44.48493" lon="4.95747">
        <ele>469</ele>
      </trkpt>
      <trkpt lat="44.48516" lon="4.95739">
        <ele>472</ele>
      </trkpt>
      <trkpt lat="44.48543" lon="4.95724">
        <ele>476</ele>
      </trkpt>
      <trkpt lat="44.48573" lon="4.95704">
        <ele>476</ele>
      </trkpt>
      <trkpt lat="44.48605" lon="4.9568">
        <ele>478</ele>
      </trkpt>
      <trkpt lat="44.48623" lon="4.9567">
        <ele>478</ele>
      </trkpt>
      <trkpt lat="44.48652" lon="4.95669">
        <ele>481</ele>
      </trkpt>
      <trkpt lat="44.48672" lon="4.95678">
        <ele>483</ele>
      </trkpt>
      <trkpt lat="44.48749" lon="4.95722">
        <ele>490</ele>
      </trkpt>
      <trkpt lat="44.48783" lon="4.95746">
        <ele>493</ele>
      </trkpt>
      <trkpt lat="44.48821" lon="4.95757">
        <ele>494</ele>
      </trkpt>
      <trkpt lat="44.48878" lon="4.95788">
        <ele>497</ele>
      </trkpt>
      <trkpt lat="44.48885" lon="4.95788">
        <ele>497</ele>
      </trkpt>
      <trkpt lat="44.48888" lon="4.95786">
        <ele>497</ele>
      </trkpt>
      <trkpt lat="44.4889" lon="4.95778">
        <ele>497</ele>
      </trkpt>
      <trkpt lat="44.48875" lon="4.95709">
        <ele>500</ele>
      </trkpt>
      <trkpt lat="44.48875" lon="4.9569">
        <ele>501</ele>
      </trkpt>
      <trkpt lat="44.48878" lon="4.95675">
        <ele>501</ele>
      </trkpt>
      <trkpt lat="44.489" lon="4.95644">
        <ele>503</ele>
      </trkpt>
      <trkpt lat="44.48956" lon="4.95589">
        <ele>505</ele>
      </trkpt>
      <trkpt lat="44.48972" lon="4.95577">
        <ele>506</ele>
      </trkpt>
      <trkpt lat="44.48992" lon="4.95563">
        <ele>507</ele>
      </trkpt>
      <trkpt lat="44.49031" lon="4.95544">
        <ele>507</ele>
      </trkpt>
      <trkpt lat="44.49073" lon="4.9554">
        <ele>507</ele>
      </trkpt>
      <trkpt lat="44.49112" lon="4.95511">
        <ele>506</ele>
      </trkpt>
      <trkpt lat="44.49138" lon="4.95488">
        <ele>507</ele>
      </trkpt>
      <trkpt lat="44.49152" lon="4.95461">
        <ele>507</ele>
      </trkpt>
      <trkpt lat="44.49165" lon="4.95408">
        <ele>507</ele>
      </trkpt>
      <trkpt lat="44.49178" lon="4.95374">
        <ele>506</ele>
      </trkpt>
      <trkpt lat="44.4919" lon="4.95331">
        <ele>508</ele>
      </trkpt>
      <trkpt lat="44.49206" lon="4.95252">
        <ele>506</ele>
      </trkpt>
      <trkpt lat="44.4922" lon="4.95208">
        <ele>505</ele>
      </trkpt>
      <trkpt lat="44.49302" lon="4.95089">
        <ele>501</ele>
      </trkpt>
      <trkpt lat="44.49361" lon="4.95019">
        <ele>503</ele>
      </trkpt>
      <trkpt lat="44.49398" lon="4.94952">
        <ele>500</ele>
      </trkpt>
      <trkpt lat="44.49441" lon="4.94892">
        <ele>500</ele>
      </trkpt>
      <trkpt lat="44.49485" lon="4.94838">
        <ele>496</ele>
      </trkpt>
      <trkpt lat="44.4956" lon="4.94771">
        <ele>492</ele>
      </trkpt>
      <trkpt lat="44.49574" lon="4.94763">
        <ele>493</ele>
      </trkpt>
      <trkpt lat="44.49588" lon="4.94751">
        <ele>493</ele>
      </trkpt>
      <trkpt lat="44.49598" lon="4.94738">
        <ele>492</ele>
      </trkpt>
      <trkpt lat="44.49622" lon="4.94714">
        <ele>492</ele>
      </trkpt>
      <trkpt lat="44.4965" lon="4.94669">
        <ele>493</ele>
      </trkpt>
      <trkpt lat="44.49654" lon="4.94644">
        <ele>493</ele>
      </trkpt>
      <trkpt lat="44.49653" lon="4.94587">
        <ele>493</ele>
      </trkpt>
      <trkpt lat="44.49629" lon="4.94412">
        <ele>494</ele>
      </trkpt>
      <trkpt lat="44.49612" lon="4.94346">
        <ele>495</ele>
      </trkpt>
      <trkpt lat="44.49584" lon="4.9428">
        <ele>493</ele>
      </trkpt>
      <trkpt lat="44.49549" lon="4.94202">
        <ele>487</ele>
      </trkpt>
      <trkpt lat="44.49534" lon="4.94132">
        <ele>488</ele>
      </trkpt>
      <trkpt lat="44.49518" lon="4.93989">
        <ele>489</ele>
      </trkpt>
      <trkpt lat="44.49513" lon="4.93955">
        <ele>490</ele>
      </trkpt>
      <trkpt lat="44.49513" lon="4.93932">
        <ele>491</ele>
      </trkpt>
      <trkpt lat="44.49516" lon="4.93902">
        <ele>492</ele>
      </trkpt>
      <trkpt lat="44.49514" lon="4.93884">
        <ele>492</ele>
      </trkpt>
      <trkpt lat="44.49506" lon="4.93863">
        <ele>491</ele>
      </trkpt>
      <trkpt lat="44.49497" lon="4.93846">
        <ele>490</ele>
      </trkpt>
      <trkpt lat="44.4949" lon="4.93816">
        <ele>489</ele>
      </trkpt>
      <trkpt lat="44.49489" lon="4.93765">
        <ele>487</ele>
      </trkpt>
      <trkpt lat="44.49493" lon="4.93724">
        <ele>486</ele>
      </trkpt>
      <trkpt lat="44.49499" lon="4.93708">
        <ele>484</ele>
      </trkpt>
      <trkpt lat="44.49501" lon="4.93695">
        <ele>484</ele>
      </trkpt>
      <trkpt lat="44.49491" lon="4.93675">
        <ele>483</ele>
      </trkpt>
      <trkpt lat="44.49497" lon="4.93658">
        <ele>481</ele>
      </trkpt>
      <trkpt lat="44.49509" lon="4.93636">
        <ele>480</ele>
      </trkpt>
      <trkpt lat="44.49524" lon="4.93615">
        <ele>480</ele>
      </trkpt>
      <trkpt lat="44.49532" lon="4.9361">
        <ele>480</ele>
      </trkpt>
      <trkpt lat="44.49543" lon="4.93609">
        <ele>478</ele>
      </trkpt>
      <trkpt lat="44.4956" lon="4.93615">
        <ele>479</ele>
      </trkpt>
      <trkpt lat="44.49609" lon="4.93643">
        <ele>479</ele>
      </trkpt>
      <trkpt lat="44.49629" lon="4.93647">
        <ele>478</ele>
      </trkpt>
      <trkpt lat="44.49648" lon="4.93641">
        <ele>478</ele>
      </trkpt>
      <trkpt lat="44.49685" lon="4.9361">
        <ele>472</ele>
      </trkpt>
      <trkpt lat="44.49693" lon="4.93607">
        <ele>471</ele>
      </trkpt>
      <trkpt lat="44.49707" lon="4.93606">
        <ele>471</ele>
      </trkpt>
      <trkpt lat="44.4972" lon="4.93614">
        <ele>468</ele>
      </trkpt>
      <trkpt lat="44.49729" lon="4.93626">
        <ele>468</ele>
      </trkpt>
      <trkpt lat="44.49736" lon="4.93639">
        <ele>468</ele>
      </trkpt>
      <trkpt lat="44.49753" lon="4.93702">
        <ele>468</ele>
      </trkpt>
      <trkpt lat="44.49757" lon="4.9371">
        <ele>468</ele>
      </trkpt>
      <trkpt lat="44.49767" lon="4.93719">
        <ele>466</ele>
      </trkpt>
      <trkpt lat="44.49777" lon="4.93722">
        <ele>466</ele>
      </trkpt>
      <trkpt lat="44.49788" lon="4.93721">
        <ele>466</ele>
      </trkpt>
      <trkpt lat="44.49798" lon="4.93716">
        <ele>465</ele>
      </trkpt>
      <trkpt lat="44.49846" lon="4.93669">
        <ele>464</ele>
      </trkpt>
      <trkpt lat="44.49865" lon="4.93657">
        <ele>463</ele>
      </trkpt>
      <trkpt lat="44.49878" lon="4.9365">
        <ele>462</ele>
      </trkpt>
      <trkpt lat="44.49932" lon="4.93632">
        <ele>458</ele>
      </trkpt>
      <trkpt lat="44.49959" lon="4.93625">
        <ele>456</ele>
      </trkpt>
      <trkpt lat="44.50006" lon="4.93623">
        <ele>454</ele>
      </trkpt>
      <trkpt lat="44.50018" lon="4.93625">
        <ele>452</ele>
      </trkpt>
      <trkpt lat="44.50026" lon="4.93632">
        <ele>451</ele>
      </trkpt>
      <trkpt lat="44.50034" lon="4.93645">
        <ele>452</ele>
      </trkpt>
      <trkpt lat="44.50036" lon="4.93659">
        <ele>452</ele>
      </trkpt>
      <trkpt lat="44.50033" lon="4.93675">
        <ele>451</ele>
      </trkpt>
      <trkpt lat="44.49995" lon="4.93734">
        <ele>445</ele>
      </trkpt>
      <trkpt lat="44.49986" lon="4.93758">
        <ele>444</ele>
      </trkpt>
      <trkpt lat="44.49969" lon="4.93944">
        <ele>434</ele>
      </trkpt>
      <trkpt lat="44.49964" lon="4.94028">
        <ele>432</ele>
      </trkpt>
      <trkpt lat="44.49968" lon="4.94054">
        <ele>432</ele>
      </trkpt>
      <trkpt lat="44.49984" lon="4.94075">
        <ele>431</ele>
      </trkpt>
      <trkpt lat="44.50221" lon="4.94226">
        <ele>422</ele>
      </trkpt>
      <trkpt lat="44.50236" lon="4.94226">
        <ele>422</ele>
      </trkpt>
      <trkpt lat="44.50249" lon="4.94217">
        <ele>420</ele>
      </trkpt>
      <trkpt lat="44.50276" lon="4.94175">
        <ele>417</ele>
      </trkpt>
      <trkpt lat="44.50293" lon="4.94158">
        <ele>414</ele>
      </trkpt>
      <trkpt lat="44.50315" lon="4.94147">
        <ele>414</ele>
      </trkpt>
      <trkpt lat="44.50448" lon="4.94103">
        <ele>414</ele>
      </trkpt>
      <trkpt lat="44.50468" lon="4.9409">
        <ele>417</ele>
      </trkpt>
      <trkpt lat="44.50484" lon="4.94075">
        <ele>411</ele>
      </trkpt>
      <trkpt lat="44.50569" lon="4.93968">
        <ele>401</ele>
      </trkpt>
      <trkpt lat="44.50617" lon="4.93922">
        <ele>401</ele>
      </trkpt>
      <trkpt lat="44.5067" lon="4.93877">
        <ele>389</ele>
      </trkpt>
      <trkpt lat="44.50685" lon="4.93867">
        <ele>389</ele>
      </trkpt>
      <trkpt lat="44.50703" lon="4.93862">
        <ele>388</ele>
      </trkpt>
      <trkpt lat="44.50734" lon="4.93858">
        <ele>383</ele>
      </trkpt>
      <trkpt lat="44.50773" lon="4.93847">
        <ele>387</ele>
      </trkpt>
      <trkpt lat="44.50807" lon="4.93825">
        <ele>384</ele>
      </trkpt>
      <trkpt lat="44.50839" lon="4.93796">
        <ele>380</ele>
      </trkpt>
      <trkpt lat="44.50883" lon="4.93726">
        <ele>368</ele>
      </trkpt>
      <trkpt lat="44.50896" lon="4.93719">
        <ele>363</ele>
      </trkpt>
      <trkpt lat="44.50915" lon="4.93717">
        <ele>360</ele>
      </trkpt>
      <trkpt lat="44.50929" lon="4.93722">
        <ele>364</ele>
      </trkpt>
      <trkpt lat="44.50941" lon="4.93731">
        <ele>361</ele>
      </trkpt>
      <trkpt lat="44.50946" lon="4.93743">
        <ele>362</ele>
      </trkpt>
      <trkpt lat="44.50946" lon="4.93757">
        <ele>368</ele>
      </trkpt>
      <trkpt lat="44.50942" lon="4.93784">
        <ele>375</ele>
      </trkpt>
      <trkpt lat="44.50943" lon="4.93797">
        <ele>376</ele>
      </trkpt>
      <trkpt lat="44.50952" lon="4.93809">
        <ele>380</ele>
      </trkpt>
      <trkpt lat="44.5096" lon="4.93811">
        <ele>378</ele>
      </trkpt>
      <trkpt lat="44.50967" lon="4.93811">
        <ele>377</ele>
      </trkpt>
      <trkpt lat="44.5109" lon="4.93776">
        <ele>357</ele>
      </trkpt>
      <trkpt lat="44.51132" lon="4.93772">
        <ele>354</ele>
      </trkpt>
      <trkpt lat="44.51214" lon="4.93782">
        <ele>359</ele>
      </trkpt>
      <trkpt lat="44.51283" lon="4.93779">
        <ele>359</ele>
      </trkpt>
      <trkpt lat="44.5145" lon="4.93736">
        <ele>340</ele>
      </trkpt>
      <trkpt lat="44.5149" lon="4.93738">
        <ele>333</ele>
      </trkpt>
      <trkpt lat="44.51571" lon="4.93774">
        <ele>330</ele>
      </trkpt>
      <trkpt lat="44.51596" lon="4.9378">
        <ele>336</ele>
      </trkpt>
      <trkpt lat="44.51641" lon="4.93784">
        <ele>328</ele>
      </trkpt>
      <trkpt lat="44.51739" lon="4.93803">
        <ele>317</ele>
      </trkpt>
      <trkpt lat="44.5175" lon="4.93808">
        <ele>319</ele>
      </trkpt>
      <trkpt lat="44.51758" lon="4.93818">
        <ele>319</ele>
      </trkpt>
      <trkpt lat="44.51764" lon="4.93833">
        <ele>321</ele>
      </trkpt>
      <trkpt lat="44.51769" lon="4.93898">
        <ele>318</ele>
      </trkpt>
      <trkpt lat="44.51771" lon="4.93977">
        <ele>319</ele>
      </trkpt>
      <trkpt lat="44.51768" lon="4.93991">
        <ele>319</ele>
      </trkpt>
      <trkpt lat="44.51762" lon="4.94003">
        <ele>322</ele>
      </trkpt>
      <trkpt lat="44.51729" lon="4.94043">
        <ele>324</ele>
      </trkpt>
      <trkpt lat="44.51724" lon="4.94055">
        <ele>323</ele>
      </trkpt>
      <trkpt lat="44.51728" lon="4.94074">
        <ele>323</ele>
      </trkpt>
      <trkpt lat="44.5173" lon="4.94078">
        <ele>324</ele>
      </trkpt>
      <trkpt lat="44.51738" lon="4.94081">
        <ele>323</ele>
      </trkpt>
      <trkpt lat="44.51746" lon="4.9408">
        <ele>324</ele>
      </trkpt>
      <trkpt lat="44.51815" lon="4.94024">
        <ele>318</ele>
      </trkpt>
      <trkpt lat="44.51825" lon="4.9401">
        <ele>322</ele>
      </trkpt>
      <trkpt lat="44.51833" lon="4.93994">
        <ele>324</ele>
      </trkpt>
      <trkpt lat="44.51835" lon="4.93979">
        <ele>324</ele>
      </trkpt>
      <trkpt lat="44.51834" lon="4.93931">
        <ele>325</ele>
      </trkpt>
      <trkpt lat="44.51869" lon="4.93766">
        <ele>313</ele>
      </trkpt>
      <trkpt lat="44.51882" lon="4.93735">
        <ele>312</ele>
      </trkpt>
      <trkpt lat="44.51896" lon="4.93719">
        <ele>308</ele>
      </trkpt>
      <trkpt lat="44.51957" lon="4.93688">
        <ele>306</ele>
      </trkpt>
      <trkpt lat="44.52007" lon="4.93665">
        <ele>306</ele>
      </trkpt>
      <trkpt lat="44.52062" lon="4.9366">
        <ele>303</ele>
      </trkpt>
      <trkpt lat="44.52126" lon="4.93648">
        <ele>291</ele>
      </trkpt>
      <trkpt lat="44.52138" lon="4.93652">
        <ele>289</ele>
      </trkpt>
      <trkpt lat="44.52185" lon="4.93698">
        <ele>303</ele>
      </trkpt>
      <trkpt lat="44.52196" lon="4.93701">
        <ele>303</ele>
      </trkpt>
      <trkpt lat="44.52245" lon="4.93695">
        <ele>298</ele>
      </trkpt>
      <trkpt lat="44.52259" lon="4.93699">
        <ele>298</ele>
      </trkpt>
      <trkpt lat="44.52282" lon="4.93713">
        <ele>298</ele>
      </trkpt>
      <trkpt lat="44.52294" lon="4.93714">
        <ele>299</ele>
      </trkpt>
      <trkpt lat="44.523" lon="4.93709">
        <ele>299</ele>
      </trkpt>
      <trkpt lat="44.52316" lon="4.93678">
        <ele>294</ele>
      </trkpt>
      <trkpt lat="44.52332" lon="4.93663">
        <ele>291</ele>
      </trkpt>
      <trkpt lat="44.52624" lon="4.93499">
        <ele>275</ele>
      </trkpt>
      <trkpt lat="44.52732" lon="4.93436">
        <ele>273</ele>
      </trkpt>
      <trkpt lat="44.52836" lon="4.9335">
        <ele>264</ele>
      </trkpt>
      <trkpt lat="44.53008" lon="4.93211">
        <ele>252</ele>
      </trkpt>
      <trkpt lat="44.53045" lon="4.93202">
        <ele>249</ele>
      </trkpt>
      <trkpt lat="44.53809" lon="4.93365">
        <ele>226</ele>
      </trkpt>
      <trkpt lat="44.53839" lon="4.93372">
        <ele>225</ele>
      </trkpt>
      <trkpt lat="44.54313" lon="4.93475">
        <ele>214</ele>
      </trkpt>
      <trkpt lat="44.54347" lon="4.93484">
        <ele>214</ele>
      </trkpt>
      <trkpt lat="44.5444" lon="4.93501">
        <ele>219</ele>
      </trkpt>
      <trkpt lat="44.54454" lon="4.93507">
        <ele>219</ele>
      </trkpt>
      <trkpt lat="44.54467" lon="4.93508">
        <ele>221</ele>
      </trkpt>
      <trkpt lat="44.54469" lon="4.93512">
        <ele>222</ele>
      </trkpt>
      <trkpt lat="44.5447" lon="4.9353">
        <ele>222</ele>
      </trkpt>
      <trkpt lat="44.54467" lon="4.9357">
        <ele>222</ele>
      </trkpt>
      <trkpt lat="44.54468" lon="4.93609">
        <ele>222</ele>
      </trkpt>
      <trkpt lat="44.54451" lon="4.93722">
        <ele>229</ele>
      </trkpt>
      <trkpt lat="44.54411" lon="4.93929">
        <ele>220</ele>
      </trkpt>
      <trkpt lat="44.54391" lon="4.94031">
        <ele>219</ele>
      </trkpt>
      <trkpt lat="44.54382" lon="4.94069">
        <ele>220</ele>
      </trkpt>
      <trkpt lat="44.54358" lon="4.94151">
        <ele>220</ele>
      </trkpt>
      <trkpt lat="44.54321" lon="4.94414">
        <ele>224</ele>
      </trkpt>
      <trkpt lat="44.54321" lon="4.94427">
        <ele>225</ele>
      </trkpt>
      <trkpt lat="44.54332" lon="4.94542">
        <ele>229</ele>
      </trkpt>
      <trkpt lat="44.54333" lon="4.94571">
        <ele>229</ele>
      </trkpt>
      <trkpt lat="44.54329" lon="4.94597">
        <ele>229</ele>
      </trkpt>
      <trkpt lat="44.54326" lon="4.94607">
        <ele>229</ele>
      </trkpt>
      <trkpt lat="44.54281" lon="4.94699">
        <ele>228</ele>
      </trkpt>
      <trkpt lat="44.54271" lon="4.94731">
        <ele>228</ele>
      </trkpt>
      <trkpt lat="44.5427" lon="4.94745">
        <ele>228</ele>
      </trkpt>
      <trkpt lat="44.54252" lon="4.94831">
        <ele>231</ele>
      </trkpt>
      <trkpt lat="44.54226" lon="4.94991">
        <ele>233</ele>
      </trkpt>
      <trkpt lat="44.54215" lon="4.95175">
        <ele>242</ele>
      </trkpt>
      <trkpt lat="44.5421" lon="4.95199">
        <ele>246</ele>
      </trkpt>
      <trkpt lat="44.54201" lon="4.95222">
        <ele>243</ele>
      </trkpt>
      <trkpt lat="44.54105" lon="4.95379">
        <ele>235</ele>
      </trkpt>
      <trkpt lat="44.54093" lon="4.95414">
        <ele>234</ele>
      </trkpt>
      <trkpt lat="44.5409" lon="4.95438">
        <ele>235</ele>
      </trkpt>
      <trkpt lat="44.54094" lon="4.95539">
        <ele>235</ele>
      </trkpt>
      <trkpt lat="44.5409" lon="4.9557">
        <ele>234</ele>
      </trkpt>
      <trkpt lat="44.54079" lon="4.9563">
        <ele>235</ele>
      </trkpt>
      <trkpt lat="44.54063" lon="4.9569">
        <ele>237</ele>
      </trkpt>
      <trkpt lat="44.54053" lon="4.95714">
        <ele>240</ele>
      </trkpt>
      <trkpt lat="44.54038" lon="4.95746">
        <ele>238</ele>
      </trkpt>
      <trkpt lat="44.53992" lon="4.9583">
        <ele>240</ele>
      </trkpt>
      <trkpt lat="44.53964" lon="4.95877">
        <ele>240</ele>
      </trkpt>
      <trkpt lat="44.53934" lon="4.95924">
        <ele>238</ele>
      </trkpt>
      <trkpt lat="44.53905" lon="4.9596">
        <ele>237</ele>
      </trkpt>
      <trkpt lat="44.53882" lon="4.95997">
        <ele>237</ele>
      </trkpt>
      <trkpt lat="44.53872" lon="4.96018">
        <ele>237</ele>
      </trkpt>
      <trkpt lat="44.5386" lon="4.96058">
        <ele>236</ele>
      </trkpt>
      <trkpt lat="44.53855" lon="4.96096">
        <ele>236</ele>
      </trkpt>
      <trkpt lat="44.53843" lon="4.96165">
        <ele>239</ele>
      </trkpt>
      <trkpt lat="44.53831" lon="4.9621">
        <ele>247</ele>
      </trkpt>
      <trkpt lat="44.53808" lon="4.96252">
        <ele>252</ele>
      </trkpt>
      <trkpt lat="44.53782" lon="4.96282">
        <ele>252</ele>
      </trkpt>
      <trkpt lat="44.53757" lon="4.96306">
        <ele>251</ele>
      </trkpt>
      <trkpt lat="44.53705" lon="4.96346">
        <ele>247</ele>
      </trkpt>
      <trkpt lat="44.53658" lon="4.96377">
        <ele>249</ele>
      </trkpt>
      <trkpt lat="44.53575" lon="4.96411">
        <ele>246</ele>
      </trkpt>
      <trkpt lat="44.53536" lon="4.96433">
        <ele>245</ele>
      </trkpt>
      <trkpt lat="44.53511" lon="4.96454">
        <ele>245</ele>
      </trkpt>
      <trkpt lat="44.53486" lon="4.96488">
        <ele>248</ele>
      </trkpt>
      <trkpt lat="44.53446" lon="4.96547">
        <ele>253</ele>
      </trkpt>
      <trkpt lat="44.53417" lon="4.96584">
        <ele>259</ele>
      </trkpt>
      <trkpt lat="44.53398" lon="4.96602">
        <ele>255</ele>
      </trkpt>
      <trkpt lat="44.53179" lon="4.9672">
        <ele>259</ele>
      </trkpt>
      <trkpt lat="44.53154" lon="4.96741">
        <ele>265</ele>
      </trkpt>
      <trkpt lat="44.53139" lon="4.96757">
        <ele>270</ele>
      </trkpt>
      <trkpt lat="44.53119" lon="4.96782">
        <ele>270</ele>
      </trkpt>
      <trkpt lat="44.53095" lon="4.96819">
        <ele>269</ele>
      </trkpt>
      <trkpt lat="44.53044" lon="4.96744">
        <ele>255</ele>
      </trkpt>
      <trkpt lat="44.53017" lon="4.96706">
        <ele>258</ele>
      </trkpt>
      <trkpt lat="44.53006" lon="4.96693">
        <ele>262</ele>
      </trkpt>
      <trkpt lat="44.52986" lon="4.96697">
        <ele>261</ele>
      </trkpt>
      <trkpt lat="44.52905" lon="4.96741">
        <ele>263</ele>
      </trkpt>
      <trkpt lat="44.5289" lon="4.96734">
        <ele>267</ele>
      </trkpt>
      <trkpt lat="44.52851" lon="4.96725">
        <ele>268</ele>
        <extensions>
          <visugpx:TrkExtension xmlns:visugpx="https://www.visugpx.com/editgpx/">
            <visugpx:node>1</visugpx:node>
            </visugpx:TrkExtension>
        </extensions>
      </trkpt>
    </trkseg>
  </trk>
  <trk>
    <name><![CDATA[Souspierre_3b]]></name>
    <extensions>
      <line xmlns="http://www.topografix.com/GPX/gpx_style/0/2">
        <color>00FF00</color>
        <width>4</width>
      </line>
    </extensions>
    <trkseg>
      <trkpt lat="44.52848" lon="4.96769">
        <ele>262</ele>
      </trkpt>
      <trkpt lat="44.52986" lon="4.96697">
        <ele>261</ele>
      </trkpt>
      <trkpt lat="44.53006" lon="4.96693">
        <ele>262</ele>
      </trkpt>
      <trkpt lat="44.53017" lon="4.96706">
        <ele>258</ele>
      </trkpt>
      <trkpt lat="44.53044" lon="4.96744">
        <ele>255</ele>
      </trkpt>
      <trkpt lat="44.53095" lon="4.96819">
        <ele>269</ele>
      </trkpt>
      <trkpt lat="44.53049" lon="4.96897">
        <ele>264</ele>
      </trkpt>
      <trkpt lat="44.52629" lon="4.9755">
        <ele>263</ele>
      </trkpt>
      <trkpt lat="44.52591" lon="4.97628">
        <ele>265</ele>
      </trkpt>
      <trkpt lat="44.5257" lon="4.97698">
        <ele>265</ele>
      </trkpt>
      <trkpt lat="44.52558" lon="4.97767">
        <ele>266</ele>
      </trkpt>
      <trkpt lat="44.52555" lon="4.97824">
        <ele>266</ele>
      </trkpt>
      <trkpt lat="44.52555" lon="4.97995">
        <ele>273</ele>
      </trkpt>
      <trkpt lat="44.52557" lon="4.98064">
        <ele>275</ele>
      </trkpt>
      <trkpt lat="44.52557" lon="4.98101">
        <ele>276</ele>
      </trkpt>
      <trkpt lat="44.52559" lon="4.98139">
        <ele>276</ele>
      </trkpt>
      <trkpt lat="44.52563" lon="4.98167">
        <ele>277</ele>
      </trkpt>
      <trkpt lat="44.52598" lon="4.98287">
        <ele>279</ele>
      </trkpt>
      <trkpt lat="44.52683" lon="4.98563">
        <ele>289</ele>
      </trkpt>
      <trkpt lat="44.52703" lon="4.9861">
        <ele>287</ele>
      </trkpt>
      <trkpt lat="44.52726" lon="4.9865">
        <ele>287</ele>
      </trkpt>
      <trkpt lat="44.52971" lon="4.98966">
        <ele>286</ele>
      </trkpt>
      <trkpt lat="44.53005" lon="4.99021">
        <ele>287</ele>
      </trkpt>
      <trkpt lat="44.53024" lon="4.99057">
        <ele>289</ele>
      </trkpt>
      <trkpt lat="44.53052" lon="4.99125">
        <ele>290</ele>
      </trkpt>
      <trkpt lat="44.53064" lon="4.99161">
        <ele>287</ele>
      </trkpt>
      <trkpt lat="44.53231" lon="4.99785">
        <ele>292</ele>
      </trkpt>
      <trkpt lat="44.5324" lon="4.99833">
        <ele>295</ele>
      </trkpt>
      <trkpt lat="44.53247" lon="4.9989">
        <ele>294</ele>
      </trkpt>
      <trkpt lat="44.53248" lon="4.99967">
        <ele>296</ele>
      </trkpt>
      <trkpt lat="44.53244" lon="5.00027">
        <ele>299</ele>
      </trkpt>
      <trkpt lat="44.53235" lon="5.00081">
        <ele>297</ele>
      </trkpt>
      <trkpt lat="44.53191" lon="5.00272">
        <ele>301</ele>
      </trkpt>
      <trkpt lat="44.53167" lon="5.00399">
        <ele>301</ele>
      </trkpt>
      <trkpt lat="44.53159" lon="5.00454">
        <ele>301</ele>
      </trkpt>
      <trkpt lat="44.5312" lon="5.00837">
        <ele>309</ele>
      </trkpt>
      <trkpt lat="44.53109" lon="5.00982">
        <ele>308</ele>
      </trkpt>
      <trkpt lat="44.53107" lon="5.01034">
        <ele>310</ele>
      </trkpt>
      <trkpt lat="44.53102" lon="5.01084">
        <ele>312</ele>
      </trkpt>
      <trkpt lat="44.53082" lon="5.012">
        <ele>314</ele>
      </trkpt>
      <trkpt lat="44.5307" lon="5.01254">
        <ele>315</ele>
      </trkpt>
      <trkpt lat="44.53047" lon="5.0133">
        <ele>316</ele>
      </trkpt>
      <trkpt lat="44.53026" lon="5.01415">
        <ele>318</ele>
      </trkpt>
      <trkpt lat="44.52958" lon="5.0166">
        <ele>314</ele>
      </trkpt>
      <trkpt lat="44.52955" lon="5.01681">
        <ele>314</ele>
      </trkpt>
      <trkpt lat="44.52963" lon="5.01975">
        <ele>313</ele>
      </trkpt>
      <trkpt lat="44.52965" lon="5.021">
        <ele>317</ele>
      </trkpt>
      <trkpt lat="44.52958" lon="5.02355">
        <ele>324</ele>
      </trkpt>
      <trkpt lat="44.52955" lon="5.02418">
        <ele>326</ele>
      </trkpt>
      <trkpt lat="44.52946" lon="5.02456">
        <ele>327</ele>
      </trkpt>
      <trkpt lat="44.52934" lon="5.02489">
        <ele>328</ele>
      </trkpt>
      <trkpt lat="44.52911" lon="5.02533">
        <ele>328</ele>
      </trkpt>
      <trkpt lat="44.52881" lon="5.02578">
        <ele>328</ele>
      </trkpt>
      <trkpt lat="44.52703" lon="5.02801">
        <ele>328</ele>
      </trkpt>
      <trkpt lat="44.52691" lon="5.02819">
        <ele>329</ele>
      </trkpt>
      <trkpt lat="44.52684" lon="5.02834">
        <ele>330</ele>
      </trkpt>
      <trkpt lat="44.52671" lon="5.02866">
        <ele>332</ele>
      </trkpt>
      <trkpt lat="44.52619" lon="5.03041">
        <ele>332</ele>
      </trkpt>
      <trkpt lat="44.52604" lon="5.03112">
        <ele>333</ele>
      </trkpt>
      <trkpt lat="44.52593" lon="5.03174">
        <ele>331</ele>
      </trkpt>
      <trkpt lat="44.5258" lon="5.03264">
        <ele>332</ele>
      </trkpt>
      <trkpt lat="44.52569" lon="5.03357">
        <ele>334</ele>
      </trkpt>
      <trkpt lat="44.52555" lon="5.03566">
        <ele>336</ele>
      </trkpt>
      <trkpt lat="44.5256" lon="5.03569">
        <ele>336</ele>
      </trkpt>
      <trkpt lat="44.52664" lon="5.03602">
        <ele>348</ele>
      </trkpt>
      <trkpt lat="44.52673" lon="5.03612">
        <ele>349</ele>
      </trkpt>
      <trkpt lat="44.52686" lon="5.03632">
        <ele>354</ele>
      </trkpt>
      <trkpt lat="44.52693" lon="5.03663">
        <ele>355</ele>
      </trkpt>
      <trkpt lat="44.52699" lon="5.03698">
        <ele>356</ele>
      </trkpt>
      <trkpt lat="44.52702" lon="5.03739">
        <ele>357</ele>
      </trkpt>
      <trkpt lat="44.52705" lon="5.03752">
        <ele>358</ele>
      </trkpt>
      <trkpt lat="44.52709" lon="5.03759">
        <ele>358</ele>
      </trkpt>
      <trkpt lat="44.52754" lon="5.038">
        <ele>364</ele>
      </trkpt>
      <trkpt lat="44.52763" lon="5.03823">
        <ele>365</ele>
      </trkpt>
      <trkpt lat="44.52807" lon="5.03972">
        <ele>372</ele>
      </trkpt>
      <trkpt lat="44.52814" lon="5.03989">
        <ele>374</ele>
      </trkpt>
      <trkpt lat="44.52823" lon="5.03996">
        <ele>374</ele>
      </trkpt>
      <trkpt lat="44.52838" lon="5.03999">
        <ele>374</ele>
      </trkpt>
      <trkpt lat="44.52851" lon="5.04006">
        <ele>375</ele>
      </trkpt>
      <trkpt lat="44.52861" lon="5.04016">
        <ele>375</ele>
      </trkpt>
      <trkpt lat="44.52861" lon="5.04041">
        <ele>375</ele>
      </trkpt>
      <trkpt lat="44.52843" lon="5.04067">
        <ele>378</ele>
      </trkpt>
      <trkpt lat="44.52802" lon="5.04083">
        <ele>383</ele>
      </trkpt>
      <trkpt lat="44.52744" lon="5.04109">
        <ele>391</ele>
      </trkpt>
      <trkpt lat="44.52737" lon="5.0413">
        <ele>393</ele>
      </trkpt>
      <trkpt lat="44.52744" lon="5.04174">
        <ele>394</ele>
      </trkpt>
      <trkpt lat="44.52761" lon="5.0424">
        <ele>393</ele>
      </trkpt>
      <trkpt lat="44.52772" lon="5.04298">
        <ele>392</ele>
      </trkpt>
      <trkpt lat="44.52762" lon="5.04376">
        <ele>398</ele>
      </trkpt>
      <trkpt lat="44.52747" lon="5.04426">
        <ele>404</ele>
      </trkpt>
      <trkpt lat="44.52722" lon="5.04481">
        <ele>409</ele>
      </trkpt>
      <trkpt lat="44.52696" lon="5.04513">
        <ele>411</ele>
      </trkpt>
      <trkpt lat="44.52631" lon="5.04576">
        <ele>416</ele>
      </trkpt>
      <trkpt lat="44.52611" lon="5.04615">
        <ele>421</ele>
      </trkpt>
      <trkpt lat="44.5258" lon="5.04701">
        <ele>425</ele>
      </trkpt>
      <trkpt lat="44.52569" lon="5.04774">
        <ele>422</ele>
      </trkpt>
      <trkpt lat="44.5257" lon="5.04819">
        <ele>424</ele>
      </trkpt>
      <trkpt lat="44.52573" lon="5.04852">
        <ele>430</ele>
      </trkpt>
      <trkpt lat="44.52584" lon="5.04901">
        <ele>429</ele>
      </trkpt>
      <trkpt lat="44.52609" lon="5.04995">
        <ele>426</ele>
      </trkpt>
      <trkpt lat="44.52625" lon="5.0503">
        <ele>424</ele>
      </trkpt>
      <trkpt lat="44.52677" lon="5.05113">
        <ele>420</ele>
      </trkpt>
      <trkpt lat="44.52712" lon="5.05139">
        <ele>425</ele>
      </trkpt>
      <trkpt lat="44.52765" lon="5.05193">
        <ele>424</ele>
      </trkpt>
      <trkpt lat="44.52817" lon="5.0525">
        <ele>424</ele>
      </trkpt>
      <trkpt lat="44.52833" lon="5.0527">
        <ele>425</ele>
      </trkpt>
      <trkpt lat="44.52858" lon="5.0534">
        <ele>420</ele>
      </trkpt>
      <trkpt lat="44.52881" lon="5.05366">
        <ele>419</ele>
      </trkpt>
      <trkpt lat="44.52888" lon="5.05381">
        <ele>419</ele>
      </trkpt>
      <trkpt lat="44.52885" lon="5.05439">
        <ele>416</ele>
      </trkpt>
      <trkpt lat="44.52872" lon="5.05507">
        <ele>415</ele>
      </trkpt>
      <trkpt lat="44.5285" lon="5.05539">
        <ele>416</ele>
      </trkpt>
      <trkpt lat="44.52822" lon="5.05583">
        <ele>417</ele>
      </trkpt>
      <trkpt lat="44.52796" lon="5.05639">
        <ele>415</ele>
      </trkpt>
      <trkpt lat="44.52768" lon="5.05691">
        <ele>413</ele>
      </trkpt>
      <trkpt lat="44.52764" lon="5.05706">
        <ele>412</ele>
      </trkpt>
      <trkpt lat="44.52754" lon="5.05761">
        <ele>410</ele>
      </trkpt>
      <trkpt lat="44.52745" lon="5.05832">
        <ele>409</ele>
      </trkpt>
      <trkpt lat="44.52733" lon="5.05869">
        <ele>403</ele>
      </trkpt>
      <trkpt lat="44.52731" lon="5.05887">
        <ele>402</ele>
      </trkpt>
      <trkpt lat="44.52641" lon="5.05955">
        <ele>392</ele>
      </trkpt>
      <trkpt lat="44.52619" lon="5.05975">
        <ele>391</ele>
      </trkpt>
      <trkpt lat="44.52603" lon="5.05974">
        <ele>391</ele>
      </trkpt>
      <trkpt lat="44.52544" lon="5.05979">
        <ele>393</ele>
      </trkpt>
      <trkpt lat="44.52536" lon="5.05976">
        <ele>392</ele>
      </trkpt>
      <trkpt lat="44.5251" lon="5.05977">
        <ele>390</ele>
      </trkpt>
      <trkpt lat="44.52505" lon="5.05981">
        <ele>390</ele>
      </trkpt>
      <trkpt lat="44.52503" lon="5.05985">
        <ele>390</ele>
      </trkpt>
      <trkpt lat="44.52503" lon="5.05994">
        <ele>390</ele>
      </trkpt>
      <trkpt lat="44.52507" lon="5.06001">
        <ele>390</ele>
      </trkpt>
      <trkpt lat="44.52501" lon="5.0602">
        <ele>389</ele>
      </trkpt>
      <trkpt lat="44.52478" lon="5.06066">
        <ele>386</ele>
      </trkpt>
      <trkpt lat="44.52469" lon="5.06098">
        <ele>386</ele>
      </trkpt>
      <trkpt lat="44.52457" lon="5.06116">
        <ele>384</ele>
      </trkpt>
      <trkpt lat="44.52452" lon="5.06114">
        <ele>384</ele>
      </trkpt>
      <trkpt lat="44.52447" lon="5.06116">
        <ele>384</ele>
      </trkpt>
      <trkpt lat="44.52445" lon="5.06123">
        <ele>384</ele>
      </trkpt>
      <trkpt lat="44.52447" lon="5.06131">
        <ele>384</ele>
      </trkpt>
      <trkpt lat="44.52348" lon="5.063">
        <ele>379</ele>
      </trkpt>
      <trkpt lat="44.52344" lon="5.06305">
        <ele>378</ele>
      </trkpt>
      <trkpt lat="44.52339" lon="5.06308">
        <ele>377</ele>
      </trkpt>
      <trkpt lat="44.52334" lon="5.06304">
        <ele>378</ele>
      </trkpt>
      <trkpt lat="44.5233" lon="5.06306">
        <ele>377</ele>
      </trkpt>
      <trkpt lat="44.52328" lon="5.06314">
        <ele>376</ele>
      </trkpt>
      <trkpt lat="44.52332" lon="5.06321">
        <ele>376</ele>
      </trkpt>
      <trkpt lat="44.52329" lon="5.06329">
        <ele>376</ele>
      </trkpt>
      <trkpt lat="44.52316" lon="5.06357">
        <ele>375</ele>
      </trkpt>
      <trkpt lat="44.52301" lon="5.06384">
        <ele>374</ele>
      </trkpt>
      <trkpt lat="44.52286" lon="5.06413">
        <ele>377</ele>
      </trkpt>
      <trkpt lat="44.52281" lon="5.0643">
        <ele>379</ele>
      </trkpt>
      <trkpt lat="44.52278" lon="5.06465">
        <ele>382</ele>
      </trkpt>
      <trkpt lat="44.52278" lon="5.06485">
        <ele>385</ele>
      </trkpt>
      <trkpt lat="44.52284" lon="5.06511">
        <ele>388</ele>
      </trkpt>
      <trkpt lat="44.52288" lon="5.06517">
        <ele>388</ele>
      </trkpt>
      <trkpt lat="44.52297" lon="5.06524">
        <ele>388</ele>
      </trkpt>
      <trkpt lat="44.52311" lon="5.06537">
        <ele>390</ele>
      </trkpt>
      <trkpt lat="44.52308" lon="5.06552">
        <ele>391</ele>
      </trkpt>
      <trkpt lat="44.5231" lon="5.06559">
        <ele>393</ele>
      </trkpt>
      <trkpt lat="44.5228" lon="5.06578">
        <ele>392</ele>
      </trkpt>
      <trkpt lat="44.5222" lon="5.06626">
        <ele>393</ele>
      </trkpt>
      <trkpt lat="44.52196" lon="5.06659">
        <ele>392</ele>
      </trkpt>
      <trkpt lat="44.5219" lon="5.0667">
        <ele>393</ele>
      </trkpt>
      <trkpt lat="44.5217" lon="5.06778">
        <ele>393</ele>
      </trkpt>
      <trkpt lat="44.52159" lon="5.06818">
        <ele>394</ele>
      </trkpt>
      <trkpt lat="44.52124" lon="5.06895">
        <ele>395</ele>
      </trkpt>
      <trkpt lat="44.52109" lon="5.06933">
        <ele>397</ele>
      </trkpt>
      <trkpt lat="44.52066" lon="5.07089">
        <ele>400</ele>
      </trkpt>
      <trkpt lat="44.52031" lon="5.07163">
        <ele>400</ele>
      </trkpt>
      <trkpt lat="44.52022" lon="5.07188">
        <ele>402</ele>
      </trkpt>
      <trkpt lat="44.52005" lon="5.07275">
        <ele>411</ele>
      </trkpt>
      <trkpt lat="44.51937" lon="5.07556">
        <ele>425</ele>
      </trkpt>
      <trkpt lat="44.51901" lon="5.0775">
        <ele>419</ele>
      </trkpt>
      <trkpt lat="44.5188" lon="5.07807">
        <ele>420</ele>
      </trkpt>
      <trkpt lat="44.51858" lon="5.07856">
        <ele>416</ele>
      </trkpt>
      <trkpt lat="44.51839" lon="5.07925">
        <ele>413</ele>
      </trkpt>
      <trkpt lat="44.51834" lon="5.07937">
        <ele>413</ele>
      </trkpt>
      <trkpt lat="44.51818" lon="5.07966">
        <ele>415</ele>
      </trkpt>
      <trkpt lat="44.51753" lon="5.08044">
        <ele>413</ele>
      </trkpt>
      <trkpt lat="44.51742" lon="5.08062">
        <ele>413</ele>
      </trkpt>
      <trkpt lat="44.51729" lon="5.0809">
        <ele>413</ele>
      </trkpt>
      <trkpt lat="44.51694" lon="5.08171">
        <ele>412</ele>
      </trkpt>
      <trkpt lat="44.51669" lon="5.08237">
        <ele>408</ele>
      </trkpt>
      <trkpt lat="44.51606" lon="5.08417">
        <ele>424</ele>
      </trkpt>
      <trkpt lat="44.51592" lon="5.08461">
        <ele>426</ele>
      </trkpt>
      <trkpt lat="44.51586" lon="5.08486">
        <ele>428</ele>
      </trkpt>
      <trkpt lat="44.51583" lon="5.08512">
        <ele>429</ele>
      </trkpt>
      <trkpt lat="44.51575" lon="5.08692">
        <ele>429</ele>
      </trkpt>
      <trkpt lat="44.51572" lon="5.08716">
        <ele>430</ele>
      </trkpt>
      <trkpt lat="44.51565" lon="5.0874">
        <ele>430</ele>
      </trkpt>
      <trkpt lat="44.51553" lon="5.08761">
        <ele>431</ele>
      </trkpt>
      <trkpt lat="44.51491" lon="5.08839">
        <ele>437</ele>
      </trkpt>
      <trkpt lat="44.51468" lon="5.08874">
        <ele>442</ele>
      </trkpt>
      <trkpt lat="44.51422" lon="5.08983">
        <ele>447</ele>
      </trkpt>
      <trkpt lat="44.51411" lon="5.08997">
        <ele>447</ele>
      </trkpt>
      <trkpt lat="44.51395" lon="5.09009">
        <ele>443</ele>
      </trkpt>
      <trkpt lat="44.51353" lon="5.09031">
        <ele>438</ele>
      </trkpt>
      <trkpt lat="44.51341" lon="5.09043">
        <ele>437</ele>
      </trkpt>
      <trkpt lat="44.5133" lon="5.09063">
        <ele>437</ele>
      </trkpt>
      <trkpt lat="44.51324" lon="5.09094">
        <ele>437</ele>
      </trkpt>
      <trkpt lat="44.513" lon="5.09282">
        <ele>445</ele>
      </trkpt>
      <trkpt lat="44.51296" lon="5.09304">
        <ele>445</ele>
      </trkpt>
      <trkpt lat="44.51233" lon="5.09475">
        <ele>451</ele>
      </trkpt>
      <trkpt lat="44.51228" lon="5.09503">
        <ele>452</ele>
      </trkpt>
      <trkpt lat="44.51227" lon="5.09548">
        <ele>454</ele>
      </trkpt>
      <trkpt lat="44.5123" lon="5.09592">
        <ele>460</ele>
      </trkpt>
      <trkpt lat="44.51228" lon="5.09603">
        <ele>461</ele>
      </trkpt>
      <trkpt lat="44.51222" lon="5.09612">
        <ele>462</ele>
      </trkpt>
      <trkpt lat="44.51215" lon="5.09616">
        <ele>464</ele>
      </trkpt>
      <trkpt lat="44.51207" lon="5.09613">
        <ele>465</ele>
      </trkpt>
      <trkpt lat="44.51198" lon="5.09604">
        <ele>465</ele>
      </trkpt>
      <trkpt lat="44.51135" lon="5.09527">
        <ele>468</ele>
      </trkpt>
      <trkpt lat="44.5111" lon="5.09481">
        <ele>470</ele>
      </trkpt>
      <trkpt lat="44.51095" lon="5.0943">
        <ele>470</ele>
      </trkpt>
      <trkpt lat="44.51069" lon="5.09308">
        <ele>471</ele>
      </trkpt>
      <trkpt lat="44.51061" lon="5.0926">
        <ele>472</ele>
      </trkpt>
      <trkpt lat="44.51056" lon="5.09252">
        <ele>472</ele>
      </trkpt>
      <trkpt lat="44.51049" lon="5.09247">
        <ele>473</ele>
      </trkpt>
      <trkpt lat="44.51042" lon="5.09248">
        <ele>473</ele>
      </trkpt>
      <trkpt lat="44.51036" lon="5.09256">
        <ele>477</ele>
      </trkpt>
      <trkpt lat="44.51023" lon="5.09333">
        <ele>478</ele>
      </trkpt>
      <trkpt lat="44.50997" lon="5.09426">
        <ele>486</ele>
      </trkpt>
      <trkpt lat="44.50984" lon="5.09546">
        <ele>495</ele>
      </trkpt>
      <trkpt lat="44.50974" lon="5.09587">
        <ele>498</ele>
      </trkpt>
      <trkpt lat="44.50917" lon="5.09725">
        <ele>499</ele>
      </trkpt>
      <trkpt lat="44.50909" lon="5.09738">
        <ele>499</ele>
      </trkpt>
      <trkpt lat="44.50898" lon="5.09751">
        <ele>501</ele>
      </trkpt>
      <trkpt lat="44.50884" lon="5.09762">
        <ele>502</ele>
      </trkpt>
      <trkpt lat="44.50844" lon="5.09778">
        <ele>503</ele>
      </trkpt>
      <trkpt lat="44.50803" lon="5.09783">
        <ele>502</ele>
      </trkpt>
      <trkpt lat="44.50745" lon="5.09783">
        <ele>500</ele>
      </trkpt>
      <trkpt lat="44.50733" lon="5.09782">
        <ele>499</ele>
      </trkpt>
      <trkpt lat="44.50719" lon="5.09777">
        <ele>495</ele>
      </trkpt>
      <trkpt lat="44.50713" lon="5.09784">
        <ele>499</ele>
      </trkpt>
      <trkpt lat="44.50703" lon="5.09785">
        <ele>498</ele>
      </trkpt>
      <trkpt lat="44.50577" lon="5.0979">
        <ele>493</ele>
      </trkpt>
      <trkpt lat="44.50513" lon="5.098">
        <ele>487</ele>
      </trkpt>
      <trkpt lat="44.50498" lon="5.09806">
        <ele>486</ele>
      </trkpt>
      <trkpt lat="44.50492" lon="5.09818">
        <ele>490</ele>
      </trkpt>
      <trkpt lat="44.50488" lon="5.09839">
        <ele>492</ele>
      </trkpt>
      <trkpt lat="44.50494" lon="5.09953">
        <ele>497</ele>
      </trkpt>
      <trkpt lat="44.50495" lon="5.09989">
        <ele>497</ele>
      </trkpt>
      <trkpt lat="44.50483" lon="5.1008">
        <ele>487</ele>
      </trkpt>
      <trkpt lat="44.50456" lon="5.10268">
        <ele>480</ele>
      </trkpt>
      <trkpt lat="44.50433" lon="5.10409">
        <ele>477</ele>
      </trkpt>
      <trkpt lat="44.50336" lon="5.10855">
        <ele>482</ele>
      </trkpt>
      <trkpt lat="44.50318" lon="5.10893">
        <ele>481</ele>
      </trkpt>
      <trkpt lat="44.50219" lon="5.11014">
        <ele>482</ele>
      </trkpt>
      <trkpt lat="44.50136" lon="5.11123">
        <ele>479</ele>
      </trkpt>
      <trkpt lat="44.50104" lon="5.11158">
        <ele>476</ele>
      </trkpt>
      <trkpt lat="44.5003" lon="5.11258">
        <ele>481</ele>
      </trkpt>
      <trkpt lat="44.50013" lon="5.11286">
        <ele>484</ele>
      </trkpt>
      <trkpt lat="44.49959" lon="5.114">
        <ele>489</ele>
      </trkpt>
      <trkpt lat="44.49948" lon="5.11419">
        <ele>487</ele>
      </trkpt>
      <trkpt lat="44.49945" lon="5.11421">
        <ele>487</ele>
      </trkpt>
      <trkpt lat="44.49753" lon="5.11464">
        <ele>479</ele>
      </trkpt>
      <trkpt lat="44.49712" lon="5.1148">
        <ele>481</ele>
      </trkpt>
      <trkpt lat="44.4968" lon="5.11498">
        <ele>483</ele>
      </trkpt>
      <trkpt lat="44.49659" lon="5.11505">
        <ele>483</ele>
      </trkpt>
      <trkpt lat="44.4965" lon="5.11506">
        <ele>484</ele>
      </trkpt>
      <trkpt lat="44.49641" lon="5.11508">
        <ele>484</ele>
      </trkpt>
      <trkpt lat="44.4958" lon="5.11531">
        <ele>487</ele>
      </trkpt>
      <trkpt lat="44.49564" lon="5.11538">
        <ele>488</ele>
      </trkpt>
      <trkpt lat="44.49552" lon="5.11545">
        <ele>489</ele>
      </trkpt>
      <trkpt lat="44.49532" lon="5.11562">
        <ele>491</ele>
      </trkpt>
      <trkpt lat="44.4945" lon="5.11664">
        <ele>496</ele>
      </trkpt>
      <trkpt lat="44.49435" lon="5.1168">
        <ele>501</ele>
      </trkpt>
      <trkpt lat="44.49414" lon="5.11694">
        <ele>497</ele>
      </trkpt>
      <trkpt lat="44.49251" lon="5.11763">
        <ele>506</ele>
      </trkpt>
      <trkpt lat="44.49212" lon="5.11778">
        <ele>506</ele>
      </trkpt>
      <trkpt lat="44.49183" lon="5.11792">
        <ele>512</ele>
      </trkpt>
      <trkpt lat="44.48883" lon="5.11956">
        <ele>515</ele>
      </trkpt>
      <trkpt lat="44.48837" lon="5.11978">
        <ele>511</ele>
      </trkpt>
      <trkpt lat="44.48818" lon="5.1199">
        <ele>508</ele>
      </trkpt>
      <trkpt lat="44.48808" lon="5.12">
        <ele>509</ele>
      </trkpt>
      <trkpt lat="44.48795" lon="5.12024">
        <ele>510</ele>
      </trkpt>
      <trkpt lat="44.48701" lon="5.1226">
        <ele>508</ele>
      </trkpt>
      <trkpt lat="44.48489" lon="5.12579">
        <ele>528</ele>
      </trkpt>
      <trkpt lat="44.48478" lon="5.126">
        <ele>526</ele>
      </trkpt>
      <trkpt lat="44.48438" lon="5.12708">
        <ele>535</ele>
      </trkpt>
      <trkpt lat="44.48425" lon="5.12732">
        <ele>535</ele>
      </trkpt>
      <trkpt lat="44.48417" lon="5.12746">
        <ele>535</ele>
      </trkpt>
      <trkpt lat="44.48406" lon="5.12757">
        <ele>544</ele>
      </trkpt>
      <trkpt lat="44.4839" lon="5.1277">
        <ele>537</ele>
      </trkpt>
      <trkpt lat="44.48371" lon="5.12782">
        <ele>538</ele>
      </trkpt>
      <trkpt lat="44.48313" lon="5.12803">
        <ele>523</ele>
      </trkpt>
      <trkpt lat="44.48292" lon="5.12809">
        <ele>522</ele>
      </trkpt>
      <trkpt lat="44.48173" lon="5.12848">
        <ele>539</ele>
      </trkpt>
      <trkpt lat="44.47924" lon="5.12878">
        <ele>541</ele>
      </trkpt>
      <trkpt lat="44.47873" lon="5.12885">
        <ele>542</ele>
      </trkpt>
      <trkpt lat="44.47654" lon="5.13025">
        <ele>552</ele>
      </trkpt>
      <trkpt lat="44.47614" lon="5.13049">
        <ele>549</ele>
      </trkpt>
      <trkpt lat="44.47539" lon="5.13149">
        <ele>552</ele>
      </trkpt>
      <trkpt lat="44.47486" lon="5.13237">
        <ele>564</ele>
      </trkpt>
      <trkpt lat="44.47414" lon="5.13307">
        <ele>559</ele>
      </trkpt>
      <trkpt lat="44.47294" lon="5.13393">
        <ele>565</ele>
      </trkpt>
      <trkpt lat="44.47137" lon="5.13598">
        <ele>563</ele>
      </trkpt>
      <trkpt lat="44.47111" lon="5.13618">
        <ele>559</ele>
      </trkpt>
      <trkpt lat="44.47079" lon="5.13622">
        <ele>556</ele>
      </trkpt>
      <trkpt lat="44.47034" lon="5.1361">
        <ele>550</ele>
      </trkpt>
      <trkpt lat="44.47018" lon="5.13609">
        <ele>550</ele>
      </trkpt>
      <trkpt lat="44.47002" lon="5.13621">
        <ele>551</ele>
      </trkpt>
      <trkpt lat="44.46954" lon="5.13709">
        <ele>554</ele>
      </trkpt>
      <trkpt lat="44.46897" lon="5.13863">
        <ele>560</ele>
      </trkpt>
      <trkpt lat="44.46802" lon="5.13996">
        <ele>566</ele>
      </trkpt>
      <trkpt lat="44.46784" lon="5.14019">
        <ele>564</ele>
      </trkpt>
      <trkpt lat="44.46607" lon="5.14156">
        <ele>568</ele>
      </trkpt>
      <trkpt lat="44.46545" lon="5.14204">
        <ele>568</ele>
      </trkpt>
      <trkpt lat="44.46496" lon="5.14259">
        <ele>569</ele>
      </trkpt>
      <trkpt lat="44.46407" lon="5.1451">
        <ele>574</ele>
      </trkpt>
      <trkpt lat="44.46323" lon="5.14686">
        <ele>577</ele>
      </trkpt>
      <trkpt lat="44.46299" lon="5.14722">
        <ele>579</ele>
      </trkpt>
      <trkpt lat="44.46283" lon="5.14727">
        <ele>581</ele>
      </trkpt>
      <trkpt lat="44.4622" lon="5.14708">
        <ele>583</ele>
      </trkpt>
      <trkpt lat="44.46191" lon="5.1474">
        <ele>581</ele>
      </trkpt>
      <trkpt lat="44.4618" lon="5.14753">
        <ele>581</ele>
      </trkpt>
      <trkpt lat="44.4608" lon="5.14865">
        <ele>588</ele>
      </trkpt>
      <trkpt lat="44.46052" lon="5.14924">
        <ele>586</ele>
      </trkpt>
      <trkpt lat="44.45983" lon="5.15009">
        <ele>589</ele>
      </trkpt>
      <trkpt lat="44.45912" lon="5.15066">
        <ele>593</ele>
      </trkpt>
      <trkpt lat="44.45863" lon="5.15097">
        <ele>594</ele>
      </trkpt>
      <trkpt lat="44.45829" lon="5.15103">
        <ele>598</ele>
      </trkpt>
      <trkpt lat="44.45811" lon="5.15116">
        <ele>598</ele>
      </trkpt>
      <trkpt lat="44.45769" lon="5.15168">
        <ele>597</ele>
      </trkpt>
      <trkpt lat="44.45717" lon="5.15253">
        <ele>597</ele>
      </trkpt>
      <trkpt lat="44.45701" lon="5.15271">
        <ele>598</ele>
      </trkpt>
      <trkpt lat="44.45685" lon="5.15282">
        <ele>597</ele>
      </trkpt>
      <trkpt lat="44.45668" lon="5.15287">
        <ele>597</ele>
      </trkpt>
      <trkpt lat="44.45543" lon="5.15299">
        <ele>606</ele>
      </trkpt>
      <trkpt lat="44.45446" lon="5.1529">
        <ele>609</ele>
      </trkpt>
      <trkpt lat="44.45301" lon="5.15253">
        <ele>611</ele>
      </trkpt>
      <trkpt lat="44.45264" lon="5.15249">
        <ele>613</ele>
      </trkpt>
      <trkpt lat="44.4525" lon="5.15262">
        <ele>614</ele>
      </trkpt>
      <trkpt lat="44.4525" lon="5.15337">
        <ele>614</ele>
      </trkpt>
      <trkpt lat="44.45255" lon="5.15367">
        <ele>616</ele>
      </trkpt>
      <trkpt lat="44.45265" lon="5.1538">
        <ele>616</ele>
      </trkpt>
      <trkpt lat="44.45287" lon="5.15399">
        <ele>618</ele>
      </trkpt>
      <trkpt lat="44.45299" lon="5.15412">
        <ele>617</ele>
      </trkpt>
      <trkpt lat="44.45312" lon="5.1543">
        <ele>618</ele>
      </trkpt>
      <trkpt lat="44.45323" lon="5.15451">
        <ele>619</ele>
      </trkpt>
      <trkpt lat="44.45337" lon="5.15467">
        <ele>619</ele>
      </trkpt>
      <trkpt lat="44.45352" lon="5.15474">
        <ele>618</ele>
      </trkpt>
      <trkpt lat="44.45407" lon="5.15487">
        <ele>619</ele>
      </trkpt>
      <trkpt lat="44.45416" lon="5.15492">
        <ele>620</ele>
      </trkpt>
      <trkpt lat="44.45423" lon="5.15498">
        <ele>619</ele>
      </trkpt>
      <trkpt lat="44.45429" lon="5.15509">
        <ele>622</ele>
      </trkpt>
      <trkpt lat="44.45437" lon="5.15551">
        <ele>625</ele>
      </trkpt>
      <trkpt lat="44.45441" lon="5.15561">
        <ele>628</ele>
      </trkpt>
      <trkpt lat="44.45447" lon="5.15568">
        <ele>629</ele>
      </trkpt>
      <trkpt lat="44.45459" lon="5.15575">
        <ele>628</ele>
      </trkpt>
      <trkpt lat="44.45471" lon="5.1558">
        <ele>628</ele>
      </trkpt>
      <trkpt lat="44.45493" lon="5.15582">
        <ele>627</ele>
      </trkpt>
      <trkpt lat="44.4551" lon="5.15589">
        <ele>631</ele>
      </trkpt>
      <trkpt lat="44.45555" lon="5.15622">
        <ele>637</ele>
      </trkpt>
      <trkpt lat="44.45592" lon="5.15629">
        <ele>633</ele>
      </trkpt>
      <trkpt lat="44.45606" lon="5.15648">
        <ele>632</ele>
      </trkpt>
      <trkpt lat="44.45617" lon="5.15679">
        <ele>635</ele>
      </trkpt>
      <trkpt lat="44.45623" lon="5.15742">
        <ele>639</ele>
      </trkpt>
      <trkpt lat="44.45612" lon="5.15781">
        <ele>643</ele>
      </trkpt>
      <trkpt lat="44.45623" lon="5.15812">
        <ele>646</ele>
      </trkpt>
      <trkpt lat="44.45654" lon="5.15855">
        <ele>641</ele>
      </trkpt>
      <trkpt lat="44.45699" lon="5.15956">
        <ele>645</ele>
      </trkpt>
      <trkpt lat="44.45707" lon="5.16002">
        <ele>646</ele>
      </trkpt>
      <trkpt lat="44.4571" lon="5.16049">
        <ele>648</ele>
      </trkpt>
      <trkpt lat="44.45728" lon="5.16101">
        <ele>654</ele>
      </trkpt>
      <trkpt lat="44.4574" lon="5.16163">
        <ele>650</ele>
      </trkpt>
      <trkpt lat="44.45751" lon="5.16283">
        <ele>659</ele>
      </trkpt>
      <trkpt lat="44.4577" lon="5.16341">
        <ele>654</ele>
      </trkpt>
      <trkpt lat="44.4575" lon="5.16401">
        <ele>660</ele>
      </trkpt>
      <trkpt lat="44.45727" lon="5.16423">
        <ele>669</ele>
      </trkpt>
      <trkpt lat="44.45692" lon="5.16479">
        <ele>683</ele>
      </trkpt>
      <trkpt lat="44.45697" lon="5.16493">
        <ele>683</ele>
      </trkpt>
      <trkpt lat="44.45729" lon="5.16499">
        <ele>682</ele>
      </trkpt>
      <trkpt lat="44.45766" lon="5.16517">
        <ele>692</ele>
      </trkpt>
      <trkpt lat="44.45815" lon="5.16475">
        <ele>672</ele>
      </trkpt>
      <trkpt lat="44.45834" lon="5.16481">
        <ele>671</ele>
      </trkpt>
      <trkpt lat="44.4586" lon="5.16532">
        <ele>669</ele>
      </trkpt>
      <trkpt lat="44.45855" lon="5.16572">
        <ele>673</ele>
      </trkpt>
      <trkpt lat="44.45848" lon="5.16599">
        <ele>677</ele>
      </trkpt>
      <trkpt lat="44.45856" lon="5.16748">
        <ele>698</ele>
      </trkpt>
      <trkpt lat="44.45868" lon="5.16771">
        <ele>701</ele>
      </trkpt>
      <trkpt lat="44.45893" lon="5.16775">
        <ele>699</ele>
      </trkpt>
      <trkpt lat="44.45948" lon="5.16831">
        <ele>699</ele>
      </trkpt>
      <trkpt lat="44.45987" lon="5.16838">
        <ele>697</ele>
      </trkpt>
      <trkpt lat="44.46002" lon="5.16866">
        <ele>707</ele>
      </trkpt>
      <trkpt lat="44.46042" lon="5.16913">
        <ele>707</ele>
      </trkpt>
      <trkpt lat="44.46083" lon="5.16931">
        <ele>710</ele>
      </trkpt>
      <trkpt lat="44.46171" lon="5.16982">
        <ele>708</ele>
      </trkpt>
      <trkpt lat="44.46235" lon="5.17068">
        <ele>705</ele>
      </trkpt>
      <trkpt lat="44.46237" lon="5.1708">
        <ele>702</ele>
      </trkpt>
      <trkpt lat="44.46233" lon="5.17094">
        <ele>707</ele>
      </trkpt>
      <trkpt lat="44.4621" lon="5.17129">
        <ele>710</ele>
      </trkpt>
      <trkpt lat="44.46191" lon="5.17152">
        <ele>718</ele>
      </trkpt>
      <trkpt lat="44.4619" lon="5.17159">
        <ele>718</ele>
      </trkpt>
      <trkpt lat="44.46194" lon="5.17173">
        <ele>721</ele>
      </trkpt>
      <trkpt lat="44.4624" lon="5.17268">
        <ele>720</ele>
      </trkpt>
      <trkpt lat="44.46255" lon="5.17312">
        <ele>723</ele>
      </trkpt>
      <trkpt lat="44.46271" lon="5.17346">
        <ele>720</ele>
      </trkpt>
      <trkpt lat="44.46275" lon="5.17359">
        <ele>720</ele>
      </trkpt>
      <trkpt lat="44.46272" lon="5.17373">
        <ele>722</ele>
      </trkpt>
      <trkpt lat="44.46253" lon="5.17416">
        <ele>727</ele>
      </trkpt>
      <trkpt lat="44.46243" lon="5.17454">
        <ele>724</ele>
      </trkpt>
      <trkpt lat="44.46239" lon="5.17491">
        <ele>723</ele>
      </trkpt>
      <trkpt lat="44.46217" lon="5.17521">
        <ele>727</ele>
      </trkpt>
      <trkpt lat="44.46186" lon="5.17569">
        <ele>730</ele>
      </trkpt>
      <trkpt lat="44.46176" lon="5.17596">
        <ele>733</ele>
      </trkpt>
      <trkpt lat="44.46158" lon="5.17592">
        <ele>733</ele>
      </trkpt>
      <trkpt lat="44.46128" lon="5.1759">
        <ele>734</ele>
      </trkpt>
      <trkpt lat="44.46096" lon="5.17602">
        <ele>734</ele>
      </trkpt>
      <trkpt lat="44.45938" lon="5.1781">
        <ele>726</ele>
      </trkpt>
      <trkpt lat="44.45904" lon="5.17838">
        <ele>726</ele>
      </trkpt>
      <trkpt lat="44.45894" lon="5.17861">
        <ele>725</ele>
      </trkpt>
      <trkpt lat="44.45902" lon="5.17923">
        <ele>716</ele>
      </trkpt>
      <trkpt lat="44.45905" lon="5.17962">
        <ele>716</ele>
      </trkpt>
      <trkpt lat="44.45901" lon="5.17997">
        <ele>716</ele>
      </trkpt>
      <trkpt lat="44.45886" lon="5.18036">
        <ele>713</ele>
      </trkpt>
      <trkpt lat="44.45885" lon="5.18047">
        <ele>712</ele>
      </trkpt>
      <trkpt lat="44.45893" lon="5.18099">
        <ele>715</ele>
      </trkpt>
      <trkpt lat="44.45904" lon="5.18113">
        <ele>714</ele>
      </trkpt>
      <trkpt lat="44.45916" lon="5.1812">
        <ele>715</ele>
      </trkpt>
      <trkpt lat="44.45924" lon="5.1813">
        <ele>715</ele>
      </trkpt>
      <trkpt lat="44.45926" lon="5.18141">
        <ele>715</ele>
      </trkpt>
      <trkpt lat="44.45925" lon="5.1815">
        <ele>714</ele>
      </trkpt>
      <trkpt lat="44.45912" lon="5.18186">
        <ele>712</ele>
      </trkpt>
      <trkpt lat="44.45898" lon="5.18256">
        <ele>705</ele>
      </trkpt>
      <trkpt lat="44.45888" lon="5.18279">
        <ele>704</ele>
      </trkpt>
      <trkpt lat="44.45883" lon="5.18304">
        <ele>701</ele>
      </trkpt>
      <trkpt lat="44.45881" lon="5.18324">
        <ele>698</ele>
      </trkpt>
      <trkpt lat="44.45874" lon="5.18514">
        <ele>686</ele>
      </trkpt>
      <trkpt lat="44.45876" lon="5.1853">
        <ele>686</ele>
      </trkpt>
      <trkpt lat="44.45888" lon="5.1855">
        <ele>684</ele>
      </trkpt>
      <trkpt lat="44.45897" lon="5.18578">
        <ele>683</ele>
      </trkpt>
      <trkpt lat="44.459" lon="5.186">
        <ele>681</ele>
      </trkpt>
      <trkpt lat="44.45899" lon="5.18628">
        <ele>680</ele>
      </trkpt>
      <trkpt lat="44.45896" lon="5.18653">
        <ele>677</ele>
      </trkpt>
      <trkpt lat="44.4589" lon="5.18673">
        <ele>674</ele>
      </trkpt>
      <trkpt lat="44.45884" lon="5.18686">
        <ele>673</ele>
      </trkpt>
      <trkpt lat="44.45863" lon="5.18703">
        <ele>675</ele>
      </trkpt>
      <trkpt lat="44.45856" lon="5.18711">
        <ele>675</ele>
      </trkpt>
      <trkpt lat="44.45828" lon="5.18794">
        <ele>668</ele>
      </trkpt>
      <trkpt lat="44.45818" lon="5.18815">
        <ele>667</ele>
      </trkpt>
      <trkpt lat="44.4581" lon="5.18825">
        <ele>667</ele>
      </trkpt>
      <trkpt lat="44.45782" lon="5.1884">
        <ele>664</ele>
      </trkpt>
      <trkpt lat="44.45757" lon="5.18856">
        <ele>666</ele>
      </trkpt>
      <trkpt lat="44.45739" lon="5.1888">
        <ele>662</ele>
      </trkpt>
      <trkpt lat="44.45731" lon="5.18916">
        <ele>660</ele>
      </trkpt>
      <trkpt lat="44.45731" lon="5.18945">
        <ele>656</ele>
      </trkpt>
      <trkpt lat="44.45727" lon="5.18962">
        <ele>651</ele>
      </trkpt>
      <trkpt lat="44.4572" lon="5.18971">
        <ele>651</ele>
      </trkpt>
      <trkpt lat="44.45695" lon="5.18985">
        <ele>648</ele>
      </trkpt>
      <trkpt lat="44.45678" lon="5.18992">
        <ele>651</ele>
      </trkpt>
      <trkpt lat="44.4565" lon="5.19016">
        <ele>647</ele>
      </trkpt>
      <trkpt lat="44.45617" lon="5.19049">
        <ele>646</ele>
      </trkpt>
      <trkpt lat="44.45595" lon="5.1906">
        <ele>654</ele>
      </trkpt>
      <trkpt lat="44.45585" lon="5.19076">
        <ele>648</ele>
      </trkpt>
      <trkpt lat="44.45582" lon="5.19099">
        <ele>642</ele>
      </trkpt>
      <trkpt lat="44.45584" lon="5.19129">
        <ele>638</ele>
      </trkpt>
      <trkpt lat="44.45581" lon="5.19146">
        <ele>635</ele>
      </trkpt>
      <trkpt lat="44.45563" lon="5.19175">
        <ele>637</ele>
      </trkpt>
      <trkpt lat="44.4555" lon="5.19235">
        <ele>630</ele>
      </trkpt>
      <trkpt lat="44.45552" lon="5.19268">
        <ele>625</ele>
      </trkpt>
      <trkpt lat="44.45554" lon="5.19284">
        <ele>621</ele>
      </trkpt>
      <trkpt lat="44.45552" lon="5.19299">
        <ele>619</ele>
      </trkpt>
      <trkpt lat="44.45515" lon="5.19374">
        <ele>615</ele>
      </trkpt>
      <trkpt lat="44.45507" lon="5.19405">
        <ele>613</ele>
      </trkpt>
      <trkpt lat="44.45495" lon="5.19424">
        <ele>606</ele>
      </trkpt>
      <trkpt lat="44.45462" lon="5.19458">
        <ele>606</ele>
      </trkpt>
      <trkpt lat="44.45454" lon="5.19475">
        <ele>612</ele>
      </trkpt>
      <trkpt lat="44.45426" lon="5.19565">
        <ele>593</ele>
      </trkpt>
      <trkpt lat="44.45393" lon="5.19632">
        <ele>594</ele>
      </trkpt>
      <trkpt lat="44.45385" lon="5.19659">
        <ele>586</ele>
      </trkpt>
      <trkpt lat="44.45372" lon="5.19681">
        <ele>587</ele>
      </trkpt>
      <trkpt lat="44.4529" lon="5.19746">
        <ele>590</ele>
      </trkpt>
      <trkpt lat="44.4527" lon="5.19753">
        <ele>590</ele>
      </trkpt>
      <trkpt lat="44.45254" lon="5.19762">
        <ele>584</ele>
      </trkpt>
      <trkpt lat="44.45242" lon="5.19782">
        <ele>581</ele>
      </trkpt>
      <trkpt lat="44.45179" lon="5.19821">
        <ele>584</ele>
      </trkpt>
      <trkpt lat="44.45122" lon="5.19868">
        <ele>569</ele>
      </trkpt>
      <trkpt lat="44.45088" lon="5.19885">
        <ele>566</ele>
      </trkpt>
      <trkpt lat="44.45076" lon="5.19886">
        <ele>566</ele>
      </trkpt>
      <trkpt lat="44.45066" lon="5.19878">
        <ele>566</ele>
      </trkpt>
      <trkpt lat="44.45039" lon="5.19843">
        <ele>574</ele>
      </trkpt>
      <trkpt lat="44.45032" lon="5.19841">
        <ele>573</ele>
      </trkpt>
      <trkpt lat="44.45026" lon="5.19844">
        <ele>573</ele>
      </trkpt>
      <trkpt lat="44.45022" lon="5.19853">
        <ele>572</ele>
      </trkpt>
      <trkpt lat="44.45021" lon="5.19897">
        <ele>557</ele>
      </trkpt>
      <trkpt lat="44.45017" lon="5.19909">
        <ele>555</ele>
      </trkpt>
      <trkpt lat="44.45011" lon="5.19914">
        <ele>556</ele>
      </trkpt>
      <trkpt lat="44.44994" lon="5.19912">
        <ele>557</ele>
      </trkpt>
      <trkpt lat="44.44964" lon="5.19892">
        <ele>563</ele>
      </trkpt>
      <trkpt lat="44.44957" lon="5.19888">
        <ele>563</ele>
      </trkpt>
      <trkpt lat="44.44947" lon="5.19888">
        <ele>563</ele>
      </trkpt>
      <trkpt lat="44.44931" lon="5.19895">
        <ele>556</ele>
      </trkpt>
      <trkpt lat="44.44915" lon="5.19897">
        <ele>554</ele>
      </trkpt>
      <trkpt lat="44.44894" lon="5.19891">
        <ele>557</ele>
      </trkpt>
      <trkpt lat="44.44876" lon="5.19894">
        <ele>556</ele>
      </trkpt>
      <trkpt lat="44.44854" lon="5.19904">
        <ele>550</ele>
      </trkpt>
      <trkpt lat="44.4483" lon="5.19903">
        <ele>551</ele>
      </trkpt>
      <trkpt lat="44.44797" lon="5.19918">
        <ele>553</ele>
      </trkpt>
      <trkpt lat="44.44754" lon="5.19969">
        <ele>543</ele>
      </trkpt>
      <trkpt lat="44.44753" lon="5.19976">
        <ele>543</ele>
      </trkpt>
      <trkpt lat="44.44757" lon="5.19981">
        <ele>538</ele>
      </trkpt>
      <trkpt lat="44.44764" lon="5.19981">
        <ele>536</ele>
      </trkpt>
      <trkpt lat="44.44777" lon="5.19964">
        <ele>539</ele>
      </trkpt>
      <trkpt lat="44.44798" lon="5.1995">
        <ele>541</ele>
      </trkpt>
      <trkpt lat="44.44832" lon="5.19954">
        <ele>540</ele>
      </trkpt>
      <trkpt lat="44.44859" lon="5.19968">
        <ele>538</ele>
      </trkpt>
      <trkpt lat="44.44871" lon="5.1999">
        <ele>536</ele>
      </trkpt>
      <trkpt lat="44.44885" lon="5.20007">
        <ele>531</ele>
      </trkpt>
      <trkpt lat="44.44896" lon="5.20011">
        <ele>530</ele>
      </trkpt>
      <trkpt lat="44.44926" lon="5.20001">
        <ele>532</ele>
      </trkpt>
      <trkpt lat="44.44956" lon="5.19998">
        <ele>533</ele>
      </trkpt>
      <trkpt lat="44.44987" lon="5.2001">
        <ele>530</ele>
      </trkpt>
      <trkpt lat="44.45008" lon="5.20029">
        <ele>528</ele>
      </trkpt>
      <trkpt lat="44.4501" lon="5.20039">
        <ele>526</ele>
      </trkpt>
      <trkpt lat="44.45007" lon="5.2005">
        <ele>526</ele>
      </trkpt>
      <trkpt lat="44.44995" lon="5.20055">
        <ele>526</ele>
      </trkpt>
      <trkpt lat="44.44962" lon="5.20059">
        <ele>526</ele>
      </trkpt>
      <trkpt lat="44.4494" lon="5.20069">
        <ele>523</ele>
      </trkpt>
      <trkpt lat="44.44932" lon="5.2008">
        <ele>522</ele>
      </trkpt>
      <trkpt lat="44.44927" lon="5.20097">
        <ele>519</ele>
      </trkpt>
      <trkpt lat="44.44926" lon="5.20137">
        <ele>519</ele>
      </trkpt>
      <trkpt lat="44.44924" lon="5.20149">
        <ele>522</ele>
      </trkpt>
      <trkpt lat="44.44915" lon="5.20156">
        <ele>522</ele>
      </trkpt>
      <trkpt lat="44.44835" lon="5.2017">
        <ele>530</ele>
      </trkpt>
      <trkpt lat="44.44784" lon="5.20166">
        <ele>526</ele>
      </trkpt>
      <trkpt lat="44.44765" lon="5.20167">
        <ele>525</ele>
      </trkpt>
      <trkpt lat="44.44752" lon="5.20163">
        <ele>521</ele>
      </trkpt>
      <trkpt lat="44.44741" lon="5.20155">
        <ele>520</ele>
      </trkpt>
      <trkpt lat="44.44733" lon="5.20155">
        <ele>520</ele>
      </trkpt>
      <trkpt lat="44.44714" lon="5.20167">
        <ele>522</ele>
      </trkpt>
      <trkpt lat="44.44703" lon="5.20164">
        <ele>523</ele>
      </trkpt>
      <trkpt lat="44.44694" lon="5.20157">
        <ele>522</ele>
      </trkpt>
      <trkpt lat="44.44686" lon="5.20163">
        <ele>524</ele>
      </trkpt>
      <trkpt lat="44.44681" lon="5.20182">
        <ele>530</ele>
      </trkpt>
      <trkpt lat="44.44675" lon="5.20199">
        <ele>532</ele>
      </trkpt>
      <trkpt lat="44.44661" lon="5.20213">
        <ele>539</ele>
      </trkpt>
      <trkpt lat="44.44646" lon="5.20219">
        <ele>535</ele>
      </trkpt>
      <trkpt lat="44.44624" lon="5.20216">
        <ele>533</ele>
      </trkpt>
      <trkpt lat="44.44606" lon="5.20206">
        <ele>527</ele>
      </trkpt>
      <trkpt lat="44.44586" lon="5.20207">
        <ele>522</ele>
      </trkpt>
      <trkpt lat="44.44565" lon="5.20197">
        <ele>518</ele>
      </trkpt>
      <trkpt lat="44.44556" lon="5.20195">
        <ele>517</ele>
      </trkpt>
      <trkpt lat="44.44544" lon="5.20196">
        <ele>518</ele>
      </trkpt>
      <trkpt lat="44.44527" lon="5.20204">
        <ele>524</ele>
      </trkpt>
      <trkpt lat="44.44514" lon="5.20205">
        <ele>526</ele>
      </trkpt>
      <trkpt lat="44.44502" lon="5.20199">
        <ele>521</ele>
      </trkpt>
      <trkpt lat="44.44496" lon="5.2019">
        <ele>519</ele>
      </trkpt>
      <trkpt lat="44.44491" lon="5.20177">
        <ele>518</ele>
      </trkpt>
      <trkpt lat="44.44483" lon="5.20168">
        <ele>515</ele>
      </trkpt>
      <trkpt lat="44.44472" lon="5.20166">
        <ele>513</ele>
      </trkpt>
      <trkpt lat="44.44448" lon="5.20181">
        <ele>518</ele>
      </trkpt>
      <trkpt lat="44.44437" lon="5.20184">
        <ele>519</ele>
      </trkpt>
      <trkpt lat="44.44346" lon="5.20163">
        <ele>508</ele>
      </trkpt>
      <trkpt lat="44.44334" lon="5.20162">
        <ele>505</ele>
      </trkpt>
      <trkpt lat="44.4432" lon="5.20165">
        <ele>506</ele>
      </trkpt>
      <trkpt lat="44.44275" lon="5.20191">
        <ele>501</ele>
      </trkpt>
      <trkpt lat="44.44262" lon="5.20205">
        <ele>502</ele>
      </trkpt>
      <trkpt lat="44.44251" lon="5.20223">
        <ele>502</ele>
      </trkpt>
      <trkpt lat="44.44214" lon="5.20307">
        <ele>508</ele>
      </trkpt>
      <trkpt lat="44.44179" lon="5.20366">
        <ele>516</ele>
      </trkpt>
      <trkpt lat="44.44166" lon="5.20379">
        <ele>513</ele>
      </trkpt>
      <trkpt lat="44.44117" lon="5.2041">
        <ele>490</ele>
      </trkpt>
      <trkpt lat="44.441" lon="5.20429">
        <ele>494</ele>
      </trkpt>
      <trkpt lat="44.4409" lon="5.2045">
        <ele>489</ele>
      </trkpt>
      <trkpt lat="44.44064" lon="5.20519">
        <ele>497</ele>
      </trkpt>
      <trkpt lat="44.44051" lon="5.20561">
        <ele>498</ele>
      </trkpt>
      <trkpt lat="44.44044" lon="5.20596">
        <ele>502</ele>
      </trkpt>
      <trkpt lat="44.44029" lon="5.20715">
        <ele>483</ele>
      </trkpt>
      <trkpt lat="44.44029" lon="5.20729">
        <ele>481</ele>
      </trkpt>
      <trkpt lat="44.44033" lon="5.2074">
        <ele>481</ele>
      </trkpt>
      <trkpt lat="44.44053" lon="5.20769">
        <ele>486</ele>
      </trkpt>
      <trkpt lat="44.44084" lon="5.20831">
        <ele>481</ele>
      </trkpt>
      <trkpt lat="44.44095" lon="5.20844">
        <ele>476</ele>
      </trkpt>
      <trkpt lat="44.44157" lon="5.20899">
        <ele>474</ele>
      </trkpt>
      <trkpt lat="44.44165" lon="5.2091">
        <ele>473</ele>
      </trkpt>
      <trkpt lat="44.44131" lon="5.20938">
        <ele>469</ele>
      </trkpt>
      <trkpt lat="44.44112" lon="5.20954">
        <ele>471</ele>
      </trkpt>
      <trkpt lat="44.44104" lon="5.20956">
        <ele>472</ele>
      </trkpt>
      <trkpt lat="44.4409" lon="5.20956">
        <ele>473</ele>
      </trkpt>
      <trkpt lat="44.43981" lon="5.20947">
        <ele>469</ele>
      </trkpt>
      <trkpt lat="44.43912" lon="5.20962">
        <ele>467</ele>
      </trkpt>
      <trkpt lat="44.4386" lon="5.20954">
        <ele>464</ele>
      </trkpt>
      <trkpt lat="44.43835" lon="5.20962">
        <ele>462</ele>
      </trkpt>
      <trkpt lat="44.43809" lon="5.20979">
        <ele>463</ele>
      </trkpt>
      <trkpt lat="44.43778" lon="5.2102">
        <ele>465</ele>
      </trkpt>
      <trkpt lat="44.43736" lon="5.21069">
        <ele>465</ele>
      </trkpt>
      <trkpt lat="44.43729" lon="5.21077">
        <ele>461</ele>
      </trkpt>
      <trkpt lat="44.4372" lon="5.21088">
        <ele>461</ele>
      </trkpt>
      <trkpt lat="44.43692" lon="5.21138">
        <ele>459</ele>
      </trkpt>
      <trkpt lat="44.43673" lon="5.21161">
        <ele>458</ele>
      </trkpt>
      <trkpt lat="44.4366" lon="5.2117">
        <ele>458</ele>
      </trkpt>
      <trkpt lat="44.43639" lon="5.21179">
        <ele>461</ele>
      </trkpt>
      <trkpt lat="44.43574" lon="5.21198">
        <ele>456</ele>
      </trkpt>
      <trkpt lat="44.43544" lon="5.21211">
        <ele>452</ele>
      </trkpt>
      <trkpt lat="44.43522" lon="5.21224">
        <ele>448</ele>
      </trkpt>
      <trkpt lat="44.43513" lon="5.21229">
        <ele>449</ele>
      </trkpt>
      <trkpt lat="44.43411" lon="5.21285">
        <ele>460</ele>
      </trkpt>
      <trkpt lat="44.43394" lon="5.21288">
        <ele>457</ele>
      </trkpt>
      <trkpt lat="44.43344" lon="5.21287">
        <ele>451</ele>
      </trkpt>
      <trkpt lat="44.43319" lon="5.21291">
        <ele>452</ele>
      </trkpt>
      <trkpt lat="44.43269" lon="5.21314">
        <ele>451</ele>
      </trkpt>
      <trkpt lat="44.43243" lon="5.21329">
        <ele>444</ele>
      </trkpt>
      <trkpt lat="44.4317" lon="5.21394">
        <ele>438</ele>
      </trkpt>
      <trkpt lat="44.43104" lon="5.21457">
        <ele>433</ele>
      </trkpt>
      <trkpt lat="44.42905" lon="5.21678">
        <ele>426</ele>
      </trkpt>
      <trkpt lat="44.42873" lon="5.21706">
        <ele>426</ele>
      </trkpt>
      <trkpt lat="44.42777" lon="5.21748">
        <ele>420</ele>
      </trkpt>
      <trkpt lat="44.42753" lon="5.2174">
        <ele>416</ele>
      </trkpt>
      <trkpt lat="44.42735" lon="5.21717">
        <ele>415</ele>
      </trkpt>
      <trkpt lat="44.42724" lon="5.21702">
        <ele>415</ele>
      </trkpt>
      <trkpt lat="44.42719" lon="5.21704">
        <ele>415</ele>
      </trkpt>
      <trkpt lat="44.42624" lon="5.21757">
        <ele>412</ele>
      </trkpt>
      <trkpt lat="44.42603" lon="5.2176">
        <ele>413</ele>
      </trkpt>
      <trkpt lat="44.42458" lon="5.2173">
        <ele>410</ele>
      </trkpt>
      <trkpt lat="44.42446" lon="5.21723">
        <ele>411</ele>
      </trkpt>
      <trkpt lat="44.42435" lon="5.21716">
        <ele>411</ele>
      </trkpt>
      <trkpt lat="44.42422" lon="5.21702">
        <ele>410</ele>
      </trkpt>
      <trkpt lat="44.4241" lon="5.21677">
        <ele>412</ele>
      </trkpt>
      <trkpt lat="44.42401" lon="5.2164">
        <ele>417</ele>
      </trkpt>
      <trkpt lat="44.4236" lon="5.21434">
        <ele>407</ele>
      </trkpt>
      <trkpt lat="44.42356" lon="5.21396">
        <ele>407</ele>
      </trkpt>
      <trkpt lat="44.42354" lon="5.21358">
        <ele>409</ele>
      </trkpt>
      <trkpt lat="44.42351" lon="5.2133">
        <ele>412</ele>
      </trkpt>
      <trkpt lat="44.42339" lon="5.2129">
        <ele>407</ele>
      </trkpt>
      <trkpt lat="44.42323" lon="5.21252">
        <ele>410</ele>
      </trkpt>
      <trkpt lat="44.42309" lon="5.21227">
        <ele>405</ele>
      </trkpt>
      <trkpt lat="44.42279" lon="5.21198">
        <ele>399</ele>
      </trkpt>
      <trkpt lat="44.42257" lon="5.2117">
        <ele>397</ele>
      </trkpt>
      <trkpt lat="44.42218" lon="5.21081">
        <ele>399</ele>
      </trkpt>
      <trkpt lat="44.422" lon="5.21044">
        <ele>397</ele>
      </trkpt>
      <trkpt lat="44.42162" lon="5.20985">
        <ele>398</ele>
      </trkpt>
      <trkpt lat="44.42157" lon="5.20978">
        <ele>401</ele>
      </trkpt>
      <trkpt lat="44.42086" lon="5.20879">
        <ele>393</ele>
      </trkpt>
      <trkpt lat="44.42033" lon="5.20817">
        <ele>389</ele>
      </trkpt>
      <trkpt lat="44.4184" lon="5.20641">
        <ele>382</ele>
      </trkpt>
      <trkpt lat="44.41823" lon="5.20627">
        <ele>382</ele>
      </trkpt>
      <trkpt lat="44.41741" lon="5.20609">
        <ele>381</ele>
      </trkpt>
      <trkpt lat="44.41725" lon="5.20594">
        <ele>380</ele>
      </trkpt>
      <trkpt lat="44.41694" lon="5.20549">
        <ele>388</ele>
      </trkpt>
      <trkpt lat="44.41671" lon="5.20529">
        <ele>389</ele>
      </trkpt>
      <trkpt lat="44.41618" lon="5.205">
        <ele>387</ele>
      </trkpt>
      <trkpt lat="44.41599" lon="5.20495">
        <ele>387</ele>
      </trkpt>
      <trkpt lat="44.41563" lon="5.20497">
        <ele>385</ele>
      </trkpt>
      <trkpt lat="44.41543" lon="5.20494">
        <ele>386</ele>
      </trkpt>
      <trkpt lat="44.41514" lon="5.20481">
        <ele>386</ele>
      </trkpt>
      <trkpt lat="44.41486" lon="5.20479">
        <ele>382</ele>
      </trkpt>
      <trkpt lat="44.41442" lon="5.20482">
        <ele>375</ele>
      </trkpt>
      <trkpt lat="44.41422" lon="5.20478">
        <ele>372</ele>
      </trkpt>
      <trkpt lat="44.41363" lon="5.20456">
        <ele>372</ele>
      </trkpt>
      <trkpt lat="44.41339" lon="5.20444">
        <ele>373</ele>
      </trkpt>
      <trkpt lat="44.41175" lon="5.20315">
        <ele>364</ele>
      </trkpt>
      <trkpt lat="44.41155" lon="5.20291">
        <ele>365</ele>
      </trkpt>
      <trkpt lat="44.41119" lon="5.2024">
        <ele>364</ele>
      </trkpt>
      <trkpt lat="44.41106" lon="5.20224">
        <ele>365</ele>
      </trkpt>
      <trkpt lat="44.41086" lon="5.20209">
        <ele>363</ele>
      </trkpt>
      <trkpt lat="44.41056" lon="5.20196">
        <ele>361</ele>
      </trkpt>
      <trkpt lat="44.40923" lon="5.20147">
        <ele>355</ele>
      </trkpt>
      <trkpt lat="44.40884" lon="5.20136">
        <ele>357</ele>
      </trkpt>
      <trkpt lat="44.40812" lon="5.20102">
        <ele>357</ele>
      </trkpt>
      <trkpt lat="44.40756" lon="5.20082">
        <ele>357</ele>
      </trkpt>
      <trkpt lat="44.40731" lon="5.20067">
        <ele>357</ele>
      </trkpt>
      <trkpt lat="44.40556" lon="5.19866">
        <ele>354</ele>
      </trkpt>
      <trkpt lat="44.40539" lon="5.19854">
        <ele>354</ele>
      </trkpt>
      <trkpt lat="44.40501" lon="5.19831">
        <ele>356</ele>
      </trkpt>
      <trkpt lat="44.405" lon="5.19838">
        <ele>355</ele>
      </trkpt>
      <trkpt lat="44.40495" lon="5.19847">
        <ele>354</ele>
      </trkpt>
      <trkpt lat="44.40442" lon="5.19948">
        <ele>345</ele>
      </trkpt>
      <trkpt lat="44.40356" lon="5.20101">
        <ele>340</ele>
      </trkpt>
      <trkpt lat="44.40353" lon="5.20112">
        <ele>340</ele>
      </trkpt>
      <trkpt lat="44.40354" lon="5.20125">
        <ele>340</ele>
      </trkpt>
      <trkpt lat="44.4038" lon="5.20206">
        <ele>343</ele>
      </trkpt>
      <trkpt lat="44.40355" lon="5.2024">
        <ele>345</ele>
      </trkpt>
      <trkpt lat="44.40349" lon="5.20239">
        <ele>345</ele>
      </trkpt>
      <trkpt lat="44.40324" lon="5.20208">
        <ele>344</ele>
      </trkpt>
      <trkpt lat="44.40318" lon="5.20202">
        <ele>344</ele>
      </trkpt>
      <trkpt lat="44.40312" lon="5.202">
        <ele>344</ele>
      </trkpt>
      <trkpt lat="44.40304" lon="5.20201">
        <ele>345</ele>
      </trkpt>
      <trkpt lat="44.40248" lon="5.20236">
        <ele>346</ele>
      </trkpt>
      <trkpt lat="44.40244" lon="5.20226">
        <ele>346</ele>
      </trkpt>
      <trkpt lat="44.40238" lon="5.2018">
        <ele>346</ele>
      </trkpt>
      <trkpt lat="44.4022" lon="5.20103">
        <ele>343</ele>
      </trkpt>
      <trkpt lat="44.40208" lon="5.2007">
        <ele>341</ele>
      </trkpt>
      <trkpt lat="44.40195" lon="5.20059">
        <ele>341</ele>
      </trkpt>
      <trkpt lat="44.40175" lon="5.20059">
        <ele>342</ele>
      </trkpt>
      <trkpt lat="44.40156" lon="5.20073">
        <ele>343</ele>
      </trkpt>
      <trkpt lat="44.40118" lon="5.2014">
        <ele>343</ele>
      </trkpt>
      <trkpt lat="44.40107" lon="5.20156">
        <ele>343</ele>
      </trkpt>
      <trkpt lat="44.40093" lon="5.20163">
        <ele>343</ele>
      </trkpt>
      <trkpt lat="44.40069" lon="5.2017">
        <ele>343</ele>
      </trkpt>
      <trkpt lat="44.40041" lon="5.20195">
        <ele>344</ele>
      </trkpt>
      <trkpt lat="44.40015" lon="5.20237">
        <ele>344</ele>
      </trkpt>
      <trkpt lat="44.40003" lon="5.20247">
        <ele>344</ele>
      </trkpt>
      <trkpt lat="44.39968" lon="5.20236">
        <ele>345</ele>
      </trkpt>
      <trkpt lat="44.39936" lon="5.2022">
        <ele>344</ele>
      </trkpt>
      <trkpt lat="44.39921" lon="5.202">
        <ele>342</ele>
      </trkpt>
      <trkpt lat="44.39907" lon="5.20156">
        <ele>340</ele>
      </trkpt>
      <trkpt lat="44.39895" lon="5.20135">
        <ele>340</ele>
      </trkpt>
      <trkpt lat="44.39886" lon="5.20129">
        <ele>340</ele>
      </trkpt>
      <trkpt lat="44.39881" lon="5.20132">
        <ele>340</ele>
      </trkpt>
      <trkpt lat="44.39863" lon="5.20206">
        <ele>343</ele>
      </trkpt>
      <trkpt lat="44.39858" lon="5.20219">
        <ele>344</ele>
      </trkpt>
      <trkpt lat="44.39835" lon="5.20245">
        <ele>347</ele>
      </trkpt>
      <trkpt lat="44.3983" lon="5.20256">
        <ele>348</ele>
      </trkpt>
      <trkpt lat="44.39823" lon="5.20289">
        <ele>350</ele>
      </trkpt>
      <trkpt lat="44.39816" lon="5.20364">
        <ele>354</ele>
      </trkpt>
      <trkpt lat="44.39801" lon="5.20418">
        <ele>357</ele>
      </trkpt>
      <trkpt lat="44.39785" lon="5.20443">
        <ele>359</ele>
      </trkpt>
      <trkpt lat="44.39777" lon="5.20463">
        <ele>359</ele>
      </trkpt>
      <trkpt lat="44.39765" lon="5.20509">
        <ele>361</ele>
      </trkpt>
      <trkpt lat="44.39756" lon="5.2053">
        <ele>363</ele>
      </trkpt>
      <trkpt lat="44.39726" lon="5.20555">
        <ele>363</ele>
      </trkpt>
      <trkpt lat="44.39701" lon="5.20562">
        <ele>363</ele>
      </trkpt>
      <trkpt lat="44.39663" lon="5.20592">
        <ele>365</ele>
      </trkpt>
      <trkpt lat="44.39652" lon="5.20594">
        <ele>365</ele>
      </trkpt>
      <trkpt lat="44.39625" lon="5.20591">
        <ele>363</ele>
      </trkpt>
      <trkpt lat="44.39608" lon="5.20594">
        <ele>362</ele>
      </trkpt>
      <trkpt lat="44.39558" lon="5.20613">
        <ele>358</ele>
      </trkpt>
      <trkpt lat="44.39532" lon="5.20619">
        <ele>356</ele>
      </trkpt>
      <trkpt lat="44.39507" lon="5.20619">
        <ele>353</ele>
      </trkpt>
      <trkpt lat="44.39473" lon="5.20626">
        <ele>351</ele>
      </trkpt>
      <trkpt lat="44.3945" lon="5.20641">
        <ele>350</ele>
      </trkpt>
      <trkpt lat="44.3944" lon="5.20656">
        <ele>349</ele>
      </trkpt>
      <trkpt lat="44.3941" lon="5.20677">
        <ele>347</ele>
      </trkpt>
      <trkpt lat="44.394" lon="5.2068">
        <ele>347</ele>
      </trkpt>
      <trkpt lat="44.39359" lon="5.20677">
        <ele>346</ele>
      </trkpt>
      <trkpt lat="44.39348" lon="5.20672">
        <ele>348</ele>
      </trkpt>
      <trkpt lat="44.39305" lon="5.20593">
        <ele>343</ele>
      </trkpt>
      <trkpt lat="44.3929" lon="5.20531">
        <ele>347</ele>
      </trkpt>
      <trkpt lat="44.39284" lon="5.20519">
        <ele>341</ele>
      </trkpt>
      <trkpt lat="44.39273" lon="5.20515">
        <ele>340</ele>
      </trkpt>
      <trkpt lat="44.39259" lon="5.20523">
        <ele>336</ele>
      </trkpt>
      <trkpt lat="44.39172" lon="5.20551">
        <ele>324</ele>
      </trkpt>
      <trkpt lat="44.39253" lon="5.21101">
        <ele>325</ele>
      </trkpt>
      <trkpt lat="44.3926" lon="5.21149">
        <ele>327</ele>
      </trkpt>
      <trkpt lat="44.39262" lon="5.2117">
        <ele>328</ele>
      </trkpt>
      <trkpt lat="44.39259" lon="5.21205">
        <ele>329</ele>
      </trkpt>
      <trkpt lat="44.39253" lon="5.21238">
        <ele>330</ele>
      </trkpt>
      <trkpt lat="44.39184" lon="5.21457">
        <ele>333</ele>
      </trkpt>
      <trkpt lat="44.39113" lon="5.21681">
        <ele>335</ele>
      </trkpt>
      <trkpt lat="44.39099" lon="5.21716">
        <ele>337</ele>
      </trkpt>
      <trkpt lat="44.39087" lon="5.21737">
        <ele>334</ele>
      </trkpt>
      <trkpt lat="44.39055" lon="5.21782">
        <ele>334</ele>
      </trkpt>
      <trkpt lat="44.39045" lon="5.21802">
        <ele>337</ele>
      </trkpt>
      <trkpt lat="44.39026" lon="5.21849">
        <ele>340</ele>
      </trkpt>
      <trkpt lat="44.39003" lon="5.21926">
        <ele>338</ele>
      </trkpt>
      <trkpt lat="44.39" lon="5.21948">
        <ele>338</ele>
      </trkpt>
      <trkpt lat="44.39" lon="5.21961">
        <ele>338</ele>
      </trkpt>
      <trkpt lat="44.39035" lon="5.22131">
        <ele>343</ele>
      </trkpt>
      <trkpt lat="44.39035" lon="5.22151">
        <ele>345</ele>
      </trkpt>
      <trkpt lat="44.39033" lon="5.2217">
        <ele>345</ele>
      </trkpt>
      <trkpt lat="44.39026" lon="5.22195">
        <ele>348</ele>
      </trkpt>
      <trkpt lat="44.39005" lon="5.22246">
        <ele>348</ele>
      </trkpt>
      <trkpt lat="44.38996" lon="5.22262">
        <ele>352</ele>
      </trkpt>
      <trkpt lat="44.38946" lon="5.22331">
        <ele>347</ele>
      </trkpt>
      <trkpt lat="44.38937" lon="5.22347">
        <ele>350</ele>
      </trkpt>
      <trkpt lat="44.38928" lon="5.22372">
        <ele>351</ele>
      </trkpt>
      <trkpt lat="44.38923" lon="5.22404">
        <ele>348</ele>
      </trkpt>
      <trkpt lat="44.38916" lon="5.22473">
        <ele>348</ele>
      </trkpt>
      <trkpt lat="44.38899" lon="5.22566">
        <ele>347</ele>
      </trkpt>
      <trkpt lat="44.3889" lon="5.226">
        <ele>347</ele>
      </trkpt>
      <trkpt lat="44.3888" lon="5.22627">
        <ele>347</ele>
      </trkpt>
      <trkpt lat="44.38839" lon="5.22721">
        <ele>343</ele>
      </trkpt>
      <trkpt lat="44.38832" lon="5.22747">
        <ele>343</ele>
      </trkpt>
      <trkpt lat="44.38826" lon="5.2279">
        <ele>342</ele>
      </trkpt>
      <trkpt lat="44.38827" lon="5.22821">
        <ele>341</ele>
      </trkpt>
      <trkpt lat="44.3884" lon="5.2293">
        <ele>345</ele>
      </trkpt>
      <trkpt lat="44.38839" lon="5.2296">
        <ele>344</ele>
      </trkpt>
      <trkpt lat="44.38836" lon="5.22989">
        <ele>344</ele>
      </trkpt>
      <trkpt lat="44.38799" lon="5.23126">
        <ele>342</ele>
      </trkpt>
      <trkpt lat="44.38792" lon="5.23144">
        <ele>341</ele>
      </trkpt>
      <trkpt lat="44.38783" lon="5.23178">
        <ele>337</ele>
      </trkpt>
      <trkpt lat="44.38781" lon="5.23198">
        <ele>336</ele>
      </trkpt>
      <trkpt lat="44.38783" lon="5.23217">
        <ele>335</ele>
      </trkpt>
      <trkpt lat="44.38787" lon="5.23238">
        <ele>333</ele>
      </trkpt>
      <trkpt lat="44.38794" lon="5.23254">
        <ele>335</ele>
      </trkpt>
      <trkpt lat="44.38801" lon="5.23267">
        <ele>333</ele>
      </trkpt>
      <trkpt lat="44.38813" lon="5.2328">
        <ele>333</ele>
      </trkpt>
      <trkpt lat="44.3882" lon="5.23286">
        <ele>333</ele>
      </trkpt>
      <trkpt lat="44.38818" lon="5.2329">
        <ele>332</ele>
      </trkpt>
      <trkpt lat="44.38817" lon="5.2331">
        <ele>332</ele>
      </trkpt>
      <trkpt lat="44.38805" lon="5.234">
        <ele>331</ele>
      </trkpt>
      <trkpt lat="44.38796" lon="5.23446">
        <ele>334</ele>
      </trkpt>
      <trkpt lat="44.3878" lon="5.23504">
        <ele>336</ele>
      </trkpt>
      <trkpt lat="44.38766" lon="5.23547">
        <ele>339</ele>
      </trkpt>
      <trkpt lat="44.38745" lon="5.23602">
        <ele>344</ele>
      </trkpt>
      <trkpt lat="44.38708" lon="5.23664">
        <ele>349</ele>
      </trkpt>
      <trkpt lat="44.38693" lon="5.23704">
        <ele>350</ele>
      </trkpt>
      <trkpt lat="44.3868" lon="5.23802">
        <ele>358</ele>
      </trkpt>
      <trkpt lat="44.38657" lon="5.23897">
        <ele>356</ele>
      </trkpt>
      <trkpt lat="44.38639" lon="5.23938">
        <ele>350</ele>
      </trkpt>
      <trkpt lat="44.3855" lon="5.24084">
        <ele>352</ele>
      </trkpt>
      <trkpt lat="44.38437" lon="5.24229">
        <ele>349</ele>
      </trkpt>
      <trkpt lat="44.38389" lon="5.24279">
        <ele>349</ele>
      </trkpt>
      <trkpt lat="44.38367" lon="5.24306">
        <ele>346</ele>
      </trkpt>
      <trkpt lat="44.38345" lon="5.2433">
        <ele>347</ele>
      </trkpt>
      <trkpt lat="44.38327" lon="5.24342">
        <ele>347</ele>
      </trkpt>
      <trkpt lat="44.38237" lon="5.24385">
        <ele>347</ele>
      </trkpt>
      <trkpt lat="44.38212" lon="5.24393">
        <ele>346</ele>
      </trkpt>
      <trkpt lat="44.38171" lon="5.24402">
        <ele>348</ele>
      </trkpt>
      <trkpt lat="44.38124" lon="5.24413">
        <ele>349</ele>
      </trkpt>
      <trkpt lat="44.38108" lon="5.24419">
        <ele>349</ele>
      </trkpt>
      <trkpt lat="44.38094" lon="5.24431">
        <ele>352</ele>
      </trkpt>
      <trkpt lat="44.38081" lon="5.24449">
        <ele>350</ele>
      </trkpt>
      <trkpt lat="44.38057" lon="5.2449">
        <ele>351</ele>
      </trkpt>
      <trkpt lat="44.38044" lon="5.24508">
        <ele>355</ele>
      </trkpt>
      <trkpt lat="44.38028" lon="5.24524">
        <ele>353</ele>
      </trkpt>
      <trkpt lat="44.37976" lon="5.24561">
        <ele>352</ele>
      </trkpt>
      <trkpt lat="44.37919" lon="5.24593">
        <ele>355</ele>
      </trkpt>
      <trkpt lat="44.37901" lon="5.24606">
        <ele>355</ele>
      </trkpt>
      <trkpt lat="44.37885" lon="5.24622">
        <ele>356</ele>
      </trkpt>
      <trkpt lat="44.37872" lon="5.24641">
        <ele>356</ele>
      </trkpt>
      <trkpt lat="44.37847" lon="5.24683">
        <ele>361</ele>
      </trkpt>
      <trkpt lat="44.37601" lon="5.25026">
        <ele>367</ele>
      </trkpt>
      <trkpt lat="44.37587" lon="5.25043">
        <ele>366</ele>
      </trkpt>
      <trkpt lat="44.37542" lon="5.25086">
        <ele>365</ele>
      </trkpt>
      <trkpt lat="44.37518" lon="5.25116">
        <ele>365</ele>
      </trkpt>
      <trkpt lat="44.37499" lon="5.25155">
        <ele>368</ele>
      </trkpt>
      <trkpt lat="44.37491" lon="5.25177">
        <ele>371</ele>
      </trkpt>
      <trkpt lat="44.37484" lon="5.252">
        <ele>371</ele>
      </trkpt>
      <trkpt lat="44.37463" lon="5.25281">
        <ele>378</ele>
      </trkpt>
      <trkpt lat="44.3745" lon="5.2531">
        <ele>376</ele>
      </trkpt>
      <trkpt lat="44.37428" lon="5.25342">
        <ele>385</ele>
      </trkpt>
      <trkpt lat="44.37413" lon="5.25356">
        <ele>377</ele>
      </trkpt>
      <trkpt lat="44.37398" lon="5.25367">
        <ele>372</ele>
      </trkpt>
      <trkpt lat="44.37365" lon="5.25384">
        <ele>372</ele>
      </trkpt>
      <trkpt lat="44.37331" lon="5.2539">
        <ele>369</ele>
      </trkpt>
      <trkpt lat="44.37265" lon="5.25388">
        <ele>364</ele>
      </trkpt>
      <trkpt lat="44.3725" lon="5.25389">
        <ele>364</ele>
      </trkpt>
      <trkpt lat="44.37237" lon="5.25394">
        <ele>364</ele>
      </trkpt>
      <trkpt lat="44.37225" lon="5.25406">
        <ele>368</ele>
      </trkpt>
      <trkpt lat="44.3718" lon="5.25494">
        <ele>367</ele>
      </trkpt>
      <trkpt lat="44.37094" lon="5.25676">
        <ele>377</ele>
      </trkpt>
      <trkpt lat="44.37077" lon="5.25722">
        <ele>378</ele>
      </trkpt>
      <trkpt lat="44.37022" lon="5.25892">
        <ele>385</ele>
      </trkpt>
      <trkpt lat="44.3697" lon="5.25996">
        <ele>379</ele>
      </trkpt>
      <trkpt lat="44.36958" lon="5.26017">
        <ele>381</ele>
      </trkpt>
      <trkpt lat="44.36945" lon="5.26038">
        <ele>378</ele>
      </trkpt>
      <trkpt lat="44.36764" lon="5.26237">
        <ele>378</ele>
      </trkpt>
      <trkpt lat="44.36726" lon="5.26287">
        <ele>380</ele>
      </trkpt>
      <trkpt lat="44.36712" lon="5.26301">
        <ele>380</ele>
      </trkpt>
      <trkpt lat="44.36698" lon="5.2631">
        <ele>377</ele>
      </trkpt>
      <trkpt lat="44.36677" lon="5.26317">
        <ele>380</ele>
      </trkpt>
      <trkpt lat="44.36632" lon="5.26318">
        <ele>379</ele>
      </trkpt>
      <trkpt lat="44.36614" lon="5.2632">
        <ele>379</ele>
      </trkpt>
      <trkpt lat="44.36596" lon="5.26323">
        <ele>379</ele>
      </trkpt>
      <trkpt lat="44.36579" lon="5.2633">
        <ele>379</ele>
      </trkpt>
      <trkpt lat="44.36563" lon="5.26339">
        <ele>379</ele>
      </trkpt>
      <trkpt lat="44.36549" lon="5.26353">
        <ele>383</ele>
      </trkpt>
      <trkpt lat="44.36524" lon="5.26382">
        <ele>387</ele>
      </trkpt>
      <trkpt lat="44.3651" lon="5.26395">
        <ele>384</ele>
      </trkpt>
      <trkpt lat="44.36466" lon="5.26415">
        <ele>385</ele>
      </trkpt>
      <trkpt lat="44.36451" lon="5.26425">
        <ele>388</ele>
      </trkpt>
      <trkpt lat="44.36434" lon="5.26443">
        <ele>388</ele>
      </trkpt>
      <trkpt lat="44.36421" lon="5.2646">
        <ele>389</ele>
      </trkpt>
      <trkpt lat="44.3641" lon="5.26479">
        <ele>390</ele>
      </trkpt>
      <trkpt lat="44.36401" lon="5.26498">
        <ele>393</ele>
      </trkpt>
      <trkpt lat="44.36387" lon="5.26545">
        <ele>394</ele>
      </trkpt>
      <trkpt lat="44.36332" lon="5.26633">
        <ele>393</ele>
      </trkpt>
      <trkpt lat="44.36314" lon="5.26654">
        <ele>394</ele>
      </trkpt>
      <trkpt lat="44.36237" lon="5.26734">
        <ele>402</ele>
      </trkpt>
      <trkpt lat="44.36159" lon="5.26796">
        <ele>402</ele>
      </trkpt>
      <trkpt lat="44.3614" lon="5.26806">
        <ele>397</ele>
      </trkpt>
      <trkpt lat="44.36101" lon="5.26819">
        <ele>399</ele>
      </trkpt>
      <trkpt lat="44.36082" lon="5.26824">
        <ele>397</ele>
      </trkpt>
      <trkpt lat="44.36021" lon="5.26829">
        <ele>394</ele>
      </trkpt>
      <trkpt lat="44.35964" lon="5.26829">
        <ele>393</ele>
      </trkpt>
      <trkpt lat="44.35892" lon="5.2682">
        <ele>392</ele>
      </trkpt>
      <trkpt lat="44.35877" lon="5.2682">
        <ele>392</ele>
      </trkpt>
      <trkpt lat="44.35862" lon="5.26825">
        <ele>391</ele>
      </trkpt>
      <trkpt lat="44.35848" lon="5.26834">
        <ele>391</ele>
      </trkpt>
      <trkpt lat="44.35836" lon="5.26846">
        <ele>393</ele>
      </trkpt>
      <trkpt lat="44.35819" lon="5.26879">
        <ele>394</ele>
      </trkpt>
      <trkpt lat="44.35804" lon="5.26911">
        <ele>388</ele>
      </trkpt>
      <trkpt lat="44.35748" lon="5.27035">
        <ele>392</ele>
      </trkpt>
      <trkpt lat="44.35698" lon="5.27118">
        <ele>397</ele>
      </trkpt>
      <trkpt lat="44.35684" lon="5.27148">
        <ele>404</ele>
      </trkpt>
      <trkpt lat="44.35673" lon="5.27177">
        <ele>402</ele>
      </trkpt>
      <trkpt lat="44.35657" lon="5.27236">
        <ele>411</ele>
      </trkpt>
      <trkpt lat="44.35646" lon="5.27257">
        <ele>403</ele>
      </trkpt>
      <trkpt lat="44.35634" lon="5.27277">
        <ele>405</ele>
      </trkpt>
      <trkpt lat="44.35518" lon="5.27432">
        <ele>393</ele>
      </trkpt>
      <trkpt lat="44.35455" lon="5.27512">
        <ele>400</ele>
      </trkpt>
      <trkpt lat="44.35421" lon="5.27552">
        <ele>399</ele>
      </trkpt>
      <trkpt lat="44.35277" lon="5.27686">
        <ele>399</ele>
      </trkpt>
      <trkpt lat="44.35251" lon="5.27712">
        <ele>399</ele>
      </trkpt>
      <trkpt lat="44.35236" lon="5.27734">
        <ele>402</ele>
      </trkpt>
      <trkpt lat="44.35162" lon="5.27872">
        <ele>408</ele>
      </trkpt>
      <trkpt lat="44.35142" lon="5.27902">
        <ele>406</ele>
      </trkpt>
      <trkpt lat="44.35128" lon="5.27915">
        <ele>405</ele>
      </trkpt>
      <trkpt lat="44.35078" lon="5.27952">
        <ele>399</ele>
      </trkpt>
      <trkpt lat="44.34944" lon="5.28026">
        <ele>397</ele>
      </trkpt>
      <trkpt lat="44.34897" lon="5.28061">
        <ele>398</ele>
      </trkpt>
      <trkpt lat="44.34866" lon="5.28088">
        <ele>400</ele>
      </trkpt>
      <trkpt lat="44.34846" lon="5.28111">
        <ele>403</ele>
      </trkpt>
      <trkpt lat="44.34833" lon="5.28139">
        <ele>404</ele>
      </trkpt>
      <trkpt lat="44.34828" lon="5.28154">
        <ele>407</ele>
      </trkpt>
      <trkpt lat="44.34815" lon="5.28217">
        <ele>411</ele>
      </trkpt>
      <trkpt lat="44.34803" lon="5.2826">
        <ele>418</ele>
      </trkpt>
      <trkpt lat="44.34787" lon="5.28284">
        <ele>411</ele>
      </trkpt>
      <trkpt lat="44.34777" lon="5.28294">
        <ele>413</ele>
      </trkpt>
      <trkpt lat="44.34767" lon="5.28301">
        <ele>413</ele>
      </trkpt>
      <trkpt lat="44.34748" lon="5.28307">
        <ele>407</ele>
      </trkpt>
      <trkpt lat="44.34729" lon="5.28311">
        <ele>405</ele>
      </trkpt>
      <trkpt lat="44.34714" lon="5.28311">
        <ele>405</ele>
      </trkpt>
      <trkpt lat="44.34571" lon="5.28284">
        <ele>404</ele>
      </trkpt>
      <trkpt lat="44.34559" lon="5.28285">
        <ele>405</ele>
      </trkpt>
      <trkpt lat="44.34525" lon="5.28292">
        <ele>407</ele>
      </trkpt>
      <trkpt lat="44.34489" lon="5.28306">
        <ele>407</ele>
      </trkpt>
      <trkpt lat="44.34467" lon="5.28335">
        <ele>407</ele>
      </trkpt>
      <trkpt lat="44.34454" lon="5.28369">
        <ele>407</ele>
      </trkpt>
      <trkpt lat="44.34454" lon="5.28397">
        <ele>408</ele>
      </trkpt>
      <trkpt lat="44.34442" lon="5.284">
        <ele>408</ele>
      </trkpt>
      <trkpt lat="44.34435" lon="5.28399">
        <ele>408</ele>
      </trkpt>
      <trkpt lat="44.3417" lon="5.28296">
        <ele>404</ele>
      </trkpt>
      <trkpt lat="44.34154" lon="5.28287">
        <ele>404</ele>
      </trkpt>
      <trkpt lat="44.34147" lon="5.28281">
        <ele>405</ele>
      </trkpt>
      <trkpt lat="44.34142" lon="5.28272">
        <ele>405</ele>
      </trkpt>
      <trkpt lat="44.34143" lon="5.28256">
        <ele>407</ele>
      </trkpt>
      <trkpt lat="44.34156" lon="5.28216">
        <ele>408</ele>
      </trkpt>
      <trkpt lat="44.34157" lon="5.28205">
        <ele>409</ele>
      </trkpt>
      <trkpt lat="44.34153" lon="5.28192">
        <ele>410</ele>
      </trkpt>
      <trkpt lat="44.34098" lon="5.28105">
        <ele>410</ele>
      </trkpt>
      <trkpt lat="44.34079" lon="5.28086">
        <ele>411</ele>
      </trkpt>
      <trkpt lat="44.34054" lon="5.28078">
        <ele>412</ele>
      </trkpt>
      <trkpt lat="44.34015" lon="5.2808">
        <ele>412</ele>
      </trkpt>
      <trkpt lat="44.33901" lon="5.28094">
        <ele>414</ele>
      </trkpt>
      <trkpt lat="44.33875" lon="5.28092">
        <ele>413</ele>
      </trkpt>
      <trkpt lat="44.33777" lon="5.28046">
        <ele>413</ele>
      </trkpt>
      <trkpt lat="44.33747" lon="5.28027">
        <ele>414</ele>
      </trkpt>
      <trkpt lat="44.33666" lon="5.27951">
        <ele>422</ele>
      </trkpt>
      <trkpt lat="44.33577" lon="5.27865">
        <ele>431</ele>
      </trkpt>
      <trkpt lat="44.33563" lon="5.2786">
        <ele>432</ele>
      </trkpt>
      <trkpt lat="44.33557" lon="5.27862">
        <ele>431</ele>
      </trkpt>
      <trkpt lat="44.33544" lon="5.27871">
        <ele>431</ele>
      </trkpt>
      <trkpt lat="44.33537" lon="5.27884">
        <ele>433</ele>
      </trkpt>
      <trkpt lat="44.33505" lon="5.28027">
        <ele>441</ele>
      </trkpt>
      <trkpt lat="44.33497" lon="5.2804">
        <ele>441</ele>
      </trkpt>
      <trkpt lat="44.33493" lon="5.28042">
        <ele>441</ele>
      </trkpt>
      <trkpt lat="44.33488" lon="5.28043">
        <ele>441</ele>
      </trkpt>
      <trkpt lat="44.3348" lon="5.28038">
        <ele>442</ele>
      </trkpt>
      <trkpt lat="44.33474" lon="5.28027">
        <ele>443</ele>
      </trkpt>
      <trkpt lat="44.33394" lon="5.27788">
        <ele>452</ele>
      </trkpt>
      <trkpt lat="44.33386" lon="5.2777">
        <ele>453</ele>
      </trkpt>
      <trkpt lat="44.33379" lon="5.27758">
        <ele>453</ele>
      </trkpt>
      <trkpt lat="44.33343" lon="5.27733">
        <ele>458</ele>
      </trkpt>
      <trkpt lat="44.33312" lon="5.27714">
        <ele>463</ele>
      </trkpt>
      <trkpt lat="44.33294" lon="5.27696">
        <ele>465</ele>
      </trkpt>
      <trkpt lat="44.33289" lon="5.27684">
        <ele>465</ele>
      </trkpt>
      <trkpt lat="44.33287" lon="5.27672">
        <ele>466</ele>
      </trkpt>
      <trkpt lat="44.33283" lon="5.27629">
        <ele>467</ele>
      </trkpt>
      <trkpt lat="44.3328" lon="5.27611">
        <ele>468</ele>
      </trkpt>
      <trkpt lat="44.33276" lon="5.276">
        <ele>469</ele>
      </trkpt>
      <trkpt lat="44.33258" lon="5.27563">
        <ele>471</ele>
      </trkpt>
      <trkpt lat="44.33253" lon="5.27548">
        <ele>471</ele>
      </trkpt>
      <trkpt lat="44.33254" lon="5.2754">
        <ele>472</ele>
      </trkpt>
      <trkpt lat="44.33259" lon="5.27529">
        <ele>474</ele>
      </trkpt>
      <trkpt lat="44.33271" lon="5.27522">
        <ele>476</ele>
      </trkpt>
      <trkpt lat="44.33309" lon="5.27506">
        <ele>475</ele>
      </trkpt>
      <trkpt lat="44.33319" lon="5.2749">
        <ele>473</ele>
      </trkpt>
      <trkpt lat="44.33322" lon="5.27477">
        <ele>473</ele>
      </trkpt>
      <trkpt lat="44.33322" lon="5.27463">
        <ele>473</ele>
      </trkpt>
      <trkpt lat="44.3332" lon="5.2745">
        <ele>473</ele>
      </trkpt>
      <trkpt lat="44.33307" lon="5.27422">
        <ele>475</ele>
      </trkpt>
      <trkpt lat="44.33301" lon="5.27404">
        <ele>475</ele>
      </trkpt>
      <trkpt lat="44.33289" lon="5.27329">
        <ele>482</ele>
      </trkpt>
      <trkpt lat="44.33281" lon="5.27285">
        <ele>489</ele>
      </trkpt>
      <trkpt lat="44.33282" lon="5.27266">
        <ele>489</ele>
      </trkpt>
      <trkpt lat="44.33286" lon="5.27251">
        <ele>492</ele>
      </trkpt>
      <trkpt lat="44.33292" lon="5.27241">
        <ele>490</ele>
      </trkpt>
      <trkpt lat="44.3333" lon="5.27221">
        <ele>490</ele>
      </trkpt>
      <trkpt lat="44.33338" lon="5.27214">
        <ele>489</ele>
      </trkpt>
      <trkpt lat="44.33345" lon="5.27202">
        <ele>488</ele>
      </trkpt>
      <trkpt lat="44.3335" lon="5.27183">
        <ele>489</ele>
      </trkpt>
      <trkpt lat="44.33352" lon="5.27169">
        <ele>490</ele>
      </trkpt>
      <trkpt lat="44.33352" lon="5.27151">
        <ele>490</ele>
      </trkpt>
      <trkpt lat="44.33348" lon="5.27138">
        <ele>490</ele>
      </trkpt>
      <trkpt lat="44.33342" lon="5.27127">
        <ele>494</ele>
      </trkpt>
      <trkpt lat="44.33297" lon="5.27072">
        <ele>497</ele>
      </trkpt>
      <trkpt lat="44.33281" lon="5.27057">
        <ele>499</ele>
      </trkpt>
      <trkpt lat="44.33253" lon="5.27045">
        <ele>505</ele>
      </trkpt>
      <trkpt lat="44.33248" lon="5.2704">
        <ele>505</ele>
      </trkpt>
      <trkpt lat="44.33246" lon="5.27033">
        <ele>505</ele>
      </trkpt>
      <trkpt lat="44.33244" lon="5.27023">
        <ele>505</ele>
      </trkpt>
      <trkpt lat="44.33248" lon="5.27001">
        <ele>505</ele>
      </trkpt>
      <trkpt lat="44.33247" lon="5.2698">
        <ele>505</ele>
      </trkpt>
      <trkpt lat="44.33215" lon="5.26876">
        <ele>513</ele>
      </trkpt>
      <trkpt lat="44.33209" lon="5.26835">
        <ele>513</ele>
      </trkpt>
      <trkpt lat="44.3321" lon="5.26817">
        <ele>513</ele>
      </trkpt>
      <trkpt lat="44.33213" lon="5.26797">
        <ele>513</ele>
      </trkpt>
      <trkpt lat="44.33229" lon="5.26718">
        <ele>517</ele>
      </trkpt>
      <trkpt lat="44.33232" lon="5.26695">
        <ele>516</ele>
      </trkpt>
      <trkpt lat="44.3323" lon="5.26685">
        <ele>518</ele>
      </trkpt>
      <trkpt lat="44.33225" lon="5.26679">
        <ele>518</ele>
      </trkpt>
      <trkpt lat="44.33221" lon="5.26678">
        <ele>519</ele>
      </trkpt>
      <trkpt lat="44.33214" lon="5.2668">
        <ele>519</ele>
      </trkpt>
      <trkpt lat="44.33203" lon="5.267">
        <ele>521</ele>
      </trkpt>
      <trkpt lat="44.33188" lon="5.26719">
        <ele>520</ele>
      </trkpt>
      <trkpt lat="44.33154" lon="5.26748">
        <ele>524</ele>
      </trkpt>
      <trkpt lat="44.33139" lon="5.26758">
        <ele>526</ele>
      </trkpt>
      <trkpt lat="44.33079" lon="5.26791">
        <ele>533</ele>
      </trkpt>
      <trkpt lat="44.33067" lon="5.26794">
        <ele>534</ele>
      </trkpt>
      <trkpt lat="44.33056" lon="5.26794">
        <ele>536</ele>
      </trkpt>
      <trkpt lat="44.33008" lon="5.26785">
        <ele>539</ele>
      </trkpt>
      <trkpt lat="44.32999" lon="5.26785">
        <ele>539</ele>
      </trkpt>
      <trkpt lat="44.32993" lon="5.26786">
        <ele>538</ele>
      </trkpt>
      <trkpt lat="44.32958" lon="5.26813">
        <ele>540</ele>
      </trkpt>
      <trkpt lat="44.32948" lon="5.26814">
        <ele>541</ele>
      </trkpt>
      <trkpt lat="44.32944" lon="5.26811">
        <ele>542</ele>
      </trkpt>
      <trkpt lat="44.32942" lon="5.26805">
        <ele>543</ele>
      </trkpt>
      <trkpt lat="44.32944" lon="5.26793">
        <ele>543</ele>
      </trkpt>
      <trkpt lat="44.32955" lon="5.26773">
        <ele>542</ele>
      </trkpt>
      <trkpt lat="44.32961" lon="5.26755">
        <ele>543</ele>
      </trkpt>
      <trkpt lat="44.32979" lon="5.26662">
        <ele>549</ele>
      </trkpt>
      <trkpt lat="44.3299" lon="5.2657">
        <ele>550</ele>
      </trkpt>
      <trkpt lat="44.32989" lon="5.26539">
        <ele>551</ele>
      </trkpt>
      <trkpt lat="44.32985" lon="5.26525">
        <ele>552</ele>
      </trkpt>
      <trkpt lat="44.32949" lon="5.26463">
        <ele>561</ele>
      </trkpt>
      <trkpt lat="44.32936" lon="5.26428">
        <ele>561</ele>
      </trkpt>
      <trkpt lat="44.32908" lon="5.26334">
        <ele>561</ele>
      </trkpt>
      <trkpt lat="44.32901" lon="5.26318">
        <ele>561</ele>
      </trkpt>
      <trkpt lat="44.32892" lon="5.26305">
        <ele>565</ele>
      </trkpt>
      <trkpt lat="44.32849" lon="5.26252">
        <ele>570</ele>
      </trkpt>
      <trkpt lat="44.3284" lon="5.26249">
        <ele>575</ele>
      </trkpt>
      <trkpt lat="44.32834" lon="5.26251">
        <ele>575</ele>
      </trkpt>
      <trkpt lat="44.32829" lon="5.26256">
        <ele>576</ele>
      </trkpt>
      <trkpt lat="44.32812" lon="5.26302">
        <ele>578</ele>
      </trkpt>
      <trkpt lat="44.32802" lon="5.26319">
        <ele>578</ele>
      </trkpt>
      <trkpt lat="44.32788" lon="5.26337">
        <ele>578</ele>
      </trkpt>
      <trkpt lat="44.32759" lon="5.26362">
        <ele>583</ele>
      </trkpt>
      <trkpt lat="44.32735" lon="5.26374">
        <ele>583</ele>
      </trkpt>
      <trkpt lat="44.32714" lon="5.26377">
        <ele>586</ele>
      </trkpt>
      <trkpt lat="44.32694" lon="5.26375">
        <ele>588</ele>
      </trkpt>
      <trkpt lat="44.3264" lon="5.26364">
        <ele>592</ele>
      </trkpt>
      <trkpt lat="44.32623" lon="5.26355">
        <ele>592</ele>
      </trkpt>
      <trkpt lat="44.32608" lon="5.26343">
        <ele>591</ele>
      </trkpt>
      <trkpt lat="44.32594" lon="5.26325">
        <ele>595</ele>
      </trkpt>
      <trkpt lat="44.32571" lon="5.26287">
        <ele>599</ele>
      </trkpt>
      <trkpt lat="44.32559" lon="5.26271">
        <ele>601</ele>
      </trkpt>
      <trkpt lat="44.32538" lon="5.26257">
        <ele>603</ele>
      </trkpt>
      <trkpt lat="44.32528" lon="5.26255">
        <ele>602</ele>
      </trkpt>
      <trkpt lat="44.32502" lon="5.26264">
        <ele>599</ele>
      </trkpt>
      <trkpt lat="44.32493" lon="5.26264">
        <ele>599</ele>
      </trkpt>
      <trkpt lat="44.32482" lon="5.26261">
        <ele>600</ele>
      </trkpt>
      <trkpt lat="44.32444" lon="5.26236">
        <ele>607</ele>
      </trkpt>
      <trkpt lat="44.32424" lon="5.26234">
        <ele>608</ele>
      </trkpt>
      <trkpt lat="44.32407" lon="5.26239">
        <ele>608</ele>
      </trkpt>
      <trkpt lat="44.32393" lon="5.26249">
        <ele>609</ele>
      </trkpt>
      <trkpt lat="44.32387" lon="5.26257">
        <ele>609</ele>
      </trkpt>
      <trkpt lat="44.32381" lon="5.26282">
        <ele>608</ele>
      </trkpt>
      <trkpt lat="44.32386" lon="5.26335">
        <ele>608</ele>
      </trkpt>
      <trkpt lat="44.32383" lon="5.26343">
        <ele>607</ele>
      </trkpt>
      <trkpt lat="44.32378" lon="5.2635">
        <ele>607</ele>
      </trkpt>
      <trkpt lat="44.32373" lon="5.26352">
        <ele>607</ele>
      </trkpt>
      <trkpt lat="44.32363" lon="5.26353">
        <ele>610</ele>
      </trkpt>
      <trkpt lat="44.32331" lon="5.26346">
        <ele>613</ele>
      </trkpt>
      <trkpt lat="44.32318" lon="5.26348">
        <ele>614</ele>
      </trkpt>
      <trkpt lat="44.32308" lon="5.26352">
        <ele>616</ele>
      </trkpt>
      <trkpt lat="44.32265" lon="5.26394">
        <ele>615</ele>
      </trkpt>
      <trkpt lat="44.32254" lon="5.26402">
        <ele>616</ele>
      </trkpt>
      <trkpt lat="44.32242" lon="5.26406">
        <ele>616</ele>
      </trkpt>
      <trkpt lat="44.3223" lon="5.26404">
        <ele>619</ele>
      </trkpt>
      <trkpt lat="44.3222" lon="5.26399">
        <ele>620</ele>
      </trkpt>
      <trkpt lat="44.32209" lon="5.2639">
        <ele>624</ele>
      </trkpt>
      <trkpt lat="44.32198" lon="5.26377">
        <ele>626</ele>
      </trkpt>
      <trkpt lat="44.32145" lon="5.26284">
        <ele>636</ele>
      </trkpt>
      <trkpt lat="44.32134" lon="5.26271">
        <ele>637</ele>
      </trkpt>
      <trkpt lat="44.32122" lon="5.26263">
        <ele>637</ele>
      </trkpt>
      <trkpt lat="44.32109" lon="5.26257">
        <ele>638</ele>
      </trkpt>
      <trkpt lat="44.32094" lon="5.26256">
        <ele>638</ele>
      </trkpt>
      <trkpt lat="44.32079" lon="5.26259">
        <ele>635</ele>
      </trkpt>
      <trkpt lat="44.32066" lon="5.26266">
        <ele>635</ele>
      </trkpt>
      <trkpt lat="44.3205" lon="5.26284">
        <ele>634</ele>
      </trkpt>
      <trkpt lat="44.32012" lon="5.26336">
        <ele>633</ele>
      </trkpt>
      <trkpt lat="44.31991" lon="5.26405">
        <ele>633</ele>
      </trkpt>
      <trkpt lat="44.31982" lon="5.26421">
        <ele>633</ele>
      </trkpt>
      <trkpt lat="44.31973" lon="5.26432">
        <ele>634</ele>
      </trkpt>
      <trkpt lat="44.31949" lon="5.2645">
        <ele>638</ele>
      </trkpt>
      <trkpt lat="44.31934" lon="5.26459">
        <ele>637</ele>
      </trkpt>
      <trkpt lat="44.31924" lon="5.26468">
        <ele>641</ele>
      </trkpt>
      <trkpt lat="44.31913" lon="5.2649">
        <ele>640</ele>
      </trkpt>
      <trkpt lat="44.31893" lon="5.26543">
        <ele>642</ele>
      </trkpt>
      <trkpt lat="44.31886" lon="5.26552">
        <ele>642</ele>
      </trkpt>
      <trkpt lat="44.31845" lon="5.26581">
        <ele>645</ele>
      </trkpt>
      <trkpt lat="44.31801" lon="5.26642">
        <ele>648</ele>
      </trkpt>
      <trkpt lat="44.31736" lon="5.26696">
        <ele>653</ele>
      </trkpt>
      <trkpt lat="44.31715" lon="5.26725">
        <ele>653</ele>
      </trkpt>
      <trkpt lat="44.31614" lon="5.26841">
        <ele>658</ele>
      </trkpt>
      <trkpt lat="44.31605" lon="5.26849">
        <ele>658</ele>
      </trkpt>
      <trkpt lat="44.31593" lon="5.26855">
        <ele>659</ele>
      </trkpt>
      <trkpt lat="44.31557" lon="5.26864">
        <ele>668</ele>
      </trkpt>
      <trkpt lat="44.3154" lon="5.26873">
        <ele>667</ele>
      </trkpt>
      <trkpt lat="44.31514" lon="5.26902">
        <ele>667</ele>
      </trkpt>
      <trkpt lat="44.31503" lon="5.26909">
        <ele>668</ele>
      </trkpt>
      <trkpt lat="44.3145" lon="5.26908">
        <ele>674</ele>
      </trkpt>
      <trkpt lat="44.31441" lon="5.26911">
        <ele>674</ele>
      </trkpt>
      <trkpt lat="44.31428" lon="5.26929">
        <ele>670</ele>
      </trkpt>
      <trkpt lat="44.31367" lon="5.27044">
        <ele>681</ele>
      </trkpt>
      <trkpt lat="44.31344" lon="5.27084">
        <ele>681</ele>
      </trkpt>
      <trkpt lat="44.31334" lon="5.27105">
        <ele>685</ele>
      </trkpt>
      <trkpt lat="44.31327" lon="5.27128">
        <ele>683</ele>
      </trkpt>
      <trkpt lat="44.31318" lon="5.27173">
        <ele>682</ele>
      </trkpt>
      <trkpt lat="44.31285" lon="5.27258">
        <ele>690</ele>
      </trkpt>
      <trkpt lat="44.3128" lon="5.27279">
        <ele>690</ele>
      </trkpt>
      <trkpt lat="44.31278" lon="5.27308">
        <ele>692</ele>
      </trkpt>
      <trkpt lat="44.3128" lon="5.27329">
        <ele>694</ele>
      </trkpt>
      <trkpt lat="44.31284" lon="5.27347">
        <ele>696</ele>
      </trkpt>
      <trkpt lat="44.313" lon="5.27393">
        <ele>691</ele>
      </trkpt>
      <trkpt lat="44.31304" lon="5.27414">
        <ele>692</ele>
      </trkpt>
      <trkpt lat="44.31305" lon="5.27447">
        <ele>693</ele>
      </trkpt>
      <trkpt lat="44.31299" lon="5.2757">
        <ele>698</ele>
      </trkpt>
      <trkpt lat="44.31294" lon="5.27628">
        <ele>697</ele>
      </trkpt>
      <trkpt lat="44.31279" lon="5.27751">
        <ele>705</ele>
      </trkpt>
      <trkpt lat="44.31275" lon="5.27765">
        <ele>706</ele>
      </trkpt>
      <trkpt lat="44.3127" lon="5.27768">
        <ele>707</ele>
      </trkpt>
      <trkpt lat="44.31265" lon="5.2776">
        <ele>707</ele>
      </trkpt>
      <trkpt lat="44.31253" lon="5.27696">
        <ele>711</ele>
      </trkpt>
      <trkpt lat="44.31235" lon="5.27637">
        <ele>710</ele>
      </trkpt>
      <trkpt lat="44.31217" lon="5.27547">
        <ele>714</ele>
      </trkpt>
      <trkpt lat="44.31205" lon="5.27498">
        <ele>714</ele>
      </trkpt>
      <trkpt lat="44.31182" lon="5.2743">
        <ele>715</ele>
      </trkpt>
      <trkpt lat="44.31166" lon="5.27393">
        <ele>711</ele>
      </trkpt>
      <trkpt lat="44.3114" lon="5.27345">
        <ele>705</ele>
      </trkpt>
      <trkpt lat="44.3113" lon="5.27319">
        <ele>708</ele>
      </trkpt>
      <trkpt lat="44.31127" lon="5.27314">
        <ele>708</ele>
      </trkpt>
      <trkpt lat="44.31123" lon="5.27311">
        <ele>709</ele>
      </trkpt>
      <trkpt lat="44.31119" lon="5.27312">
        <ele>702</ele>
      </trkpt>
      <trkpt lat="44.31116" lon="5.27318">
        <ele>698</ele>
      </trkpt>
      <trkpt lat="44.31117" lon="5.27327">
        <ele>698</ele>
      </trkpt>
      <trkpt lat="44.31127" lon="5.27344">
        <ele>703</ele>
      </trkpt>
      <trkpt lat="44.31139" lon="5.2737">
        <ele>701</ele>
      </trkpt>
      <trkpt lat="44.31156" lon="5.27435">
        <ele>704</ele>
      </trkpt>
      <trkpt lat="44.31166" lon="5.27488">
        <ele>697</ele>
      </trkpt>
      <trkpt lat="44.31171" lon="5.27544">
        <ele>693</ele>
      </trkpt>
      <trkpt lat="44.31173" lon="5.27588">
        <ele>693</ele>
      </trkpt>
      <trkpt lat="44.3117" lon="5.27614">
        <ele>692</ele>
      </trkpt>
      <trkpt lat="44.31164" lon="5.27648">
        <ele>691</ele>
      </trkpt>
      <trkpt lat="44.31161" lon="5.27675">
        <ele>691</ele>
      </trkpt>
      <trkpt lat="44.31155" lon="5.27692">
        <ele>690</ele>
      </trkpt>
      <trkpt lat="44.31147" lon="5.27696">
        <ele>685</ele>
      </trkpt>
      <trkpt lat="44.3114" lon="5.2769">
        <ele>683</ele>
      </trkpt>
      <trkpt lat="44.31136" lon="5.27683">
        <ele>683</ele>
      </trkpt>
      <trkpt lat="44.31126" lon="5.27641">
        <ele>680</ele>
      </trkpt>
      <trkpt lat="44.31118" lon="5.27618">
        <ele>675</ele>
      </trkpt>
      <trkpt lat="44.31098" lon="5.27584">
        <ele>671</ele>
      </trkpt>
      <trkpt lat="44.31052" lon="5.27496">
        <ele>660</ele>
      </trkpt>
      <trkpt lat="44.31045" lon="5.27489">
        <ele>660</ele>
      </trkpt>
      <trkpt lat="44.31038" lon="5.27486">
        <ele>659</ele>
      </trkpt>
      <trkpt lat="44.31033" lon="5.27487">
        <ele>659</ele>
      </trkpt>
      <trkpt lat="44.31018" lon="5.27501">
        <ele>659</ele>
      </trkpt>
      <trkpt lat="44.31012" lon="5.27504">
        <ele>660</ele>
      </trkpt>
      <trkpt lat="44.31005" lon="5.27502">
        <ele>660</ele>
      </trkpt>
      <trkpt lat="44.30999" lon="5.27496">
        <ele>659</ele>
      </trkpt>
      <trkpt lat="44.30984" lon="5.27464">
        <ele>654</ele>
      </trkpt>
      <trkpt lat="44.30974" lon="5.2745">
        <ele>650</ele>
      </trkpt>
      <trkpt lat="44.30928" lon="5.27406">
        <ele>645</ele>
      </trkpt>
      <trkpt lat="44.30919" lon="5.27402">
        <ele>646</ele>
      </trkpt>
      <trkpt lat="44.30912" lon="5.27404">
        <ele>646</ele>
      </trkpt>
      <trkpt lat="44.30906" lon="5.27408">
        <ele>646</ele>
      </trkpt>
      <trkpt lat="44.309" lon="5.27419">
        <ele>647</ele>
      </trkpt>
      <trkpt lat="44.30887" lon="5.27462">
        <ele>658</ele>
      </trkpt>
      <trkpt lat="44.30875" lon="5.27515">
        <ele>665</ele>
      </trkpt>
      <trkpt lat="44.3087" lon="5.27525">
        <ele>665</ele>
      </trkpt>
      <trkpt lat="44.30865" lon="5.27528">
        <ele>659</ele>
      </trkpt>
      <trkpt lat="44.30855" lon="5.27528">
        <ele>658</ele>
      </trkpt>
      <trkpt lat="44.30851" lon="5.27525">
        <ele>657</ele>
      </trkpt>
      <trkpt lat="44.30826" lon="5.27492">
        <ele>646</ele>
      </trkpt>
      <trkpt lat="44.30808" lon="5.27475">
        <ele>637</ele>
      </trkpt>
      <trkpt lat="44.3078" lon="5.27463">
        <ele>634</ele>
      </trkpt>
      <trkpt lat="44.30739" lon="5.2743">
        <ele>627</ele>
      </trkpt>
      <trkpt lat="44.30698" lon="5.27411">
        <ele>627</ele>
      </trkpt>
      <trkpt lat="44.30687" lon="5.27403">
        <ele>626</ele>
      </trkpt>
      <trkpt lat="44.30668" lon="5.27386">
        <ele>622</ele>
      </trkpt>
      <trkpt lat="44.30631" lon="5.27332">
        <ele>609</ele>
      </trkpt>
      <trkpt lat="44.30623" lon="5.27328">
        <ele>610</ele>
      </trkpt>
      <trkpt lat="44.30599" lon="5.27322">
        <ele>616</ele>
      </trkpt>
      <trkpt lat="44.30588" lon="5.27323">
        <ele>622</ele>
      </trkpt>
      <trkpt lat="44.30574" lon="5.27328">
        <ele>624</ele>
      </trkpt>
      <trkpt lat="44.30563" lon="5.27339">
        <ele>626</ele>
      </trkpt>
      <trkpt lat="44.30549" lon="5.2736">
        <ele>635</ele>
      </trkpt>
      <trkpt lat="44.30539" lon="5.27373">
        <ele>642</ele>
      </trkpt>
      <trkpt lat="44.3053" lon="5.27381">
        <ele>636</ele>
      </trkpt>
      <trkpt lat="44.30496" lon="5.274">
        <ele>632</ele>
      </trkpt>
      <trkpt lat="44.3048" lon="5.27415">
        <ele>625</ele>
      </trkpt>
      <trkpt lat="44.30458" lon="5.27447">
        <ele>632</ele>
      </trkpt>
      <trkpt lat="44.3045" lon="5.27454">
        <ele>632</ele>
      </trkpt>
      <trkpt lat="44.30441" lon="5.27456">
        <ele>631</ele>
      </trkpt>
      <trkpt lat="44.30425" lon="5.27451">
        <ele>621</ele>
      </trkpt>
      <trkpt lat="44.30417" lon="5.27445">
        <ele>620</ele>
      </trkpt>
      <trkpt lat="44.30389" lon="5.27418">
        <ele>610</ele>
      </trkpt>
      <trkpt lat="44.30353" lon="5.27373">
        <ele>604</ele>
      </trkpt>
      <trkpt lat="44.30333" lon="5.27353">
        <ele>602</ele>
      </trkpt>
      <trkpt lat="44.30324" lon="5.27348">
        <ele>602</ele>
      </trkpt>
      <trkpt lat="44.3031" lon="5.27346">
        <ele>604</ele>
      </trkpt>
      <trkpt lat="44.30286" lon="5.27348">
        <ele>605</ele>
      </trkpt>
      <trkpt lat="44.30269" lon="5.27356">
        <ele>606</ele>
      </trkpt>
      <trkpt lat="44.30207" lon="5.27395">
        <ele>605</ele>
      </trkpt>
      <trkpt lat="44.30193" lon="5.27411">
        <ele>603</ele>
      </trkpt>
      <trkpt lat="44.30181" lon="5.27456">
        <ele>609</ele>
      </trkpt>
      <trkpt lat="44.30177" lon="5.2748">
        <ele>611</ele>
      </trkpt>
      <trkpt lat="44.30176" lon="5.27511">
        <ele>614</ele>
      </trkpt>
      <trkpt lat="44.30172" lon="5.27525">
        <ele>606</ele>
      </trkpt>
      <trkpt lat="44.30121" lon="5.27596">
        <ele>606</ele>
      </trkpt>
      <trkpt lat="44.30105" lon="5.27636">
        <ele>600</ele>
      </trkpt>
      <trkpt lat="44.30088" lon="5.27728">
        <ele>599</ele>
      </trkpt>
      <trkpt lat="44.30075" lon="5.2778">
        <ele>597</ele>
      </trkpt>
      <trkpt lat="44.3007" lon="5.27812">
        <ele>593</ele>
      </trkpt>
      <trkpt lat="44.30069" lon="5.2783">
        <ele>589</ele>
      </trkpt>
      <trkpt lat="44.3007" lon="5.27849">
        <ele>585</ele>
      </trkpt>
      <trkpt lat="44.30074" lon="5.27863">
        <ele>585</ele>
      </trkpt>
      <trkpt lat="44.30091" lon="5.27895">
        <ele>584</ele>
      </trkpt>
      <trkpt lat="44.30107" lon="5.27913">
        <ele>592</ele>
      </trkpt>
      <trkpt lat="44.30111" lon="5.2792">
        <ele>592</ele>
      </trkpt>
      <trkpt lat="44.30116" lon="5.27949">
        <ele>589</ele>
      </trkpt>
      <trkpt lat="44.30121" lon="5.27962">
        <ele>596</ele>
      </trkpt>
      <trkpt lat="44.30132" lon="5.27984">
        <ele>597</ele>
      </trkpt>
      <trkpt lat="44.30135" lon="5.27996">
        <ele>597</ele>
      </trkpt>
      <trkpt lat="44.30133" lon="5.28009">
        <ele>598</ele>
      </trkpt>
      <trkpt lat="44.3012" lon="5.28036">
        <ele>595</ele>
      </trkpt>
      <trkpt lat="44.30118" lon="5.28048">
        <ele>583</ele>
      </trkpt>
      <trkpt lat="44.30117" lon="5.28061">
        <ele>582</ele>
      </trkpt>
      <trkpt lat="44.30122" lon="5.28104">
        <ele>594</ele>
      </trkpt>
      <trkpt lat="44.30135" lon="5.28162">
        <ele>599</ele>
      </trkpt>
      <trkpt lat="44.30134" lon="5.28172">
        <ele>598</ele>
      </trkpt>
      <trkpt lat="44.30129" lon="5.28186">
        <ele>598</ele>
      </trkpt>
      <trkpt lat="44.30115" lon="5.28204">
        <ele>578</ele>
      </trkpt>
      <trkpt lat="44.30069" lon="5.2827">
        <ele>571</ele>
      </trkpt>
      <trkpt lat="44.30056" lon="5.28293">
        <ele>565</ele>
      </trkpt>
      <trkpt lat="44.30051" lon="5.28311">
        <ele>565</ele>
      </trkpt>
      <trkpt lat="44.30048" lon="5.28332">
        <ele>567</ele>
      </trkpt>
      <trkpt lat="44.30047" lon="5.28357">
        <ele>567</ele>
      </trkpt>
      <trkpt lat="44.30048" lon="5.28377">
        <ele>565</ele>
      </trkpt>
      <trkpt lat="44.30064" lon="5.28448">
        <ele>565</ele>
      </trkpt>
      <trkpt lat="44.30068" lon="5.28486">
        <ele>559</ele>
      </trkpt>
      <trkpt lat="44.30072" lon="5.28503">
        <ele>559</ele>
      </trkpt>
      <trkpt lat="44.30088" lon="5.28526">
        <ele>557</ele>
      </trkpt>
      <trkpt lat="44.30093" lon="5.28537">
        <ele>563</ele>
      </trkpt>
      <trkpt lat="44.30096" lon="5.28566">
        <ele>559</ele>
      </trkpt>
      <trkpt lat="44.301" lon="5.28581">
        <ele>559</ele>
      </trkpt>
      <trkpt lat="44.30113" lon="5.28606">
        <ele>556</ele>
      </trkpt>
      <trkpt lat="44.30117" lon="5.28619">
        <ele>556</ele>
      </trkpt>
      <trkpt lat="44.30117" lon="5.28633">
        <ele>552</ele>
      </trkpt>
      <trkpt lat="44.30114" lon="5.28651">
        <ele>545</ele>
      </trkpt>
      <trkpt lat="44.30113" lon="5.28666">
        <ele>543</ele>
      </trkpt>
      <trkpt lat="44.30119" lon="5.28684">
        <ele>537</ele>
      </trkpt>
      <trkpt lat="44.30133" lon="5.28706">
        <ele>535</ele>
      </trkpt>
      <trkpt lat="44.30142" lon="5.28715">
        <ele>534</ele>
      </trkpt>
      <trkpt lat="44.30153" lon="5.28719">
        <ele>539</ele>
      </trkpt>
      <trkpt lat="44.30184" lon="5.28725">
        <ele>546</ele>
      </trkpt>
      <trkpt lat="44.30193" lon="5.28734">
        <ele>540</ele>
      </trkpt>
      <trkpt lat="44.3021" lon="5.28755">
        <ele>547</ele>
      </trkpt>
      <trkpt lat="44.3022" lon="5.28772">
        <ele>543</ele>
      </trkpt>
      <trkpt lat="44.3023" lon="5.28801">
        <ele>537</ele>
      </trkpt>
      <trkpt lat="44.30249" lon="5.28822">
        <ele>540</ele>
      </trkpt>
      <trkpt lat="44.30259" lon="5.28845">
        <ele>545</ele>
      </trkpt>
      <trkpt lat="44.30281" lon="5.28933">
        <ele>535</ele>
      </trkpt>
      <trkpt lat="44.30283" lon="5.28944">
        <ele>534</ele>
      </trkpt>
      <trkpt lat="44.30277" lon="5.28974">
        <ele>528</ele>
      </trkpt>
      <trkpt lat="44.30276" lon="5.28989">
        <ele>525</ele>
      </trkpt>
      <trkpt lat="44.30277" lon="5.29003">
        <ele>525</ele>
      </trkpt>
      <trkpt lat="44.30285" lon="5.2904">
        <ele>521</ele>
      </trkpt>
      <trkpt lat="44.3029" lon="5.29094">
        <ele>522</ele>
      </trkpt>
      <trkpt lat="44.30294" lon="5.29114">
        <ele>522</ele>
      </trkpt>
      <trkpt lat="44.30299" lon="5.29128">
        <ele>519</ele>
      </trkpt>
      <trkpt lat="44.30324" lon="5.29156">
        <ele>524</ele>
      </trkpt>
      <trkpt lat="44.3033" lon="5.29166">
        <ele>525</ele>
      </trkpt>
      <trkpt lat="44.30333" lon="5.29179">
        <ele>522</ele>
      </trkpt>
      <trkpt lat="44.30335" lon="5.29232">
        <ele>517</ele>
      </trkpt>
      <trkpt lat="44.30334" lon="5.29252">
        <ele>517</ele>
      </trkpt>
      <trkpt lat="44.3033" lon="5.2927">
        <ele>516</ele>
      </trkpt>
      <trkpt lat="44.30322" lon="5.29285">
        <ele>516</ele>
      </trkpt>
      <trkpt lat="44.30312" lon="5.29295">
        <ele>510</ele>
      </trkpt>
      <trkpt lat="44.30297" lon="5.29308">
        <ele>508</ele>
      </trkpt>
      <trkpt lat="44.30288" lon="5.29312">
        <ele>508</ele>
      </trkpt>
      <trkpt lat="44.30257" lon="5.29313">
        <ele>498</ele>
      </trkpt>
      <trkpt lat="44.30235" lon="5.29311">
        <ele>496</ele>
      </trkpt>
      <trkpt lat="44.3023" lon="5.29308">
        <ele>493</ele>
      </trkpt>
      <trkpt lat="44.30229" lon="5.29303">
        <ele>492</ele>
      </trkpt>
      <trkpt lat="44.30234" lon="5.29286">
        <ele>495</ele>
      </trkpt>
      <trkpt lat="44.30234" lon="5.29272">
        <ele>493</ele>
      </trkpt>
      <trkpt lat="44.30231" lon="5.29248">
        <ele>493</ele>
      </trkpt>
      <trkpt lat="44.30186" lon="5.29132">
        <ele>490</ele>
      </trkpt>
      <trkpt lat="44.30176" lon="5.2911">
        <ele>490</ele>
      </trkpt>
      <trkpt lat="44.30158" lon="5.29081">
        <ele>485</ele>
      </trkpt>
      <trkpt lat="44.30147" lon="5.29052">
        <ele>481</ele>
      </trkpt>
      <trkpt lat="44.30125" lon="5.28967">
        <ele>481</ele>
      </trkpt>
      <trkpt lat="44.30121" lon="5.28947">
        <ele>482</ele>
      </trkpt>
      <trkpt lat="44.30118" lon="5.28926">
        <ele>476</ele>
      </trkpt>
      <trkpt lat="44.30115" lon="5.28916">
        <ele>478</ele>
      </trkpt>
      <trkpt lat="44.30105" lon="5.28894">
        <ele>479</ele>
      </trkpt>
      <trkpt lat="44.30102" lon="5.28885">
        <ele>478</ele>
      </trkpt>
      <trkpt lat="44.30102" lon="5.28873">
        <ele>479</ele>
      </trkpt>
      <trkpt lat="44.30104" lon="5.28856">
        <ele>481</ele>
      </trkpt>
      <trkpt lat="44.30103" lon="5.28843">
        <ele>483</ele>
      </trkpt>
      <trkpt lat="44.301" lon="5.28833">
        <ele>487</ele>
      </trkpt>
      <trkpt lat="44.30047" lon="5.2875">
        <ele>483</ele>
      </trkpt>
      <trkpt lat="44.30017" lon="5.28699">
        <ele>481</ele>
      </trkpt>
      <trkpt lat="44.30012" lon="5.28689">
        <ele>480</ele>
      </trkpt>
      <trkpt lat="44.30001" lon="5.28657">
        <ele>475</ele>
      </trkpt>
      <trkpt lat="44.29989" lon="5.28637">
        <ele>482</ele>
      </trkpt>
      <trkpt lat="44.29983" lon="5.28631">
        <ele>482</ele>
      </trkpt>
      <trkpt lat="44.29962" lon="5.28621">
        <ele>469</ele>
      </trkpt>
      <trkpt lat="44.29948" lon="5.28612">
        <ele>463</ele>
      </trkpt>
      <trkpt lat="44.29909" lon="5.2857">
        <ele>459</ele>
      </trkpt>
      <trkpt lat="44.29816" lon="5.28434">
        <ele>461</ele>
      </trkpt>
      <trkpt lat="44.29761" lon="5.28388">
        <ele>442</ele>
      </trkpt>
      <trkpt lat="44.29741" lon="5.28367">
        <ele>435</ele>
      </trkpt>
      <trkpt lat="44.29735" lon="5.28357">
        <ele>434</ele>
      </trkpt>
      <trkpt lat="44.29734" lon="5.28347">
        <ele>434</ele>
      </trkpt>
      <trkpt lat="44.29736" lon="5.28338">
        <ele>435</ele>
      </trkpt>
      <trkpt lat="44.29752" lon="5.28303">
        <ele>437</ele>
      </trkpt>
      <trkpt lat="44.29754" lon="5.28291">
        <ele>437</ele>
      </trkpt>
      <trkpt lat="44.29753" lon="5.2828">
        <ele>437</ele>
      </trkpt>
      <trkpt lat="44.29749" lon="5.2827">
        <ele>436</ele>
      </trkpt>
      <trkpt lat="44.29737" lon="5.28259">
        <ele>436</ele>
      </trkpt>
      <trkpt lat="44.29714" lon="5.28243">
        <ele>431</ele>
      </trkpt>
      <trkpt lat="44.29695" lon="5.28233">
        <ele>426</ele>
      </trkpt>
      <trkpt lat="44.29656" lon="5.28222">
        <ele>424</ele>
      </trkpt>
      <trkpt lat="44.29616" lon="5.28198">
        <ele>416</ele>
      </trkpt>
      <trkpt lat="44.2961" lon="5.28198">
        <ele>415</ele>
      </trkpt>
      <trkpt lat="44.29606" lon="5.28201">
        <ele>415</ele>
      </trkpt>
      <trkpt lat="44.29604" lon="5.28206">
        <ele>414</ele>
      </trkpt>
      <trkpt lat="44.29604" lon="5.28213">
        <ele>414</ele>
      </trkpt>
      <trkpt lat="44.29607" lon="5.28217">
        <ele>414</ele>
      </trkpt>
      <trkpt lat="44.29621" lon="5.28224">
        <ele>418</ele>
      </trkpt>
      <trkpt lat="44.29642" lon="5.28232">
        <ele>417</ele>
      </trkpt>
      <trkpt lat="44.29646" lon="5.28239">
        <ele>417</ele>
      </trkpt>
      <trkpt lat="44.29648" lon="5.28247">
        <ele>419</ele>
      </trkpt>
      <trkpt lat="44.29644" lon="5.28262">
        <ele>414</ele>
      </trkpt>
      <trkpt lat="44.29551" lon="5.28195">
        <ele>406</ele>
      </trkpt>
      <trkpt lat="44.29469" lon="5.28181">
        <ele>405</ele>
      </trkpt>
      <trkpt lat="44.29462" lon="5.28176">
        <ele>405</ele>
      </trkpt>
      <trkpt lat="44.29455" lon="5.28166">
        <ele>405</ele>
      </trkpt>
      <trkpt lat="44.29452" lon="5.28156">
        <ele>406</ele>
      </trkpt>
      <trkpt lat="44.29443" lon="5.28107">
        <ele>411</ele>
      </trkpt>
      <trkpt lat="44.29436" lon="5.28084">
        <ele>415</ele>
      </trkpt>
      <trkpt lat="44.29429" lon="5.28057">
        <ele>419</ele>
      </trkpt>
      <trkpt lat="44.29424" lon="5.28048">
        <ele>416</ele>
      </trkpt>
      <trkpt lat="44.29421" lon="5.28042">
        <ele>416</ele>
      </trkpt>
      <trkpt lat="44.29386" lon="5.2801">
        <ele>416</ele>
      </trkpt>
      <trkpt lat="44.29372" lon="5.28003">
        <ele>419</ele>
      </trkpt>
      <trkpt lat="44.29366" lon="5.28002">
        <ele>415</ele>
      </trkpt>
      <trkpt lat="44.29358" lon="5.28005">
        <ele>414</ele>
      </trkpt>
      <trkpt lat="44.29248" lon="5.28069">
        <ele>417</ele>
      </trkpt>
      <trkpt lat="44.29173" lon="5.28086">
        <ele>401</ele>
      </trkpt>
      <trkpt lat="44.29137" lon="5.28104">
        <ele>402</ele>
      </trkpt>
      <trkpt lat="44.29068" lon="5.28118">
        <ele>400</ele>
      </trkpt>
      <trkpt lat="44.29001" lon="5.28151">
        <ele>399</ele>
      </trkpt>
      <trkpt lat="44.28901" lon="5.28201">
        <ele>399</ele>
      </trkpt>
      <trkpt lat="44.28721" lon="5.28301">
        <ele>395</ele>
      </trkpt>
      <trkpt lat="44.28708" lon="5.28306">
        <ele>394</ele>
      </trkpt>
      <trkpt lat="44.28685" lon="5.28311">
        <ele>393</ele>
      </trkpt>
      <trkpt lat="44.28649" lon="5.28309">
        <ele>393</ele>
      </trkpt>
      <trkpt lat="44.28624" lon="5.2831">
        <ele>393</ele>
      </trkpt>
      <trkpt lat="44.28552" lon="5.28361">
        <ele>393</ele>
      </trkpt>
      <trkpt lat="44.28543" lon="5.28364">
        <ele>392</ele>
      </trkpt>
      <trkpt lat="44.28495" lon="5.28366">
        <ele>389</ele>
      </trkpt>
      <trkpt lat="44.28469" lon="5.28366">
        <ele>389</ele>
      </trkpt>
      <trkpt lat="44.28397" lon="5.28368">
        <ele>391</ele>
      </trkpt>
      <trkpt lat="44.28373" lon="5.28365">
        <ele>390</ele>
      </trkpt>
      <trkpt lat="44.28276" lon="5.28318">
        <ele>387</ele>
      </trkpt>
      <trkpt lat="44.28164" lon="5.28271">
        <ele>382</ele>
      </trkpt>
      <trkpt lat="44.28102" lon="5.28213">
        <ele>380</ele>
      </trkpt>
      <trkpt lat="44.28086" lon="5.28192">
        <ele>378</ele>
      </trkpt>
      <trkpt lat="44.28081" lon="5.28181">
        <ele>378</ele>
      </trkpt>
      <trkpt lat="44.28061" lon="5.2811">
        <ele>377</ele>
      </trkpt>
      <trkpt lat="44.28031" lon="5.28021">
        <ele>378</ele>
      </trkpt>
      <trkpt lat="44.28015" lon="5.27986">
        <ele>378</ele>
      </trkpt>
      <trkpt lat="44.27991" lon="5.27942">
        <ele>379</ele>
      </trkpt>
      <trkpt lat="44.2798" lon="5.27923">
        <ele>380</ele>
      </trkpt>
      <trkpt lat="44.2797" lon="5.27915">
        <ele>379</ele>
      </trkpt>
      <trkpt lat="44.27947" lon="5.27907">
        <ele>377</ele>
      </trkpt>
      <trkpt lat="44.27921" lon="5.27891">
        <ele>376</ele>
      </trkpt>
      <trkpt lat="44.2786" lon="5.27833">
        <ele>374</ele>
      </trkpt>
      <trkpt lat="44.27638" lon="5.27608">
        <ele>373</ele>
      </trkpt>
      <trkpt lat="44.27631" lon="5.27598">
        <ele>373</ele>
      </trkpt>
      <trkpt lat="44.27629" lon="5.27592">
        <ele>373</ele>
      </trkpt>
      <trkpt lat="44.27629" lon="5.27581">
        <ele>373</ele>
      </trkpt>
      <trkpt lat="44.27631" lon="5.27565">
        <ele>373</ele>
      </trkpt>
      <trkpt lat="44.27641" lon="5.27522">
        <ele>374</ele>
      </trkpt>
      <trkpt lat="44.27653" lon="5.27483">
        <ele>375</ele>
      </trkpt>
      <trkpt lat="44.27661" lon="5.27438">
        <ele>378</ele>
      </trkpt>
      <trkpt lat="44.27656" lon="5.27331">
        <ele>380</ele>
      </trkpt>
      <trkpt lat="44.27652" lon="5.27315">
        <ele>380</ele>
      </trkpt>
      <trkpt lat="44.27633" lon="5.27272">
        <ele>377</ele>
      </trkpt>
      <trkpt lat="44.27613" lon="5.2724">
        <ele>376</ele>
      </trkpt>
      <trkpt lat="44.27591" lon="5.27213">
        <ele>376</ele>
      </trkpt>
      <trkpt lat="44.27586" lon="5.27209">
        <ele>376</ele>
      </trkpt>
      <trkpt lat="44.2758" lon="5.27208">
        <ele>376</ele>
      </trkpt>
      <trkpt lat="44.27544" lon="5.27217">
        <ele>375</ele>
      </trkpt>
      <trkpt lat="44.27518" lon="5.27226">
        <ele>374</ele>
      </trkpt>
      <trkpt lat="44.27505" lon="5.27229">
        <ele>373</ele>
      </trkpt>
      <trkpt lat="44.27502" lon="5.27228">
        <ele>373</ele>
      </trkpt>
      <trkpt lat="44.27498" lon="5.27214">
        <ele>373</ele>
      </trkpt>
      <trkpt lat="44.27482" lon="5.27158">
        <ele>372</ele>
      </trkpt>
      <trkpt lat="44.27472" lon="5.27133">
        <ele>371</ele>
      </trkpt>
      <trkpt lat="44.27361" lon="5.26889">
        <ele>374</ele>
      </trkpt>
      <trkpt lat="44.27331" lon="5.26844">
        <ele>371</ele>
      </trkpt>
      <trkpt lat="44.27319" lon="5.26822">
        <ele>370</ele>
      </trkpt>
      <trkpt lat="44.27296" lon="5.268">
        <ele>368</ele>
      </trkpt>
      <trkpt lat="44.27281" lon="5.26789">
        <ele>368</ele>
      </trkpt>
      <trkpt lat="44.27117" lon="5.26624">
        <ele>363</ele>
      </trkpt>
      <trkpt lat="44.26975" lon="5.26485">
        <ele>360</ele>
      </trkpt>
      <trkpt lat="44.26824" lon="5.26337">
        <ele>364</ele>
      </trkpt>
      <trkpt lat="44.26828" lon="5.2633">
        <ele>365</ele>
      </trkpt>
      <trkpt lat="44.26837" lon="5.26292">
        <ele>368</ele>
      </trkpt>
      <trkpt lat="44.26847" lon="5.26271">
        <ele>373</ele>
      </trkpt>
      <trkpt lat="44.2687" lon="5.26243">
        <ele>377</ele>
      </trkpt>
      <trkpt lat="44.26918" lon="5.26197">
        <ele>376</ele>
      </trkpt>
      <trkpt lat="44.26934" lon="5.26188">
        <ele>381</ele>
      </trkpt>
      <trkpt lat="44.26947" lon="5.26177">
        <ele>383</ele>
      </trkpt>
      <trkpt lat="44.2696" lon="5.26159">
        <ele>390</ele>
      </trkpt>
      <trkpt lat="44.26993" lon="5.26076">
        <ele>394</ele>
      </trkpt>
      <trkpt lat="44.27005" lon="5.26039">
        <ele>387</ele>
      </trkpt>
      <trkpt lat="44.27014" lon="5.26017">
        <ele>387</ele>
      </trkpt>
      <trkpt lat="44.2703" lon="5.25994">
        <ele>382</ele>
      </trkpt>
      <trkpt lat="44.27054" lon="5.25971">
        <ele>379</ele>
      </trkpt>
      <trkpt lat="44.27083" lon="5.25945">
        <ele>377</ele>
      </trkpt>
      <trkpt lat="44.27133" lon="5.25887">
        <ele>376</ele>
      </trkpt>
      <trkpt lat="44.27142" lon="5.25872">
        <ele>377</ele>
      </trkpt>
      <trkpt lat="44.2716" lon="5.25833">
        <ele>376</ele>
      </trkpt>
      <trkpt lat="44.27169" lon="5.25816">
        <ele>376</ele>
      </trkpt>
      <trkpt lat="44.27198" lon="5.25783">
        <ele>375</ele>
      </trkpt>
      <trkpt lat="44.27221" lon="5.25715">
        <ele>378</ele>
      </trkpt>
      <trkpt lat="44.27256" lon="5.25639">
        <ele>380</ele>
      </trkpt>
      <trkpt lat="44.27302" lon="5.25547">
        <ele>385</ele>
      </trkpt>
      <trkpt lat="44.27382" lon="5.25377">
        <ele>383</ele>
      </trkpt>
      <trkpt lat="44.27404" lon="5.25325">
        <ele>384</ele>
      </trkpt>
      <trkpt lat="44.27418" lon="5.25279">
        <ele>382</ele>
      </trkpt>
      <trkpt lat="44.2743" lon="5.25252">
        <ele>382</ele>
      </trkpt>
      <trkpt lat="44.27446" lon="5.25225">
        <ele>379</ele>
      </trkpt>
      <trkpt lat="44.27452" lon="5.25213">
        <ele>379</ele>
      </trkpt>
      <trkpt lat="44.27585" lon="5.24975">
        <ele>384</ele>
      </trkpt>
      <trkpt lat="44.2763" lon="5.24886">
        <ele>387</ele>
      </trkpt>
      <trkpt lat="44.27688" lon="5.2478">
        <ele>388</ele>
      </trkpt>
      <trkpt lat="44.27772" lon="5.24625">
        <ele>391</ele>
      </trkpt>
      <trkpt lat="44.27777" lon="5.24612">
        <ele>392</ele>
      </trkpt>
      <trkpt lat="44.27789" lon="5.24556">
        <ele>394</ele>
      </trkpt>
      <trkpt lat="44.27811" lon="5.24508">
        <ele>393</ele>
      </trkpt>
      <trkpt lat="44.27818" lon="5.24486">
        <ele>396</ele>
      </trkpt>
      <trkpt lat="44.27822" lon="5.24464">
        <ele>396</ele>
      </trkpt>
      <trkpt lat="44.27827" lon="5.24404">
        <ele>398</ele>
      </trkpt>
      <trkpt lat="44.27835" lon="5.24364">
        <ele>396</ele>
      </trkpt>
      <trkpt lat="44.27848" lon="5.24333">
        <ele>397</ele>
      </trkpt>
      <trkpt lat="44.2786" lon="5.24308">
        <ele>396</ele>
      </trkpt>
      <trkpt lat="44.279" lon="5.24243">
        <ele>398</ele>
      </trkpt>
      <trkpt lat="44.27944" lon="5.24157">
        <ele>402</ele>
      </trkpt>
      <trkpt lat="44.27965" lon="5.24104">
        <ele>406</ele>
      </trkpt>
      <trkpt lat="44.28043" lon="5.23921">
        <ele>409</ele>
      </trkpt>
      <trkpt lat="44.28048" lon="5.23904">
        <ele>409</ele>
      </trkpt>
      <trkpt lat="44.28049" lon="5.23879">
        <ele>411</ele>
      </trkpt>
      <trkpt lat="44.2803" lon="5.23763">
        <ele>412</ele>
      </trkpt>
      <trkpt lat="44.2803" lon="5.23741">
        <ele>412</ele>
      </trkpt>
      <trkpt lat="44.2804" lon="5.23698">
        <ele>417</ele>
      </trkpt>
      <trkpt lat="44.28073" lon="5.23582">
        <ele>419</ele>
      </trkpt>
      <trkpt lat="44.28087" lon="5.23517">
        <ele>419</ele>
      </trkpt>
      <trkpt lat="44.28097" lon="5.23491">
        <ele>422</ele>
      </trkpt>
      <trkpt lat="44.28107" lon="5.23473">
        <ele>422</ele>
      </trkpt>
      <trkpt lat="44.2814" lon="5.23435">
        <ele>423</ele>
      </trkpt>
      <trkpt lat="44.28184" lon="5.23402">
        <ele>426</ele>
      </trkpt>
      <trkpt lat="44.28248" lon="5.23345">
        <ele>422</ele>
      </trkpt>
      <trkpt lat="44.28276" lon="5.23327">
        <ele>425</ele>
      </trkpt>
      <trkpt lat="44.28295" lon="5.2332">
        <ele>428</ele>
      </trkpt>
      <trkpt lat="44.28317" lon="5.23322">
        <ele>429</ele>
      </trkpt>
      <trkpt lat="44.28381" lon="5.23333">
        <ele>431</ele>
      </trkpt>
      <trkpt lat="44.28396" lon="5.23324">
        <ele>431</ele>
      </trkpt>
      <trkpt lat="44.28412" lon="5.23319">
        <ele>433</ele>
      </trkpt>
      <trkpt lat="44.28428" lon="5.23323">
        <ele>434</ele>
      </trkpt>
      <trkpt lat="44.28447" lon="5.23333">
        <ele>435</ele>
      </trkpt>
      <trkpt lat="44.28484" lon="5.23347">
        <ele>439</ele>
      </trkpt>
      <trkpt lat="44.28505" lon="5.23351">
        <ele>440</ele>
      </trkpt>
      <trkpt lat="44.28532" lon="5.23351">
        <ele>440</ele>
      </trkpt>
      <trkpt lat="44.28546" lon="5.23353">
        <ele>439</ele>
      </trkpt>
      <trkpt lat="44.28575" lon="5.23367">
        <ele>441</ele>
      </trkpt>
      <trkpt lat="44.28582" lon="5.23369">
        <ele>444</ele>
      </trkpt>
      <trkpt lat="44.28589" lon="5.23367">
        <ele>441</ele>
      </trkpt>
      <trkpt lat="44.28605" lon="5.23359">
        <ele>442</ele>
      </trkpt>
      <trkpt lat="44.28613" lon="5.23359">
        <ele>443</ele>
      </trkpt>
      <trkpt lat="44.28623" lon="5.23361">
        <ele>446</ele>
      </trkpt>
      <trkpt lat="44.28636" lon="5.2336">
        <ele>447</ele>
      </trkpt>
      <trkpt lat="44.28652" lon="5.23343">
        <ele>448</ele>
      </trkpt>
      <trkpt lat="44.28662" lon="5.23338">
        <ele>446</ele>
      </trkpt>
      <trkpt lat="44.2867" lon="5.23334">
        <ele>446</ele>
      </trkpt>
      <trkpt lat="44.28688" lon="5.23336">
        <ele>447</ele>
      </trkpt>
      <trkpt lat="44.28716" lon="5.2334">
        <ele>450</ele>
      </trkpt>
      <trkpt lat="44.28728" lon="5.23344">
        <ele>450</ele>
      </trkpt>
      <trkpt lat="44.28738" lon="5.23353">
        <ele>453</ele>
      </trkpt>
      <trkpt lat="44.28749" lon="5.23373">
        <ele>455</ele>
      </trkpt>
      <trkpt lat="44.28758" lon="5.23385">
        <ele>457</ele>
      </trkpt>
      <trkpt lat="44.28766" lon="5.23389">
        <ele>458</ele>
      </trkpt>
      <trkpt lat="44.28773" lon="5.23389">
        <ele>458</ele>
      </trkpt>
      <trkpt lat="44.28777" lon="5.23386">
        <ele>458</ele>
      </trkpt>
      <trkpt lat="44.28783" lon="5.23379">
        <ele>459</ele>
      </trkpt>
      <trkpt lat="44.28784" lon="5.23373">
        <ele>459</ele>
      </trkpt>
      <trkpt lat="44.28787" lon="5.23282">
        <ele>463</ele>
      </trkpt>
      <trkpt lat="44.28791" lon="5.23265">
        <ele>464</ele>
      </trkpt>
      <trkpt lat="44.28822" lon="5.23187">
        <ele>467</ele>
      </trkpt>
      <trkpt lat="44.28824" lon="5.23166">
        <ele>467</ele>
      </trkpt>
      <trkpt lat="44.2882" lon="5.23034">
        <ele>462</ele>
      </trkpt>
      <trkpt lat="44.28822" lon="5.23014">
        <ele>462</ele>
      </trkpt>
      <trkpt lat="44.2883" lon="5.22983">
        <ele>461</ele>
      </trkpt>
      <trkpt lat="44.28833" lon="5.22978">
        <ele>461</ele>
      </trkpt>
      <trkpt lat="44.28847" lon="5.22954">
        <ele>461</ele>
      </trkpt>
      <trkpt lat="44.28888" lon="5.22893">
        <ele>458</ele>
      </trkpt>
      <trkpt lat="44.28892" lon="5.22883">
        <ele>458</ele>
      </trkpt>
      <trkpt lat="44.28895" lon="5.22871">
        <ele>458</ele>
      </trkpt>
      <trkpt lat="44.28892" lon="5.22848">
        <ele>458</ele>
      </trkpt>
      <trkpt lat="44.28872" lon="5.22793">
        <ele>460</ele>
      </trkpt>
      <trkpt lat="44.28855" lon="5.22691">
        <ele>455</ele>
      </trkpt>
      <trkpt lat="44.28849" lon="5.22674">
        <ele>455</ele>
      </trkpt>
      <trkpt lat="44.28842" lon="5.22663">
        <ele>456</ele>
      </trkpt>
      <trkpt lat="44.28832" lon="5.22655">
        <ele>451</ele>
      </trkpt>
      <trkpt lat="44.28793" lon="5.22644">
        <ele>448</ele>
      </trkpt>
      <trkpt lat="44.28784" lon="5.22638">
        <ele>445</ele>
      </trkpt>
      <trkpt lat="44.28766" lon="5.22607">
        <ele>448</ele>
      </trkpt>
      <trkpt lat="44.28753" lon="5.22591">
        <ele>444</ele>
      </trkpt>
      <trkpt lat="44.28707" lon="5.22544">
        <ele>443</ele>
      </trkpt>
      <trkpt lat="44.2869" lon="5.22523">
        <ele>440</ele>
      </trkpt>
      <trkpt lat="44.28683" lon="5.2249">
        <ele>443</ele>
      </trkpt>
      <trkpt lat="44.286" lon="5.22044">
        <ele>424</ele>
      </trkpt>
      <trkpt lat="44.28594" lon="5.22021">
        <ele>425</ele>
      </trkpt>
      <trkpt lat="44.28582" lon="5.22003">
        <ele>424</ele>
      </trkpt>
      <trkpt lat="44.28545" lon="5.21978">
        <ele>423</ele>
      </trkpt>
      <trkpt lat="44.28535" lon="5.21965">
        <ele>421</ele>
      </trkpt>
      <trkpt lat="44.28527" lon="5.21947">
        <ele>424</ele>
      </trkpt>
      <trkpt lat="44.28514" lon="5.21912">
        <ele>428</ele>
      </trkpt>
      <trkpt lat="44.28458" lon="5.21694">
        <ele>412</ele>
      </trkpt>
      <trkpt lat="44.28423" lon="5.21567">
        <ele>400</ele>
      </trkpt>
      <trkpt lat="44.28414" lon="5.21544">
        <ele>399</ele>
      </trkpt>
      <trkpt lat="44.2838" lon="5.21472">
        <ele>404</ele>
      </trkpt>
      <trkpt lat="44.28361" lon="5.21443">
        <ele>409</ele>
      </trkpt>
      <trkpt lat="44.28348" lon="5.21428">
        <ele>410</ele>
      </trkpt>
      <trkpt lat="44.28322" lon="5.21406">
        <ele>409</ele>
      </trkpt>
      <trkpt lat="44.28309" lon="5.21387">
        <ele>405</ele>
      </trkpt>
      <trkpt lat="44.28297" lon="5.21361">
        <ele>406</ele>
      </trkpt>
      <trkpt lat="44.28216" lon="5.21133">
        <ele>402</ele>
      </trkpt>
      <trkpt lat="44.28194" lon="5.21101">
        <ele>403</ele>
      </trkpt>
      <trkpt lat="44.28175" lon="5.21088">
        <ele>406</ele>
      </trkpt>
      <trkpt lat="44.28145" lon="5.21072">
        <ele>398</ele>
      </trkpt>
      <trkpt lat="44.28136" lon="5.21062">
        <ele>398</ele>
      </trkpt>
      <trkpt lat="44.28129" lon="5.21048">
        <ele>401</ele>
      </trkpt>
      <trkpt lat="44.28118" lon="5.20963">
        <ele>397</ele>
      </trkpt>
      <trkpt lat="44.28113" lon="5.20941">
        <ele>396</ele>
      </trkpt>
      <trkpt lat="44.27861" lon="5.20226">
        <ele>368</ele>
      </trkpt>
      <trkpt lat="44.27852" lon="5.20192">
        <ele>371</ele>
      </trkpt>
      <trkpt lat="44.27848" lon="5.20163">
        <ele>375</ele>
      </trkpt>
      <trkpt lat="44.27846" lon="5.2013">
        <ele>380</ele>
      </trkpt>
      <trkpt lat="44.27844" lon="5.20052">
        <ele>383</ele>
      </trkpt>
      <trkpt lat="44.27841" lon="5.2002">
        <ele>376</ele>
      </trkpt>
      <trkpt lat="44.27833" lon="5.19973">
        <ele>369</ele>
      </trkpt>
      <trkpt lat="44.27815" lon="5.19904">
        <ele>368</ele>
      </trkpt>
      <trkpt lat="44.2781" lon="5.19874">
        <ele>367</ele>
      </trkpt>
      <trkpt lat="44.2781" lon="5.19765">
        <ele>366</ele>
      </trkpt>
      <trkpt lat="44.27845" lon="5.19454">
        <ele>362</ele>
      </trkpt>
      <trkpt lat="44.27855" lon="5.19408">
        <ele>366</ele>
      </trkpt>
      <trkpt lat="44.27921" lon="5.19253">
        <ele>375</ele>
      </trkpt>
      <trkpt lat="44.27944" lon="5.19201">
        <ele>379</ele>
      </trkpt>
      <trkpt lat="44.27975" lon="5.1915">
        <ele>382</ele>
      </trkpt>
      <trkpt lat="44.27984" lon="5.19129">
        <ele>384</ele>
      </trkpt>
      <trkpt lat="44.27986" lon="5.19096">
        <ele>384</ele>
      </trkpt>
      <trkpt lat="44.27986" lon="5.19071">
        <ele>386</ele>
      </trkpt>
      <trkpt lat="44.27984" lon="5.19059">
        <ele>388</ele>
      </trkpt>
      <trkpt lat="44.27977" lon="5.19039">
        <ele>386</ele>
      </trkpt>
      <trkpt lat="44.27959" lon="5.1901">
        <ele>387</ele>
      </trkpt>
      <trkpt lat="44.27957" lon="5.19004">
        <ele>388</ele>
      </trkpt>
      <trkpt lat="44.27958" lon="5.18999">
        <ele>388</ele>
      </trkpt>
      <trkpt lat="44.27961" lon="5.18994">
        <ele>388</ele>
      </trkpt>
      <trkpt lat="44.27966" lon="5.18992">
        <ele>388</ele>
      </trkpt>
      <trkpt lat="44.2798" lon="5.18998">
        <ele>393</ele>
      </trkpt>
      <trkpt lat="44.2799" lon="5.19007">
        <ele>393</ele>
      </trkpt>
      <trkpt lat="44.27996" lon="5.19017">
        <ele>393</ele>
      </trkpt>
      <trkpt lat="44.28005" lon="5.19048">
        <ele>390</ele>
      </trkpt>
      <trkpt lat="44.28009" lon="5.19053">
        <ele>392</ele>
      </trkpt>
      <trkpt lat="44.28013" lon="5.19053">
        <ele>392</ele>
      </trkpt>
      <trkpt lat="44.28017" lon="5.19049">
        <ele>393</ele>
      </trkpt>
      <trkpt lat="44.28019" lon="5.19045">
        <ele>393</ele>
      </trkpt>
      <trkpt lat="44.28004" lon="5.18977">
        <ele>398</ele>
      </trkpt>
      <trkpt lat="44.28001" lon="5.18953">
        <ele>398</ele>
      </trkpt>
      <trkpt lat="44.28002" lon="5.18944">
        <ele>400</ele>
      </trkpt>
      <trkpt lat="44.28005" lon="5.18938">
        <ele>401</ele>
      </trkpt>
      <trkpt lat="44.28019" lon="5.18925">
        <ele>410</ele>
      </trkpt>
      <trkpt lat="44.28024" lon="5.18917">
        <ele>414</ele>
      </trkpt>
      <trkpt lat="44.28028" lon="5.18905">
        <ele>415</ele>
      </trkpt>
      <trkpt lat="44.28031" lon="5.18842">
        <ele>418</ele>
      </trkpt>
      <trkpt lat="44.28044" lon="5.18785">
        <ele>427</ele>
      </trkpt>
      <trkpt lat="44.28041" lon="5.18762">
        <ele>426</ele>
      </trkpt>
      <trkpt lat="44.28041" lon="5.18753">
        <ele>425</ele>
      </trkpt>
      <trkpt lat="44.28043" lon="5.18745">
        <ele>425</ele>
      </trkpt>
      <trkpt lat="44.28064" lon="5.18704">
        <ele>434</ele>
      </trkpt>
      <trkpt lat="44.28065" lon="5.18696">
        <ele>431</ele>
      </trkpt>
      <trkpt lat="44.28064" lon="5.18687">
        <ele>431</ele>
      </trkpt>
      <trkpt lat="44.28061" lon="5.18679">
        <ele>424</ele>
      </trkpt>
      <trkpt lat="44.28053" lon="5.18672">
        <ele>422</ele>
      </trkpt>
      <trkpt lat="44.28021" lon="5.18659">
        <ele>415</ele>
      </trkpt>
      <trkpt lat="44.28009" lon="5.18641">
        <ele>419</ele>
      </trkpt>
      <trkpt lat="44.27993" lon="5.18635">
        <ele>418</ele>
      </trkpt>
      <trkpt lat="44.2799" lon="5.1863">
        <ele>418</ele>
      </trkpt>
      <trkpt lat="44.27989" lon="5.18623">
        <ele>418</ele>
      </trkpt>
      <trkpt lat="44.27991" lon="5.18617">
        <ele>419</ele>
      </trkpt>
      <trkpt lat="44.28008" lon="5.18605">
        <ele>427</ele>
      </trkpt>
      <trkpt lat="44.28019" lon="5.18605">
        <ele>427</ele>
      </trkpt>
      <trkpt lat="44.28037" lon="5.18615">
        <ele>429</ele>
      </trkpt>
      <trkpt lat="44.28083" lon="5.18608">
        <ele>435</ele>
      </trkpt>
      <trkpt lat="44.28108" lon="5.186">
        <ele>439</ele>
      </trkpt>
      <trkpt lat="44.28127" lon="5.18605">
        <ele>443</ele>
      </trkpt>
      <trkpt lat="44.28145" lon="5.18615">
        <ele>445</ele>
      </trkpt>
      <trkpt lat="44.2815" lon="5.18614">
        <ele>451</ele>
      </trkpt>
      <trkpt lat="44.28153" lon="5.18608">
        <ele>451</ele>
      </trkpt>
      <trkpt lat="44.28151" lon="5.18601">
        <ele>451</ele>
      </trkpt>
      <trkpt lat="44.28145" lon="5.18596">
        <ele>446</ele>
      </trkpt>
      <trkpt lat="44.28131" lon="5.18592">
        <ele>444</ele>
      </trkpt>
      <trkpt lat="44.28112" lon="5.18578">
        <ele>442</ele>
      </trkpt>
      <trkpt lat="44.28082" lon="5.18567">
        <ele>442</ele>
      </trkpt>
      <trkpt lat="44.28058" lon="5.18553">
        <ele>446</ele>
      </trkpt>
      <trkpt lat="44.28046" lon="5.18541">
        <ele>447</ele>
      </trkpt>
      <trkpt lat="44.28038" lon="5.18524">
        <ele>455</ele>
      </trkpt>
      <trkpt lat="44.28032" lon="5.18501">
        <ele>458</ele>
      </trkpt>
      <trkpt lat="44.28028" lon="5.18485">
        <ele>459</ele>
      </trkpt>
      <trkpt lat="44.28027" lon="5.18453">
        <ele>465</ele>
      </trkpt>
      <trkpt lat="44.28022" lon="5.18444">
        <ele>469</ele>
      </trkpt>
      <trkpt lat="44.28016" lon="5.1844">
        <ele>468</ele>
      </trkpt>
      <trkpt lat="44.28009" lon="5.18441">
        <ele>467</ele>
      </trkpt>
      <trkpt lat="44.28003" lon="5.18447">
        <ele>462</ele>
      </trkpt>
      <trkpt lat="44.27974" lon="5.1849">
        <ele>448</ele>
      </trkpt>
      <trkpt lat="44.27963" lon="5.18501">
        <ele>447</ele>
      </trkpt>
      <trkpt lat="44.27948" lon="5.18503">
        <ele>448</ele>
      </trkpt>
      <trkpt lat="44.27939" lon="5.18501">
        <ele>449</ele>
      </trkpt>
      <trkpt lat="44.27932" lon="5.18495">
        <ele>450</ele>
      </trkpt>
      <trkpt lat="44.27914" lon="5.18465">
        <ele>460</ele>
      </trkpt>
      <trkpt lat="44.27904" lon="5.18456">
        <ele>461</ele>
      </trkpt>
      <trkpt lat="44.2789" lon="5.18454">
        <ele>459</ele>
      </trkpt>
      <trkpt lat="44.27877" lon="5.18449">
        <ele>466</ele>
      </trkpt>
      <trkpt lat="44.27854" lon="5.18418">
        <ele>473</ele>
      </trkpt>
      <trkpt lat="44.27746" lon="5.18348">
        <ele>472</ele>
      </trkpt>
      <trkpt lat="44.27728" lon="5.18347">
        <ele>471</ele>
      </trkpt>
      <trkpt lat="44.27711" lon="5.18351">
        <ele>470</ele>
      </trkpt>
      <trkpt lat="44.27703" lon="5.18361">
        <ele>470</ele>
      </trkpt>
      <trkpt lat="44.27694" lon="5.18385">
        <ele>468</ele>
      </trkpt>
      <trkpt lat="44.27676" lon="5.18452">
        <ele>465</ele>
      </trkpt>
      <trkpt lat="44.27666" lon="5.18497">
        <ele>471</ele>
      </trkpt>
      <trkpt lat="44.27664" lon="5.18535">
        <ele>471</ele>
      </trkpt>
      <trkpt lat="44.27662" lon="5.18543">
        <ele>472</ele>
      </trkpt>
      <trkpt lat="44.27658" lon="5.18545">
        <ele>473</ele>
      </trkpt>
      <trkpt lat="44.27655" lon="5.18542">
        <ele>473</ele>
      </trkpt>
      <trkpt lat="44.27653" lon="5.18536">
        <ele>473</ele>
      </trkpt>
      <trkpt lat="44.27656" lon="5.18466">
        <ele>474</ele>
      </trkpt>
      <trkpt lat="44.2766" lon="5.18417">
        <ele>476</ele>
      </trkpt>
      <trkpt lat="44.2766" lon="5.18401">
        <ele>476</ele>
      </trkpt>
      <trkpt lat="44.27659" lon="5.18395">
        <ele>477</ele>
      </trkpt>
      <trkpt lat="44.27655" lon="5.18392">
        <ele>478</ele>
      </trkpt>
      <trkpt lat="44.27651" lon="5.18393">
        <ele>479</ele>
      </trkpt>
      <trkpt lat="44.27648" lon="5.18399">
        <ele>479</ele>
      </trkpt>
      <trkpt lat="44.27641" lon="5.18465">
        <ele>484</ele>
      </trkpt>
      <trkpt lat="44.2764" lon="5.18502">
        <ele>481</ele>
      </trkpt>
      <trkpt lat="44.27638" lon="5.18515">
        <ele>480</ele>
      </trkpt>
      <trkpt lat="44.27634" lon="5.18521">
        <ele>481</ele>
      </trkpt>
      <trkpt lat="44.27629" lon="5.18522">
        <ele>481</ele>
      </trkpt>
      <trkpt lat="44.2762" lon="5.18514">
        <ele>482</ele>
      </trkpt>
      <trkpt lat="44.27609" lon="5.18486">
        <ele>491</ele>
      </trkpt>
      <trkpt lat="44.27604" lon="5.18467">
        <ele>495</ele>
      </trkpt>
      <trkpt lat="44.27604" lon="5.1845">
        <ele>495</ele>
      </trkpt>
      <trkpt lat="44.27608" lon="5.18421">
        <ele>498</ele>
      </trkpt>
      <trkpt lat="44.27613" lon="5.18395">
        <ele>498</ele>
      </trkpt>
      <trkpt lat="44.27613" lon="5.18388">
        <ele>499</ele>
      </trkpt>
      <trkpt lat="44.27609" lon="5.18386">
        <ele>500</ele>
      </trkpt>
      <trkpt lat="44.27605" lon="5.18389">
        <ele>500</ele>
      </trkpt>
      <trkpt lat="44.27592" lon="5.1843">
        <ele>498</ele>
      </trkpt>
      <trkpt lat="44.27588" lon="5.18439">
        <ele>503</ele>
      </trkpt>
      <trkpt lat="44.27584" lon="5.18439">
        <ele>503</ele>
      </trkpt>
      <trkpt lat="44.27581" lon="5.18434">
        <ele>504</ele>
      </trkpt>
      <trkpt lat="44.27582" lon="5.18424">
        <ele>504</ele>
      </trkpt>
      <trkpt lat="44.2759" lon="5.18398">
        <ele>506</ele>
      </trkpt>
      <trkpt lat="44.27595" lon="5.18362">
        <ele>503</ele>
      </trkpt>
      <trkpt lat="44.27597" lon="5.18336">
        <ele>504</ele>
      </trkpt>
      <trkpt lat="44.27595" lon="5.18318">
        <ele>504</ele>
      </trkpt>
      <trkpt lat="44.27582" lon="5.18265">
        <ele>514</ele>
      </trkpt>
      <trkpt lat="44.27581" lon="5.1825">
        <ele>516</ele>
      </trkpt>
      <trkpt lat="44.27587" lon="5.18216">
        <ele>521</ele>
      </trkpt>
      <trkpt lat="44.2759" lon="5.18185">
        <ele>527</ele>
      </trkpt>
      <trkpt lat="44.27594" lon="5.18162">
        <ele>530</ele>
      </trkpt>
      <trkpt lat="44.27607" lon="5.18116">
        <ele>530</ele>
      </trkpt>
      <trkpt lat="44.27612" lon="5.18086">
        <ele>529</ele>
      </trkpt>
      <trkpt lat="44.27641" lon="5.18083">
        <ele>531</ele>
      </trkpt>
      <trkpt lat="44.27662" lon="5.18094">
        <ele>534</ele>
      </trkpt>
      <trkpt lat="44.27704" lon="5.18101">
        <ele>542</ele>
      </trkpt>
      <trkpt lat="44.27712" lon="5.18099">
        <ele>543</ele>
      </trkpt>
      <trkpt lat="44.27744" lon="5.18074">
        <ele>549</ele>
      </trkpt>
      <trkpt lat="44.27778" lon="5.18057">
        <ele>553</ele>
      </trkpt>
      <trkpt lat="44.27807" lon="5.18039">
        <ele>560</ele>
      </trkpt>
      <trkpt lat="44.27855" lon="5.17985">
        <ele>569</ele>
      </trkpt>
      <trkpt lat="44.27859" lon="5.17975">
        <ele>568</ele>
      </trkpt>
      <trkpt lat="44.27863" lon="5.17945">
        <ele>567</ele>
      </trkpt>
      <trkpt lat="44.27862" lon="5.17934">
        <ele>567</ele>
      </trkpt>
      <trkpt lat="44.27843" lon="5.17874">
        <ele>569</ele>
      </trkpt>
      <trkpt lat="44.27843" lon="5.17851">
        <ele>572</ele>
      </trkpt>
      <trkpt lat="44.27843" lon="5.17874">
        <ele>569</ele>
      </trkpt>
      <trkpt lat="44.27862" lon="5.17934">
        <ele>567</ele>
      </trkpt>
      <trkpt lat="44.27868" lon="5.1793">
        <ele>569</ele>
      </trkpt>
      <trkpt lat="44.27871" lon="5.17932">
        <ele>573</ele>
      </trkpt>
      <trkpt lat="44.27889" lon="5.17983">
        <ele>576</ele>
      </trkpt>
      <trkpt lat="44.27892" lon="5.17983">
        <ele>576</ele>
      </trkpt>
      <trkpt lat="44.27895" lon="5.17981">
        <ele>576</ele>
      </trkpt>
      <trkpt lat="44.27897" lon="5.17976">
        <ele>580</ele>
      </trkpt>
      <trkpt lat="44.27897" lon="5.17968">
        <ele>581</ele>
      </trkpt>
      <trkpt lat="44.27894" lon="5.17911">
        <ele>578</ele>
      </trkpt>
      <trkpt lat="44.27892" lon="5.17902">
        <ele>578</ele>
      </trkpt>
      <trkpt lat="44.27883" lon="5.17887">
        <ele>579</ele>
      </trkpt>
      <trkpt lat="44.2788" lon="5.17877">
        <ele>579</ele>
      </trkpt>
      <trkpt lat="44.27878" lon="5.17866">
        <ele>582</ele>
      </trkpt>
      <trkpt lat="44.27877" lon="5.17819">
        <ele>587</ele>
      </trkpt>
      <trkpt lat="44.27872" lon="5.17801">
        <ele>591</ele>
      </trkpt>
      <trkpt lat="44.27842" lon="5.17749">
        <ele>591</ele>
      </trkpt>
      <trkpt lat="44.27823" lon="5.17711">
        <ele>592</ele>
      </trkpt>
      <trkpt lat="44.27815" lon="5.177">
        <ele>591</ele>
      </trkpt>
      <trkpt lat="44.27807" lon="5.17684">
        <ele>591</ele>
      </trkpt>
      <trkpt lat="44.27806" lon="5.17678">
        <ele>591</ele>
      </trkpt>
      <trkpt lat="44.27808" lon="5.17666">
        <ele>594</ele>
      </trkpt>
      <trkpt lat="44.27864" lon="5.17596">
        <ele>608</ele>
      </trkpt>
      <trkpt lat="44.27875" lon="5.17581">
        <ele>613</ele>
      </trkpt>
      <trkpt lat="44.27883" lon="5.17565">
        <ele>614</ele>
      </trkpt>
      <trkpt lat="44.27887" lon="5.17552">
        <ele>612</ele>
      </trkpt>
      <trkpt lat="44.27901" lon="5.17466">
        <ele>613</ele>
      </trkpt>
      <trkpt lat="44.27902" lon="5.17449">
        <ele>612</ele>
      </trkpt>
      <trkpt lat="44.27901" lon="5.17435">
        <ele>612</ele>
      </trkpt>
      <trkpt lat="44.27895" lon="5.17413">
        <ele>606</ele>
      </trkpt>
      <trkpt lat="44.27868" lon="5.1736">
        <ele>601</ele>
      </trkpt>
      <trkpt lat="44.27865" lon="5.17346">
        <ele>601</ele>
      </trkpt>
      <trkpt lat="44.27865" lon="5.17332">
        <ele>602</ele>
      </trkpt>
      <trkpt lat="44.27866" lon="5.17316">
        <ele>602</ele>
      </trkpt>
      <trkpt lat="44.27863" lon="5.17295">
        <ele>601</ele>
      </trkpt>
      <trkpt lat="44.27823" lon="5.17163">
        <ele>574</ele>
      </trkpt>
      <trkpt lat="44.27816" lon="5.17137">
        <ele>570</ele>
      </trkpt>
      <trkpt lat="44.2781" lon="5.17105">
        <ele>571</ele>
      </trkpt>
      <trkpt lat="44.2781" lon="5.17077">
        <ele>569</ele>
      </trkpt>
      <trkpt lat="44.27817" lon="5.17037">
        <ele>564</ele>
      </trkpt>
      <trkpt lat="44.27834" lon="5.17002">
        <ele>564</ele>
      </trkpt>
      <trkpt lat="44.27833" lon="5.16996">
        <ele>564</ele>
      </trkpt>
      <trkpt lat="44.27829" lon="5.16996">
        <ele>565</ele>
      </trkpt>
      <trkpt lat="44.27822" lon="5.17">
        <ele>564</ele>
      </trkpt>
      <trkpt lat="44.27813" lon="5.17011">
        <ele>565</ele>
      </trkpt>
      <trkpt lat="44.2781" lon="5.17012">
        <ele>565</ele>
      </trkpt>
      <trkpt lat="44.27806" lon="5.1701">
        <ele>565</ele>
      </trkpt>
      <trkpt lat="44.27807" lon="5.17005">
        <ele>565</ele>
      </trkpt>
      <trkpt lat="44.27816" lon="5.16994">
        <ele>564</ele>
      </trkpt>
      <trkpt lat="44.2783" lon="5.16959">
        <ele>563</ele>
      </trkpt>
      <trkpt lat="44.27836" lon="5.16949">
        <ele>559</ele>
      </trkpt>
      <trkpt lat="44.27847" lon="5.16941">
        <ele>556</ele>
      </trkpt>
      <trkpt lat="44.27926" lon="5.16906">
        <ele>537</ele>
      </trkpt>
      <trkpt lat="44.27939" lon="5.16897">
        <ele>536</ele>
      </trkpt>
      <trkpt lat="44.27948" lon="5.16899">
        <ele>535</ele>
      </trkpt>
      <trkpt lat="44.27952" lon="5.16904">
        <ele>534</ele>
      </trkpt>
      <trkpt lat="44.27951" lon="5.16914">
        <ele>534</ele>
      </trkpt>
      <trkpt lat="44.27947" lon="5.16928">
        <ele>536</ele>
      </trkpt>
      <trkpt lat="44.27946" lon="5.1694">
        <ele>536</ele>
      </trkpt>
      <trkpt lat="44.27963" lon="5.17018">
        <ele>539</ele>
      </trkpt>
      <trkpt lat="44.27966" lon="5.17025">
        <ele>539</ele>
      </trkpt>
      <trkpt lat="44.27969" lon="5.17028">
        <ele>540</ele>
      </trkpt>
      <trkpt lat="44.27972" lon="5.17029">
        <ele>540</ele>
      </trkpt>
      <trkpt lat="44.27975" lon="5.17026">
        <ele>540</ele>
      </trkpt>
      <trkpt lat="44.27981" lon="5.1701">
        <ele>539</ele>
      </trkpt>
      <trkpt lat="44.27993" lon="5.16986">
        <ele>533</ele>
      </trkpt>
      <trkpt lat="44.28019" lon="5.16943">
        <ele>526</ele>
      </trkpt>
      <trkpt lat="44.28045" lon="5.1692">
        <ele>526</ele>
      </trkpt>
      <trkpt lat="44.28054" lon="5.16887">
        <ele>527</ele>
      </trkpt>
      <trkpt lat="44.28052" lon="5.16853">
        <ele>528</ele>
      </trkpt>
      <trkpt lat="44.28045" lon="5.16807">
        <ele>534</ele>
      </trkpt>
      <trkpt lat="44.28056" lon="5.16748">
        <ele>539</ele>
      </trkpt>
      <trkpt lat="44.28057" lon="5.16731">
        <ele>539</ele>
      </trkpt>
      <trkpt lat="44.28055" lon="5.16718">
        <ele>538</ele>
      </trkpt>
      <trkpt lat="44.28016" lon="5.16652">
        <ele>526</ele>
      </trkpt>
      <trkpt lat="44.27981" lon="5.16583">
        <ele>527</ele>
      </trkpt>
      <trkpt lat="44.27969" lon="5.16575">
        <ele>519</ele>
      </trkpt>
      <trkpt lat="44.27957" lon="5.16567">
        <ele>518</ele>
      </trkpt>
      <trkpt lat="44.27907" lon="5.16566">
        <ele>502</ele>
      </trkpt>
      <trkpt lat="44.27888" lon="5.16561">
        <ele>497</ele>
      </trkpt>
      <trkpt lat="44.27867" lon="5.16552">
        <ele>493</ele>
      </trkpt>
      <trkpt lat="44.27802" lon="5.16496">
        <ele>484</ele>
      </trkpt>
      <trkpt lat="44.27791" lon="5.16479">
        <ele>482</ele>
      </trkpt>
      <trkpt lat="44.27783" lon="5.16462">
        <ele>478</ele>
      </trkpt>
      <trkpt lat="44.27761" lon="5.1643">
        <ele>474</ele>
      </trkpt>
      <trkpt lat="44.27655" lon="5.16323">
        <ele>463</ele>
      </trkpt>
      <trkpt lat="44.27591" lon="5.16269">
        <ele>457</ele>
      </trkpt>
      <trkpt lat="44.27478" lon="5.16177">
        <ele>445</ele>
      </trkpt>
      <trkpt lat="44.27436" lon="5.16149">
        <ele>441</ele>
      </trkpt>
      <trkpt lat="44.27426" lon="5.16137">
        <ele>438</ele>
      </trkpt>
      <trkpt lat="44.27443" lon="5.16138">
        <ele>438</ele>
      </trkpt>
      <trkpt lat="44.27475" lon="5.16133">
        <ele>438</ele>
      </trkpt>
      <trkpt lat="44.27599" lon="5.16091">
        <ele>431</ele>
      </trkpt>
      <trkpt lat="44.27624" lon="5.1608">
        <ele>430</ele>
      </trkpt>
      <trkpt lat="44.27649" lon="5.16066">
        <ele>431</ele>
      </trkpt>
      <trkpt lat="44.27677" lon="5.16044">
        <ele>432</ele>
      </trkpt>
      <trkpt lat="44.27688" lon="5.16033">
        <ele>432</ele>
      </trkpt>
      <trkpt lat="44.27708" lon="5.16">
        <ele>432</ele>
      </trkpt>
      <trkpt lat="44.27736" lon="5.15935">
        <ele>432</ele>
      </trkpt>
      <trkpt lat="44.27744" lon="5.15907">
        <ele>432</ele>
      </trkpt>
      <trkpt lat="44.27758" lon="5.15828">
        <ele>432</ele>
      </trkpt>
      <trkpt lat="44.27765" lon="5.15803">
        <ele>432</ele>
      </trkpt>
      <trkpt lat="44.27792" lon="5.15764">
        <ele>432</ele>
      </trkpt>
      <trkpt lat="44.27807" lon="5.15735">
        <ele>431</ele>
      </trkpt>
      <trkpt lat="44.27844" lon="5.15633">
        <ele>432</ele>
      </trkpt>
      <trkpt lat="44.27862" lon="5.15576">
        <ele>433</ele>
      </trkpt>
      <trkpt lat="44.27883" lon="5.15503">
        <ele>430</ele>
      </trkpt>
      <trkpt lat="44.27977" lon="5.15303">
        <ele>426</ele>
      </trkpt>
      <trkpt lat="44.27983" lon="5.15276">
        <ele>427</ele>
      </trkpt>
      <trkpt lat="44.27986" lon="5.15238">
        <ele>427</ele>
      </trkpt>
      <trkpt lat="44.2799" lon="5.15097">
        <ele>431</ele>
      </trkpt>
      <trkpt lat="44.27993" lon="5.15049">
        <ele>432</ele>
      </trkpt>
      <trkpt lat="44.27999" lon="5.15022">
        <ele>431</ele>
      </trkpt>
      <trkpt lat="44.28015" lon="5.14983">
        <ele>430</ele>
      </trkpt>
      <trkpt lat="44.28073" lon="5.14875">
        <ele>424</ele>
      </trkpt>
      <trkpt lat="44.28089" lon="5.14843">
        <ele>423</ele>
      </trkpt>
      <trkpt lat="44.281" lon="5.14815">
        <ele>424</ele>
      </trkpt>
      <trkpt lat="44.28123" lon="5.14728">
        <ele>422</ele>
      </trkpt>
      <trkpt lat="44.28128" lon="5.14702">
        <ele>421</ele>
      </trkpt>
      <trkpt lat="44.28137" lon="5.1456">
        <ele>416</ele>
      </trkpt>
      <trkpt lat="44.28137" lon="5.14516">
        <ele>414</ele>
      </trkpt>
      <trkpt lat="44.28142" lon="5.14508">
        <ele>413</ele>
      </trkpt>
      <trkpt lat="44.28146" lon="5.14487">
        <ele>411</ele>
      </trkpt>
      <trkpt lat="44.28154" lon="5.14421">
        <ele>404</ele>
      </trkpt>
      <trkpt lat="44.28159" lon="5.14399">
        <ele>401</ele>
      </trkpt>
      <trkpt lat="44.28165" lon="5.14381">
        <ele>400</ele>
      </trkpt>
      <trkpt lat="44.28193" lon="5.14324">
        <ele>396</ele>
      </trkpt>
      <trkpt lat="44.28209" lon="5.14283">
        <ele>393</ele>
      </trkpt>
      <trkpt lat="44.28213" lon="5.14205">
        <ele>389</ele>
      </trkpt>
      <trkpt lat="44.28219" lon="5.14159">
        <ele>386</ele>
      </trkpt>
      <trkpt lat="44.28225" lon="5.14133">
        <ele>383</ele>
      </trkpt>
      <trkpt lat="44.28233" lon="5.14109">
        <ele>380</ele>
      </trkpt>
      <trkpt lat="44.28255" lon="5.14068">
        <ele>378</ele>
      </trkpt>
      <trkpt lat="44.28277" lon="5.14035">
        <ele>374</ele>
      </trkpt>
      <trkpt lat="44.2829" lon="5.14028">
        <ele>369</ele>
      </trkpt>
      <trkpt lat="44.2831" lon="5.14001">
        <ele>366</ele>
      </trkpt>
      <trkpt lat="44.28339" lon="5.13983">
        <ele>363</ele>
      </trkpt>
      <trkpt lat="44.28358" lon="5.13976">
        <ele>361</ele>
      </trkpt>
      <trkpt lat="44.28408" lon="5.13975">
        <ele>358</ele>
      </trkpt>
      <trkpt lat="44.28463" lon="5.13951">
        <ele>354</ele>
      </trkpt>
      <trkpt lat="44.28486" lon="5.13946">
        <ele>352</ele>
      </trkpt>
      <trkpt lat="44.28502" lon="5.13939">
        <ele>352</ele>
      </trkpt>
      <trkpt lat="44.28511" lon="5.1394">
        <ele>351</ele>
      </trkpt>
      <trkpt lat="44.28519" lon="5.13926">
        <ele>351</ele>
      </trkpt>
      <trkpt lat="44.28523" lon="5.13914">
        <ele>351</ele>
      </trkpt>
      <trkpt lat="44.28524" lon="5.13902">
        <ele>351</ele>
      </trkpt>
      <trkpt lat="44.28523" lon="5.13881">
        <ele>350</ele>
      </trkpt>
      <trkpt lat="44.28515" lon="5.13828">
        <ele>348</ele>
      </trkpt>
      <trkpt lat="44.2851" lon="5.13762">
        <ele>345</ele>
      </trkpt>
      <trkpt lat="44.28505" lon="5.13734">
        <ele>343</ele>
      </trkpt>
      <trkpt lat="44.28462" lon="5.13586">
        <ele>341</ele>
      </trkpt>
      <trkpt lat="44.28442" lon="5.13555">
        <ele>343</ele>
      </trkpt>
      <trkpt lat="44.28418" lon="5.13531">
        <ele>345</ele>
      </trkpt>
      <trkpt lat="44.28364" lon="5.13492">
        <ele>350</ele>
      </trkpt>
      <trkpt lat="44.28343" lon="5.13458">
        <ele>350</ele>
      </trkpt>
      <trkpt lat="44.28319" lon="5.13405">
        <ele>349</ele>
      </trkpt>
      <trkpt lat="44.28297" lon="5.1335">
        <ele>347</ele>
      </trkpt>
      <trkpt lat="44.28265" lon="5.13302">
        <ele>346</ele>
      </trkpt>
      <trkpt lat="44.28212" lon="5.13206">
        <ele>345</ele>
      </trkpt>
      <trkpt lat="44.28222" lon="5.13206">
        <ele>344</ele>
      </trkpt>
      <trkpt lat="44.28302" lon="5.13194">
        <ele>339</ele>
      </trkpt>
      <trkpt lat="44.28313" lon="5.13194">
        <ele>339</ele>
      </trkpt>
      <trkpt lat="44.28334" lon="5.13201">
        <ele>337</ele>
      </trkpt>
      <trkpt lat="44.28375" lon="5.13237">
        <ele>335</ele>
      </trkpt>
      <trkpt lat="44.28487" lon="5.13327">
        <ele>340</ele>
      </trkpt>
      <trkpt lat="44.28515" lon="5.13348">
        <ele>340</ele>
      </trkpt>
      <trkpt lat="44.28564" lon="5.13383">
        <ele>343</ele>
      </trkpt>
      <trkpt lat="44.2857" lon="5.13384">
        <ele>343</ele>
      </trkpt>
      <trkpt lat="44.28585" lon="5.13443">
        <ele>345</ele>
      </trkpt>
      <trkpt lat="44.28594" lon="5.13451">
        <ele>347</ele>
      </trkpt>
      <trkpt lat="44.2861" lon="5.13457">
        <ele>347</ele>
      </trkpt>
      <trkpt lat="44.28628" lon="5.13466">
        <ele>350</ele>
      </trkpt>
      <trkpt lat="44.28648" lon="5.13482">
        <ele>352</ele>
      </trkpt>
      <trkpt lat="44.2868" lon="5.13511">
        <ele>354</ele>
      </trkpt>
      <trkpt lat="44.28752" lon="5.13581">
        <ele>361</ele>
      </trkpt>
      <trkpt lat="44.28825" lon="5.13655">
        <ele>367</ele>
      </trkpt>
      <trkpt lat="44.28864" lon="5.13695">
        <ele>371</ele>
      </trkpt>
      <trkpt lat="44.28872" lon="5.13699">
        <ele>373</ele>
      </trkpt>
      <trkpt lat="44.28946" lon="5.13688">
        <ele>377</ele>
      </trkpt>
      <trkpt lat="44.2896" lon="5.13684">
        <ele>378</ele>
      </trkpt>
      <trkpt lat="44.28975" lon="5.13678">
        <ele>379</ele>
      </trkpt>
      <trkpt lat="44.29106" lon="5.13604">
        <ele>398</ele>
      </trkpt>
      <trkpt lat="44.29111" lon="5.13597">
        <ele>398</ele>
      </trkpt>
      <trkpt lat="44.29114" lon="5.13589">
        <ele>398</ele>
      </trkpt>
      <trkpt lat="44.29139" lon="5.13493">
        <ele>398</ele>
      </trkpt>
      <trkpt lat="44.29144" lon="5.13482">
        <ele>397</ele>
      </trkpt>
      <trkpt lat="44.29153" lon="5.13479">
        <ele>396</ele>
      </trkpt>
      <trkpt lat="44.29161" lon="5.13485">
        <ele>396</ele>
      </trkpt>
      <trkpt lat="44.29168" lon="5.135">
        <ele>396</ele>
      </trkpt>
      <trkpt lat="44.29181" lon="5.13586">
        <ele>400</ele>
      </trkpt>
      <trkpt lat="44.29185" lon="5.136">
        <ele>402</ele>
      </trkpt>
      <trkpt lat="44.29196" lon="5.13609">
        <ele>402</ele>
      </trkpt>
      <trkpt lat="44.29236" lon="5.13631">
        <ele>396</ele>
      </trkpt>
      <trkpt lat="44.29272" lon="5.13667">
        <ele>394</ele>
      </trkpt>
      <trkpt lat="44.29283" lon="5.13673">
        <ele>396</ele>
      </trkpt>
      <trkpt lat="44.29313" lon="5.13679">
        <ele>390</ele>
      </trkpt>
      <trkpt lat="44.29322" lon="5.13686">
        <ele>387</ele>
      </trkpt>
      <trkpt lat="44.29339" lon="5.13703">
        <ele>391</ele>
      </trkpt>
      <trkpt lat="44.29346" lon="5.13705">
        <ele>388</ele>
      </trkpt>
      <trkpt lat="44.29368" lon="5.137">
        <ele>387</ele>
      </trkpt>
      <trkpt lat="44.29376" lon="5.13695">
        <ele>382</ele>
      </trkpt>
      <trkpt lat="44.29389" lon="5.1368">
        <ele>381</ele>
      </trkpt>
      <trkpt lat="44.29394" lon="5.13678">
        <ele>381</ele>
      </trkpt>
      <trkpt lat="44.29403" lon="5.13677">
        <ele>380</ele>
      </trkpt>
      <trkpt lat="44.29423" lon="5.13682">
        <ele>380</ele>
      </trkpt>
      <trkpt lat="44.29438" lon="5.13691">
        <ele>381</ele>
      </trkpt>
      <trkpt lat="44.29447" lon="5.13702">
        <ele>381</ele>
      </trkpt>
      <trkpt lat="44.29458" lon="5.13735">
        <ele>382</ele>
      </trkpt>
      <trkpt lat="44.29462" lon="5.13743">
        <ele>382</ele>
      </trkpt>
      <trkpt lat="44.29468" lon="5.13744">
        <ele>382</ele>
      </trkpt>
      <trkpt lat="44.29474" lon="5.13742">
        <ele>382</ele>
      </trkpt>
      <trkpt lat="44.29494" lon="5.13733">
        <ele>384</ele>
      </trkpt>
      <trkpt lat="44.29518" lon="5.13726">
        <ele>387</ele>
      </trkpt>
      <trkpt lat="44.29598" lon="5.13738">
        <ele>392</ele>
      </trkpt>
      <trkpt lat="44.29622" lon="5.13735">
        <ele>395</ele>
      </trkpt>
      <trkpt lat="44.29672" lon="5.13691">
        <ele>402</ele>
      </trkpt>
      <trkpt lat="44.2974" lon="5.1366">
        <ele>403</ele>
      </trkpt>
      <trkpt lat="44.2978" lon="5.13697">
        <ele>404</ele>
      </trkpt>
      <trkpt lat="44.29788" lon="5.13702">
        <ele>406</ele>
      </trkpt>
      <trkpt lat="44.29797" lon="5.13702">
        <ele>406</ele>
      </trkpt>
      <trkpt lat="44.29881" lon="5.13694">
        <ele>398</ele>
      </trkpt>
      <trkpt lat="44.2989" lon="5.1369">
        <ele>397</ele>
      </trkpt>
      <trkpt lat="44.30016" lon="5.13579">
        <ele>379</ele>
      </trkpt>
      <trkpt lat="44.30025" lon="5.13576">
        <ele>379</ele>
      </trkpt>
      <trkpt lat="44.30056" lon="5.13574">
        <ele>377</ele>
      </trkpt>
      <trkpt lat="44.30082" lon="5.13575">
        <ele>376</ele>
      </trkpt>
      <trkpt lat="44.30117" lon="5.13572">
        <ele>375</ele>
      </trkpt>
      <trkpt lat="44.3012" lon="5.13568">
        <ele>375</ele>
      </trkpt>
      <trkpt lat="44.30132" lon="5.1354">
        <ele>374</ele>
      </trkpt>
      <trkpt lat="44.30181" lon="5.13453">
        <ele>374</ele>
      </trkpt>
      <trkpt lat="44.30208" lon="5.13379">
        <ele>377</ele>
      </trkpt>
      <trkpt lat="44.30232" lon="5.13288">
        <ele>379</ele>
      </trkpt>
      <trkpt lat="44.30241" lon="5.1326">
        <ele>380</ele>
      </trkpt>
      <trkpt lat="44.30254" lon="5.1322">
        <ele>382</ele>
      </trkpt>
      <trkpt lat="44.30261" lon="5.13204">
        <ele>382</ele>
      </trkpt>
      <trkpt lat="44.30279" lon="5.13149">
        <ele>380</ele>
      </trkpt>
      <trkpt lat="44.30288" lon="5.13091">
        <ele>376</ele>
      </trkpt>
      <trkpt lat="44.30288" lon="5.13057">
        <ele>374</ele>
      </trkpt>
      <trkpt lat="44.30285" lon="5.13034">
        <ele>372</ele>
      </trkpt>
      <trkpt lat="44.30267" lon="5.12981">
        <ele>366</ele>
      </trkpt>
      <trkpt lat="44.30248" lon="5.12912">
        <ele>356</ele>
      </trkpt>
      <trkpt lat="44.3023" lon="5.12858">
        <ele>354</ele>
      </trkpt>
      <trkpt lat="44.30225" lon="5.12838">
        <ele>354</ele>
      </trkpt>
      <trkpt lat="44.30225" lon="5.12809">
        <ele>350</ele>
      </trkpt>
      <trkpt lat="44.30231" lon="5.12772">
        <ele>347</ele>
      </trkpt>
      <trkpt lat="44.30235" lon="5.12728">
        <ele>345</ele>
      </trkpt>
      <trkpt lat="44.30233" lon="5.12714">
        <ele>344</ele>
      </trkpt>
      <trkpt lat="44.30229" lon="5.12701">
        <ele>346</ele>
      </trkpt>
      <trkpt lat="44.30222" lon="5.12691">
        <ele>345</ele>
      </trkpt>
      <trkpt lat="44.30213" lon="5.12687">
        <ele>346</ele>
      </trkpt>
      <trkpt lat="44.30134" lon="5.12679">
        <ele>349</ele>
      </trkpt>
      <trkpt lat="44.30127" lon="5.12682">
        <ele>349</ele>
      </trkpt>
      <trkpt lat="44.30104" lon="5.12715">
        <ele>353</ele>
      </trkpt>
      <trkpt lat="44.30098" lon="5.12719">
        <ele>353</ele>
      </trkpt>
      <trkpt lat="44.30092" lon="5.12721">
        <ele>353</ele>
      </trkpt>
      <trkpt lat="44.30087" lon="5.12719">
        <ele>351</ele>
      </trkpt>
      <trkpt lat="44.30085" lon="5.12713">
        <ele>350</ele>
      </trkpt>
      <trkpt lat="44.30085" lon="5.12702">
        <ele>350</ele>
      </trkpt>
      <trkpt lat="44.30094" lon="5.12646">
        <ele>345</ele>
      </trkpt>
      <trkpt lat="44.30106" lon="5.12594">
        <ele>341</ele>
      </trkpt>
      <trkpt lat="44.30108" lon="5.12571">
        <ele>340</ele>
      </trkpt>
      <trkpt lat="44.30105" lon="5.12519">
        <ele>335</ele>
      </trkpt>
      <trkpt lat="44.30099" lon="5.12491">
        <ele>330</ele>
      </trkpt>
      <trkpt lat="44.30087" lon="5.12463">
        <ele>326</ele>
      </trkpt>
      <trkpt lat="44.30028" lon="5.12333">
        <ele>320</ele>
      </trkpt>
      <trkpt lat="44.29993" lon="5.12285">
        <ele>317</ele>
      </trkpt>
      <trkpt lat="44.29969" lon="5.1224">
        <ele>314</ele>
      </trkpt>
      <trkpt lat="44.29963" lon="5.12217">
        <ele>312</ele>
      </trkpt>
      <trkpt lat="44.2996" lon="5.12186">
        <ele>310</ele>
      </trkpt>
      <trkpt lat="44.29981" lon="5.12108">
        <ele>306</ele>
      </trkpt>
      <trkpt lat="44.30012" lon="5.12046">
        <ele>300</ele>
      </trkpt>
      <trkpt lat="44.30064" lon="5.11977">
        <ele>298</ele>
      </trkpt>
      <trkpt lat="44.30118" lon="5.11911">
        <ele>293</ele>
      </trkpt>
      <trkpt lat="44.30142" lon="5.11871">
        <ele>291</ele>
      </trkpt>
      <trkpt lat="44.30146" lon="5.11847">
        <ele>289</ele>
      </trkpt>
      <trkpt lat="44.30136" lon="5.11702">
        <ele>285</ele>
      </trkpt>
      <trkpt lat="44.30137" lon="5.11684">
        <ele>285</ele>
      </trkpt>
      <trkpt lat="44.3014" lon="5.11669">
        <ele>284</ele>
      </trkpt>
      <trkpt lat="44.30162" lon="5.11672">
        <ele>284</ele>
      </trkpt>
      <trkpt lat="44.30259" lon="5.11705">
        <ele>282</ele>
      </trkpt>
      <trkpt lat="44.30285" lon="5.11708">
        <ele>282</ele>
      </trkpt>
      <trkpt lat="44.30308" lon="5.11706">
        <ele>282</ele>
      </trkpt>
      <trkpt lat="44.30323" lon="5.11699">
        <ele>282</ele>
      </trkpt>
      <trkpt lat="44.30341" lon="5.11676">
        <ele>281</ele>
      </trkpt>
      <trkpt lat="44.30394" lon="5.11579">
        <ele>279</ele>
      </trkpt>
      <trkpt lat="44.30402" lon="5.11557">
        <ele>277</ele>
      </trkpt>
      <trkpt lat="44.30409" lon="5.11532">
        <ele>277</ele>
      </trkpt>
      <trkpt lat="44.30452" lon="5.11369">
        <ele>274</ele>
      </trkpt>
      <trkpt lat="44.30474" lon="5.11308">
        <ele>273</ele>
      </trkpt>
      <trkpt lat="44.30525" lon="5.11185">
        <ele>270</ele>
      </trkpt>
      <trkpt lat="44.3054" lon="5.11138">
        <ele>267</ele>
      </trkpt>
      <trkpt lat="44.30566" lon="5.10988">
        <ele>265</ele>
      </trkpt>
      <trkpt lat="44.30641" lon="5.10784">
        <ele>262</ele>
      </trkpt>
      <trkpt lat="44.3065" lon="5.1074">
        <ele>259</ele>
      </trkpt>
      <trkpt lat="44.30667" lon="5.10595">
        <ele>258</ele>
      </trkpt>
      <trkpt lat="44.3067" lon="5.10583">
        <ele>258</ele>
      </trkpt>
      <trkpt lat="44.30674" lon="5.10573">
        <ele>258</ele>
      </trkpt>
      <trkpt lat="44.30709" lon="5.10538">
        <ele>256</ele>
      </trkpt>
      <trkpt lat="44.30727" lon="5.10518">
        <ele>256</ele>
      </trkpt>
      <trkpt lat="44.30817" lon="5.10365">
        <ele>254</ele>
      </trkpt>
      <trkpt lat="44.3084" lon="5.10328">
        <ele>253</ele>
      </trkpt>
      <trkpt lat="44.30849" lon="5.10312">
        <ele>251</ele>
      </trkpt>
      <trkpt lat="44.30925" lon="5.10072">
        <ele>254</ele>
      </trkpt>
      <trkpt lat="44.30938" lon="5.10042">
        <ele>258</ele>
      </trkpt>
      <trkpt lat="44.30945" lon="5.10033">
        <ele>258</ele>
      </trkpt>
      <trkpt lat="44.30979" lon="5.10008">
        <ele>259</ele>
      </trkpt>
      <trkpt lat="44.31008" lon="5.0998">
        <ele>261</ele>
      </trkpt>
      <trkpt lat="44.31023" lon="5.09961">
        <ele>265</ele>
      </trkpt>
      <trkpt lat="44.31027" lon="5.09951">
        <ele>265</ele>
      </trkpt>
      <trkpt lat="44.31047" lon="5.09886">
        <ele>267</ele>
      </trkpt>
      <trkpt lat="44.31047" lon="5.09879">
        <ele>267</ele>
      </trkpt>
      <trkpt lat="44.31109" lon="5.09815">
        <ele>263</ele>
      </trkpt>
      <trkpt lat="44.31122" lon="5.09792">
        <ele>262</ele>
      </trkpt>
      <trkpt lat="44.31137" lon="5.09772">
        <ele>260</ele>
      </trkpt>
      <trkpt lat="44.31147" lon="5.09761">
        <ele>260</ele>
      </trkpt>
      <trkpt lat="44.31158" lon="5.09753">
        <ele>260</ele>
      </trkpt>
      <trkpt lat="44.3119" lon="5.09736">
        <ele>258</ele>
      </trkpt>
      <trkpt lat="44.31232" lon="5.09723">
        <ele>251</ele>
      </trkpt>
      <trkpt lat="44.31296" lon="5.09715">
        <ele>245</ele>
      </trkpt>
      <trkpt lat="44.31299" lon="5.09722">
        <ele>245</ele>
      </trkpt>
      <trkpt lat="44.31303" lon="5.09725">
        <ele>245</ele>
      </trkpt>
      <trkpt lat="44.31309" lon="5.09723">
        <ele>244</ele>
      </trkpt>
      <trkpt lat="44.31312" lon="5.09718">
        <ele>244</ele>
      </trkpt>
      <trkpt lat="44.31326" lon="5.09725">
        <ele>242</ele>
      </trkpt>
      <trkpt lat="44.31408" lon="5.09738">
        <ele>240</ele>
      </trkpt>
      <trkpt lat="44.31423" lon="5.09745">
        <ele>240</ele>
      </trkpt>
      <trkpt lat="44.3151" lon="5.09811">
        <ele>248</ele>
      </trkpt>
      <trkpt lat="44.3154" lon="5.09828">
        <ele>248</ele>
      </trkpt>
      <trkpt lat="44.31546" lon="5.09837">
        <ele>248</ele>
      </trkpt>
      <trkpt lat="44.31554" lon="5.09837">
        <ele>248</ele>
      </trkpt>
      <trkpt lat="44.31558" lon="5.09834">
        <ele>248</ele>
      </trkpt>
      <trkpt lat="44.31561" lon="5.09828">
        <ele>248</ele>
      </trkpt>
      <trkpt lat="44.31561" lon="5.09818">
        <ele>248</ele>
      </trkpt>
      <trkpt lat="44.31563" lon="5.09806">
        <ele>248</ele>
      </trkpt>
      <trkpt lat="44.31576" lon="5.09777">
        <ele>248</ele>
      </trkpt>
      <trkpt lat="44.31595" lon="5.0975">
        <ele>248</ele>
      </trkpt>
      <trkpt lat="44.31743" lon="5.09562">
        <ele>243</ele>
      </trkpt>
      <trkpt lat="44.31899" lon="5.09368">
        <ele>238</ele>
      </trkpt>
      <trkpt lat="44.32113" lon="5.09093">
        <ele>228</ele>
      </trkpt>
      <trkpt lat="44.32433" lon="5.08687">
        <ele>224</ele>
      </trkpt>
      <trkpt lat="44.32459" lon="5.0866">
        <ele>223</ele>
      </trkpt>
      <trkpt lat="44.32477" lon="5.08645">
        <ele>223</ele>
      </trkpt>
      <trkpt lat="44.32678" lon="5.08502">
        <ele>224</ele>
      </trkpt>
      <trkpt lat="44.32963" lon="5.08301">
        <ele>230</ele>
      </trkpt>
      <trkpt lat="44.33002" lon="5.08275">
        <ele>230</ele>
      </trkpt>
      <trkpt lat="44.33007" lon="5.08276">
        <ele>230</ele>
      </trkpt>
      <trkpt lat="44.33016" lon="5.08272">
        <ele>231</ele>
      </trkpt>
      <trkpt lat="44.33019" lon="5.08268">
        <ele>230</ele>
      </trkpt>
      <trkpt lat="44.33023" lon="5.08256">
        <ele>231</ele>
      </trkpt>
      <trkpt lat="44.33022" lon="5.08243">
        <ele>231</ele>
      </trkpt>
      <trkpt lat="44.33038" lon="5.08212">
        <ele>233</ele>
      </trkpt>
      <trkpt lat="44.33105" lon="5.08146">
        <ele>234</ele>
      </trkpt>
      <trkpt lat="44.33109" lon="5.08139">
        <ele>235</ele>
      </trkpt>
      <trkpt lat="44.3311" lon="5.08131">
        <ele>235</ele>
      </trkpt>
      <trkpt lat="44.3311" lon="5.08122">
        <ele>235</ele>
      </trkpt>
      <trkpt lat="44.33105" lon="5.08106">
        <ele>235</ele>
      </trkpt>
      <trkpt lat="44.33106" lon="5.08088">
        <ele>235</ele>
      </trkpt>
      <trkpt lat="44.3312" lon="5.08066">
        <ele>236</ele>
      </trkpt>
      <trkpt lat="44.3307" lon="5.07983">
        <ele>237</ele>
      </trkpt>
      <trkpt lat="44.33049" lon="5.0793">
        <ele>237</ele>
      </trkpt>
      <trkpt lat="44.3303" lon="5.07894">
        <ele>235</ele>
      </trkpt>
      <trkpt lat="44.32994" lon="5.07794">
        <ele>238</ele>
      </trkpt>
      <trkpt lat="44.3296" lon="5.07706">
        <ele>240</ele>
      </trkpt>
      <trkpt lat="44.32953" lon="5.07679">
        <ele>239</ele>
      </trkpt>
      <trkpt lat="44.3295" lon="5.07658">
        <ele>240</ele>
      </trkpt>
      <trkpt lat="44.32955" lon="5.076">
        <ele>241</ele>
      </trkpt>
      <trkpt lat="44.32961" lon="5.0757">
        <ele>241</ele>
      </trkpt>
      <trkpt lat="44.32968" lon="5.07545">
        <ele>242</ele>
      </trkpt>
      <trkpt lat="44.32983" lon="5.07519">
        <ele>245</ele>
      </trkpt>
      <trkpt lat="44.33019" lon="5.07497">
        <ele>250</ele>
      </trkpt>
      <trkpt lat="44.33043" lon="5.07467">
        <ele>256</ele>
      </trkpt>
      <trkpt lat="44.33102" lon="5.07336">
        <ele>272</ele>
      </trkpt>
      <trkpt lat="44.33175" lon="5.07224">
        <ele>273</ele>
      </trkpt>
      <trkpt lat="44.33188" lon="5.07109">
        <ele>277</ele>
      </trkpt>
      <trkpt lat="44.33204" lon="5.06989">
        <ele>278</ele>
      </trkpt>
      <trkpt lat="44.33213" lon="5.06909">
        <ele>278</ele>
      </trkpt>
      <trkpt lat="44.33219" lon="5.06803">
        <ele>280</ele>
      </trkpt>
      <trkpt lat="44.33225" lon="5.06749">
        <ele>277</ele>
      </trkpt>
      <trkpt lat="44.33238" lon="5.067">
        <ele>276</ele>
      </trkpt>
      <trkpt lat="44.33255" lon="5.0666">
        <ele>275</ele>
      </trkpt>
      <trkpt lat="44.33262" lon="5.06625">
        <ele>277</ele>
      </trkpt>
      <trkpt lat="44.33264" lon="5.06571">
        <ele>276</ele>
      </trkpt>
      <trkpt lat="44.33262" lon="5.06557">
        <ele>276</ele>
      </trkpt>
      <trkpt lat="44.3325" lon="5.06506">
        <ele>276</ele>
      </trkpt>
      <trkpt lat="44.33247" lon="5.06482">
        <ele>277</ele>
      </trkpt>
      <trkpt lat="44.33249" lon="5.06448">
        <ele>279</ele>
      </trkpt>
      <trkpt lat="44.33249" lon="5.06432">
        <ele>280</ele>
      </trkpt>
      <trkpt lat="44.33247" lon="5.06423">
        <ele>280</ele>
      </trkpt>
      <trkpt lat="44.33261" lon="5.06399">
        <ele>284</ele>
      </trkpt>
      <trkpt lat="44.33284" lon="5.06351">
        <ele>287</ele>
      </trkpt>
      <trkpt lat="44.33315" lon="5.06296">
        <ele>291</ele>
      </trkpt>
      <trkpt lat="44.33317" lon="5.0629">
        <ele>291</ele>
      </trkpt>
      <trkpt lat="44.33323" lon="5.06274">
        <ele>292</ele>
      </trkpt>
      <trkpt lat="44.33329" lon="5.0625">
        <ele>293</ele>
      </trkpt>
      <trkpt lat="44.33334" lon="5.06209">
        <ele>294</ele>
      </trkpt>
      <trkpt lat="44.33335" lon="5.06184">
        <ele>296</ele>
      </trkpt>
      <trkpt lat="44.33335" lon="5.06149">
        <ele>298</ele>
      </trkpt>
      <trkpt lat="44.33331" lon="5.06123">
        <ele>300</ele>
      </trkpt>
      <trkpt lat="44.33321" lon="5.06089">
        <ele>303</ele>
      </trkpt>
      <trkpt lat="44.3332" lon="5.06071">
        <ele>305</ele>
      </trkpt>
      <trkpt lat="44.33325" lon="5.06049">
        <ele>307</ele>
      </trkpt>
      <trkpt lat="44.33327" lon="5.06014">
        <ele>308</ele>
      </trkpt>
      <trkpt lat="44.33331" lon="5.05973">
        <ele>304</ele>
      </trkpt>
      <trkpt lat="44.3337" lon="5.05937">
        <ele>303</ele>
      </trkpt>
      <trkpt lat="44.33406" lon="5.05908">
        <ele>301</ele>
      </trkpt>
      <trkpt lat="44.33418" lon="5.05904">
        <ele>301</ele>
      </trkpt>
      <trkpt lat="44.33455" lon="5.05896">
        <ele>303</ele>
      </trkpt>
      <trkpt lat="44.33473" lon="5.05895">
        <ele>303</ele>
      </trkpt>
      <trkpt lat="44.33523" lon="5.05899">
        <ele>306</ele>
      </trkpt>
      <trkpt lat="44.33556" lon="5.05897">
        <ele>308</ele>
      </trkpt>
      <trkpt lat="44.33725" lon="5.05834">
        <ele>306</ele>
      </trkpt>
      <trkpt lat="44.33738" lon="5.05828">
        <ele>311</ele>
      </trkpt>
      <trkpt lat="44.33749" lon="5.05819">
        <ele>310</ele>
      </trkpt>
      <trkpt lat="44.338" lon="5.05765">
        <ele>301</ele>
      </trkpt>
      <trkpt lat="44.33818" lon="5.0575">
        <ele>299</ele>
      </trkpt>
      <trkpt lat="44.33832" lon="5.05741">
        <ele>298</ele>
      </trkpt>
      <trkpt lat="44.33847" lon="5.05737">
        <ele>299</ele>
      </trkpt>
      <trkpt lat="44.33896" lon="5.05736">
        <ele>298</ele>
      </trkpt>
      <trkpt lat="44.33942" lon="5.05741">
        <ele>300</ele>
      </trkpt>
      <trkpt lat="44.33967" lon="5.05741">
        <ele>302</ele>
      </trkpt>
      <trkpt lat="44.34005" lon="5.0574">
        <ele>301</ele>
      </trkpt>
      <trkpt lat="44.34017" lon="5.05734">
        <ele>298</ele>
      </trkpt>
      <trkpt lat="44.34022" lon="5.05727">
        <ele>298</ele>
      </trkpt>
      <trkpt lat="44.34059" lon="5.05636">
        <ele>296</ele>
      </trkpt>
      <trkpt lat="44.3407" lon="5.05625">
        <ele>298</ele>
      </trkpt>
      <trkpt lat="44.3409" lon="5.05622">
        <ele>299</ele>
      </trkpt>
      <trkpt lat="44.34114" lon="5.05627">
        <ele>301</ele>
      </trkpt>
      <trkpt lat="44.34127" lon="5.05631">
        <ele>303</ele>
      </trkpt>
      <trkpt lat="44.34172" lon="5.05656">
        <ele>301</ele>
      </trkpt>
      <trkpt lat="44.34177" lon="5.05656">
        <ele>303</ele>
      </trkpt>
      <trkpt lat="44.34179" lon="5.05654">
        <ele>303</ele>
      </trkpt>
      <trkpt lat="44.34182" lon="5.05649">
        <ele>303</ele>
      </trkpt>
      <trkpt lat="44.34181" lon="5.05643">
        <ele>304</ele>
      </trkpt>
      <trkpt lat="44.34179" lon="5.0564">
        <ele>306</ele>
      </trkpt>
      <trkpt lat="44.34149" lon="5.05628">
        <ele>305</ele>
      </trkpt>
      <trkpt lat="44.34121" lon="5.05605">
        <ele>307</ele>
      </trkpt>
      <trkpt lat="44.34118" lon="5.05598">
        <ele>306</ele>
      </trkpt>
      <trkpt lat="44.3412" lon="5.05593">
        <ele>306</ele>
      </trkpt>
      <trkpt lat="44.34123" lon="5.0559">
        <ele>309</ele>
      </trkpt>
      <trkpt lat="44.34128" lon="5.05591">
        <ele>309</ele>
      </trkpt>
      <trkpt lat="44.34158" lon="5.05606">
        <ele>310</ele>
      </trkpt>
      <trkpt lat="44.34177" lon="5.0561">
        <ele>311</ele>
      </trkpt>
      <trkpt lat="44.34202" lon="5.05603">
        <ele>312</ele>
      </trkpt>
      <trkpt lat="44.34211" lon="5.05592">
        <ele>313</ele>
      </trkpt>
      <trkpt lat="44.34211" lon="5.05587">
        <ele>313</ele>
      </trkpt>
      <trkpt lat="44.3421" lon="5.05582">
        <ele>315</ele>
      </trkpt>
      <trkpt lat="44.34204" lon="5.05578">
        <ele>315</ele>
      </trkpt>
      <trkpt lat="44.34185" lon="5.05589">
        <ele>312</ele>
      </trkpt>
      <trkpt lat="44.34176" lon="5.05587">
        <ele>312</ele>
      </trkpt>
      <trkpt lat="44.34167" lon="5.05581">
        <ele>316</ele>
      </trkpt>
      <trkpt lat="44.3411" lon="5.05517">
        <ele>325</ele>
      </trkpt>
      <trkpt lat="44.34052" lon="5.05474">
        <ele>325</ele>
      </trkpt>
      <trkpt lat="44.34038" lon="5.05458">
        <ele>329</ele>
      </trkpt>
      <trkpt lat="44.34027" lon="5.0544">
        <ele>330</ele>
      </trkpt>
      <trkpt lat="44.34017" lon="5.05407">
        <ele>333</ele>
      </trkpt>
      <trkpt lat="44.34015" lon="5.05385">
        <ele>335</ele>
      </trkpt>
      <trkpt lat="44.3402" lon="5.05377">
        <ele>336</ele>
      </trkpt>
      <trkpt lat="44.34024" lon="5.05378">
        <ele>336</ele>
      </trkpt>
      <trkpt lat="44.34027" lon="5.0538">
        <ele>336</ele>
      </trkpt>
      <trkpt lat="44.34033" lon="5.05408">
        <ele>335</ele>
      </trkpt>
      <trkpt lat="44.34042" lon="5.05422">
        <ele>335</ele>
      </trkpt>
      <trkpt lat="44.34049" lon="5.05428">
        <ele>336</ele>
      </trkpt>
      <trkpt lat="44.34062" lon="5.05433">
        <ele>336</ele>
      </trkpt>
      <trkpt lat="44.34117" lon="5.05439">
        <ele>342</ele>
      </trkpt>
      <trkpt lat="44.3417" lon="5.0547">
        <ele>339</ele>
      </trkpt>
      <trkpt lat="44.34175" lon="5.05468">
        <ele>339</ele>
      </trkpt>
      <trkpt lat="44.34177" lon="5.05465">
        <ele>337</ele>
      </trkpt>
      <trkpt lat="44.34177" lon="5.05461">
        <ele>338</ele>
      </trkpt>
      <trkpt lat="44.34175" lon="5.05455">
        <ele>340</ele>
      </trkpt>
      <trkpt lat="44.34152" lon="5.05444">
        <ele>346</ele>
      </trkpt>
      <trkpt lat="44.34131" lon="5.05414">
        <ele>351</ele>
      </trkpt>
      <trkpt lat="44.34098" lon="5.05382">
        <ele>352</ele>
      </trkpt>
      <trkpt lat="44.34085" lon="5.05366">
        <ele>350</ele>
      </trkpt>
      <trkpt lat="44.3408" lon="5.05342">
        <ele>354</ele>
      </trkpt>
      <trkpt lat="44.34085" lon="5.05219">
        <ele>364</ele>
      </trkpt>
      <trkpt lat="44.34083" lon="5.05197">
        <ele>365</ele>
      </trkpt>
      <trkpt lat="44.34081" lon="5.05188">
        <ele>366</ele>
      </trkpt>
      <trkpt lat="44.34076" lon="5.05182">
        <ele>366</ele>
      </trkpt>
      <trkpt lat="44.34055" lon="5.05167">
        <ele>364</ele>
      </trkpt>
      <trkpt lat="44.33995" lon="5.05119">
        <ele>364</ele>
      </trkpt>
      <trkpt lat="44.33978" lon="5.05096">
        <ele>365</ele>
      </trkpt>
      <trkpt lat="44.33966" lon="5.05072">
        <ele>369</ele>
      </trkpt>
      <trkpt lat="44.33965" lon="5.05066">
        <ele>368</ele>
      </trkpt>
      <trkpt lat="44.33967" lon="5.05057">
        <ele>369</ele>
      </trkpt>
      <trkpt lat="44.33967" lon="5.05043">
        <ele>372</ele>
      </trkpt>
      <trkpt lat="44.33977" lon="5.05021">
        <ele>373</ele>
      </trkpt>
      <trkpt lat="44.33998" lon="5.04996">
        <ele>381</ele>
      </trkpt>
      <trkpt lat="44.34029" lon="5.04963">
        <ele>387</ele>
      </trkpt>
      <trkpt lat="44.34059" lon="5.04938">
        <ele>390</ele>
      </trkpt>
      <trkpt lat="44.34087" lon="5.04921">
        <ele>394</ele>
      </trkpt>
      <trkpt lat="44.34125" lon="5.04907">
        <ele>401</ele>
      </trkpt>
      <trkpt lat="44.34155" lon="5.04884">
        <ele>405</ele>
      </trkpt>
      <trkpt lat="44.34174" lon="5.0486">
        <ele>405</ele>
      </trkpt>
      <trkpt lat="44.3419" lon="5.04823">
        <ele>407</ele>
      </trkpt>
      <trkpt lat="44.34201" lon="5.04791">
        <ele>407</ele>
      </trkpt>
      <trkpt lat="44.34203" lon="5.04773">
        <ele>407</ele>
      </trkpt>
      <trkpt lat="44.34202" lon="5.04731">
        <ele>407</ele>
      </trkpt>
      <trkpt lat="44.34205" lon="5.047">
        <ele>410</ele>
      </trkpt>
      <trkpt lat="44.34221" lon="5.04608">
        <ele>413</ele>
      </trkpt>
      <trkpt lat="44.34234" lon="5.04571">
        <ele>413</ele>
      </trkpt>
      <trkpt lat="44.34318" lon="5.04413">
        <ele>412</ele>
      </trkpt>
      <trkpt lat="44.34345" lon="5.04352">
        <ele>408</ele>
      </trkpt>
      <trkpt lat="44.34413" lon="5.04218">
        <ele>398</ele>
      </trkpt>
      <trkpt lat="44.34469" lon="5.04093">
        <ele>391</ele>
      </trkpt>
      <trkpt lat="44.34495" lon="5.04039">
        <ele>385</ele>
      </trkpt>
      <trkpt lat="44.34518" lon="5.03982">
        <ele>381</ele>
      </trkpt>
      <trkpt lat="44.34527" lon="5.03946">
        <ele>379</ele>
      </trkpt>
      <trkpt lat="44.34535" lon="5.03897">
        <ele>375</ele>
      </trkpt>
      <trkpt lat="44.3454" lon="5.03878">
        <ele>372</ele>
      </trkpt>
      <trkpt lat="44.34548" lon="5.03856">
        <ele>369</ele>
      </trkpt>
      <trkpt lat="44.34592" lon="5.03755">
        <ele>359</ele>
      </trkpt>
      <trkpt lat="44.34594" lon="5.03741">
        <ele>357</ele>
      </trkpt>
      <trkpt lat="44.34593" lon="5.03729">
        <ele>357</ele>
      </trkpt>
      <trkpt lat="44.34588" lon="5.03715">
        <ele>356</ele>
      </trkpt>
      <trkpt lat="44.3458" lon="5.03701">
        <ele>356</ele>
      </trkpt>
      <trkpt lat="44.34567" lon="5.03683">
        <ele>355</ele>
      </trkpt>
      <trkpt lat="44.34562" lon="5.03668">
        <ele>356</ele>
      </trkpt>
      <trkpt lat="44.34565" lon="5.03642">
        <ele>355</ele>
      </trkpt>
      <trkpt lat="44.34565" lon="5.03624">
        <ele>354</ele>
      </trkpt>
      <trkpt lat="44.34558" lon="5.03562">
        <ele>355</ele>
      </trkpt>
      <trkpt lat="44.34559" lon="5.03555">
        <ele>357</ele>
      </trkpt>
      <trkpt lat="44.34565" lon="5.03546">
        <ele>357</ele>
      </trkpt>
      <trkpt lat="44.3457" lon="5.03545">
        <ele>359</ele>
      </trkpt>
      <trkpt lat="44.34591" lon="5.03551">
        <ele>360</ele>
      </trkpt>
      <trkpt lat="44.346" lon="5.03545">
        <ele>362</ele>
      </trkpt>
      <trkpt lat="44.34621" lon="5.0351">
        <ele>365</ele>
      </trkpt>
      <trkpt lat="44.34639" lon="5.03484">
        <ele>365</ele>
      </trkpt>
      <trkpt lat="44.34663" lon="5.03457">
        <ele>365</ele>
      </trkpt>
      <trkpt lat="44.34681" lon="5.03432">
        <ele>364</ele>
      </trkpt>
      <trkpt lat="44.34686" lon="5.03419">
        <ele>364</ele>
      </trkpt>
      <trkpt lat="44.34697" lon="5.03371">
        <ele>364</ele>
      </trkpt>
      <trkpt lat="44.34701" lon="5.03363">
        <ele>364</ele>
      </trkpt>
      <trkpt lat="44.34706" lon="5.03358">
        <ele>366</ele>
      </trkpt>
      <trkpt lat="44.34717" lon="5.03353">
        <ele>366</ele>
      </trkpt>
      <trkpt lat="44.35075" lon="5.03266">
        <ele>384</ele>
      </trkpt>
      <trkpt lat="44.35243" lon="5.03237">
        <ele>389</ele>
      </trkpt>
      <trkpt lat="44.35285" lon="5.03241">
        <ele>390</ele>
      </trkpt>
      <trkpt lat="44.35301" lon="5.03239">
        <ele>391</ele>
      </trkpt>
      <trkpt lat="44.35322" lon="5.03227">
        <ele>391</ele>
      </trkpt>
      <trkpt lat="44.35365" lon="5.03194">
        <ele>392</ele>
      </trkpt>
      <trkpt lat="44.35392" lon="5.03179">
        <ele>393</ele>
      </trkpt>
      <trkpt lat="44.35477" lon="5.03151">
        <ele>395</ele>
      </trkpt>
      <trkpt lat="44.35559" lon="5.03129">
        <ele>397</ele>
      </trkpt>
      <trkpt lat="44.35619" lon="5.03083">
        <ele>402</ele>
      </trkpt>
      <trkpt lat="44.35636" lon="5.03071">
        <ele>406</ele>
      </trkpt>
      <trkpt lat="44.35651" lon="5.03065">
        <ele>406</ele>
      </trkpt>
      <trkpt lat="44.35727" lon="5.03046">
        <ele>409</ele>
      </trkpt>
      <trkpt lat="44.35766" lon="5.03042">
        <ele>413</ele>
      </trkpt>
      <trkpt lat="44.35776" lon="5.0304">
        <ele>413</ele>
      </trkpt>
      <trkpt lat="44.35794" lon="5.03029">
        <ele>413</ele>
      </trkpt>
      <trkpt lat="44.35798" lon="5.03027">
        <ele>412</ele>
      </trkpt>
      <trkpt lat="44.35804" lon="5.03029">
        <ele>413</ele>
      </trkpt>
      <trkpt lat="44.35835" lon="5.0298">
        <ele>413</ele>
      </trkpt>
      <trkpt lat="44.3584" lon="5.02963">
        <ele>414</ele>
      </trkpt>
      <trkpt lat="44.35841" lon="5.02952">
        <ele>414</ele>
      </trkpt>
      <trkpt lat="44.35839" lon="5.0294">
        <ele>416</ele>
      </trkpt>
      <trkpt lat="44.35836" lon="5.02931">
        <ele>416</ele>
      </trkpt>
      <trkpt lat="44.35831" lon="5.02921">
        <ele>416</ele>
      </trkpt>
      <trkpt lat="44.35822" lon="5.0291">
        <ele>416</ele>
      </trkpt>
      <trkpt lat="44.35797" lon="5.02888">
        <ele>415</ele>
      </trkpt>
      <trkpt lat="44.35792" lon="5.0288">
        <ele>416</ele>
      </trkpt>
      <trkpt lat="44.35789" lon="5.02869">
        <ele>416</ele>
      </trkpt>
      <trkpt lat="44.3579" lon="5.02861">
        <ele>417</ele>
      </trkpt>
      <trkpt lat="44.35799" lon="5.02844">
        <ele>417</ele>
      </trkpt>
      <trkpt lat="44.35836" lon="5.02791">
        <ele>421</ele>
      </trkpt>
      <trkpt lat="44.35856" lon="5.02773">
        <ele>422</ele>
      </trkpt>
      <trkpt lat="44.3588" lon="5.0276">
        <ele>424</ele>
      </trkpt>
      <trkpt lat="44.35903" lon="5.02751">
        <ele>425</ele>
      </trkpt>
      <trkpt lat="44.35918" lon="5.02738">
        <ele>425</ele>
      </trkpt>
      <trkpt lat="44.35926" lon="5.02727">
        <ele>425</ele>
      </trkpt>
      <trkpt lat="44.35932" lon="5.02714">
        <ele>428</ele>
      </trkpt>
      <trkpt lat="44.35942" lon="5.02684">
        <ele>428</ele>
      </trkpt>
      <trkpt lat="44.35955" lon="5.02632">
        <ele>428</ele>
      </trkpt>
      <trkpt lat="44.35967" lon="5.0256">
        <ele>422</ele>
      </trkpt>
      <trkpt lat="44.35976" lon="5.02538">
        <ele>419</ele>
      </trkpt>
      <trkpt lat="44.3599" lon="5.0252">
        <ele>417</ele>
      </trkpt>
      <trkpt lat="44.36003" lon="5.02508">
        <ele>416</ele>
      </trkpt>
      <trkpt lat="44.36032" lon="5.02494">
        <ele>413</ele>
      </trkpt>
      <trkpt lat="44.36134" lon="5.02459">
        <ele>411</ele>
      </trkpt>
      <trkpt lat="44.36156" lon="5.02455">
        <ele>413</ele>
      </trkpt>
      <trkpt lat="44.36266" lon="5.02451">
        <ele>417</ele>
      </trkpt>
      <trkpt lat="44.36281" lon="5.02448">
        <ele>417</ele>
      </trkpt>
      <trkpt lat="44.36293" lon="5.0244">
        <ele>418</ele>
      </trkpt>
      <trkpt lat="44.36302" lon="5.0243">
        <ele>418</ele>
      </trkpt>
      <trkpt lat="44.36311" lon="5.02416">
        <ele>419</ele>
      </trkpt>
      <trkpt lat="44.36389" lon="5.02275">
        <ele>420</ele>
      </trkpt>
      <trkpt lat="44.36394" lon="5.02262">
        <ele>420</ele>
      </trkpt>
      <trkpt lat="44.364" lon="5.02236">
        <ele>420</ele>
      </trkpt>
      <trkpt lat="44.36401" lon="5.02209">
        <ele>419</ele>
      </trkpt>
      <trkpt lat="44.36395" lon="5.02182">
        <ele>418</ele>
      </trkpt>
      <trkpt lat="44.36369" lon="5.02123">
        <ele>418</ele>
      </trkpt>
      <trkpt lat="44.36298" lon="5.01973">
        <ele>416</ele>
      </trkpt>
      <trkpt lat="44.36288" lon="5.01952">
        <ele>416</ele>
      </trkpt>
      <trkpt lat="44.36274" lon="5.01928">
        <ele>415</ele>
      </trkpt>
      <trkpt lat="44.36207" lon="5.01837">
        <ele>414</ele>
      </trkpt>
      <trkpt lat="44.36185" lon="5.018">
        <ele>415</ele>
      </trkpt>
      <trkpt lat="44.36179" lon="5.01784">
        <ele>415</ele>
      </trkpt>
      <trkpt lat="44.36161" lon="5.01706">
        <ele>409</ele>
      </trkpt>
      <trkpt lat="44.36156" lon="5.01692">
        <ele>407</ele>
      </trkpt>
      <trkpt lat="44.36149" lon="5.01682">
        <ele>407</ele>
      </trkpt>
      <trkpt lat="44.3614" lon="5.01676">
        <ele>410</ele>
      </trkpt>
      <trkpt lat="44.36092" lon="5.01658">
        <ele>410</ele>
      </trkpt>
      <trkpt lat="44.36064" lon="5.01652">
        <ele>410</ele>
      </trkpt>
      <trkpt lat="44.36059" lon="5.01648">
        <ele>410</ele>
      </trkpt>
      <trkpt lat="44.36057" lon="5.01638">
        <ele>407</ele>
      </trkpt>
      <trkpt lat="44.36061" lon="5.01633">
        <ele>406</ele>
      </trkpt>
      <trkpt lat="44.36068" lon="5.01631">
        <ele>406</ele>
      </trkpt>
      <trkpt lat="44.3612" lon="5.01624">
        <ele>405</ele>
      </trkpt>
      <trkpt lat="44.36137" lon="5.01628">
        <ele>404</ele>
      </trkpt>
      <trkpt lat="44.36205" lon="5.01663">
        <ele>400</ele>
      </trkpt>
      <trkpt lat="44.36222" lon="5.01667">
        <ele>400</ele>
      </trkpt>
      <trkpt lat="44.36236" lon="5.01665">
        <ele>400</ele>
      </trkpt>
      <trkpt lat="44.3631" lon="5.01629">
        <ele>393</ele>
      </trkpt>
      <trkpt lat="44.36364" lon="5.0162">
        <ele>390</ele>
      </trkpt>
      <trkpt lat="44.36378" lon="5.01611">
        <ele>387</ele>
      </trkpt>
      <trkpt lat="44.36385" lon="5.01599">
        <ele>387</ele>
      </trkpt>
      <trkpt lat="44.36391" lon="5.01579">
        <ele>386</ele>
      </trkpt>
      <trkpt lat="44.36407" lon="5.01495">
        <ele>386</ele>
      </trkpt>
      <trkpt lat="44.3641" lon="5.01444">
        <ele>387</ele>
      </trkpt>
      <trkpt lat="44.36405" lon="5.01379">
        <ele>387</ele>
      </trkpt>
      <trkpt lat="44.36405" lon="5.01353">
        <ele>385</ele>
      </trkpt>
      <trkpt lat="44.36409" lon="5.01332">
        <ele>383</ele>
      </trkpt>
      <trkpt lat="44.36415" lon="5.01315">
        <ele>383</ele>
      </trkpt>
      <trkpt lat="44.36528" lon="5.01074">
        <ele>377</ele>
      </trkpt>
      <trkpt lat="44.36533" lon="5.01057">
        <ele>376</ele>
      </trkpt>
      <trkpt lat="44.36535" lon="5.01043">
        <ele>374</ele>
      </trkpt>
      <trkpt lat="44.36533" lon="5.01025">
        <ele>373</ele>
      </trkpt>
      <trkpt lat="44.36528" lon="5.01007">
        <ele>373</ele>
      </trkpt>
      <trkpt lat="44.36519" lon="5.00982">
        <ele>375</ele>
      </trkpt>
      <trkpt lat="44.36518" lon="5.00972">
        <ele>376</ele>
      </trkpt>
      <trkpt lat="44.36518" lon="5.00964">
        <ele>377</ele>
      </trkpt>
      <trkpt lat="44.36522" lon="5.00956">
        <ele>377</ele>
      </trkpt>
      <trkpt lat="44.36527" lon="5.00952">
        <ele>377</ele>
      </trkpt>
      <trkpt lat="44.36534" lon="5.0095">
        <ele>376</ele>
      </trkpt>
      <trkpt lat="44.36583" lon="5.00951">
        <ele>371</ele>
      </trkpt>
      <trkpt lat="44.36693" lon="5.00945">
        <ele>359</ele>
      </trkpt>
      <trkpt lat="44.3671" lon="5.00943">
        <ele>360</ele>
      </trkpt>
      <trkpt lat="44.3674" lon="5.0093">
        <ele>361</ele>
      </trkpt>
      <trkpt lat="44.36754" lon="5.00929">
        <ele>361</ele>
      </trkpt>
      <trkpt lat="44.36761" lon="5.00932">
        <ele>361</ele>
      </trkpt>
      <trkpt lat="44.36799" lon="5.00964">
        <ele>355</ele>
      </trkpt>
      <trkpt lat="44.3681" lon="5.00971">
        <ele>354</ele>
      </trkpt>
      <trkpt lat="44.36826" lon="5.00975">
        <ele>351</ele>
      </trkpt>
      <trkpt lat="44.36853" lon="5.00974">
        <ele>354</ele>
      </trkpt>
      <trkpt lat="44.36866" lon="5.00978">
        <ele>355</ele>
      </trkpt>
      <trkpt lat="44.36871" lon="5.00983">
        <ele>355</ele>
      </trkpt>
      <trkpt lat="44.36885" lon="5.01017">
        <ele>351</ele>
      </trkpt>
      <trkpt lat="44.36891" lon="5.01027">
        <ele>350</ele>
      </trkpt>
      <trkpt lat="44.369" lon="5.01035">
        <ele>346</ele>
      </trkpt>
      <trkpt lat="44.36913" lon="5.01042">
        <ele>346</ele>
      </trkpt>
      <trkpt lat="44.36973" lon="5.01061">
        <ele>338</ele>
      </trkpt>
      <trkpt lat="44.36987" lon="5.01062">
        <ele>336</ele>
      </trkpt>
      <trkpt lat="44.37011" lon="5.01057">
        <ele>333</ele>
      </trkpt>
      <trkpt lat="44.37021" lon="5.01053">
        <ele>335</ele>
      </trkpt>
      <trkpt lat="44.37095" lon="5.01">
        <ele>325</ele>
      </trkpt>
      <trkpt lat="44.37103" lon="5.00992">
        <ele>325</ele>
      </trkpt>
      <trkpt lat="44.37109" lon="5.00982">
        <ele>324</ele>
      </trkpt>
      <trkpt lat="44.37141" lon="5.00885">
        <ele>322</ele>
      </trkpt>
      <trkpt lat="44.37144" lon="5.00869">
        <ele>322</ele>
      </trkpt>
      <trkpt lat="44.37144" lon="5.00855">
        <ele>322</ele>
      </trkpt>
      <trkpt lat="44.37142" lon="5.0084">
        <ele>322</ele>
      </trkpt>
      <trkpt lat="44.37133" lon="5.00804">
        <ele>321</ele>
      </trkpt>
      <trkpt lat="44.37131" lon="5.00788">
        <ele>321</ele>
      </trkpt>
      <trkpt lat="44.37134" lon="5.0076">
        <ele>320</ele>
      </trkpt>
      <trkpt lat="44.37139" lon="5.00746">
        <ele>320</ele>
      </trkpt>
      <trkpt lat="44.37151" lon="5.0073">
        <ele>317</ele>
      </trkpt>
      <trkpt lat="44.37158" lon="5.00728">
        <ele>316</ele>
      </trkpt>
      <trkpt lat="44.37166" lon="5.00728">
        <ele>316</ele>
      </trkpt>
      <trkpt lat="44.37175" lon="5.00732">
        <ele>316</ele>
      </trkpt>
      <trkpt lat="44.37187" lon="5.00745">
        <ele>313</ele>
      </trkpt>
      <trkpt lat="44.37194" lon="5.00756">
        <ele>313</ele>
      </trkpt>
      <trkpt lat="44.37201" lon="5.00775">
        <ele>313</ele>
      </trkpt>
      <trkpt lat="44.37207" lon="5.00831">
        <ele>308</ele>
      </trkpt>
      <trkpt lat="44.37216" lon="5.00871">
        <ele>307</ele>
      </trkpt>
      <trkpt lat="44.3723" lon="5.00912">
        <ele>307</ele>
      </trkpt>
      <trkpt lat="44.37285" lon="5.01061">
        <ele>304</ele>
      </trkpt>
      <trkpt lat="44.37292" lon="5.01077">
        <ele>302</ele>
      </trkpt>
      <trkpt lat="44.373" lon="5.01088">
        <ele>302</ele>
      </trkpt>
      <trkpt lat="44.37311" lon="5.01095">
        <ele>302</ele>
      </trkpt>
      <trkpt lat="44.37319" lon="5.01097">
        <ele>300</ele>
      </trkpt>
      <trkpt lat="44.37332" lon="5.01098">
        <ele>300</ele>
      </trkpt>
      <trkpt lat="44.3734" lon="5.01096">
        <ele>299</ele>
      </trkpt>
      <trkpt lat="44.37351" lon="5.01087">
        <ele>297</ele>
      </trkpt>
      <trkpt lat="44.37365" lon="5.01069">
        <ele>297</ele>
      </trkpt>
      <trkpt lat="44.37415" lon="5.00988">
        <ele>291</ele>
      </trkpt>
      <trkpt lat="44.37473" lon="5.00884">
        <ele>284</ele>
      </trkpt>
      <trkpt lat="44.37503" lon="5.00843">
        <ele>282</ele>
      </trkpt>
      <trkpt lat="44.37531" lon="5.00776">
        <ele>280</ele>
      </trkpt>
      <trkpt lat="44.37541" lon="5.00734">
        <ele>277</ele>
      </trkpt>
      <trkpt lat="44.37541" lon="5.00713">
        <ele>277</ele>
      </trkpt>
      <trkpt lat="44.37539" lon="5.00695">
        <ele>277</ele>
      </trkpt>
      <trkpt lat="44.3753" lon="5.00659">
        <ele>278</ele>
      </trkpt>
      <trkpt lat="44.37527" lon="5.00638">
        <ele>277</ele>
      </trkpt>
      <trkpt lat="44.37527" lon="5.00618">
        <ele>277</ele>
      </trkpt>
      <trkpt lat="44.3753" lon="5.00599">
        <ele>277</ele>
      </trkpt>
      <trkpt lat="44.37536" lon="5.00583">
        <ele>277</ele>
      </trkpt>
      <trkpt lat="44.37545" lon="5.00568">
        <ele>274</ele>
      </trkpt>
      <trkpt lat="44.37634" lon="5.00468">
        <ele>268</ele>
      </trkpt>
      <trkpt lat="44.37639" lon="5.00453">
        <ele>267</ele>
      </trkpt>
      <trkpt lat="44.37641" lon="5.00447">
        <ele>267</ele>
      </trkpt>
      <trkpt lat="44.37641" lon="5.00431">
        <ele>267</ele>
      </trkpt>
      <trkpt lat="44.37639" lon="5.00419">
        <ele>267</ele>
      </trkpt>
      <trkpt lat="44.37608" lon="5.00316">
        <ele>261</ele>
      </trkpt>
      <trkpt lat="44.37606" lon="5.00299">
        <ele>260</ele>
      </trkpt>
      <trkpt lat="44.3761" lon="5.0028">
        <ele>259</ele>
      </trkpt>
      <trkpt lat="44.37615" lon="5.0027">
        <ele>259</ele>
      </trkpt>
      <trkpt lat="44.37622" lon="5.00262">
        <ele>259</ele>
      </trkpt>
      <trkpt lat="44.37632" lon="5.00257">
        <ele>259</ele>
      </trkpt>
      <trkpt lat="44.37689" lon="5.00237">
        <ele>254</ele>
      </trkpt>
      <trkpt lat="44.37713" lon="5.00217">
        <ele>253</ele>
      </trkpt>
      <trkpt lat="44.37722" lon="5.00206">
        <ele>253</ele>
      </trkpt>
      <trkpt lat="44.37732" lon="5.00188">
        <ele>252</ele>
      </trkpt>
      <trkpt lat="44.37834" lon="4.99957">
        <ele>247</ele>
      </trkpt>
      <trkpt lat="44.37866" lon="4.9988">
        <ele>246</ele>
      </trkpt>
      <trkpt lat="44.3787" lon="4.9988">
        <ele>246</ele>
      </trkpt>
      <trkpt lat="44.37873" lon="4.99878">
        <ele>246</ele>
      </trkpt>
      <trkpt lat="44.37881" lon="4.99886">
        <ele>247</ele>
      </trkpt>
      <trkpt lat="44.37922" lon="4.99857">
        <ele>247</ele>
      </trkpt>
      <trkpt lat="44.37941" lon="4.9984">
        <ele>248</ele>
      </trkpt>
      <trkpt lat="44.37992" lon="4.99787">
        <ele>246</ele>
      </trkpt>
      <trkpt lat="44.38013" lon="4.99767">
        <ele>246</ele>
      </trkpt>
      <trkpt lat="44.38027" lon="4.99761">
        <ele>246</ele>
      </trkpt>
      <trkpt lat="44.3809" lon="4.99756">
        <ele>247</ele>
      </trkpt>
      <trkpt lat="44.38101" lon="4.99758">
        <ele>248</ele>
      </trkpt>
      <trkpt lat="44.38126" lon="4.99758">
        <ele>247</ele>
      </trkpt>
      <trkpt lat="44.38244" lon="4.99684">
        <ele>248</ele>
      </trkpt>
      <trkpt lat="44.38256" lon="4.9968">
        <ele>248</ele>
      </trkpt>
      <trkpt lat="44.38294" lon="4.99675">
        <ele>248</ele>
      </trkpt>
      <trkpt lat="44.38363" lon="4.99676">
        <ele>248</ele>
      </trkpt>
      <trkpt lat="44.38368" lon="4.99635">
        <ele>247</ele>
      </trkpt>
      <trkpt lat="44.38376" lon="4.99596">
        <ele>248</ele>
      </trkpt>
      <trkpt lat="44.38407" lon="4.99506">
        <ele>248</ele>
      </trkpt>
      <trkpt lat="44.38407" lon="4.99482">
        <ele>249</ele>
      </trkpt>
      <trkpt lat="44.38396" lon="4.994">
        <ele>250</ele>
      </trkpt>
      <trkpt lat="44.38396" lon="4.99382">
        <ele>250</ele>
      </trkpt>
      <trkpt lat="44.38397" lon="4.99364">
        <ele>250</ele>
      </trkpt>
      <trkpt lat="44.384" lon="4.99353">
        <ele>249</ele>
      </trkpt>
      <trkpt lat="44.38409" lon="4.99353">
        <ele>249</ele>
      </trkpt>
      <trkpt lat="44.38413" lon="4.99349">
        <ele>249</ele>
      </trkpt>
      <trkpt lat="44.38422" lon="4.99346">
        <ele>248</ele>
      </trkpt>
      <trkpt lat="44.38432" lon="4.99338">
        <ele>247</ele>
      </trkpt>
      <trkpt lat="44.38438" lon="4.99325">
        <ele>246</ele>
      </trkpt>
      <trkpt lat="44.3855" lon="4.99198">
        <ele>240</ele>
      </trkpt>
      <trkpt lat="44.38575" lon="4.99173">
        <ele>238</ele>
      </trkpt>
      <trkpt lat="44.38638" lon="4.991">
        <ele>234</ele>
      </trkpt>
      <trkpt lat="44.3865" lon="4.99088">
        <ele>233</ele>
      </trkpt>
      <trkpt lat="44.38657" lon="4.99087">
        <ele>233</ele>
      </trkpt>
      <trkpt lat="44.38661" lon="4.99081">
        <ele>233</ele>
      </trkpt>
      <trkpt lat="44.38662" lon="4.99073">
        <ele>233</ele>
      </trkpt>
      <trkpt lat="44.38666" lon="4.99073">
        <ele>233</ele>
      </trkpt>
      <trkpt lat="44.38719" lon="4.99054">
        <ele>231</ele>
      </trkpt>
      <trkpt lat="44.38733" lon="4.99061">
        <ele>231</ele>
      </trkpt>
      <trkpt lat="44.38738" lon="4.99068">
        <ele>231</ele>
      </trkpt>
      <trkpt lat="44.38744" lon="4.99069">
        <ele>231</ele>
      </trkpt>
      <trkpt lat="44.38752" lon="4.99063">
        <ele>231</ele>
      </trkpt>
      <trkpt lat="44.38758" lon="4.99046">
        <ele>230</ele>
      </trkpt>
      <trkpt lat="44.38764" lon="4.9904">
        <ele>230</ele>
      </trkpt>
      <trkpt lat="44.3888" lon="4.99001">
        <ele>230</ele>
      </trkpt>
      <trkpt lat="44.3898" lon="4.98971">
        <ele>229</ele>
      </trkpt>
      <trkpt lat="44.39072" lon="4.9894">
        <ele>229</ele>
      </trkpt>
      <trkpt lat="44.39103" lon="4.98919">
        <ele>229</ele>
      </trkpt>
      <trkpt lat="44.39138" lon="4.98889">
        <ele>228</ele>
      </trkpt>
      <trkpt lat="44.39156" lon="4.98875">
        <ele>228</ele>
      </trkpt>
      <trkpt lat="44.39187" lon="4.98858">
        <ele>227</ele>
      </trkpt>
      <trkpt lat="44.39305" lon="4.98799">
        <ele>229</ele>
      </trkpt>
      <trkpt lat="44.39367" lon="4.98784">
        <ele>228</ele>
      </trkpt>
      <trkpt lat="44.39448" lon="4.98757">
        <ele>228</ele>
      </trkpt>
      <trkpt lat="44.39552" lon="4.98722">
        <ele>230</ele>
      </trkpt>
      <trkpt lat="44.39579" lon="4.98711">
        <ele>230</ele>
      </trkpt>
      <trkpt lat="44.39767" lon="4.98607">
        <ele>232</ele>
      </trkpt>
      <trkpt lat="44.39798" lon="4.98591">
        <ele>232</ele>
      </trkpt>
      <trkpt lat="44.39912" lon="4.98549">
        <ele>233</ele>
      </trkpt>
      <trkpt lat="44.40068" lon="4.98508">
        <ele>236</ele>
      </trkpt>
      <trkpt lat="44.40129" lon="4.98484">
        <ele>233</ele>
      </trkpt>
      <trkpt lat="44.40323" lon="4.98397">
        <ele>234</ele>
      </trkpt>
      <trkpt lat="44.40411" lon="4.9836">
        <ele>234</ele>
      </trkpt>
      <trkpt lat="44.40647" lon="4.98295">
        <ele>232</ele>
      </trkpt>
      <trkpt lat="44.40709" lon="4.98274">
        <ele>235</ele>
      </trkpt>
      <trkpt lat="44.40741" lon="4.98267">
        <ele>234</ele>
      </trkpt>
      <trkpt lat="44.40826" lon="4.98254">
        <ele>236</ele>
      </trkpt>
      <trkpt lat="44.40884" lon="4.98249">
        <ele>237</ele>
      </trkpt>
      <trkpt lat="44.41028" lon="4.98253">
        <ele>238</ele>
      </trkpt>
      <trkpt lat="44.41069" lon="4.98257">
        <ele>239</ele>
      </trkpt>
      <trkpt lat="44.41112" lon="4.98264">
        <ele>239</ele>
      </trkpt>
      <trkpt lat="44.41185" lon="4.98289">
        <ele>240</ele>
      </trkpt>
      <trkpt lat="44.41204" lon="4.98298">
        <ele>240</ele>
      </trkpt>
      <trkpt lat="44.41222" lon="4.98308">
        <ele>240</ele>
      </trkpt>
      <trkpt lat="44.4133" lon="4.98391">
        <ele>243</ele>
      </trkpt>
      <trkpt lat="44.41346" lon="4.98401">
        <ele>244</ele>
      </trkpt>
      <trkpt lat="44.41357" lon="4.98404">
        <ele>244</ele>
      </trkpt>
      <trkpt lat="44.41371" lon="4.98406">
        <ele>244</ele>
      </trkpt>
      <trkpt lat="44.41855" lon="4.98304">
        <ele>249</ele>
      </trkpt>
      <trkpt lat="44.41896" lon="4.98305">
        <ele>250</ele>
      </trkpt>
      <trkpt lat="44.42068" lon="4.98321">
        <ele>251</ele>
      </trkpt>
      <trkpt lat="44.42291" lon="4.98376">
        <ele>246</ele>
      </trkpt>
      <trkpt lat="44.42332" lon="4.98387">
        <ele>246</ele>
      </trkpt>
      <trkpt lat="44.4238" lon="4.98401">
        <ele>246</ele>
      </trkpt>
      <trkpt lat="44.4241" lon="4.98406">
        <ele>246</ele>
      </trkpt>
      <trkpt lat="44.42478" lon="4.9841">
        <ele>248</ele>
      </trkpt>
      <trkpt lat="44.42531" lon="4.98405">
        <ele>248</ele>
      </trkpt>
      <trkpt lat="44.42576" lon="4.98395">
        <ele>248</ele>
      </trkpt>
      <trkpt lat="44.42607" lon="4.98385">
        <ele>247</ele>
      </trkpt>
      <trkpt lat="44.42753" lon="4.98323">
        <ele>248</ele>
      </trkpt>
      <trkpt lat="44.42809" lon="4.98308">
        <ele>250</ele>
      </trkpt>
      <trkpt lat="44.42927" lon="4.98294">
        <ele>252</ele>
      </trkpt>
      <trkpt lat="44.42962" lon="4.98293">
        <ele>256</ele>
      </trkpt>
      <trkpt lat="44.43069" lon="4.98298">
        <ele>258</ele>
      </trkpt>
      <trkpt lat="44.43178" lon="4.98295">
        <ele>255</ele>
      </trkpt>
      <trkpt lat="44.43199" lon="4.98292">
        <ele>255</ele>
      </trkpt>
      <trkpt lat="44.43229" lon="4.98283">
        <ele>255</ele>
      </trkpt>
      <trkpt lat="44.43254" lon="4.98271">
        <ele>256</ele>
      </trkpt>
      <trkpt lat="44.43267" lon="4.98263">
        <ele>257</ele>
      </trkpt>
      <trkpt lat="44.43282" lon="4.9825">
        <ele>257</ele>
      </trkpt>
      <trkpt lat="44.43292" lon="4.98237">
        <ele>257</ele>
      </trkpt>
      <trkpt lat="44.433" lon="4.9822">
        <ele>257</ele>
      </trkpt>
      <trkpt lat="44.43311" lon="4.98189">
        <ele>257</ele>
      </trkpt>
      <trkpt lat="44.43362" lon="4.97947">
        <ele>266</ele>
      </trkpt>
      <trkpt lat="44.4337" lon="4.97916">
        <ele>265</ele>
      </trkpt>
      <trkpt lat="44.43396" lon="4.97855">
        <ele>268</ele>
      </trkpt>
      <trkpt lat="44.43437" lon="4.9778">
        <ele>273</ele>
      </trkpt>
      <trkpt lat="44.43463" lon="4.97736">
        <ele>275</ele>
      </trkpt>
      <trkpt lat="44.4348" lon="4.97716">
        <ele>275</ele>
      </trkpt>
      <trkpt lat="44.43499" lon="4.97703">
        <ele>275</ele>
      </trkpt>
      <trkpt lat="44.43539" lon="4.97679">
        <ele>272</ele>
      </trkpt>
      <trkpt lat="44.43589" lon="4.97661">
        <ele>266</ele>
      </trkpt>
      <trkpt lat="44.43613" lon="4.9766">
        <ele>265</ele>
      </trkpt>
      <trkpt lat="44.43639" lon="4.97667">
        <ele>266</ele>
      </trkpt>
      <trkpt lat="44.43685" lon="4.97693">
        <ele>260</ele>
      </trkpt>
      <trkpt lat="44.43773" lon="4.97732">
        <ele>260</ele>
      </trkpt>
      <trkpt lat="44.43904" lon="4.97794">
        <ele>262</ele>
      </trkpt>
      <trkpt lat="44.43941" lon="4.97816">
        <ele>264</ele>
      </trkpt>
      <trkpt lat="44.43977" lon="4.97843">
        <ele>264</ele>
      </trkpt>
      <trkpt lat="44.44048" lon="4.97921">
        <ele>262</ele>
      </trkpt>
      <trkpt lat="44.44149" lon="4.98053">
        <ele>267</ele>
      </trkpt>
      <trkpt lat="44.44173" lon="4.98075">
        <ele>270</ele>
      </trkpt>
      <trkpt lat="44.44174" lon="4.98079">
        <ele>270</ele>
      </trkpt>
      <trkpt lat="44.44177" lon="4.98081">
        <ele>270</ele>
      </trkpt>
      <trkpt lat="44.4418" lon="4.98081">
        <ele>270</ele>
      </trkpt>
      <trkpt lat="44.44183" lon="4.98076">
        <ele>270</ele>
      </trkpt>
      <trkpt lat="44.44191" lon="4.9807">
        <ele>271</ele>
      </trkpt>
      <trkpt lat="44.44203" lon="4.98059">
        <ele>270</ele>
      </trkpt>
      <trkpt lat="44.44219" lon="4.9804">
        <ele>271</ele>
      </trkpt>
      <trkpt lat="44.44239" lon="4.98012">
        <ele>272</ele>
      </trkpt>
      <trkpt lat="44.44264" lon="4.97964">
        <ele>271</ele>
      </trkpt>
      <trkpt lat="44.44274" lon="4.97958">
        <ele>270</ele>
      </trkpt>
      <trkpt lat="44.4428" lon="4.97954">
        <ele>271</ele>
      </trkpt>
      <trkpt lat="44.44288" lon="4.97952">
        <ele>271</ele>
      </trkpt>
      <trkpt lat="44.44298" lon="4.97952">
        <ele>273</ele>
      </trkpt>
      <trkpt lat="44.4432" lon="4.97962">
        <ele>275</ele>
      </trkpt>
      <trkpt lat="44.4433" lon="4.97961">
        <ele>276</ele>
      </trkpt>
      <trkpt lat="44.44358" lon="4.97944">
        <ele>276</ele>
      </trkpt>
      <trkpt lat="44.44364" lon="4.97934">
        <ele>274</ele>
      </trkpt>
      <trkpt lat="44.44376" lon="4.97945">
        <ele>276</ele>
      </trkpt>
      <trkpt lat="44.44396" lon="4.97948">
        <ele>276</ele>
      </trkpt>
      <trkpt lat="44.4441" lon="4.97952">
        <ele>276</ele>
      </trkpt>
      <trkpt lat="44.44427" lon="4.97963">
        <ele>276</ele>
      </trkpt>
      <trkpt lat="44.4444" lon="4.97945">
        <ele>277</ele>
      </trkpt>
      <trkpt lat="44.44457" lon="4.97906">
        <ele>280</ele>
      </trkpt>
      <trkpt lat="44.44484" lon="4.97914">
        <ele>280</ele>
      </trkpt>
      <trkpt lat="44.44506" lon="4.97917">
        <ele>281</ele>
      </trkpt>
      <trkpt lat="44.44543" lon="4.97917">
        <ele>283</ele>
      </trkpt>
      <trkpt lat="44.44648" lon="4.97927">
        <ele>288</ele>
      </trkpt>
      <trkpt lat="44.44671" lon="4.97922">
        <ele>290</ele>
      </trkpt>
      <trkpt lat="44.44706" lon="4.97924">
        <ele>291</ele>
      </trkpt>
      <trkpt lat="44.44754" lon="4.97861">
        <ele>295</ele>
      </trkpt>
      <trkpt lat="44.44826" lon="4.97758">
        <ele>300</ele>
      </trkpt>
      <trkpt lat="44.44862" lon="4.97718">
        <ele>301</ele>
      </trkpt>
      <trkpt lat="44.4491" lon="4.97679">
        <ele>302</ele>
      </trkpt>
      <trkpt lat="44.45016" lon="4.97585">
        <ele>306</ele>
      </trkpt>
      <trkpt lat="44.45139" lon="4.97513">
        <ele>314</ele>
      </trkpt>
      <trkpt lat="44.45169" lon="4.97498">
        <ele>315</ele>
      </trkpt>
      <trkpt lat="44.45459" lon="4.97312">
        <ele>301</ele>
      </trkpt>
      <trkpt lat="44.45514" lon="4.97274">
        <ele>304</ele>
      </trkpt>
      <trkpt lat="44.45538" lon="4.97247">
        <ele>305</ele>
      </trkpt>
      <trkpt lat="44.45569" lon="4.97201">
        <ele>311</ele>
      </trkpt>
      <trkpt lat="44.45599" lon="4.97164">
        <ele>309</ele>
      </trkpt>
      <trkpt lat="44.45709" lon="4.97073">
        <ele>309</ele>
      </trkpt>
      <trkpt lat="44.45731" lon="4.97061">
        <ele>308</ele>
      </trkpt>
      <trkpt lat="44.45752" lon="4.97053">
        <ele>305</ele>
      </trkpt>
      <trkpt lat="44.45881" lon="4.9702">
        <ele>304</ele>
      </trkpt>
      <trkpt lat="44.45904" lon="4.97001">
        <ele>305</ele>
      </trkpt>
      <trkpt lat="44.46088" lon="4.96763">
        <ele>311</ele>
      </trkpt>
      <trkpt lat="44.46204" lon="4.96591">
        <ele>313</ele>
      </trkpt>
      <trkpt lat="44.46364" lon="4.96447">
        <ele>319</ele>
      </trkpt>
      <trkpt lat="44.46394" lon="4.96433">
        <ele>318</ele>
      </trkpt>
      <trkpt lat="44.46461" lon="4.96424">
        <ele>316</ele>
      </trkpt>
      <trkpt lat="44.4651" lon="4.96414">
        <ele>317</ele>
      </trkpt>
      <trkpt lat="44.46546" lon="4.96404">
        <ele>320</ele>
      </trkpt>
      <trkpt lat="44.4656" lon="4.96393">
        <ele>320</ele>
      </trkpt>
      <trkpt lat="44.46572" lon="4.96377">
        <ele>321</ele>
      </trkpt>
      <trkpt lat="44.46598" lon="4.96306">
        <ele>323</ele>
      </trkpt>
      <trkpt lat="44.46609" lon="4.96291">
        <ele>323</ele>
      </trkpt>
      <trkpt lat="44.46622" lon="4.9628">
        <ele>323</ele>
      </trkpt>
      <trkpt lat="44.46637" lon="4.96272">
        <ele>325</ele>
      </trkpt>
      <trkpt lat="44.46673" lon="4.96222">
        <ele>327</ele>
      </trkpt>
      <trkpt lat="44.46697" lon="4.962">
        <ele>329</ele>
      </trkpt>
      <trkpt lat="44.46722" lon="4.96184">
        <ele>331</ele>
      </trkpt>
      <trkpt lat="44.46774" lon="4.96128">
        <ele>332</ele>
      </trkpt>
      <trkpt lat="44.46802" lon="4.96093">
        <ele>333</ele>
      </trkpt>
      <trkpt lat="44.46844" lon="4.96028">
        <ele>336</ele>
      </trkpt>
      <trkpt lat="44.46855" lon="4.96014">
        <ele>337</ele>
      </trkpt>
      <trkpt lat="44.46875" lon="4.96001">
        <ele>337</ele>
      </trkpt>
      <trkpt lat="44.46892" lon="4.95992">
        <ele>337</ele>
      </trkpt>
      <trkpt lat="44.4703" lon="4.95929">
        <ele>344</ele>
      </trkpt>
      <trkpt lat="44.47045" lon="4.95918">
        <ele>348</ele>
      </trkpt>
      <trkpt lat="44.47087" lon="4.95847">
        <ele>349</ele>
      </trkpt>
      <trkpt lat="44.47101" lon="4.95834">
        <ele>353</ele>
      </trkpt>
      <trkpt lat="44.47113" lon="4.95829">
        <ele>355</ele>
      </trkpt>
      <trkpt lat="44.47132" lon="4.95829">
        <ele>358</ele>
      </trkpt>
      <trkpt lat="44.47301" lon="4.95875">
        <ele>371</ele>
      </trkpt>
      <trkpt lat="44.47392" lon="4.9591">
        <ele>378</ele>
      </trkpt>
      <trkpt lat="44.47422" lon="4.9592">
        <ele>376</ele>
      </trkpt>
      <trkpt lat="44.47452" lon="4.95921">
        <ele>378</ele>
      </trkpt>
      <trkpt lat="44.47537" lon="4.95931">
        <ele>387</ele>
      </trkpt>
      <trkpt lat="44.47615" lon="4.95947">
        <ele>387</ele>
      </trkpt>
      <trkpt lat="44.47649" lon="4.95947">
        <ele>389</ele>
      </trkpt>
      <trkpt lat="44.47738" lon="4.95925">
        <ele>399</ele>
      </trkpt>
      <trkpt lat="44.47771" lon="4.95927">
        <ele>402</ele>
      </trkpt>
      <trkpt lat="44.47827" lon="4.95943">
        <ele>407</ele>
      </trkpt>
      <trkpt lat="44.479" lon="4.95957">
        <ele>410</ele>
      </trkpt>
      <trkpt lat="44.4797" lon="4.95975">
        <ele>415</ele>
      </trkpt>
      <trkpt lat="44.47993" lon="4.95981">
        <ele>417</ele>
      </trkpt>
      <trkpt lat="44.48026" lon="4.95998">
        <ele>418</ele>
      </trkpt>
      <trkpt lat="44.48046" lon="4.96005">
        <ele>416</ele>
      </trkpt>
      <trkpt lat="44.48061" lon="4.96007">
        <ele>416</ele>
      </trkpt>
      <trkpt lat="44.48066" lon="4.96001">
        <ele>417</ele>
      </trkpt>
      <trkpt lat="44.48063" lon="4.95994">
        <ele>421</ele>
      </trkpt>
      <trkpt lat="44.4801" lon="4.95967">
        <ele>422</ele>
      </trkpt>
      <trkpt lat="44.47993" lon="4.95954">
        <ele>423</ele>
      </trkpt>
      <trkpt lat="44.47974" lon="4.95944">
        <ele>420</ele>
      </trkpt>
      <trkpt lat="44.47871" lon="4.95898">
        <ele>421</ele>
      </trkpt>
      <trkpt lat="44.4777" lon="4.95845">
        <ele>418</ele>
      </trkpt>
      <trkpt lat="44.47761" lon="4.95838">
        <ele>417</ele>
      </trkpt>
      <trkpt lat="44.47758" lon="4.95829">
        <ele>416</ele>
      </trkpt>
      <trkpt lat="44.47762" lon="4.95821">
        <ele>415</ele>
      </trkpt>
      <trkpt lat="44.47772" lon="4.95819">
        <ele>416</ele>
      </trkpt>
      <trkpt lat="44.47822" lon="4.95827">
        <ele>422</ele>
      </trkpt>
      <trkpt lat="44.47847" lon="4.95825">
        <ele>425</ele>
      </trkpt>
      <trkpt lat="44.47879" lon="4.95813">
        <ele>428</ele>
      </trkpt>
      <trkpt lat="44.47958" lon="4.95801">
        <ele>434</ele>
      </trkpt>
      <trkpt lat="44.48009" lon="4.95789">
        <ele>436</ele>
      </trkpt>
      <trkpt lat="44.48029" lon="4.95789">
        <ele>439</ele>
      </trkpt>
      <trkpt lat="44.48115" lon="4.95774">
        <ele>440</ele>
      </trkpt>
      <trkpt lat="44.48229" lon="4.95775">
        <ele>448</ele>
      </trkpt>
      <trkpt lat="44.48388" lon="4.95751">
        <ele>465</ele>
      </trkpt>
      <trkpt lat="44.48493" lon="4.95747">
        <ele>469</ele>
      </trkpt>
      <trkpt lat="44.48516" lon="4.95739">
        <ele>472</ele>
      </trkpt>
      <trkpt lat="44.48543" lon="4.95724">
        <ele>476</ele>
      </trkpt>
      <trkpt lat="44.48573" lon="4.95704">
        <ele>476</ele>
      </trkpt>
      <trkpt lat="44.48605" lon="4.9568">
        <ele>478</ele>
      </trkpt>
      <trkpt lat="44.48623" lon="4.9567">
        <ele>478</ele>
      </trkpt>
      <trkpt lat="44.48652" lon="4.95669">
        <ele>481</ele>
      </trkpt>
      <trkpt lat="44.48672" lon="4.95678">
        <ele>483</ele>
      </trkpt>
      <trkpt lat="44.48749" lon="4.95722">
        <ele>490</ele>
      </trkpt>
      <trkpt lat="44.48783" lon="4.95746">
        <ele>493</ele>
      </trkpt>
      <trkpt lat="44.48821" lon="4.95757">
        <ele>494</ele>
      </trkpt>
      <trkpt lat="44.48878" lon="4.95788">
        <ele>497</ele>
      </trkpt>
      <trkpt lat="44.48885" lon="4.95788">
        <ele>497</ele>
      </trkpt>
      <trkpt lat="44.48888" lon="4.95786">
        <ele>497</ele>
      </trkpt>
      <trkpt lat="44.4889" lon="4.95778">
        <ele>497</ele>
      </trkpt>
      <trkpt lat="44.48875" lon="4.95709">
        <ele>500</ele>
      </trkpt>
      <trkpt lat="44.48875" lon="4.9569">
        <ele>501</ele>
      </trkpt>
      <trkpt lat="44.48878" lon="4.95675">
        <ele>501</ele>
      </trkpt>
      <trkpt lat="44.489" lon="4.95644">
        <ele>503</ele>
      </trkpt>
      <trkpt lat="44.48956" lon="4.95589">
        <ele>505</ele>
      </trkpt>
      <trkpt lat="44.48972" lon="4.95577">
        <ele>506</ele>
      </trkpt>
      <trkpt lat="44.48992" lon="4.95563">
        <ele>507</ele>
      </trkpt>
      <trkpt lat="44.49031" lon="4.95544">
        <ele>507</ele>
      </trkpt>
      <trkpt lat="44.49073" lon="4.9554">
        <ele>507</ele>
      </trkpt>
      <trkpt lat="44.49112" lon="4.95511">
        <ele>506</ele>
      </trkpt>
      <trkpt lat="44.49138" lon="4.95488">
        <ele>507</ele>
      </trkpt>
      <trkpt lat="44.49152" lon="4.95461">
        <ele>507</ele>
      </trkpt>
      <trkpt lat="44.49165" lon="4.95408">
        <ele>507</ele>
      </trkpt>
      <trkpt lat="44.49178" lon="4.95374">
        <ele>506</ele>
      </trkpt>
      <trkpt lat="44.4919" lon="4.95331">
        <ele>508</ele>
      </trkpt>
      <trkpt lat="44.49206" lon="4.95252">
        <ele>506</ele>
      </trkpt>
      <trkpt lat="44.4922" lon="4.95208">
        <ele>505</ele>
      </trkpt>
      <trkpt lat="44.49302" lon="4.95089">
        <ele>501</ele>
      </trkpt>
      <trkpt lat="44.49361" lon="4.95019">
        <ele>503</ele>
      </trkpt>
      <trkpt lat="44.49398" lon="4.94952">
        <ele>500</ele>
      </trkpt>
      <trkpt lat="44.49441" lon="4.94892">
        <ele>500</ele>
      </trkpt>
      <trkpt lat="44.49485" lon="4.94838">
        <ele>496</ele>
      </trkpt>
      <trkpt lat="44.4956" lon="4.94771">
        <ele>492</ele>
      </trkpt>
      <trkpt lat="44.49574" lon="4.94763">
        <ele>493</ele>
      </trkpt>
      <trkpt lat="44.49588" lon="4.94751">
        <ele>493</ele>
      </trkpt>
      <trkpt lat="44.49598" lon="4.94738">
        <ele>492</ele>
      </trkpt>
      <trkpt lat="44.49622" lon="4.94714">
        <ele>492</ele>
      </trkpt>
      <trkpt lat="44.4965" lon="4.94669">
        <ele>493</ele>
      </trkpt>
      <trkpt lat="44.49654" lon="4.94644">
        <ele>493</ele>
      </trkpt>
      <trkpt lat="44.49653" lon="4.94587">
        <ele>493</ele>
      </trkpt>
      <trkpt lat="44.49629" lon="4.94412">
        <ele>494</ele>
      </trkpt>
      <trkpt lat="44.49612" lon="4.94346">
        <ele>495</ele>
      </trkpt>
      <trkpt lat="44.49584" lon="4.9428">
        <ele>493</ele>
      </trkpt>
      <trkpt lat="44.49549" lon="4.94202">
        <ele>487</ele>
      </trkpt>
      <trkpt lat="44.49534" lon="4.94132">
        <ele>488</ele>
      </trkpt>
      <trkpt lat="44.49518" lon="4.93989">
        <ele>489</ele>
      </trkpt>
      <trkpt lat="44.49513" lon="4.93955">
        <ele>490</ele>
      </trkpt>
      <trkpt lat="44.49513" lon="4.93932">
        <ele>491</ele>
      </trkpt>
      <trkpt lat="44.49516" lon="4.93902">
        <ele>492</ele>
      </trkpt>
      <trkpt lat="44.49514" lon="4.93884">
        <ele>492</ele>
      </trkpt>
      <trkpt lat="44.49506" lon="4.93863">
        <ele>491</ele>
      </trkpt>
      <trkpt lat="44.49497" lon="4.93846">
        <ele>490</ele>
      </trkpt>
      <trkpt lat="44.4949" lon="4.93816">
        <ele>489</ele>
      </trkpt>
      <trkpt lat="44.49489" lon="4.93765">
        <ele>487</ele>
      </trkpt>
      <trkpt lat="44.49493" lon="4.93724">
        <ele>486</ele>
      </trkpt>
      <trkpt lat="44.49499" lon="4.93708">
        <ele>484</ele>
      </trkpt>
      <trkpt lat="44.49501" lon="4.93695">
        <ele>484</ele>
      </trkpt>
      <trkpt lat="44.49491" lon="4.93675">
        <ele>483</ele>
      </trkpt>
      <trkpt lat="44.49497" lon="4.93658">
        <ele>481</ele>
      </trkpt>
      <trkpt lat="44.49509" lon="4.93636">
        <ele>480</ele>
      </trkpt>
      <trkpt lat="44.49524" lon="4.93615">
        <ele>480</ele>
      </trkpt>
      <trkpt lat="44.49532" lon="4.9361">
        <ele>480</ele>
      </trkpt>
      <trkpt lat="44.49543" lon="4.93609">
        <ele>478</ele>
      </trkpt>
      <trkpt lat="44.4956" lon="4.93615">
        <ele>479</ele>
      </trkpt>
      <trkpt lat="44.49609" lon="4.93643">
        <ele>479</ele>
      </trkpt>
      <trkpt lat="44.49629" lon="4.93647">
        <ele>478</ele>
      </trkpt>
      <trkpt lat="44.49648" lon="4.93641">
        <ele>478</ele>
      </trkpt>
      <trkpt lat="44.49685" lon="4.9361">
        <ele>472</ele>
      </trkpt>
      <trkpt lat="44.49693" lon="4.93607">
        <ele>471</ele>
      </trkpt>
      <trkpt lat="44.49707" lon="4.93606">
        <ele>471</ele>
      </trkpt>
      <trkpt lat="44.4972" lon="4.93614">
        <ele>468</ele>
      </trkpt>
      <trkpt lat="44.49729" lon="4.93626">
        <ele>468</ele>
      </trkpt>
      <trkpt lat="44.49736" lon="4.93639">
        <ele>468</ele>
      </trkpt>
      <trkpt lat="44.49753" lon="4.93702">
        <ele>468</ele>
      </trkpt>
      <trkpt lat="44.49757" lon="4.9371">
        <ele>468</ele>
      </trkpt>
      <trkpt lat="44.49767" lon="4.93719">
        <ele>466</ele>
      </trkpt>
      <trkpt lat="44.49777" lon="4.93722">
        <ele>466</ele>
      </trkpt>
      <trkpt lat="44.49788" lon="4.93721">
        <ele>466</ele>
      </trkpt>
      <trkpt lat="44.49798" lon="4.93716">
        <ele>465</ele>
      </trkpt>
      <trkpt lat="44.49846" lon="4.93669">
        <ele>464</ele>
      </trkpt>
      <trkpt lat="44.49865" lon="4.93657">
        <ele>463</ele>
      </trkpt>
      <trkpt lat="44.49878" lon="4.9365">
        <ele>462</ele>
      </trkpt>
      <trkpt lat="44.49932" lon="4.93632">
        <ele>458</ele>
      </trkpt>
      <trkpt lat="44.49959" lon="4.93625">
        <ele>456</ele>
      </trkpt>
      <trkpt lat="44.50006" lon="4.93623">
        <ele>454</ele>
      </trkpt>
      <trkpt lat="44.50018" lon="4.93625">
        <ele>452</ele>
      </trkpt>
      <trkpt lat="44.50026" lon="4.93632">
        <ele>451</ele>
      </trkpt>
      <trkpt lat="44.50034" lon="4.93645">
        <ele>452</ele>
      </trkpt>
      <trkpt lat="44.50036" lon="4.93659">
        <ele>452</ele>
      </trkpt>
      <trkpt lat="44.50033" lon="4.93675">
        <ele>451</ele>
      </trkpt>
      <trkpt lat="44.49995" lon="4.93734">
        <ele>445</ele>
      </trkpt>
      <trkpt lat="44.49986" lon="4.93758">
        <ele>444</ele>
      </trkpt>
      <trkpt lat="44.49969" lon="4.93944">
        <ele>434</ele>
      </trkpt>
      <trkpt lat="44.49964" lon="4.94028">
        <ele>432</ele>
      </trkpt>
      <trkpt lat="44.49968" lon="4.94054">
        <ele>432</ele>
      </trkpt>
      <trkpt lat="44.49984" lon="4.94075">
        <ele>431</ele>
      </trkpt>
      <trkpt lat="44.50221" lon="4.94226">
        <ele>422</ele>
      </trkpt>
      <trkpt lat="44.50236" lon="4.94226">
        <ele>422</ele>
      </trkpt>
      <trkpt lat="44.50249" lon="4.94217">
        <ele>420</ele>
      </trkpt>
      <trkpt lat="44.50276" lon="4.94175">
        <ele>417</ele>
      </trkpt>
      <trkpt lat="44.50293" lon="4.94158">
        <ele>414</ele>
      </trkpt>
      <trkpt lat="44.50315" lon="4.94147">
        <ele>414</ele>
      </trkpt>
      <trkpt lat="44.50448" lon="4.94103">
        <ele>414</ele>
      </trkpt>
      <trkpt lat="44.50468" lon="4.9409">
        <ele>417</ele>
      </trkpt>
      <trkpt lat="44.50484" lon="4.94075">
        <ele>411</ele>
      </trkpt>
      <trkpt lat="44.50569" lon="4.93968">
        <ele>401</ele>
      </trkpt>
      <trkpt lat="44.50617" lon="4.93922">
        <ele>401</ele>
      </trkpt>
      <trkpt lat="44.5067" lon="4.93877">
        <ele>389</ele>
      </trkpt>
      <trkpt lat="44.50685" lon="4.93867">
        <ele>389</ele>
      </trkpt>
      <trkpt lat="44.50703" lon="4.93862">
        <ele>388</ele>
      </trkpt>
      <trkpt lat="44.50734" lon="4.93858">
        <ele>383</ele>
      </trkpt>
      <trkpt lat="44.50773" lon="4.93847">
        <ele>387</ele>
      </trkpt>
      <trkpt lat="44.50807" lon="4.93825">
        <ele>384</ele>
      </trkpt>
      <trkpt lat="44.50839" lon="4.93796">
        <ele>380</ele>
      </trkpt>
      <trkpt lat="44.50883" lon="4.93726">
        <ele>368</ele>
      </trkpt>
      <trkpt lat="44.50896" lon="4.93719">
        <ele>363</ele>
      </trkpt>
      <trkpt lat="44.50915" lon="4.93717">
        <ele>360</ele>
      </trkpt>
      <trkpt lat="44.50929" lon="4.93722">
        <ele>364</ele>
      </trkpt>
      <trkpt lat="44.50941" lon="4.93731">
        <ele>361</ele>
      </trkpt>
      <trkpt lat="44.50946" lon="4.93743">
        <ele>362</ele>
      </trkpt>
      <trkpt lat="44.50946" lon="4.93757">
        <ele>368</ele>
      </trkpt>
      <trkpt lat="44.50942" lon="4.93784">
        <ele>375</ele>
      </trkpt>
      <trkpt lat="44.50943" lon="4.93797">
        <ele>376</ele>
      </trkpt>
      <trkpt lat="44.50952" lon="4.93809">
        <ele>380</ele>
      </trkpt>
      <trkpt lat="44.5096" lon="4.93811">
        <ele>378</ele>
      </trkpt>
      <trkpt lat="44.50967" lon="4.93811">
        <ele>377</ele>
      </trkpt>
      <trkpt lat="44.5109" lon="4.93776">
        <ele>357</ele>
      </trkpt>
      <trkpt lat="44.51132" lon="4.93772">
        <ele>354</ele>
      </trkpt>
      <trkpt lat="44.51214" lon="4.93782">
        <ele>359</ele>
      </trkpt>
      <trkpt lat="44.51283" lon="4.93779">
        <ele>359</ele>
      </trkpt>
      <trkpt lat="44.5145" lon="4.93736">
        <ele>340</ele>
      </trkpt>
      <trkpt lat="44.5149" lon="4.93738">
        <ele>333</ele>
      </trkpt>
      <trkpt lat="44.51571" lon="4.93774">
        <ele>330</ele>
      </trkpt>
      <trkpt lat="44.51596" lon="4.9378">
        <ele>336</ele>
      </trkpt>
      <trkpt lat="44.51641" lon="4.93784">
        <ele>328</ele>
      </trkpt>
      <trkpt lat="44.51739" lon="4.93803">
        <ele>317</ele>
      </trkpt>
      <trkpt lat="44.5175" lon="4.93808">
        <ele>319</ele>
      </trkpt>
      <trkpt lat="44.51758" lon="4.93818">
        <ele>319</ele>
      </trkpt>
      <trkpt lat="44.51764" lon="4.93833">
        <ele>321</ele>
      </trkpt>
      <trkpt lat="44.51769" lon="4.93898">
        <ele>318</ele>
      </trkpt>
      <trkpt lat="44.51771" lon="4.93977">
        <ele>319</ele>
      </trkpt>
      <trkpt lat="44.51768" lon="4.93991">
        <ele>319</ele>
      </trkpt>
      <trkpt lat="44.51762" lon="4.94003">
        <ele>322</ele>
      </trkpt>
      <trkpt lat="44.51729" lon="4.94043">
        <ele>324</ele>
      </trkpt>
      <trkpt lat="44.51724" lon="4.94055">
        <ele>323</ele>
      </trkpt>
      <trkpt lat="44.51728" lon="4.94074">
        <ele>323</ele>
      </trkpt>
      <trkpt lat="44.5173" lon="4.94078">
        <ele>324</ele>
      </trkpt>
      <trkpt lat="44.51738" lon="4.94081">
        <ele>323</ele>
      </trkpt>
      <trkpt lat="44.51746" lon="4.9408">
        <ele>324</ele>
      </trkpt>
      <trkpt lat="44.51815" lon="4.94024">
        <ele>318</ele>
      </trkpt>
      <trkpt lat="44.51825" lon="4.9401">
        <ele>322</ele>
      </trkpt>
      <trkpt lat="44.51833" lon="4.93994">
        <ele>324</ele>
      </trkpt>
      <trkpt lat="44.51835" lon="4.93979">
        <ele>324</ele>
      </trkpt>
      <trkpt lat="44.51834" lon="4.93931">
        <ele>325</ele>
      </trkpt>
      <trkpt lat="44.51869" lon="4.93766">
        <ele>313</ele>
      </trkpt>
      <trkpt lat="44.51882" lon="4.93735">
        <ele>312</ele>
      </trkpt>
      <trkpt lat="44.51896" lon="4.93719">
        <ele>308</ele>
      </trkpt>
      <trkpt lat="44.51957" lon="4.93688">
        <ele>306</ele>
      </trkpt>
      <trkpt lat="44.52007" lon="4.93665">
        <ele>306</ele>
      </trkpt>
      <trkpt lat="44.52062" lon="4.9366">
        <ele>303</ele>
      </trkpt>
      <trkpt lat="44.52126" lon="4.93648">
        <ele>291</ele>
      </trkpt>
      <trkpt lat="44.52138" lon="4.93652">
        <ele>289</ele>
      </trkpt>
      <trkpt lat="44.52185" lon="4.93698">
        <ele>303</ele>
      </trkpt>
      <trkpt lat="44.52196" lon="4.93701">
        <ele>303</ele>
      </trkpt>
      <trkpt lat="44.52245" lon="4.93695">
        <ele>298</ele>
      </trkpt>
      <trkpt lat="44.52259" lon="4.93699">
        <ele>298</ele>
      </trkpt>
      <trkpt lat="44.52282" lon="4.93713">
        <ele>298</ele>
      </trkpt>
      <trkpt lat="44.52294" lon="4.93714">
        <ele>299</ele>
      </trkpt>
      <trkpt lat="44.523" lon="4.93709">
        <ele>299</ele>
      </trkpt>
      <trkpt lat="44.52316" lon="4.93678">
        <ele>294</ele>
      </trkpt>
      <trkpt lat="44.52332" lon="4.93663">
        <ele>291</ele>
      </trkpt>
      <trkpt lat="44.52624" lon="4.93499">
        <ele>275</ele>
      </trkpt>
      <trkpt lat="44.52732" lon="4.93436">
        <ele>273</ele>
      </trkpt>
      <trkpt lat="44.52836" lon="4.9335">
        <ele>264</ele>
      </trkpt>
      <trkpt lat="44.53008" lon="4.93211">
        <ele>252</ele>
      </trkpt>
      <trkpt lat="44.53045" lon="4.93202">
        <ele>249</ele>
      </trkpt>
      <trkpt lat="44.53809" lon="4.93365">
        <ele>226</ele>
      </trkpt>
      <trkpt lat="44.53839" lon="4.93372">
        <ele>225</ele>
      </trkpt>
      <trkpt lat="44.54313" lon="4.93475">
        <ele>214</ele>
      </trkpt>
      <trkpt lat="44.54347" lon="4.93484">
        <ele>214</ele>
      </trkpt>
      <trkpt lat="44.5444" lon="4.93501">
        <ele>219</ele>
      </trkpt>
      <trkpt lat="44.54454" lon="4.93507">
        <ele>219</ele>
      </trkpt>
      <trkpt lat="44.54467" lon="4.93508">
        <ele>221</ele>
      </trkpt>
      <trkpt lat="44.54469" lon="4.93512">
        <ele>222</ele>
      </trkpt>
      <trkpt lat="44.5447" lon="4.9353">
        <ele>222</ele>
      </trkpt>
      <trkpt lat="44.54467" lon="4.9357">
        <ele>222</ele>
      </trkpt>
      <trkpt lat="44.54468" lon="4.93609">
        <ele>222</ele>
      </trkpt>
      <trkpt lat="44.54451" lon="4.93722">
        <ele>229</ele>
      </trkpt>
      <trkpt lat="44.54411" lon="4.93929">
        <ele>220</ele>
      </trkpt>
      <trkpt lat="44.54391" lon="4.94031">
        <ele>219</ele>
      </trkpt>
      <trkpt lat="44.54382" lon="4.94069">
        <ele>220</ele>
      </trkpt>
      <trkpt lat="44.54358" lon="4.94151">
        <ele>220</ele>
      </trkpt>
      <trkpt lat="44.54321" lon="4.94414">
        <ele>224</ele>
      </trkpt>
      <trkpt lat="44.54321" lon="4.94427">
        <ele>225</ele>
      </trkpt>
      <trkpt lat="44.54332" lon="4.94542">
        <ele>229</ele>
      </trkpt>
      <trkpt lat="44.54333" lon="4.94571">
        <ele>229</ele>
      </trkpt>
      <trkpt lat="44.54329" lon="4.94597">
        <ele>229</ele>
      </trkpt>
      <trkpt lat="44.54326" lon="4.94607">
        <ele>229</ele>
      </trkpt>
      <trkpt lat="44.54281" lon="4.94699">
        <ele>228</ele>
      </trkpt>
      <trkpt lat="44.54271" lon="4.94731">
        <ele>228</ele>
      </trkpt>
      <trkpt lat="44.5427" lon="4.94745">
        <ele>228</ele>
      </trkpt>
      <trkpt lat="44.54252" lon="4.94831">
        <ele>231</ele>
      </trkpt>
      <trkpt lat="44.54226" lon="4.94991">
        <ele>233</ele>
      </trkpt>
      <trkpt lat="44.54215" lon="4.95175">
        <ele>242</ele>
      </trkpt>
      <trkpt lat="44.5421" lon="4.95199">
        <ele>246</ele>
      </trkpt>
      <trkpt lat="44.54201" lon="4.95222">
        <ele>243</ele>
      </trkpt>
      <trkpt lat="44.54105" lon="4.95379">
        <ele>235</ele>
      </trkpt>
      <trkpt lat="44.54093" lon="4.95414">
        <ele>234</ele>
      </trkpt>
      <trkpt lat="44.5409" lon="4.95438">
        <ele>235</ele>
      </trkpt>
      <trkpt lat="44.54094" lon="4.95539">
        <ele>235</ele>
      </trkpt>
      <trkpt lat="44.5409" lon="4.9557">
        <ele>234</ele>
      </trkpt>
      <trkpt lat="44.54079" lon="4.9563">
        <ele>235</ele>
      </trkpt>
      <trkpt lat="44.54063" lon="4.9569">
        <ele>237</ele>
      </trkpt>
      <trkpt lat="44.54053" lon="4.95714">
        <ele>240</ele>
      </trkpt>
      <trkpt lat="44.54038" lon="4.95746">
        <ele>238</ele>
      </trkpt>
      <trkpt lat="44.53992" lon="4.9583">
        <ele>240</ele>
      </trkpt>
      <trkpt lat="44.53964" lon="4.95877">
        <ele>240</ele>
      </trkpt>
      <trkpt lat="44.53934" lon="4.95924">
        <ele>238</ele>
      </trkpt>
      <trkpt lat="44.53905" lon="4.9596">
        <ele>237</ele>
      </trkpt>
      <trkpt lat="44.53882" lon="4.95997">
        <ele>237</ele>
      </trkpt>
      <trkpt lat="44.53872" lon="4.96018">
        <ele>237</ele>
      </trkpt>
      <trkpt lat="44.5386" lon="4.96058">
        <ele>236</ele>
      </trkpt>
      <trkpt lat="44.53855" lon="4.96096">
        <ele>236</ele>
      </trkpt>
      <trkpt lat="44.53843" lon="4.96165">
        <ele>239</ele>
      </trkpt>
      <trkpt lat="44.53831" lon="4.9621">
        <ele>247</ele>
      </trkpt>
      <trkpt lat="44.53808" lon="4.96252">
        <ele>252</ele>
      </trkpt>
      <trkpt lat="44.53782" lon="4.96282">
        <ele>252</ele>
      </trkpt>
      <trkpt lat="44.53757" lon="4.96306">
        <ele>251</ele>
      </trkpt>
      <trkpt lat="44.53705" lon="4.96346">
        <ele>247</ele>
      </trkpt>
      <trkpt lat="44.53658" lon="4.96377">
        <ele>249</ele>
      </trkpt>
      <trkpt lat="44.53575" lon="4.96411">
        <ele>246</ele>
      </trkpt>
      <trkpt lat="44.53536" lon="4.96433">
        <ele>245</ele>
      </trkpt>
      <trkpt lat="44.53511" lon="4.96454">
        <ele>245</ele>
      </trkpt>
      <trkpt lat="44.53486" lon="4.96488">
        <ele>248</ele>
      </trkpt>
      <trkpt lat="44.53446" lon="4.96547">
        <ele>253</ele>
      </trkpt>
      <trkpt lat="44.53417" lon="4.96584">
        <ele>259</ele>
      </trkpt>
      <trkpt lat="44.53398" lon="4.96602">
        <ele>255</ele>
      </trkpt>
      <trkpt lat="44.53179" lon="4.9672">
        <ele>259</ele>
      </trkpt>
      <trkpt lat="44.53154" lon="4.96741">
        <ele>265</ele>
      </trkpt>
      <trkpt lat="44.53139" lon="4.96757">
        <ele>270</ele>
      </trkpt>
      <trkpt lat="44.53119" lon="4.96782">
        <ele>270</ele>
      </trkpt>
      <trkpt lat="44.53095" lon="4.96819">
        <ele>269</ele>
      </trkpt>
      <trkpt lat="44.53044" lon="4.96744">
        <ele>255</ele>
      </trkpt>
      <trkpt lat="44.53017" lon="4.96706">
        <ele>258</ele>
      </trkpt>
      <trkpt lat="44.53006" lon="4.96693">
        <ele>262</ele>
      </trkpt>
      <trkpt lat="44.52986" lon="4.96697">
        <ele>261</ele>
      </trkpt>
      <trkpt lat="44.52905" lon="4.96741">
        <ele>263</ele>
      </trkpt>
      <trkpt lat="44.5289" lon="4.96734">
        <ele>267</ele>
      </trkpt>
      <trkpt lat="44.52851" lon="4.96725">
        <ele>268</ele>
        <extensions>
          <visugpx:TrkExtension xmlns:visugpx="https://www.visugpx.com/editgpx/">
            <visugpx:node>1</visugpx:node>
            </visugpx:TrkExtension>
        </extensions>
      </trkpt>
    </trkseg>
  </trk>
  <trk>
    <name><![CDATA[Souspierre_3c]]></name>
    <extensions>
      <line xmlns="http://www.topografix.com/GPX/gpx_style/0/2">
        <color>FF0000</color>
        <width>4</width>
      </line>
    </extensions>
    <trkseg>
      <trkpt lat="44.52848" lon="4.96769">
        <ele>262</ele>
        <extensions>
          <visugpx:TrkExtension xmlns:visugpx="https://www.visugpx.com/editgpx/">
            <visugpx:node>1</visugpx:node>
            </visugpx:TrkExtension>
        </extensions>
      </trkpt>
      <trkpt lat="44.52986" lon="4.96697">
        <ele>261</ele>
      </trkpt>
      <trkpt lat="44.53006" lon="4.96693">
        <ele>262</ele>
      </trkpt>
      <trkpt lat="44.53017" lon="4.96706">
        <ele>258</ele>
      </trkpt>
      <trkpt lat="44.53044" lon="4.96744">
        <ele>255</ele>
      </trkpt>
      <trkpt lat="44.53095" lon="4.96819">
        <ele>269</ele>
      </trkpt>
      <trkpt lat="44.53049" lon="4.96897">
        <ele>264</ele>
      </trkpt>
      <trkpt lat="44.52629" lon="4.9755">
        <ele>263</ele>
      </trkpt>
      <trkpt lat="44.52591" lon="4.97628">
        <ele>265</ele>
      </trkpt>
      <trkpt lat="44.5257" lon="4.97698">
        <ele>265</ele>
      </trkpt>
      <trkpt lat="44.52558" lon="4.97767">
        <ele>266</ele>
      </trkpt>
      <trkpt lat="44.52555" lon="4.97824">
        <ele>266</ele>
      </trkpt>
      <trkpt lat="44.52555" lon="4.97995">
        <ele>273</ele>
      </trkpt>
      <trkpt lat="44.52557" lon="4.98064">
        <ele>275</ele>
      </trkpt>
      <trkpt lat="44.52557" lon="4.98101">
        <ele>276</ele>
      </trkpt>
      <trkpt lat="44.52559" lon="4.98139">
        <ele>276</ele>
      </trkpt>
      <trkpt lat="44.52563" lon="4.98167">
        <ele>277</ele>
      </trkpt>
      <trkpt lat="44.52598" lon="4.98287">
        <ele>279</ele>
      </trkpt>
      <trkpt lat="44.52683" lon="4.98563">
        <ele>289</ele>
      </trkpt>
      <trkpt lat="44.52703" lon="4.9861">
        <ele>287</ele>
      </trkpt>
      <trkpt lat="44.52726" lon="4.9865">
        <ele>287</ele>
      </trkpt>
      <trkpt lat="44.52971" lon="4.98966">
        <ele>286</ele>
      </trkpt>
      <trkpt lat="44.53005" lon="4.99021">
        <ele>287</ele>
      </trkpt>
      <trkpt lat="44.53024" lon="4.99057">
        <ele>289</ele>
      </trkpt>
      <trkpt lat="44.53052" lon="4.99125">
        <ele>290</ele>
      </trkpt>
      <trkpt lat="44.53064" lon="4.99161">
        <ele>287</ele>
      </trkpt>
      <trkpt lat="44.53231" lon="4.99785">
        <ele>292</ele>
      </trkpt>
      <trkpt lat="44.5324" lon="4.99833">
        <ele>295</ele>
      </trkpt>
      <trkpt lat="44.53247" lon="4.9989">
        <ele>294</ele>
      </trkpt>
      <trkpt lat="44.53248" lon="4.99967">
        <ele>296</ele>
      </trkpt>
      <trkpt lat="44.53244" lon="5.00027">
        <ele>299</ele>
      </trkpt>
      <trkpt lat="44.53235" lon="5.00081">
        <ele>297</ele>
      </trkpt>
      <trkpt lat="44.53191" lon="5.00272">
        <ele>301</ele>
      </trkpt>
      <trkpt lat="44.53167" lon="5.00399">
        <ele>301</ele>
      </trkpt>
      <trkpt lat="44.53159" lon="5.00454">
        <ele>301</ele>
      </trkpt>
      <trkpt lat="44.5312" lon="5.00837">
        <ele>309</ele>
      </trkpt>
      <trkpt lat="44.53109" lon="5.00982">
        <ele>308</ele>
      </trkpt>
      <trkpt lat="44.53107" lon="5.01034">
        <ele>310</ele>
      </trkpt>
      <trkpt lat="44.53102" lon="5.01084">
        <ele>312</ele>
      </trkpt>
      <trkpt lat="44.53082" lon="5.012">
        <ele>314</ele>
      </trkpt>
      <trkpt lat="44.5307" lon="5.01254">
        <ele>315</ele>
      </trkpt>
      <trkpt lat="44.53047" lon="5.0133">
        <ele>316</ele>
      </trkpt>
      <trkpt lat="44.53026" lon="5.01415">
        <ele>318</ele>
      </trkpt>
      <trkpt lat="44.52958" lon="5.0166">
        <ele>314</ele>
      </trkpt>
      <trkpt lat="44.52955" lon="5.01681">
        <ele>314</ele>
      </trkpt>
      <trkpt lat="44.52963" lon="5.01975">
        <ele>313</ele>
      </trkpt>
      <trkpt lat="44.52965" lon="5.021">
        <ele>317</ele>
      </trkpt>
      <trkpt lat="44.52958" lon="5.02355">
        <ele>324</ele>
      </trkpt>
      <trkpt lat="44.52955" lon="5.02418">
        <ele>326</ele>
      </trkpt>
      <trkpt lat="44.52946" lon="5.02456">
        <ele>327</ele>
      </trkpt>
      <trkpt lat="44.52934" lon="5.02489">
        <ele>328</ele>
      </trkpt>
      <trkpt lat="44.52911" lon="5.02533">
        <ele>328</ele>
      </trkpt>
      <trkpt lat="44.52881" lon="5.02578">
        <ele>328</ele>
      </trkpt>
      <trkpt lat="44.52703" lon="5.02801">
        <ele>328</ele>
      </trkpt>
      <trkpt lat="44.52691" lon="5.02819">
        <ele>329</ele>
      </trkpt>
      <trkpt lat="44.52684" lon="5.02834">
        <ele>330</ele>
      </trkpt>
      <trkpt lat="44.52671" lon="5.02866">
        <ele>332</ele>
      </trkpt>
      <trkpt lat="44.52619" lon="5.03041">
        <ele>332</ele>
      </trkpt>
      <trkpt lat="44.52604" lon="5.03112">
        <ele>333</ele>
      </trkpt>
      <trkpt lat="44.52593" lon="5.03174">
        <ele>331</ele>
      </trkpt>
      <trkpt lat="44.5258" lon="5.03264">
        <ele>332</ele>
      </trkpt>
      <trkpt lat="44.52569" lon="5.03357">
        <ele>334</ele>
      </trkpt>
      <trkpt lat="44.52565" lon="5.03438">
        <ele>335</ele>
      </trkpt>
      <trkpt lat="44.52557" lon="5.03525">
        <ele>336</ele>
      </trkpt>
      <trkpt lat="44.52544" lon="5.03742">
        <ele>344</ele>
      </trkpt>
      <trkpt lat="44.52532" lon="5.0382">
        <ele>349</ele>
      </trkpt>
      <trkpt lat="44.52525" lon="5.03855">
        <ele>351</ele>
      </trkpt>
      <trkpt lat="44.52514" lon="5.0389">
        <ele>347</ele>
      </trkpt>
      <trkpt lat="44.52411" lon="5.04149">
        <ele>345</ele>
      </trkpt>
      <trkpt lat="44.52393" lon="5.04201">
        <ele>344</ele>
      </trkpt>
      <trkpt lat="44.52379" lon="5.04262">
        <ele>343</ele>
      </trkpt>
      <trkpt lat="44.52347" lon="5.04447">
        <ele>340</ele>
      </trkpt>
      <trkpt lat="44.5234" lon="5.04476">
        <ele>341</ele>
      </trkpt>
      <trkpt lat="44.52325" lon="5.04562">
        <ele>342</ele>
      </trkpt>
      <trkpt lat="44.52308" lon="5.0462">
        <ele>342</ele>
      </trkpt>
      <trkpt lat="44.52293" lon="5.04654">
        <ele>345</ele>
      </trkpt>
      <trkpt lat="44.52277" lon="5.04667">
        <ele>345</ele>
      </trkpt>
      <trkpt lat="44.5227" lon="5.04668">
        <ele>345</ele>
      </trkpt>
      <trkpt lat="44.52263" lon="5.04677">
        <ele>344</ele>
      </trkpt>
      <trkpt lat="44.52261" lon="5.04689">
        <ele>345</ele>
      </trkpt>
      <trkpt lat="44.52253" lon="5.04712">
        <ele>345</ele>
      </trkpt>
      <trkpt lat="44.52181" lon="5.0482">
        <ele>345</ele>
      </trkpt>
      <trkpt lat="44.52171" lon="5.04842">
        <ele>346</ele>
      </trkpt>
      <trkpt lat="44.52162" lon="5.04882">
        <ele>347</ele>
      </trkpt>
      <trkpt lat="44.52159" lon="5.04921">
        <ele>349</ele>
      </trkpt>
      <trkpt lat="44.52157" lon="5.04965">
        <ele>351</ele>
      </trkpt>
      <trkpt lat="44.52137" lon="5.05193">
        <ele>357</ele>
      </trkpt>
      <trkpt lat="44.52133" lon="5.05318">
        <ele>358</ele>
      </trkpt>
      <trkpt lat="44.52127" lon="5.0549">
        <ele>366</ele>
      </trkpt>
      <trkpt lat="44.52122" lon="5.0556">
        <ele>368</ele>
      </trkpt>
      <trkpt lat="44.5212" lon="5.05671">
        <ele>373</ele>
      </trkpt>
      <trkpt lat="44.52132" lon="5.05732">
        <ele>372</ele>
      </trkpt>
      <trkpt lat="44.52173" lon="5.05851">
        <ele>374</ele>
      </trkpt>
      <trkpt lat="44.5233" lon="5.06306">
        <ele>377</ele>
      </trkpt>
      <trkpt lat="44.52328" lon="5.06314">
        <ele>376</ele>
      </trkpt>
      <trkpt lat="44.52332" lon="5.06321">
        <ele>376</ele>
      </trkpt>
      <trkpt lat="44.52329" lon="5.06329">
        <ele>376</ele>
      </trkpt>
      <trkpt lat="44.52316" lon="5.06357">
        <ele>375</ele>
      </trkpt>
      <trkpt lat="44.52301" lon="5.06384">
        <ele>374</ele>
      </trkpt>
      <trkpt lat="44.52297" lon="5.0639">
        <ele>374</ele>
      </trkpt>
      <trkpt lat="44.5234" lon="5.06439">
        <ele>378</ele>
      </trkpt>
      <trkpt lat="44.52356" lon="5.06448">
        <ele>380</ele>
      </trkpt>
      <trkpt lat="44.52378" lon="5.06455">
        <ele>380</ele>
      </trkpt>
      <trkpt lat="44.52394" lon="5.06456">
        <ele>380</ele>
      </trkpt>
      <trkpt lat="44.52407" lon="5.06453">
        <ele>381</ele>
      </trkpt>
      <trkpt lat="44.52464" lon="5.06424">
        <ele>381</ele>
      </trkpt>
      <trkpt lat="44.52465" lon="5.0643">
        <ele>381</ele>
      </trkpt>
      <trkpt lat="44.52469" lon="5.06441">
        <ele>381</ele>
      </trkpt>
      <trkpt lat="44.5248" lon="5.06461">
        <ele>384</ele>
      </trkpt>
      <trkpt lat="44.52507" lon="5.06475">
        <ele>387</ele>
      </trkpt>
      <trkpt lat="44.5251" lon="5.06485">
        <ele>387</ele>
      </trkpt>
      <trkpt lat="44.52506" lon="5.06545">
        <ele>392</ele>
      </trkpt>
      <trkpt lat="44.52593" lon="5.06593">
        <ele>398</ele>
      </trkpt>
      <trkpt lat="44.52701" lon="5.06658">
        <ele>390</ele>
      </trkpt>
      <trkpt lat="44.52749" lon="5.06685">
        <ele>390</ele>
      </trkpt>
      <trkpt lat="44.52801" lon="5.06709">
        <ele>393</ele>
      </trkpt>
      <trkpt lat="44.52862" lon="5.06727">
        <ele>396</ele>
      </trkpt>
      <trkpt lat="44.52913" lon="5.06737">
        <ele>392</ele>
      </trkpt>
      <trkpt lat="44.5295" lon="5.06748">
        <ele>393</ele>
      </trkpt>
      <trkpt lat="44.52976" lon="5.06758">
        <ele>397</ele>
      </trkpt>
      <trkpt lat="44.52994" lon="5.06762">
        <ele>400</ele>
      </trkpt>
      <trkpt lat="44.53013" lon="5.06756">
        <ele>400</ele>
      </trkpt>
      <trkpt lat="44.53048" lon="5.06739">
        <ele>399</ele>
      </trkpt>
      <trkpt lat="44.53066" lon="5.06741">
        <ele>400</ele>
      </trkpt>
      <trkpt lat="44.5307" lon="5.06746">
        <ele>400</ele>
      </trkpt>
      <trkpt lat="44.53075" lon="5.06748">
        <ele>402</ele>
      </trkpt>
      <trkpt lat="44.5308" lon="5.06747">
        <ele>402</ele>
      </trkpt>
      <trkpt lat="44.53084" lon="5.06742">
        <ele>402</ele>
      </trkpt>
      <trkpt lat="44.53094" lon="5.06739">
        <ele>402</ele>
      </trkpt>
      <trkpt lat="44.53122" lon="5.06744">
        <ele>404</ele>
      </trkpt>
      <trkpt lat="44.53236" lon="5.06792">
        <ele>409</ele>
      </trkpt>
      <trkpt lat="44.53295" lon="5.06832">
        <ele>411</ele>
      </trkpt>
      <trkpt lat="44.53486" lon="5.06976">
        <ele>418</ele>
      </trkpt>
      <trkpt lat="44.53605" lon="5.07088">
        <ele>424</ele>
      </trkpt>
      <trkpt lat="44.53799" lon="5.07278">
        <ele>426</ele>
      </trkpt>
      <trkpt lat="44.53957" lon="5.07451">
        <ele>431</ele>
      </trkpt>
      <trkpt lat="44.53967" lon="5.07456">
        <ele>431</ele>
      </trkpt>
      <trkpt lat="44.54001" lon="5.07454">
        <ele>433</ele>
      </trkpt>
      <trkpt lat="44.54019" lon="5.07462">
        <ele>436</ele>
      </trkpt>
      <trkpt lat="44.54102" lon="5.07544">
        <ele>447</ele>
      </trkpt>
      <trkpt lat="44.54152" lon="5.07585">
        <ele>443</ele>
      </trkpt>
      <trkpt lat="44.54194" lon="5.07613">
        <ele>448</ele>
      </trkpt>
      <trkpt lat="44.54307" lon="5.07706">
        <ele>462</ele>
      </trkpt>
      <trkpt lat="44.54349" lon="5.07733">
        <ele>456</ele>
      </trkpt>
      <trkpt lat="44.54394" lon="5.07754">
        <ele>452</ele>
      </trkpt>
      <trkpt lat="44.54473" lon="5.07797">
        <ele>454</ele>
      </trkpt>
      <trkpt lat="44.54574" lon="5.07817">
        <ele>461</ele>
      </trkpt>
      <trkpt lat="44.54611" lon="5.07832">
        <ele>466</ele>
      </trkpt>
      <trkpt lat="44.54623" lon="5.07838">
        <ele>462</ele>
      </trkpt>
      <trkpt lat="44.54664" lon="5.07873">
        <ele>461</ele>
      </trkpt>
      <trkpt lat="44.54683" lon="5.07892">
        <ele>462</ele>
      </trkpt>
      <trkpt lat="44.54725" lon="5.07931">
        <ele>464</ele>
      </trkpt>
      <trkpt lat="44.54784" lon="5.07978">
        <ele>470</ele>
      </trkpt>
      <trkpt lat="44.54808" lon="5.08">
        <ele>477</ele>
      </trkpt>
      <trkpt lat="44.54876" lon="5.08102">
        <ele>471</ele>
      </trkpt>
      <trkpt lat="44.54883" lon="5.08116">
        <ele>475</ele>
      </trkpt>
      <trkpt lat="44.54889" lon="5.0813">
        <ele>475</ele>
      </trkpt>
      <trkpt lat="44.54903" lon="5.08189">
        <ele>470</ele>
      </trkpt>
      <trkpt lat="44.54912" lon="5.08211">
        <ele>472</ele>
      </trkpt>
      <trkpt lat="44.54924" lon="5.0823">
        <ele>470</ele>
      </trkpt>
      <trkpt lat="44.54944" lon="5.08247">
        <ele>474</ele>
      </trkpt>
      <trkpt lat="44.54962" lon="5.08257">
        <ele>478</ele>
      </trkpt>
      <trkpt lat="44.54995" lon="5.08292">
        <ele>483</ele>
      </trkpt>
      <trkpt lat="44.55025" lon="5.0833">
        <ele>489</ele>
      </trkpt>
      <trkpt lat="44.55035" lon="5.08349">
        <ele>488</ele>
      </trkpt>
      <trkpt lat="44.55061" lon="5.08418">
        <ele>490</ele>
      </trkpt>
      <trkpt lat="44.55082" lon="5.08447">
        <ele>490</ele>
      </trkpt>
      <trkpt lat="44.55113" lon="5.08487">
        <ele>491</ele>
      </trkpt>
      <trkpt lat="44.55145" lon="5.08532">
        <ele>494</ele>
      </trkpt>
      <trkpt lat="44.55174" lon="5.08582">
        <ele>497</ele>
      </trkpt>
      <trkpt lat="44.55303" lon="5.08822">
        <ele>511</ele>
      </trkpt>
      <trkpt lat="44.55311" lon="5.08827">
        <ele>511</ele>
      </trkpt>
      <trkpt lat="44.55315" lon="5.08827">
        <ele>511</ele>
      </trkpt>
      <trkpt lat="44.5532" lon="5.08822">
        <ele>511</ele>
      </trkpt>
      <trkpt lat="44.55322" lon="5.08816">
        <ele>514</ele>
      </trkpt>
      <trkpt lat="44.55323" lon="5.08769">
        <ele>518</ele>
      </trkpt>
      <trkpt lat="44.55334" lon="5.08655">
        <ele>527</ele>
      </trkpt>
      <trkpt lat="44.55338" lon="5.08632">
        <ele>528</ele>
      </trkpt>
      <trkpt lat="44.5534" lon="5.08623">
        <ele>528</ele>
      </trkpt>
      <trkpt lat="44.55344" lon="5.08618">
        <ele>528</ele>
      </trkpt>
      <trkpt lat="44.55347" lon="5.08616">
        <ele>529</ele>
      </trkpt>
      <trkpt lat="44.55351" lon="5.08617">
        <ele>533</ele>
      </trkpt>
      <trkpt lat="44.55355" lon="5.08621">
        <ele>534</ele>
      </trkpt>
      <trkpt lat="44.55356" lon="5.08627">
        <ele>534</ele>
      </trkpt>
      <trkpt lat="44.55354" lon="5.08653">
        <ele>532</ele>
      </trkpt>
      <trkpt lat="44.55355" lon="5.08673">
        <ele>531</ele>
      </trkpt>
      <trkpt lat="44.55366" lon="5.08704">
        <ele>530</ele>
      </trkpt>
      <trkpt lat="44.55374" lon="5.08714">
        <ele>530</ele>
      </trkpt>
      <trkpt lat="44.55392" lon="5.08732">
        <ele>532</ele>
      </trkpt>
      <trkpt lat="44.55464" lon="5.08781">
        <ele>544</ele>
      </trkpt>
      <trkpt lat="44.55473" lon="5.08792">
        <ele>544</ele>
      </trkpt>
      <trkpt lat="44.55494" lon="5.0884">
        <ele>548</ele>
      </trkpt>
      <trkpt lat="44.55498" lon="5.08851">
        <ele>548</ele>
      </trkpt>
      <trkpt lat="44.55499" lon="5.08863">
        <ele>548</ele>
      </trkpt>
      <trkpt lat="44.55491" lon="5.08897">
        <ele>544</ele>
      </trkpt>
      <trkpt lat="44.55493" lon="5.08906">
        <ele>544</ele>
      </trkpt>
      <trkpt lat="44.55495" lon="5.0891">
        <ele>544</ele>
      </trkpt>
      <trkpt lat="44.55499" lon="5.08915">
        <ele>543</ele>
      </trkpt>
      <trkpt lat="44.55504" lon="5.08916">
        <ele>544</ele>
      </trkpt>
      <trkpt lat="44.55541" lon="5.08911">
        <ele>547</ele>
      </trkpt>
      <trkpt lat="44.55562" lon="5.08912">
        <ele>550</ele>
      </trkpt>
      <trkpt lat="44.55586" lon="5.08916">
        <ele>553</ele>
      </trkpt>
      <trkpt lat="44.55604" lon="5.08922">
        <ele>556</ele>
      </trkpt>
      <trkpt lat="44.55612" lon="5.08927">
        <ele>556</ele>
      </trkpt>
      <trkpt lat="44.5562" lon="5.08937">
        <ele>556</ele>
      </trkpt>
      <trkpt lat="44.55623" lon="5.08953">
        <ele>555</ele>
      </trkpt>
      <trkpt lat="44.55622" lon="5.08974">
        <ele>555</ele>
      </trkpt>
      <trkpt lat="44.55624" lon="5.08986">
        <ele>553</ele>
      </trkpt>
      <trkpt lat="44.5563" lon="5.08996">
        <ele>556</ele>
      </trkpt>
      <trkpt lat="44.55641" lon="5.09002">
        <ele>556</ele>
      </trkpt>
      <trkpt lat="44.55655" lon="5.09007">
        <ele>557</ele>
      </trkpt>
      <trkpt lat="44.55765" lon="5.09027">
        <ele>566</ele>
      </trkpt>
      <trkpt lat="44.55772" lon="5.09026">
        <ele>568</ele>
      </trkpt>
      <trkpt lat="44.55777" lon="5.09022">
        <ele>568</ele>
      </trkpt>
      <trkpt lat="44.55779" lon="5.09014">
        <ele>568</ele>
      </trkpt>
      <trkpt lat="44.55777" lon="5.09005">
        <ele>569</ele>
      </trkpt>
      <trkpt lat="44.55773" lon="5.08999">
        <ele>573</ele>
      </trkpt>
      <trkpt lat="44.55763" lon="5.08995">
        <ele>571</ele>
      </trkpt>
      <trkpt lat="44.55748" lon="5.08992">
        <ele>571</ele>
      </trkpt>
      <trkpt lat="44.55735" lon="5.08985">
        <ele>571</ele>
      </trkpt>
      <trkpt lat="44.55717" lon="5.08971">
        <ele>575</ele>
      </trkpt>
      <trkpt lat="44.55707" lon="5.08961">
        <ele>573</ele>
      </trkpt>
      <trkpt lat="44.55701" lon="5.08952">
        <ele>574</ele>
      </trkpt>
      <trkpt lat="44.55698" lon="5.08941">
        <ele>577</ele>
      </trkpt>
      <trkpt lat="44.55697" lon="5.08929">
        <ele>578</ele>
      </trkpt>
      <trkpt lat="44.55699" lon="5.08916">
        <ele>581</ele>
      </trkpt>
      <trkpt lat="44.55711" lon="5.08873">
        <ele>589</ele>
      </trkpt>
      <trkpt lat="44.55714" lon="5.08859">
        <ele>591</ele>
      </trkpt>
      <trkpt lat="44.55714" lon="5.08849">
        <ele>592</ele>
      </trkpt>
      <trkpt lat="44.55713" lon="5.08839">
        <ele>592</ele>
      </trkpt>
      <trkpt lat="44.55706" lon="5.0883">
        <ele>588</ele>
      </trkpt>
      <trkpt lat="44.55685" lon="5.0882">
        <ele>586</ele>
      </trkpt>
      <trkpt lat="44.55677" lon="5.0881">
        <ele>582</ele>
      </trkpt>
      <trkpt lat="44.55675" lon="5.08798">
        <ele>583</ele>
      </trkpt>
      <trkpt lat="44.55682" lon="5.0875">
        <ele>589</ele>
      </trkpt>
      <trkpt lat="44.55685" lon="5.08743">
        <ele>595</ele>
      </trkpt>
      <trkpt lat="44.55691" lon="5.0874">
        <ele>595</ele>
      </trkpt>
      <trkpt lat="44.55698" lon="5.08741">
        <ele>596</ele>
      </trkpt>
      <trkpt lat="44.55704" lon="5.08746">
        <ele>597</ele>
      </trkpt>
      <trkpt lat="44.5572" lon="5.08791">
        <ele>598</ele>
      </trkpt>
      <trkpt lat="44.55746" lon="5.0884">
        <ele>598</ele>
      </trkpt>
      <trkpt lat="44.55758" lon="5.08856">
        <ele>598</ele>
      </trkpt>
      <trkpt lat="44.55775" lon="5.08868">
        <ele>599</ele>
      </trkpt>
      <trkpt lat="44.55828" lon="5.08892">
        <ele>597</ele>
      </trkpt>
      <trkpt lat="44.55839" lon="5.08894">
        <ele>597</ele>
      </trkpt>
      <trkpt lat="44.55849" lon="5.08891">
        <ele>600</ele>
      </trkpt>
      <trkpt lat="44.55858" lon="5.08884">
        <ele>601</ele>
      </trkpt>
      <trkpt lat="44.5588" lon="5.08863">
        <ele>607</ele>
      </trkpt>
      <trkpt lat="44.55888" lon="5.08858">
        <ele>608</ele>
      </trkpt>
      <trkpt lat="44.55902" lon="5.08859">
        <ele>608</ele>
      </trkpt>
      <trkpt lat="44.56201" lon="5.08925">
        <ele>626</ele>
      </trkpt>
      <trkpt lat="44.5621" lon="5.08929">
        <ele>627</ele>
      </trkpt>
      <trkpt lat="44.56218" lon="5.08935">
        <ele>628</ele>
      </trkpt>
      <trkpt lat="44.56222" lon="5.0894">
        <ele>628</ele>
      </trkpt>
      <trkpt lat="44.56225" lon="5.08948">
        <ele>628</ele>
      </trkpt>
      <trkpt lat="44.56226" lon="5.08957">
        <ele>628</ele>
      </trkpt>
      <trkpt lat="44.56224" lon="5.0897">
        <ele>628</ele>
      </trkpt>
      <trkpt lat="44.56216" lon="5.08989">
        <ele>629</ele>
      </trkpt>
      <trkpt lat="44.56173" lon="5.09063">
        <ele>633</ele>
      </trkpt>
      <trkpt lat="44.56168" lon="5.09082">
        <ele>634</ele>
      </trkpt>
      <trkpt lat="44.56164" lon="5.09103">
        <ele>637</ele>
      </trkpt>
      <trkpt lat="44.56178" lon="5.09313">
        <ele>642</ele>
      </trkpt>
      <trkpt lat="44.5619" lon="5.09381">
        <ele>646</ele>
      </trkpt>
      <trkpt lat="44.56209" lon="5.09467">
        <ele>647</ele>
      </trkpt>
      <trkpt lat="44.56217" lon="5.0953">
        <ele>653</ele>
      </trkpt>
      <trkpt lat="44.56218" lon="5.09566">
        <ele>651</ele>
      </trkpt>
      <trkpt lat="44.5621" lon="5.09636">
        <ele>640</ele>
      </trkpt>
      <trkpt lat="44.56213" lon="5.09659">
        <ele>643</ele>
      </trkpt>
      <trkpt lat="44.56218" lon="5.09681">
        <ele>642</ele>
      </trkpt>
      <trkpt lat="44.56228" lon="5.09701">
        <ele>641</ele>
      </trkpt>
      <trkpt lat="44.56247" lon="5.09731">
        <ele>644</ele>
      </trkpt>
      <trkpt lat="44.56361" lon="5.09873">
        <ele>635</ele>
      </trkpt>
      <trkpt lat="44.56359" lon="5.09878">
        <ele>635</ele>
      </trkpt>
      <trkpt lat="44.56357" lon="5.09882">
        <ele>635</ele>
      </trkpt>
      <trkpt lat="44.56358" lon="5.09892">
        <ele>636</ele>
      </trkpt>
      <trkpt lat="44.56366" lon="5.09903">
        <ele>636</ele>
      </trkpt>
      <trkpt lat="44.5637" lon="5.09916">
        <ele>636</ele>
      </trkpt>
      <trkpt lat="44.56374" lon="5.09937">
        <ele>636</ele>
      </trkpt>
      <trkpt lat="44.5643" lon="5.10361">
        <ele>648</ele>
      </trkpt>
      <trkpt lat="44.56429" lon="5.10379">
        <ele>649</ele>
      </trkpt>
      <trkpt lat="44.56404" lon="5.10488">
        <ele>655</ele>
      </trkpt>
      <trkpt lat="44.56393" lon="5.10543">
        <ele>659</ele>
      </trkpt>
      <trkpt lat="44.56384" lon="5.10604">
        <ele>665</ele>
      </trkpt>
      <trkpt lat="44.56379" lon="5.10627">
        <ele>668</ele>
      </trkpt>
      <trkpt lat="44.56371" lon="5.10647">
        <ele>668</ele>
      </trkpt>
      <trkpt lat="44.56361" lon="5.10662">
        <ele>667</ele>
      </trkpt>
      <trkpt lat="44.56285" lon="5.10762">
        <ele>660</ele>
      </trkpt>
      <trkpt lat="44.56264" lon="5.10787">
        <ele>661</ele>
      </trkpt>
      <trkpt lat="44.56216" lon="5.10832">
        <ele>662</ele>
      </trkpt>
      <trkpt lat="44.56192" lon="5.10857">
        <ele>663</ele>
      </trkpt>
      <trkpt lat="44.5609" lon="5.10982">
        <ele>668</ele>
      </trkpt>
      <trkpt lat="44.56077" lon="5.10999">
        <ele>668</ele>
      </trkpt>
      <trkpt lat="44.56057" lon="5.11043">
        <ele>670</ele>
      </trkpt>
      <trkpt lat="44.56033" lon="5.11087">
        <ele>676</ele>
      </trkpt>
      <trkpt lat="44.5602" lon="5.11131">
        <ele>677</ele>
      </trkpt>
      <trkpt lat="44.56002" lon="5.11176">
        <ele>679</ele>
      </trkpt>
      <trkpt lat="44.55995" lon="5.11215">
        <ele>681</ele>
      </trkpt>
      <trkpt lat="44.55988" lon="5.11233">
        <ele>683</ele>
      </trkpt>
      <trkpt lat="44.55974" lon="5.11259">
        <ele>683</ele>
      </trkpt>
      <trkpt lat="44.55957" lon="5.11283">
        <ele>684</ele>
      </trkpt>
      <trkpt lat="44.5591" lon="5.11341">
        <ele>684</ele>
      </trkpt>
      <trkpt lat="44.55892" lon="5.1136">
        <ele>683</ele>
      </trkpt>
      <trkpt lat="44.55826" lon="5.11417">
        <ele>685</ele>
      </trkpt>
      <trkpt lat="44.558" lon="5.11436">
        <ele>685</ele>
      </trkpt>
      <trkpt lat="44.55788" lon="5.11424">
        <ele>685</ele>
      </trkpt>
      <trkpt lat="44.55753" lon="5.11382">
        <ele>684</ele>
      </trkpt>
      <trkpt lat="44.55664" lon="5.11314">
        <ele>682</ele>
      </trkpt>
      <trkpt lat="44.5545" lon="5.11174">
        <ele>675</ele>
      </trkpt>
      <trkpt lat="44.5531" lon="5.11081">
        <ele>671</ele>
      </trkpt>
      <trkpt lat="44.55295" lon="5.11082">
        <ele>671</ele>
      </trkpt>
      <trkpt lat="44.55282" lon="5.11101">
        <ele>673</ele>
      </trkpt>
      <trkpt lat="44.55258" lon="5.11177">
        <ele>678</ele>
      </trkpt>
      <trkpt lat="44.55226" lon="5.11265">
        <ele>681</ele>
      </trkpt>
      <trkpt lat="44.5522" lon="5.11277">
        <ele>681</ele>
      </trkpt>
      <trkpt lat="44.55209" lon="5.11286">
        <ele>679</ele>
      </trkpt>
      <trkpt lat="44.55162" lon="5.1131">
        <ele>678</ele>
      </trkpt>
      <trkpt lat="44.55142" lon="5.11314">
        <ele>677</ele>
      </trkpt>
      <trkpt lat="44.55096" lon="5.11318">
        <ele>677</ele>
      </trkpt>
      <trkpt lat="44.55079" lon="5.11324">
        <ele>677</ele>
      </trkpt>
      <trkpt lat="44.55066" lon="5.11331">
        <ele>677</ele>
      </trkpt>
      <trkpt lat="44.55054" lon="5.11342">
        <ele>680</ele>
      </trkpt>
      <trkpt lat="44.55019" lon="5.11393">
        <ele>684</ele>
      </trkpt>
      <trkpt lat="44.5501" lon="5.114">
        <ele>683</ele>
      </trkpt>
      <trkpt lat="44.55003" lon="5.11402">
        <ele>683</ele>
      </trkpt>
      <trkpt lat="44.54992" lon="5.114">
        <ele>683</ele>
      </trkpt>
      <trkpt lat="44.54957" lon="5.1138">
        <ele>681</ele>
      </trkpt>
      <trkpt lat="44.5495" lon="5.11372">
        <ele>681</ele>
      </trkpt>
      <trkpt lat="44.54943" lon="5.11359">
        <ele>679</ele>
      </trkpt>
      <trkpt lat="44.54932" lon="5.11326">
        <ele>676</ele>
      </trkpt>
      <trkpt lat="44.54926" lon="5.11311">
        <ele>677</ele>
      </trkpt>
      <trkpt lat="44.54919" lon="5.11299">
        <ele>675</ele>
      </trkpt>
      <trkpt lat="44.54911" lon="5.11293">
        <ele>675</ele>
      </trkpt>
      <trkpt lat="44.54903" lon="5.11289">
        <ele>677</ele>
      </trkpt>
      <trkpt lat="44.54888" lon="5.1129">
        <ele>678</ele>
      </trkpt>
      <trkpt lat="44.54834" lon="5.11302">
        <ele>681</ele>
      </trkpt>
      <trkpt lat="44.54816" lon="5.1131">
        <ele>681</ele>
      </trkpt>
      <trkpt lat="44.54806" lon="5.11327">
        <ele>681</ele>
      </trkpt>
      <trkpt lat="44.54789" lon="5.11339">
        <ele>682</ele>
      </trkpt>
      <trkpt lat="44.54715" lon="5.11374">
        <ele>690</ele>
      </trkpt>
      <trkpt lat="44.54709" lon="5.11373">
        <ele>691</ele>
      </trkpt>
      <trkpt lat="44.54705" lon="5.11366">
        <ele>690</ele>
      </trkpt>
      <trkpt lat="44.54704" lon="5.11355">
        <ele>688</ele>
      </trkpt>
      <trkpt lat="44.54711" lon="5.11318">
        <ele>682</ele>
      </trkpt>
      <trkpt lat="44.54708" lon="5.11309">
        <ele>684</ele>
      </trkpt>
      <trkpt lat="44.54702" lon="5.11304">
        <ele>682</ele>
      </trkpt>
      <trkpt lat="44.54625" lon="5.11269">
        <ele>692</ele>
      </trkpt>
      <trkpt lat="44.54611" lon="5.11264">
        <ele>693</ele>
      </trkpt>
      <trkpt lat="44.54596" lon="5.11266">
        <ele>697</ele>
      </trkpt>
      <trkpt lat="44.54575" lon="5.11272">
        <ele>698</ele>
      </trkpt>
      <trkpt lat="44.54561" lon="5.11283">
        <ele>703</ele>
      </trkpt>
      <trkpt lat="44.54543" lon="5.11306">
        <ele>705</ele>
      </trkpt>
      <trkpt lat="44.54529" lon="5.11338">
        <ele>709</ele>
      </trkpt>
      <trkpt lat="44.54508" lon="5.11413">
        <ele>709</ele>
      </trkpt>
      <trkpt lat="44.54496" lon="5.11466">
        <ele>710</ele>
      </trkpt>
      <trkpt lat="44.54489" lon="5.11489">
        <ele>709</ele>
      </trkpt>
      <trkpt lat="44.54478" lon="5.11514">
        <ele>710</ele>
      </trkpt>
      <trkpt lat="44.54467" lon="5.11533">
        <ele>709</ele>
      </trkpt>
      <trkpt lat="44.54447" lon="5.11552">
        <ele>711</ele>
      </trkpt>
      <trkpt lat="44.54432" lon="5.11573">
        <ele>711</ele>
      </trkpt>
      <trkpt lat="44.54373" lon="5.11693">
        <ele>719</ele>
      </trkpt>
      <trkpt lat="44.54329" lon="5.11754">
        <ele>723</ele>
      </trkpt>
      <trkpt lat="44.54315" lon="5.1178">
        <ele>723</ele>
      </trkpt>
      <trkpt lat="44.54294" lon="5.11838">
        <ele>732</ele>
      </trkpt>
      <trkpt lat="44.54286" lon="5.11852">
        <ele>732</ele>
      </trkpt>
      <trkpt lat="44.54276" lon="5.11861">
        <ele>732</ele>
      </trkpt>
      <trkpt lat="44.54257" lon="5.1187">
        <ele>733</ele>
      </trkpt>
      <trkpt lat="44.54243" lon="5.11874">
        <ele>733</ele>
      </trkpt>
      <trkpt lat="44.54213" lon="5.11865">
        <ele>730</ele>
      </trkpt>
      <trkpt lat="44.54205" lon="5.11866">
        <ele>729</ele>
      </trkpt>
      <trkpt lat="44.54195" lon="5.11873">
        <ele>729</ele>
      </trkpt>
      <trkpt lat="44.54178" lon="5.11889">
        <ele>727</ele>
      </trkpt>
      <trkpt lat="44.5417" lon="5.11904">
        <ele>731</ele>
      </trkpt>
      <trkpt lat="44.54153" lon="5.11945">
        <ele>730</ele>
      </trkpt>
      <trkpt lat="44.54145" lon="5.11954">
        <ele>733</ele>
      </trkpt>
      <trkpt lat="44.54135" lon="5.11961">
        <ele>733</ele>
      </trkpt>
      <trkpt lat="44.54118" lon="5.11963">
        <ele>729</ele>
      </trkpt>
      <trkpt lat="44.54093" lon="5.11955">
        <ele>726</ele>
      </trkpt>
      <trkpt lat="44.54077" lon="5.11956">
        <ele>725</ele>
      </trkpt>
      <trkpt lat="44.54072" lon="5.11959">
        <ele>725</ele>
      </trkpt>
      <trkpt lat="44.54064" lon="5.11969">
        <ele>723</ele>
      </trkpt>
      <trkpt lat="44.5406" lon="5.1198">
        <ele>726</ele>
      </trkpt>
      <trkpt lat="44.54056" lon="5.11999">
        <ele>727</ele>
      </trkpt>
      <trkpt lat="44.54053" lon="5.12035">
        <ele>735</ele>
      </trkpt>
      <trkpt lat="44.54045" lon="5.12055">
        <ele>736</ele>
      </trkpt>
      <trkpt lat="44.54008" lon="5.12084">
        <ele>726</ele>
      </trkpt>
      <trkpt lat="44.53967" lon="5.12132">
        <ele>729</ele>
      </trkpt>
      <trkpt lat="44.5396" lon="5.12145">
        <ele>733</ele>
      </trkpt>
      <trkpt lat="44.53958" lon="5.12158">
        <ele>729</ele>
      </trkpt>
      <trkpt lat="44.53955" lon="5.12196">
        <ele>733</ele>
      </trkpt>
      <trkpt lat="44.53952" lon="5.12215">
        <ele>735</ele>
      </trkpt>
      <trkpt lat="44.53945" lon="5.12237">
        <ele>737</ele>
      </trkpt>
      <trkpt lat="44.53935" lon="5.12259">
        <ele>741</ele>
      </trkpt>
      <trkpt lat="44.53925" lon="5.12272">
        <ele>736</ele>
      </trkpt>
      <trkpt lat="44.53902" lon="5.12293">
        <ele>735</ele>
      </trkpt>
      <trkpt lat="44.53882" lon="5.12305">
        <ele>734</ele>
      </trkpt>
      <trkpt lat="44.53806" lon="5.12366">
        <ele>731</ele>
      </trkpt>
      <trkpt lat="44.53745" lon="5.12395">
        <ele>727</ele>
      </trkpt>
      <trkpt lat="44.53724" lon="5.12401">
        <ele>725</ele>
      </trkpt>
      <trkpt lat="44.53704" lon="5.1241">
        <ele>723</ele>
      </trkpt>
      <trkpt lat="44.53663" lon="5.12444">
        <ele>724</ele>
      </trkpt>
      <trkpt lat="44.53636" lon="5.12468">
        <ele>726</ele>
      </trkpt>
      <trkpt lat="44.53587" lon="5.12543">
        <ele>726</ele>
      </trkpt>
      <trkpt lat="44.53571" lon="5.12581">
        <ele>727</ele>
      </trkpt>
      <trkpt lat="44.53557" lon="5.12624">
        <ele>728</ele>
      </trkpt>
      <trkpt lat="44.5355" lon="5.1264">
        <ele>728</ele>
      </trkpt>
      <trkpt lat="44.53523" lon="5.12679">
        <ele>729</ele>
      </trkpt>
      <trkpt lat="44.53517" lon="5.127">
        <ele>731</ele>
      </trkpt>
      <trkpt lat="44.53508" lon="5.12742">
        <ele>729</ele>
      </trkpt>
      <trkpt lat="44.53495" lon="5.1278">
        <ele>730</ele>
      </trkpt>
      <trkpt lat="44.53473" lon="5.12827">
        <ele>727</ele>
      </trkpt>
      <trkpt lat="44.53456" lon="5.1288">
        <ele>725</ele>
      </trkpt>
      <trkpt lat="44.53473" lon="5.12887">
        <ele>725</ele>
      </trkpt>
      <trkpt lat="44.53508" lon="5.12906">
        <ele>724</ele>
      </trkpt>
      <trkpt lat="44.53523" lon="5.12909">
        <ele>722</ele>
      </trkpt>
      <trkpt lat="44.53536" lon="5.12908">
        <ele>722</ele>
      </trkpt>
      <trkpt lat="44.53551" lon="5.12902">
        <ele>720</ele>
      </trkpt>
      <trkpt lat="44.53565" lon="5.12893">
        <ele>720</ele>
      </trkpt>
      <trkpt lat="44.53595" lon="5.12867">
        <ele>720</ele>
      </trkpt>
      <trkpt lat="44.53605" lon="5.12854">
        <ele>719</ele>
      </trkpt>
      <trkpt lat="44.53631" lon="5.12844">
        <ele>715</ele>
      </trkpt>
      <trkpt lat="44.53685" lon="5.12813">
        <ele>713</ele>
      </trkpt>
      <trkpt lat="44.53725" lon="5.12794">
        <ele>711</ele>
      </trkpt>
      <trkpt lat="44.53766" lon="5.12764">
        <ele>709</ele>
      </trkpt>
      <trkpt lat="44.5379" lon="5.12743">
        <ele>716</ele>
      </trkpt>
      <trkpt lat="44.53808" lon="5.12731">
        <ele>713</ele>
      </trkpt>
      <trkpt lat="44.53833" lon="5.12719">
        <ele>717</ele>
      </trkpt>
      <trkpt lat="44.53853" lon="5.12706">
        <ele>717</ele>
      </trkpt>
      <trkpt lat="44.53864" lon="5.12705">
        <ele>717</ele>
      </trkpt>
      <trkpt lat="44.53876" lon="5.12709">
        <ele>716</ele>
      </trkpt>
      <trkpt lat="44.53888" lon="5.12718">
        <ele>714</ele>
      </trkpt>
      <trkpt lat="44.53969" lon="5.12789">
        <ele>698</ele>
      </trkpt>
      <trkpt lat="44.53983" lon="5.12797">
        <ele>697</ele>
      </trkpt>
      <trkpt lat="44.53996" lon="5.12799">
        <ele>694</ele>
      </trkpt>
      <trkpt lat="44.5401" lon="5.12794">
        <ele>693</ele>
      </trkpt>
      <trkpt lat="44.54036" lon="5.1278">
        <ele>697</ele>
      </trkpt>
      <trkpt lat="44.54057" lon="5.1277">
        <ele>696</ele>
      </trkpt>
      <trkpt lat="44.54083" lon="5.12768">
        <ele>695</ele>
      </trkpt>
      <trkpt lat="44.54108" lon="5.12773">
        <ele>691</ele>
      </trkpt>
      <trkpt lat="44.54144" lon="5.12769">
        <ele>688</ele>
      </trkpt>
      <trkpt lat="44.54163" lon="5.12763">
        <ele>687</ele>
      </trkpt>
      <trkpt lat="44.5421" lon="5.12733">
        <ele>687</ele>
      </trkpt>
      <trkpt lat="44.54237" lon="5.12725">
        <ele>690</ele>
      </trkpt>
      <trkpt lat="44.54255" lon="5.12725">
        <ele>688</ele>
      </trkpt>
      <trkpt lat="44.5427" lon="5.12729">
        <ele>681</ele>
      </trkpt>
      <trkpt lat="44.5436" lon="5.12765">
        <ele>675</ele>
      </trkpt>
      <trkpt lat="44.54386" lon="5.12781">
        <ele>678</ele>
      </trkpt>
      <trkpt lat="44.54409" lon="5.12792">
        <ele>675</ele>
      </trkpt>
      <trkpt lat="44.54444" lon="5.12802">
        <ele>672</ele>
      </trkpt>
      <trkpt lat="44.54467" lon="5.12804">
        <ele>669</ele>
      </trkpt>
      <trkpt lat="44.54491" lon="5.12802">
        <ele>669</ele>
      </trkpt>
      <trkpt lat="44.54615" lon="5.12813">
        <ele>672</ele>
      </trkpt>
      <trkpt lat="44.54622" lon="5.12816">
        <ele>672</ele>
      </trkpt>
      <trkpt lat="44.54629" lon="5.12826">
        <ele>675</ele>
      </trkpt>
      <trkpt lat="44.54628" lon="5.12839">
        <ele>674</ele>
      </trkpt>
      <trkpt lat="44.54621" lon="5.12885">
        <ele>668</ele>
      </trkpt>
      <trkpt lat="44.5462" lon="5.1291">
        <ele>667</ele>
      </trkpt>
      <trkpt lat="44.54626" lon="5.1296">
        <ele>667</ele>
      </trkpt>
      <trkpt lat="44.54626" lon="5.1301">
        <ele>665</ele>
      </trkpt>
      <trkpt lat="44.5463" lon="5.13064">
        <ele>669</ele>
      </trkpt>
      <trkpt lat="44.54626" lon="5.13101">
        <ele>654</ele>
      </trkpt>
      <trkpt lat="44.54628" lon="5.13118">
        <ele>656</ele>
      </trkpt>
      <trkpt lat="44.54635" lon="5.13132">
        <ele>656</ele>
      </trkpt>
      <trkpt lat="44.54648" lon="5.13151">
        <ele>651</ele>
      </trkpt>
      <trkpt lat="44.54686" lon="5.13186">
        <ele>653</ele>
      </trkpt>
      <trkpt lat="44.54709" lon="5.13218">
        <ele>644</ele>
      </trkpt>
      <trkpt lat="44.54715" lon="5.13231">
        <ele>641</ele>
      </trkpt>
      <trkpt lat="44.54725" lon="5.13242">
        <ele>641</ele>
      </trkpt>
      <trkpt lat="44.54745" lon="5.13256">
        <ele>638</ele>
      </trkpt>
      <trkpt lat="44.54766" lon="5.13265">
        <ele>641</ele>
      </trkpt>
      <trkpt lat="44.54788" lon="5.13271">
        <ele>642</ele>
      </trkpt>
      <trkpt lat="44.54795" lon="5.13276">
        <ele>645</ele>
      </trkpt>
      <trkpt lat="44.54803" lon="5.13287">
        <ele>638</ele>
      </trkpt>
      <trkpt lat="44.54816" lon="5.13296">
        <ele>638</ele>
      </trkpt>
      <trkpt lat="44.54846" lon="5.1331">
        <ele>636</ele>
      </trkpt>
      <trkpt lat="44.54874" lon="5.13333">
        <ele>637</ele>
      </trkpt>
      <trkpt lat="44.54882" lon="5.13337">
        <ele>639</ele>
      </trkpt>
      <trkpt lat="44.54901" lon="5.13335">
        <ele>641</ele>
      </trkpt>
      <trkpt lat="44.54912" lon="5.13336">
        <ele>644</ele>
      </trkpt>
      <trkpt lat="44.54919" lon="5.13343">
        <ele>640</ele>
      </trkpt>
      <trkpt lat="44.54923" lon="5.13357">
        <ele>639</ele>
      </trkpt>
      <trkpt lat="44.54924" lon="5.1338">
        <ele>635</ele>
      </trkpt>
      <trkpt lat="44.54928" lon="5.134">
        <ele>632</ele>
      </trkpt>
      <trkpt lat="44.54935" lon="5.13412">
        <ele>633</ele>
      </trkpt>
      <trkpt lat="44.54964" lon="5.13438">
        <ele>628</ele>
      </trkpt>
      <trkpt lat="44.55011" lon="5.1347">
        <ele>623</ele>
      </trkpt>
      <trkpt lat="44.55025" lon="5.13476">
        <ele>621</ele>
      </trkpt>
      <trkpt lat="44.55038" lon="5.13478">
        <ele>621</ele>
      </trkpt>
      <trkpt lat="44.55105" lon="5.13477">
        <ele>627</ele>
      </trkpt>
      <trkpt lat="44.55126" lon="5.13479">
        <ele>627</ele>
      </trkpt>
      <trkpt lat="44.55151" lon="5.13486">
        <ele>627</ele>
      </trkpt>
      <trkpt lat="44.55199" lon="5.13494">
        <ele>626</ele>
      </trkpt>
      <trkpt lat="44.55255" lon="5.13516">
        <ele>618</ele>
      </trkpt>
      <trkpt lat="44.55256" lon="5.13531">
        <ele>617</ele>
      </trkpt>
      <trkpt lat="44.55262" lon="5.13547">
        <ele>617</ele>
      </trkpt>
      <trkpt lat="44.55264" lon="5.13564">
        <ele>617</ele>
      </trkpt>
      <trkpt lat="44.55264" lon="5.13582">
        <ele>618</ele>
      </trkpt>
      <trkpt lat="44.55252" lon="5.13678">
        <ele>618</ele>
      </trkpt>
      <trkpt lat="44.55243" lon="5.13733">
        <ele>614</ele>
      </trkpt>
      <trkpt lat="44.55234" lon="5.13764">
        <ele>613</ele>
      </trkpt>
      <trkpt lat="44.5523" lon="5.13775">
        <ele>612</ele>
      </trkpt>
      <trkpt lat="44.55218" lon="5.13789">
        <ele>611</ele>
      </trkpt>
      <trkpt lat="44.5517" lon="5.1383">
        <ele>610</ele>
      </trkpt>
      <trkpt lat="44.55143" lon="5.13874">
        <ele>609</ele>
      </trkpt>
      <trkpt lat="44.55115" lon="5.13939">
        <ele>606</ele>
      </trkpt>
      <trkpt lat="44.55115" lon="5.13967">
        <ele>606</ele>
      </trkpt>
      <trkpt lat="44.55151" lon="5.14101">
        <ele>607</ele>
      </trkpt>
      <trkpt lat="44.55159" lon="5.14163">
        <ele>611</ele>
      </trkpt>
      <trkpt lat="44.55159" lon="5.14353">
        <ele>604</ele>
      </trkpt>
      <trkpt lat="44.5515" lon="5.14402">
        <ele>603</ele>
      </trkpt>
      <trkpt lat="44.55135" lon="5.14445">
        <ele>606</ele>
      </trkpt>
      <trkpt lat="44.55117" lon="5.14477">
        <ele>607</ele>
      </trkpt>
      <trkpt lat="44.55098" lon="5.14502">
        <ele>603</ele>
      </trkpt>
      <trkpt lat="44.55071" lon="5.14523">
        <ele>603</ele>
      </trkpt>
      <trkpt lat="44.5506" lon="5.14536">
        <ele>598</ele>
      </trkpt>
      <trkpt lat="44.55053" lon="5.1455">
        <ele>598</ele>
      </trkpt>
      <trkpt lat="44.5505" lon="5.14568">
        <ele>598</ele>
      </trkpt>
      <trkpt lat="44.5505" lon="5.14584">
        <ele>598</ele>
      </trkpt>
      <trkpt lat="44.55072" lon="5.14672">
        <ele>589</ele>
      </trkpt>
      <trkpt lat="44.55077" lon="5.14681">
        <ele>589</ele>
      </trkpt>
      <trkpt lat="44.55087" lon="5.14686">
        <ele>590</ele>
      </trkpt>
      <trkpt lat="44.55104" lon="5.1469">
        <ele>588</ele>
      </trkpt>
      <trkpt lat="44.55147" lon="5.14708">
        <ele>581</ele>
      </trkpt>
      <trkpt lat="44.55177" lon="5.14707">
        <ele>582</ele>
      </trkpt>
      <trkpt lat="44.5519" lon="5.1471">
        <ele>583</ele>
      </trkpt>
      <trkpt lat="44.55233" lon="5.14733">
        <ele>575</ele>
      </trkpt>
      <trkpt lat="44.55253" lon="5.1474">
        <ele>574</ele>
      </trkpt>
      <trkpt lat="44.55276" lon="5.14747">
        <ele>572</ele>
      </trkpt>
      <trkpt lat="44.55319" lon="5.14752">
        <ele>568</ele>
      </trkpt>
      <trkpt lat="44.55336" lon="5.1475">
        <ele>567</ele>
      </trkpt>
      <trkpt lat="44.55369" lon="5.14741">
        <ele>566</ele>
      </trkpt>
      <trkpt lat="44.55391" lon="5.14743">
        <ele>563</ele>
      </trkpt>
      <trkpt lat="44.5541" lon="5.14738">
        <ele>560</ele>
      </trkpt>
      <trkpt lat="44.55472" lon="5.14692">
        <ele>560</ele>
      </trkpt>
      <trkpt lat="44.55481" lon="5.1469">
        <ele>560</ele>
      </trkpt>
      <trkpt lat="44.5549" lon="5.1469">
        <ele>557</ele>
      </trkpt>
      <trkpt lat="44.55498" lon="5.14693">
        <ele>557</ele>
      </trkpt>
      <trkpt lat="44.55509" lon="5.14704">
        <ele>557</ele>
      </trkpt>
      <trkpt lat="44.55517" lon="5.14715">
        <ele>557</ele>
      </trkpt>
      <trkpt lat="44.55522" lon="5.14733">
        <ele>558</ele>
      </trkpt>
      <trkpt lat="44.55522" lon="5.1476">
        <ele>558</ele>
      </trkpt>
      <trkpt lat="44.55518" lon="5.14777">
        <ele>558</ele>
      </trkpt>
      <trkpt lat="44.55511" lon="5.14794">
        <ele>557</ele>
      </trkpt>
      <trkpt lat="44.55494" lon="5.14828">
        <ele>556</ele>
      </trkpt>
      <trkpt lat="44.55493" lon="5.1484">
        <ele>555</ele>
      </trkpt>
      <trkpt lat="44.55498" lon="5.14879">
        <ele>557</ele>
      </trkpt>
      <trkpt lat="44.55494" lon="5.1489">
        <ele>558</ele>
      </trkpt>
      <trkpt lat="44.55488" lon="5.14898">
        <ele>561</ele>
      </trkpt>
      <trkpt lat="44.5547" lon="5.1491">
        <ele>556</ele>
      </trkpt>
      <trkpt lat="44.5544" lon="5.14936">
        <ele>555</ele>
      </trkpt>
      <trkpt lat="44.55426" lon="5.14944">
        <ele>550</ele>
      </trkpt>
      <trkpt lat="44.55412" lon="5.14955">
        <ele>554</ele>
      </trkpt>
      <trkpt lat="44.55389" lon="5.14992">
        <ele>555</ele>
      </trkpt>
      <trkpt lat="44.55338" lon="5.15056">
        <ele>543</ele>
      </trkpt>
      <trkpt lat="44.55329" lon="5.15064">
        <ele>543</ele>
      </trkpt>
      <trkpt lat="44.55311" lon="5.15071">
        <ele>538</ele>
      </trkpt>
      <trkpt lat="44.55303" lon="5.15078">
        <ele>537</ele>
      </trkpt>
      <trkpt lat="44.55299" lon="5.15088">
        <ele>537</ele>
      </trkpt>
      <trkpt lat="44.55295" lon="5.15105">
        <ele>536</ele>
      </trkpt>
      <trkpt lat="44.55295" lon="5.15122">
        <ele>534</ele>
      </trkpt>
      <trkpt lat="44.55297" lon="5.15144">
        <ele>531</ele>
      </trkpt>
      <trkpt lat="44.553" lon="5.15156">
        <ele>531</ele>
      </trkpt>
      <trkpt lat="44.55307" lon="5.15168">
        <ele>530</ele>
      </trkpt>
      <trkpt lat="44.55315" lon="5.15176">
        <ele>527</ele>
      </trkpt>
      <trkpt lat="44.55352" lon="5.15194">
        <ele>532</ele>
      </trkpt>
      <trkpt lat="44.55362" lon="5.15204">
        <ele>530</ele>
      </trkpt>
      <trkpt lat="44.55364" lon="5.1521">
        <ele>529</ele>
      </trkpt>
      <trkpt lat="44.55364" lon="5.15217">
        <ele>529</ele>
      </trkpt>
      <trkpt lat="44.55361" lon="5.15221">
        <ele>529</ele>
      </trkpt>
      <trkpt lat="44.55356" lon="5.15221">
        <ele>529</ele>
      </trkpt>
      <trkpt lat="44.55338" lon="5.1521">
        <ele>524</ele>
      </trkpt>
      <trkpt lat="44.55327" lon="5.15208">
        <ele>524</ele>
      </trkpt>
      <trkpt lat="44.55315" lon="5.1521">
        <ele>521</ele>
      </trkpt>
      <trkpt lat="44.55291" lon="5.15223">
        <ele>518</ele>
      </trkpt>
      <trkpt lat="44.5528" lon="5.15227">
        <ele>516</ele>
      </trkpt>
      <trkpt lat="44.5527" lon="5.15226">
        <ele>518</ele>
      </trkpt>
      <trkpt lat="44.5526" lon="5.1522">
        <ele>515</ele>
      </trkpt>
      <trkpt lat="44.55226" lon="5.15188">
        <ele>513</ele>
      </trkpt>
      <trkpt lat="44.55221" lon="5.1518">
        <ele>513</ele>
      </trkpt>
      <trkpt lat="44.55219" lon="5.15168">
        <ele>514</ele>
      </trkpt>
      <trkpt lat="44.55222" lon="5.15155">
        <ele>514</ele>
      </trkpt>
      <trkpt lat="44.55222" lon="5.15146">
        <ele>515</ele>
      </trkpt>
      <trkpt lat="44.55219" lon="5.15141">
        <ele>515</ele>
      </trkpt>
      <trkpt lat="44.55214" lon="5.15139">
        <ele>514</ele>
      </trkpt>
      <trkpt lat="44.55208" lon="5.15141">
        <ele>510</ele>
      </trkpt>
      <trkpt lat="44.55205" lon="5.15149">
        <ele>509</ele>
      </trkpt>
      <trkpt lat="44.55204" lon="5.15187">
        <ele>508</ele>
      </trkpt>
      <trkpt lat="44.55204" lon="5.15217">
        <ele>507</ele>
      </trkpt>
      <trkpt lat="44.55203" lon="5.15232">
        <ele>506</ele>
      </trkpt>
      <trkpt lat="44.55195" lon="5.15247">
        <ele>505</ele>
      </trkpt>
      <trkpt lat="44.5518" lon="5.15264">
        <ele>503</ele>
      </trkpt>
      <trkpt lat="44.55172" lon="5.15282">
        <ele>503</ele>
      </trkpt>
      <trkpt lat="44.55167" lon="5.15298">
        <ele>503</ele>
      </trkpt>
      <trkpt lat="44.55167" lon="5.15314">
        <ele>499</ele>
      </trkpt>
      <trkpt lat="44.55171" lon="5.15327">
        <ele>499</ele>
      </trkpt>
      <trkpt lat="44.55181" lon="5.1534">
        <ele>496</ele>
      </trkpt>
      <trkpt lat="44.55197" lon="5.15355">
        <ele>496</ele>
      </trkpt>
      <trkpt lat="44.55215" lon="5.15377">
        <ele>496</ele>
      </trkpt>
      <trkpt lat="44.55227" lon="5.15396">
        <ele>496</ele>
      </trkpt>
      <trkpt lat="44.55231" lon="5.15411">
        <ele>497</ele>
      </trkpt>
      <trkpt lat="44.55233" lon="5.15428">
        <ele>497</ele>
      </trkpt>
      <trkpt lat="44.55216" lon="5.15543">
        <ele>493</ele>
      </trkpt>
      <trkpt lat="44.55215" lon="5.15559">
        <ele>492</ele>
      </trkpt>
      <trkpt lat="44.55218" lon="5.15569">
        <ele>490</ele>
      </trkpt>
      <trkpt lat="44.55224" lon="5.1558">
        <ele>489</ele>
      </trkpt>
      <trkpt lat="44.55233" lon="5.15588">
        <ele>486</ele>
      </trkpt>
      <trkpt lat="44.55247" lon="5.15593">
        <ele>486</ele>
      </trkpt>
      <trkpt lat="44.55263" lon="5.15596">
        <ele>486</ele>
      </trkpt>
      <trkpt lat="44.55277" lon="5.15604">
        <ele>486</ele>
      </trkpt>
      <trkpt lat="44.55293" lon="5.15619">
        <ele>482</ele>
      </trkpt>
      <trkpt lat="44.55368" lon="5.15661">
        <ele>478</ele>
      </trkpt>
      <trkpt lat="44.55395" lon="5.15679">
        <ele>477</ele>
      </trkpt>
      <trkpt lat="44.55449" lon="5.15737">
        <ele>474</ele>
      </trkpt>
      <trkpt lat="44.55457" lon="5.15741">
        <ele>474</ele>
      </trkpt>
      <trkpt lat="44.55471" lon="5.15745">
        <ele>474</ele>
      </trkpt>
      <trkpt lat="44.55564" lon="5.15751">
        <ele>470</ele>
      </trkpt>
      <trkpt lat="44.55579" lon="5.15754">
        <ele>469</ele>
      </trkpt>
      <trkpt lat="44.55637" lon="5.15785">
        <ele>465</ele>
      </trkpt>
      <trkpt lat="44.55651" lon="5.15796">
        <ele>465</ele>
      </trkpt>
      <trkpt lat="44.55662" lon="5.1581">
        <ele>464</ele>
      </trkpt>
      <trkpt lat="44.55677" lon="5.15836">
        <ele>464</ele>
      </trkpt>
      <trkpt lat="44.5568" lon="5.15849">
        <ele>463</ele>
      </trkpt>
      <trkpt lat="44.55681" lon="5.15862">
        <ele>463</ele>
      </trkpt>
      <trkpt lat="44.55674" lon="5.15884">
        <ele>464</ele>
      </trkpt>
      <trkpt lat="44.55656" lon="5.15907">
        <ele>464</ele>
      </trkpt>
      <trkpt lat="44.55652" lon="5.1592">
        <ele>464</ele>
      </trkpt>
      <trkpt lat="44.55652" lon="5.15933">
        <ele>465</ele>
      </trkpt>
      <trkpt lat="44.55656" lon="5.15947">
        <ele>464</ele>
      </trkpt>
      <trkpt lat="44.55668" lon="5.15964">
        <ele>464</ele>
      </trkpt>
      <trkpt lat="44.55682" lon="5.15977">
        <ele>464</ele>
      </trkpt>
      <trkpt lat="44.55697" lon="5.15989">
        <ele>463</ele>
      </trkpt>
      <trkpt lat="44.5584" lon="5.16087">
        <ele>460</ele>
      </trkpt>
      <trkpt lat="44.55848" lon="5.161">
        <ele>461</ele>
      </trkpt>
      <trkpt lat="44.55851" lon="5.16111">
        <ele>462</ele>
      </trkpt>
      <trkpt lat="44.5585" lon="5.16124">
        <ele>462</ele>
      </trkpt>
      <trkpt lat="44.55847" lon="5.16135">
        <ele>462</ele>
      </trkpt>
      <trkpt lat="44.55765" lon="5.16202">
        <ele>465</ele>
      </trkpt>
      <trkpt lat="44.5575" lon="5.1622">
        <ele>465</ele>
      </trkpt>
      <trkpt lat="44.55721" lon="5.16282">
        <ele>466</ele>
      </trkpt>
      <trkpt lat="44.55709" lon="5.16295">
        <ele>465</ele>
      </trkpt>
      <trkpt lat="44.5567" lon="5.16316">
        <ele>465</ele>
      </trkpt>
      <trkpt lat="44.55647" lon="5.16331">
        <ele>466</ele>
      </trkpt>
      <trkpt lat="44.55609" lon="5.16372">
        <ele>467</ele>
      </trkpt>
      <trkpt lat="44.5558" lon="5.16397">
        <ele>467</ele>
      </trkpt>
      <trkpt lat="44.55566" lon="5.16417">
        <ele>467</ele>
      </trkpt>
      <trkpt lat="44.55553" lon="5.16451">
        <ele>467</ele>
      </trkpt>
      <trkpt lat="44.55523" lon="5.16551">
        <ele>471</ele>
      </trkpt>
      <trkpt lat="44.55515" lon="5.16584">
        <ele>472</ele>
      </trkpt>
      <trkpt lat="44.55517" lon="5.16593">
        <ele>474</ele>
      </trkpt>
      <trkpt lat="44.55534" lon="5.16601">
        <ele>475</ele>
      </trkpt>
      <trkpt lat="44.55575" lon="5.16601">
        <ele>480</ele>
      </trkpt>
      <trkpt lat="44.55596" lon="5.16598">
        <ele>482</ele>
      </trkpt>
      <trkpt lat="44.55627" lon="5.1657">
        <ele>482</ele>
      </trkpt>
      <trkpt lat="44.55632" lon="5.16577">
        <ele>483</ele>
      </trkpt>
      <trkpt lat="44.55591" lon="5.1661">
        <ele>482</ele>
      </trkpt>
      <trkpt lat="44.55572" lon="5.16628">
        <ele>483</ele>
      </trkpt>
      <trkpt lat="44.5556" lon="5.16669">
        <ele>483</ele>
      </trkpt>
      <trkpt lat="44.55556" lon="5.16701">
        <ele>488</ele>
      </trkpt>
      <trkpt lat="44.55556" lon="5.16756">
        <ele>490</ele>
      </trkpt>
      <trkpt lat="44.5555" lon="5.16808">
        <ele>490</ele>
      </trkpt>
      <trkpt lat="44.55514" lon="5.16932">
        <ele>483</ele>
      </trkpt>
      <trkpt lat="44.55445" lon="5.17185">
        <ele>482</ele>
      </trkpt>
      <trkpt lat="44.55434" lon="5.17209">
        <ele>484</ele>
      </trkpt>
      <trkpt lat="44.55413" lon="5.17246">
        <ele>487</ele>
      </trkpt>
      <trkpt lat="44.5525" lon="5.17501">
        <ele>497</ele>
      </trkpt>
      <trkpt lat="44.55235" lon="5.1753">
        <ele>496</ele>
      </trkpt>
      <trkpt lat="44.55167" lon="5.17679">
        <ele>513</ele>
      </trkpt>
      <trkpt lat="44.55157" lon="5.17705">
        <ele>518</ele>
      </trkpt>
      <trkpt lat="44.55149" lon="5.17751">
        <ele>516</ele>
      </trkpt>
      <trkpt lat="44.55135" lon="5.17796">
        <ele>523</ele>
      </trkpt>
      <trkpt lat="44.55131" lon="5.17815">
        <ele>527</ele>
      </trkpt>
      <trkpt lat="44.5513" lon="5.17859">
        <ele>537</ele>
      </trkpt>
      <trkpt lat="44.55121" lon="5.17886">
        <ele>533</ele>
      </trkpt>
      <trkpt lat="44.55102" lon="5.17924">
        <ele>538</ele>
      </trkpt>
      <trkpt lat="44.55088" lon="5.17974">
        <ele>527</ele>
      </trkpt>
      <trkpt lat="44.55069" lon="5.18108">
        <ele>535</ele>
      </trkpt>
      <trkpt lat="44.55055" lon="5.18164">
        <ele>535</ele>
      </trkpt>
      <trkpt lat="44.55055" lon="5.18184">
        <ele>533</ele>
      </trkpt>
      <trkpt lat="44.55062" lon="5.18203">
        <ele>529</ele>
      </trkpt>
      <trkpt lat="44.55093" lon="5.18253">
        <ele>528</ele>
      </trkpt>
      <trkpt lat="44.55104" lon="5.18279">
        <ele>524</ele>
      </trkpt>
      <trkpt lat="44.55106" lon="5.18286">
        <ele>521</ele>
      </trkpt>
      <trkpt lat="44.55109" lon="5.1832">
        <ele>521</ele>
      </trkpt>
      <trkpt lat="44.55109" lon="5.18334">
        <ele>523</ele>
      </trkpt>
      <trkpt lat="44.55103" lon="5.18358">
        <ele>531</ele>
      </trkpt>
      <trkpt lat="44.55057" lon="5.18445">
        <ele>536</ele>
      </trkpt>
      <trkpt lat="44.55012" lon="5.18506">
        <ele>539</ele>
      </trkpt>
      <trkpt lat="44.54988" lon="5.18566">
        <ele>552</ele>
      </trkpt>
      <trkpt lat="44.54973" lon="5.18586">
        <ele>544</ele>
      </trkpt>
      <trkpt lat="44.54959" lon="5.186">
        <ele>541</ele>
      </trkpt>
      <trkpt lat="44.54908" lon="5.18638">
        <ele>539</ele>
      </trkpt>
      <trkpt lat="44.5486" lon="5.1867">
        <ele>538</ele>
      </trkpt>
      <trkpt lat="44.54823" lon="5.18714">
        <ele>546</ele>
      </trkpt>
      <trkpt lat="44.54805" lon="5.18732">
        <ele>547</ele>
      </trkpt>
      <trkpt lat="44.54793" lon="5.18736">
        <ele>546</ele>
      </trkpt>
      <trkpt lat="44.54782" lon="5.18736">
        <ele>542</ele>
      </trkpt>
      <trkpt lat="44.54757" lon="5.18727">
        <ele>535</ele>
      </trkpt>
      <trkpt lat="44.54738" lon="5.18724">
        <ele>535</ele>
      </trkpt>
      <trkpt lat="44.54673" lon="5.18731">
        <ele>546</ele>
      </trkpt>
      <trkpt lat="44.54652" lon="5.18741">
        <ele>542</ele>
      </trkpt>
      <trkpt lat="44.54583" lon="5.18825">
        <ele>563</ele>
      </trkpt>
      <trkpt lat="44.54561" lon="5.18839">
        <ele>567</ele>
      </trkpt>
      <trkpt lat="44.54523" lon="5.18847">
        <ele>562</ele>
      </trkpt>
      <trkpt lat="44.54452" lon="5.18851">
        <ele>553</ele>
      </trkpt>
      <trkpt lat="44.54431" lon="5.18862">
        <ele>551</ele>
      </trkpt>
      <trkpt lat="44.54402" lon="5.18891">
        <ele>554</ele>
      </trkpt>
      <trkpt lat="44.54351" lon="5.18978">
        <ele>572</ele>
      </trkpt>
      <trkpt lat="44.54314" lon="5.19022">
        <ele>564</ele>
      </trkpt>
      <trkpt lat="44.54253" lon="5.19077">
        <ele>565</ele>
      </trkpt>
      <trkpt lat="44.5418" lon="5.1912">
        <ele>561</ele>
      </trkpt>
      <trkpt lat="44.54116" lon="5.19176">
        <ele>559</ele>
      </trkpt>
      <trkpt lat="44.54103" lon="5.19196">
        <ele>560</ele>
      </trkpt>
      <trkpt lat="44.54085" lon="5.19256">
        <ele>577</ele>
      </trkpt>
      <trkpt lat="44.54078" lon="5.19276">
        <ele>578</ele>
      </trkpt>
      <trkpt lat="44.54039" lon="5.19342">
        <ele>565</ele>
      </trkpt>
      <trkpt lat="44.54031" lon="5.19371">
        <ele>568</ele>
      </trkpt>
      <trkpt lat="44.54025" lon="5.19426">
        <ele>583</ele>
      </trkpt>
      <trkpt lat="44.54016" lon="5.19453">
        <ele>589</ele>
      </trkpt>
      <trkpt lat="44.54008" lon="5.1947">
        <ele>577</ele>
      </trkpt>
      <trkpt lat="44.53995" lon="5.1949">
        <ele>579</ele>
      </trkpt>
      <trkpt lat="44.53972" lon="5.19514">
        <ele>566</ele>
      </trkpt>
      <trkpt lat="44.5395" lon="5.19535">
        <ele>560</ele>
      </trkpt>
      <trkpt lat="44.53939" lon="5.19551">
        <ele>560</ele>
      </trkpt>
      <trkpt lat="44.5393" lon="5.19568">
        <ele>559</ele>
      </trkpt>
      <trkpt lat="44.53925" lon="5.19584">
        <ele>560</ele>
      </trkpt>
      <trkpt lat="44.53914" lon="5.19628">
        <ele>563</ele>
      </trkpt>
      <trkpt lat="44.53908" lon="5.19647">
        <ele>565</ele>
      </trkpt>
      <trkpt lat="44.53845" lon="5.19796">
        <ele>569</ele>
      </trkpt>
      <trkpt lat="44.53826" lon="5.19827">
        <ele>574</ele>
      </trkpt>
      <trkpt lat="44.53789" lon="5.1987">
        <ele>573</ele>
      </trkpt>
      <trkpt lat="44.53733" lon="5.19952">
        <ele>579</ele>
      </trkpt>
      <trkpt lat="44.53693" lon="5.20003">
        <ele>576</ele>
      </trkpt>
      <trkpt lat="44.53681" lon="5.20021">
        <ele>573</ele>
      </trkpt>
      <trkpt lat="44.53672" lon="5.20037">
        <ele>577</ele>
      </trkpt>
      <trkpt lat="44.53662" lon="5.20065">
        <ele>580</ele>
      </trkpt>
      <trkpt lat="44.53649" lon="5.2009">
        <ele>575</ele>
      </trkpt>
      <trkpt lat="44.53606" lon="5.20154">
        <ele>573</ele>
      </trkpt>
      <trkpt lat="44.53593" lon="5.20175">
        <ele>571</ele>
      </trkpt>
      <trkpt lat="44.53582" lon="5.20199">
        <ele>572</ele>
      </trkpt>
      <trkpt lat="44.5356" lon="5.20235">
        <ele>574</ele>
      </trkpt>
      <trkpt lat="44.53546" lon="5.20255">
        <ele>574</ele>
      </trkpt>
      <trkpt lat="44.53539" lon="5.20268">
        <ele>571</ele>
      </trkpt>
      <trkpt lat="44.53536" lon="5.20279">
        <ele>571</ele>
      </trkpt>
      <trkpt lat="44.53529" lon="5.20329">
        <ele>575</ele>
      </trkpt>
      <trkpt lat="44.53528" lon="5.20351">
        <ele>578</ele>
      </trkpt>
      <trkpt lat="44.5353" lon="5.20402">
        <ele>581</ele>
      </trkpt>
      <trkpt lat="44.53528" lon="5.20432">
        <ele>583</ele>
      </trkpt>
      <trkpt lat="44.53523" lon="5.2047">
        <ele>588</ele>
      </trkpt>
      <trkpt lat="44.53509" lon="5.20515">
        <ele>589</ele>
      </trkpt>
      <trkpt lat="44.53498" lon="5.20533">
        <ele>589</ele>
      </trkpt>
      <trkpt lat="44.53488" lon="5.20545">
        <ele>594</ele>
      </trkpt>
      <trkpt lat="44.53471" lon="5.20556">
        <ele>582</ele>
      </trkpt>
      <trkpt lat="44.53451" lon="5.20567">
        <ele>582</ele>
      </trkpt>
      <trkpt lat="44.53398" lon="5.20587">
        <ele>574</ele>
      </trkpt>
      <trkpt lat="44.53382" lon="5.20596">
        <ele>577</ele>
      </trkpt>
      <trkpt lat="44.53374" lon="5.20603">
        <ele>575</ele>
      </trkpt>
      <trkpt lat="44.53363" lon="5.20619">
        <ele>578</ele>
      </trkpt>
      <trkpt lat="44.53352" lon="5.20641">
        <ele>578</ele>
      </trkpt>
      <trkpt lat="44.53346" lon="5.20666">
        <ele>576</ele>
      </trkpt>
      <trkpt lat="44.53323" lon="5.20829">
        <ele>583</ele>
      </trkpt>
      <trkpt lat="44.53313" lon="5.20873">
        <ele>582</ele>
      </trkpt>
      <trkpt lat="44.5329" lon="5.20944">
        <ele>580</ele>
      </trkpt>
      <trkpt lat="44.53285" lon="5.2097">
        <ele>580</ele>
      </trkpt>
      <trkpt lat="44.53286" lon="5.20988">
        <ele>580</ele>
      </trkpt>
      <trkpt lat="44.53291" lon="5.2101">
        <ele>580</ele>
      </trkpt>
      <trkpt lat="44.53327" lon="5.21114">
        <ele>586</ele>
      </trkpt>
      <trkpt lat="44.53351" lon="5.21177">
        <ele>585</ele>
      </trkpt>
      <trkpt lat="44.5336" lon="5.21192">
        <ele>585</ele>
      </trkpt>
      <trkpt lat="44.53392" lon="5.21227">
        <ele>587</ele>
      </trkpt>
      <trkpt lat="44.53414" lon="5.21254">
        <ele>590</ele>
      </trkpt>
      <trkpt lat="44.5343" lon="5.21278">
        <ele>589</ele>
      </trkpt>
      <trkpt lat="44.53453" lon="5.21324">
        <ele>591</ele>
      </trkpt>
      <trkpt lat="44.53461" lon="5.2135">
        <ele>594</ele>
      </trkpt>
      <trkpt lat="44.53463" lon="5.2136">
        <ele>594</ele>
      </trkpt>
      <trkpt lat="44.5346" lon="5.21388">
        <ele>592</ele>
      </trkpt>
      <trkpt lat="44.53455" lon="5.21399">
        <ele>587</ele>
      </trkpt>
      <trkpt lat="44.53381" lon="5.21516">
        <ele>589</ele>
      </trkpt>
      <trkpt lat="44.53363" lon="5.21533">
        <ele>589</ele>
      </trkpt>
      <trkpt lat="44.53152" lon="5.2168">
        <ele>590</ele>
      </trkpt>
      <trkpt lat="44.52819" lon="5.21846">
        <ele>592</ele>
      </trkpt>
      <trkpt lat="44.52772" lon="5.21871">
        <ele>591</ele>
      </trkpt>
      <trkpt lat="44.5275" lon="5.21881">
        <ele>588</ele>
      </trkpt>
      <trkpt lat="44.52735" lon="5.21884">
        <ele>590</ele>
      </trkpt>
      <trkpt lat="44.52716" lon="5.21883">
        <ele>590</ele>
      </trkpt>
      <trkpt lat="44.52473" lon="5.21824">
        <ele>592</ele>
      </trkpt>
      <trkpt lat="44.52408" lon="5.21821">
        <ele>594</ele>
      </trkpt>
      <trkpt lat="44.52383" lon="5.21815">
        <ele>596</ele>
      </trkpt>
      <trkpt lat="44.52369" lon="5.2181">
        <ele>595</ele>
      </trkpt>
      <trkpt lat="44.5235" lon="5.21798">
        <ele>595</ele>
      </trkpt>
      <trkpt lat="44.52297" lon="5.21755">
        <ele>594</ele>
      </trkpt>
      <trkpt lat="44.52271" lon="5.21745">
        <ele>595</ele>
      </trkpt>
      <trkpt lat="44.52245" lon="5.21751">
        <ele>596</ele>
      </trkpt>
      <trkpt lat="44.52215" lon="5.21763">
        <ele>598</ele>
      </trkpt>
      <trkpt lat="44.52202" lon="5.21765">
        <ele>599</ele>
      </trkpt>
      <trkpt lat="44.52182" lon="5.21761">
        <ele>599</ele>
      </trkpt>
      <trkpt lat="44.52025" lon="5.2169">
        <ele>602</ele>
      </trkpt>
      <trkpt lat="44.51976" lon="5.21674">
        <ele>607</ele>
      </trkpt>
      <trkpt lat="44.51954" lon="5.21656">
        <ele>608</ele>
      </trkpt>
      <trkpt lat="44.51934" lon="5.21634">
        <ele>611</ele>
      </trkpt>
      <trkpt lat="44.5192" lon="5.21623">
        <ele>610</ele>
      </trkpt>
      <trkpt lat="44.51866" lon="5.21584">
        <ele>611</ele>
      </trkpt>
      <trkpt lat="44.51849" lon="5.21576">
        <ele>611</ele>
      </trkpt>
      <trkpt lat="44.51776" lon="5.21556">
        <ele>612</ele>
      </trkpt>
      <trkpt lat="44.51758" lon="5.21555">
        <ele>614</ele>
      </trkpt>
      <trkpt lat="44.51694" lon="5.2156">
        <ele>615</ele>
      </trkpt>
      <trkpt lat="44.51613" lon="5.2154">
        <ele>614</ele>
      </trkpt>
      <trkpt lat="44.51525" lon="5.21501">
        <ele>617</ele>
      </trkpt>
      <trkpt lat="44.51508" lon="5.215">
        <ele>617</ele>
      </trkpt>
      <trkpt lat="44.51457" lon="5.21516">
        <ele>625</ele>
      </trkpt>
      <trkpt lat="44.51449" lon="5.21517">
        <ele>625</ele>
      </trkpt>
      <trkpt lat="44.51441" lon="5.21517">
        <ele>625</ele>
      </trkpt>
      <trkpt lat="44.51406" lon="5.21511">
        <ele>626</ele>
      </trkpt>
      <trkpt lat="44.5139" lon="5.21506">
        <ele>627</ele>
      </trkpt>
      <trkpt lat="44.5138" lon="5.21502">
        <ele>623</ele>
      </trkpt>
      <trkpt lat="44.51347" lon="5.21484">
        <ele>626</ele>
      </trkpt>
      <trkpt lat="44.5119" lon="5.21374">
        <ele>633</ele>
      </trkpt>
      <trkpt lat="44.5114" lon="5.21315">
        <ele>631</ele>
      </trkpt>
      <trkpt lat="44.51131" lon="5.21308">
        <ele>630</ele>
      </trkpt>
      <trkpt lat="44.51029" lon="5.21244">
        <ele>635</ele>
      </trkpt>
      <trkpt lat="44.51009" lon="5.21234">
        <ele>637</ele>
      </trkpt>
      <trkpt lat="44.50999" lon="5.21232">
        <ele>638</ele>
      </trkpt>
      <trkpt lat="44.50988" lon="5.21234">
        <ele>638</ele>
      </trkpt>
      <trkpt lat="44.5093" lon="5.21262">
        <ele>647</ele>
      </trkpt>
      <trkpt lat="44.50913" lon="5.21264">
        <ele>647</ele>
      </trkpt>
      <trkpt lat="44.50722" lon="5.21243">
        <ele>652</ele>
      </trkpt>
      <trkpt lat="44.50689" lon="5.21235">
        <ele>657</ele>
      </trkpt>
      <trkpt lat="44.50679" lon="5.21231">
        <ele>659</ele>
      </trkpt>
      <trkpt lat="44.50661" lon="5.2118">
        <ele>652</ele>
      </trkpt>
      <trkpt lat="44.50655" lon="5.21169">
        <ele>652</ele>
      </trkpt>
      <trkpt lat="44.50647" lon="5.21163">
        <ele>654</ele>
      </trkpt>
      <trkpt lat="44.50637" lon="5.2116">
        <ele>654</ele>
      </trkpt>
      <trkpt lat="44.50624" lon="5.21163">
        <ele>656</ele>
      </trkpt>
      <trkpt lat="44.50598" lon="5.21182">
        <ele>657</ele>
      </trkpt>
      <trkpt lat="44.50581" lon="5.21191">
        <ele>659</ele>
      </trkpt>
      <trkpt lat="44.50568" lon="5.21193">
        <ele>660</ele>
      </trkpt>
      <trkpt lat="44.50553" lon="5.21193">
        <ele>661</ele>
      </trkpt>
      <trkpt lat="44.50512" lon="5.21177">
        <ele>663</ele>
      </trkpt>
      <trkpt lat="44.50493" lon="5.21173">
        <ele>663</ele>
      </trkpt>
      <trkpt lat="44.50432" lon="5.21169">
        <ele>667</ele>
      </trkpt>
      <trkpt lat="44.50418" lon="5.21165">
        <ele>669</ele>
      </trkpt>
      <trkpt lat="44.50367" lon="5.21135">
        <ele>675</ele>
      </trkpt>
      <trkpt lat="44.50346" lon="5.21127">
        <ele>675</ele>
      </trkpt>
      <trkpt lat="44.5033" lon="5.21123">
        <ele>675</ele>
      </trkpt>
      <trkpt lat="44.50319" lon="5.21124">
        <ele>676</ele>
      </trkpt>
      <trkpt lat="44.50304" lon="5.21129">
        <ele>676</ele>
      </trkpt>
      <trkpt lat="44.5025" lon="5.21167">
        <ele>679</ele>
      </trkpt>
      <trkpt lat="44.50174" lon="5.21214">
        <ele>682</ele>
      </trkpt>
      <trkpt lat="44.50142" lon="5.21228">
        <ele>685</ele>
      </trkpt>
      <trkpt lat="44.50109" lon="5.21226">
        <ele>688</ele>
      </trkpt>
      <trkpt lat="44.50082" lon="5.21214">
        <ele>689</ele>
      </trkpt>
      <trkpt lat="44.5004" lon="5.21187">
        <ele>694</ele>
      </trkpt>
      <trkpt lat="44.50017" lon="5.2117">
        <ele>697</ele>
      </trkpt>
      <trkpt lat="44.50008" lon="5.21163">
        <ele>696</ele>
      </trkpt>
      <trkpt lat="44.50001" lon="5.2115">
        <ele>697</ele>
      </trkpt>
      <trkpt lat="44.49999" lon="5.21132">
        <ele>701</ele>
      </trkpt>
      <trkpt lat="44.49999" lon="5.21106">
        <ele>703</ele>
      </trkpt>
      <trkpt lat="44.49992" lon="5.2107">
        <ele>705</ele>
      </trkpt>
      <trkpt lat="44.4998" lon="5.21043">
        <ele>707</ele>
      </trkpt>
      <trkpt lat="44.49967" lon="5.21035">
        <ele>707</ele>
      </trkpt>
      <trkpt lat="44.49959" lon="5.21036">
        <ele>706</ele>
      </trkpt>
      <trkpt lat="44.49944" lon="5.21043">
        <ele>704</ele>
      </trkpt>
      <trkpt lat="44.49861" lon="5.21122">
        <ele>705</ele>
      </trkpt>
      <trkpt lat="44.49851" lon="5.2114">
        <ele>705</ele>
      </trkpt>
      <trkpt lat="44.49831" lon="5.21184">
        <ele>706</ele>
      </trkpt>
      <trkpt lat="44.49821" lon="5.21195">
        <ele>706</ele>
      </trkpt>
      <trkpt lat="44.4981" lon="5.21201">
        <ele>708</ele>
      </trkpt>
      <trkpt lat="44.49797" lon="5.21199">
        <ele>709</ele>
      </trkpt>
      <trkpt lat="44.49737" lon="5.21177">
        <ele>712</ele>
      </trkpt>
      <trkpt lat="44.49701" lon="5.21166">
        <ele>720</ele>
      </trkpt>
      <trkpt lat="44.49667" lon="5.21149">
        <ele>722</ele>
      </trkpt>
      <trkpt lat="44.49617" lon="5.21107">
        <ele>725</ele>
      </trkpt>
      <trkpt lat="44.49603" lon="5.21092">
        <ele>726</ele>
      </trkpt>
      <trkpt lat="44.49578" lon="5.21048">
        <ele>730</ele>
      </trkpt>
      <trkpt lat="44.49564" lon="5.21036">
        <ele>730</ele>
      </trkpt>
      <trkpt lat="44.49545" lon="5.21032">
        <ele>732</ele>
      </trkpt>
      <trkpt lat="44.49528" lon="5.21038">
        <ele>729</ele>
      </trkpt>
      <trkpt lat="44.49513" lon="5.21052">
        <ele>731</ele>
      </trkpt>
      <trkpt lat="44.495" lon="5.21074">
        <ele>730</ele>
      </trkpt>
      <trkpt lat="44.4946" lon="5.21184">
        <ele>729</ele>
      </trkpt>
      <trkpt lat="44.49453" lon="5.21216">
        <ele>731</ele>
      </trkpt>
      <trkpt lat="44.49448" lon="5.21232">
        <ele>730</ele>
      </trkpt>
      <trkpt lat="44.49437" lon="5.21247">
        <ele>730</ele>
      </trkpt>
      <trkpt lat="44.49424" lon="5.21254">
        <ele>734</ele>
      </trkpt>
      <trkpt lat="44.49374" lon="5.21268">
        <ele>742</ele>
      </trkpt>
      <trkpt lat="44.49369" lon="5.21272">
        <ele>743</ele>
      </trkpt>
      <trkpt lat="44.49358" lon="5.21283">
        <ele>743</ele>
      </trkpt>
      <trkpt lat="44.49353" lon="5.21298">
        <ele>743</ele>
      </trkpt>
      <trkpt lat="44.49348" lon="5.21335">
        <ele>741</ele>
      </trkpt>
      <trkpt lat="44.49341" lon="5.21354">
        <ele>743</ele>
      </trkpt>
      <trkpt lat="44.49332" lon="5.21366">
        <ele>742</ele>
      </trkpt>
      <trkpt lat="44.49322" lon="5.21374">
        <ele>741</ele>
      </trkpt>
      <trkpt lat="44.49238" lon="5.21415">
        <ele>750</ele>
      </trkpt>
      <trkpt lat="44.49217" lon="5.21424">
        <ele>751</ele>
      </trkpt>
      <trkpt lat="44.49198" lon="5.21429">
        <ele>753</ele>
      </trkpt>
      <trkpt lat="44.49182" lon="5.21429">
        <ele>754</ele>
      </trkpt>
      <trkpt lat="44.49168" lon="5.21426">
        <ele>756</ele>
      </trkpt>
      <trkpt lat="44.49134" lon="5.21396">
        <ele>762</ele>
      </trkpt>
      <trkpt lat="44.49125" lon="5.21391">
        <ele>765</ele>
      </trkpt>
      <trkpt lat="44.49114" lon="5.21393">
        <ele>765</ele>
      </trkpt>
      <trkpt lat="44.49104" lon="5.21399">
        <ele>762</ele>
      </trkpt>
      <trkpt lat="44.49095" lon="5.21413">
        <ele>762</ele>
      </trkpt>
      <trkpt lat="44.49094" lon="5.21423">
        <ele>760</ele>
      </trkpt>
      <trkpt lat="44.49095" lon="5.21467">
        <ele>759</ele>
      </trkpt>
      <trkpt lat="44.49091" lon="5.21477">
        <ele>759</ele>
      </trkpt>
      <trkpt lat="44.49086" lon="5.21485">
        <ele>760</ele>
      </trkpt>
      <trkpt lat="44.49067" lon="5.21503">
        <ele>764</ele>
      </trkpt>
      <trkpt lat="44.49061" lon="5.21512">
        <ele>766</ele>
      </trkpt>
      <trkpt lat="44.49058" lon="5.21528">
        <ele>766</ele>
      </trkpt>
      <trkpt lat="44.49058" lon="5.21545">
        <ele>769</ele>
      </trkpt>
      <trkpt lat="44.49061" lon="5.21553">
        <ele>770</ele>
      </trkpt>
      <trkpt lat="44.49069" lon="5.21563">
        <ele>773</ele>
      </trkpt>
      <trkpt lat="44.49103" lon="5.21592">
        <ele>779</ele>
      </trkpt>
      <trkpt lat="44.49114" lon="5.21594">
        <ele>779</ele>
      </trkpt>
      <trkpt lat="44.49131" lon="5.21592">
        <ele>778</ele>
      </trkpt>
      <trkpt lat="44.49144" lon="5.21592">
        <ele>778</ele>
      </trkpt>
      <trkpt lat="44.49147" lon="5.21598">
        <ele>779</ele>
      </trkpt>
      <trkpt lat="44.49146" lon="5.21609">
        <ele>780</ele>
      </trkpt>
      <trkpt lat="44.49141" lon="5.21614">
        <ele>781</ele>
      </trkpt>
      <trkpt lat="44.49098" lon="5.21621">
        <ele>787</ele>
      </trkpt>
      <trkpt lat="44.49081" lon="5.21626">
        <ele>787</ele>
      </trkpt>
      <trkpt lat="44.49025" lon="5.2165">
        <ele>789</ele>
      </trkpt>
      <trkpt lat="44.49014" lon="5.2165">
        <ele>789</ele>
      </trkpt>
      <trkpt lat="44.49002" lon="5.21647">
        <ele>788</ele>
      </trkpt>
      <trkpt lat="44.48983" lon="5.21632">
        <ele>785</ele>
      </trkpt>
      <trkpt lat="44.48963" lon="5.21607">
        <ele>782</ele>
      </trkpt>
      <trkpt lat="44.48953" lon="5.21599">
        <ele>785</ele>
      </trkpt>
      <trkpt lat="44.48942" lon="5.21596">
        <ele>785</ele>
      </trkpt>
      <trkpt lat="44.48926" lon="5.216">
        <ele>789</ele>
      </trkpt>
      <trkpt lat="44.48899" lon="5.21617">
        <ele>792</ele>
      </trkpt>
      <trkpt lat="44.48876" lon="5.21637">
        <ele>793</ele>
      </trkpt>
      <trkpt lat="44.48845" lon="5.21692">
        <ele>789</ele>
      </trkpt>
      <trkpt lat="44.488" lon="5.21749">
        <ele>787</ele>
      </trkpt>
      <trkpt lat="44.48767" lon="5.21803">
        <ele>785</ele>
      </trkpt>
      <trkpt lat="44.48748" lon="5.21839">
        <ele>783</ele>
      </trkpt>
      <trkpt lat="44.48734" lon="5.21853">
        <ele>780</ele>
      </trkpt>
      <trkpt lat="44.487" lon="5.2188">
        <ele>777</ele>
      </trkpt>
      <trkpt lat="44.48668" lon="5.21922">
        <ele>776</ele>
      </trkpt>
      <trkpt lat="44.48652" lon="5.21948">
        <ele>773</ele>
      </trkpt>
      <trkpt lat="44.4864" lon="5.2198">
        <ele>776</ele>
      </trkpt>
      <trkpt lat="44.48635" lon="5.22007">
        <ele>782</ele>
      </trkpt>
      <trkpt lat="44.4863" lon="5.22016">
        <ele>783</ele>
      </trkpt>
      <trkpt lat="44.48625" lon="5.2202">
        <ele>783</ele>
      </trkpt>
      <trkpt lat="44.48616" lon="5.22018">
        <ele>778</ele>
      </trkpt>
      <trkpt lat="44.48612" lon="5.22011">
        <ele>777</ele>
      </trkpt>
      <trkpt lat="44.48611" lon="5.21984">
        <ele>771</ele>
      </trkpt>
      <trkpt lat="44.48612" lon="5.21965">
        <ele>768</ele>
      </trkpt>
      <trkpt lat="44.48616" lon="5.21944">
        <ele>766</ele>
      </trkpt>
      <trkpt lat="44.48625" lon="5.21924">
        <ele>769</ele>
      </trkpt>
      <trkpt lat="44.48637" lon="5.21903">
        <ele>768</ele>
      </trkpt>
      <trkpt lat="44.48643" lon="5.21889">
        <ele>766</ele>
      </trkpt>
      <trkpt lat="44.48645" lon="5.21877">
        <ele>766</ele>
      </trkpt>
      <trkpt lat="44.48642" lon="5.21862">
        <ele>763</ele>
      </trkpt>
      <trkpt lat="44.4863" lon="5.21838">
        <ele>760</ele>
      </trkpt>
      <trkpt lat="44.48624" lon="5.21821">
        <ele>756</ele>
      </trkpt>
      <trkpt lat="44.48623" lon="5.21804">
        <ele>755</ele>
      </trkpt>
      <trkpt lat="44.48623" lon="5.21782">
        <ele>754</ele>
      </trkpt>
      <trkpt lat="44.48619" lon="5.21771">
        <ele>754</ele>
      </trkpt>
      <trkpt lat="44.48616" lon="5.21767">
        <ele>754</ele>
      </trkpt>
      <trkpt lat="44.48612" lon="5.21765">
        <ele>754</ele>
      </trkpt>
      <trkpt lat="44.48603" lon="5.21767">
        <ele>753</ele>
      </trkpt>
      <trkpt lat="44.48588" lon="5.21792">
        <ele>749</ele>
      </trkpt>
      <trkpt lat="44.4858" lon="5.21815">
        <ele>749</ele>
      </trkpt>
      <trkpt lat="44.48578" lon="5.21837">
        <ele>749</ele>
      </trkpt>
      <trkpt lat="44.48581" lon="5.21867">
        <ele>751</ele>
      </trkpt>
      <trkpt lat="44.48581" lon="5.21885">
        <ele>752</ele>
      </trkpt>
      <trkpt lat="44.48576" lon="5.21902">
        <ele>755</ele>
      </trkpt>
      <trkpt lat="44.48535" lon="5.21966">
        <ele>748</ele>
      </trkpt>
      <trkpt lat="44.48505" lon="5.22033">
        <ele>752</ele>
      </trkpt>
      <trkpt lat="44.485" lon="5.22038">
        <ele>755</ele>
      </trkpt>
      <trkpt lat="44.48493" lon="5.22036">
        <ele>754</ele>
      </trkpt>
      <trkpt lat="44.48488" lon="5.22028">
        <ele>750</ele>
      </trkpt>
      <trkpt lat="44.48487" lon="5.22015">
        <ele>749</ele>
      </trkpt>
      <trkpt lat="44.48492" lon="5.21988">
        <ele>745</ele>
      </trkpt>
      <trkpt lat="44.48492" lon="5.21972">
        <ele>742</ele>
      </trkpt>
      <trkpt lat="44.48486" lon="5.21938">
        <ele>739</ele>
      </trkpt>
      <trkpt lat="44.48485" lon="5.21917">
        <ele>734</ele>
      </trkpt>
      <trkpt lat="44.48494" lon="5.21887">
        <ele>736</ele>
      </trkpt>
      <trkpt lat="44.48495" lon="5.21869">
        <ele>736</ele>
      </trkpt>
      <trkpt lat="44.4849" lon="5.21849">
        <ele>735</ele>
      </trkpt>
      <trkpt lat="44.48481" lon="5.21839">
        <ele>732</ele>
      </trkpt>
      <trkpt lat="44.48472" lon="5.21836">
        <ele>731</ele>
      </trkpt>
      <trkpt lat="44.48461" lon="5.21839">
        <ele>731</ele>
      </trkpt>
      <trkpt lat="44.4843" lon="5.21864">
        <ele>726</ele>
      </trkpt>
      <trkpt lat="44.48379" lon="5.21883">
        <ele>720</ele>
      </trkpt>
      <trkpt lat="44.48354" lon="5.21897">
        <ele>718</ele>
      </trkpt>
      <trkpt lat="44.48281" lon="5.21953">
        <ele>715</ele>
      </trkpt>
      <trkpt lat="44.48268" lon="5.21959">
        <ele>715</ele>
      </trkpt>
      <trkpt lat="44.48236" lon="5.21962">
        <ele>712</ele>
      </trkpt>
      <trkpt lat="44.48214" lon="5.2196">
        <ele>710</ele>
      </trkpt>
      <trkpt lat="44.48201" lon="5.21952">
        <ele>709</ele>
      </trkpt>
      <trkpt lat="44.48175" lon="5.21923">
        <ele>710</ele>
      </trkpt>
      <trkpt lat="44.4816" lon="5.21912">
        <ele>712</ele>
      </trkpt>
      <trkpt lat="44.48146" lon="5.21907">
        <ele>709</ele>
      </trkpt>
      <trkpt lat="44.48102" lon="5.219">
        <ele>706</ele>
      </trkpt>
      <trkpt lat="44.48062" lon="5.21884">
        <ele>705</ele>
      </trkpt>
      <trkpt lat="44.48036" lon="5.21877">
        <ele>704</ele>
      </trkpt>
      <trkpt lat="44.47969" lon="5.21883">
        <ele>695</ele>
      </trkpt>
      <trkpt lat="44.47945" lon="5.21882">
        <ele>693</ele>
      </trkpt>
      <trkpt lat="44.47933" lon="5.21884">
        <ele>694</ele>
      </trkpt>
      <trkpt lat="44.47892" lon="5.21899">
        <ele>689</ele>
      </trkpt>
      <trkpt lat="44.47879" lon="5.21899">
        <ele>688</ele>
      </trkpt>
      <trkpt lat="44.47865" lon="5.21895">
        <ele>687</ele>
      </trkpt>
      <trkpt lat="44.47828" lon="5.2187">
        <ele>688</ele>
      </trkpt>
      <trkpt lat="44.47815" lon="5.21864">
        <ele>689</ele>
      </trkpt>
      <trkpt lat="44.47804" lon="5.21863">
        <ele>689</ele>
      </trkpt>
      <trkpt lat="44.47726" lon="5.21868">
        <ele>680</ele>
      </trkpt>
      <trkpt lat="44.4771" lon="5.21865">
        <ele>682</ele>
      </trkpt>
      <trkpt lat="44.47678" lon="5.21799">
        <ele>684</ele>
      </trkpt>
      <trkpt lat="44.47667" lon="5.21787">
        <ele>684</ele>
      </trkpt>
      <trkpt lat="44.47628" lon="5.21752">
        <ele>682</ele>
      </trkpt>
      <trkpt lat="44.47594" lon="5.21728">
        <ele>676</ele>
      </trkpt>
      <trkpt lat="44.47544" lon="5.21696">
        <ele>674</ele>
      </trkpt>
      <trkpt lat="44.47471" lon="5.21654">
        <ele>665</ele>
      </trkpt>
      <trkpt lat="44.47455" lon="5.21643">
        <ele>665</ele>
      </trkpt>
      <trkpt lat="44.47439" lon="5.21625">
        <ele>666</ele>
      </trkpt>
      <trkpt lat="44.47413" lon="5.21588">
        <ele>674</ele>
      </trkpt>
      <trkpt lat="44.47384" lon="5.21561">
        <ele>671</ele>
      </trkpt>
      <trkpt lat="44.47352" lon="5.21528">
        <ele>668</ele>
      </trkpt>
      <trkpt lat="44.47336" lon="5.21517">
        <ele>665</ele>
      </trkpt>
      <trkpt lat="44.47303" lon="5.21502">
        <ele>663</ele>
      </trkpt>
      <trkpt lat="44.47272" lon="5.21465">
        <ele>663</ele>
      </trkpt>
      <trkpt lat="44.4726" lon="5.21457">
        <ele>658</ele>
      </trkpt>
      <trkpt lat="44.47248" lon="5.21453">
        <ele>658</ele>
      </trkpt>
      <trkpt lat="44.47199" lon="5.21447">
        <ele>658</ele>
      </trkpt>
      <trkpt lat="44.47132" lon="5.21442">
        <ele>652</ele>
      </trkpt>
      <trkpt lat="44.47105" lon="5.21436">
        <ele>651</ele>
      </trkpt>
      <trkpt lat="44.47074" lon="5.21422">
        <ele>654</ele>
      </trkpt>
      <trkpt lat="44.47035" lon="5.21411">
        <ele>647</ele>
      </trkpt>
      <trkpt lat="44.46883" lon="5.21375">
        <ele>632</ele>
      </trkpt>
      <trkpt lat="44.46843" lon="5.21368">
        <ele>632</ele>
      </trkpt>
      <trkpt lat="44.46749" lon="5.2135">
        <ele>626</ele>
      </trkpt>
      <trkpt lat="44.46645" lon="5.21315">
        <ele>632</ele>
      </trkpt>
      <trkpt lat="44.46613" lon="5.21306">
        <ele>632</ele>
      </trkpt>
      <trkpt lat="44.46558" lon="5.21285">
        <ele>622</ele>
      </trkpt>
      <trkpt lat="44.46525" lon="5.21278">
        <ele>625</ele>
      </trkpt>
      <trkpt lat="44.46504" lon="5.21281">
        <ele>620</ele>
      </trkpt>
      <trkpt lat="44.46425" lon="5.21256">
        <ele>610</ele>
      </trkpt>
      <trkpt lat="44.46378" lon="5.21252">
        <ele>607</ele>
      </trkpt>
      <trkpt lat="44.46365" lon="5.21247">
        <ele>603</ele>
      </trkpt>
      <trkpt lat="44.46352" lon="5.21232">
        <ele>602</ele>
      </trkpt>
      <trkpt lat="44.46337" lon="5.21205">
        <ele>604</ele>
      </trkpt>
      <trkpt lat="44.46324" lon="5.21189">
        <ele>614</ele>
      </trkpt>
      <trkpt lat="44.46307" lon="5.2117">
        <ele>616</ele>
      </trkpt>
      <trkpt lat="44.46255" lon="5.21126">
        <ele>603</ele>
      </trkpt>
      <trkpt lat="44.46237" lon="5.21115">
        <ele>607</ele>
      </trkpt>
      <trkpt lat="44.46168" lon="5.21082">
        <ele>594</ele>
      </trkpt>
      <trkpt lat="44.46148" lon="5.21076">
        <ele>591</ele>
      </trkpt>
      <trkpt lat="44.46118" lon="5.21072">
        <ele>589</ele>
      </trkpt>
      <trkpt lat="44.46089" lon="5.21074">
        <ele>589</ele>
      </trkpt>
      <trkpt lat="44.46066" lon="5.2108">
        <ele>589</ele>
      </trkpt>
      <trkpt lat="44.46012" lon="5.21109">
        <ele>586</ele>
      </trkpt>
      <trkpt lat="44.45998" lon="5.21115">
        <ele>585</ele>
      </trkpt>
      <trkpt lat="44.45959" lon="5.21126">
        <ele>581</ele>
      </trkpt>
      <trkpt lat="44.45942" lon="5.21128">
        <ele>580</ele>
      </trkpt>
      <trkpt lat="44.459" lon="5.21128">
        <ele>580</ele>
      </trkpt>
      <trkpt lat="44.45849" lon="5.21125">
        <ele>579</ele>
      </trkpt>
      <trkpt lat="44.45801" lon="5.21137">
        <ele>578</ele>
      </trkpt>
      <trkpt lat="44.45788" lon="5.21137">
        <ele>578</ele>
      </trkpt>
      <trkpt lat="44.45732" lon="5.21113">
        <ele>581</ele>
      </trkpt>
      <trkpt lat="44.45702" lon="5.21104">
        <ele>575</ele>
      </trkpt>
      <trkpt lat="44.45568" lon="5.21086">
        <ele>564</ele>
      </trkpt>
      <trkpt lat="44.45553" lon="5.21088">
        <ele>564</ele>
      </trkpt>
      <trkpt lat="44.45528" lon="5.211">
        <ele>558</ele>
      </trkpt>
      <trkpt lat="44.45465" lon="5.21116">
        <ele>559</ele>
      </trkpt>
      <trkpt lat="44.45403" lon="5.21164">
        <ele>554</ele>
      </trkpt>
      <trkpt lat="44.45376" lon="5.21175">
        <ele>556</ele>
      </trkpt>
      <trkpt lat="44.45324" lon="5.21203">
        <ele>568</ele>
      </trkpt>
      <trkpt lat="44.45308" lon="5.21218">
        <ele>573</ele>
      </trkpt>
      <trkpt lat="44.45297" lon="5.21225">
        <ele>573</ele>
      </trkpt>
      <trkpt lat="44.45284" lon="5.21228">
        <ele>574</ele>
      </trkpt>
      <trkpt lat="44.45272" lon="5.21228">
        <ele>574</ele>
      </trkpt>
      <trkpt lat="44.45266" lon="5.21222">
        <ele>575</ele>
      </trkpt>
      <trkpt lat="44.45256" lon="5.21207">
        <ele>575</ele>
      </trkpt>
      <trkpt lat="44.45224" lon="5.21181">
        <ele>575</ele>
      </trkpt>
      <trkpt lat="44.45198" lon="5.21169">
        <ele>574</ele>
      </trkpt>
      <trkpt lat="44.45155" lon="5.2116">
        <ele>564</ele>
      </trkpt>
      <trkpt lat="44.45135" lon="5.21154">
        <ele>560</ele>
      </trkpt>
      <trkpt lat="44.45124" lon="5.21154">
        <ele>561</ele>
      </trkpt>
      <trkpt lat="44.45111" lon="5.2116">
        <ele>558</ele>
      </trkpt>
      <trkpt lat="44.45079" lon="5.21195">
        <ele>561</ele>
      </trkpt>
      <trkpt lat="44.45054" lon="5.21233">
        <ele>566</ele>
      </trkpt>
      <trkpt lat="44.45048" lon="5.21239">
        <ele>566</ele>
      </trkpt>
      <trkpt lat="44.45041" lon="5.21241">
        <ele>566</ele>
      </trkpt>
      <trkpt lat="44.45009" lon="5.21235">
        <ele>568</ele>
      </trkpt>
      <trkpt lat="44.44967" lon="5.21232">
        <ele>572</ele>
      </trkpt>
      <trkpt lat="44.44956" lon="5.21227">
        <ele>568</ele>
      </trkpt>
      <trkpt lat="44.4494" lon="5.21206">
        <ele>567</ele>
      </trkpt>
      <trkpt lat="44.44932" lon="5.21193">
        <ele>562</ele>
      </trkpt>
      <trkpt lat="44.4492" lon="5.21184">
        <ele>556</ele>
      </trkpt>
      <trkpt lat="44.44831" lon="5.21158">
        <ele>553</ele>
      </trkpt>
      <trkpt lat="44.448" lon="5.21163">
        <ele>557</ele>
      </trkpt>
      <trkpt lat="44.44759" lon="5.21185">
        <ele>538</ele>
      </trkpt>
      <trkpt lat="44.44719" lon="5.21196">
        <ele>528</ele>
      </trkpt>
      <trkpt lat="44.44701" lon="5.21213">
        <ele>530</ele>
      </trkpt>
      <trkpt lat="44.44678" lon="5.21229">
        <ele>534</ele>
      </trkpt>
      <trkpt lat="44.44663" lon="5.21229">
        <ele>532</ele>
      </trkpt>
      <trkpt lat="44.4463" lon="5.21248">
        <ele>528</ele>
      </trkpt>
      <trkpt lat="44.44609" lon="5.2125">
        <ele>529</ele>
      </trkpt>
      <trkpt lat="44.44599" lon="5.21246">
        <ele>530</ele>
      </trkpt>
      <trkpt lat="44.44589" lon="5.21237">
        <ele>528</ele>
      </trkpt>
      <trkpt lat="44.44579" lon="5.21224">
        <ele>534</ele>
      </trkpt>
      <trkpt lat="44.44562" lon="5.21196">
        <ele>521</ele>
      </trkpt>
      <trkpt lat="44.44547" lon="5.21167">
        <ele>519</ele>
      </trkpt>
      <trkpt lat="44.44524" lon="5.21106">
        <ele>521</ele>
      </trkpt>
      <trkpt lat="44.4451" lon="5.21084">
        <ele>517</ele>
      </trkpt>
      <trkpt lat="44.44466" lon="5.21027">
        <ele>531</ele>
      </trkpt>
      <trkpt lat="44.44439" lon="5.21004">
        <ele>531</ele>
      </trkpt>
      <trkpt lat="44.44391" lon="5.20981">
        <ele>491</ele>
      </trkpt>
      <trkpt lat="44.44373" lon="5.20977">
        <ele>488</ele>
      </trkpt>
      <trkpt lat="44.44355" lon="5.20974">
        <ele>486</ele>
      </trkpt>
      <trkpt lat="44.44306" lon="5.20971">
        <ele>477</ele>
      </trkpt>
      <trkpt lat="44.44293" lon="5.20968">
        <ele>477</ele>
      </trkpt>
      <trkpt lat="44.44281" lon="5.20962">
        <ele>476</ele>
      </trkpt>
      <trkpt lat="44.44201" lon="5.20912">
        <ele>478</ele>
      </trkpt>
      <trkpt lat="44.4419" lon="5.20908">
        <ele>477</ele>
      </trkpt>
      <trkpt lat="44.44176" lon="5.20907">
        <ele>474</ele>
      </trkpt>
      <trkpt lat="44.44165" lon="5.2091">
        <ele>473</ele>
      </trkpt>
      <trkpt lat="44.44131" lon="5.20938">
        <ele>469</ele>
      </trkpt>
      <trkpt lat="44.44112" lon="5.20954">
        <ele>471</ele>
      </trkpt>
      <trkpt lat="44.44104" lon="5.20956">
        <ele>472</ele>
      </trkpt>
      <trkpt lat="44.4409" lon="5.20956">
        <ele>473</ele>
      </trkpt>
      <trkpt lat="44.43981" lon="5.20947">
        <ele>469</ele>
      </trkpt>
      <trkpt lat="44.43912" lon="5.20962">
        <ele>467</ele>
      </trkpt>
      <trkpt lat="44.4386" lon="5.20954">
        <ele>464</ele>
      </trkpt>
      <trkpt lat="44.43835" lon="5.20962">
        <ele>462</ele>
      </trkpt>
      <trkpt lat="44.43809" lon="5.20979">
        <ele>463</ele>
      </trkpt>
      <trkpt lat="44.43778" lon="5.2102">
        <ele>465</ele>
      </trkpt>
      <trkpt lat="44.43736" lon="5.21069">
        <ele>465</ele>
      </trkpt>
      <trkpt lat="44.43729" lon="5.21077">
        <ele>461</ele>
      </trkpt>
      <trkpt lat="44.4372" lon="5.21088">
        <ele>461</ele>
      </trkpt>
      <trkpt lat="44.43692" lon="5.21138">
        <ele>459</ele>
      </trkpt>
      <trkpt lat="44.43673" lon="5.21161">
        <ele>458</ele>
      </trkpt>
      <trkpt lat="44.4366" lon="5.2117">
        <ele>458</ele>
      </trkpt>
      <trkpt lat="44.43639" lon="5.21179">
        <ele>461</ele>
      </trkpt>
      <trkpt lat="44.43574" lon="5.21198">
        <ele>456</ele>
      </trkpt>
      <trkpt lat="44.43544" lon="5.21211">
        <ele>452</ele>
      </trkpt>
      <trkpt lat="44.43522" lon="5.21224">
        <ele>448</ele>
      </trkpt>
      <trkpt lat="44.43513" lon="5.21229">
        <ele>449</ele>
      </trkpt>
      <trkpt lat="44.43411" lon="5.21285">
        <ele>460</ele>
      </trkpt>
      <trkpt lat="44.43394" lon="5.21288">
        <ele>457</ele>
      </trkpt>
      <trkpt lat="44.43344" lon="5.21287">
        <ele>451</ele>
      </trkpt>
      <trkpt lat="44.43319" lon="5.21291">
        <ele>452</ele>
      </trkpt>
      <trkpt lat="44.43269" lon="5.21314">
        <ele>451</ele>
      </trkpt>
      <trkpt lat="44.43243" lon="5.21329">
        <ele>444</ele>
      </trkpt>
      <trkpt lat="44.4317" lon="5.21394">
        <ele>438</ele>
      </trkpt>
      <trkpt lat="44.43104" lon="5.21457">
        <ele>433</ele>
      </trkpt>
      <trkpt lat="44.42905" lon="5.21678">
        <ele>426</ele>
      </trkpt>
      <trkpt lat="44.42873" lon="5.21706">
        <ele>426</ele>
      </trkpt>
      <trkpt lat="44.42777" lon="5.21748">
        <ele>420</ele>
      </trkpt>
      <trkpt lat="44.42753" lon="5.2174">
        <ele>416</ele>
      </trkpt>
      <trkpt lat="44.42735" lon="5.21717">
        <ele>415</ele>
      </trkpt>
      <trkpt lat="44.42724" lon="5.21702">
        <ele>415</ele>
      </trkpt>
      <trkpt lat="44.42719" lon="5.21704">
        <ele>415</ele>
      </trkpt>
      <trkpt lat="44.42624" lon="5.21757">
        <ele>412</ele>
      </trkpt>
      <trkpt lat="44.42603" lon="5.2176">
        <ele>413</ele>
      </trkpt>
      <trkpt lat="44.42458" lon="5.2173">
        <ele>410</ele>
      </trkpt>
      <trkpt lat="44.42446" lon="5.21723">
        <ele>411</ele>
      </trkpt>
      <trkpt lat="44.42435" lon="5.21716">
        <ele>411</ele>
      </trkpt>
      <trkpt lat="44.42422" lon="5.21702">
        <ele>410</ele>
      </trkpt>
      <trkpt lat="44.4241" lon="5.21677">
        <ele>412</ele>
      </trkpt>
      <trkpt lat="44.42401" lon="5.2164">
        <ele>417</ele>
      </trkpt>
      <trkpt lat="44.4236" lon="5.21434">
        <ele>407</ele>
      </trkpt>
      <trkpt lat="44.42356" lon="5.21396">
        <ele>407</ele>
      </trkpt>
      <trkpt lat="44.42354" lon="5.21358">
        <ele>409</ele>
      </trkpt>
      <trkpt lat="44.42351" lon="5.2133">
        <ele>412</ele>
      </trkpt>
      <trkpt lat="44.42339" lon="5.2129">
        <ele>407</ele>
      </trkpt>
      <trkpt lat="44.42323" lon="5.21252">
        <ele>410</ele>
      </trkpt>
      <trkpt lat="44.42309" lon="5.21227">
        <ele>405</ele>
      </trkpt>
      <trkpt lat="44.42279" lon="5.21198">
        <ele>399</ele>
      </trkpt>
      <trkpt lat="44.42257" lon="5.2117">
        <ele>397</ele>
      </trkpt>
      <trkpt lat="44.42218" lon="5.21081">
        <ele>399</ele>
      </trkpt>
      <trkpt lat="44.422" lon="5.21044">
        <ele>397</ele>
      </trkpt>
      <trkpt lat="44.42162" lon="5.20985">
        <ele>398</ele>
      </trkpt>
      <trkpt lat="44.42157" lon="5.20978">
        <ele>401</ele>
      </trkpt>
      <trkpt lat="44.42086" lon="5.20879">
        <ele>393</ele>
      </trkpt>
      <trkpt lat="44.42033" lon="5.20817">
        <ele>389</ele>
      </trkpt>
      <trkpt lat="44.4184" lon="5.20641">
        <ele>382</ele>
      </trkpt>
      <trkpt lat="44.41823" lon="5.20627">
        <ele>382</ele>
      </trkpt>
      <trkpt lat="44.41741" lon="5.20609">
        <ele>381</ele>
      </trkpt>
      <trkpt lat="44.41725" lon="5.20594">
        <ele>380</ele>
      </trkpt>
      <trkpt lat="44.41694" lon="5.20549">
        <ele>388</ele>
      </trkpt>
      <trkpt lat="44.41671" lon="5.20529">
        <ele>389</ele>
      </trkpt>
      <trkpt lat="44.41618" lon="5.205">
        <ele>387</ele>
      </trkpt>
      <trkpt lat="44.41599" lon="5.20495">
        <ele>387</ele>
      </trkpt>
      <trkpt lat="44.41563" lon="5.20497">
        <ele>385</ele>
      </trkpt>
      <trkpt lat="44.41543" lon="5.20494">
        <ele>386</ele>
      </trkpt>
      <trkpt lat="44.41514" lon="5.20481">
        <ele>386</ele>
      </trkpt>
      <trkpt lat="44.41486" lon="5.20479">
        <ele>382</ele>
      </trkpt>
      <trkpt lat="44.41442" lon="5.20482">
        <ele>375</ele>
      </trkpt>
      <trkpt lat="44.41422" lon="5.20478">
        <ele>372</ele>
      </trkpt>
      <trkpt lat="44.41363" lon="5.20456">
        <ele>372</ele>
      </trkpt>
      <trkpt lat="44.41339" lon="5.20444">
        <ele>373</ele>
      </trkpt>
      <trkpt lat="44.41175" lon="5.20315">
        <ele>364</ele>
      </trkpt>
      <trkpt lat="44.41155" lon="5.20291">
        <ele>365</ele>
      </trkpt>
      <trkpt lat="44.41119" lon="5.2024">
        <ele>364</ele>
      </trkpt>
      <trkpt lat="44.41106" lon="5.20224">
        <ele>365</ele>
      </trkpt>
      <trkpt lat="44.41086" lon="5.20209">
        <ele>363</ele>
      </trkpt>
      <trkpt lat="44.41056" lon="5.20196">
        <ele>361</ele>
      </trkpt>
      <trkpt lat="44.40923" lon="5.20147">
        <ele>355</ele>
      </trkpt>
      <trkpt lat="44.40884" lon="5.20136">
        <ele>357</ele>
      </trkpt>
      <trkpt lat="44.40812" lon="5.20102">
        <ele>357</ele>
      </trkpt>
      <trkpt lat="44.40756" lon="5.20082">
        <ele>357</ele>
      </trkpt>
      <trkpt lat="44.40731" lon="5.20067">
        <ele>357</ele>
      </trkpt>
      <trkpt lat="44.40556" lon="5.19866">
        <ele>354</ele>
      </trkpt>
      <trkpt lat="44.40539" lon="5.19854">
        <ele>354</ele>
      </trkpt>
      <trkpt lat="44.40501" lon="5.19831">
        <ele>356</ele>
      </trkpt>
      <trkpt lat="44.40237" lon="5.19705">
        <ele>341</ele>
      </trkpt>
      <trkpt lat="44.40196" lon="5.1969">
        <ele>341</ele>
      </trkpt>
      <trkpt lat="44.40139" lon="5.19676">
        <ele>340</ele>
      </trkpt>
      <trkpt lat="44.40059" lon="5.1966">
        <ele>339</ele>
      </trkpt>
      <trkpt lat="44.40037" lon="5.19651">
        <ele>338</ele>
      </trkpt>
      <trkpt lat="44.40023" lon="5.19639">
        <ele>337</ele>
      </trkpt>
      <trkpt lat="44.40001" lon="5.19614">
        <ele>336</ele>
      </trkpt>
      <trkpt lat="44.39959" lon="5.19558">
        <ele>335</ele>
      </trkpt>
      <trkpt lat="44.39944" lon="5.19546">
        <ele>335</ele>
      </trkpt>
      <trkpt lat="44.3993" lon="5.19539">
        <ele>335</ele>
      </trkpt>
      <trkpt lat="44.39908" lon="5.19536">
        <ele>334</ele>
      </trkpt>
      <trkpt lat="44.39754" lon="5.19538">
        <ele>336</ele>
      </trkpt>
      <trkpt lat="44.39551" lon="5.19535">
        <ele>333</ele>
      </trkpt>
      <trkpt lat="44.39539" lon="5.19537">
        <ele>333</ele>
      </trkpt>
      <trkpt lat="44.39501" lon="5.1955">
        <ele>330</ele>
      </trkpt>
      <trkpt lat="44.39465" lon="5.19568">
        <ele>327</ele>
      </trkpt>
      <trkpt lat="44.3943" lon="5.19595">
        <ele>326</ele>
      </trkpt>
      <trkpt lat="44.39411" lon="5.19605">
        <ele>327</ele>
      </trkpt>
      <trkpt lat="44.394" lon="5.19609">
        <ele>328</ele>
      </trkpt>
      <trkpt lat="44.39386" lon="5.1961">
        <ele>330</ele>
      </trkpt>
      <trkpt lat="44.39363" lon="5.19608">
        <ele>331</ele>
      </trkpt>
      <trkpt lat="44.39352" lon="5.19603">
        <ele>332</ele>
      </trkpt>
      <trkpt lat="44.39266" lon="5.1955">
        <ele>336</ele>
      </trkpt>
      <trkpt lat="44.39247" lon="5.19544">
        <ele>332</ele>
      </trkpt>
      <trkpt lat="44.3913" lon="5.19521">
        <ele>325</ele>
      </trkpt>
      <trkpt lat="44.39091" lon="5.19521">
        <ele>323</ele>
      </trkpt>
      <trkpt lat="44.39064" lon="5.19527">
        <ele>322</ele>
      </trkpt>
      <trkpt lat="44.39023" lon="5.1954">
        <ele>321</ele>
      </trkpt>
      <trkpt lat="44.38977" lon="5.19559">
        <ele>322</ele>
      </trkpt>
      <trkpt lat="44.38889" lon="5.19622">
        <ele>321</ele>
      </trkpt>
      <trkpt lat="44.38878" lon="5.19632">
        <ele>321</ele>
      </trkpt>
      <trkpt lat="44.38854" lon="5.1965">
        <ele>320</ele>
      </trkpt>
      <trkpt lat="44.38851" lon="5.19656">
        <ele>320</ele>
      </trkpt>
      <trkpt lat="44.38847" lon="5.19653">
        <ele>320</ele>
      </trkpt>
      <trkpt lat="44.38784" lon="5.19604">
        <ele>319</ele>
      </trkpt>
      <trkpt lat="44.38754" lon="5.19586">
        <ele>320</ele>
      </trkpt>
      <trkpt lat="44.38558" lon="5.19513">
        <ele>316</ele>
      </trkpt>
      <trkpt lat="44.38326" lon="5.19422">
        <ele>314</ele>
      </trkpt>
      <trkpt lat="44.38278" lon="5.1941">
        <ele>311</ele>
      </trkpt>
      <trkpt lat="44.38262" lon="5.19398">
        <ele>312</ele>
      </trkpt>
      <trkpt lat="44.38231" lon="5.19367">
        <ele>311</ele>
      </trkpt>
      <trkpt lat="44.38071" lon="5.1924">
        <ele>312</ele>
      </trkpt>
      <trkpt lat="44.38065" lon="5.19244">
        <ele>309</ele>
      </trkpt>
      <trkpt lat="44.38057" lon="5.19245">
        <ele>309</ele>
      </trkpt>
      <trkpt lat="44.37937" lon="5.19144">
        <ele>312</ele>
      </trkpt>
      <trkpt lat="44.37915" lon="5.19116">
        <ele>311</ele>
      </trkpt>
      <trkpt lat="44.37897" lon="5.19075">
        <ele>312</ele>
      </trkpt>
      <trkpt lat="44.37854" lon="5.1908">
        <ele>306</ele>
      </trkpt>
      <trkpt lat="44.37841" lon="5.19085">
        <ele>307</ele>
      </trkpt>
      <trkpt lat="44.37839" lon="5.19074">
        <ele>307</ele>
      </trkpt>
      <trkpt lat="44.37839" lon="5.19065">
        <ele>307</ele>
      </trkpt>
      <trkpt lat="44.37848" lon="5.1905">
        <ele>308</ele>
      </trkpt>
      <trkpt lat="44.37848" lon="5.19045">
        <ele>308</ele>
      </trkpt>
      <trkpt lat="44.37828" lon="5.1902">
        <ele>306</ele>
      </trkpt>
      <trkpt lat="44.37826" lon="5.19006">
        <ele>306</ele>
      </trkpt>
      <trkpt lat="44.3783" lon="5.18972">
        <ele>305</ele>
      </trkpt>
      <trkpt lat="44.3783" lon="5.18963">
        <ele>304</ele>
      </trkpt>
      <trkpt lat="44.37826" lon="5.18929">
        <ele>304</ele>
      </trkpt>
      <trkpt lat="44.37817" lon="5.18887">
        <ele>303</ele>
      </trkpt>
      <trkpt lat="44.37806" lon="5.18846">
        <ele>302</ele>
      </trkpt>
      <trkpt lat="44.37791" lon="5.18808">
        <ele>299</ele>
      </trkpt>
      <trkpt lat="44.3777" lon="5.18768">
        <ele>298</ele>
      </trkpt>
      <trkpt lat="44.37727" lon="5.18699">
        <ele>300</ele>
      </trkpt>
      <trkpt lat="44.37718" lon="5.18668">
        <ele>300</ele>
      </trkpt>
      <trkpt lat="44.37713" lon="5.1863">
        <ele>299</ele>
      </trkpt>
      <trkpt lat="44.37708" lon="5.18505">
        <ele>301</ele>
      </trkpt>
      <trkpt lat="44.37683" lon="5.18353">
        <ele>304</ele>
      </trkpt>
      <trkpt lat="44.37678" lon="5.18335">
        <ele>304</ele>
      </trkpt>
      <trkpt lat="44.37666" lon="5.18327">
        <ele>307</ele>
      </trkpt>
      <trkpt lat="44.37545" lon="5.18286">
        <ele>314</ele>
      </trkpt>
      <trkpt lat="44.37523" lon="5.18297">
        <ele>317</ele>
      </trkpt>
      <trkpt lat="44.37508" lon="5.183">
        <ele>318</ele>
      </trkpt>
      <trkpt lat="44.3747" lon="5.18302">
        <ele>320</ele>
      </trkpt>
      <trkpt lat="44.37451" lon="5.18298">
        <ele>323</ele>
      </trkpt>
      <trkpt lat="44.37399" lon="5.18263">
        <ele>322</ele>
      </trkpt>
      <trkpt lat="44.37386" lon="5.18249">
        <ele>317</ele>
      </trkpt>
      <trkpt lat="44.37378" lon="5.18236">
        <ele>317</ele>
      </trkpt>
      <trkpt lat="44.37373" lon="5.18221">
        <ele>314</ele>
      </trkpt>
      <trkpt lat="44.37368" lon="5.1819">
        <ele>313</ele>
      </trkpt>
      <trkpt lat="44.3736" lon="5.18173">
        <ele>313</ele>
      </trkpt>
      <trkpt lat="44.37347" lon="5.18158">
        <ele>312</ele>
      </trkpt>
      <trkpt lat="44.37307" lon="5.18133">
        <ele>315</ele>
      </trkpt>
      <trkpt lat="44.37229" lon="5.18079">
        <ele>319</ele>
      </trkpt>
      <trkpt lat="44.37195" lon="5.18045">
        <ele>321</ele>
      </trkpt>
      <trkpt lat="44.3718" lon="5.18039">
        <ele>321</ele>
      </trkpt>
      <trkpt lat="44.37165" lon="5.1804">
        <ele>325</ele>
      </trkpt>
      <trkpt lat="44.3714" lon="5.18047">
        <ele>332</ele>
      </trkpt>
      <trkpt lat="44.37123" lon="5.18042">
        <ele>331</ele>
      </trkpt>
      <trkpt lat="44.37092" lon="5.18018">
        <ele>329</ele>
      </trkpt>
      <trkpt lat="44.3707" lon="5.18009">
        <ele>330</ele>
      </trkpt>
      <trkpt lat="44.37009" lon="5.17964">
        <ele>328</ele>
      </trkpt>
      <trkpt lat="44.36992" lon="5.17948">
        <ele>325</ele>
      </trkpt>
      <trkpt lat="44.36975" lon="5.1794">
        <ele>328</ele>
      </trkpt>
      <trkpt lat="44.36917" lon="5.17931">
        <ele>337</ele>
      </trkpt>
      <trkpt lat="44.36903" lon="5.17926">
        <ele>337</ele>
      </trkpt>
      <trkpt lat="44.36851" lon="5.17879">
        <ele>333</ele>
      </trkpt>
      <trkpt lat="44.36829" lon="5.17871">
        <ele>335</ele>
      </trkpt>
      <trkpt lat="44.36814" lon="5.17876">
        <ele>337</ele>
      </trkpt>
      <trkpt lat="44.36756" lon="5.17909">
        <ele>341</ele>
      </trkpt>
      <trkpt lat="44.36737" lon="5.17929">
        <ele>344</ele>
      </trkpt>
      <trkpt lat="44.36727" lon="5.17947">
        <ele>342</ele>
      </trkpt>
      <trkpt lat="44.36722" lon="5.17965">
        <ele>347</ele>
      </trkpt>
      <trkpt lat="44.36712" lon="5.1798">
        <ele>354</ele>
      </trkpt>
      <trkpt lat="44.36697" lon="5.17989">
        <ele>352</ele>
      </trkpt>
      <trkpt lat="44.36683" lon="5.17992">
        <ele>352</ele>
      </trkpt>
      <trkpt lat="44.36668" lon="5.17992">
        <ele>351</ele>
      </trkpt>
      <trkpt lat="44.36659" lon="5.17989">
        <ele>351</ele>
      </trkpt>
      <trkpt lat="44.36633" lon="5.17963">
        <ele>344</ele>
      </trkpt>
      <trkpt lat="44.36586" lon="5.17933">
        <ele>346</ele>
      </trkpt>
      <trkpt lat="44.36569" lon="5.17926">
        <ele>346</ele>
      </trkpt>
      <trkpt lat="44.36537" lon="5.17928">
        <ele>349</ele>
      </trkpt>
      <trkpt lat="44.36521" lon="5.17932">
        <ele>349</ele>
      </trkpt>
      <trkpt lat="44.36499" lon="5.17947">
        <ele>349</ele>
      </trkpt>
      <trkpt lat="44.36473" lon="5.17953">
        <ele>351</ele>
      </trkpt>
      <trkpt lat="44.36439" lon="5.17957">
        <ele>352</ele>
      </trkpt>
      <trkpt lat="44.36365" lon="5.17953">
        <ele>357</ele>
      </trkpt>
      <trkpt lat="44.36337" lon="5.17948">
        <ele>356</ele>
      </trkpt>
      <trkpt lat="44.36301" lon="5.17929">
        <ele>355</ele>
      </trkpt>
      <trkpt lat="44.3629" lon="5.17929">
        <ele>356</ele>
      </trkpt>
      <trkpt lat="44.36273" lon="5.17934">
        <ele>358</ele>
      </trkpt>
      <trkpt lat="44.36265" lon="5.17931">
        <ele>358</ele>
      </trkpt>
      <trkpt lat="44.36255" lon="5.17923">
        <ele>359</ele>
      </trkpt>
      <trkpt lat="44.36243" lon="5.17905">
        <ele>356</ele>
      </trkpt>
      <trkpt lat="44.36228" lon="5.17891">
        <ele>356</ele>
      </trkpt>
      <trkpt lat="44.36202" lon="5.17886">
        <ele>358</ele>
      </trkpt>
      <trkpt lat="44.3618" lon="5.17873">
        <ele>359</ele>
      </trkpt>
      <trkpt lat="44.36158" lon="5.17864">
        <ele>360</ele>
      </trkpt>
      <trkpt lat="44.36103" lon="5.17847">
        <ele>365</ele>
      </trkpt>
      <trkpt lat="44.3609" lon="5.17851">
        <ele>367</ele>
      </trkpt>
      <trkpt lat="44.36079" lon="5.17859">
        <ele>367</ele>
      </trkpt>
      <trkpt lat="44.36061" lon="5.17894">
        <ele>378</ele>
      </trkpt>
      <trkpt lat="44.36053" lon="5.17902">
        <ele>379</ele>
      </trkpt>
      <trkpt lat="44.36046" lon="5.17906">
        <ele>379</ele>
      </trkpt>
      <trkpt lat="44.36037" lon="5.17906">
        <ele>377</ele>
      </trkpt>
      <trkpt lat="44.36029" lon="5.17899">
        <ele>376</ele>
      </trkpt>
      <trkpt lat="44.36024" lon="5.17889">
        <ele>373</ele>
      </trkpt>
      <trkpt lat="44.36023" lon="5.17876">
        <ele>372</ele>
      </trkpt>
      <trkpt lat="44.36028" lon="5.1785">
        <ele>369</ele>
      </trkpt>
      <trkpt lat="44.36028" lon="5.17839">
        <ele>368</ele>
      </trkpt>
      <trkpt lat="44.36022" lon="5.17827">
        <ele>366</ele>
      </trkpt>
      <trkpt lat="44.35968" lon="5.17772">
        <ele>371</ele>
      </trkpt>
      <trkpt lat="44.35928" lon="5.17735">
        <ele>375</ele>
      </trkpt>
      <trkpt lat="44.35902" lon="5.17723">
        <ele>376</ele>
      </trkpt>
      <trkpt lat="44.35865" lon="5.1772">
        <ele>377</ele>
      </trkpt>
      <trkpt lat="44.35837" lon="5.1773">
        <ele>383</ele>
      </trkpt>
      <trkpt lat="44.35823" lon="5.17743">
        <ele>384</ele>
      </trkpt>
      <trkpt lat="44.3581" lon="5.17747">
        <ele>385</ele>
      </trkpt>
      <trkpt lat="44.35777" lon="5.17743">
        <ele>385</ele>
      </trkpt>
      <trkpt lat="44.35735" lon="5.1775">
        <ele>387</ele>
      </trkpt>
      <trkpt lat="44.35721" lon="5.17748">
        <ele>388</ele>
      </trkpt>
      <trkpt lat="44.35705" lon="5.17743">
        <ele>387</ele>
      </trkpt>
      <trkpt lat="44.35677" lon="5.17718">
        <ele>384</ele>
      </trkpt>
      <trkpt lat="44.35659" lon="5.17711">
        <ele>386</ele>
      </trkpt>
      <trkpt lat="44.35644" lon="5.17712">
        <ele>389</ele>
      </trkpt>
      <trkpt lat="44.35627" lon="5.17722">
        <ele>390</ele>
      </trkpt>
      <trkpt lat="44.356" lon="5.17748">
        <ele>398</ele>
      </trkpt>
      <trkpt lat="44.35587" lon="5.17759">
        <ele>403</ele>
      </trkpt>
      <trkpt lat="44.35561" lon="5.17766">
        <ele>404</ele>
      </trkpt>
      <trkpt lat="44.35507" lon="5.17758">
        <ele>406</ele>
      </trkpt>
      <trkpt lat="44.35449" lon="5.17759">
        <ele>408</ele>
      </trkpt>
      <trkpt lat="44.35441" lon="5.17756">
        <ele>407</ele>
      </trkpt>
      <trkpt lat="44.35425" lon="5.17731">
        <ele>401</ele>
      </trkpt>
      <trkpt lat="44.35408" lon="5.17711">
        <ele>396</ele>
      </trkpt>
      <trkpt lat="44.35388" lon="5.17702">
        <ele>400</ele>
      </trkpt>
      <trkpt lat="44.35356" lon="5.17695">
        <ele>400</ele>
      </trkpt>
      <trkpt lat="44.35277" lon="5.17698">
        <ele>407</ele>
      </trkpt>
      <trkpt lat="44.35245" lon="5.17693">
        <ele>406</ele>
      </trkpt>
      <trkpt lat="44.35209" lon="5.17682">
        <ele>403</ele>
      </trkpt>
      <trkpt lat="44.35139" lon="5.17653">
        <ele>401</ele>
      </trkpt>
      <trkpt lat="44.35128" lon="5.17651">
        <ele>401</ele>
      </trkpt>
      <trkpt lat="44.35119" lon="5.17652">
        <ele>403</ele>
      </trkpt>
      <trkpt lat="44.35045" lon="5.17682">
        <ele>406</ele>
      </trkpt>
      <trkpt lat="44.3498" lon="5.17711">
        <ele>413</ele>
      </trkpt>
      <trkpt lat="44.34942" lon="5.17704">
        <ele>414</ele>
      </trkpt>
      <trkpt lat="44.34906" lon="5.17678">
        <ele>412</ele>
      </trkpt>
      <trkpt lat="44.34813" lon="5.17643">
        <ele>419</ele>
      </trkpt>
      <trkpt lat="44.34758" lon="5.17635">
        <ele>424</ele>
      </trkpt>
      <trkpt lat="44.34576" lon="5.17661">
        <ele>432</ele>
      </trkpt>
      <trkpt lat="44.34525" lon="5.17684">
        <ele>433</ele>
      </trkpt>
      <trkpt lat="44.34517" lon="5.17686">
        <ele>432</ele>
      </trkpt>
      <trkpt lat="44.34503" lon="5.17685">
        <ele>430</ele>
      </trkpt>
      <trkpt lat="44.34492" lon="5.17679">
        <ele>430</ele>
      </trkpt>
      <trkpt lat="44.3447" lon="5.17654">
        <ele>427</ele>
      </trkpt>
      <trkpt lat="44.34461" lon="5.17648">
        <ele>427</ele>
      </trkpt>
      <trkpt lat="44.34431" lon="5.17642">
        <ele>428</ele>
      </trkpt>
      <trkpt lat="44.344" lon="5.17628">
        <ele>431</ele>
      </trkpt>
      <trkpt lat="44.34389" lon="5.17627">
        <ele>434</ele>
      </trkpt>
      <trkpt lat="44.34356" lon="5.17633">
        <ele>437</ele>
      </trkpt>
      <trkpt lat="44.34332" lon="5.17643">
        <ele>437</ele>
      </trkpt>
      <trkpt lat="44.3431" lon="5.17645">
        <ele>440</ele>
      </trkpt>
      <trkpt lat="44.34299" lon="5.17651">
        <ele>441</ele>
      </trkpt>
      <trkpt lat="44.34274" lon="5.17676">
        <ele>446</ele>
      </trkpt>
      <trkpt lat="44.34254" lon="5.17692">
        <ele>447</ele>
      </trkpt>
      <trkpt lat="44.34233" lon="5.17697">
        <ele>447</ele>
      </trkpt>
      <trkpt lat="44.34205" lon="5.17696">
        <ele>446</ele>
      </trkpt>
      <trkpt lat="44.34161" lon="5.17689">
        <ele>443</ele>
      </trkpt>
      <trkpt lat="44.34129" lon="5.17691">
        <ele>445</ele>
      </trkpt>
      <trkpt lat="44.34081" lon="5.17691">
        <ele>448</ele>
      </trkpt>
      <trkpt lat="44.34071" lon="5.17697">
        <ele>449</ele>
      </trkpt>
      <trkpt lat="44.34064" lon="5.17706">
        <ele>454</ele>
      </trkpt>
      <trkpt lat="44.34054" lon="5.17713">
        <ele>454</ele>
      </trkpt>
      <trkpt lat="44.34044" lon="5.17712">
        <ele>453</ele>
      </trkpt>
      <trkpt lat="44.34024" lon="5.17705">
        <ele>450</ele>
      </trkpt>
      <trkpt lat="44.34009" lon="5.17706">
        <ele>449</ele>
      </trkpt>
      <trkpt lat="44.33995" lon="5.17713">
        <ele>449</ele>
      </trkpt>
      <trkpt lat="44.3394" lon="5.17727">
        <ele>453</ele>
      </trkpt>
      <trkpt lat="44.33929" lon="5.17729">
        <ele>458</ele>
      </trkpt>
      <trkpt lat="44.33905" lon="5.17728">
        <ele>459</ele>
      </trkpt>
      <trkpt lat="44.33885" lon="5.17713">
        <ele>455</ele>
      </trkpt>
      <trkpt lat="44.3386" lon="5.17698">
        <ele>452</ele>
      </trkpt>
      <trkpt lat="44.33803" lon="5.17678">
        <ele>457</ele>
      </trkpt>
      <trkpt lat="44.33787" lon="5.17674">
        <ele>458</ele>
      </trkpt>
      <trkpt lat="44.3376" lon="5.17673">
        <ele>458</ele>
      </trkpt>
      <trkpt lat="44.33694" lon="5.17685">
        <ele>458</ele>
      </trkpt>
      <trkpt lat="44.33553" lon="5.17745">
        <ele>469</ele>
      </trkpt>
      <trkpt lat="44.33537" lon="5.17749">
        <ele>470</ele>
      </trkpt>
      <trkpt lat="44.33527" lon="5.17744">
        <ele>470</ele>
      </trkpt>
      <trkpt lat="44.33517" lon="5.17732">
        <ele>469</ele>
      </trkpt>
      <trkpt lat="44.33503" lon="5.17714">
        <ele>467</ele>
      </trkpt>
      <trkpt lat="44.33484" lon="5.17698">
        <ele>465</ele>
      </trkpt>
      <trkpt lat="44.33464" lon="5.1769">
        <ele>467</ele>
      </trkpt>
      <trkpt lat="44.33437" lon="5.17694">
        <ele>468</ele>
      </trkpt>
      <trkpt lat="44.33389" lon="5.17706">
        <ele>473</ele>
      </trkpt>
      <trkpt lat="44.33375" lon="5.17704">
        <ele>473</ele>
      </trkpt>
      <trkpt lat="44.33344" lon="5.17687">
        <ele>473</ele>
      </trkpt>
      <trkpt lat="44.33323" lon="5.17682">
        <ele>474</ele>
      </trkpt>
      <trkpt lat="44.33297" lon="5.17683">
        <ele>476</ele>
      </trkpt>
      <trkpt lat="44.33158" lon="5.17698">
        <ele>483</ele>
      </trkpt>
      <trkpt lat="44.33141" lon="5.17693">
        <ele>486</ele>
      </trkpt>
      <trkpt lat="44.33133" lon="5.17681">
        <ele>485</ele>
      </trkpt>
      <trkpt lat="44.33135" lon="5.17667">
        <ele>483</ele>
      </trkpt>
      <trkpt lat="44.33141" lon="5.17638">
        <ele>481</ele>
      </trkpt>
      <trkpt lat="44.33148" lon="5.17625">
        <ele>481</ele>
      </trkpt>
      <trkpt lat="44.33158" lon="5.17615">
        <ele>478</ele>
      </trkpt>
      <trkpt lat="44.33162" lon="5.17602">
        <ele>478</ele>
      </trkpt>
      <trkpt lat="44.33162" lon="5.17588">
        <ele>478</ele>
      </trkpt>
      <trkpt lat="44.33159" lon="5.17576">
        <ele>479</ele>
      </trkpt>
      <trkpt lat="44.33148" lon="5.17552">
        <ele>484</ele>
      </trkpt>
      <trkpt lat="44.33147" lon="5.17514">
        <ele>483</ele>
      </trkpt>
      <trkpt lat="44.3314" lon="5.1749">
        <ele>482</ele>
      </trkpt>
      <trkpt lat="44.33136" lon="5.17462">
        <ele>482</ele>
      </trkpt>
      <trkpt lat="44.33122" lon="5.17411">
        <ele>484</ele>
      </trkpt>
      <trkpt lat="44.33108" lon="5.17369">
        <ele>486</ele>
      </trkpt>
      <trkpt lat="44.33098" lon="5.17355">
        <ele>485</ele>
      </trkpt>
      <trkpt lat="44.33078" lon="5.17341">
        <ele>490</ele>
      </trkpt>
      <trkpt lat="44.33069" lon="5.17331">
        <ele>488</ele>
      </trkpt>
      <trkpt lat="44.33045" lon="5.17257">
        <ele>488</ele>
      </trkpt>
      <trkpt lat="44.33034" lon="5.17236">
        <ele>491</ele>
      </trkpt>
      <trkpt lat="44.33008" lon="5.17214">
        <ele>494</ele>
      </trkpt>
      <trkpt lat="44.32977" lon="5.17197">
        <ele>495</ele>
      </trkpt>
      <trkpt lat="44.3295" lon="5.17186">
        <ele>498</ele>
      </trkpt>
      <trkpt lat="44.32936" lon="5.17174">
        <ele>498</ele>
      </trkpt>
      <trkpt lat="44.32932" lon="5.1716">
        <ele>497</ele>
      </trkpt>
      <trkpt lat="44.32935" lon="5.17146">
        <ele>497</ele>
      </trkpt>
      <trkpt lat="44.32949" lon="5.17123">
        <ele>497</ele>
      </trkpt>
      <trkpt lat="44.32961" lon="5.1711">
        <ele>496</ele>
      </trkpt>
      <trkpt lat="44.32983" lon="5.17059">
        <ele>498</ele>
      </trkpt>
      <trkpt lat="44.33026" lon="5.1698">
        <ele>502</ele>
      </trkpt>
      <trkpt lat="44.3303" lon="5.16968">
        <ele>505</ele>
      </trkpt>
      <trkpt lat="44.3303" lon="5.16903">
        <ele>510</ele>
      </trkpt>
      <trkpt lat="44.33034" lon="5.16838">
        <ele>516</ele>
      </trkpt>
      <trkpt lat="44.33033" lon="5.16829">
        <ele>516</ele>
      </trkpt>
      <trkpt lat="44.3303" lon="5.16821">
        <ele>515</ele>
      </trkpt>
      <trkpt lat="44.33001" lon="5.168">
        <ele>510</ele>
      </trkpt>
      <trkpt lat="44.3299" lon="5.16796">
        <ele>509</ele>
      </trkpt>
      <trkpt lat="44.32964" lon="5.16798">
        <ele>508</ele>
      </trkpt>
      <trkpt lat="44.32946" lon="5.16791">
        <ele>509</ele>
      </trkpt>
      <trkpt lat="44.32939" lon="5.16786">
        <ele>509</ele>
      </trkpt>
      <trkpt lat="44.32936" lon="5.16776">
        <ele>504</ele>
      </trkpt>
      <trkpt lat="44.32947" lon="5.16746">
        <ele>500</ele>
      </trkpt>
      <trkpt lat="44.3295" lon="5.16734">
        <ele>499</ele>
      </trkpt>
      <trkpt lat="44.32949" lon="5.16723">
        <ele>496</ele>
      </trkpt>
      <trkpt lat="44.32944" lon="5.16709">
        <ele>496</ele>
      </trkpt>
      <trkpt lat="44.32926" lon="5.16696">
        <ele>493</ele>
      </trkpt>
      <trkpt lat="44.32915" lon="5.1667">
        <ele>491</ele>
      </trkpt>
      <trkpt lat="44.32908" lon="5.16663">
        <ele>490</ele>
      </trkpt>
      <trkpt lat="44.32897" lon="5.1666">
        <ele>492</ele>
      </trkpt>
      <trkpt lat="44.3289" lon="5.16655">
        <ele>493</ele>
      </trkpt>
      <trkpt lat="44.32887" lon="5.16646">
        <ele>492</ele>
      </trkpt>
      <trkpt lat="44.32887" lon="5.16635">
        <ele>489</ele>
      </trkpt>
      <trkpt lat="44.32895" lon="5.16608">
        <ele>484</ele>
      </trkpt>
      <trkpt lat="44.32898" lon="5.16586">
        <ele>481</ele>
      </trkpt>
      <trkpt lat="44.32891" lon="5.16562">
        <ele>480</ele>
      </trkpt>
      <trkpt lat="44.32891" lon="5.16551">
        <ele>478</ele>
      </trkpt>
      <trkpt lat="44.32895" lon="5.16547">
        <ele>479</ele>
      </trkpt>
      <trkpt lat="44.32901" lon="5.16549">
        <ele>481</ele>
      </trkpt>
      <trkpt lat="44.32907" lon="5.16556">
        <ele>481</ele>
      </trkpt>
      <trkpt lat="44.32919" lon="5.16581">
        <ele>482</ele>
      </trkpt>
      <trkpt lat="44.32925" lon="5.16587">
        <ele>483</ele>
      </trkpt>
      <trkpt lat="44.32928" lon="5.16583">
        <ele>486</ele>
      </trkpt>
      <trkpt lat="44.32928" lon="5.16573">
        <ele>486</ele>
      </trkpt>
      <trkpt lat="44.32922" lon="5.16534">
        <ele>482</ele>
      </trkpt>
      <trkpt lat="44.32912" lon="5.16497">
        <ele>484</ele>
      </trkpt>
      <trkpt lat="44.32903" lon="5.16482">
        <ele>483</ele>
      </trkpt>
      <trkpt lat="44.32889" lon="5.16471">
        <ele>479</ele>
      </trkpt>
      <trkpt lat="44.3287" lon="5.16461">
        <ele>475</ele>
      </trkpt>
      <trkpt lat="44.32862" lon="5.16455">
        <ele>475</ele>
      </trkpt>
      <trkpt lat="44.32841" lon="5.16409">
        <ele>472</ele>
      </trkpt>
      <trkpt lat="44.32823" lon="5.16383">
        <ele>471</ele>
      </trkpt>
      <trkpt lat="44.32811" lon="5.16369">
        <ele>470</ele>
      </trkpt>
      <trkpt lat="44.32779" lon="5.16344">
        <ele>470</ele>
      </trkpt>
      <trkpt lat="44.32734" lon="5.16312">
        <ele>467</ele>
      </trkpt>
      <trkpt lat="44.32715" lon="5.16296">
        <ele>467</ele>
      </trkpt>
      <trkpt lat="44.32669" lon="5.16249">
        <ele>462</ele>
      </trkpt>
      <trkpt lat="44.32661" lon="5.16231">
        <ele>462</ele>
      </trkpt>
      <trkpt lat="44.32657" lon="5.16212">
        <ele>463</ele>
      </trkpt>
      <trkpt lat="44.32654" lon="5.16191">
        <ele>463</ele>
      </trkpt>
      <trkpt lat="44.32659" lon="5.16133">
        <ele>461</ele>
      </trkpt>
      <trkpt lat="44.32667" lon="5.16102">
        <ele>460</ele>
      </trkpt>
      <trkpt lat="44.32667" lon="5.16089">
        <ele>460</ele>
      </trkpt>
      <trkpt lat="44.32652" lon="5.16004">
        <ele>456</ele>
      </trkpt>
      <trkpt lat="44.32653" lon="5.15984">
        <ele>457</ele>
      </trkpt>
      <trkpt lat="44.3266" lon="5.15968">
        <ele>457</ele>
      </trkpt>
      <trkpt lat="44.3266" lon="5.15959">
        <ele>457</ele>
      </trkpt>
      <trkpt lat="44.32657" lon="5.15951">
        <ele>457</ele>
      </trkpt>
      <trkpt lat="44.32647" lon="5.15938">
        <ele>454</ele>
      </trkpt>
      <trkpt lat="44.32642" lon="5.15925">
        <ele>453</ele>
      </trkpt>
      <trkpt lat="44.32635" lon="5.15904">
        <ele>453</ele>
      </trkpt>
      <trkpt lat="44.32622" lon="5.15847">
        <ele>452</ele>
      </trkpt>
      <trkpt lat="44.32621" lon="5.15808">
        <ele>450</ele>
      </trkpt>
      <trkpt lat="44.32616" lon="5.15785">
        <ele>447</ele>
      </trkpt>
      <trkpt lat="44.32599" lon="5.15746">
        <ele>447</ele>
      </trkpt>
      <trkpt lat="44.32589" lon="5.15729">
        <ele>444</ele>
      </trkpt>
      <trkpt lat="44.32584" lon="5.15716">
        <ele>445</ele>
      </trkpt>
      <trkpt lat="44.32581" lon="5.15694">
        <ele>446</ele>
      </trkpt>
      <trkpt lat="44.32578" lon="5.15648">
        <ele>449</ele>
      </trkpt>
      <trkpt lat="44.32571" lon="5.15598">
        <ele>450</ele>
      </trkpt>
      <trkpt lat="44.32561" lon="5.15561">
        <ele>445</ele>
      </trkpt>
      <trkpt lat="44.32545" lon="5.15517">
        <ele>444</ele>
      </trkpt>
      <trkpt lat="44.32531" lon="5.15486">
        <ele>442</ele>
      </trkpt>
      <trkpt lat="44.32498" lon="5.15421">
        <ele>441</ele>
      </trkpt>
      <trkpt lat="44.32477" lon="5.15389">
        <ele>441</ele>
      </trkpt>
      <trkpt lat="44.32458" lon="5.15342">
        <ele>445</ele>
      </trkpt>
      <trkpt lat="44.32436" lon="5.15293">
        <ele>445</ele>
      </trkpt>
      <trkpt lat="44.32428" lon="5.15285">
        <ele>444</ele>
      </trkpt>
      <trkpt lat="44.32414" lon="5.15277">
        <ele>440</ele>
      </trkpt>
      <trkpt lat="44.32384" lon="5.15267">
        <ele>435</ele>
      </trkpt>
      <trkpt lat="44.32376" lon="5.15259">
        <ele>436</ele>
      </trkpt>
      <trkpt lat="44.32373" lon="5.15244">
        <ele>438</ele>
      </trkpt>
      <trkpt lat="44.32372" lon="5.15227">
        <ele>438</ele>
      </trkpt>
      <trkpt lat="44.32377" lon="5.1521">
        <ele>441</ele>
      </trkpt>
      <trkpt lat="44.32383" lon="5.15177">
        <ele>445</ele>
      </trkpt>
      <trkpt lat="44.32383" lon="5.15162">
        <ele>447</ele>
      </trkpt>
      <trkpt lat="44.32368" lon="5.151">
        <ele>437</ele>
      </trkpt>
      <trkpt lat="44.32365" lon="5.15081">
        <ele>436</ele>
      </trkpt>
      <trkpt lat="44.32363" lon="5.15069">
        <ele>436</ele>
      </trkpt>
      <trkpt lat="44.32362" lon="5.1503">
        <ele>435</ele>
      </trkpt>
      <trkpt lat="44.32382" lon="5.14937">
        <ele>444</ele>
      </trkpt>
      <trkpt lat="44.32386" lon="5.14917">
        <ele>445</ele>
      </trkpt>
      <trkpt lat="44.32386" lon="5.14908">
        <ele>445</ele>
      </trkpt>
      <trkpt lat="44.32378" lon="5.14893">
        <ele>444</ele>
      </trkpt>
      <trkpt lat="44.3237" lon="5.14873">
        <ele>437</ele>
      </trkpt>
      <trkpt lat="44.32362" lon="5.1484">
        <ele>434</ele>
      </trkpt>
      <trkpt lat="44.32363" lon="5.1483">
        <ele>432</ele>
      </trkpt>
      <trkpt lat="44.32373" lon="5.14809">
        <ele>433</ele>
      </trkpt>
      <trkpt lat="44.32392" lon="5.14795">
        <ele>433</ele>
      </trkpt>
      <trkpt lat="44.32395" lon="5.14781">
        <ele>430</ele>
      </trkpt>
      <trkpt lat="44.32392" lon="5.14773">
        <ele>429</ele>
      </trkpt>
      <trkpt lat="44.32387" lon="5.14771">
        <ele>428</ele>
      </trkpt>
      <trkpt lat="44.32345" lon="5.14773">
        <ele>425</ele>
      </trkpt>
      <trkpt lat="44.32319" lon="5.14779">
        <ele>422</ele>
      </trkpt>
      <trkpt lat="44.32305" lon="5.14776">
        <ele>418</ele>
      </trkpt>
      <trkpt lat="44.32297" lon="5.14765">
        <ele>417</ele>
      </trkpt>
      <trkpt lat="44.3229" lon="5.14746">
        <ele>417</ele>
      </trkpt>
      <trkpt lat="44.32284" lon="5.14723">
        <ele>415</ele>
      </trkpt>
      <trkpt lat="44.32278" lon="5.14685">
        <ele>415</ele>
      </trkpt>
      <trkpt lat="44.32279" lon="5.14609">
        <ele>417</ele>
      </trkpt>
      <trkpt lat="44.32284" lon="5.14568">
        <ele>417</ele>
      </trkpt>
      <trkpt lat="44.32283" lon="5.14496">
        <ele>411</ele>
      </trkpt>
      <trkpt lat="44.32279" lon="5.14478">
        <ele>410</ele>
      </trkpt>
      <trkpt lat="44.32278" lon="5.14463">
        <ele>409</ele>
      </trkpt>
      <trkpt lat="44.32281" lon="5.14449">
        <ele>409</ele>
      </trkpt>
      <trkpt lat="44.3229" lon="5.14433">
        <ele>409</ele>
      </trkpt>
      <trkpt lat="44.32294" lon="5.14412">
        <ele>406</ele>
      </trkpt>
      <trkpt lat="44.32295" lon="5.14364">
        <ele>399</ele>
      </trkpt>
      <trkpt lat="44.32289" lon="5.14331">
        <ele>396</ele>
      </trkpt>
      <trkpt lat="44.32282" lon="5.14308">
        <ele>391</ele>
      </trkpt>
      <trkpt lat="44.32251" lon="5.14242">
        <ele>385</ele>
      </trkpt>
      <trkpt lat="44.32235" lon="5.14221">
        <ele>385</ele>
      </trkpt>
      <trkpt lat="44.32225" lon="5.1421">
        <ele>383</ele>
      </trkpt>
      <trkpt lat="44.32188" lon="5.14181">
        <ele>381</ele>
      </trkpt>
      <trkpt lat="44.3217" lon="5.14161">
        <ele>381</ele>
      </trkpt>
      <trkpt lat="44.32147" lon="5.14127">
        <ele>379</ele>
      </trkpt>
      <trkpt lat="44.3213" lon="5.14094">
        <ele>379</ele>
      </trkpt>
      <trkpt lat="44.32111" lon="5.14023">
        <ele>379</ele>
      </trkpt>
      <trkpt lat="44.32112" lon="5.14015">
        <ele>379</ele>
      </trkpt>
      <trkpt lat="44.32117" lon="5.14004">
        <ele>380</ele>
      </trkpt>
      <trkpt lat="44.32123" lon="5.13984">
        <ele>384</ele>
      </trkpt>
      <trkpt lat="44.32122" lon="5.13971">
        <ele>384</ele>
      </trkpt>
      <trkpt lat="44.32118" lon="5.13961">
        <ele>382</ele>
      </trkpt>
      <trkpt lat="44.32111" lon="5.13954">
        <ele>382</ele>
      </trkpt>
      <trkpt lat="44.32052" lon="5.13917">
        <ele>381</ele>
      </trkpt>
      <trkpt lat="44.32041" lon="5.13904">
        <ele>381</ele>
      </trkpt>
      <trkpt lat="44.32035" lon="5.13892">
        <ele>381</ele>
      </trkpt>
      <trkpt lat="44.32035" lon="5.13868">
        <ele>382</ele>
      </trkpt>
      <trkpt lat="44.32055" lon="5.13788">
        <ele>392</ele>
      </trkpt>
      <trkpt lat="44.32057" lon="5.13767">
        <ele>392</ele>
      </trkpt>
      <trkpt lat="44.32056" lon="5.13753">
        <ele>391</ele>
      </trkpt>
      <trkpt lat="44.32051" lon="5.13738">
        <ele>389</ele>
      </trkpt>
      <trkpt lat="44.32035" lon="5.13712">
        <ele>379</ele>
      </trkpt>
      <trkpt lat="44.32031" lon="5.1369">
        <ele>377</ele>
      </trkpt>
      <trkpt lat="44.32031" lon="5.13663">
        <ele>375</ele>
      </trkpt>
      <trkpt lat="44.32033" lon="5.13647">
        <ele>374</ele>
      </trkpt>
      <trkpt lat="44.32027" lon="5.13616">
        <ele>370</ele>
      </trkpt>
      <trkpt lat="44.32026" lon="5.13591">
        <ele>368</ele>
      </trkpt>
      <trkpt lat="44.32036" lon="5.13567">
        <ele>368</ele>
      </trkpt>
      <trkpt lat="44.32046" lon="5.13555">
        <ele>373</ele>
      </trkpt>
      <trkpt lat="44.32047" lon="5.13545">
        <ele>373</ele>
      </trkpt>
      <trkpt lat="44.32043" lon="5.13535">
        <ele>372</ele>
      </trkpt>
      <trkpt lat="44.32017" lon="5.13518">
        <ele>367</ele>
      </trkpt>
      <trkpt lat="44.31989" lon="5.13476">
        <ele>369</ele>
      </trkpt>
      <trkpt lat="44.31977" lon="5.13435">
        <ele>370</ele>
      </trkpt>
      <trkpt lat="44.31973" lon="5.13391">
        <ele>373</ele>
      </trkpt>
      <trkpt lat="44.31969" lon="5.13379">
        <ele>373</ele>
      </trkpt>
      <trkpt lat="44.3196" lon="5.13364">
        <ele>372</ele>
      </trkpt>
      <trkpt lat="44.31955" lon="5.13345">
        <ele>371</ele>
      </trkpt>
      <trkpt lat="44.31963" lon="5.13307">
        <ele>371</ele>
      </trkpt>
      <trkpt lat="44.3197" lon="5.13296">
        <ele>372</ele>
      </trkpt>
      <trkpt lat="44.3198" lon="5.13289">
        <ele>373</ele>
      </trkpt>
      <trkpt lat="44.31983" lon="5.13279">
        <ele>379</ele>
      </trkpt>
      <trkpt lat="44.31981" lon="5.13269">
        <ele>374</ele>
      </trkpt>
      <trkpt lat="44.31952" lon="5.1325">
        <ele>368</ele>
      </trkpt>
      <trkpt lat="44.31938" lon="5.13228">
        <ele>368</ele>
      </trkpt>
      <trkpt lat="44.31927" lon="5.13197">
        <ele>376</ele>
      </trkpt>
      <trkpt lat="44.31923" lon="5.13166">
        <ele>374</ele>
      </trkpt>
      <trkpt lat="44.31929" lon="5.13141">
        <ele>386</ele>
      </trkpt>
      <trkpt lat="44.31942" lon="5.13016">
        <ele>380</ele>
      </trkpt>
      <trkpt lat="44.31952" lon="5.12882">
        <ele>370</ele>
      </trkpt>
      <trkpt lat="44.31956" lon="5.1271">
        <ele>360</ele>
      </trkpt>
      <trkpt lat="44.31973" lon="5.12664">
        <ele>358</ele>
      </trkpt>
      <trkpt lat="44.31973" lon="5.12649">
        <ele>358</ele>
      </trkpt>
      <trkpt lat="44.31968" lon="5.12636">
        <ele>357</ele>
      </trkpt>
      <trkpt lat="44.31929" lon="5.12578">
        <ele>352</ele>
      </trkpt>
      <trkpt lat="44.31909" lon="5.12436">
        <ele>346</ele>
      </trkpt>
      <trkpt lat="44.31874" lon="5.12355">
        <ele>341</ele>
      </trkpt>
      <trkpt lat="44.31861" lon="5.12314">
        <ele>337</ele>
      </trkpt>
      <trkpt lat="44.31855" lon="5.12288">
        <ele>336</ele>
      </trkpt>
      <trkpt lat="44.31852" lon="5.12241">
        <ele>334</ele>
      </trkpt>
      <trkpt lat="44.31849" lon="5.12146">
        <ele>330</ele>
      </trkpt>
      <trkpt lat="44.31831" lon="5.12025">
        <ele>321</ele>
      </trkpt>
      <trkpt lat="44.31801" lon="5.11914">
        <ele>316</ele>
      </trkpt>
      <trkpt lat="44.31787" lon="5.11857">
        <ele>314</ele>
      </trkpt>
      <trkpt lat="44.31729" lon="5.11736">
        <ele>314</ele>
      </trkpt>
      <trkpt lat="44.31708" lon="5.1171">
        <ele>314</ele>
      </trkpt>
      <trkpt lat="44.31701" lon="5.11689">
        <ele>311</ele>
      </trkpt>
      <trkpt lat="44.31698" lon="5.11663">
        <ele>311</ele>
      </trkpt>
      <trkpt lat="44.317" lon="5.11615">
        <ele>310</ele>
      </trkpt>
      <trkpt lat="44.31722" lon="5.1152">
        <ele>308</ele>
      </trkpt>
      <trkpt lat="44.31718" lon="5.1133">
        <ele>302</ele>
      </trkpt>
      <trkpt lat="44.31721" lon="5.1127">
        <ele>299</ele>
      </trkpt>
      <trkpt lat="44.3173" lon="5.1123">
        <ele>295</ele>
      </trkpt>
      <trkpt lat="44.31737" lon="5.11214">
        <ele>293</ele>
      </trkpt>
      <trkpt lat="44.31753" lon="5.1119">
        <ele>290</ele>
      </trkpt>
      <trkpt lat="44.31757" lon="5.1118">
        <ele>290</ele>
      </trkpt>
      <trkpt lat="44.31755" lon="5.1116">
        <ele>286</ele>
      </trkpt>
      <trkpt lat="44.31745" lon="5.11127">
        <ele>282</ele>
      </trkpt>
      <trkpt lat="44.31708" lon="5.10987">
        <ele>284</ele>
      </trkpt>
      <trkpt lat="44.31704" lon="5.10966">
        <ele>285</ele>
      </trkpt>
      <trkpt lat="44.31702" lon="5.10935">
        <ele>286</ele>
      </trkpt>
      <trkpt lat="44.31705" lon="5.10898">
        <ele>284</ele>
      </trkpt>
      <trkpt lat="44.31714" lon="5.10828">
        <ele>283</ele>
      </trkpt>
      <trkpt lat="44.31733" lon="5.10654">
        <ele>285</ele>
      </trkpt>
      <trkpt lat="44.31735" lon="5.10624">
        <ele>285</ele>
      </trkpt>
      <trkpt lat="44.31733" lon="5.10592">
        <ele>284</ele>
      </trkpt>
      <trkpt lat="44.31709" lon="5.10477">
        <ele>279</ele>
      </trkpt>
      <trkpt lat="44.31687" lon="5.10424">
        <ele>277</ele>
      </trkpt>
      <trkpt lat="44.31664" lon="5.10379">
        <ele>273</ele>
      </trkpt>
      <trkpt lat="44.31653" lon="5.1035">
        <ele>273</ele>
      </trkpt>
      <trkpt lat="44.31645" lon="5.10315">
        <ele>270</ele>
      </trkpt>
      <trkpt lat="44.31637" lon="5.10239">
        <ele>271</ele>
      </trkpt>
      <trkpt lat="44.31637" lon="5.10219">
        <ele>269</ele>
      </trkpt>
      <trkpt lat="44.31643" lon="5.10181">
        <ele>266</ele>
      </trkpt>
      <trkpt lat="44.31652" lon="5.10144">
        <ele>263</ele>
      </trkpt>
      <trkpt lat="44.31661" lon="5.10129">
        <ele>261</ele>
      </trkpt>
      <trkpt lat="44.31686" lon="5.101">
        <ele>260</ele>
      </trkpt>
      <trkpt lat="44.31691" lon="5.1009">
        <ele>259</ele>
      </trkpt>
      <trkpt lat="44.31693" lon="5.10077">
        <ele>258</ele>
      </trkpt>
      <trkpt lat="44.31688" lon="5.10058">
        <ele>257</ele>
      </trkpt>
      <trkpt lat="44.31675" lon="5.10023">
        <ele>255</ele>
      </trkpt>
      <trkpt lat="44.3164" lon="5.09946">
        <ele>251</ele>
      </trkpt>
      <trkpt lat="44.31648" lon="5.09936">
        <ele>252</ele>
      </trkpt>
      <trkpt lat="44.31656" lon="5.09934">
        <ele>252</ele>
      </trkpt>
      <trkpt lat="44.31665" lon="5.09924">
        <ele>252</ele>
      </trkpt>
      <trkpt lat="44.31646" lon="5.09914">
        <ele>251</ele>
      </trkpt>
      <trkpt lat="44.31599" lon="5.09875">
        <ele>250</ele>
      </trkpt>
      <trkpt lat="44.31569" lon="5.09836">
        <ele>248</ele>
      </trkpt>
      <trkpt lat="44.31563" lon="5.09828">
        <ele>248</ele>
      </trkpt>
      <trkpt lat="44.31561" lon="5.09822">
        <ele>248</ele>
      </trkpt>
      <trkpt lat="44.31561" lon="5.09818">
        <ele>248</ele>
      </trkpt>
      <trkpt lat="44.31563" lon="5.09806">
        <ele>248</ele>
      </trkpt>
      <trkpt lat="44.31576" lon="5.09777">
        <ele>248</ele>
      </trkpt>
      <trkpt lat="44.31595" lon="5.0975">
        <ele>248</ele>
      </trkpt>
      <trkpt lat="44.31743" lon="5.09562">
        <ele>243</ele>
      </trkpt>
      <trkpt lat="44.31899" lon="5.09368">
        <ele>238</ele>
      </trkpt>
      <trkpt lat="44.32113" lon="5.09093">
        <ele>228</ele>
      </trkpt>
      <trkpt lat="44.32433" lon="5.08687">
        <ele>224</ele>
      </trkpt>
      <trkpt lat="44.32459" lon="5.0866">
        <ele>223</ele>
      </trkpt>
      <trkpt lat="44.32477" lon="5.08645">
        <ele>223</ele>
      </trkpt>
      <trkpt lat="44.32678" lon="5.08502">
        <ele>224</ele>
      </trkpt>
      <trkpt lat="44.32963" lon="5.08301">
        <ele>230</ele>
      </trkpt>
      <trkpt lat="44.33002" lon="5.08275">
        <ele>230</ele>
      </trkpt>
      <trkpt lat="44.33007" lon="5.08276">
        <ele>230</ele>
      </trkpt>
      <trkpt lat="44.3302" lon="5.08296">
        <ele>230</ele>
      </trkpt>
      <trkpt lat="44.33037" lon="5.0834">
        <ele>233</ele>
      </trkpt>
      <trkpt lat="44.33035" lon="5.08334">
        <ele>232</ele>
      </trkpt>
      <trkpt lat="44.33019" lon="5.08268">
        <ele>230</ele>
      </trkpt>
      <trkpt lat="44.33023" lon="5.08256">
        <ele>231</ele>
      </trkpt>
      <trkpt lat="44.33022" lon="5.08243">
        <ele>231</ele>
      </trkpt>
      <trkpt lat="44.33038" lon="5.08212">
        <ele>233</ele>
      </trkpt>
      <trkpt lat="44.33105" lon="5.08146">
        <ele>234</ele>
      </trkpt>
      <trkpt lat="44.33109" lon="5.08139">
        <ele>235</ele>
      </trkpt>
      <trkpt lat="44.3311" lon="5.08131">
        <ele>235</ele>
      </trkpt>
      <trkpt lat="44.3311" lon="5.08122">
        <ele>235</ele>
      </trkpt>
      <trkpt lat="44.33105" lon="5.08106">
        <ele>235</ele>
      </trkpt>
      <trkpt lat="44.33106" lon="5.08088">
        <ele>235</ele>
      </trkpt>
      <trkpt lat="44.3312" lon="5.08066">
        <ele>236</ele>
      </trkpt>
      <trkpt lat="44.3307" lon="5.07983">
        <ele>237</ele>
      </trkpt>
      <trkpt lat="44.33049" lon="5.0793">
        <ele>237</ele>
      </trkpt>
      <trkpt lat="44.3303" lon="5.07894">
        <ele>235</ele>
      </trkpt>
      <trkpt lat="44.32994" lon="5.07794">
        <ele>238</ele>
      </trkpt>
      <trkpt lat="44.3296" lon="5.07706">
        <ele>240</ele>
      </trkpt>
      <trkpt lat="44.32953" lon="5.07679">
        <ele>239</ele>
      </trkpt>
      <trkpt lat="44.3295" lon="5.07658">
        <ele>240</ele>
      </trkpt>
      <trkpt lat="44.32955" lon="5.076">
        <ele>241</ele>
      </trkpt>
      <trkpt lat="44.32961" lon="5.0757">
        <ele>241</ele>
      </trkpt>
      <trkpt lat="44.32968" lon="5.07545">
        <ele>242</ele>
      </trkpt>
      <trkpt lat="44.32983" lon="5.07519">
        <ele>245</ele>
      </trkpt>
      <trkpt lat="44.33019" lon="5.07497">
        <ele>250</ele>
      </trkpt>
      <trkpt lat="44.33043" lon="5.07467">
        <ele>256</ele>
      </trkpt>
      <trkpt lat="44.33102" lon="5.07336">
        <ele>272</ele>
      </trkpt>
      <trkpt lat="44.33175" lon="5.07224">
        <ele>273</ele>
      </trkpt>
      <trkpt lat="44.33188" lon="5.07109">
        <ele>277</ele>
      </trkpt>
      <trkpt lat="44.33204" lon="5.06989">
        <ele>278</ele>
      </trkpt>
      <trkpt lat="44.33213" lon="5.06909">
        <ele>278</ele>
      </trkpt>
      <trkpt lat="44.33219" lon="5.06803">
        <ele>280</ele>
      </trkpt>
      <trkpt lat="44.33225" lon="5.06749">
        <ele>277</ele>
      </trkpt>
      <trkpt lat="44.33238" lon="5.067">
        <ele>276</ele>
      </trkpt>
      <trkpt lat="44.33255" lon="5.0666">
        <ele>275</ele>
      </trkpt>
      <trkpt lat="44.33262" lon="5.06625">
        <ele>277</ele>
      </trkpt>
      <trkpt lat="44.33264" lon="5.06571">
        <ele>276</ele>
      </trkpt>
      <trkpt lat="44.33262" lon="5.06557">
        <ele>276</ele>
      </trkpt>
      <trkpt lat="44.3325" lon="5.06506">
        <ele>276</ele>
      </trkpt>
      <trkpt lat="44.33247" lon="5.06482">
        <ele>277</ele>
      </trkpt>
      <trkpt lat="44.33249" lon="5.06448">
        <ele>279</ele>
      </trkpt>
      <trkpt lat="44.33249" lon="5.06432">
        <ele>280</ele>
      </trkpt>
      <trkpt lat="44.33247" lon="5.06423">
        <ele>280</ele>
      </trkpt>
      <trkpt lat="44.33261" lon="5.06399">
        <ele>284</ele>
      </trkpt>
      <trkpt lat="44.33284" lon="5.06351">
        <ele>287</ele>
      </trkpt>
      <trkpt lat="44.33315" lon="5.06296">
        <ele>291</ele>
      </trkpt>
      <trkpt lat="44.33317" lon="5.0629">
        <ele>291</ele>
      </trkpt>
      <trkpt lat="44.33323" lon="5.06274">
        <ele>292</ele>
      </trkpt>
      <trkpt lat="44.33329" lon="5.0625">
        <ele>293</ele>
      </trkpt>
      <trkpt lat="44.33334" lon="5.06209">
        <ele>294</ele>
      </trkpt>
      <trkpt lat="44.33335" lon="5.06184">
        <ele>296</ele>
      </trkpt>
      <trkpt lat="44.33335" lon="5.06149">
        <ele>298</ele>
      </trkpt>
      <trkpt lat="44.33331" lon="5.06123">
        <ele>300</ele>
      </trkpt>
      <trkpt lat="44.33321" lon="5.06089">
        <ele>303</ele>
      </trkpt>
      <trkpt lat="44.3332" lon="5.06071">
        <ele>305</ele>
      </trkpt>
      <trkpt lat="44.33325" lon="5.06049">
        <ele>307</ele>
      </trkpt>
      <trkpt lat="44.33327" lon="5.06014">
        <ele>308</ele>
      </trkpt>
      <trkpt lat="44.33331" lon="5.05973">
        <ele>304</ele>
      </trkpt>
      <trkpt lat="44.3337" lon="5.05937">
        <ele>303</ele>
      </trkpt>
      <trkpt lat="44.33406" lon="5.05908">
        <ele>301</ele>
      </trkpt>
      <trkpt lat="44.33418" lon="5.05904">
        <ele>301</ele>
      </trkpt>
      <trkpt lat="44.33455" lon="5.05896">
        <ele>303</ele>
      </trkpt>
      <trkpt lat="44.33473" lon="5.05895">
        <ele>303</ele>
      </trkpt>
      <trkpt lat="44.33523" lon="5.05899">
        <ele>306</ele>
      </trkpt>
      <trkpt lat="44.33556" lon="5.05897">
        <ele>308</ele>
      </trkpt>
      <trkpt lat="44.33725" lon="5.05834">
        <ele>306</ele>
      </trkpt>
      <trkpt lat="44.33738" lon="5.05828">
        <ele>311</ele>
      </trkpt>
      <trkpt lat="44.33749" lon="5.05819">
        <ele>310</ele>
      </trkpt>
      <trkpt lat="44.338" lon="5.05765">
        <ele>301</ele>
      </trkpt>
      <trkpt lat="44.33818" lon="5.0575">
        <ele>299</ele>
      </trkpt>
      <trkpt lat="44.33832" lon="5.05741">
        <ele>298</ele>
      </trkpt>
      <trkpt lat="44.33847" lon="5.05737">
        <ele>299</ele>
      </trkpt>
      <trkpt lat="44.33896" lon="5.05736">
        <ele>298</ele>
      </trkpt>
      <trkpt lat="44.33942" lon="5.05741">
        <ele>300</ele>
      </trkpt>
      <trkpt lat="44.33967" lon="5.05741">
        <ele>302</ele>
      </trkpt>
      <trkpt lat="44.34005" lon="5.0574">
        <ele>301</ele>
      </trkpt>
      <trkpt lat="44.34017" lon="5.05734">
        <ele>298</ele>
      </trkpt>
      <trkpt lat="44.34022" lon="5.05727">
        <ele>298</ele>
      </trkpt>
      <trkpt lat="44.34059" lon="5.05636">
        <ele>296</ele>
      </trkpt>
      <trkpt lat="44.3407" lon="5.05625">
        <ele>298</ele>
      </trkpt>
      <trkpt lat="44.3409" lon="5.05622">
        <ele>299</ele>
      </trkpt>
      <trkpt lat="44.34114" lon="5.05627">
        <ele>301</ele>
      </trkpt>
      <trkpt lat="44.34127" lon="5.05631">
        <ele>303</ele>
      </trkpt>
      <trkpt lat="44.34172" lon="5.05656">
        <ele>301</ele>
      </trkpt>
      <trkpt lat="44.34177" lon="5.05656">
        <ele>303</ele>
      </trkpt>
      <trkpt lat="44.34179" lon="5.05654">
        <ele>303</ele>
      </trkpt>
      <trkpt lat="44.34182" lon="5.05649">
        <ele>303</ele>
      </trkpt>
      <trkpt lat="44.34181" lon="5.05643">
        <ele>304</ele>
      </trkpt>
      <trkpt lat="44.34179" lon="5.0564">
        <ele>306</ele>
      </trkpt>
      <trkpt lat="44.34149" lon="5.05628">
        <ele>305</ele>
      </trkpt>
      <trkpt lat="44.34121" lon="5.05605">
        <ele>307</ele>
      </trkpt>
      <trkpt lat="44.34118" lon="5.05598">
        <ele>306</ele>
      </trkpt>
      <trkpt lat="44.3412" lon="5.05593">
        <ele>306</ele>
      </trkpt>
      <trkpt lat="44.34123" lon="5.0559">
        <ele>309</ele>
      </trkpt>
      <trkpt lat="44.34128" lon="5.05591">
        <ele>309</ele>
      </trkpt>
      <trkpt lat="44.34158" lon="5.05606">
        <ele>310</ele>
      </trkpt>
      <trkpt lat="44.34177" lon="5.0561">
        <ele>311</ele>
      </trkpt>
      <trkpt lat="44.34202" lon="5.05603">
        <ele>312</ele>
      </trkpt>
      <trkpt lat="44.34211" lon="5.05592">
        <ele>313</ele>
      </trkpt>
      <trkpt lat="44.34211" lon="5.05587">
        <ele>313</ele>
      </trkpt>
      <trkpt lat="44.3421" lon="5.05582">
        <ele>315</ele>
      </trkpt>
      <trkpt lat="44.34204" lon="5.05578">
        <ele>315</ele>
      </trkpt>
      <trkpt lat="44.34185" lon="5.05589">
        <ele>312</ele>
      </trkpt>
      <trkpt lat="44.34176" lon="5.05587">
        <ele>312</ele>
      </trkpt>
      <trkpt lat="44.34167" lon="5.05581">
        <ele>316</ele>
      </trkpt>
      <trkpt lat="44.3411" lon="5.05517">
        <ele>325</ele>
      </trkpt>
      <trkpt lat="44.34052" lon="5.05474">
        <ele>325</ele>
      </trkpt>
      <trkpt lat="44.34038" lon="5.05458">
        <ele>329</ele>
      </trkpt>
      <trkpt lat="44.34027" lon="5.0544">
        <ele>330</ele>
      </trkpt>
      <trkpt lat="44.34017" lon="5.05407">
        <ele>333</ele>
      </trkpt>
      <trkpt lat="44.34015" lon="5.05385">
        <ele>335</ele>
      </trkpt>
      <trkpt lat="44.3402" lon="5.05377">
        <ele>336</ele>
      </trkpt>
      <trkpt lat="44.34024" lon="5.05378">
        <ele>336</ele>
      </trkpt>
      <trkpt lat="44.34027" lon="5.0538">
        <ele>336</ele>
      </trkpt>
      <trkpt lat="44.34033" lon="5.05408">
        <ele>335</ele>
      </trkpt>
      <trkpt lat="44.34042" lon="5.05422">
        <ele>335</ele>
      </trkpt>
      <trkpt lat="44.34049" lon="5.05428">
        <ele>336</ele>
      </trkpt>
      <trkpt lat="44.34062" lon="5.05433">
        <ele>336</ele>
      </trkpt>
      <trkpt lat="44.34117" lon="5.05439">
        <ele>342</ele>
      </trkpt>
      <trkpt lat="44.3417" lon="5.0547">
        <ele>339</ele>
      </trkpt>
      <trkpt lat="44.34175" lon="5.05468">
        <ele>339</ele>
      </trkpt>
      <trkpt lat="44.34177" lon="5.05465">
        <ele>337</ele>
      </trkpt>
      <trkpt lat="44.34177" lon="5.05461">
        <ele>338</ele>
      </trkpt>
      <trkpt lat="44.34175" lon="5.05455">
        <ele>340</ele>
      </trkpt>
      <trkpt lat="44.34152" lon="5.05444">
        <ele>346</ele>
      </trkpt>
      <trkpt lat="44.34131" lon="5.05414">
        <ele>351</ele>
      </trkpt>
      <trkpt lat="44.34098" lon="5.05382">
        <ele>352</ele>
      </trkpt>
      <trkpt lat="44.34085" lon="5.05366">
        <ele>350</ele>
      </trkpt>
      <trkpt lat="44.3408" lon="5.05342">
        <ele>354</ele>
      </trkpt>
      <trkpt lat="44.34085" lon="5.05219">
        <ele>364</ele>
      </trkpt>
      <trkpt lat="44.34083" lon="5.05197">
        <ele>365</ele>
      </trkpt>
      <trkpt lat="44.34081" lon="5.05188">
        <ele>366</ele>
      </trkpt>
      <trkpt lat="44.34076" lon="5.05182">
        <ele>366</ele>
      </trkpt>
      <trkpt lat="44.34055" lon="5.05167">
        <ele>364</ele>
      </trkpt>
      <trkpt lat="44.33995" lon="5.05119">
        <ele>364</ele>
      </trkpt>
      <trkpt lat="44.33978" lon="5.05096">
        <ele>365</ele>
      </trkpt>
      <trkpt lat="44.33966" lon="5.05072">
        <ele>369</ele>
      </trkpt>
      <trkpt lat="44.33965" lon="5.05066">
        <ele>368</ele>
      </trkpt>
      <trkpt lat="44.33967" lon="5.05057">
        <ele>369</ele>
      </trkpt>
      <trkpt lat="44.33967" lon="5.05043">
        <ele>372</ele>
      </trkpt>
      <trkpt lat="44.33977" lon="5.05021">
        <ele>373</ele>
      </trkpt>
      <trkpt lat="44.33998" lon="5.04996">
        <ele>381</ele>
      </trkpt>
      <trkpt lat="44.34029" lon="5.04963">
        <ele>387</ele>
      </trkpt>
      <trkpt lat="44.34059" lon="5.04938">
        <ele>390</ele>
      </trkpt>
      <trkpt lat="44.34087" lon="5.04921">
        <ele>394</ele>
      </trkpt>
      <trkpt lat="44.34125" lon="5.04907">
        <ele>401</ele>
      </trkpt>
      <trkpt lat="44.34155" lon="5.04884">
        <ele>405</ele>
      </trkpt>
      <trkpt lat="44.34174" lon="5.0486">
        <ele>405</ele>
      </trkpt>
      <trkpt lat="44.3419" lon="5.04823">
        <ele>407</ele>
      </trkpt>
      <trkpt lat="44.34201" lon="5.04791">
        <ele>407</ele>
      </trkpt>
      <trkpt lat="44.34203" lon="5.04773">
        <ele>407</ele>
      </trkpt>
      <trkpt lat="44.34202" lon="5.04731">
        <ele>407</ele>
      </trkpt>
      <trkpt lat="44.34205" lon="5.047">
        <ele>410</ele>
      </trkpt>
      <trkpt lat="44.34221" lon="5.04608">
        <ele>413</ele>
      </trkpt>
      <trkpt lat="44.34234" lon="5.04571">
        <ele>413</ele>
      </trkpt>
      <trkpt lat="44.34318" lon="5.04413">
        <ele>412</ele>
      </trkpt>
      <trkpt lat="44.34345" lon="5.04352">
        <ele>408</ele>
      </trkpt>
      <trkpt lat="44.34413" lon="5.04218">
        <ele>398</ele>
      </trkpt>
      <trkpt lat="44.34469" lon="5.04093">
        <ele>391</ele>
      </trkpt>
      <trkpt lat="44.34495" lon="5.04039">
        <ele>385</ele>
      </trkpt>
      <trkpt lat="44.34518" lon="5.03982">
        <ele>381</ele>
      </trkpt>
      <trkpt lat="44.34527" lon="5.03946">
        <ele>379</ele>
      </trkpt>
      <trkpt lat="44.34535" lon="5.03897">
        <ele>375</ele>
      </trkpt>
      <trkpt lat="44.3454" lon="5.03878">
        <ele>372</ele>
      </trkpt>
      <trkpt lat="44.34548" lon="5.03856">
        <ele>369</ele>
      </trkpt>
      <trkpt lat="44.34592" lon="5.03755">
        <ele>359</ele>
      </trkpt>
      <trkpt lat="44.34594" lon="5.03741">
        <ele>357</ele>
      </trkpt>
      <trkpt lat="44.34593" lon="5.03729">
        <ele>357</ele>
      </trkpt>
      <trkpt lat="44.34588" lon="5.03715">
        <ele>356</ele>
      </trkpt>
      <trkpt lat="44.3458" lon="5.03701">
        <ele>356</ele>
      </trkpt>
      <trkpt lat="44.34567" lon="5.03683">
        <ele>355</ele>
      </trkpt>
      <trkpt lat="44.34562" lon="5.03668">
        <ele>356</ele>
      </trkpt>
      <trkpt lat="44.34565" lon="5.03642">
        <ele>355</ele>
      </trkpt>
      <trkpt lat="44.34565" lon="5.03624">
        <ele>354</ele>
      </trkpt>
      <trkpt lat="44.34558" lon="5.03562">
        <ele>355</ele>
      </trkpt>
      <trkpt lat="44.34559" lon="5.03555">
        <ele>357</ele>
      </trkpt>
      <trkpt lat="44.34565" lon="5.03546">
        <ele>357</ele>
      </trkpt>
      <trkpt lat="44.3457" lon="5.03545">
        <ele>359</ele>
      </trkpt>
      <trkpt lat="44.34591" lon="5.03551">
        <ele>360</ele>
      </trkpt>
      <trkpt lat="44.346" lon="5.03545">
        <ele>362</ele>
      </trkpt>
      <trkpt lat="44.34621" lon="5.0351">
        <ele>365</ele>
      </trkpt>
      <trkpt lat="44.34639" lon="5.03484">
        <ele>365</ele>
      </trkpt>
      <trkpt lat="44.34663" lon="5.03457">
        <ele>365</ele>
      </trkpt>
      <trkpt lat="44.34681" lon="5.03432">
        <ele>364</ele>
      </trkpt>
      <trkpt lat="44.34686" lon="5.03419">
        <ele>364</ele>
      </trkpt>
      <trkpt lat="44.34697" lon="5.03371">
        <ele>364</ele>
      </trkpt>
      <trkpt lat="44.34701" lon="5.03363">
        <ele>364</ele>
      </trkpt>
      <trkpt lat="44.34706" lon="5.03358">
        <ele>366</ele>
      </trkpt>
      <trkpt lat="44.34717" lon="5.03353">
        <ele>366</ele>
      </trkpt>
      <trkpt lat="44.35075" lon="5.03266">
        <ele>384</ele>
      </trkpt>
      <trkpt lat="44.35243" lon="5.03237">
        <ele>389</ele>
      </trkpt>
      <trkpt lat="44.35285" lon="5.03241">
        <ele>390</ele>
      </trkpt>
      <trkpt lat="44.35301" lon="5.03239">
        <ele>391</ele>
      </trkpt>
      <trkpt lat="44.35322" lon="5.03227">
        <ele>391</ele>
      </trkpt>
      <trkpt lat="44.35365" lon="5.03194">
        <ele>392</ele>
      </trkpt>
      <trkpt lat="44.35392" lon="5.03179">
        <ele>393</ele>
      </trkpt>
      <trkpt lat="44.35477" lon="5.03151">
        <ele>395</ele>
      </trkpt>
      <trkpt lat="44.35559" lon="5.03129">
        <ele>397</ele>
      </trkpt>
      <trkpt lat="44.35619" lon="5.03083">
        <ele>402</ele>
      </trkpt>
      <trkpt lat="44.35636" lon="5.03071">
        <ele>406</ele>
      </trkpt>
      <trkpt lat="44.35651" lon="5.03065">
        <ele>406</ele>
      </trkpt>
      <trkpt lat="44.35727" lon="5.03046">
        <ele>409</ele>
      </trkpt>
      <trkpt lat="44.35766" lon="5.03042">
        <ele>413</ele>
      </trkpt>
      <trkpt lat="44.35776" lon="5.0304">
        <ele>413</ele>
      </trkpt>
      <trkpt lat="44.35794" lon="5.03029">
        <ele>413</ele>
      </trkpt>
      <trkpt lat="44.35798" lon="5.03027">
        <ele>412</ele>
      </trkpt>
      <trkpt lat="44.35804" lon="5.03029">
        <ele>413</ele>
      </trkpt>
      <trkpt lat="44.35835" lon="5.0298">
        <ele>413</ele>
      </trkpt>
      <trkpt lat="44.3584" lon="5.02963">
        <ele>414</ele>
      </trkpt>
      <trkpt lat="44.35841" lon="5.02952">
        <ele>414</ele>
      </trkpt>
      <trkpt lat="44.35839" lon="5.0294">
        <ele>416</ele>
      </trkpt>
      <trkpt lat="44.35836" lon="5.02931">
        <ele>416</ele>
      </trkpt>
      <trkpt lat="44.35831" lon="5.02921">
        <ele>416</ele>
      </trkpt>
      <trkpt lat="44.35822" lon="5.0291">
        <ele>416</ele>
      </trkpt>
      <trkpt lat="44.35797" lon="5.02888">
        <ele>415</ele>
      </trkpt>
      <trkpt lat="44.35792" lon="5.0288">
        <ele>416</ele>
      </trkpt>
      <trkpt lat="44.35789" lon="5.02869">
        <ele>416</ele>
      </trkpt>
      <trkpt lat="44.3579" lon="5.02861">
        <ele>417</ele>
      </trkpt>
      <trkpt lat="44.35799" lon="5.02844">
        <ele>417</ele>
      </trkpt>
      <trkpt lat="44.35836" lon="5.02791">
        <ele>421</ele>
      </trkpt>
      <trkpt lat="44.35856" lon="5.02773">
        <ele>422</ele>
      </trkpt>
      <trkpt lat="44.3588" lon="5.0276">
        <ele>424</ele>
      </trkpt>
      <trkpt lat="44.35903" lon="5.02751">
        <ele>425</ele>
      </trkpt>
      <trkpt lat="44.35918" lon="5.02738">
        <ele>425</ele>
      </trkpt>
      <trkpt lat="44.35926" lon="5.02727">
        <ele>425</ele>
      </trkpt>
      <trkpt lat="44.35932" lon="5.02714">
        <ele>428</ele>
      </trkpt>
      <trkpt lat="44.35942" lon="5.02684">
        <ele>428</ele>
      </trkpt>
      <trkpt lat="44.35955" lon="5.02632">
        <ele>428</ele>
      </trkpt>
      <trkpt lat="44.35967" lon="5.0256">
        <ele>422</ele>
      </trkpt>
      <trkpt lat="44.35976" lon="5.02538">
        <ele>419</ele>
      </trkpt>
      <trkpt lat="44.3599" lon="5.0252">
        <ele>417</ele>
      </trkpt>
      <trkpt lat="44.36003" lon="5.02508">
        <ele>416</ele>
      </trkpt>
      <trkpt lat="44.36032" lon="5.02494">
        <ele>413</ele>
      </trkpt>
      <trkpt lat="44.36134" lon="5.02459">
        <ele>411</ele>
      </trkpt>
      <trkpt lat="44.36156" lon="5.02455">
        <ele>413</ele>
      </trkpt>
      <trkpt lat="44.36266" lon="5.02451">
        <ele>417</ele>
      </trkpt>
      <trkpt lat="44.36281" lon="5.02448">
        <ele>417</ele>
      </trkpt>
      <trkpt lat="44.36293" lon="5.0244">
        <ele>418</ele>
      </trkpt>
      <trkpt lat="44.36302" lon="5.0243">
        <ele>418</ele>
      </trkpt>
      <trkpt lat="44.36311" lon="5.02416">
        <ele>419</ele>
      </trkpt>
      <trkpt lat="44.36389" lon="5.02275">
        <ele>420</ele>
      </trkpt>
      <trkpt lat="44.36394" lon="5.02262">
        <ele>420</ele>
      </trkpt>
      <trkpt lat="44.364" lon="5.02236">
        <ele>420</ele>
      </trkpt>
      <trkpt lat="44.36401" lon="5.02209">
        <ele>419</ele>
      </trkpt>
      <trkpt lat="44.36395" lon="5.02182">
        <ele>418</ele>
      </trkpt>
      <trkpt lat="44.36369" lon="5.02123">
        <ele>418</ele>
      </trkpt>
      <trkpt lat="44.36298" lon="5.01973">
        <ele>416</ele>
      </trkpt>
      <trkpt lat="44.36288" lon="5.01952">
        <ele>416</ele>
      </trkpt>
      <trkpt lat="44.36274" lon="5.01928">
        <ele>415</ele>
      </trkpt>
      <trkpt lat="44.36207" lon="5.01837">
        <ele>414</ele>
      </trkpt>
      <trkpt lat="44.36185" lon="5.018">
        <ele>415</ele>
      </trkpt>
      <trkpt lat="44.36179" lon="5.01784">
        <ele>415</ele>
      </trkpt>
      <trkpt lat="44.36161" lon="5.01706">
        <ele>409</ele>
      </trkpt>
      <trkpt lat="44.36156" lon="5.01692">
        <ele>407</ele>
      </trkpt>
      <trkpt lat="44.36149" lon="5.01682">
        <ele>407</ele>
      </trkpt>
      <trkpt lat="44.3614" lon="5.01676">
        <ele>410</ele>
      </trkpt>
      <trkpt lat="44.36092" lon="5.01658">
        <ele>410</ele>
      </trkpt>
      <trkpt lat="44.36064" lon="5.01652">
        <ele>410</ele>
      </trkpt>
      <trkpt lat="44.36059" lon="5.01648">
        <ele>410</ele>
      </trkpt>
      <trkpt lat="44.36057" lon="5.01638">
        <ele>407</ele>
      </trkpt>
      <trkpt lat="44.36061" lon="5.01633">
        <ele>406</ele>
      </trkpt>
      <trkpt lat="44.36068" lon="5.01631">
        <ele>406</ele>
      </trkpt>
      <trkpt lat="44.3612" lon="5.01624">
        <ele>405</ele>
      </trkpt>
      <trkpt lat="44.36137" lon="5.01628">
        <ele>404</ele>
      </trkpt>
      <trkpt lat="44.36205" lon="5.01663">
        <ele>400</ele>
      </trkpt>
      <trkpt lat="44.36222" lon="5.01667">
        <ele>400</ele>
      </trkpt>
      <trkpt lat="44.36236" lon="5.01665">
        <ele>400</ele>
      </trkpt>
      <trkpt lat="44.3631" lon="5.01629">
        <ele>393</ele>
      </trkpt>
      <trkpt lat="44.36364" lon="5.0162">
        <ele>390</ele>
      </trkpt>
      <trkpt lat="44.36378" lon="5.01611">
        <ele>387</ele>
      </trkpt>
      <trkpt lat="44.36385" lon="5.01599">
        <ele>387</ele>
      </trkpt>
      <trkpt lat="44.36391" lon="5.01579">
        <ele>386</ele>
      </trkpt>
      <trkpt lat="44.36407" lon="5.01495">
        <ele>386</ele>
      </trkpt>
      <trkpt lat="44.3641" lon="5.01444">
        <ele>387</ele>
      </trkpt>
      <trkpt lat="44.36405" lon="5.01379">
        <ele>387</ele>
      </trkpt>
      <trkpt lat="44.36405" lon="5.01353">
        <ele>385</ele>
      </trkpt>
      <trkpt lat="44.36409" lon="5.01332">
        <ele>383</ele>
      </trkpt>
      <trkpt lat="44.36415" lon="5.01315">
        <ele>383</ele>
      </trkpt>
      <trkpt lat="44.36528" lon="5.01074">
        <ele>377</ele>
      </trkpt>
      <trkpt lat="44.36533" lon="5.01057">
        <ele>376</ele>
      </trkpt>
      <trkpt lat="44.36535" lon="5.01043">
        <ele>374</ele>
      </trkpt>
      <trkpt lat="44.36533" lon="5.01025">
        <ele>373</ele>
      </trkpt>
      <trkpt lat="44.36528" lon="5.01007">
        <ele>373</ele>
      </trkpt>
      <trkpt lat="44.36519" lon="5.00982">
        <ele>375</ele>
      </trkpt>
      <trkpt lat="44.36518" lon="5.00972">
        <ele>376</ele>
      </trkpt>
      <trkpt lat="44.36518" lon="5.00964">
        <ele>377</ele>
      </trkpt>
      <trkpt lat="44.36522" lon="5.00956">
        <ele>377</ele>
      </trkpt>
      <trkpt lat="44.36527" lon="5.00952">
        <ele>377</ele>
      </trkpt>
      <trkpt lat="44.36534" lon="5.0095">
        <ele>376</ele>
      </trkpt>
      <trkpt lat="44.36583" lon="5.00951">
        <ele>371</ele>
      </trkpt>
      <trkpt lat="44.36693" lon="5.00945">
        <ele>359</ele>
      </trkpt>
      <trkpt lat="44.3671" lon="5.00943">
        <ele>360</ele>
      </trkpt>
      <trkpt lat="44.3674" lon="5.0093">
        <ele>361</ele>
      </trkpt>
      <trkpt lat="44.36754" lon="5.00929">
        <ele>361</ele>
      </trkpt>
      <trkpt lat="44.36761" lon="5.00932">
        <ele>361</ele>
      </trkpt>
      <trkpt lat="44.36799" lon="5.00964">
        <ele>355</ele>
      </trkpt>
      <trkpt lat="44.3681" lon="5.00971">
        <ele>354</ele>
      </trkpt>
      <trkpt lat="44.36826" lon="5.00975">
        <ele>351</ele>
      </trkpt>
      <trkpt lat="44.36853" lon="5.00974">
        <ele>354</ele>
      </trkpt>
      <trkpt lat="44.36866" lon="5.00978">
        <ele>355</ele>
      </trkpt>
      <trkpt lat="44.36871" lon="5.00983">
        <ele>355</ele>
      </trkpt>
      <trkpt lat="44.36885" lon="5.01017">
        <ele>351</ele>
      </trkpt>
      <trkpt lat="44.36891" lon="5.01027">
        <ele>350</ele>
      </trkpt>
      <trkpt lat="44.369" lon="5.01035">
        <ele>346</ele>
      </trkpt>
      <trkpt lat="44.36913" lon="5.01042">
        <ele>346</ele>
      </trkpt>
      <trkpt lat="44.36973" lon="5.01061">
        <ele>338</ele>
      </trkpt>
      <trkpt lat="44.36987" lon="5.01062">
        <ele>336</ele>
      </trkpt>
      <trkpt lat="44.37011" lon="5.01057">
        <ele>333</ele>
      </trkpt>
      <trkpt lat="44.37021" lon="5.01053">
        <ele>335</ele>
      </trkpt>
      <trkpt lat="44.37095" lon="5.01">
        <ele>325</ele>
      </trkpt>
      <trkpt lat="44.37103" lon="5.00992">
        <ele>325</ele>
      </trkpt>
      <trkpt lat="44.37109" lon="5.00982">
        <ele>324</ele>
      </trkpt>
      <trkpt lat="44.37141" lon="5.00885">
        <ele>322</ele>
      </trkpt>
      <trkpt lat="44.37144" lon="5.00869">
        <ele>322</ele>
      </trkpt>
      <trkpt lat="44.37144" lon="5.00855">
        <ele>322</ele>
      </trkpt>
      <trkpt lat="44.37142" lon="5.0084">
        <ele>322</ele>
      </trkpt>
      <trkpt lat="44.37133" lon="5.00804">
        <ele>321</ele>
      </trkpt>
      <trkpt lat="44.37131" lon="5.00788">
        <ele>321</ele>
      </trkpt>
      <trkpt lat="44.37134" lon="5.0076">
        <ele>320</ele>
      </trkpt>
      <trkpt lat="44.37139" lon="5.00746">
        <ele>320</ele>
      </trkpt>
      <trkpt lat="44.37151" lon="5.0073">
        <ele>317</ele>
      </trkpt>
      <trkpt lat="44.37158" lon="5.00728">
        <ele>316</ele>
      </trkpt>
      <trkpt lat="44.37166" lon="5.00728">
        <ele>316</ele>
      </trkpt>
      <trkpt lat="44.37175" lon="5.00732">
        <ele>316</ele>
      </trkpt>
      <trkpt lat="44.37187" lon="5.00745">
        <ele>313</ele>
      </trkpt>
      <trkpt lat="44.37194" lon="5.00756">
        <ele>313</ele>
      </trkpt>
      <trkpt lat="44.37201" lon="5.00775">
        <ele>313</ele>
      </trkpt>
      <trkpt lat="44.37207" lon="5.00831">
        <ele>308</ele>
      </trkpt>
      <trkpt lat="44.37216" lon="5.00871">
        <ele>307</ele>
      </trkpt>
      <trkpt lat="44.3723" lon="5.00912">
        <ele>307</ele>
      </trkpt>
      <trkpt lat="44.37285" lon="5.01061">
        <ele>304</ele>
      </trkpt>
      <trkpt lat="44.37292" lon="5.01077">
        <ele>302</ele>
      </trkpt>
      <trkpt lat="44.373" lon="5.01088">
        <ele>302</ele>
      </trkpt>
      <trkpt lat="44.37311" lon="5.01095">
        <ele>302</ele>
      </trkpt>
      <trkpt lat="44.37319" lon="5.01097">
        <ele>300</ele>
      </trkpt>
      <trkpt lat="44.37332" lon="5.01098">
        <ele>300</ele>
      </trkpt>
      <trkpt lat="44.3734" lon="5.01096">
        <ele>299</ele>
      </trkpt>
      <trkpt lat="44.37351" lon="5.01087">
        <ele>297</ele>
      </trkpt>
      <trkpt lat="44.37365" lon="5.01069">
        <ele>297</ele>
      </trkpt>
      <trkpt lat="44.37415" lon="5.00988">
        <ele>291</ele>
      </trkpt>
      <trkpt lat="44.37473" lon="5.00884">
        <ele>284</ele>
      </trkpt>
      <trkpt lat="44.37503" lon="5.00843">
        <ele>282</ele>
      </trkpt>
      <trkpt lat="44.37531" lon="5.00776">
        <ele>280</ele>
      </trkpt>
      <trkpt lat="44.37541" lon="5.00734">
        <ele>277</ele>
      </trkpt>
      <trkpt lat="44.37541" lon="5.00713">
        <ele>277</ele>
      </trkpt>
      <trkpt lat="44.37539" lon="5.00695">
        <ele>277</ele>
      </trkpt>
      <trkpt lat="44.3753" lon="5.00659">
        <ele>278</ele>
      </trkpt>
      <trkpt lat="44.37527" lon="5.00638">
        <ele>277</ele>
      </trkpt>
      <trkpt lat="44.37527" lon="5.00618">
        <ele>277</ele>
      </trkpt>
      <trkpt lat="44.3753" lon="5.00599">
        <ele>277</ele>
      </trkpt>
      <trkpt lat="44.37536" lon="5.00583">
        <ele>277</ele>
      </trkpt>
      <trkpt lat="44.37545" lon="5.00568">
        <ele>274</ele>
      </trkpt>
      <trkpt lat="44.37634" lon="5.00468">
        <ele>268</ele>
      </trkpt>
      <trkpt lat="44.37639" lon="5.00453">
        <ele>267</ele>
      </trkpt>
      <trkpt lat="44.37641" lon="5.00447">
        <ele>267</ele>
      </trkpt>
      <trkpt lat="44.37641" lon="5.00431">
        <ele>267</ele>
      </trkpt>
      <trkpt lat="44.37639" lon="5.00419">
        <ele>267</ele>
      </trkpt>
      <trkpt lat="44.37608" lon="5.00316">
        <ele>261</ele>
      </trkpt>
      <trkpt lat="44.37606" lon="5.00299">
        <ele>260</ele>
      </trkpt>
      <trkpt lat="44.3761" lon="5.0028">
        <ele>259</ele>
      </trkpt>
      <trkpt lat="44.37615" lon="5.0027">
        <ele>259</ele>
      </trkpt>
      <trkpt lat="44.37622" lon="5.00262">
        <ele>259</ele>
      </trkpt>
      <trkpt lat="44.37632" lon="5.00257">
        <ele>259</ele>
      </trkpt>
      <trkpt lat="44.37689" lon="5.00237">
        <ele>254</ele>
      </trkpt>
      <trkpt lat="44.37713" lon="5.00217">
        <ele>253</ele>
      </trkpt>
      <trkpt lat="44.37722" lon="5.00206">
        <ele>253</ele>
      </trkpt>
      <trkpt lat="44.37732" lon="5.00188">
        <ele>252</ele>
      </trkpt>
      <trkpt lat="44.37834" lon="4.99957">
        <ele>247</ele>
      </trkpt>
      <trkpt lat="44.37866" lon="4.9988">
        <ele>246</ele>
      </trkpt>
      <trkpt lat="44.3787" lon="4.9988">
        <ele>246</ele>
      </trkpt>
      <trkpt lat="44.37873" lon="4.99878">
        <ele>246</ele>
      </trkpt>
      <trkpt lat="44.37881" lon="4.99886">
        <ele>247</ele>
      </trkpt>
      <trkpt lat="44.37922" lon="4.99857">
        <ele>247</ele>
      </trkpt>
      <trkpt lat="44.37941" lon="4.9984">
        <ele>248</ele>
      </trkpt>
      <trkpt lat="44.37992" lon="4.99787">
        <ele>246</ele>
      </trkpt>
      <trkpt lat="44.38013" lon="4.99767">
        <ele>246</ele>
      </trkpt>
      <trkpt lat="44.38027" lon="4.99761">
        <ele>246</ele>
      </trkpt>
      <trkpt lat="44.3809" lon="4.99756">
        <ele>247</ele>
      </trkpt>
      <trkpt lat="44.38101" lon="4.99758">
        <ele>248</ele>
      </trkpt>
      <trkpt lat="44.38126" lon="4.99758">
        <ele>247</ele>
      </trkpt>
      <trkpt lat="44.38244" lon="4.99684">
        <ele>248</ele>
      </trkpt>
      <trkpt lat="44.38256" lon="4.9968">
        <ele>248</ele>
      </trkpt>
      <trkpt lat="44.38294" lon="4.99675">
        <ele>248</ele>
      </trkpt>
      <trkpt lat="44.38363" lon="4.99676">
        <ele>248</ele>
      </trkpt>
      <trkpt lat="44.38368" lon="4.99635">
        <ele>247</ele>
      </trkpt>
      <trkpt lat="44.38376" lon="4.99596">
        <ele>248</ele>
      </trkpt>
      <trkpt lat="44.38407" lon="4.99506">
        <ele>248</ele>
      </trkpt>
      <trkpt lat="44.38407" lon="4.99482">
        <ele>249</ele>
      </trkpt>
      <trkpt lat="44.38396" lon="4.994">
        <ele>250</ele>
      </trkpt>
      <trkpt lat="44.38396" lon="4.99382">
        <ele>250</ele>
      </trkpt>
      <trkpt lat="44.38397" lon="4.99364">
        <ele>250</ele>
      </trkpt>
      <trkpt lat="44.384" lon="4.99353">
        <ele>249</ele>
      </trkpt>
      <trkpt lat="44.38409" lon="4.99353">
        <ele>249</ele>
      </trkpt>
      <trkpt lat="44.38413" lon="4.99349">
        <ele>249</ele>
      </trkpt>
      <trkpt lat="44.38422" lon="4.99346">
        <ele>248</ele>
      </trkpt>
      <trkpt lat="44.38432" lon="4.99338">
        <ele>247</ele>
      </trkpt>
      <trkpt lat="44.38438" lon="4.99325">
        <ele>246</ele>
      </trkpt>
      <trkpt lat="44.3855" lon="4.99198">
        <ele>240</ele>
      </trkpt>
      <trkpt lat="44.38575" lon="4.99173">
        <ele>238</ele>
      </trkpt>
      <trkpt lat="44.38638" lon="4.991">
        <ele>234</ele>
      </trkpt>
      <trkpt lat="44.3865" lon="4.99088">
        <ele>233</ele>
      </trkpt>
      <trkpt lat="44.38657" lon="4.99087">
        <ele>233</ele>
      </trkpt>
      <trkpt lat="44.38661" lon="4.99081">
        <ele>233</ele>
      </trkpt>
      <trkpt lat="44.38662" lon="4.99073">
        <ele>233</ele>
      </trkpt>
      <trkpt lat="44.38666" lon="4.99073">
        <ele>233</ele>
      </trkpt>
      <trkpt lat="44.38719" lon="4.99054">
        <ele>231</ele>
      </trkpt>
      <trkpt lat="44.38733" lon="4.99061">
        <ele>231</ele>
      </trkpt>
      <trkpt lat="44.38738" lon="4.99068">
        <ele>231</ele>
      </trkpt>
      <trkpt lat="44.38744" lon="4.99069">
        <ele>231</ele>
      </trkpt>
      <trkpt lat="44.38752" lon="4.99063">
        <ele>231</ele>
      </trkpt>
      <trkpt lat="44.38758" lon="4.99046">
        <ele>230</ele>
      </trkpt>
      <trkpt lat="44.38764" lon="4.9904">
        <ele>230</ele>
      </trkpt>
      <trkpt lat="44.3888" lon="4.99001">
        <ele>230</ele>
      </trkpt>
      <trkpt lat="44.3898" lon="4.98971">
        <ele>229</ele>
      </trkpt>
      <trkpt lat="44.39072" lon="4.9894">
        <ele>229</ele>
      </trkpt>
      <trkpt lat="44.39103" lon="4.98919">
        <ele>229</ele>
      </trkpt>
      <trkpt lat="44.39138" lon="4.98889">
        <ele>228</ele>
      </trkpt>
      <trkpt lat="44.39156" lon="4.98875">
        <ele>228</ele>
      </trkpt>
      <trkpt lat="44.39187" lon="4.98858">
        <ele>227</ele>
      </trkpt>
      <trkpt lat="44.39305" lon="4.98799">
        <ele>229</ele>
      </trkpt>
      <trkpt lat="44.39367" lon="4.98784">
        <ele>228</ele>
      </trkpt>
      <trkpt lat="44.39448" lon="4.98757">
        <ele>228</ele>
      </trkpt>
      <trkpt lat="44.39552" lon="4.98722">
        <ele>230</ele>
      </trkpt>
      <trkpt lat="44.39579" lon="4.98711">
        <ele>230</ele>
      </trkpt>
      <trkpt lat="44.39767" lon="4.98607">
        <ele>232</ele>
      </trkpt>
      <trkpt lat="44.39798" lon="4.98591">
        <ele>232</ele>
      </trkpt>
      <trkpt lat="44.39912" lon="4.98549">
        <ele>233</ele>
      </trkpt>
      <trkpt lat="44.40068" lon="4.98508">
        <ele>236</ele>
      </trkpt>
      <trkpt lat="44.40129" lon="4.98484">
        <ele>233</ele>
      </trkpt>
      <trkpt lat="44.40323" lon="4.98397">
        <ele>234</ele>
      </trkpt>
      <trkpt lat="44.40411" lon="4.9836">
        <ele>234</ele>
      </trkpt>
      <trkpt lat="44.40647" lon="4.98295">
        <ele>232</ele>
      </trkpt>
      <trkpt lat="44.40709" lon="4.98274">
        <ele>235</ele>
      </trkpt>
      <trkpt lat="44.40741" lon="4.98267">
        <ele>234</ele>
      </trkpt>
      <trkpt lat="44.40826" lon="4.98254">
        <ele>236</ele>
      </trkpt>
      <trkpt lat="44.40884" lon="4.98249">
        <ele>237</ele>
      </trkpt>
      <trkpt lat="44.41028" lon="4.98253">
        <ele>238</ele>
      </trkpt>
      <trkpt lat="44.41069" lon="4.98257">
        <ele>239</ele>
      </trkpt>
      <trkpt lat="44.41112" lon="4.98264">
        <ele>239</ele>
      </trkpt>
      <trkpt lat="44.41185" lon="4.98289">
        <ele>240</ele>
      </trkpt>
      <trkpt lat="44.41204" lon="4.98298">
        <ele>240</ele>
      </trkpt>
      <trkpt lat="44.41222" lon="4.98308">
        <ele>240</ele>
      </trkpt>
      <trkpt lat="44.4133" lon="4.98391">
        <ele>243</ele>
      </trkpt>
      <trkpt lat="44.41346" lon="4.98401">
        <ele>244</ele>
      </trkpt>
      <trkpt lat="44.41357" lon="4.98404">
        <ele>244</ele>
      </trkpt>
      <trkpt lat="44.41371" lon="4.98406">
        <ele>244</ele>
      </trkpt>
      <trkpt lat="44.41855" lon="4.98304">
        <ele>249</ele>
      </trkpt>
      <trkpt lat="44.41896" lon="4.98305">
        <ele>250</ele>
      </trkpt>
      <trkpt lat="44.42068" lon="4.98321">
        <ele>251</ele>
      </trkpt>
      <trkpt lat="44.42291" lon="4.98376">
        <ele>246</ele>
      </trkpt>
      <trkpt lat="44.42332" lon="4.98387">
        <ele>246</ele>
      </trkpt>
      <trkpt lat="44.4238" lon="4.98401">
        <ele>246</ele>
      </trkpt>
      <trkpt lat="44.4241" lon="4.98406">
        <ele>246</ele>
      </trkpt>
      <trkpt lat="44.42478" lon="4.9841">
        <ele>248</ele>
      </trkpt>
      <trkpt lat="44.42531" lon="4.98405">
        <ele>248</ele>
      </trkpt>
      <trkpt lat="44.42576" lon="4.98395">
        <ele>248</ele>
      </trkpt>
      <trkpt lat="44.42607" lon="4.98385">
        <ele>247</ele>
      </trkpt>
      <trkpt lat="44.42753" lon="4.98323">
        <ele>248</ele>
      </trkpt>
      <trkpt lat="44.42809" lon="4.98308">
        <ele>250</ele>
      </trkpt>
      <trkpt lat="44.42927" lon="4.98294">
        <ele>252</ele>
      </trkpt>
      <trkpt lat="44.42962" lon="4.98293">
        <ele>256</ele>
      </trkpt>
      <trkpt lat="44.43069" lon="4.98298">
        <ele>258</ele>
      </trkpt>
      <trkpt lat="44.43178" lon="4.98295">
        <ele>255</ele>
      </trkpt>
      <trkpt lat="44.43199" lon="4.98292">
        <ele>255</ele>
      </trkpt>
      <trkpt lat="44.43229" lon="4.98283">
        <ele>255</ele>
      </trkpt>
      <trkpt lat="44.43254" lon="4.98271">
        <ele>256</ele>
      </trkpt>
      <trkpt lat="44.43267" lon="4.98263">
        <ele>257</ele>
      </trkpt>
      <trkpt lat="44.43282" lon="4.9825">
        <ele>257</ele>
      </trkpt>
      <trkpt lat="44.43292" lon="4.98237">
        <ele>257</ele>
      </trkpt>
      <trkpt lat="44.433" lon="4.9822">
        <ele>257</ele>
      </trkpt>
      <trkpt lat="44.43311" lon="4.98189">
        <ele>257</ele>
      </trkpt>
      <trkpt lat="44.43362" lon="4.97947">
        <ele>266</ele>
      </trkpt>
      <trkpt lat="44.4337" lon="4.97916">
        <ele>265</ele>
      </trkpt>
      <trkpt lat="44.43396" lon="4.97855">
        <ele>268</ele>
      </trkpt>
      <trkpt lat="44.43437" lon="4.9778">
        <ele>273</ele>
      </trkpt>
      <trkpt lat="44.43463" lon="4.97736">
        <ele>275</ele>
      </trkpt>
      <trkpt lat="44.4348" lon="4.97716">
        <ele>275</ele>
      </trkpt>
      <trkpt lat="44.43499" lon="4.97703">
        <ele>275</ele>
      </trkpt>
      <trkpt lat="44.43539" lon="4.97679">
        <ele>272</ele>
      </trkpt>
      <trkpt lat="44.43589" lon="4.97661">
        <ele>266</ele>
      </trkpt>
      <trkpt lat="44.43613" lon="4.9766">
        <ele>265</ele>
      </trkpt>
      <trkpt lat="44.43639" lon="4.97667">
        <ele>266</ele>
      </trkpt>
      <trkpt lat="44.43685" lon="4.97693">
        <ele>260</ele>
      </trkpt>
      <trkpt lat="44.43773" lon="4.97732">
        <ele>260</ele>
      </trkpt>
      <trkpt lat="44.43904" lon="4.97794">
        <ele>262</ele>
      </trkpt>
      <trkpt lat="44.43941" lon="4.97816">
        <ele>264</ele>
      </trkpt>
      <trkpt lat="44.43977" lon="4.97843">
        <ele>264</ele>
      </trkpt>
      <trkpt lat="44.44048" lon="4.97921">
        <ele>262</ele>
      </trkpt>
      <trkpt lat="44.44149" lon="4.98053">
        <ele>267</ele>
      </trkpt>
      <trkpt lat="44.44173" lon="4.98075">
        <ele>270</ele>
      </trkpt>
      <trkpt lat="44.44174" lon="4.98079">
        <ele>270</ele>
      </trkpt>
      <trkpt lat="44.44177" lon="4.98081">
        <ele>270</ele>
      </trkpt>
      <trkpt lat="44.4418" lon="4.98081">
        <ele>270</ele>
      </trkpt>
      <trkpt lat="44.44183" lon="4.98076">
        <ele>270</ele>
      </trkpt>
      <trkpt lat="44.44191" lon="4.9807">
        <ele>271</ele>
      </trkpt>
      <trkpt lat="44.44203" lon="4.98059">
        <ele>270</ele>
      </trkpt>
      <trkpt lat="44.44219" lon="4.9804">
        <ele>271</ele>
      </trkpt>
      <trkpt lat="44.44239" lon="4.98012">
        <ele>272</ele>
      </trkpt>
      <trkpt lat="44.44264" lon="4.97964">
        <ele>271</ele>
      </trkpt>
      <trkpt lat="44.44274" lon="4.97958">
        <ele>270</ele>
      </trkpt>
      <trkpt lat="44.4428" lon="4.97954">
        <ele>271</ele>
      </trkpt>
      <trkpt lat="44.44288" lon="4.97952">
        <ele>271</ele>
      </trkpt>
      <trkpt lat="44.44298" lon="4.97952">
        <ele>273</ele>
      </trkpt>
      <trkpt lat="44.4432" lon="4.97962">
        <ele>275</ele>
      </trkpt>
      <trkpt lat="44.4433" lon="4.97961">
        <ele>276</ele>
      </trkpt>
      <trkpt lat="44.44358" lon="4.97944">
        <ele>276</ele>
      </trkpt>
      <trkpt lat="44.44364" lon="4.97934">
        <ele>274</ele>
      </trkpt>
      <trkpt lat="44.44376" lon="4.97945">
        <ele>276</ele>
      </trkpt>
      <trkpt lat="44.44396" lon="4.97948">
        <ele>276</ele>
      </trkpt>
      <trkpt lat="44.4441" lon="4.97952">
        <ele>276</ele>
      </trkpt>
      <trkpt lat="44.44427" lon="4.97963">
        <ele>276</ele>
      </trkpt>
      <trkpt lat="44.4444" lon="4.97945">
        <ele>277</ele>
      </trkpt>
      <trkpt lat="44.44457" lon="4.97906">
        <ele>280</ele>
      </trkpt>
      <trkpt lat="44.44484" lon="4.97914">
        <ele>280</ele>
      </trkpt>
      <trkpt lat="44.44506" lon="4.97917">
        <ele>281</ele>
      </trkpt>
      <trkpt lat="44.44543" lon="4.97917">
        <ele>283</ele>
      </trkpt>
      <trkpt lat="44.44648" lon="4.97927">
        <ele>288</ele>
      </trkpt>
      <trkpt lat="44.44671" lon="4.97922">
        <ele>290</ele>
      </trkpt>
      <trkpt lat="44.44706" lon="4.97924">
        <ele>291</ele>
      </trkpt>
      <trkpt lat="44.44754" lon="4.97861">
        <ele>295</ele>
      </trkpt>
      <trkpt lat="44.44826" lon="4.97758">
        <ele>300</ele>
      </trkpt>
      <trkpt lat="44.44862" lon="4.97718">
        <ele>301</ele>
      </trkpt>
      <trkpt lat="44.4491" lon="4.97679">
        <ele>302</ele>
      </trkpt>
      <trkpt lat="44.45016" lon="4.97585">
        <ele>306</ele>
      </trkpt>
      <trkpt lat="44.45139" lon="4.97513">
        <ele>314</ele>
      </trkpt>
      <trkpt lat="44.45169" lon="4.97498">
        <ele>315</ele>
      </trkpt>
      <trkpt lat="44.45459" lon="4.97312">
        <ele>301</ele>
      </trkpt>
      <trkpt lat="44.45514" lon="4.97274">
        <ele>304</ele>
      </trkpt>
      <trkpt lat="44.45538" lon="4.97247">
        <ele>305</ele>
      </trkpt>
      <trkpt lat="44.45569" lon="4.97201">
        <ele>311</ele>
      </trkpt>
      <trkpt lat="44.45599" lon="4.97164">
        <ele>309</ele>
      </trkpt>
      <trkpt lat="44.45709" lon="4.97073">
        <ele>309</ele>
      </trkpt>
      <trkpt lat="44.45731" lon="4.97061">
        <ele>308</ele>
      </trkpt>
      <trkpt lat="44.45752" lon="4.97053">
        <ele>305</ele>
      </trkpt>
      <trkpt lat="44.45881" lon="4.9702">
        <ele>304</ele>
      </trkpt>
      <trkpt lat="44.45904" lon="4.97001">
        <ele>305</ele>
      </trkpt>
      <trkpt lat="44.46088" lon="4.96763">
        <ele>311</ele>
      </trkpt>
      <trkpt lat="44.46204" lon="4.96591">
        <ele>313</ele>
      </trkpt>
      <trkpt lat="44.46364" lon="4.96447">
        <ele>319</ele>
      </trkpt>
      <trkpt lat="44.46394" lon="4.96433">
        <ele>318</ele>
      </trkpt>
      <trkpt lat="44.46461" lon="4.96424">
        <ele>316</ele>
      </trkpt>
      <trkpt lat="44.4651" lon="4.96414">
        <ele>317</ele>
      </trkpt>
      <trkpt lat="44.46546" lon="4.96404">
        <ele>320</ele>
      </trkpt>
      <trkpt lat="44.4656" lon="4.96393">
        <ele>320</ele>
      </trkpt>
      <trkpt lat="44.46572" lon="4.96377">
        <ele>321</ele>
      </trkpt>
      <trkpt lat="44.46598" lon="4.96306">
        <ele>323</ele>
      </trkpt>
      <trkpt lat="44.46609" lon="4.96291">
        <ele>323</ele>
      </trkpt>
      <trkpt lat="44.46622" lon="4.9628">
        <ele>323</ele>
      </trkpt>
      <trkpt lat="44.46637" lon="4.96272">
        <ele>325</ele>
      </trkpt>
      <trkpt lat="44.46673" lon="4.96222">
        <ele>327</ele>
      </trkpt>
      <trkpt lat="44.46697" lon="4.962">
        <ele>329</ele>
      </trkpt>
      <trkpt lat="44.46722" lon="4.96184">
        <ele>331</ele>
      </trkpt>
      <trkpt lat="44.46774" lon="4.96128">
        <ele>332</ele>
      </trkpt>
      <trkpt lat="44.46802" lon="4.96093">
        <ele>333</ele>
      </trkpt>
      <trkpt lat="44.46844" lon="4.96028">
        <ele>336</ele>
      </trkpt>
      <trkpt lat="44.46855" lon="4.96014">
        <ele>337</ele>
      </trkpt>
      <trkpt lat="44.46875" lon="4.96001">
        <ele>337</ele>
      </trkpt>
      <trkpt lat="44.46892" lon="4.95992">
        <ele>337</ele>
      </trkpt>
      <trkpt lat="44.4703" lon="4.95929">
        <ele>344</ele>
      </trkpt>
      <trkpt lat="44.47045" lon="4.95918">
        <ele>348</ele>
      </trkpt>
      <trkpt lat="44.47087" lon="4.95847">
        <ele>349</ele>
      </trkpt>
      <trkpt lat="44.47101" lon="4.95834">
        <ele>353</ele>
      </trkpt>
      <trkpt lat="44.47113" lon="4.95829">
        <ele>355</ele>
      </trkpt>
      <trkpt lat="44.47132" lon="4.95829">
        <ele>358</ele>
      </trkpt>
      <trkpt lat="44.47301" lon="4.95875">
        <ele>371</ele>
      </trkpt>
      <trkpt lat="44.47392" lon="4.9591">
        <ele>378</ele>
      </trkpt>
      <trkpt lat="44.47422" lon="4.9592">
        <ele>376</ele>
      </trkpt>
      <trkpt lat="44.47452" lon="4.95921">
        <ele>378</ele>
      </trkpt>
      <trkpt lat="44.47537" lon="4.95931">
        <ele>387</ele>
      </trkpt>
      <trkpt lat="44.47615" lon="4.95947">
        <ele>387</ele>
      </trkpt>
      <trkpt lat="44.47649" lon="4.95947">
        <ele>389</ele>
      </trkpt>
      <trkpt lat="44.47738" lon="4.95925">
        <ele>399</ele>
      </trkpt>
      <trkpt lat="44.47771" lon="4.95927">
        <ele>402</ele>
      </trkpt>
      <trkpt lat="44.47827" lon="4.95943">
        <ele>407</ele>
      </trkpt>
      <trkpt lat="44.479" lon="4.95957">
        <ele>410</ele>
      </trkpt>
      <trkpt lat="44.4797" lon="4.95975">
        <ele>415</ele>
      </trkpt>
      <trkpt lat="44.47993" lon="4.95981">
        <ele>417</ele>
      </trkpt>
      <trkpt lat="44.48026" lon="4.95998">
        <ele>418</ele>
      </trkpt>
      <trkpt lat="44.48046" lon="4.96005">
        <ele>416</ele>
      </trkpt>
      <trkpt lat="44.48061" lon="4.96007">
        <ele>416</ele>
      </trkpt>
      <trkpt lat="44.48066" lon="4.96001">
        <ele>417</ele>
      </trkpt>
      <trkpt lat="44.48063" lon="4.95994">
        <ele>421</ele>
      </trkpt>
      <trkpt lat="44.4801" lon="4.95967">
        <ele>422</ele>
      </trkpt>
      <trkpt lat="44.47993" lon="4.95954">
        <ele>423</ele>
      </trkpt>
      <trkpt lat="44.47974" lon="4.95944">
        <ele>420</ele>
      </trkpt>
      <trkpt lat="44.47871" lon="4.95898">
        <ele>421</ele>
      </trkpt>
      <trkpt lat="44.4777" lon="4.95845">
        <ele>418</ele>
      </trkpt>
      <trkpt lat="44.47761" lon="4.95838">
        <ele>417</ele>
      </trkpt>
      <trkpt lat="44.47758" lon="4.95829">
        <ele>416</ele>
      </trkpt>
      <trkpt lat="44.47762" lon="4.95821">
        <ele>415</ele>
      </trkpt>
      <trkpt lat="44.47772" lon="4.95819">
        <ele>416</ele>
      </trkpt>
      <trkpt lat="44.47822" lon="4.95827">
        <ele>422</ele>
      </trkpt>
      <trkpt lat="44.47847" lon="4.95825">
        <ele>425</ele>
      </trkpt>
      <trkpt lat="44.47879" lon="4.95813">
        <ele>428</ele>
      </trkpt>
      <trkpt lat="44.47958" lon="4.95801">
        <ele>434</ele>
      </trkpt>
      <trkpt lat="44.48009" lon="4.95789">
        <ele>436</ele>
      </trkpt>
      <trkpt lat="44.48029" lon="4.95789">
        <ele>439</ele>
      </trkpt>
      <trkpt lat="44.48115" lon="4.95774">
        <ele>440</ele>
      </trkpt>
      <trkpt lat="44.48229" lon="4.95775">
        <ele>448</ele>
      </trkpt>
      <trkpt lat="44.48388" lon="4.95751">
        <ele>465</ele>
      </trkpt>
      <trkpt lat="44.48493" lon="4.95747">
        <ele>469</ele>
      </trkpt>
      <trkpt lat="44.48516" lon="4.95739">
        <ele>472</ele>
      </trkpt>
      <trkpt lat="44.48543" lon="4.95724">
        <ele>476</ele>
      </trkpt>
      <trkpt lat="44.48573" lon="4.95704">
        <ele>476</ele>
      </trkpt>
      <trkpt lat="44.48605" lon="4.9568">
        <ele>478</ele>
      </trkpt>
      <trkpt lat="44.48623" lon="4.9567">
        <ele>478</ele>
      </trkpt>
      <trkpt lat="44.48652" lon="4.95669">
        <ele>481</ele>
      </trkpt>
      <trkpt lat="44.48672" lon="4.95678">
        <ele>483</ele>
      </trkpt>
      <trkpt lat="44.48749" lon="4.95722">
        <ele>490</ele>
      </trkpt>
      <trkpt lat="44.48783" lon="4.95746">
        <ele>493</ele>
      </trkpt>
      <trkpt lat="44.48821" lon="4.95757">
        <ele>494</ele>
      </trkpt>
      <trkpt lat="44.48878" lon="4.95788">
        <ele>497</ele>
      </trkpt>
      <trkpt lat="44.48885" lon="4.95788">
        <ele>497</ele>
      </trkpt>
      <trkpt lat="44.48888" lon="4.95786">
        <ele>497</ele>
      </trkpt>
      <trkpt lat="44.4889" lon="4.95778">
        <ele>497</ele>
      </trkpt>
      <trkpt lat="44.48875" lon="4.95709">
        <ele>500</ele>
      </trkpt>
      <trkpt lat="44.48875" lon="4.9569">
        <ele>501</ele>
      </trkpt>
      <trkpt lat="44.48878" lon="4.95675">
        <ele>501</ele>
      </trkpt>
      <trkpt lat="44.489" lon="4.95644">
        <ele>503</ele>
      </trkpt>
      <trkpt lat="44.48956" lon="4.95589">
        <ele>505</ele>
      </trkpt>
      <trkpt lat="44.48972" lon="4.95577">
        <ele>506</ele>
      </trkpt>
      <trkpt lat="44.48992" lon="4.95563">
        <ele>507</ele>
      </trkpt>
      <trkpt lat="44.49031" lon="4.95544">
        <ele>507</ele>
      </trkpt>
      <trkpt lat="44.49073" lon="4.9554">
        <ele>507</ele>
      </trkpt>
      <trkpt lat="44.49112" lon="4.95511">
        <ele>506</ele>
      </trkpt>
      <trkpt lat="44.49138" lon="4.95488">
        <ele>507</ele>
      </trkpt>
      <trkpt lat="44.49152" lon="4.95461">
        <ele>507</ele>
      </trkpt>
      <trkpt lat="44.49165" lon="4.95408">
        <ele>507</ele>
      </trkpt>
      <trkpt lat="44.49178" lon="4.95374">
        <ele>506</ele>
      </trkpt>
      <trkpt lat="44.4919" lon="4.95331">
        <ele>508</ele>
      </trkpt>
      <trkpt lat="44.49206" lon="4.95252">
        <ele>506</ele>
      </trkpt>
      <trkpt lat="44.4922" lon="4.95208">
        <ele>505</ele>
      </trkpt>
      <trkpt lat="44.49302" lon="4.95089">
        <ele>501</ele>
      </trkpt>
      <trkpt lat="44.49361" lon="4.95019">
        <ele>503</ele>
      </trkpt>
      <trkpt lat="44.49398" lon="4.94952">
        <ele>500</ele>
      </trkpt>
      <trkpt lat="44.49441" lon="4.94892">
        <ele>500</ele>
      </trkpt>
      <trkpt lat="44.49485" lon="4.94838">
        <ele>496</ele>
      </trkpt>
      <trkpt lat="44.4956" lon="4.94771">
        <ele>492</ele>
      </trkpt>
      <trkpt lat="44.49574" lon="4.94763">
        <ele>493</ele>
      </trkpt>
      <trkpt lat="44.49588" lon="4.94751">
        <ele>493</ele>
      </trkpt>
      <trkpt lat="44.49598" lon="4.94738">
        <ele>492</ele>
      </trkpt>
      <trkpt lat="44.49622" lon="4.94714">
        <ele>492</ele>
      </trkpt>
      <trkpt lat="44.4965" lon="4.94669">
        <ele>493</ele>
      </trkpt>
      <trkpt lat="44.49654" lon="4.94644">
        <ele>493</ele>
      </trkpt>
      <trkpt lat="44.49653" lon="4.94587">
        <ele>493</ele>
      </trkpt>
      <trkpt lat="44.49629" lon="4.94412">
        <ele>494</ele>
      </trkpt>
      <trkpt lat="44.49612" lon="4.94346">
        <ele>495</ele>
      </trkpt>
      <trkpt lat="44.49584" lon="4.9428">
        <ele>493</ele>
      </trkpt>
      <trkpt lat="44.49549" lon="4.94202">
        <ele>487</ele>
      </trkpt>
      <trkpt lat="44.49534" lon="4.94132">
        <ele>488</ele>
      </trkpt>
      <trkpt lat="44.49518" lon="4.93989">
        <ele>489</ele>
      </trkpt>
      <trkpt lat="44.49513" lon="4.93955">
        <ele>490</ele>
      </trkpt>
      <trkpt lat="44.49513" lon="4.93932">
        <ele>491</ele>
      </trkpt>
      <trkpt lat="44.49516" lon="4.93902">
        <ele>492</ele>
      </trkpt>
      <trkpt lat="44.49514" lon="4.93884">
        <ele>492</ele>
      </trkpt>
      <trkpt lat="44.49506" lon="4.93863">
        <ele>491</ele>
      </trkpt>
      <trkpt lat="44.49497" lon="4.93846">
        <ele>490</ele>
      </trkpt>
      <trkpt lat="44.4949" lon="4.93816">
        <ele>489</ele>
      </trkpt>
      <trkpt lat="44.49489" lon="4.93765">
        <ele>487</ele>
      </trkpt>
      <trkpt lat="44.49493" lon="4.93724">
        <ele>486</ele>
      </trkpt>
      <trkpt lat="44.49499" lon="4.93708">
        <ele>484</ele>
      </trkpt>
      <trkpt lat="44.49501" lon="4.93695">
        <ele>484</ele>
      </trkpt>
      <trkpt lat="44.49491" lon="4.93675">
        <ele>483</ele>
      </trkpt>
      <trkpt lat="44.49497" lon="4.93658">
        <ele>481</ele>
      </trkpt>
      <trkpt lat="44.49509" lon="4.93636">
        <ele>480</ele>
      </trkpt>
      <trkpt lat="44.49524" lon="4.93615">
        <ele>480</ele>
      </trkpt>
      <trkpt lat="44.49532" lon="4.9361">
        <ele>480</ele>
      </trkpt>
      <trkpt lat="44.49543" lon="4.93609">
        <ele>478</ele>
      </trkpt>
      <trkpt lat="44.4956" lon="4.93615">
        <ele>479</ele>
      </trkpt>
      <trkpt lat="44.49609" lon="4.93643">
        <ele>479</ele>
      </trkpt>
      <trkpt lat="44.49629" lon="4.93647">
        <ele>478</ele>
      </trkpt>
      <trkpt lat="44.49648" lon="4.93641">
        <ele>478</ele>
      </trkpt>
      <trkpt lat="44.49685" lon="4.9361">
        <ele>472</ele>
      </trkpt>
      <trkpt lat="44.49693" lon="4.93607">
        <ele>471</ele>
      </trkpt>
      <trkpt lat="44.49707" lon="4.93606">
        <ele>471</ele>
      </trkpt>
      <trkpt lat="44.4972" lon="4.93614">
        <ele>468</ele>
      </trkpt>
      <trkpt lat="44.49729" lon="4.93626">
        <ele>468</ele>
      </trkpt>
      <trkpt lat="44.49736" lon="4.93639">
        <ele>468</ele>
      </trkpt>
      <trkpt lat="44.49753" lon="4.93702">
        <ele>468</ele>
      </trkpt>
      <trkpt lat="44.49757" lon="4.9371">
        <ele>468</ele>
      </trkpt>
      <trkpt lat="44.49767" lon="4.93719">
        <ele>466</ele>
      </trkpt>
      <trkpt lat="44.49777" lon="4.93722">
        <ele>466</ele>
      </trkpt>
      <trkpt lat="44.49788" lon="4.93721">
        <ele>466</ele>
      </trkpt>
      <trkpt lat="44.49798" lon="4.93716">
        <ele>465</ele>
      </trkpt>
      <trkpt lat="44.49846" lon="4.93669">
        <ele>464</ele>
      </trkpt>
      <trkpt lat="44.49865" lon="4.93657">
        <ele>463</ele>
      </trkpt>
      <trkpt lat="44.49878" lon="4.9365">
        <ele>462</ele>
      </trkpt>
      <trkpt lat="44.49932" lon="4.93632">
        <ele>458</ele>
      </trkpt>
      <trkpt lat="44.49959" lon="4.93625">
        <ele>456</ele>
      </trkpt>
      <trkpt lat="44.50006" lon="4.93623">
        <ele>454</ele>
      </trkpt>
      <trkpt lat="44.50018" lon="4.93625">
        <ele>452</ele>
      </trkpt>
      <trkpt lat="44.50026" lon="4.93632">
        <ele>451</ele>
      </trkpt>
      <trkpt lat="44.50034" lon="4.93645">
        <ele>452</ele>
      </trkpt>
      <trkpt lat="44.50036" lon="4.93659">
        <ele>452</ele>
      </trkpt>
      <trkpt lat="44.50033" lon="4.93675">
        <ele>451</ele>
      </trkpt>
      <trkpt lat="44.49995" lon="4.93734">
        <ele>445</ele>
      </trkpt>
      <trkpt lat="44.49986" lon="4.93758">
        <ele>444</ele>
      </trkpt>
      <trkpt lat="44.49969" lon="4.93944">
        <ele>434</ele>
      </trkpt>
      <trkpt lat="44.49964" lon="4.94028">
        <ele>432</ele>
      </trkpt>
      <trkpt lat="44.49968" lon="4.94054">
        <ele>432</ele>
      </trkpt>
      <trkpt lat="44.49984" lon="4.94075">
        <ele>431</ele>
      </trkpt>
      <trkpt lat="44.50221" lon="4.94226">
        <ele>422</ele>
      </trkpt>
      <trkpt lat="44.50236" lon="4.94226">
        <ele>422</ele>
      </trkpt>
      <trkpt lat="44.50249" lon="4.94217">
        <ele>420</ele>
      </trkpt>
      <trkpt lat="44.50276" lon="4.94175">
        <ele>417</ele>
      </trkpt>
      <trkpt lat="44.50293" lon="4.94158">
        <ele>414</ele>
      </trkpt>
      <trkpt lat="44.50315" lon="4.94147">
        <ele>414</ele>
      </trkpt>
      <trkpt lat="44.50448" lon="4.94103">
        <ele>414</ele>
      </trkpt>
      <trkpt lat="44.50468" lon="4.9409">
        <ele>417</ele>
      </trkpt>
      <trkpt lat="44.50484" lon="4.94075">
        <ele>411</ele>
      </trkpt>
      <trkpt lat="44.50569" lon="4.93968">
        <ele>401</ele>
      </trkpt>
      <trkpt lat="44.50617" lon="4.93922">
        <ele>401</ele>
      </trkpt>
      <trkpt lat="44.5067" lon="4.93877">
        <ele>389</ele>
      </trkpt>
      <trkpt lat="44.50685" lon="4.93867">
        <ele>389</ele>
      </trkpt>
      <trkpt lat="44.50703" lon="4.93862">
        <ele>388</ele>
      </trkpt>
      <trkpt lat="44.50734" lon="4.93858">
        <ele>383</ele>
      </trkpt>
      <trkpt lat="44.50773" lon="4.93847">
        <ele>387</ele>
      </trkpt>
      <trkpt lat="44.50807" lon="4.93825">
        <ele>384</ele>
      </trkpt>
      <trkpt lat="44.50839" lon="4.93796">
        <ele>380</ele>
      </trkpt>
      <trkpt lat="44.50883" lon="4.93726">
        <ele>368</ele>
      </trkpt>
      <trkpt lat="44.50896" lon="4.93719">
        <ele>363</ele>
      </trkpt>
      <trkpt lat="44.50915" lon="4.93717">
        <ele>360</ele>
      </trkpt>
      <trkpt lat="44.50929" lon="4.93722">
        <ele>364</ele>
      </trkpt>
      <trkpt lat="44.50941" lon="4.93731">
        <ele>361</ele>
      </trkpt>
      <trkpt lat="44.50946" lon="4.93743">
        <ele>362</ele>
      </trkpt>
      <trkpt lat="44.50946" lon="4.93757">
        <ele>368</ele>
      </trkpt>
      <trkpt lat="44.50942" lon="4.93784">
        <ele>375</ele>
      </trkpt>
      <trkpt lat="44.50943" lon="4.93797">
        <ele>376</ele>
      </trkpt>
      <trkpt lat="44.50952" lon="4.93809">
        <ele>380</ele>
      </trkpt>
      <trkpt lat="44.5096" lon="4.93811">
        <ele>378</ele>
      </trkpt>
      <trkpt lat="44.50967" lon="4.93811">
        <ele>377</ele>
      </trkpt>
      <trkpt lat="44.5109" lon="4.93776">
        <ele>357</ele>
      </trkpt>
      <trkpt lat="44.51132" lon="4.93772">
        <ele>354</ele>
      </trkpt>
      <trkpt lat="44.51214" lon="4.93782">
        <ele>359</ele>
      </trkpt>
      <trkpt lat="44.51283" lon="4.93779">
        <ele>359</ele>
      </trkpt>
      <trkpt lat="44.5145" lon="4.93736">
        <ele>340</ele>
      </trkpt>
      <trkpt lat="44.5149" lon="4.93738">
        <ele>333</ele>
      </trkpt>
      <trkpt lat="44.51571" lon="4.93774">
        <ele>330</ele>
      </trkpt>
      <trkpt lat="44.51596" lon="4.9378">
        <ele>336</ele>
      </trkpt>
      <trkpt lat="44.51641" lon="4.93784">
        <ele>328</ele>
      </trkpt>
      <trkpt lat="44.51739" lon="4.93803">
        <ele>317</ele>
      </trkpt>
      <trkpt lat="44.5175" lon="4.93808">
        <ele>319</ele>
      </trkpt>
      <trkpt lat="44.51758" lon="4.93818">
        <ele>319</ele>
      </trkpt>
      <trkpt lat="44.51764" lon="4.93833">
        <ele>321</ele>
      </trkpt>
      <trkpt lat="44.51769" lon="4.93898">
        <ele>318</ele>
      </trkpt>
      <trkpt lat="44.51771" lon="4.93977">
        <ele>319</ele>
      </trkpt>
      <trkpt lat="44.51768" lon="4.93991">
        <ele>319</ele>
      </trkpt>
      <trkpt lat="44.51762" lon="4.94003">
        <ele>322</ele>
      </trkpt>
      <trkpt lat="44.51729" lon="4.94043">
        <ele>324</ele>
      </trkpt>
      <trkpt lat="44.51724" lon="4.94055">
        <ele>323</ele>
      </trkpt>
      <trkpt lat="44.51728" lon="4.94074">
        <ele>323</ele>
      </trkpt>
      <trkpt lat="44.5173" lon="4.94078">
        <ele>324</ele>
      </trkpt>
      <trkpt lat="44.51738" lon="4.94081">
        <ele>323</ele>
      </trkpt>
      <trkpt lat="44.51746" lon="4.9408">
        <ele>324</ele>
      </trkpt>
      <trkpt lat="44.51815" lon="4.94024">
        <ele>318</ele>
      </trkpt>
      <trkpt lat="44.51825" lon="4.9401">
        <ele>322</ele>
      </trkpt>
      <trkpt lat="44.51833" lon="4.93994">
        <ele>324</ele>
      </trkpt>
      <trkpt lat="44.51835" lon="4.93979">
        <ele>324</ele>
      </trkpt>
      <trkpt lat="44.51834" lon="4.93931">
        <ele>325</ele>
      </trkpt>
      <trkpt lat="44.51869" lon="4.93766">
        <ele>313</ele>
      </trkpt>
      <trkpt lat="44.51882" lon="4.93735">
        <ele>312</ele>
      </trkpt>
      <trkpt lat="44.51896" lon="4.93719">
        <ele>308</ele>
      </trkpt>
      <trkpt lat="44.51957" lon="4.93688">
        <ele>306</ele>
      </trkpt>
      <trkpt lat="44.52007" lon="4.93665">
        <ele>306</ele>
      </trkpt>
      <trkpt lat="44.52062" lon="4.9366">
        <ele>303</ele>
      </trkpt>
      <trkpt lat="44.52126" lon="4.93648">
        <ele>291</ele>
      </trkpt>
      <trkpt lat="44.52138" lon="4.93652">
        <ele>289</ele>
      </trkpt>
      <trkpt lat="44.52185" lon="4.93698">
        <ele>303</ele>
      </trkpt>
      <trkpt lat="44.52196" lon="4.93701">
        <ele>303</ele>
      </trkpt>
      <trkpt lat="44.52245" lon="4.93695">
        <ele>298</ele>
      </trkpt>
      <trkpt lat="44.52259" lon="4.93699">
        <ele>298</ele>
      </trkpt>
      <trkpt lat="44.52282" lon="4.93713">
        <ele>298</ele>
      </trkpt>
      <trkpt lat="44.52294" lon="4.93714">
        <ele>299</ele>
      </trkpt>
      <trkpt lat="44.523" lon="4.93709">
        <ele>299</ele>
      </trkpt>
      <trkpt lat="44.52316" lon="4.93678">
        <ele>294</ele>
      </trkpt>
      <trkpt lat="44.52332" lon="4.93663">
        <ele>291</ele>
      </trkpt>
      <trkpt lat="44.52624" lon="4.93499">
        <ele>275</ele>
      </trkpt>
      <trkpt lat="44.52732" lon="4.93436">
        <ele>273</ele>
      </trkpt>
      <trkpt lat="44.52836" lon="4.9335">
        <ele>264</ele>
      </trkpt>
      <trkpt lat="44.53008" lon="4.93211">
        <ele>252</ele>
      </trkpt>
      <trkpt lat="44.53045" lon="4.93202">
        <ele>249</ele>
      </trkpt>
      <trkpt lat="44.53809" lon="4.93365">
        <ele>226</ele>
      </trkpt>
      <trkpt lat="44.53839" lon="4.93372">
        <ele>225</ele>
      </trkpt>
      <trkpt lat="44.54313" lon="4.93475">
        <ele>214</ele>
      </trkpt>
      <trkpt lat="44.54347" lon="4.93484">
        <ele>214</ele>
      </trkpt>
      <trkpt lat="44.5444" lon="4.93501">
        <ele>219</ele>
      </trkpt>
      <trkpt lat="44.54454" lon="4.93507">
        <ele>219</ele>
      </trkpt>
      <trkpt lat="44.54467" lon="4.93508">
        <ele>221</ele>
      </trkpt>
      <trkpt lat="44.54469" lon="4.93512">
        <ele>222</ele>
      </trkpt>
      <trkpt lat="44.5447" lon="4.9353">
        <ele>222</ele>
      </trkpt>
      <trkpt lat="44.54467" lon="4.9357">
        <ele>222</ele>
      </trkpt>
      <trkpt lat="44.54468" lon="4.93609">
        <ele>222</ele>
      </trkpt>
      <trkpt lat="44.54451" lon="4.93722">
        <ele>229</ele>
      </trkpt>
      <trkpt lat="44.54411" lon="4.93929">
        <ele>220</ele>
      </trkpt>
      <trkpt lat="44.54391" lon="4.94031">
        <ele>219</ele>
      </trkpt>
      <trkpt lat="44.54382" lon="4.94069">
        <ele>220</ele>
      </trkpt>
      <trkpt lat="44.54358" lon="4.94151">
        <ele>220</ele>
      </trkpt>
      <trkpt lat="44.54321" lon="4.94414">
        <ele>224</ele>
      </trkpt>
      <trkpt lat="44.54321" lon="4.94427">
        <ele>225</ele>
      </trkpt>
      <trkpt lat="44.54332" lon="4.94542">
        <ele>229</ele>
      </trkpt>
      <trkpt lat="44.54333" lon="4.94571">
        <ele>229</ele>
      </trkpt>
      <trkpt lat="44.54329" lon="4.94597">
        <ele>229</ele>
      </trkpt>
      <trkpt lat="44.54326" lon="4.94607">
        <ele>229</ele>
      </trkpt>
      <trkpt lat="44.54281" lon="4.94699">
        <ele>228</ele>
      </trkpt>
      <trkpt lat="44.54271" lon="4.94731">
        <ele>228</ele>
      </trkpt>
      <trkpt lat="44.5427" lon="4.94745">
        <ele>228</ele>
      </trkpt>
      <trkpt lat="44.54252" lon="4.94831">
        <ele>231</ele>
      </trkpt>
      <trkpt lat="44.54226" lon="4.94991">
        <ele>233</ele>
      </trkpt>
      <trkpt lat="44.54215" lon="4.95175">
        <ele>242</ele>
      </trkpt>
      <trkpt lat="44.5421" lon="4.95199">
        <ele>246</ele>
      </trkpt>
      <trkpt lat="44.54201" lon="4.95222">
        <ele>243</ele>
      </trkpt>
      <trkpt lat="44.54105" lon="4.95379">
        <ele>235</ele>
      </trkpt>
      <trkpt lat="44.54093" lon="4.95414">
        <ele>234</ele>
      </trkpt>
      <trkpt lat="44.5409" lon="4.95438">
        <ele>235</ele>
      </trkpt>
      <trkpt lat="44.54094" lon="4.95539">
        <ele>235</ele>
      </trkpt>
      <trkpt lat="44.5409" lon="4.9557">
        <ele>234</ele>
      </trkpt>
      <trkpt lat="44.54079" lon="4.9563">
        <ele>235</ele>
      </trkpt>
      <trkpt lat="44.54063" lon="4.9569">
        <ele>237</ele>
      </trkpt>
      <trkpt lat="44.54053" lon="4.95714">
        <ele>240</ele>
      </trkpt>
      <trkpt lat="44.54038" lon="4.95746">
        <ele>238</ele>
      </trkpt>
      <trkpt lat="44.53992" lon="4.9583">
        <ele>240</ele>
      </trkpt>
      <trkpt lat="44.53964" lon="4.95877">
        <ele>240</ele>
      </trkpt>
      <trkpt lat="44.53934" lon="4.95924">
        <ele>238</ele>
      </trkpt>
      <trkpt lat="44.53905" lon="4.9596">
        <ele>237</ele>
      </trkpt>
      <trkpt lat="44.53882" lon="4.95997">
        <ele>237</ele>
      </trkpt>
      <trkpt lat="44.53872" lon="4.96018">
        <ele>237</ele>
      </trkpt>
      <trkpt lat="44.5386" lon="4.96058">
        <ele>236</ele>
      </trkpt>
      <trkpt lat="44.53855" lon="4.96096">
        <ele>236</ele>
      </trkpt>
      <trkpt lat="44.53843" lon="4.96165">
        <ele>239</ele>
      </trkpt>
      <trkpt lat="44.53831" lon="4.9621">
        <ele>247</ele>
      </trkpt>
      <trkpt lat="44.53808" lon="4.96252">
        <ele>252</ele>
      </trkpt>
      <trkpt lat="44.53782" lon="4.96282">
        <ele>252</ele>
      </trkpt>
      <trkpt lat="44.53757" lon="4.96306">
        <ele>251</ele>
      </trkpt>
      <trkpt lat="44.53705" lon="4.96346">
        <ele>247</ele>
      </trkpt>
      <trkpt lat="44.53658" lon="4.96377">
        <ele>249</ele>
      </trkpt>
      <trkpt lat="44.53575" lon="4.96411">
        <ele>246</ele>
      </trkpt>
      <trkpt lat="44.53536" lon="4.96433">
        <ele>245</ele>
      </trkpt>
      <trkpt lat="44.53511" lon="4.96454">
        <ele>245</ele>
      </trkpt>
      <trkpt lat="44.53486" lon="4.96488">
        <ele>248</ele>
      </trkpt>
      <trkpt lat="44.53446" lon="4.96547">
        <ele>253</ele>
      </trkpt>
      <trkpt lat="44.53417" lon="4.96584">
        <ele>259</ele>
      </trkpt>
      <trkpt lat="44.53398" lon="4.96602">
        <ele>255</ele>
      </trkpt>
      <trkpt lat="44.53179" lon="4.9672">
        <ele>259</ele>
      </trkpt>
      <trkpt lat="44.53154" lon="4.96741">
        <ele>265</ele>
      </trkpt>
      <trkpt lat="44.53139" lon="4.96757">
        <ele>270</ele>
      </trkpt>
      <trkpt lat="44.53119" lon="4.96782">
        <ele>270</ele>
      </trkpt>
      <trkpt lat="44.53095" lon="4.96819">
        <ele>269</ele>
      </trkpt>
      <trkpt lat="44.53044" lon="4.96744">
        <ele>255</ele>
      </trkpt>
      <trkpt lat="44.53017" lon="4.96706">
        <ele>258</ele>
      </trkpt>
      <trkpt lat="44.53006" lon="4.96693">
        <ele>262</ele>
      </trkpt>
      <trkpt lat="44.52986" lon="4.96697">
        <ele>261</ele>
      </trkpt>
      <trkpt lat="44.52905" lon="4.96741">
        <ele>263</ele>
      </trkpt>
      <trkpt lat="44.5289" lon="4.96734">
        <ele>267</ele>
      </trkpt>
      <trkpt lat="44.52851" lon="4.96725">
        <ele>268</ele>
      </trkpt>
    </trkseg>
  </trk>
  <trk>
    <name><![CDATA[Souspierre_5]]></name>
    <extensions>
      <line xmlns="http://www.topografix.com/GPX/gpx_style/0/2">
        <color>FFFF00</color>
        <width>6</width>
      </line>
    </extensions>
    <trkseg>
      <trkpt lat="44.5285" lon="4.96725">
        <ele>268</ele>
      </trkpt>
      <trkpt lat="44.5289" lon="4.96734">
        <ele>267</ele>
      </trkpt>
      <trkpt lat="44.52905" lon="4.96741">
        <ele>263</ele>
      </trkpt>
      <trkpt lat="44.52986" lon="4.96697">
        <ele>261</ele>
      </trkpt>
      <trkpt lat="44.53006" lon="4.96693">
        <ele>262</ele>
      </trkpt>
      <trkpt lat="44.53017" lon="4.96706">
        <ele>258</ele>
      </trkpt>
      <trkpt lat="44.53044" lon="4.96744">
        <ele>255</ele>
      </trkpt>
      <trkpt lat="44.53095" lon="4.96819">
        <ele>269</ele>
      </trkpt>
      <trkpt lat="44.53049" lon="4.96897">
        <ele>264</ele>
      </trkpt>
      <trkpt lat="44.52629" lon="4.9755">
        <ele>263</ele>
      </trkpt>
      <trkpt lat="44.52591" lon="4.97628">
        <ele>265</ele>
      </trkpt>
      <trkpt lat="44.5257" lon="4.97698">
        <ele>265</ele>
      </trkpt>
      <trkpt lat="44.52558" lon="4.97767">
        <ele>266</ele>
      </trkpt>
      <trkpt lat="44.52555" lon="4.97824">
        <ele>266</ele>
      </trkpt>
      <trkpt lat="44.52555" lon="4.97995">
        <ele>273</ele>
      </trkpt>
      <trkpt lat="44.52557" lon="4.98064">
        <ele>275</ele>
      </trkpt>
      <trkpt lat="44.52557" lon="4.98101">
        <ele>276</ele>
      </trkpt>
      <trkpt lat="44.52559" lon="4.98139">
        <ele>276</ele>
      </trkpt>
      <trkpt lat="44.52563" lon="4.98167">
        <ele>277</ele>
      </trkpt>
      <trkpt lat="44.52598" lon="4.98287">
        <ele>279</ele>
      </trkpt>
      <trkpt lat="44.52683" lon="4.98563">
        <ele>289</ele>
      </trkpt>
      <trkpt lat="44.52703" lon="4.9861">
        <ele>287</ele>
      </trkpt>
      <trkpt lat="44.52726" lon="4.9865">
        <ele>287</ele>
      </trkpt>
      <trkpt lat="44.52971" lon="4.98966">
        <ele>286</ele>
      </trkpt>
      <trkpt lat="44.53005" lon="4.99021">
        <ele>287</ele>
      </trkpt>
      <trkpt lat="44.53024" lon="4.99057">
        <ele>289</ele>
      </trkpt>
      <trkpt lat="44.53052" lon="4.99125">
        <ele>290</ele>
      </trkpt>
      <trkpt lat="44.53064" lon="4.99161">
        <ele>287</ele>
      </trkpt>
      <trkpt lat="44.53231" lon="4.99785">
        <ele>292</ele>
      </trkpt>
      <trkpt lat="44.5324" lon="4.99833">
        <ele>295</ele>
      </trkpt>
      <trkpt lat="44.53247" lon="4.9989">
        <ele>294</ele>
      </trkpt>
      <trkpt lat="44.53248" lon="4.99967">
        <ele>296</ele>
      </trkpt>
      <trkpt lat="44.53244" lon="5.00027">
        <ele>299</ele>
      </trkpt>
      <trkpt lat="44.53235" lon="5.00081">
        <ele>297</ele>
      </trkpt>
      <trkpt lat="44.53191" lon="5.00272">
        <ele>301</ele>
      </trkpt>
      <trkpt lat="44.53167" lon="5.00399">
        <ele>301</ele>
      </trkpt>
      <trkpt lat="44.53159" lon="5.00454">
        <ele>301</ele>
      </trkpt>
      <trkpt lat="44.5312" lon="5.00837">
        <ele>309</ele>
      </trkpt>
      <trkpt lat="44.53109" lon="5.00982">
        <ele>308</ele>
      </trkpt>
      <trkpt lat="44.53107" lon="5.01034">
        <ele>310</ele>
      </trkpt>
      <trkpt lat="44.53102" lon="5.01084">
        <ele>312</ele>
      </trkpt>
      <trkpt lat="44.53082" lon="5.012">
        <ele>314</ele>
      </trkpt>
      <trkpt lat="44.5307" lon="5.01254">
        <ele>315</ele>
      </trkpt>
      <trkpt lat="44.53047" lon="5.0133">
        <ele>316</ele>
      </trkpt>
      <trkpt lat="44.53026" lon="5.01415">
        <ele>318</ele>
      </trkpt>
      <trkpt lat="44.52958" lon="5.0166">
        <ele>314</ele>
      </trkpt>
      <trkpt lat="44.52955" lon="5.01681">
        <ele>314</ele>
      </trkpt>
      <trkpt lat="44.52963" lon="5.01975">
        <ele>313</ele>
      </trkpt>
      <trkpt lat="44.52965" lon="5.021">
        <ele>317</ele>
      </trkpt>
      <trkpt lat="44.52958" lon="5.02355">
        <ele>324</ele>
      </trkpt>
      <trkpt lat="44.52955" lon="5.02418">
        <ele>326</ele>
      </trkpt>
      <trkpt lat="44.52946" lon="5.02456">
        <ele>327</ele>
      </trkpt>
      <trkpt lat="44.52934" lon="5.02489">
        <ele>328</ele>
      </trkpt>
      <trkpt lat="44.52911" lon="5.02533">
        <ele>328</ele>
      </trkpt>
      <trkpt lat="44.52881" lon="5.02578">
        <ele>328</ele>
      </trkpt>
      <trkpt lat="44.52703" lon="5.02801">
        <ele>328</ele>
      </trkpt>
      <trkpt lat="44.52691" lon="5.02819">
        <ele>329</ele>
      </trkpt>
      <trkpt lat="44.52684" lon="5.02834">
        <ele>330</ele>
      </trkpt>
      <trkpt lat="44.52671" lon="5.02866">
        <ele>332</ele>
      </trkpt>
      <trkpt lat="44.52619" lon="5.03041">
        <ele>332</ele>
      </trkpt>
      <trkpt lat="44.52604" lon="5.03112">
        <ele>333</ele>
      </trkpt>
      <trkpt lat="44.52593" lon="5.03174">
        <ele>331</ele>
      </trkpt>
      <trkpt lat="44.5258" lon="5.03264">
        <ele>332</ele>
      </trkpt>
      <trkpt lat="44.52569" lon="5.03357">
        <ele>334</ele>
      </trkpt>
      <trkpt lat="44.52555" lon="5.03566">
        <ele>336</ele>
      </trkpt>
      <trkpt lat="44.5256" lon="5.03569">
        <ele>336</ele>
      </trkpt>
      <trkpt lat="44.52664" lon="5.03602">
        <ele>348</ele>
      </trkpt>
      <trkpt lat="44.52673" lon="5.03612">
        <ele>349</ele>
      </trkpt>
      <trkpt lat="44.52686" lon="5.03632">
        <ele>354</ele>
      </trkpt>
      <trkpt lat="44.52693" lon="5.03663">
        <ele>355</ele>
      </trkpt>
      <trkpt lat="44.52699" lon="5.03698">
        <ele>356</ele>
      </trkpt>
      <trkpt lat="44.52702" lon="5.03739">
        <ele>357</ele>
      </trkpt>
      <trkpt lat="44.52705" lon="5.03752">
        <ele>358</ele>
      </trkpt>
      <trkpt lat="44.52709" lon="5.03759">
        <ele>358</ele>
      </trkpt>
      <trkpt lat="44.52754" lon="5.038">
        <ele>364</ele>
      </trkpt>
      <trkpt lat="44.52763" lon="5.03823">
        <ele>365</ele>
      </trkpt>
      <trkpt lat="44.52807" lon="5.03972">
        <ele>372</ele>
      </trkpt>
      <trkpt lat="44.52814" lon="5.03989">
        <ele>374</ele>
      </trkpt>
      <trkpt lat="44.52823" lon="5.03996">
        <ele>374</ele>
      </trkpt>
      <trkpt lat="44.52838" lon="5.03999">
        <ele>374</ele>
      </trkpt>
      <trkpt lat="44.52851" lon="5.04006">
        <ele>375</ele>
      </trkpt>
      <trkpt lat="44.52861" lon="5.04016">
        <ele>375</ele>
      </trkpt>
      <trkpt lat="44.52861" lon="5.04041">
        <ele>375</ele>
      </trkpt>
      <trkpt lat="44.52843" lon="5.04067">
        <ele>378</ele>
      </trkpt>
      <trkpt lat="44.52802" lon="5.04083">
        <ele>383</ele>
      </trkpt>
      <trkpt lat="44.52744" lon="5.04109">
        <ele>391</ele>
      </trkpt>
      <trkpt lat="44.52737" lon="5.0413">
        <ele>393</ele>
      </trkpt>
      <trkpt lat="44.52744" lon="5.04174">
        <ele>394</ele>
      </trkpt>
      <trkpt lat="44.52761" lon="5.0424">
        <ele>393</ele>
      </trkpt>
      <trkpt lat="44.52772" lon="5.04298">
        <ele>392</ele>
      </trkpt>
      <trkpt lat="44.52762" lon="5.04376">
        <ele>398</ele>
      </trkpt>
      <trkpt lat="44.52747" lon="5.04426">
        <ele>404</ele>
      </trkpt>
      <trkpt lat="44.52722" lon="5.04481">
        <ele>409</ele>
      </trkpt>
      <trkpt lat="44.52696" lon="5.04513">
        <ele>411</ele>
      </trkpt>
      <trkpt lat="44.52631" lon="5.04576">
        <ele>416</ele>
      </trkpt>
      <trkpt lat="44.52611" lon="5.04615">
        <ele>421</ele>
      </trkpt>
      <trkpt lat="44.5258" lon="5.04701">
        <ele>425</ele>
      </trkpt>
      <trkpt lat="44.52569" lon="5.04774">
        <ele>422</ele>
      </trkpt>
      <trkpt lat="44.5257" lon="5.04819">
        <ele>424</ele>
      </trkpt>
      <trkpt lat="44.52573" lon="5.04852">
        <ele>430</ele>
      </trkpt>
      <trkpt lat="44.52584" lon="5.04901">
        <ele>429</ele>
      </trkpt>
      <trkpt lat="44.52609" lon="5.04995">
        <ele>426</ele>
      </trkpt>
      <trkpt lat="44.52625" lon="5.0503">
        <ele>424</ele>
      </trkpt>
      <trkpt lat="44.52677" lon="5.05113">
        <ele>420</ele>
      </trkpt>
      <trkpt lat="44.52712" lon="5.05139">
        <ele>425</ele>
      </trkpt>
      <trkpt lat="44.52765" lon="5.05193">
        <ele>424</ele>
      </trkpt>
      <trkpt lat="44.52817" lon="5.0525">
        <ele>424</ele>
      </trkpt>
      <trkpt lat="44.52833" lon="5.0527">
        <ele>425</ele>
      </trkpt>
      <trkpt lat="44.52858" lon="5.0534">
        <ele>420</ele>
      </trkpt>
      <trkpt lat="44.52881" lon="5.05366">
        <ele>419</ele>
      </trkpt>
      <trkpt lat="44.52888" lon="5.05381">
        <ele>419</ele>
      </trkpt>
      <trkpt lat="44.52885" lon="5.05439">
        <ele>416</ele>
      </trkpt>
      <trkpt lat="44.52872" lon="5.05507">
        <ele>415</ele>
      </trkpt>
      <trkpt lat="44.5285" lon="5.05539">
        <ele>416</ele>
      </trkpt>
      <trkpt lat="44.52822" lon="5.05583">
        <ele>417</ele>
      </trkpt>
      <trkpt lat="44.52796" lon="5.05639">
        <ele>415</ele>
      </trkpt>
      <trkpt lat="44.52768" lon="5.05691">
        <ele>413</ele>
      </trkpt>
      <trkpt lat="44.52764" lon="5.05706">
        <ele>412</ele>
      </trkpt>
      <trkpt lat="44.52754" lon="5.05761">
        <ele>410</ele>
      </trkpt>
      <trkpt lat="44.52745" lon="5.05832">
        <ele>409</ele>
      </trkpt>
      <trkpt lat="44.52733" lon="5.05869">
        <ele>403</ele>
      </trkpt>
      <trkpt lat="44.52731" lon="5.05887">
        <ele>402</ele>
      </trkpt>
      <trkpt lat="44.52641" lon="5.05955">
        <ele>392</ele>
      </trkpt>
      <trkpt lat="44.52619" lon="5.05975">
        <ele>391</ele>
      </trkpt>
      <trkpt lat="44.52603" lon="5.05974">
        <ele>391</ele>
      </trkpt>
      <trkpt lat="44.52544" lon="5.05979">
        <ele>393</ele>
      </trkpt>
      <trkpt lat="44.52536" lon="5.05976">
        <ele>392</ele>
      </trkpt>
      <trkpt lat="44.5251" lon="5.05977">
        <ele>390</ele>
      </trkpt>
      <trkpt lat="44.52505" lon="5.05981">
        <ele>390</ele>
      </trkpt>
      <trkpt lat="44.52503" lon="5.05985">
        <ele>390</ele>
      </trkpt>
      <trkpt lat="44.52503" lon="5.05994">
        <ele>390</ele>
      </trkpt>
      <trkpt lat="44.52507" lon="5.06001">
        <ele>390</ele>
      </trkpt>
      <trkpt lat="44.52501" lon="5.0602">
        <ele>389</ele>
      </trkpt>
      <trkpt lat="44.52478" lon="5.06066">
        <ele>386</ele>
      </trkpt>
      <trkpt lat="44.52469" lon="5.06098">
        <ele>386</ele>
      </trkpt>
      <trkpt lat="44.52457" lon="5.06116">
        <ele>384</ele>
      </trkpt>
      <trkpt lat="44.52452" lon="5.06114">
        <ele>384</ele>
      </trkpt>
      <trkpt lat="44.52447" lon="5.06116">
        <ele>384</ele>
      </trkpt>
      <trkpt lat="44.52445" lon="5.06123">
        <ele>384</ele>
      </trkpt>
      <trkpt lat="44.52447" lon="5.06131">
        <ele>384</ele>
      </trkpt>
      <trkpt lat="44.52348" lon="5.063">
        <ele>379</ele>
      </trkpt>
      <trkpt lat="44.52344" lon="5.06305">
        <ele>378</ele>
      </trkpt>
      <trkpt lat="44.52339" lon="5.06308">
        <ele>377</ele>
      </trkpt>
      <trkpt lat="44.52334" lon="5.06304">
        <ele>378</ele>
      </trkpt>
      <trkpt lat="44.5233" lon="5.06306">
        <ele>377</ele>
      </trkpt>
      <trkpt lat="44.52328" lon="5.06314">
        <ele>376</ele>
      </trkpt>
      <trkpt lat="44.52332" lon="5.06321">
        <ele>376</ele>
      </trkpt>
      <trkpt lat="44.52329" lon="5.06329">
        <ele>376</ele>
      </trkpt>
      <trkpt lat="44.52316" lon="5.06357">
        <ele>375</ele>
      </trkpt>
      <trkpt lat="44.52301" lon="5.06384">
        <ele>374</ele>
      </trkpt>
      <trkpt lat="44.52286" lon="5.06413">
        <ele>377</ele>
      </trkpt>
      <trkpt lat="44.52281" lon="5.0643">
        <ele>379</ele>
      </trkpt>
      <trkpt lat="44.52278" lon="5.06465">
        <ele>382</ele>
      </trkpt>
      <trkpt lat="44.52278" lon="5.06485">
        <ele>385</ele>
      </trkpt>
      <trkpt lat="44.52284" lon="5.06511">
        <ele>388</ele>
      </trkpt>
      <trkpt lat="44.52288" lon="5.06517">
        <ele>388</ele>
      </trkpt>
      <trkpt lat="44.52297" lon="5.06524">
        <ele>388</ele>
      </trkpt>
      <trkpt lat="44.52311" lon="5.06537">
        <ele>390</ele>
      </trkpt>
      <trkpt lat="44.52308" lon="5.06552">
        <ele>391</ele>
      </trkpt>
      <trkpt lat="44.5231" lon="5.06559">
        <ele>393</ele>
      </trkpt>
      <trkpt lat="44.5228" lon="5.06578">
        <ele>392</ele>
      </trkpt>
      <trkpt lat="44.5222" lon="5.06626">
        <ele>393</ele>
      </trkpt>
      <trkpt lat="44.52196" lon="5.06659">
        <ele>392</ele>
      </trkpt>
      <trkpt lat="44.5219" lon="5.0667">
        <ele>393</ele>
      </trkpt>
      <trkpt lat="44.5217" lon="5.06778">
        <ele>393</ele>
      </trkpt>
      <trkpt lat="44.52159" lon="5.06818">
        <ele>394</ele>
      </trkpt>
      <trkpt lat="44.52124" lon="5.06895">
        <ele>395</ele>
      </trkpt>
      <trkpt lat="44.52109" lon="5.06933">
        <ele>397</ele>
      </trkpt>
      <trkpt lat="44.52066" lon="5.07089">
        <ele>400</ele>
      </trkpt>
      <trkpt lat="44.52031" lon="5.07163">
        <ele>400</ele>
      </trkpt>
      <trkpt lat="44.52022" lon="5.07188">
        <ele>402</ele>
      </trkpt>
      <trkpt lat="44.52005" lon="5.07275">
        <ele>411</ele>
      </trkpt>
      <trkpt lat="44.51937" lon="5.07556">
        <ele>425</ele>
      </trkpt>
      <trkpt lat="44.51901" lon="5.0775">
        <ele>419</ele>
      </trkpt>
      <trkpt lat="44.5188" lon="5.07807">
        <ele>420</ele>
      </trkpt>
      <trkpt lat="44.51858" lon="5.07856">
        <ele>416</ele>
      </trkpt>
      <trkpt lat="44.51839" lon="5.07925">
        <ele>413</ele>
      </trkpt>
      <trkpt lat="44.51834" lon="5.07937">
        <ele>413</ele>
      </trkpt>
      <trkpt lat="44.51818" lon="5.07966">
        <ele>415</ele>
      </trkpt>
      <trkpt lat="44.51777" lon="5.08014">
        <ele>415</ele>
      </trkpt>
      <trkpt lat="44.51835" lon="5.08227">
        <ele>421</ele>
      </trkpt>
      <trkpt lat="44.51848" lon="5.08262">
        <ele>423</ele>
      </trkpt>
      <trkpt lat="44.51916" lon="5.08402">
        <ele>427</ele>
      </trkpt>
      <trkpt lat="44.5197" lon="5.08491">
        <ele>427</ele>
      </trkpt>
      <trkpt lat="44.52017" lon="5.08574">
        <ele>430</ele>
      </trkpt>
      <trkpt lat="44.52034" lon="5.08626">
        <ele>430</ele>
      </trkpt>
      <trkpt lat="44.52046" lon="5.08651">
        <ele>431</ele>
      </trkpt>
      <trkpt lat="44.52111" lon="5.08726">
        <ele>434</ele>
      </trkpt>
      <trkpt lat="44.52129" lon="5.0874">
        <ele>436</ele>
      </trkpt>
      <trkpt lat="44.52315" lon="5.08818">
        <ele>442</ele>
      </trkpt>
      <trkpt lat="44.52436" lon="5.08866">
        <ele>447</ele>
      </trkpt>
      <trkpt lat="44.52539" lon="5.08911">
        <ele>456</ele>
      </trkpt>
      <trkpt lat="44.52556" lon="5.08922">
        <ele>458</ele>
      </trkpt>
      <trkpt lat="44.52576" lon="5.08941">
        <ele>463</ele>
      </trkpt>
      <trkpt lat="44.52606" lon="5.08979">
        <ele>465</ele>
      </trkpt>
      <trkpt lat="44.52618" lon="5.08999">
        <ele>466</ele>
      </trkpt>
      <trkpt lat="44.52745" lon="5.09263">
        <ele>476</ele>
      </trkpt>
      <trkpt lat="44.52768" lon="5.09344">
        <ele>484</ele>
      </trkpt>
      <trkpt lat="44.52799" lon="5.09409">
        <ele>493</ele>
      </trkpt>
      <trkpt lat="44.52846" lon="5.09501">
        <ele>493</ele>
      </trkpt>
      <trkpt lat="44.52903" lon="5.09595">
        <ele>495</ele>
      </trkpt>
      <trkpt lat="44.52932" lon="5.09637">
        <ele>508</ele>
      </trkpt>
      <trkpt lat="44.52946" lon="5.09667">
        <ele>503</ele>
      </trkpt>
      <trkpt lat="44.52961" lon="5.09713">
        <ele>507</ele>
      </trkpt>
      <trkpt lat="44.53002" lon="5.09827">
        <ele>510</ele>
      </trkpt>
      <trkpt lat="44.53022" lon="5.09866">
        <ele>511</ele>
      </trkpt>
      <trkpt lat="44.53036" lon="5.09904">
        <ele>508</ele>
      </trkpt>
      <trkpt lat="44.53044" lon="5.0992">
        <ele>518</ele>
      </trkpt>
      <trkpt lat="44.53056" lon="5.09937">
        <ele>521</ele>
      </trkpt>
      <trkpt lat="44.53063" lon="5.09955">
        <ele>519</ele>
      </trkpt>
      <trkpt lat="44.53074" lon="5.09997">
        <ele>522</ele>
      </trkpt>
      <trkpt lat="44.53082" lon="5.10016">
        <ele>516</ele>
      </trkpt>
      <trkpt lat="44.53103" lon="5.10054">
        <ele>521</ele>
      </trkpt>
      <trkpt lat="44.53134" lon="5.10138">
        <ele>530</ele>
      </trkpt>
      <trkpt lat="44.53151" lon="5.10179">
        <ele>527</ele>
      </trkpt>
      <trkpt lat="44.53159" lon="5.1021">
        <ele>530</ele>
      </trkpt>
      <trkpt lat="44.53166" lon="5.10251">
        <ele>527</ele>
      </trkpt>
      <trkpt lat="44.53168" lon="5.10282">
        <ele>525</ele>
      </trkpt>
      <trkpt lat="44.53168" lon="5.10313">
        <ele>524</ele>
      </trkpt>
      <trkpt lat="44.5317" lon="5.10342">
        <ele>521</ele>
      </trkpt>
      <trkpt lat="44.53174" lon="5.10366">
        <ele>519</ele>
      </trkpt>
      <trkpt lat="44.53187" lon="5.10389">
        <ele>522</ele>
      </trkpt>
      <trkpt lat="44.5323" lon="5.10425">
        <ele>520</ele>
      </trkpt>
      <trkpt lat="44.53293" lon="5.10486">
        <ele>525</ele>
      </trkpt>
      <trkpt lat="44.53316" lon="5.10514">
        <ele>522</ele>
      </trkpt>
      <trkpt lat="44.53341" lon="5.10539">
        <ele>522</ele>
      </trkpt>
      <trkpt lat="44.53394" lon="5.10581">
        <ele>529</ele>
      </trkpt>
      <trkpt lat="44.53448" lon="5.10627">
        <ele>532</ele>
      </trkpt>
      <trkpt lat="44.53466" lon="5.10647">
        <ele>535</ele>
      </trkpt>
      <trkpt lat="44.53535" lon="5.10741">
        <ele>536</ele>
      </trkpt>
      <trkpt lat="44.5356" lon="5.10764">
        <ele>537</ele>
      </trkpt>
      <trkpt lat="44.53672" lon="5.10853">
        <ele>546</ele>
      </trkpt>
      <trkpt lat="44.53682" lon="5.10864">
        <ele>551</ele>
      </trkpt>
      <trkpt lat="44.53685" lon="5.1087">
        <ele>551</ele>
      </trkpt>
      <trkpt lat="44.53685" lon="5.10878">
        <ele>551</ele>
      </trkpt>
      <trkpt lat="44.53681" lon="5.10885">
        <ele>547</ele>
      </trkpt>
      <trkpt lat="44.53629" lon="5.10952">
        <ele>556</ele>
      </trkpt>
      <trkpt lat="44.53621" lon="5.10972">
        <ele>554</ele>
      </trkpt>
      <trkpt lat="44.53621" lon="5.10982">
        <ele>556</ele>
      </trkpt>
      <trkpt lat="44.53624" lon="5.10993">
        <ele>557</ele>
      </trkpt>
      <trkpt lat="44.53639" lon="5.11019">
        <ele>563</ele>
      </trkpt>
      <trkpt lat="44.53656" lon="5.11086">
        <ele>579</ele>
      </trkpt>
      <trkpt lat="44.53658" lon="5.11102">
        <ele>581</ele>
      </trkpt>
      <trkpt lat="44.53655" lon="5.1112">
        <ele>582</ele>
      </trkpt>
      <trkpt lat="44.5365" lon="5.11137">
        <ele>575</ele>
      </trkpt>
      <trkpt lat="44.5365" lon="5.11144">
        <ele>576</ele>
      </trkpt>
      <trkpt lat="44.53652" lon="5.11148">
        <ele>577</ele>
      </trkpt>
      <trkpt lat="44.53655" lon="5.11149">
        <ele>583</ele>
      </trkpt>
      <trkpt lat="44.53659" lon="5.11147">
        <ele>584</ele>
      </trkpt>
      <trkpt lat="44.53664" lon="5.11141">
        <ele>584</ele>
      </trkpt>
      <trkpt lat="44.53672" lon="5.11116">
        <ele>584</ele>
      </trkpt>
      <trkpt lat="44.53679" lon="5.11054">
        <ele>579</ele>
      </trkpt>
      <trkpt lat="44.53689" lon="5.11021">
        <ele>583</ele>
      </trkpt>
      <trkpt lat="44.53694" lon="5.11012">
        <ele>583</ele>
      </trkpt>
      <trkpt lat="44.53722" lon="5.11">
        <ele>584</ele>
      </trkpt>
      <trkpt lat="44.53757" lon="5.10994">
        <ele>587</ele>
      </trkpt>
      <trkpt lat="44.53777" lon="5.10977">
        <ele>588</ele>
      </trkpt>
      <trkpt lat="44.53805" lon="5.10972">
        <ele>585</ele>
      </trkpt>
      <trkpt lat="44.5384" lon="5.10978">
        <ele>593</ele>
      </trkpt>
      <trkpt lat="44.53879" lon="5.10972">
        <ele>588</ele>
      </trkpt>
      <trkpt lat="44.53885" lon="5.10978">
        <ele>593</ele>
      </trkpt>
      <trkpt lat="44.53885" lon="5.10985">
        <ele>594</ele>
      </trkpt>
      <trkpt lat="44.53881" lon="5.10991">
        <ele>595</ele>
      </trkpt>
      <trkpt lat="44.53814" lon="5.11007">
        <ele>600</ele>
      </trkpt>
      <trkpt lat="44.53775" lon="5.11049">
        <ele>608</ele>
      </trkpt>
      <trkpt lat="44.53744" lon="5.11068">
        <ele>609</ele>
      </trkpt>
      <trkpt lat="44.53742" lon="5.11072">
        <ele>609</ele>
      </trkpt>
      <trkpt lat="44.53741" lon="5.1108">
        <ele>609</ele>
      </trkpt>
      <trkpt lat="44.53746" lon="5.11086">
        <ele>610</ele>
      </trkpt>
      <trkpt lat="44.53752" lon="5.11085">
        <ele>611</ele>
      </trkpt>
      <trkpt lat="44.53768" lon="5.11071">
        <ele>615</ele>
      </trkpt>
      <trkpt lat="44.53806" lon="5.11053">
        <ele>612</ele>
      </trkpt>
      <trkpt lat="44.53845" lon="5.11044">
        <ele>614</ele>
      </trkpt>
      <trkpt lat="44.53892" lon="5.11044">
        <ele>611</ele>
      </trkpt>
      <trkpt lat="44.53912" lon="5.11051">
        <ele>605</ele>
      </trkpt>
      <trkpt lat="44.53931" lon="5.11065">
        <ele>610</ele>
      </trkpt>
      <trkpt lat="44.53959" lon="5.11093">
        <ele>612</ele>
      </trkpt>
      <trkpt lat="44.53969" lon="5.11114">
        <ele>611</ele>
      </trkpt>
      <trkpt lat="44.53972" lon="5.11142">
        <ele>615</ele>
      </trkpt>
      <trkpt lat="44.53971" lon="5.11212">
        <ele>619</ele>
      </trkpt>
      <trkpt lat="44.53972" lon="5.11231">
        <ele>623</ele>
      </trkpt>
      <trkpt lat="44.53977" lon="5.11243">
        <ele>623</ele>
      </trkpt>
      <trkpt lat="44.53993" lon="5.11259">
        <ele>627</ele>
      </trkpt>
      <trkpt lat="44.54004" lon="5.11261">
        <ele>628</ele>
      </trkpt>
      <trkpt lat="44.54026" lon="5.11253">
        <ele>632</ele>
      </trkpt>
      <trkpt lat="44.54039" lon="5.11241">
        <ele>633</ele>
      </trkpt>
      <trkpt lat="44.54054" lon="5.1119">
        <ele>634</ele>
      </trkpt>
      <trkpt lat="44.5407" lon="5.11171">
        <ele>636</ele>
      </trkpt>
      <trkpt lat="44.54074" lon="5.11161">
        <ele>639</ele>
      </trkpt>
      <trkpt lat="44.54078" lon="5.1114">
        <ele>637</ele>
      </trkpt>
      <trkpt lat="44.54077" lon="5.11114">
        <ele>635</ele>
      </trkpt>
      <trkpt lat="44.54068" lon="5.11073">
        <ele>629</ele>
      </trkpt>
      <trkpt lat="44.54067" lon="5.11051">
        <ele>629</ele>
      </trkpt>
      <trkpt lat="44.5407" lon="5.11036">
        <ele>630</ele>
      </trkpt>
      <trkpt lat="44.54079" lon="5.11024">
        <ele>633</ele>
      </trkpt>
      <trkpt lat="44.54089" lon="5.1102">
        <ele>633</ele>
      </trkpt>
      <trkpt lat="44.54119" lon="5.11023">
        <ele>636</ele>
      </trkpt>
      <trkpt lat="44.54144" lon="5.11016">
        <ele>638</ele>
      </trkpt>
      <trkpt lat="44.54157" lon="5.10999">
        <ele>639</ele>
      </trkpt>
      <trkpt lat="44.54196" lon="5.10904">
        <ele>641</ele>
      </trkpt>
      <trkpt lat="44.54206" lon="5.10885">
        <ele>640</ele>
      </trkpt>
      <trkpt lat="44.54215" lon="5.10873">
        <ele>643</ele>
      </trkpt>
      <trkpt lat="44.5422" lon="5.10872">
        <ele>643</ele>
      </trkpt>
      <trkpt lat="44.54226" lon="5.10875">
        <ele>644</ele>
      </trkpt>
      <trkpt lat="44.54229" lon="5.10884">
        <ele>644</ele>
      </trkpt>
      <trkpt lat="44.54229" lon="5.10905">
        <ele>644</ele>
      </trkpt>
      <trkpt lat="44.54225" lon="5.10956">
        <ele>646</ele>
      </trkpt>
      <trkpt lat="44.54222" lon="5.11037">
        <ele>649</ele>
      </trkpt>
      <trkpt lat="44.54223" lon="5.11056">
        <ele>649</ele>
      </trkpt>
      <trkpt lat="44.54227" lon="5.11072">
        <ele>649</ele>
      </trkpt>
      <trkpt lat="44.5429" lon="5.11182">
        <ele>661</ele>
      </trkpt>
      <trkpt lat="44.54308" lon="5.11205">
        <ele>667</ele>
      </trkpt>
      <trkpt lat="44.54328" lon="5.11223">
        <ele>670</ele>
      </trkpt>
      <trkpt lat="44.54347" lon="5.11236">
        <ele>674</ele>
      </trkpt>
      <trkpt lat="44.54359" lon="5.11237">
        <ele>675</ele>
      </trkpt>
      <trkpt lat="44.54394" lon="5.11237">
        <ele>677</ele>
      </trkpt>
      <trkpt lat="44.54409" lon="5.11234">
        <ele>680</ele>
      </trkpt>
      <trkpt lat="44.54434" lon="5.11221">
        <ele>679</ele>
      </trkpt>
      <trkpt lat="44.54483" lon="5.11181">
        <ele>678</ele>
      </trkpt>
      <trkpt lat="44.54504" lon="5.11171">
        <ele>680</ele>
      </trkpt>
      <trkpt lat="44.54541" lon="5.11164">
        <ele>675</ele>
      </trkpt>
      <trkpt lat="44.5457" lon="5.11163">
        <ele>673</ele>
      </trkpt>
      <trkpt lat="44.54588" lon="5.11166">
        <ele>671</ele>
      </trkpt>
      <trkpt lat="44.54608" lon="5.11178">
        <ele>673</ele>
      </trkpt>
      <trkpt lat="44.54633" lon="5.11202">
        <ele>674</ele>
      </trkpt>
      <trkpt lat="44.5468" lon="5.11244">
        <ele>677</ele>
      </trkpt>
      <trkpt lat="44.54731" lon="5.11277">
        <ele>676</ele>
      </trkpt>
      <trkpt lat="44.54741" lon="5.11288">
        <ele>677</ele>
      </trkpt>
      <trkpt lat="44.54765" lon="5.11322">
        <ele>680</ele>
      </trkpt>
      <trkpt lat="44.54772" lon="5.11328">
        <ele>680</ele>
      </trkpt>
      <trkpt lat="44.54782" lon="5.11327">
        <ele>680</ele>
      </trkpt>
      <trkpt lat="44.54809" lon="5.1131">
        <ele>681</ele>
      </trkpt>
      <trkpt lat="44.54816" lon="5.1131">
        <ele>681</ele>
      </trkpt>
      <trkpt lat="44.54834" lon="5.11302">
        <ele>681</ele>
      </trkpt>
      <trkpt lat="44.54888" lon="5.1129">
        <ele>678</ele>
      </trkpt>
      <trkpt lat="44.54903" lon="5.11289">
        <ele>677</ele>
      </trkpt>
      <trkpt lat="44.54911" lon="5.11293">
        <ele>675</ele>
      </trkpt>
      <trkpt lat="44.54919" lon="5.11299">
        <ele>675</ele>
      </trkpt>
      <trkpt lat="44.54926" lon="5.11311">
        <ele>677</ele>
      </trkpt>
      <trkpt lat="44.54932" lon="5.11326">
        <ele>676</ele>
      </trkpt>
      <trkpt lat="44.54943" lon="5.11359">
        <ele>679</ele>
      </trkpt>
      <trkpt lat="44.5495" lon="5.11372">
        <ele>681</ele>
      </trkpt>
      <trkpt lat="44.54957" lon="5.1138">
        <ele>681</ele>
      </trkpt>
      <trkpt lat="44.54968" lon="5.11387">
        <ele>680</ele>
      </trkpt>
      <trkpt lat="44.54992" lon="5.114">
        <ele>683</ele>
      </trkpt>
      <trkpt lat="44.55003" lon="5.11402">
        <ele>683</ele>
      </trkpt>
      <trkpt lat="44.5501" lon="5.114">
        <ele>683</ele>
      </trkpt>
      <trkpt lat="44.55019" lon="5.11393">
        <ele>684</ele>
      </trkpt>
      <trkpt lat="44.55054" lon="5.11342">
        <ele>680</ele>
      </trkpt>
      <trkpt lat="44.55066" lon="5.11331">
        <ele>677</ele>
      </trkpt>
      <trkpt lat="44.55079" lon="5.11324">
        <ele>677</ele>
      </trkpt>
      <trkpt lat="44.55096" lon="5.11318">
        <ele>677</ele>
      </trkpt>
      <trkpt lat="44.55142" lon="5.11314">
        <ele>677</ele>
      </trkpt>
      <trkpt lat="44.55162" lon="5.1131">
        <ele>678</ele>
      </trkpt>
      <trkpt lat="44.55209" lon="5.11286">
        <ele>679</ele>
      </trkpt>
      <trkpt lat="44.5522" lon="5.11277">
        <ele>681</ele>
      </trkpt>
      <trkpt lat="44.55223" lon="5.11271">
        <ele>681</ele>
      </trkpt>
      <trkpt lat="44.55258" lon="5.11177">
        <ele>678</ele>
      </trkpt>
      <trkpt lat="44.55282" lon="5.11101">
        <ele>673</ele>
      </trkpt>
      <trkpt lat="44.55295" lon="5.11082">
        <ele>671</ele>
      </trkpt>
      <trkpt lat="44.5531" lon="5.11081">
        <ele>671</ele>
      </trkpt>
      <trkpt lat="44.5545" lon="5.11174">
        <ele>675</ele>
      </trkpt>
      <trkpt lat="44.55664" lon="5.11314">
        <ele>682</ele>
      </trkpt>
      <trkpt lat="44.55753" lon="5.11382">
        <ele>684</ele>
      </trkpt>
      <trkpt lat="44.55788" lon="5.11424">
        <ele>685</ele>
      </trkpt>
      <trkpt lat="44.558" lon="5.11436">
        <ele>685</ele>
      </trkpt>
      <trkpt lat="44.55827" lon="5.11553">
        <ele>691</ele>
      </trkpt>
      <trkpt lat="44.55836" lon="5.11572">
        <ele>692</ele>
      </trkpt>
      <trkpt lat="44.55921" lon="5.11681">
        <ele>698</ele>
      </trkpt>
      <trkpt lat="44.55928" lon="5.11696">
        <ele>699</ele>
      </trkpt>
      <trkpt lat="44.55933" lon="5.11713">
        <ele>700</ele>
      </trkpt>
      <trkpt lat="44.55942" lon="5.11758">
        <ele>702</ele>
      </trkpt>
      <trkpt lat="44.55949" lon="5.11767">
        <ele>702</ele>
      </trkpt>
      <trkpt lat="44.55986" lon="5.11786">
        <ele>703</ele>
      </trkpt>
      <trkpt lat="44.56022" lon="5.11789">
        <ele>705</ele>
      </trkpt>
      <trkpt lat="44.56048" lon="5.11798">
        <ele>705</ele>
      </trkpt>
      <trkpt lat="44.56118" lon="5.11833">
        <ele>701</ele>
      </trkpt>
      <trkpt lat="44.5615" lon="5.11845">
        <ele>695</ele>
      </trkpt>
      <trkpt lat="44.56211" lon="5.11855">
        <ele>698</ele>
      </trkpt>
      <trkpt lat="44.56242" lon="5.11865">
        <ele>696</ele>
      </trkpt>
      <trkpt lat="44.5626" lon="5.11878">
        <ele>696</ele>
      </trkpt>
      <trkpt lat="44.56308" lon="5.11905">
        <ele>692</ele>
      </trkpt>
      <trkpt lat="44.56405" lon="5.11947">
        <ele>682</ele>
      </trkpt>
      <trkpt lat="44.56423" lon="5.11944">
        <ele>682</ele>
      </trkpt>
      <trkpt lat="44.56431" lon="5.11945">
        <ele>682</ele>
      </trkpt>
      <trkpt lat="44.56465" lon="5.1196">
        <ele>676</ele>
      </trkpt>
      <trkpt lat="44.56518" lon="5.11987">
        <ele>677</ele>
      </trkpt>
      <trkpt lat="44.56533" lon="5.11999">
        <ele>677</ele>
      </trkpt>
      <trkpt lat="44.56543" lon="5.12014">
        <ele>674</ele>
      </trkpt>
      <trkpt lat="44.56551" lon="5.12029">
        <ele>677</ele>
      </trkpt>
      <trkpt lat="44.56581" lon="5.12106">
        <ele>669</ele>
      </trkpt>
      <trkpt lat="44.56592" lon="5.1212">
        <ele>664</ele>
      </trkpt>
      <trkpt lat="44.56683" lon="5.12179">
        <ele>659</ele>
      </trkpt>
      <trkpt lat="44.56709" lon="5.12198">
        <ele>653</ele>
      </trkpt>
      <trkpt lat="44.56745" lon="5.1221">
        <ele>649</ele>
      </trkpt>
      <trkpt lat="44.56783" lon="5.1223">
        <ele>645</ele>
      </trkpt>
      <trkpt lat="44.56818" lon="5.12236">
        <ele>644</ele>
      </trkpt>
      <trkpt lat="44.56839" lon="5.12238">
        <ele>642</ele>
      </trkpt>
      <trkpt lat="44.56871" lon="5.12235">
        <ele>639</ele>
      </trkpt>
      <trkpt lat="44.5688" lon="5.12231">
        <ele>638</ele>
      </trkpt>
      <trkpt lat="44.5689" lon="5.12227">
        <ele>638</ele>
      </trkpt>
      <trkpt lat="44.56908" lon="5.12213">
        <ele>639</ele>
      </trkpt>
      <trkpt lat="44.56924" lon="5.12196">
        <ele>641</ele>
      </trkpt>
      <trkpt lat="44.56941" lon="5.12183">
        <ele>638</ele>
      </trkpt>
      <trkpt lat="44.56957" lon="5.12174">
        <ele>638</ele>
      </trkpt>
      <trkpt lat="44.56974" lon="5.12168">
        <ele>637</ele>
      </trkpt>
      <trkpt lat="44.5699" lon="5.12159">
        <ele>635</ele>
      </trkpt>
      <trkpt lat="44.57001" lon="5.1215">
        <ele>634</ele>
      </trkpt>
      <trkpt lat="44.57011" lon="5.12137">
        <ele>638</ele>
      </trkpt>
      <trkpt lat="44.5702" lon="5.12128">
        <ele>637</ele>
      </trkpt>
      <trkpt lat="44.57031" lon="5.12121">
        <ele>637</ele>
      </trkpt>
      <trkpt lat="44.57071" lon="5.12104">
        <ele>638</ele>
      </trkpt>
      <trkpt lat="44.57088" lon="5.12103">
        <ele>636</ele>
      </trkpt>
      <trkpt lat="44.57098" lon="5.12107">
        <ele>636</ele>
      </trkpt>
      <trkpt lat="44.5712" lon="5.12119">
        <ele>631</ele>
      </trkpt>
      <trkpt lat="44.57156" lon="5.12146">
        <ele>624</ele>
      </trkpt>
      <trkpt lat="44.57169" lon="5.12148">
        <ele>624</ele>
      </trkpt>
      <trkpt lat="44.57176" lon="5.12144">
        <ele>624</ele>
      </trkpt>
      <trkpt lat="44.57183" lon="5.12138">
        <ele>622</ele>
      </trkpt>
      <trkpt lat="44.57195" lon="5.12117">
        <ele>622</ele>
      </trkpt>
      <trkpt lat="44.57223" lon="5.1208">
        <ele>625</ele>
      </trkpt>
      <trkpt lat="44.57237" lon="5.1207">
        <ele>625</ele>
      </trkpt>
      <trkpt lat="44.57243" lon="5.1207">
        <ele>624</ele>
      </trkpt>
      <trkpt lat="44.57272" lon="5.12091">
        <ele>619</ele>
      </trkpt>
      <trkpt lat="44.5731" lon="5.12112">
        <ele>619</ele>
      </trkpt>
      <trkpt lat="44.57354" lon="5.12134">
        <ele>621</ele>
      </trkpt>
      <trkpt lat="44.57367" lon="5.12144">
        <ele>617</ele>
      </trkpt>
      <trkpt lat="44.57398" lon="5.12174">
        <ele>611</ele>
      </trkpt>
      <trkpt lat="44.57453" lon="5.12198">
        <ele>607</ele>
      </trkpt>
      <trkpt lat="44.57485" lon="5.12215">
        <ele>608</ele>
      </trkpt>
      <trkpt lat="44.57494" lon="5.12225">
        <ele>608</ele>
      </trkpt>
      <trkpt lat="44.57514" lon="5.12256">
        <ele>600</ele>
      </trkpt>
      <trkpt lat="44.57527" lon="5.12272">
        <ele>600</ele>
      </trkpt>
      <trkpt lat="44.57544" lon="5.12298">
        <ele>595</ele>
      </trkpt>
      <trkpt lat="44.57556" lon="5.12311">
        <ele>590</ele>
      </trkpt>
      <trkpt lat="44.57573" lon="5.12319">
        <ele>588</ele>
      </trkpt>
      <trkpt lat="44.57593" lon="5.12321">
        <ele>587</ele>
      </trkpt>
      <trkpt lat="44.57646" lon="5.12315">
        <ele>586</ele>
      </trkpt>
      <trkpt lat="44.57681" lon="5.12307">
        <ele>593</ele>
      </trkpt>
      <trkpt lat="44.57687" lon="5.1231">
        <ele>589</ele>
      </trkpt>
      <trkpt lat="44.57702" lon="5.12324">
        <ele>588</ele>
      </trkpt>
      <trkpt lat="44.57711" lon="5.12329">
        <ele>590</ele>
      </trkpt>
      <trkpt lat="44.57739" lon="5.12344">
        <ele>590</ele>
      </trkpt>
      <trkpt lat="44.57745" lon="5.12349">
        <ele>590</ele>
      </trkpt>
      <trkpt lat="44.57775" lon="5.12401">
        <ele>578</ele>
      </trkpt>
      <trkpt lat="44.578" lon="5.12434">
        <ele>572</ele>
      </trkpt>
      <trkpt lat="44.57819" lon="5.1245">
        <ele>562</ele>
      </trkpt>
      <trkpt lat="44.57835" lon="5.12457">
        <ele>560</ele>
      </trkpt>
      <trkpt lat="44.57851" lon="5.12462">
        <ele>558</ele>
      </trkpt>
      <trkpt lat="44.5789" lon="5.1245">
        <ele>556</ele>
      </trkpt>
      <trkpt lat="44.57899" lon="5.12452">
        <ele>556</ele>
      </trkpt>
      <trkpt lat="44.57911" lon="5.12461">
        <ele>553</ele>
      </trkpt>
      <trkpt lat="44.57917" lon="5.12462">
        <ele>553</ele>
      </trkpt>
      <trkpt lat="44.57923" lon="5.1246">
        <ele>553</ele>
      </trkpt>
      <trkpt lat="44.57934" lon="5.12453">
        <ele>550</ele>
      </trkpt>
      <trkpt lat="44.57954" lon="5.12432">
        <ele>555</ele>
      </trkpt>
      <trkpt lat="44.57974" lon="5.12422">
        <ele>552</ele>
      </trkpt>
      <trkpt lat="44.57988" lon="5.12411">
        <ele>558</ele>
      </trkpt>
      <trkpt lat="44.57994" lon="5.12409">
        <ele>557</ele>
      </trkpt>
      <trkpt lat="44.58002" lon="5.1241">
        <ele>557</ele>
      </trkpt>
      <trkpt lat="44.58022" lon="5.12425">
        <ele>546</ele>
      </trkpt>
      <trkpt lat="44.58033" lon="5.1243">
        <ele>545</ele>
      </trkpt>
      <trkpt lat="44.58062" lon="5.12439">
        <ele>543</ele>
      </trkpt>
      <trkpt lat="44.58133" lon="5.12453">
        <ele>535</ele>
      </trkpt>
      <trkpt lat="44.58143" lon="5.12453">
        <ele>535</ele>
      </trkpt>
      <trkpt lat="44.58175" lon="5.12445">
        <ele>535</ele>
      </trkpt>
      <trkpt lat="44.58202" lon="5.12442">
        <ele>532</ele>
      </trkpt>
      <trkpt lat="44.58231" lon="5.12442">
        <ele>528</ele>
      </trkpt>
      <trkpt lat="44.58243" lon="5.12445">
        <ele>523</ele>
      </trkpt>
      <trkpt lat="44.58247" lon="5.1245">
        <ele>519</ele>
      </trkpt>
      <trkpt lat="44.58235" lon="5.1246">
        <ele>523</ele>
      </trkpt>
      <trkpt lat="44.58213" lon="5.12468">
        <ele>523</ele>
      </trkpt>
      <trkpt lat="44.58193" lon="5.12478">
        <ele>521</ele>
      </trkpt>
      <trkpt lat="44.58183" lon="5.12488">
        <ele>520</ele>
      </trkpt>
      <trkpt lat="44.58165" lon="5.12527">
        <ele>514</ele>
      </trkpt>
      <trkpt lat="44.5815" lon="5.12543">
        <ele>512</ele>
      </trkpt>
      <trkpt lat="44.58144" lon="5.12547">
        <ele>512</ele>
      </trkpt>
      <trkpt lat="44.58137" lon="5.12549">
        <ele>512</ele>
      </trkpt>
      <trkpt lat="44.58127" lon="5.12548">
        <ele>514</ele>
      </trkpt>
      <trkpt lat="44.58083" lon="5.12522">
        <ele>520</ele>
      </trkpt>
      <trkpt lat="44.5807" lon="5.1252">
        <ele>518</ele>
      </trkpt>
      <trkpt lat="44.58036" lon="5.1252">
        <ele>518</ele>
      </trkpt>
      <trkpt lat="44.58023" lon="5.12524">
        <ele>517</ele>
      </trkpt>
      <trkpt lat="44.58015" lon="5.12531">
        <ele>518</ele>
      </trkpt>
      <trkpt lat="44.58008" lon="5.1254">
        <ele>512</ele>
      </trkpt>
      <trkpt lat="44.57948" lon="5.1264">
        <ele>498</ele>
      </trkpt>
      <trkpt lat="44.57936" lon="5.12653">
        <ele>495</ele>
      </trkpt>
      <trkpt lat="44.57874" lon="5.12701">
        <ele>494</ele>
      </trkpt>
      <trkpt lat="44.57851" lon="5.12727">
        <ele>491</ele>
      </trkpt>
      <trkpt lat="44.57841" lon="5.12744">
        <ele>492</ele>
      </trkpt>
      <trkpt lat="44.57839" lon="5.12752">
        <ele>491</ele>
      </trkpt>
      <trkpt lat="44.57839" lon="5.12763">
        <ele>490</ele>
      </trkpt>
      <trkpt lat="44.57845" lon="5.12771">
        <ele>490</ele>
      </trkpt>
      <trkpt lat="44.57852" lon="5.12771">
        <ele>488</ele>
      </trkpt>
      <trkpt lat="44.57877" lon="5.12754">
        <ele>488</ele>
      </trkpt>
      <trkpt lat="44.5789" lon="5.1275">
        <ele>489</ele>
      </trkpt>
      <trkpt lat="44.57897" lon="5.12751">
        <ele>488</ele>
      </trkpt>
      <trkpt lat="44.5793" lon="5.12764">
        <ele>484</ele>
      </trkpt>
      <trkpt lat="44.57941" lon="5.12764">
        <ele>482</ele>
      </trkpt>
      <trkpt lat="44.57953" lon="5.12758">
        <ele>482</ele>
      </trkpt>
      <trkpt lat="44.57961" lon="5.12747">
        <ele>480</ele>
      </trkpt>
      <trkpt lat="44.57976" lon="5.12718">
        <ele>481</ele>
      </trkpt>
      <trkpt lat="44.57984" lon="5.1271">
        <ele>481</ele>
      </trkpt>
      <trkpt lat="44.57991" lon="5.12705">
        <ele>478</ele>
      </trkpt>
      <trkpt lat="44.58005" lon="5.12702">
        <ele>478</ele>
      </trkpt>
      <trkpt lat="44.58015" lon="5.12703">
        <ele>478</ele>
      </trkpt>
      <trkpt lat="44.58026" lon="5.12714">
        <ele>477</ele>
      </trkpt>
      <trkpt lat="44.58046" lon="5.12751">
        <ele>477</ele>
      </trkpt>
      <trkpt lat="44.58049" lon="5.1277">
        <ele>477</ele>
      </trkpt>
      <trkpt lat="44.58048" lon="5.12793">
        <ele>477</ele>
      </trkpt>
      <trkpt lat="44.58035" lon="5.12842">
        <ele>474</ele>
      </trkpt>
      <trkpt lat="44.5802" lon="5.12894">
        <ele>471</ele>
      </trkpt>
      <trkpt lat="44.58019" lon="5.12914">
        <ele>470</ele>
      </trkpt>
      <trkpt lat="44.58023" lon="5.12973">
        <ele>466</ele>
      </trkpt>
      <trkpt lat="44.58027" lon="5.12989">
        <ele>463</ele>
      </trkpt>
      <trkpt lat="44.58034" lon="5.13001">
        <ele>462</ele>
      </trkpt>
      <trkpt lat="44.58064" lon="5.13031">
        <ele>461</ele>
      </trkpt>
      <trkpt lat="44.58077" lon="5.13047">
        <ele>460</ele>
      </trkpt>
      <trkpt lat="44.58113" lon="5.13135">
        <ele>449</ele>
      </trkpt>
      <trkpt lat="44.58127" lon="5.1315">
        <ele>445</ele>
      </trkpt>
      <trkpt lat="44.58157" lon="5.13168">
        <ele>450</ele>
      </trkpt>
      <trkpt lat="44.58167" lon="5.13178">
        <ele>450</ele>
      </trkpt>
      <trkpt lat="44.58171" lon="5.13186">
        <ele>450</ele>
      </trkpt>
      <trkpt lat="44.58173" lon="5.132">
        <ele>450</ele>
      </trkpt>
      <trkpt lat="44.58173" lon="5.13215">
        <ele>450</ele>
      </trkpt>
      <trkpt lat="44.58164" lon="5.13251">
        <ele>448</ele>
      </trkpt>
      <trkpt lat="44.58162" lon="5.13276">
        <ele>447</ele>
      </trkpt>
      <trkpt lat="44.58163" lon="5.13289">
        <ele>445</ele>
      </trkpt>
      <trkpt lat="44.58171" lon="5.13317">
        <ele>441</ele>
      </trkpt>
      <trkpt lat="44.58184" lon="5.1334">
        <ele>439</ele>
      </trkpt>
      <trkpt lat="44.58218" lon="5.13365">
        <ele>435</ele>
      </trkpt>
      <trkpt lat="44.58236" lon="5.13387">
        <ele>433</ele>
      </trkpt>
      <trkpt lat="44.58254" lon="5.13425">
        <ele>428</ele>
      </trkpt>
      <trkpt lat="44.58265" lon="5.13487">
        <ele>420</ele>
      </trkpt>
      <trkpt lat="44.5827" lon="5.13496">
        <ele>419</ele>
      </trkpt>
      <trkpt lat="44.58276" lon="5.13501">
        <ele>419</ele>
      </trkpt>
      <trkpt lat="44.58286" lon="5.13502">
        <ele>419</ele>
      </trkpt>
      <trkpt lat="44.5831" lon="5.13492">
        <ele>417</ele>
      </trkpt>
      <trkpt lat="44.58348" lon="5.13463">
        <ele>418</ele>
      </trkpt>
      <trkpt lat="44.58372" lon="5.13445">
        <ele>416</ele>
      </trkpt>
      <trkpt lat="44.58398" lon="5.13434">
        <ele>413</ele>
      </trkpt>
      <trkpt lat="44.58424" lon="5.13426">
        <ele>410</ele>
      </trkpt>
      <trkpt lat="44.58463" lon="5.13417">
        <ele>410</ele>
      </trkpt>
      <trkpt lat="44.58503" lon="5.13395">
        <ele>409</ele>
      </trkpt>
      <trkpt lat="44.5852" lon="5.13383">
        <ele>408</ele>
      </trkpt>
      <trkpt lat="44.58527" lon="5.13381">
        <ele>407</ele>
      </trkpt>
      <trkpt lat="44.58593" lon="5.13398">
        <ele>406</ele>
      </trkpt>
      <trkpt lat="44.58638" lon="5.13407">
        <ele>406</ele>
      </trkpt>
      <trkpt lat="44.58654" lon="5.13396">
        <ele>407</ele>
      </trkpt>
      <trkpt lat="44.58689" lon="5.13363">
        <ele>407</ele>
      </trkpt>
      <trkpt lat="44.58692" lon="5.13361">
        <ele>407</ele>
      </trkpt>
      <trkpt lat="44.58698" lon="5.13367">
        <ele>407</ele>
      </trkpt>
      <trkpt lat="44.58728" lon="5.13434">
        <ele>405</ele>
      </trkpt>
      <trkpt lat="44.5887" lon="5.13344">
        <ele>406</ele>
      </trkpt>
      <trkpt lat="44.59087" lon="5.132">
        <ele>406</ele>
      </trkpt>
      <trkpt lat="44.59109" lon="5.13191">
        <ele>408</ele>
      </trkpt>
      <trkpt lat="44.59127" lon="5.13308">
        <ele>407</ele>
      </trkpt>
      <trkpt lat="44.59144" lon="5.13412">
        <ele>408</ele>
      </trkpt>
      <trkpt lat="44.59152" lon="5.13499">
        <ele>408</ele>
      </trkpt>
      <trkpt lat="44.59159" lon="5.13531">
        <ele>409</ele>
      </trkpt>
      <trkpt lat="44.59183" lon="5.13577">
        <ele>411</ele>
      </trkpt>
      <trkpt lat="44.59203" lon="5.13626">
        <ele>413</ele>
      </trkpt>
      <trkpt lat="44.59216" lon="5.1367">
        <ele>415</ele>
      </trkpt>
      <trkpt lat="44.59227" lon="5.13698">
        <ele>415</ele>
      </trkpt>
      <trkpt lat="44.59246" lon="5.13726">
        <ele>415</ele>
      </trkpt>
      <trkpt lat="44.59294" lon="5.13765">
        <ele>417</ele>
      </trkpt>
      <trkpt lat="44.59307" lon="5.13793">
        <ele>419</ele>
      </trkpt>
      <trkpt lat="44.5933" lon="5.13886">
        <ele>420</ele>
      </trkpt>
      <trkpt lat="44.59343" lon="5.13917">
        <ele>420</ele>
      </trkpt>
      <trkpt lat="44.59399" lon="5.13985">
        <ele>420</ele>
      </trkpt>
      <trkpt lat="44.59408" lon="5.14006">
        <ele>421</ele>
      </trkpt>
      <trkpt lat="44.59422" lon="5.14055">
        <ele>422</ele>
      </trkpt>
      <trkpt lat="44.59437" lon="5.14132">
        <ele>426</ele>
      </trkpt>
      <trkpt lat="44.59449" lon="5.1418">
        <ele>428</ele>
      </trkpt>
      <trkpt lat="44.59467" lon="5.14228">
        <ele>427</ele>
      </trkpt>
      <trkpt lat="44.59476" lon="5.14248">
        <ele>427</ele>
      </trkpt>
      <trkpt lat="44.59486" lon="5.1426">
        <ele>428</ele>
      </trkpt>
      <trkpt lat="44.59497" lon="5.14269">
        <ele>428</ele>
      </trkpt>
      <trkpt lat="44.59521" lon="5.14274">
        <ele>429</ele>
      </trkpt>
      <trkpt lat="44.59547" lon="5.14274">
        <ele>431</ele>
      </trkpt>
      <trkpt lat="44.5956" lon="5.14277">
        <ele>432</ele>
      </trkpt>
      <trkpt lat="44.59574" lon="5.14285">
        <ele>433</ele>
      </trkpt>
      <trkpt lat="44.59603" lon="5.14308">
        <ele>436</ele>
      </trkpt>
      <trkpt lat="44.59614" lon="5.14326">
        <ele>436</ele>
      </trkpt>
      <trkpt lat="44.59622" lon="5.14346">
        <ele>438</ele>
      </trkpt>
      <trkpt lat="44.59628" lon="5.14369">
        <ele>441</ele>
      </trkpt>
      <trkpt lat="44.59631" lon="5.14423">
        <ele>442</ele>
      </trkpt>
      <trkpt lat="44.59636" lon="5.14453">
        <ele>441</ele>
      </trkpt>
      <trkpt lat="44.59666" lon="5.14566">
        <ele>444</ele>
      </trkpt>
      <trkpt lat="44.59675" lon="5.14592">
        <ele>444</ele>
      </trkpt>
      <trkpt lat="44.59683" lon="5.14607">
        <ele>444</ele>
      </trkpt>
      <trkpt lat="44.59691" lon="5.14618">
        <ele>446</ele>
      </trkpt>
      <trkpt lat="44.59738" lon="5.14642">
        <ele>448</ele>
      </trkpt>
      <trkpt lat="44.59748" lon="5.14651">
        <ele>450</ele>
      </trkpt>
      <trkpt lat="44.59756" lon="5.14662">
        <ele>450</ele>
      </trkpt>
      <trkpt lat="44.59783" lon="5.14736">
        <ele>451</ele>
      </trkpt>
      <trkpt lat="44.59793" lon="5.14766">
        <ele>453</ele>
      </trkpt>
      <trkpt lat="44.59824" lon="5.14816">
        <ele>465</ele>
      </trkpt>
      <trkpt lat="44.59837" lon="5.14844">
        <ele>464</ele>
      </trkpt>
      <trkpt lat="44.59846" lon="5.14879">
        <ele>462</ele>
      </trkpt>
      <trkpt lat="44.59851" lon="5.1493">
        <ele>461</ele>
      </trkpt>
      <trkpt lat="44.59848" lon="5.1497">
        <ele>457</ele>
      </trkpt>
      <trkpt lat="44.59843" lon="5.14998">
        <ele>455</ele>
      </trkpt>
      <trkpt lat="44.59841" lon="5.15018">
        <ele>452</ele>
      </trkpt>
      <trkpt lat="44.59844" lon="5.15035">
        <ele>451</ele>
      </trkpt>
      <trkpt lat="44.59852" lon="5.15047">
        <ele>451</ele>
      </trkpt>
      <trkpt lat="44.59911" lon="5.15102">
        <ele>462</ele>
      </trkpt>
      <trkpt lat="44.59935" lon="5.15137">
        <ele>468</ele>
      </trkpt>
      <trkpt lat="44.59952" lon="5.15175">
        <ele>471</ele>
      </trkpt>
      <trkpt lat="44.59958" lon="5.1521">
        <ele>472</ele>
      </trkpt>
      <trkpt lat="44.59948" lon="5.15358">
        <ele>465</ele>
      </trkpt>
      <trkpt lat="44.59946" lon="5.15367">
        <ele>463</ele>
      </trkpt>
      <trkpt lat="44.5991" lon="5.15438">
        <ele>461</ele>
      </trkpt>
      <trkpt lat="44.59859" lon="5.15528">
        <ele>464</ele>
      </trkpt>
      <trkpt lat="44.59837" lon="5.15562">
        <ele>468</ele>
      </trkpt>
      <trkpt lat="44.59791" lon="5.15647">
        <ele>474</ele>
      </trkpt>
      <trkpt lat="44.59781" lon="5.15673">
        <ele>475</ele>
      </trkpt>
      <trkpt lat="44.59773" lon="5.1572">
        <ele>477</ele>
      </trkpt>
      <trkpt lat="44.59766" lon="5.15746">
        <ele>477</ele>
      </trkpt>
      <trkpt lat="44.5968" lon="5.1595">
        <ele>479</ele>
      </trkpt>
      <trkpt lat="44.5963" lon="5.16029">
        <ele>480</ele>
      </trkpt>
      <trkpt lat="44.59613" lon="5.16067">
        <ele>480</ele>
      </trkpt>
      <trkpt lat="44.59599" lon="5.16135">
        <ele>481</ele>
      </trkpt>
      <trkpt lat="44.59577" lon="5.1618">
        <ele>481</ele>
      </trkpt>
      <trkpt lat="44.59573" lon="5.16218">
        <ele>482</ele>
      </trkpt>
      <trkpt lat="44.5957" lon="5.16297">
        <ele>487</ele>
      </trkpt>
      <trkpt lat="44.59574" lon="5.16336">
        <ele>491</ele>
      </trkpt>
      <trkpt lat="44.59641" lon="5.16631">
        <ele>508</ele>
      </trkpt>
      <trkpt lat="44.59655" lon="5.1673">
        <ele>509</ele>
      </trkpt>
      <trkpt lat="44.59665" lon="5.16809">
        <ele>511</ele>
      </trkpt>
      <trkpt lat="44.59672" lon="5.16825">
        <ele>511</ele>
      </trkpt>
      <trkpt lat="44.5969" lon="5.16845">
        <ele>512</ele>
      </trkpt>
      <trkpt lat="44.59729" lon="5.16868">
        <ele>513</ele>
      </trkpt>
      <trkpt lat="44.59746" lon="5.16868">
        <ele>515</ele>
      </trkpt>
      <trkpt lat="44.59772" lon="5.16859">
        <ele>521</ele>
      </trkpt>
      <trkpt lat="44.59785" lon="5.16857">
        <ele>521</ele>
      </trkpt>
      <trkpt lat="44.59796" lon="5.16862">
        <ele>523</ele>
      </trkpt>
      <trkpt lat="44.59854" lon="5.16912">
        <ele>525</ele>
      </trkpt>
      <trkpt lat="44.59873" lon="5.16936">
        <ele>525</ele>
      </trkpt>
      <trkpt lat="44.59973" lon="5.17022">
        <ele>537</ele>
      </trkpt>
      <trkpt lat="44.59982" lon="5.17044">
        <ele>536</ele>
      </trkpt>
      <trkpt lat="44.6" lon="5.17066">
        <ele>535</ele>
      </trkpt>
      <trkpt lat="44.60032" lon="5.17086">
        <ele>538</ele>
      </trkpt>
      <trkpt lat="44.60041" lon="5.17098">
        <ele>536</ele>
      </trkpt>
      <trkpt lat="44.60083" lon="5.17177">
        <ele>538</ele>
      </trkpt>
      <trkpt lat="44.60091" lon="5.17197">
        <ele>538</ele>
      </trkpt>
      <trkpt lat="44.60099" lon="5.17228">
        <ele>543</ele>
      </trkpt>
      <trkpt lat="44.60111" lon="5.17261">
        <ele>543</ele>
      </trkpt>
      <trkpt lat="44.60126" lon="5.17285">
        <ele>547</ele>
      </trkpt>
      <trkpt lat="44.60155" lon="5.1732">
        <ele>545</ele>
      </trkpt>
      <trkpt lat="44.60218" lon="5.17377">
        <ele>542</ele>
      </trkpt>
      <trkpt lat="44.60235" lon="5.17396">
        <ele>546</ele>
      </trkpt>
      <trkpt lat="44.60291" lon="5.17478">
        <ele>555</ele>
      </trkpt>
      <trkpt lat="44.60304" lon="5.17509">
        <ele>561</ele>
      </trkpt>
      <trkpt lat="44.60304" lon="5.17541">
        <ele>564</ele>
      </trkpt>
      <trkpt lat="44.60294" lon="5.17578">
        <ele>567</ele>
      </trkpt>
      <trkpt lat="44.60293" lon="5.17589">
        <ele>569</ele>
      </trkpt>
      <trkpt lat="44.60294" lon="5.176">
        <ele>570</ele>
      </trkpt>
      <trkpt lat="44.60304" lon="5.17617">
        <ele>574</ele>
      </trkpt>
      <trkpt lat="44.60314" lon="5.1762">
        <ele>575</ele>
      </trkpt>
      <trkpt lat="44.60323" lon="5.17615">
        <ele>578</ele>
      </trkpt>
      <trkpt lat="44.6034" lon="5.17596">
        <ele>578</ele>
      </trkpt>
      <trkpt lat="44.60346" lon="5.17582">
        <ele>575</ele>
      </trkpt>
      <trkpt lat="44.6035" lon="5.17554">
        <ele>572</ele>
      </trkpt>
      <trkpt lat="44.60357" lon="5.17528">
        <ele>571</ele>
      </trkpt>
      <trkpt lat="44.60366" lon="5.17519">
        <ele>571</ele>
      </trkpt>
      <trkpt lat="44.60374" lon="5.17518">
        <ele>571</ele>
      </trkpt>
      <trkpt lat="44.60382" lon="5.17521">
        <ele>573</ele>
      </trkpt>
      <trkpt lat="44.60437" lon="5.17552">
        <ele>589</ele>
      </trkpt>
      <trkpt lat="44.60443" lon="5.1755">
        <ele>589</ele>
      </trkpt>
      <trkpt lat="44.60471" lon="5.17495">
        <ele>587</ele>
      </trkpt>
      <trkpt lat="44.60483" lon="5.17484">
        <ele>587</ele>
      </trkpt>
      <trkpt lat="44.60501" lon="5.17475">
        <ele>587</ele>
      </trkpt>
      <trkpt lat="44.60544" lon="5.17463">
        <ele>591</ele>
      </trkpt>
      <trkpt lat="44.60566" lon="5.17461">
        <ele>594</ele>
      </trkpt>
      <trkpt lat="44.60577" lon="5.17465">
        <ele>598</ele>
      </trkpt>
      <trkpt lat="44.60589" lon="5.17466">
        <ele>599</ele>
      </trkpt>
      <trkpt lat="44.60598" lon="5.17464">
        <ele>600</ele>
      </trkpt>
      <trkpt lat="44.60608" lon="5.17456">
        <ele>605</ele>
      </trkpt>
      <trkpt lat="44.6062" lon="5.17434">
        <ele>602</ele>
      </trkpt>
      <trkpt lat="44.60632" lon="5.17419">
        <ele>603</ele>
      </trkpt>
      <trkpt lat="44.60699" lon="5.17378">
        <ele>613</ele>
      </trkpt>
      <trkpt lat="44.60747" lon="5.17358">
        <ele>616</ele>
      </trkpt>
      <trkpt lat="44.6079" lon="5.17335">
        <ele>612</ele>
      </trkpt>
      <trkpt lat="44.608" lon="5.17337">
        <ele>613</ele>
      </trkpt>
      <trkpt lat="44.60836" lon="5.17361">
        <ele>622</ele>
      </trkpt>
      <trkpt lat="44.60849" lon="5.17366">
        <ele>629</ele>
      </trkpt>
      <trkpt lat="44.60884" lon="5.17366">
        <ele>629</ele>
      </trkpt>
      <trkpt lat="44.60912" lon="5.17362">
        <ele>621</ele>
      </trkpt>
      <trkpt lat="44.60933" lon="5.1737">
        <ele>628</ele>
      </trkpt>
      <trkpt lat="44.60959" lon="5.17387">
        <ele>628</ele>
      </trkpt>
      <trkpt lat="44.61054" lon="5.17464">
        <ele>644</ele>
      </trkpt>
      <trkpt lat="44.61062" lon="5.17466">
        <ele>644</ele>
      </trkpt>
      <trkpt lat="44.61131" lon="5.17463">
        <ele>650</ele>
      </trkpt>
      <trkpt lat="44.61185" lon="5.17474">
        <ele>646</ele>
      </trkpt>
      <trkpt lat="44.61222" lon="5.17486">
        <ele>648</ele>
      </trkpt>
      <trkpt lat="44.61226" lon="5.17491">
        <ele>649</ele>
      </trkpt>
      <trkpt lat="44.61227" lon="5.17496">
        <ele>649</ele>
      </trkpt>
      <trkpt lat="44.61223" lon="5.17505">
        <ele>655</ele>
      </trkpt>
      <trkpt lat="44.61189" lon="5.17504">
        <ele>653</ele>
      </trkpt>
      <trkpt lat="44.61115" lon="5.17552">
        <ele>674</ele>
      </trkpt>
      <trkpt lat="44.61077" lon="5.1756">
        <ele>674</ele>
      </trkpt>
      <trkpt lat="44.61044" lon="5.17551">
        <ele>669</ele>
      </trkpt>
      <trkpt lat="44.61019" lon="5.17549">
        <ele>668</ele>
      </trkpt>
      <trkpt lat="44.60951" lon="5.17556">
        <ele>677</ele>
      </trkpt>
      <trkpt lat="44.6094" lon="5.17561">
        <ele>683</ele>
      </trkpt>
      <trkpt lat="44.60919" lon="5.1758">
        <ele>685</ele>
      </trkpt>
      <trkpt lat="44.60912" lon="5.1759">
        <ele>690</ele>
      </trkpt>
      <trkpt lat="44.60908" lon="5.17604">
        <ele>691</ele>
      </trkpt>
      <trkpt lat="44.60911" lon="5.17611">
        <ele>691</ele>
      </trkpt>
      <trkpt lat="44.6092" lon="5.17618">
        <ele>695</ele>
      </trkpt>
      <trkpt lat="44.60928" lon="5.17616">
        <ele>691</ele>
      </trkpt>
      <trkpt lat="44.60948" lon="5.17603">
        <ele>690</ele>
      </trkpt>
      <trkpt lat="44.60954" lon="5.17602">
        <ele>690</ele>
      </trkpt>
      <trkpt lat="44.6099" lon="5.17614">
        <ele>690</ele>
      </trkpt>
      <trkpt lat="44.6101" lon="5.17616">
        <ele>690</ele>
      </trkpt>
      <trkpt lat="44.61032" lon="5.17622">
        <ele>696</ele>
      </trkpt>
      <trkpt lat="44.61048" lon="5.17629">
        <ele>695</ele>
      </trkpt>
      <trkpt lat="44.61089" lon="5.17652">
        <ele>705</ele>
      </trkpt>
      <trkpt lat="44.61097" lon="5.17652">
        <ele>706</ele>
      </trkpt>
      <trkpt lat="44.61112" lon="5.17647">
        <ele>705</ele>
      </trkpt>
      <trkpt lat="44.61132" lon="5.17648">
        <ele>706</ele>
      </trkpt>
      <trkpt lat="44.6115" lon="5.17659">
        <ele>707</ele>
      </trkpt>
      <trkpt lat="44.6116" lon="5.17672">
        <ele>712</ele>
      </trkpt>
      <trkpt lat="44.6117" lon="5.17681">
        <ele>713</ele>
      </trkpt>
      <trkpt lat="44.61208" lon="5.17694">
        <ele>711</ele>
      </trkpt>
      <trkpt lat="44.61278" lon="5.17749">
        <ele>714</ele>
      </trkpt>
      <trkpt lat="44.61286" lon="5.1776">
        <ele>719</ele>
      </trkpt>
      <trkpt lat="44.61301" lon="5.17792">
        <ele>722</ele>
      </trkpt>
      <trkpt lat="44.61346" lon="5.1785">
        <ele>727</ele>
      </trkpt>
      <trkpt lat="44.61349" lon="5.17857">
        <ele>728</ele>
      </trkpt>
      <trkpt lat="44.61349" lon="5.17864">
        <ele>729</ele>
      </trkpt>
      <trkpt lat="44.61344" lon="5.17871">
        <ele>735</ele>
      </trkpt>
      <trkpt lat="44.61338" lon="5.17871">
        <ele>735</ele>
      </trkpt>
      <trkpt lat="44.61287" lon="5.17842">
        <ele>739</ele>
      </trkpt>
      <trkpt lat="44.61233" lon="5.17801">
        <ele>738</ele>
      </trkpt>
      <trkpt lat="44.61216" lon="5.17792">
        <ele>739</ele>
      </trkpt>
      <trkpt lat="44.61185" lon="5.17784">
        <ele>744</ele>
      </trkpt>
      <trkpt lat="44.61152" lon="5.17777">
        <ele>747</ele>
      </trkpt>
      <trkpt lat="44.61106" lon="5.17781">
        <ele>752</ele>
      </trkpt>
      <trkpt lat="44.61062" lon="5.17776">
        <ele>755</ele>
      </trkpt>
      <trkpt lat="44.61044" lon="5.17776">
        <ele>756</ele>
      </trkpt>
      <trkpt lat="44.61034" lon="5.17778">
        <ele>757</ele>
      </trkpt>
      <trkpt lat="44.61019" lon="5.17786">
        <ele>765</ele>
      </trkpt>
      <trkpt lat="44.61006" lon="5.17798">
        <ele>766</ele>
      </trkpt>
      <trkpt lat="44.60991" lon="5.17815">
        <ele>773</ele>
      </trkpt>
      <trkpt lat="44.60967" lon="5.1786">
        <ele>778</ele>
      </trkpt>
      <trkpt lat="44.60959" lon="5.17879">
        <ele>778</ele>
      </trkpt>
      <trkpt lat="44.60946" lon="5.17947">
        <ele>785</ele>
      </trkpt>
      <trkpt lat="44.60941" lon="5.17961">
        <ele>788</ele>
      </trkpt>
      <trkpt lat="44.60934" lon="5.17971">
        <ele>788</ele>
      </trkpt>
      <trkpt lat="44.60922" lon="5.17978">
        <ele>788</ele>
      </trkpt>
      <trkpt lat="44.60899" lon="5.17981">
        <ele>785</ele>
      </trkpt>
      <trkpt lat="44.60875" lon="5.17987">
        <ele>785</ele>
      </trkpt>
      <trkpt lat="44.60845" lon="5.18003">
        <ele>786</ele>
      </trkpt>
      <trkpt lat="44.60782" lon="5.18047">
        <ele>796</ele>
      </trkpt>
      <trkpt lat="44.60771" lon="5.18065">
        <ele>800</ele>
      </trkpt>
      <trkpt lat="44.60762" lon="5.18091">
        <ele>801</ele>
      </trkpt>
      <trkpt lat="44.6076" lon="5.18102">
        <ele>801</ele>
      </trkpt>
      <trkpt lat="44.60761" lon="5.18108">
        <ele>802</ele>
      </trkpt>
      <trkpt lat="44.60765" lon="5.18113">
        <ele>803</ele>
      </trkpt>
      <trkpt lat="44.60772" lon="5.18112">
        <ele>807</ele>
      </trkpt>
      <trkpt lat="44.6078" lon="5.18105">
        <ele>807</ele>
      </trkpt>
      <trkpt lat="44.6081" lon="5.18087">
        <ele>808</ele>
      </trkpt>
      <trkpt lat="44.60826" lon="5.18082">
        <ele>810</ele>
      </trkpt>
      <trkpt lat="44.60878" lon="5.1807">
        <ele>810</ele>
      </trkpt>
      <trkpt lat="44.60896" lon="5.18072">
        <ele>811</ele>
      </trkpt>
      <trkpt lat="44.60952" lon="5.18093">
        <ele>815</ele>
      </trkpt>
      <trkpt lat="44.60985" lon="5.18117">
        <ele>821</ele>
      </trkpt>
      <trkpt lat="44.60994" lon="5.1812">
        <ele>821</ele>
      </trkpt>
      <trkpt lat="44.61006" lon="5.18121">
        <ele>821</ele>
      </trkpt>
      <trkpt lat="44.61089" lon="5.18144">
        <ele>831</ele>
      </trkpt>
      <trkpt lat="44.61128" lon="5.18146">
        <ele>834</ele>
      </trkpt>
      <trkpt lat="44.61137" lon="5.18151">
        <ele>836</ele>
      </trkpt>
      <trkpt lat="44.6114" lon="5.18157">
        <ele>836</ele>
      </trkpt>
      <trkpt lat="44.6114" lon="5.18166">
        <ele>837</ele>
      </trkpt>
      <trkpt lat="44.61135" lon="5.18174">
        <ele>842</ele>
      </trkpt>
      <trkpt lat="44.61032" lon="5.18253">
        <ele>845</ele>
      </trkpt>
      <trkpt lat="44.61013" lon="5.18272">
        <ele>849</ele>
      </trkpt>
      <trkpt lat="44.6099" lon="5.18287">
        <ele>854</ele>
      </trkpt>
      <trkpt lat="44.60968" lon="5.18314">
        <ele>858</ele>
      </trkpt>
      <trkpt lat="44.60933" lon="5.18344">
        <ele>860</ele>
      </trkpt>
      <trkpt lat="44.60904" lon="5.18364">
        <ele>858</ele>
      </trkpt>
      <trkpt lat="44.60897" lon="5.18374">
        <ele>860</ele>
      </trkpt>
      <trkpt lat="44.60896" lon="5.18387">
        <ele>861</ele>
      </trkpt>
      <trkpt lat="44.609" lon="5.184">
        <ele>864</ele>
      </trkpt>
      <trkpt lat="44.60912" lon="5.18408">
        <ele>867</ele>
      </trkpt>
      <trkpt lat="44.60929" lon="5.18411">
        <ele>868</ele>
      </trkpt>
      <trkpt lat="44.60947" lon="5.18412">
        <ele>872</ele>
      </trkpt>
      <trkpt lat="44.60969" lon="5.18402">
        <ele>875</ele>
      </trkpt>
      <trkpt lat="44.6102" lon="5.18391">
        <ele>875</ele>
      </trkpt>
      <trkpt lat="44.61049" lon="5.18388">
        <ele>879</ele>
      </trkpt>
      <trkpt lat="44.61074" lon="5.1838">
        <ele>883</ele>
      </trkpt>
      <trkpt lat="44.6111" lon="5.18357">
        <ele>882</ele>
      </trkpt>
      <trkpt lat="44.61165" lon="5.18337">
        <ele>883</ele>
      </trkpt>
      <trkpt lat="44.61188" lon="5.18337">
        <ele>888</ele>
      </trkpt>
      <trkpt lat="44.61258" lon="5.18356">
        <ele>901</ele>
      </trkpt>
      <trkpt lat="44.61273" lon="5.18355">
        <ele>903</ele>
      </trkpt>
      <trkpt lat="44.61294" lon="5.18348">
        <ele>903</ele>
      </trkpt>
      <trkpt lat="44.61328" lon="5.18342">
        <ele>909</ele>
      </trkpt>
      <trkpt lat="44.61367" lon="5.18313">
        <ele>910</ele>
      </trkpt>
      <trkpt lat="44.61402" lon="5.18309">
        <ele>907</ele>
      </trkpt>
      <trkpt lat="44.61416" lon="5.18312">
        <ele>917</ele>
      </trkpt>
      <trkpt lat="44.61439" lon="5.18323">
        <ele>925</ele>
      </trkpt>
      <trkpt lat="44.61447" lon="5.18323">
        <ele>926</ele>
      </trkpt>
      <trkpt lat="44.61564" lon="5.18275">
        <ele>924</ele>
      </trkpt>
      <trkpt lat="44.61585" lon="5.18273">
        <ele>925</ele>
      </trkpt>
      <trkpt lat="44.61741" lon="5.18306">
        <ele>940</ele>
      </trkpt>
      <trkpt lat="44.61881" lon="5.18325">
        <ele>953</ele>
      </trkpt>
      <trkpt lat="44.61929" lon="5.18336">
        <ele>957</ele>
      </trkpt>
      <trkpt lat="44.6196" lon="5.18347">
        <ele>961</ele>
      </trkpt>
      <trkpt lat="44.61976" lon="5.1836">
        <ele>960</ele>
      </trkpt>
      <trkpt lat="44.61987" lon="5.18372">
        <ele>962</ele>
      </trkpt>
      <trkpt lat="44.62037" lon="5.18447">
        <ele>961</ele>
      </trkpt>
      <trkpt lat="44.62063" lon="5.18495">
        <ele>957</ele>
      </trkpt>
      <trkpt lat="44.62075" lon="5.18521">
        <ele>956</ele>
      </trkpt>
      <trkpt lat="44.62082" lon="5.18542">
        <ele>960</ele>
      </trkpt>
      <trkpt lat="44.62108" lon="5.18597">
        <ele>962</ele>
      </trkpt>
      <trkpt lat="44.62158" lon="5.18745">
        <ele>964</ele>
      </trkpt>
      <trkpt lat="44.62186" lon="5.18877">
        <ele>973</ele>
      </trkpt>
      <trkpt lat="44.62196" lon="5.1896">
        <ele>982</ele>
      </trkpt>
      <trkpt lat="44.62217" lon="5.19191">
        <ele>1004</ele>
      </trkpt>
      <trkpt lat="44.62223" lon="5.19209">
        <ele>1013</ele>
      </trkpt>
      <trkpt lat="44.62229" lon="5.19218">
        <ele>1013</ele>
      </trkpt>
      <trkpt lat="44.62235" lon="5.19224">
        <ele>1013</ele>
      </trkpt>
      <trkpt lat="44.62279" lon="5.19232">
        <ele>1006</ele>
      </trkpt>
      <trkpt lat="44.62295" lon="5.19241">
        <ele>1005</ele>
      </trkpt>
      <trkpt lat="44.62308" lon="5.19258">
        <ele>1005</ele>
      </trkpt>
      <trkpt lat="44.62338" lon="5.19317">
        <ele>1004</ele>
      </trkpt>
      <trkpt lat="44.62349" lon="5.19367">
        <ele>1012</ele>
      </trkpt>
      <trkpt lat="44.62352" lon="5.19415">
        <ele>1011</ele>
      </trkpt>
      <trkpt lat="44.62358" lon="5.1944">
        <ele>1016</ele>
      </trkpt>
      <trkpt lat="44.62384" lon="5.19493">
        <ele>1008</ele>
      </trkpt>
      <trkpt lat="44.62393" lon="5.19521">
        <ele>1011</ele>
      </trkpt>
      <trkpt lat="44.62398" lon="5.19572">
        <ele>1024</ele>
      </trkpt>
      <trkpt lat="44.62405" lon="5.19596">
        <ele>1028</ele>
      </trkpt>
      <trkpt lat="44.62421" lon="5.19628">
        <ele>1023</ele>
      </trkpt>
      <trkpt lat="44.62464" lon="5.19693">
        <ele>1015</ele>
      </trkpt>
      <trkpt lat="44.62467" lon="5.19708">
        <ele>1018</ele>
      </trkpt>
      <trkpt lat="44.62466" lon="5.19728">
        <ele>1021</ele>
      </trkpt>
      <trkpt lat="44.62463" lon="5.19751">
        <ele>1021</ele>
      </trkpt>
      <trkpt lat="44.62462" lon="5.19772">
        <ele>1023</ele>
      </trkpt>
      <trkpt lat="44.62464" lon="5.19787">
        <ele>1025</ele>
      </trkpt>
      <trkpt lat="44.62484" lon="5.19823">
        <ele>1028</ele>
      </trkpt>
      <trkpt lat="44.62505" lon="5.19873">
        <ele>1034</ele>
      </trkpt>
      <trkpt lat="44.62612" lon="5.20026">
        <ele>1040</ele>
      </trkpt>
      <trkpt lat="44.62647" lon="5.201">
        <ele>1050</ele>
      </trkpt>
      <trkpt lat="44.6266" lon="5.20119">
        <ele>1051</ele>
      </trkpt>
      <trkpt lat="44.62696" lon="5.20161">
        <ele>1048</ele>
      </trkpt>
      <trkpt lat="44.6272" lon="5.20178">
        <ele>1046</ele>
      </trkpt>
      <trkpt lat="44.62762" lon="5.20195">
        <ele>1056</ele>
      </trkpt>
      <trkpt lat="44.62771" lon="5.20202">
        <ele>1057</ele>
      </trkpt>
      <trkpt lat="44.62839" lon="5.20296">
        <ele>1054</ele>
      </trkpt>
      <trkpt lat="44.62861" lon="5.20342">
        <ele>1048</ele>
      </trkpt>
      <trkpt lat="44.62907" lon="5.20396">
        <ele>1047</ele>
      </trkpt>
      <trkpt lat="44.62915" lon="5.20411">
        <ele>1047</ele>
      </trkpt>
      <trkpt lat="44.62919" lon="5.20422">
        <ele>1045</ele>
      </trkpt>
      <trkpt lat="44.6292" lon="5.20432">
        <ele>1038</ele>
      </trkpt>
      <trkpt lat="44.62919" lon="5.20456">
        <ele>1032</ele>
      </trkpt>
      <trkpt lat="44.62922" lon="5.20476">
        <ele>1031</ele>
      </trkpt>
      <trkpt lat="44.62926" lon="5.20487">
        <ele>1027</ele>
      </trkpt>
      <trkpt lat="44.62965" lon="5.20522">
        <ele>1032</ele>
      </trkpt>
      <trkpt lat="44.62981" lon="5.2054">
        <ele>1027</ele>
      </trkpt>
      <trkpt lat="44.62993" lon="5.20557">
        <ele>1031</ele>
      </trkpt>
      <trkpt lat="44.63004" lon="5.20588">
        <ele>1027</ele>
      </trkpt>
      <trkpt lat="44.63027" lon="5.20622">
        <ele>1029</ele>
      </trkpt>
      <trkpt lat="44.6303" lon="5.20632">
        <ele>1029</ele>
      </trkpt>
      <trkpt lat="44.6303" lon="5.20639">
        <ele>1029</ele>
      </trkpt>
      <trkpt lat="44.63026" lon="5.20697">
        <ele>1022</ele>
      </trkpt>
      <trkpt lat="44.63031" lon="5.20739">
        <ele>1017</ele>
      </trkpt>
      <trkpt lat="44.63041" lon="5.20773">
        <ele>1011</ele>
      </trkpt>
      <trkpt lat="44.63057" lon="5.20805">
        <ele>1008</ele>
      </trkpt>
      <trkpt lat="44.63075" lon="5.20826">
        <ele>1004</ele>
      </trkpt>
      <trkpt lat="44.63106" lon="5.20855">
        <ele>1000</ele>
      </trkpt>
      <trkpt lat="44.63131" lon="5.20867">
        <ele>997</ele>
      </trkpt>
      <trkpt lat="44.63139" lon="5.20874">
        <ele>997</ele>
      </trkpt>
      <trkpt lat="44.63149" lon="5.20884">
        <ele>996</ele>
      </trkpt>
      <trkpt lat="44.63174" lon="5.20917">
        <ele>990</ele>
      </trkpt>
      <trkpt lat="44.6319" lon="5.20929">
        <ele>987</ele>
      </trkpt>
      <trkpt lat="44.63218" lon="5.20937">
        <ele>988</ele>
      </trkpt>
      <trkpt lat="44.63256" lon="5.20943">
        <ele>986</ele>
      </trkpt>
      <trkpt lat="44.63272" lon="5.20945">
        <ele>984</ele>
      </trkpt>
      <trkpt lat="44.63294" lon="5.20944">
        <ele>983</ele>
      </trkpt>
      <trkpt lat="44.63304" lon="5.20939">
        <ele>981</ele>
      </trkpt>
      <trkpt lat="44.63319" lon="5.20923">
        <ele>982</ele>
      </trkpt>
      <trkpt lat="44.6333" lon="5.20915">
        <ele>985</ele>
      </trkpt>
      <trkpt lat="44.6334" lon="5.20916">
        <ele>985</ele>
      </trkpt>
      <trkpt lat="44.63348" lon="5.2092">
        <ele>984</ele>
      </trkpt>
      <trkpt lat="44.63367" lon="5.20937">
        <ele>980</ele>
      </trkpt>
      <trkpt lat="44.63405" lon="5.20979">
        <ele>970</ele>
      </trkpt>
      <trkpt lat="44.63417" lon="5.20982">
        <ele>970</ele>
      </trkpt>
      <trkpt lat="44.63429" lon="5.20982">
        <ele>969</ele>
      </trkpt>
      <trkpt lat="44.63461" lon="5.20972">
        <ele>972</ele>
      </trkpt>
      <trkpt lat="44.63499" lon="5.20974">
        <ele>967</ele>
      </trkpt>
      <trkpt lat="44.63517" lon="5.20972">
        <ele>967</ele>
      </trkpt>
      <trkpt lat="44.63555" lon="5.20957">
        <ele>965</ele>
      </trkpt>
      <trkpt lat="44.63565" lon="5.20957">
        <ele>965</ele>
      </trkpt>
      <trkpt lat="44.63582" lon="5.20965">
        <ele>962</ele>
      </trkpt>
      <trkpt lat="44.63599" lon="5.20984">
        <ele>958</ele>
      </trkpt>
      <trkpt lat="44.6361" lon="5.20993">
        <ele>957</ele>
      </trkpt>
      <trkpt lat="44.63622" lon="5.20996">
        <ele>957</ele>
      </trkpt>
      <trkpt lat="44.63669" lon="5.2099">
        <ele>958</ele>
      </trkpt>
      <trkpt lat="44.6368" lon="5.2099">
        <ele>959</ele>
      </trkpt>
      <trkpt lat="44.63695" lon="5.20994">
        <ele>960</ele>
      </trkpt>
      <trkpt lat="44.63776" lon="5.21038">
        <ele>942</ele>
      </trkpt>
      <trkpt lat="44.63788" lon="5.2104">
        <ele>941</ele>
      </trkpt>
      <trkpt lat="44.63802" lon="5.21037">
        <ele>937</ele>
      </trkpt>
      <trkpt lat="44.63836" lon="5.21009">
        <ele>940</ele>
      </trkpt>
      <trkpt lat="44.63848" lon="5.21004">
        <ele>945</ele>
      </trkpt>
      <trkpt lat="44.63858" lon="5.21003">
        <ele>945</ele>
      </trkpt>
      <trkpt lat="44.63867" lon="5.21007">
        <ele>940</ele>
      </trkpt>
      <trkpt lat="44.63882" lon="5.21028">
        <ele>938</ele>
      </trkpt>
      <trkpt lat="44.63891" lon="5.21037">
        <ele>933</ele>
      </trkpt>
      <trkpt lat="44.63901" lon="5.21041">
        <ele>933</ele>
      </trkpt>
      <trkpt lat="44.63959" lon="5.21045">
        <ele>933</ele>
      </trkpt>
      <trkpt lat="44.63987" lon="5.2104">
        <ele>933</ele>
      </trkpt>
      <trkpt lat="44.63996" lon="5.2104">
        <ele>933</ele>
      </trkpt>
      <trkpt lat="44.64" lon="5.21042">
        <ele>933</ele>
      </trkpt>
      <trkpt lat="44.64018" lon="5.21056">
        <ele>932</ele>
      </trkpt>
      <trkpt lat="44.64034" lon="5.21065">
        <ele>926</ele>
      </trkpt>
      <trkpt lat="44.64077" lon="5.21072">
        <ele>921</ele>
      </trkpt>
      <trkpt lat="44.64094" lon="5.21072">
        <ele>919</ele>
      </trkpt>
      <trkpt lat="44.64103" lon="5.2107">
        <ele>915</ele>
      </trkpt>
      <trkpt lat="44.6413" lon="5.21051">
        <ele>915</ele>
      </trkpt>
      <trkpt lat="44.64146" lon="5.21044">
        <ele>914</ele>
      </trkpt>
      <trkpt lat="44.64163" lon="5.21043">
        <ele>916</ele>
      </trkpt>
      <trkpt lat="44.64174" lon="5.21047">
        <ele>917</ele>
      </trkpt>
      <trkpt lat="44.6418" lon="5.21051">
        <ele>917</ele>
      </trkpt>
      <trkpt lat="44.64187" lon="5.21064">
        <ele>918</ele>
      </trkpt>
      <trkpt lat="44.64192" lon="5.21082">
        <ele>918</ele>
      </trkpt>
      <trkpt lat="44.64197" lon="5.21097">
        <ele>913</ele>
      </trkpt>
      <trkpt lat="44.64209" lon="5.21117">
        <ele>909</ele>
      </trkpt>
      <trkpt lat="44.64216" lon="5.21125">
        <ele>912</ele>
      </trkpt>
      <trkpt lat="44.64229" lon="5.21133">
        <ele>913</ele>
      </trkpt>
      <trkpt lat="44.64263" lon="5.21141">
        <ele>919</ele>
      </trkpt>
      <trkpt lat="44.64272" lon="5.21149">
        <ele>920</ele>
      </trkpt>
      <trkpt lat="44.64288" lon="5.21171">
        <ele>920</ele>
      </trkpt>
      <trkpt lat="44.64294" lon="5.21189">
        <ele>916</ele>
      </trkpt>
      <trkpt lat="44.64301" lon="5.21223">
        <ele>917</ele>
      </trkpt>
      <trkpt lat="44.64313" lon="5.2127">
        <ele>907</ele>
      </trkpt>
      <trkpt lat="44.64323" lon="5.21296">
        <ele>902</ele>
      </trkpt>
      <trkpt lat="44.64338" lon="5.21328">
        <ele>905</ele>
      </trkpt>
      <trkpt lat="44.64356" lon="5.21371">
        <ele>896</ele>
      </trkpt>
      <trkpt lat="44.64383" lon="5.21459">
        <ele>892</ele>
      </trkpt>
      <trkpt lat="44.64393" lon="5.21475">
        <ele>892</ele>
      </trkpt>
      <trkpt lat="44.64413" lon="5.21494">
        <ele>897</ele>
      </trkpt>
      <trkpt lat="44.64421" lon="5.2151">
        <ele>894</ele>
      </trkpt>
      <trkpt lat="44.64425" lon="5.21533">
        <ele>893</ele>
      </trkpt>
      <trkpt lat="44.64424" lon="5.21559">
        <ele>888</ele>
      </trkpt>
      <trkpt lat="44.64426" lon="5.21572">
        <ele>884</ele>
      </trkpt>
      <trkpt lat="44.64432" lon="5.21592">
        <ele>878</ele>
      </trkpt>
      <trkpt lat="44.64458" lon="5.2164">
        <ele>877</ele>
      </trkpt>
      <trkpt lat="44.64468" lon="5.21667">
        <ele>877</ele>
      </trkpt>
      <trkpt lat="44.64472" lon="5.2171">
        <ele>871</ele>
      </trkpt>
      <trkpt lat="44.64475" lon="5.21729">
        <ele>869</ele>
      </trkpt>
      <trkpt lat="44.64493" lon="5.21805">
        <ele>861</ele>
      </trkpt>
      <trkpt lat="44.64498" lon="5.21814">
        <ele>857</ele>
      </trkpt>
      <trkpt lat="44.64505" lon="5.21821">
        <ele>856</ele>
      </trkpt>
      <trkpt lat="44.6451" lon="5.21824">
        <ele>856</ele>
      </trkpt>
      <trkpt lat="44.64522" lon="5.21826">
        <ele>852</ele>
      </trkpt>
      <trkpt lat="44.64539" lon="5.21823">
        <ele>851</ele>
      </trkpt>
      <trkpt lat="44.64553" lon="5.21815">
        <ele>846</ele>
      </trkpt>
      <trkpt lat="44.64573" lon="5.21793">
        <ele>848</ele>
      </trkpt>
      <trkpt lat="44.64607" lon="5.21738">
        <ele>843</ele>
      </trkpt>
      <trkpt lat="44.64635" lon="5.21709">
        <ele>841</ele>
      </trkpt>
      <trkpt lat="44.64664" lon="5.21669">
        <ele>841</ele>
      </trkpt>
      <trkpt lat="44.64731" lon="5.2155">
        <ele>840</ele>
      </trkpt>
      <trkpt lat="44.64743" lon="5.21537">
        <ele>836</ele>
      </trkpt>
      <trkpt lat="44.64753" lon="5.21527">
        <ele>838</ele>
      </trkpt>
      <trkpt lat="44.64882" lon="5.2143">
        <ele>826</ele>
      </trkpt>
      <trkpt lat="44.64927" lon="5.21343">
        <ele>823</ele>
      </trkpt>
      <trkpt lat="44.64944" lon="5.21297">
        <ele>817</ele>
      </trkpt>
      <trkpt lat="44.64958" lon="5.21277">
        <ele>816</ele>
      </trkpt>
      <trkpt lat="44.64973" lon="5.21246">
        <ele>812</ele>
      </trkpt>
      <trkpt lat="44.64995" lon="5.21222">
        <ele>808</ele>
      </trkpt>
      <trkpt lat="44.65003" lon="5.21209">
        <ele>808</ele>
      </trkpt>
      <trkpt lat="44.65009" lon="5.21184">
        <ele>808</ele>
      </trkpt>
      <trkpt lat="44.65009" lon="5.21132">
        <ele>806</ele>
      </trkpt>
      <trkpt lat="44.65013" lon="5.21129">
        <ele>805</ele>
      </trkpt>
      <trkpt lat="44.65019" lon="5.21129">
        <ele>800</ele>
      </trkpt>
      <trkpt lat="44.65023" lon="5.21139">
        <ele>799</ele>
      </trkpt>
      <trkpt lat="44.65055" lon="5.21317">
        <ele>793</ele>
      </trkpt>
      <trkpt lat="44.65057" lon="5.21351">
        <ele>791</ele>
      </trkpt>
      <trkpt lat="44.65059" lon="5.21359">
        <ele>791</ele>
      </trkpt>
      <trkpt lat="44.65062" lon="5.21364">
        <ele>791</ele>
      </trkpt>
      <trkpt lat="44.65065" lon="5.21365">
        <ele>791</ele>
      </trkpt>
      <trkpt lat="44.65073" lon="5.2136">
        <ele>790</ele>
      </trkpt>
      <trkpt lat="44.6508" lon="5.2135">
        <ele>785</ele>
      </trkpt>
      <trkpt lat="44.65087" lon="5.21336">
        <ele>785</ele>
      </trkpt>
      <trkpt lat="44.65094" lon="5.21301">
        <ele>784</ele>
      </trkpt>
      <trkpt lat="44.65097" lon="5.21283">
        <ele>784</ele>
      </trkpt>
      <trkpt lat="44.65101" lon="5.21271">
        <ele>784</ele>
      </trkpt>
      <trkpt lat="44.65125" lon="5.21253">
        <ele>778</ele>
      </trkpt>
      <trkpt lat="44.65135" lon="5.21235">
        <ele>773</ele>
      </trkpt>
      <trkpt lat="44.65138" lon="5.21215">
        <ele>775</ele>
      </trkpt>
      <trkpt lat="44.65148" lon="5.21174">
        <ele>775</ele>
      </trkpt>
      <trkpt lat="44.65154" lon="5.21162">
        <ele>775</ele>
      </trkpt>
      <trkpt lat="44.65159" lon="5.21152">
        <ele>771</ele>
      </trkpt>
      <trkpt lat="44.65208" lon="5.21096">
        <ele>759</ele>
      </trkpt>
      <trkpt lat="44.6521" lon="5.21088">
        <ele>758</ele>
      </trkpt>
      <trkpt lat="44.65208" lon="5.21077">
        <ele>757</ele>
      </trkpt>
      <trkpt lat="44.65205" lon="5.21071">
        <ele>758</ele>
      </trkpt>
      <trkpt lat="44.65201" lon="5.21065">
        <ele>758</ele>
      </trkpt>
      <trkpt lat="44.65168" lon="5.21045">
        <ele>759</ele>
      </trkpt>
      <trkpt lat="44.65161" lon="5.2103">
        <ele>757</ele>
      </trkpt>
      <trkpt lat="44.65159" lon="5.2102">
        <ele>757</ele>
      </trkpt>
      <trkpt lat="44.65158" lon="5.2101">
        <ele>756</ele>
      </trkpt>
      <trkpt lat="44.6516" lon="5.21001">
        <ele>756</ele>
      </trkpt>
      <trkpt lat="44.65194" lon="5.20948">
        <ele>758</ele>
      </trkpt>
      <trkpt lat="44.65251" lon="5.20929">
        <ele>749</ele>
      </trkpt>
      <trkpt lat="44.6526" lon="5.20923">
        <ele>749</ele>
      </trkpt>
      <trkpt lat="44.65272" lon="5.20908">
        <ele>750</ele>
      </trkpt>
      <trkpt lat="44.65297" lon="5.20902">
        <ele>746</ele>
      </trkpt>
      <trkpt lat="44.65329" lon="5.209">
        <ele>738</ele>
      </trkpt>
      <trkpt lat="44.65338" lon="5.20896">
        <ele>738</ele>
      </trkpt>
      <trkpt lat="44.65352" lon="5.20878">
        <ele>736</ele>
      </trkpt>
      <trkpt lat="44.65365" lon="5.20855">
        <ele>738</ele>
      </trkpt>
      <trkpt lat="44.6537" lon="5.20839">
        <ele>739</ele>
      </trkpt>
      <trkpt lat="44.65375" lon="5.20805">
        <ele>742</ele>
      </trkpt>
      <trkpt lat="44.65413" lon="5.20699">
        <ele>735</ele>
      </trkpt>
      <trkpt lat="44.65433" lon="5.20667">
        <ele>737</ele>
      </trkpt>
      <trkpt lat="44.65467" lon="5.20639">
        <ele>724</ele>
      </trkpt>
      <trkpt lat="44.65513" lon="5.20523">
        <ele>724</ele>
      </trkpt>
      <trkpt lat="44.6559" lon="5.20449">
        <ele>718</ele>
      </trkpt>
      <trkpt lat="44.65649" lon="5.20412">
        <ele>715</ele>
      </trkpt>
      <trkpt lat="44.6569" lon="5.20383">
        <ele>712</ele>
      </trkpt>
      <trkpt lat="44.65743" lon="5.20355">
        <ele>705</ele>
      </trkpt>
      <trkpt lat="44.65748" lon="5.20348">
        <ele>704</ele>
      </trkpt>
      <trkpt lat="44.65753" lon="5.20335">
        <ele>706</ele>
      </trkpt>
      <trkpt lat="44.6576" lon="5.203">
        <ele>708</ele>
      </trkpt>
      <trkpt lat="44.65766" lon="5.20286">
        <ele>708</ele>
      </trkpt>
      <trkpt lat="44.6578" lon="5.20265">
        <ele>705</ele>
      </trkpt>
      <trkpt lat="44.65794" lon="5.20259">
        <ele>705</ele>
      </trkpt>
      <trkpt lat="44.65817" lon="5.20253">
        <ele>704</ele>
      </trkpt>
      <trkpt lat="44.65905" lon="5.20194">
        <ele>698</ele>
      </trkpt>
      <trkpt lat="44.65965" lon="5.2012">
        <ele>690</ele>
      </trkpt>
      <trkpt lat="44.65995" lon="5.2008">
        <ele>691</ele>
      </trkpt>
      <trkpt lat="44.66038" lon="5.20036">
        <ele>685</ele>
      </trkpt>
      <trkpt lat="44.66044" lon="5.20026">
        <ele>688</ele>
      </trkpt>
      <trkpt lat="44.66057" lon="5.19981">
        <ele>684</ele>
      </trkpt>
      <trkpt lat="44.66069" lon="5.19951">
        <ele>685</ele>
      </trkpt>
      <trkpt lat="44.66073" lon="5.19935">
        <ele>684</ele>
      </trkpt>
      <trkpt lat="44.66074" lon="5.19923">
        <ele>676</ele>
      </trkpt>
      <trkpt lat="44.66064" lon="5.1985">
        <ele>677</ele>
      </trkpt>
      <trkpt lat="44.66057" lon="5.19812">
        <ele>672</ele>
      </trkpt>
      <trkpt lat="44.66039" lon="5.19737">
        <ele>675</ele>
      </trkpt>
      <trkpt lat="44.6601" lon="5.19659">
        <ele>673</ele>
      </trkpt>
      <trkpt lat="44.66002" lon="5.19621">
        <ele>668</ele>
      </trkpt>
      <trkpt lat="44.6599" lon="5.19583">
        <ele>668</ele>
      </trkpt>
      <trkpt lat="44.65977" lon="5.19547">
        <ele>662</ele>
      </trkpt>
      <trkpt lat="44.65964" lon="5.19504">
        <ele>661</ele>
      </trkpt>
      <trkpt lat="44.65947" lon="5.19479">
        <ele>669</ele>
      </trkpt>
      <trkpt lat="44.65944" lon="5.19465">
        <ele>666</ele>
      </trkpt>
      <trkpt lat="44.65943" lon="5.19451">
        <ele>665</ele>
      </trkpt>
      <trkpt lat="44.65947" lon="5.19438">
        <ele>662</ele>
      </trkpt>
      <trkpt lat="44.65961" lon="5.19415">
        <ele>660</ele>
      </trkpt>
      <trkpt lat="44.65964" lon="5.19404">
        <ele>654</ele>
      </trkpt>
      <trkpt lat="44.65968" lon="5.19361">
        <ele>655</ele>
      </trkpt>
      <trkpt lat="44.65976" lon="5.1934">
        <ele>655</ele>
      </trkpt>
      <trkpt lat="44.65992" lon="5.19318">
        <ele>651</ele>
      </trkpt>
      <trkpt lat="44.66008" lon="5.19306">
        <ele>654</ele>
      </trkpt>
      <trkpt lat="44.66049" lon="5.19253">
        <ele>651</ele>
      </trkpt>
      <trkpt lat="44.66074" lon="5.19237">
        <ele>645</ele>
      </trkpt>
      <trkpt lat="44.66104" lon="5.19228">
        <ele>638</ele>
      </trkpt>
      <trkpt lat="44.66124" lon="5.19212">
        <ele>641</ele>
      </trkpt>
      <trkpt lat="44.66148" lon="5.19185">
        <ele>641</ele>
      </trkpt>
      <trkpt lat="44.66189" lon="5.19132">
        <ele>643</ele>
      </trkpt>
      <trkpt lat="44.66219" lon="5.19114">
        <ele>643</ele>
      </trkpt>
      <trkpt lat="44.66267" lon="5.19094">
        <ele>639</ele>
      </trkpt>
      <trkpt lat="44.66281" lon="5.19085">
        <ele>641</ele>
      </trkpt>
      <trkpt lat="44.66296" lon="5.19072">
        <ele>641</ele>
      </trkpt>
      <trkpt lat="44.66305" lon="5.19039">
        <ele>641</ele>
      </trkpt>
      <trkpt lat="44.66309" lon="5.19001">
        <ele>639</ele>
      </trkpt>
      <trkpt lat="44.66313" lon="5.18945">
        <ele>634</ele>
      </trkpt>
      <trkpt lat="44.66311" lon="5.18917">
        <ele>633</ele>
      </trkpt>
      <trkpt lat="44.66312" lon="5.18894">
        <ele>633</ele>
      </trkpt>
      <trkpt lat="44.66318" lon="5.18878">
        <ele>632</ele>
      </trkpt>
      <trkpt lat="44.6634" lon="5.18846">
        <ele>624</ele>
      </trkpt>
      <trkpt lat="44.66348" lon="5.18832">
        <ele>624</ele>
      </trkpt>
      <trkpt lat="44.66353" lon="5.18817">
        <ele>619</ele>
      </trkpt>
      <trkpt lat="44.66361" lon="5.18772">
        <ele>621</ele>
      </trkpt>
      <trkpt lat="44.66374" lon="5.18747">
        <ele>627</ele>
      </trkpt>
      <trkpt lat="44.66382" lon="5.18738">
        <ele>630</ele>
      </trkpt>
      <trkpt lat="44.66388" lon="5.18735">
        <ele>631</ele>
      </trkpt>
      <trkpt lat="44.66398" lon="5.18737">
        <ele>631</ele>
      </trkpt>
      <trkpt lat="44.66403" lon="5.18744">
        <ele>632</ele>
      </trkpt>
      <trkpt lat="44.66418" lon="5.18792">
        <ele>622</ele>
      </trkpt>
      <trkpt lat="44.6643" lon="5.18815">
        <ele>615</ele>
      </trkpt>
      <trkpt lat="44.66471" lon="5.1886">
        <ele>607</ele>
      </trkpt>
      <trkpt lat="44.66516" lon="5.18893">
        <ele>599</ele>
      </trkpt>
      <trkpt lat="44.66541" lon="5.18906">
        <ele>591</ele>
      </trkpt>
      <trkpt lat="44.66562" lon="5.18907">
        <ele>589</ele>
      </trkpt>
      <trkpt lat="44.6658" lon="5.18896">
        <ele>585</ele>
      </trkpt>
      <trkpt lat="44.66599" lon="5.18881">
        <ele>589</ele>
      </trkpt>
      <trkpt lat="44.66645" lon="5.18856">
        <ele>581</ele>
      </trkpt>
      <trkpt lat="44.66663" lon="5.18834">
        <ele>578</ele>
      </trkpt>
      <trkpt lat="44.66679" lon="5.18806">
        <ele>580</ele>
      </trkpt>
      <trkpt lat="44.66693" lon="5.18787">
        <ele>575</ele>
      </trkpt>
      <trkpt lat="44.66711" lon="5.18772">
        <ele>579</ele>
      </trkpt>
      <trkpt lat="44.66781" lon="5.18741">
        <ele>567</ele>
      </trkpt>
      <trkpt lat="44.66823" lon="5.18737">
        <ele>561</ele>
      </trkpt>
      <trkpt lat="44.66862" lon="5.18726">
        <ele>557</ele>
      </trkpt>
      <trkpt lat="44.66888" lon="5.18717">
        <ele>553</ele>
      </trkpt>
      <trkpt lat="44.66968" lon="5.18666">
        <ele>546</ele>
      </trkpt>
      <trkpt lat="44.66996" lon="5.18642">
        <ele>544</ele>
      </trkpt>
      <trkpt lat="44.67026" lon="5.18612">
        <ele>541</ele>
      </trkpt>
      <trkpt lat="44.67079" lon="5.18573">
        <ele>533</ele>
      </trkpt>
      <trkpt lat="44.67108" lon="5.18559">
        <ele>533</ele>
      </trkpt>
      <trkpt lat="44.67121" lon="5.18541">
        <ele>533</ele>
      </trkpt>
      <trkpt lat="44.67127" lon="5.18507">
        <ele>531</ele>
      </trkpt>
      <trkpt lat="44.67134" lon="5.18492">
        <ele>528</ele>
      </trkpt>
      <trkpt lat="44.67159" lon="5.18477">
        <ele>523</ele>
      </trkpt>
      <trkpt lat="44.6719" lon="5.1848">
        <ele>518</ele>
      </trkpt>
      <trkpt lat="44.672" lon="5.18485">
        <ele>516</ele>
      </trkpt>
      <trkpt lat="44.67208" lon="5.18496">
        <ele>516</ele>
      </trkpt>
      <trkpt lat="44.67222" lon="5.18562">
        <ele>514</ele>
      </trkpt>
      <trkpt lat="44.67231" lon="5.18592">
        <ele>513</ele>
      </trkpt>
      <trkpt lat="44.67274" lon="5.1863">
        <ele>514</ele>
      </trkpt>
      <trkpt lat="44.6728" lon="5.18649">
        <ele>514</ele>
      </trkpt>
      <trkpt lat="44.67282" lon="5.18672">
        <ele>512</ele>
      </trkpt>
      <trkpt lat="44.67288" lon="5.18704">
        <ele>507</ele>
      </trkpt>
      <trkpt lat="44.6731" lon="5.18726">
        <ele>506</ele>
      </trkpt>
      <trkpt lat="44.67332" lon="5.18736">
        <ele>499</ele>
      </trkpt>
      <trkpt lat="44.67406" lon="5.18754">
        <ele>496</ele>
      </trkpt>
      <trkpt lat="44.67456" lon="5.18773">
        <ele>486</ele>
      </trkpt>
      <trkpt lat="44.67479" lon="5.18773">
        <ele>483</ele>
      </trkpt>
      <trkpt lat="44.67505" lon="5.18758">
        <ele>479</ele>
      </trkpt>
      <trkpt lat="44.6753" lon="5.18754">
        <ele>482</ele>
      </trkpt>
      <trkpt lat="44.67554" lon="5.18756">
        <ele>470</ele>
      </trkpt>
      <trkpt lat="44.6758" lon="5.18754">
        <ele>479</ele>
      </trkpt>
      <trkpt lat="44.67614" lon="5.18754">
        <ele>477</ele>
      </trkpt>
      <trkpt lat="44.67708" lon="5.1875">
        <ele>474</ele>
      </trkpt>
      <trkpt lat="44.67734" lon="5.18755">
        <ele>473</ele>
      </trkpt>
      <trkpt lat="44.67759" lon="5.18777">
        <ele>465</ele>
      </trkpt>
      <trkpt lat="44.67784" lon="5.18786">
        <ele>461</ele>
      </trkpt>
      <trkpt lat="44.67802" lon="5.18785">
        <ele>461</ele>
      </trkpt>
      <trkpt lat="44.67845" lon="5.18766">
        <ele>467</ele>
      </trkpt>
      <trkpt lat="44.67859" lon="5.18768">
        <ele>468</ele>
      </trkpt>
      <trkpt lat="44.67893" lon="5.18819">
        <ele>460</ele>
      </trkpt>
      <trkpt lat="44.6793" lon="5.18863">
        <ele>456</ele>
      </trkpt>
      <trkpt lat="44.67975" lon="5.18924">
        <ele>443</ele>
      </trkpt>
      <trkpt lat="44.67983" lon="5.18932">
        <ele>442</ele>
      </trkpt>
      <trkpt lat="44.68001" lon="5.18939">
        <ele>443</ele>
      </trkpt>
      <trkpt lat="44.68019" lon="5.18934">
        <ele>446</ele>
      </trkpt>
      <trkpt lat="44.6803" lon="5.18929">
        <ele>447</ele>
      </trkpt>
      <trkpt lat="44.68036" lon="5.18929">
        <ele>447</ele>
      </trkpt>
      <trkpt lat="44.68049" lon="5.18935">
        <ele>449</ele>
      </trkpt>
      <trkpt lat="44.68054" lon="5.1894">
        <ele>449</ele>
      </trkpt>
      <trkpt lat="44.6806" lon="5.18949">
        <ele>449</ele>
      </trkpt>
      <trkpt lat="44.68065" lon="5.1897">
        <ele>449</ele>
      </trkpt>
      <trkpt lat="44.68066" lon="5.18982">
        <ele>447</ele>
      </trkpt>
      <trkpt lat="44.68065" lon="5.18994">
        <ele>447</ele>
      </trkpt>
      <trkpt lat="44.68059" lon="5.19021">
        <ele>444</ele>
      </trkpt>
      <trkpt lat="44.68056" lon="5.19049">
        <ele>438</ele>
      </trkpt>
      <trkpt lat="44.68058" lon="5.19061">
        <ele>434</ele>
      </trkpt>
      <trkpt lat="44.68067" lon="5.19081">
        <ele>432</ele>
      </trkpt>
      <trkpt lat="44.68093" lon="5.19102">
        <ele>430</ele>
      </trkpt>
      <trkpt lat="44.6811" lon="5.19113">
        <ele>432</ele>
      </trkpt>
      <trkpt lat="44.68151" lon="5.19131">
        <ele>426</ele>
      </trkpt>
      <trkpt lat="44.68204" lon="5.1916">
        <ele>425</ele>
      </trkpt>
      <trkpt lat="44.68212" lon="5.19166">
        <ele>424</ele>
      </trkpt>
      <trkpt lat="44.68225" lon="5.19184">
        <ele>422</ele>
      </trkpt>
      <trkpt lat="44.6823" lon="5.19197">
        <ele>420</ele>
      </trkpt>
      <trkpt lat="44.68245" lon="5.19249">
        <ele>411</ele>
      </trkpt>
      <trkpt lat="44.68252" lon="5.19267">
        <ele>407</ele>
      </trkpt>
      <trkpt lat="44.68256" lon="5.19272">
        <ele>407</ele>
      </trkpt>
      <trkpt lat="44.6826" lon="5.19275">
        <ele>406</ele>
      </trkpt>
      <trkpt lat="44.68267" lon="5.19275">
        <ele>406</ele>
      </trkpt>
      <trkpt lat="44.68285" lon="5.19262">
        <ele>405</ele>
      </trkpt>
      <trkpt lat="44.68296" lon="5.19243">
        <ele>408</ele>
      </trkpt>
      <trkpt lat="44.68308" lon="5.19208">
        <ele>410</ele>
      </trkpt>
      <trkpt lat="44.68314" lon="5.19198">
        <ele>411</ele>
      </trkpt>
      <trkpt lat="44.68321" lon="5.19194">
        <ele>411</ele>
      </trkpt>
      <trkpt lat="44.68325" lon="5.19194">
        <ele>411</ele>
      </trkpt>
      <trkpt lat="44.68335" lon="5.19198">
        <ele>411</ele>
      </trkpt>
      <trkpt lat="44.6834" lon="5.19212">
        <ele>410</ele>
      </trkpt>
      <trkpt lat="44.68342" lon="5.19229">
        <ele>410</ele>
      </trkpt>
      <trkpt lat="44.68341" lon="5.1924">
        <ele>410</ele>
      </trkpt>
      <trkpt lat="44.68335" lon="5.19284">
        <ele>407</ele>
      </trkpt>
      <trkpt lat="44.68328" lon="5.19313">
        <ele>401</ele>
      </trkpt>
      <trkpt lat="44.68327" lon="5.19332">
        <ele>400</ele>
      </trkpt>
      <trkpt lat="44.68329" lon="5.19344">
        <ele>394</ele>
      </trkpt>
      <trkpt lat="44.68333" lon="5.19349">
        <ele>394</ele>
      </trkpt>
      <trkpt lat="44.68343" lon="5.1936">
        <ele>393</ele>
      </trkpt>
      <trkpt lat="44.68351" lon="5.19366">
        <ele>392</ele>
      </trkpt>
      <trkpt lat="44.68364" lon="5.19371">
        <ele>386</ele>
      </trkpt>
      <trkpt lat="44.68378" lon="5.19371">
        <ele>385</ele>
      </trkpt>
      <trkpt lat="44.68452" lon="5.19346">
        <ele>385</ele>
      </trkpt>
      <trkpt lat="44.68504" lon="5.19333">
        <ele>383</ele>
      </trkpt>
      <trkpt lat="44.6855" lon="5.19322">
        <ele>377</ele>
      </trkpt>
      <trkpt lat="44.68572" lon="5.19321">
        <ele>376</ele>
      </trkpt>
      <trkpt lat="44.68593" lon="5.19326">
        <ele>373</ele>
      </trkpt>
      <trkpt lat="44.68661" lon="5.19352">
        <ele>366</ele>
      </trkpt>
      <trkpt lat="44.68683" lon="5.19356">
        <ele>365</ele>
      </trkpt>
      <trkpt lat="44.6875" lon="5.19363">
        <ele>360</ele>
      </trkpt>
      <trkpt lat="44.68774" lon="5.1937">
        <ele>357</ele>
      </trkpt>
      <trkpt lat="44.68835" lon="5.19397">
        <ele>352</ele>
      </trkpt>
      <trkpt lat="44.68892" lon="5.19407">
        <ele>349</ele>
      </trkpt>
      <trkpt lat="44.68906" lon="5.19416">
        <ele>349</ele>
      </trkpt>
      <trkpt lat="44.68986" lon="5.19501">
        <ele>333</ele>
      </trkpt>
      <trkpt lat="44.68995" lon="5.19505">
        <ele>329</ele>
      </trkpt>
      <trkpt lat="44.69001" lon="5.19505">
        <ele>328</ele>
      </trkpt>
      <trkpt lat="44.69012" lon="5.19502">
        <ele>328</ele>
      </trkpt>
      <trkpt lat="44.69021" lon="5.19493">
        <ele>323</ele>
      </trkpt>
      <trkpt lat="44.69032" lon="5.19475">
        <ele>325</ele>
      </trkpt>
      <trkpt lat="44.69054" lon="5.1943">
        <ele>324</ele>
      </trkpt>
      <trkpt lat="44.69065" lon="5.19403">
        <ele>327</ele>
      </trkpt>
      <trkpt lat="44.69068" lon="5.19399">
        <ele>327</ele>
      </trkpt>
      <trkpt lat="44.69072" lon="5.19398">
        <ele>326</ele>
      </trkpt>
      <trkpt lat="44.69078" lon="5.19403">
        <ele>320</ele>
      </trkpt>
      <trkpt lat="44.69079" lon="5.19412">
        <ele>319</ele>
      </trkpt>
      <trkpt lat="44.69068" lon="5.19442">
        <ele>322</ele>
      </trkpt>
      <trkpt lat="44.69054" lon="5.19528">
        <ele>316</ele>
      </trkpt>
      <trkpt lat="44.69054" lon="5.19553">
        <ele>317</ele>
      </trkpt>
      <trkpt lat="44.69057" lon="5.19566">
        <ele>319</ele>
      </trkpt>
      <trkpt lat="44.69065" lon="5.19579">
        <ele>320</ele>
      </trkpt>
      <trkpt lat="44.69138" lon="5.19627">
        <ele>306</ele>
      </trkpt>
      <trkpt lat="44.69161" lon="5.19652">
        <ele>302</ele>
      </trkpt>
      <trkpt lat="44.69166" lon="5.19678">
        <ele>302</ele>
      </trkpt>
      <trkpt lat="44.69161" lon="5.19835">
        <ele>294</ele>
      </trkpt>
      <trkpt lat="44.69279" lon="5.19847">
        <ele>290</ele>
      </trkpt>
      <trkpt lat="44.69348" lon="5.19851">
        <ele>289</ele>
      </trkpt>
      <trkpt lat="44.69407" lon="5.1987">
        <ele>286</ele>
      </trkpt>
      <trkpt lat="44.69438" lon="5.19888">
        <ele>279</ele>
      </trkpt>
      <trkpt lat="44.69462" lon="5.19909">
        <ele>276</ele>
      </trkpt>
      <trkpt lat="44.69469" lon="5.19921">
        <ele>272</ele>
      </trkpt>
      <trkpt lat="44.69471" lon="5.19938">
        <ele>272</ele>
      </trkpt>
      <trkpt lat="44.69471" lon="5.19954">
        <ele>272</ele>
      </trkpt>
      <trkpt lat="44.69473" lon="5.19968">
        <ele>273</ele>
      </trkpt>
      <trkpt lat="44.69478" lon="5.19981">
        <ele>274</ele>
      </trkpt>
      <trkpt lat="44.69501" lon="5.20019">
        <ele>272</ele>
      </trkpt>
      <trkpt lat="44.69506" lon="5.20037">
        <ele>273</ele>
      </trkpt>
      <trkpt lat="44.69507" lon="5.20052">
        <ele>274</ele>
      </trkpt>
      <trkpt lat="44.69506" lon="5.20064">
        <ele>274</ele>
      </trkpt>
      <trkpt lat="44.69501" lon="5.20077">
        <ele>275</ele>
      </trkpt>
      <trkpt lat="44.69495" lon="5.20089">
        <ele>275</ele>
      </trkpt>
      <trkpt lat="44.69485" lon="5.20097">
        <ele>275</ele>
      </trkpt>
      <trkpt lat="44.69475" lon="5.20096">
        <ele>275</ele>
      </trkpt>
      <trkpt lat="44.69467" lon="5.20091">
        <ele>275</ele>
      </trkpt>
      <trkpt lat="44.69465" lon="5.20096">
        <ele>275</ele>
      </trkpt>
      <trkpt lat="44.69456" lon="5.20118">
        <ele>275</ele>
      </trkpt>
      <trkpt lat="44.69407" lon="5.20263">
        <ele>274</ele>
      </trkpt>
      <trkpt lat="44.69378" lon="5.20328">
        <ele>270</ele>
      </trkpt>
      <trkpt lat="44.6929" lon="5.20512">
        <ele>274</ele>
      </trkpt>
      <trkpt lat="44.69258" lon="5.2057">
        <ele>279</ele>
      </trkpt>
      <trkpt lat="44.69192" lon="5.20672">
        <ele>282</ele>
      </trkpt>
      <trkpt lat="44.69102" lon="5.2079">
        <ele>290</ele>
      </trkpt>
      <trkpt lat="44.69058" lon="5.20854">
        <ele>289</ele>
      </trkpt>
      <trkpt lat="44.69035" lon="5.20908">
        <ele>291</ele>
      </trkpt>
      <trkpt lat="44.69025" lon="5.20956">
        <ele>290</ele>
      </trkpt>
      <trkpt lat="44.69026" lon="5.21015">
        <ele>295</ele>
      </trkpt>
      <trkpt lat="44.6902" lon="5.21064">
        <ele>306</ele>
      </trkpt>
      <trkpt lat="44.68981" lon="5.21158">
        <ele>286</ele>
      </trkpt>
      <trkpt lat="44.6898" lon="5.21191">
        <ele>286</ele>
      </trkpt>
      <trkpt lat="44.68989" lon="5.21225">
        <ele>286</ele>
      </trkpt>
      <trkpt lat="44.69089" lon="5.21338">
        <ele>287</ele>
      </trkpt>
      <trkpt lat="44.69136" lon="5.21396">
        <ele>296</ele>
      </trkpt>
      <trkpt lat="44.69157" lon="5.21434">
        <ele>293</ele>
      </trkpt>
      <trkpt lat="44.69171" lon="5.21473">
        <ele>302</ele>
      </trkpt>
      <trkpt lat="44.69178" lon="5.21519">
        <ele>302</ele>
      </trkpt>
      <trkpt lat="44.6917" lon="5.21577">
        <ele>302</ele>
      </trkpt>
      <trkpt lat="44.69148" lon="5.21634">
        <ele>293</ele>
      </trkpt>
      <trkpt lat="44.6912" lon="5.21686">
        <ele>288</ele>
      </trkpt>
      <trkpt lat="44.69081" lon="5.21747">
        <ele>281</ele>
      </trkpt>
      <trkpt lat="44.69053" lon="5.21824">
        <ele>282</ele>
      </trkpt>
      <trkpt lat="44.69038" lon="5.2191">
        <ele>280</ele>
      </trkpt>
      <trkpt lat="44.69026" lon="5.22002">
        <ele>281</ele>
      </trkpt>
      <trkpt lat="44.68873" lon="5.22839">
        <ele>284</ele>
      </trkpt>
      <trkpt lat="44.68861" lon="5.22928">
        <ele>293</ele>
      </trkpt>
      <trkpt lat="44.68863" lon="5.23012">
        <ele>300</ele>
      </trkpt>
      <trkpt lat="44.68879" lon="5.23109">
        <ele>300</ele>
      </trkpt>
      <trkpt lat="44.68884" lon="5.23177">
        <ele>302</ele>
      </trkpt>
      <trkpt lat="44.68881" lon="5.23392">
        <ele>302</ele>
      </trkpt>
      <trkpt lat="44.68883" lon="5.23441">
        <ele>302</ele>
      </trkpt>
      <trkpt lat="44.68892" lon="5.2352">
        <ele>299</ele>
      </trkpt>
      <trkpt lat="44.68905" lon="5.2358">
        <ele>298</ele>
      </trkpt>
      <trkpt lat="44.68922" lon="5.23636">
        <ele>297</ele>
      </trkpt>
      <trkpt lat="44.68999" lon="5.2376">
        <ele>291</ele>
      </trkpt>
      <trkpt lat="44.6897" lon="5.23814">
        <ele>285</ele>
      </trkpt>
      <trkpt lat="44.68969" lon="5.23821">
        <ele>286</ele>
      </trkpt>
      <trkpt lat="44.68972" lon="5.23827">
        <ele>286</ele>
      </trkpt>
      <trkpt lat="44.69045" lon="5.2388">
        <ele>290</ele>
      </trkpt>
      <trkpt lat="44.69084" lon="5.23916">
        <ele>285</ele>
      </trkpt>
      <trkpt lat="44.69196" lon="5.23958">
        <ele>289</ele>
      </trkpt>
      <trkpt lat="44.69254" lon="5.23987">
        <ele>284</ele>
      </trkpt>
      <trkpt lat="44.69312" lon="5.24038">
        <ele>284</ele>
      </trkpt>
      <trkpt lat="44.69381" lon="5.24155">
        <ele>287</ele>
      </trkpt>
      <trkpt lat="44.69459" lon="5.24294">
        <ele>286</ele>
      </trkpt>
      <trkpt lat="44.6953" lon="5.24432">
        <ele>286</ele>
      </trkpt>
      <trkpt lat="44.69575" lon="5.24596">
        <ele>286</ele>
      </trkpt>
      <trkpt lat="44.69614" lon="5.2478">
        <ele>287</ele>
      </trkpt>
      <trkpt lat="44.69627" lon="5.24909">
        <ele>289</ele>
      </trkpt>
      <trkpt lat="44.69619" lon="5.25044">
        <ele>289</ele>
      </trkpt>
      <trkpt lat="44.69636" lon="5.25227">
        <ele>289</ele>
      </trkpt>
      <trkpt lat="44.69634" lon="5.25288">
        <ele>291</ele>
      </trkpt>
      <trkpt lat="44.69603" lon="5.25393">
        <ele>290</ele>
      </trkpt>
      <trkpt lat="44.69587" lon="5.25451">
        <ele>297</ele>
      </trkpt>
      <trkpt lat="44.69576" lon="5.25515">
        <ele>295</ele>
      </trkpt>
      <trkpt lat="44.69567" lon="5.25541">
        <ele>295</ele>
      </trkpt>
      <trkpt lat="44.69531" lon="5.25596">
        <ele>294</ele>
      </trkpt>
      <trkpt lat="44.69494" lon="5.25665">
        <ele>295</ele>
      </trkpt>
      <trkpt lat="44.69477" lon="5.25702">
        <ele>298</ele>
      </trkpt>
      <trkpt lat="44.69457" lon="5.25823">
        <ele>297</ele>
      </trkpt>
      <trkpt lat="44.69464" lon="5.2587">
        <ele>294</ele>
      </trkpt>
      <trkpt lat="44.69572" lon="5.26132">
        <ele>298</ele>
      </trkpt>
      <trkpt lat="44.69577" lon="5.26169">
        <ele>299</ele>
      </trkpt>
      <trkpt lat="44.69586" lon="5.26323">
        <ele>312</ele>
      </trkpt>
      <trkpt lat="44.69603" lon="5.26389">
        <ele>322</ele>
      </trkpt>
      <trkpt lat="44.69625" lon="5.26458">
        <ele>322</ele>
      </trkpt>
      <trkpt lat="44.69639" lon="5.26517">
        <ele>329</ele>
      </trkpt>
      <trkpt lat="44.69654" lon="5.26663">
        <ele>328</ele>
      </trkpt>
      <trkpt lat="44.69646" lon="5.26942">
        <ele>329</ele>
      </trkpt>
      <trkpt lat="44.69641" lon="5.27082">
        <ele>335</ele>
      </trkpt>
      <trkpt lat="44.69641" lon="5.27143">
        <ele>332</ele>
      </trkpt>
      <trkpt lat="44.69651" lon="5.27232">
        <ele>326</ele>
      </trkpt>
      <trkpt lat="44.6965" lon="5.27255">
        <ele>325</ele>
      </trkpt>
      <trkpt lat="44.69645" lon="5.27276">
        <ele>324</ele>
      </trkpt>
      <trkpt lat="44.69636" lon="5.27295">
        <ele>323</ele>
      </trkpt>
      <trkpt lat="44.69612" lon="5.27334">
        <ele>323</ele>
      </trkpt>
      <trkpt lat="44.69569" lon="5.27398">
        <ele>327</ele>
      </trkpt>
      <trkpt lat="44.69528" lon="5.27439">
        <ele>330</ele>
      </trkpt>
      <trkpt lat="44.69501" lon="5.27482">
        <ele>333</ele>
      </trkpt>
      <trkpt lat="44.69465" lon="5.27551">
        <ele>339</ele>
      </trkpt>
      <trkpt lat="44.69439" lon="5.27588">
        <ele>341</ele>
      </trkpt>
      <trkpt lat="44.69414" lon="5.27616">
        <ele>343</ele>
      </trkpt>
      <trkpt lat="44.69371" lon="5.27653">
        <ele>344</ele>
      </trkpt>
      <trkpt lat="44.69346" lon="5.27688">
        <ele>345</ele>
      </trkpt>
      <trkpt lat="44.69319" lon="5.27755">
        <ele>346</ele>
      </trkpt>
      <trkpt lat="44.69302" lon="5.27842">
        <ele>354</ele>
      </trkpt>
      <trkpt lat="44.69301" lon="5.27927">
        <ele>358</ele>
      </trkpt>
      <trkpt lat="44.69293" lon="5.27963">
        <ele>353</ele>
      </trkpt>
      <trkpt lat="44.69284" lon="5.27994">
        <ele>354</ele>
      </trkpt>
      <trkpt lat="44.69286" lon="5.28021">
        <ele>356</ele>
      </trkpt>
      <trkpt lat="44.69304" lon="5.28144">
        <ele>357</ele>
      </trkpt>
      <trkpt lat="44.69304" lon="5.28166">
        <ele>356</ele>
      </trkpt>
      <trkpt lat="44.693" lon="5.28223">
        <ele>356</ele>
      </trkpt>
      <trkpt lat="44.6929" lon="5.283">
        <ele>353</ele>
      </trkpt>
      <trkpt lat="44.69295" lon="5.28324">
        <ele>352</ele>
      </trkpt>
      <trkpt lat="44.69303" lon="5.28341">
        <ele>355</ele>
      </trkpt>
      <trkpt lat="44.69329" lon="5.28367">
        <ele>356</ele>
      </trkpt>
      <trkpt lat="44.69353" lon="5.28387">
        <ele>356</ele>
      </trkpt>
      <trkpt lat="44.69364" lon="5.284">
        <ele>355</ele>
      </trkpt>
      <trkpt lat="44.69376" lon="5.28419">
        <ele>355</ele>
      </trkpt>
      <trkpt lat="44.69412" lon="5.28546">
        <ele>366</ele>
      </trkpt>
      <trkpt lat="44.69421" lon="5.286">
        <ele>365</ele>
      </trkpt>
      <trkpt lat="44.69422" lon="5.28643">
        <ele>362</ele>
      </trkpt>
      <trkpt lat="44.6941" lon="5.28769">
        <ele>360</ele>
      </trkpt>
      <trkpt lat="44.69408" lon="5.28827">
        <ele>365</ele>
      </trkpt>
      <trkpt lat="44.69411" lon="5.28916">
        <ele>376</ele>
      </trkpt>
      <trkpt lat="44.69421" lon="5.2904">
        <ele>379</ele>
      </trkpt>
      <trkpt lat="44.69424" lon="5.29129">
        <ele>384</ele>
      </trkpt>
      <trkpt lat="44.69422" lon="5.29178">
        <ele>385</ele>
      </trkpt>
      <trkpt lat="44.69413" lon="5.2928">
        <ele>391</ele>
      </trkpt>
      <trkpt lat="44.69421" lon="5.29353">
        <ele>394</ele>
      </trkpt>
      <trkpt lat="44.69428" lon="5.2939">
        <ele>394</ele>
      </trkpt>
      <trkpt lat="44.69428" lon="5.29415">
        <ele>395</ele>
      </trkpt>
      <trkpt lat="44.69418" lon="5.29481">
        <ele>394</ele>
      </trkpt>
      <trkpt lat="44.69418" lon="5.29512">
        <ele>394</ele>
      </trkpt>
      <trkpt lat="44.69424" lon="5.29532">
        <ele>394</ele>
      </trkpt>
      <trkpt lat="44.69469" lon="5.29612">
        <ele>394</ele>
      </trkpt>
      <trkpt lat="44.69476" lon="5.29632">
        <ele>396</ele>
      </trkpt>
      <trkpt lat="44.69489" lon="5.29653">
        <ele>400</ele>
      </trkpt>
      <trkpt lat="44.69499" lon="5.29657">
        <ele>402</ele>
      </trkpt>
      <trkpt lat="44.69521" lon="5.2965">
        <ele>403</ele>
      </trkpt>
      <trkpt lat="44.69546" lon="5.29646">
        <ele>401</ele>
      </trkpt>
      <trkpt lat="44.69595" lon="5.29662">
        <ele>405</ele>
      </trkpt>
      <trkpt lat="44.69608" lon="5.29635">
        <ele>408</ele>
      </trkpt>
      <trkpt lat="44.69618" lon="5.29606">
        <ele>411</ele>
      </trkpt>
      <trkpt lat="44.69618" lon="5.29588">
        <ele>413</ele>
      </trkpt>
      <trkpt lat="44.69616" lon="5.29555">
        <ele>413</ele>
      </trkpt>
      <trkpt lat="44.69617" lon="5.29498">
        <ele>411</ele>
      </trkpt>
      <trkpt lat="44.69623" lon="5.29468">
        <ele>410</ele>
      </trkpt>
      <trkpt lat="44.69627" lon="5.29463">
        <ele>410</ele>
      </trkpt>
      <trkpt lat="44.69639" lon="5.29441">
        <ele>413</ele>
      </trkpt>
      <trkpt lat="44.69657" lon="5.29433">
        <ele>414</ele>
      </trkpt>
      <trkpt lat="44.69694" lon="5.29422">
        <ele>421</ele>
      </trkpt>
      <trkpt lat="44.69711" lon="5.2942">
        <ele>422</ele>
      </trkpt>
      <trkpt lat="44.69726" lon="5.29415">
        <ele>427</ele>
      </trkpt>
      <trkpt lat="44.69738" lon="5.29406">
        <ele>427</ele>
      </trkpt>
      <trkpt lat="44.69768" lon="5.29348">
        <ele>421</ele>
      </trkpt>
      <trkpt lat="44.69792" lon="5.29327">
        <ele>419</ele>
      </trkpt>
      <trkpt lat="44.69814" lon="5.2932">
        <ele>421</ele>
      </trkpt>
      <trkpt lat="44.69831" lon="5.29321">
        <ele>423</ele>
      </trkpt>
      <trkpt lat="44.69838" lon="5.29318">
        <ele>423</ele>
      </trkpt>
      <trkpt lat="44.69855" lon="5.29305">
        <ele>420</ele>
      </trkpt>
      <trkpt lat="44.6988" lon="5.293">
        <ele>420</ele>
      </trkpt>
      <trkpt lat="44.69898" lon="5.29287">
        <ele>422</ele>
      </trkpt>
      <trkpt lat="44.6992" lon="5.29264">
        <ele>423</ele>
      </trkpt>
      <trkpt lat="44.69947" lon="5.29255">
        <ele>423</ele>
      </trkpt>
      <trkpt lat="44.69963" lon="5.29245">
        <ele>423</ele>
      </trkpt>
      <trkpt lat="44.69986" lon="5.29226">
        <ele>422</ele>
      </trkpt>
      <trkpt lat="44.7" lon="5.2922">
        <ele>422</ele>
      </trkpt>
      <trkpt lat="44.70087" lon="5.29221">
        <ele>417</ele>
      </trkpt>
      <trkpt lat="44.70175" lon="5.29246">
        <ele>414</ele>
      </trkpt>
      <trkpt lat="44.70258" lon="5.29311">
        <ele>409</ele>
      </trkpt>
      <trkpt lat="44.70274" lon="5.29333">
        <ele>407</ele>
      </trkpt>
      <trkpt lat="44.70297" lon="5.29351">
        <ele>408</ele>
      </trkpt>
      <trkpt lat="44.70309" lon="5.29364">
        <ele>405</ele>
      </trkpt>
      <trkpt lat="44.70328" lon="5.29375">
        <ele>402</ele>
      </trkpt>
      <trkpt lat="44.70361" lon="5.29441">
        <ele>400</ele>
      </trkpt>
      <trkpt lat="44.7038" lon="5.29496">
        <ele>402</ele>
      </trkpt>
      <trkpt lat="44.70398" lon="5.2954">
        <ele>399</ele>
      </trkpt>
      <trkpt lat="44.70417" lon="5.29566">
        <ele>397</ele>
      </trkpt>
      <trkpt lat="44.70419" lon="5.29589">
        <ele>397</ele>
      </trkpt>
      <trkpt lat="44.70409" lon="5.29633">
        <ele>401</ele>
      </trkpt>
      <trkpt lat="44.70416" lon="5.29657">
        <ele>402</ele>
      </trkpt>
      <trkpt lat="44.70427" lon="5.2968">
        <ele>404</ele>
      </trkpt>
      <trkpt lat="44.70433" lon="5.2968">
        <ele>404</ele>
      </trkpt>
      <trkpt lat="44.7044" lon="5.29675">
        <ele>406</ele>
      </trkpt>
      <trkpt lat="44.70447" lon="5.29625">
        <ele>404</ele>
      </trkpt>
      <trkpt lat="44.70461" lon="5.2959">
        <ele>400</ele>
      </trkpt>
      <trkpt lat="44.70468" lon="5.29566">
        <ele>400</ele>
      </trkpt>
      <trkpt lat="44.70478" lon="5.29562">
        <ele>398</ele>
      </trkpt>
      <trkpt lat="44.70485" lon="5.2957">
        <ele>400</ele>
      </trkpt>
      <trkpt lat="44.70492" lon="5.29599">
        <ele>403</ele>
      </trkpt>
      <trkpt lat="44.70503" lon="5.29676">
        <ele>410</ele>
      </trkpt>
      <trkpt lat="44.70518" lon="5.29703">
        <ele>412</ele>
      </trkpt>
      <trkpt lat="44.70533" lon="5.29721">
        <ele>413</ele>
      </trkpt>
      <trkpt lat="44.70581" lon="5.29751">
        <ele>414</ele>
      </trkpt>
      <trkpt lat="44.70608" lon="5.29772">
        <ele>415</ele>
      </trkpt>
      <trkpt lat="44.7064" lon="5.29785">
        <ele>413</ele>
      </trkpt>
      <trkpt lat="44.70662" lon="5.29829">
        <ele>417</ele>
      </trkpt>
      <trkpt lat="44.70675" lon="5.2984">
        <ele>417</ele>
      </trkpt>
      <trkpt lat="44.70688" lon="5.29956">
        <ele>425</ele>
      </trkpt>
      <trkpt lat="44.70698" lon="5.29978">
        <ele>425</ele>
      </trkpt>
      <trkpt lat="44.70703" lon="5.30009">
        <ele>433</ele>
      </trkpt>
      <trkpt lat="44.7074" lon="5.301">
        <ele>435</ele>
      </trkpt>
      <trkpt lat="44.70734" lon="5.30222">
        <ele>441</ele>
      </trkpt>
      <trkpt lat="44.70741" lon="5.30257">
        <ele>443</ele>
      </trkpt>
      <trkpt lat="44.70754" lon="5.30346">
        <ele>447</ele>
      </trkpt>
      <trkpt lat="44.70765" lon="5.30362">
        <ele>448</ele>
      </trkpt>
      <trkpt lat="44.70808" lon="5.30382">
        <ele>455</ele>
      </trkpt>
      <trkpt lat="44.70826" lon="5.30385">
        <ele>455</ele>
      </trkpt>
      <trkpt lat="44.70848" lon="5.30397">
        <ele>455</ele>
      </trkpt>
      <trkpt lat="44.70862" lon="5.30404">
        <ele>457</ele>
      </trkpt>
      <trkpt lat="44.70897" lon="5.3044">
        <ele>458</ele>
      </trkpt>
      <trkpt lat="44.70927" lon="5.30488">
        <ele>466</ele>
      </trkpt>
      <trkpt lat="44.70948" lon="5.30516">
        <ele>467</ele>
      </trkpt>
      <trkpt lat="44.70957" lon="5.30542">
        <ele>473</ele>
      </trkpt>
      <trkpt lat="44.70967" lon="5.3056">
        <ele>470</ele>
      </trkpt>
      <trkpt lat="44.71004" lon="5.30597">
        <ele>473</ele>
      </trkpt>
      <trkpt lat="44.71012" lon="5.30614">
        <ele>474</ele>
      </trkpt>
      <trkpt lat="44.71027" lon="5.30694">
        <ele>484</ele>
      </trkpt>
      <trkpt lat="44.71038" lon="5.30698">
        <ele>484</ele>
      </trkpt>
      <trkpt lat="44.71047" lon="5.30692">
        <ele>485</ele>
      </trkpt>
      <trkpt lat="44.71065" lon="5.30656">
        <ele>487</ele>
      </trkpt>
      <trkpt lat="44.71067" lon="5.3062">
        <ele>484</ele>
      </trkpt>
      <trkpt lat="44.71081" lon="5.30603">
        <ele>486</ele>
      </trkpt>
      <trkpt lat="44.71129" lon="5.30601">
        <ele>489</ele>
      </trkpt>
      <trkpt lat="44.71158" lon="5.30584">
        <ele>488</ele>
      </trkpt>
      <trkpt lat="44.71183" lon="5.30582">
        <ele>489</ele>
      </trkpt>
      <trkpt lat="44.71206" lon="5.30601">
        <ele>490</ele>
      </trkpt>
      <trkpt lat="44.71238" lon="5.30651">
        <ele>491</ele>
      </trkpt>
      <trkpt lat="44.7125" lon="5.30661">
        <ele>490</ele>
      </trkpt>
      <trkpt lat="44.71284" lon="5.30652">
        <ele>489</ele>
      </trkpt>
      <trkpt lat="44.71303" lon="5.30653">
        <ele>487</ele>
      </trkpt>
      <trkpt lat="44.71337" lon="5.30687">
        <ele>489</ele>
      </trkpt>
      <trkpt lat="44.71354" lon="5.30691">
        <ele>489</ele>
      </trkpt>
      <trkpt lat="44.71385" lon="5.30676">
        <ele>488</ele>
      </trkpt>
      <trkpt lat="44.71414" lon="5.30679">
        <ele>486</ele>
      </trkpt>
      <trkpt lat="44.71434" lon="5.30695">
        <ele>485</ele>
      </trkpt>
      <trkpt lat="44.71468" lon="5.30643">
        <ele>475</ele>
      </trkpt>
      <trkpt lat="44.71485" lon="5.30609">
        <ele>472</ele>
      </trkpt>
      <trkpt lat="44.71551" lon="5.30543">
        <ele>468</ele>
      </trkpt>
      <trkpt lat="44.71559" lon="5.30552">
        <ele>467</ele>
      </trkpt>
      <trkpt lat="44.7158" lon="5.30558">
        <ele>468</ele>
      </trkpt>
      <trkpt lat="44.71609" lon="5.30573">
        <ele>467</ele>
      </trkpt>
      <trkpt lat="44.71627" lon="5.30589">
        <ele>466</ele>
      </trkpt>
      <trkpt lat="44.71638" lon="5.30618">
        <ele>462</ele>
      </trkpt>
      <trkpt lat="44.71658" lon="5.30684">
        <ele>463</ele>
      </trkpt>
      <trkpt lat="44.71673" lon="5.30714">
        <ele>464</ele>
      </trkpt>
      <trkpt lat="44.71692" lon="5.30729">
        <ele>464</ele>
      </trkpt>
      <trkpt lat="44.71711" lon="5.3073">
        <ele>463</ele>
      </trkpt>
      <trkpt lat="44.71728" lon="5.30701">
        <ele>461</ele>
      </trkpt>
      <trkpt lat="44.7174" lon="5.30658">
        <ele>457</ele>
      </trkpt>
      <trkpt lat="44.71754" lon="5.30636">
        <ele>454</ele>
      </trkpt>
      <trkpt lat="44.71784" lon="5.30622">
        <ele>455</ele>
      </trkpt>
      <trkpt lat="44.71793" lon="5.30612">
        <ele>453</ele>
      </trkpt>
      <trkpt lat="44.71806" lon="5.30575">
        <ele>451</ele>
      </trkpt>
      <trkpt lat="44.71851" lon="5.30525">
        <ele>447</ele>
      </trkpt>
      <trkpt lat="44.71876" lon="5.30489">
        <ele>444</ele>
      </trkpt>
      <trkpt lat="44.71897" lon="5.30444">
        <ele>440</ele>
      </trkpt>
      <trkpt lat="44.71959" lon="5.30359">
        <ele>434</ele>
      </trkpt>
      <trkpt lat="44.71977" lon="5.30326">
        <ele>432</ele>
      </trkpt>
      <trkpt lat="44.71997" lon="5.303">
        <ele>432</ele>
      </trkpt>
      <trkpt lat="44.72027" lon="5.30273">
        <ele>432</ele>
      </trkpt>
      <trkpt lat="44.72051" lon="5.30239">
        <ele>432</ele>
      </trkpt>
      <trkpt lat="44.72069" lon="5.30205">
        <ele>431</ele>
      </trkpt>
      <trkpt lat="44.72124" lon="5.3014">
        <ele>427</ele>
      </trkpt>
      <trkpt lat="44.72144" lon="5.30098">
        <ele>425</ele>
      </trkpt>
      <trkpt lat="44.7216" lon="5.30037">
        <ele>421</ele>
      </trkpt>
      <trkpt lat="44.72167" lon="5.29985">
        <ele>417</ele>
      </trkpt>
      <trkpt lat="44.72175" lon="5.29953">
        <ele>415</ele>
      </trkpt>
      <trkpt lat="44.72197" lon="5.29919">
        <ele>413</ele>
      </trkpt>
      <trkpt lat="44.72205" lon="5.29901">
        <ele>413</ele>
      </trkpt>
      <trkpt lat="44.72218" lon="5.29776">
        <ele>405</ele>
      </trkpt>
      <trkpt lat="44.72228" lon="5.29752">
        <ele>404</ele>
      </trkpt>
      <trkpt lat="44.72247" lon="5.29719">
        <ele>401</ele>
      </trkpt>
      <trkpt lat="44.72271" lon="5.29685">
        <ele>401</ele>
      </trkpt>
      <trkpt lat="44.72283" lon="5.2966">
        <ele>399</ele>
      </trkpt>
      <trkpt lat="44.72299" lon="5.29619">
        <ele>400</ele>
      </trkpt>
      <trkpt lat="44.7232" lon="5.29525">
        <ele>397</ele>
      </trkpt>
      <trkpt lat="44.7233" lon="5.29487">
        <ele>398</ele>
      </trkpt>
      <trkpt lat="44.72343" lon="5.2947">
        <ele>396</ele>
      </trkpt>
      <trkpt lat="44.72349" lon="5.29467">
        <ele>396</ele>
      </trkpt>
      <trkpt lat="44.72362" lon="5.29449">
        <ele>397</ele>
      </trkpt>
      <trkpt lat="44.72371" lon="5.29431">
        <ele>397</ele>
      </trkpt>
      <trkpt lat="44.7238" lon="5.29423">
        <ele>397</ele>
      </trkpt>
      <trkpt lat="44.72386" lon="5.29401">
        <ele>401</ele>
      </trkpt>
      <trkpt lat="44.72392" lon="5.29392">
        <ele>401</ele>
      </trkpt>
      <trkpt lat="44.72401" lon="5.29353">
        <ele>399</ele>
      </trkpt>
      <trkpt lat="44.72412" lon="5.29335">
        <ele>402</ele>
      </trkpt>
      <trkpt lat="44.72431" lon="5.2932">
        <ele>404</ele>
      </trkpt>
      <trkpt lat="44.72439" lon="5.29304">
        <ele>409</ele>
      </trkpt>
      <trkpt lat="44.72446" lon="5.29227">
        <ele>409</ele>
      </trkpt>
      <trkpt lat="44.72441" lon="5.29166">
        <ele>403</ele>
      </trkpt>
      <trkpt lat="44.72444" lon="5.29141">
        <ele>401</ele>
      </trkpt>
      <trkpt lat="44.72454" lon="5.29117">
        <ele>400</ele>
      </trkpt>
      <trkpt lat="44.72454" lon="5.29093">
        <ele>400</ele>
      </trkpt>
      <trkpt lat="44.72446" lon="5.29066">
        <ele>397</ele>
      </trkpt>
      <trkpt lat="44.7245" lon="5.29031">
        <ele>390</ele>
      </trkpt>
      <trkpt lat="44.72463" lon="5.29007">
        <ele>386</ele>
      </trkpt>
      <trkpt lat="44.72494" lon="5.28991">
        <ele>393</ele>
      </trkpt>
      <trkpt lat="44.72538" lon="5.28928">
        <ele>384</ele>
      </trkpt>
      <trkpt lat="44.72555" lon="5.28918">
        <ele>381</ele>
      </trkpt>
      <trkpt lat="44.7258" lon="5.28912">
        <ele>382</ele>
      </trkpt>
      <trkpt lat="44.72608" lon="5.28896">
        <ele>378</ele>
      </trkpt>
      <trkpt lat="44.72623" lon="5.28884">
        <ele>377</ele>
      </trkpt>
      <trkpt lat="44.72685" lon="5.28863">
        <ele>375</ele>
      </trkpt>
      <trkpt lat="44.72729" lon="5.28867">
        <ele>375</ele>
      </trkpt>
      <trkpt lat="44.72737" lon="5.28862">
        <ele>375</ele>
      </trkpt>
      <trkpt lat="44.72749" lon="5.2883">
        <ele>374</ele>
      </trkpt>
      <trkpt lat="44.72758" lon="5.28791">
        <ele>374</ele>
      </trkpt>
      <trkpt lat="44.72773" lon="5.28744">
        <ele>375</ele>
      </trkpt>
      <trkpt lat="44.72791" lon="5.287">
        <ele>377</ele>
      </trkpt>
      <trkpt lat="44.72822" lon="5.28658">
        <ele>377</ele>
      </trkpt>
      <trkpt lat="44.72846" lon="5.28632">
        <ele>376</ele>
      </trkpt>
      <trkpt lat="44.7287" lon="5.28581">
        <ele>377</ele>
      </trkpt>
      <trkpt lat="44.72893" lon="5.28525">
        <ele>373</ele>
      </trkpt>
      <trkpt lat="44.72898" lon="5.28402">
        <ele>365</ele>
      </trkpt>
      <trkpt lat="44.72913" lon="5.28352">
        <ele>363</ele>
      </trkpt>
      <trkpt lat="44.72933" lon="5.28322">
        <ele>361</ele>
      </trkpt>
      <trkpt lat="44.72924" lon="5.28276">
        <ele>359</ele>
      </trkpt>
      <trkpt lat="44.72914" lon="5.28189">
        <ele>357</ele>
      </trkpt>
      <trkpt lat="44.72928" lon="5.2812">
        <ele>354</ele>
      </trkpt>
      <trkpt lat="44.7294" lon="5.28031">
        <ele>349</ele>
      </trkpt>
      <trkpt lat="44.72937" lon="5.27964">
        <ele>348</ele>
      </trkpt>
      <trkpt lat="44.72937" lon="5.27912">
        <ele>347</ele>
      </trkpt>
      <trkpt lat="44.72959" lon="5.27819">
        <ele>346</ele>
      </trkpt>
      <trkpt lat="44.72968" lon="5.27742">
        <ele>339</ele>
      </trkpt>
      <trkpt lat="44.72973" lon="5.2765">
        <ele>336</ele>
      </trkpt>
      <trkpt lat="44.72961" lon="5.27603">
        <ele>337</ele>
      </trkpt>
      <trkpt lat="44.72936" lon="5.27569">
        <ele>337</ele>
      </trkpt>
      <trkpt lat="44.72917" lon="5.27532">
        <ele>333</ele>
      </trkpt>
      <trkpt lat="44.72899" lon="5.27453">
        <ele>329</ele>
      </trkpt>
      <trkpt lat="44.72913" lon="5.27447">
        <ele>328</ele>
      </trkpt>
      <trkpt lat="44.72955" lon="5.27449">
        <ele>328</ele>
      </trkpt>
      <trkpt lat="44.73026" lon="5.27441">
        <ele>326</ele>
      </trkpt>
      <trkpt lat="44.73127" lon="5.27436">
        <ele>327</ele>
      </trkpt>
      <trkpt lat="44.7322" lon="5.27414">
        <ele>337</ele>
      </trkpt>
      <trkpt lat="44.73242" lon="5.27403">
        <ele>337</ele>
      </trkpt>
      <trkpt lat="44.73261" lon="5.2739">
        <ele>336</ele>
      </trkpt>
      <trkpt lat="44.73339" lon="5.27301">
        <ele>335</ele>
      </trkpt>
      <trkpt lat="44.73373" lon="5.27268">
        <ele>335</ele>
      </trkpt>
      <trkpt lat="44.73398" lon="5.27247">
        <ele>334</ele>
      </trkpt>
      <trkpt lat="44.73425" lon="5.27232">
        <ele>334</ele>
      </trkpt>
      <trkpt lat="44.73442" lon="5.27229">
        <ele>332</ele>
      </trkpt>
      <trkpt lat="44.73464" lon="5.27228">
        <ele>333</ele>
      </trkpt>
      <trkpt lat="44.73534" lon="5.27241">
        <ele>333</ele>
      </trkpt>
      <trkpt lat="44.73624" lon="5.27276">
        <ele>341</ele>
      </trkpt>
      <trkpt lat="44.73637" lon="5.27277">
        <ele>345</ele>
      </trkpt>
      <trkpt lat="44.73649" lon="5.27276">
        <ele>346</ele>
      </trkpt>
      <trkpt lat="44.73669" lon="5.27258">
        <ele>353</ele>
      </trkpt>
      <trkpt lat="44.7368" lon="5.27234">
        <ele>351</ele>
      </trkpt>
      <trkpt lat="44.73723" lon="5.27185">
        <ele>355</ele>
      </trkpt>
      <trkpt lat="44.73751" lon="5.27162">
        <ele>352</ele>
      </trkpt>
      <trkpt lat="44.73778" lon="5.2715">
        <ele>354</ele>
      </trkpt>
      <trkpt lat="44.73885" lon="5.27138">
        <ele>356</ele>
      </trkpt>
      <trkpt lat="44.73907" lon="5.27144">
        <ele>358</ele>
      </trkpt>
      <trkpt lat="44.73923" lon="5.27145">
        <ele>359</ele>
      </trkpt>
      <trkpt lat="44.73944" lon="5.2713">
        <ele>361</ele>
      </trkpt>
      <trkpt lat="44.73949" lon="5.27121">
        <ele>360</ele>
      </trkpt>
      <trkpt lat="44.73968" lon="5.27076">
        <ele>355</ele>
      </trkpt>
      <trkpt lat="44.73984" lon="5.27055">
        <ele>352</ele>
      </trkpt>
      <trkpt lat="44.74022" lon="5.27039">
        <ele>358</ele>
      </trkpt>
      <trkpt lat="44.74037" lon="5.27027">
        <ele>355</ele>
      </trkpt>
      <trkpt lat="44.74075" lon="5.26979">
        <ele>349</ele>
      </trkpt>
      <trkpt lat="44.74098" lon="5.26966">
        <ele>352</ele>
      </trkpt>
      <trkpt lat="44.74308" lon="5.268">
        <ele>357</ele>
      </trkpt>
      <trkpt lat="44.74348" lon="5.26758">
        <ele>361</ele>
      </trkpt>
      <trkpt lat="44.74366" lon="5.26729">
        <ele>356</ele>
      </trkpt>
      <trkpt lat="44.74379" lon="5.26702">
        <ele>354</ele>
      </trkpt>
      <trkpt lat="44.74395" lon="5.26679">
        <ele>352</ele>
      </trkpt>
      <trkpt lat="44.74414" lon="5.26658">
        <ele>350</ele>
      </trkpt>
      <trkpt lat="44.74427" lon="5.26648">
        <ele>350</ele>
      </trkpt>
      <trkpt lat="44.74444" lon="5.26647">
        <ele>355</ele>
      </trkpt>
      <trkpt lat="44.74457" lon="5.26634">
        <ele>348</ele>
      </trkpt>
      <trkpt lat="44.74498" lon="5.2661">
        <ele>346</ele>
      </trkpt>
      <trkpt lat="44.7452" lon="5.26602">
        <ele>346</ele>
      </trkpt>
      <trkpt lat="44.74552" lon="5.26598">
        <ele>356</ele>
      </trkpt>
      <trkpt lat="44.74589" lon="5.2658">
        <ele>353</ele>
      </trkpt>
      <trkpt lat="44.74606" lon="5.26566">
        <ele>357</ele>
      </trkpt>
      <trkpt lat="44.74663" lon="5.26496">
        <ele>340</ele>
      </trkpt>
      <trkpt lat="44.7468" lon="5.26486">
        <ele>340</ele>
      </trkpt>
      <trkpt lat="44.7473" lon="5.2649">
        <ele>349</ele>
      </trkpt>
      <trkpt lat="44.74759" lon="5.26482">
        <ele>349</ele>
      </trkpt>
      <trkpt lat="44.74798" lon="5.26468">
        <ele>345</ele>
      </trkpt>
      <trkpt lat="44.74825" lon="5.26454">
        <ele>348</ele>
      </trkpt>
      <trkpt lat="44.7485" lon="5.26432">
        <ele>344</ele>
      </trkpt>
      <trkpt lat="44.74862" lon="5.2643">
        <ele>345</ele>
      </trkpt>
      <trkpt lat="44.74934" lon="5.26434">
        <ele>342</ele>
      </trkpt>
      <trkpt lat="44.74946" lon="5.26437">
        <ele>339</ele>
      </trkpt>
      <trkpt lat="44.74968" lon="5.26452">
        <ele>340</ele>
      </trkpt>
      <trkpt lat="44.7499" lon="5.26459">
        <ele>339</ele>
      </trkpt>
      <trkpt lat="44.74993" lon="5.26457">
        <ele>339</ele>
      </trkpt>
      <trkpt lat="44.74957" lon="5.26425">
        <ele>339</ele>
      </trkpt>
      <trkpt lat="44.74935" lon="5.26402">
        <ele>337</ele>
      </trkpt>
      <trkpt lat="44.7492" lon="5.26381">
        <ele>335</ele>
      </trkpt>
      <trkpt lat="44.74935" lon="5.26402">
        <ele>337</ele>
      </trkpt>
      <trkpt lat="44.74957" lon="5.26425">
        <ele>339</ele>
      </trkpt>
      <trkpt lat="44.74993" lon="5.26457">
        <ele>339</ele>
      </trkpt>
      <trkpt lat="44.7499" lon="5.26459">
        <ele>339</ele>
      </trkpt>
      <trkpt lat="44.74968" lon="5.26452">
        <ele>340</ele>
      </trkpt>
      <trkpt lat="44.74946" lon="5.26437">
        <ele>339</ele>
      </trkpt>
      <trkpt lat="44.74934" lon="5.26434">
        <ele>342</ele>
      </trkpt>
      <trkpt lat="44.74862" lon="5.2643">
        <ele>345</ele>
      </trkpt>
      <trkpt lat="44.7485" lon="5.26432">
        <ele>344</ele>
      </trkpt>
      <trkpt lat="44.74825" lon="5.26454">
        <ele>348</ele>
      </trkpt>
      <trkpt lat="44.74798" lon="5.26468">
        <ele>345</ele>
      </trkpt>
      <trkpt lat="44.74759" lon="5.26482">
        <ele>349</ele>
      </trkpt>
      <trkpt lat="44.7473" lon="5.2649">
        <ele>349</ele>
      </trkpt>
      <trkpt lat="44.7468" lon="5.26486">
        <ele>340</ele>
      </trkpt>
      <trkpt lat="44.74663" lon="5.26496">
        <ele>340</ele>
      </trkpt>
      <trkpt lat="44.74606" lon="5.26566">
        <ele>357</ele>
      </trkpt>
      <trkpt lat="44.74589" lon="5.2658">
        <ele>353</ele>
      </trkpt>
      <trkpt lat="44.74552" lon="5.26598">
        <ele>356</ele>
      </trkpt>
      <trkpt lat="44.7452" lon="5.26602">
        <ele>346</ele>
      </trkpt>
      <trkpt lat="44.74498" lon="5.2661">
        <ele>346</ele>
      </trkpt>
      <trkpt lat="44.74457" lon="5.26634">
        <ele>348</ele>
      </trkpt>
      <trkpt lat="44.74444" lon="5.26647">
        <ele>355</ele>
      </trkpt>
      <trkpt lat="44.74427" lon="5.26648">
        <ele>350</ele>
      </trkpt>
      <trkpt lat="44.74414" lon="5.26658">
        <ele>350</ele>
      </trkpt>
      <trkpt lat="44.74395" lon="5.26679">
        <ele>352</ele>
      </trkpt>
      <trkpt lat="44.74379" lon="5.26702">
        <ele>354</ele>
      </trkpt>
      <trkpt lat="44.74366" lon="5.26729">
        <ele>356</ele>
      </trkpt>
      <trkpt lat="44.74348" lon="5.26758">
        <ele>361</ele>
      </trkpt>
      <trkpt lat="44.74308" lon="5.268">
        <ele>357</ele>
      </trkpt>
      <trkpt lat="44.74098" lon="5.26966">
        <ele>352</ele>
      </trkpt>
      <trkpt lat="44.74075" lon="5.26979">
        <ele>349</ele>
      </trkpt>
      <trkpt lat="44.74037" lon="5.27027">
        <ele>355</ele>
      </trkpt>
      <trkpt lat="44.74022" lon="5.27039">
        <ele>358</ele>
      </trkpt>
      <trkpt lat="44.73984" lon="5.27055">
        <ele>352</ele>
      </trkpt>
      <trkpt lat="44.73968" lon="5.27076">
        <ele>355</ele>
      </trkpt>
      <trkpt lat="44.73949" lon="5.27121">
        <ele>360</ele>
      </trkpt>
      <trkpt lat="44.73944" lon="5.2713">
        <ele>361</ele>
      </trkpt>
      <trkpt lat="44.73923" lon="5.27145">
        <ele>359</ele>
      </trkpt>
      <trkpt lat="44.73907" lon="5.27144">
        <ele>358</ele>
      </trkpt>
      <trkpt lat="44.73885" lon="5.27138">
        <ele>356</ele>
      </trkpt>
      <trkpt lat="44.73778" lon="5.2715">
        <ele>354</ele>
      </trkpt>
      <trkpt lat="44.73751" lon="5.27162">
        <ele>352</ele>
      </trkpt>
      <trkpt lat="44.73723" lon="5.27185">
        <ele>355</ele>
      </trkpt>
      <trkpt lat="44.7368" lon="5.27234">
        <ele>351</ele>
      </trkpt>
      <trkpt lat="44.73669" lon="5.27258">
        <ele>353</ele>
      </trkpt>
      <trkpt lat="44.73649" lon="5.27276">
        <ele>346</ele>
      </trkpt>
      <trkpt lat="44.73637" lon="5.27277">
        <ele>345</ele>
      </trkpt>
      <trkpt lat="44.73624" lon="5.27276">
        <ele>341</ele>
      </trkpt>
      <trkpt lat="44.73534" lon="5.27241">
        <ele>333</ele>
      </trkpt>
      <trkpt lat="44.73464" lon="5.27228">
        <ele>333</ele>
      </trkpt>
      <trkpt lat="44.73442" lon="5.27229">
        <ele>332</ele>
      </trkpt>
      <trkpt lat="44.73425" lon="5.27232">
        <ele>334</ele>
      </trkpt>
      <trkpt lat="44.73398" lon="5.27247">
        <ele>334</ele>
      </trkpt>
      <trkpt lat="44.73373" lon="5.27268">
        <ele>335</ele>
      </trkpt>
      <trkpt lat="44.73339" lon="5.27301">
        <ele>335</ele>
      </trkpt>
      <trkpt lat="44.73261" lon="5.2739">
        <ele>336</ele>
      </trkpt>
      <trkpt lat="44.73242" lon="5.27403">
        <ele>337</ele>
      </trkpt>
      <trkpt lat="44.7322" lon="5.27414">
        <ele>337</ele>
      </trkpt>
      <trkpt lat="44.73127" lon="5.27436">
        <ele>327</ele>
      </trkpt>
      <trkpt lat="44.73026" lon="5.27441">
        <ele>326</ele>
      </trkpt>
      <trkpt lat="44.72955" lon="5.27449">
        <ele>328</ele>
      </trkpt>
      <trkpt lat="44.72913" lon="5.27447">
        <ele>328</ele>
      </trkpt>
      <trkpt lat="44.72899" lon="5.27453">
        <ele>329</ele>
      </trkpt>
      <trkpt lat="44.72836" lon="5.27481">
        <ele>328</ele>
      </trkpt>
      <trkpt lat="44.72812" lon="5.27486">
        <ele>327</ele>
      </trkpt>
      <trkpt lat="44.72722" lon="5.27485">
        <ele>327</ele>
      </trkpt>
      <trkpt lat="44.72699" lon="5.27474">
        <ele>326</ele>
      </trkpt>
      <trkpt lat="44.72637" lon="5.27416">
        <ele>324</ele>
      </trkpt>
      <trkpt lat="44.72617" lon="5.27409">
        <ele>324</ele>
      </trkpt>
      <trkpt lat="44.72569" lon="5.27425">
        <ele>327</ele>
      </trkpt>
      <trkpt lat="44.72558" lon="5.27423">
        <ele>326</ele>
      </trkpt>
      <trkpt lat="44.72552" lon="5.27414">
        <ele>326</ele>
      </trkpt>
      <trkpt lat="44.72545" lon="5.27395">
        <ele>328</ele>
      </trkpt>
      <trkpt lat="44.72526" lon="5.27322">
        <ele>324</ele>
      </trkpt>
      <trkpt lat="44.72516" lon="5.27301">
        <ele>324</ele>
      </trkpt>
      <trkpt lat="44.725" lon="5.27281">
        <ele>322</ele>
      </trkpt>
      <trkpt lat="44.72348" lon="5.27204">
        <ele>321</ele>
      </trkpt>
      <trkpt lat="44.72327" lon="5.27203">
        <ele>321</ele>
      </trkpt>
      <trkpt lat="44.72304" lon="5.27215">
        <ele>321</ele>
      </trkpt>
      <trkpt lat="44.72272" lon="5.27238">
        <ele>323</ele>
      </trkpt>
      <trkpt lat="44.72255" lon="5.27245">
        <ele>321</ele>
      </trkpt>
      <trkpt lat="44.72192" lon="5.27258">
        <ele>320</ele>
      </trkpt>
      <trkpt lat="44.72162" lon="5.27268">
        <ele>317</ele>
      </trkpt>
      <trkpt lat="44.72107" lon="5.27296">
        <ele>315</ele>
      </trkpt>
      <trkpt lat="44.7207" lon="5.27301">
        <ele>315</ele>
      </trkpt>
      <trkpt lat="44.71799" lon="5.27308">
        <ele>318</ele>
      </trkpt>
      <trkpt lat="44.71721" lon="5.27297">
        <ele>316</ele>
      </trkpt>
      <trkpt lat="44.71686" lon="5.27299">
        <ele>317</ele>
      </trkpt>
      <trkpt lat="44.71556" lon="5.27339">
        <ele>317</ele>
      </trkpt>
      <trkpt lat="44.71416" lon="5.27357">
        <ele>314</ele>
      </trkpt>
      <trkpt lat="44.71385" lon="5.27365">
        <ele>315</ele>
      </trkpt>
      <trkpt lat="44.71365" lon="5.27367">
        <ele>315</ele>
      </trkpt>
      <trkpt lat="44.71356" lon="5.27366">
        <ele>315</ele>
      </trkpt>
      <trkpt lat="44.71342" lon="5.27357">
        <ele>314</ele>
      </trkpt>
      <trkpt lat="44.7131" lon="5.27326">
        <ele>311</ele>
      </trkpt>
      <trkpt lat="44.71295" lon="5.27315">
        <ele>311</ele>
      </trkpt>
      <trkpt lat="44.71234" lon="5.27293">
        <ele>311</ele>
      </trkpt>
      <trkpt lat="44.7121" lon="5.27282">
        <ele>310</ele>
      </trkpt>
      <trkpt lat="44.71158" lon="5.27239">
        <ele>309</ele>
      </trkpt>
      <trkpt lat="44.71129" lon="5.27221">
        <ele>308</ele>
      </trkpt>
      <trkpt lat="44.7097" lon="5.27151">
        <ele>308</ele>
      </trkpt>
      <trkpt lat="44.70914" lon="5.27151">
        <ele>309</ele>
      </trkpt>
      <trkpt lat="44.70858" lon="5.27145">
        <ele>311</ele>
      </trkpt>
      <trkpt lat="44.70804" lon="5.27104">
        <ele>310</ele>
      </trkpt>
      <trkpt lat="44.70754" lon="5.27061">
        <ele>304</ele>
      </trkpt>
      <trkpt lat="44.70709" lon="5.27033">
        <ele>303</ele>
      </trkpt>
      <trkpt lat="44.70506" lon="5.26966">
        <ele>306</ele>
      </trkpt>
      <trkpt lat="44.704" lon="5.26866">
        <ele>305</ele>
      </trkpt>
      <trkpt lat="44.70316" lon="5.26781">
        <ele>307</ele>
      </trkpt>
      <trkpt lat="44.70255" lon="5.26687">
        <ele>302</ele>
      </trkpt>
      <trkpt lat="44.70182" lon="5.26568">
        <ele>302</ele>
      </trkpt>
      <trkpt lat="44.70152" lon="5.26531">
        <ele>301</ele>
      </trkpt>
      <trkpt lat="44.70133" lon="5.26521">
        <ele>301</ele>
      </trkpt>
      <trkpt lat="44.70093" lon="5.26531">
        <ele>301</ele>
      </trkpt>
      <trkpt lat="44.7005" lon="5.26557">
        <ele>302</ele>
      </trkpt>
      <trkpt lat="44.70033" lon="5.26562">
        <ele>302</ele>
      </trkpt>
      <trkpt lat="44.69958" lon="5.26517">
        <ele>300</ele>
      </trkpt>
      <trkpt lat="44.69922" lon="5.26487">
        <ele>301</ele>
      </trkpt>
      <trkpt lat="44.699" lon="5.26448">
        <ele>300</ele>
      </trkpt>
      <trkpt lat="44.69885" lon="5.26371">
        <ele>299</ele>
      </trkpt>
      <trkpt lat="44.69851" lon="5.26263">
        <ele>301</ele>
      </trkpt>
      <trkpt lat="44.6982" lon="5.26199">
        <ele>298</ele>
      </trkpt>
      <trkpt lat="44.69794" lon="5.26163">
        <ele>299</ele>
      </trkpt>
      <trkpt lat="44.69739" lon="5.26123">
        <ele>301</ele>
      </trkpt>
      <trkpt lat="44.69699" lon="5.26101">
        <ele>301</ele>
      </trkpt>
      <trkpt lat="44.69641" lon="5.26098">
        <ele>300</ele>
      </trkpt>
      <trkpt lat="44.69572" lon="5.26132">
        <ele>298</ele>
      </trkpt>
      <trkpt lat="44.6951" lon="5.25981">
        <ele>292</ele>
      </trkpt>
      <trkpt lat="44.69464" lon="5.2587">
        <ele>294</ele>
      </trkpt>
      <trkpt lat="44.69457" lon="5.25823">
        <ele>297</ele>
      </trkpt>
      <trkpt lat="44.69477" lon="5.25702">
        <ele>298</ele>
      </trkpt>
      <trkpt lat="44.69464" lon="5.25724">
        <ele>299</ele>
      </trkpt>
      <trkpt lat="44.69447" lon="5.25811">
        <ele>300</ele>
      </trkpt>
      <trkpt lat="44.69424" lon="5.25856">
        <ele>301</ele>
      </trkpt>
      <trkpt lat="44.6939" lon="5.25892">
        <ele>302</ele>
      </trkpt>
      <trkpt lat="44.69358" lon="5.25919">
        <ele>305</ele>
      </trkpt>
      <trkpt lat="44.69317" lon="5.25932">
        <ele>306</ele>
      </trkpt>
      <trkpt lat="44.69285" lon="5.25937">
        <ele>308</ele>
      </trkpt>
      <trkpt lat="44.69231" lon="5.25913">
        <ele>316</ele>
      </trkpt>
      <trkpt lat="44.69214" lon="5.25912">
        <ele>316</ele>
      </trkpt>
      <trkpt lat="44.69155" lon="5.25945">
        <ele>315</ele>
      </trkpt>
      <trkpt lat="44.69106" lon="5.25965">
        <ele>313</ele>
      </trkpt>
      <trkpt lat="44.6906" lon="5.25994">
        <ele>315</ele>
      </trkpt>
      <trkpt lat="44.68946" lon="5.26012">
        <ele>318</ele>
      </trkpt>
      <trkpt lat="44.68808" lon="5.25977">
        <ele>334</ele>
      </trkpt>
      <trkpt lat="44.68775" lon="5.25959">
        <ele>334</ele>
      </trkpt>
      <trkpt lat="44.6876" lon="5.25944">
        <ele>338</ele>
      </trkpt>
      <trkpt lat="44.6874" lon="5.25902">
        <ele>341</ele>
      </trkpt>
      <trkpt lat="44.68726" lon="5.25879">
        <ele>348</ele>
      </trkpt>
      <trkpt lat="44.68704" lon="5.25861">
        <ele>349</ele>
      </trkpt>
      <trkpt lat="44.6869" lon="5.25854">
        <ele>349</ele>
      </trkpt>
      <trkpt lat="44.68653" lon="5.25836">
        <ele>353</ele>
      </trkpt>
      <trkpt lat="44.68546" lon="5.25796">
        <ele>344</ele>
      </trkpt>
      <trkpt lat="44.6848" lon="5.25801">
        <ele>340</ele>
      </trkpt>
      <trkpt lat="44.68456" lon="5.25795">
        <ele>340</ele>
      </trkpt>
      <trkpt lat="44.68436" lon="5.25786">
        <ele>343</ele>
      </trkpt>
      <trkpt lat="44.68406" lon="5.25793">
        <ele>343</ele>
      </trkpt>
      <trkpt lat="44.68361" lon="5.25795">
        <ele>345</ele>
      </trkpt>
      <trkpt lat="44.68351" lon="5.25802">
        <ele>346</ele>
      </trkpt>
      <trkpt lat="44.68317" lon="5.25847">
        <ele>340</ele>
      </trkpt>
      <trkpt lat="44.68282" lon="5.25874">
        <ele>340</ele>
      </trkpt>
      <trkpt lat="44.68266" lon="5.25897">
        <ele>340</ele>
      </trkpt>
      <trkpt lat="44.68221" lon="5.25936">
        <ele>341</ele>
      </trkpt>
      <trkpt lat="44.68207" lon="5.25939">
        <ele>343</ele>
      </trkpt>
      <trkpt lat="44.68196" lon="5.25936">
        <ele>343</ele>
      </trkpt>
      <trkpt lat="44.68182" lon="5.25927">
        <ele>345</ele>
      </trkpt>
      <trkpt lat="44.68164" lon="5.25907">
        <ele>352</ele>
      </trkpt>
      <trkpt lat="44.68157" lon="5.25904">
        <ele>351</ele>
      </trkpt>
      <trkpt lat="44.68149" lon="5.25904">
        <ele>351</ele>
      </trkpt>
      <trkpt lat="44.68142" lon="5.25908">
        <ele>350</ele>
      </trkpt>
      <trkpt lat="44.68136" lon="5.25915">
        <ele>350</ele>
      </trkpt>
      <trkpt lat="44.68113" lon="5.25958">
        <ele>342</ele>
      </trkpt>
      <trkpt lat="44.68103" lon="5.25972">
        <ele>342</ele>
      </trkpt>
      <trkpt lat="44.68087" lon="5.25987">
        <ele>342</ele>
      </trkpt>
      <trkpt lat="44.67985" lon="5.26036">
        <ele>341</ele>
      </trkpt>
      <trkpt lat="44.67978" lon="5.26037">
        <ele>342</ele>
      </trkpt>
      <trkpt lat="44.6797" lon="5.26036">
        <ele>342</ele>
      </trkpt>
      <trkpt lat="44.67957" lon="5.26028">
        <ele>351</ele>
      </trkpt>
      <trkpt lat="44.67885" lon="5.25965">
        <ele>362</ele>
      </trkpt>
      <trkpt lat="44.67872" lon="5.2595">
        <ele>363</ele>
      </trkpt>
      <trkpt lat="44.67855" lon="5.25941">
        <ele>362</ele>
      </trkpt>
      <trkpt lat="44.67845" lon="5.25941">
        <ele>360</ele>
      </trkpt>
      <trkpt lat="44.67837" lon="5.25945">
        <ele>360</ele>
      </trkpt>
      <trkpt lat="44.67828" lon="5.25953">
        <ele>358</ele>
      </trkpt>
      <trkpt lat="44.67817" lon="5.25972">
        <ele>359</ele>
      </trkpt>
      <trkpt lat="44.6781" lon="5.25998">
        <ele>358</ele>
      </trkpt>
      <trkpt lat="44.67809" lon="5.26013">
        <ele>358</ele>
      </trkpt>
      <trkpt lat="44.67809" lon="5.26029">
        <ele>358</ele>
      </trkpt>
      <trkpt lat="44.67814" lon="5.26054">
        <ele>358</ele>
      </trkpt>
      <trkpt lat="44.67833" lon="5.26102">
        <ele>353</ele>
      </trkpt>
      <trkpt lat="44.67839" lon="5.26198">
        <ele>357</ele>
      </trkpt>
      <trkpt lat="44.67837" lon="5.2624">
        <ele>359</ele>
      </trkpt>
      <trkpt lat="44.67825" lon="5.263">
        <ele>363</ele>
      </trkpt>
      <trkpt lat="44.67827" lon="5.26389">
        <ele>363</ele>
      </trkpt>
      <trkpt lat="44.67826" lon="5.26411">
        <ele>363</ele>
      </trkpt>
      <trkpt lat="44.67824" lon="5.26419">
        <ele>367</ele>
      </trkpt>
      <trkpt lat="44.6782" lon="5.26424">
        <ele>367</ele>
      </trkpt>
      <trkpt lat="44.67811" lon="5.26429">
        <ele>364</ele>
      </trkpt>
      <trkpt lat="44.67805" lon="5.26428">
        <ele>364</ele>
      </trkpt>
      <trkpt lat="44.67746" lon="5.26403">
        <ele>375</ele>
      </trkpt>
      <trkpt lat="44.67687" lon="5.26391">
        <ele>385</ele>
      </trkpt>
      <trkpt lat="44.6762" lon="5.26384">
        <ele>378</ele>
      </trkpt>
      <trkpt lat="44.67596" lon="5.26392">
        <ele>378</ele>
      </trkpt>
      <trkpt lat="44.67549" lon="5.26428">
        <ele>363</ele>
      </trkpt>
      <trkpt lat="44.67492" lon="5.26451">
        <ele>376</ele>
      </trkpt>
      <trkpt lat="44.67478" lon="5.26458">
        <ele>376</ele>
      </trkpt>
      <trkpt lat="44.67463" lon="5.26474">
        <ele>381</ele>
      </trkpt>
      <trkpt lat="44.67446" lon="5.26511">
        <ele>365</ele>
      </trkpt>
      <trkpt lat="44.67438" lon="5.26523">
        <ele>365</ele>
      </trkpt>
      <trkpt lat="44.67426" lon="5.26531">
        <ele>370</ele>
      </trkpt>
      <trkpt lat="44.67395" lon="5.26541">
        <ele>372</ele>
      </trkpt>
      <trkpt lat="44.67387" lon="5.26547">
        <ele>372</ele>
      </trkpt>
      <trkpt lat="44.67351" lon="5.2659">
        <ele>371</ele>
      </trkpt>
      <trkpt lat="44.67338" lon="5.266">
        <ele>362</ele>
      </trkpt>
      <trkpt lat="44.67327" lon="5.26603">
        <ele>364</ele>
      </trkpt>
      <trkpt lat="44.67289" lon="5.26605">
        <ele>379</ele>
      </trkpt>
      <trkpt lat="44.67278" lon="5.26611">
        <ele>380</ele>
      </trkpt>
      <trkpt lat="44.67273" lon="5.26635">
        <ele>372</ele>
      </trkpt>
      <trkpt lat="44.67278" lon="5.26668">
        <ele>363</ele>
      </trkpt>
      <trkpt lat="44.67266" lon="5.26728">
        <ele>367</ele>
      </trkpt>
      <trkpt lat="44.67254" lon="5.2676">
        <ele>362</ele>
      </trkpt>
      <trkpt lat="44.67244" lon="5.26767">
        <ele>363</ele>
      </trkpt>
      <trkpt lat="44.67215" lon="5.26767">
        <ele>376</ele>
      </trkpt>
      <trkpt lat="44.67207" lon="5.26784">
        <ele>383</ele>
      </trkpt>
      <trkpt lat="44.67207" lon="5.26802">
        <ele>381</ele>
      </trkpt>
      <trkpt lat="44.6724" lon="5.26907">
        <ele>357</ele>
      </trkpt>
      <trkpt lat="44.6724" lon="5.26932">
        <ele>351</ele>
      </trkpt>
      <trkpt lat="44.67229" lon="5.26947">
        <ele>352</ele>
      </trkpt>
      <trkpt lat="44.67216" lon="5.2695">
        <ele>355</ele>
      </trkpt>
      <trkpt lat="44.672" lon="5.26947">
        <ele>368</ele>
      </trkpt>
      <trkpt lat="44.67181" lon="5.26951">
        <ele>378</ele>
      </trkpt>
      <trkpt lat="44.67157" lon="5.26969">
        <ele>377</ele>
      </trkpt>
      <trkpt lat="44.67138" lon="5.26993">
        <ele>370</ele>
      </trkpt>
      <trkpt lat="44.67113" lon="5.2701">
        <ele>366</ele>
      </trkpt>
      <trkpt lat="44.671" lon="5.27008">
        <ele>368</ele>
      </trkpt>
      <trkpt lat="44.67083" lon="5.26996">
        <ele>378</ele>
      </trkpt>
      <trkpt lat="44.6706" lon="5.26971">
        <ele>391</ele>
      </trkpt>
      <trkpt lat="44.67045" lon="5.26963">
        <ele>387</ele>
      </trkpt>
      <trkpt lat="44.66938" lon="5.26926">
        <ele>381</ele>
      </trkpt>
      <trkpt lat="44.6692" lon="5.26901">
        <ele>385</ele>
      </trkpt>
      <trkpt lat="44.6689" lon="5.26844">
        <ele>393</ele>
      </trkpt>
      <trkpt lat="44.66873" lon="5.26832">
        <ele>392</ele>
      </trkpt>
      <trkpt lat="44.66835" lon="5.26855">
        <ele>380</ele>
      </trkpt>
      <trkpt lat="44.66822" lon="5.2688">
        <ele>379</ele>
      </trkpt>
      <trkpt lat="44.66817" lon="5.26927">
        <ele>373</ele>
      </trkpt>
      <trkpt lat="44.6681" lon="5.26963">
        <ele>364</ele>
      </trkpt>
      <trkpt lat="44.66801" lon="5.26981">
        <ele>357</ele>
      </trkpt>
      <trkpt lat="44.66759" lon="5.27004">
        <ele>375</ele>
      </trkpt>
      <trkpt lat="44.66717" lon="5.2701">
        <ele>377</ele>
      </trkpt>
      <trkpt lat="44.66696" lon="5.26989">
        <ele>384</ele>
      </trkpt>
      <trkpt lat="44.66657" lon="5.2696">
        <ele>384</ele>
      </trkpt>
      <trkpt lat="44.66634" lon="5.26953">
        <ele>384</ele>
      </trkpt>
      <trkpt lat="44.66614" lon="5.26951">
        <ele>386</ele>
      </trkpt>
      <trkpt lat="44.66609" lon="5.26953">
        <ele>382</ele>
      </trkpt>
      <trkpt lat="44.66605" lon="5.26957">
        <ele>381</ele>
      </trkpt>
      <trkpt lat="44.666" lon="5.26972">
        <ele>380</ele>
      </trkpt>
      <trkpt lat="44.66595" lon="5.26996">
        <ele>376</ele>
      </trkpt>
      <trkpt lat="44.66587" lon="5.27012">
        <ele>374</ele>
      </trkpt>
      <trkpt lat="44.66573" lon="5.27023">
        <ele>376</ele>
      </trkpt>
      <trkpt lat="44.66557" lon="5.27026">
        <ele>377</ele>
      </trkpt>
      <trkpt lat="44.66524" lon="5.27022">
        <ele>381</ele>
      </trkpt>
      <trkpt lat="44.66499" lon="5.27028">
        <ele>383</ele>
      </trkpt>
      <trkpt lat="44.66479" lon="5.27046">
        <ele>380</ele>
      </trkpt>
      <trkpt lat="44.66429" lon="5.27116">
        <ele>381</ele>
      </trkpt>
      <trkpt lat="44.66377" lon="5.27164">
        <ele>380</ele>
      </trkpt>
      <trkpt lat="44.66366" lon="5.27172">
        <ele>380</ele>
      </trkpt>
      <trkpt lat="44.66354" lon="5.27178">
        <ele>376</ele>
      </trkpt>
      <trkpt lat="44.66327" lon="5.27178">
        <ele>383</ele>
      </trkpt>
      <trkpt lat="44.66248" lon="5.2716">
        <ele>386</ele>
      </trkpt>
      <trkpt lat="44.66238" lon="5.27163">
        <ele>386</ele>
      </trkpt>
      <trkpt lat="44.66231" lon="5.27168">
        <ele>387</ele>
      </trkpt>
      <trkpt lat="44.66224" lon="5.27177">
        <ele>386</ele>
      </trkpt>
      <trkpt lat="44.66217" lon="5.27192">
        <ele>386</ele>
      </trkpt>
      <trkpt lat="44.66176" lon="5.2732">
        <ele>382</ele>
      </trkpt>
      <trkpt lat="44.66173" lon="5.27351">
        <ele>381</ele>
      </trkpt>
      <trkpt lat="44.66185" lon="5.27446">
        <ele>380</ele>
      </trkpt>
      <trkpt lat="44.66185" lon="5.27466">
        <ele>378</ele>
      </trkpt>
      <trkpt lat="44.66183" lon="5.27475">
        <ele>378</ele>
      </trkpt>
      <trkpt lat="44.66156" lon="5.27535">
        <ele>384</ele>
      </trkpt>
      <trkpt lat="44.66148" lon="5.27572">
        <ele>381</ele>
      </trkpt>
      <trkpt lat="44.66141" lon="5.27589">
        <ele>381</ele>
      </trkpt>
      <trkpt lat="44.66133" lon="5.27602">
        <ele>378</ele>
      </trkpt>
      <trkpt lat="44.6612" lon="5.27614">
        <ele>380</ele>
      </trkpt>
      <trkpt lat="44.66089" lon="5.27629">
        <ele>376</ele>
      </trkpt>
      <trkpt lat="44.6608" lon="5.2764">
        <ele>376</ele>
      </trkpt>
      <trkpt lat="44.66075" lon="5.27648">
        <ele>368</ele>
      </trkpt>
      <trkpt lat="44.66066" lon="5.27656">
        <ele>371</ele>
      </trkpt>
      <trkpt lat="44.66057" lon="5.2766">
        <ele>371</ele>
      </trkpt>
      <trkpt lat="44.6604" lon="5.27659">
        <ele>380</ele>
      </trkpt>
      <trkpt lat="44.66025" lon="5.27662">
        <ele>382</ele>
      </trkpt>
      <trkpt lat="44.6601" lon="5.27668">
        <ele>390</ele>
      </trkpt>
      <trkpt lat="44.65984" lon="5.27687">
        <ele>389</ele>
      </trkpt>
      <trkpt lat="44.65976" lon="5.27702">
        <ele>388</ele>
      </trkpt>
      <trkpt lat="44.65967" lon="5.27746">
        <ele>373</ele>
      </trkpt>
      <trkpt lat="44.65964" lon="5.27777">
        <ele>371</ele>
      </trkpt>
      <trkpt lat="44.65966" lon="5.2784">
        <ele>373</ele>
      </trkpt>
      <trkpt lat="44.65972" lon="5.27865">
        <ele>376</ele>
      </trkpt>
      <trkpt lat="44.65981" lon="5.27885">
        <ele>380</ele>
      </trkpt>
      <trkpt lat="44.66004" lon="5.27913">
        <ele>368</ele>
      </trkpt>
      <trkpt lat="44.66009" lon="5.27928">
        <ele>373</ele>
      </trkpt>
      <trkpt lat="44.66015" lon="5.27964">
        <ele>376</ele>
      </trkpt>
      <trkpt lat="44.66026" lon="5.27999">
        <ele>366</ele>
      </trkpt>
      <trkpt lat="44.66039" lon="5.28056">
        <ele>369</ele>
      </trkpt>
      <trkpt lat="44.6604" lon="5.28075">
        <ele>369</ele>
      </trkpt>
      <trkpt lat="44.66038" lon="5.28089">
        <ele>369</ele>
      </trkpt>
      <trkpt lat="44.66032" lon="5.2811">
        <ele>369</ele>
      </trkpt>
      <trkpt lat="44.65999" lon="5.28188">
        <ele>377</ele>
      </trkpt>
      <trkpt lat="44.65987" lon="5.28222">
        <ele>380</ele>
      </trkpt>
      <trkpt lat="44.65962" lon="5.28279">
        <ele>377</ele>
      </trkpt>
      <trkpt lat="44.65951" lon="5.28291">
        <ele>374</ele>
      </trkpt>
      <trkpt lat="44.65942" lon="5.28294">
        <ele>375</ele>
      </trkpt>
      <trkpt lat="44.65935" lon="5.28295">
        <ele>375</ele>
      </trkpt>
      <trkpt lat="44.65903" lon="5.28286">
        <ele>385</ele>
      </trkpt>
      <trkpt lat="44.6589" lon="5.28286">
        <ele>387</ele>
      </trkpt>
      <trkpt lat="44.65874" lon="5.28289">
        <ele>392</ele>
      </trkpt>
      <trkpt lat="44.65773" lon="5.28325">
        <ele>380</ele>
      </trkpt>
      <trkpt lat="44.65749" lon="5.28327">
        <ele>383</ele>
      </trkpt>
      <trkpt lat="44.65729" lon="5.28324">
        <ele>384</ele>
      </trkpt>
      <trkpt lat="44.65639" lon="5.28259">
        <ele>393</ele>
      </trkpt>
      <trkpt lat="44.65584" lon="5.28232">
        <ele>392</ele>
      </trkpt>
      <trkpt lat="44.65541" lon="5.28234">
        <ele>385</ele>
      </trkpt>
      <trkpt lat="44.65499" lon="5.28249">
        <ele>382</ele>
      </trkpt>
      <trkpt lat="44.65431" lon="5.28279">
        <ele>392</ele>
      </trkpt>
      <trkpt lat="44.65415" lon="5.28289">
        <ele>387</ele>
      </trkpt>
      <trkpt lat="44.65408" lon="5.28297">
        <ele>387</ele>
      </trkpt>
      <trkpt lat="44.65382" lon="5.28336">
        <ele>389</ele>
      </trkpt>
      <trkpt lat="44.65371" lon="5.28364">
        <ele>391</ele>
      </trkpt>
      <trkpt lat="44.65353" lon="5.2847">
        <ele>380</ele>
      </trkpt>
      <trkpt lat="44.65334" lon="5.28594">
        <ele>384</ele>
      </trkpt>
      <trkpt lat="44.65321" lon="5.28635">
        <ele>388</ele>
      </trkpt>
      <trkpt lat="44.65304" lon="5.28678">
        <ele>398</ele>
      </trkpt>
      <trkpt lat="44.653" lon="5.28685">
        <ele>399</ele>
      </trkpt>
      <trkpt lat="44.65285" lon="5.28688">
        <ele>402</ele>
      </trkpt>
      <trkpt lat="44.65246" lon="5.28688">
        <ele>404</ele>
      </trkpt>
      <trkpt lat="44.65151" lon="5.28679">
        <ele>405</ele>
      </trkpt>
      <trkpt lat="44.65125" lon="5.28687">
        <ele>405</ele>
      </trkpt>
      <trkpt lat="44.65081" lon="5.28711">
        <ele>407</ele>
      </trkpt>
      <trkpt lat="44.65008" lon="5.28724">
        <ele>406</ele>
      </trkpt>
      <trkpt lat="44.64983" lon="5.28742">
        <ele>411</ele>
      </trkpt>
      <trkpt lat="44.64923" lon="5.28829">
        <ele>417</ele>
      </trkpt>
      <trkpt lat="44.64904" lon="5.28845">
        <ele>421</ele>
      </trkpt>
      <trkpt lat="44.64822" lon="5.28889">
        <ele>417</ele>
      </trkpt>
      <trkpt lat="44.64765" lon="5.28938">
        <ele>416</ele>
      </trkpt>
      <trkpt lat="44.64752" lon="5.28957">
        <ele>419</ele>
      </trkpt>
      <trkpt lat="44.64748" lon="5.28979">
        <ele>419</ele>
      </trkpt>
      <trkpt lat="44.64749" lon="5.29009">
        <ele>421</ele>
      </trkpt>
      <trkpt lat="44.64758" lon="5.29037">
        <ele>422</ele>
      </trkpt>
      <trkpt lat="44.64759" lon="5.29049">
        <ele>422</ele>
      </trkpt>
      <trkpt lat="44.64758" lon="5.29061">
        <ele>422</ele>
      </trkpt>
      <trkpt lat="44.64752" lon="5.29074">
        <ele>421</ele>
      </trkpt>
      <trkpt lat="44.64741" lon="5.2909">
        <ele>420</ele>
      </trkpt>
      <trkpt lat="44.64719" lon="5.2912">
        <ele>420</ele>
      </trkpt>
      <trkpt lat="44.64698" lon="5.29167">
        <ele>423</ele>
      </trkpt>
      <trkpt lat="44.64662" lon="5.29272">
        <ele>441</ele>
      </trkpt>
      <trkpt lat="44.64644" lon="5.29308">
        <ele>438</ele>
      </trkpt>
      <trkpt lat="44.64632" lon="5.29343">
        <ele>453</ele>
      </trkpt>
      <trkpt lat="44.64607" lon="5.29378">
        <ele>452</ele>
      </trkpt>
      <trkpt lat="44.64601" lon="5.2939">
        <ele>443</ele>
      </trkpt>
      <trkpt lat="44.64575" lon="5.29406">
        <ele>446</ele>
      </trkpt>
      <trkpt lat="44.64564" lon="5.29422">
        <ele>438</ele>
      </trkpt>
      <trkpt lat="44.64556" lon="5.29445">
        <ele>445</ele>
      </trkpt>
      <trkpt lat="44.64544" lon="5.29454">
        <ele>446</ele>
      </trkpt>
      <trkpt lat="44.6452" lon="5.29462">
        <ele>445</ele>
      </trkpt>
      <trkpt lat="44.64498" lon="5.29454">
        <ele>441</ele>
      </trkpt>
      <trkpt lat="44.64465" lon="5.29461">
        <ele>441</ele>
      </trkpt>
      <trkpt lat="44.64449" lon="5.29461">
        <ele>442</ele>
      </trkpt>
      <trkpt lat="44.6441" lon="5.29445">
        <ele>432</ele>
      </trkpt>
      <trkpt lat="44.64384" lon="5.2944">
        <ele>432</ele>
      </trkpt>
      <trkpt lat="44.64345" lon="5.29421">
        <ele>429</ele>
      </trkpt>
      <trkpt lat="44.64303" lon="5.29389">
        <ele>424</ele>
      </trkpt>
      <trkpt lat="44.64268" lon="5.29392">
        <ele>428</ele>
      </trkpt>
      <trkpt lat="44.64236" lon="5.29368">
        <ele>425</ele>
      </trkpt>
      <trkpt lat="44.64216" lon="5.29347">
        <ele>424</ele>
      </trkpt>
      <trkpt lat="44.6418" lon="5.29302">
        <ele>418</ele>
      </trkpt>
      <trkpt lat="44.64151" lon="5.29259">
        <ele>421</ele>
      </trkpt>
      <trkpt lat="44.6413" lon="5.29222">
        <ele>417</ele>
      </trkpt>
      <trkpt lat="44.64111" lon="5.29203">
        <ele>419</ele>
      </trkpt>
      <trkpt lat="44.64095" lon="5.29193">
        <ele>422</ele>
      </trkpt>
      <trkpt lat="44.64073" lon="5.29167">
        <ele>427</ele>
      </trkpt>
      <trkpt lat="44.64046" lon="5.29146">
        <ele>427</ele>
      </trkpt>
      <trkpt lat="44.6403" lon="5.29143">
        <ele>439</ele>
      </trkpt>
      <trkpt lat="44.64011" lon="5.2912">
        <ele>452</ele>
      </trkpt>
      <trkpt lat="44.64007" lon="5.2909">
        <ele>438</ele>
      </trkpt>
      <trkpt lat="44.64006" lon="5.29054">
        <ele>434</ele>
      </trkpt>
      <trkpt lat="44.63995" lon="5.2903">
        <ele>432</ele>
      </trkpt>
      <trkpt lat="44.6398" lon="5.29019">
        <ele>431</ele>
      </trkpt>
      <trkpt lat="44.63968" lon="5.29022">
        <ele>431</ele>
      </trkpt>
      <trkpt lat="44.63959" lon="5.29039">
        <ele>433</ele>
      </trkpt>
      <trkpt lat="44.6395" lon="5.29073">
        <ele>439</ele>
      </trkpt>
      <trkpt lat="44.63895" lon="5.29165">
        <ele>447</ele>
      </trkpt>
      <trkpt lat="44.63876" lon="5.29184">
        <ele>447</ele>
      </trkpt>
      <trkpt lat="44.63857" lon="5.29186">
        <ele>445</ele>
      </trkpt>
      <trkpt lat="44.63816" lon="5.29163">
        <ele>439</ele>
      </trkpt>
      <trkpt lat="44.63805" lon="5.2915">
        <ele>438</ele>
      </trkpt>
      <trkpt lat="44.63794" lon="5.2913">
        <ele>433</ele>
      </trkpt>
      <trkpt lat="44.63788" lon="5.29112">
        <ele>430</ele>
      </trkpt>
      <trkpt lat="44.63782" lon="5.29106">
        <ele>429</ele>
      </trkpt>
      <trkpt lat="44.63777" lon="5.29103">
        <ele>430</ele>
      </trkpt>
      <trkpt lat="44.63768" lon="5.29104">
        <ele>431</ele>
      </trkpt>
      <trkpt lat="44.63763" lon="5.29111">
        <ele>432</ele>
      </trkpt>
      <trkpt lat="44.63756" lon="5.29122">
        <ele>435</ele>
      </trkpt>
      <trkpt lat="44.63752" lon="5.29134">
        <ele>435</ele>
      </trkpt>
      <trkpt lat="44.6375" lon="5.29155">
        <ele>440</ele>
      </trkpt>
      <trkpt lat="44.63752" lon="5.29175">
        <ele>446</ele>
      </trkpt>
      <trkpt lat="44.63748" lon="5.29199">
        <ele>449</ele>
      </trkpt>
      <trkpt lat="44.6373" lon="5.29227">
        <ele>450</ele>
      </trkpt>
      <trkpt lat="44.63661" lon="5.29288">
        <ele>456</ele>
      </trkpt>
      <trkpt lat="44.6361" lon="5.2931">
        <ele>443</ele>
      </trkpt>
      <trkpt lat="44.63599" lon="5.29338">
        <ele>446</ele>
      </trkpt>
      <trkpt lat="44.63561" lon="5.29382">
        <ele>450</ele>
      </trkpt>
      <trkpt lat="44.63553" lon="5.294">
        <ele>452</ele>
      </trkpt>
      <trkpt lat="44.63551" lon="5.29496">
        <ele>463</ele>
      </trkpt>
      <trkpt lat="44.63549" lon="5.29535">
        <ele>470</ele>
      </trkpt>
      <trkpt lat="44.63539" lon="5.29571">
        <ele>465</ele>
      </trkpt>
      <trkpt lat="44.63519" lon="5.29599">
        <ele>471</ele>
      </trkpt>
      <trkpt lat="44.63479" lon="5.29637">
        <ele>463</ele>
      </trkpt>
      <trkpt lat="44.63461" lon="5.2964">
        <ele>459</ele>
      </trkpt>
      <trkpt lat="44.63439" lon="5.29638">
        <ele>456</ele>
      </trkpt>
      <trkpt lat="44.63403" lon="5.29639">
        <ele>461</ele>
      </trkpt>
      <trkpt lat="44.63383" lon="5.29633">
        <ele>462</ele>
      </trkpt>
      <trkpt lat="44.63346" lon="5.29625">
        <ele>458</ele>
      </trkpt>
      <trkpt lat="44.63293" lon="5.296">
        <ele>446</ele>
      </trkpt>
      <trkpt lat="44.63277" lon="5.29595">
        <ele>447</ele>
      </trkpt>
      <trkpt lat="44.63262" lon="5.296">
        <ele>448</ele>
      </trkpt>
      <trkpt lat="44.63174" lon="5.29651">
        <ele>450</ele>
      </trkpt>
      <trkpt lat="44.63158" lon="5.29667">
        <ele>450</ele>
      </trkpt>
      <trkpt lat="44.63146" lon="5.29682">
        <ele>452</ele>
      </trkpt>
      <trkpt lat="44.63136" lon="5.29703">
        <ele>459</ele>
      </trkpt>
      <trkpt lat="44.63127" lon="5.29727">
        <ele>455</ele>
      </trkpt>
      <trkpt lat="44.63125" lon="5.29746">
        <ele>458</ele>
      </trkpt>
      <trkpt lat="44.63127" lon="5.29782">
        <ele>460</ele>
      </trkpt>
      <trkpt lat="44.63136" lon="5.29833">
        <ele>467</ele>
      </trkpt>
      <trkpt lat="44.63152" lon="5.29878">
        <ele>464</ele>
      </trkpt>
      <trkpt lat="44.63156" lon="5.29898">
        <ele>464</ele>
      </trkpt>
      <trkpt lat="44.63157" lon="5.29935">
        <ele>476</ele>
      </trkpt>
      <trkpt lat="44.63127" lon="5.30146">
        <ele>453</ele>
      </trkpt>
      <trkpt lat="44.63119" lon="5.30177">
        <ele>454</ele>
      </trkpt>
      <trkpt lat="44.63107" lon="5.30194">
        <ele>453</ele>
      </trkpt>
      <trkpt lat="44.63097" lon="5.30202">
        <ele>448</ele>
      </trkpt>
      <trkpt lat="44.63068" lon="5.30208">
        <ele>445</ele>
      </trkpt>
      <trkpt lat="44.6296" lon="5.30231">
        <ele>444</ele>
      </trkpt>
      <trkpt lat="44.62941" lon="5.30241">
        <ele>444</ele>
      </trkpt>
      <trkpt lat="44.62927" lon="5.3025">
        <ele>442</ele>
      </trkpt>
      <trkpt lat="44.62919" lon="5.30253">
        <ele>442</ele>
      </trkpt>
      <trkpt lat="44.62912" lon="5.3025">
        <ele>442</ele>
      </trkpt>
      <trkpt lat="44.62885" lon="5.30232">
        <ele>440</ele>
      </trkpt>
      <trkpt lat="44.62876" lon="5.30231">
        <ele>440</ele>
      </trkpt>
      <trkpt lat="44.62868" lon="5.30236">
        <ele>440</ele>
      </trkpt>
      <trkpt lat="44.62842" lon="5.30276">
        <ele>442</ele>
      </trkpt>
      <trkpt lat="44.62828" lon="5.30291">
        <ele>443</ele>
      </trkpt>
      <trkpt lat="44.62816" lon="5.30309">
        <ele>446</ele>
      </trkpt>
      <trkpt lat="44.62804" lon="5.30337">
        <ele>445</ele>
      </trkpt>
      <trkpt lat="44.62797" lon="5.30365">
        <ele>445</ele>
      </trkpt>
      <trkpt lat="44.62794" lon="5.30372">
        <ele>445</ele>
      </trkpt>
      <trkpt lat="44.62789" lon="5.30375">
        <ele>445</ele>
      </trkpt>
      <trkpt lat="44.62783" lon="5.30375">
        <ele>445</ele>
      </trkpt>
      <trkpt lat="44.62777" lon="5.3037">
        <ele>445</ele>
      </trkpt>
      <trkpt lat="44.62749" lon="5.3031">
        <ele>457</ele>
      </trkpt>
      <trkpt lat="44.62743" lon="5.30301">
        <ele>458</ele>
      </trkpt>
      <trkpt lat="44.62734" lon="5.30293">
        <ele>460</ele>
      </trkpt>
      <trkpt lat="44.62722" lon="5.30287">
        <ele>461</ele>
      </trkpt>
      <trkpt lat="44.62712" lon="5.30285">
        <ele>467</ele>
      </trkpt>
      <trkpt lat="44.62655" lon="5.3028">
        <ele>464</ele>
      </trkpt>
      <trkpt lat="44.6263" lon="5.30282">
        <ele>464</ele>
      </trkpt>
      <trkpt lat="44.62605" lon="5.30275">
        <ele>465</ele>
      </trkpt>
      <trkpt lat="44.62599" lon="5.30278">
        <ele>468</ele>
      </trkpt>
      <trkpt lat="44.62593" lon="5.30288">
        <ele>463</ele>
      </trkpt>
      <trkpt lat="44.62586" lon="5.30325">
        <ele>456</ele>
      </trkpt>
      <trkpt lat="44.6258" lon="5.30342">
        <ele>455</ele>
      </trkpt>
      <trkpt lat="44.62569" lon="5.30365">
        <ele>462</ele>
      </trkpt>
      <trkpt lat="44.62535" lon="5.30421">
        <ele>465</ele>
      </trkpt>
      <trkpt lat="44.62528" lon="5.30437">
        <ele>461</ele>
      </trkpt>
      <trkpt lat="44.62519" lon="5.30466">
        <ele>460</ele>
      </trkpt>
      <trkpt lat="44.62502" lon="5.30495">
        <ele>463</ele>
      </trkpt>
      <trkpt lat="44.62497" lon="5.3051">
        <ele>462</ele>
      </trkpt>
      <trkpt lat="44.62495" lon="5.30549">
        <ele>459</ele>
      </trkpt>
      <trkpt lat="44.62488" lon="5.3057">
        <ele>463</ele>
      </trkpt>
      <trkpt lat="44.6248" lon="5.30588">
        <ele>464</ele>
      </trkpt>
      <trkpt lat="44.62471" lon="5.30601">
        <ele>462</ele>
      </trkpt>
      <trkpt lat="44.62464" lon="5.30608">
        <ele>462</ele>
      </trkpt>
      <trkpt lat="44.62426" lon="5.3062">
        <ele>466</ele>
      </trkpt>
      <trkpt lat="44.62391" lon="5.30636">
        <ele>469</ele>
      </trkpt>
      <trkpt lat="44.62368" lon="5.30657">
        <ele>469</ele>
      </trkpt>
      <trkpt lat="44.62358" lon="5.30661">
        <ele>469</ele>
      </trkpt>
      <trkpt lat="44.62345" lon="5.3066">
        <ele>474</ele>
      </trkpt>
      <trkpt lat="44.62337" lon="5.30654">
        <ele>476</ele>
      </trkpt>
      <trkpt lat="44.62327" lon="5.30645">
        <ele>483</ele>
      </trkpt>
      <trkpt lat="44.62312" lon="5.30627">
        <ele>484</ele>
      </trkpt>
      <trkpt lat="44.6228" lon="5.306">
        <ele>483</ele>
      </trkpt>
      <trkpt lat="44.62251" lon="5.30588">
        <ele>482</ele>
      </trkpt>
      <trkpt lat="44.6223" lon="5.30581">
        <ele>482</ele>
      </trkpt>
      <trkpt lat="44.62201" lon="5.30564">
        <ele>491</ele>
      </trkpt>
      <trkpt lat="44.62181" lon="5.30555">
        <ele>494</ele>
      </trkpt>
      <trkpt lat="44.62157" lon="5.30549">
        <ele>495</ele>
      </trkpt>
      <trkpt lat="44.62134" lon="5.30551">
        <ele>496</ele>
      </trkpt>
      <trkpt lat="44.62092" lon="5.30557">
        <ele>501</ele>
      </trkpt>
      <trkpt lat="44.62054" lon="5.30554">
        <ele>505</ele>
      </trkpt>
      <trkpt lat="44.62026" lon="5.30566">
        <ele>497</ele>
      </trkpt>
      <trkpt lat="44.62009" lon="5.30567">
        <ele>498</ele>
      </trkpt>
      <trkpt lat="44.61982" lon="5.30555">
        <ele>509</ele>
      </trkpt>
      <trkpt lat="44.61965" lon="5.30542">
        <ele>511</ele>
      </trkpt>
      <trkpt lat="44.61917" lon="5.3052">
        <ele>513</ele>
      </trkpt>
      <trkpt lat="44.61906" lon="5.30513">
        <ele>508</ele>
      </trkpt>
      <trkpt lat="44.61902" lon="5.30506">
        <ele>510</ele>
      </trkpt>
      <trkpt lat="44.61902" lon="5.30496">
        <ele>511</ele>
      </trkpt>
      <trkpt lat="44.61906" lon="5.3049">
        <ele>511</ele>
      </trkpt>
      <trkpt lat="44.61953" lon="5.30468">
        <ele>523</ele>
      </trkpt>
      <trkpt lat="44.61975" lon="5.30449">
        <ele>526</ele>
      </trkpt>
      <trkpt lat="44.62028" lon="5.30413">
        <ele>537</ele>
      </trkpt>
      <trkpt lat="44.62042" lon="5.30397">
        <ele>533</ele>
      </trkpt>
      <trkpt lat="44.62054" lon="5.30377">
        <ele>540</ele>
      </trkpt>
      <trkpt lat="44.62075" lon="5.30328">
        <ele>543</ele>
      </trkpt>
      <trkpt lat="44.62083" lon="5.30299">
        <ele>545</ele>
      </trkpt>
      <trkpt lat="44.62082" lon="5.30278">
        <ele>544</ele>
      </trkpt>
      <trkpt lat="44.62079" lon="5.30253">
        <ele>546</ele>
      </trkpt>
      <trkpt lat="44.62067" lon="5.30203">
        <ele>537</ele>
      </trkpt>
      <trkpt lat="44.62059" lon="5.30157">
        <ele>542</ele>
      </trkpt>
      <trkpt lat="44.62052" lon="5.30126">
        <ele>544</ele>
      </trkpt>
      <trkpt lat="44.62043" lon="5.30101">
        <ele>538</ele>
      </trkpt>
      <trkpt lat="44.62019" lon="5.30047">
        <ele>542</ele>
      </trkpt>
      <trkpt lat="44.62015" lon="5.30031">
        <ele>535</ele>
      </trkpt>
      <trkpt lat="44.62016" lon="5.30012">
        <ele>535</ele>
      </trkpt>
      <trkpt lat="44.62024" lon="5.29948">
        <ele>539</ele>
      </trkpt>
      <trkpt lat="44.62027" lon="5.29903">
        <ele>535</ele>
      </trkpt>
      <trkpt lat="44.62031" lon="5.29881">
        <ele>533</ele>
      </trkpt>
      <trkpt lat="44.62038" lon="5.29872">
        <ele>533</ele>
      </trkpt>
      <trkpt lat="44.62051" lon="5.29866">
        <ele>534</ele>
      </trkpt>
      <trkpt lat="44.62091" lon="5.29869">
        <ele>538</ele>
      </trkpt>
      <trkpt lat="44.62108" lon="5.29865">
        <ele>541</ele>
      </trkpt>
      <trkpt lat="44.6213" lon="5.29848">
        <ele>544</ele>
      </trkpt>
      <trkpt lat="44.62162" lon="5.2983">
        <ele>548</ele>
      </trkpt>
      <trkpt lat="44.6217" lon="5.2982">
        <ele>549</ele>
      </trkpt>
      <trkpt lat="44.62173" lon="5.2981">
        <ele>548</ele>
      </trkpt>
      <trkpt lat="44.62174" lon="5.29798">
        <ele>548</ele>
      </trkpt>
      <trkpt lat="44.62168" lon="5.29764">
        <ele>545</ele>
      </trkpt>
      <trkpt lat="44.6217" lon="5.29753">
        <ele>543</ele>
      </trkpt>
      <trkpt lat="44.6218" lon="5.29731">
        <ele>544</ele>
      </trkpt>
      <trkpt lat="44.62182" lon="5.29721">
        <ele>543</ele>
      </trkpt>
      <trkpt lat="44.62181" lon="5.29708">
        <ele>543</ele>
      </trkpt>
      <trkpt lat="44.62167" lon="5.29671">
        <ele>545</ele>
      </trkpt>
      <trkpt lat="44.62162" lon="5.29638">
        <ele>551</ele>
      </trkpt>
      <trkpt lat="44.62154" lon="5.2963">
        <ele>548</ele>
      </trkpt>
      <trkpt lat="44.62145" lon="5.29626">
        <ele>548</ele>
      </trkpt>
      <trkpt lat="44.62135" lon="5.29632">
        <ele>547</ele>
      </trkpt>
      <trkpt lat="44.62118" lon="5.29652">
        <ele>540</ele>
      </trkpt>
      <trkpt lat="44.62107" lon="5.29661">
        <ele>539</ele>
      </trkpt>
      <trkpt lat="44.62094" lon="5.29663">
        <ele>539</ele>
      </trkpt>
      <trkpt lat="44.62083" lon="5.29656">
        <ele>539</ele>
      </trkpt>
      <trkpt lat="44.62062" lon="5.29625">
        <ele>544</ele>
      </trkpt>
      <trkpt lat="44.62042" lon="5.29602">
        <ele>550</ele>
      </trkpt>
      <trkpt lat="44.62027" lon="5.29591">
        <ele>556</ele>
      </trkpt>
      <trkpt lat="44.62" lon="5.29587">
        <ele>555</ele>
      </trkpt>
      <trkpt lat="44.61967" lon="5.29591">
        <ele>553</ele>
      </trkpt>
      <trkpt lat="44.61944" lon="5.29603">
        <ele>547</ele>
      </trkpt>
      <trkpt lat="44.61926" lon="5.29615">
        <ele>550</ele>
      </trkpt>
      <trkpt lat="44.61907" lon="5.29636">
        <ele>546</ele>
      </trkpt>
      <trkpt lat="44.61895" lon="5.29646">
        <ele>549</ele>
      </trkpt>
      <trkpt lat="44.61882" lon="5.29647">
        <ele>550</ele>
      </trkpt>
      <trkpt lat="44.61876" lon="5.29637">
        <ele>552</ele>
      </trkpt>
      <trkpt lat="44.61873" lon="5.2962">
        <ele>553</ele>
      </trkpt>
      <trkpt lat="44.61872" lon="5.29592">
        <ele>554</ele>
      </trkpt>
      <trkpt lat="44.61868" lon="5.29565">
        <ele>555</ele>
      </trkpt>
      <trkpt lat="44.61861" lon="5.29542">
        <ele>555</ele>
      </trkpt>
      <trkpt lat="44.61853" lon="5.2952">
        <ele>554</ele>
      </trkpt>
      <trkpt lat="44.6185" lon="5.29501">
        <ele>548</ele>
      </trkpt>
      <trkpt lat="44.6185" lon="5.29454">
        <ele>547</ele>
      </trkpt>
      <trkpt lat="44.61842" lon="5.29427">
        <ele>547</ele>
      </trkpt>
      <trkpt lat="44.6184" lon="5.29409">
        <ele>549</ele>
      </trkpt>
      <trkpt lat="44.61841" lon="5.29394">
        <ele>551</ele>
      </trkpt>
      <trkpt lat="44.61845" lon="5.29371">
        <ele>553</ele>
      </trkpt>
      <trkpt lat="44.61842" lon="5.29358">
        <ele>555</ele>
      </trkpt>
      <trkpt lat="44.61836" lon="5.2935">
        <ele>555</ele>
      </trkpt>
      <trkpt lat="44.61829" lon="5.29346">
        <ele>554</ele>
      </trkpt>
      <trkpt lat="44.61821" lon="5.29346">
        <ele>551</ele>
      </trkpt>
      <trkpt lat="44.61811" lon="5.29355">
        <ele>549</ele>
      </trkpt>
      <trkpt lat="44.61797" lon="5.29387">
        <ele>546</ele>
      </trkpt>
      <trkpt lat="44.61781" lon="5.29411">
        <ele>539</ele>
      </trkpt>
      <trkpt lat="44.61763" lon="5.29428">
        <ele>539</ele>
      </trkpt>
      <trkpt lat="44.61718" lon="5.29461">
        <ele>535</ele>
      </trkpt>
      <trkpt lat="44.61695" lon="5.2949">
        <ele>533</ele>
      </trkpt>
      <trkpt lat="44.61681" lon="5.29496">
        <ele>534</ele>
      </trkpt>
      <trkpt lat="44.61669" lon="5.29494">
        <ele>535</ele>
      </trkpt>
      <trkpt lat="44.61659" lon="5.29482">
        <ele>535</ele>
      </trkpt>
      <trkpt lat="44.61648" lon="5.29443">
        <ele>542</ele>
      </trkpt>
      <trkpt lat="44.61639" lon="5.29423">
        <ele>545</ele>
      </trkpt>
      <trkpt lat="44.61606" lon="5.29377">
        <ele>543</ele>
      </trkpt>
      <trkpt lat="44.61592" lon="5.2937">
        <ele>538</ele>
      </trkpt>
      <trkpt lat="44.61559" lon="5.29368">
        <ele>536</ele>
      </trkpt>
      <trkpt lat="44.61544" lon="5.29365">
        <ele>533</ele>
      </trkpt>
      <trkpt lat="44.61508" lon="5.29347">
        <ele>530</ele>
      </trkpt>
      <trkpt lat="44.61493" lon="5.29343">
        <ele>530</ele>
      </trkpt>
      <trkpt lat="44.61481" lon="5.29346">
        <ele>530</ele>
      </trkpt>
      <trkpt lat="44.61405" lon="5.2939">
        <ele>525</ele>
      </trkpt>
      <trkpt lat="44.61372" lon="5.29402">
        <ele>524</ele>
      </trkpt>
      <trkpt lat="44.61357" lon="5.29406">
        <ele>524</ele>
      </trkpt>
      <trkpt lat="44.61336" lon="5.29404">
        <ele>527</ele>
      </trkpt>
      <trkpt lat="44.61245" lon="5.2937">
        <ele>530</ele>
      </trkpt>
      <trkpt lat="44.61227" lon="5.29369">
        <ele>531</ele>
      </trkpt>
      <trkpt lat="44.61173" lon="5.29381">
        <ele>526</ele>
      </trkpt>
      <trkpt lat="44.61144" lon="5.29397">
        <ele>527</ele>
      </trkpt>
      <trkpt lat="44.61131" lon="5.29397">
        <ele>527</ele>
      </trkpt>
      <trkpt lat="44.61059" lon="5.29369">
        <ele>528</ele>
      </trkpt>
      <trkpt lat="44.61014" lon="5.29341">
        <ele>526</ele>
      </trkpt>
      <trkpt lat="44.60984" lon="5.2933">
        <ele>523</ele>
      </trkpt>
      <trkpt lat="44.6095" lon="5.2933">
        <ele>519</ele>
      </trkpt>
      <trkpt lat="44.6094" lon="5.29327">
        <ele>519</ele>
      </trkpt>
      <trkpt lat="44.60931" lon="5.2932">
        <ele>517</ele>
      </trkpt>
      <trkpt lat="44.60918" lon="5.29305">
        <ele>521</ele>
      </trkpt>
      <trkpt lat="44.60901" lon="5.29269">
        <ele>523</ele>
      </trkpt>
      <trkpt lat="44.60893" lon="5.29257">
        <ele>528</ele>
      </trkpt>
      <trkpt lat="44.60883" lon="5.29252">
        <ele>528</ele>
      </trkpt>
      <trkpt lat="44.60861" lon="5.29245">
        <ele>523</ele>
      </trkpt>
      <trkpt lat="44.60832" lon="5.2923">
        <ele>521</ele>
      </trkpt>
      <trkpt lat="44.60822" lon="5.29219">
        <ele>517</ele>
      </trkpt>
      <trkpt lat="44.60811" lon="5.29199">
        <ele>518</ele>
      </trkpt>
      <trkpt lat="44.60806" lon="5.29186">
        <ele>518</ele>
      </trkpt>
      <trkpt lat="44.60806" lon="5.29173">
        <ele>519</ele>
      </trkpt>
      <trkpt lat="44.6081" lon="5.29155">
        <ele>519</ele>
      </trkpt>
      <trkpt lat="44.60817" lon="5.29137">
        <ele>520</ele>
      </trkpt>
      <trkpt lat="44.60822" lon="5.29115">
        <ele>520</ele>
      </trkpt>
      <trkpt lat="44.60821" lon="5.29102">
        <ele>520</ele>
      </trkpt>
      <trkpt lat="44.60817" lon="5.29091">
        <ele>519</ele>
      </trkpt>
      <trkpt lat="44.6081" lon="5.29082">
        <ele>518</ele>
      </trkpt>
      <trkpt lat="44.60772" lon="5.29059">
        <ele>514</ele>
      </trkpt>
      <trkpt lat="44.60763" lon="5.29052">
        <ele>512</ele>
      </trkpt>
      <trkpt lat="44.60724" lon="5.29029">
        <ele>512</ele>
      </trkpt>
      <trkpt lat="44.60702" lon="5.2901">
        <ele>513</ele>
      </trkpt>
      <trkpt lat="44.60575" lon="5.28838">
        <ele>518</ele>
      </trkpt>
      <trkpt lat="44.60448" lon="5.28751">
        <ele>512</ele>
      </trkpt>
      <trkpt lat="44.60434" lon="5.28753">
        <ele>511</ele>
      </trkpt>
      <trkpt lat="44.60373" lon="5.28773">
        <ele>504</ele>
      </trkpt>
      <trkpt lat="44.60356" lon="5.28775">
        <ele>504</ele>
      </trkpt>
      <trkpt lat="44.60281" lon="5.28747">
        <ele>509</ele>
      </trkpt>
      <trkpt lat="44.60268" lon="5.28739">
        <ele>508</ele>
      </trkpt>
      <trkpt lat="44.60235" lon="5.28708">
        <ele>506</ele>
      </trkpt>
      <trkpt lat="44.60185" lon="5.28682">
        <ele>505</ele>
      </trkpt>
      <trkpt lat="44.6018" lon="5.28672">
        <ele>509</ele>
      </trkpt>
      <trkpt lat="44.60177" lon="5.28654">
        <ele>509</ele>
      </trkpt>
      <trkpt lat="44.60171" lon="5.28557">
        <ele>504</ele>
      </trkpt>
      <trkpt lat="44.60165" lon="5.28539">
        <ele>505</ele>
      </trkpt>
      <trkpt lat="44.60155" lon="5.28522">
        <ele>510</ele>
      </trkpt>
      <trkpt lat="44.60144" lon="5.28513">
        <ele>511</ele>
      </trkpt>
      <trkpt lat="44.60125" lon="5.28508">
        <ele>517</ele>
      </trkpt>
      <trkpt lat="44.60095" lon="5.28506">
        <ele>521</ele>
      </trkpt>
      <trkpt lat="44.60028" lon="5.28517">
        <ele>539</ele>
      </trkpt>
      <trkpt lat="44.60003" lon="5.28509">
        <ele>540</ele>
      </trkpt>
      <trkpt lat="44.59986" lon="5.28496">
        <ele>533</ele>
      </trkpt>
      <trkpt lat="44.59973" lon="5.28474">
        <ele>524</ele>
      </trkpt>
      <trkpt lat="44.59967" lon="5.28458">
        <ele>523</ele>
      </trkpt>
      <trkpt lat="44.59956" lon="5.28449">
        <ele>521</ele>
      </trkpt>
      <trkpt lat="44.59943" lon="5.28445">
        <ele>521</ele>
      </trkpt>
      <trkpt lat="44.59871" lon="5.28473">
        <ele>544</ele>
      </trkpt>
      <trkpt lat="44.59857" lon="5.28485">
        <ele>551</ele>
      </trkpt>
      <trkpt lat="44.59846" lon="5.28499">
        <ele>546</ele>
      </trkpt>
      <trkpt lat="44.59835" lon="5.28523">
        <ele>551</ele>
      </trkpt>
      <trkpt lat="44.59829" lon="5.2853">
        <ele>552</ele>
      </trkpt>
      <trkpt lat="44.5982" lon="5.28532">
        <ele>545</ele>
      </trkpt>
      <trkpt lat="44.59738" lon="5.28502">
        <ele>537</ele>
      </trkpt>
      <trkpt lat="44.59588" lon="5.28394">
        <ele>529</ele>
      </trkpt>
      <trkpt lat="44.59558" lon="5.28362">
        <ele>530</ele>
      </trkpt>
      <trkpt lat="44.59535" lon="5.28326">
        <ele>529</ele>
      </trkpt>
      <trkpt lat="44.59477" lon="5.28178">
        <ele>524</ele>
      </trkpt>
      <trkpt lat="44.5946" lon="5.2814">
        <ele>525</ele>
      </trkpt>
      <trkpt lat="44.59433" lon="5.28107">
        <ele>528</ele>
      </trkpt>
      <trkpt lat="44.59414" lon="5.28078">
        <ele>525</ele>
      </trkpt>
      <trkpt lat="44.59405" lon="5.28043">
        <ele>524</ele>
      </trkpt>
      <trkpt lat="44.594" lon="5.28016">
        <ele>522</ele>
      </trkpt>
      <trkpt lat="44.59391" lon="5.28">
        <ele>523</ele>
      </trkpt>
      <trkpt lat="44.59388" lon="5.27985">
        <ele>525</ele>
      </trkpt>
      <trkpt lat="44.59389" lon="5.27974">
        <ele>529</ele>
      </trkpt>
      <trkpt lat="44.59404" lon="5.27952">
        <ele>539</ele>
      </trkpt>
      <trkpt lat="44.59406" lon="5.27943">
        <ele>548</ele>
      </trkpt>
      <trkpt lat="44.59403" lon="5.27933">
        <ele>542</ele>
      </trkpt>
      <trkpt lat="44.59399" lon="5.27926">
        <ele>542</ele>
      </trkpt>
      <trkpt lat="44.59385" lon="5.27913">
        <ele>548</ele>
      </trkpt>
      <trkpt lat="44.59355" lon="5.27892">
        <ele>548</ele>
      </trkpt>
      <trkpt lat="44.59333" lon="5.2788">
        <ele>542</ele>
      </trkpt>
      <trkpt lat="44.59314" lon="5.27875">
        <ele>535</ele>
      </trkpt>
      <trkpt lat="44.59305" lon="5.27869">
        <ele>535</ele>
      </trkpt>
      <trkpt lat="44.59283" lon="5.27843">
        <ele>536</ele>
      </trkpt>
      <trkpt lat="44.59268" lon="5.27831">
        <ele>542</ele>
      </trkpt>
      <trkpt lat="44.59228" lon="5.27822">
        <ele>534</ele>
      </trkpt>
      <trkpt lat="44.59218" lon="5.27816">
        <ele>535</ele>
      </trkpt>
      <trkpt lat="44.59207" lon="5.27801">
        <ele>535</ele>
      </trkpt>
      <trkpt lat="44.59196" lon="5.27777">
        <ele>536</ele>
      </trkpt>
      <trkpt lat="44.59179" lon="5.27729">
        <ele>536</ele>
      </trkpt>
      <trkpt lat="44.59163" lon="5.27713">
        <ele>536</ele>
      </trkpt>
      <trkpt lat="44.59077" lon="5.27667">
        <ele>538</ele>
      </trkpt>
      <trkpt lat="44.59007" lon="5.27657">
        <ele>534</ele>
      </trkpt>
      <trkpt lat="44.58926" lon="5.27634">
        <ele>538</ele>
      </trkpt>
      <trkpt lat="44.58897" lon="5.27631">
        <ele>538</ele>
      </trkpt>
      <trkpt lat="44.58837" lon="5.27647">
        <ele>536</ele>
      </trkpt>
      <trkpt lat="44.58768" lon="5.27672">
        <ele>540</ele>
      </trkpt>
      <trkpt lat="44.58719" lon="5.27674">
        <ele>543</ele>
      </trkpt>
      <trkpt lat="44.5869" lon="5.27683">
        <ele>538</ele>
      </trkpt>
      <trkpt lat="44.58649" lon="5.27691">
        <ele>543</ele>
      </trkpt>
      <trkpt lat="44.58524" lon="5.27727">
        <ele>545</ele>
      </trkpt>
      <trkpt lat="44.58446" lon="5.27731">
        <ele>547</ele>
      </trkpt>
      <trkpt lat="44.58419" lon="5.27735">
        <ele>547</ele>
      </trkpt>
      <trkpt lat="44.58379" lon="5.27729">
        <ele>554</ele>
      </trkpt>
      <trkpt lat="44.58345" lon="5.27746">
        <ele>548</ele>
      </trkpt>
      <trkpt lat="44.58334" lon="5.2775">
        <ele>547</ele>
      </trkpt>
      <trkpt lat="44.58324" lon="5.27751">
        <ele>547</ele>
      </trkpt>
      <trkpt lat="44.58312" lon="5.2775">
        <ele>547</ele>
      </trkpt>
      <trkpt lat="44.58302" lon="5.27746">
        <ele>548</ele>
      </trkpt>
      <trkpt lat="44.58292" lon="5.27738">
        <ele>547</ele>
      </trkpt>
      <trkpt lat="44.58257" lon="5.277">
        <ele>553</ele>
      </trkpt>
      <trkpt lat="44.58242" lon="5.27687">
        <ele>553</ele>
      </trkpt>
      <trkpt lat="44.58218" lon="5.27671">
        <ele>554</ele>
      </trkpt>
      <trkpt lat="44.58205" lon="5.27664">
        <ele>552</ele>
      </trkpt>
      <trkpt lat="44.58191" lon="5.27663">
        <ele>552</ele>
      </trkpt>
      <trkpt lat="44.58157" lon="5.27664">
        <ele>551</ele>
      </trkpt>
      <trkpt lat="44.58134" lon="5.27668">
        <ele>551</ele>
      </trkpt>
      <trkpt lat="44.58099" lon="5.27681">
        <ele>545</ele>
      </trkpt>
      <trkpt lat="44.58079" lon="5.27686">
        <ele>545</ele>
      </trkpt>
      <trkpt lat="44.58038" lon="5.2769">
        <ele>548</ele>
      </trkpt>
      <trkpt lat="44.5801" lon="5.27689">
        <ele>551</ele>
      </trkpt>
      <trkpt lat="44.57965" lon="5.27677">
        <ele>553</ele>
      </trkpt>
      <trkpt lat="44.57938" lon="5.27678">
        <ele>553</ele>
      </trkpt>
      <trkpt lat="44.57927" lon="5.2768">
        <ele>553</ele>
      </trkpt>
      <trkpt lat="44.57915" lon="5.27685">
        <ele>552</ele>
      </trkpt>
      <trkpt lat="44.57859" lon="5.27715">
        <ele>553</ele>
      </trkpt>
      <trkpt lat="44.5783" lon="5.27722">
        <ele>555</ele>
      </trkpt>
      <trkpt lat="44.57816" lon="5.27722">
        <ele>556</ele>
      </trkpt>
      <trkpt lat="44.57798" lon="5.27718">
        <ele>556</ele>
      </trkpt>
      <trkpt lat="44.57777" lon="5.27705">
        <ele>556</ele>
      </trkpt>
      <trkpt lat="44.57768" lon="5.27697">
        <ele>559</ele>
      </trkpt>
      <trkpt lat="44.57746" lon="5.27667">
        <ele>561</ele>
      </trkpt>
      <trkpt lat="44.57732" lon="5.27645">
        <ele>561</ele>
      </trkpt>
      <trkpt lat="44.577" lon="5.27583">
        <ele>561</ele>
      </trkpt>
      <trkpt lat="44.57695" lon="5.27577">
        <ele>561</ele>
      </trkpt>
      <trkpt lat="44.57688" lon="5.27573">
        <ele>560</ele>
      </trkpt>
      <trkpt lat="44.57663" lon="5.27568">
        <ele>555</ele>
      </trkpt>
      <trkpt lat="44.57646" lon="5.27568">
        <ele>553</ele>
      </trkpt>
      <trkpt lat="44.57622" lon="5.27569">
        <ele>554</ele>
      </trkpt>
      <trkpt lat="44.5756" lon="5.27603">
        <ele>553</ele>
      </trkpt>
      <trkpt lat="44.57507" lon="5.27618">
        <ele>559</ele>
      </trkpt>
      <trkpt lat="44.57478" lon="5.27622">
        <ele>558</ele>
      </trkpt>
      <trkpt lat="44.57378" lon="5.27587">
        <ele>566</ele>
      </trkpt>
      <trkpt lat="44.57353" lon="5.27575">
        <ele>565</ele>
      </trkpt>
      <trkpt lat="44.57312" lon="5.27565">
        <ele>564</ele>
      </trkpt>
      <trkpt lat="44.57249" lon="5.27538">
        <ele>561</ele>
      </trkpt>
      <trkpt lat="44.57222" lon="5.27528">
        <ele>562</ele>
      </trkpt>
      <trkpt lat="44.57093" lon="5.2751">
        <ele>561</ele>
      </trkpt>
      <trkpt lat="44.57045" lon="5.27493">
        <ele>565</ele>
      </trkpt>
      <trkpt lat="44.57042" lon="5.27494">
        <ele>564</ele>
      </trkpt>
      <trkpt lat="44.5704" lon="5.27506">
        <ele>563</ele>
      </trkpt>
      <trkpt lat="44.57035" lon="5.27544">
        <ele>558</ele>
      </trkpt>
      <trkpt lat="44.57026" lon="5.27622">
        <ele>564</ele>
      </trkpt>
      <trkpt lat="44.57008" lon="5.27629">
        <ele>566</ele>
      </trkpt>
      <trkpt lat="44.56991" lon="5.27629">
        <ele>566</ele>
      </trkpt>
      <trkpt lat="44.5698" lon="5.27624">
        <ele>567</ele>
      </trkpt>
      <trkpt lat="44.56964" lon="5.27611">
        <ele>564</ele>
      </trkpt>
      <trkpt lat="44.56955" lon="5.27631">
        <ele>568</ele>
      </trkpt>
      <trkpt lat="44.56946" lon="5.27637">
        <ele>568</ele>
      </trkpt>
      <trkpt lat="44.56932" lon="5.27643">
        <ele>568</ele>
      </trkpt>
      <trkpt lat="44.56931" lon="5.27665">
        <ele>571</ele>
      </trkpt>
      <trkpt lat="44.56929" lon="5.27677">
        <ele>574</ele>
      </trkpt>
      <trkpt lat="44.56876" lon="5.27719">
        <ele>570</ele>
      </trkpt>
      <trkpt lat="44.56871" lon="5.27706">
        <ele>569</ele>
      </trkpt>
      <trkpt lat="44.56832" lon="5.27745">
        <ele>566</ele>
      </trkpt>
      <trkpt lat="44.56814" lon="5.27764">
        <ele>566</ele>
      </trkpt>
      <trkpt lat="44.56705" lon="5.27865">
        <ele>570</ele>
      </trkpt>
      <trkpt lat="44.56681" lon="5.27897">
        <ele>570</ele>
      </trkpt>
      <trkpt lat="44.56672" lon="5.27915">
        <ele>570</ele>
      </trkpt>
      <trkpt lat="44.56668" lon="5.27932">
        <ele>571</ele>
      </trkpt>
      <trkpt lat="44.56666" lon="5.27953">
        <ele>572</ele>
      </trkpt>
      <trkpt lat="44.56662" lon="5.27971">
        <ele>572</ele>
      </trkpt>
      <trkpt lat="44.56637" lon="5.28057">
        <ele>573</ele>
      </trkpt>
      <trkpt lat="44.56628" lon="5.28079">
        <ele>573</ele>
      </trkpt>
      <trkpt lat="44.56579" lon="5.28158">
        <ele>574</ele>
      </trkpt>
      <trkpt lat="44.56566" lon="5.28176">
        <ele>573</ele>
      </trkpt>
      <trkpt lat="44.56552" lon="5.2819">
        <ele>573</ele>
      </trkpt>
      <trkpt lat="44.56512" lon="5.28201">
        <ele>577</ele>
      </trkpt>
      <trkpt lat="44.56478" lon="5.28223">
        <ele>578</ele>
      </trkpt>
      <trkpt lat="44.56467" lon="5.28228">
        <ele>578</ele>
      </trkpt>
      <trkpt lat="44.56416" lon="5.28232">
        <ele>580</ele>
      </trkpt>
      <trkpt lat="44.5637" lon="5.28227">
        <ele>584</ele>
      </trkpt>
      <trkpt lat="44.56315" lon="5.28248">
        <ele>585</ele>
      </trkpt>
      <trkpt lat="44.56216" lon="5.28263">
        <ele>584</ele>
      </trkpt>
      <trkpt lat="44.56202" lon="5.28268">
        <ele>586</ele>
      </trkpt>
      <trkpt lat="44.56186" lon="5.28281">
        <ele>586</ele>
      </trkpt>
      <trkpt lat="44.5614" lon="5.28323">
        <ele>585</ele>
      </trkpt>
      <trkpt lat="44.56101" lon="5.2837">
        <ele>584</ele>
      </trkpt>
      <trkpt lat="44.56077" lon="5.28405">
        <ele>584</ele>
      </trkpt>
      <trkpt lat="44.56052" lon="5.28452">
        <ele>585</ele>
      </trkpt>
      <trkpt lat="44.5604" lon="5.28465">
        <ele>585</ele>
      </trkpt>
      <trkpt lat="44.56018" lon="5.28477">
        <ele>585</ele>
      </trkpt>
      <trkpt lat="44.55979" lon="5.28486">
        <ele>584</ele>
      </trkpt>
      <trkpt lat="44.5596" lon="5.28494">
        <ele>584</ele>
      </trkpt>
      <trkpt lat="44.55946" lon="5.28506">
        <ele>585</ele>
      </trkpt>
      <trkpt lat="44.55933" lon="5.2851">
        <ele>583</ele>
      </trkpt>
      <trkpt lat="44.55854" lon="5.28506">
        <ele>592</ele>
      </trkpt>
      <trkpt lat="44.55836" lon="5.28497">
        <ele>594</ele>
      </trkpt>
      <trkpt lat="44.55814" lon="5.28483">
        <ele>594</ele>
      </trkpt>
      <trkpt lat="44.5578" lon="5.28451">
        <ele>602</ele>
      </trkpt>
      <trkpt lat="44.55705" lon="5.28415">
        <ele>596</ele>
      </trkpt>
      <trkpt lat="44.5569" lon="5.28404">
        <ele>597</ele>
      </trkpt>
      <trkpt lat="44.55644" lon="5.28365">
        <ele>603</ele>
      </trkpt>
      <trkpt lat="44.55574" lon="5.283">
        <ele>606</ele>
      </trkpt>
      <trkpt lat="44.55506" lon="5.28245">
        <ele>602</ele>
      </trkpt>
      <trkpt lat="44.55467" lon="5.28209">
        <ele>605</ele>
      </trkpt>
      <trkpt lat="44.55445" lon="5.28198">
        <ele>603</ele>
      </trkpt>
      <trkpt lat="44.55422" lon="5.28199">
        <ele>598</ele>
      </trkpt>
      <trkpt lat="44.55401" lon="5.28205">
        <ele>595</ele>
      </trkpt>
      <trkpt lat="44.55302" lon="5.2826">
        <ele>594</ele>
      </trkpt>
      <trkpt lat="44.55282" lon="5.28266">
        <ele>595</ele>
      </trkpt>
      <trkpt lat="44.55209" lon="5.28286">
        <ele>601</ele>
      </trkpt>
      <trkpt lat="44.55168" lon="5.28293">
        <ele>603</ele>
      </trkpt>
      <trkpt lat="44.55113" lon="5.28293">
        <ele>605</ele>
      </trkpt>
      <trkpt lat="44.55094" lon="5.28297">
        <ele>607</ele>
      </trkpt>
      <trkpt lat="44.55057" lon="5.28312">
        <ele>607</ele>
      </trkpt>
      <trkpt lat="44.55044" lon="5.28315">
        <ele>604</ele>
      </trkpt>
      <trkpt lat="44.54979" lon="5.28301">
        <ele>613</ele>
      </trkpt>
      <trkpt lat="44.54947" lon="5.28301">
        <ele>613</ele>
      </trkpt>
      <trkpt lat="44.5489" lon="5.28293">
        <ele>615</ele>
      </trkpt>
      <trkpt lat="44.54774" lon="5.28286">
        <ele>612</ele>
      </trkpt>
      <trkpt lat="44.54731" lon="5.28287">
        <ele>613</ele>
      </trkpt>
      <trkpt lat="44.54713" lon="5.2829">
        <ele>613</ele>
      </trkpt>
      <trkpt lat="44.54669" lon="5.28307">
        <ele>614</ele>
      </trkpt>
      <trkpt lat="44.54652" lon="5.2831">
        <ele>616</ele>
      </trkpt>
      <trkpt lat="44.54639" lon="5.28309">
        <ele>617</ele>
      </trkpt>
      <trkpt lat="44.54615" lon="5.28301">
        <ele>621</ele>
      </trkpt>
      <trkpt lat="44.54597" lon="5.28299">
        <ele>621</ele>
      </trkpt>
      <trkpt lat="44.54579" lon="5.283">
        <ele>620</ele>
      </trkpt>
      <trkpt lat="44.54526" lon="5.28311">
        <ele>618</ele>
      </trkpt>
      <trkpt lat="44.54515" lon="5.28311">
        <ele>619</ele>
      </trkpt>
      <trkpt lat="44.54433" lon="5.28301">
        <ele>622</ele>
      </trkpt>
      <trkpt lat="44.54404" lon="5.28302">
        <ele>620</ele>
      </trkpt>
      <trkpt lat="44.54383" lon="5.28314">
        <ele>614</ele>
      </trkpt>
      <trkpt lat="44.54345" lon="5.28312">
        <ele>618</ele>
      </trkpt>
      <trkpt lat="44.54326" lon="5.28315">
        <ele>614</ele>
      </trkpt>
      <trkpt lat="44.54313" lon="5.28321">
        <ele>614</ele>
      </trkpt>
      <trkpt lat="44.54299" lon="5.2833">
        <ele>614</ele>
      </trkpt>
      <trkpt lat="44.54273" lon="5.28354">
        <ele>611</ele>
      </trkpt>
      <trkpt lat="44.54258" lon="5.2836">
        <ele>614</ele>
      </trkpt>
      <trkpt lat="44.54243" lon="5.28362">
        <ele>614</ele>
      </trkpt>
      <trkpt lat="44.54227" lon="5.28359">
        <ele>617</ele>
      </trkpt>
      <trkpt lat="44.54214" lon="5.28352">
        <ele>617</ele>
      </trkpt>
      <trkpt lat="44.54122" lon="5.283">
        <ele>626</ele>
      </trkpt>
      <trkpt lat="44.54108" lon="5.28293">
        <ele>626</ele>
      </trkpt>
      <trkpt lat="44.54095" lon="5.28292">
        <ele>624</ele>
      </trkpt>
      <trkpt lat="44.54064" lon="5.28293">
        <ele>621</ele>
      </trkpt>
      <trkpt lat="44.54052" lon="5.28291">
        <ele>621</ele>
      </trkpt>
      <trkpt lat="44.54041" lon="5.28283">
        <ele>621</ele>
      </trkpt>
      <trkpt lat="44.54022" lon="5.28261">
        <ele>622</ele>
      </trkpt>
      <trkpt lat="44.53994" lon="5.28241">
        <ele>624</ele>
      </trkpt>
      <trkpt lat="44.53966" lon="5.2823">
        <ele>630</ele>
      </trkpt>
      <trkpt lat="44.53953" lon="5.28228">
        <ele>631</ele>
      </trkpt>
      <trkpt lat="44.539" lon="5.28239">
        <ele>626</ele>
      </trkpt>
      <trkpt lat="44.53877" lon="5.28241">
        <ele>626</ele>
      </trkpt>
      <trkpt lat="44.53817" lon="5.28243">
        <ele>627</ele>
      </trkpt>
      <trkpt lat="44.53776" lon="5.28241">
        <ele>629</ele>
      </trkpt>
      <trkpt lat="44.53745" lon="5.28237">
        <ele>629</ele>
      </trkpt>
      <trkpt lat="44.53718" lon="5.28231">
        <ele>629</ele>
      </trkpt>
      <trkpt lat="44.537" lon="5.28224">
        <ele>635</ele>
      </trkpt>
      <trkpt lat="44.53648" lon="5.28196">
        <ele>639</ele>
      </trkpt>
      <trkpt lat="44.5362" lon="5.28187">
        <ele>633</ele>
      </trkpt>
      <trkpt lat="44.53584" lon="5.28181">
        <ele>628</ele>
      </trkpt>
      <trkpt lat="44.53533" lon="5.28187">
        <ele>627</ele>
      </trkpt>
      <trkpt lat="44.53498" lon="5.28195">
        <ele>630</ele>
      </trkpt>
      <trkpt lat="44.53481" lon="5.2819">
        <ele>631</ele>
      </trkpt>
      <trkpt lat="44.53466" lon="5.2818">
        <ele>631</ele>
      </trkpt>
      <trkpt lat="44.53449" lon="5.28162">
        <ele>635</ele>
      </trkpt>
      <trkpt lat="44.53436" lon="5.28142">
        <ele>641</ele>
      </trkpt>
      <trkpt lat="44.53409" lon="5.2809">
        <ele>644</ele>
      </trkpt>
      <trkpt lat="44.53401" lon="5.28062">
        <ele>641</ele>
      </trkpt>
      <trkpt lat="44.53388" lon="5.28042">
        <ele>640</ele>
      </trkpt>
      <trkpt lat="44.53372" lon="5.28028">
        <ele>642</ele>
      </trkpt>
      <trkpt lat="44.53358" lon="5.28023">
        <ele>642</ele>
      </trkpt>
      <trkpt lat="44.53321" lon="5.28019">
        <ele>641</ele>
      </trkpt>
      <trkpt lat="44.53295" lon="5.28021">
        <ele>638</ele>
      </trkpt>
      <trkpt lat="44.53257" lon="5.28026">
        <ele>637</ele>
      </trkpt>
      <trkpt lat="44.53219" lon="5.28038">
        <ele>635</ele>
      </trkpt>
      <trkpt lat="44.53207" lon="5.2804">
        <ele>636</ele>
      </trkpt>
      <trkpt lat="44.53176" lon="5.28023">
        <ele>640</ele>
      </trkpt>
      <trkpt lat="44.53117" lon="5.27999">
        <ele>643</ele>
      </trkpt>
      <trkpt lat="44.53049" lon="5.27975">
        <ele>644</ele>
      </trkpt>
      <trkpt lat="44.53038" lon="5.27975">
        <ele>642</ele>
      </trkpt>
      <trkpt lat="44.53019" lon="5.27988">
        <ele>638</ele>
      </trkpt>
      <trkpt lat="44.53006" lon="5.27989">
        <ele>639</ele>
      </trkpt>
      <trkpt lat="44.52993" lon="5.27985">
        <ele>639</ele>
      </trkpt>
      <trkpt lat="44.52983" lon="5.27975">
        <ele>641</ele>
      </trkpt>
      <trkpt lat="44.52973" lon="5.27957">
        <ele>641</ele>
      </trkpt>
      <trkpt lat="44.52958" lon="5.27913">
        <ele>645</ele>
      </trkpt>
      <trkpt lat="44.52949" lon="5.27902">
        <ele>646</ele>
      </trkpt>
      <trkpt lat="44.52939" lon="5.27892">
        <ele>650</ele>
      </trkpt>
      <trkpt lat="44.52906" lon="5.27875">
        <ele>648</ele>
      </trkpt>
      <trkpt lat="44.52875" lon="5.27852">
        <ele>646</ele>
      </trkpt>
      <trkpt lat="44.52847" lon="5.27822">
        <ele>646</ele>
      </trkpt>
      <trkpt lat="44.52822" lon="5.27787">
        <ele>651</ele>
      </trkpt>
      <trkpt lat="44.52794" lon="5.27731">
        <ele>662</ele>
      </trkpt>
      <trkpt lat="44.52761" lon="5.27655">
        <ele>658</ele>
      </trkpt>
      <trkpt lat="44.52742" lon="5.27626">
        <ele>662</ele>
      </trkpt>
      <trkpt lat="44.5272" lon="5.27596">
        <ele>656</ele>
      </trkpt>
      <trkpt lat="44.52667" lon="5.27539">
        <ele>652</ele>
      </trkpt>
      <trkpt lat="44.5266" lon="5.27529">
        <ele>655</ele>
      </trkpt>
      <trkpt lat="44.52635" lon="5.27464">
        <ele>658</ele>
      </trkpt>
      <trkpt lat="44.52614" lon="5.27434">
        <ele>656</ele>
      </trkpt>
      <trkpt lat="44.52582" lon="5.27426">
        <ele>652</ele>
      </trkpt>
      <trkpt lat="44.52559" lon="5.27411">
        <ele>653</ele>
      </trkpt>
      <trkpt lat="44.52548" lon="5.27398">
        <ele>654</ele>
      </trkpt>
      <trkpt lat="44.525" lon="5.27317">
        <ele>656</ele>
      </trkpt>
      <trkpt lat="44.52497" lon="5.27299">
        <ele>658</ele>
      </trkpt>
      <trkpt lat="44.52501" lon="5.27257">
        <ele>661</ele>
      </trkpt>
      <trkpt lat="44.525" lon="5.27231">
        <ele>662</ele>
      </trkpt>
      <trkpt lat="44.52493" lon="5.27208">
        <ele>665</ele>
      </trkpt>
      <trkpt lat="44.52486" lon="5.27192">
        <ele>664</ele>
      </trkpt>
      <trkpt lat="44.52474" lon="5.27177">
        <ele>664</ele>
      </trkpt>
      <trkpt lat="44.52402" lon="5.27126">
        <ele>658</ele>
      </trkpt>
      <trkpt lat="44.52393" lon="5.27112">
        <ele>660</ele>
      </trkpt>
      <trkpt lat="44.52389" lon="5.27093">
        <ele>661</ele>
      </trkpt>
      <trkpt lat="44.52385" lon="5.27059">
        <ele>666</ele>
      </trkpt>
      <trkpt lat="44.5238" lon="5.27037">
        <ele>666</ele>
      </trkpt>
      <trkpt lat="44.52371" lon="5.27018">
        <ele>665</ele>
      </trkpt>
      <trkpt lat="44.52349" lon="5.26985">
        <ele>668</ele>
      </trkpt>
      <trkpt lat="44.52341" lon="5.26961">
        <ele>667</ele>
      </trkpt>
      <trkpt lat="44.52341" lon="5.26921">
        <ele>674</ele>
      </trkpt>
      <trkpt lat="44.52345" lon="5.26878">
        <ele>678</ele>
      </trkpt>
      <trkpt lat="44.52342" lon="5.26852">
        <ele>680</ele>
      </trkpt>
      <trkpt lat="44.52333" lon="5.26828">
        <ele>680</ele>
      </trkpt>
      <trkpt lat="44.52313" lon="5.26797">
        <ele>676</ele>
      </trkpt>
      <trkpt lat="44.52294" lon="5.26773">
        <ele>680</ele>
      </trkpt>
      <trkpt lat="44.52277" lon="5.26745">
        <ele>682</ele>
      </trkpt>
      <trkpt lat="44.52266" lon="5.26717">
        <ele>685</ele>
      </trkpt>
      <trkpt lat="44.52251" lon="5.26676">
        <ele>682</ele>
      </trkpt>
      <trkpt lat="44.52236" lon="5.26647">
        <ele>680</ele>
      </trkpt>
      <trkpt lat="44.52219" lon="5.26627">
        <ele>683</ele>
      </trkpt>
      <trkpt lat="44.52195" lon="5.26608">
        <ele>682</ele>
      </trkpt>
      <trkpt lat="44.52144" lon="5.26584">
        <ele>676</ele>
      </trkpt>
      <trkpt lat="44.52115" lon="5.26581">
        <ele>673</ele>
      </trkpt>
      <trkpt lat="44.52098" lon="5.26576">
        <ele>674</ele>
      </trkpt>
      <trkpt lat="44.52075" lon="5.26564">
        <ele>674</ele>
      </trkpt>
      <trkpt lat="44.52064" lon="5.26555">
        <ele>674</ele>
      </trkpt>
      <trkpt lat="44.52054" lon="5.2654">
        <ele>675</ele>
      </trkpt>
      <trkpt lat="44.5205" lon="5.26521">
        <ele>677</ele>
      </trkpt>
      <trkpt lat="44.52047" lon="5.26496">
        <ele>682</ele>
      </trkpt>
      <trkpt lat="44.52046" lon="5.26449">
        <ele>690</ele>
      </trkpt>
      <trkpt lat="44.52044" lon="5.26425">
        <ele>691</ele>
      </trkpt>
      <trkpt lat="44.52039" lon="5.26411">
        <ele>689</ele>
      </trkpt>
      <trkpt lat="44.52032" lon="5.26397">
        <ele>689</ele>
      </trkpt>
      <trkpt lat="44.52022" lon="5.26385">
        <ele>692</ele>
      </trkpt>
      <trkpt lat="44.5201" lon="5.26378">
        <ele>687</ele>
      </trkpt>
      <trkpt lat="44.51986" lon="5.26368">
        <ele>686</ele>
      </trkpt>
      <trkpt lat="44.51938" lon="5.26341">
        <ele>684</ele>
      </trkpt>
      <trkpt lat="44.51927" lon="5.26331">
        <ele>686</ele>
      </trkpt>
      <trkpt lat="44.51884" lon="5.26269">
        <ele>692</ele>
      </trkpt>
      <trkpt lat="44.51856" lon="5.26237">
        <ele>693</ele>
      </trkpt>
      <trkpt lat="44.51823" lon="5.26206">
        <ele>691</ele>
      </trkpt>
      <trkpt lat="44.51814" lon="5.2619">
        <ele>690</ele>
      </trkpt>
      <trkpt lat="44.51809" lon="5.26177">
        <ele>691</ele>
      </trkpt>
      <trkpt lat="44.51804" lon="5.26108">
        <ele>706</ele>
      </trkpt>
      <trkpt lat="44.51794" lon="5.26073">
        <ele>712</ele>
      </trkpt>
      <trkpt lat="44.51767" lon="5.25995">
        <ele>712</ele>
      </trkpt>
      <trkpt lat="44.51763" lon="5.25972">
        <ele>707</ele>
      </trkpt>
      <trkpt lat="44.51755" lon="5.25912">
        <ele>709</ele>
      </trkpt>
      <trkpt lat="44.51744" lon="5.25878">
        <ele>709</ele>
      </trkpt>
      <trkpt lat="44.51715" lon="5.25826">
        <ele>707</ele>
      </trkpt>
      <trkpt lat="44.51705" lon="5.258">
        <ele>707</ele>
      </trkpt>
      <trkpt lat="44.51701" lon="5.25781">
        <ele>711</ele>
      </trkpt>
      <trkpt lat="44.517" lon="5.25763">
        <ele>712</ele>
      </trkpt>
      <trkpt lat="44.51699" lon="5.25721">
        <ele>719</ele>
      </trkpt>
      <trkpt lat="44.51691" lon="5.25668">
        <ele>726</ele>
      </trkpt>
      <trkpt lat="44.51686" lon="5.25647">
        <ele>727</ele>
      </trkpt>
      <trkpt lat="44.51677" lon="5.25631">
        <ele>723</ele>
      </trkpt>
      <trkpt lat="44.5165" lon="5.25594">
        <ele>719</ele>
      </trkpt>
      <trkpt lat="44.51637" lon="5.25574">
        <ele>722</ele>
      </trkpt>
      <trkpt lat="44.51635" lon="5.25557">
        <ele>724</ele>
      </trkpt>
      <trkpt lat="44.51636" lon="5.25536">
        <ele>725</ele>
      </trkpt>
      <trkpt lat="44.51642" lon="5.25511">
        <ele>727</ele>
      </trkpt>
      <trkpt lat="44.51652" lon="5.25482">
        <ele>728</ele>
      </trkpt>
      <trkpt lat="44.51662" lon="5.25448">
        <ele>731</ele>
      </trkpt>
      <trkpt lat="44.51667" lon="5.25432">
        <ele>731</ele>
      </trkpt>
      <trkpt lat="44.5169" lon="5.25397">
        <ele>738</ele>
      </trkpt>
      <trkpt lat="44.51706" lon="5.25379">
        <ele>737</ele>
      </trkpt>
      <trkpt lat="44.5172" lon="5.25349">
        <ele>742</ele>
      </trkpt>
      <trkpt lat="44.51725" lon="5.25327">
        <ele>739</ele>
      </trkpt>
      <trkpt lat="44.51728" lon="5.25285">
        <ele>736</ele>
      </trkpt>
      <trkpt lat="44.51731" lon="5.25275">
        <ele>734</ele>
      </trkpt>
      <trkpt lat="44.51747" lon="5.2525">
        <ele>736</ele>
      </trkpt>
      <trkpt lat="44.51752" lon="5.25236">
        <ele>736</ele>
      </trkpt>
      <trkpt lat="44.51758" lon="5.25198">
        <ele>732</ele>
      </trkpt>
      <trkpt lat="44.5176" lon="5.25188">
        <ele>732</ele>
      </trkpt>
      <trkpt lat="44.51766" lon="5.25181">
        <ele>735</ele>
      </trkpt>
      <trkpt lat="44.51809" lon="5.25155">
        <ele>738</ele>
      </trkpt>
      <trkpt lat="44.51845" lon="5.25136">
        <ele>739</ele>
      </trkpt>
      <trkpt lat="44.5188" lon="5.25128">
        <ele>745</ele>
      </trkpt>
      <trkpt lat="44.51885" lon="5.2512">
        <ele>746</ele>
      </trkpt>
      <trkpt lat="44.51886" lon="5.25111">
        <ele>746</ele>
      </trkpt>
      <trkpt lat="44.51876" lon="5.25075">
        <ele>746</ele>
      </trkpt>
      <trkpt lat="44.51875" lon="5.2506">
        <ele>742</ele>
      </trkpt>
      <trkpt lat="44.51877" lon="5.25044">
        <ele>747</ele>
      </trkpt>
      <trkpt lat="44.51887" lon="5.25013">
        <ele>751</ele>
      </trkpt>
      <trkpt lat="44.51889" lon="5.24998">
        <ele>752</ele>
      </trkpt>
      <trkpt lat="44.51891" lon="5.24959">
        <ele>751</ele>
      </trkpt>
      <trkpt lat="44.51895" lon="5.24938">
        <ele>750</ele>
      </trkpt>
      <trkpt lat="44.51919" lon="5.24867">
        <ele>756</ele>
      </trkpt>
      <trkpt lat="44.51934" lon="5.24841">
        <ele>762</ele>
      </trkpt>
      <trkpt lat="44.51957" lon="5.24816">
        <ele>760</ele>
      </trkpt>
      <trkpt lat="44.51986" lon="5.24794">
        <ele>765</ele>
      </trkpt>
      <trkpt lat="44.52033" lon="5.24738">
        <ele>767</ele>
      </trkpt>
      <trkpt lat="44.52037" lon="5.2473">
        <ele>766</ele>
      </trkpt>
      <trkpt lat="44.52037" lon="5.24723">
        <ele>762</ele>
      </trkpt>
      <trkpt lat="44.52031" lon="5.24706">
        <ele>759</ele>
      </trkpt>
      <trkpt lat="44.52022" lon="5.24695">
        <ele>756</ele>
      </trkpt>
      <trkpt lat="44.52014" lon="5.24693">
        <ele>755</ele>
      </trkpt>
      <trkpt lat="44.51986" lon="5.247">
        <ele>753</ele>
      </trkpt>
      <trkpt lat="44.51946" lon="5.24696">
        <ele>753</ele>
      </trkpt>
      <trkpt lat="44.51935" lon="5.24699">
        <ele>753</ele>
      </trkpt>
      <trkpt lat="44.51903" lon="5.24717">
        <ele>750</ele>
      </trkpt>
      <trkpt lat="44.51881" lon="5.24724">
        <ele>750</ele>
      </trkpt>
      <trkpt lat="44.51863" lon="5.24726">
        <ele>751</ele>
      </trkpt>
      <trkpt lat="44.51854" lon="5.24724">
        <ele>751</ele>
      </trkpt>
      <trkpt lat="44.51829" lon="5.24708">
        <ele>753</ele>
      </trkpt>
      <trkpt lat="44.51815" lon="5.24705">
        <ele>755</ele>
      </trkpt>
      <trkpt lat="44.5181" lon="5.24706">
        <ele>755</ele>
      </trkpt>
      <trkpt lat="44.51785" lon="5.24737">
        <ele>755</ele>
      </trkpt>
      <trkpt lat="44.51773" lon="5.24744">
        <ele>755</ele>
      </trkpt>
      <trkpt lat="44.51757" lon="5.24751">
        <ele>756</ele>
      </trkpt>
      <trkpt lat="44.5175" lon="5.24752">
        <ele>756</ele>
      </trkpt>
      <trkpt lat="44.51742" lon="5.2475">
        <ele>756</ele>
      </trkpt>
      <trkpt lat="44.51713" lon="5.24735">
        <ele>757</ele>
      </trkpt>
      <trkpt lat="44.51706" lon="5.24733">
        <ele>759</ele>
      </trkpt>
      <trkpt lat="44.51672" lon="5.24741">
        <ele>760</ele>
      </trkpt>
      <trkpt lat="44.51652" lon="5.24744">
        <ele>761</ele>
      </trkpt>
      <trkpt lat="44.51638" lon="5.24745">
        <ele>761</ele>
      </trkpt>
      <trkpt lat="44.51606" lon="5.24741">
        <ele>763</ele>
      </trkpt>
      <trkpt lat="44.51595" lon="5.24742">
        <ele>765</ele>
      </trkpt>
      <trkpt lat="44.51568" lon="5.24749">
        <ele>767</ele>
      </trkpt>
      <trkpt lat="44.51561" lon="5.24747">
        <ele>767</ele>
      </trkpt>
      <trkpt lat="44.51551" lon="5.24742">
        <ele>768</ele>
      </trkpt>
      <trkpt lat="44.51542" lon="5.24732">
        <ele>769</ele>
      </trkpt>
      <trkpt lat="44.51517" lon="5.24693">
        <ele>776</ele>
      </trkpt>
      <trkpt lat="44.5151" lon="5.24686">
        <ele>776</ele>
      </trkpt>
      <trkpt lat="44.51491" lon="5.24672">
        <ele>780</ele>
      </trkpt>
      <trkpt lat="44.51462" lon="5.2466">
        <ele>780</ele>
      </trkpt>
      <trkpt lat="44.51441" lon="5.24646">
        <ele>780</ele>
      </trkpt>
      <trkpt lat="44.51425" lon="5.24623">
        <ele>782</ele>
      </trkpt>
      <trkpt lat="44.51403" lon="5.24569">
        <ele>788</ele>
      </trkpt>
      <trkpt lat="44.51386" lon="5.24534">
        <ele>795</ele>
      </trkpt>
      <trkpt lat="44.5138" lon="5.24527">
        <ele>795</ele>
      </trkpt>
      <trkpt lat="44.51372" lon="5.2452">
        <ele>792</ele>
      </trkpt>
      <trkpt lat="44.51361" lon="5.24516">
        <ele>791</ele>
      </trkpt>
      <trkpt lat="44.51349" lon="5.24514">
        <ele>791</ele>
      </trkpt>
      <trkpt lat="44.51333" lon="5.24504">
        <ele>792</ele>
      </trkpt>
      <trkpt lat="44.51326" lon="5.24494">
        <ele>792</ele>
      </trkpt>
      <trkpt lat="44.51319" lon="5.24481">
        <ele>791</ele>
      </trkpt>
      <trkpt lat="44.51312" lon="5.2447">
        <ele>794</ele>
      </trkpt>
      <trkpt lat="44.51254" lon="5.24426">
        <ele>792</ele>
      </trkpt>
      <trkpt lat="44.51237" lon="5.24406">
        <ele>798</ele>
      </trkpt>
      <trkpt lat="44.51229" lon="5.244">
        <ele>795</ele>
      </trkpt>
      <trkpt lat="44.51165" lon="5.24358">
        <ele>803</ele>
      </trkpt>
      <trkpt lat="44.51151" lon="5.24352">
        <ele>801</ele>
      </trkpt>
      <trkpt lat="44.51139" lon="5.24349">
        <ele>800</ele>
      </trkpt>
      <trkpt lat="44.51135" lon="5.24344">
        <ele>801</ele>
      </trkpt>
      <trkpt lat="44.51129" lon="5.24352">
        <ele>800</ele>
      </trkpt>
      <trkpt lat="44.5112" lon="5.24371">
        <ele>796</ele>
      </trkpt>
      <trkpt lat="44.51115" lon="5.24388">
        <ele>796</ele>
      </trkpt>
      <trkpt lat="44.5111" lon="5.24444">
        <ele>791</ele>
      </trkpt>
      <trkpt lat="44.5111" lon="5.24456">
        <ele>790</ele>
      </trkpt>
      <trkpt lat="44.51116" lon="5.24482">
        <ele>789</ele>
      </trkpt>
      <trkpt lat="44.51116" lon="5.2449">
        <ele>789</ele>
      </trkpt>
      <trkpt lat="44.51114" lon="5.24495">
        <ele>789</ele>
      </trkpt>
      <trkpt lat="44.51111" lon="5.24501">
        <ele>789</ele>
      </trkpt>
      <trkpt lat="44.51106" lon="5.24505">
        <ele>790</ele>
      </trkpt>
      <trkpt lat="44.511" lon="5.24505">
        <ele>791</ele>
      </trkpt>
      <trkpt lat="44.51069" lon="5.24499">
        <ele>802</ele>
      </trkpt>
      <trkpt lat="44.51046" lon="5.24497">
        <ele>804</ele>
      </trkpt>
      <trkpt lat="44.51026" lon="5.24501">
        <ele>809</ele>
      </trkpt>
      <trkpt lat="44.51011" lon="5.24512">
        <ele>810</ele>
      </trkpt>
      <trkpt lat="44.50995" lon="5.24539">
        <ele>804</ele>
      </trkpt>
      <trkpt lat="44.50987" lon="5.24549">
        <ele>804</ele>
      </trkpt>
      <trkpt lat="44.50964" lon="5.24567">
        <ele>804</ele>
      </trkpt>
      <trkpt lat="44.50959" lon="5.24576">
        <ele>804</ele>
      </trkpt>
      <trkpt lat="44.5094" lon="5.24614">
        <ele>804</ele>
      </trkpt>
      <trkpt lat="44.50917" lon="5.24641">
        <ele>810</ele>
      </trkpt>
      <trkpt lat="44.50911" lon="5.24657">
        <ele>805</ele>
      </trkpt>
      <trkpt lat="44.50907" lon="5.24683">
        <ele>802</ele>
      </trkpt>
      <trkpt lat="44.50896" lon="5.24713">
        <ele>810</ele>
      </trkpt>
      <trkpt lat="44.50877" lon="5.24759">
        <ele>806</ele>
      </trkpt>
      <trkpt lat="44.50869" lon="5.24772">
        <ele>815</ele>
      </trkpt>
      <trkpt lat="44.5086" lon="5.24783">
        <ele>815</ele>
      </trkpt>
      <trkpt lat="44.50832" lon="5.248">
        <ele>821</ele>
      </trkpt>
      <trkpt lat="44.50827" lon="5.24805">
        <ele>820</ele>
      </trkpt>
      <trkpt lat="44.50809" lon="5.24832">
        <ele>819</ele>
      </trkpt>
      <trkpt lat="44.508" lon="5.24852">
        <ele>815</ele>
      </trkpt>
      <trkpt lat="44.50788" lon="5.24871">
        <ele>822</ele>
      </trkpt>
      <trkpt lat="44.50781" lon="5.24838">
        <ele>824</ele>
      </trkpt>
      <trkpt lat="44.50779" lon="5.24814">
        <ele>826</ele>
      </trkpt>
      <trkpt lat="44.50772" lon="5.24729">
        <ele>835</ele>
      </trkpt>
      <trkpt lat="44.5077" lon="5.24648">
        <ele>837</ele>
      </trkpt>
      <trkpt lat="44.50772" lon="5.24575">
        <ele>834</ele>
      </trkpt>
      <trkpt lat="44.50775" lon="5.24499">
        <ele>832</ele>
      </trkpt>
      <trkpt lat="44.50779" lon="5.24464">
        <ele>832</ele>
      </trkpt>
      <trkpt lat="44.50793" lon="5.24376">
        <ele>835</ele>
      </trkpt>
      <trkpt lat="44.50796" lon="5.24296">
        <ele>829</ele>
      </trkpt>
      <trkpt lat="44.50803" lon="5.24261">
        <ele>828</ele>
      </trkpt>
      <trkpt lat="44.50806" lon="5.24229">
        <ele>826</ele>
      </trkpt>
      <trkpt lat="44.50803" lon="5.24159">
        <ele>818</ele>
      </trkpt>
      <trkpt lat="44.50803" lon="5.24139">
        <ele>813</ele>
      </trkpt>
      <trkpt lat="44.50806" lon="5.24124">
        <ele>812</ele>
      </trkpt>
      <trkpt lat="44.50811" lon="5.2411">
        <ele>808</ele>
      </trkpt>
      <trkpt lat="44.50816" lon="5.24091">
        <ele>806</ele>
      </trkpt>
      <trkpt lat="44.50815" lon="5.24085">
        <ele>802</ele>
      </trkpt>
      <trkpt lat="44.50811" lon="5.24078">
        <ele>801</ele>
      </trkpt>
      <trkpt lat="44.50807" lon="5.24077">
        <ele>801</ele>
      </trkpt>
      <trkpt lat="44.50802" lon="5.24079">
        <ele>800</ele>
      </trkpt>
      <trkpt lat="44.508" lon="5.24085">
        <ele>800</ele>
      </trkpt>
      <trkpt lat="44.50791" lon="5.24162">
        <ele>804</ele>
      </trkpt>
      <trkpt lat="44.50788" lon="5.24217">
        <ele>808</ele>
      </trkpt>
      <trkpt lat="44.50772" lon="5.24272">
        <ele>808</ele>
      </trkpt>
      <trkpt lat="44.50758" lon="5.24337">
        <ele>801</ele>
      </trkpt>
      <trkpt lat="44.50752" lon="5.24352">
        <ele>801</ele>
      </trkpt>
      <trkpt lat="44.50744" lon="5.24353">
        <ele>801</ele>
      </trkpt>
      <trkpt lat="44.5074" lon="5.24349">
        <ele>800</ele>
      </trkpt>
      <trkpt lat="44.50738" lon="5.2434">
        <ele>798</ele>
      </trkpt>
      <trkpt lat="44.50739" lon="5.24328">
        <ele>798</ele>
      </trkpt>
      <trkpt lat="44.50742" lon="5.24319">
        <ele>798</ele>
      </trkpt>
      <trkpt lat="44.50752" lon="5.24271">
        <ele>793</ele>
      </trkpt>
      <trkpt lat="44.50763" lon="5.24195">
        <ele>789</ele>
      </trkpt>
      <trkpt lat="44.50764" lon="5.24179">
        <ele>788</ele>
      </trkpt>
      <trkpt lat="44.50755" lon="5.24028">
        <ele>770</ele>
      </trkpt>
      <trkpt lat="44.50757" lon="5.24017">
        <ele>770</ele>
      </trkpt>
      <trkpt lat="44.50762" lon="5.24003">
        <ele>768</ele>
      </trkpt>
      <trkpt lat="44.50782" lon="5.23968">
        <ele>774</ele>
      </trkpt>
      <trkpt lat="44.50788" lon="5.23945">
        <ele>775</ele>
      </trkpt>
      <trkpt lat="44.50789" lon="5.23931">
        <ele>775</ele>
      </trkpt>
      <trkpt lat="44.50781" lon="5.23864">
        <ele>765</ele>
      </trkpt>
      <trkpt lat="44.50781" lon="5.23853">
        <ele>765</ele>
      </trkpt>
      <trkpt lat="44.50784" lon="5.23841">
        <ele>764</ele>
      </trkpt>
      <trkpt lat="44.50799" lon="5.2382">
        <ele>766</ele>
      </trkpt>
      <trkpt lat="44.50819" lon="5.23803">
        <ele>760</ele>
      </trkpt>
      <trkpt lat="44.50849" lon="5.23764">
        <ele>765</ele>
      </trkpt>
      <trkpt lat="44.50864" lon="5.23749">
        <ele>758</ele>
      </trkpt>
      <trkpt lat="44.50946" lon="5.23691">
        <ele>747</ele>
      </trkpt>
      <trkpt lat="44.51008" lon="5.23652">
        <ele>750</ele>
      </trkpt>
      <trkpt lat="44.51058" lon="5.23605">
        <ele>744</ele>
      </trkpt>
      <trkpt lat="44.51079" lon="5.23591">
        <ele>750</ele>
      </trkpt>
      <trkpt lat="44.51099" lon="5.23582">
        <ele>750</ele>
      </trkpt>
      <trkpt lat="44.51112" lon="5.23571">
        <ele>750</ele>
      </trkpt>
      <trkpt lat="44.5112" lon="5.23562">
        <ele>744</ele>
      </trkpt>
      <trkpt lat="44.51134" lon="5.23543">
        <ele>747</ele>
      </trkpt>
      <trkpt lat="44.51142" lon="5.23526">
        <ele>740</ele>
      </trkpt>
      <trkpt lat="44.51148" lon="5.23509">
        <ele>739</ele>
      </trkpt>
      <trkpt lat="44.51155" lon="5.23475">
        <ele>732</ele>
      </trkpt>
      <trkpt lat="44.51158" lon="5.23468">
        <ele>732</ele>
      </trkpt>
      <trkpt lat="44.51164" lon="5.23459">
        <ele>732</ele>
      </trkpt>
      <trkpt lat="44.51174" lon="5.23449">
        <ele>728</ele>
      </trkpt>
      <trkpt lat="44.51211" lon="5.23427">
        <ele>732</ele>
      </trkpt>
      <trkpt lat="44.51222" lon="5.23415">
        <ele>728</ele>
      </trkpt>
      <trkpt lat="44.51266" lon="5.23336">
        <ele>724</ele>
      </trkpt>
      <trkpt lat="44.51273" lon="5.23316">
        <ele>724</ele>
      </trkpt>
      <trkpt lat="44.51298" lon="5.23223">
        <ele>722</ele>
      </trkpt>
      <trkpt lat="44.51301" lon="5.23187">
        <ele>720</ele>
      </trkpt>
      <trkpt lat="44.51301" lon="5.23155">
        <ele>718</ele>
      </trkpt>
      <trkpt lat="44.51298" lon="5.23108">
        <ele>712</ele>
      </trkpt>
      <trkpt lat="44.51298" lon="5.23096">
        <ele>711</ele>
      </trkpt>
      <trkpt lat="44.51302" lon="5.23082">
        <ele>707</ele>
      </trkpt>
      <trkpt lat="44.51308" lon="5.23072">
        <ele>707</ele>
      </trkpt>
      <trkpt lat="44.51318" lon="5.23062">
        <ele>706</ele>
      </trkpt>
      <trkpt lat="44.51329" lon="5.23055">
        <ele>702</ele>
      </trkpt>
      <trkpt lat="44.5137" lon="5.23042">
        <ele>702</ele>
      </trkpt>
      <trkpt lat="44.51412" lon="5.2304">
        <ele>704</ele>
      </trkpt>
      <trkpt lat="44.51422" lon="5.23033">
        <ele>702</ele>
      </trkpt>
      <trkpt lat="44.51424" lon="5.23026">
        <ele>701</ele>
      </trkpt>
      <trkpt lat="44.51423" lon="5.23019">
        <ele>701</ele>
      </trkpt>
      <trkpt lat="44.51419" lon="5.23014">
        <ele>701</ele>
      </trkpt>
      <trkpt lat="44.51318" lon="5.2303">
        <ele>694</ele>
      </trkpt>
      <trkpt lat="44.51298" lon="5.23036">
        <ele>698</ele>
      </trkpt>
      <trkpt lat="44.51285" lon="5.23042">
        <ele>695</ele>
      </trkpt>
      <trkpt lat="44.51269" lon="5.23053">
        <ele>695</ele>
      </trkpt>
      <trkpt lat="44.51214" lon="5.23108">
        <ele>690</ele>
      </trkpt>
      <trkpt lat="44.51201" lon="5.23113">
        <ele>687</ele>
      </trkpt>
      <trkpt lat="44.51197" lon="5.23112">
        <ele>686</ele>
      </trkpt>
      <trkpt lat="44.51193" lon="5.23105">
        <ele>685</ele>
      </trkpt>
      <trkpt lat="44.51195" lon="5.23095">
        <ele>685</ele>
      </trkpt>
      <trkpt lat="44.51223" lon="5.23076">
        <ele>685</ele>
      </trkpt>
      <trkpt lat="44.51232" lon="5.23065">
        <ele>686</ele>
      </trkpt>
      <trkpt lat="44.51258" lon="5.23024">
        <ele>683</ele>
      </trkpt>
      <trkpt lat="44.51275" lon="5.23003">
        <ele>682</ele>
      </trkpt>
      <trkpt lat="44.513" lon="5.22981">
        <ele>684</ele>
      </trkpt>
      <trkpt lat="44.51308" lon="5.22971">
        <ele>680</ele>
      </trkpt>
      <trkpt lat="44.51313" lon="5.2296">
        <ele>679</ele>
      </trkpt>
      <trkpt lat="44.51316" lon="5.22941">
        <ele>677</ele>
      </trkpt>
      <trkpt lat="44.51315" lon="5.22927">
        <ele>676</ele>
      </trkpt>
      <trkpt lat="44.5131" lon="5.22913">
        <ele>675</ele>
      </trkpt>
      <trkpt lat="44.51301" lon="5.22893">
        <ele>675</ele>
      </trkpt>
      <trkpt lat="44.51252" lon="5.22806">
        <ele>673</ele>
      </trkpt>
      <trkpt lat="44.51248" lon="5.2279">
        <ele>673</ele>
      </trkpt>
      <trkpt lat="44.51246" lon="5.22772">
        <ele>675</ele>
      </trkpt>
      <trkpt lat="44.51248" lon="5.22748">
        <ele>675</ele>
      </trkpt>
      <trkpt lat="44.51253" lon="5.22735">
        <ele>675</ele>
      </trkpt>
      <trkpt lat="44.51261" lon="5.22719">
        <ele>672</ele>
      </trkpt>
      <trkpt lat="44.51288" lon="5.22673">
        <ele>682</ele>
      </trkpt>
      <trkpt lat="44.51293" lon="5.22654">
        <ele>688</ele>
      </trkpt>
      <trkpt lat="44.51297" lon="5.22632">
        <ele>684</ele>
      </trkpt>
      <trkpt lat="44.51298" lon="5.22612">
        <ele>680</ele>
      </trkpt>
      <trkpt lat="44.51299" lon="5.22594">
        <ele>680</ele>
      </trkpt>
      <trkpt lat="44.51296" lon="5.22549">
        <ele>672</ele>
      </trkpt>
      <trkpt lat="44.51298" lon="5.22539">
        <ele>672</ele>
      </trkpt>
      <trkpt lat="44.5131" lon="5.22479">
        <ele>666</ele>
      </trkpt>
      <trkpt lat="44.51319" lon="5.22429">
        <ele>659</ele>
      </trkpt>
      <trkpt lat="44.51327" lon="5.22405">
        <ele>662</ele>
      </trkpt>
      <trkpt lat="44.51339" lon="5.22377">
        <ele>657</ele>
      </trkpt>
      <trkpt lat="44.51393" lon="5.22275">
        <ele>651</ele>
      </trkpt>
      <trkpt lat="44.51403" lon="5.22247">
        <ele>649</ele>
      </trkpt>
      <trkpt lat="44.51412" lon="5.22218">
        <ele>655</ele>
      </trkpt>
      <trkpt lat="44.51428" lon="5.22146">
        <ele>649</ele>
      </trkpt>
      <trkpt lat="44.51436" lon="5.22096">
        <ele>650</ele>
      </trkpt>
      <trkpt lat="44.51477" lon="5.21982">
        <ele>643</ele>
      </trkpt>
      <trkpt lat="44.51519" lon="5.21894">
        <ele>634</ele>
      </trkpt>
      <trkpt lat="44.51538" lon="5.2186">
        <ele>631</ele>
      </trkpt>
      <trkpt lat="44.5155" lon="5.21807">
        <ele>629</ele>
      </trkpt>
      <trkpt lat="44.51577" lon="5.21706">
        <ele>622</ele>
      </trkpt>
      <trkpt lat="44.51601" lon="5.21668">
        <ele>620</ele>
      </trkpt>
      <trkpt lat="44.51624" lon="5.21648">
        <ele>620</ele>
      </trkpt>
      <trkpt lat="44.51653" lon="5.2161">
        <ele>618</ele>
      </trkpt>
      <trkpt lat="44.51672" lon="5.21591">
        <ele>621</ele>
      </trkpt>
      <trkpt lat="44.51694" lon="5.2156">
        <ele>615</ele>
      </trkpt>
      <trkpt lat="44.51758" lon="5.21555">
        <ele>614</ele>
      </trkpt>
      <trkpt lat="44.51776" lon="5.21556">
        <ele>612</ele>
      </trkpt>
      <trkpt lat="44.51849" lon="5.21576">
        <ele>611</ele>
      </trkpt>
      <trkpt lat="44.51866" lon="5.21584">
        <ele>611</ele>
      </trkpt>
      <trkpt lat="44.5192" lon="5.21623">
        <ele>610</ele>
      </trkpt>
      <trkpt lat="44.51934" lon="5.21634">
        <ele>611</ele>
      </trkpt>
      <trkpt lat="44.51954" lon="5.21656">
        <ele>608</ele>
      </trkpt>
      <trkpt lat="44.51976" lon="5.21674">
        <ele>607</ele>
      </trkpt>
      <trkpt lat="44.52025" lon="5.2169">
        <ele>602</ele>
      </trkpt>
      <trkpt lat="44.52182" lon="5.21761">
        <ele>599</ele>
      </trkpt>
      <trkpt lat="44.52202" lon="5.21765">
        <ele>599</ele>
      </trkpt>
      <trkpt lat="44.52215" lon="5.21763">
        <ele>598</ele>
      </trkpt>
      <trkpt lat="44.52245" lon="5.21751">
        <ele>596</ele>
      </trkpt>
      <trkpt lat="44.52271" lon="5.21745">
        <ele>595</ele>
      </trkpt>
      <trkpt lat="44.52297" lon="5.21755">
        <ele>594</ele>
      </trkpt>
      <trkpt lat="44.5235" lon="5.21798">
        <ele>595</ele>
      </trkpt>
      <trkpt lat="44.52369" lon="5.2181">
        <ele>595</ele>
      </trkpt>
      <trkpt lat="44.52383" lon="5.21815">
        <ele>596</ele>
      </trkpt>
      <trkpt lat="44.52408" lon="5.21821">
        <ele>594</ele>
      </trkpt>
      <trkpt lat="44.52473" lon="5.21824">
        <ele>592</ele>
      </trkpt>
      <trkpt lat="44.52716" lon="5.21883">
        <ele>590</ele>
      </trkpt>
      <trkpt lat="44.52735" lon="5.21884">
        <ele>590</ele>
      </trkpt>
      <trkpt lat="44.5275" lon="5.21881">
        <ele>588</ele>
      </trkpt>
      <trkpt lat="44.52772" lon="5.21871">
        <ele>591</ele>
      </trkpt>
      <trkpt lat="44.52819" lon="5.21846">
        <ele>592</ele>
      </trkpt>
      <trkpt lat="44.53152" lon="5.2168">
        <ele>590</ele>
      </trkpt>
      <trkpt lat="44.53363" lon="5.21533">
        <ele>589</ele>
      </trkpt>
      <trkpt lat="44.53381" lon="5.21516">
        <ele>589</ele>
      </trkpt>
      <trkpt lat="44.53455" lon="5.21399">
        <ele>587</ele>
      </trkpt>
      <trkpt lat="44.5346" lon="5.21388">
        <ele>592</ele>
      </trkpt>
      <trkpt lat="44.53463" lon="5.2136">
        <ele>594</ele>
      </trkpt>
      <trkpt lat="44.53461" lon="5.2135">
        <ele>594</ele>
      </trkpt>
      <trkpt lat="44.53453" lon="5.21324">
        <ele>591</ele>
      </trkpt>
      <trkpt lat="44.5343" lon="5.21278">
        <ele>589</ele>
      </trkpt>
      <trkpt lat="44.53414" lon="5.21254">
        <ele>590</ele>
      </trkpt>
      <trkpt lat="44.53392" lon="5.21227">
        <ele>587</ele>
      </trkpt>
      <trkpt lat="44.5336" lon="5.21192">
        <ele>585</ele>
      </trkpt>
      <trkpt lat="44.53351" lon="5.21177">
        <ele>585</ele>
      </trkpt>
      <trkpt lat="44.53327" lon="5.21114">
        <ele>586</ele>
      </trkpt>
      <trkpt lat="44.53291" lon="5.2101">
        <ele>580</ele>
      </trkpt>
      <trkpt lat="44.53286" lon="5.20988">
        <ele>580</ele>
      </trkpt>
      <trkpt lat="44.53285" lon="5.2097">
        <ele>580</ele>
      </trkpt>
      <trkpt lat="44.5329" lon="5.20944">
        <ele>580</ele>
      </trkpt>
      <trkpt lat="44.53313" lon="5.20873">
        <ele>582</ele>
      </trkpt>
      <trkpt lat="44.53323" lon="5.20829">
        <ele>583</ele>
      </trkpt>
      <trkpt lat="44.53346" lon="5.20666">
        <ele>576</ele>
      </trkpt>
      <trkpt lat="44.53352" lon="5.20641">
        <ele>578</ele>
      </trkpt>
      <trkpt lat="44.53363" lon="5.20619">
        <ele>578</ele>
      </trkpt>
      <trkpt lat="44.53374" lon="5.20603">
        <ele>575</ele>
      </trkpt>
      <trkpt lat="44.53382" lon="5.20596">
        <ele>577</ele>
      </trkpt>
      <trkpt lat="44.53398" lon="5.20587">
        <ele>574</ele>
      </trkpt>
      <trkpt lat="44.53451" lon="5.20567">
        <ele>582</ele>
      </trkpt>
      <trkpt lat="44.53471" lon="5.20556">
        <ele>582</ele>
      </trkpt>
      <trkpt lat="44.53488" lon="5.20545">
        <ele>594</ele>
      </trkpt>
      <trkpt lat="44.53498" lon="5.20533">
        <ele>589</ele>
      </trkpt>
      <trkpt lat="44.53509" lon="5.20515">
        <ele>589</ele>
      </trkpt>
      <trkpt lat="44.53523" lon="5.2047">
        <ele>588</ele>
      </trkpt>
      <trkpt lat="44.53528" lon="5.20432">
        <ele>583</ele>
      </trkpt>
      <trkpt lat="44.5353" lon="5.20402">
        <ele>581</ele>
      </trkpt>
      <trkpt lat="44.53528" lon="5.20351">
        <ele>578</ele>
      </trkpt>
      <trkpt lat="44.53529" lon="5.20329">
        <ele>575</ele>
      </trkpt>
      <trkpt lat="44.53536" lon="5.20279">
        <ele>571</ele>
      </trkpt>
      <trkpt lat="44.53539" lon="5.20268">
        <ele>571</ele>
      </trkpt>
      <trkpt lat="44.53546" lon="5.20255">
        <ele>574</ele>
      </trkpt>
      <trkpt lat="44.5356" lon="5.20235">
        <ele>574</ele>
      </trkpt>
      <trkpt lat="44.53582" lon="5.20199">
        <ele>572</ele>
      </trkpt>
      <trkpt lat="44.53593" lon="5.20175">
        <ele>571</ele>
      </trkpt>
      <trkpt lat="44.53606" lon="5.20154">
        <ele>573</ele>
      </trkpt>
      <trkpt lat="44.53649" lon="5.2009">
        <ele>575</ele>
      </trkpt>
      <trkpt lat="44.53662" lon="5.20065">
        <ele>580</ele>
      </trkpt>
      <trkpt lat="44.53672" lon="5.20037">
        <ele>577</ele>
      </trkpt>
      <trkpt lat="44.53681" lon="5.20021">
        <ele>573</ele>
      </trkpt>
      <trkpt lat="44.53693" lon="5.20003">
        <ele>576</ele>
      </trkpt>
      <trkpt lat="44.53733" lon="5.19952">
        <ele>579</ele>
      </trkpt>
      <trkpt lat="44.53789" lon="5.1987">
        <ele>573</ele>
      </trkpt>
      <trkpt lat="44.53826" lon="5.19827">
        <ele>574</ele>
      </trkpt>
      <trkpt lat="44.53845" lon="5.19796">
        <ele>569</ele>
      </trkpt>
      <trkpt lat="44.53913" lon="5.19632">
        <ele>563</ele>
      </trkpt>
      <trkpt lat="44.53925" lon="5.19584">
        <ele>560</ele>
      </trkpt>
      <trkpt lat="44.5393" lon="5.19568">
        <ele>559</ele>
      </trkpt>
      <trkpt lat="44.53939" lon="5.19551">
        <ele>560</ele>
      </trkpt>
      <trkpt lat="44.5395" lon="5.19535">
        <ele>560</ele>
      </trkpt>
      <trkpt lat="44.53972" lon="5.19514">
        <ele>566</ele>
      </trkpt>
      <trkpt lat="44.53995" lon="5.1949">
        <ele>579</ele>
      </trkpt>
      <trkpt lat="44.54008" lon="5.1947">
        <ele>577</ele>
      </trkpt>
      <trkpt lat="44.54016" lon="5.19453">
        <ele>589</ele>
      </trkpt>
      <trkpt lat="44.54025" lon="5.19426">
        <ele>583</ele>
      </trkpt>
      <trkpt lat="44.54031" lon="5.19371">
        <ele>568</ele>
      </trkpt>
      <trkpt lat="44.54039" lon="5.19342">
        <ele>565</ele>
      </trkpt>
      <trkpt lat="44.54078" lon="5.19276">
        <ele>578</ele>
      </trkpt>
      <trkpt lat="44.54085" lon="5.19256">
        <ele>577</ele>
      </trkpt>
      <trkpt lat="44.54103" lon="5.19196">
        <ele>560</ele>
      </trkpt>
      <trkpt lat="44.54116" lon="5.19176">
        <ele>559</ele>
      </trkpt>
      <trkpt lat="44.5418" lon="5.1912">
        <ele>561</ele>
      </trkpt>
      <trkpt lat="44.54253" lon="5.19077">
        <ele>565</ele>
      </trkpt>
      <trkpt lat="44.54314" lon="5.19022">
        <ele>564</ele>
      </trkpt>
      <trkpt lat="44.54351" lon="5.18978">
        <ele>572</ele>
      </trkpt>
      <trkpt lat="44.54402" lon="5.18891">
        <ele>554</ele>
      </trkpt>
      <trkpt lat="44.54431" lon="5.18862">
        <ele>551</ele>
      </trkpt>
      <trkpt lat="44.54452" lon="5.18851">
        <ele>553</ele>
      </trkpt>
      <trkpt lat="44.54523" lon="5.18847">
        <ele>562</ele>
      </trkpt>
      <trkpt lat="44.54561" lon="5.18839">
        <ele>567</ele>
      </trkpt>
      <trkpt lat="44.54583" lon="5.18825">
        <ele>563</ele>
      </trkpt>
      <trkpt lat="44.54652" lon="5.18741">
        <ele>542</ele>
      </trkpt>
      <trkpt lat="44.54673" lon="5.18731">
        <ele>546</ele>
      </trkpt>
      <trkpt lat="44.54738" lon="5.18724">
        <ele>535</ele>
      </trkpt>
      <trkpt lat="44.54757" lon="5.18727">
        <ele>535</ele>
      </trkpt>
      <trkpt lat="44.54782" lon="5.18736">
        <ele>542</ele>
      </trkpt>
      <trkpt lat="44.54793" lon="5.18736">
        <ele>546</ele>
      </trkpt>
      <trkpt lat="44.54805" lon="5.18732">
        <ele>547</ele>
      </trkpt>
      <trkpt lat="44.54823" lon="5.18714">
        <ele>546</ele>
      </trkpt>
      <trkpt lat="44.5486" lon="5.1867">
        <ele>538</ele>
      </trkpt>
      <trkpt lat="44.54908" lon="5.18638">
        <ele>539</ele>
      </trkpt>
      <trkpt lat="44.54959" lon="5.186">
        <ele>541</ele>
      </trkpt>
      <trkpt lat="44.54973" lon="5.18586">
        <ele>544</ele>
      </trkpt>
      <trkpt lat="44.54988" lon="5.18566">
        <ele>552</ele>
      </trkpt>
      <trkpt lat="44.55012" lon="5.18506">
        <ele>539</ele>
      </trkpt>
      <trkpt lat="44.55057" lon="5.18445">
        <ele>536</ele>
      </trkpt>
      <trkpt lat="44.55103" lon="5.18358">
        <ele>531</ele>
      </trkpt>
      <trkpt lat="44.55109" lon="5.18334">
        <ele>523</ele>
      </trkpt>
      <trkpt lat="44.55109" lon="5.1832">
        <ele>521</ele>
      </trkpt>
      <trkpt lat="44.55106" lon="5.18286">
        <ele>521</ele>
      </trkpt>
      <trkpt lat="44.55093" lon="5.18253">
        <ele>528</ele>
      </trkpt>
      <trkpt lat="44.55062" lon="5.18203">
        <ele>529</ele>
      </trkpt>
      <trkpt lat="44.55055" lon="5.18184">
        <ele>533</ele>
      </trkpt>
      <trkpt lat="44.55055" lon="5.18164">
        <ele>535</ele>
      </trkpt>
      <trkpt lat="44.55069" lon="5.18108">
        <ele>535</ele>
      </trkpt>
      <trkpt lat="44.55088" lon="5.17974">
        <ele>527</ele>
      </trkpt>
      <trkpt lat="44.55102" lon="5.17924">
        <ele>538</ele>
      </trkpt>
      <trkpt lat="44.55121" lon="5.17886">
        <ele>533</ele>
      </trkpt>
      <trkpt lat="44.5513" lon="5.17859">
        <ele>537</ele>
      </trkpt>
      <trkpt lat="44.55131" lon="5.17815">
        <ele>527</ele>
      </trkpt>
      <trkpt lat="44.55135" lon="5.17796">
        <ele>523</ele>
      </trkpt>
      <trkpt lat="44.55149" lon="5.17751">
        <ele>516</ele>
      </trkpt>
      <trkpt lat="44.55157" lon="5.17705">
        <ele>518</ele>
      </trkpt>
      <trkpt lat="44.55167" lon="5.17679">
        <ele>513</ele>
      </trkpt>
      <trkpt lat="44.55235" lon="5.1753">
        <ele>496</ele>
      </trkpt>
      <trkpt lat="44.5525" lon="5.17501">
        <ele>497</ele>
      </trkpt>
      <trkpt lat="44.55337" lon="5.17364">
        <ele>490</ele>
      </trkpt>
      <trkpt lat="44.5526" lon="5.17305">
        <ele>483</ele>
      </trkpt>
      <trkpt lat="44.55164" lon="5.17225">
        <ele>486</ele>
      </trkpt>
      <trkpt lat="44.55146" lon="5.17198">
        <ele>486</ele>
      </trkpt>
      <trkpt lat="44.55136" lon="5.17166">
        <ele>485</ele>
      </trkpt>
      <trkpt lat="44.55136" lon="5.1711">
        <ele>486</ele>
      </trkpt>
      <trkpt lat="44.55129" lon="5.17075">
        <ele>486</ele>
      </trkpt>
      <trkpt lat="44.55116" lon="5.17062">
        <ele>488</ele>
      </trkpt>
      <trkpt lat="44.551" lon="5.17055">
        <ele>489</ele>
      </trkpt>
      <trkpt lat="44.55014" lon="5.17065">
        <ele>501</ele>
      </trkpt>
      <trkpt lat="44.54957" lon="5.17056">
        <ele>501</ele>
      </trkpt>
      <trkpt lat="44.54933" lon="5.1705">
        <ele>501</ele>
      </trkpt>
      <trkpt lat="44.54644" lon="5.16885">
        <ele>505</ele>
      </trkpt>
      <trkpt lat="44.54421" lon="5.16749">
        <ele>515</ele>
      </trkpt>
      <trkpt lat="44.54146" lon="5.16652">
        <ele>530</ele>
      </trkpt>
      <trkpt lat="44.54133" lon="5.16652">
        <ele>530</ele>
      </trkpt>
      <trkpt lat="44.54016" lon="5.16689">
        <ele>540</ele>
      </trkpt>
      <trkpt lat="44.53972" lon="5.16707">
        <ele>542</ele>
      </trkpt>
      <trkpt lat="44.53952" lon="5.16711">
        <ele>543</ele>
      </trkpt>
      <trkpt lat="44.53933" lon="5.1671">
        <ele>543</ele>
      </trkpt>
      <trkpt lat="44.53912" lon="5.167">
        <ele>544</ele>
      </trkpt>
      <trkpt lat="44.53839" lon="5.1666">
        <ele>547</ele>
      </trkpt>
      <trkpt lat="44.53799" lon="5.16645">
        <ele>549</ele>
      </trkpt>
      <trkpt lat="44.5377" lon="5.16639">
        <ele>548</ele>
      </trkpt>
      <trkpt lat="44.5374" lon="5.16644">
        <ele>553</ele>
      </trkpt>
      <trkpt lat="44.53671" lon="5.16649">
        <ele>553</ele>
      </trkpt>
      <trkpt lat="44.53561" lon="5.16644">
        <ele>562</ele>
      </trkpt>
      <trkpt lat="44.53517" lon="5.16638">
        <ele>562</ele>
      </trkpt>
      <trkpt lat="44.53474" lon="5.16614">
        <ele>564</ele>
      </trkpt>
      <trkpt lat="44.53457" lon="5.16589">
        <ele>567</ele>
      </trkpt>
      <trkpt lat="44.53457" lon="5.16566">
        <ele>565</ele>
      </trkpt>
      <trkpt lat="44.53466" lon="5.16522">
        <ele>560</ele>
      </trkpt>
      <trkpt lat="44.53466" lon="5.1649">
        <ele>560</ele>
      </trkpt>
      <trkpt lat="44.5345" lon="5.16465">
        <ele>565</ele>
      </trkpt>
      <trkpt lat="44.5341" lon="5.16443">
        <ele>570</ele>
      </trkpt>
      <trkpt lat="44.53355" lon="5.16418">
        <ele>576</ele>
      </trkpt>
      <trkpt lat="44.53216" lon="5.16343">
        <ele>586</ele>
      </trkpt>
      <trkpt lat="44.53195" lon="5.16322">
        <ele>584</ele>
      </trkpt>
      <trkpt lat="44.53185" lon="5.16296">
        <ele>582</ele>
      </trkpt>
      <trkpt lat="44.53157" lon="5.16167">
        <ele>593</ele>
      </trkpt>
      <trkpt lat="44.53133" lon="5.16073">
        <ele>587</ele>
      </trkpt>
      <trkpt lat="44.53129" lon="5.1605">
        <ele>587</ele>
      </trkpt>
      <trkpt lat="44.53136" lon="5.16025">
        <ele>587</ele>
      </trkpt>
      <trkpt lat="44.53149" lon="5.16005">
        <ele>588</ele>
      </trkpt>
      <trkpt lat="44.53213" lon="5.15943">
        <ele>589</ele>
      </trkpt>
      <trkpt lat="44.53222" lon="5.15931">
        <ele>589</ele>
      </trkpt>
      <trkpt lat="44.5323" lon="5.15908">
        <ele>588</ele>
      </trkpt>
      <trkpt lat="44.53222" lon="5.15885">
        <ele>587</ele>
      </trkpt>
      <trkpt lat="44.53209" lon="5.15867">
        <ele>591</ele>
      </trkpt>
      <trkpt lat="44.53187" lon="5.15864">
        <ele>591</ele>
      </trkpt>
      <trkpt lat="44.53112" lon="5.15877">
        <ele>604</ele>
      </trkpt>
      <trkpt lat="44.53072" lon="5.15851">
        <ele>602</ele>
      </trkpt>
      <trkpt lat="44.53055" lon="5.15831">
        <ele>601</ele>
      </trkpt>
      <trkpt lat="44.53044" lon="5.15806">
        <ele>600</ele>
      </trkpt>
      <trkpt lat="44.53035" lon="5.1573">
        <ele>605</ele>
      </trkpt>
      <trkpt lat="44.53025" lon="5.1566">
        <ele>607</ele>
      </trkpt>
      <trkpt lat="44.53017" lon="5.15626">
        <ele>608</ele>
      </trkpt>
      <trkpt lat="44.53" lon="5.15601">
        <ele>609</ele>
      </trkpt>
      <trkpt lat="44.52962" lon="5.15574">
        <ele>614</ele>
      </trkpt>
      <trkpt lat="44.52883" lon="5.15525">
        <ele>616</ele>
      </trkpt>
      <trkpt lat="44.52827" lon="5.15486">
        <ele>615</ele>
      </trkpt>
      <trkpt lat="44.52794" lon="5.15448">
        <ele>616</ele>
      </trkpt>
      <trkpt lat="44.52764" lon="5.15398">
        <ele>612</ele>
      </trkpt>
      <trkpt lat="44.5274" lon="5.15374">
        <ele>614</ele>
      </trkpt>
      <trkpt lat="44.5273" lon="5.15369">
        <ele>611</ele>
      </trkpt>
      <trkpt lat="44.52711" lon="5.1537">
        <ele>610</ele>
      </trkpt>
      <trkpt lat="44.52645" lon="5.15391">
        <ele>606</ele>
      </trkpt>
      <trkpt lat="44.52619" lon="5.15395">
        <ele>603</ele>
      </trkpt>
      <trkpt lat="44.52603" lon="5.15387">
        <ele>604</ele>
      </trkpt>
      <trkpt lat="44.52581" lon="5.15365">
        <ele>604</ele>
      </trkpt>
      <trkpt lat="44.52481" lon="5.15245">
        <ele>601</ele>
      </trkpt>
      <trkpt lat="44.52454" lon="5.15231">
        <ele>597</ele>
      </trkpt>
      <trkpt lat="44.52368" lon="5.152">
        <ele>596</ele>
      </trkpt>
      <trkpt lat="44.52349" lon="5.15193">
        <ele>597</ele>
      </trkpt>
      <trkpt lat="44.52273" lon="5.15178">
        <ele>594</ele>
      </trkpt>
      <trkpt lat="44.52105" lon="5.15151">
        <ele>591</ele>
      </trkpt>
      <trkpt lat="44.51928" lon="5.15115">
        <ele>580</ele>
      </trkpt>
      <trkpt lat="44.51914" lon="5.15117">
        <ele>579</ele>
      </trkpt>
      <trkpt lat="44.51893" lon="5.15125">
        <ele>578</ele>
      </trkpt>
      <trkpt lat="44.51805" lon="5.15212">
        <ele>575</ele>
      </trkpt>
      <trkpt lat="44.51673" lon="5.15338">
        <ele>566</ele>
      </trkpt>
      <trkpt lat="44.51653" lon="5.15351">
        <ele>563</ele>
      </trkpt>
      <trkpt lat="44.51637" lon="5.15356">
        <ele>562</ele>
      </trkpt>
      <trkpt lat="44.51622" lon="5.15354">
        <ele>559</ele>
      </trkpt>
      <trkpt lat="44.51604" lon="5.15343">
        <ele>559</ele>
      </trkpt>
      <trkpt lat="44.51589" lon="5.15326">
        <ele>559</ele>
      </trkpt>
      <trkpt lat="44.51563" lon="5.15287">
        <ele>560</ele>
      </trkpt>
      <trkpt lat="44.51406" lon="5.14999">
        <ele>556</ele>
      </trkpt>
      <trkpt lat="44.51406" lon="5.14988">
        <ele>556</ele>
      </trkpt>
      <trkpt lat="44.51364" lon="5.1491">
        <ele>554</ele>
      </trkpt>
      <trkpt lat="44.51358" lon="5.14899">
        <ele>555</ele>
      </trkpt>
      <trkpt lat="44.51328" lon="5.14858">
        <ele>556</ele>
      </trkpt>
      <trkpt lat="44.51289" lon="5.14816">
        <ele>556</ele>
      </trkpt>
      <trkpt lat="44.51216" lon="5.14645">
        <ele>554</ele>
      </trkpt>
      <trkpt lat="44.51207" lon="5.14597">
        <ele>549</ele>
      </trkpt>
      <trkpt lat="44.51198" lon="5.14529">
        <ele>551</ele>
      </trkpt>
      <trkpt lat="44.51187" lon="5.14487">
        <ele>552</ele>
      </trkpt>
      <trkpt lat="44.5117" lon="5.14435">
        <ele>546</ele>
      </trkpt>
      <trkpt lat="44.51162" lon="5.14397">
        <ele>550</ele>
      </trkpt>
      <trkpt lat="44.51159" lon="5.14347">
        <ele>558</ele>
      </trkpt>
      <trkpt lat="44.5115" lon="5.14308">
        <ele>557</ele>
      </trkpt>
      <trkpt lat="44.51117" lon="5.14217">
        <ele>551</ele>
      </trkpt>
      <trkpt lat="44.51108" lon="5.14196">
        <ele>556</ele>
      </trkpt>
      <trkpt lat="44.51098" lon="5.1418">
        <ele>556</ele>
      </trkpt>
      <trkpt lat="44.5108" lon="5.14161">
        <ele>551</ele>
      </trkpt>
      <trkpt lat="44.50862" lon="5.13999">
        <ele>540</ele>
      </trkpt>
      <trkpt lat="44.5085" lon="5.13986">
        <ele>540</ele>
      </trkpt>
      <trkpt lat="44.50793" lon="5.13891">
        <ele>549</ele>
      </trkpt>
      <trkpt lat="44.50772" lon="5.13853">
        <ele>541</ele>
      </trkpt>
      <trkpt lat="44.50743" lon="5.13758">
        <ele>543</ele>
      </trkpt>
      <trkpt lat="44.50731" lon="5.13728">
        <ele>540</ele>
      </trkpt>
      <trkpt lat="44.50714" lon="5.13701">
        <ele>543</ele>
      </trkpt>
      <trkpt lat="44.50686" lon="5.1367">
        <ele>544</ele>
      </trkpt>
      <trkpt lat="44.50566" lon="5.13584">
        <ele>529</ele>
      </trkpt>
      <trkpt lat="44.50509" lon="5.1356">
        <ele>522</ele>
      </trkpt>
      <trkpt lat="44.50484" lon="5.13546">
        <ele>522</ele>
      </trkpt>
      <trkpt lat="44.50464" lon="5.13529">
        <ele>522</ele>
      </trkpt>
      <trkpt lat="44.50356" lon="5.13427">
        <ele>514</ele>
      </trkpt>
      <trkpt lat="44.50242" lon="5.13322">
        <ele>515</ele>
      </trkpt>
      <trkpt lat="44.5011" lon="5.13236">
        <ele>515</ele>
      </trkpt>
      <trkpt lat="44.50042" lon="5.13195">
        <ele>512</ele>
      </trkpt>
      <trkpt lat="44.50011" lon="5.13165">
        <ele>511</ele>
      </trkpt>
      <trkpt lat="44.49988" lon="5.13136">
        <ele>507</ele>
      </trkpt>
      <trkpt lat="44.49893" lon="5.13051">
        <ele>506</ele>
      </trkpt>
      <trkpt lat="44.49866" lon="5.13025">
        <ele>506</ele>
      </trkpt>
      <trkpt lat="44.49797" lon="5.12926">
        <ele>505</ele>
      </trkpt>
      <trkpt lat="44.49765" lon="5.12862">
        <ele>499</ele>
      </trkpt>
      <trkpt lat="44.49695" lon="5.127">
        <ele>501</ele>
      </trkpt>
      <trkpt lat="44.49595" lon="5.12495">
        <ele>500</ele>
      </trkpt>
      <trkpt lat="44.49573" lon="5.12423">
        <ele>497</ele>
      </trkpt>
      <trkpt lat="44.49546" lon="5.12253">
        <ele>494</ele>
      </trkpt>
      <trkpt lat="44.49544" lon="5.12207">
        <ele>493</ele>
      </trkpt>
      <trkpt lat="44.49546" lon="5.12118">
        <ele>489</ele>
      </trkpt>
      <trkpt lat="44.49554" lon="5.12051">
        <ele>490</ele>
      </trkpt>
      <trkpt lat="44.49567" lon="5.11985">
        <ele>493</ele>
      </trkpt>
      <trkpt lat="44.49576" lon="5.11909">
        <ele>488</ele>
      </trkpt>
      <trkpt lat="44.496" lon="5.11808">
        <ele>487</ele>
      </trkpt>
      <trkpt lat="44.4965" lon="5.11644">
        <ele>484</ele>
      </trkpt>
      <trkpt lat="44.49652" lon="5.11634">
        <ele>485</ele>
      </trkpt>
      <trkpt lat="44.49651" lon="5.11626">
        <ele>485</ele>
      </trkpt>
      <trkpt lat="44.49642" lon="5.11595">
        <ele>486</ele>
      </trkpt>
      <trkpt lat="44.49634" lon="5.11577">
        <ele>485</ele>
      </trkpt>
      <trkpt lat="44.4965" lon="5.11506">
        <ele>484</ele>
      </trkpt>
      <trkpt lat="44.49659" lon="5.11505">
        <ele>483</ele>
      </trkpt>
      <trkpt lat="44.4968" lon="5.11498">
        <ele>483</ele>
      </trkpt>
      <trkpt lat="44.49712" lon="5.1148">
        <ele>481</ele>
      </trkpt>
      <trkpt lat="44.49753" lon="5.11464">
        <ele>479</ele>
      </trkpt>
      <trkpt lat="44.49945" lon="5.11421">
        <ele>487</ele>
      </trkpt>
      <trkpt lat="44.49948" lon="5.11419">
        <ele>487</ele>
      </trkpt>
      <trkpt lat="44.49959" lon="5.114">
        <ele>489</ele>
      </trkpt>
      <trkpt lat="44.50013" lon="5.11286">
        <ele>484</ele>
      </trkpt>
      <trkpt lat="44.5003" lon="5.11258">
        <ele>481</ele>
      </trkpt>
      <trkpt lat="44.50104" lon="5.11158">
        <ele>476</ele>
      </trkpt>
      <trkpt lat="44.50136" lon="5.11123">
        <ele>479</ele>
      </trkpt>
      <trkpt lat="44.50219" lon="5.11014">
        <ele>482</ele>
      </trkpt>
      <trkpt lat="44.50318" lon="5.10893">
        <ele>481</ele>
      </trkpt>
      <trkpt lat="44.50336" lon="5.10855">
        <ele>482</ele>
      </trkpt>
      <trkpt lat="44.50433" lon="5.10409">
        <ele>477</ele>
      </trkpt>
      <trkpt lat="44.50456" lon="5.10268">
        <ele>480</ele>
      </trkpt>
      <trkpt lat="44.50483" lon="5.1008">
        <ele>487</ele>
      </trkpt>
      <trkpt lat="44.50495" lon="5.09989">
        <ele>497</ele>
      </trkpt>
      <trkpt lat="44.50494" lon="5.09953">
        <ele>497</ele>
      </trkpt>
      <trkpt lat="44.50488" lon="5.09839">
        <ele>492</ele>
      </trkpt>
      <trkpt lat="44.50492" lon="5.09818">
        <ele>490</ele>
      </trkpt>
      <trkpt lat="44.50498" lon="5.09806">
        <ele>486</ele>
      </trkpt>
      <trkpt lat="44.50513" lon="5.098">
        <ele>487</ele>
      </trkpt>
      <trkpt lat="44.50577" lon="5.0979">
        <ele>493</ele>
      </trkpt>
      <trkpt lat="44.50703" lon="5.09785">
        <ele>498</ele>
      </trkpt>
      <trkpt lat="44.50713" lon="5.09784">
        <ele>499</ele>
      </trkpt>
      <trkpt lat="44.50719" lon="5.09777">
        <ele>495</ele>
      </trkpt>
      <trkpt lat="44.50683" lon="5.09742">
        <ele>487</ele>
      </trkpt>
      <trkpt lat="44.50668" lon="5.0973">
        <ele>487</ele>
      </trkpt>
      <trkpt lat="44.50675" lon="5.0972">
        <ele>489</ele>
      </trkpt>
      <trkpt lat="44.50713" lon="5.09707">
        <ele>490</ele>
      </trkpt>
      <trkpt lat="44.50723" lon="5.09702">
        <ele>491</ele>
      </trkpt>
      <trkpt lat="44.50735" lon="5.09692">
        <ele>494</ele>
      </trkpt>
      <trkpt lat="44.50765" lon="5.09656">
        <ele>503</ele>
      </trkpt>
      <trkpt lat="44.50775" lon="5.0964">
        <ele>504</ele>
      </trkpt>
      <trkpt lat="44.50785" lon="5.09632">
        <ele>504</ele>
      </trkpt>
      <trkpt lat="44.50795" lon="5.09635">
        <ele>505</ele>
      </trkpt>
      <trkpt lat="44.50802" lon="5.09642">
        <ele>506</ele>
      </trkpt>
      <trkpt lat="44.50804" lon="5.0965">
        <ele>507</ele>
      </trkpt>
      <trkpt lat="44.50805" lon="5.09659">
        <ele>507</ele>
      </trkpt>
      <trkpt lat="44.50801" lon="5.0968">
        <ele>506</ele>
      </trkpt>
      <trkpt lat="44.50791" lon="5.09726">
        <ele>499</ele>
      </trkpt>
      <trkpt lat="44.50794" lon="5.09734">
        <ele>500</ele>
      </trkpt>
      <trkpt lat="44.50804" lon="5.09743">
        <ele>501</ele>
      </trkpt>
      <trkpt lat="44.50815" lon="5.09746">
        <ele>501</ele>
      </trkpt>
      <trkpt lat="44.50832" lon="5.09746">
        <ele>503</ele>
      </trkpt>
      <trkpt lat="44.5084" lon="5.09744">
        <ele>503</ele>
      </trkpt>
      <trkpt lat="44.5085" lon="5.09732">
        <ele>503</ele>
      </trkpt>
      <trkpt lat="44.5084" lon="5.09744">
        <ele>503</ele>
      </trkpt>
      <trkpt lat="44.50832" lon="5.09746">
        <ele>503</ele>
      </trkpt>
      <trkpt lat="44.50815" lon="5.09746">
        <ele>501</ele>
      </trkpt>
      <trkpt lat="44.50804" lon="5.09743">
        <ele>501</ele>
      </trkpt>
      <trkpt lat="44.50794" lon="5.09734">
        <ele>500</ele>
      </trkpt>
      <trkpt lat="44.50791" lon="5.09726">
        <ele>499</ele>
      </trkpt>
      <trkpt lat="44.50801" lon="5.0968">
        <ele>506</ele>
      </trkpt>
      <trkpt lat="44.50805" lon="5.09659">
        <ele>507</ele>
      </trkpt>
      <trkpt lat="44.50804" lon="5.0965">
        <ele>507</ele>
      </trkpt>
      <trkpt lat="44.50802" lon="5.09642">
        <ele>506</ele>
      </trkpt>
      <trkpt lat="44.50795" lon="5.09635">
        <ele>505</ele>
      </trkpt>
      <trkpt lat="44.50785" lon="5.09632">
        <ele>504</ele>
      </trkpt>
      <trkpt lat="44.50775" lon="5.0964">
        <ele>504</ele>
      </trkpt>
      <trkpt lat="44.50765" lon="5.09656">
        <ele>503</ele>
      </trkpt>
      <trkpt lat="44.50735" lon="5.09692">
        <ele>494</ele>
      </trkpt>
      <trkpt lat="44.50723" lon="5.09702">
        <ele>491</ele>
      </trkpt>
      <trkpt lat="44.50713" lon="5.09707">
        <ele>490</ele>
      </trkpt>
      <trkpt lat="44.50675" lon="5.0972">
        <ele>489</ele>
      </trkpt>
      <trkpt lat="44.50668" lon="5.0973">
        <ele>487</ele>
      </trkpt>
      <trkpt lat="44.50683" lon="5.09742">
        <ele>487</ele>
      </trkpt>
      <trkpt lat="44.50719" lon="5.09777">
        <ele>495</ele>
      </trkpt>
      <trkpt lat="44.50733" lon="5.09782">
        <ele>499</ele>
      </trkpt>
      <trkpt lat="44.50745" lon="5.09783">
        <ele>500</ele>
      </trkpt>
      <trkpt lat="44.50803" lon="5.09783">
        <ele>502</ele>
      </trkpt>
      <trkpt lat="44.50844" lon="5.09778">
        <ele>503</ele>
      </trkpt>
      <trkpt lat="44.50884" lon="5.09762">
        <ele>502</ele>
      </trkpt>
      <trkpt lat="44.50898" lon="5.09751">
        <ele>501</ele>
      </trkpt>
      <trkpt lat="44.50909" lon="5.09738">
        <ele>499</ele>
      </trkpt>
      <trkpt lat="44.50917" lon="5.09725">
        <ele>499</ele>
      </trkpt>
      <trkpt lat="44.50974" lon="5.09587">
        <ele>498</ele>
      </trkpt>
      <trkpt lat="44.50984" lon="5.09546">
        <ele>495</ele>
      </trkpt>
      <trkpt lat="44.50997" lon="5.09426">
        <ele>486</ele>
      </trkpt>
      <trkpt lat="44.51023" lon="5.09333">
        <ele>478</ele>
      </trkpt>
      <trkpt lat="44.51036" lon="5.09256">
        <ele>477</ele>
      </trkpt>
      <trkpt lat="44.51042" lon="5.09248">
        <ele>473</ele>
      </trkpt>
      <trkpt lat="44.51049" lon="5.09247">
        <ele>473</ele>
      </trkpt>
      <trkpt lat="44.51056" lon="5.09252">
        <ele>472</ele>
      </trkpt>
      <trkpt lat="44.51061" lon="5.0926">
        <ele>472</ele>
      </trkpt>
      <trkpt lat="44.51069" lon="5.09308">
        <ele>471</ele>
      </trkpt>
      <trkpt lat="44.51095" lon="5.0943">
        <ele>470</ele>
      </trkpt>
      <trkpt lat="44.5111" lon="5.09481">
        <ele>470</ele>
      </trkpt>
      <trkpt lat="44.51135" lon="5.09527">
        <ele>468</ele>
      </trkpt>
      <trkpt lat="44.51198" lon="5.09604">
        <ele>465</ele>
      </trkpt>
      <trkpt lat="44.51207" lon="5.09613">
        <ele>465</ele>
      </trkpt>
      <trkpt lat="44.51215" lon="5.09616">
        <ele>464</ele>
      </trkpt>
      <trkpt lat="44.51222" lon="5.09612">
        <ele>462</ele>
      </trkpt>
      <trkpt lat="44.51228" lon="5.09603">
        <ele>461</ele>
      </trkpt>
      <trkpt lat="44.5123" lon="5.09592">
        <ele>460</ele>
      </trkpt>
      <trkpt lat="44.51227" lon="5.09548">
        <ele>454</ele>
      </trkpt>
      <trkpt lat="44.51228" lon="5.09503">
        <ele>452</ele>
      </trkpt>
      <trkpt lat="44.51233" lon="5.09475">
        <ele>451</ele>
      </trkpt>
      <trkpt lat="44.51296" lon="5.09304">
        <ele>445</ele>
      </trkpt>
      <trkpt lat="44.513" lon="5.09282">
        <ele>445</ele>
      </trkpt>
      <trkpt lat="44.51324" lon="5.09094">
        <ele>437</ele>
      </trkpt>
      <trkpt lat="44.5133" lon="5.09063">
        <ele>437</ele>
      </trkpt>
      <trkpt lat="44.51341" lon="5.09043">
        <ele>437</ele>
      </trkpt>
      <trkpt lat="44.51353" lon="5.09031">
        <ele>438</ele>
      </trkpt>
      <trkpt lat="44.51395" lon="5.09009">
        <ele>443</ele>
      </trkpt>
      <trkpt lat="44.51411" lon="5.08997">
        <ele>447</ele>
      </trkpt>
      <trkpt lat="44.51422" lon="5.08983">
        <ele>447</ele>
      </trkpt>
      <trkpt lat="44.51468" lon="5.08874">
        <ele>442</ele>
      </trkpt>
      <trkpt lat="44.51491" lon="5.08839">
        <ele>437</ele>
      </trkpt>
      <trkpt lat="44.51553" lon="5.08761">
        <ele>431</ele>
      </trkpt>
      <trkpt lat="44.51565" lon="5.0874">
        <ele>430</ele>
      </trkpt>
      <trkpt lat="44.51572" lon="5.08716">
        <ele>430</ele>
      </trkpt>
      <trkpt lat="44.51575" lon="5.08692">
        <ele>429</ele>
      </trkpt>
      <trkpt lat="44.51583" lon="5.08512">
        <ele>429</ele>
      </trkpt>
      <trkpt lat="44.51586" lon="5.08486">
        <ele>428</ele>
      </trkpt>
      <trkpt lat="44.51592" lon="5.08461">
        <ele>426</ele>
      </trkpt>
      <trkpt lat="44.51606" lon="5.08417">
        <ele>424</ele>
      </trkpt>
      <trkpt lat="44.51669" lon="5.08237">
        <ele>408</ele>
      </trkpt>
      <trkpt lat="44.51694" lon="5.08171">
        <ele>412</ele>
      </trkpt>
      <trkpt lat="44.51729" lon="5.0809">
        <ele>413</ele>
      </trkpt>
      <trkpt lat="44.51742" lon="5.08062">
        <ele>413</ele>
      </trkpt>
      <trkpt lat="44.51753" lon="5.08044">
        <ele>413</ele>
      </trkpt>
      <trkpt lat="44.51818" lon="5.07966">
        <ele>415</ele>
      </trkpt>
      <trkpt lat="44.51834" lon="5.07937">
        <ele>413</ele>
      </trkpt>
      <trkpt lat="44.51839" lon="5.07925">
        <ele>413</ele>
      </trkpt>
      <trkpt lat="44.51858" lon="5.07856">
        <ele>416</ele>
      </trkpt>
      <trkpt lat="44.5188" lon="5.07807">
        <ele>420</ele>
      </trkpt>
      <trkpt lat="44.51901" lon="5.0775">
        <ele>419</ele>
      </trkpt>
      <trkpt lat="44.51937" lon="5.07556">
        <ele>425</ele>
      </trkpt>
      <trkpt lat="44.52005" lon="5.07275">
        <ele>411</ele>
      </trkpt>
      <trkpt lat="44.52022" lon="5.07188">
        <ele>402</ele>
      </trkpt>
      <trkpt lat="44.52031" lon="5.07163">
        <ele>400</ele>
      </trkpt>
      <trkpt lat="44.52066" lon="5.07089">
        <ele>400</ele>
      </trkpt>
      <trkpt lat="44.52109" lon="5.06933">
        <ele>397</ele>
      </trkpt>
      <trkpt lat="44.52124" lon="5.06895">
        <ele>395</ele>
      </trkpt>
      <trkpt lat="44.52159" lon="5.06818">
        <ele>394</ele>
      </trkpt>
      <trkpt lat="44.5217" lon="5.06778">
        <ele>393</ele>
      </trkpt>
      <trkpt lat="44.5219" lon="5.0667">
        <ele>393</ele>
      </trkpt>
      <trkpt lat="44.52196" lon="5.06659">
        <ele>392</ele>
      </trkpt>
      <trkpt lat="44.5222" lon="5.06626">
        <ele>393</ele>
      </trkpt>
      <trkpt lat="44.5228" lon="5.06578">
        <ele>392</ele>
      </trkpt>
      <trkpt lat="44.5231" lon="5.06559">
        <ele>393</ele>
      </trkpt>
      <trkpt lat="44.52325" lon="5.06551">
        <ele>392</ele>
      </trkpt>
      <trkpt lat="44.52311" lon="5.06537">
        <ele>390</ele>
      </trkpt>
      <trkpt lat="44.52297" lon="5.06524">
        <ele>388</ele>
      </trkpt>
      <trkpt lat="44.52288" lon="5.06517">
        <ele>388</ele>
      </trkpt>
      <trkpt lat="44.52284" lon="5.06511">
        <ele>388</ele>
      </trkpt>
      <trkpt lat="44.52278" lon="5.06485">
        <ele>385</ele>
      </trkpt>
      <trkpt lat="44.52278" lon="5.06465">
        <ele>382</ele>
      </trkpt>
      <trkpt lat="44.52281" lon="5.0643">
        <ele>379</ele>
      </trkpt>
      <trkpt lat="44.52286" lon="5.06413">
        <ele>377</ele>
      </trkpt>
      <trkpt lat="44.52301" lon="5.06384">
        <ele>374</ele>
      </trkpt>
      <trkpt lat="44.52316" lon="5.06357">
        <ele>375</ele>
      </trkpt>
      <trkpt lat="44.52329" lon="5.06329">
        <ele>376</ele>
      </trkpt>
      <trkpt lat="44.52332" lon="5.06321">
        <ele>376</ele>
      </trkpt>
      <trkpt lat="44.52338" lon="5.0632">
        <ele>376</ele>
      </trkpt>
      <trkpt lat="44.5234" lon="5.06313">
        <ele>377</ele>
      </trkpt>
      <trkpt lat="44.52339" lon="5.06308">
        <ele>377</ele>
      </trkpt>
      <trkpt lat="44.52344" lon="5.06305">
        <ele>378</ele>
      </trkpt>
      <trkpt lat="44.52348" lon="5.063">
        <ele>379</ele>
      </trkpt>
      <trkpt lat="44.52447" lon="5.06131">
        <ele>384</ele>
      </trkpt>
      <trkpt lat="44.52451" lon="5.06134">
        <ele>384</ele>
      </trkpt>
      <trkpt lat="44.52457" lon="5.06132">
        <ele>384</ele>
      </trkpt>
      <trkpt lat="44.52459" lon="5.06123">
        <ele>384</ele>
      </trkpt>
      <trkpt lat="44.52457" lon="5.06116">
        <ele>384</ele>
      </trkpt>
      <trkpt lat="44.52469" lon="5.06098">
        <ele>386</ele>
      </trkpt>
      <trkpt lat="44.52478" lon="5.06066">
        <ele>386</ele>
      </trkpt>
      <trkpt lat="44.52501" lon="5.0602">
        <ele>389</ele>
      </trkpt>
      <trkpt lat="44.52507" lon="5.06001">
        <ele>390</ele>
      </trkpt>
      <trkpt lat="44.52513" lon="5.06002">
        <ele>390</ele>
      </trkpt>
      <trkpt lat="44.52544" lon="5.05979">
        <ele>393</ele>
      </trkpt>
      <trkpt lat="44.52603" lon="5.05974">
        <ele>391</ele>
      </trkpt>
      <trkpt lat="44.52619" lon="5.05975">
        <ele>391</ele>
      </trkpt>
      <trkpt lat="44.52641" lon="5.05955">
        <ele>392</ele>
      </trkpt>
      <trkpt lat="44.52731" lon="5.05887">
        <ele>402</ele>
      </trkpt>
      <trkpt lat="44.52733" lon="5.05869">
        <ele>403</ele>
      </trkpt>
      <trkpt lat="44.52745" lon="5.05832">
        <ele>409</ele>
      </trkpt>
      <trkpt lat="44.52754" lon="5.05761">
        <ele>410</ele>
      </trkpt>
      <trkpt lat="44.52764" lon="5.05706">
        <ele>412</ele>
      </trkpt>
      <trkpt lat="44.52768" lon="5.05691">
        <ele>413</ele>
      </trkpt>
      <trkpt lat="44.52796" lon="5.05639">
        <ele>415</ele>
      </trkpt>
      <trkpt lat="44.52822" lon="5.05583">
        <ele>417</ele>
      </trkpt>
      <trkpt lat="44.5285" lon="5.05539">
        <ele>416</ele>
      </trkpt>
      <trkpt lat="44.52872" lon="5.05507">
        <ele>415</ele>
      </trkpt>
      <trkpt lat="44.52885" lon="5.05439">
        <ele>416</ele>
      </trkpt>
      <trkpt lat="44.52888" lon="5.05381">
        <ele>419</ele>
      </trkpt>
      <trkpt lat="44.52881" lon="5.05366">
        <ele>419</ele>
      </trkpt>
      <trkpt lat="44.52858" lon="5.0534">
        <ele>420</ele>
      </trkpt>
      <trkpt lat="44.52833" lon="5.0527">
        <ele>425</ele>
      </trkpt>
      <trkpt lat="44.52817" lon="5.0525">
        <ele>424</ele>
      </trkpt>
      <trkpt lat="44.52765" lon="5.05193">
        <ele>424</ele>
      </trkpt>
      <trkpt lat="44.52712" lon="5.05139">
        <ele>425</ele>
      </trkpt>
      <trkpt lat="44.52677" lon="5.05113">
        <ele>420</ele>
      </trkpt>
      <trkpt lat="44.52625" lon="5.0503">
        <ele>424</ele>
      </trkpt>
      <trkpt lat="44.52609" lon="5.04995">
        <ele>426</ele>
      </trkpt>
      <trkpt lat="44.52584" lon="5.04901">
        <ele>429</ele>
      </trkpt>
      <trkpt lat="44.52573" lon="5.04852">
        <ele>430</ele>
      </trkpt>
      <trkpt lat="44.5257" lon="5.04819">
        <ele>424</ele>
      </trkpt>
      <trkpt lat="44.52569" lon="5.04774">
        <ele>422</ele>
      </trkpt>
      <trkpt lat="44.5258" lon="5.04701">
        <ele>425</ele>
      </trkpt>
      <trkpt lat="44.52611" lon="5.04615">
        <ele>421</ele>
      </trkpt>
      <trkpt lat="44.52631" lon="5.04576">
        <ele>416</ele>
      </trkpt>
      <trkpt lat="44.52696" lon="5.04513">
        <ele>411</ele>
      </trkpt>
      <trkpt lat="44.52722" lon="5.04481">
        <ele>409</ele>
      </trkpt>
      <trkpt lat="44.52747" lon="5.04426">
        <ele>404</ele>
      </trkpt>
      <trkpt lat="44.52762" lon="5.04376">
        <ele>398</ele>
      </trkpt>
      <trkpt lat="44.52772" lon="5.04298">
        <ele>392</ele>
      </trkpt>
      <trkpt lat="44.52761" lon="5.0424">
        <ele>393</ele>
      </trkpt>
      <trkpt lat="44.52744" lon="5.04174">
        <ele>394</ele>
      </trkpt>
      <trkpt lat="44.52737" lon="5.0413">
        <ele>393</ele>
      </trkpt>
      <trkpt lat="44.52744" lon="5.04109">
        <ele>391</ele>
      </trkpt>
      <trkpt lat="44.52802" lon="5.04083">
        <ele>383</ele>
      </trkpt>
      <trkpt lat="44.52843" lon="5.04067">
        <ele>378</ele>
      </trkpt>
      <trkpt lat="44.52861" lon="5.04041">
        <ele>375</ele>
      </trkpt>
      <trkpt lat="44.52861" lon="5.04016">
        <ele>375</ele>
      </trkpt>
      <trkpt lat="44.52851" lon="5.04006">
        <ele>375</ele>
      </trkpt>
      <trkpt lat="44.52838" lon="5.03999">
        <ele>374</ele>
      </trkpt>
      <trkpt lat="44.52823" lon="5.03996">
        <ele>374</ele>
      </trkpt>
      <trkpt lat="44.52814" lon="5.03989">
        <ele>374</ele>
      </trkpt>
      <trkpt lat="44.52807" lon="5.03972">
        <ele>372</ele>
      </trkpt>
      <trkpt lat="44.52763" lon="5.03823">
        <ele>365</ele>
      </trkpt>
      <trkpt lat="44.52754" lon="5.038">
        <ele>364</ele>
      </trkpt>
      <trkpt lat="44.52709" lon="5.03759">
        <ele>358</ele>
      </trkpt>
      <trkpt lat="44.52705" lon="5.03752">
        <ele>358</ele>
      </trkpt>
      <trkpt lat="44.52702" lon="5.03739">
        <ele>357</ele>
      </trkpt>
      <trkpt lat="44.52699" lon="5.03698">
        <ele>356</ele>
      </trkpt>
      <trkpt lat="44.52693" lon="5.03663">
        <ele>355</ele>
      </trkpt>
      <trkpt lat="44.52686" lon="5.03632">
        <ele>354</ele>
      </trkpt>
      <trkpt lat="44.52673" lon="5.03612">
        <ele>349</ele>
      </trkpt>
      <trkpt lat="44.52664" lon="5.03602">
        <ele>348</ele>
      </trkpt>
      <trkpt lat="44.5256" lon="5.03569">
        <ele>336</ele>
      </trkpt>
      <trkpt lat="44.52564" lon="5.03491">
        <ele>335</ele>
      </trkpt>
      <trkpt lat="44.52565" lon="5.03438">
        <ele>335</ele>
      </trkpt>
      <trkpt lat="44.52569" lon="5.03357">
        <ele>334</ele>
      </trkpt>
      <trkpt lat="44.52585" lon="5.03265">
        <ele>332</ele>
      </trkpt>
      <trkpt lat="44.5259" lon="5.03235">
        <ele>331</ele>
      </trkpt>
      <trkpt lat="44.5259" lon="5.03216">
        <ele>331</ele>
      </trkpt>
      <trkpt lat="44.52594" lon="5.03185">
        <ele>331</ele>
      </trkpt>
      <trkpt lat="44.52599" lon="5.03177">
        <ele>333</ele>
      </trkpt>
      <trkpt lat="44.52612" lon="5.031">
        <ele>333</ele>
      </trkpt>
      <trkpt lat="44.52631" lon="5.03005">
        <ele>335</ele>
      </trkpt>
      <trkpt lat="44.52671" lon="5.02866">
        <ele>332</ele>
      </trkpt>
      <trkpt lat="44.52684" lon="5.02834">
        <ele>330</ele>
      </trkpt>
      <trkpt lat="44.52691" lon="5.02819">
        <ele>329</ele>
      </trkpt>
      <trkpt lat="44.52703" lon="5.02801">
        <ele>328</ele>
      </trkpt>
      <trkpt lat="44.52883" lon="5.02575">
        <ele>328</ele>
      </trkpt>
      <trkpt lat="44.52911" lon="5.02533">
        <ele>328</ele>
      </trkpt>
      <trkpt lat="44.52934" lon="5.02489">
        <ele>328</ele>
      </trkpt>
      <trkpt lat="44.52946" lon="5.02456">
        <ele>327</ele>
      </trkpt>
      <trkpt lat="44.52955" lon="5.02418">
        <ele>326</ele>
      </trkpt>
      <trkpt lat="44.52958" lon="5.02355">
        <ele>324</ele>
      </trkpt>
      <trkpt lat="44.52965" lon="5.021">
        <ele>317</ele>
      </trkpt>
      <trkpt lat="44.52963" lon="5.01975">
        <ele>313</ele>
      </trkpt>
      <trkpt lat="44.52955" lon="5.01681">
        <ele>314</ele>
      </trkpt>
      <trkpt lat="44.52958" lon="5.0166">
        <ele>314</ele>
      </trkpt>
      <trkpt lat="44.53026" lon="5.01415">
        <ele>318</ele>
      </trkpt>
      <trkpt lat="44.53047" lon="5.0133">
        <ele>316</ele>
      </trkpt>
      <trkpt lat="44.5307" lon="5.01254">
        <ele>315</ele>
      </trkpt>
      <trkpt lat="44.53082" lon="5.012">
        <ele>314</ele>
      </trkpt>
      <trkpt lat="44.53102" lon="5.01084">
        <ele>312</ele>
      </trkpt>
      <trkpt lat="44.53114" lon="5.00983">
        <ele>308</ele>
      </trkpt>
      <trkpt lat="44.53122" lon="5.009">
        <ele>308</ele>
      </trkpt>
      <trkpt lat="44.53121" lon="5.00872">
        <ele>308</ele>
      </trkpt>
      <trkpt lat="44.53124" lon="5.00836">
        <ele>309</ele>
      </trkpt>
      <trkpt lat="44.53127" lon="5.00834">
        <ele>309</ele>
      </trkpt>
      <trkpt lat="44.53139" lon="5.0069">
        <ele>304</ele>
      </trkpt>
      <trkpt lat="44.53143" lon="5.00615">
        <ele>302</ele>
      </trkpt>
      <trkpt lat="44.53159" lon="5.00454">
        <ele>301</ele>
      </trkpt>
      <trkpt lat="44.53167" lon="5.00399">
        <ele>301</ele>
      </trkpt>
      <trkpt lat="44.53191" lon="5.00272">
        <ele>301</ele>
      </trkpt>
      <trkpt lat="44.53235" lon="5.00081">
        <ele>297</ele>
      </trkpt>
      <trkpt lat="44.53244" lon="5.00027">
        <ele>299</ele>
      </trkpt>
      <trkpt lat="44.53248" lon="4.99967">
        <ele>296</ele>
      </trkpt>
      <trkpt lat="44.53247" lon="4.9989">
        <ele>294</ele>
      </trkpt>
      <trkpt lat="44.5324" lon="4.99833">
        <ele>295</ele>
      </trkpt>
      <trkpt lat="44.53231" lon="4.99785">
        <ele>292</ele>
      </trkpt>
      <trkpt lat="44.53064" lon="4.99161">
        <ele>287</ele>
      </trkpt>
      <trkpt lat="44.53052" lon="4.99125">
        <ele>290</ele>
      </trkpt>
      <trkpt lat="44.53024" lon="4.99057">
        <ele>289</ele>
      </trkpt>
      <trkpt lat="44.53005" lon="4.99021">
        <ele>287</ele>
      </trkpt>
      <trkpt lat="44.52971" lon="4.98966">
        <ele>286</ele>
      </trkpt>
      <trkpt lat="44.52726" lon="4.9865">
        <ele>287</ele>
      </trkpt>
      <trkpt lat="44.52703" lon="4.9861">
        <ele>287</ele>
      </trkpt>
      <trkpt lat="44.52683" lon="4.98563">
        <ele>289</ele>
      </trkpt>
      <trkpt lat="44.52598" lon="4.98287">
        <ele>279</ele>
      </trkpt>
      <trkpt lat="44.52579" lon="4.98219">
        <ele>279</ele>
      </trkpt>
      <trkpt lat="44.52569" lon="4.98165">
        <ele>277</ele>
      </trkpt>
      <trkpt lat="44.52557" lon="4.98064">
        <ele>275</ele>
      </trkpt>
      <trkpt lat="44.52555" lon="4.97995">
        <ele>273</ele>
      </trkpt>
      <trkpt lat="44.52555" lon="4.97824">
        <ele>266</ele>
      </trkpt>
      <trkpt lat="44.52558" lon="4.97767">
        <ele>266</ele>
      </trkpt>
      <trkpt lat="44.5257" lon="4.97698">
        <ele>265</ele>
      </trkpt>
      <trkpt lat="44.52591" lon="4.97628">
        <ele>265</ele>
      </trkpt>
      <trkpt lat="44.52629" lon="4.9755">
        <ele>263</ele>
      </trkpt>
      <trkpt lat="44.53049" lon="4.96897">
        <ele>264</ele>
      </trkpt>
      <trkpt lat="44.53095" lon="4.96819">
        <ele>269</ele>
      </trkpt>
      <trkpt lat="44.53044" lon="4.96744">
        <ele>255</ele>
      </trkpt>
      <trkpt lat="44.53017" lon="4.96706">
        <ele>258</ele>
      </trkpt>
      <trkpt lat="44.53006" lon="4.96693">
        <ele>262</ele>
      </trkpt>
      <trkpt lat="44.52986" lon="4.96697">
        <ele>261</ele>
      </trkpt>
      <trkpt lat="44.52905" lon="4.96741">
        <ele>263</ele>
      </trkpt>
      <trkpt lat="44.52823" lon="4.96782">
        <ele>260</ele>
        <extensions>
          <visugpx:TrkExtension xmlns:visugpx="https://www.visugpx.com/editgpx/">
            <visugpx:node>1</visugpx:node>
            </visugpx:TrkExtension>
        </extensions>
      </trkpt>
    </trkseg>
  </trk>
  <trk>
    <name><![CDATA[Souspierre_5b]]></name>
    <extensions>
      <line xmlns="http://www.topografix.com/GPX/gpx_style/0/2">
        <color>FF00FF</color>
        <width>4</width>
      </line>
    </extensions>
    <trkseg>
      <trkpt lat="44.5285" lon="4.96725">
        <ele>268</ele>
      </trkpt>
      <trkpt lat="44.5289" lon="4.96734">
        <ele>267</ele>
      </trkpt>
      <trkpt lat="44.52905" lon="4.96741">
        <ele>263</ele>
      </trkpt>
      <trkpt lat="44.52986" lon="4.96697">
        <ele>261</ele>
      </trkpt>
      <trkpt lat="44.53006" lon="4.96693">
        <ele>262</ele>
      </trkpt>
      <trkpt lat="44.53017" lon="4.96706">
        <ele>258</ele>
      </trkpt>
      <trkpt lat="44.53044" lon="4.96744">
        <ele>255</ele>
      </trkpt>
      <trkpt lat="44.53095" lon="4.96819">
        <ele>269</ele>
      </trkpt>
      <trkpt lat="44.53049" lon="4.96897">
        <ele>264</ele>
      </trkpt>
      <trkpt lat="44.52629" lon="4.9755">
        <ele>263</ele>
      </trkpt>
      <trkpt lat="44.52591" lon="4.97628">
        <ele>265</ele>
      </trkpt>
      <trkpt lat="44.5257" lon="4.97698">
        <ele>265</ele>
      </trkpt>
      <trkpt lat="44.52558" lon="4.97767">
        <ele>266</ele>
      </trkpt>
      <trkpt lat="44.52555" lon="4.97824">
        <ele>266</ele>
      </trkpt>
      <trkpt lat="44.52555" lon="4.97995">
        <ele>273</ele>
      </trkpt>
      <trkpt lat="44.52557" lon="4.98064">
        <ele>275</ele>
      </trkpt>
      <trkpt lat="44.52557" lon="4.98101">
        <ele>276</ele>
      </trkpt>
      <trkpt lat="44.52559" lon="4.98139">
        <ele>276</ele>
      </trkpt>
      <trkpt lat="44.52563" lon="4.98167">
        <ele>277</ele>
      </trkpt>
      <trkpt lat="44.52598" lon="4.98287">
        <ele>279</ele>
      </trkpt>
      <trkpt lat="44.52683" lon="4.98563">
        <ele>289</ele>
      </trkpt>
      <trkpt lat="44.52703" lon="4.9861">
        <ele>287</ele>
      </trkpt>
      <trkpt lat="44.52726" lon="4.9865">
        <ele>287</ele>
      </trkpt>
      <trkpt lat="44.52971" lon="4.98966">
        <ele>286</ele>
      </trkpt>
      <trkpt lat="44.53005" lon="4.99021">
        <ele>287</ele>
      </trkpt>
      <trkpt lat="44.53024" lon="4.99057">
        <ele>289</ele>
      </trkpt>
      <trkpt lat="44.53052" lon="4.99125">
        <ele>290</ele>
      </trkpt>
      <trkpt lat="44.53064" lon="4.99161">
        <ele>287</ele>
      </trkpt>
      <trkpt lat="44.53231" lon="4.99785">
        <ele>292</ele>
      </trkpt>
      <trkpt lat="44.5324" lon="4.99833">
        <ele>295</ele>
      </trkpt>
      <trkpt lat="44.53247" lon="4.9989">
        <ele>294</ele>
      </trkpt>
      <trkpt lat="44.53248" lon="4.99967">
        <ele>296</ele>
      </trkpt>
      <trkpt lat="44.53244" lon="5.00027">
        <ele>299</ele>
      </trkpt>
      <trkpt lat="44.53235" lon="5.00081">
        <ele>297</ele>
      </trkpt>
      <trkpt lat="44.53191" lon="5.00272">
        <ele>301</ele>
      </trkpt>
      <trkpt lat="44.53167" lon="5.00399">
        <ele>301</ele>
      </trkpt>
      <trkpt lat="44.53159" lon="5.00454">
        <ele>301</ele>
      </trkpt>
      <trkpt lat="44.5312" lon="5.00837">
        <ele>309</ele>
      </trkpt>
      <trkpt lat="44.53109" lon="5.00982">
        <ele>308</ele>
      </trkpt>
      <trkpt lat="44.53107" lon="5.01034">
        <ele>310</ele>
      </trkpt>
      <trkpt lat="44.53102" lon="5.01084">
        <ele>312</ele>
      </trkpt>
      <trkpt lat="44.53082" lon="5.012">
        <ele>314</ele>
      </trkpt>
      <trkpt lat="44.5307" lon="5.01254">
        <ele>315</ele>
      </trkpt>
      <trkpt lat="44.53047" lon="5.0133">
        <ele>316</ele>
      </trkpt>
      <trkpt lat="44.53026" lon="5.01415">
        <ele>318</ele>
      </trkpt>
      <trkpt lat="44.52958" lon="5.0166">
        <ele>314</ele>
      </trkpt>
      <trkpt lat="44.52955" lon="5.01681">
        <ele>314</ele>
      </trkpt>
      <trkpt lat="44.52963" lon="5.01975">
        <ele>313</ele>
      </trkpt>
      <trkpt lat="44.52965" lon="5.021">
        <ele>317</ele>
      </trkpt>
      <trkpt lat="44.52958" lon="5.02355">
        <ele>324</ele>
      </trkpt>
      <trkpt lat="44.52955" lon="5.02418">
        <ele>326</ele>
      </trkpt>
      <trkpt lat="44.52946" lon="5.02456">
        <ele>327</ele>
      </trkpt>
      <trkpt lat="44.52934" lon="5.02489">
        <ele>328</ele>
      </trkpt>
      <trkpt lat="44.52911" lon="5.02533">
        <ele>328</ele>
      </trkpt>
      <trkpt lat="44.52881" lon="5.02578">
        <ele>328</ele>
      </trkpt>
      <trkpt lat="44.52703" lon="5.02801">
        <ele>328</ele>
      </trkpt>
      <trkpt lat="44.52691" lon="5.02819">
        <ele>329</ele>
      </trkpt>
      <trkpt lat="44.52684" lon="5.02834">
        <ele>330</ele>
      </trkpt>
      <trkpt lat="44.52671" lon="5.02866">
        <ele>332</ele>
      </trkpt>
      <trkpt lat="44.52619" lon="5.03041">
        <ele>332</ele>
      </trkpt>
      <trkpt lat="44.52604" lon="5.03112">
        <ele>333</ele>
      </trkpt>
      <trkpt lat="44.52593" lon="5.03174">
        <ele>331</ele>
      </trkpt>
      <trkpt lat="44.5258" lon="5.03264">
        <ele>332</ele>
      </trkpt>
      <trkpt lat="44.52569" lon="5.03357">
        <ele>334</ele>
      </trkpt>
      <trkpt lat="44.52555" lon="5.03566">
        <ele>336</ele>
      </trkpt>
      <trkpt lat="44.5256" lon="5.03569">
        <ele>336</ele>
      </trkpt>
      <trkpt lat="44.52664" lon="5.03602">
        <ele>348</ele>
      </trkpt>
      <trkpt lat="44.52673" lon="5.03612">
        <ele>349</ele>
      </trkpt>
      <trkpt lat="44.52686" lon="5.03632">
        <ele>354</ele>
      </trkpt>
      <trkpt lat="44.52693" lon="5.03663">
        <ele>355</ele>
      </trkpt>
      <trkpt lat="44.52699" lon="5.03698">
        <ele>356</ele>
      </trkpt>
      <trkpt lat="44.52702" lon="5.03739">
        <ele>357</ele>
      </trkpt>
      <trkpt lat="44.52705" lon="5.03752">
        <ele>358</ele>
      </trkpt>
      <trkpt lat="44.52709" lon="5.03759">
        <ele>358</ele>
      </trkpt>
      <trkpt lat="44.52754" lon="5.038">
        <ele>364</ele>
      </trkpt>
      <trkpt lat="44.52763" lon="5.03823">
        <ele>365</ele>
      </trkpt>
      <trkpt lat="44.52807" lon="5.03972">
        <ele>372</ele>
      </trkpt>
      <trkpt lat="44.52814" lon="5.03989">
        <ele>374</ele>
      </trkpt>
      <trkpt lat="44.52823" lon="5.03996">
        <ele>374</ele>
      </trkpt>
      <trkpt lat="44.52838" lon="5.03999">
        <ele>374</ele>
      </trkpt>
      <trkpt lat="44.52851" lon="5.04006">
        <ele>375</ele>
      </trkpt>
      <trkpt lat="44.52861" lon="5.04016">
        <ele>375</ele>
      </trkpt>
      <trkpt lat="44.52861" lon="5.04041">
        <ele>375</ele>
      </trkpt>
      <trkpt lat="44.52843" lon="5.04067">
        <ele>378</ele>
      </trkpt>
      <trkpt lat="44.52802" lon="5.04083">
        <ele>383</ele>
      </trkpt>
      <trkpt lat="44.52744" lon="5.04109">
        <ele>391</ele>
      </trkpt>
      <trkpt lat="44.52737" lon="5.0413">
        <ele>393</ele>
      </trkpt>
      <trkpt lat="44.52744" lon="5.04174">
        <ele>394</ele>
      </trkpt>
      <trkpt lat="44.52761" lon="5.0424">
        <ele>393</ele>
      </trkpt>
      <trkpt lat="44.52772" lon="5.04298">
        <ele>392</ele>
      </trkpt>
      <trkpt lat="44.52762" lon="5.04376">
        <ele>398</ele>
      </trkpt>
      <trkpt lat="44.52747" lon="5.04426">
        <ele>404</ele>
      </trkpt>
      <trkpt lat="44.52722" lon="5.04481">
        <ele>409</ele>
      </trkpt>
      <trkpt lat="44.52696" lon="5.04513">
        <ele>411</ele>
      </trkpt>
      <trkpt lat="44.52631" lon="5.04576">
        <ele>416</ele>
      </trkpt>
      <trkpt lat="44.52611" lon="5.04615">
        <ele>421</ele>
      </trkpt>
      <trkpt lat="44.5258" lon="5.04701">
        <ele>425</ele>
      </trkpt>
      <trkpt lat="44.52569" lon="5.04774">
        <ele>422</ele>
      </trkpt>
      <trkpt lat="44.5257" lon="5.04819">
        <ele>424</ele>
      </trkpt>
      <trkpt lat="44.52573" lon="5.04852">
        <ele>430</ele>
      </trkpt>
      <trkpt lat="44.52584" lon="5.04901">
        <ele>429</ele>
      </trkpt>
      <trkpt lat="44.52609" lon="5.04995">
        <ele>426</ele>
      </trkpt>
      <trkpt lat="44.52625" lon="5.0503">
        <ele>424</ele>
      </trkpt>
      <trkpt lat="44.52677" lon="5.05113">
        <ele>420</ele>
      </trkpt>
      <trkpt lat="44.52712" lon="5.05139">
        <ele>425</ele>
      </trkpt>
      <trkpt lat="44.52765" lon="5.05193">
        <ele>424</ele>
      </trkpt>
      <trkpt lat="44.52817" lon="5.0525">
        <ele>424</ele>
      </trkpt>
      <trkpt lat="44.52833" lon="5.0527">
        <ele>425</ele>
      </trkpt>
      <trkpt lat="44.52858" lon="5.0534">
        <ele>420</ele>
      </trkpt>
      <trkpt lat="44.52881" lon="5.05366">
        <ele>419</ele>
      </trkpt>
      <trkpt lat="44.52888" lon="5.05381">
        <ele>419</ele>
      </trkpt>
      <trkpt lat="44.52885" lon="5.05439">
        <ele>416</ele>
      </trkpt>
      <trkpt lat="44.52872" lon="5.05507">
        <ele>415</ele>
      </trkpt>
      <trkpt lat="44.5285" lon="5.05539">
        <ele>416</ele>
      </trkpt>
      <trkpt lat="44.52822" lon="5.05583">
        <ele>417</ele>
      </trkpt>
      <trkpt lat="44.52796" lon="5.05639">
        <ele>415</ele>
      </trkpt>
      <trkpt lat="44.52768" lon="5.05691">
        <ele>413</ele>
      </trkpt>
      <trkpt lat="44.52764" lon="5.05706">
        <ele>412</ele>
      </trkpt>
      <trkpt lat="44.52754" lon="5.05761">
        <ele>410</ele>
      </trkpt>
      <trkpt lat="44.52745" lon="5.05832">
        <ele>409</ele>
      </trkpt>
      <trkpt lat="44.52733" lon="5.05869">
        <ele>403</ele>
      </trkpt>
      <trkpt lat="44.52731" lon="5.05887">
        <ele>402</ele>
      </trkpt>
      <trkpt lat="44.52641" lon="5.05955">
        <ele>392</ele>
      </trkpt>
      <trkpt lat="44.52619" lon="5.05975">
        <ele>391</ele>
      </trkpt>
      <trkpt lat="44.52603" lon="5.05974">
        <ele>391</ele>
      </trkpt>
      <trkpt lat="44.52544" lon="5.05979">
        <ele>393</ele>
      </trkpt>
      <trkpt lat="44.52536" lon="5.05976">
        <ele>392</ele>
      </trkpt>
      <trkpt lat="44.5251" lon="5.05977">
        <ele>390</ele>
      </trkpt>
      <trkpt lat="44.52505" lon="5.05981">
        <ele>390</ele>
      </trkpt>
      <trkpt lat="44.52503" lon="5.05985">
        <ele>390</ele>
      </trkpt>
      <trkpt lat="44.52503" lon="5.05994">
        <ele>390</ele>
      </trkpt>
      <trkpt lat="44.52507" lon="5.06001">
        <ele>390</ele>
      </trkpt>
      <trkpt lat="44.52501" lon="5.0602">
        <ele>389</ele>
      </trkpt>
      <trkpt lat="44.52478" lon="5.06066">
        <ele>386</ele>
      </trkpt>
      <trkpt lat="44.52469" lon="5.06098">
        <ele>386</ele>
      </trkpt>
      <trkpt lat="44.52457" lon="5.06116">
        <ele>384</ele>
      </trkpt>
      <trkpt lat="44.52452" lon="5.06114">
        <ele>384</ele>
      </trkpt>
      <trkpt lat="44.52447" lon="5.06116">
        <ele>384</ele>
      </trkpt>
      <trkpt lat="44.52445" lon="5.06123">
        <ele>384</ele>
      </trkpt>
      <trkpt lat="44.52447" lon="5.06131">
        <ele>384</ele>
      </trkpt>
      <trkpt lat="44.52348" lon="5.063">
        <ele>379</ele>
      </trkpt>
      <trkpt lat="44.52344" lon="5.06305">
        <ele>378</ele>
      </trkpt>
      <trkpt lat="44.52339" lon="5.06308">
        <ele>377</ele>
      </trkpt>
      <trkpt lat="44.52334" lon="5.06304">
        <ele>378</ele>
      </trkpt>
      <trkpt lat="44.5233" lon="5.06306">
        <ele>377</ele>
      </trkpt>
      <trkpt lat="44.52328" lon="5.06314">
        <ele>376</ele>
      </trkpt>
      <trkpt lat="44.52332" lon="5.06321">
        <ele>376</ele>
      </trkpt>
      <trkpt lat="44.52329" lon="5.06329">
        <ele>376</ele>
      </trkpt>
      <trkpt lat="44.52316" lon="5.06357">
        <ele>375</ele>
      </trkpt>
      <trkpt lat="44.52301" lon="5.06384">
        <ele>374</ele>
      </trkpt>
      <trkpt lat="44.52286" lon="5.06413">
        <ele>377</ele>
      </trkpt>
      <trkpt lat="44.52281" lon="5.0643">
        <ele>379</ele>
      </trkpt>
      <trkpt lat="44.52278" lon="5.06465">
        <ele>382</ele>
      </trkpt>
      <trkpt lat="44.52278" lon="5.06485">
        <ele>385</ele>
      </trkpt>
      <trkpt lat="44.52284" lon="5.06511">
        <ele>388</ele>
      </trkpt>
      <trkpt lat="44.52288" lon="5.06517">
        <ele>388</ele>
      </trkpt>
      <trkpt lat="44.52297" lon="5.06524">
        <ele>388</ele>
      </trkpt>
      <trkpt lat="44.52311" lon="5.06537">
        <ele>390</ele>
      </trkpt>
      <trkpt lat="44.52308" lon="5.06552">
        <ele>391</ele>
      </trkpt>
      <trkpt lat="44.5231" lon="5.06559">
        <ele>393</ele>
      </trkpt>
      <trkpt lat="44.5228" lon="5.06578">
        <ele>392</ele>
      </trkpt>
      <trkpt lat="44.5222" lon="5.06626">
        <ele>393</ele>
      </trkpt>
      <trkpt lat="44.52196" lon="5.06659">
        <ele>392</ele>
      </trkpt>
      <trkpt lat="44.5219" lon="5.0667">
        <ele>393</ele>
      </trkpt>
      <trkpt lat="44.5217" lon="5.06778">
        <ele>393</ele>
      </trkpt>
      <trkpt lat="44.52159" lon="5.06818">
        <ele>394</ele>
      </trkpt>
      <trkpt lat="44.52124" lon="5.06895">
        <ele>395</ele>
      </trkpt>
      <trkpt lat="44.52109" lon="5.06933">
        <ele>397</ele>
      </trkpt>
      <trkpt lat="44.52066" lon="5.07089">
        <ele>400</ele>
      </trkpt>
      <trkpt lat="44.52031" lon="5.07163">
        <ele>400</ele>
      </trkpt>
      <trkpt lat="44.52022" lon="5.07188">
        <ele>402</ele>
      </trkpt>
      <trkpt lat="44.52005" lon="5.07275">
        <ele>411</ele>
      </trkpt>
      <trkpt lat="44.51937" lon="5.07556">
        <ele>425</ele>
      </trkpt>
      <trkpt lat="44.51901" lon="5.0775">
        <ele>419</ele>
      </trkpt>
      <trkpt lat="44.5188" lon="5.07807">
        <ele>420</ele>
      </trkpt>
      <trkpt lat="44.51858" lon="5.07856">
        <ele>416</ele>
      </trkpt>
      <trkpt lat="44.51839" lon="5.07925">
        <ele>413</ele>
      </trkpt>
      <trkpt lat="44.51834" lon="5.07937">
        <ele>413</ele>
      </trkpt>
      <trkpt lat="44.51818" lon="5.07966">
        <ele>415</ele>
      </trkpt>
      <trkpt lat="44.51753" lon="5.08044">
        <ele>413</ele>
      </trkpt>
      <trkpt lat="44.51742" lon="5.08062">
        <ele>413</ele>
      </trkpt>
      <trkpt lat="44.51729" lon="5.0809">
        <ele>413</ele>
      </trkpt>
      <trkpt lat="44.51694" lon="5.08171">
        <ele>412</ele>
      </trkpt>
      <trkpt lat="44.51669" lon="5.08237">
        <ele>408</ele>
      </trkpt>
      <trkpt lat="44.51606" lon="5.08417">
        <ele>424</ele>
      </trkpt>
      <trkpt lat="44.51592" lon="5.08461">
        <ele>426</ele>
      </trkpt>
      <trkpt lat="44.51586" lon="5.08486">
        <ele>428</ele>
      </trkpt>
      <trkpt lat="44.51583" lon="5.08512">
        <ele>429</ele>
      </trkpt>
      <trkpt lat="44.51575" lon="5.08692">
        <ele>429</ele>
      </trkpt>
      <trkpt lat="44.51572" lon="5.08716">
        <ele>430</ele>
      </trkpt>
      <trkpt lat="44.51565" lon="5.0874">
        <ele>430</ele>
      </trkpt>
      <trkpt lat="44.51553" lon="5.08761">
        <ele>431</ele>
      </trkpt>
      <trkpt lat="44.51491" lon="5.08839">
        <ele>437</ele>
      </trkpt>
      <trkpt lat="44.51468" lon="5.08874">
        <ele>442</ele>
      </trkpt>
      <trkpt lat="44.51422" lon="5.08983">
        <ele>447</ele>
      </trkpt>
      <trkpt lat="44.51411" lon="5.08997">
        <ele>447</ele>
      </trkpt>
      <trkpt lat="44.51395" lon="5.09009">
        <ele>443</ele>
      </trkpt>
      <trkpt lat="44.51353" lon="5.09031">
        <ele>438</ele>
      </trkpt>
      <trkpt lat="44.51341" lon="5.09043">
        <ele>437</ele>
      </trkpt>
      <trkpt lat="44.5133" lon="5.09063">
        <ele>437</ele>
      </trkpt>
      <trkpt lat="44.51324" lon="5.09094">
        <ele>437</ele>
      </trkpt>
      <trkpt lat="44.513" lon="5.09282">
        <ele>445</ele>
      </trkpt>
      <trkpt lat="44.51296" lon="5.09304">
        <ele>445</ele>
      </trkpt>
      <trkpt lat="44.51233" lon="5.09475">
        <ele>451</ele>
      </trkpt>
      <trkpt lat="44.51228" lon="5.09503">
        <ele>452</ele>
      </trkpt>
      <trkpt lat="44.51227" lon="5.09548">
        <ele>454</ele>
      </trkpt>
      <trkpt lat="44.5123" lon="5.09592">
        <ele>460</ele>
      </trkpt>
      <trkpt lat="44.51228" lon="5.09603">
        <ele>461</ele>
      </trkpt>
      <trkpt lat="44.51222" lon="5.09612">
        <ele>462</ele>
      </trkpt>
      <trkpt lat="44.51215" lon="5.09616">
        <ele>464</ele>
      </trkpt>
      <trkpt lat="44.51207" lon="5.09613">
        <ele>465</ele>
      </trkpt>
      <trkpt lat="44.51198" lon="5.09604">
        <ele>465</ele>
      </trkpt>
      <trkpt lat="44.51135" lon="5.09527">
        <ele>468</ele>
      </trkpt>
      <trkpt lat="44.5111" lon="5.09481">
        <ele>470</ele>
      </trkpt>
      <trkpt lat="44.51095" lon="5.0943">
        <ele>470</ele>
      </trkpt>
      <trkpt lat="44.51069" lon="5.09308">
        <ele>471</ele>
      </trkpt>
      <trkpt lat="44.51061" lon="5.0926">
        <ele>472</ele>
      </trkpt>
      <trkpt lat="44.51056" lon="5.09252">
        <ele>472</ele>
      </trkpt>
      <trkpt lat="44.51049" lon="5.09247">
        <ele>473</ele>
      </trkpt>
      <trkpt lat="44.51042" lon="5.09248">
        <ele>473</ele>
      </trkpt>
      <trkpt lat="44.51036" lon="5.09256">
        <ele>477</ele>
      </trkpt>
      <trkpt lat="44.51023" lon="5.09333">
        <ele>478</ele>
      </trkpt>
      <trkpt lat="44.50997" lon="5.09426">
        <ele>486</ele>
      </trkpt>
      <trkpt lat="44.50984" lon="5.09546">
        <ele>495</ele>
      </trkpt>
      <trkpt lat="44.50974" lon="5.09587">
        <ele>498</ele>
      </trkpt>
      <trkpt lat="44.50917" lon="5.09725">
        <ele>499</ele>
      </trkpt>
      <trkpt lat="44.50909" lon="5.09738">
        <ele>499</ele>
      </trkpt>
      <trkpt lat="44.50898" lon="5.09751">
        <ele>501</ele>
      </trkpt>
      <trkpt lat="44.50884" lon="5.09762">
        <ele>502</ele>
      </trkpt>
      <trkpt lat="44.50844" lon="5.09778">
        <ele>503</ele>
      </trkpt>
      <trkpt lat="44.50803" lon="5.09783">
        <ele>502</ele>
      </trkpt>
      <trkpt lat="44.50745" lon="5.09783">
        <ele>500</ele>
      </trkpt>
      <trkpt lat="44.50733" lon="5.09782">
        <ele>499</ele>
      </trkpt>
      <trkpt lat="44.50719" lon="5.09777">
        <ele>495</ele>
      </trkpt>
      <trkpt lat="44.50713" lon="5.09784">
        <ele>499</ele>
      </trkpt>
      <trkpt lat="44.50703" lon="5.09785">
        <ele>498</ele>
      </trkpt>
      <trkpt lat="44.50577" lon="5.0979">
        <ele>493</ele>
      </trkpt>
      <trkpt lat="44.50513" lon="5.098">
        <ele>487</ele>
      </trkpt>
      <trkpt lat="44.50498" lon="5.09806">
        <ele>486</ele>
      </trkpt>
      <trkpt lat="44.50492" lon="5.09818">
        <ele>490</ele>
      </trkpt>
      <trkpt lat="44.50488" lon="5.09839">
        <ele>492</ele>
      </trkpt>
      <trkpt lat="44.50494" lon="5.09953">
        <ele>497</ele>
      </trkpt>
      <trkpt lat="44.50495" lon="5.09989">
        <ele>497</ele>
      </trkpt>
      <trkpt lat="44.50483" lon="5.1008">
        <ele>487</ele>
      </trkpt>
      <trkpt lat="44.50456" lon="5.10268">
        <ele>480</ele>
      </trkpt>
      <trkpt lat="44.50433" lon="5.10409">
        <ele>477</ele>
      </trkpt>
      <trkpt lat="44.50336" lon="5.10855">
        <ele>482</ele>
      </trkpt>
      <trkpt lat="44.50318" lon="5.10893">
        <ele>481</ele>
      </trkpt>
      <trkpt lat="44.50219" lon="5.11014">
        <ele>482</ele>
      </trkpt>
      <trkpt lat="44.50136" lon="5.11123">
        <ele>479</ele>
      </trkpt>
      <trkpt lat="44.50104" lon="5.11158">
        <ele>476</ele>
      </trkpt>
      <trkpt lat="44.5003" lon="5.11258">
        <ele>481</ele>
      </trkpt>
      <trkpt lat="44.50013" lon="5.11286">
        <ele>484</ele>
      </trkpt>
      <trkpt lat="44.49959" lon="5.114">
        <ele>489</ele>
      </trkpt>
      <trkpt lat="44.49948" lon="5.11419">
        <ele>487</ele>
      </trkpt>
      <trkpt lat="44.49945" lon="5.11421">
        <ele>487</ele>
      </trkpt>
      <trkpt lat="44.49753" lon="5.11464">
        <ele>479</ele>
      </trkpt>
      <trkpt lat="44.49712" lon="5.1148">
        <ele>481</ele>
      </trkpt>
      <trkpt lat="44.4968" lon="5.11498">
        <ele>483</ele>
      </trkpt>
      <trkpt lat="44.49659" lon="5.11505">
        <ele>483</ele>
      </trkpt>
      <trkpt lat="44.4965" lon="5.11506">
        <ele>484</ele>
      </trkpt>
      <trkpt lat="44.49646" lon="5.11507">
        <ele>484</ele>
      </trkpt>
      <trkpt lat="44.49564" lon="5.11538">
        <ele>488</ele>
      </trkpt>
      <trkpt lat="44.49552" lon="5.11545">
        <ele>489</ele>
      </trkpt>
      <trkpt lat="44.49532" lon="5.11562">
        <ele>491</ele>
      </trkpt>
      <trkpt lat="44.4945" lon="5.11664">
        <ele>496</ele>
      </trkpt>
      <trkpt lat="44.49435" lon="5.1168">
        <ele>501</ele>
      </trkpt>
      <trkpt lat="44.49414" lon="5.11694">
        <ele>497</ele>
      </trkpt>
      <trkpt lat="44.49251" lon="5.11763">
        <ele>506</ele>
      </trkpt>
      <trkpt lat="44.49212" lon="5.11778">
        <ele>506</ele>
      </trkpt>
      <trkpt lat="44.49183" lon="5.11792">
        <ele>512</ele>
      </trkpt>
      <trkpt lat="44.48883" lon="5.11956">
        <ele>515</ele>
      </trkpt>
      <trkpt lat="44.48837" lon="5.11978">
        <ele>511</ele>
      </trkpt>
      <trkpt lat="44.48818" lon="5.1199">
        <ele>508</ele>
      </trkpt>
      <trkpt lat="44.48808" lon="5.12">
        <ele>509</ele>
      </trkpt>
      <trkpt lat="44.48795" lon="5.12024">
        <ele>510</ele>
      </trkpt>
      <trkpt lat="44.48701" lon="5.1226">
        <ele>508</ele>
      </trkpt>
      <trkpt lat="44.48489" lon="5.12579">
        <ele>528</ele>
      </trkpt>
      <trkpt lat="44.48478" lon="5.126">
        <ele>526</ele>
      </trkpt>
      <trkpt lat="44.48438" lon="5.12708">
        <ele>535</ele>
      </trkpt>
      <trkpt lat="44.48425" lon="5.12732">
        <ele>535</ele>
      </trkpt>
      <trkpt lat="44.48417" lon="5.12746">
        <ele>535</ele>
      </trkpt>
      <trkpt lat="44.48406" lon="5.12757">
        <ele>544</ele>
      </trkpt>
      <trkpt lat="44.4839" lon="5.1277">
        <ele>537</ele>
      </trkpt>
      <trkpt lat="44.48371" lon="5.12782">
        <ele>538</ele>
      </trkpt>
      <trkpt lat="44.48313" lon="5.12803">
        <ele>523</ele>
      </trkpt>
      <trkpt lat="44.48292" lon="5.12809">
        <ele>522</ele>
      </trkpt>
      <trkpt lat="44.48173" lon="5.12848">
        <ele>539</ele>
      </trkpt>
      <trkpt lat="44.47924" lon="5.12878">
        <ele>541</ele>
      </trkpt>
      <trkpt lat="44.47873" lon="5.12885">
        <ele>542</ele>
      </trkpt>
      <trkpt lat="44.47654" lon="5.13025">
        <ele>552</ele>
      </trkpt>
      <trkpt lat="44.47614" lon="5.13049">
        <ele>549</ele>
      </trkpt>
      <trkpt lat="44.47539" lon="5.13149">
        <ele>552</ele>
      </trkpt>
      <trkpt lat="44.47486" lon="5.13237">
        <ele>564</ele>
      </trkpt>
      <trkpt lat="44.47414" lon="5.13307">
        <ele>559</ele>
      </trkpt>
      <trkpt lat="44.47294" lon="5.13393">
        <ele>565</ele>
      </trkpt>
      <trkpt lat="44.47137" lon="5.13598">
        <ele>563</ele>
      </trkpt>
      <trkpt lat="44.47111" lon="5.13618">
        <ele>559</ele>
      </trkpt>
      <trkpt lat="44.47079" lon="5.13622">
        <ele>556</ele>
      </trkpt>
      <trkpt lat="44.47034" lon="5.1361">
        <ele>550</ele>
      </trkpt>
      <trkpt lat="44.47018" lon="5.13609">
        <ele>550</ele>
      </trkpt>
      <trkpt lat="44.47002" lon="5.13621">
        <ele>551</ele>
      </trkpt>
      <trkpt lat="44.46954" lon="5.13709">
        <ele>554</ele>
      </trkpt>
      <trkpt lat="44.46897" lon="5.13863">
        <ele>560</ele>
      </trkpt>
      <trkpt lat="44.46784" lon="5.14019">
        <ele>564</ele>
      </trkpt>
      <trkpt lat="44.46545" lon="5.14204">
        <ele>568</ele>
      </trkpt>
      <trkpt lat="44.46496" lon="5.14259">
        <ele>569</ele>
      </trkpt>
      <trkpt lat="44.46407" lon="5.1451">
        <ele>574</ele>
      </trkpt>
      <trkpt lat="44.46323" lon="5.14686">
        <ele>577</ele>
      </trkpt>
      <trkpt lat="44.46299" lon="5.14722">
        <ele>579</ele>
      </trkpt>
      <trkpt lat="44.46283" lon="5.14727">
        <ele>581</ele>
      </trkpt>
      <trkpt lat="44.4622" lon="5.14708">
        <ele>583</ele>
      </trkpt>
      <trkpt lat="44.46191" lon="5.1474">
        <ele>581</ele>
      </trkpt>
      <trkpt lat="44.4618" lon="5.14753">
        <ele>581</ele>
      </trkpt>
      <trkpt lat="44.4608" lon="5.14865">
        <ele>588</ele>
      </trkpt>
      <trkpt lat="44.46052" lon="5.14924">
        <ele>586</ele>
      </trkpt>
      <trkpt lat="44.45983" lon="5.15009">
        <ele>589</ele>
      </trkpt>
      <trkpt lat="44.45912" lon="5.15066">
        <ele>593</ele>
      </trkpt>
      <trkpt lat="44.45863" lon="5.15097">
        <ele>594</ele>
      </trkpt>
      <trkpt lat="44.45829" lon="5.15103">
        <ele>598</ele>
      </trkpt>
      <trkpt lat="44.45811" lon="5.15116">
        <ele>598</ele>
      </trkpt>
      <trkpt lat="44.45769" lon="5.15168">
        <ele>597</ele>
      </trkpt>
      <trkpt lat="44.45717" lon="5.15253">
        <ele>597</ele>
      </trkpt>
      <trkpt lat="44.45701" lon="5.15271">
        <ele>598</ele>
      </trkpt>
      <trkpt lat="44.45685" lon="5.15282">
        <ele>597</ele>
      </trkpt>
      <trkpt lat="44.45668" lon="5.15287">
        <ele>597</ele>
      </trkpt>
      <trkpt lat="44.45543" lon="5.15299">
        <ele>606</ele>
      </trkpt>
      <trkpt lat="44.45446" lon="5.1529">
        <ele>609</ele>
      </trkpt>
      <trkpt lat="44.45301" lon="5.15253">
        <ele>611</ele>
      </trkpt>
      <trkpt lat="44.45264" lon="5.15249">
        <ele>613</ele>
      </trkpt>
      <trkpt lat="44.4525" lon="5.15262">
        <ele>614</ele>
      </trkpt>
      <trkpt lat="44.4525" lon="5.15337">
        <ele>614</ele>
      </trkpt>
      <trkpt lat="44.45255" lon="5.15367">
        <ele>616</ele>
      </trkpt>
      <trkpt lat="44.45265" lon="5.1538">
        <ele>616</ele>
      </trkpt>
      <trkpt lat="44.45287" lon="5.15399">
        <ele>618</ele>
      </trkpt>
      <trkpt lat="44.45299" lon="5.15412">
        <ele>617</ele>
      </trkpt>
      <trkpt lat="44.45312" lon="5.1543">
        <ele>618</ele>
      </trkpt>
      <trkpt lat="44.45323" lon="5.15451">
        <ele>619</ele>
      </trkpt>
      <trkpt lat="44.45337" lon="5.15467">
        <ele>619</ele>
      </trkpt>
      <trkpt lat="44.45352" lon="5.15474">
        <ele>618</ele>
      </trkpt>
      <trkpt lat="44.45407" lon="5.15487">
        <ele>619</ele>
      </trkpt>
      <trkpt lat="44.45416" lon="5.15492">
        <ele>620</ele>
      </trkpt>
      <trkpt lat="44.45423" lon="5.15498">
        <ele>619</ele>
      </trkpt>
      <trkpt lat="44.45429" lon="5.15509">
        <ele>622</ele>
      </trkpt>
      <trkpt lat="44.45437" lon="5.15551">
        <ele>625</ele>
      </trkpt>
      <trkpt lat="44.45441" lon="5.15561">
        <ele>628</ele>
      </trkpt>
      <trkpt lat="44.45447" lon="5.15568">
        <ele>629</ele>
      </trkpt>
      <trkpt lat="44.45459" lon="5.15575">
        <ele>628</ele>
      </trkpt>
      <trkpt lat="44.45471" lon="5.1558">
        <ele>628</ele>
      </trkpt>
      <trkpt lat="44.45493" lon="5.15582">
        <ele>627</ele>
      </trkpt>
      <trkpt lat="44.4551" lon="5.15589">
        <ele>631</ele>
      </trkpt>
      <trkpt lat="44.45555" lon="5.15622">
        <ele>637</ele>
      </trkpt>
      <trkpt lat="44.45592" lon="5.15629">
        <ele>633</ele>
      </trkpt>
      <trkpt lat="44.45606" lon="5.15648">
        <ele>632</ele>
      </trkpt>
      <trkpt lat="44.45617" lon="5.15679">
        <ele>635</ele>
      </trkpt>
      <trkpt lat="44.45623" lon="5.15742">
        <ele>639</ele>
      </trkpt>
      <trkpt lat="44.45612" lon="5.15781">
        <ele>643</ele>
      </trkpt>
      <trkpt lat="44.45623" lon="5.15812">
        <ele>646</ele>
      </trkpt>
      <trkpt lat="44.45654" lon="5.15855">
        <ele>641</ele>
      </trkpt>
      <trkpt lat="44.45699" lon="5.15956">
        <ele>645</ele>
      </trkpt>
      <trkpt lat="44.45707" lon="5.16002">
        <ele>646</ele>
      </trkpt>
      <trkpt lat="44.4571" lon="5.16049">
        <ele>648</ele>
      </trkpt>
      <trkpt lat="44.45728" lon="5.16101">
        <ele>654</ele>
      </trkpt>
      <trkpt lat="44.4574" lon="5.16163">
        <ele>650</ele>
      </trkpt>
      <trkpt lat="44.45751" lon="5.16283">
        <ele>659</ele>
      </trkpt>
      <trkpt lat="44.4577" lon="5.16341">
        <ele>654</ele>
      </trkpt>
      <trkpt lat="44.4575" lon="5.16401">
        <ele>660</ele>
      </trkpt>
      <trkpt lat="44.45727" lon="5.16423">
        <ele>669</ele>
      </trkpt>
      <trkpt lat="44.45692" lon="5.16479">
        <ele>683</ele>
      </trkpt>
      <trkpt lat="44.45697" lon="5.16493">
        <ele>683</ele>
      </trkpt>
      <trkpt lat="44.45729" lon="5.16499">
        <ele>682</ele>
      </trkpt>
      <trkpt lat="44.45766" lon="5.16517">
        <ele>692</ele>
      </trkpt>
      <trkpt lat="44.45815" lon="5.16475">
        <ele>672</ele>
      </trkpt>
      <trkpt lat="44.45834" lon="5.16481">
        <ele>671</ele>
      </trkpt>
      <trkpt lat="44.4586" lon="5.16532">
        <ele>669</ele>
      </trkpt>
      <trkpt lat="44.45855" lon="5.16572">
        <ele>673</ele>
      </trkpt>
      <trkpt lat="44.45848" lon="5.16599">
        <ele>677</ele>
      </trkpt>
      <trkpt lat="44.45856" lon="5.16748">
        <ele>698</ele>
      </trkpt>
      <trkpt lat="44.45868" lon="5.16771">
        <ele>701</ele>
      </trkpt>
      <trkpt lat="44.45893" lon="5.16775">
        <ele>699</ele>
      </trkpt>
      <trkpt lat="44.45948" lon="5.16831">
        <ele>699</ele>
      </trkpt>
      <trkpt lat="44.45987" lon="5.16838">
        <ele>697</ele>
      </trkpt>
      <trkpt lat="44.46002" lon="5.16866">
        <ele>707</ele>
      </trkpt>
      <trkpt lat="44.46042" lon="5.16913">
        <ele>707</ele>
      </trkpt>
      <trkpt lat="44.46083" lon="5.16931">
        <ele>710</ele>
      </trkpt>
      <trkpt lat="44.46171" lon="5.16982">
        <ele>708</ele>
      </trkpt>
      <trkpt lat="44.46235" lon="5.17068">
        <ele>705</ele>
      </trkpt>
      <trkpt lat="44.46237" lon="5.1708">
        <ele>702</ele>
      </trkpt>
      <trkpt lat="44.46233" lon="5.17094">
        <ele>707</ele>
      </trkpt>
      <trkpt lat="44.4621" lon="5.17129">
        <ele>710</ele>
      </trkpt>
      <trkpt lat="44.46191" lon="5.17152">
        <ele>718</ele>
      </trkpt>
      <trkpt lat="44.4619" lon="5.17159">
        <ele>718</ele>
      </trkpt>
      <trkpt lat="44.46194" lon="5.17173">
        <ele>721</ele>
      </trkpt>
      <trkpt lat="44.4624" lon="5.17268">
        <ele>720</ele>
      </trkpt>
      <trkpt lat="44.46255" lon="5.17312">
        <ele>723</ele>
      </trkpt>
      <trkpt lat="44.46271" lon="5.17346">
        <ele>720</ele>
      </trkpt>
      <trkpt lat="44.46275" lon="5.17359">
        <ele>720</ele>
      </trkpt>
      <trkpt lat="44.46272" lon="5.17373">
        <ele>722</ele>
      </trkpt>
      <trkpt lat="44.46253" lon="5.17416">
        <ele>727</ele>
      </trkpt>
      <trkpt lat="44.46243" lon="5.17454">
        <ele>724</ele>
      </trkpt>
      <trkpt lat="44.46239" lon="5.17491">
        <ele>723</ele>
      </trkpt>
      <trkpt lat="44.46217" lon="5.17521">
        <ele>727</ele>
      </trkpt>
      <trkpt lat="44.46186" lon="5.17569">
        <ele>730</ele>
      </trkpt>
      <trkpt lat="44.46176" lon="5.17596">
        <ele>733</ele>
      </trkpt>
      <trkpt lat="44.46158" lon="5.17592">
        <ele>733</ele>
      </trkpt>
      <trkpt lat="44.46128" lon="5.1759">
        <ele>734</ele>
      </trkpt>
      <trkpt lat="44.46096" lon="5.17602">
        <ele>734</ele>
      </trkpt>
      <trkpt lat="44.45938" lon="5.1781">
        <ele>726</ele>
      </trkpt>
      <trkpt lat="44.45904" lon="5.17838">
        <ele>726</ele>
      </trkpt>
      <trkpt lat="44.45894" lon="5.17861">
        <ele>725</ele>
      </trkpt>
      <trkpt lat="44.45902" lon="5.17923">
        <ele>716</ele>
      </trkpt>
      <trkpt lat="44.45905" lon="5.17962">
        <ele>716</ele>
      </trkpt>
      <trkpt lat="44.45901" lon="5.17997">
        <ele>716</ele>
      </trkpt>
      <trkpt lat="44.45886" lon="5.18036">
        <ele>713</ele>
      </trkpt>
      <trkpt lat="44.45885" lon="5.18047">
        <ele>712</ele>
      </trkpt>
      <trkpt lat="44.45893" lon="5.18099">
        <ele>715</ele>
      </trkpt>
      <trkpt lat="44.45904" lon="5.18113">
        <ele>714</ele>
      </trkpt>
      <trkpt lat="44.45916" lon="5.1812">
        <ele>715</ele>
      </trkpt>
      <trkpt lat="44.45924" lon="5.1813">
        <ele>715</ele>
      </trkpt>
      <trkpt lat="44.45926" lon="5.18141">
        <ele>715</ele>
      </trkpt>
      <trkpt lat="44.45925" lon="5.1815">
        <ele>714</ele>
      </trkpt>
      <trkpt lat="44.45912" lon="5.18186">
        <ele>712</ele>
      </trkpt>
      <trkpt lat="44.45898" lon="5.18256">
        <ele>705</ele>
      </trkpt>
      <trkpt lat="44.45888" lon="5.18279">
        <ele>704</ele>
      </trkpt>
      <trkpt lat="44.45883" lon="5.18304">
        <ele>701</ele>
      </trkpt>
      <trkpt lat="44.45881" lon="5.18324">
        <ele>698</ele>
      </trkpt>
      <trkpt lat="44.45874" lon="5.18514">
        <ele>686</ele>
      </trkpt>
      <trkpt lat="44.45876" lon="5.1853">
        <ele>686</ele>
      </trkpt>
      <trkpt lat="44.45888" lon="5.1855">
        <ele>684</ele>
      </trkpt>
      <trkpt lat="44.45897" lon="5.18578">
        <ele>683</ele>
      </trkpt>
      <trkpt lat="44.459" lon="5.186">
        <ele>681</ele>
      </trkpt>
      <trkpt lat="44.45899" lon="5.18628">
        <ele>680</ele>
      </trkpt>
      <trkpt lat="44.45896" lon="5.18653">
        <ele>677</ele>
      </trkpt>
      <trkpt lat="44.4589" lon="5.18673">
        <ele>674</ele>
      </trkpt>
      <trkpt lat="44.45884" lon="5.18686">
        <ele>673</ele>
      </trkpt>
      <trkpt lat="44.45863" lon="5.18703">
        <ele>675</ele>
      </trkpt>
      <trkpt lat="44.45856" lon="5.18711">
        <ele>675</ele>
      </trkpt>
      <trkpt lat="44.45828" lon="5.18794">
        <ele>668</ele>
      </trkpt>
      <trkpt lat="44.45818" lon="5.18815">
        <ele>667</ele>
      </trkpt>
      <trkpt lat="44.4581" lon="5.18825">
        <ele>667</ele>
      </trkpt>
      <trkpt lat="44.45782" lon="5.1884">
        <ele>664</ele>
      </trkpt>
      <trkpt lat="44.45757" lon="5.18856">
        <ele>666</ele>
      </trkpt>
      <trkpt lat="44.45739" lon="5.1888">
        <ele>662</ele>
      </trkpt>
      <trkpt lat="44.45731" lon="5.18916">
        <ele>660</ele>
      </trkpt>
      <trkpt lat="44.45731" lon="5.18945">
        <ele>656</ele>
      </trkpt>
      <trkpt lat="44.45727" lon="5.18962">
        <ele>651</ele>
      </trkpt>
      <trkpt lat="44.4572" lon="5.18971">
        <ele>651</ele>
      </trkpt>
      <trkpt lat="44.45695" lon="5.18985">
        <ele>648</ele>
      </trkpt>
      <trkpt lat="44.45678" lon="5.18992">
        <ele>651</ele>
      </trkpt>
      <trkpt lat="44.4565" lon="5.19016">
        <ele>647</ele>
      </trkpt>
      <trkpt lat="44.45617" lon="5.19049">
        <ele>646</ele>
      </trkpt>
      <trkpt lat="44.45595" lon="5.1906">
        <ele>654</ele>
      </trkpt>
      <trkpt lat="44.45585" lon="5.19076">
        <ele>648</ele>
      </trkpt>
      <trkpt lat="44.45582" lon="5.19099">
        <ele>642</ele>
      </trkpt>
      <trkpt lat="44.45584" lon="5.19129">
        <ele>638</ele>
      </trkpt>
      <trkpt lat="44.45581" lon="5.19146">
        <ele>635</ele>
      </trkpt>
      <trkpt lat="44.45563" lon="5.19175">
        <ele>637</ele>
      </trkpt>
      <trkpt lat="44.4555" lon="5.19235">
        <ele>630</ele>
      </trkpt>
      <trkpt lat="44.45552" lon="5.19268">
        <ele>625</ele>
      </trkpt>
      <trkpt lat="44.45554" lon="5.19284">
        <ele>621</ele>
      </trkpt>
      <trkpt lat="44.45552" lon="5.19299">
        <ele>619</ele>
      </trkpt>
      <trkpt lat="44.45515" lon="5.19374">
        <ele>615</ele>
      </trkpt>
      <trkpt lat="44.45507" lon="5.19405">
        <ele>613</ele>
      </trkpt>
      <trkpt lat="44.45495" lon="5.19424">
        <ele>606</ele>
      </trkpt>
      <trkpt lat="44.45462" lon="5.19458">
        <ele>606</ele>
      </trkpt>
      <trkpt lat="44.45454" lon="5.19475">
        <ele>612</ele>
      </trkpt>
      <trkpt lat="44.45426" lon="5.19565">
        <ele>593</ele>
      </trkpt>
      <trkpt lat="44.45393" lon="5.19632">
        <ele>594</ele>
      </trkpt>
      <trkpt lat="44.45385" lon="5.19659">
        <ele>586</ele>
      </trkpt>
      <trkpt lat="44.45372" lon="5.19681">
        <ele>587</ele>
      </trkpt>
      <trkpt lat="44.4529" lon="5.19746">
        <ele>590</ele>
      </trkpt>
      <trkpt lat="44.4527" lon="5.19753">
        <ele>590</ele>
      </trkpt>
      <trkpt lat="44.45254" lon="5.19762">
        <ele>584</ele>
      </trkpt>
      <trkpt lat="44.45242" lon="5.19782">
        <ele>581</ele>
      </trkpt>
      <trkpt lat="44.45179" lon="5.19821">
        <ele>584</ele>
      </trkpt>
      <trkpt lat="44.45122" lon="5.19868">
        <ele>569</ele>
      </trkpt>
      <trkpt lat="44.45088" lon="5.19885">
        <ele>566</ele>
      </trkpt>
      <trkpt lat="44.45076" lon="5.19886">
        <ele>566</ele>
      </trkpt>
      <trkpt lat="44.45066" lon="5.19878">
        <ele>566</ele>
      </trkpt>
      <trkpt lat="44.45039" lon="5.19843">
        <ele>574</ele>
      </trkpt>
      <trkpt lat="44.45032" lon="5.19841">
        <ele>573</ele>
      </trkpt>
      <trkpt lat="44.45026" lon="5.19844">
        <ele>573</ele>
      </trkpt>
      <trkpt lat="44.45022" lon="5.19853">
        <ele>572</ele>
      </trkpt>
      <trkpt lat="44.45021" lon="5.19897">
        <ele>557</ele>
      </trkpt>
      <trkpt lat="44.45017" lon="5.19909">
        <ele>555</ele>
      </trkpt>
      <trkpt lat="44.45011" lon="5.19914">
        <ele>556</ele>
      </trkpt>
      <trkpt lat="44.44994" lon="5.19912">
        <ele>557</ele>
      </trkpt>
      <trkpt lat="44.44964" lon="5.19892">
        <ele>563</ele>
      </trkpt>
      <trkpt lat="44.44957" lon="5.19888">
        <ele>563</ele>
      </trkpt>
      <trkpt lat="44.44947" lon="5.19888">
        <ele>563</ele>
      </trkpt>
      <trkpt lat="44.44931" lon="5.19895">
        <ele>556</ele>
      </trkpt>
      <trkpt lat="44.44915" lon="5.19897">
        <ele>554</ele>
      </trkpt>
      <trkpt lat="44.44894" lon="5.19891">
        <ele>557</ele>
      </trkpt>
      <trkpt lat="44.44876" lon="5.19894">
        <ele>556</ele>
      </trkpt>
      <trkpt lat="44.44854" lon="5.19904">
        <ele>550</ele>
      </trkpt>
      <trkpt lat="44.4483" lon="5.19903">
        <ele>551</ele>
      </trkpt>
      <trkpt lat="44.44797" lon="5.19918">
        <ele>553</ele>
      </trkpt>
      <trkpt lat="44.44754" lon="5.19969">
        <ele>543</ele>
      </trkpt>
      <trkpt lat="44.44753" lon="5.19976">
        <ele>543</ele>
      </trkpt>
      <trkpt lat="44.44757" lon="5.19981">
        <ele>538</ele>
      </trkpt>
      <trkpt lat="44.44764" lon="5.19981">
        <ele>536</ele>
      </trkpt>
      <trkpt lat="44.44777" lon="5.19964">
        <ele>539</ele>
      </trkpt>
      <trkpt lat="44.44798" lon="5.1995">
        <ele>541</ele>
      </trkpt>
      <trkpt lat="44.44832" lon="5.19954">
        <ele>540</ele>
      </trkpt>
      <trkpt lat="44.44859" lon="5.19968">
        <ele>538</ele>
      </trkpt>
      <trkpt lat="44.44871" lon="5.1999">
        <ele>536</ele>
      </trkpt>
      <trkpt lat="44.44885" lon="5.20007">
        <ele>531</ele>
      </trkpt>
      <trkpt lat="44.44896" lon="5.20011">
        <ele>530</ele>
      </trkpt>
      <trkpt lat="44.44926" lon="5.20001">
        <ele>532</ele>
      </trkpt>
      <trkpt lat="44.44956" lon="5.19998">
        <ele>533</ele>
      </trkpt>
      <trkpt lat="44.44987" lon="5.2001">
        <ele>530</ele>
      </trkpt>
      <trkpt lat="44.45008" lon="5.20029">
        <ele>528</ele>
      </trkpt>
      <trkpt lat="44.4501" lon="5.20039">
        <ele>526</ele>
      </trkpt>
      <trkpt lat="44.45007" lon="5.2005">
        <ele>526</ele>
      </trkpt>
      <trkpt lat="44.44995" lon="5.20055">
        <ele>526</ele>
      </trkpt>
      <trkpt lat="44.44962" lon="5.20059">
        <ele>526</ele>
      </trkpt>
      <trkpt lat="44.4494" lon="5.20069">
        <ele>523</ele>
      </trkpt>
      <trkpt lat="44.44932" lon="5.2008">
        <ele>522</ele>
      </trkpt>
      <trkpt lat="44.44927" lon="5.20097">
        <ele>519</ele>
      </trkpt>
      <trkpt lat="44.44926" lon="5.20137">
        <ele>519</ele>
      </trkpt>
      <trkpt lat="44.44924" lon="5.20149">
        <ele>522</ele>
      </trkpt>
      <trkpt lat="44.44915" lon="5.20156">
        <ele>522</ele>
      </trkpt>
      <trkpt lat="44.44835" lon="5.2017">
        <ele>530</ele>
      </trkpt>
      <trkpt lat="44.44784" lon="5.20166">
        <ele>526</ele>
      </trkpt>
      <trkpt lat="44.44765" lon="5.20167">
        <ele>525</ele>
      </trkpt>
      <trkpt lat="44.44752" lon="5.20163">
        <ele>521</ele>
      </trkpt>
      <trkpt lat="44.44741" lon="5.20155">
        <ele>520</ele>
      </trkpt>
      <trkpt lat="44.44733" lon="5.20155">
        <ele>520</ele>
      </trkpt>
      <trkpt lat="44.44714" lon="5.20167">
        <ele>522</ele>
      </trkpt>
      <trkpt lat="44.44703" lon="5.20164">
        <ele>523</ele>
      </trkpt>
      <trkpt lat="44.44694" lon="5.20157">
        <ele>522</ele>
      </trkpt>
      <trkpt lat="44.44686" lon="5.20163">
        <ele>524</ele>
      </trkpt>
      <trkpt lat="44.44681" lon="5.20182">
        <ele>530</ele>
      </trkpt>
      <trkpt lat="44.44675" lon="5.20199">
        <ele>532</ele>
      </trkpt>
      <trkpt lat="44.44661" lon="5.20213">
        <ele>539</ele>
      </trkpt>
      <trkpt lat="44.44646" lon="5.20219">
        <ele>535</ele>
      </trkpt>
      <trkpt lat="44.44624" lon="5.20216">
        <ele>533</ele>
      </trkpt>
      <trkpt lat="44.44606" lon="5.20206">
        <ele>527</ele>
      </trkpt>
      <trkpt lat="44.44586" lon="5.20207">
        <ele>522</ele>
      </trkpt>
      <trkpt lat="44.44565" lon="5.20197">
        <ele>518</ele>
      </trkpt>
      <trkpt lat="44.44556" lon="5.20195">
        <ele>517</ele>
      </trkpt>
      <trkpt lat="44.44544" lon="5.20196">
        <ele>518</ele>
      </trkpt>
      <trkpt lat="44.44527" lon="5.20204">
        <ele>524</ele>
      </trkpt>
      <trkpt lat="44.44514" lon="5.20205">
        <ele>526</ele>
      </trkpt>
      <trkpt lat="44.44502" lon="5.20199">
        <ele>521</ele>
      </trkpt>
      <trkpt lat="44.44496" lon="5.2019">
        <ele>519</ele>
      </trkpt>
      <trkpt lat="44.44491" lon="5.20177">
        <ele>518</ele>
      </trkpt>
      <trkpt lat="44.44483" lon="5.20168">
        <ele>515</ele>
      </trkpt>
      <trkpt lat="44.44472" lon="5.20166">
        <ele>513</ele>
      </trkpt>
      <trkpt lat="44.44448" lon="5.20181">
        <ele>518</ele>
      </trkpt>
      <trkpt lat="44.44437" lon="5.20184">
        <ele>519</ele>
      </trkpt>
      <trkpt lat="44.44346" lon="5.20163">
        <ele>508</ele>
      </trkpt>
      <trkpt lat="44.44334" lon="5.20162">
        <ele>505</ele>
      </trkpt>
      <trkpt lat="44.4432" lon="5.20165">
        <ele>506</ele>
      </trkpt>
      <trkpt lat="44.44275" lon="5.20191">
        <ele>501</ele>
      </trkpt>
      <trkpt lat="44.44262" lon="5.20205">
        <ele>502</ele>
      </trkpt>
      <trkpt lat="44.44251" lon="5.20223">
        <ele>502</ele>
      </trkpt>
      <trkpt lat="44.44214" lon="5.20307">
        <ele>508</ele>
      </trkpt>
      <trkpt lat="44.44179" lon="5.20366">
        <ele>516</ele>
      </trkpt>
      <trkpt lat="44.44166" lon="5.20379">
        <ele>513</ele>
      </trkpt>
      <trkpt lat="44.44117" lon="5.2041">
        <ele>490</ele>
      </trkpt>
      <trkpt lat="44.441" lon="5.20429">
        <ele>494</ele>
      </trkpt>
      <trkpt lat="44.4409" lon="5.2045">
        <ele>489</ele>
      </trkpt>
      <trkpt lat="44.44064" lon="5.20519">
        <ele>497</ele>
      </trkpt>
      <trkpt lat="44.44051" lon="5.20561">
        <ele>498</ele>
      </trkpt>
      <trkpt lat="44.44044" lon="5.20596">
        <ele>502</ele>
      </trkpt>
      <trkpt lat="44.44029" lon="5.20715">
        <ele>483</ele>
      </trkpt>
      <trkpt lat="44.44029" lon="5.20729">
        <ele>481</ele>
      </trkpt>
      <trkpt lat="44.44033" lon="5.2074">
        <ele>481</ele>
      </trkpt>
      <trkpt lat="44.44053" lon="5.20769">
        <ele>486</ele>
      </trkpt>
      <trkpt lat="44.44084" lon="5.20831">
        <ele>481</ele>
      </trkpt>
      <trkpt lat="44.44095" lon="5.20844">
        <ele>476</ele>
      </trkpt>
      <trkpt lat="44.44157" lon="5.20899">
        <ele>474</ele>
      </trkpt>
      <trkpt lat="44.44165" lon="5.2091">
        <ele>473</ele>
      </trkpt>
      <trkpt lat="44.44131" lon="5.20938">
        <ele>469</ele>
      </trkpt>
      <trkpt lat="44.44112" lon="5.20954">
        <ele>471</ele>
      </trkpt>
      <trkpt lat="44.44104" lon="5.20956">
        <ele>472</ele>
      </trkpt>
      <trkpt lat="44.4409" lon="5.20956">
        <ele>473</ele>
      </trkpt>
      <trkpt lat="44.43981" lon="5.20947">
        <ele>469</ele>
      </trkpt>
      <trkpt lat="44.43912" lon="5.20962">
        <ele>467</ele>
      </trkpt>
      <trkpt lat="44.4386" lon="5.20954">
        <ele>464</ele>
      </trkpt>
      <trkpt lat="44.43835" lon="5.20962">
        <ele>462</ele>
      </trkpt>
      <trkpt lat="44.43809" lon="5.20979">
        <ele>463</ele>
      </trkpt>
      <trkpt lat="44.43778" lon="5.2102">
        <ele>465</ele>
      </trkpt>
      <trkpt lat="44.43736" lon="5.21069">
        <ele>465</ele>
      </trkpt>
      <trkpt lat="44.43729" lon="5.21077">
        <ele>461</ele>
      </trkpt>
      <trkpt lat="44.43714" lon="5.211">
        <ele>462</ele>
      </trkpt>
      <trkpt lat="44.43692" lon="5.21138">
        <ele>459</ele>
      </trkpt>
      <trkpt lat="44.43673" lon="5.21161">
        <ele>458</ele>
      </trkpt>
      <trkpt lat="44.4366" lon="5.2117">
        <ele>458</ele>
      </trkpt>
      <trkpt lat="44.43639" lon="5.21179">
        <ele>461</ele>
      </trkpt>
      <trkpt lat="44.43574" lon="5.21198">
        <ele>456</ele>
      </trkpt>
      <trkpt lat="44.43544" lon="5.21211">
        <ele>452</ele>
      </trkpt>
      <trkpt lat="44.43522" lon="5.21224">
        <ele>448</ele>
      </trkpt>
      <trkpt lat="44.43513" lon="5.21229">
        <ele>449</ele>
      </trkpt>
      <trkpt lat="44.43411" lon="5.21285">
        <ele>460</ele>
      </trkpt>
      <trkpt lat="44.43394" lon="5.21288">
        <ele>457</ele>
      </trkpt>
      <trkpt lat="44.43344" lon="5.21287">
        <ele>451</ele>
      </trkpt>
      <trkpt lat="44.43319" lon="5.21291">
        <ele>452</ele>
      </trkpt>
      <trkpt lat="44.43269" lon="5.21314">
        <ele>451</ele>
      </trkpt>
      <trkpt lat="44.43243" lon="5.21329">
        <ele>444</ele>
      </trkpt>
      <trkpt lat="44.4317" lon="5.21394">
        <ele>438</ele>
      </trkpt>
      <trkpt lat="44.43104" lon="5.21457">
        <ele>433</ele>
      </trkpt>
      <trkpt lat="44.42905" lon="5.21678">
        <ele>426</ele>
      </trkpt>
      <trkpt lat="44.42873" lon="5.21706">
        <ele>426</ele>
      </trkpt>
      <trkpt lat="44.42777" lon="5.21748">
        <ele>420</ele>
      </trkpt>
      <trkpt lat="44.42786" lon="5.21772">
        <ele>421</ele>
      </trkpt>
      <trkpt lat="44.42852" lon="5.21847">
        <ele>427</ele>
      </trkpt>
      <trkpt lat="44.42864" lon="5.21872">
        <ele>425</ele>
      </trkpt>
      <trkpt lat="44.42876" lon="5.21911">
        <ele>430</ele>
      </trkpt>
      <trkpt lat="44.42895" lon="5.22003">
        <ele>427</ele>
      </trkpt>
      <trkpt lat="44.4293" lon="5.2207">
        <ele>424</ele>
      </trkpt>
      <trkpt lat="44.42944" lon="5.22113">
        <ele>423</ele>
      </trkpt>
      <trkpt lat="44.42934" lon="5.22122">
        <ele>422</ele>
      </trkpt>
      <trkpt lat="44.42922" lon="5.22123">
        <ele>421</ele>
      </trkpt>
      <trkpt lat="44.42907" lon="5.2212">
        <ele>420</ele>
      </trkpt>
      <trkpt lat="44.42858" lon="5.22141">
        <ele>419</ele>
      </trkpt>
      <trkpt lat="44.42839" lon="5.22159">
        <ele>422</ele>
      </trkpt>
      <trkpt lat="44.42836" lon="5.22169">
        <ele>422</ele>
      </trkpt>
      <trkpt lat="44.42837" lon="5.2218">
        <ele>423</ele>
      </trkpt>
      <trkpt lat="44.42842" lon="5.22206">
        <ele>424</ele>
      </trkpt>
      <trkpt lat="44.42839" lon="5.22211">
        <ele>425</ele>
      </trkpt>
      <trkpt lat="44.42833" lon="5.2221">
        <ele>425</ele>
      </trkpt>
      <trkpt lat="44.42815" lon="5.22174">
        <ele>428</ele>
      </trkpt>
      <trkpt lat="44.42812" lon="5.22119">
        <ele>424</ele>
      </trkpt>
      <trkpt lat="44.42805" lon="5.22082">
        <ele>424</ele>
      </trkpt>
      <trkpt lat="44.42787" lon="5.22053">
        <ele>432</ele>
      </trkpt>
      <trkpt lat="44.42782" lon="5.22039">
        <ele>433</ele>
      </trkpt>
      <trkpt lat="44.42781" lon="5.22025">
        <ele>432</ele>
      </trkpt>
      <trkpt lat="44.42782" lon="5.22">
        <ele>429</ele>
      </trkpt>
      <trkpt lat="44.42779" lon="5.21982">
        <ele>428</ele>
      </trkpt>
      <trkpt lat="44.42777" lon="5.21973">
        <ele>425</ele>
      </trkpt>
      <trkpt lat="44.4277" lon="5.2197">
        <ele>426</ele>
      </trkpt>
      <trkpt lat="44.42769" lon="5.2198">
        <ele>429</ele>
      </trkpt>
      <trkpt lat="44.42769" lon="5.21997">
        <ele>430</ele>
      </trkpt>
      <trkpt lat="44.42763" lon="5.22044">
        <ele>435</ele>
      </trkpt>
      <trkpt lat="44.42776" lon="5.22093">
        <ele>435</ele>
      </trkpt>
      <trkpt lat="44.42774" lon="5.2211">
        <ele>436</ele>
      </trkpt>
      <trkpt lat="44.42766" lon="5.22132">
        <ele>438</ele>
      </trkpt>
      <trkpt lat="44.4274" lon="5.22174">
        <ele>453</ele>
      </trkpt>
      <trkpt lat="44.42739" lon="5.22191">
        <ele>453</ele>
      </trkpt>
      <trkpt lat="44.42743" lon="5.22213">
        <ele>454</ele>
      </trkpt>
      <trkpt lat="44.42747" lon="5.22228">
        <ele>453</ele>
      </trkpt>
      <trkpt lat="44.42742" lon="5.22235">
        <ele>455</ele>
      </trkpt>
      <trkpt lat="44.42736" lon="5.22234">
        <ele>456</ele>
      </trkpt>
      <trkpt lat="44.4273" lon="5.22225">
        <ele>461</ele>
      </trkpt>
      <trkpt lat="44.42727" lon="5.22208">
        <ele>461</ele>
      </trkpt>
      <trkpt lat="44.42713" lon="5.22184">
        <ele>461</ele>
      </trkpt>
      <trkpt lat="44.42714" lon="5.22168">
        <ele>462</ele>
      </trkpt>
      <trkpt lat="44.42717" lon="5.22152">
        <ele>462</ele>
      </trkpt>
      <trkpt lat="44.42737" lon="5.22125">
        <ele>452</ele>
      </trkpt>
      <trkpt lat="44.4274" lon="5.22119">
        <ele>451</ele>
      </trkpt>
      <trkpt lat="44.42733" lon="5.22113">
        <ele>460</ele>
      </trkpt>
      <trkpt lat="44.42713" lon="5.22133">
        <ele>464</ele>
      </trkpt>
      <trkpt lat="44.42694" lon="5.22172">
        <ele>469</ele>
      </trkpt>
      <trkpt lat="44.42693" lon="5.22184">
        <ele>468</ele>
      </trkpt>
      <trkpt lat="44.42698" lon="5.22228">
        <ele>469</ele>
      </trkpt>
      <trkpt lat="44.42695" lon="5.22258">
        <ele>474</ele>
      </trkpt>
      <trkpt lat="44.42691" lon="5.22275">
        <ele>474</ele>
      </trkpt>
      <trkpt lat="44.42681" lon="5.22289">
        <ele>478</ele>
      </trkpt>
      <trkpt lat="44.42669" lon="5.22299">
        <ele>484</ele>
      </trkpt>
      <trkpt lat="44.42667" lon="5.22305">
        <ele>485</ele>
      </trkpt>
      <trkpt lat="44.42674" lon="5.22327">
        <ele>488</ele>
      </trkpt>
      <trkpt lat="44.4271" lon="5.22377">
        <ele>483</ele>
      </trkpt>
      <trkpt lat="44.4271" lon="5.22383">
        <ele>483</ele>
      </trkpt>
      <trkpt lat="44.42708" lon="5.22389">
        <ele>484</ele>
      </trkpt>
      <trkpt lat="44.42695" lon="5.22378">
        <ele>490</ele>
      </trkpt>
      <trkpt lat="44.42692" lon="5.22368">
        <ele>489</ele>
      </trkpt>
      <trkpt lat="44.42666" lon="5.22355">
        <ele>494</ele>
      </trkpt>
      <trkpt lat="44.42648" lon="5.22342">
        <ele>500</ele>
      </trkpt>
      <trkpt lat="44.42631" lon="5.22328">
        <ele>498</ele>
      </trkpt>
      <trkpt lat="44.42625" lon="5.22319">
        <ele>498</ele>
      </trkpt>
      <trkpt lat="44.42622" lon="5.22308">
        <ele>501</ele>
      </trkpt>
      <trkpt lat="44.42616" lon="5.22255">
        <ele>496</ele>
      </trkpt>
      <trkpt lat="44.42609" lon="5.22218">
        <ele>496</ele>
      </trkpt>
      <trkpt lat="44.42604" lon="5.22182">
        <ele>494</ele>
      </trkpt>
      <trkpt lat="44.426" lon="5.22173">
        <ele>494</ele>
      </trkpt>
      <trkpt lat="44.42592" lon="5.22171">
        <ele>496</ele>
      </trkpt>
      <trkpt lat="44.42576" lon="5.22175">
        <ele>502</ele>
      </trkpt>
      <trkpt lat="44.42535" lon="5.22173">
        <ele>516</ele>
      </trkpt>
      <trkpt lat="44.42527" lon="5.22177">
        <ele>518</ele>
      </trkpt>
      <trkpt lat="44.42506" lon="5.22198">
        <ele>524</ele>
      </trkpt>
      <trkpt lat="44.42497" lon="5.22203">
        <ele>531</ele>
      </trkpt>
      <trkpt lat="44.42486" lon="5.22205">
        <ele>531</ele>
      </trkpt>
      <trkpt lat="44.42455" lon="5.22193">
        <ele>526</ele>
      </trkpt>
      <trkpt lat="44.42445" lon="5.22186">
        <ele>524</ele>
      </trkpt>
      <trkpt lat="44.42437" lon="5.22176">
        <ele>524</ele>
      </trkpt>
      <trkpt lat="44.42433" lon="5.22178">
        <ele>525</ele>
      </trkpt>
      <trkpt lat="44.42435" lon="5.22186">
        <ele>526</ele>
      </trkpt>
      <trkpt lat="44.42444" lon="5.22198">
        <ele>527</ele>
      </trkpt>
      <trkpt lat="44.4248" lon="5.22228">
        <ele>535</ele>
      </trkpt>
      <trkpt lat="44.42489" lon="5.2223">
        <ele>539</ele>
      </trkpt>
      <trkpt lat="44.42512" lon="5.22232">
        <ele>533</ele>
      </trkpt>
      <trkpt lat="44.42514" lon="5.22237">
        <ele>534</ele>
      </trkpt>
      <trkpt lat="44.42512" lon="5.22243">
        <ele>534</ele>
      </trkpt>
      <trkpt lat="44.42507" lon="5.22245">
        <ele>539</ele>
      </trkpt>
      <trkpt lat="44.42475" lon="5.22241">
        <ele>542</ele>
      </trkpt>
      <trkpt lat="44.42462" lon="5.22236">
        <ele>542</ele>
      </trkpt>
      <trkpt lat="44.42447" lon="5.22227">
        <ele>538</ele>
      </trkpt>
      <trkpt lat="44.42427" lon="5.22202">
        <ele>540</ele>
      </trkpt>
      <trkpt lat="44.42418" lon="5.22199">
        <ele>534</ele>
      </trkpt>
      <trkpt lat="44.4241" lon="5.22199">
        <ele>535</ele>
      </trkpt>
      <trkpt lat="44.42347" lon="5.22213">
        <ele>560</ele>
      </trkpt>
      <trkpt lat="44.42321" lon="5.22214">
        <ele>564</ele>
      </trkpt>
      <trkpt lat="44.42301" lon="5.22197">
        <ele>555</ele>
      </trkpt>
      <trkpt lat="44.42287" lon="5.22192">
        <ele>559</ele>
      </trkpt>
      <trkpt lat="44.42274" lon="5.22184">
        <ele>560</ele>
      </trkpt>
      <trkpt lat="44.42263" lon="5.22168">
        <ele>551</ele>
      </trkpt>
      <trkpt lat="44.42251" lon="5.22157">
        <ele>556</ele>
      </trkpt>
      <trkpt lat="44.42245" lon="5.22153">
        <ele>556</ele>
      </trkpt>
      <trkpt lat="44.42221" lon="5.22157">
        <ele>562</ele>
      </trkpt>
      <trkpt lat="44.42194" lon="5.22145">
        <ele>559</ele>
      </trkpt>
      <trkpt lat="44.42185" lon="5.22147">
        <ele>564</ele>
      </trkpt>
      <trkpt lat="44.42175" lon="5.22157">
        <ele>566</ele>
      </trkpt>
      <trkpt lat="44.4216" lon="5.22196">
        <ele>574</ele>
      </trkpt>
      <trkpt lat="44.42141" lon="5.22238">
        <ele>585</ele>
      </trkpt>
      <trkpt lat="44.42123" lon="5.22265">
        <ele>591</ele>
      </trkpt>
      <trkpt lat="44.42107" lon="5.22303">
        <ele>593</ele>
      </trkpt>
      <trkpt lat="44.42079" lon="5.22334">
        <ele>593</ele>
      </trkpt>
      <trkpt lat="44.42054" lon="5.22341">
        <ele>593</ele>
      </trkpt>
      <trkpt lat="44.42042" lon="5.22353">
        <ele>593</ele>
      </trkpt>
      <trkpt lat="44.42006" lon="5.22431">
        <ele>597</ele>
      </trkpt>
      <trkpt lat="44.41996" lon="5.22443">
        <ele>596</ele>
      </trkpt>
      <trkpt lat="44.4199" lon="5.22448">
        <ele>597</ele>
      </trkpt>
      <trkpt lat="44.4195" lon="5.22444">
        <ele>589</ele>
      </trkpt>
      <trkpt lat="44.41938" lon="5.22448">
        <ele>589</ele>
      </trkpt>
      <trkpt lat="44.41904" lon="5.2248">
        <ele>593</ele>
      </trkpt>
      <trkpt lat="44.41864" lon="5.22505">
        <ele>589</ele>
      </trkpt>
      <trkpt lat="44.41834" lon="5.22543">
        <ele>586</ele>
      </trkpt>
      <trkpt lat="44.41756" lon="5.22602">
        <ele>575</ele>
      </trkpt>
      <trkpt lat="44.41754" lon="5.22622">
        <ele>574</ele>
      </trkpt>
      <trkpt lat="44.4176" lon="5.22638">
        <ele>574</ele>
      </trkpt>
      <trkpt lat="44.41798" lon="5.22667">
        <ele>580</ele>
      </trkpt>
      <trkpt lat="44.41809" lon="5.22734">
        <ele>579</ele>
      </trkpt>
      <trkpt lat="44.41807" lon="5.22764">
        <ele>579</ele>
      </trkpt>
      <trkpt lat="44.41785" lon="5.22832">
        <ele>571</ele>
      </trkpt>
      <trkpt lat="44.41772" lon="5.22851">
        <ele>570</ele>
      </trkpt>
      <trkpt lat="44.41755" lon="5.2286">
        <ele>565</ele>
      </trkpt>
      <trkpt lat="44.41725" lon="5.22887">
        <ele>563</ele>
      </trkpt>
      <trkpt lat="44.41709" lon="5.2292">
        <ele>563</ele>
      </trkpt>
      <trkpt lat="44.41707" lon="5.22936">
        <ele>561</ele>
      </trkpt>
      <trkpt lat="44.41719" lon="5.22982">
        <ele>556</ele>
      </trkpt>
      <trkpt lat="44.41753" lon="5.2309">
        <ele>548</ele>
      </trkpt>
      <trkpt lat="44.4175" lon="5.23095">
        <ele>548</ele>
      </trkpt>
      <trkpt lat="44.41721" lon="5.23076">
        <ele>547</ele>
      </trkpt>
      <trkpt lat="44.4167" lon="5.2306">
        <ele>545</ele>
      </trkpt>
      <trkpt lat="44.41631" lon="5.23069">
        <ele>541</ele>
      </trkpt>
      <trkpt lat="44.41621" lon="5.2307">
        <ele>539</ele>
      </trkpt>
      <trkpt lat="44.41607" lon="5.23068">
        <ele>538</ele>
      </trkpt>
      <trkpt lat="44.41587" lon="5.23059">
        <ele>537</ele>
      </trkpt>
      <trkpt lat="44.41563" lon="5.23035">
        <ele>536</ele>
      </trkpt>
      <trkpt lat="44.41552" lon="5.23034">
        <ele>537</ele>
      </trkpt>
      <trkpt lat="44.41526" lon="5.23052">
        <ele>534</ele>
      </trkpt>
      <trkpt lat="44.41523" lon="5.23055">
        <ele>535</ele>
      </trkpt>
      <trkpt lat="44.41521" lon="5.23066">
        <ele>534</ele>
      </trkpt>
      <trkpt lat="44.4152" lon="5.23094">
        <ele>534</ele>
      </trkpt>
      <trkpt lat="44.41515" lon="5.23113">
        <ele>534</ele>
      </trkpt>
      <trkpt lat="44.41515" lon="5.23138">
        <ele>533</ele>
      </trkpt>
      <trkpt lat="44.41521" lon="5.23173">
        <ele>532</ele>
      </trkpt>
      <trkpt lat="44.41524" lon="5.23224">
        <ele>536</ele>
      </trkpt>
      <trkpt lat="44.41514" lon="5.2325">
        <ele>538</ele>
      </trkpt>
      <trkpt lat="44.41497" lon="5.23279">
        <ele>538</ele>
      </trkpt>
      <trkpt lat="44.41458" lon="5.2332">
        <ele>537</ele>
      </trkpt>
      <trkpt lat="44.41429" lon="5.23358">
        <ele>534</ele>
      </trkpt>
      <trkpt lat="44.41393" lon="5.23433">
        <ele>531</ele>
      </trkpt>
      <trkpt lat="44.41327" lon="5.23488">
        <ele>523</ele>
      </trkpt>
      <trkpt lat="44.4131" lon="5.23529">
        <ele>519</ele>
      </trkpt>
      <trkpt lat="44.4131" lon="5.23559">
        <ele>518</ele>
      </trkpt>
      <trkpt lat="44.41322" lon="5.23591">
        <ele>519</ele>
      </trkpt>
      <trkpt lat="44.41332" lon="5.23632">
        <ele>515</ele>
      </trkpt>
      <trkpt lat="44.4134" lon="5.23668">
        <ele>514</ele>
      </trkpt>
      <trkpt lat="44.41338" lon="5.23718">
        <ele>508</ele>
      </trkpt>
      <trkpt lat="44.41323" lon="5.23755">
        <ele>505</ele>
      </trkpt>
      <trkpt lat="44.41314" lon="5.23766">
        <ele>503</ele>
      </trkpt>
      <trkpt lat="44.41276" lon="5.23785">
        <ele>503</ele>
      </trkpt>
      <trkpt lat="44.4126" lon="5.23789">
        <ele>502</ele>
      </trkpt>
      <trkpt lat="44.41252" lon="5.23788">
        <ele>502</ele>
      </trkpt>
      <trkpt lat="44.41229" lon="5.23771">
        <ele>500</ele>
      </trkpt>
      <trkpt lat="44.41218" lon="5.23772">
        <ele>499</ele>
      </trkpt>
      <trkpt lat="44.41203" lon="5.23778">
        <ele>499</ele>
      </trkpt>
      <trkpt lat="44.41193" lon="5.23773">
        <ele>499</ele>
      </trkpt>
      <trkpt lat="44.41165" lon="5.23744">
        <ele>499</ele>
      </trkpt>
      <trkpt lat="44.41087" lon="5.23688">
        <ele>501</ele>
      </trkpt>
      <trkpt lat="44.41013" lon="5.23682">
        <ele>501</ele>
      </trkpt>
      <trkpt lat="44.40986" lon="5.23685">
        <ele>499</ele>
      </trkpt>
      <trkpt lat="44.40973" lon="5.23704">
        <ele>500</ele>
      </trkpt>
      <trkpt lat="44.40959" lon="5.23769">
        <ele>512</ele>
      </trkpt>
      <trkpt lat="44.40939" lon="5.23808">
        <ele>510</ele>
      </trkpt>
      <trkpt lat="44.4093" lon="5.2385">
        <ele>520</ele>
      </trkpt>
      <trkpt lat="44.40914" lon="5.23895">
        <ele>518</ele>
      </trkpt>
      <trkpt lat="44.40891" lon="5.23925">
        <ele>519</ele>
      </trkpt>
      <trkpt lat="44.40844" lon="5.23944">
        <ele>500</ele>
      </trkpt>
      <trkpt lat="44.40805" lon="5.23992">
        <ele>505</ele>
      </trkpt>
      <trkpt lat="44.40772" lon="5.24041">
        <ele>515</ele>
      </trkpt>
      <trkpt lat="44.40721" lon="5.24066">
        <ele>503</ele>
      </trkpt>
      <trkpt lat="44.40693" lon="5.24049">
        <ele>489</ele>
      </trkpt>
      <trkpt lat="44.40638" lon="5.24047">
        <ele>481</ele>
      </trkpt>
      <trkpt lat="44.40577" lon="5.24035">
        <ele>476</ele>
      </trkpt>
      <trkpt lat="44.40533" lon="5.2405">
        <ele>470</ele>
      </trkpt>
      <trkpt lat="44.40512" lon="5.24067">
        <ele>482</ele>
      </trkpt>
      <trkpt lat="44.40479" lon="5.24109">
        <ele>481</ele>
      </trkpt>
      <trkpt lat="44.40422" lon="5.24151">
        <ele>477</ele>
      </trkpt>
      <trkpt lat="44.40375" lon="5.24162">
        <ele>464</ele>
      </trkpt>
      <trkpt lat="44.4033" lon="5.24232">
        <ele>462</ele>
      </trkpt>
      <trkpt lat="44.40326" lon="5.24267">
        <ele>461</ele>
      </trkpt>
      <trkpt lat="44.40337" lon="5.24331">
        <ele>456</ele>
      </trkpt>
      <trkpt lat="44.40367" lon="5.24396">
        <ele>456</ele>
      </trkpt>
      <trkpt lat="44.40385" lon="5.24503">
        <ele>442</ele>
      </trkpt>
      <trkpt lat="44.40397" lon="5.24545">
        <ele>436</ele>
      </trkpt>
      <trkpt lat="44.40399" lon="5.24589">
        <ele>432</ele>
      </trkpt>
      <trkpt lat="44.40411" lon="5.24614">
        <ele>432</ele>
      </trkpt>
      <trkpt lat="44.40406" lon="5.24626">
        <ele>425</ele>
      </trkpt>
      <trkpt lat="44.40392" lon="5.24615">
        <ele>426</ele>
      </trkpt>
      <trkpt lat="44.40381" lon="5.2459">
        <ele>430</ele>
      </trkpt>
      <trkpt lat="44.40358" lon="5.24511">
        <ele>428</ele>
      </trkpt>
      <trkpt lat="44.40352" lon="5.24495">
        <ele>430</ele>
      </trkpt>
      <trkpt lat="44.40347" lon="5.24496">
        <ele>428</ele>
      </trkpt>
      <trkpt lat="44.40343" lon="5.245">
        <ele>421</ele>
      </trkpt>
      <trkpt lat="44.40343" lon="5.24513">
        <ele>419</ele>
      </trkpt>
      <trkpt lat="44.40351" lon="5.24537">
        <ele>425</ele>
      </trkpt>
      <trkpt lat="44.40352" lon="5.2456">
        <ele>424</ele>
      </trkpt>
      <trkpt lat="44.40344" lon="5.24585">
        <ele>417</ele>
      </trkpt>
      <trkpt lat="44.40316" lon="5.24627">
        <ele>408</ele>
      </trkpt>
      <trkpt lat="44.40306" lon="5.24661">
        <ele>403</ele>
      </trkpt>
      <trkpt lat="44.40307" lon="5.24671">
        <ele>402</ele>
      </trkpt>
      <trkpt lat="44.40315" lon="5.24685">
        <ele>397</ele>
      </trkpt>
      <trkpt lat="44.40337" lon="5.24703">
        <ele>391</ele>
      </trkpt>
      <trkpt lat="44.40361" lon="5.24708">
        <ele>391</ele>
      </trkpt>
      <trkpt lat="44.40397" lon="5.24705">
        <ele>392</ele>
      </trkpt>
      <trkpt lat="44.40472" lon="5.24722">
        <ele>403</ele>
      </trkpt>
      <trkpt lat="44.40496" lon="5.24756">
        <ele>401</ele>
      </trkpt>
      <trkpt lat="44.40522" lon="5.24775">
        <ele>401</ele>
      </trkpt>
      <trkpt lat="44.40565" lon="5.24853">
        <ele>387</ele>
      </trkpt>
      <trkpt lat="44.40573" lon="5.24877">
        <ele>385</ele>
      </trkpt>
      <trkpt lat="44.4058" lon="5.24931">
        <ele>375</ele>
      </trkpt>
      <trkpt lat="44.40589" lon="5.24948">
        <ele>375</ele>
      </trkpt>
      <trkpt lat="44.40653" lon="5.24996">
        <ele>376</ele>
      </trkpt>
      <trkpt lat="44.40667" lon="5.25012">
        <ele>372</ele>
      </trkpt>
      <trkpt lat="44.40667" lon="5.25109">
        <ele>360</ele>
      </trkpt>
      <trkpt lat="44.40675" lon="5.25132">
        <ele>357</ele>
      </trkpt>
      <trkpt lat="44.40714" lon="5.25157">
        <ele>357</ele>
      </trkpt>
      <trkpt lat="44.40738" lon="5.2517">
        <ele>359</ele>
      </trkpt>
      <trkpt lat="44.40763" lon="5.25173">
        <ele>361</ele>
      </trkpt>
      <trkpt lat="44.4077" lon="5.2519">
        <ele>358</ele>
      </trkpt>
      <trkpt lat="44.40769" lon="5.25196">
        <ele>357</ele>
      </trkpt>
      <trkpt lat="44.40795" lon="5.25214">
        <ele>357</ele>
      </trkpt>
      <trkpt lat="44.40808" lon="5.25225">
        <ele>357</ele>
      </trkpt>
      <trkpt lat="44.40821" lon="5.25241">
        <ele>359</ele>
      </trkpt>
      <trkpt lat="44.4084" lon="5.25271">
        <ele>357</ele>
      </trkpt>
      <trkpt lat="44.4089" lon="5.25362">
        <ele>359</ele>
      </trkpt>
      <trkpt lat="44.40905" lon="5.25382">
        <ele>358</ele>
      </trkpt>
      <trkpt lat="44.40922" lon="5.25395">
        <ele>358</ele>
      </trkpt>
      <trkpt lat="44.4097" lon="5.25425">
        <ele>357</ele>
      </trkpt>
      <trkpt lat="44.40987" lon="5.2544">
        <ele>359</ele>
      </trkpt>
      <trkpt lat="44.41027" lon="5.25487">
        <ele>352</ele>
      </trkpt>
      <trkpt lat="44.41049" lon="5.25515">
        <ele>356</ele>
      </trkpt>
      <trkpt lat="44.41056" lon="5.2553">
        <ele>357</ele>
      </trkpt>
      <trkpt lat="44.41062" lon="5.25552">
        <ele>359</ele>
      </trkpt>
      <trkpt lat="44.41068" lon="5.2558">
        <ele>365</ele>
      </trkpt>
      <trkpt lat="44.41076" lon="5.25674">
        <ele>361</ele>
      </trkpt>
      <trkpt lat="44.41082" lon="5.25706">
        <ele>359</ele>
      </trkpt>
      <trkpt lat="44.41096" lon="5.25735">
        <ele>362</ele>
      </trkpt>
      <trkpt lat="44.41144" lon="5.25794">
        <ele>362</ele>
      </trkpt>
      <trkpt lat="44.41154" lon="5.25812">
        <ele>366</ele>
      </trkpt>
      <trkpt lat="44.41165" lon="5.25841">
        <ele>366</ele>
      </trkpt>
      <trkpt lat="44.41188" lon="5.2598">
        <ele>365</ele>
      </trkpt>
      <trkpt lat="44.41196" lon="5.26018">
        <ele>363</ele>
      </trkpt>
      <trkpt lat="44.4121" lon="5.26054">
        <ele>366</ele>
      </trkpt>
      <trkpt lat="44.41248" lon="5.26126">
        <ele>367</ele>
      </trkpt>
      <trkpt lat="44.41258" lon="5.26154">
        <ele>366</ele>
      </trkpt>
      <trkpt lat="44.41265" lon="5.2618">
        <ele>368</ele>
      </trkpt>
      <trkpt lat="44.41273" lon="5.26198">
        <ele>368</ele>
      </trkpt>
      <trkpt lat="44.41299" lon="5.26231">
        <ele>363</ele>
      </trkpt>
      <trkpt lat="44.41343" lon="5.26268">
        <ele>365</ele>
      </trkpt>
      <trkpt lat="44.41363" lon="5.26292">
        <ele>369</ele>
      </trkpt>
      <trkpt lat="44.41393" lon="5.26342">
        <ele>367</ele>
      </trkpt>
      <trkpt lat="44.41427" lon="5.26421">
        <ele>367</ele>
      </trkpt>
      <trkpt lat="44.41437" lon="5.26459">
        <ele>369</ele>
      </trkpt>
      <trkpt lat="44.41441" lon="5.2648">
        <ele>368</ele>
      </trkpt>
      <trkpt lat="44.41442" lon="5.26497">
        <ele>368</ele>
      </trkpt>
      <trkpt lat="44.41428" lon="5.26666">
        <ele>366</ele>
      </trkpt>
      <trkpt lat="44.41429" lon="5.26693">
        <ele>370</ele>
      </trkpt>
      <trkpt lat="44.41433" lon="5.26717">
        <ele>370</ele>
      </trkpt>
      <trkpt lat="44.41444" lon="5.26749">
        <ele>369</ele>
      </trkpt>
      <trkpt lat="44.41498" lon="5.26859">
        <ele>373</ele>
      </trkpt>
      <trkpt lat="44.4151" lon="5.26887">
        <ele>370</ele>
      </trkpt>
      <trkpt lat="44.41515" lon="5.26901">
        <ele>371</ele>
      </trkpt>
      <trkpt lat="44.41532" lon="5.26932">
        <ele>369</ele>
      </trkpt>
      <trkpt lat="44.41547" lon="5.26951">
        <ele>372</ele>
      </trkpt>
      <trkpt lat="44.41659" lon="5.27044">
        <ele>375</ele>
      </trkpt>
      <trkpt lat="44.41785" lon="5.27165">
        <ele>373</ele>
      </trkpt>
      <trkpt lat="44.41827" lon="5.27208">
        <ele>371</ele>
      </trkpt>
      <trkpt lat="44.41863" lon="5.27241">
        <ele>370</ele>
      </trkpt>
      <trkpt lat="44.41911" lon="5.27297">
        <ele>373</ele>
      </trkpt>
      <trkpt lat="44.41975" lon="5.27345">
        <ele>373</ele>
      </trkpt>
      <trkpt lat="44.42" lon="5.27372">
        <ele>375</ele>
      </trkpt>
      <trkpt lat="44.42086" lon="5.2748">
        <ele>371</ele>
      </trkpt>
      <trkpt lat="44.42142" lon="5.27542">
        <ele>372</ele>
      </trkpt>
      <trkpt lat="44.4218" lon="5.27573">
        <ele>374</ele>
      </trkpt>
      <trkpt lat="44.42218" lon="5.27591">
        <ele>372</ele>
      </trkpt>
      <trkpt lat="44.42297" lon="5.27623">
        <ele>373</ele>
      </trkpt>
      <trkpt lat="44.42351" lon="5.27653">
        <ele>372</ele>
      </trkpt>
      <trkpt lat="44.42396" lon="5.2767">
        <ele>375</ele>
      </trkpt>
      <trkpt lat="44.42447" lon="5.27692">
        <ele>380</ele>
      </trkpt>
      <trkpt lat="44.42602" lon="5.2779">
        <ele>392</ele>
      </trkpt>
      <trkpt lat="44.42623" lon="5.27806">
        <ele>398</ele>
      </trkpt>
      <trkpt lat="44.42651" lon="5.27831">
        <ele>395</ele>
      </trkpt>
      <trkpt lat="44.42679" lon="5.27862">
        <ele>393</ele>
      </trkpt>
      <trkpt lat="44.42705" lon="5.27897">
        <ele>381</ele>
      </trkpt>
      <trkpt lat="44.42729" lon="5.27937">
        <ele>375</ele>
      </trkpt>
      <trkpt lat="44.42744" lon="5.27955">
        <ele>371</ele>
      </trkpt>
      <trkpt lat="44.42768" lon="5.27972">
        <ele>370</ele>
      </trkpt>
      <trkpt lat="44.4278" lon="5.27979">
        <ele>370</ele>
      </trkpt>
      <trkpt lat="44.4279" lon="5.27981">
        <ele>368</ele>
      </trkpt>
      <trkpt lat="44.42801" lon="5.27978">
        <ele>369</ele>
      </trkpt>
      <trkpt lat="44.42815" lon="5.2796">
        <ele>368</ele>
      </trkpt>
      <trkpt lat="44.42823" lon="5.2793">
        <ele>368</ele>
      </trkpt>
      <trkpt lat="44.42846" lon="5.27789">
        <ele>372</ele>
      </trkpt>
      <trkpt lat="44.42851" lon="5.27767">
        <ele>372</ele>
      </trkpt>
      <trkpt lat="44.42867" lon="5.2773">
        <ele>373</ele>
      </trkpt>
      <trkpt lat="44.42886" lon="5.27706">
        <ele>372</ele>
      </trkpt>
      <trkpt lat="44.429" lon="5.27693">
        <ele>377</ele>
      </trkpt>
      <trkpt lat="44.42921" lon="5.27681">
        <ele>374</ele>
      </trkpt>
      <trkpt lat="44.4295" lon="5.27672">
        <ele>378</ele>
      </trkpt>
      <trkpt lat="44.42965" lon="5.2767">
        <ele>385</ele>
      </trkpt>
      <trkpt lat="44.42997" lon="5.27676">
        <ele>387</ele>
      </trkpt>
      <trkpt lat="44.43033" lon="5.27692">
        <ele>384</ele>
      </trkpt>
      <trkpt lat="44.43068" lon="5.27712">
        <ele>384</ele>
      </trkpt>
      <trkpt lat="44.43098" lon="5.27732">
        <ele>388</ele>
      </trkpt>
      <trkpt lat="44.43112" lon="5.27746">
        <ele>388</ele>
      </trkpt>
      <trkpt lat="44.43139" lon="5.27776">
        <ele>397</ele>
      </trkpt>
      <trkpt lat="44.43162" lon="5.27808">
        <ele>409</ele>
      </trkpt>
      <trkpt lat="44.43186" lon="5.27855">
        <ele>415</ele>
      </trkpt>
      <trkpt lat="44.43196" lon="5.2788">
        <ele>412</ele>
      </trkpt>
      <trkpt lat="44.43202" lon="5.27905">
        <ele>407</ele>
      </trkpt>
      <trkpt lat="44.43208" lon="5.27973">
        <ele>418</ele>
      </trkpt>
      <trkpt lat="44.43205" lon="5.27998">
        <ele>411</ele>
      </trkpt>
      <trkpt lat="44.43162" lon="5.28133">
        <ele>399</ele>
      </trkpt>
      <trkpt lat="44.43157" lon="5.28156">
        <ele>393</ele>
      </trkpt>
      <trkpt lat="44.43157" lon="5.28175">
        <ele>387</ele>
      </trkpt>
      <trkpt lat="44.4316" lon="5.28195">
        <ele>385</ele>
      </trkpt>
      <trkpt lat="44.43169" lon="5.28211">
        <ele>379</ele>
      </trkpt>
      <trkpt lat="44.43178" lon="5.2822">
        <ele>379</ele>
      </trkpt>
      <trkpt lat="44.43189" lon="5.28222">
        <ele>381</ele>
      </trkpt>
      <trkpt lat="44.43226" lon="5.28217">
        <ele>388</ele>
      </trkpt>
      <trkpt lat="44.43257" lon="5.28209">
        <ele>402</ele>
      </trkpt>
      <trkpt lat="44.43276" lon="5.28209">
        <ele>411</ele>
      </trkpt>
      <trkpt lat="44.43292" lon="5.28216">
        <ele>416</ele>
      </trkpt>
      <trkpt lat="44.43305" lon="5.28229">
        <ele>415</ele>
      </trkpt>
      <trkpt lat="44.43317" lon="5.28247">
        <ele>407</ele>
      </trkpt>
      <trkpt lat="44.43324" lon="5.28263">
        <ele>409</ele>
      </trkpt>
      <trkpt lat="44.43326" lon="5.28292">
        <ele>407</ele>
      </trkpt>
      <trkpt lat="44.43322" lon="5.28316">
        <ele>407</ele>
      </trkpt>
      <trkpt lat="44.43315" lon="5.28341">
        <ele>397</ele>
      </trkpt>
      <trkpt lat="44.43287" lon="5.28407">
        <ele>397</ele>
      </trkpt>
      <trkpt lat="44.43224" lon="5.28526">
        <ele>401</ele>
      </trkpt>
      <trkpt lat="44.432" lon="5.28594">
        <ele>402</ele>
      </trkpt>
      <trkpt lat="44.43194" lon="5.28617">
        <ele>403</ele>
      </trkpt>
      <trkpt lat="44.43193" lon="5.28651">
        <ele>407</ele>
      </trkpt>
      <trkpt lat="44.43194" lon="5.28745">
        <ele>395</ele>
      </trkpt>
      <trkpt lat="44.43197" lon="5.28768">
        <ele>393</ele>
      </trkpt>
      <trkpt lat="44.432" lon="5.2878">
        <ele>393</ele>
      </trkpt>
      <trkpt lat="44.4321" lon="5.28791">
        <ele>394</ele>
      </trkpt>
      <trkpt lat="44.43222" lon="5.28794">
        <ele>394</ele>
      </trkpt>
      <trkpt lat="44.43235" lon="5.28793">
        <ele>396</ele>
      </trkpt>
      <trkpt lat="44.43261" lon="5.28783">
        <ele>400</ele>
      </trkpt>
      <trkpt lat="44.43282" lon="5.28777">
        <ele>399</ele>
      </trkpt>
      <trkpt lat="44.43311" lon="5.28777">
        <ele>396</ele>
      </trkpt>
      <trkpt lat="44.4334" lon="5.28792">
        <ele>390</ele>
      </trkpt>
      <trkpt lat="44.43355" lon="5.2881">
        <ele>393</ele>
      </trkpt>
      <trkpt lat="44.43367" lon="5.28832">
        <ele>394</ele>
      </trkpt>
      <trkpt lat="44.43433" lon="5.2902">
        <ele>411</ele>
      </trkpt>
      <trkpt lat="44.43442" lon="5.29054">
        <ele>411</ele>
      </trkpt>
      <trkpt lat="44.43448" lon="5.29092">
        <ele>406</ele>
      </trkpt>
      <trkpt lat="44.43452" lon="5.29129">
        <ele>402</ele>
      </trkpt>
      <trkpt lat="44.43447" lon="5.29209">
        <ele>396</ele>
      </trkpt>
      <trkpt lat="44.4345" lon="5.29248">
        <ele>394</ele>
      </trkpt>
      <trkpt lat="44.43456" lon="5.29283">
        <ele>393</ele>
      </trkpt>
      <trkpt lat="44.43474" lon="5.29323">
        <ele>391</ele>
      </trkpt>
      <trkpt lat="44.43491" lon="5.29344">
        <ele>392</ele>
      </trkpt>
      <trkpt lat="44.43503" lon="5.29351">
        <ele>392</ele>
      </trkpt>
      <trkpt lat="44.43518" lon="5.29354">
        <ele>392</ele>
      </trkpt>
      <trkpt lat="44.4353" lon="5.2935">
        <ele>392</ele>
      </trkpt>
      <trkpt lat="44.43538" lon="5.29343">
        <ele>392</ele>
      </trkpt>
      <trkpt lat="44.43553" lon="5.29324">
        <ele>388</ele>
      </trkpt>
      <trkpt lat="44.43543" lon="5.29326">
        <ele>389</ele>
      </trkpt>
      <trkpt lat="44.43529" lon="5.29339">
        <ele>390</ele>
      </trkpt>
      <trkpt lat="44.43513" lon="5.29344">
        <ele>392</ele>
      </trkpt>
      <trkpt lat="44.43503" lon="5.29339">
        <ele>391</ele>
      </trkpt>
      <trkpt lat="44.43492" lon="5.29329">
        <ele>391</ele>
      </trkpt>
      <trkpt lat="44.43472" lon="5.29299">
        <ele>395</ele>
      </trkpt>
      <trkpt lat="44.43465" lon="5.29278">
        <ele>397</ele>
      </trkpt>
      <trkpt lat="44.43461" lon="5.29255">
        <ele>400</ele>
      </trkpt>
      <trkpt lat="44.4348" lon="5.2915">
        <ele>411</ele>
      </trkpt>
      <trkpt lat="44.43479" lon="5.29115">
        <ele>417</ele>
      </trkpt>
      <trkpt lat="44.43472" lon="5.29083">
        <ele>419</ele>
      </trkpt>
      <trkpt lat="44.43452" lon="5.29058">
        <ele>412</ele>
      </trkpt>
      <trkpt lat="44.43451" lon="5.29012">
        <ele>413</ele>
      </trkpt>
      <trkpt lat="44.43442" lon="5.28975">
        <ele>408</ele>
      </trkpt>
      <trkpt lat="44.43444" lon="5.28966">
        <ele>407</ele>
      </trkpt>
      <trkpt lat="44.43453" lon="5.28954">
        <ele>409</ele>
      </trkpt>
      <trkpt lat="44.435" lon="5.28948">
        <ele>426</ele>
      </trkpt>
      <trkpt lat="44.4352" lon="5.28934">
        <ele>431</ele>
      </trkpt>
      <trkpt lat="44.43544" lon="5.28896">
        <ele>428</ele>
      </trkpt>
      <trkpt lat="44.43559" lon="5.28885">
        <ele>427</ele>
      </trkpt>
      <trkpt lat="44.43636" lon="5.28877">
        <ele>434</ele>
      </trkpt>
      <trkpt lat="44.43691" lon="5.28915">
        <ele>438</ele>
      </trkpt>
      <trkpt lat="44.4374" lon="5.28976">
        <ele>445</ele>
      </trkpt>
      <trkpt lat="44.4375" lon="5.2897">
        <ele>445</ele>
      </trkpt>
      <trkpt lat="44.4375" lon="5.28962">
        <ele>445</ele>
      </trkpt>
      <trkpt lat="44.43731" lon="5.28924">
        <ele>441</ele>
      </trkpt>
      <trkpt lat="44.43733" lon="5.28906">
        <ele>441</ele>
      </trkpt>
      <trkpt lat="44.43807" lon="5.2888">
        <ele>447</ele>
      </trkpt>
      <trkpt lat="44.4383" lon="5.2884">
        <ele>450</ele>
      </trkpt>
      <trkpt lat="44.43857" lon="5.28803">
        <ele>451</ele>
      </trkpt>
      <trkpt lat="44.43874" lon="5.28797">
        <ele>452</ele>
      </trkpt>
      <trkpt lat="44.43891" lon="5.28794">
        <ele>452</ele>
      </trkpt>
      <trkpt lat="44.439" lon="5.28795">
        <ele>452</ele>
      </trkpt>
      <trkpt lat="44.4391" lon="5.28799">
        <ele>453</ele>
      </trkpt>
      <trkpt lat="44.43956" lon="5.28842">
        <ele>458</ele>
      </trkpt>
      <trkpt lat="44.4408" lon="5.28867">
        <ele>470</ele>
      </trkpt>
      <trkpt lat="44.441" lon="5.28856">
        <ele>474</ele>
      </trkpt>
      <trkpt lat="44.44115" lon="5.28836">
        <ele>476</ele>
      </trkpt>
      <trkpt lat="44.44119" lon="5.28816">
        <ele>476</ele>
      </trkpt>
      <trkpt lat="44.44112" lon="5.28725">
        <ele>481</ele>
      </trkpt>
      <trkpt lat="44.44112" lon="5.28706">
        <ele>481</ele>
      </trkpt>
      <trkpt lat="44.44114" lon="5.287">
        <ele>480</ele>
      </trkpt>
      <trkpt lat="44.44118" lon="5.28693">
        <ele>480</ele>
      </trkpt>
      <trkpt lat="44.44195" lon="5.28645">
        <ele>479</ele>
      </trkpt>
      <trkpt lat="44.44203" lon="5.28648">
        <ele>484</ele>
      </trkpt>
      <trkpt lat="44.44179" lon="5.28671">
        <ele>486</ele>
      </trkpt>
      <trkpt lat="44.44168" lon="5.28687">
        <ele>489</ele>
      </trkpt>
      <trkpt lat="44.44163" lon="5.28701">
        <ele>489</ele>
      </trkpt>
      <trkpt lat="44.44166" lon="5.28776">
        <ele>489</ele>
      </trkpt>
      <trkpt lat="44.44187" lon="5.2885">
        <ele>491</ele>
      </trkpt>
      <trkpt lat="44.44187" lon="5.28911">
        <ele>494</ele>
      </trkpt>
      <trkpt lat="44.44186" lon="5.28955">
        <ele>498</ele>
      </trkpt>
      <trkpt lat="44.44188" lon="5.29032">
        <ele>503</ele>
      </trkpt>
      <trkpt lat="44.44195" lon="5.29112">
        <ele>507</ele>
      </trkpt>
      <trkpt lat="44.44228" lon="5.29209">
        <ele>511</ele>
      </trkpt>
      <trkpt lat="44.44268" lon="5.29287">
        <ele>522</ele>
      </trkpt>
      <trkpt lat="44.4427" lon="5.293">
        <ele>522</ele>
      </trkpt>
      <trkpt lat="44.44262" lon="5.29313">
        <ele>517</ele>
      </trkpt>
      <trkpt lat="44.44244" lon="5.29321">
        <ele>516</ele>
      </trkpt>
      <trkpt lat="44.44227" lon="5.29339">
        <ele>513</ele>
      </trkpt>
      <trkpt lat="44.44223" lon="5.29352">
        <ele>515</ele>
      </trkpt>
      <trkpt lat="44.44222" lon="5.29367">
        <ele>515</ele>
      </trkpt>
      <trkpt lat="44.44251" lon="5.29426">
        <ele>523</ele>
      </trkpt>
      <trkpt lat="44.44246" lon="5.29441">
        <ele>523</ele>
      </trkpt>
      <trkpt lat="44.44216" lon="5.2945">
        <ele>520</ele>
      </trkpt>
      <trkpt lat="44.44198" lon="5.29475">
        <ele>522</ele>
      </trkpt>
      <trkpt lat="44.44187" lon="5.29477">
        <ele>522</ele>
      </trkpt>
      <trkpt lat="44.4417" lon="5.29455">
        <ele>520</ele>
      </trkpt>
      <trkpt lat="44.44153" lon="5.29443">
        <ele>516</ele>
      </trkpt>
      <trkpt lat="44.44077" lon="5.29449">
        <ele>520</ele>
      </trkpt>
      <trkpt lat="44.44055" lon="5.29458">
        <ele>526</ele>
      </trkpt>
      <trkpt lat="44.44017" lon="5.29479">
        <ele>526</ele>
      </trkpt>
      <trkpt lat="44.43978" lon="5.2947">
        <ele>521</ele>
      </trkpt>
      <trkpt lat="44.43959" lon="5.29502">
        <ele>526</ele>
      </trkpt>
      <trkpt lat="44.43951" lon="5.296">
        <ele>524</ele>
      </trkpt>
      <trkpt lat="44.43961" lon="5.29607">
        <ele>528</ele>
      </trkpt>
      <trkpt lat="44.43984" lon="5.29604">
        <ele>530</ele>
      </trkpt>
      <trkpt lat="44.44032" lon="5.29612">
        <ele>540</ele>
      </trkpt>
      <trkpt lat="44.44064" lon="5.29652">
        <ele>548</ele>
      </trkpt>
      <trkpt lat="44.44066" lon="5.29682">
        <ele>550</ele>
      </trkpt>
      <trkpt lat="44.4405" lon="5.29698">
        <ele>549</ele>
      </trkpt>
      <trkpt lat="44.43995" lon="5.29859">
        <ele>557</ele>
      </trkpt>
      <trkpt lat="44.43995" lon="5.29877">
        <ele>557</ele>
      </trkpt>
      <trkpt lat="44.44031" lon="5.29971">
        <ele>559</ele>
      </trkpt>
      <trkpt lat="44.44053" lon="5.2998">
        <ele>568</ele>
      </trkpt>
      <trkpt lat="44.44057" lon="5.29989">
        <ele>568</ele>
      </trkpt>
      <trkpt lat="44.44055" lon="5.30001">
        <ele>568</ele>
      </trkpt>
      <trkpt lat="44.44041" lon="5.30032">
        <ele>570</ele>
      </trkpt>
      <trkpt lat="44.43982" lon="5.30073">
        <ele>561</ele>
      </trkpt>
      <trkpt lat="44.4396" lon="5.30098">
        <ele>562</ele>
      </trkpt>
      <trkpt lat="44.43959" lon="5.3013">
        <ele>564</ele>
      </trkpt>
      <trkpt lat="44.43967" lon="5.30149">
        <ele>564</ele>
      </trkpt>
      <trkpt lat="44.43985" lon="5.30172">
        <ele>569</ele>
      </trkpt>
      <trkpt lat="44.44002" lon="5.30185">
        <ele>568</ele>
      </trkpt>
      <trkpt lat="44.44061" lon="5.30215">
        <ele>577</ele>
      </trkpt>
      <trkpt lat="44.44105" lon="5.3026">
        <ele>588</ele>
      </trkpt>
      <trkpt lat="44.44115" lon="5.30282">
        <ele>589</ele>
      </trkpt>
      <trkpt lat="44.4412" lon="5.30321">
        <ele>586</ele>
      </trkpt>
      <trkpt lat="44.4413" lon="5.30348">
        <ele>596</ele>
      </trkpt>
      <trkpt lat="44.44128" lon="5.30368">
        <ele>596</ele>
      </trkpt>
      <trkpt lat="44.4409" lon="5.30416">
        <ele>578</ele>
      </trkpt>
      <trkpt lat="44.44087" lon="5.30444">
        <ele>579</ele>
      </trkpt>
      <trkpt lat="44.44111" lon="5.30517">
        <ele>590</ele>
      </trkpt>
      <trkpt lat="44.44147" lon="5.3057">
        <ele>598</ele>
      </trkpt>
      <trkpt lat="44.44179" lon="5.3063">
        <ele>617</ele>
      </trkpt>
      <trkpt lat="44.44182" lon="5.30645">
        <ele>617</ele>
      </trkpt>
      <trkpt lat="44.44178" lon="5.30655">
        <ele>609</ele>
      </trkpt>
      <trkpt lat="44.44171" lon="5.30658">
        <ele>608</ele>
      </trkpt>
      <trkpt lat="44.44156" lon="5.30656">
        <ele>605</ele>
      </trkpt>
      <trkpt lat="44.4414" lon="5.30658">
        <ele>596</ele>
      </trkpt>
      <trkpt lat="44.44123" lon="5.30675">
        <ele>591</ele>
      </trkpt>
      <trkpt lat="44.44106" lon="5.30698">
        <ele>596</ele>
      </trkpt>
      <trkpt lat="44.44101" lon="5.30718">
        <ele>603</ele>
      </trkpt>
      <trkpt lat="44.44094" lon="5.30724">
        <ele>600</ele>
      </trkpt>
      <trkpt lat="44.44084" lon="5.30723">
        <ele>599</ele>
      </trkpt>
      <trkpt lat="44.44054" lon="5.30703">
        <ele>592</ele>
      </trkpt>
      <trkpt lat="44.44023" lon="5.30691">
        <ele>586</ele>
      </trkpt>
      <trkpt lat="44.43997" lon="5.30687">
        <ele>589</ele>
      </trkpt>
      <trkpt lat="44.43956" lon="5.30672">
        <ele>589</ele>
      </trkpt>
      <trkpt lat="44.4391" lon="5.3068">
        <ele>597</ele>
      </trkpt>
      <trkpt lat="44.43846" lon="5.30752">
        <ele>606</ele>
      </trkpt>
      <trkpt lat="44.43831" lon="5.30775">
        <ele>607</ele>
      </trkpt>
      <trkpt lat="44.43808" lon="5.30848">
        <ele>607</ele>
      </trkpt>
      <trkpt lat="44.43812" lon="5.30878">
        <ele>607</ele>
      </trkpt>
      <trkpt lat="44.43825" lon="5.30898">
        <ele>609</ele>
      </trkpt>
      <trkpt lat="44.43871" lon="5.30924">
        <ele>615</ele>
      </trkpt>
      <trkpt lat="44.43901" lon="5.30967">
        <ele>620</ele>
      </trkpt>
      <trkpt lat="44.43912" lon="5.30992">
        <ele>627</ele>
      </trkpt>
      <trkpt lat="44.43913" lon="5.3101">
        <ele>628</ele>
      </trkpt>
      <trkpt lat="44.43901" lon="5.31044">
        <ele>622</ele>
      </trkpt>
      <trkpt lat="44.439" lon="5.31071">
        <ele>623</ele>
      </trkpt>
      <trkpt lat="44.43908" lon="5.31098">
        <ele>631</ele>
      </trkpt>
      <trkpt lat="44.43926" lon="5.31135">
        <ele>634</ele>
      </trkpt>
      <trkpt lat="44.43927" lon="5.31143">
        <ele>634</ele>
      </trkpt>
      <trkpt lat="44.43926" lon="5.31149">
        <ele>636</ele>
      </trkpt>
      <trkpt lat="44.43921" lon="5.31154">
        <ele>636</ele>
      </trkpt>
      <trkpt lat="44.43916" lon="5.31156">
        <ele>635</ele>
      </trkpt>
      <trkpt lat="44.43857" lon="5.31152">
        <ele>627</ele>
      </trkpt>
      <trkpt lat="44.43853" lon="5.31154">
        <ele>627</ele>
      </trkpt>
      <trkpt lat="44.43851" lon="5.31159">
        <ele>627</ele>
      </trkpt>
      <trkpt lat="44.43851" lon="5.31163">
        <ele>627</ele>
      </trkpt>
      <trkpt lat="44.43853" lon="5.31167">
        <ele>628</ele>
      </trkpt>
      <trkpt lat="44.43856" lon="5.31169">
        <ele>628</ele>
      </trkpt>
      <trkpt lat="44.43868" lon="5.31164">
        <ele>628</ele>
      </trkpt>
      <trkpt lat="44.43878" lon="5.31165">
        <ele>631</ele>
      </trkpt>
      <trkpt lat="44.43931" lon="5.31184">
        <ele>642</ele>
      </trkpt>
      <trkpt lat="44.43949" lon="5.31188">
        <ele>643</ele>
      </trkpt>
      <trkpt lat="44.43964" lon="5.31188">
        <ele>648</ele>
      </trkpt>
      <trkpt lat="44.43968" lon="5.3119">
        <ele>648</ele>
      </trkpt>
      <trkpt lat="44.43969" lon="5.31196">
        <ele>649</ele>
      </trkpt>
      <trkpt lat="44.43965" lon="5.31201">
        <ele>649</ele>
      </trkpt>
      <trkpt lat="44.4394" lon="5.31199">
        <ele>643</ele>
      </trkpt>
      <trkpt lat="44.43923" lon="5.31202">
        <ele>640</ele>
      </trkpt>
      <trkpt lat="44.43916" lon="5.31214">
        <ele>644</ele>
      </trkpt>
      <trkpt lat="44.43913" lon="5.31238">
        <ele>647</ele>
      </trkpt>
      <trkpt lat="44.43908" lon="5.31261">
        <ele>650</ele>
      </trkpt>
      <trkpt lat="44.43886" lon="5.31289">
        <ele>650</ele>
      </trkpt>
      <trkpt lat="44.43878" lon="5.31308">
        <ele>650</ele>
      </trkpt>
      <trkpt lat="44.43875" lon="5.31336">
        <ele>655</ele>
      </trkpt>
      <trkpt lat="44.43866" lon="5.31364">
        <ele>656</ele>
      </trkpt>
      <trkpt lat="44.43824" lon="5.31457">
        <ele>662</ele>
      </trkpt>
      <trkpt lat="44.4382" lon="5.31472">
        <ele>662</ele>
      </trkpt>
      <trkpt lat="44.43821" lon="5.31488">
        <ele>663</ele>
      </trkpt>
      <trkpt lat="44.43824" lon="5.31496">
        <ele>663</ele>
      </trkpt>
      <trkpt lat="44.43847" lon="5.31532">
        <ele>667</ele>
      </trkpt>
      <trkpt lat="44.43855" lon="5.31536">
        <ele>667</ele>
      </trkpt>
      <trkpt lat="44.43858" lon="5.31534">
        <ele>668</ele>
      </trkpt>
      <trkpt lat="44.43859" lon="5.31529">
        <ele>668</ele>
      </trkpt>
      <trkpt lat="44.43859" lon="5.31524">
        <ele>669</ele>
      </trkpt>
      <trkpt lat="44.43851" lon="5.315">
        <ele>668</ele>
      </trkpt>
      <trkpt lat="44.43851" lon="5.31484">
        <ele>668</ele>
      </trkpt>
      <trkpt lat="44.43855" lon="5.31476">
        <ele>668</ele>
      </trkpt>
      <trkpt lat="44.43871" lon="5.31454">
        <ele>669</ele>
      </trkpt>
      <trkpt lat="44.43895" lon="5.31432">
        <ele>673</ele>
      </trkpt>
      <trkpt lat="44.43907" lon="5.31425">
        <ele>675</ele>
      </trkpt>
      <trkpt lat="44.43957" lon="5.31402">
        <ele>682</ele>
      </trkpt>
      <trkpt lat="44.43969" lon="5.31393">
        <ele>680</ele>
      </trkpt>
      <trkpt lat="44.43985" lon="5.31377">
        <ele>684</ele>
      </trkpt>
      <trkpt lat="44.43992" lon="5.31376">
        <ele>685</ele>
      </trkpt>
      <trkpt lat="44.43997" lon="5.31382">
        <ele>686</ele>
      </trkpt>
      <trkpt lat="44.43997" lon="5.31391">
        <ele>686</ele>
      </trkpt>
      <trkpt lat="44.43978" lon="5.31412">
        <ele>685</ele>
      </trkpt>
      <trkpt lat="44.43974" lon="5.31419">
        <ele>685</ele>
      </trkpt>
      <trkpt lat="44.43967" lon="5.31437">
        <ele>687</ele>
      </trkpt>
      <trkpt lat="44.43963" lon="5.31469">
        <ele>688</ele>
      </trkpt>
      <trkpt lat="44.43964" lon="5.31491">
        <ele>689</ele>
      </trkpt>
      <trkpt lat="44.43969" lon="5.31521">
        <ele>691</ele>
      </trkpt>
      <trkpt lat="44.43977" lon="5.31546">
        <ele>692</ele>
      </trkpt>
      <trkpt lat="44.43983" lon="5.31558">
        <ele>693</ele>
      </trkpt>
      <trkpt lat="44.44003" lon="5.31589">
        <ele>696</ele>
      </trkpt>
      <trkpt lat="44.44027" lon="5.3165">
        <ele>693</ele>
      </trkpt>
      <trkpt lat="44.44039" lon="5.31665">
        <ele>693</ele>
      </trkpt>
      <trkpt lat="44.44052" lon="5.31671">
        <ele>696</ele>
      </trkpt>
      <trkpt lat="44.4407" lon="5.31674">
        <ele>698</ele>
      </trkpt>
      <trkpt lat="44.4409" lon="5.31672">
        <ele>699</ele>
      </trkpt>
      <trkpt lat="44.4414" lon="5.31657">
        <ele>703</ele>
      </trkpt>
      <trkpt lat="44.44176" lon="5.31656">
        <ele>707</ele>
      </trkpt>
      <trkpt lat="44.44206" lon="5.31662">
        <ele>709</ele>
      </trkpt>
      <trkpt lat="44.44244" lon="5.31677">
        <ele>693</ele>
      </trkpt>
      <trkpt lat="44.44263" lon="5.31679">
        <ele>685</ele>
      </trkpt>
      <trkpt lat="44.44274" lon="5.31672">
        <ele>698</ele>
      </trkpt>
      <trkpt lat="44.44296" lon="5.31644">
        <ele>710</ele>
      </trkpt>
      <trkpt lat="44.44316" lon="5.31625">
        <ele>712</ele>
      </trkpt>
      <trkpt lat="44.44334" lon="5.31611">
        <ele>721</ele>
      </trkpt>
      <trkpt lat="44.4436" lon="5.31605">
        <ele>718</ele>
      </trkpt>
      <trkpt lat="44.44366" lon="5.31607">
        <ele>719</ele>
      </trkpt>
      <trkpt lat="44.44379" lon="5.31617">
        <ele>715</ele>
      </trkpt>
      <trkpt lat="44.44385" lon="5.31618">
        <ele>715</ele>
      </trkpt>
      <trkpt lat="44.44413" lon="5.31611">
        <ele>715</ele>
      </trkpt>
      <trkpt lat="44.44441" lon="5.31598">
        <ele>713</ele>
      </trkpt>
      <trkpt lat="44.44459" lon="5.31606">
        <ele>708</ele>
      </trkpt>
      <trkpt lat="44.44461" lon="5.31606">
        <ele>708</ele>
      </trkpt>
      <trkpt lat="44.44476" lon="5.31592">
        <ele>720</ele>
      </trkpt>
      <trkpt lat="44.44488" lon="5.31586">
        <ele>721</ele>
      </trkpt>
      <trkpt lat="44.44501" lon="5.31582">
        <ele>722</ele>
      </trkpt>
      <trkpt lat="44.44526" lon="5.31582">
        <ele>718</ele>
      </trkpt>
      <trkpt lat="44.44568" lon="5.31558">
        <ele>717</ele>
      </trkpt>
      <trkpt lat="44.44602" lon="5.31548">
        <ele>705</ele>
      </trkpt>
      <trkpt lat="44.44618" lon="5.31539">
        <ele>704</ele>
      </trkpt>
      <trkpt lat="44.44633" lon="5.31524">
        <ele>707</ele>
      </trkpt>
      <trkpt lat="44.44714" lon="5.31411">
        <ele>730</ele>
      </trkpt>
      <trkpt lat="44.44753" lon="5.31377">
        <ele>729</ele>
      </trkpt>
      <trkpt lat="44.44773" lon="5.31363">
        <ele>736</ele>
      </trkpt>
      <trkpt lat="44.4482" lon="5.31346">
        <ele>752</ele>
      </trkpt>
      <trkpt lat="44.44832" lon="5.31344">
        <ele>755</ele>
      </trkpt>
      <trkpt lat="44.44843" lon="5.31345">
        <ele>755</ele>
      </trkpt>
      <trkpt lat="44.44853" lon="5.31351">
        <ele>756</ele>
      </trkpt>
      <trkpt lat="44.44866" lon="5.31363">
        <ele>752</ele>
      </trkpt>
      <trkpt lat="44.44888" lon="5.3138">
        <ele>740</ele>
      </trkpt>
      <trkpt lat="44.44917" lon="5.31395">
        <ele>742</ele>
      </trkpt>
      <trkpt lat="44.44931" lon="5.31399">
        <ele>739</ele>
      </trkpt>
      <trkpt lat="44.44942" lon="5.31401">
        <ele>739</ele>
      </trkpt>
      <trkpt lat="44.45028" lon="5.31404">
        <ele>752</ele>
      </trkpt>
      <trkpt lat="44.45062" lon="5.31422">
        <ele>755</ele>
      </trkpt>
      <trkpt lat="44.45089" lon="5.31428">
        <ele>753</ele>
      </trkpt>
      <trkpt lat="44.45113" lon="5.3144">
        <ele>755</ele>
      </trkpt>
      <trkpt lat="44.45153" lon="5.31425">
        <ele>772</ele>
      </trkpt>
      <trkpt lat="44.45177" lon="5.31439">
        <ele>767</ele>
      </trkpt>
      <trkpt lat="44.45214" lon="5.31478">
        <ele>767</ele>
      </trkpt>
      <trkpt lat="44.4528" lon="5.31476">
        <ele>768</ele>
      </trkpt>
      <trkpt lat="44.45316" lon="5.31452">
        <ele>779</ele>
      </trkpt>
      <trkpt lat="44.45366" lon="5.31453">
        <ele>784</ele>
      </trkpt>
      <trkpt lat="44.45395" lon="5.31475">
        <ele>782</ele>
      </trkpt>
      <trkpt lat="44.45419" lon="5.31531">
        <ele>777</ele>
      </trkpt>
      <trkpt lat="44.45438" lon="5.31553">
        <ele>777</ele>
      </trkpt>
      <trkpt lat="44.4547" lon="5.3158">
        <ele>775</ele>
      </trkpt>
      <trkpt lat="44.45484" lon="5.31578">
        <ele>775</ele>
      </trkpt>
      <trkpt lat="44.45496" lon="5.31573">
        <ele>775</ele>
      </trkpt>
      <trkpt lat="44.45575" lon="5.31552">
        <ele>776</ele>
      </trkpt>
      <trkpt lat="44.45608" lon="5.3153">
        <ele>777</ele>
      </trkpt>
      <trkpt lat="44.45626" lon="5.31522">
        <ele>778</ele>
      </trkpt>
      <trkpt lat="44.45682" lon="5.31521">
        <ele>778</ele>
      </trkpt>
      <trkpt lat="44.45718" lon="5.31514">
        <ele>776</ele>
      </trkpt>
      <trkpt lat="44.45747" lon="5.31503">
        <ele>775</ele>
      </trkpt>
      <trkpt lat="44.45767" lon="5.31502">
        <ele>775</ele>
      </trkpt>
      <trkpt lat="44.45774" lon="5.31506">
        <ele>775</ele>
      </trkpt>
      <trkpt lat="44.45814" lon="5.31549">
        <ele>775</ele>
      </trkpt>
      <trkpt lat="44.4582" lon="5.31558">
        <ele>776</ele>
      </trkpt>
      <trkpt lat="44.45822" lon="5.31561">
        <ele>776</ele>
      </trkpt>
      <trkpt lat="44.45829" lon="5.31559">
        <ele>776</ele>
      </trkpt>
      <trkpt lat="44.45848" lon="5.31536">
        <ele>777</ele>
      </trkpt>
      <trkpt lat="44.45863" lon="5.31525">
        <ele>778</ele>
      </trkpt>
      <trkpt lat="44.45892" lon="5.3151">
        <ele>779</ele>
      </trkpt>
      <trkpt lat="44.45903" lon="5.31494">
        <ele>780</ele>
      </trkpt>
      <trkpt lat="44.45914" lon="5.31458">
        <ele>779</ele>
      </trkpt>
      <trkpt lat="44.45924" lon="5.31436">
        <ele>780</ele>
      </trkpt>
      <trkpt lat="44.45961" lon="5.314">
        <ele>783</ele>
      </trkpt>
      <trkpt lat="44.46008" lon="5.31399">
        <ele>785</ele>
      </trkpt>
      <trkpt lat="44.46061" lon="5.31375">
        <ele>787</ele>
      </trkpt>
      <trkpt lat="44.46107" lon="5.31368">
        <ele>792</ele>
      </trkpt>
      <trkpt lat="44.46134" lon="5.31338">
        <ele>793</ele>
      </trkpt>
      <trkpt lat="44.46183" lon="5.31311">
        <ele>794</ele>
      </trkpt>
      <trkpt lat="44.4625" lon="5.31261">
        <ele>794</ele>
      </trkpt>
      <trkpt lat="44.46376" lon="5.31118">
        <ele>797</ele>
      </trkpt>
      <trkpt lat="44.46395" lon="5.31104">
        <ele>798</ele>
      </trkpt>
      <trkpt lat="44.4651" lon="5.31054">
        <ele>806</ele>
      </trkpt>
      <trkpt lat="44.46584" lon="5.31007">
        <ele>811</ele>
      </trkpt>
      <trkpt lat="44.4664" lon="5.3098">
        <ele>816</ele>
      </trkpt>
      <trkpt lat="44.46683" lon="5.30885">
        <ele>813</ele>
      </trkpt>
      <trkpt lat="44.46702" lon="5.30865">
        <ele>813</ele>
      </trkpt>
      <trkpt lat="44.46784" lon="5.30832">
        <ele>821</ele>
      </trkpt>
      <trkpt lat="44.46813" lon="5.30819">
        <ele>829</ele>
      </trkpt>
      <trkpt lat="44.46842" lon="5.30797">
        <ele>831</ele>
      </trkpt>
      <trkpt lat="44.46853" lon="5.30785">
        <ele>831</ele>
      </trkpt>
      <trkpt lat="44.46869" lon="5.3076">
        <ele>830</ele>
      </trkpt>
      <trkpt lat="44.46907" lon="5.30723">
        <ele>829</ele>
      </trkpt>
      <trkpt lat="44.46927" lon="5.30689">
        <ele>826</ele>
      </trkpt>
      <trkpt lat="44.46961" lon="5.30675">
        <ele>835</ele>
      </trkpt>
      <trkpt lat="44.46976" lon="5.30659">
        <ele>835</ele>
      </trkpt>
      <trkpt lat="44.46989" lon="5.30637">
        <ele>838</ele>
      </trkpt>
      <trkpt lat="44.47005" lon="5.30623">
        <ele>839</ele>
      </trkpt>
      <trkpt lat="44.4703" lon="5.30589">
        <ele>838</ele>
      </trkpt>
      <trkpt lat="44.47054" lon="5.30583">
        <ele>842</ele>
      </trkpt>
      <trkpt lat="44.47075" lon="5.30568">
        <ele>848</ele>
      </trkpt>
      <trkpt lat="44.47088" lon="5.30548">
        <ele>848</ele>
      </trkpt>
      <trkpt lat="44.47102" lon="5.30543">
        <ele>852</ele>
      </trkpt>
      <trkpt lat="44.47165" lon="5.30564">
        <ele>854</ele>
      </trkpt>
      <trkpt lat="44.47217" lon="5.30556">
        <ele>854</ele>
      </trkpt>
      <trkpt lat="44.47294" lon="5.30571">
        <ele>856</ele>
      </trkpt>
      <trkpt lat="44.47338" lon="5.30594">
        <ele>853</ele>
      </trkpt>
      <trkpt lat="44.47385" lon="5.30639">
        <ele>854</ele>
      </trkpt>
      <trkpt lat="44.47405" lon="5.30644">
        <ele>856</ele>
      </trkpt>
      <trkpt lat="44.47427" lon="5.30631">
        <ele>857</ele>
      </trkpt>
      <trkpt lat="44.4745" lon="5.30591">
        <ele>864</ele>
      </trkpt>
      <trkpt lat="44.47471" lon="5.30569">
        <ele>862</ele>
      </trkpt>
      <trkpt lat="44.47495" lon="5.30512">
        <ele>870</ele>
      </trkpt>
      <trkpt lat="44.4756" lon="5.30439">
        <ele>880</ele>
      </trkpt>
      <trkpt lat="44.47652" lon="5.30303">
        <ele>895</ele>
      </trkpt>
      <trkpt lat="44.47688" lon="5.30259">
        <ele>894</ele>
      </trkpt>
      <trkpt lat="44.47715" lon="5.30246">
        <ele>894</ele>
      </trkpt>
      <trkpt lat="44.47742" lon="5.30219">
        <ele>894</ele>
      </trkpt>
      <trkpt lat="44.47767" lon="5.30167">
        <ele>902</ele>
      </trkpt>
      <trkpt lat="44.47773" lon="5.30132">
        <ele>907</ele>
      </trkpt>
      <trkpt lat="44.47823" lon="5.30057">
        <ele>919</ele>
      </trkpt>
      <trkpt lat="44.47854" lon="5.30022">
        <ele>922</ele>
      </trkpt>
      <trkpt lat="44.4787" lon="5.29993">
        <ele>925</ele>
      </trkpt>
      <trkpt lat="44.47875" lon="5.2996">
        <ele>926</ele>
      </trkpt>
      <trkpt lat="44.47901" lon="5.29888">
        <ele>930</ele>
      </trkpt>
      <trkpt lat="44.47905" lon="5.29825">
        <ele>935</ele>
      </trkpt>
      <trkpt lat="44.47921" lon="5.29761">
        <ele>942</ele>
      </trkpt>
      <trkpt lat="44.47938" lon="5.29742">
        <ele>944</ele>
      </trkpt>
      <trkpt lat="44.47951" lon="5.29716">
        <ele>948</ele>
      </trkpt>
      <trkpt lat="44.47965" lon="5.29701">
        <ele>950</ele>
      </trkpt>
      <trkpt lat="44.47979" lon="5.29696">
        <ele>951</ele>
      </trkpt>
      <trkpt lat="44.4801" lon="5.29664">
        <ele>953</ele>
      </trkpt>
      <trkpt lat="44.4807" lon="5.29648">
        <ele>959</ele>
      </trkpt>
      <trkpt lat="44.48145" lon="5.2957">
        <ele>969</ele>
      </trkpt>
      <trkpt lat="44.48164" lon="5.29558">
        <ele>973</ele>
      </trkpt>
      <trkpt lat="44.4821" lon="5.29536">
        <ele>974</ele>
      </trkpt>
      <trkpt lat="44.48262" lon="5.2947">
        <ele>961</ele>
      </trkpt>
      <trkpt lat="44.48278" lon="5.2939">
        <ele>953</ele>
      </trkpt>
      <trkpt lat="44.48306" lon="5.29349">
        <ele>946</ele>
      </trkpt>
      <trkpt lat="44.48334" lon="5.2933">
        <ele>940</ele>
      </trkpt>
      <trkpt lat="44.48356" lon="5.29276">
        <ele>936</ele>
      </trkpt>
      <trkpt lat="44.48376" lon="5.29252">
        <ele>934</ele>
      </trkpt>
      <trkpt lat="44.48392" lon="5.29213">
        <ele>937</ele>
      </trkpt>
      <trkpt lat="44.48404" lon="5.29196">
        <ele>939</ele>
      </trkpt>
      <trkpt lat="44.48416" lon="5.2919">
        <ele>938</ele>
      </trkpt>
      <trkpt lat="44.48456" lon="5.29212">
        <ele>935</ele>
      </trkpt>
      <trkpt lat="44.48484" lon="5.29241">
        <ele>930</ele>
      </trkpt>
      <trkpt lat="44.48526" lon="5.29263">
        <ele>921</ele>
      </trkpt>
      <trkpt lat="44.48552" lon="5.29281">
        <ele>919</ele>
      </trkpt>
      <trkpt lat="44.48566" lon="5.29288">
        <ele>915</ele>
      </trkpt>
      <trkpt lat="44.4858" lon="5.29294">
        <ele>915</ele>
      </trkpt>
      <trkpt lat="44.48595" lon="5.29295">
        <ele>916</ele>
      </trkpt>
      <trkpt lat="44.4862" lon="5.29307">
        <ele>916</ele>
      </trkpt>
      <trkpt lat="44.48671" lon="5.29316">
        <ele>914</ele>
      </trkpt>
      <trkpt lat="44.487" lon="5.29334">
        <ele>914</ele>
      </trkpt>
      <trkpt lat="44.48749" lon="5.29342">
        <ele>917</ele>
      </trkpt>
      <trkpt lat="44.48777" lon="5.29363">
        <ele>918</ele>
      </trkpt>
      <trkpt lat="44.48794" lon="5.29406">
        <ele>914</ele>
      </trkpt>
      <trkpt lat="44.48825" lon="5.29462">
        <ele>910</ele>
      </trkpt>
      <trkpt lat="44.48872" lon="5.29504">
        <ele>908</ele>
      </trkpt>
      <trkpt lat="44.48891" lon="5.29533">
        <ele>906</ele>
      </trkpt>
      <trkpt lat="44.48915" lon="5.29553">
        <ele>909</ele>
      </trkpt>
      <trkpt lat="44.48937" lon="5.2961">
        <ele>908</ele>
      </trkpt>
      <trkpt lat="44.48939" lon="5.29637">
        <ele>903</ele>
      </trkpt>
      <trkpt lat="44.48956" lon="5.29688">
        <ele>897</ele>
      </trkpt>
      <trkpt lat="44.48963" lon="5.297">
        <ele>900</ele>
      </trkpt>
      <trkpt lat="44.48987" lon="5.29718">
        <ele>901</ele>
      </trkpt>
      <trkpt lat="44.49051" lon="5.29866">
        <ele>883</ele>
      </trkpt>
      <trkpt lat="44.49058" lon="5.29873">
        <ele>879</ele>
      </trkpt>
      <trkpt lat="44.49089" lon="5.29873">
        <ele>877</ele>
      </trkpt>
      <trkpt lat="44.49102" lon="5.29863">
        <ele>875</ele>
      </trkpt>
      <trkpt lat="44.4912" lon="5.29828">
        <ele>878</ele>
      </trkpt>
      <trkpt lat="44.49135" lon="5.29816">
        <ele>874</ele>
      </trkpt>
      <trkpt lat="44.49185" lon="5.29802">
        <ele>869</ele>
      </trkpt>
      <trkpt lat="44.49202" lon="5.2979">
        <ele>869</ele>
      </trkpt>
      <trkpt lat="44.49208" lon="5.29792">
        <ele>869</ele>
      </trkpt>
      <trkpt lat="44.4921" lon="5.29798">
        <ele>866</ele>
      </trkpt>
      <trkpt lat="44.49206" lon="5.29806">
        <ele>868</ele>
      </trkpt>
      <trkpt lat="44.49196" lon="5.29812">
        <ele>868</ele>
      </trkpt>
      <trkpt lat="44.49181" lon="5.29832">
        <ele>865</ele>
      </trkpt>
      <trkpt lat="44.49168" lon="5.2985">
        <ele>864</ele>
      </trkpt>
      <trkpt lat="44.49168" lon="5.29859">
        <ele>863</ele>
      </trkpt>
      <trkpt lat="44.49173" lon="5.29862">
        <ele>863</ele>
      </trkpt>
      <trkpt lat="44.49187" lon="5.29851">
        <ele>861</ele>
      </trkpt>
      <trkpt lat="44.49207" lon="5.29846">
        <ele>860</ele>
      </trkpt>
      <trkpt lat="44.49225" lon="5.29848">
        <ele>858</ele>
      </trkpt>
      <trkpt lat="44.49241" lon="5.29857">
        <ele>857</ele>
      </trkpt>
      <trkpt lat="44.49256" lon="5.29868">
        <ele>857</ele>
      </trkpt>
      <trkpt lat="44.4928" lon="5.29894">
        <ele>855</ele>
      </trkpt>
      <trkpt lat="44.4931" lon="5.29909">
        <ele>851</ele>
      </trkpt>
      <trkpt lat="44.49315" lon="5.29914">
        <ele>851</ele>
      </trkpt>
      <trkpt lat="44.49315" lon="5.29925">
        <ele>848</ele>
      </trkpt>
      <trkpt lat="44.49275" lon="5.30016">
        <ele>842</ele>
      </trkpt>
      <trkpt lat="44.49266" lon="5.30022">
        <ele>842</ele>
      </trkpt>
      <trkpt lat="44.49245" lon="5.30026">
        <ele>841</ele>
      </trkpt>
      <trkpt lat="44.49222" lon="5.30042">
        <ele>837</ele>
      </trkpt>
      <trkpt lat="44.49216" lon="5.30057">
        <ele>837</ele>
      </trkpt>
      <trkpt lat="44.49233" lon="5.30065">
        <ele>835</ele>
      </trkpt>
      <trkpt lat="44.49259" lon="5.30099">
        <ele>834</ele>
      </trkpt>
      <trkpt lat="44.4927" lon="5.30152">
        <ele>833</ele>
      </trkpt>
      <trkpt lat="44.49289" lon="5.30161">
        <ele>835</ele>
      </trkpt>
      <trkpt lat="44.49294" lon="5.3017">
        <ele>840</ele>
      </trkpt>
      <trkpt lat="44.49294" lon="5.30182">
        <ele>841</ele>
      </trkpt>
      <trkpt lat="44.49279" lon="5.30205">
        <ele>837</ele>
      </trkpt>
      <trkpt lat="44.49272" lon="5.30239">
        <ele>840</ele>
      </trkpt>
      <trkpt lat="44.49267" lon="5.30245">
        <ele>839</ele>
      </trkpt>
      <trkpt lat="44.49262" lon="5.30275">
        <ele>835</ele>
      </trkpt>
      <trkpt lat="44.49247" lon="5.30335">
        <ele>836</ele>
      </trkpt>
      <trkpt lat="44.49245" lon="5.30367">
        <ele>836</ele>
      </trkpt>
      <trkpt lat="44.49247" lon="5.30388">
        <ele>836</ele>
      </trkpt>
      <trkpt lat="44.49275" lon="5.30533">
        <ele>828</ele>
      </trkpt>
      <trkpt lat="44.49284" lon="5.30611">
        <ele>825</ele>
      </trkpt>
      <trkpt lat="44.49281" lon="5.30633">
        <ele>824</ele>
      </trkpt>
      <trkpt lat="44.4927" lon="5.30666">
        <ele>823</ele>
      </trkpt>
      <trkpt lat="44.49232" lon="5.30741">
        <ele>815</ele>
      </trkpt>
      <trkpt lat="44.49229" lon="5.30768">
        <ele>813</ele>
      </trkpt>
      <trkpt lat="44.4923" lon="5.30785">
        <ele>813</ele>
      </trkpt>
      <trkpt lat="44.49276" lon="5.30901">
        <ele>807</ele>
      </trkpt>
      <trkpt lat="44.49314" lon="5.30981">
        <ele>800</ele>
      </trkpt>
      <trkpt lat="44.49328" lon="5.31005">
        <ele>802</ele>
      </trkpt>
      <trkpt lat="44.49353" lon="5.31031">
        <ele>804</ele>
      </trkpt>
      <trkpt lat="44.49361" lon="5.31043">
        <ele>802</ele>
      </trkpt>
      <trkpt lat="44.49371" lon="5.31068">
        <ele>802</ele>
      </trkpt>
      <trkpt lat="44.49374" lon="5.31082">
        <ele>802</ele>
      </trkpt>
      <trkpt lat="44.49375" lon="5.31098">
        <ele>807</ele>
      </trkpt>
      <trkpt lat="44.49368" lon="5.3113">
        <ele>800</ele>
      </trkpt>
      <trkpt lat="44.49364" lon="5.31162">
        <ele>798</ele>
      </trkpt>
      <trkpt lat="44.49368" lon="5.31193">
        <ele>796</ele>
      </trkpt>
      <trkpt lat="44.49402" lon="5.31265">
        <ele>788</ele>
      </trkpt>
      <trkpt lat="44.49417" lon="5.31282">
        <ele>789</ele>
      </trkpt>
      <trkpt lat="44.49446" lon="5.313">
        <ele>785</ele>
      </trkpt>
      <trkpt lat="44.49454" lon="5.31308">
        <ele>785</ele>
      </trkpt>
      <trkpt lat="44.49461" lon="5.3132">
        <ele>784</ele>
      </trkpt>
      <trkpt lat="44.49466" lon="5.31334">
        <ele>784</ele>
      </trkpt>
      <trkpt lat="44.49467" lon="5.31348">
        <ele>783</ele>
      </trkpt>
      <trkpt lat="44.49464" lon="5.31363">
        <ele>783</ele>
      </trkpt>
      <trkpt lat="44.49454" lon="5.31386">
        <ele>780</ele>
      </trkpt>
      <trkpt lat="44.49436" lon="5.31445">
        <ele>781</ele>
      </trkpt>
      <trkpt lat="44.49422" lon="5.31534">
        <ele>778</ele>
      </trkpt>
      <trkpt lat="44.49418" lon="5.31598">
        <ele>774</ele>
      </trkpt>
      <trkpt lat="44.49407" lon="5.31656">
        <ele>770</ele>
      </trkpt>
      <trkpt lat="44.49383" lon="5.31762">
        <ele>764</ele>
      </trkpt>
      <trkpt lat="44.49375" lon="5.31788">
        <ele>765</ele>
      </trkpt>
      <trkpt lat="44.4936" lon="5.31815">
        <ele>764</ele>
      </trkpt>
      <trkpt lat="44.49333" lon="5.31845">
        <ele>760</ele>
      </trkpt>
      <trkpt lat="44.49322" lon="5.31862">
        <ele>760</ele>
      </trkpt>
      <trkpt lat="44.49309" lon="5.31889">
        <ele>757</ele>
      </trkpt>
      <trkpt lat="44.49292" lon="5.31955">
        <ele>760</ele>
      </trkpt>
      <trkpt lat="44.49286" lon="5.32003">
        <ele>753</ele>
      </trkpt>
      <trkpt lat="44.49315" lon="5.32151">
        <ele>742</ele>
      </trkpt>
      <trkpt lat="44.49317" lon="5.32172">
        <ele>743</ele>
      </trkpt>
      <trkpt lat="44.49316" lon="5.32186">
        <ele>745</ele>
      </trkpt>
      <trkpt lat="44.49302" lon="5.32213">
        <ele>748</ele>
      </trkpt>
      <trkpt lat="44.4929" lon="5.32223">
        <ele>746</ele>
      </trkpt>
      <trkpt lat="44.49231" lon="5.32251">
        <ele>742</ele>
      </trkpt>
      <trkpt lat="44.49217" lon="5.32263">
        <ele>743</ele>
      </trkpt>
      <trkpt lat="44.49207" lon="5.32278">
        <ele>740</ele>
      </trkpt>
      <trkpt lat="44.49175" lon="5.32363">
        <ele>740</ele>
      </trkpt>
      <trkpt lat="44.49155" lon="5.32394">
        <ele>741</ele>
      </trkpt>
      <trkpt lat="44.49118" lon="5.32462">
        <ele>737</ele>
      </trkpt>
      <trkpt lat="44.49091" lon="5.32485">
        <ele>734</ele>
      </trkpt>
      <trkpt lat="44.49056" lon="5.32508">
        <ele>730</ele>
      </trkpt>
      <trkpt lat="44.49043" lon="5.32524">
        <ele>732</ele>
      </trkpt>
      <trkpt lat="44.49034" lon="5.32542">
        <ele>731</ele>
      </trkpt>
      <trkpt lat="44.49026" lon="5.32613">
        <ele>734</ele>
      </trkpt>
      <trkpt lat="44.4902" lon="5.32637">
        <ele>736</ele>
      </trkpt>
      <trkpt lat="44.48986" lon="5.32705">
        <ele>739</ele>
      </trkpt>
      <trkpt lat="44.48965" lon="5.32736">
        <ele>738</ele>
      </trkpt>
      <trkpt lat="44.48897" lon="5.32791">
        <ele>730</ele>
      </trkpt>
      <trkpt lat="44.48874" lon="5.3282">
        <ele>727</ele>
      </trkpt>
      <trkpt lat="44.48838" lon="5.32875">
        <ele>730</ele>
      </trkpt>
      <trkpt lat="44.48823" lon="5.32888">
        <ele>730</ele>
      </trkpt>
      <trkpt lat="44.48791" lon="5.32909">
        <ele>725</ele>
      </trkpt>
      <trkpt lat="44.48778" lon="5.32921">
        <ele>725</ele>
      </trkpt>
      <trkpt lat="44.48753" lon="5.3296">
        <ele>728</ele>
      </trkpt>
      <trkpt lat="44.48744" lon="5.32971">
        <ele>728</ele>
      </trkpt>
      <trkpt lat="44.48695" lon="5.33019">
        <ele>722</ele>
      </trkpt>
      <trkpt lat="44.48664" lon="5.33055">
        <ele>718</ele>
      </trkpt>
      <trkpt lat="44.48641" lon="5.33093">
        <ele>714</ele>
      </trkpt>
      <trkpt lat="44.48625" lon="5.33103">
        <ele>713</ele>
      </trkpt>
      <trkpt lat="44.48607" lon="5.33119">
        <ele>709</ele>
      </trkpt>
      <trkpt lat="44.48599" lon="5.33132">
        <ele>710</ele>
      </trkpt>
      <trkpt lat="44.48575" lon="5.33207">
        <ele>711</ele>
      </trkpt>
      <trkpt lat="44.48568" lon="5.33219">
        <ele>709</ele>
      </trkpt>
      <trkpt lat="44.48498" lon="5.33299">
        <ele>704</ele>
      </trkpt>
      <trkpt lat="44.48491" lon="5.3331">
        <ele>703</ele>
      </trkpt>
      <trkpt lat="44.48485" lon="5.33325">
        <ele>702</ele>
      </trkpt>
      <trkpt lat="44.48478" lon="5.33352">
        <ele>703</ele>
      </trkpt>
      <trkpt lat="44.48459" lon="5.33452">
        <ele>707</ele>
      </trkpt>
      <trkpt lat="44.48454" lon="5.33466">
        <ele>705</ele>
      </trkpt>
      <trkpt lat="44.48446" lon="5.33478">
        <ele>704</ele>
      </trkpt>
      <trkpt lat="44.48437" lon="5.33485">
        <ele>707</ele>
      </trkpt>
      <trkpt lat="44.48402" lon="5.33504">
        <ele>699</ele>
      </trkpt>
      <trkpt lat="44.48391" lon="5.33512">
        <ele>703</ele>
      </trkpt>
      <trkpt lat="44.48383" lon="5.33523">
        <ele>704</ele>
      </trkpt>
      <trkpt lat="44.48367" lon="5.33556">
        <ele>702</ele>
      </trkpt>
      <trkpt lat="44.48338" lon="5.33601">
        <ele>699</ele>
      </trkpt>
      <trkpt lat="44.48334" lon="5.33616">
        <ele>699</ele>
      </trkpt>
      <trkpt lat="44.48332" lon="5.33635">
        <ele>700</ele>
      </trkpt>
      <trkpt lat="44.48333" lon="5.33672">
        <ele>702</ele>
      </trkpt>
      <trkpt lat="44.48336" lon="5.33734">
        <ele>708</ele>
      </trkpt>
      <trkpt lat="44.48334" lon="5.33755">
        <ele>708</ele>
      </trkpt>
      <trkpt lat="44.48326" lon="5.33773">
        <ele>709</ele>
      </trkpt>
      <trkpt lat="44.48292" lon="5.3383">
        <ele>699</ele>
      </trkpt>
      <trkpt lat="44.48285" lon="5.33851">
        <ele>693</ele>
      </trkpt>
      <trkpt lat="44.48284" lon="5.33875">
        <ele>695</ele>
      </trkpt>
      <trkpt lat="44.48286" lon="5.33956">
        <ele>694</ele>
      </trkpt>
      <trkpt lat="44.48285" lon="5.33995">
        <ele>692</ele>
      </trkpt>
      <trkpt lat="44.4828" lon="5.34033">
        <ele>692</ele>
      </trkpt>
      <trkpt lat="44.48259" lon="5.34122">
        <ele>692</ele>
      </trkpt>
      <trkpt lat="44.48246" lon="5.3419">
        <ele>690</ele>
      </trkpt>
      <trkpt lat="44.48243" lon="5.34222">
        <ele>691</ele>
      </trkpt>
      <trkpt lat="44.48242" lon="5.34254">
        <ele>691</ele>
      </trkpt>
      <trkpt lat="44.48253" lon="5.34391">
        <ele>679</ele>
      </trkpt>
      <trkpt lat="44.48251" lon="5.34407">
        <ele>677</ele>
      </trkpt>
      <trkpt lat="44.48222" lon="5.3446">
        <ele>677</ele>
      </trkpt>
      <trkpt lat="44.48173" lon="5.34528">
        <ele>680</ele>
      </trkpt>
      <trkpt lat="44.48163" lon="5.34546">
        <ele>684</ele>
      </trkpt>
      <trkpt lat="44.48154" lon="5.34555">
        <ele>684</ele>
      </trkpt>
      <trkpt lat="44.48141" lon="5.3456">
        <ele>678</ele>
      </trkpt>
      <trkpt lat="44.48086" lon="5.34571">
        <ele>672</ele>
      </trkpt>
      <trkpt lat="44.48063" lon="5.34586">
        <ele>668</ele>
      </trkpt>
      <trkpt lat="44.48045" lon="5.34608">
        <ele>671</ele>
      </trkpt>
      <trkpt lat="44.48012" lon="5.34695">
        <ele>670</ele>
      </trkpt>
      <trkpt lat="44.48" lon="5.34706">
        <ele>674</ele>
      </trkpt>
      <trkpt lat="44.47916" lon="5.34753">
        <ele>664</ele>
      </trkpt>
      <trkpt lat="44.47892" lon="5.34774">
        <ele>667</ele>
      </trkpt>
      <trkpt lat="44.47871" lon="5.34801">
        <ele>668</ele>
      </trkpt>
      <trkpt lat="44.47842" lon="5.34849">
        <ele>669</ele>
      </trkpt>
      <trkpt lat="44.47828" lon="5.34869">
        <ele>669</ele>
      </trkpt>
      <trkpt lat="44.47812" lon="5.34885">
        <ele>667</ele>
      </trkpt>
      <trkpt lat="44.47714" lon="5.34947">
        <ele>663</ele>
      </trkpt>
      <trkpt lat="44.47684" lon="5.34972">
        <ele>661</ele>
      </trkpt>
      <trkpt lat="44.47667" lon="5.34994">
        <ele>659</ele>
      </trkpt>
      <trkpt lat="44.47633" lon="5.35046">
        <ele>665</ele>
      </trkpt>
      <trkpt lat="44.47545" lon="5.35166">
        <ele>661</ele>
      </trkpt>
      <trkpt lat="44.47533" lon="5.35181">
        <ele>660</ele>
      </trkpt>
      <trkpt lat="44.47487" lon="5.35215">
        <ele>659</ele>
      </trkpt>
      <trkpt lat="44.4747" lon="5.35238">
        <ele>657</ele>
      </trkpt>
      <trkpt lat="44.47456" lon="5.35265">
        <ele>653</ele>
      </trkpt>
      <trkpt lat="44.47431" lon="5.35322">
        <ele>667</ele>
      </trkpt>
      <trkpt lat="44.47403" lon="5.35372">
        <ele>672</ele>
      </trkpt>
      <trkpt lat="44.4739" lon="5.35385">
        <ele>659</ele>
      </trkpt>
      <trkpt lat="44.47339" lon="5.35414">
        <ele>647</ele>
      </trkpt>
      <trkpt lat="44.47303" lon="5.35431">
        <ele>647</ele>
      </trkpt>
      <trkpt lat="44.47248" lon="5.35468">
        <ele>643</ele>
      </trkpt>
      <trkpt lat="44.47234" lon="5.35471">
        <ele>640</ele>
      </trkpt>
      <trkpt lat="44.47189" lon="5.35467">
        <ele>634</ele>
      </trkpt>
      <trkpt lat="44.47171" lon="5.35471">
        <ele>633</ele>
      </trkpt>
      <trkpt lat="44.4715" lon="5.35479">
        <ele>631</ele>
      </trkpt>
      <trkpt lat="44.47134" lon="5.35494">
        <ele>634</ele>
      </trkpt>
      <trkpt lat="44.47123" lon="5.3551">
        <ele>632</ele>
      </trkpt>
      <trkpt lat="44.47113" lon="5.35557">
        <ele>640</ele>
      </trkpt>
      <trkpt lat="44.47109" lon="5.35566">
        <ele>648</ele>
      </trkpt>
      <trkpt lat="44.47077" lon="5.3559">
        <ele>636</ele>
      </trkpt>
      <trkpt lat="44.47072" lon="5.35597">
        <ele>643</ele>
      </trkpt>
      <trkpt lat="44.4707" lon="5.35617">
        <ele>646</ele>
      </trkpt>
      <trkpt lat="44.47067" lon="5.35626">
        <ele>645</ele>
      </trkpt>
      <trkpt lat="44.47047" lon="5.35645">
        <ele>644</ele>
      </trkpt>
      <trkpt lat="44.47036" lon="5.35653">
        <ele>641</ele>
      </trkpt>
      <trkpt lat="44.47001" lon="5.35671">
        <ele>630</ele>
      </trkpt>
      <trkpt lat="44.46969" lon="5.35692">
        <ele>627</ele>
      </trkpt>
      <trkpt lat="44.46942" lon="5.35707">
        <ele>626</ele>
      </trkpt>
      <trkpt lat="44.46938" lon="5.35711">
        <ele>626</ele>
      </trkpt>
      <trkpt lat="44.46923" lon="5.35744">
        <ele>631</ele>
      </trkpt>
      <trkpt lat="44.46918" lon="5.35752">
        <ele>632</ele>
      </trkpt>
      <trkpt lat="44.4691" lon="5.35758">
        <ele>633</ele>
      </trkpt>
      <trkpt lat="44.46886" lon="5.35766">
        <ele>629</ele>
      </trkpt>
      <trkpt lat="44.46867" lon="5.35778">
        <ele>614</ele>
      </trkpt>
      <trkpt lat="44.46863" lon="5.35784">
        <ele>614</ele>
      </trkpt>
      <trkpt lat="44.46857" lon="5.3582">
        <ele>615</ele>
      </trkpt>
      <trkpt lat="44.46861" lon="5.3584">
        <ele>617</ele>
      </trkpt>
      <trkpt lat="44.46876" lon="5.35867">
        <ele>638</ele>
      </trkpt>
      <trkpt lat="44.4688" lon="5.35882">
        <ele>639</ele>
      </trkpt>
      <trkpt lat="44.46881" lon="5.35922">
        <ele>630</ele>
      </trkpt>
      <trkpt lat="44.46884" lon="5.35933">
        <ele>623</ele>
      </trkpt>
      <trkpt lat="44.46913" lon="5.35984">
        <ele>618</ele>
      </trkpt>
      <trkpt lat="44.46918" lon="5.36004">
        <ele>616</ele>
      </trkpt>
      <trkpt lat="44.46922" lon="5.36015">
        <ele>611</ele>
      </trkpt>
      <trkpt lat="44.46935" lon="5.36033">
        <ele>624</ele>
      </trkpt>
      <trkpt lat="44.46939" lon="5.36041">
        <ele>620</ele>
      </trkpt>
      <trkpt lat="44.46944" lon="5.36071">
        <ele>614</ele>
      </trkpt>
      <trkpt lat="44.46952" lon="5.361">
        <ele>613</ele>
      </trkpt>
      <trkpt lat="44.46954" lon="5.36116">
        <ele>614</ele>
      </trkpt>
      <trkpt lat="44.46952" lon="5.36127">
        <ele>614</ele>
      </trkpt>
      <trkpt lat="44.46947" lon="5.36137">
        <ele>612</ele>
      </trkpt>
      <trkpt lat="44.46927" lon="5.36156">
        <ele>599</ele>
      </trkpt>
      <trkpt lat="44.46924" lon="5.36165">
        <ele>599</ele>
      </trkpt>
      <trkpt lat="44.46919" lon="5.36211">
        <ele>603</ele>
      </trkpt>
      <trkpt lat="44.46919" lon="5.36241">
        <ele>606</ele>
      </trkpt>
      <trkpt lat="44.46916" lon="5.36251">
        <ele>606</ele>
      </trkpt>
      <trkpt lat="44.4691" lon="5.36258">
        <ele>606</ele>
      </trkpt>
      <trkpt lat="44.46894" lon="5.3627">
        <ele>598</ele>
      </trkpt>
      <trkpt lat="44.46885" lon="5.36285">
        <ele>597</ele>
      </trkpt>
      <trkpt lat="44.46878" lon="5.36291">
        <ele>599</ele>
      </trkpt>
      <trkpt lat="44.46841" lon="5.36305">
        <ele>579</ele>
      </trkpt>
      <trkpt lat="44.46835" lon="5.36313">
        <ele>579</ele>
      </trkpt>
      <trkpt lat="44.46832" lon="5.36324">
        <ele>582</ele>
      </trkpt>
      <trkpt lat="44.46833" lon="5.36335">
        <ele>583</ele>
      </trkpt>
      <trkpt lat="44.4684" lon="5.36364">
        <ele>586</ele>
      </trkpt>
      <trkpt lat="44.46839" lon="5.36376">
        <ele>586</ele>
      </trkpt>
      <trkpt lat="44.46834" lon="5.36381">
        <ele>585</ele>
      </trkpt>
      <trkpt lat="44.46826" lon="5.36381">
        <ele>584</ele>
      </trkpt>
      <trkpt lat="44.46802" lon="5.36375">
        <ele>578</ele>
      </trkpt>
      <trkpt lat="44.46794" lon="5.36381">
        <ele>577</ele>
      </trkpt>
      <trkpt lat="44.46787" lon="5.36392">
        <ele>572</ele>
      </trkpt>
      <trkpt lat="44.46784" lon="5.3641">
        <ele>571</ele>
      </trkpt>
      <trkpt lat="44.4678" lon="5.36417">
        <ele>571</ele>
      </trkpt>
      <trkpt lat="44.46774" lon="5.36421">
        <ele>570</ele>
      </trkpt>
      <trkpt lat="44.46763" lon="5.36418">
        <ele>569</ele>
      </trkpt>
      <trkpt lat="44.46745" lon="5.36408">
        <ele>564</ele>
      </trkpt>
      <trkpt lat="44.46719" lon="5.36403">
        <ele>559</ele>
      </trkpt>
      <trkpt lat="44.46685" lon="5.36406">
        <ele>554</ele>
      </trkpt>
      <trkpt lat="44.46637" lon="5.36421">
        <ele>549</ele>
      </trkpt>
      <trkpt lat="44.46622" lon="5.36429">
        <ele>547</ele>
      </trkpt>
      <trkpt lat="44.46612" lon="5.3644">
        <ele>548</ele>
      </trkpt>
      <trkpt lat="44.46607" lon="5.36455">
        <ele>546</ele>
      </trkpt>
      <trkpt lat="44.46609" lon="5.36471">
        <ele>546</ele>
      </trkpt>
      <trkpt lat="44.46621" lon="5.36486">
        <ele>543</ele>
      </trkpt>
      <trkpt lat="44.46633" lon="5.36493">
        <ele>545</ele>
      </trkpt>
      <trkpt lat="44.4665" lon="5.365">
        <ele>545</ele>
      </trkpt>
      <trkpt lat="44.46668" lon="5.365">
        <ele>545</ele>
      </trkpt>
      <trkpt lat="44.46689" lon="5.36496">
        <ele>545</ele>
      </trkpt>
      <trkpt lat="44.46736" lon="5.36482">
        <ele>555</ele>
      </trkpt>
      <trkpt lat="44.46743" lon="5.36486">
        <ele>551</ele>
      </trkpt>
      <trkpt lat="44.46747" lon="5.36497">
        <ele>551</ele>
      </trkpt>
      <trkpt lat="44.46749" lon="5.36537">
        <ele>543</ele>
      </trkpt>
      <trkpt lat="44.46752" lon="5.36547">
        <ele>539</ele>
      </trkpt>
      <trkpt lat="44.46766" lon="5.36563">
        <ele>542</ele>
      </trkpt>
      <trkpt lat="44.46784" lon="5.36578">
        <ele>541</ele>
      </trkpt>
      <trkpt lat="44.46791" lon="5.36589">
        <ele>547</ele>
      </trkpt>
      <trkpt lat="44.46794" lon="5.36601">
        <ele>546</ele>
      </trkpt>
      <trkpt lat="44.46795" lon="5.36643">
        <ele>543</ele>
      </trkpt>
      <trkpt lat="44.468" lon="5.3666">
        <ele>540</ele>
      </trkpt>
      <trkpt lat="44.46824" lon="5.36715">
        <ele>538</ele>
      </trkpt>
      <trkpt lat="44.46826" lon="5.36726">
        <ele>537</ele>
      </trkpt>
      <trkpt lat="44.46825" lon="5.3673">
        <ele>537</ele>
      </trkpt>
      <trkpt lat="44.46854" lon="5.36764">
        <ele>533</ele>
      </trkpt>
      <trkpt lat="44.46952" lon="5.3691">
        <ele>529</ele>
      </trkpt>
      <trkpt lat="44.46985" lon="5.36952">
        <ele>529</ele>
      </trkpt>
      <trkpt lat="44.47002" lon="5.36969">
        <ele>528</ele>
      </trkpt>
      <trkpt lat="44.4702" lon="5.36984">
        <ele>528</ele>
      </trkpt>
      <trkpt lat="44.47058" lon="5.37011">
        <ele>529</ele>
      </trkpt>
      <trkpt lat="44.47141" lon="5.37057">
        <ele>534</ele>
      </trkpt>
      <trkpt lat="44.47184" lon="5.37076">
        <ele>535</ele>
      </trkpt>
      <trkpt lat="44.47206" lon="5.37082">
        <ele>535</ele>
      </trkpt>
      <trkpt lat="44.47326" lon="5.37107">
        <ele>540</ele>
      </trkpt>
      <trkpt lat="44.47345" lon="5.37113">
        <ele>541</ele>
      </trkpt>
      <trkpt lat="44.47361" lon="5.37122">
        <ele>542</ele>
      </trkpt>
      <trkpt lat="44.47377" lon="5.37136">
        <ele>545</ele>
      </trkpt>
      <trkpt lat="44.47419" lon="5.37191">
        <ele>539</ele>
      </trkpt>
      <trkpt lat="44.47435" lon="5.37208">
        <ele>540</ele>
      </trkpt>
      <trkpt lat="44.4749" lon="5.3725">
        <ele>544</ele>
      </trkpt>
      <trkpt lat="44.4753" lon="5.37275">
        <ele>542</ele>
      </trkpt>
      <trkpt lat="44.47691" lon="5.37365">
        <ele>538</ele>
      </trkpt>
      <trkpt lat="44.4771" lon="5.37373">
        <ele>536</ele>
      </trkpt>
      <trkpt lat="44.4773" lon="5.37378">
        <ele>536</ele>
      </trkpt>
      <trkpt lat="44.47767" lon="5.37383">
        <ele>538</ele>
      </trkpt>
      <trkpt lat="44.47777" lon="5.37386">
        <ele>537</ele>
      </trkpt>
      <trkpt lat="44.47808" lon="5.37383">
        <ele>537</ele>
      </trkpt>
      <trkpt lat="44.47855" lon="5.37372">
        <ele>540</ele>
      </trkpt>
      <trkpt lat="44.47887" lon="5.37373">
        <ele>541</ele>
      </trkpt>
      <trkpt lat="44.47907" lon="5.3738">
        <ele>542</ele>
      </trkpt>
      <trkpt lat="44.48007" lon="5.37436">
        <ele>544</ele>
      </trkpt>
      <trkpt lat="44.48187" lon="5.37542">
        <ele>546</ele>
      </trkpt>
      <trkpt lat="44.48288" lon="5.37601">
        <ele>545</ele>
      </trkpt>
      <trkpt lat="44.48306" lon="5.37608">
        <ele>545</ele>
      </trkpt>
      <trkpt lat="44.48328" lon="5.37624">
        <ele>545</ele>
      </trkpt>
      <trkpt lat="44.48413" lon="5.37674">
        <ele>545</ele>
      </trkpt>
      <trkpt lat="44.48425" lon="5.37684">
        <ele>545</ele>
      </trkpt>
      <trkpt lat="44.48439" lon="5.37704">
        <ele>545</ele>
      </trkpt>
      <trkpt lat="44.48447" lon="5.3773">
        <ele>545</ele>
      </trkpt>
      <trkpt lat="44.48446" lon="5.37757">
        <ele>546</ele>
      </trkpt>
      <trkpt lat="44.48441" lon="5.37785">
        <ele>546</ele>
      </trkpt>
      <trkpt lat="44.4847" lon="5.37801">
        <ele>546</ele>
      </trkpt>
      <trkpt lat="44.48498" lon="5.37807">
        <ele>546</ele>
      </trkpt>
      <trkpt lat="44.48523" lon="5.37808">
        <ele>547</ele>
      </trkpt>
      <trkpt lat="44.4854" lon="5.37804">
        <ele>547</ele>
      </trkpt>
      <trkpt lat="44.48566" lon="5.37789">
        <ele>548</ele>
      </trkpt>
      <trkpt lat="44.4861" lon="5.3776">
        <ele>548</ele>
      </trkpt>
      <trkpt lat="44.48648" lon="5.37743">
        <ele>547</ele>
      </trkpt>
      <trkpt lat="44.48711" lon="5.37726">
        <ele>548</ele>
      </trkpt>
      <trkpt lat="44.48747" lon="5.37713">
        <ele>548</ele>
      </trkpt>
      <trkpt lat="44.48806" lon="5.37688">
        <ele>550</ele>
      </trkpt>
      <trkpt lat="44.48858" lon="5.37681">
        <ele>552</ele>
      </trkpt>
      <trkpt lat="44.48901" lon="5.3766">
        <ele>552</ele>
      </trkpt>
      <trkpt lat="44.48936" lon="5.37638">
        <ele>553</ele>
      </trkpt>
      <trkpt lat="44.48986" lon="5.37589">
        <ele>556</ele>
      </trkpt>
      <trkpt lat="44.49007" lon="5.37564">
        <ele>557</ele>
      </trkpt>
      <trkpt lat="44.49038" lon="5.37498">
        <ele>560</ele>
      </trkpt>
      <trkpt lat="44.49065" lon="5.37464">
        <ele>560</ele>
      </trkpt>
      <trkpt lat="44.49117" lon="5.37421">
        <ele>562</ele>
      </trkpt>
      <trkpt lat="44.49127" lon="5.37446">
        <ele>570</ele>
      </trkpt>
      <trkpt lat="44.4922" lon="5.37371">
        <ele>570</ele>
      </trkpt>
      <trkpt lat="44.49272" lon="5.37345">
        <ele>569</ele>
      </trkpt>
      <trkpt lat="44.49307" lon="5.37337">
        <ele>568</ele>
      </trkpt>
      <trkpt lat="44.4932" lon="5.37326">
        <ele>568</ele>
      </trkpt>
      <trkpt lat="44.49327" lon="5.37311">
        <ele>566</ele>
      </trkpt>
      <trkpt lat="44.49333" lon="5.37262">
        <ele>564</ele>
      </trkpt>
      <trkpt lat="44.49335" lon="5.37205">
        <ele>563</ele>
      </trkpt>
      <trkpt lat="44.49346" lon="5.37151">
        <ele>563</ele>
      </trkpt>
      <trkpt lat="44.49365" lon="5.371">
        <ele>566</ele>
      </trkpt>
      <trkpt lat="44.49402" lon="5.37019">
        <ele>569</ele>
      </trkpt>
      <trkpt lat="44.49437" lon="5.36956">
        <ele>572</ele>
      </trkpt>
      <trkpt lat="44.4946" lon="5.36933">
        <ele>572</ele>
      </trkpt>
      <trkpt lat="44.49578" lon="5.36876">
        <ele>582</ele>
      </trkpt>
      <trkpt lat="44.49611" lon="5.36858">
        <ele>583</ele>
      </trkpt>
      <trkpt lat="44.49648" lon="5.36829">
        <ele>585</ele>
      </trkpt>
      <trkpt lat="44.49672" lon="5.36801">
        <ele>586</ele>
      </trkpt>
      <trkpt lat="44.49678" lon="5.36779">
        <ele>583</ele>
      </trkpt>
      <trkpt lat="44.49676" lon="5.3677">
        <ele>582</ele>
      </trkpt>
      <trkpt lat="44.4967" lon="5.36747">
        <ele>579</ele>
      </trkpt>
      <trkpt lat="44.49667" lon="5.36715">
        <ele>578</ele>
      </trkpt>
      <trkpt lat="44.49673" lon="5.36649">
        <ele>581</ele>
      </trkpt>
      <trkpt lat="44.49681" lon="5.36584">
        <ele>583</ele>
      </trkpt>
      <trkpt lat="44.49714" lon="5.36498">
        <ele>585</ele>
      </trkpt>
      <trkpt lat="44.49732" lon="5.36429">
        <ele>589</ele>
      </trkpt>
      <trkpt lat="44.49775" lon="5.36317">
        <ele>596</ele>
      </trkpt>
      <trkpt lat="44.49793" lon="5.36251">
        <ele>595</ele>
      </trkpt>
      <trkpt lat="44.49798" lon="5.36188">
        <ele>598</ele>
      </trkpt>
      <trkpt lat="44.49792" lon="5.36143">
        <ele>604</ele>
      </trkpt>
      <trkpt lat="44.49784" lon="5.36103">
        <ele>610</ele>
      </trkpt>
      <trkpt lat="44.49776" lon="5.36052">
        <ele>613</ele>
      </trkpt>
      <trkpt lat="44.49769" lon="5.36">
        <ele>617</ele>
      </trkpt>
      <trkpt lat="44.49774" lon="5.35976">
        <ele>619</ele>
      </trkpt>
      <trkpt lat="44.49785" lon="5.35949">
        <ele>622</ele>
      </trkpt>
      <trkpt lat="44.49829" lon="5.35916">
        <ele>620</ele>
      </trkpt>
      <trkpt lat="44.49845" lon="5.35898">
        <ele>622</ele>
      </trkpt>
      <trkpt lat="44.49858" lon="5.35875">
        <ele>618</ele>
      </trkpt>
      <trkpt lat="44.49871" lon="5.35815">
        <ele>626</ele>
      </trkpt>
      <trkpt lat="44.49904" lon="5.35726">
        <ele>626</ele>
      </trkpt>
      <trkpt lat="44.4992" lon="5.35662">
        <ele>635</ele>
      </trkpt>
      <trkpt lat="44.49935" lon="5.35634">
        <ele>635</ele>
      </trkpt>
      <trkpt lat="44.49963" lon="5.35608">
        <ele>637</ele>
      </trkpt>
      <trkpt lat="44.49994" lon="5.35586">
        <ele>640</ele>
      </trkpt>
      <trkpt lat="44.50005" lon="5.35565">
        <ele>643</ele>
      </trkpt>
      <trkpt lat="44.50022" lon="5.35518">
        <ele>647</ele>
      </trkpt>
      <trkpt lat="44.50033" lon="5.35503">
        <ele>650</ele>
      </trkpt>
      <trkpt lat="44.50044" lon="5.35494">
        <ele>649</ele>
      </trkpt>
      <trkpt lat="44.50126" lon="5.35468">
        <ele>642</ele>
      </trkpt>
      <trkpt lat="44.50141" lon="5.35452">
        <ele>643</ele>
      </trkpt>
      <trkpt lat="44.50157" lon="5.35411">
        <ele>638</ele>
      </trkpt>
      <trkpt lat="44.50156" lon="5.3538">
        <ele>643</ele>
      </trkpt>
      <trkpt lat="44.50145" lon="5.35314">
        <ele>659</ele>
      </trkpt>
      <trkpt lat="44.50148" lon="5.35236">
        <ele>662</ele>
      </trkpt>
      <trkpt lat="44.50152" lon="5.35199">
        <ele>668</ele>
      </trkpt>
      <trkpt lat="44.50177" lon="5.35159">
        <ele>669</ele>
      </trkpt>
      <trkpt lat="44.50217" lon="5.3511">
        <ele>675</ele>
      </trkpt>
      <trkpt lat="44.50246" lon="5.35099">
        <ele>669</ele>
      </trkpt>
      <trkpt lat="44.50253" lon="5.35093">
        <ele>673</ele>
      </trkpt>
      <trkpt lat="44.50301" lon="5.35025">
        <ele>673</ele>
      </trkpt>
      <trkpt lat="44.50307" lon="5.35009">
        <ele>678</ele>
      </trkpt>
      <trkpt lat="44.50331" lon="5.34977">
        <ele>676</ele>
      </trkpt>
      <trkpt lat="44.50341" lon="5.34948">
        <ele>681</ele>
      </trkpt>
      <trkpt lat="44.50356" lon="5.34916">
        <ele>681</ele>
      </trkpt>
      <trkpt lat="44.50374" lon="5.34887">
        <ele>686</ele>
      </trkpt>
      <trkpt lat="44.50414" lon="5.34845">
        <ele>686</ele>
      </trkpt>
      <trkpt lat="44.50435" lon="5.34814">
        <ele>688</ele>
      </trkpt>
      <trkpt lat="44.50448" lon="5.34783">
        <ele>691</ele>
      </trkpt>
      <trkpt lat="44.50481" lon="5.34729">
        <ele>692</ele>
      </trkpt>
      <trkpt lat="44.50508" lon="5.34671">
        <ele>700</ele>
      </trkpt>
      <trkpt lat="44.50557" lon="5.34629">
        <ele>696</ele>
      </trkpt>
      <trkpt lat="44.50591" lon="5.3458">
        <ele>709</ele>
      </trkpt>
      <trkpt lat="44.50635" lon="5.34554">
        <ele>705</ele>
      </trkpt>
      <trkpt lat="44.50663" lon="5.3453">
        <ele>708</ele>
      </trkpt>
      <trkpt lat="44.50697" lon="5.34479">
        <ele>711</ele>
      </trkpt>
      <trkpt lat="44.50712" lon="5.3445">
        <ele>710</ele>
      </trkpt>
      <trkpt lat="44.50735" lon="5.34362">
        <ele>718</ele>
      </trkpt>
      <trkpt lat="44.50738" lon="5.3433">
        <ele>721</ele>
      </trkpt>
      <trkpt lat="44.50731" lon="5.34263">
        <ele>733</ele>
      </trkpt>
      <trkpt lat="44.50734" lon="5.34238">
        <ele>740</ele>
      </trkpt>
      <trkpt lat="44.5074" lon="5.34223">
        <ele>749</ele>
      </trkpt>
      <trkpt lat="44.50747" lon="5.34221">
        <ele>750</ele>
      </trkpt>
      <trkpt lat="44.50779" lon="5.34257">
        <ele>755</ele>
      </trkpt>
      <trkpt lat="44.50804" lon="5.3428">
        <ele>763</ele>
      </trkpt>
      <trkpt lat="44.50817" lon="5.34297">
        <ele>759</ele>
      </trkpt>
      <trkpt lat="44.50826" lon="5.34314">
        <ele>771</ele>
      </trkpt>
      <trkpt lat="44.50834" lon="5.34339">
        <ele>765</ele>
      </trkpt>
      <trkpt lat="44.50838" lon="5.34358">
        <ele>760</ele>
      </trkpt>
      <trkpt lat="44.50846" lon="5.34472">
        <ele>758</ele>
      </trkpt>
      <trkpt lat="44.5085" lon="5.34495">
        <ele>770</ele>
      </trkpt>
      <trkpt lat="44.50861" lon="5.3453">
        <ele>769</ele>
      </trkpt>
      <trkpt lat="44.50882" lon="5.34577">
        <ele>778</ele>
      </trkpt>
      <trkpt lat="44.50894" lon="5.34639">
        <ele>774</ele>
      </trkpt>
      <trkpt lat="44.50912" lon="5.34692">
        <ele>775</ele>
      </trkpt>
      <trkpt lat="44.50918" lon="5.34718">
        <ele>769</ele>
      </trkpt>
      <trkpt lat="44.50924" lon="5.34733">
        <ele>764</ele>
      </trkpt>
      <trkpt lat="44.50932" lon="5.34746">
        <ele>769</ele>
      </trkpt>
      <trkpt lat="44.50955" lon="5.34769">
        <ele>762</ele>
      </trkpt>
      <trkpt lat="44.50979" lon="5.34778">
        <ele>764</ele>
      </trkpt>
      <trkpt lat="44.51017" lon="5.34786">
        <ele>768</ele>
      </trkpt>
      <trkpt lat="44.51032" lon="5.34784">
        <ele>769</ele>
      </trkpt>
      <trkpt lat="44.51049" lon="5.34779">
        <ele>774</ele>
      </trkpt>
      <trkpt lat="44.51094" lon="5.34759">
        <ele>795</ele>
      </trkpt>
      <trkpt lat="44.51127" lon="5.34749">
        <ele>784</ele>
      </trkpt>
      <trkpt lat="44.5119" lon="5.34719">
        <ele>770</ele>
      </trkpt>
      <trkpt lat="44.51201" lon="5.3471">
        <ele>772</ele>
      </trkpt>
      <trkpt lat="44.51222" lon="5.34676">
        <ele>784</ele>
      </trkpt>
      <trkpt lat="44.51239" lon="5.3467">
        <ele>783</ele>
      </trkpt>
      <trkpt lat="44.51257" lon="5.34652">
        <ele>784</ele>
      </trkpt>
      <trkpt lat="44.51267" lon="5.34645">
        <ele>790</ele>
      </trkpt>
      <trkpt lat="44.51285" lon="5.3464">
        <ele>791</ele>
      </trkpt>
      <trkpt lat="44.51304" lon="5.34641">
        <ele>797</ele>
      </trkpt>
      <trkpt lat="44.51311" lon="5.34639">
        <ele>798</ele>
      </trkpt>
      <trkpt lat="44.51317" lon="5.34634">
        <ele>799</ele>
      </trkpt>
      <trkpt lat="44.51357" lon="5.34586">
        <ele>803</ele>
      </trkpt>
      <trkpt lat="44.51486" lon="5.34525">
        <ele>810</ele>
      </trkpt>
      <trkpt lat="44.51502" lon="5.34512">
        <ele>814</ele>
      </trkpt>
      <trkpt lat="44.51515" lon="5.34497">
        <ele>813</ele>
      </trkpt>
      <trkpt lat="44.51524" lon="5.34495">
        <ele>814</ele>
      </trkpt>
      <trkpt lat="44.51531" lon="5.34499">
        <ele>814</ele>
      </trkpt>
      <trkpt lat="44.51524" lon="5.34512">
        <ele>819</ele>
      </trkpt>
      <trkpt lat="44.51455" lon="5.34564">
        <ele>810</ele>
      </trkpt>
      <trkpt lat="44.51435" lon="5.34573">
        <ele>814</ele>
      </trkpt>
      <trkpt lat="44.51433" lon="5.3458">
        <ele>815</ele>
      </trkpt>
      <trkpt lat="44.51436" lon="5.34587">
        <ele>817</ele>
      </trkpt>
      <trkpt lat="44.51439" lon="5.34588">
        <ele>817</ele>
      </trkpt>
      <trkpt lat="44.51559" lon="5.34514">
        <ele>825</ele>
      </trkpt>
      <trkpt lat="44.51575" lon="5.34506">
        <ele>823</ele>
      </trkpt>
      <trkpt lat="44.5159" lon="5.34502">
        <ele>823</ele>
      </trkpt>
      <trkpt lat="44.51606" lon="5.34501">
        <ele>824</ele>
      </trkpt>
      <trkpt lat="44.51655" lon="5.34483">
        <ele>822</ele>
      </trkpt>
      <trkpt lat="44.51666" lon="5.34484">
        <ele>821</ele>
      </trkpt>
      <trkpt lat="44.51694" lon="5.34497">
        <ele>821</ele>
      </trkpt>
      <trkpt lat="44.51731" lon="5.34519">
        <ele>827</ele>
      </trkpt>
      <trkpt lat="44.51783" lon="5.34534">
        <ele>825</ele>
      </trkpt>
      <trkpt lat="44.51805" lon="5.34551">
        <ele>829</ele>
      </trkpt>
      <trkpt lat="44.51818" lon="5.34572">
        <ele>832</ele>
      </trkpt>
      <trkpt lat="44.51817" lon="5.34591">
        <ele>833</ele>
      </trkpt>
      <trkpt lat="44.51811" lon="5.34604">
        <ele>835</ele>
      </trkpt>
      <trkpt lat="44.51796" lon="5.34629">
        <ele>836</ele>
      </trkpt>
      <trkpt lat="44.51789" lon="5.34646">
        <ele>838</ele>
      </trkpt>
      <trkpt lat="44.51789" lon="5.34666">
        <ele>839</ele>
      </trkpt>
      <trkpt lat="44.51799" lon="5.34698">
        <ele>837</ele>
      </trkpt>
      <trkpt lat="44.51814" lon="5.34733">
        <ele>841</ele>
      </trkpt>
      <trkpt lat="44.51837" lon="5.34769">
        <ele>842</ele>
      </trkpt>
      <trkpt lat="44.51851" lon="5.34789">
        <ele>841</ele>
      </trkpt>
      <trkpt lat="44.51902" lon="5.34845">
        <ele>847</ele>
      </trkpt>
      <trkpt lat="44.51921" lon="5.34862">
        <ele>846</ele>
      </trkpt>
      <trkpt lat="44.51935" lon="5.34868">
        <ele>847</ele>
      </trkpt>
      <trkpt lat="44.5196" lon="5.34871">
        <ele>848</ele>
      </trkpt>
      <trkpt lat="44.51972" lon="5.34881">
        <ele>848</ele>
      </trkpt>
      <trkpt lat="44.51987" lon="5.34904">
        <ele>848</ele>
      </trkpt>
      <trkpt lat="44.52" lon="5.34929">
        <ele>851</ele>
      </trkpt>
      <trkpt lat="44.52028" lon="5.34992">
        <ele>855</ele>
      </trkpt>
      <trkpt lat="44.52076" lon="5.35109">
        <ele>859</ele>
      </trkpt>
      <trkpt lat="44.5209" lon="5.35135">
        <ele>862</ele>
      </trkpt>
      <trkpt lat="44.52125" lon="5.35169">
        <ele>863</ele>
      </trkpt>
      <trkpt lat="44.52141" lon="5.35203">
        <ele>863</ele>
      </trkpt>
      <trkpt lat="44.52154" lon="5.35229">
        <ele>862</ele>
      </trkpt>
      <trkpt lat="44.52185" lon="5.3531">
        <ele>867</ele>
      </trkpt>
      <trkpt lat="44.52199" lon="5.35341">
        <ele>869</ele>
      </trkpt>
      <trkpt lat="44.5222" lon="5.35392">
        <ele>872</ele>
      </trkpt>
      <trkpt lat="44.52233" lon="5.35417">
        <ele>876</ele>
      </trkpt>
      <trkpt lat="44.5224" lon="5.35421">
        <ele>876</ele>
      </trkpt>
      <trkpt lat="44.52273" lon="5.35432">
        <ele>881</ele>
      </trkpt>
      <trkpt lat="44.52295" lon="5.35429">
        <ele>881</ele>
      </trkpt>
      <trkpt lat="44.52338" lon="5.35412">
        <ele>879</ele>
      </trkpt>
      <trkpt lat="44.52355" lon="5.3541">
        <ele>879</ele>
      </trkpt>
      <trkpt lat="44.5237" lon="5.35412">
        <ele>879</ele>
      </trkpt>
      <trkpt lat="44.5238" lon="5.3542">
        <ele>879</ele>
      </trkpt>
      <trkpt lat="44.52458" lon="5.35526">
        <ele>887</ele>
      </trkpt>
      <trkpt lat="44.52479" lon="5.35551">
        <ele>889</ele>
      </trkpt>
      <trkpt lat="44.52518" lon="5.35585">
        <ele>888</ele>
      </trkpt>
      <trkpt lat="44.52541" lon="5.35611">
        <ele>890</ele>
      </trkpt>
      <trkpt lat="44.52573" lon="5.35652">
        <ele>892</ele>
      </trkpt>
      <trkpt lat="44.52628" lon="5.35706">
        <ele>893</ele>
      </trkpt>
      <trkpt lat="44.52644" lon="5.35732">
        <ele>893</ele>
      </trkpt>
      <trkpt lat="44.52647" lon="5.35751">
        <ele>894</ele>
      </trkpt>
      <trkpt lat="44.52647" lon="5.35776">
        <ele>896</ele>
      </trkpt>
      <trkpt lat="44.52635" lon="5.35824">
        <ele>902</ele>
      </trkpt>
      <trkpt lat="44.52634" lon="5.35852">
        <ele>905</ele>
      </trkpt>
      <trkpt lat="44.52646" lon="5.35881">
        <ele>907</ele>
      </trkpt>
      <trkpt lat="44.52684" lon="5.35938">
        <ele>909</ele>
      </trkpt>
      <trkpt lat="44.52699" lon="5.3599">
        <ele>915</ele>
      </trkpt>
      <trkpt lat="44.52714" lon="5.36065">
        <ele>915</ele>
      </trkpt>
      <trkpt lat="44.5272" lon="5.36091">
        <ele>916</ele>
      </trkpt>
      <trkpt lat="44.52734" lon="5.36128">
        <ele>920</ele>
      </trkpt>
      <trkpt lat="44.5276" lon="5.36172">
        <ele>920</ele>
      </trkpt>
      <trkpt lat="44.52785" lon="5.36202">
        <ele>916</ele>
      </trkpt>
      <trkpt lat="44.52789" lon="5.36215">
        <ele>917</ele>
      </trkpt>
      <trkpt lat="44.52786" lon="5.36269">
        <ele>920</ele>
      </trkpt>
      <trkpt lat="44.52777" lon="5.36334">
        <ele>926</ele>
      </trkpt>
      <trkpt lat="44.52778" lon="5.36375">
        <ele>931</ele>
      </trkpt>
      <trkpt lat="44.52777" lon="5.36405">
        <ele>935</ele>
      </trkpt>
      <trkpt lat="44.52779" lon="5.36425">
        <ele>936</ele>
      </trkpt>
      <trkpt lat="44.52787" lon="5.36434">
        <ele>939</ele>
      </trkpt>
      <trkpt lat="44.52805" lon="5.36434">
        <ele>936</ele>
      </trkpt>
      <trkpt lat="44.52818" lon="5.36438">
        <ele>935</ele>
      </trkpt>
      <trkpt lat="44.52845" lon="5.36455">
        <ele>936</ele>
      </trkpt>
      <trkpt lat="44.52851" lon="5.36471">
        <ele>938</ele>
      </trkpt>
      <trkpt lat="44.52851" lon="5.36518">
        <ele>948</ele>
      </trkpt>
      <trkpt lat="44.52856" lon="5.3653">
        <ele>948</ele>
      </trkpt>
      <trkpt lat="44.52865" lon="5.36532">
        <ele>949</ele>
      </trkpt>
      <trkpt lat="44.52921" lon="5.36486">
        <ele>957</ele>
      </trkpt>
      <trkpt lat="44.52931" lon="5.36471">
        <ele>954</ele>
      </trkpt>
      <trkpt lat="44.52944" lon="5.36448">
        <ele>953</ele>
      </trkpt>
      <trkpt lat="44.52953" lon="5.36437">
        <ele>952</ele>
      </trkpt>
      <trkpt lat="44.52965" lon="5.36436">
        <ele>951</ele>
      </trkpt>
      <trkpt lat="44.52982" lon="5.36439">
        <ele>950</ele>
      </trkpt>
      <trkpt lat="44.53006" lon="5.36458">
        <ele>952</ele>
      </trkpt>
      <trkpt lat="44.53032" lon="5.36484">
        <ele>956</ele>
      </trkpt>
      <trkpt lat="44.5305" lon="5.36497">
        <ele>955</ele>
      </trkpt>
      <trkpt lat="44.53076" lon="5.3652">
        <ele>959</ele>
      </trkpt>
      <trkpt lat="44.53084" lon="5.36535">
        <ele>960</ele>
      </trkpt>
      <trkpt lat="44.53089" lon="5.36546">
        <ele>964</ele>
      </trkpt>
      <trkpt lat="44.5309" lon="5.3656">
        <ele>965</ele>
      </trkpt>
      <trkpt lat="44.53095" lon="5.36568">
        <ele>969</ele>
      </trkpt>
      <trkpt lat="44.53107" lon="5.36573">
        <ele>971</ele>
      </trkpt>
      <trkpt lat="44.53127" lon="5.36567">
        <ele>974</ele>
      </trkpt>
      <trkpt lat="44.53138" lon="5.36561">
        <ele>971</ele>
      </trkpt>
      <trkpt lat="44.53146" lon="5.36555">
        <ele>972</ele>
      </trkpt>
      <trkpt lat="44.53156" lon="5.36543">
        <ele>974</ele>
      </trkpt>
      <trkpt lat="44.53162" lon="5.36529">
        <ele>971</ele>
      </trkpt>
      <trkpt lat="44.5317" lon="5.36519">
        <ele>970</ele>
      </trkpt>
      <trkpt lat="44.53179" lon="5.36519">
        <ele>970</ele>
      </trkpt>
      <trkpt lat="44.53205" lon="5.36533">
        <ele>970</ele>
      </trkpt>
      <trkpt lat="44.53217" lon="5.36542">
        <ele>971</ele>
      </trkpt>
      <trkpt lat="44.53231" lon="5.36548">
        <ele>971</ele>
      </trkpt>
      <trkpt lat="44.53243" lon="5.36556">
        <ele>968</ele>
      </trkpt>
      <trkpt lat="44.53258" lon="5.36573">
        <ele>972</ele>
      </trkpt>
      <trkpt lat="44.5327" lon="5.36592">
        <ele>972</ele>
      </trkpt>
      <trkpt lat="44.53298" lon="5.36627">
        <ele>979</ele>
      </trkpt>
      <trkpt lat="44.53316" lon="5.36652">
        <ele>984</ele>
      </trkpt>
      <trkpt lat="44.53326" lon="5.36663">
        <ele>983</ele>
      </trkpt>
      <trkpt lat="44.53338" lon="5.36669">
        <ele>984</ele>
      </trkpt>
      <trkpt lat="44.53353" lon="5.36672">
        <ele>983</ele>
      </trkpt>
      <trkpt lat="44.53386" lon="5.3667">
        <ele>982</ele>
      </trkpt>
      <trkpt lat="44.53401" lon="5.36675">
        <ele>982</ele>
      </trkpt>
      <trkpt lat="44.53431" lon="5.36696">
        <ele>985</ele>
      </trkpt>
      <trkpt lat="44.53461" lon="5.3673">
        <ele>988</ele>
      </trkpt>
      <trkpt lat="44.53473" lon="5.36741">
        <ele>991</ele>
      </trkpt>
      <trkpt lat="44.53487" lon="5.36757">
        <ele>992</ele>
      </trkpt>
      <trkpt lat="44.53501" lon="5.3677">
        <ele>995</ele>
      </trkpt>
      <trkpt lat="44.53516" lon="5.36777">
        <ele>997</ele>
      </trkpt>
      <trkpt lat="44.53611" lon="5.36794">
        <ele>1004</ele>
      </trkpt>
      <trkpt lat="44.53669" lon="5.36796">
        <ele>1006</ele>
      </trkpt>
      <trkpt lat="44.53696" lon="5.36809">
        <ele>1005</ele>
      </trkpt>
      <trkpt lat="44.53724" lon="5.36827">
        <ele>1009</ele>
      </trkpt>
      <trkpt lat="44.53737" lon="5.36842">
        <ele>1009</ele>
      </trkpt>
      <trkpt lat="44.53766" lon="5.36869">
        <ele>1012</ele>
      </trkpt>
      <trkpt lat="44.53786" lon="5.36882">
        <ele>1015</ele>
      </trkpt>
      <trkpt lat="44.53813" lon="5.36901">
        <ele>1018</ele>
      </trkpt>
      <trkpt lat="44.53828" lon="5.36909">
        <ele>1020</ele>
      </trkpt>
      <trkpt lat="44.53895" lon="5.36922">
        <ele>1026</ele>
      </trkpt>
      <trkpt lat="44.53932" lon="5.36904">
        <ele>1029</ele>
      </trkpt>
      <trkpt lat="44.53982" lon="5.36891">
        <ele>1026</ele>
      </trkpt>
      <trkpt lat="44.53994" lon="5.36892">
        <ele>1024</ele>
      </trkpt>
      <trkpt lat="44.54026" lon="5.36917">
        <ele>1025</ele>
      </trkpt>
      <trkpt lat="44.54057" lon="5.36917">
        <ele>1021</ele>
      </trkpt>
      <trkpt lat="44.54073" lon="5.36925">
        <ele>1021</ele>
      </trkpt>
      <trkpt lat="44.54099" lon="5.36954">
        <ele>1025</ele>
      </trkpt>
      <trkpt lat="44.54108" lon="5.36949">
        <ele>1025</ele>
      </trkpt>
      <trkpt lat="44.54127" lon="5.36934">
        <ele>1022</ele>
      </trkpt>
      <trkpt lat="44.54137" lon="5.36936">
        <ele>1022</ele>
      </trkpt>
      <trkpt lat="44.54166" lon="5.36945">
        <ele>1019</ele>
      </trkpt>
      <trkpt lat="44.54233" lon="5.36951">
        <ele>1015</ele>
      </trkpt>
      <trkpt lat="44.54265" lon="5.36959">
        <ele>1018</ele>
      </trkpt>
      <trkpt lat="44.54278" lon="5.36959">
        <ele>1017</ele>
      </trkpt>
      <trkpt lat="44.54349" lon="5.36947">
        <ele>1010</ele>
      </trkpt>
      <trkpt lat="44.54365" lon="5.36947">
        <ele>1009</ele>
      </trkpt>
      <trkpt lat="44.54404" lon="5.36974">
        <ele>1014</ele>
      </trkpt>
      <trkpt lat="44.5446" lon="5.3697">
        <ele>1015</ele>
      </trkpt>
      <trkpt lat="44.5447" lon="5.36962">
        <ele>1014</ele>
      </trkpt>
      <trkpt lat="44.54483" lon="5.3693">
        <ele>1009</ele>
      </trkpt>
      <trkpt lat="44.54504" lon="5.36896">
        <ele>1004</ele>
      </trkpt>
      <trkpt lat="44.54515" lon="5.36887">
        <ele>1004</ele>
      </trkpt>
      <trkpt lat="44.54543" lon="5.36891">
        <ele>1008</ele>
      </trkpt>
      <trkpt lat="44.54572" lon="5.36887">
        <ele>1010</ele>
      </trkpt>
      <trkpt lat="44.54608" lon="5.36856">
        <ele>1006</ele>
      </trkpt>
      <trkpt lat="44.54652" lon="5.36826">
        <ele>1002</ele>
      </trkpt>
      <trkpt lat="44.5466" lon="5.36815">
        <ele>998</ele>
      </trkpt>
      <trkpt lat="44.54675" lon="5.36766">
        <ele>992</ele>
      </trkpt>
      <trkpt lat="44.54708" lon="5.36738">
        <ele>984</ele>
      </trkpt>
      <trkpt lat="44.54723" lon="5.36738">
        <ele>979</ele>
      </trkpt>
      <trkpt lat="44.54732" lon="5.36744">
        <ele>978</ele>
      </trkpt>
      <trkpt lat="44.54756" lon="5.36824">
        <ele>989</ele>
      </trkpt>
      <trkpt lat="44.54769" lon="5.36849">
        <ele>996</ele>
      </trkpt>
      <trkpt lat="44.54777" lon="5.36854">
        <ele>996</ele>
      </trkpt>
      <trkpt lat="44.54786" lon="5.36852">
        <ele>997</ele>
      </trkpt>
      <trkpt lat="44.54792" lon="5.36844">
        <ele>996</ele>
      </trkpt>
      <trkpt lat="44.54811" lon="5.36815">
        <ele>988</ele>
      </trkpt>
      <trkpt lat="44.54837" lon="5.36794">
        <ele>991</ele>
      </trkpt>
      <trkpt lat="44.54847" lon="5.3678">
        <ele>987</ele>
      </trkpt>
      <trkpt lat="44.54876" lon="5.36692">
        <ele>982</ele>
      </trkpt>
      <trkpt lat="44.54879" lon="5.36649">
        <ele>982</ele>
      </trkpt>
      <trkpt lat="44.54876" lon="5.3661">
        <ele>972</ele>
      </trkpt>
      <trkpt lat="44.54878" lon="5.36596">
        <ele>976</ele>
      </trkpt>
      <trkpt lat="44.54917" lon="5.36562">
        <ele>976</ele>
      </trkpt>
      <trkpt lat="44.55014" lon="5.36385">
        <ele>958</ele>
      </trkpt>
      <trkpt lat="44.55027" lon="5.36378">
        <ele>957</ele>
      </trkpt>
      <trkpt lat="44.55039" lon="5.36377">
        <ele>956</ele>
      </trkpt>
      <trkpt lat="44.55049" lon="5.3638">
        <ele>953</ele>
      </trkpt>
      <trkpt lat="44.55103" lon="5.36463">
        <ele>967</ele>
      </trkpt>
      <trkpt lat="44.5511" lon="5.36463">
        <ele>967</ele>
      </trkpt>
      <trkpt lat="44.55114" lon="5.36456">
        <ele>966</ele>
      </trkpt>
      <trkpt lat="44.55126" lon="5.364">
        <ele>954</ele>
      </trkpt>
      <trkpt lat="44.5513" lon="5.36386">
        <ele>950</ele>
      </trkpt>
      <trkpt lat="44.55137" lon="5.3638">
        <ele>950</ele>
      </trkpt>
      <trkpt lat="44.55147" lon="5.36382">
        <ele>950</ele>
      </trkpt>
      <trkpt lat="44.55157" lon="5.36387">
        <ele>954</ele>
      </trkpt>
      <trkpt lat="44.55168" lon="5.36386">
        <ele>954</ele>
      </trkpt>
      <trkpt lat="44.55188" lon="5.36368">
        <ele>955</ele>
      </trkpt>
      <trkpt lat="44.55208" lon="5.36363">
        <ele>957</ele>
      </trkpt>
      <trkpt lat="44.55216" lon="5.36356">
        <ele>965</ele>
      </trkpt>
      <trkpt lat="44.55219" lon="5.3634">
        <ele>963</ele>
      </trkpt>
      <trkpt lat="44.55211" lon="5.36314">
        <ele>959</ele>
      </trkpt>
      <trkpt lat="44.55211" lon="5.36306">
        <ele>959</ele>
      </trkpt>
      <trkpt lat="44.55216" lon="5.36281">
        <ele>958</ele>
      </trkpt>
      <trkpt lat="44.55213" lon="5.36259">
        <ele>956</ele>
      </trkpt>
      <trkpt lat="44.55204" lon="5.36219">
        <ele>947</ele>
      </trkpt>
      <trkpt lat="44.55191" lon="5.36185">
        <ele>945</ele>
      </trkpt>
      <trkpt lat="44.55174" lon="5.3615">
        <ele>936</ele>
      </trkpt>
      <trkpt lat="44.5517" lon="5.36134">
        <ele>935</ele>
      </trkpt>
      <trkpt lat="44.55176" lon="5.36118">
        <ele>934</ele>
      </trkpt>
      <trkpt lat="44.55252" lon="5.36013">
        <ele>937</ele>
      </trkpt>
      <trkpt lat="44.55257" lon="5.35986">
        <ele>934</ele>
      </trkpt>
      <trkpt lat="44.55343" lon="5.35852">
        <ele>928</ele>
      </trkpt>
      <trkpt lat="44.55406" lon="5.35676">
        <ele>912</ele>
      </trkpt>
      <trkpt lat="44.55417" lon="5.35661">
        <ele>911</ele>
      </trkpt>
      <trkpt lat="44.55427" lon="5.35656">
        <ele>910</ele>
      </trkpt>
      <trkpt lat="44.55445" lon="5.35663">
        <ele>908</ele>
      </trkpt>
      <trkpt lat="44.55581" lon="5.3575">
        <ele>910</ele>
      </trkpt>
      <trkpt lat="44.55608" lon="5.35773">
        <ele>915</ele>
      </trkpt>
      <trkpt lat="44.55619" lon="5.35772">
        <ele>916</ele>
      </trkpt>
      <trkpt lat="44.55625" lon="5.35757">
        <ele>917</ele>
      </trkpt>
      <trkpt lat="44.55612" lon="5.35724">
        <ele>917</ele>
      </trkpt>
      <trkpt lat="44.55577" lon="5.35667">
        <ele>912</ele>
      </trkpt>
      <trkpt lat="44.55558" lon="5.35618">
        <ele>909</ele>
      </trkpt>
      <trkpt lat="44.55483" lon="5.35508">
        <ele>893</ele>
      </trkpt>
      <trkpt lat="44.55482" lon="5.35493">
        <ele>893</ele>
      </trkpt>
      <trkpt lat="44.55487" lon="5.35464">
        <ele>895</ele>
      </trkpt>
      <trkpt lat="44.55487" lon="5.35442">
        <ele>894</ele>
      </trkpt>
      <trkpt lat="44.55476" lon="5.35369">
        <ele>881</ele>
      </trkpt>
      <trkpt lat="44.5548" lon="5.35353">
        <ele>880</ele>
      </trkpt>
      <trkpt lat="44.55489" lon="5.35349">
        <ele>881</ele>
      </trkpt>
      <trkpt lat="44.55512" lon="5.35353">
        <ele>881</ele>
      </trkpt>
      <trkpt lat="44.55546" lon="5.35364">
        <ele>880</ele>
      </trkpt>
      <trkpt lat="44.55581" lon="5.35367">
        <ele>878</ele>
      </trkpt>
      <trkpt lat="44.55606" lon="5.35374">
        <ele>882</ele>
      </trkpt>
      <trkpt lat="44.55618" lon="5.35366">
        <ele>880</ele>
      </trkpt>
      <trkpt lat="44.55623" lon="5.35342">
        <ele>879</ele>
      </trkpt>
      <trkpt lat="44.55622" lon="5.35313">
        <ele>881</ele>
      </trkpt>
      <trkpt lat="44.55612" lon="5.35282">
        <ele>883</ele>
      </trkpt>
      <trkpt lat="44.55598" lon="5.35257">
        <ele>881</ele>
      </trkpt>
      <trkpt lat="44.55552" lon="5.35223">
        <ele>879</ele>
      </trkpt>
      <trkpt lat="44.55539" lon="5.3521">
        <ele>877</ele>
      </trkpt>
      <trkpt lat="44.55533" lon="5.3519">
        <ele>879</ele>
      </trkpt>
      <trkpt lat="44.55533" lon="5.3517">
        <ele>881</ele>
      </trkpt>
      <trkpt lat="44.55539" lon="5.35143">
        <ele>882</ele>
      </trkpt>
      <trkpt lat="44.55562" lon="5.35095">
        <ele>886</ele>
      </trkpt>
      <trkpt lat="44.5563" lon="5.34997">
        <ele>890</ele>
      </trkpt>
      <trkpt lat="44.55635" lon="5.34981">
        <ele>889</ele>
      </trkpt>
      <trkpt lat="44.55637" lon="5.34966">
        <ele>889</ele>
      </trkpt>
      <trkpt lat="44.55636" lon="5.34939">
        <ele>886</ele>
      </trkpt>
      <trkpt lat="44.55638" lon="5.34918">
        <ele>886</ele>
      </trkpt>
      <trkpt lat="44.55642" lon="5.34901">
        <ele>886</ele>
      </trkpt>
      <trkpt lat="44.55725" lon="5.34846">
        <ele>885</ele>
      </trkpt>
      <trkpt lat="44.5574" lon="5.34829">
        <ele>884</ele>
      </trkpt>
      <trkpt lat="44.55751" lon="5.34809">
        <ele>883</ele>
      </trkpt>
      <trkpt lat="44.55764" lon="5.34781">
        <ele>880</ele>
      </trkpt>
      <trkpt lat="44.55842" lon="5.34652">
        <ele>873</ele>
      </trkpt>
      <trkpt lat="44.55867" lon="5.34598">
        <ele>870</ele>
      </trkpt>
      <trkpt lat="44.55882" lon="5.34524">
        <ele>865</ele>
      </trkpt>
      <trkpt lat="44.55859" lon="5.3457">
        <ele>868</ele>
      </trkpt>
      <trkpt lat="44.55847" lon="5.34579">
        <ele>868</ele>
      </trkpt>
      <trkpt lat="44.55895" lon="5.34471">
        <ele>863</ele>
      </trkpt>
      <trkpt lat="44.55895" lon="5.34462">
        <ele>863</ele>
      </trkpt>
      <trkpt lat="44.55892" lon="5.34453">
        <ele>861</ele>
      </trkpt>
      <trkpt lat="44.55883" lon="5.34446">
        <ele>860</ele>
      </trkpt>
      <trkpt lat="44.55877" lon="5.34447">
        <ele>859</ele>
      </trkpt>
      <trkpt lat="44.55839" lon="5.34517">
        <ele>862</ele>
      </trkpt>
      <trkpt lat="44.55813" lon="5.34556">
        <ele>861</ele>
      </trkpt>
      <trkpt lat="44.558" lon="5.34567">
        <ele>862</ele>
      </trkpt>
      <trkpt lat="44.5579" lon="5.34573">
        <ele>860</ele>
      </trkpt>
      <trkpt lat="44.55779" lon="5.34573">
        <ele>859</ele>
      </trkpt>
      <trkpt lat="44.55771" lon="5.34566">
        <ele>859</ele>
      </trkpt>
      <trkpt lat="44.55767" lon="5.34555">
        <ele>857</ele>
      </trkpt>
      <trkpt lat="44.55766" lon="5.34466">
        <ele>852</ele>
      </trkpt>
      <trkpt lat="44.55763" lon="5.3445">
        <ele>851</ele>
      </trkpt>
      <trkpt lat="44.55744" lon="5.34392">
        <ele>846</ele>
      </trkpt>
      <trkpt lat="44.55744" lon="5.34336">
        <ele>843</ele>
      </trkpt>
      <trkpt lat="44.55741" lon="5.34307">
        <ele>842</ele>
      </trkpt>
      <trkpt lat="44.55734" lon="5.3428">
        <ele>845</ele>
      </trkpt>
      <trkpt lat="44.55718" lon="5.34252">
        <ele>847</ele>
      </trkpt>
      <trkpt lat="44.5572" lon="5.34233">
        <ele>847</ele>
      </trkpt>
      <trkpt lat="44.5573" lon="5.34223">
        <ele>849</ele>
      </trkpt>
      <trkpt lat="44.5578" lon="5.34221">
        <ele>844</ele>
      </trkpt>
      <trkpt lat="44.55816" lon="5.34224">
        <ele>841</ele>
      </trkpt>
      <trkpt lat="44.5583" lon="5.3422">
        <ele>837</ele>
      </trkpt>
      <trkpt lat="44.55843" lon="5.34209">
        <ele>836</ele>
      </trkpt>
      <trkpt lat="44.55904" lon="5.34122">
        <ele>832</ele>
      </trkpt>
      <trkpt lat="44.5592" lon="5.34106">
        <ele>832</ele>
      </trkpt>
      <trkpt lat="44.55962" lon="5.3408">
        <ele>832</ele>
      </trkpt>
      <trkpt lat="44.55985" lon="5.34072">
        <ele>831</ele>
      </trkpt>
      <trkpt lat="44.55999" lon="5.34074">
        <ele>830</ele>
      </trkpt>
      <trkpt lat="44.5605" lon="5.34101">
        <ele>821</ele>
      </trkpt>
      <trkpt lat="44.56064" lon="5.34101">
        <ele>820</ele>
      </trkpt>
      <trkpt lat="44.56094" lon="5.34082">
        <ele>819</ele>
      </trkpt>
      <trkpt lat="44.56125" lon="5.34051">
        <ele>814</ele>
      </trkpt>
      <trkpt lat="44.56136" lon="5.34025">
        <ele>811</ele>
      </trkpt>
      <trkpt lat="44.56136" lon="5.34005">
        <ele>814</ele>
      </trkpt>
      <trkpt lat="44.5611" lon="5.33925">
        <ele>819</ele>
      </trkpt>
      <trkpt lat="44.56102" lon="5.33917">
        <ele>819</ele>
      </trkpt>
      <trkpt lat="44.56082" lon="5.33906">
        <ele>820</ele>
      </trkpt>
      <trkpt lat="44.56072" lon="5.33896">
        <ele>818</ele>
      </trkpt>
      <trkpt lat="44.56061" lon="5.33874">
        <ele>819</ele>
      </trkpt>
      <trkpt lat="44.56054" lon="5.33844">
        <ele>817</ele>
      </trkpt>
      <trkpt lat="44.56056" lon="5.33816">
        <ele>815</ele>
      </trkpt>
      <trkpt lat="44.56086" lon="5.33765">
        <ele>811</ele>
      </trkpt>
      <trkpt lat="44.56102" lon="5.33703">
        <ele>809</ele>
      </trkpt>
      <trkpt lat="44.56123" lon="5.33653">
        <ele>807</ele>
      </trkpt>
      <trkpt lat="44.56156" lon="5.33595">
        <ele>799</ele>
      </trkpt>
      <trkpt lat="44.56162" lon="5.33577">
        <ele>798</ele>
      </trkpt>
      <trkpt lat="44.56161" lon="5.3356">
        <ele>796</ele>
      </trkpt>
      <trkpt lat="44.56125" lon="5.33469">
        <ele>795</ele>
      </trkpt>
      <trkpt lat="44.56117" lon="5.3346">
        <ele>795</ele>
      </trkpt>
      <trkpt lat="44.56107" lon="5.33459">
        <ele>796</ele>
      </trkpt>
      <trkpt lat="44.56049" lon="5.33461">
        <ele>806</ele>
      </trkpt>
      <trkpt lat="44.56037" lon="5.33448">
        <ele>804</ele>
      </trkpt>
      <trkpt lat="44.56032" lon="5.33432">
        <ele>803</ele>
      </trkpt>
      <trkpt lat="44.56035" lon="5.33352">
        <ele>793</ele>
      </trkpt>
      <trkpt lat="44.56041" lon="5.33302">
        <ele>792</ele>
      </trkpt>
      <trkpt lat="44.56063" lon="5.33238">
        <ele>788</ele>
      </trkpt>
      <trkpt lat="44.56097" lon="5.33151">
        <ele>782</ele>
      </trkpt>
      <trkpt lat="44.56103" lon="5.33101">
        <ele>772</ele>
      </trkpt>
      <trkpt lat="44.56096" lon="5.33047">
        <ele>776</ele>
      </trkpt>
      <trkpt lat="44.56085" lon="5.3303">
        <ele>774</ele>
      </trkpt>
      <trkpt lat="44.56032" lon="5.32984">
        <ele>777</ele>
      </trkpt>
      <trkpt lat="44.56017" lon="5.3298">
        <ele>774</ele>
      </trkpt>
      <trkpt lat="44.56003" lon="5.32981">
        <ele>776</ele>
      </trkpt>
      <trkpt lat="44.55995" lon="5.32988">
        <ele>779</ele>
      </trkpt>
      <trkpt lat="44.55989" lon="5.33009">
        <ele>781</ele>
      </trkpt>
      <trkpt lat="44.55984" lon="5.33018">
        <ele>783</ele>
      </trkpt>
      <trkpt lat="44.55975" lon="5.3302">
        <ele>783</ele>
      </trkpt>
      <trkpt lat="44.55955" lon="5.33001">
        <ele>777</ele>
      </trkpt>
      <trkpt lat="44.55946" lon="5.33001">
        <ele>776</ele>
      </trkpt>
      <trkpt lat="44.55929" lon="5.33009">
        <ele>775</ele>
      </trkpt>
      <trkpt lat="44.55919" lon="5.33008">
        <ele>775</ele>
      </trkpt>
      <trkpt lat="44.55859" lon="5.32927">
        <ele>768</ele>
      </trkpt>
      <trkpt lat="44.55858" lon="5.32907">
        <ele>765</ele>
      </trkpt>
      <trkpt lat="44.55894" lon="5.32823">
        <ele>756</ele>
      </trkpt>
      <trkpt lat="44.55893" lon="5.32807">
        <ele>756</ele>
      </trkpt>
      <trkpt lat="44.55886" lon="5.32796">
        <ele>756</ele>
      </trkpt>
      <trkpt lat="44.55808" lon="5.32782">
        <ele>758</ele>
      </trkpt>
      <trkpt lat="44.55796" lon="5.32775">
        <ele>758</ele>
      </trkpt>
      <trkpt lat="44.55741" lon="5.32726">
        <ele>755</ele>
      </trkpt>
      <trkpt lat="44.55718" lon="5.32683">
        <ele>750</ele>
      </trkpt>
      <trkpt lat="44.5571" lon="5.32675">
        <ele>747</ele>
      </trkpt>
      <trkpt lat="44.5568" lon="5.32665">
        <ele>751</ele>
      </trkpt>
      <trkpt lat="44.55654" lon="5.32646">
        <ele>749</ele>
      </trkpt>
      <trkpt lat="44.55635" lon="5.32626">
        <ele>749</ele>
      </trkpt>
      <trkpt lat="44.55629" lon="5.32604">
        <ele>746</ele>
      </trkpt>
      <trkpt lat="44.55624" lon="5.3257">
        <ele>746</ele>
      </trkpt>
      <trkpt lat="44.55618" lon="5.32564">
        <ele>745</ele>
      </trkpt>
      <trkpt lat="44.55573" lon="5.32543">
        <ele>747</ele>
      </trkpt>
      <trkpt lat="44.55539" lon="5.32505">
        <ele>743</ele>
      </trkpt>
      <trkpt lat="44.55504" lon="5.32487">
        <ele>744</ele>
      </trkpt>
      <trkpt lat="44.55495" lon="5.32474">
        <ele>742</ele>
      </trkpt>
      <trkpt lat="44.55496" lon="5.32456">
        <ele>742</ele>
      </trkpt>
      <trkpt lat="44.55513" lon="5.32428">
        <ele>740</ele>
      </trkpt>
      <trkpt lat="44.55567" lon="5.32333">
        <ele>742</ele>
      </trkpt>
      <trkpt lat="44.55579" lon="5.32321">
        <ele>743</ele>
      </trkpt>
      <trkpt lat="44.55607" lon="5.32303">
        <ele>747</ele>
      </trkpt>
      <trkpt lat="44.55699" lon="5.32272">
        <ele>749</ele>
      </trkpt>
      <trkpt lat="44.55784" lon="5.32257">
        <ele>759</ele>
      </trkpt>
      <trkpt lat="44.55809" lon="5.32266">
        <ele>754</ele>
      </trkpt>
      <trkpt lat="44.55834" lon="5.32261">
        <ele>752</ele>
      </trkpt>
      <trkpt lat="44.55852" lon="5.3224">
        <ele>755</ele>
      </trkpt>
      <trkpt lat="44.55859" lon="5.32227">
        <ele>759</ele>
      </trkpt>
      <trkpt lat="44.55861" lon="5.32196">
        <ele>765</ele>
      </trkpt>
      <trkpt lat="44.55864" lon="5.32185">
        <ele>766</ele>
      </trkpt>
      <trkpt lat="44.55874" lon="5.32179">
        <ele>767</ele>
      </trkpt>
      <trkpt lat="44.55938" lon="5.32195">
        <ele>767</ele>
      </trkpt>
      <trkpt lat="44.55976" lon="5.32183">
        <ele>767</ele>
      </trkpt>
      <trkpt lat="44.56045" lon="5.32117">
        <ele>778</ele>
      </trkpt>
      <trkpt lat="44.56063" lon="5.32112">
        <ele>778</ele>
      </trkpt>
      <trkpt lat="44.56116" lon="5.32107">
        <ele>780</ele>
      </trkpt>
      <trkpt lat="44.56121" lon="5.32102">
        <ele>780</ele>
      </trkpt>
      <trkpt lat="44.56123" lon="5.32095">
        <ele>780</ele>
      </trkpt>
      <trkpt lat="44.56121" lon="5.31978">
        <ele>777</ele>
      </trkpt>
      <trkpt lat="44.5614" lon="5.31914">
        <ele>774</ele>
      </trkpt>
      <trkpt lat="44.56145" lon="5.31883">
        <ele>774</ele>
      </trkpt>
      <trkpt lat="44.56144" lon="5.31871">
        <ele>775</ele>
      </trkpt>
      <trkpt lat="44.56139" lon="5.31857">
        <ele>775</ele>
      </trkpt>
      <trkpt lat="44.56107" lon="5.31798">
        <ele>785</ele>
      </trkpt>
      <trkpt lat="44.56105" lon="5.31782">
        <ele>789</ele>
      </trkpt>
      <trkpt lat="44.56108" lon="5.31769">
        <ele>789</ele>
      </trkpt>
      <trkpt lat="44.56122" lon="5.31763">
        <ele>790</ele>
      </trkpt>
      <trkpt lat="44.56146" lon="5.31759">
        <ele>789</ele>
      </trkpt>
      <trkpt lat="44.56182" lon="5.31764">
        <ele>788</ele>
      </trkpt>
      <trkpt lat="44.56243" lon="5.31787">
        <ele>778</ele>
      </trkpt>
      <trkpt lat="44.56252" lon="5.3178">
        <ele>781</ele>
      </trkpt>
      <trkpt lat="44.5631" lon="5.31675">
        <ele>783</ele>
      </trkpt>
      <trkpt lat="44.56319" lon="5.31648">
        <ele>782</ele>
      </trkpt>
      <trkpt lat="44.56345" lon="5.31501">
        <ele>786</ele>
      </trkpt>
      <trkpt lat="44.56343" lon="5.31482">
        <ele>787</ele>
      </trkpt>
      <trkpt lat="44.56323" lon="5.31444">
        <ele>793</ele>
      </trkpt>
      <trkpt lat="44.56324" lon="5.31428">
        <ele>793</ele>
      </trkpt>
      <trkpt lat="44.5633" lon="5.31415">
        <ele>796</ele>
      </trkpt>
      <trkpt lat="44.56388" lon="5.31392">
        <ele>804</ele>
      </trkpt>
      <trkpt lat="44.56401" lon="5.31392">
        <ele>805</ele>
      </trkpt>
      <trkpt lat="44.56452" lon="5.31421">
        <ele>797</ele>
      </trkpt>
      <trkpt lat="44.56463" lon="5.3142">
        <ele>793</ele>
      </trkpt>
      <trkpt lat="44.56479" lon="5.31402">
        <ele>793</ele>
      </trkpt>
      <trkpt lat="44.56529" lon="5.31324">
        <ele>795</ele>
      </trkpt>
      <trkpt lat="44.56589" lon="5.31201">
        <ele>801</ele>
      </trkpt>
      <trkpt lat="44.56622" lon="5.31176">
        <ele>802</ele>
      </trkpt>
      <trkpt lat="44.56628" lon="5.31166">
        <ele>805</ele>
      </trkpt>
      <trkpt lat="44.56632" lon="5.31153">
        <ele>805</ele>
      </trkpt>
      <trkpt lat="44.56628" lon="5.31072">
        <ele>797</ele>
      </trkpt>
      <trkpt lat="44.56614" lon="5.31036">
        <ele>797</ele>
      </trkpt>
      <trkpt lat="44.56613" lon="5.31021">
        <ele>796</ele>
      </trkpt>
      <trkpt lat="44.56618" lon="5.30977">
        <ele>793</ele>
      </trkpt>
      <trkpt lat="44.56613" lon="5.30955">
        <ele>793</ele>
      </trkpt>
      <trkpt lat="44.56587" lon="5.30902">
        <ele>796</ele>
      </trkpt>
      <trkpt lat="44.56587" lon="5.3089">
        <ele>794</ele>
      </trkpt>
      <trkpt lat="44.5659" lon="5.30883">
        <ele>794</ele>
      </trkpt>
      <trkpt lat="44.5661" lon="5.3086">
        <ele>784</ele>
      </trkpt>
      <trkpt lat="44.56612" lon="5.30853">
        <ele>784</ele>
      </trkpt>
      <trkpt lat="44.56609" lon="5.30839">
        <ele>784</ele>
      </trkpt>
      <trkpt lat="44.56582" lon="5.30799">
        <ele>794</ele>
      </trkpt>
      <trkpt lat="44.56584" lon="5.30786">
        <ele>796</ele>
      </trkpt>
      <trkpt lat="44.56595" lon="5.3078">
        <ele>795</ele>
      </trkpt>
      <trkpt lat="44.56612" lon="5.30779">
        <ele>788</ele>
      </trkpt>
      <trkpt lat="44.56617" lon="5.3077">
        <ele>787</ele>
      </trkpt>
      <trkpt lat="44.56618" lon="5.30759">
        <ele>789</ele>
      </trkpt>
      <trkpt lat="44.56618" lon="5.30733">
        <ele>795</ele>
      </trkpt>
      <trkpt lat="44.56626" lon="5.30725">
        <ele>800</ele>
      </trkpt>
      <trkpt lat="44.56644" lon="5.30723">
        <ele>799</ele>
      </trkpt>
      <trkpt lat="44.56708" lon="5.30727">
        <ele>796</ele>
      </trkpt>
      <trkpt lat="44.56755" lon="5.30732">
        <ele>783</ele>
      </trkpt>
      <trkpt lat="44.56764" lon="5.3073">
        <ele>790</ele>
      </trkpt>
      <trkpt lat="44.5687" lon="5.30642">
        <ele>770</ele>
      </trkpt>
      <trkpt lat="44.5692" lon="5.305">
        <ele>787</ele>
      </trkpt>
      <trkpt lat="44.56941" lon="5.30493">
        <ele>788</ele>
      </trkpt>
      <trkpt lat="44.57006" lon="5.30505">
        <ele>783</ele>
      </trkpt>
      <trkpt lat="44.57096" lon="5.30458">
        <ele>782</ele>
      </trkpt>
      <trkpt lat="44.57174" lon="5.30426">
        <ele>781</ele>
      </trkpt>
      <trkpt lat="44.57243" lon="5.30365">
        <ele>777</ele>
      </trkpt>
      <trkpt lat="44.57275" lon="5.30317">
        <ele>773</ele>
      </trkpt>
      <trkpt lat="44.57366" lon="5.30075">
        <ele>791</ele>
      </trkpt>
      <trkpt lat="44.57377" lon="5.30053">
        <ele>796</ele>
      </trkpt>
      <trkpt lat="44.57391" lon="5.30044">
        <ele>794</ele>
      </trkpt>
      <trkpt lat="44.57451" lon="5.30035">
        <ele>802</ele>
      </trkpt>
      <trkpt lat="44.57473" lon="5.30035">
        <ele>804</ele>
      </trkpt>
      <trkpt lat="44.57546" lon="5.3006">
        <ele>804</ele>
      </trkpt>
      <trkpt lat="44.57563" lon="5.30074">
        <ele>802</ele>
      </trkpt>
      <trkpt lat="44.57572" lon="5.30092">
        <ele>802</ele>
      </trkpt>
      <trkpt lat="44.57585" lon="5.30123">
        <ele>800</ele>
      </trkpt>
      <trkpt lat="44.57597" lon="5.30139">
        <ele>800</ele>
      </trkpt>
      <trkpt lat="44.57608" lon="5.30141">
        <ele>802</ele>
      </trkpt>
      <trkpt lat="44.57619" lon="5.30139">
        <ele>803</ele>
      </trkpt>
      <trkpt lat="44.57643" lon="5.30121">
        <ele>806</ele>
      </trkpt>
      <trkpt lat="44.57647" lon="5.30106">
        <ele>803</ele>
      </trkpt>
      <trkpt lat="44.57646" lon="5.30081">
        <ele>799</ele>
      </trkpt>
      <trkpt lat="44.57629" lon="5.29999">
        <ele>789</ele>
      </trkpt>
      <trkpt lat="44.57628" lon="5.29967">
        <ele>787</ele>
      </trkpt>
      <trkpt lat="44.57632" lon="5.29947">
        <ele>786</ele>
      </trkpt>
      <trkpt lat="44.57655" lon="5.29875">
        <ele>779</ele>
      </trkpt>
      <trkpt lat="44.57679" lon="5.29805">
        <ele>779</ele>
      </trkpt>
      <trkpt lat="44.57687" lon="5.29722">
        <ele>766</ele>
      </trkpt>
      <trkpt lat="44.57682" lon="5.29617">
        <ele>768</ele>
      </trkpt>
      <trkpt lat="44.57662" lon="5.29528">
        <ele>762</ele>
      </trkpt>
      <trkpt lat="44.57636" lon="5.29497">
        <ele>771</ele>
      </trkpt>
      <trkpt lat="44.57631" lon="5.29479">
        <ele>769</ele>
      </trkpt>
      <trkpt lat="44.57638" lon="5.29438">
        <ele>764</ele>
      </trkpt>
      <trkpt lat="44.57651" lon="5.29409">
        <ele>762</ele>
      </trkpt>
      <trkpt lat="44.57658" lon="5.29366">
        <ele>752</ele>
      </trkpt>
      <trkpt lat="44.57664" lon="5.29293">
        <ele>755</ele>
      </trkpt>
      <trkpt lat="44.57683" lon="5.29216">
        <ele>753</ele>
      </trkpt>
      <trkpt lat="44.57728" lon="5.29133">
        <ele>751</ele>
      </trkpt>
      <trkpt lat="44.57805" lon="5.29035">
        <ele>747</ele>
      </trkpt>
      <trkpt lat="44.57899" lon="5.28883">
        <ele>737</ele>
      </trkpt>
      <trkpt lat="44.57955" lon="5.28802">
        <ele>729</ele>
      </trkpt>
      <trkpt lat="44.57983" lon="5.28753">
        <ele>727</ele>
      </trkpt>
      <trkpt lat="44.58055" lon="5.28604">
        <ele>706</ele>
      </trkpt>
      <trkpt lat="44.5806" lon="5.2858">
        <ele>708</ele>
      </trkpt>
      <trkpt lat="44.58057" lon="5.28563">
        <ele>709</ele>
      </trkpt>
      <trkpt lat="44.58048" lon="5.28555">
        <ele>710</ele>
      </trkpt>
      <trkpt lat="44.57994" lon="5.2855">
        <ele>719</ele>
      </trkpt>
      <trkpt lat="44.57972" lon="5.28558">
        <ele>719</ele>
      </trkpt>
      <trkpt lat="44.57958" lon="5.28559">
        <ele>720</ele>
      </trkpt>
      <trkpt lat="44.57944" lon="5.28547">
        <ele>718</ele>
      </trkpt>
      <trkpt lat="44.5792" lon="5.28499">
        <ele>707</ele>
      </trkpt>
      <trkpt lat="44.57907" lon="5.28484">
        <ele>707</ele>
      </trkpt>
      <trkpt lat="44.57886" lon="5.28473">
        <ele>708</ele>
      </trkpt>
      <trkpt lat="44.57868" lon="5.28472">
        <ele>711</ele>
      </trkpt>
      <trkpt lat="44.57856" lon="5.28474">
        <ele>711</ele>
      </trkpt>
      <trkpt lat="44.57761" lon="5.28506">
        <ele>703</ele>
      </trkpt>
      <trkpt lat="44.57751" lon="5.28515">
        <ele>707</ele>
      </trkpt>
      <trkpt lat="44.57742" lon="5.28533">
        <ele>708</ele>
      </trkpt>
      <trkpt lat="44.57735" lon="5.2854">
        <ele>708</ele>
      </trkpt>
      <trkpt lat="44.57727" lon="5.28541">
        <ele>708</ele>
      </trkpt>
      <trkpt lat="44.57713" lon="5.28532">
        <ele>702</ele>
      </trkpt>
      <trkpt lat="44.57688" lon="5.28527">
        <ele>698</ele>
      </trkpt>
      <trkpt lat="44.57666" lon="5.28529">
        <ele>695</ele>
      </trkpt>
      <trkpt lat="44.57642" lon="5.28537">
        <ele>698</ele>
      </trkpt>
      <trkpt lat="44.5763" lon="5.28533">
        <ele>692</ele>
      </trkpt>
      <trkpt lat="44.57614" lon="5.28522">
        <ele>691</ele>
      </trkpt>
      <trkpt lat="44.5759" lon="5.28509">
        <ele>691</ele>
      </trkpt>
      <trkpt lat="44.57577" lon="5.28486">
        <ele>685</ele>
      </trkpt>
      <trkpt lat="44.57565" lon="5.2845">
        <ele>677</ele>
      </trkpt>
      <trkpt lat="44.5755" lon="5.28429">
        <ele>676</ele>
      </trkpt>
      <trkpt lat="44.57528" lon="5.28377">
        <ele>675</ele>
      </trkpt>
      <trkpt lat="44.57483" lon="5.28335">
        <ele>674</ele>
      </trkpt>
      <trkpt lat="44.5747" lon="5.28329">
        <ele>674</ele>
      </trkpt>
      <trkpt lat="44.57418" lon="5.28324">
        <ele>677</ele>
      </trkpt>
      <trkpt lat="44.57399" lon="5.28315">
        <ele>676</ele>
      </trkpt>
      <trkpt lat="44.57393" lon="5.28308">
        <ele>671</ele>
      </trkpt>
      <trkpt lat="44.57385" lon="5.28296">
        <ele>670</ele>
      </trkpt>
      <trkpt lat="44.57381" lon="5.28283">
        <ele>667</ele>
      </trkpt>
      <trkpt lat="44.5738" lon="5.28268">
        <ele>667</ele>
      </trkpt>
      <trkpt lat="44.57388" lon="5.28255">
        <ele>666</ele>
      </trkpt>
      <trkpt lat="44.57415" lon="5.28238">
        <ele>663</ele>
      </trkpt>
      <trkpt lat="44.57424" lon="5.28229">
        <ele>662</ele>
      </trkpt>
      <trkpt lat="44.57449" lon="5.28178">
        <ele>656</ele>
      </trkpt>
      <trkpt lat="44.57449" lon="5.28168">
        <ele>653</ele>
      </trkpt>
      <trkpt lat="44.57447" lon="5.28159">
        <ele>653</ele>
      </trkpt>
      <trkpt lat="44.57406" lon="5.28126">
        <ele>652</ele>
      </trkpt>
      <trkpt lat="44.57392" lon="5.28098">
        <ele>650</ele>
      </trkpt>
      <trkpt lat="44.57369" lon="5.28064">
        <ele>648</ele>
      </trkpt>
      <trkpt lat="44.57304" lon="5.27978">
        <ele>638</ele>
      </trkpt>
      <trkpt lat="44.57286" lon="5.2796">
        <ele>643</ele>
      </trkpt>
      <trkpt lat="44.57194" lon="5.27915">
        <ele>636</ele>
      </trkpt>
      <trkpt lat="44.57179" lon="5.27913">
        <ele>637</ele>
      </trkpt>
      <trkpt lat="44.57131" lon="5.27917">
        <ele>634</ele>
      </trkpt>
      <trkpt lat="44.57118" lon="5.2792">
        <ele>631</ele>
      </trkpt>
      <trkpt lat="44.57088" lon="5.27942">
        <ele>634</ele>
      </trkpt>
      <trkpt lat="44.56961" lon="5.27991">
        <ele>624</ele>
      </trkpt>
      <trkpt lat="44.56904" lon="5.28027">
        <ele>619</ele>
      </trkpt>
      <trkpt lat="44.56846" lon="5.28051">
        <ele>613</ele>
      </trkpt>
      <trkpt lat="44.56824" lon="5.28067">
        <ele>615</ele>
      </trkpt>
      <trkpt lat="44.56805" lon="5.28095">
        <ele>613</ele>
      </trkpt>
      <trkpt lat="44.5679" lon="5.28106">
        <ele>607</ele>
      </trkpt>
      <trkpt lat="44.5677" lon="5.28113">
        <ele>606</ele>
      </trkpt>
      <trkpt lat="44.56759" lon="5.28125">
        <ele>604</ele>
      </trkpt>
      <trkpt lat="44.5675" lon="5.28144">
        <ele>604</ele>
      </trkpt>
      <trkpt lat="44.5674" lon="5.28177">
        <ele>608</ele>
      </trkpt>
      <trkpt lat="44.56729" lon="5.28182">
        <ele>603</ele>
      </trkpt>
      <trkpt lat="44.56719" lon="5.2818">
        <ele>602</ele>
      </trkpt>
      <trkpt lat="44.56715" lon="5.28165">
        <ele>599</ele>
      </trkpt>
      <trkpt lat="44.56723" lon="5.28144">
        <ele>597</ele>
      </trkpt>
      <trkpt lat="44.56738" lon="5.28122">
        <ele>601</ele>
      </trkpt>
      <trkpt lat="44.56746" lon="5.28102">
        <ele>599</ele>
      </trkpt>
      <trkpt lat="44.56751" lon="5.28058">
        <ele>593</ele>
      </trkpt>
      <trkpt lat="44.56757" lon="5.28037">
        <ele>593</ele>
      </trkpt>
      <trkpt lat="44.56769" lon="5.28016">
        <ele>594</ele>
      </trkpt>
      <trkpt lat="44.56809" lon="5.27982">
        <ele>595</ele>
      </trkpt>
      <trkpt lat="44.56816" lon="5.27966">
        <ele>591</ele>
      </trkpt>
      <trkpt lat="44.56821" lon="5.27925">
        <ele>586</ele>
      </trkpt>
      <trkpt lat="44.56829" lon="5.27896">
        <ele>583</ele>
      </trkpt>
      <trkpt lat="44.56843" lon="5.27862">
        <ele>580</ele>
      </trkpt>
      <trkpt lat="44.56886" lon="5.27747">
        <ele>577</ele>
      </trkpt>
      <trkpt lat="44.56885" lon="5.27732">
        <ele>576</ele>
      </trkpt>
      <trkpt lat="44.56876" lon="5.27719">
        <ele>570</ele>
      </trkpt>
      <trkpt lat="44.56871" lon="5.27706">
        <ele>569</ele>
      </trkpt>
      <trkpt lat="44.56832" lon="5.27745">
        <ele>566</ele>
      </trkpt>
      <trkpt lat="44.56814" lon="5.27764">
        <ele>566</ele>
      </trkpt>
      <trkpt lat="44.56705" lon="5.27865">
        <ele>570</ele>
      </trkpt>
      <trkpt lat="44.56681" lon="5.27897">
        <ele>570</ele>
      </trkpt>
      <trkpt lat="44.56672" lon="5.27915">
        <ele>570</ele>
      </trkpt>
      <trkpt lat="44.56668" lon="5.27932">
        <ele>571</ele>
      </trkpt>
      <trkpt lat="44.56666" lon="5.27953">
        <ele>572</ele>
      </trkpt>
      <trkpt lat="44.56662" lon="5.27971">
        <ele>572</ele>
      </trkpt>
      <trkpt lat="44.56637" lon="5.28057">
        <ele>573</ele>
      </trkpt>
      <trkpt lat="44.56628" lon="5.28079">
        <ele>573</ele>
      </trkpt>
      <trkpt lat="44.56579" lon="5.28158">
        <ele>574</ele>
      </trkpt>
      <trkpt lat="44.56566" lon="5.28176">
        <ele>573</ele>
      </trkpt>
      <trkpt lat="44.56552" lon="5.2819">
        <ele>573</ele>
      </trkpt>
      <trkpt lat="44.56512" lon="5.28201">
        <ele>577</ele>
      </trkpt>
      <trkpt lat="44.56478" lon="5.28223">
        <ele>578</ele>
      </trkpt>
      <trkpt lat="44.56467" lon="5.28228">
        <ele>578</ele>
      </trkpt>
      <trkpt lat="44.56416" lon="5.28232">
        <ele>580</ele>
      </trkpt>
      <trkpt lat="44.5637" lon="5.28227">
        <ele>584</ele>
      </trkpt>
      <trkpt lat="44.56315" lon="5.28248">
        <ele>585</ele>
      </trkpt>
      <trkpt lat="44.56216" lon="5.28263">
        <ele>584</ele>
      </trkpt>
      <trkpt lat="44.56202" lon="5.28268">
        <ele>586</ele>
      </trkpt>
      <trkpt lat="44.56186" lon="5.28281">
        <ele>586</ele>
      </trkpt>
      <trkpt lat="44.5614" lon="5.28323">
        <ele>585</ele>
      </trkpt>
      <trkpt lat="44.56101" lon="5.2837">
        <ele>584</ele>
      </trkpt>
      <trkpt lat="44.56077" lon="5.28405">
        <ele>584</ele>
      </trkpt>
      <trkpt lat="44.56052" lon="5.28452">
        <ele>585</ele>
      </trkpt>
      <trkpt lat="44.5604" lon="5.28465">
        <ele>585</ele>
      </trkpt>
      <trkpt lat="44.56018" lon="5.28477">
        <ele>585</ele>
      </trkpt>
      <trkpt lat="44.55979" lon="5.28486">
        <ele>584</ele>
      </trkpt>
      <trkpt lat="44.5596" lon="5.28494">
        <ele>584</ele>
      </trkpt>
      <trkpt lat="44.55946" lon="5.28506">
        <ele>585</ele>
      </trkpt>
      <trkpt lat="44.55933" lon="5.2851">
        <ele>583</ele>
      </trkpt>
      <trkpt lat="44.55854" lon="5.28506">
        <ele>592</ele>
      </trkpt>
      <trkpt lat="44.55836" lon="5.28497">
        <ele>594</ele>
      </trkpt>
      <trkpt lat="44.55814" lon="5.28483">
        <ele>594</ele>
      </trkpt>
      <trkpt lat="44.5578" lon="5.28451">
        <ele>602</ele>
      </trkpt>
      <trkpt lat="44.55705" lon="5.28415">
        <ele>596</ele>
      </trkpt>
      <trkpt lat="44.5569" lon="5.28404">
        <ele>597</ele>
      </trkpt>
      <trkpt lat="44.55644" lon="5.28365">
        <ele>603</ele>
      </trkpt>
      <trkpt lat="44.55574" lon="5.283">
        <ele>606</ele>
      </trkpt>
      <trkpt lat="44.55506" lon="5.28245">
        <ele>602</ele>
      </trkpt>
      <trkpt lat="44.55467" lon="5.28209">
        <ele>605</ele>
      </trkpt>
      <trkpt lat="44.55445" lon="5.28198">
        <ele>603</ele>
      </trkpt>
      <trkpt lat="44.55422" lon="5.28199">
        <ele>598</ele>
      </trkpt>
      <trkpt lat="44.55401" lon="5.28205">
        <ele>595</ele>
      </trkpt>
      <trkpt lat="44.55302" lon="5.2826">
        <ele>594</ele>
      </trkpt>
      <trkpt lat="44.55282" lon="5.28266">
        <ele>595</ele>
      </trkpt>
      <trkpt lat="44.55209" lon="5.28286">
        <ele>601</ele>
      </trkpt>
      <trkpt lat="44.55168" lon="5.28293">
        <ele>603</ele>
      </trkpt>
      <trkpt lat="44.55113" lon="5.28293">
        <ele>605</ele>
      </trkpt>
      <trkpt lat="44.55094" lon="5.28297">
        <ele>607</ele>
      </trkpt>
      <trkpt lat="44.55057" lon="5.28312">
        <ele>607</ele>
      </trkpt>
      <trkpt lat="44.55044" lon="5.28315">
        <ele>604</ele>
      </trkpt>
      <trkpt lat="44.54979" lon="5.28301">
        <ele>613</ele>
      </trkpt>
      <trkpt lat="44.54947" lon="5.28301">
        <ele>613</ele>
      </trkpt>
      <trkpt lat="44.5489" lon="5.28293">
        <ele>615</ele>
      </trkpt>
      <trkpt lat="44.54774" lon="5.28286">
        <ele>612</ele>
      </trkpt>
      <trkpt lat="44.54731" lon="5.28287">
        <ele>613</ele>
      </trkpt>
      <trkpt lat="44.54713" lon="5.2829">
        <ele>613</ele>
      </trkpt>
      <trkpt lat="44.54669" lon="5.28307">
        <ele>614</ele>
      </trkpt>
      <trkpt lat="44.54652" lon="5.2831">
        <ele>616</ele>
      </trkpt>
      <trkpt lat="44.54639" lon="5.28309">
        <ele>617</ele>
      </trkpt>
      <trkpt lat="44.54615" lon="5.28301">
        <ele>621</ele>
      </trkpt>
      <trkpt lat="44.54597" lon="5.28299">
        <ele>621</ele>
      </trkpt>
      <trkpt lat="44.54579" lon="5.283">
        <ele>620</ele>
      </trkpt>
      <trkpt lat="44.54526" lon="5.28311">
        <ele>618</ele>
      </trkpt>
      <trkpt lat="44.54515" lon="5.28311">
        <ele>619</ele>
      </trkpt>
      <trkpt lat="44.54433" lon="5.28301">
        <ele>622</ele>
      </trkpt>
      <trkpt lat="44.54404" lon="5.28302">
        <ele>620</ele>
      </trkpt>
      <trkpt lat="44.54383" lon="5.28314">
        <ele>614</ele>
      </trkpt>
      <trkpt lat="44.54345" lon="5.28312">
        <ele>618</ele>
      </trkpt>
      <trkpt lat="44.54326" lon="5.28315">
        <ele>614</ele>
      </trkpt>
      <trkpt lat="44.54313" lon="5.28321">
        <ele>614</ele>
      </trkpt>
      <trkpt lat="44.54299" lon="5.2833">
        <ele>614</ele>
      </trkpt>
      <trkpt lat="44.54273" lon="5.28354">
        <ele>611</ele>
      </trkpt>
      <trkpt lat="44.54258" lon="5.2836">
        <ele>614</ele>
      </trkpt>
      <trkpt lat="44.54243" lon="5.28362">
        <ele>614</ele>
      </trkpt>
      <trkpt lat="44.54227" lon="5.28359">
        <ele>617</ele>
      </trkpt>
      <trkpt lat="44.54122" lon="5.283">
        <ele>626</ele>
      </trkpt>
      <trkpt lat="44.54108" lon="5.28293">
        <ele>626</ele>
      </trkpt>
      <trkpt lat="44.54095" lon="5.28292">
        <ele>624</ele>
      </trkpt>
      <trkpt lat="44.54064" lon="5.28293">
        <ele>621</ele>
      </trkpt>
      <trkpt lat="44.54052" lon="5.28291">
        <ele>621</ele>
      </trkpt>
      <trkpt lat="44.54041" lon="5.28283">
        <ele>621</ele>
      </trkpt>
      <trkpt lat="44.54022" lon="5.28261">
        <ele>622</ele>
      </trkpt>
      <trkpt lat="44.53994" lon="5.28241">
        <ele>624</ele>
      </trkpt>
      <trkpt lat="44.53966" lon="5.2823">
        <ele>630</ele>
      </trkpt>
      <trkpt lat="44.53953" lon="5.28228">
        <ele>631</ele>
      </trkpt>
      <trkpt lat="44.539" lon="5.28239">
        <ele>626</ele>
      </trkpt>
      <trkpt lat="44.53877" lon="5.28241">
        <ele>626</ele>
      </trkpt>
      <trkpt lat="44.53817" lon="5.28243">
        <ele>627</ele>
      </trkpt>
      <trkpt lat="44.53776" lon="5.28241">
        <ele>629</ele>
      </trkpt>
      <trkpt lat="44.53745" lon="5.28237">
        <ele>629</ele>
      </trkpt>
      <trkpt lat="44.53718" lon="5.28231">
        <ele>629</ele>
      </trkpt>
      <trkpt lat="44.537" lon="5.28224">
        <ele>635</ele>
      </trkpt>
      <trkpt lat="44.53648" lon="5.28196">
        <ele>639</ele>
      </trkpt>
      <trkpt lat="44.5362" lon="5.28187">
        <ele>633</ele>
      </trkpt>
      <trkpt lat="44.53584" lon="5.28181">
        <ele>628</ele>
      </trkpt>
      <trkpt lat="44.53533" lon="5.28187">
        <ele>627</ele>
      </trkpt>
      <trkpt lat="44.53498" lon="5.28195">
        <ele>630</ele>
      </trkpt>
      <trkpt lat="44.53481" lon="5.2819">
        <ele>631</ele>
      </trkpt>
      <trkpt lat="44.53466" lon="5.2818">
        <ele>631</ele>
      </trkpt>
      <trkpt lat="44.53449" lon="5.28162">
        <ele>635</ele>
      </trkpt>
      <trkpt lat="44.53436" lon="5.28142">
        <ele>641</ele>
      </trkpt>
      <trkpt lat="44.53409" lon="5.2809">
        <ele>644</ele>
      </trkpt>
      <trkpt lat="44.53401" lon="5.28062">
        <ele>641</ele>
      </trkpt>
      <trkpt lat="44.53388" lon="5.28042">
        <ele>640</ele>
      </trkpt>
      <trkpt lat="44.53372" lon="5.28028">
        <ele>642</ele>
      </trkpt>
      <trkpt lat="44.53358" lon="5.28023">
        <ele>642</ele>
      </trkpt>
      <trkpt lat="44.53321" lon="5.28019">
        <ele>641</ele>
      </trkpt>
      <trkpt lat="44.53295" lon="5.28021">
        <ele>638</ele>
      </trkpt>
      <trkpt lat="44.53257" lon="5.28026">
        <ele>637</ele>
      </trkpt>
      <trkpt lat="44.53219" lon="5.28038">
        <ele>635</ele>
      </trkpt>
      <trkpt lat="44.53207" lon="5.2804">
        <ele>636</ele>
      </trkpt>
      <trkpt lat="44.53176" lon="5.28023">
        <ele>640</ele>
      </trkpt>
      <trkpt lat="44.53117" lon="5.27999">
        <ele>643</ele>
      </trkpt>
      <trkpt lat="44.53049" lon="5.27975">
        <ele>644</ele>
      </trkpt>
      <trkpt lat="44.53038" lon="5.27975">
        <ele>642</ele>
      </trkpt>
      <trkpt lat="44.53031" lon="5.2798">
        <ele>639</ele>
      </trkpt>
      <trkpt lat="44.53019" lon="5.27988">
        <ele>638</ele>
      </trkpt>
      <trkpt lat="44.53006" lon="5.27989">
        <ele>639</ele>
      </trkpt>
      <trkpt lat="44.52993" lon="5.27985">
        <ele>639</ele>
      </trkpt>
      <trkpt lat="44.52983" lon="5.27975">
        <ele>641</ele>
      </trkpt>
      <trkpt lat="44.52973" lon="5.27957">
        <ele>641</ele>
      </trkpt>
      <trkpt lat="44.52958" lon="5.27913">
        <ele>645</ele>
      </trkpt>
      <trkpt lat="44.52949" lon="5.27902">
        <ele>646</ele>
      </trkpt>
      <trkpt lat="44.52939" lon="5.27892">
        <ele>650</ele>
      </trkpt>
      <trkpt lat="44.52906" lon="5.27875">
        <ele>648</ele>
      </trkpt>
      <trkpt lat="44.52875" lon="5.27852">
        <ele>646</ele>
      </trkpt>
      <trkpt lat="44.52847" lon="5.27822">
        <ele>646</ele>
      </trkpt>
      <trkpt lat="44.52822" lon="5.27787">
        <ele>651</ele>
      </trkpt>
      <trkpt lat="44.52794" lon="5.27731">
        <ele>662</ele>
      </trkpt>
      <trkpt lat="44.52761" lon="5.27655">
        <ele>658</ele>
      </trkpt>
      <trkpt lat="44.52742" lon="5.27626">
        <ele>662</ele>
      </trkpt>
      <trkpt lat="44.5272" lon="5.27596">
        <ele>656</ele>
      </trkpt>
      <trkpt lat="44.52667" lon="5.27539">
        <ele>652</ele>
      </trkpt>
      <trkpt lat="44.5266" lon="5.27529">
        <ele>655</ele>
      </trkpt>
      <trkpt lat="44.52635" lon="5.27464">
        <ele>658</ele>
      </trkpt>
      <trkpt lat="44.52614" lon="5.27434">
        <ele>656</ele>
      </trkpt>
      <trkpt lat="44.52582" lon="5.27426">
        <ele>652</ele>
      </trkpt>
      <trkpt lat="44.52559" lon="5.27411">
        <ele>653</ele>
      </trkpt>
      <trkpt lat="44.52548" lon="5.27398">
        <ele>654</ele>
      </trkpt>
      <trkpt lat="44.525" lon="5.27317">
        <ele>656</ele>
      </trkpt>
      <trkpt lat="44.52497" lon="5.27299">
        <ele>658</ele>
      </trkpt>
      <trkpt lat="44.52501" lon="5.27257">
        <ele>661</ele>
      </trkpt>
      <trkpt lat="44.525" lon="5.27231">
        <ele>662</ele>
      </trkpt>
      <trkpt lat="44.52493" lon="5.27208">
        <ele>665</ele>
      </trkpt>
      <trkpt lat="44.52486" lon="5.27192">
        <ele>664</ele>
      </trkpt>
      <trkpt lat="44.52474" lon="5.27177">
        <ele>664</ele>
      </trkpt>
      <trkpt lat="44.52402" lon="5.27126">
        <ele>658</ele>
      </trkpt>
      <trkpt lat="44.52393" lon="5.27112">
        <ele>660</ele>
      </trkpt>
      <trkpt lat="44.52389" lon="5.27093">
        <ele>661</ele>
      </trkpt>
      <trkpt lat="44.52385" lon="5.27059">
        <ele>666</ele>
      </trkpt>
      <trkpt lat="44.5238" lon="5.27037">
        <ele>666</ele>
      </trkpt>
      <trkpt lat="44.52371" lon="5.27018">
        <ele>665</ele>
      </trkpt>
      <trkpt lat="44.52349" lon="5.26985">
        <ele>668</ele>
      </trkpt>
      <trkpt lat="44.52341" lon="5.26961">
        <ele>667</ele>
      </trkpt>
      <trkpt lat="44.52341" lon="5.26921">
        <ele>674</ele>
      </trkpt>
      <trkpt lat="44.52345" lon="5.26878">
        <ele>678</ele>
      </trkpt>
      <trkpt lat="44.52342" lon="5.26852">
        <ele>680</ele>
      </trkpt>
      <trkpt lat="44.52333" lon="5.26828">
        <ele>680</ele>
      </trkpt>
      <trkpt lat="44.52313" lon="5.26797">
        <ele>676</ele>
      </trkpt>
      <trkpt lat="44.52294" lon="5.26773">
        <ele>680</ele>
      </trkpt>
      <trkpt lat="44.52277" lon="5.26745">
        <ele>682</ele>
      </trkpt>
      <trkpt lat="44.52266" lon="5.26717">
        <ele>685</ele>
      </trkpt>
      <trkpt lat="44.52251" lon="5.26676">
        <ele>682</ele>
      </trkpt>
      <trkpt lat="44.52236" lon="5.26647">
        <ele>680</ele>
      </trkpt>
      <trkpt lat="44.52219" lon="5.26627">
        <ele>683</ele>
      </trkpt>
      <trkpt lat="44.52195" lon="5.26608">
        <ele>682</ele>
      </trkpt>
      <trkpt lat="44.52144" lon="5.26584">
        <ele>676</ele>
      </trkpt>
      <trkpt lat="44.52115" lon="5.26581">
        <ele>673</ele>
      </trkpt>
      <trkpt lat="44.52098" lon="5.26576">
        <ele>674</ele>
      </trkpt>
      <trkpt lat="44.52075" lon="5.26564">
        <ele>674</ele>
      </trkpt>
      <trkpt lat="44.52064" lon="5.26555">
        <ele>674</ele>
      </trkpt>
      <trkpt lat="44.52054" lon="5.2654">
        <ele>675</ele>
      </trkpt>
      <trkpt lat="44.5205" lon="5.26521">
        <ele>677</ele>
      </trkpt>
      <trkpt lat="44.52047" lon="5.26496">
        <ele>682</ele>
      </trkpt>
      <trkpt lat="44.52046" lon="5.26449">
        <ele>690</ele>
      </trkpt>
      <trkpt lat="44.52044" lon="5.26425">
        <ele>691</ele>
      </trkpt>
      <trkpt lat="44.52039" lon="5.26411">
        <ele>689</ele>
      </trkpt>
      <trkpt lat="44.52032" lon="5.26397">
        <ele>689</ele>
      </trkpt>
      <trkpt lat="44.52022" lon="5.26385">
        <ele>692</ele>
      </trkpt>
      <trkpt lat="44.5201" lon="5.26378">
        <ele>687</ele>
      </trkpt>
      <trkpt lat="44.51986" lon="5.26368">
        <ele>686</ele>
      </trkpt>
      <trkpt lat="44.51938" lon="5.26341">
        <ele>684</ele>
      </trkpt>
      <trkpt lat="44.51927" lon="5.26331">
        <ele>686</ele>
      </trkpt>
      <trkpt lat="44.51884" lon="5.26269">
        <ele>692</ele>
      </trkpt>
      <trkpt lat="44.51856" lon="5.26237">
        <ele>693</ele>
      </trkpt>
      <trkpt lat="44.51823" lon="5.26206">
        <ele>691</ele>
      </trkpt>
      <trkpt lat="44.51814" lon="5.2619">
        <ele>690</ele>
      </trkpt>
      <trkpt lat="44.51809" lon="5.26177">
        <ele>691</ele>
      </trkpt>
      <trkpt lat="44.51804" lon="5.26108">
        <ele>706</ele>
      </trkpt>
      <trkpt lat="44.51794" lon="5.26073">
        <ele>712</ele>
      </trkpt>
      <trkpt lat="44.51767" lon="5.25995">
        <ele>712</ele>
      </trkpt>
      <trkpt lat="44.51763" lon="5.25972">
        <ele>707</ele>
      </trkpt>
      <trkpt lat="44.51755" lon="5.25912">
        <ele>709</ele>
      </trkpt>
      <trkpt lat="44.51744" lon="5.25878">
        <ele>709</ele>
      </trkpt>
      <trkpt lat="44.51715" lon="5.25826">
        <ele>707</ele>
      </trkpt>
      <trkpt lat="44.51705" lon="5.258">
        <ele>707</ele>
      </trkpt>
      <trkpt lat="44.51701" lon="5.25781">
        <ele>711</ele>
      </trkpt>
      <trkpt lat="44.517" lon="5.25763">
        <ele>712</ele>
      </trkpt>
      <trkpt lat="44.51699" lon="5.25721">
        <ele>719</ele>
      </trkpt>
      <trkpt lat="44.51691" lon="5.25668">
        <ele>726</ele>
      </trkpt>
      <trkpt lat="44.51686" lon="5.25647">
        <ele>727</ele>
      </trkpt>
      <trkpt lat="44.51677" lon="5.25631">
        <ele>723</ele>
      </trkpt>
      <trkpt lat="44.5165" lon="5.25594">
        <ele>719</ele>
      </trkpt>
      <trkpt lat="44.51637" lon="5.25574">
        <ele>722</ele>
      </trkpt>
      <trkpt lat="44.51635" lon="5.25557">
        <ele>724</ele>
      </trkpt>
      <trkpt lat="44.51636" lon="5.25536">
        <ele>725</ele>
      </trkpt>
      <trkpt lat="44.51642" lon="5.25511">
        <ele>727</ele>
      </trkpt>
      <trkpt lat="44.51652" lon="5.25482">
        <ele>728</ele>
      </trkpt>
      <trkpt lat="44.51667" lon="5.25432">
        <ele>731</ele>
      </trkpt>
      <trkpt lat="44.5169" lon="5.25397">
        <ele>738</ele>
      </trkpt>
      <trkpt lat="44.51706" lon="5.25379">
        <ele>737</ele>
      </trkpt>
      <trkpt lat="44.5172" lon="5.25349">
        <ele>742</ele>
      </trkpt>
      <trkpt lat="44.51725" lon="5.25327">
        <ele>739</ele>
      </trkpt>
      <trkpt lat="44.51728" lon="5.25285">
        <ele>736</ele>
      </trkpt>
      <trkpt lat="44.51731" lon="5.25275">
        <ele>734</ele>
      </trkpt>
      <trkpt lat="44.51747" lon="5.2525">
        <ele>736</ele>
      </trkpt>
      <trkpt lat="44.51752" lon="5.25236">
        <ele>736</ele>
      </trkpt>
      <trkpt lat="44.51758" lon="5.25198">
        <ele>732</ele>
      </trkpt>
      <trkpt lat="44.5176" lon="5.25188">
        <ele>732</ele>
      </trkpt>
      <trkpt lat="44.51766" lon="5.25181">
        <ele>735</ele>
      </trkpt>
      <trkpt lat="44.51809" lon="5.25155">
        <ele>738</ele>
      </trkpt>
      <trkpt lat="44.51845" lon="5.25136">
        <ele>739</ele>
      </trkpt>
      <trkpt lat="44.5188" lon="5.25128">
        <ele>745</ele>
      </trkpt>
      <trkpt lat="44.51885" lon="5.2512">
        <ele>746</ele>
      </trkpt>
      <trkpt lat="44.51886" lon="5.25111">
        <ele>746</ele>
      </trkpt>
      <trkpt lat="44.51876" lon="5.25075">
        <ele>746</ele>
      </trkpt>
      <trkpt lat="44.51875" lon="5.2506">
        <ele>742</ele>
      </trkpt>
      <trkpt lat="44.51877" lon="5.25044">
        <ele>747</ele>
      </trkpt>
      <trkpt lat="44.51887" lon="5.25013">
        <ele>751</ele>
      </trkpt>
      <trkpt lat="44.51889" lon="5.24998">
        <ele>752</ele>
      </trkpt>
      <trkpt lat="44.51891" lon="5.24959">
        <ele>751</ele>
      </trkpt>
      <trkpt lat="44.51895" lon="5.24938">
        <ele>750</ele>
      </trkpt>
      <trkpt lat="44.51919" lon="5.24867">
        <ele>756</ele>
      </trkpt>
      <trkpt lat="44.51934" lon="5.24841">
        <ele>762</ele>
      </trkpt>
      <trkpt lat="44.51957" lon="5.24816">
        <ele>760</ele>
      </trkpt>
      <trkpt lat="44.51986" lon="5.24794">
        <ele>765</ele>
      </trkpt>
      <trkpt lat="44.52033" lon="5.24738">
        <ele>767</ele>
      </trkpt>
      <trkpt lat="44.52037" lon="5.2473">
        <ele>765</ele>
      </trkpt>
      <trkpt lat="44.52037" lon="5.24723">
        <ele>761</ele>
      </trkpt>
      <trkpt lat="44.52031" lon="5.24706">
        <ele>759</ele>
      </trkpt>
      <trkpt lat="44.52022" lon="5.24695">
        <ele>756</ele>
      </trkpt>
      <trkpt lat="44.52014" lon="5.24693">
        <ele>755</ele>
      </trkpt>
      <trkpt lat="44.51986" lon="5.247">
        <ele>753</ele>
      </trkpt>
      <trkpt lat="44.51946" lon="5.24696">
        <ele>753</ele>
      </trkpt>
      <trkpt lat="44.51935" lon="5.24699">
        <ele>753</ele>
      </trkpt>
      <trkpt lat="44.51903" lon="5.24717">
        <ele>750</ele>
      </trkpt>
      <trkpt lat="44.51881" lon="5.24724">
        <ele>750</ele>
      </trkpt>
      <trkpt lat="44.51863" lon="5.24726">
        <ele>751</ele>
      </trkpt>
      <trkpt lat="44.51854" lon="5.24724">
        <ele>751</ele>
      </trkpt>
      <trkpt lat="44.51829" lon="5.24708">
        <ele>753</ele>
      </trkpt>
      <trkpt lat="44.51815" lon="5.24705">
        <ele>755</ele>
      </trkpt>
      <trkpt lat="44.5181" lon="5.24706">
        <ele>755</ele>
      </trkpt>
      <trkpt lat="44.51785" lon="5.24737">
        <ele>755</ele>
      </trkpt>
      <trkpt lat="44.51773" lon="5.24744">
        <ele>755</ele>
      </trkpt>
      <trkpt lat="44.51757" lon="5.24751">
        <ele>756</ele>
      </trkpt>
      <trkpt lat="44.5175" lon="5.24752">
        <ele>756</ele>
      </trkpt>
      <trkpt lat="44.51742" lon="5.2475">
        <ele>756</ele>
      </trkpt>
      <trkpt lat="44.51713" lon="5.24735">
        <ele>757</ele>
      </trkpt>
      <trkpt lat="44.51706" lon="5.24733">
        <ele>759</ele>
      </trkpt>
      <trkpt lat="44.51672" lon="5.24741">
        <ele>760</ele>
      </trkpt>
      <trkpt lat="44.51652" lon="5.24744">
        <ele>761</ele>
      </trkpt>
      <trkpt lat="44.51638" lon="5.24745">
        <ele>761</ele>
      </trkpt>
      <trkpt lat="44.51606" lon="5.24741">
        <ele>763</ele>
      </trkpt>
      <trkpt lat="44.51595" lon="5.24742">
        <ele>765</ele>
      </trkpt>
      <trkpt lat="44.51568" lon="5.24749">
        <ele>767</ele>
      </trkpt>
      <trkpt lat="44.51561" lon="5.24747">
        <ele>767</ele>
      </trkpt>
      <trkpt lat="44.51551" lon="5.24742">
        <ele>768</ele>
      </trkpt>
      <trkpt lat="44.51542" lon="5.24732">
        <ele>769</ele>
      </trkpt>
      <trkpt lat="44.51517" lon="5.24693">
        <ele>776</ele>
      </trkpt>
      <trkpt lat="44.5151" lon="5.24686">
        <ele>776</ele>
      </trkpt>
      <trkpt lat="44.51491" lon="5.24672">
        <ele>780</ele>
      </trkpt>
      <trkpt lat="44.51462" lon="5.2466">
        <ele>780</ele>
      </trkpt>
      <trkpt lat="44.51441" lon="5.24646">
        <ele>780</ele>
      </trkpt>
      <trkpt lat="44.51425" lon="5.24623">
        <ele>782</ele>
      </trkpt>
      <trkpt lat="44.51403" lon="5.24569">
        <ele>788</ele>
      </trkpt>
      <trkpt lat="44.51386" lon="5.24534">
        <ele>795</ele>
      </trkpt>
      <trkpt lat="44.5138" lon="5.24527">
        <ele>795</ele>
      </trkpt>
      <trkpt lat="44.51372" lon="5.2452">
        <ele>792</ele>
      </trkpt>
      <trkpt lat="44.51361" lon="5.24516">
        <ele>791</ele>
      </trkpt>
      <trkpt lat="44.51349" lon="5.24514">
        <ele>791</ele>
      </trkpt>
      <trkpt lat="44.51333" lon="5.24504">
        <ele>792</ele>
      </trkpt>
      <trkpt lat="44.51326" lon="5.24494">
        <ele>792</ele>
      </trkpt>
      <trkpt lat="44.51319" lon="5.24481">
        <ele>791</ele>
      </trkpt>
      <trkpt lat="44.51312" lon="5.2447">
        <ele>794</ele>
      </trkpt>
      <trkpt lat="44.51254" lon="5.24426">
        <ele>792</ele>
      </trkpt>
      <trkpt lat="44.51237" lon="5.24406">
        <ele>798</ele>
      </trkpt>
      <trkpt lat="44.51229" lon="5.244">
        <ele>795</ele>
      </trkpt>
      <trkpt lat="44.51165" lon="5.24358">
        <ele>803</ele>
      </trkpt>
      <trkpt lat="44.51151" lon="5.24352">
        <ele>801</ele>
      </trkpt>
      <trkpt lat="44.51139" lon="5.24349">
        <ele>800</ele>
      </trkpt>
      <trkpt lat="44.51135" lon="5.24344">
        <ele>801</ele>
      </trkpt>
      <trkpt lat="44.51129" lon="5.24352">
        <ele>800</ele>
      </trkpt>
      <trkpt lat="44.5112" lon="5.24371">
        <ele>796</ele>
      </trkpt>
      <trkpt lat="44.51115" lon="5.24388">
        <ele>796</ele>
      </trkpt>
      <trkpt lat="44.5111" lon="5.24444">
        <ele>791</ele>
      </trkpt>
      <trkpt lat="44.5111" lon="5.24456">
        <ele>790</ele>
      </trkpt>
      <trkpt lat="44.51116" lon="5.24482">
        <ele>789</ele>
      </trkpt>
      <trkpt lat="44.51116" lon="5.2449">
        <ele>789</ele>
      </trkpt>
      <trkpt lat="44.51114" lon="5.24495">
        <ele>789</ele>
      </trkpt>
      <trkpt lat="44.51111" lon="5.24501">
        <ele>789</ele>
      </trkpt>
      <trkpt lat="44.51106" lon="5.24505">
        <ele>790</ele>
      </trkpt>
      <trkpt lat="44.511" lon="5.24505">
        <ele>791</ele>
      </trkpt>
      <trkpt lat="44.51069" lon="5.24499">
        <ele>802</ele>
      </trkpt>
      <trkpt lat="44.51046" lon="5.24497">
        <ele>804</ele>
      </trkpt>
      <trkpt lat="44.51026" lon="5.24501">
        <ele>809</ele>
      </trkpt>
      <trkpt lat="44.51011" lon="5.24512">
        <ele>810</ele>
      </trkpt>
      <trkpt lat="44.50995" lon="5.24539">
        <ele>804</ele>
      </trkpt>
      <trkpt lat="44.50987" lon="5.24549">
        <ele>804</ele>
      </trkpt>
      <trkpt lat="44.50964" lon="5.24567">
        <ele>804</ele>
      </trkpt>
      <trkpt lat="44.50959" lon="5.24576">
        <ele>804</ele>
      </trkpt>
      <trkpt lat="44.5094" lon="5.24614">
        <ele>804</ele>
      </trkpt>
      <trkpt lat="44.50917" lon="5.24641">
        <ele>810</ele>
      </trkpt>
      <trkpt lat="44.50911" lon="5.24657">
        <ele>805</ele>
      </trkpt>
      <trkpt lat="44.50907" lon="5.24683">
        <ele>802</ele>
      </trkpt>
      <trkpt lat="44.50896" lon="5.24713">
        <ele>810</ele>
      </trkpt>
      <trkpt lat="44.50877" lon="5.24759">
        <ele>806</ele>
      </trkpt>
      <trkpt lat="44.50869" lon="5.24772">
        <ele>815</ele>
      </trkpt>
      <trkpt lat="44.5086" lon="5.24783">
        <ele>815</ele>
      </trkpt>
      <trkpt lat="44.50832" lon="5.248">
        <ele>821</ele>
      </trkpt>
      <trkpt lat="44.50827" lon="5.24805">
        <ele>820</ele>
      </trkpt>
      <trkpt lat="44.50809" lon="5.24832">
        <ele>819</ele>
      </trkpt>
      <trkpt lat="44.508" lon="5.24852">
        <ele>815</ele>
      </trkpt>
      <trkpt lat="44.50788" lon="5.24871">
        <ele>822</ele>
      </trkpt>
      <trkpt lat="44.50781" lon="5.24838">
        <ele>824</ele>
      </trkpt>
      <trkpt lat="44.50779" lon="5.24814">
        <ele>826</ele>
      </trkpt>
      <trkpt lat="44.50772" lon="5.24729">
        <ele>835</ele>
      </trkpt>
      <trkpt lat="44.5077" lon="5.24648">
        <ele>837</ele>
      </trkpt>
      <trkpt lat="44.50772" lon="5.24575">
        <ele>834</ele>
      </trkpt>
      <trkpt lat="44.50775" lon="5.24499">
        <ele>832</ele>
      </trkpt>
      <trkpt lat="44.50779" lon="5.24464">
        <ele>832</ele>
      </trkpt>
      <trkpt lat="44.50793" lon="5.24376">
        <ele>835</ele>
      </trkpt>
      <trkpt lat="44.50796" lon="5.24296">
        <ele>829</ele>
      </trkpt>
      <trkpt lat="44.50803" lon="5.24261">
        <ele>828</ele>
      </trkpt>
      <trkpt lat="44.50806" lon="5.24229">
        <ele>826</ele>
      </trkpt>
      <trkpt lat="44.50803" lon="5.24159">
        <ele>818</ele>
      </trkpt>
      <trkpt lat="44.50803" lon="5.24139">
        <ele>813</ele>
      </trkpt>
      <trkpt lat="44.50806" lon="5.24124">
        <ele>812</ele>
      </trkpt>
      <trkpt lat="44.50811" lon="5.2411">
        <ele>808</ele>
      </trkpt>
      <trkpt lat="44.50816" lon="5.24091">
        <ele>806</ele>
      </trkpt>
      <trkpt lat="44.50815" lon="5.24085">
        <ele>802</ele>
      </trkpt>
      <trkpt lat="44.50811" lon="5.24078">
        <ele>801</ele>
      </trkpt>
      <trkpt lat="44.50807" lon="5.24077">
        <ele>801</ele>
      </trkpt>
      <trkpt lat="44.50802" lon="5.24079">
        <ele>800</ele>
      </trkpt>
      <trkpt lat="44.508" lon="5.24085">
        <ele>800</ele>
      </trkpt>
      <trkpt lat="44.50791" lon="5.24162">
        <ele>804</ele>
      </trkpt>
      <trkpt lat="44.50788" lon="5.24217">
        <ele>808</ele>
      </trkpt>
      <trkpt lat="44.50772" lon="5.24272">
        <ele>808</ele>
      </trkpt>
      <trkpt lat="44.50758" lon="5.24337">
        <ele>801</ele>
      </trkpt>
      <trkpt lat="44.50752" lon="5.24352">
        <ele>801</ele>
      </trkpt>
      <trkpt lat="44.50744" lon="5.24353">
        <ele>801</ele>
      </trkpt>
      <trkpt lat="44.5074" lon="5.24349">
        <ele>800</ele>
      </trkpt>
      <trkpt lat="44.50738" lon="5.2434">
        <ele>798</ele>
      </trkpt>
      <trkpt lat="44.50739" lon="5.24328">
        <ele>798</ele>
      </trkpt>
      <trkpt lat="44.50742" lon="5.24319">
        <ele>798</ele>
      </trkpt>
      <trkpt lat="44.50752" lon="5.24271">
        <ele>793</ele>
      </trkpt>
      <trkpt lat="44.50763" lon="5.24195">
        <ele>789</ele>
      </trkpt>
      <trkpt lat="44.50764" lon="5.24179">
        <ele>788</ele>
      </trkpt>
      <trkpt lat="44.50755" lon="5.24028">
        <ele>770</ele>
      </trkpt>
      <trkpt lat="44.50757" lon="5.24017">
        <ele>770</ele>
      </trkpt>
      <trkpt lat="44.50762" lon="5.24003">
        <ele>768</ele>
      </trkpt>
      <trkpt lat="44.50782" lon="5.23968">
        <ele>774</ele>
      </trkpt>
      <trkpt lat="44.50788" lon="5.23945">
        <ele>775</ele>
      </trkpt>
      <trkpt lat="44.50789" lon="5.23931">
        <ele>775</ele>
      </trkpt>
      <trkpt lat="44.50781" lon="5.23864">
        <ele>765</ele>
      </trkpt>
      <trkpt lat="44.50781" lon="5.23853">
        <ele>765</ele>
      </trkpt>
      <trkpt lat="44.50784" lon="5.23841">
        <ele>764</ele>
      </trkpt>
      <trkpt lat="44.50799" lon="5.2382">
        <ele>766</ele>
      </trkpt>
      <trkpt lat="44.50819" lon="5.23803">
        <ele>760</ele>
      </trkpt>
      <trkpt lat="44.50849" lon="5.23764">
        <ele>765</ele>
      </trkpt>
      <trkpt lat="44.50864" lon="5.23749">
        <ele>758</ele>
      </trkpt>
      <trkpt lat="44.50946" lon="5.23691">
        <ele>747</ele>
      </trkpt>
      <trkpt lat="44.51008" lon="5.23652">
        <ele>750</ele>
      </trkpt>
      <trkpt lat="44.51058" lon="5.23605">
        <ele>744</ele>
      </trkpt>
      <trkpt lat="44.51079" lon="5.23591">
        <ele>750</ele>
      </trkpt>
      <trkpt lat="44.51099" lon="5.23582">
        <ele>750</ele>
      </trkpt>
      <trkpt lat="44.51112" lon="5.23571">
        <ele>750</ele>
      </trkpt>
      <trkpt lat="44.5112" lon="5.23562">
        <ele>744</ele>
      </trkpt>
      <trkpt lat="44.51134" lon="5.23543">
        <ele>747</ele>
      </trkpt>
      <trkpt lat="44.51142" lon="5.23526">
        <ele>740</ele>
      </trkpt>
      <trkpt lat="44.51148" lon="5.23509">
        <ele>739</ele>
      </trkpt>
      <trkpt lat="44.51155" lon="5.23475">
        <ele>732</ele>
      </trkpt>
      <trkpt lat="44.51158" lon="5.23468">
        <ele>732</ele>
      </trkpt>
      <trkpt lat="44.51164" lon="5.23459">
        <ele>732</ele>
      </trkpt>
      <trkpt lat="44.51174" lon="5.23449">
        <ele>728</ele>
      </trkpt>
      <trkpt lat="44.51211" lon="5.23427">
        <ele>732</ele>
      </trkpt>
      <trkpt lat="44.51222" lon="5.23415">
        <ele>728</ele>
      </trkpt>
      <trkpt lat="44.51266" lon="5.23336">
        <ele>724</ele>
      </trkpt>
      <trkpt lat="44.51273" lon="5.23316">
        <ele>724</ele>
      </trkpt>
      <trkpt lat="44.51298" lon="5.23223">
        <ele>722</ele>
      </trkpt>
      <trkpt lat="44.51301" lon="5.23187">
        <ele>720</ele>
      </trkpt>
      <trkpt lat="44.51301" lon="5.23155">
        <ele>718</ele>
      </trkpt>
      <trkpt lat="44.51298" lon="5.23108">
        <ele>712</ele>
      </trkpt>
      <trkpt lat="44.51298" lon="5.23096">
        <ele>711</ele>
      </trkpt>
      <trkpt lat="44.51302" lon="5.23082">
        <ele>707</ele>
      </trkpt>
      <trkpt lat="44.51308" lon="5.23072">
        <ele>707</ele>
      </trkpt>
      <trkpt lat="44.51318" lon="5.23062">
        <ele>706</ele>
      </trkpt>
      <trkpt lat="44.51329" lon="5.23055">
        <ele>702</ele>
      </trkpt>
      <trkpt lat="44.5137" lon="5.23042">
        <ele>702</ele>
      </trkpt>
      <trkpt lat="44.51412" lon="5.2304">
        <ele>704</ele>
      </trkpt>
      <trkpt lat="44.51422" lon="5.23033">
        <ele>702</ele>
      </trkpt>
      <trkpt lat="44.51424" lon="5.23026">
        <ele>701</ele>
      </trkpt>
      <trkpt lat="44.51423" lon="5.23019">
        <ele>701</ele>
      </trkpt>
      <trkpt lat="44.51419" lon="5.23014">
        <ele>701</ele>
      </trkpt>
      <trkpt lat="44.51318" lon="5.2303">
        <ele>694</ele>
      </trkpt>
      <trkpt lat="44.51298" lon="5.23036">
        <ele>698</ele>
      </trkpt>
      <trkpt lat="44.51285" lon="5.23042">
        <ele>695</ele>
      </trkpt>
      <trkpt lat="44.51269" lon="5.23053">
        <ele>695</ele>
      </trkpt>
      <trkpt lat="44.51214" lon="5.23108">
        <ele>690</ele>
      </trkpt>
      <trkpt lat="44.51201" lon="5.23113">
        <ele>687</ele>
      </trkpt>
      <trkpt lat="44.51197" lon="5.23112">
        <ele>686</ele>
      </trkpt>
      <trkpt lat="44.51193" lon="5.23105">
        <ele>685</ele>
      </trkpt>
      <trkpt lat="44.51195" lon="5.23095">
        <ele>685</ele>
      </trkpt>
      <trkpt lat="44.51223" lon="5.23076">
        <ele>685</ele>
      </trkpt>
      <trkpt lat="44.51232" lon="5.23065">
        <ele>686</ele>
      </trkpt>
      <trkpt lat="44.51258" lon="5.23024">
        <ele>683</ele>
      </trkpt>
      <trkpt lat="44.51275" lon="5.23003">
        <ele>682</ele>
      </trkpt>
      <trkpt lat="44.513" lon="5.22981">
        <ele>684</ele>
      </trkpt>
      <trkpt lat="44.51308" lon="5.22971">
        <ele>680</ele>
      </trkpt>
      <trkpt lat="44.51313" lon="5.2296">
        <ele>679</ele>
      </trkpt>
      <trkpt lat="44.51316" lon="5.22941">
        <ele>677</ele>
      </trkpt>
      <trkpt lat="44.51315" lon="5.22927">
        <ele>676</ele>
      </trkpt>
      <trkpt lat="44.5131" lon="5.22913">
        <ele>675</ele>
      </trkpt>
      <trkpt lat="44.51301" lon="5.22893">
        <ele>675</ele>
      </trkpt>
      <trkpt lat="44.51252" lon="5.22806">
        <ele>673</ele>
      </trkpt>
      <trkpt lat="44.51248" lon="5.2279">
        <ele>673</ele>
      </trkpt>
      <trkpt lat="44.51246" lon="5.22772">
        <ele>675</ele>
      </trkpt>
      <trkpt lat="44.51248" lon="5.22748">
        <ele>675</ele>
      </trkpt>
      <trkpt lat="44.51253" lon="5.22735">
        <ele>675</ele>
      </trkpt>
      <trkpt lat="44.51261" lon="5.22719">
        <ele>672</ele>
      </trkpt>
      <trkpt lat="44.51288" lon="5.22673">
        <ele>682</ele>
      </trkpt>
      <trkpt lat="44.51293" lon="5.22654">
        <ele>688</ele>
      </trkpt>
      <trkpt lat="44.51297" lon="5.22632">
        <ele>684</ele>
      </trkpt>
      <trkpt lat="44.51298" lon="5.22612">
        <ele>680</ele>
      </trkpt>
      <trkpt lat="44.51299" lon="5.22594">
        <ele>680</ele>
      </trkpt>
      <trkpt lat="44.51296" lon="5.22549">
        <ele>672</ele>
      </trkpt>
      <trkpt lat="44.51298" lon="5.22539">
        <ele>672</ele>
      </trkpt>
      <trkpt lat="44.5131" lon="5.22479">
        <ele>666</ele>
      </trkpt>
      <trkpt lat="44.51319" lon="5.22429">
        <ele>659</ele>
      </trkpt>
      <trkpt lat="44.51327" lon="5.22405">
        <ele>662</ele>
      </trkpt>
      <trkpt lat="44.51339" lon="5.22377">
        <ele>657</ele>
      </trkpt>
      <trkpt lat="44.51393" lon="5.22275">
        <ele>651</ele>
      </trkpt>
      <trkpt lat="44.51403" lon="5.22247">
        <ele>649</ele>
      </trkpt>
      <trkpt lat="44.51412" lon="5.22218">
        <ele>655</ele>
      </trkpt>
      <trkpt lat="44.51428" lon="5.22146">
        <ele>649</ele>
      </trkpt>
      <trkpt lat="44.51436" lon="5.22096">
        <ele>650</ele>
      </trkpt>
      <trkpt lat="44.51477" lon="5.21982">
        <ele>643</ele>
      </trkpt>
      <trkpt lat="44.51519" lon="5.21894">
        <ele>634</ele>
      </trkpt>
      <trkpt lat="44.51538" lon="5.2186">
        <ele>631</ele>
      </trkpt>
      <trkpt lat="44.5155" lon="5.21807">
        <ele>629</ele>
      </trkpt>
      <trkpt lat="44.51577" lon="5.21706">
        <ele>622</ele>
      </trkpt>
      <trkpt lat="44.51601" lon="5.21668">
        <ele>620</ele>
      </trkpt>
      <trkpt lat="44.51624" lon="5.21648">
        <ele>620</ele>
      </trkpt>
      <trkpt lat="44.51653" lon="5.2161">
        <ele>618</ele>
      </trkpt>
      <trkpt lat="44.51672" lon="5.21591">
        <ele>621</ele>
      </trkpt>
      <trkpt lat="44.51694" lon="5.2156">
        <ele>615</ele>
      </trkpt>
      <trkpt lat="44.51758" lon="5.21555">
        <ele>614</ele>
      </trkpt>
      <trkpt lat="44.51776" lon="5.21556">
        <ele>612</ele>
      </trkpt>
      <trkpt lat="44.51849" lon="5.21576">
        <ele>611</ele>
      </trkpt>
      <trkpt lat="44.51866" lon="5.21584">
        <ele>611</ele>
      </trkpt>
      <trkpt lat="44.5192" lon="5.21623">
        <ele>610</ele>
      </trkpt>
      <trkpt lat="44.51934" lon="5.21634">
        <ele>611</ele>
      </trkpt>
      <trkpt lat="44.51954" lon="5.21656">
        <ele>608</ele>
      </trkpt>
      <trkpt lat="44.51976" lon="5.21674">
        <ele>607</ele>
      </trkpt>
      <trkpt lat="44.52025" lon="5.2169">
        <ele>602</ele>
      </trkpt>
      <trkpt lat="44.52182" lon="5.21761">
        <ele>599</ele>
      </trkpt>
      <trkpt lat="44.52202" lon="5.21765">
        <ele>599</ele>
      </trkpt>
      <trkpt lat="44.52215" lon="5.21763">
        <ele>598</ele>
      </trkpt>
      <trkpt lat="44.52245" lon="5.21751">
        <ele>596</ele>
      </trkpt>
      <trkpt lat="44.52271" lon="5.21745">
        <ele>595</ele>
      </trkpt>
      <trkpt lat="44.52297" lon="5.21755">
        <ele>594</ele>
      </trkpt>
      <trkpt lat="44.5235" lon="5.21798">
        <ele>595</ele>
      </trkpt>
      <trkpt lat="44.52369" lon="5.2181">
        <ele>595</ele>
      </trkpt>
      <trkpt lat="44.52383" lon="5.21815">
        <ele>596</ele>
      </trkpt>
      <trkpt lat="44.52408" lon="5.21821">
        <ele>594</ele>
      </trkpt>
      <trkpt lat="44.52473" lon="5.21824">
        <ele>592</ele>
      </trkpt>
      <trkpt lat="44.52716" lon="5.21883">
        <ele>590</ele>
      </trkpt>
      <trkpt lat="44.52735" lon="5.21884">
        <ele>590</ele>
      </trkpt>
      <trkpt lat="44.5275" lon="5.21881">
        <ele>588</ele>
      </trkpt>
      <trkpt lat="44.52772" lon="5.21871">
        <ele>591</ele>
      </trkpt>
      <trkpt lat="44.52819" lon="5.21846">
        <ele>592</ele>
      </trkpt>
      <trkpt lat="44.53152" lon="5.2168">
        <ele>590</ele>
      </trkpt>
      <trkpt lat="44.53363" lon="5.21533">
        <ele>589</ele>
      </trkpt>
      <trkpt lat="44.53381" lon="5.21516">
        <ele>589</ele>
      </trkpt>
      <trkpt lat="44.53455" lon="5.21399">
        <ele>587</ele>
      </trkpt>
      <trkpt lat="44.5346" lon="5.21388">
        <ele>592</ele>
      </trkpt>
      <trkpt lat="44.53463" lon="5.2136">
        <ele>594</ele>
      </trkpt>
      <trkpt lat="44.53461" lon="5.2135">
        <ele>594</ele>
      </trkpt>
      <trkpt lat="44.53453" lon="5.21324">
        <ele>591</ele>
      </trkpt>
      <trkpt lat="44.5343" lon="5.21278">
        <ele>589</ele>
      </trkpt>
      <trkpt lat="44.53414" lon="5.21254">
        <ele>590</ele>
      </trkpt>
      <trkpt lat="44.53392" lon="5.21227">
        <ele>587</ele>
      </trkpt>
      <trkpt lat="44.5336" lon="5.21192">
        <ele>585</ele>
      </trkpt>
      <trkpt lat="44.53351" lon="5.21177">
        <ele>585</ele>
      </trkpt>
      <trkpt lat="44.53327" lon="5.21114">
        <ele>586</ele>
      </trkpt>
      <trkpt lat="44.53291" lon="5.2101">
        <ele>580</ele>
      </trkpt>
      <trkpt lat="44.53286" lon="5.20988">
        <ele>580</ele>
      </trkpt>
      <trkpt lat="44.53285" lon="5.2097">
        <ele>580</ele>
      </trkpt>
      <trkpt lat="44.5329" lon="5.20944">
        <ele>580</ele>
      </trkpt>
      <trkpt lat="44.53313" lon="5.20873">
        <ele>582</ele>
      </trkpt>
      <trkpt lat="44.53323" lon="5.20829">
        <ele>583</ele>
      </trkpt>
      <trkpt lat="44.53346" lon="5.20666">
        <ele>576</ele>
      </trkpt>
      <trkpt lat="44.53352" lon="5.20641">
        <ele>578</ele>
      </trkpt>
      <trkpt lat="44.53363" lon="5.20619">
        <ele>578</ele>
      </trkpt>
      <trkpt lat="44.53374" lon="5.20603">
        <ele>575</ele>
      </trkpt>
      <trkpt lat="44.53382" lon="5.20596">
        <ele>577</ele>
      </trkpt>
      <trkpt lat="44.53398" lon="5.20587">
        <ele>574</ele>
      </trkpt>
      <trkpt lat="44.53451" lon="5.20567">
        <ele>582</ele>
      </trkpt>
      <trkpt lat="44.53471" lon="5.20556">
        <ele>582</ele>
      </trkpt>
      <trkpt lat="44.53488" lon="5.20545">
        <ele>594</ele>
      </trkpt>
      <trkpt lat="44.53498" lon="5.20533">
        <ele>589</ele>
      </trkpt>
      <trkpt lat="44.53509" lon="5.20515">
        <ele>589</ele>
      </trkpt>
      <trkpt lat="44.53523" lon="5.2047">
        <ele>588</ele>
      </trkpt>
      <trkpt lat="44.53528" lon="5.20432">
        <ele>583</ele>
      </trkpt>
      <trkpt lat="44.5353" lon="5.20402">
        <ele>581</ele>
      </trkpt>
      <trkpt lat="44.53528" lon="5.20351">
        <ele>578</ele>
      </trkpt>
      <trkpt lat="44.53529" lon="5.20329">
        <ele>575</ele>
      </trkpt>
      <trkpt lat="44.53536" lon="5.20279">
        <ele>571</ele>
      </trkpt>
      <trkpt lat="44.53539" lon="5.20268">
        <ele>571</ele>
      </trkpt>
      <trkpt lat="44.53546" lon="5.20255">
        <ele>574</ele>
      </trkpt>
      <trkpt lat="44.5356" lon="5.20235">
        <ele>574</ele>
      </trkpt>
      <trkpt lat="44.53582" lon="5.20199">
        <ele>572</ele>
      </trkpt>
      <trkpt lat="44.53593" lon="5.20175">
        <ele>571</ele>
      </trkpt>
      <trkpt lat="44.53606" lon="5.20154">
        <ele>573</ele>
      </trkpt>
      <trkpt lat="44.53649" lon="5.2009">
        <ele>575</ele>
      </trkpt>
      <trkpt lat="44.53662" lon="5.20065">
        <ele>580</ele>
      </trkpt>
      <trkpt lat="44.53672" lon="5.20037">
        <ele>577</ele>
      </trkpt>
      <trkpt lat="44.53681" lon="5.20021">
        <ele>573</ele>
      </trkpt>
      <trkpt lat="44.53693" lon="5.20003">
        <ele>576</ele>
      </trkpt>
      <trkpt lat="44.53733" lon="5.19952">
        <ele>579</ele>
      </trkpt>
      <trkpt lat="44.53789" lon="5.1987">
        <ele>573</ele>
      </trkpt>
      <trkpt lat="44.53826" lon="5.19827">
        <ele>574</ele>
      </trkpt>
      <trkpt lat="44.53845" lon="5.19796">
        <ele>569</ele>
      </trkpt>
      <trkpt lat="44.53908" lon="5.19647">
        <ele>565</ele>
      </trkpt>
      <trkpt lat="44.53914" lon="5.19628">
        <ele>563</ele>
      </trkpt>
      <trkpt lat="44.53925" lon="5.19584">
        <ele>560</ele>
      </trkpt>
      <trkpt lat="44.5393" lon="5.19568">
        <ele>559</ele>
      </trkpt>
      <trkpt lat="44.53939" lon="5.19551">
        <ele>560</ele>
      </trkpt>
      <trkpt lat="44.5395" lon="5.19535">
        <ele>560</ele>
      </trkpt>
      <trkpt lat="44.53972" lon="5.19514">
        <ele>566</ele>
      </trkpt>
      <trkpt lat="44.53995" lon="5.1949">
        <ele>579</ele>
      </trkpt>
      <trkpt lat="44.54008" lon="5.1947">
        <ele>577</ele>
      </trkpt>
      <trkpt lat="44.54016" lon="5.19453">
        <ele>589</ele>
      </trkpt>
      <trkpt lat="44.54025" lon="5.19426">
        <ele>583</ele>
      </trkpt>
      <trkpt lat="44.54031" lon="5.19371">
        <ele>568</ele>
      </trkpt>
      <trkpt lat="44.54039" lon="5.19342">
        <ele>565</ele>
      </trkpt>
      <trkpt lat="44.54078" lon="5.19276">
        <ele>578</ele>
      </trkpt>
      <trkpt lat="44.54085" lon="5.19256">
        <ele>577</ele>
      </trkpt>
      <trkpt lat="44.54103" lon="5.19196">
        <ele>560</ele>
      </trkpt>
      <trkpt lat="44.54116" lon="5.19176">
        <ele>559</ele>
      </trkpt>
      <trkpt lat="44.5418" lon="5.1912">
        <ele>561</ele>
      </trkpt>
      <trkpt lat="44.54253" lon="5.19077">
        <ele>565</ele>
      </trkpt>
      <trkpt lat="44.54314" lon="5.19022">
        <ele>564</ele>
      </trkpt>
      <trkpt lat="44.54351" lon="5.18978">
        <ele>572</ele>
      </trkpt>
      <trkpt lat="44.54402" lon="5.18891">
        <ele>554</ele>
      </trkpt>
      <trkpt lat="44.54431" lon="5.18862">
        <ele>551</ele>
      </trkpt>
      <trkpt lat="44.54452" lon="5.18851">
        <ele>553</ele>
      </trkpt>
      <trkpt lat="44.54523" lon="5.18847">
        <ele>562</ele>
      </trkpt>
      <trkpt lat="44.54561" lon="5.18839">
        <ele>567</ele>
      </trkpt>
      <trkpt lat="44.54583" lon="5.18825">
        <ele>563</ele>
      </trkpt>
      <trkpt lat="44.54652" lon="5.18741">
        <ele>542</ele>
      </trkpt>
      <trkpt lat="44.54673" lon="5.18731">
        <ele>546</ele>
      </trkpt>
      <trkpt lat="44.54738" lon="5.18724">
        <ele>535</ele>
      </trkpt>
      <trkpt lat="44.54757" lon="5.18727">
        <ele>535</ele>
      </trkpt>
      <trkpt lat="44.54782" lon="5.18736">
        <ele>542</ele>
      </trkpt>
      <trkpt lat="44.54793" lon="5.18736">
        <ele>546</ele>
      </trkpt>
      <trkpt lat="44.54805" lon="5.18732">
        <ele>547</ele>
      </trkpt>
      <trkpt lat="44.54823" lon="5.18714">
        <ele>546</ele>
      </trkpt>
      <trkpt lat="44.5486" lon="5.1867">
        <ele>538</ele>
      </trkpt>
      <trkpt lat="44.54908" lon="5.18638">
        <ele>539</ele>
      </trkpt>
      <trkpt lat="44.54959" lon="5.186">
        <ele>541</ele>
      </trkpt>
      <trkpt lat="44.54973" lon="5.18586">
        <ele>544</ele>
      </trkpt>
      <trkpt lat="44.54988" lon="5.18566">
        <ele>552</ele>
      </trkpt>
      <trkpt lat="44.55012" lon="5.18506">
        <ele>539</ele>
      </trkpt>
      <trkpt lat="44.55057" lon="5.18445">
        <ele>536</ele>
      </trkpt>
      <trkpt lat="44.55103" lon="5.18358">
        <ele>531</ele>
      </trkpt>
      <trkpt lat="44.55109" lon="5.18334">
        <ele>523</ele>
      </trkpt>
      <trkpt lat="44.55109" lon="5.1832">
        <ele>521</ele>
      </trkpt>
      <trkpt lat="44.55106" lon="5.18286">
        <ele>521</ele>
      </trkpt>
      <trkpt lat="44.55093" lon="5.18253">
        <ele>528</ele>
      </trkpt>
      <trkpt lat="44.55062" lon="5.18203">
        <ele>529</ele>
      </trkpt>
      <trkpt lat="44.55055" lon="5.18184">
        <ele>533</ele>
      </trkpt>
      <trkpt lat="44.55055" lon="5.18164">
        <ele>535</ele>
      </trkpt>
      <trkpt lat="44.55069" lon="5.18108">
        <ele>535</ele>
      </trkpt>
      <trkpt lat="44.55088" lon="5.17974">
        <ele>527</ele>
      </trkpt>
      <trkpt lat="44.55102" lon="5.17924">
        <ele>538</ele>
      </trkpt>
      <trkpt lat="44.55121" lon="5.17886">
        <ele>533</ele>
      </trkpt>
      <trkpt lat="44.5513" lon="5.17859">
        <ele>537</ele>
      </trkpt>
      <trkpt lat="44.55131" lon="5.17815">
        <ele>527</ele>
      </trkpt>
      <trkpt lat="44.55135" lon="5.17796">
        <ele>523</ele>
      </trkpt>
      <trkpt lat="44.55149" lon="5.17751">
        <ele>516</ele>
      </trkpt>
      <trkpt lat="44.55157" lon="5.17705">
        <ele>518</ele>
      </trkpt>
      <trkpt lat="44.55167" lon="5.17679">
        <ele>513</ele>
      </trkpt>
      <trkpt lat="44.55235" lon="5.1753">
        <ele>496</ele>
      </trkpt>
      <trkpt lat="44.5525" lon="5.17501">
        <ele>497</ele>
      </trkpt>
      <trkpt lat="44.55337" lon="5.17364">
        <ele>490</ele>
      </trkpt>
      <trkpt lat="44.5526" lon="5.17305">
        <ele>483</ele>
      </trkpt>
      <trkpt lat="44.55164" lon="5.17225">
        <ele>486</ele>
      </trkpt>
      <trkpt lat="44.55146" lon="5.17198">
        <ele>486</ele>
      </trkpt>
      <trkpt lat="44.55136" lon="5.17166">
        <ele>485</ele>
      </trkpt>
      <trkpt lat="44.55136" lon="5.1711">
        <ele>486</ele>
      </trkpt>
      <trkpt lat="44.55129" lon="5.17075">
        <ele>486</ele>
      </trkpt>
      <trkpt lat="44.55116" lon="5.17062">
        <ele>488</ele>
      </trkpt>
      <trkpt lat="44.551" lon="5.17055">
        <ele>489</ele>
      </trkpt>
      <trkpt lat="44.55014" lon="5.17065">
        <ele>501</ele>
      </trkpt>
      <trkpt lat="44.54957" lon="5.17056">
        <ele>501</ele>
      </trkpt>
      <trkpt lat="44.54933" lon="5.1705">
        <ele>501</ele>
      </trkpt>
      <trkpt lat="44.54644" lon="5.16885">
        <ele>505</ele>
      </trkpt>
      <trkpt lat="44.54421" lon="5.16749">
        <ele>515</ele>
      </trkpt>
      <trkpt lat="44.54146" lon="5.16652">
        <ele>530</ele>
      </trkpt>
      <trkpt lat="44.54133" lon="5.16652">
        <ele>530</ele>
      </trkpt>
      <trkpt lat="44.54016" lon="5.16689">
        <ele>540</ele>
      </trkpt>
      <trkpt lat="44.53972" lon="5.16707">
        <ele>542</ele>
      </trkpt>
      <trkpt lat="44.53952" lon="5.16711">
        <ele>543</ele>
      </trkpt>
      <trkpt lat="44.53933" lon="5.1671">
        <ele>543</ele>
      </trkpt>
      <trkpt lat="44.53912" lon="5.167">
        <ele>544</ele>
      </trkpt>
      <trkpt lat="44.53839" lon="5.1666">
        <ele>547</ele>
      </trkpt>
      <trkpt lat="44.53799" lon="5.16645">
        <ele>549</ele>
      </trkpt>
      <trkpt lat="44.5377" lon="5.16639">
        <ele>548</ele>
      </trkpt>
      <trkpt lat="44.5374" lon="5.16644">
        <ele>553</ele>
      </trkpt>
      <trkpt lat="44.53671" lon="5.16649">
        <ele>553</ele>
      </trkpt>
      <trkpt lat="44.53561" lon="5.16644">
        <ele>562</ele>
      </trkpt>
      <trkpt lat="44.53517" lon="5.16638">
        <ele>562</ele>
      </trkpt>
      <trkpt lat="44.53474" lon="5.16614">
        <ele>564</ele>
      </trkpt>
      <trkpt lat="44.53457" lon="5.16589">
        <ele>567</ele>
      </trkpt>
      <trkpt lat="44.53457" lon="5.16566">
        <ele>565</ele>
      </trkpt>
      <trkpt lat="44.53466" lon="5.16522">
        <ele>560</ele>
      </trkpt>
      <trkpt lat="44.53466" lon="5.1649">
        <ele>560</ele>
      </trkpt>
      <trkpt lat="44.5345" lon="5.16465">
        <ele>565</ele>
      </trkpt>
      <trkpt lat="44.5341" lon="5.16443">
        <ele>570</ele>
      </trkpt>
      <trkpt lat="44.53355" lon="5.16418">
        <ele>576</ele>
      </trkpt>
      <trkpt lat="44.53216" lon="5.16343">
        <ele>586</ele>
      </trkpt>
      <trkpt lat="44.53195" lon="5.16322">
        <ele>584</ele>
      </trkpt>
      <trkpt lat="44.53185" lon="5.16296">
        <ele>582</ele>
      </trkpt>
      <trkpt lat="44.53157" lon="5.16167">
        <ele>593</ele>
      </trkpt>
      <trkpt lat="44.53133" lon="5.16073">
        <ele>587</ele>
      </trkpt>
      <trkpt lat="44.53129" lon="5.1605">
        <ele>587</ele>
      </trkpt>
      <trkpt lat="44.53136" lon="5.16025">
        <ele>587</ele>
      </trkpt>
      <trkpt lat="44.53149" lon="5.16005">
        <ele>588</ele>
      </trkpt>
      <trkpt lat="44.53213" lon="5.15943">
        <ele>589</ele>
      </trkpt>
      <trkpt lat="44.53222" lon="5.15931">
        <ele>589</ele>
      </trkpt>
      <trkpt lat="44.5323" lon="5.15908">
        <ele>588</ele>
      </trkpt>
      <trkpt lat="44.53222" lon="5.15885">
        <ele>587</ele>
      </trkpt>
      <trkpt lat="44.53209" lon="5.15867">
        <ele>591</ele>
      </trkpt>
      <trkpt lat="44.53187" lon="5.15864">
        <ele>591</ele>
      </trkpt>
      <trkpt lat="44.53112" lon="5.15877">
        <ele>604</ele>
      </trkpt>
      <trkpt lat="44.53072" lon="5.15851">
        <ele>602</ele>
      </trkpt>
      <trkpt lat="44.53055" lon="5.15831">
        <ele>601</ele>
      </trkpt>
      <trkpt lat="44.53044" lon="5.15806">
        <ele>600</ele>
      </trkpt>
      <trkpt lat="44.53035" lon="5.1573">
        <ele>605</ele>
      </trkpt>
      <trkpt lat="44.53025" lon="5.1566">
        <ele>607</ele>
      </trkpt>
      <trkpt lat="44.53017" lon="5.15626">
        <ele>608</ele>
      </trkpt>
      <trkpt lat="44.53" lon="5.15601">
        <ele>609</ele>
      </trkpt>
      <trkpt lat="44.52962" lon="5.15574">
        <ele>614</ele>
      </trkpt>
      <trkpt lat="44.52883" lon="5.15525">
        <ele>616</ele>
      </trkpt>
      <trkpt lat="44.52827" lon="5.15486">
        <ele>615</ele>
      </trkpt>
      <trkpt lat="44.52794" lon="5.15448">
        <ele>616</ele>
      </trkpt>
      <trkpt lat="44.52764" lon="5.15398">
        <ele>612</ele>
      </trkpt>
      <trkpt lat="44.5274" lon="5.15374">
        <ele>614</ele>
      </trkpt>
      <trkpt lat="44.5273" lon="5.15369">
        <ele>611</ele>
      </trkpt>
      <trkpt lat="44.52711" lon="5.1537">
        <ele>610</ele>
      </trkpt>
      <trkpt lat="44.52645" lon="5.15391">
        <ele>606</ele>
      </trkpt>
      <trkpt lat="44.52619" lon="5.15395">
        <ele>603</ele>
      </trkpt>
      <trkpt lat="44.52603" lon="5.15387">
        <ele>604</ele>
      </trkpt>
      <trkpt lat="44.52581" lon="5.15365">
        <ele>604</ele>
      </trkpt>
      <trkpt lat="44.52481" lon="5.15245">
        <ele>601</ele>
      </trkpt>
      <trkpt lat="44.52454" lon="5.15231">
        <ele>597</ele>
      </trkpt>
      <trkpt lat="44.52368" lon="5.152">
        <ele>596</ele>
      </trkpt>
      <trkpt lat="44.52349" lon="5.15193">
        <ele>597</ele>
      </trkpt>
      <trkpt lat="44.52273" lon="5.15178">
        <ele>594</ele>
      </trkpt>
      <trkpt lat="44.52105" lon="5.15151">
        <ele>591</ele>
      </trkpt>
      <trkpt lat="44.51928" lon="5.15115">
        <ele>580</ele>
      </trkpt>
      <trkpt lat="44.51914" lon="5.15117">
        <ele>579</ele>
      </trkpt>
      <trkpt lat="44.51893" lon="5.15125">
        <ele>578</ele>
      </trkpt>
      <trkpt lat="44.51805" lon="5.15212">
        <ele>575</ele>
      </trkpt>
      <trkpt lat="44.51673" lon="5.15338">
        <ele>566</ele>
      </trkpt>
      <trkpt lat="44.51653" lon="5.15351">
        <ele>563</ele>
      </trkpt>
      <trkpt lat="44.51637" lon="5.15356">
        <ele>562</ele>
      </trkpt>
      <trkpt lat="44.51622" lon="5.15354">
        <ele>559</ele>
      </trkpt>
      <trkpt lat="44.51604" lon="5.15343">
        <ele>559</ele>
      </trkpt>
      <trkpt lat="44.51589" lon="5.15326">
        <ele>559</ele>
      </trkpt>
      <trkpt lat="44.51563" lon="5.15287">
        <ele>560</ele>
      </trkpt>
      <trkpt lat="44.51406" lon="5.14999">
        <ele>556</ele>
      </trkpt>
      <trkpt lat="44.51406" lon="5.14988">
        <ele>556</ele>
      </trkpt>
      <trkpt lat="44.51383" lon="5.14945">
        <ele>556</ele>
      </trkpt>
      <trkpt lat="44.51358" lon="5.14899">
        <ele>555</ele>
      </trkpt>
      <trkpt lat="44.51328" lon="5.14858">
        <ele>556</ele>
      </trkpt>
      <trkpt lat="44.51289" lon="5.14816">
        <ele>556</ele>
      </trkpt>
      <trkpt lat="44.51216" lon="5.14645">
        <ele>554</ele>
      </trkpt>
      <trkpt lat="44.51207" lon="5.14597">
        <ele>549</ele>
      </trkpt>
      <trkpt lat="44.51198" lon="5.14529">
        <ele>551</ele>
      </trkpt>
      <trkpt lat="44.51187" lon="5.14487">
        <ele>552</ele>
      </trkpt>
      <trkpt lat="44.5117" lon="5.14435">
        <ele>546</ele>
      </trkpt>
      <trkpt lat="44.51162" lon="5.14397">
        <ele>550</ele>
      </trkpt>
      <trkpt lat="44.51159" lon="5.14347">
        <ele>558</ele>
      </trkpt>
      <trkpt lat="44.5115" lon="5.14308">
        <ele>557</ele>
      </trkpt>
      <trkpt lat="44.51117" lon="5.14217">
        <ele>551</ele>
      </trkpt>
      <trkpt lat="44.51108" lon="5.14196">
        <ele>556</ele>
      </trkpt>
      <trkpt lat="44.51098" lon="5.1418">
        <ele>556</ele>
      </trkpt>
      <trkpt lat="44.5108" lon="5.14161">
        <ele>551</ele>
      </trkpt>
      <trkpt lat="44.50862" lon="5.13999">
        <ele>540</ele>
      </trkpt>
      <trkpt lat="44.5085" lon="5.13986">
        <ele>540</ele>
      </trkpt>
      <trkpt lat="44.50793" lon="5.13891">
        <ele>549</ele>
      </trkpt>
      <trkpt lat="44.50772" lon="5.13853">
        <ele>541</ele>
      </trkpt>
      <trkpt lat="44.50743" lon="5.13758">
        <ele>543</ele>
      </trkpt>
      <trkpt lat="44.50731" lon="5.13728">
        <ele>540</ele>
      </trkpt>
      <trkpt lat="44.50714" lon="5.13701">
        <ele>543</ele>
      </trkpt>
      <trkpt lat="44.50686" lon="5.1367">
        <ele>544</ele>
      </trkpt>
      <trkpt lat="44.50566" lon="5.13584">
        <ele>529</ele>
      </trkpt>
      <trkpt lat="44.50509" lon="5.1356">
        <ele>522</ele>
      </trkpt>
      <trkpt lat="44.50484" lon="5.13546">
        <ele>522</ele>
      </trkpt>
      <trkpt lat="44.50464" lon="5.13529">
        <ele>522</ele>
      </trkpt>
      <trkpt lat="44.50356" lon="5.13427">
        <ele>514</ele>
      </trkpt>
      <trkpt lat="44.50242" lon="5.13322">
        <ele>515</ele>
      </trkpt>
      <trkpt lat="44.5011" lon="5.13236">
        <ele>515</ele>
      </trkpt>
      <trkpt lat="44.50042" lon="5.13195">
        <ele>512</ele>
      </trkpt>
      <trkpt lat="44.50011" lon="5.13165">
        <ele>511</ele>
      </trkpt>
      <trkpt lat="44.49988" lon="5.13136">
        <ele>507</ele>
      </trkpt>
      <trkpt lat="44.49893" lon="5.13051">
        <ele>506</ele>
      </trkpt>
      <trkpt lat="44.49866" lon="5.13025">
        <ele>506</ele>
      </trkpt>
      <trkpt lat="44.49797" lon="5.12926">
        <ele>505</ele>
      </trkpt>
      <trkpt lat="44.49765" lon="5.12862">
        <ele>499</ele>
      </trkpt>
      <trkpt lat="44.49695" lon="5.127">
        <ele>501</ele>
      </trkpt>
      <trkpt lat="44.49595" lon="5.12495">
        <ele>500</ele>
      </trkpt>
      <trkpt lat="44.49573" lon="5.12423">
        <ele>497</ele>
      </trkpt>
      <trkpt lat="44.49546" lon="5.12253">
        <ele>494</ele>
      </trkpt>
      <trkpt lat="44.49544" lon="5.12207">
        <ele>493</ele>
      </trkpt>
      <trkpt lat="44.49546" lon="5.12118">
        <ele>489</ele>
      </trkpt>
      <trkpt lat="44.49554" lon="5.12051">
        <ele>490</ele>
      </trkpt>
      <trkpt lat="44.49567" lon="5.11985">
        <ele>493</ele>
      </trkpt>
      <trkpt lat="44.49576" lon="5.11909">
        <ele>488</ele>
      </trkpt>
      <trkpt lat="44.496" lon="5.11808">
        <ele>487</ele>
      </trkpt>
      <trkpt lat="44.4965" lon="5.11644">
        <ele>484</ele>
      </trkpt>
      <trkpt lat="44.49652" lon="5.11634">
        <ele>485</ele>
      </trkpt>
      <trkpt lat="44.49651" lon="5.11626">
        <ele>485</ele>
      </trkpt>
      <trkpt lat="44.49642" lon="5.11595">
        <ele>486</ele>
      </trkpt>
      <trkpt lat="44.49634" lon="5.11577">
        <ele>485</ele>
      </trkpt>
      <trkpt lat="44.4965" lon="5.11506">
        <ele>484</ele>
      </trkpt>
      <trkpt lat="44.49659" lon="5.11505">
        <ele>483</ele>
      </trkpt>
      <trkpt lat="44.4968" lon="5.11498">
        <ele>483</ele>
      </trkpt>
      <trkpt lat="44.49712" lon="5.1148">
        <ele>481</ele>
      </trkpt>
      <trkpt lat="44.49753" lon="5.11464">
        <ele>479</ele>
      </trkpt>
      <trkpt lat="44.49945" lon="5.11421">
        <ele>487</ele>
      </trkpt>
      <trkpt lat="44.49948" lon="5.11419">
        <ele>487</ele>
      </trkpt>
      <trkpt lat="44.49959" lon="5.114">
        <ele>489</ele>
      </trkpt>
      <trkpt lat="44.50013" lon="5.11286">
        <ele>484</ele>
      </trkpt>
      <trkpt lat="44.5003" lon="5.11258">
        <ele>481</ele>
      </trkpt>
      <trkpt lat="44.50104" lon="5.11158">
        <ele>476</ele>
      </trkpt>
      <trkpt lat="44.50136" lon="5.11123">
        <ele>479</ele>
      </trkpt>
      <trkpt lat="44.50219" lon="5.11014">
        <ele>482</ele>
      </trkpt>
      <trkpt lat="44.50318" lon="5.10893">
        <ele>481</ele>
      </trkpt>
      <trkpt lat="44.50336" lon="5.10855">
        <ele>482</ele>
      </trkpt>
      <trkpt lat="44.50433" lon="5.10409">
        <ele>477</ele>
      </trkpt>
      <trkpt lat="44.50456" lon="5.10268">
        <ele>480</ele>
      </trkpt>
      <trkpt lat="44.50483" lon="5.1008">
        <ele>487</ele>
      </trkpt>
      <trkpt lat="44.50495" lon="5.09989">
        <ele>497</ele>
      </trkpt>
      <trkpt lat="44.50494" lon="5.09953">
        <ele>497</ele>
      </trkpt>
      <trkpt lat="44.50488" lon="5.09839">
        <ele>492</ele>
      </trkpt>
      <trkpt lat="44.50492" lon="5.09818">
        <ele>490</ele>
      </trkpt>
      <trkpt lat="44.50498" lon="5.09806">
        <ele>486</ele>
      </trkpt>
      <trkpt lat="44.50513" lon="5.098">
        <ele>487</ele>
      </trkpt>
      <trkpt lat="44.50577" lon="5.0979">
        <ele>493</ele>
      </trkpt>
      <trkpt lat="44.50703" lon="5.09785">
        <ele>498</ele>
      </trkpt>
      <trkpt lat="44.50713" lon="5.09784">
        <ele>499</ele>
      </trkpt>
      <trkpt lat="44.50719" lon="5.09777">
        <ele>495</ele>
      </trkpt>
      <trkpt lat="44.50733" lon="5.09782">
        <ele>499</ele>
      </trkpt>
      <trkpt lat="44.50745" lon="5.09783">
        <ele>500</ele>
      </trkpt>
      <trkpt lat="44.50803" lon="5.09783">
        <ele>502</ele>
      </trkpt>
      <trkpt lat="44.50844" lon="5.09778">
        <ele>503</ele>
      </trkpt>
      <trkpt lat="44.50884" lon="5.09762">
        <ele>502</ele>
      </trkpt>
      <trkpt lat="44.50898" lon="5.09751">
        <ele>501</ele>
      </trkpt>
      <trkpt lat="44.50909" lon="5.09738">
        <ele>499</ele>
      </trkpt>
      <trkpt lat="44.50917" lon="5.09725">
        <ele>499</ele>
      </trkpt>
      <trkpt lat="44.50974" lon="5.09587">
        <ele>498</ele>
      </trkpt>
      <trkpt lat="44.50984" lon="5.09546">
        <ele>495</ele>
      </trkpt>
      <trkpt lat="44.50997" lon="5.09426">
        <ele>486</ele>
      </trkpt>
      <trkpt lat="44.51023" lon="5.09333">
        <ele>478</ele>
      </trkpt>
      <trkpt lat="44.51036" lon="5.09256">
        <ele>477</ele>
      </trkpt>
      <trkpt lat="44.51042" lon="5.09248">
        <ele>473</ele>
      </trkpt>
      <trkpt lat="44.51049" lon="5.09247">
        <ele>473</ele>
      </trkpt>
      <trkpt lat="44.51056" lon="5.09252">
        <ele>472</ele>
      </trkpt>
      <trkpt lat="44.51061" lon="5.0926">
        <ele>472</ele>
      </trkpt>
      <trkpt lat="44.51069" lon="5.09308">
        <ele>471</ele>
      </trkpt>
      <trkpt lat="44.51095" lon="5.0943">
        <ele>470</ele>
      </trkpt>
      <trkpt lat="44.5111" lon="5.09481">
        <ele>470</ele>
      </trkpt>
      <trkpt lat="44.51135" lon="5.09527">
        <ele>468</ele>
      </trkpt>
      <trkpt lat="44.51198" lon="5.09604">
        <ele>465</ele>
      </trkpt>
      <trkpt lat="44.51207" lon="5.09613">
        <ele>465</ele>
      </trkpt>
      <trkpt lat="44.51215" lon="5.09616">
        <ele>464</ele>
      </trkpt>
      <trkpt lat="44.51222" lon="5.09612">
        <ele>462</ele>
      </trkpt>
      <trkpt lat="44.51228" lon="5.09603">
        <ele>461</ele>
      </trkpt>
      <trkpt lat="44.5123" lon="5.09592">
        <ele>460</ele>
      </trkpt>
      <trkpt lat="44.51227" lon="5.09548">
        <ele>454</ele>
      </trkpt>
      <trkpt lat="44.51228" lon="5.09503">
        <ele>452</ele>
      </trkpt>
      <trkpt lat="44.51233" lon="5.09475">
        <ele>451</ele>
      </trkpt>
      <trkpt lat="44.51296" lon="5.09304">
        <ele>445</ele>
      </trkpt>
      <trkpt lat="44.513" lon="5.09282">
        <ele>445</ele>
      </trkpt>
      <trkpt lat="44.51324" lon="5.09094">
        <ele>437</ele>
      </trkpt>
      <trkpt lat="44.5133" lon="5.09063">
        <ele>437</ele>
      </trkpt>
      <trkpt lat="44.51341" lon="5.09043">
        <ele>437</ele>
      </trkpt>
      <trkpt lat="44.51353" lon="5.09031">
        <ele>438</ele>
      </trkpt>
      <trkpt lat="44.51395" lon="5.09009">
        <ele>443</ele>
      </trkpt>
      <trkpt lat="44.51411" lon="5.08997">
        <ele>447</ele>
      </trkpt>
      <trkpt lat="44.51422" lon="5.08983">
        <ele>447</ele>
      </trkpt>
      <trkpt lat="44.51468" lon="5.08874">
        <ele>442</ele>
      </trkpt>
      <trkpt lat="44.51491" lon="5.08839">
        <ele>437</ele>
      </trkpt>
      <trkpt lat="44.51553" lon="5.08761">
        <ele>431</ele>
      </trkpt>
      <trkpt lat="44.51565" lon="5.0874">
        <ele>430</ele>
      </trkpt>
      <trkpt lat="44.51572" lon="5.08716">
        <ele>430</ele>
      </trkpt>
      <trkpt lat="44.51575" lon="5.08692">
        <ele>429</ele>
      </trkpt>
      <trkpt lat="44.51583" lon="5.08512">
        <ele>429</ele>
      </trkpt>
      <trkpt lat="44.51586" lon="5.08486">
        <ele>428</ele>
      </trkpt>
      <trkpt lat="44.51592" lon="5.08461">
        <ele>426</ele>
      </trkpt>
      <trkpt lat="44.51606" lon="5.08417">
        <ele>424</ele>
      </trkpt>
      <trkpt lat="44.51669" lon="5.08237">
        <ele>408</ele>
      </trkpt>
      <trkpt lat="44.51694" lon="5.08171">
        <ele>412</ele>
      </trkpt>
      <trkpt lat="44.51742" lon="5.08062">
        <ele>413</ele>
      </trkpt>
      <trkpt lat="44.51753" lon="5.08044">
        <ele>413</ele>
      </trkpt>
      <trkpt lat="44.5178" lon="5.0801">
        <ele>415</ele>
      </trkpt>
      <trkpt lat="44.51818" lon="5.07966">
        <ele>415</ele>
      </trkpt>
      <trkpt lat="44.51834" lon="5.07937">
        <ele>413</ele>
      </trkpt>
      <trkpt lat="44.51839" lon="5.07925">
        <ele>413</ele>
      </trkpt>
      <trkpt lat="44.51858" lon="5.07856">
        <ele>416</ele>
      </trkpt>
      <trkpt lat="44.5188" lon="5.07807">
        <ele>420</ele>
      </trkpt>
      <trkpt lat="44.51901" lon="5.0775">
        <ele>419</ele>
      </trkpt>
      <trkpt lat="44.51937" lon="5.07556">
        <ele>425</ele>
      </trkpt>
      <trkpt lat="44.52005" lon="5.07275">
        <ele>411</ele>
      </trkpt>
      <trkpt lat="44.52022" lon="5.07188">
        <ele>402</ele>
      </trkpt>
      <trkpt lat="44.52031" lon="5.07163">
        <ele>400</ele>
      </trkpt>
      <trkpt lat="44.52066" lon="5.07089">
        <ele>400</ele>
      </trkpt>
      <trkpt lat="44.52109" lon="5.06933">
        <ele>397</ele>
      </trkpt>
      <trkpt lat="44.52124" lon="5.06895">
        <ele>395</ele>
      </trkpt>
      <trkpt lat="44.52159" lon="5.06818">
        <ele>394</ele>
      </trkpt>
      <trkpt lat="44.5217" lon="5.06778">
        <ele>393</ele>
      </trkpt>
      <trkpt lat="44.5219" lon="5.0667">
        <ele>393</ele>
      </trkpt>
      <trkpt lat="44.52196" lon="5.06659">
        <ele>392</ele>
      </trkpt>
      <trkpt lat="44.5222" lon="5.06626">
        <ele>393</ele>
      </trkpt>
      <trkpt lat="44.5228" lon="5.06578">
        <ele>392</ele>
      </trkpt>
      <trkpt lat="44.5231" lon="5.06559">
        <ele>393</ele>
      </trkpt>
      <trkpt lat="44.52325" lon="5.06551">
        <ele>392</ele>
      </trkpt>
      <trkpt lat="44.52311" lon="5.06537">
        <ele>390</ele>
      </trkpt>
      <trkpt lat="44.52297" lon="5.06524">
        <ele>388</ele>
      </trkpt>
      <trkpt lat="44.52288" lon="5.06517">
        <ele>388</ele>
      </trkpt>
      <trkpt lat="44.52284" lon="5.06511">
        <ele>388</ele>
      </trkpt>
      <trkpt lat="44.5228" lon="5.06496">
        <ele>386</ele>
      </trkpt>
      <trkpt lat="44.52274" lon="5.06498">
        <ele>386</ele>
      </trkpt>
      <trkpt lat="44.52269" lon="5.06496">
        <ele>386</ele>
      </trkpt>
      <trkpt lat="44.52226" lon="5.0643">
        <ele>383</ele>
      </trkpt>
      <trkpt lat="44.52189" lon="5.0637">
        <ele>383</ele>
      </trkpt>
      <trkpt lat="44.52186" lon="5.06362">
        <ele>382</ele>
      </trkpt>
      <trkpt lat="44.5218" lon="5.06356">
        <ele>381</ele>
      </trkpt>
      <trkpt lat="44.52165" lon="5.06353">
        <ele>381</ele>
      </trkpt>
      <trkpt lat="44.52024" lon="5.06305">
        <ele>369</ele>
      </trkpt>
      <trkpt lat="44.52012" lon="5.06277">
        <ele>370</ele>
      </trkpt>
      <trkpt lat="44.51993" lon="5.06195">
        <ele>369</ele>
      </trkpt>
      <trkpt lat="44.51977" lon="5.0608">
        <ele>369</ele>
      </trkpt>
      <trkpt lat="44.51954" lon="5.06019">
        <ele>373</ele>
      </trkpt>
      <trkpt lat="44.51903" lon="5.05936">
        <ele>376</ele>
      </trkpt>
      <trkpt lat="44.51883" lon="5.05907">
        <ele>376</ele>
      </trkpt>
      <trkpt lat="44.51874" lon="5.05876">
        <ele>378</ele>
      </trkpt>
      <trkpt lat="44.51862" lon="5.05845">
        <ele>378</ele>
      </trkpt>
      <trkpt lat="44.51849" lon="5.05827">
        <ele>377</ele>
      </trkpt>
      <trkpt lat="44.51834" lon="5.05823">
        <ele>380</ele>
      </trkpt>
      <trkpt lat="44.51794" lon="5.05842">
        <ele>383</ele>
      </trkpt>
      <trkpt lat="44.51781" lon="5.05837">
        <ele>385</ele>
      </trkpt>
      <trkpt lat="44.51771" lon="5.05819">
        <ele>384</ele>
      </trkpt>
      <trkpt lat="44.51768" lon="5.05793">
        <ele>384</ele>
      </trkpt>
      <trkpt lat="44.51785" lon="5.05755">
        <ele>384</ele>
      </trkpt>
      <trkpt lat="44.51813" lon="5.05704">
        <ele>383</ele>
      </trkpt>
      <trkpt lat="44.5183" lon="5.05664">
        <ele>377</ele>
      </trkpt>
      <trkpt lat="44.51837" lon="5.0563">
        <ele>374</ele>
      </trkpt>
      <trkpt lat="44.51824" lon="5.0556">
        <ele>371</ele>
      </trkpt>
      <trkpt lat="44.51809" lon="5.05405">
        <ele>372</ele>
      </trkpt>
      <trkpt lat="44.51807" lon="5.05381">
        <ele>372</ele>
      </trkpt>
      <trkpt lat="44.51792" lon="5.05291">
        <ele>371</ele>
      </trkpt>
      <trkpt lat="44.51773" lon="5.05246">
        <ele>369</ele>
      </trkpt>
      <trkpt lat="44.51739" lon="5.05124">
        <ele>376</ele>
      </trkpt>
      <trkpt lat="44.51733" lon="5.0505">
        <ele>378</ele>
      </trkpt>
      <trkpt lat="44.51735" lon="5.04985">
        <ele>375</ele>
      </trkpt>
      <trkpt lat="44.51737" lon="5.04935">
        <ele>369</ele>
      </trkpt>
      <trkpt lat="44.51741" lon="5.04908">
        <ele>368</ele>
      </trkpt>
      <trkpt lat="44.51741" lon="5.04876">
        <ele>368</ele>
      </trkpt>
      <trkpt lat="44.51738" lon="5.04852">
        <ele>368</ele>
      </trkpt>
      <trkpt lat="44.51733" lon="5.04761">
        <ele>368</ele>
      </trkpt>
      <trkpt lat="44.51744" lon="5.04716">
        <ele>368</ele>
      </trkpt>
      <trkpt lat="44.51756" lon="5.04656">
        <ele>370</ele>
      </trkpt>
      <trkpt lat="44.51749" lon="5.04602">
        <ele>369</ele>
      </trkpt>
      <trkpt lat="44.51724" lon="5.04527">
        <ele>367</ele>
      </trkpt>
      <trkpt lat="44.5169" lon="5.04402">
        <ele>369</ele>
      </trkpt>
      <trkpt lat="44.51671" lon="5.04298">
        <ele>375</ele>
      </trkpt>
      <trkpt lat="44.51625" lon="5.0424">
        <ele>376</ele>
      </trkpt>
      <trkpt lat="44.51614" lon="5.04215">
        <ele>378</ele>
      </trkpt>
      <trkpt lat="44.51609" lon="5.04185">
        <ele>379</ele>
      </trkpt>
      <trkpt lat="44.51609" lon="5.0415">
        <ele>380</ele>
      </trkpt>
      <trkpt lat="44.51652" lon="5.04048">
        <ele>381</ele>
      </trkpt>
      <trkpt lat="44.51661" lon="5.0397">
        <ele>374</ele>
      </trkpt>
      <trkpt lat="44.51678" lon="5.03921">
        <ele>371</ele>
      </trkpt>
      <trkpt lat="44.51681" lon="5.03875">
        <ele>372</ele>
      </trkpt>
      <trkpt lat="44.5168" lon="5.03845">
        <ele>372</ele>
      </trkpt>
      <trkpt lat="44.51666" lon="5.03696">
        <ele>372</ele>
      </trkpt>
      <trkpt lat="44.51661" lon="5.036">
        <ele>380</ele>
      </trkpt>
      <trkpt lat="44.51683" lon="5.03548">
        <ele>381</ele>
      </trkpt>
      <trkpt lat="44.51715" lon="5.03487">
        <ele>379</ele>
      </trkpt>
      <trkpt lat="44.51727" lon="5.034">
        <ele>377</ele>
      </trkpt>
      <trkpt lat="44.51757" lon="5.033">
        <ele>376</ele>
      </trkpt>
      <trkpt lat="44.51804" lon="5.03211">
        <ele>373</ele>
      </trkpt>
      <trkpt lat="44.51808" lon="5.03198">
        <ele>373</ele>
      </trkpt>
      <trkpt lat="44.51808" lon="5.03179">
        <ele>374</ele>
      </trkpt>
      <trkpt lat="44.51802" lon="5.03156">
        <ele>374</ele>
      </trkpt>
      <trkpt lat="44.51796" lon="5.0313">
        <ele>374</ele>
      </trkpt>
      <trkpt lat="44.51798" lon="5.03114">
        <ele>373</ele>
      </trkpt>
      <trkpt lat="44.51807" lon="5.03097">
        <ele>372</ele>
      </trkpt>
      <trkpt lat="44.51816" lon="5.03086">
        <ele>372</ele>
      </trkpt>
      <trkpt lat="44.51824" lon="5.03067">
        <ele>369</ele>
      </trkpt>
      <trkpt lat="44.51822" lon="5.03029">
        <ele>371</ele>
      </trkpt>
      <trkpt lat="44.51823" lon="5.03018">
        <ele>372</ele>
      </trkpt>
      <trkpt lat="44.5183" lon="5.03009">
        <ele>372</ele>
      </trkpt>
      <trkpt lat="44.51855" lon="5.02997">
        <ele>369</ele>
      </trkpt>
      <trkpt lat="44.51865" lon="5.02987">
        <ele>369</ele>
      </trkpt>
      <trkpt lat="44.51941" lon="5.02845">
        <ele>363</ele>
      </trkpt>
      <trkpt lat="44.51969" lon="5.02771">
        <ele>360</ele>
      </trkpt>
      <trkpt lat="44.51986" lon="5.02746">
        <ele>360</ele>
      </trkpt>
      <trkpt lat="44.52022" lon="5.02679">
        <ele>355</ele>
      </trkpt>
      <trkpt lat="44.52024" lon="5.02662">
        <ele>355</ele>
      </trkpt>
      <trkpt lat="44.52022" lon="5.02646">
        <ele>355</ele>
      </trkpt>
      <trkpt lat="44.52006" lon="5.02628">
        <ele>357</ele>
      </trkpt>
      <trkpt lat="44.51966" lon="5.02589">
        <ele>359</ele>
      </trkpt>
      <trkpt lat="44.51961" lon="5.02569">
        <ele>358</ele>
      </trkpt>
      <trkpt lat="44.51967" lon="5.0255">
        <ele>358</ele>
      </trkpt>
      <trkpt lat="44.51978" lon="5.02544">
        <ele>357</ele>
      </trkpt>
      <trkpt lat="44.52013" lon="5.02542">
        <ele>354</ele>
      </trkpt>
      <trkpt lat="44.52063" lon="5.02521">
        <ele>351</ele>
      </trkpt>
      <trkpt lat="44.52078" lon="5.02501">
        <ele>350</ele>
      </trkpt>
      <trkpt lat="44.52092" lon="5.02473">
        <ele>353</ele>
      </trkpt>
      <trkpt lat="44.5213" lon="5.02359">
        <ele>350</ele>
      </trkpt>
      <trkpt lat="44.52167" lon="5.02327">
        <ele>346</ele>
      </trkpt>
      <trkpt lat="44.52336" lon="5.02259">
        <ele>341</ele>
      </trkpt>
      <trkpt lat="44.52366" lon="5.02234">
        <ele>337</ele>
      </trkpt>
      <trkpt lat="44.5243" lon="5.02033">
        <ele>330</ele>
      </trkpt>
      <trkpt lat="44.52452" lon="5.02003">
        <ele>327</ele>
      </trkpt>
      <trkpt lat="44.52631" lon="5.02027">
        <ele>317</ele>
      </trkpt>
      <trkpt lat="44.5264" lon="5.02026">
        <ele>317</ele>
      </trkpt>
      <trkpt lat="44.52666" lon="5.01971">
        <ele>316</ele>
      </trkpt>
      <trkpt lat="44.52671" lon="5.01951">
        <ele>316</ele>
      </trkpt>
      <trkpt lat="44.52681" lon="5.01799">
        <ele>314</ele>
      </trkpt>
      <trkpt lat="44.52709" lon="5.01715">
        <ele>313</ele>
      </trkpt>
      <trkpt lat="44.52707" lon="5.01699">
        <ele>313</ele>
      </trkpt>
      <trkpt lat="44.52691" lon="5.01678">
        <ele>312</ele>
      </trkpt>
      <trkpt lat="44.52689" lon="5.01662">
        <ele>312</ele>
      </trkpt>
      <trkpt lat="44.52701" lon="5.01566">
        <ele>311</ele>
      </trkpt>
      <trkpt lat="44.52709" lon="5.01555">
        <ele>309</ele>
      </trkpt>
      <trkpt lat="44.52768" lon="5.01533">
        <ele>309</ele>
      </trkpt>
      <trkpt lat="44.52829" lon="5.01507">
        <ele>309</ele>
      </trkpt>
      <trkpt lat="44.52838" lon="5.01493">
        <ele>309</ele>
      </trkpt>
      <trkpt lat="44.5284" lon="5.01476">
        <ele>308</ele>
      </trkpt>
      <trkpt lat="44.52812" lon="5.01369">
        <ele>308</ele>
      </trkpt>
      <trkpt lat="44.5281" lon="5.01349">
        <ele>308</ele>
      </trkpt>
      <trkpt lat="44.52817" lon="5.01291">
        <ele>306</ele>
      </trkpt>
      <trkpt lat="44.52827" lon="5.01273">
        <ele>305</ele>
      </trkpt>
      <trkpt lat="44.52902" lon="5.01194">
        <ele>304</ele>
      </trkpt>
      <trkpt lat="44.52915" lon="5.01178">
        <ele>304</ele>
      </trkpt>
      <trkpt lat="44.52926" lon="5.01147">
        <ele>303</ele>
      </trkpt>
      <trkpt lat="44.5293" lon="5.01123">
        <ele>302</ele>
      </trkpt>
      <trkpt lat="44.52929" lon="5.01117">
        <ele>301</ele>
      </trkpt>
      <trkpt lat="44.52894" lon="5.01066">
        <ele>302</ele>
      </trkpt>
      <trkpt lat="44.52883" lon="5.01031">
        <ele>303</ele>
      </trkpt>
      <trkpt lat="44.5287" lon="5.00963">
        <ele>303</ele>
      </trkpt>
      <trkpt lat="44.52871" lon="5.00882">
        <ele>303</ele>
      </trkpt>
      <trkpt lat="44.52874" lon="5.00837">
        <ele>303</ele>
      </trkpt>
      <trkpt lat="44.5289" lon="5.00782">
        <ele>302</ele>
      </trkpt>
      <trkpt lat="44.52903" lon="5.00713">
        <ele>300</ele>
      </trkpt>
      <trkpt lat="44.52937" lon="5.00596">
        <ele>299</ele>
      </trkpt>
      <trkpt lat="44.52953" lon="5.00528">
        <ele>297</ele>
      </trkpt>
      <trkpt lat="44.52979" lon="5.00546">
        <ele>298</ele>
      </trkpt>
      <trkpt lat="44.53034" lon="5.00616">
        <ele>300</ele>
      </trkpt>
      <trkpt lat="44.53044" lon="5.00548">
        <ele>300</ele>
      </trkpt>
      <trkpt lat="44.53047" lon="5.0054">
        <ele>300</ele>
      </trkpt>
      <trkpt lat="44.53052" lon="5.00524">
        <ele>301</ele>
      </trkpt>
      <trkpt lat="44.53064" lon="5.00494">
        <ele>301</ele>
      </trkpt>
      <trkpt lat="44.53084" lon="5.00468">
        <ele>301</ele>
      </trkpt>
      <trkpt lat="44.53129" lon="5.00434">
        <ele>300</ele>
      </trkpt>
      <trkpt lat="44.53154" lon="5.00408">
        <ele>301</ele>
      </trkpt>
      <trkpt lat="44.53165" lon="5.00415">
        <ele>301</ele>
      </trkpt>
      <trkpt lat="44.53177" lon="5.00343">
        <ele>301</ele>
      </trkpt>
      <trkpt lat="44.53191" lon="5.00272">
        <ele>301</ele>
      </trkpt>
      <trkpt lat="44.53235" lon="5.00081">
        <ele>297</ele>
      </trkpt>
      <trkpt lat="44.53244" lon="5.00027">
        <ele>299</ele>
      </trkpt>
      <trkpt lat="44.53248" lon="4.99967">
        <ele>296</ele>
      </trkpt>
      <trkpt lat="44.53247" lon="4.9989">
        <ele>294</ele>
      </trkpt>
      <trkpt lat="44.5324" lon="4.99833">
        <ele>295</ele>
      </trkpt>
      <trkpt lat="44.53231" lon="4.99785">
        <ele>292</ele>
      </trkpt>
      <trkpt lat="44.53064" lon="4.99161">
        <ele>287</ele>
      </trkpt>
      <trkpt lat="44.53052" lon="4.99125">
        <ele>290</ele>
      </trkpt>
      <trkpt lat="44.53024" lon="4.99057">
        <ele>289</ele>
      </trkpt>
      <trkpt lat="44.53005" lon="4.99021">
        <ele>287</ele>
      </trkpt>
      <trkpt lat="44.52971" lon="4.98966">
        <ele>286</ele>
      </trkpt>
      <trkpt lat="44.52726" lon="4.9865">
        <ele>287</ele>
      </trkpt>
      <trkpt lat="44.52703" lon="4.9861">
        <ele>287</ele>
      </trkpt>
      <trkpt lat="44.52683" lon="4.98563">
        <ele>289</ele>
      </trkpt>
      <trkpt lat="44.52598" lon="4.98287">
        <ele>279</ele>
      </trkpt>
      <trkpt lat="44.52579" lon="4.98219">
        <ele>279</ele>
      </trkpt>
      <trkpt lat="44.52569" lon="4.98165">
        <ele>277</ele>
      </trkpt>
      <trkpt lat="44.52557" lon="4.98064">
        <ele>275</ele>
      </trkpt>
      <trkpt lat="44.52555" lon="4.97995">
        <ele>273</ele>
      </trkpt>
      <trkpt lat="44.52555" lon="4.97824">
        <ele>266</ele>
      </trkpt>
      <trkpt lat="44.52558" lon="4.97767">
        <ele>266</ele>
      </trkpt>
      <trkpt lat="44.5257" lon="4.97698">
        <ele>265</ele>
      </trkpt>
      <trkpt lat="44.52591" lon="4.97628">
        <ele>265</ele>
      </trkpt>
      <trkpt lat="44.52629" lon="4.9755">
        <ele>263</ele>
      </trkpt>
      <trkpt lat="44.53049" lon="4.96897">
        <ele>264</ele>
      </trkpt>
      <trkpt lat="44.53095" lon="4.96819">
        <ele>269</ele>
      </trkpt>
      <trkpt lat="44.53044" lon="4.96744">
        <ele>255</ele>
      </trkpt>
      <trkpt lat="44.53017" lon="4.96706">
        <ele>258</ele>
      </trkpt>
      <trkpt lat="44.53006" lon="4.96693">
        <ele>262</ele>
      </trkpt>
      <trkpt lat="44.52986" lon="4.96697">
        <ele>261</ele>
      </trkpt>
      <trkpt lat="44.52905" lon="4.96741">
        <ele>263</ele>
      </trkpt>
      <trkpt lat="44.52823" lon="4.96782">
        <ele>260</ele>
      </trkpt>
    </trkseg>
  </trk>
  <trk>
    <name><![CDATA[Souspierre_6]]></name>
    <extensions>
      <line xmlns="http://www.topografix.com/GPX/gpx_style/0/2">
        <color>000088</color>
        <width>4</width>
      </line>
    </extensions>
    <trkseg>
      <trkpt lat="44.5285" lon="4.96725">
        <ele>268</ele>
      </trkpt>
      <trkpt lat="44.5289" lon="4.96734">
        <ele>267</ele>
      </trkpt>
      <trkpt lat="44.52905" lon="4.96741">
        <ele>263</ele>
      </trkpt>
      <trkpt lat="44.52986" lon="4.96697">
        <ele>261</ele>
      </trkpt>
      <trkpt lat="44.53006" lon="4.96693">
        <ele>262</ele>
      </trkpt>
      <trkpt lat="44.53017" lon="4.96706">
        <ele>258</ele>
      </trkpt>
      <trkpt lat="44.53044" lon="4.96744">
        <ele>255</ele>
      </trkpt>
      <trkpt lat="44.53095" lon="4.96819">
        <ele>269</ele>
      </trkpt>
      <trkpt lat="44.53049" lon="4.96897">
        <ele>264</ele>
      </trkpt>
      <trkpt lat="44.52629" lon="4.9755">
        <ele>263</ele>
      </trkpt>
      <trkpt lat="44.52591" lon="4.97628">
        <ele>265</ele>
      </trkpt>
      <trkpt lat="44.5257" lon="4.97698">
        <ele>265</ele>
      </trkpt>
      <trkpt lat="44.52558" lon="4.97767">
        <ele>266</ele>
      </trkpt>
      <trkpt lat="44.52555" lon="4.97824">
        <ele>266</ele>
      </trkpt>
      <trkpt lat="44.52555" lon="4.97995">
        <ele>273</ele>
      </trkpt>
      <trkpt lat="44.52557" lon="4.98064">
        <ele>275</ele>
      </trkpt>
      <trkpt lat="44.52557" lon="4.98101">
        <ele>276</ele>
      </trkpt>
      <trkpt lat="44.52559" lon="4.98139">
        <ele>276</ele>
      </trkpt>
      <trkpt lat="44.52563" lon="4.98167">
        <ele>277</ele>
      </trkpt>
      <trkpt lat="44.52598" lon="4.98287">
        <ele>279</ele>
      </trkpt>
      <trkpt lat="44.52683" lon="4.98563">
        <ele>289</ele>
      </trkpt>
      <trkpt lat="44.52703" lon="4.9861">
        <ele>287</ele>
      </trkpt>
      <trkpt lat="44.52726" lon="4.9865">
        <ele>287</ele>
      </trkpt>
      <trkpt lat="44.52971" lon="4.98966">
        <ele>286</ele>
      </trkpt>
      <trkpt lat="44.53005" lon="4.99021">
        <ele>287</ele>
      </trkpt>
      <trkpt lat="44.53024" lon="4.99057">
        <ele>289</ele>
      </trkpt>
      <trkpt lat="44.53052" lon="4.99125">
        <ele>290</ele>
      </trkpt>
      <trkpt lat="44.53064" lon="4.99161">
        <ele>287</ele>
      </trkpt>
      <trkpt lat="44.53231" lon="4.99785">
        <ele>292</ele>
      </trkpt>
      <trkpt lat="44.5324" lon="4.99833">
        <ele>295</ele>
      </trkpt>
      <trkpt lat="44.53247" lon="4.9989">
        <ele>294</ele>
      </trkpt>
      <trkpt lat="44.53248" lon="4.99967">
        <ele>296</ele>
      </trkpt>
      <trkpt lat="44.53244" lon="5.00027">
        <ele>299</ele>
      </trkpt>
      <trkpt lat="44.53235" lon="5.00081">
        <ele>297</ele>
      </trkpt>
      <trkpt lat="44.53191" lon="5.00272">
        <ele>301</ele>
      </trkpt>
      <trkpt lat="44.53167" lon="5.00399">
        <ele>301</ele>
      </trkpt>
      <trkpt lat="44.53159" lon="5.00454">
        <ele>301</ele>
      </trkpt>
      <trkpt lat="44.5312" lon="5.00837">
        <ele>309</ele>
      </trkpt>
      <trkpt lat="44.53109" lon="5.00982">
        <ele>308</ele>
      </trkpt>
      <trkpt lat="44.53107" lon="5.01034">
        <ele>310</ele>
      </trkpt>
      <trkpt lat="44.53102" lon="5.01084">
        <ele>312</ele>
      </trkpt>
      <trkpt lat="44.53082" lon="5.012">
        <ele>314</ele>
      </trkpt>
      <trkpt lat="44.5307" lon="5.01254">
        <ele>315</ele>
      </trkpt>
      <trkpt lat="44.53047" lon="5.0133">
        <ele>316</ele>
      </trkpt>
      <trkpt lat="44.53026" lon="5.01415">
        <ele>318</ele>
      </trkpt>
      <trkpt lat="44.52958" lon="5.0166">
        <ele>314</ele>
      </trkpt>
      <trkpt lat="44.52955" lon="5.01681">
        <ele>314</ele>
      </trkpt>
      <trkpt lat="44.52963" lon="5.01975">
        <ele>313</ele>
      </trkpt>
      <trkpt lat="44.52965" lon="5.021">
        <ele>317</ele>
      </trkpt>
      <trkpt lat="44.52958" lon="5.02355">
        <ele>324</ele>
      </trkpt>
      <trkpt lat="44.52955" lon="5.02418">
        <ele>326</ele>
      </trkpt>
      <trkpt lat="44.52946" lon="5.02456">
        <ele>327</ele>
      </trkpt>
      <trkpt lat="44.52934" lon="5.02489">
        <ele>328</ele>
      </trkpt>
      <trkpt lat="44.52911" lon="5.02533">
        <ele>328</ele>
      </trkpt>
      <trkpt lat="44.52881" lon="5.02578">
        <ele>328</ele>
      </trkpt>
      <trkpt lat="44.52703" lon="5.02801">
        <ele>328</ele>
      </trkpt>
      <trkpt lat="44.52691" lon="5.02819">
        <ele>329</ele>
      </trkpt>
      <trkpt lat="44.52684" lon="5.02834">
        <ele>330</ele>
      </trkpt>
      <trkpt lat="44.52671" lon="5.02866">
        <ele>332</ele>
      </trkpt>
      <trkpt lat="44.52619" lon="5.03041">
        <ele>332</ele>
      </trkpt>
      <trkpt lat="44.52604" lon="5.03112">
        <ele>333</ele>
      </trkpt>
      <trkpt lat="44.52593" lon="5.03174">
        <ele>331</ele>
      </trkpt>
      <trkpt lat="44.5258" lon="5.03264">
        <ele>332</ele>
      </trkpt>
      <trkpt lat="44.52569" lon="5.03357">
        <ele>334</ele>
      </trkpt>
      <trkpt lat="44.52555" lon="5.03566">
        <ele>336</ele>
      </trkpt>
      <trkpt lat="44.5256" lon="5.03569">
        <ele>336</ele>
      </trkpt>
      <trkpt lat="44.52664" lon="5.03602">
        <ele>348</ele>
      </trkpt>
      <trkpt lat="44.52673" lon="5.03612">
        <ele>349</ele>
      </trkpt>
      <trkpt lat="44.52686" lon="5.03632">
        <ele>354</ele>
      </trkpt>
      <trkpt lat="44.52693" lon="5.03663">
        <ele>355</ele>
      </trkpt>
      <trkpt lat="44.52699" lon="5.03698">
        <ele>356</ele>
      </trkpt>
      <trkpt lat="44.52702" lon="5.03739">
        <ele>357</ele>
      </trkpt>
      <trkpt lat="44.52705" lon="5.03752">
        <ele>358</ele>
      </trkpt>
      <trkpt lat="44.52709" lon="5.03759">
        <ele>358</ele>
      </trkpt>
      <trkpt lat="44.52754" lon="5.038">
        <ele>364</ele>
      </trkpt>
      <trkpt lat="44.52763" lon="5.03823">
        <ele>365</ele>
      </trkpt>
      <trkpt lat="44.52807" lon="5.03972">
        <ele>372</ele>
      </trkpt>
      <trkpt lat="44.52814" lon="5.03989">
        <ele>374</ele>
      </trkpt>
      <trkpt lat="44.52823" lon="5.03996">
        <ele>374</ele>
      </trkpt>
      <trkpt lat="44.52838" lon="5.03999">
        <ele>374</ele>
      </trkpt>
      <trkpt lat="44.52851" lon="5.04006">
        <ele>375</ele>
      </trkpt>
      <trkpt lat="44.52861" lon="5.04016">
        <ele>375</ele>
      </trkpt>
      <trkpt lat="44.52861" lon="5.04041">
        <ele>375</ele>
      </trkpt>
      <trkpt lat="44.52843" lon="5.04067">
        <ele>378</ele>
      </trkpt>
      <trkpt lat="44.52802" lon="5.04083">
        <ele>383</ele>
      </trkpt>
      <trkpt lat="44.52744" lon="5.04109">
        <ele>391</ele>
      </trkpt>
      <trkpt lat="44.52737" lon="5.0413">
        <ele>393</ele>
      </trkpt>
      <trkpt lat="44.52744" lon="5.04174">
        <ele>394</ele>
      </trkpt>
      <trkpt lat="44.52761" lon="5.0424">
        <ele>393</ele>
      </trkpt>
      <trkpt lat="44.52772" lon="5.04298">
        <ele>392</ele>
      </trkpt>
      <trkpt lat="44.52762" lon="5.04376">
        <ele>398</ele>
      </trkpt>
      <trkpt lat="44.52747" lon="5.04426">
        <ele>404</ele>
      </trkpt>
      <trkpt lat="44.52722" lon="5.04481">
        <ele>409</ele>
      </trkpt>
      <trkpt lat="44.52696" lon="5.04513">
        <ele>411</ele>
      </trkpt>
      <trkpt lat="44.52631" lon="5.04576">
        <ele>416</ele>
      </trkpt>
      <trkpt lat="44.52611" lon="5.04615">
        <ele>421</ele>
      </trkpt>
      <trkpt lat="44.5258" lon="5.04701">
        <ele>425</ele>
      </trkpt>
      <trkpt lat="44.52569" lon="5.04774">
        <ele>422</ele>
      </trkpt>
      <trkpt lat="44.5257" lon="5.04819">
        <ele>424</ele>
      </trkpt>
      <trkpt lat="44.52573" lon="5.04852">
        <ele>430</ele>
      </trkpt>
      <trkpt lat="44.52584" lon="5.04901">
        <ele>429</ele>
      </trkpt>
      <trkpt lat="44.52609" lon="5.04995">
        <ele>426</ele>
      </trkpt>
      <trkpt lat="44.52625" lon="5.0503">
        <ele>424</ele>
      </trkpt>
      <trkpt lat="44.52677" lon="5.05113">
        <ele>420</ele>
      </trkpt>
      <trkpt lat="44.52712" lon="5.05139">
        <ele>425</ele>
      </trkpt>
      <trkpt lat="44.52765" lon="5.05193">
        <ele>424</ele>
      </trkpt>
      <trkpt lat="44.52817" lon="5.0525">
        <ele>424</ele>
      </trkpt>
      <trkpt lat="44.52833" lon="5.0527">
        <ele>425</ele>
      </trkpt>
      <trkpt lat="44.52858" lon="5.0534">
        <ele>420</ele>
      </trkpt>
      <trkpt lat="44.52881" lon="5.05366">
        <ele>419</ele>
      </trkpt>
      <trkpt lat="44.52888" lon="5.05381">
        <ele>419</ele>
      </trkpt>
      <trkpt lat="44.52885" lon="5.05439">
        <ele>416</ele>
      </trkpt>
      <trkpt lat="44.52872" lon="5.05507">
        <ele>415</ele>
      </trkpt>
      <trkpt lat="44.5285" lon="5.05539">
        <ele>416</ele>
      </trkpt>
      <trkpt lat="44.52822" lon="5.05583">
        <ele>417</ele>
      </trkpt>
      <trkpt lat="44.52796" lon="5.05639">
        <ele>415</ele>
      </trkpt>
      <trkpt lat="44.52768" lon="5.05691">
        <ele>413</ele>
      </trkpt>
      <trkpt lat="44.52764" lon="5.05706">
        <ele>412</ele>
      </trkpt>
      <trkpt lat="44.52754" lon="5.05761">
        <ele>410</ele>
      </trkpt>
      <trkpt lat="44.52745" lon="5.05832">
        <ele>409</ele>
      </trkpt>
      <trkpt lat="44.52733" lon="5.05869">
        <ele>403</ele>
      </trkpt>
      <trkpt lat="44.52731" lon="5.05887">
        <ele>402</ele>
      </trkpt>
      <trkpt lat="44.52641" lon="5.05955">
        <ele>392</ele>
      </trkpt>
      <trkpt lat="44.52619" lon="5.05975">
        <ele>391</ele>
      </trkpt>
      <trkpt lat="44.52629" lon="5.05979">
        <ele>391</ele>
      </trkpt>
      <trkpt lat="44.52645" lon="5.05992">
        <ele>391</ele>
      </trkpt>
      <trkpt lat="44.52713" lon="5.06061">
        <ele>394</ele>
      </trkpt>
      <trkpt lat="44.52789" lon="5.06162">
        <ele>396</ele>
      </trkpt>
      <trkpt lat="44.52829" lon="5.06212">
        <ele>402</ele>
      </trkpt>
      <trkpt lat="44.53004" lon="5.06396">
        <ele>401</ele>
      </trkpt>
      <trkpt lat="44.53023" lon="5.06421">
        <ele>401</ele>
      </trkpt>
      <trkpt lat="44.53041" lon="5.06453">
        <ele>400</ele>
      </trkpt>
      <trkpt lat="44.53054" lon="5.06487">
        <ele>399</ele>
      </trkpt>
      <trkpt lat="44.53061" lon="5.06514">
        <ele>398</ele>
      </trkpt>
      <trkpt lat="44.53067" lon="5.06549">
        <ele>398</ele>
      </trkpt>
      <trkpt lat="44.53071" lon="5.06588">
        <ele>399</ele>
      </trkpt>
      <trkpt lat="44.53075" lon="5.06688">
        <ele>399</ele>
      </trkpt>
      <trkpt lat="44.53068" lon="5.06719">
        <ele>397</ele>
      </trkpt>
      <trkpt lat="44.53064" lon="5.06728">
        <ele>399</ele>
      </trkpt>
      <trkpt lat="44.53064" lon="5.06735">
        <ele>399</ele>
      </trkpt>
      <trkpt lat="44.53066" lon="5.06741">
        <ele>400</ele>
      </trkpt>
      <trkpt lat="44.5307" lon="5.06746">
        <ele>400</ele>
      </trkpt>
      <trkpt lat="44.53075" lon="5.06748">
        <ele>402</ele>
      </trkpt>
      <trkpt lat="44.5308" lon="5.06747">
        <ele>402</ele>
      </trkpt>
      <trkpt lat="44.53084" lon="5.06742">
        <ele>402</ele>
      </trkpt>
      <trkpt lat="44.53094" lon="5.06739">
        <ele>402</ele>
      </trkpt>
      <trkpt lat="44.53122" lon="5.06744">
        <ele>404</ele>
      </trkpt>
      <trkpt lat="44.53236" lon="5.06792">
        <ele>409</ele>
      </trkpt>
      <trkpt lat="44.53295" lon="5.06832">
        <ele>411</ele>
      </trkpt>
      <trkpt lat="44.53486" lon="5.06976">
        <ele>418</ele>
      </trkpt>
      <trkpt lat="44.53605" lon="5.07088">
        <ele>424</ele>
      </trkpt>
      <trkpt lat="44.53799" lon="5.07278">
        <ele>426</ele>
      </trkpt>
      <trkpt lat="44.53957" lon="5.07451">
        <ele>431</ele>
      </trkpt>
      <trkpt lat="44.53967" lon="5.07456">
        <ele>431</ele>
      </trkpt>
      <trkpt lat="44.54001" lon="5.07454">
        <ele>433</ele>
      </trkpt>
      <trkpt lat="44.54019" lon="5.07462">
        <ele>436</ele>
      </trkpt>
      <trkpt lat="44.54102" lon="5.07544">
        <ele>447</ele>
      </trkpt>
      <trkpt lat="44.54152" lon="5.07585">
        <ele>443</ele>
      </trkpt>
      <trkpt lat="44.54194" lon="5.07613">
        <ele>448</ele>
      </trkpt>
      <trkpt lat="44.54307" lon="5.07706">
        <ele>462</ele>
      </trkpt>
      <trkpt lat="44.54349" lon="5.07733">
        <ele>456</ele>
      </trkpt>
      <trkpt lat="44.54394" lon="5.07754">
        <ele>452</ele>
      </trkpt>
      <trkpt lat="44.54473" lon="5.07797">
        <ele>454</ele>
      </trkpt>
      <trkpt lat="44.54574" lon="5.07817">
        <ele>461</ele>
      </trkpt>
      <trkpt lat="44.54611" lon="5.07832">
        <ele>466</ele>
      </trkpt>
      <trkpt lat="44.54623" lon="5.07838">
        <ele>462</ele>
      </trkpt>
      <trkpt lat="44.54664" lon="5.07873">
        <ele>461</ele>
      </trkpt>
      <trkpt lat="44.54683" lon="5.07892">
        <ele>462</ele>
      </trkpt>
      <trkpt lat="44.54725" lon="5.07931">
        <ele>464</ele>
      </trkpt>
      <trkpt lat="44.54784" lon="5.07978">
        <ele>470</ele>
      </trkpt>
      <trkpt lat="44.54808" lon="5.08">
        <ele>477</ele>
      </trkpt>
      <trkpt lat="44.54876" lon="5.08102">
        <ele>471</ele>
      </trkpt>
      <trkpt lat="44.54883" lon="5.08116">
        <ele>475</ele>
      </trkpt>
      <trkpt lat="44.54889" lon="5.0813">
        <ele>475</ele>
      </trkpt>
      <trkpt lat="44.54897" lon="5.08165">
        <ele>472</ele>
      </trkpt>
      <trkpt lat="44.54903" lon="5.08189">
        <ele>472</ele>
      </trkpt>
      <trkpt lat="44.54912" lon="5.08211">
        <ele>472</ele>
      </trkpt>
      <trkpt lat="44.54924" lon="5.0823">
        <ele>473</ele>
      </trkpt>
      <trkpt lat="44.54944" lon="5.08247">
        <ele>474</ele>
      </trkpt>
      <trkpt lat="44.54962" lon="5.08257">
        <ele>477</ele>
      </trkpt>
      <trkpt lat="44.54995" lon="5.08292">
        <ele>483</ele>
      </trkpt>
      <trkpt lat="44.55025" lon="5.0833">
        <ele>489</ele>
      </trkpt>
      <trkpt lat="44.55035" lon="5.08349">
        <ele>489</ele>
      </trkpt>
      <trkpt lat="44.55061" lon="5.08418">
        <ele>490</ele>
      </trkpt>
      <trkpt lat="44.55082" lon="5.08447">
        <ele>490</ele>
      </trkpt>
      <trkpt lat="44.55113" lon="5.08487">
        <ele>491</ele>
      </trkpt>
      <trkpt lat="44.55145" lon="5.08532">
        <ele>494</ele>
      </trkpt>
      <trkpt lat="44.55174" lon="5.08582">
        <ele>497</ele>
      </trkpt>
      <trkpt lat="44.55303" lon="5.08822">
        <ele>511</ele>
      </trkpt>
      <trkpt lat="44.55311" lon="5.08827">
        <ele>512</ele>
      </trkpt>
      <trkpt lat="44.55315" lon="5.08827">
        <ele>513</ele>
      </trkpt>
      <trkpt lat="44.5532" lon="5.08822">
        <ele>513</ele>
      </trkpt>
      <trkpt lat="44.55322" lon="5.08816">
        <ele>514</ele>
      </trkpt>
      <trkpt lat="44.55323" lon="5.08769">
        <ele>518</ele>
      </trkpt>
      <trkpt lat="44.55334" lon="5.08655">
        <ele>527</ele>
      </trkpt>
      <trkpt lat="44.55338" lon="5.08632">
        <ele>530</ele>
      </trkpt>
      <trkpt lat="44.5534" lon="5.08623">
        <ele>531</ele>
      </trkpt>
      <trkpt lat="44.55344" lon="5.08618">
        <ele>532</ele>
      </trkpt>
      <trkpt lat="44.55347" lon="5.08616">
        <ele>532</ele>
      </trkpt>
      <trkpt lat="44.55351" lon="5.08617">
        <ele>533</ele>
      </trkpt>
      <trkpt lat="44.55355" lon="5.08621">
        <ele>533</ele>
      </trkpt>
      <trkpt lat="44.55356" lon="5.08627">
        <ele>533</ele>
      </trkpt>
      <trkpt lat="44.55354" lon="5.08653">
        <ele>532</ele>
      </trkpt>
      <trkpt lat="44.55355" lon="5.08673">
        <ele>531</ele>
      </trkpt>
      <trkpt lat="44.55366" lon="5.08704">
        <ele>530</ele>
      </trkpt>
      <trkpt lat="44.55374" lon="5.08714">
        <ele>530</ele>
      </trkpt>
      <trkpt lat="44.55392" lon="5.08732">
        <ele>533</ele>
      </trkpt>
      <trkpt lat="44.55464" lon="5.08781">
        <ele>544</ele>
      </trkpt>
      <trkpt lat="44.55473" lon="5.08792">
        <ele>545</ele>
      </trkpt>
      <trkpt lat="44.55494" lon="5.0884">
        <ele>548</ele>
      </trkpt>
      <trkpt lat="44.55498" lon="5.08851">
        <ele>547</ele>
      </trkpt>
      <trkpt lat="44.55499" lon="5.08863">
        <ele>546</ele>
      </trkpt>
      <trkpt lat="44.55491" lon="5.08897">
        <ele>544</ele>
      </trkpt>
      <trkpt lat="44.55493" lon="5.08906">
        <ele>544</ele>
      </trkpt>
      <trkpt lat="44.55495" lon="5.0891">
        <ele>545</ele>
      </trkpt>
      <trkpt lat="44.55499" lon="5.08915">
        <ele>545</ele>
      </trkpt>
      <trkpt lat="44.55504" lon="5.08916">
        <ele>545</ele>
      </trkpt>
      <trkpt lat="44.55541" lon="5.08911">
        <ele>547</ele>
      </trkpt>
      <trkpt lat="44.55562" lon="5.08912">
        <ele>550</ele>
      </trkpt>
      <trkpt lat="44.55586" lon="5.08916">
        <ele>553</ele>
      </trkpt>
      <trkpt lat="44.55604" lon="5.08922">
        <ele>554</ele>
      </trkpt>
      <trkpt lat="44.55612" lon="5.08927">
        <ele>555</ele>
      </trkpt>
      <trkpt lat="44.5562" lon="5.08937">
        <ele>556</ele>
      </trkpt>
      <trkpt lat="44.55623" lon="5.08953">
        <ele>555</ele>
      </trkpt>
      <trkpt lat="44.55622" lon="5.08974">
        <ele>554</ele>
      </trkpt>
      <trkpt lat="44.55624" lon="5.08986">
        <ele>553</ele>
      </trkpt>
      <trkpt lat="44.5563" lon="5.08996">
        <ele>554</ele>
      </trkpt>
      <trkpt lat="44.55641" lon="5.09002">
        <ele>555</ele>
      </trkpt>
      <trkpt lat="44.55655" lon="5.09007">
        <ele>557</ele>
      </trkpt>
      <trkpt lat="44.55765" lon="5.09027">
        <ele>566</ele>
      </trkpt>
      <trkpt lat="44.55772" lon="5.09026">
        <ele>567</ele>
      </trkpt>
      <trkpt lat="44.55777" lon="5.09022">
        <ele>567</ele>
      </trkpt>
      <trkpt lat="44.55779" lon="5.09014">
        <ele>568</ele>
      </trkpt>
      <trkpt lat="44.55777" lon="5.09005">
        <ele>569</ele>
      </trkpt>
      <trkpt lat="44.55773" lon="5.08999">
        <ele>570</ele>
      </trkpt>
      <trkpt lat="44.55763" lon="5.08995">
        <ele>571</ele>
      </trkpt>
      <trkpt lat="44.55748" lon="5.08992">
        <ele>572</ele>
      </trkpt>
      <trkpt lat="44.55735" lon="5.08985">
        <ele>573</ele>
      </trkpt>
      <trkpt lat="44.55717" lon="5.08971">
        <ele>575</ele>
      </trkpt>
      <trkpt lat="44.55707" lon="5.08961">
        <ele>576</ele>
      </trkpt>
      <trkpt lat="44.55701" lon="5.08952">
        <ele>577</ele>
      </trkpt>
      <trkpt lat="44.55698" lon="5.08941">
        <ele>577</ele>
      </trkpt>
      <trkpt lat="44.55697" lon="5.08929">
        <ele>578</ele>
      </trkpt>
      <trkpt lat="44.55699" lon="5.08916">
        <ele>580</ele>
      </trkpt>
      <trkpt lat="44.55711" lon="5.08873">
        <ele>589</ele>
      </trkpt>
      <trkpt lat="44.55714" lon="5.08859">
        <ele>589</ele>
      </trkpt>
      <trkpt lat="44.55714" lon="5.08849">
        <ele>588</ele>
      </trkpt>
      <trkpt lat="44.55713" lon="5.08839">
        <ele>588</ele>
      </trkpt>
      <trkpt lat="44.55706" lon="5.0883">
        <ele>588</ele>
      </trkpt>
      <trkpt lat="44.55685" lon="5.0882">
        <ele>585</ele>
      </trkpt>
      <trkpt lat="44.55677" lon="5.0881">
        <ele>584</ele>
      </trkpt>
      <trkpt lat="44.55675" lon="5.08798">
        <ele>583</ele>
      </trkpt>
      <trkpt lat="44.55682" lon="5.0875">
        <ele>589</ele>
      </trkpt>
      <trkpt lat="44.55685" lon="5.08743">
        <ele>590</ele>
      </trkpt>
      <trkpt lat="44.55691" lon="5.0874">
        <ele>591</ele>
      </trkpt>
      <trkpt lat="44.55698" lon="5.08741">
        <ele>592</ele>
      </trkpt>
      <trkpt lat="44.55704" lon="5.08746">
        <ele>593</ele>
      </trkpt>
      <trkpt lat="44.5572" lon="5.08791">
        <ele>598</ele>
      </trkpt>
      <trkpt lat="44.55746" lon="5.0884">
        <ele>598</ele>
      </trkpt>
      <trkpt lat="44.55758" lon="5.08856">
        <ele>598</ele>
      </trkpt>
      <trkpt lat="44.55775" lon="5.08868">
        <ele>599</ele>
      </trkpt>
      <trkpt lat="44.55828" lon="5.08892">
        <ele>597</ele>
      </trkpt>
      <trkpt lat="44.55839" lon="5.08894">
        <ele>599</ele>
      </trkpt>
      <trkpt lat="44.55849" lon="5.08891">
        <ele>601</ele>
      </trkpt>
      <trkpt lat="44.55858" lon="5.08884">
        <ele>602</ele>
      </trkpt>
      <trkpt lat="44.5588" lon="5.08863">
        <ele>607</ele>
      </trkpt>
      <trkpt lat="44.55888" lon="5.08858">
        <ele>607</ele>
      </trkpt>
      <trkpt lat="44.55902" lon="5.08859">
        <ele>607</ele>
      </trkpt>
      <trkpt lat="44.56201" lon="5.08925">
        <ele>626</ele>
      </trkpt>
      <trkpt lat="44.5621" lon="5.08929">
        <ele>627</ele>
      </trkpt>
      <trkpt lat="44.56218" lon="5.08935">
        <ele>627</ele>
      </trkpt>
      <trkpt lat="44.56222" lon="5.0894">
        <ele>627</ele>
      </trkpt>
      <trkpt lat="44.56225" lon="5.08948">
        <ele>628</ele>
      </trkpt>
      <trkpt lat="44.56226" lon="5.08957">
        <ele>628</ele>
      </trkpt>
      <trkpt lat="44.56224" lon="5.0897">
        <ele>628</ele>
      </trkpt>
      <trkpt lat="44.56216" lon="5.08989">
        <ele>629</ele>
      </trkpt>
      <trkpt lat="44.56173" lon="5.09063">
        <ele>633</ele>
      </trkpt>
      <trkpt lat="44.56168" lon="5.09082">
        <ele>634</ele>
      </trkpt>
      <trkpt lat="44.56164" lon="5.09103">
        <ele>636</ele>
      </trkpt>
      <trkpt lat="44.56178" lon="5.09313">
        <ele>642</ele>
      </trkpt>
      <trkpt lat="44.5619" lon="5.09381">
        <ele>646</ele>
      </trkpt>
      <trkpt lat="44.56209" lon="5.09467">
        <ele>647</ele>
      </trkpt>
      <trkpt lat="44.56217" lon="5.0953">
        <ele>653</ele>
      </trkpt>
      <trkpt lat="44.56218" lon="5.09566">
        <ele>649</ele>
      </trkpt>
      <trkpt lat="44.5621" lon="5.09636">
        <ele>640</ele>
      </trkpt>
      <trkpt lat="44.56213" lon="5.09659">
        <ele>640</ele>
      </trkpt>
      <trkpt lat="44.56218" lon="5.09681">
        <ele>641</ele>
      </trkpt>
      <trkpt lat="44.56228" lon="5.09701">
        <ele>641</ele>
      </trkpt>
      <trkpt lat="44.56247" lon="5.09731">
        <ele>640</ele>
      </trkpt>
      <trkpt lat="44.56361" lon="5.09873">
        <ele>635</ele>
      </trkpt>
      <trkpt lat="44.56357" lon="5.09882">
        <ele>635</ele>
      </trkpt>
      <trkpt lat="44.56358" lon="5.09892">
        <ele>635</ele>
      </trkpt>
      <trkpt lat="44.56366" lon="5.09903">
        <ele>636</ele>
      </trkpt>
      <trkpt lat="44.5637" lon="5.09916">
        <ele>636</ele>
      </trkpt>
      <trkpt lat="44.56374" lon="5.09937">
        <ele>636</ele>
      </trkpt>
      <trkpt lat="44.5643" lon="5.10361">
        <ele>648</ele>
      </trkpt>
      <trkpt lat="44.56429" lon="5.10379">
        <ele>649</ele>
      </trkpt>
      <trkpt lat="44.56404" lon="5.10488">
        <ele>655</ele>
      </trkpt>
      <trkpt lat="44.56393" lon="5.10543">
        <ele>659</ele>
      </trkpt>
      <trkpt lat="44.56384" lon="5.10604">
        <ele>665</ele>
      </trkpt>
      <trkpt lat="44.56379" lon="5.10627">
        <ele>667</ele>
      </trkpt>
      <trkpt lat="44.56371" lon="5.10647">
        <ele>668</ele>
      </trkpt>
      <trkpt lat="44.56361" lon="5.10662">
        <ele>666</ele>
      </trkpt>
      <trkpt lat="44.56285" lon="5.10762">
        <ele>660</ele>
      </trkpt>
      <trkpt lat="44.56264" lon="5.10787">
        <ele>661</ele>
      </trkpt>
      <trkpt lat="44.56216" lon="5.10832">
        <ele>662</ele>
      </trkpt>
      <trkpt lat="44.56192" lon="5.10857">
        <ele>663</ele>
      </trkpt>
      <trkpt lat="44.5609" lon="5.10982">
        <ele>668</ele>
      </trkpt>
      <trkpt lat="44.56077" lon="5.10999">
        <ele>669</ele>
      </trkpt>
      <trkpt lat="44.56057" lon="5.11043">
        <ele>670</ele>
      </trkpt>
      <trkpt lat="44.56033" lon="5.11087">
        <ele>676</ele>
      </trkpt>
      <trkpt lat="44.5602" lon="5.11131">
        <ele>677</ele>
      </trkpt>
      <trkpt lat="44.56002" lon="5.11176">
        <ele>679</ele>
      </trkpt>
      <trkpt lat="44.55995" lon="5.11215">
        <ele>682</ele>
      </trkpt>
      <trkpt lat="44.55988" lon="5.11233">
        <ele>683</ele>
      </trkpt>
      <trkpt lat="44.55974" lon="5.11259">
        <ele>683</ele>
      </trkpt>
      <trkpt lat="44.55957" lon="5.11283">
        <ele>684</ele>
      </trkpt>
      <trkpt lat="44.5591" lon="5.11341">
        <ele>684</ele>
      </trkpt>
      <trkpt lat="44.55892" lon="5.1136">
        <ele>684</ele>
      </trkpt>
      <trkpt lat="44.55826" lon="5.11417">
        <ele>685</ele>
      </trkpt>
      <trkpt lat="44.558" lon="5.11436">
        <ele>687</ele>
      </trkpt>
      <trkpt lat="44.55827" lon="5.11553">
        <ele>691</ele>
      </trkpt>
      <trkpt lat="44.55836" lon="5.11572">
        <ele>692</ele>
      </trkpt>
      <trkpt lat="44.55921" lon="5.11681">
        <ele>698</ele>
      </trkpt>
      <trkpt lat="44.55928" lon="5.11696">
        <ele>699</ele>
      </trkpt>
      <trkpt lat="44.55933" lon="5.11713">
        <ele>700</ele>
      </trkpt>
      <trkpt lat="44.55942" lon="5.11758">
        <ele>702</ele>
      </trkpt>
      <trkpt lat="44.55949" lon="5.11767">
        <ele>702</ele>
      </trkpt>
      <trkpt lat="44.55986" lon="5.11786">
        <ele>703</ele>
      </trkpt>
      <trkpt lat="44.56022" lon="5.11789">
        <ele>705</ele>
      </trkpt>
      <trkpt lat="44.56048" lon="5.11798">
        <ele>704</ele>
      </trkpt>
      <trkpt lat="44.56118" lon="5.11833">
        <ele>701</ele>
      </trkpt>
      <trkpt lat="44.5615" lon="5.11845">
        <ele>700</ele>
      </trkpt>
      <trkpt lat="44.56211" lon="5.11855">
        <ele>698</ele>
      </trkpt>
      <trkpt lat="44.56242" lon="5.11865">
        <ele>697</ele>
      </trkpt>
      <trkpt lat="44.5626" lon="5.11878">
        <ele>696</ele>
      </trkpt>
      <trkpt lat="44.56308" lon="5.11905">
        <ele>692</ele>
      </trkpt>
      <trkpt lat="44.56405" lon="5.11947">
        <ele>682</ele>
      </trkpt>
      <trkpt lat="44.56397" lon="5.11967">
        <ele>680</ele>
      </trkpt>
      <trkpt lat="44.56362" lon="5.12002">
        <ele>673</ele>
      </trkpt>
      <trkpt lat="44.56345" lon="5.12025">
        <ele>670</ele>
      </trkpt>
      <trkpt lat="44.56298" lon="5.12098">
        <ele>660</ele>
      </trkpt>
      <trkpt lat="44.56289" lon="5.12107">
        <ele>660</ele>
      </trkpt>
      <trkpt lat="44.5628" lon="5.12107">
        <ele>660</ele>
      </trkpt>
      <trkpt lat="44.56271" lon="5.12103">
        <ele>659</ele>
      </trkpt>
      <trkpt lat="44.5626" lon="5.12095">
        <ele>659</ele>
      </trkpt>
      <trkpt lat="44.56246" lon="5.12079">
        <ele>659</ele>
      </trkpt>
      <trkpt lat="44.56236" lon="5.12065">
        <ele>660</ele>
      </trkpt>
      <trkpt lat="44.56221" lon="5.12051">
        <ele>660</ele>
      </trkpt>
      <trkpt lat="44.5621" lon="5.12042">
        <ele>659</ele>
      </trkpt>
      <trkpt lat="44.56199" lon="5.12036">
        <ele>658</ele>
      </trkpt>
      <trkpt lat="44.56187" lon="5.12032">
        <ele>657</ele>
      </trkpt>
      <trkpt lat="44.56174" lon="5.12033">
        <ele>656</ele>
      </trkpt>
      <trkpt lat="44.56158" lon="5.12038">
        <ele>654</ele>
      </trkpt>
      <trkpt lat="44.56138" lon="5.12053">
        <ele>652</ele>
      </trkpt>
      <trkpt lat="44.56124" lon="5.12078">
        <ele>650</ele>
      </trkpt>
      <trkpt lat="44.56116" lon="5.12122">
        <ele>646</ele>
      </trkpt>
      <trkpt lat="44.56097" lon="5.12202">
        <ele>642</ele>
      </trkpt>
      <trkpt lat="44.56091" lon="5.12218">
        <ele>642</ele>
      </trkpt>
      <trkpt lat="44.56075" lon="5.12248">
        <ele>641</ele>
      </trkpt>
      <trkpt lat="44.56068" lon="5.12266">
        <ele>641</ele>
      </trkpt>
      <trkpt lat="44.56063" lon="5.12285">
        <ele>642</ele>
      </trkpt>
      <trkpt lat="44.5606" lon="5.12305">
        <ele>642</ele>
      </trkpt>
      <trkpt lat="44.5606" lon="5.12326">
        <ele>641</ele>
      </trkpt>
      <trkpt lat="44.56061" lon="5.12369">
        <ele>638</ele>
      </trkpt>
      <trkpt lat="44.56056" lon="5.12425">
        <ele>638</ele>
      </trkpt>
      <trkpt lat="44.56058" lon="5.1244">
        <ele>637</ele>
      </trkpt>
      <trkpt lat="44.56066" lon="5.12472">
        <ele>636</ele>
      </trkpt>
      <trkpt lat="44.56066" lon="5.12486">
        <ele>636</ele>
      </trkpt>
      <trkpt lat="44.56063" lon="5.12496">
        <ele>637</ele>
      </trkpt>
      <trkpt lat="44.56042" lon="5.12526">
        <ele>638</ele>
      </trkpt>
      <trkpt lat="44.5603" lon="5.12529">
        <ele>638</ele>
      </trkpt>
      <trkpt lat="44.56018" lon="5.12527">
        <ele>639</ele>
      </trkpt>
      <trkpt lat="44.55993" lon="5.1251">
        <ele>640</ele>
      </trkpt>
      <trkpt lat="44.55977" lon="5.12508">
        <ele>640</ele>
      </trkpt>
      <trkpt lat="44.55957" lon="5.12513">
        <ele>640</ele>
      </trkpt>
      <trkpt lat="44.55939" lon="5.12525">
        <ele>637</ele>
      </trkpt>
      <trkpt lat="44.55924" lon="5.1254">
        <ele>634</ele>
      </trkpt>
      <trkpt lat="44.55882" lon="5.12594">
        <ele>624</ele>
      </trkpt>
      <trkpt lat="44.55854" lon="5.12625">
        <ele>624</ele>
      </trkpt>
      <trkpt lat="44.55848" lon="5.12638">
        <ele>624</ele>
      </trkpt>
      <trkpt lat="44.55845" lon="5.12653">
        <ele>623</ele>
      </trkpt>
      <trkpt lat="44.55834" lon="5.12674">
        <ele>623</ele>
      </trkpt>
      <trkpt lat="44.55828" lon="5.12691">
        <ele>623</ele>
      </trkpt>
      <trkpt lat="44.55821" lon="5.1272">
        <ele>624</ele>
      </trkpt>
      <trkpt lat="44.55812" lon="5.12737">
        <ele>624</ele>
      </trkpt>
      <trkpt lat="44.55801" lon="5.12751">
        <ele>625</ele>
      </trkpt>
      <trkpt lat="44.55783" lon="5.12781">
        <ele>625</ele>
      </trkpt>
      <trkpt lat="44.55779" lon="5.12798">
        <ele>624</ele>
      </trkpt>
      <trkpt lat="44.55775" lon="5.12853">
        <ele>620</ele>
      </trkpt>
      <trkpt lat="44.55771" lon="5.12875">
        <ele>623</ele>
      </trkpt>
      <trkpt lat="44.55763" lon="5.1289">
        <ele>625</ele>
      </trkpt>
      <trkpt lat="44.55757" lon="5.1291">
        <ele>627</ele>
      </trkpt>
      <trkpt lat="44.55755" lon="5.12957">
        <ele>625</ele>
      </trkpt>
      <trkpt lat="44.5575" lon="5.12973">
        <ele>625</ele>
      </trkpt>
      <trkpt lat="44.55743" lon="5.12986">
        <ele>625</ele>
      </trkpt>
      <trkpt lat="44.55668" lon="5.13078">
        <ele>626</ele>
      </trkpt>
      <trkpt lat="44.55658" lon="5.13101">
        <ele>624</ele>
      </trkpt>
      <trkpt lat="44.55633" lon="5.13172">
        <ele>620</ele>
      </trkpt>
      <trkpt lat="44.55599" lon="5.13228">
        <ele>619</ele>
      </trkpt>
      <trkpt lat="44.5559" lon="5.13238">
        <ele>621</ele>
      </trkpt>
      <trkpt lat="44.55575" lon="5.13245">
        <ele>623</ele>
      </trkpt>
      <trkpt lat="44.55566" lon="5.13255">
        <ele>625</ele>
      </trkpt>
      <trkpt lat="44.55559" lon="5.13269">
        <ele>624</ele>
      </trkpt>
      <trkpt lat="44.5554" lon="5.13329">
        <ele>619</ele>
      </trkpt>
      <trkpt lat="44.55529" lon="5.1335">
        <ele>615</ele>
      </trkpt>
      <trkpt lat="44.55517" lon="5.13368">
        <ele>612</ele>
      </trkpt>
      <trkpt lat="44.55503" lon="5.13384">
        <ele>613</ele>
      </trkpt>
      <trkpt lat="44.55486" lon="5.13396">
        <ele>614</ele>
      </trkpt>
      <trkpt lat="44.55425" lon="5.1343">
        <ele>612</ele>
      </trkpt>
      <trkpt lat="44.55404" lon="5.13435">
        <ele>614</ele>
      </trkpt>
      <trkpt lat="44.55395" lon="5.13435">
        <ele>615</ele>
      </trkpt>
      <trkpt lat="44.55371" lon="5.13427">
        <ele>617</ele>
      </trkpt>
      <trkpt lat="44.55362" lon="5.13429">
        <ele>617</ele>
      </trkpt>
      <trkpt lat="44.55338" lon="5.13443">
        <ele>618</ele>
      </trkpt>
      <trkpt lat="44.55307" lon="5.13466">
        <ele>614</ele>
      </trkpt>
      <trkpt lat="44.55298" lon="5.1348">
        <ele>613</ele>
      </trkpt>
      <trkpt lat="44.55294" lon="5.13499">
        <ele>613</ele>
      </trkpt>
      <trkpt lat="44.55287" lon="5.13512">
        <ele>612</ele>
      </trkpt>
      <trkpt lat="44.55279" lon="5.13515">
        <ele>613</ele>
      </trkpt>
      <trkpt lat="44.55255" lon="5.13516">
        <ele>616</ele>
      </trkpt>
      <trkpt lat="44.55256" lon="5.13531">
        <ele>617</ele>
      </trkpt>
      <trkpt lat="44.55262" lon="5.13547">
        <ele>617</ele>
      </trkpt>
      <trkpt lat="44.55264" lon="5.13564">
        <ele>618</ele>
      </trkpt>
      <trkpt lat="44.55264" lon="5.13582">
        <ele>618</ele>
      </trkpt>
      <trkpt lat="44.55252" lon="5.13678">
        <ele>618</ele>
      </trkpt>
      <trkpt lat="44.55243" lon="5.13733">
        <ele>614</ele>
      </trkpt>
      <trkpt lat="44.55234" lon="5.13764">
        <ele>613</ele>
      </trkpt>
      <trkpt lat="44.5523" lon="5.13775">
        <ele>612</ele>
      </trkpt>
      <trkpt lat="44.55218" lon="5.13789">
        <ele>611</ele>
      </trkpt>
      <trkpt lat="44.5517" lon="5.1383">
        <ele>610</ele>
      </trkpt>
      <trkpt lat="44.55143" lon="5.13874">
        <ele>609</ele>
      </trkpt>
      <trkpt lat="44.55115" lon="5.13939">
        <ele>606</ele>
      </trkpt>
      <trkpt lat="44.55115" lon="5.13967">
        <ele>606</ele>
      </trkpt>
      <trkpt lat="44.55151" lon="5.14101">
        <ele>607</ele>
      </trkpt>
      <trkpt lat="44.55159" lon="5.14163">
        <ele>611</ele>
      </trkpt>
      <trkpt lat="44.55159" lon="5.14353">
        <ele>604</ele>
      </trkpt>
      <trkpt lat="44.5515" lon="5.14402">
        <ele>603</ele>
      </trkpt>
      <trkpt lat="44.55135" lon="5.14445">
        <ele>606</ele>
      </trkpt>
      <trkpt lat="44.55117" lon="5.14477">
        <ele>604</ele>
      </trkpt>
      <trkpt lat="44.55098" lon="5.14502">
        <ele>603</ele>
      </trkpt>
      <trkpt lat="44.55071" lon="5.14523">
        <ele>600</ele>
      </trkpt>
      <trkpt lat="44.5506" lon="5.14536">
        <ele>598</ele>
      </trkpt>
      <trkpt lat="44.55053" lon="5.1455">
        <ele>598</ele>
      </trkpt>
      <trkpt lat="44.5505" lon="5.14568">
        <ele>598</ele>
      </trkpt>
      <trkpt lat="44.5505" lon="5.14584">
        <ele>598</ele>
      </trkpt>
      <trkpt lat="44.55072" lon="5.14672">
        <ele>589</ele>
      </trkpt>
      <trkpt lat="44.55077" lon="5.14681">
        <ele>589</ele>
      </trkpt>
      <trkpt lat="44.55087" lon="5.14686">
        <ele>588</ele>
      </trkpt>
      <trkpt lat="44.55104" lon="5.1469">
        <ele>588</ele>
      </trkpt>
      <trkpt lat="44.55147" lon="5.14708">
        <ele>581</ele>
      </trkpt>
      <trkpt lat="44.55177" lon="5.14707">
        <ele>582</ele>
      </trkpt>
      <trkpt lat="44.5519" lon="5.1471">
        <ele>583</ele>
      </trkpt>
      <trkpt lat="44.55233" lon="5.14733">
        <ele>575</ele>
      </trkpt>
      <trkpt lat="44.55253" lon="5.1474">
        <ele>574</ele>
      </trkpt>
      <trkpt lat="44.55276" lon="5.14747">
        <ele>572</ele>
      </trkpt>
      <trkpt lat="44.55319" lon="5.14752">
        <ele>568</ele>
      </trkpt>
      <trkpt lat="44.55336" lon="5.1475">
        <ele>567</ele>
      </trkpt>
      <trkpt lat="44.55369" lon="5.14741">
        <ele>566</ele>
      </trkpt>
      <trkpt lat="44.55391" lon="5.14743">
        <ele>563</ele>
      </trkpt>
      <trkpt lat="44.5541" lon="5.14738">
        <ele>560</ele>
      </trkpt>
      <trkpt lat="44.55472" lon="5.14692">
        <ele>560</ele>
      </trkpt>
      <trkpt lat="44.55481" lon="5.1469">
        <ele>559</ele>
      </trkpt>
      <trkpt lat="44.5549" lon="5.1469">
        <ele>559</ele>
      </trkpt>
      <trkpt lat="44.55498" lon="5.14693">
        <ele>558</ele>
      </trkpt>
      <trkpt lat="44.55509" lon="5.14704">
        <ele>557</ele>
      </trkpt>
      <trkpt lat="44.55517" lon="5.14715">
        <ele>557</ele>
      </trkpt>
      <trkpt lat="44.55522" lon="5.14733">
        <ele>558</ele>
      </trkpt>
      <trkpt lat="44.55522" lon="5.1476">
        <ele>558</ele>
      </trkpt>
      <trkpt lat="44.55518" lon="5.14777">
        <ele>558</ele>
      </trkpt>
      <trkpt lat="44.55511" lon="5.14794">
        <ele>557</ele>
      </trkpt>
      <trkpt lat="44.55494" lon="5.14828">
        <ele>556</ele>
      </trkpt>
      <trkpt lat="44.55493" lon="5.1484">
        <ele>556</ele>
      </trkpt>
      <trkpt lat="44.55498" lon="5.14879">
        <ele>557</ele>
      </trkpt>
      <trkpt lat="44.55494" lon="5.1489">
        <ele>557</ele>
      </trkpt>
      <trkpt lat="44.55488" lon="5.14898">
        <ele>557</ele>
      </trkpt>
      <trkpt lat="44.5547" lon="5.1491">
        <ele>556</ele>
      </trkpt>
      <trkpt lat="44.5544" lon="5.14936">
        <ele>555</ele>
      </trkpt>
      <trkpt lat="44.55426" lon="5.14944">
        <ele>555</ele>
      </trkpt>
      <trkpt lat="44.55412" lon="5.14955">
        <ele>555</ele>
      </trkpt>
      <trkpt lat="44.55389" lon="5.14992">
        <ele>555</ele>
      </trkpt>
      <trkpt lat="44.55338" lon="5.15056">
        <ele>543</ele>
      </trkpt>
      <trkpt lat="44.55329" lon="5.15064">
        <ele>541</ele>
      </trkpt>
      <trkpt lat="44.55311" lon="5.15071">
        <ele>538</ele>
      </trkpt>
      <trkpt lat="44.55303" lon="5.15078">
        <ele>537</ele>
      </trkpt>
      <trkpt lat="44.55299" lon="5.15088">
        <ele>536</ele>
      </trkpt>
      <trkpt lat="44.55295" lon="5.15105">
        <ele>534</ele>
      </trkpt>
      <trkpt lat="44.55295" lon="5.15122">
        <ele>533</ele>
      </trkpt>
      <trkpt lat="44.55297" lon="5.15144">
        <ele>531</ele>
      </trkpt>
      <trkpt lat="44.553" lon="5.15156">
        <ele>531</ele>
      </trkpt>
      <trkpt lat="44.55307" lon="5.15168">
        <ele>531</ele>
      </trkpt>
      <trkpt lat="44.55315" lon="5.15176">
        <ele>531</ele>
      </trkpt>
      <trkpt lat="44.55352" lon="5.15194">
        <ele>532</ele>
      </trkpt>
      <trkpt lat="44.55362" lon="5.15204">
        <ele>530</ele>
      </trkpt>
      <trkpt lat="44.55364" lon="5.1521">
        <ele>529</ele>
      </trkpt>
      <trkpt lat="44.55364" lon="5.15217">
        <ele>529</ele>
      </trkpt>
      <trkpt lat="44.55361" lon="5.15221">
        <ele>528</ele>
      </trkpt>
      <trkpt lat="44.55356" lon="5.15221">
        <ele>527</ele>
      </trkpt>
      <trkpt lat="44.55338" lon="5.1521">
        <ele>524</ele>
      </trkpt>
      <trkpt lat="44.55327" lon="5.15208">
        <ele>523</ele>
      </trkpt>
      <trkpt lat="44.55315" lon="5.1521">
        <ele>521</ele>
      </trkpt>
      <trkpt lat="44.55291" lon="5.15223">
        <ele>518</ele>
      </trkpt>
      <trkpt lat="44.5528" lon="5.15227">
        <ele>517</ele>
      </trkpt>
      <trkpt lat="44.5527" lon="5.15226">
        <ele>517</ele>
      </trkpt>
      <trkpt lat="44.5526" lon="5.1522">
        <ele>516</ele>
      </trkpt>
      <trkpt lat="44.55226" lon="5.15188">
        <ele>513</ele>
      </trkpt>
      <trkpt lat="44.55221" lon="5.1518">
        <ele>513</ele>
      </trkpt>
      <trkpt lat="44.55219" lon="5.15168">
        <ele>514</ele>
      </trkpt>
      <trkpt lat="44.55222" lon="5.15155">
        <ele>514</ele>
      </trkpt>
      <trkpt lat="44.55222" lon="5.15146">
        <ele>515</ele>
      </trkpt>
      <trkpt lat="44.55219" lon="5.15141">
        <ele>515</ele>
      </trkpt>
      <trkpt lat="44.55214" lon="5.15139">
        <ele>514</ele>
      </trkpt>
      <trkpt lat="44.55208" lon="5.15141">
        <ele>513</ele>
      </trkpt>
      <trkpt lat="44.55205" lon="5.15149">
        <ele>512</ele>
      </trkpt>
      <trkpt lat="44.55204" lon="5.15187">
        <ele>508</ele>
      </trkpt>
      <trkpt lat="44.55204" lon="5.15217">
        <ele>507</ele>
      </trkpt>
      <trkpt lat="44.55203" lon="5.15232">
        <ele>506</ele>
      </trkpt>
      <trkpt lat="44.55195" lon="5.15247">
        <ele>505</ele>
      </trkpt>
      <trkpt lat="44.5518" lon="5.15264">
        <ele>504</ele>
      </trkpt>
      <trkpt lat="44.55172" lon="5.15282">
        <ele>503</ele>
      </trkpt>
      <trkpt lat="44.55167" lon="5.15298">
        <ele>502</ele>
      </trkpt>
      <trkpt lat="44.55167" lon="5.15314">
        <ele>500</ele>
      </trkpt>
      <trkpt lat="44.55171" lon="5.15327">
        <ele>499</ele>
      </trkpt>
      <trkpt lat="44.55181" lon="5.1534">
        <ele>498</ele>
      </trkpt>
      <trkpt lat="44.55197" lon="5.15355">
        <ele>497</ele>
      </trkpt>
      <trkpt lat="44.55215" lon="5.15377">
        <ele>496</ele>
      </trkpt>
      <trkpt lat="44.55227" lon="5.15396">
        <ele>496</ele>
      </trkpt>
      <trkpt lat="44.55231" lon="5.15411">
        <ele>497</ele>
      </trkpt>
      <trkpt lat="44.55233" lon="5.15428">
        <ele>497</ele>
      </trkpt>
      <trkpt lat="44.55216" lon="5.15543">
        <ele>493</ele>
      </trkpt>
      <trkpt lat="44.55215" lon="5.15559">
        <ele>491</ele>
      </trkpt>
      <trkpt lat="44.55218" lon="5.15569">
        <ele>490</ele>
      </trkpt>
      <trkpt lat="44.55224" lon="5.1558">
        <ele>488</ele>
      </trkpt>
      <trkpt lat="44.55233" lon="5.15588">
        <ele>486</ele>
      </trkpt>
      <trkpt lat="44.55247" lon="5.15593">
        <ele>486</ele>
      </trkpt>
      <trkpt lat="44.55263" lon="5.15596">
        <ele>486</ele>
      </trkpt>
      <trkpt lat="44.55277" lon="5.15604">
        <ele>486</ele>
      </trkpt>
      <trkpt lat="44.55293" lon="5.15619">
        <ele>484</ele>
      </trkpt>
      <trkpt lat="44.55368" lon="5.15661">
        <ele>478</ele>
      </trkpt>
      <trkpt lat="44.55395" lon="5.15679">
        <ele>477</ele>
      </trkpt>
      <trkpt lat="44.55449" lon="5.15737">
        <ele>474</ele>
      </trkpt>
      <trkpt lat="44.55457" lon="5.15741">
        <ele>474</ele>
      </trkpt>
      <trkpt lat="44.55471" lon="5.15745">
        <ele>473</ele>
      </trkpt>
      <trkpt lat="44.55564" lon="5.15751">
        <ele>470</ele>
      </trkpt>
      <trkpt lat="44.55579" lon="5.15754">
        <ele>469</ele>
      </trkpt>
      <trkpt lat="44.55637" lon="5.15785">
        <ele>465</ele>
      </trkpt>
      <trkpt lat="44.55651" lon="5.15796">
        <ele>465</ele>
      </trkpt>
      <trkpt lat="44.55662" lon="5.1581">
        <ele>464</ele>
      </trkpt>
      <trkpt lat="44.55677" lon="5.15836">
        <ele>464</ele>
      </trkpt>
      <trkpt lat="44.5568" lon="5.15849">
        <ele>464</ele>
      </trkpt>
      <trkpt lat="44.55681" lon="5.15862">
        <ele>464</ele>
      </trkpt>
      <trkpt lat="44.55674" lon="5.15884">
        <ele>464</ele>
      </trkpt>
      <trkpt lat="44.55656" lon="5.15907">
        <ele>464</ele>
      </trkpt>
      <trkpt lat="44.55652" lon="5.1592">
        <ele>464</ele>
      </trkpt>
      <trkpt lat="44.55652" lon="5.15933">
        <ele>464</ele>
      </trkpt>
      <trkpt lat="44.55656" lon="5.15947">
        <ele>464</ele>
      </trkpt>
      <trkpt lat="44.55668" lon="5.15964">
        <ele>464</ele>
      </trkpt>
      <trkpt lat="44.55682" lon="5.15977">
        <ele>464</ele>
      </trkpt>
      <trkpt lat="44.55697" lon="5.15989">
        <ele>463</ele>
      </trkpt>
      <trkpt lat="44.5584" lon="5.16087">
        <ele>460</ele>
      </trkpt>
      <trkpt lat="44.55848" lon="5.161">
        <ele>461</ele>
      </trkpt>
      <trkpt lat="44.55851" lon="5.16111">
        <ele>461</ele>
      </trkpt>
      <trkpt lat="44.5585" lon="5.16124">
        <ele>462</ele>
      </trkpt>
      <trkpt lat="44.55847" lon="5.16135">
        <ele>462</ele>
      </trkpt>
      <trkpt lat="44.55765" lon="5.16202">
        <ele>465</ele>
      </trkpt>
      <trkpt lat="44.5575" lon="5.1622">
        <ele>465</ele>
      </trkpt>
      <trkpt lat="44.55721" lon="5.16282">
        <ele>466</ele>
      </trkpt>
      <trkpt lat="44.55709" lon="5.16295">
        <ele>466</ele>
      </trkpt>
      <trkpt lat="44.5567" lon="5.16316">
        <ele>465</ele>
      </trkpt>
      <trkpt lat="44.55647" lon="5.16331">
        <ele>466</ele>
      </trkpt>
      <trkpt lat="44.55609" lon="5.16372">
        <ele>467</ele>
      </trkpt>
      <trkpt lat="44.5558" lon="5.16397">
        <ele>467</ele>
      </trkpt>
      <trkpt lat="44.55566" lon="5.16417">
        <ele>467</ele>
      </trkpt>
      <trkpt lat="44.55553" lon="5.16451">
        <ele>467</ele>
      </trkpt>
      <trkpt lat="44.55523" lon="5.16551">
        <ele>471</ele>
      </trkpt>
      <trkpt lat="44.55515" lon="5.16584">
        <ele>473</ele>
      </trkpt>
      <trkpt lat="44.55517" lon="5.16593">
        <ele>474</ele>
      </trkpt>
      <trkpt lat="44.55534" lon="5.16601">
        <ele>475</ele>
      </trkpt>
      <trkpt lat="44.55575" lon="5.16601">
        <ele>480</ele>
      </trkpt>
      <trkpt lat="44.55596" lon="5.16598">
        <ele>481</ele>
      </trkpt>
      <trkpt lat="44.55627" lon="5.1657">
        <ele>482</ele>
      </trkpt>
      <trkpt lat="44.55632" lon="5.16577">
        <ele>482</ele>
      </trkpt>
      <trkpt lat="44.55591" lon="5.1661">
        <ele>482</ele>
      </trkpt>
      <trkpt lat="44.55572" lon="5.16628">
        <ele>482</ele>
      </trkpt>
      <trkpt lat="44.5556" lon="5.16669">
        <ele>483</ele>
      </trkpt>
      <trkpt lat="44.55556" lon="5.16701">
        <ele>486</ele>
      </trkpt>
      <trkpt lat="44.55556" lon="5.16756">
        <ele>490</ele>
      </trkpt>
      <trkpt lat="44.5555" lon="5.16808">
        <ele>490</ele>
      </trkpt>
      <trkpt lat="44.55514" lon="5.16932">
        <ele>483</ele>
      </trkpt>
      <trkpt lat="44.55445" lon="5.17185">
        <ele>482</ele>
      </trkpt>
      <trkpt lat="44.55434" lon="5.17209">
        <ele>484</ele>
      </trkpt>
      <trkpt lat="44.55413" lon="5.17246">
        <ele>487</ele>
      </trkpt>
      <trkpt lat="44.5525" lon="5.17501">
        <ele>497</ele>
      </trkpt>
      <trkpt lat="44.55235" lon="5.1753">
        <ele>499</ele>
      </trkpt>
      <trkpt lat="44.55167" lon="5.17679">
        <ele>513</ele>
      </trkpt>
      <trkpt lat="44.55157" lon="5.17705">
        <ele>514</ele>
      </trkpt>
      <trkpt lat="44.55149" lon="5.17751">
        <ele>516</ele>
      </trkpt>
      <trkpt lat="44.55135" lon="5.17796">
        <ele>523</ele>
      </trkpt>
      <trkpt lat="44.55131" lon="5.17815">
        <ele>527</ele>
      </trkpt>
      <trkpt lat="44.5513" lon="5.17859">
        <ele>537</ele>
      </trkpt>
      <trkpt lat="44.55121" lon="5.17886">
        <ele>537</ele>
      </trkpt>
      <trkpt lat="44.55102" lon="5.17924">
        <ele>538</ele>
      </trkpt>
      <trkpt lat="44.55088" lon="5.17974">
        <ele>527</ele>
      </trkpt>
      <trkpt lat="44.55069" lon="5.18108">
        <ele>535</ele>
      </trkpt>
      <trkpt lat="44.55055" lon="5.18164">
        <ele>535</ele>
      </trkpt>
      <trkpt lat="44.55055" lon="5.18184">
        <ele>534</ele>
      </trkpt>
      <trkpt lat="44.55062" lon="5.18203">
        <ele>532</ele>
      </trkpt>
      <trkpt lat="44.55093" lon="5.18253">
        <ele>528</ele>
      </trkpt>
      <trkpt lat="44.55106" lon="5.18286">
        <ele>524</ele>
      </trkpt>
      <trkpt lat="44.55109" lon="5.1832">
        <ele>521</ele>
      </trkpt>
      <trkpt lat="44.55109" lon="5.18334">
        <ele>522</ele>
      </trkpt>
      <trkpt lat="44.55103" lon="5.18358">
        <ele>525</ele>
      </trkpt>
      <trkpt lat="44.55057" lon="5.18445">
        <ele>536</ele>
      </trkpt>
      <trkpt lat="44.55012" lon="5.18506">
        <ele>539</ele>
      </trkpt>
      <trkpt lat="44.54988" lon="5.18566">
        <ele>552</ele>
      </trkpt>
      <trkpt lat="44.54973" lon="5.18586">
        <ele>546</ele>
      </trkpt>
      <trkpt lat="44.54959" lon="5.186">
        <ele>541</ele>
      </trkpt>
      <trkpt lat="44.54908" lon="5.18638">
        <ele>539</ele>
      </trkpt>
      <trkpt lat="44.5486" lon="5.1867">
        <ele>538</ele>
      </trkpt>
      <trkpt lat="44.54823" lon="5.18714">
        <ele>546</ele>
      </trkpt>
      <trkpt lat="44.54805" lon="5.18732">
        <ele>546</ele>
      </trkpt>
      <trkpt lat="44.54793" lon="5.18736">
        <ele>546</ele>
      </trkpt>
      <trkpt lat="44.54782" lon="5.18736">
        <ele>543</ele>
      </trkpt>
      <trkpt lat="44.54757" lon="5.18727">
        <ele>535</ele>
      </trkpt>
      <trkpt lat="44.54738" lon="5.18724">
        <ele>537</ele>
      </trkpt>
      <trkpt lat="44.54673" lon="5.18731">
        <ele>546</ele>
      </trkpt>
      <trkpt lat="44.54652" lon="5.18741">
        <ele>549</ele>
      </trkpt>
      <trkpt lat="44.54583" lon="5.18825">
        <ele>563</ele>
      </trkpt>
      <trkpt lat="44.54561" lon="5.18839">
        <ele>563</ele>
      </trkpt>
      <trkpt lat="44.54523" lon="5.18847">
        <ele>562</ele>
      </trkpt>
      <trkpt lat="44.54452" lon="5.18851">
        <ele>553</ele>
      </trkpt>
      <trkpt lat="44.54431" lon="5.18862">
        <ele>553</ele>
      </trkpt>
      <trkpt lat="44.54402" lon="5.18891">
        <ele>554</ele>
      </trkpt>
      <trkpt lat="44.54351" lon="5.18978">
        <ele>572</ele>
      </trkpt>
      <trkpt lat="44.54314" lon="5.19022">
        <ele>564</ele>
      </trkpt>
      <trkpt lat="44.54253" lon="5.19077">
        <ele>565</ele>
      </trkpt>
      <trkpt lat="44.5418" lon="5.1912">
        <ele>561</ele>
      </trkpt>
      <trkpt lat="44.54116" lon="5.19176">
        <ele>559</ele>
      </trkpt>
      <trkpt lat="44.54103" lon="5.19196">
        <ele>564</ele>
      </trkpt>
      <trkpt lat="44.54085" lon="5.19256">
        <ele>577</ele>
      </trkpt>
      <trkpt lat="44.54078" lon="5.19276">
        <ele>574</ele>
      </trkpt>
      <trkpt lat="44.54039" lon="5.19342">
        <ele>565</ele>
      </trkpt>
      <trkpt lat="44.54031" lon="5.19371">
        <ele>571</ele>
      </trkpt>
      <trkpt lat="44.54025" lon="5.19426">
        <ele>583</ele>
      </trkpt>
      <trkpt lat="44.54016" lon="5.19453">
        <ele>579</ele>
      </trkpt>
      <trkpt lat="44.54008" lon="5.1947">
        <ele>577</ele>
      </trkpt>
      <trkpt lat="44.53995" lon="5.1949">
        <ele>573</ele>
      </trkpt>
      <trkpt lat="44.53972" lon="5.19514">
        <ele>566</ele>
      </trkpt>
      <trkpt lat="44.5395" lon="5.19535">
        <ele>562</ele>
      </trkpt>
      <trkpt lat="44.53939" lon="5.19551">
        <ele>560</ele>
      </trkpt>
      <trkpt lat="44.5393" lon="5.19568">
        <ele>561</ele>
      </trkpt>
      <trkpt lat="44.53925" lon="5.19584">
        <ele>561</ele>
      </trkpt>
      <trkpt lat="44.53914" lon="5.19628">
        <ele>563</ele>
      </trkpt>
      <trkpt lat="44.53908" lon="5.19647">
        <ele>564</ele>
      </trkpt>
      <trkpt lat="44.53845" lon="5.19796">
        <ele>569</ele>
      </trkpt>
      <trkpt lat="44.53826" lon="5.19827">
        <ele>571</ele>
      </trkpt>
      <trkpt lat="44.53789" lon="5.1987">
        <ele>573</ele>
      </trkpt>
      <trkpt lat="44.53733" lon="5.19952">
        <ele>579</ele>
      </trkpt>
      <trkpt lat="44.53693" lon="5.20003">
        <ele>576</ele>
      </trkpt>
      <trkpt lat="44.53681" lon="5.20021">
        <ele>577</ele>
      </trkpt>
      <trkpt lat="44.53672" lon="5.20037">
        <ele>578</ele>
      </trkpt>
      <trkpt lat="44.53662" lon="5.20065">
        <ele>580</ele>
      </trkpt>
      <trkpt lat="44.53649" lon="5.2009">
        <ele>578</ele>
      </trkpt>
      <trkpt lat="44.53606" lon="5.20154">
        <ele>573</ele>
      </trkpt>
      <trkpt lat="44.53593" lon="5.20175">
        <ele>573</ele>
      </trkpt>
      <trkpt lat="44.53582" lon="5.20199">
        <ele>572</ele>
      </trkpt>
      <trkpt lat="44.5356" lon="5.20235">
        <ele>574</ele>
      </trkpt>
      <trkpt lat="44.53546" lon="5.20255">
        <ele>573</ele>
      </trkpt>
      <trkpt lat="44.53539" lon="5.20268">
        <ele>572</ele>
      </trkpt>
      <trkpt lat="44.53536" lon="5.20279">
        <ele>571</ele>
      </trkpt>
      <trkpt lat="44.53529" lon="5.20329">
        <ele>575</ele>
      </trkpt>
      <trkpt lat="44.53528" lon="5.20351">
        <ele>577</ele>
      </trkpt>
      <trkpt lat="44.5353" lon="5.20402">
        <ele>581</ele>
      </trkpt>
      <trkpt lat="44.53528" lon="5.20432">
        <ele>584</ele>
      </trkpt>
      <trkpt lat="44.53523" lon="5.2047">
        <ele>588</ele>
      </trkpt>
      <trkpt lat="44.53509" lon="5.20515">
        <ele>589</ele>
      </trkpt>
      <trkpt lat="44.53498" lon="5.20533">
        <ele>587</ele>
      </trkpt>
      <trkpt lat="44.53488" lon="5.20545">
        <ele>585</ele>
      </trkpt>
      <trkpt lat="44.53471" lon="5.20556">
        <ele>582</ele>
      </trkpt>
      <trkpt lat="44.53451" lon="5.20567">
        <ele>580</ele>
      </trkpt>
      <trkpt lat="44.53398" lon="5.20587">
        <ele>574</ele>
      </trkpt>
      <trkpt lat="44.53382" lon="5.20596">
        <ele>576</ele>
      </trkpt>
      <trkpt lat="44.53374" lon="5.20603">
        <ele>576</ele>
      </trkpt>
      <trkpt lat="44.53363" lon="5.20619">
        <ele>578</ele>
      </trkpt>
      <trkpt lat="44.53352" lon="5.20641">
        <ele>577</ele>
      </trkpt>
      <trkpt lat="44.53346" lon="5.20666">
        <ele>576</ele>
      </trkpt>
      <trkpt lat="44.53323" lon="5.20829">
        <ele>583</ele>
      </trkpt>
      <trkpt lat="44.53313" lon="5.20873">
        <ele>582</ele>
      </trkpt>
      <trkpt lat="44.5329" lon="5.20944">
        <ele>580</ele>
      </trkpt>
      <trkpt lat="44.53285" lon="5.2097">
        <ele>580</ele>
      </trkpt>
      <trkpt lat="44.53286" lon="5.20988">
        <ele>580</ele>
      </trkpt>
      <trkpt lat="44.53291" lon="5.2101">
        <ele>580</ele>
      </trkpt>
      <trkpt lat="44.53327" lon="5.21114">
        <ele>586</ele>
      </trkpt>
      <trkpt lat="44.53351" lon="5.21177">
        <ele>585</ele>
      </trkpt>
      <trkpt lat="44.5336" lon="5.21192">
        <ele>586</ele>
      </trkpt>
      <trkpt lat="44.53392" lon="5.21227">
        <ele>587</ele>
      </trkpt>
      <trkpt lat="44.53414" lon="5.21254">
        <ele>588</ele>
      </trkpt>
      <trkpt lat="44.5343" lon="5.21278">
        <ele>589</ele>
      </trkpt>
      <trkpt lat="44.53453" lon="5.21324">
        <ele>591</ele>
      </trkpt>
      <trkpt lat="44.53461" lon="5.2135">
        <ele>591</ele>
      </trkpt>
      <trkpt lat="44.53463" lon="5.2136">
        <ele>592</ele>
      </trkpt>
      <trkpt lat="44.5346" lon="5.21388">
        <ele>592</ele>
      </trkpt>
      <trkpt lat="44.53455" lon="5.21399">
        <ele>591</ele>
      </trkpt>
      <trkpt lat="44.53381" lon="5.21516">
        <ele>589</ele>
      </trkpt>
      <trkpt lat="44.53363" lon="5.21533">
        <ele>589</ele>
      </trkpt>
      <trkpt lat="44.53152" lon="5.2168">
        <ele>590</ele>
      </trkpt>
      <trkpt lat="44.52819" lon="5.21846">
        <ele>592</ele>
      </trkpt>
      <trkpt lat="44.52772" lon="5.21871">
        <ele>591</ele>
      </trkpt>
      <trkpt lat="44.5275" lon="5.21881">
        <ele>590</ele>
      </trkpt>
      <trkpt lat="44.52735" lon="5.21884">
        <ele>590</ele>
      </trkpt>
      <trkpt lat="44.52716" lon="5.21883">
        <ele>590</ele>
      </trkpt>
      <trkpt lat="44.52473" lon="5.21824">
        <ele>592</ele>
      </trkpt>
      <trkpt lat="44.52408" lon="5.21821">
        <ele>594</ele>
      </trkpt>
      <trkpt lat="44.52383" lon="5.21815">
        <ele>595</ele>
      </trkpt>
      <trkpt lat="44.52369" lon="5.2181">
        <ele>595</ele>
      </trkpt>
      <trkpt lat="44.5235" lon="5.21798">
        <ele>595</ele>
      </trkpt>
      <trkpt lat="44.52297" lon="5.21755">
        <ele>594</ele>
      </trkpt>
      <trkpt lat="44.52271" lon="5.21745">
        <ele>595</ele>
      </trkpt>
      <trkpt lat="44.52245" lon="5.21751">
        <ele>596</ele>
      </trkpt>
      <trkpt lat="44.52215" lon="5.21763">
        <ele>598</ele>
      </trkpt>
      <trkpt lat="44.52202" lon="5.21765">
        <ele>599</ele>
      </trkpt>
      <trkpt lat="44.52182" lon="5.21761">
        <ele>599</ele>
      </trkpt>
      <trkpt lat="44.52025" lon="5.2169">
        <ele>602</ele>
      </trkpt>
      <trkpt lat="44.51976" lon="5.21674">
        <ele>607</ele>
      </trkpt>
      <trkpt lat="44.51954" lon="5.21656">
        <ele>609</ele>
      </trkpt>
      <trkpt lat="44.51934" lon="5.21634">
        <ele>611</ele>
      </trkpt>
      <trkpt lat="44.5192" lon="5.21623">
        <ele>611</ele>
      </trkpt>
      <trkpt lat="44.51866" lon="5.21584">
        <ele>611</ele>
      </trkpt>
      <trkpt lat="44.51849" lon="5.21576">
        <ele>611</ele>
      </trkpt>
      <trkpt lat="44.51776" lon="5.21556">
        <ele>612</ele>
      </trkpt>
      <trkpt lat="44.51758" lon="5.21555">
        <ele>613</ele>
      </trkpt>
      <trkpt lat="44.51694" lon="5.2156">
        <ele>615</ele>
      </trkpt>
      <trkpt lat="44.51672" lon="5.21591">
        <ele>617</ele>
      </trkpt>
      <trkpt lat="44.51653" lon="5.2161">
        <ele>618</ele>
      </trkpt>
      <trkpt lat="44.51624" lon="5.21648">
        <ele>620</ele>
      </trkpt>
      <trkpt lat="44.51601" lon="5.21668">
        <ele>621</ele>
      </trkpt>
      <trkpt lat="44.51577" lon="5.21706">
        <ele>622</ele>
      </trkpt>
      <trkpt lat="44.5155" lon="5.21807">
        <ele>629</ele>
      </trkpt>
      <trkpt lat="44.51538" lon="5.2186">
        <ele>631</ele>
      </trkpt>
      <trkpt lat="44.51519" lon="5.21894">
        <ele>634</ele>
      </trkpt>
      <trkpt lat="44.51477" lon="5.21982">
        <ele>643</ele>
      </trkpt>
      <trkpt lat="44.51436" lon="5.22096">
        <ele>650</ele>
      </trkpt>
      <trkpt lat="44.51428" lon="5.22146">
        <ele>649</ele>
      </trkpt>
      <trkpt lat="44.51412" lon="5.22218">
        <ele>655</ele>
      </trkpt>
      <trkpt lat="44.51403" lon="5.22247">
        <ele>653</ele>
      </trkpt>
      <trkpt lat="44.51393" lon="5.22275">
        <ele>651</ele>
      </trkpt>
      <trkpt lat="44.51339" lon="5.22377">
        <ele>657</ele>
      </trkpt>
      <trkpt lat="44.51327" lon="5.22405">
        <ele>658</ele>
      </trkpt>
      <trkpt lat="44.51319" lon="5.22429">
        <ele>659</ele>
      </trkpt>
      <trkpt lat="44.5131" lon="5.22479">
        <ele>666</ele>
      </trkpt>
      <trkpt lat="44.51298" lon="5.22539">
        <ele>672</ele>
      </trkpt>
      <trkpt lat="44.51296" lon="5.22549">
        <ele>673</ele>
      </trkpt>
      <trkpt lat="44.51299" lon="5.22594">
        <ele>680</ele>
      </trkpt>
      <trkpt lat="44.51298" lon="5.22612">
        <ele>682</ele>
      </trkpt>
      <trkpt lat="44.51297" lon="5.22632">
        <ele>685</ele>
      </trkpt>
      <trkpt lat="44.51293" lon="5.22654">
        <ele>688</ele>
      </trkpt>
      <trkpt lat="44.51288" lon="5.22673">
        <ele>684</ele>
      </trkpt>
      <trkpt lat="44.51261" lon="5.22719">
        <ele>672</ele>
      </trkpt>
      <trkpt lat="44.51253" lon="5.22735">
        <ele>673</ele>
      </trkpt>
      <trkpt lat="44.51248" lon="5.22748">
        <ele>674</ele>
      </trkpt>
      <trkpt lat="44.51246" lon="5.22772">
        <ele>675</ele>
      </trkpt>
      <trkpt lat="44.51248" lon="5.2279">
        <ele>675</ele>
      </trkpt>
      <trkpt lat="44.51252" lon="5.22806">
        <ele>675</ele>
      </trkpt>
      <trkpt lat="44.51301" lon="5.22893">
        <ele>675</ele>
      </trkpt>
      <trkpt lat="44.5131" lon="5.22913">
        <ele>676</ele>
      </trkpt>
      <trkpt lat="44.51315" lon="5.22927">
        <ele>676</ele>
      </trkpt>
      <trkpt lat="44.51316" lon="5.22941">
        <ele>677</ele>
      </trkpt>
      <trkpt lat="44.51313" lon="5.2296">
        <ele>680</ele>
      </trkpt>
      <trkpt lat="44.51308" lon="5.22971">
        <ele>682</ele>
      </trkpt>
      <trkpt lat="44.513" lon="5.22981">
        <ele>684</ele>
      </trkpt>
      <trkpt lat="44.51275" lon="5.23003">
        <ele>683</ele>
      </trkpt>
      <trkpt lat="44.51258" lon="5.23024">
        <ele>683</ele>
      </trkpt>
      <trkpt lat="44.51232" lon="5.23065">
        <ele>686</ele>
      </trkpt>
      <trkpt lat="44.51223" lon="5.23076">
        <ele>686</ele>
      </trkpt>
      <trkpt lat="44.51195" lon="5.23095">
        <ele>685</ele>
      </trkpt>
      <trkpt lat="44.51193" lon="5.23105">
        <ele>686</ele>
      </trkpt>
      <trkpt lat="44.51197" lon="5.23112">
        <ele>686</ele>
      </trkpt>
      <trkpt lat="44.51201" lon="5.23113">
        <ele>687</ele>
      </trkpt>
      <trkpt lat="44.51214" lon="5.23108">
        <ele>688</ele>
      </trkpt>
      <trkpt lat="44.51269" lon="5.23053">
        <ele>695</ele>
      </trkpt>
      <trkpt lat="44.51285" lon="5.23042">
        <ele>695</ele>
      </trkpt>
      <trkpt lat="44.51298" lon="5.23036">
        <ele>694</ele>
      </trkpt>
      <trkpt lat="44.51318" lon="5.2303">
        <ele>694</ele>
      </trkpt>
      <trkpt lat="44.51419" lon="5.23014">
        <ele>701</ele>
      </trkpt>
      <trkpt lat="44.51423" lon="5.23019">
        <ele>701</ele>
      </trkpt>
      <trkpt lat="44.51424" lon="5.23026">
        <ele>701</ele>
      </trkpt>
      <trkpt lat="44.51422" lon="5.23033">
        <ele>701</ele>
      </trkpt>
      <trkpt lat="44.51412" lon="5.2304">
        <ele>701</ele>
      </trkpt>
      <trkpt lat="44.5137" lon="5.23042">
        <ele>702</ele>
      </trkpt>
      <trkpt lat="44.51329" lon="5.23055">
        <ele>702</ele>
      </trkpt>
      <trkpt lat="44.51318" lon="5.23062">
        <ele>704</ele>
      </trkpt>
      <trkpt lat="44.51308" lon="5.23072">
        <ele>706</ele>
      </trkpt>
      <trkpt lat="44.51302" lon="5.23082">
        <ele>707</ele>
      </trkpt>
      <trkpt lat="44.51298" lon="5.23096">
        <ele>709</ele>
      </trkpt>
      <trkpt lat="44.51298" lon="5.23108">
        <ele>711</ele>
      </trkpt>
      <trkpt lat="44.51301" lon="5.23155">
        <ele>718</ele>
      </trkpt>
      <trkpt lat="44.51301" lon="5.23187">
        <ele>720</ele>
      </trkpt>
      <trkpt lat="44.51298" lon="5.23223">
        <ele>722</ele>
      </trkpt>
      <trkpt lat="44.51273" lon="5.23316">
        <ele>724</ele>
      </trkpt>
      <trkpt lat="44.51266" lon="5.23336">
        <ele>725</ele>
      </trkpt>
      <trkpt lat="44.51222" lon="5.23415">
        <ele>728</ele>
      </trkpt>
      <trkpt lat="44.51211" lon="5.23427">
        <ele>728</ele>
      </trkpt>
      <trkpt lat="44.51174" lon="5.23449">
        <ele>728</ele>
      </trkpt>
      <trkpt lat="44.51164" lon="5.23459">
        <ele>731</ele>
      </trkpt>
      <trkpt lat="44.51158" lon="5.23468">
        <ele>732</ele>
      </trkpt>
      <trkpt lat="44.51155" lon="5.23475">
        <ele>734</ele>
      </trkpt>
      <trkpt lat="44.51148" lon="5.23509">
        <ele>739</ele>
      </trkpt>
      <trkpt lat="44.51142" lon="5.23526">
        <ele>740</ele>
      </trkpt>
      <trkpt lat="44.51134" lon="5.23543">
        <ele>742</ele>
      </trkpt>
      <trkpt lat="44.5112" lon="5.23562">
        <ele>744</ele>
      </trkpt>
      <trkpt lat="44.51112" lon="5.23571">
        <ele>745</ele>
      </trkpt>
      <trkpt lat="44.51099" lon="5.23582">
        <ele>747</ele>
      </trkpt>
      <trkpt lat="44.51079" lon="5.23591">
        <ele>750</ele>
      </trkpt>
      <trkpt lat="44.51058" lon="5.23605">
        <ele>750</ele>
      </trkpt>
      <trkpt lat="44.51008" lon="5.23652">
        <ele>750</ele>
      </trkpt>
      <trkpt lat="44.50946" lon="5.23691">
        <ele>747</ele>
      </trkpt>
      <trkpt lat="44.50864" lon="5.23749">
        <ele>758</ele>
      </trkpt>
      <trkpt lat="44.50849" lon="5.23764">
        <ele>759</ele>
      </trkpt>
      <trkpt lat="44.50819" lon="5.23803">
        <ele>760</ele>
      </trkpt>
      <trkpt lat="44.50799" lon="5.2382">
        <ele>762</ele>
      </trkpt>
      <trkpt lat="44.50784" lon="5.23841">
        <ele>764</ele>
      </trkpt>
      <trkpt lat="44.50781" lon="5.23853">
        <ele>765</ele>
      </trkpt>
      <trkpt lat="44.50781" lon="5.23864">
        <ele>767</ele>
      </trkpt>
      <trkpt lat="44.50789" lon="5.23931">
        <ele>775</ele>
      </trkpt>
      <trkpt lat="44.50788" lon="5.23945">
        <ele>774</ele>
      </trkpt>
      <trkpt lat="44.50782" lon="5.23968">
        <ele>772</ele>
      </trkpt>
      <trkpt lat="44.50762" lon="5.24003">
        <ele>768</ele>
      </trkpt>
      <trkpt lat="44.50757" lon="5.24017">
        <ele>770</ele>
      </trkpt>
      <trkpt lat="44.50755" lon="5.24028">
        <ele>771</ele>
      </trkpt>
      <trkpt lat="44.50764" lon="5.24179">
        <ele>788</ele>
      </trkpt>
      <trkpt lat="44.50763" lon="5.24195">
        <ele>789</ele>
      </trkpt>
      <trkpt lat="44.50752" lon="5.24271">
        <ele>793</ele>
      </trkpt>
      <trkpt lat="44.50742" lon="5.24319">
        <ele>798</ele>
      </trkpt>
      <trkpt lat="44.50739" lon="5.24328">
        <ele>799</ele>
      </trkpt>
      <trkpt lat="44.50738" lon="5.2434">
        <ele>799</ele>
      </trkpt>
      <trkpt lat="44.5074" lon="5.24349">
        <ele>800</ele>
      </trkpt>
      <trkpt lat="44.50744" lon="5.24353">
        <ele>800</ele>
      </trkpt>
      <trkpt lat="44.50752" lon="5.24352">
        <ele>801</ele>
      </trkpt>
      <trkpt lat="44.50758" lon="5.24337">
        <ele>802</ele>
      </trkpt>
      <trkpt lat="44.50772" lon="5.24272">
        <ele>808</ele>
      </trkpt>
      <trkpt lat="44.50788" lon="5.24217">
        <ele>808</ele>
      </trkpt>
      <trkpt lat="44.50791" lon="5.24162">
        <ele>804</ele>
      </trkpt>
      <trkpt lat="44.508" lon="5.24085">
        <ele>800</ele>
      </trkpt>
      <trkpt lat="44.50802" lon="5.24079">
        <ele>801</ele>
      </trkpt>
      <trkpt lat="44.50807" lon="5.24077">
        <ele>802</ele>
      </trkpt>
      <trkpt lat="44.50811" lon="5.24078">
        <ele>803</ele>
      </trkpt>
      <trkpt lat="44.50815" lon="5.24085">
        <ele>804</ele>
      </trkpt>
      <trkpt lat="44.50816" lon="5.24091">
        <ele>805</ele>
      </trkpt>
      <trkpt lat="44.50811" lon="5.2411">
        <ele>808</ele>
      </trkpt>
      <trkpt lat="44.50806" lon="5.24124">
        <ele>811</ele>
      </trkpt>
      <trkpt lat="44.50803" lon="5.24139">
        <ele>814</ele>
      </trkpt>
      <trkpt lat="44.50803" lon="5.24159">
        <ele>818</ele>
      </trkpt>
      <trkpt lat="44.50806" lon="5.24229">
        <ele>826</ele>
      </trkpt>
      <trkpt lat="44.50803" lon="5.24261">
        <ele>827</ele>
      </trkpt>
      <trkpt lat="44.50796" lon="5.24296">
        <ele>829</ele>
      </trkpt>
      <trkpt lat="44.50793" lon="5.24376">
        <ele>835</ele>
      </trkpt>
      <trkpt lat="44.50779" lon="5.24464">
        <ele>832</ele>
      </trkpt>
      <trkpt lat="44.50775" lon="5.24499">
        <ele>833</ele>
      </trkpt>
      <trkpt lat="44.50772" lon="5.24575">
        <ele>834</ele>
      </trkpt>
      <trkpt lat="44.5077" lon="5.24648">
        <ele>837</ele>
      </trkpt>
      <trkpt lat="44.50772" lon="5.24729">
        <ele>835</ele>
      </trkpt>
      <trkpt lat="44.50779" lon="5.24814">
        <ele>826</ele>
      </trkpt>
      <trkpt lat="44.50781" lon="5.24838">
        <ele>824</ele>
      </trkpt>
      <trkpt lat="44.50788" lon="5.24871">
        <ele>822</ele>
      </trkpt>
      <trkpt lat="44.50791" lon="5.24945">
        <ele>826</ele>
      </trkpt>
      <trkpt lat="44.50786" lon="5.24977">
        <ele>825</ele>
      </trkpt>
      <trkpt lat="44.50775" lon="5.24991">
        <ele>825</ele>
      </trkpt>
      <trkpt lat="44.50759" lon="5.25003">
        <ele>825</ele>
      </trkpt>
      <trkpt lat="44.50751" lon="5.25015">
        <ele>825</ele>
      </trkpt>
      <trkpt lat="44.50747" lon="5.25029">
        <ele>825</ele>
      </trkpt>
      <trkpt lat="44.50744" lon="5.25054">
        <ele>823</ele>
      </trkpt>
      <trkpt lat="44.50717" lon="5.2515">
        <ele>814</ele>
      </trkpt>
      <trkpt lat="44.50698" lon="5.25193">
        <ele>818</ele>
      </trkpt>
      <trkpt lat="44.50584" lon="5.25343">
        <ele>809</ele>
      </trkpt>
      <trkpt lat="44.50538" lon="5.25409">
        <ele>811</ele>
      </trkpt>
      <trkpt lat="44.50515" lon="5.25447">
        <ele>807</ele>
      </trkpt>
      <trkpt lat="44.50506" lon="5.25474">
        <ele>805</ele>
      </trkpt>
      <trkpt lat="44.505" lon="5.25499">
        <ele>804</ele>
      </trkpt>
      <trkpt lat="44.50496" lon="5.25538">
        <ele>803</ele>
      </trkpt>
      <trkpt lat="44.50496" lon="5.25561">
        <ele>802</ele>
      </trkpt>
      <trkpt lat="44.50498" lon="5.25585">
        <ele>804</ele>
      </trkpt>
      <trkpt lat="44.50506" lon="5.25616">
        <ele>806</ele>
      </trkpt>
      <trkpt lat="44.50514" lon="5.25631">
        <ele>806</ele>
      </trkpt>
      <trkpt lat="44.50535" lon="5.2565">
        <ele>806</ele>
      </trkpt>
      <trkpt lat="44.5055" lon="5.25655">
        <ele>803</ele>
      </trkpt>
      <trkpt lat="44.50581" lon="5.25662">
        <ele>796</ele>
      </trkpt>
      <trkpt lat="44.50595" lon="5.25669">
        <ele>796</ele>
      </trkpt>
      <trkpt lat="44.50607" lon="5.25677">
        <ele>797</ele>
      </trkpt>
      <trkpt lat="44.50634" lon="5.25706">
        <ele>798</ele>
      </trkpt>
      <trkpt lat="44.50654" lon="5.25734">
        <ele>798</ele>
      </trkpt>
      <trkpt lat="44.50664" lon="5.25749">
        <ele>798</ele>
      </trkpt>
      <trkpt lat="44.50673" lon="5.25773">
        <ele>798</ele>
      </trkpt>
      <trkpt lat="44.50676" lon="5.25785">
        <ele>798</ele>
      </trkpt>
      <trkpt lat="44.5068" lon="5.2581">
        <ele>798</ele>
      </trkpt>
      <trkpt lat="44.50682" lon="5.25836">
        <ele>797</ele>
      </trkpt>
      <trkpt lat="44.50684" lon="5.25879">
        <ele>794</ele>
      </trkpt>
      <trkpt lat="44.50695" lon="5.25965">
        <ele>794</ele>
      </trkpt>
      <trkpt lat="44.50707" lon="5.26022">
        <ele>793</ele>
      </trkpt>
      <trkpt lat="44.50717" lon="5.26054">
        <ele>791</ele>
      </trkpt>
      <trkpt lat="44.50723" lon="5.26105">
        <ele>789</ele>
      </trkpt>
      <trkpt lat="44.50727" lon="5.26115">
        <ele>789</ele>
      </trkpt>
      <trkpt lat="44.50729" lon="5.26129">
        <ele>789</ele>
      </trkpt>
      <trkpt lat="44.50728" lon="5.26167">
        <ele>788</ele>
      </trkpt>
      <trkpt lat="44.50723" lon="5.26201">
        <ele>791</ele>
      </trkpt>
      <trkpt lat="44.50719" lon="5.26218">
        <ele>793</ele>
      </trkpt>
      <trkpt lat="44.50721" lon="5.26228">
        <ele>793</ele>
      </trkpt>
      <trkpt lat="44.5073" lon="5.26238">
        <ele>792</ele>
      </trkpt>
      <trkpt lat="44.50741" lon="5.26247">
        <ele>791</ele>
      </trkpt>
      <trkpt lat="44.5076" lon="5.26272">
        <ele>790</ele>
      </trkpt>
      <trkpt lat="44.50774" lon="5.26299">
        <ele>787</ele>
      </trkpt>
      <trkpt lat="44.50791" lon="5.26341">
        <ele>783</ele>
      </trkpt>
      <trkpt lat="44.50801" lon="5.2638">
        <ele>781</ele>
      </trkpt>
      <trkpt lat="44.50806" lon="5.26451">
        <ele>777</ele>
      </trkpt>
      <trkpt lat="44.50815" lon="5.26486">
        <ele>778</ele>
      </trkpt>
      <trkpt lat="44.50819" lon="5.26536">
        <ele>779</ele>
      </trkpt>
      <trkpt lat="44.50819" lon="5.26553">
        <ele>779</ele>
      </trkpt>
      <trkpt lat="44.50817" lon="5.26576">
        <ele>779</ele>
      </trkpt>
      <trkpt lat="44.50805" lon="5.26617">
        <ele>778</ele>
      </trkpt>
      <trkpt lat="44.50798" lon="5.26639">
        <ele>781</ele>
      </trkpt>
      <trkpt lat="44.50794" lon="5.26645">
        <ele>782</ele>
      </trkpt>
      <trkpt lat="44.50789" lon="5.26666">
        <ele>784</ele>
      </trkpt>
      <trkpt lat="44.50772" lon="5.26709">
        <ele>783</ele>
      </trkpt>
      <trkpt lat="44.50757" lon="5.26754">
        <ele>783</ele>
      </trkpt>
      <trkpt lat="44.50753" lon="5.26788">
        <ele>782</ele>
      </trkpt>
      <trkpt lat="44.50753" lon="5.2683">
        <ele>780</ele>
      </trkpt>
      <trkpt lat="44.50755" lon="5.2685">
        <ele>781</ele>
      </trkpt>
      <trkpt lat="44.50766" lon="5.26879">
        <ele>782</ele>
      </trkpt>
      <trkpt lat="44.5077" lon="5.26885">
        <ele>782</ele>
      </trkpt>
      <trkpt lat="44.50783" lon="5.26892">
        <ele>783</ele>
      </trkpt>
      <trkpt lat="44.50789" lon="5.26897">
        <ele>783</ele>
      </trkpt>
      <trkpt lat="44.50819" lon="5.26963">
        <ele>786</ele>
      </trkpt>
      <trkpt lat="44.50882" lon="5.27114">
        <ele>791</ele>
      </trkpt>
      <trkpt lat="44.50919" lon="5.2721">
        <ele>802</ele>
      </trkpt>
      <trkpt lat="44.50916" lon="5.27246">
        <ele>804</ele>
      </trkpt>
      <trkpt lat="44.50907" lon="5.27286">
        <ele>807</ele>
      </trkpt>
      <trkpt lat="44.50914" lon="5.27328">
        <ele>809</ele>
      </trkpt>
      <trkpt lat="44.50915" lon="5.27365">
        <ele>810</ele>
      </trkpt>
      <trkpt lat="44.50914" lon="5.2741">
        <ele>811</ele>
      </trkpt>
      <trkpt lat="44.50914" lon="5.27461">
        <ele>813</ele>
      </trkpt>
      <trkpt lat="44.50918" lon="5.27512">
        <ele>815</ele>
      </trkpt>
      <trkpt lat="44.50932" lon="5.27551">
        <ele>818</ele>
      </trkpt>
      <trkpt lat="44.50946" lon="5.27583">
        <ele>820</ele>
      </trkpt>
      <trkpt lat="44.50985" lon="5.27637">
        <ele>824</ele>
      </trkpt>
      <trkpt lat="44.50991" lon="5.2765">
        <ele>825</ele>
      </trkpt>
      <trkpt lat="44.50993" lon="5.27663">
        <ele>826</ele>
      </trkpt>
      <trkpt lat="44.50991" lon="5.27675">
        <ele>828</ele>
      </trkpt>
      <trkpt lat="44.50984" lon="5.27688">
        <ele>829</ele>
      </trkpt>
      <trkpt lat="44.50943" lon="5.27753">
        <ele>832</ele>
      </trkpt>
      <trkpt lat="44.50926" lon="5.27789">
        <ele>834</ele>
      </trkpt>
      <trkpt lat="44.50922" lon="5.27832">
        <ele>837</ele>
      </trkpt>
      <trkpt lat="44.50926" lon="5.27878">
        <ele>839</ele>
      </trkpt>
      <trkpt lat="44.50939" lon="5.27923">
        <ele>841</ele>
      </trkpt>
      <trkpt lat="44.50972" lon="5.28009">
        <ele>845</ele>
      </trkpt>
      <trkpt lat="44.50975" lon="5.28031">
        <ele>845</ele>
      </trkpt>
      <trkpt lat="44.50971" lon="5.28066">
        <ele>844</ele>
      </trkpt>
      <trkpt lat="44.50969" lon="5.28093">
        <ele>845</ele>
      </trkpt>
      <trkpt lat="44.50974" lon="5.28119">
        <ele>846</ele>
      </trkpt>
      <trkpt lat="44.5098" lon="5.28138">
        <ele>847</ele>
      </trkpt>
      <trkpt lat="44.50985" lon="5.28164">
        <ele>848</ele>
      </trkpt>
      <trkpt lat="44.5099" lon="5.28194">
        <ele>849</ele>
      </trkpt>
      <trkpt lat="44.50997" lon="5.28214">
        <ele>850</ele>
      </trkpt>
      <trkpt lat="44.51012" lon="5.28244">
        <ele>851</ele>
      </trkpt>
      <trkpt lat="44.51068" lon="5.28328">
        <ele>855</ele>
      </trkpt>
      <trkpt lat="44.51079" lon="5.28371">
        <ele>856</ele>
      </trkpt>
      <trkpt lat="44.51073" lon="5.28421">
        <ele>858</ele>
      </trkpt>
      <trkpt lat="44.51049" lon="5.28462">
        <ele>858</ele>
      </trkpt>
      <trkpt lat="44.50984" lon="5.28518">
        <ele>864</ele>
      </trkpt>
      <trkpt lat="44.5096" lon="5.28562">
        <ele>863</ele>
      </trkpt>
      <trkpt lat="44.50956" lon="5.28611">
        <ele>864</ele>
      </trkpt>
      <trkpt lat="44.50954" lon="5.28677">
        <ele>862</ele>
      </trkpt>
      <trkpt lat="44.50947" lon="5.28735">
        <ele>861</ele>
      </trkpt>
      <trkpt lat="44.50943" lon="5.28757">
        <ele>863</ele>
      </trkpt>
      <trkpt lat="44.50938" lon="5.28766">
        <ele>864</ele>
      </trkpt>
      <trkpt lat="44.50931" lon="5.28771">
        <ele>865</ele>
      </trkpt>
      <trkpt lat="44.5092" lon="5.28772">
        <ele>867</ele>
      </trkpt>
      <trkpt lat="44.50909" lon="5.2877">
        <ele>870</ele>
      </trkpt>
      <trkpt lat="44.50899" lon="5.28767">
        <ele>873</ele>
      </trkpt>
      <trkpt lat="44.50868" lon="5.28749">
        <ele>882</ele>
      </trkpt>
      <trkpt lat="44.50846" lon="5.28738">
        <ele>883</ele>
      </trkpt>
      <trkpt lat="44.50831" lon="5.28739">
        <ele>884</ele>
      </trkpt>
      <trkpt lat="44.50718" lon="5.28797">
        <ele>888</ele>
      </trkpt>
      <trkpt lat="44.50685" lon="5.28832">
        <ele>888</ele>
      </trkpt>
      <trkpt lat="44.50656" lon="5.28875">
        <ele>889</ele>
      </trkpt>
      <trkpt lat="44.50649" lon="5.28925">
        <ele>892</ele>
      </trkpt>
      <trkpt lat="44.50663" lon="5.28966">
        <ele>893</ele>
      </trkpt>
      <trkpt lat="44.50684" lon="5.29048">
        <ele>895</ele>
      </trkpt>
      <trkpt lat="44.50704" lon="5.2909">
        <ele>898</ele>
      </trkpt>
      <trkpt lat="44.50731" lon="5.29123">
        <ele>898</ele>
      </trkpt>
      <trkpt lat="44.50764" lon="5.29209">
        <ele>901</ele>
      </trkpt>
      <trkpt lat="44.50763" lon="5.29245">
        <ele>904</ele>
      </trkpt>
      <trkpt lat="44.50758" lon="5.29289">
        <ele>908</ele>
      </trkpt>
      <trkpt lat="44.50768" lon="5.29335">
        <ele>908</ele>
      </trkpt>
      <trkpt lat="44.50789" lon="5.29378">
        <ele>912</ele>
      </trkpt>
      <trkpt lat="44.50799" lon="5.2942">
        <ele>915</ele>
      </trkpt>
      <trkpt lat="44.5079" lon="5.29471">
        <ele>919</ele>
      </trkpt>
      <trkpt lat="44.50765" lon="5.2951">
        <ele>916</ele>
      </trkpt>
      <trkpt lat="44.50737" lon="5.2955">
        <ele>910</ele>
      </trkpt>
      <trkpt lat="44.50726" lon="5.29558">
        <ele>909</ele>
      </trkpt>
      <trkpt lat="44.50627" lon="5.29579">
        <ele>909</ele>
      </trkpt>
      <trkpt lat="44.50616" lon="5.29585">
        <ele>909</ele>
      </trkpt>
      <trkpt lat="44.50609" lon="5.29595">
        <ele>909</ele>
      </trkpt>
      <trkpt lat="44.50603" lon="5.29609">
        <ele>909</ele>
      </trkpt>
      <trkpt lat="44.506" lon="5.29647">
        <ele>908</ele>
      </trkpt>
      <trkpt lat="44.50603" lon="5.2967">
        <ele>908</ele>
      </trkpt>
      <trkpt lat="44.50637" lon="5.29836">
        <ele>908</ele>
      </trkpt>
      <trkpt lat="44.50639" lon="5.29861">
        <ele>909</ele>
      </trkpt>
      <trkpt lat="44.50642" lon="5.2988">
        <ele>910</ele>
      </trkpt>
      <trkpt lat="44.50629" lon="5.29942">
        <ele>913</ele>
      </trkpt>
      <trkpt lat="44.506" lon="5.30016">
        <ele>912</ele>
      </trkpt>
      <trkpt lat="44.5054" lon="5.30142">
        <ele>914</ele>
      </trkpt>
      <trkpt lat="44.50528" lon="5.30155">
        <ele>914</ele>
      </trkpt>
      <trkpt lat="44.50494" lon="5.30169">
        <ele>915</ele>
      </trkpt>
      <trkpt lat="44.50485" lon="5.30179">
        <ele>914</ele>
      </trkpt>
      <trkpt lat="44.50478" lon="5.30192">
        <ele>914</ele>
      </trkpt>
      <trkpt lat="44.50475" lon="5.30203">
        <ele>914</ele>
      </trkpt>
      <trkpt lat="44.5045" lon="5.30355">
        <ele>913</ele>
      </trkpt>
      <trkpt lat="44.5045" lon="5.30369">
        <ele>913</ele>
      </trkpt>
      <trkpt lat="44.50459" lon="5.30456">
        <ele>911</ele>
      </trkpt>
      <trkpt lat="44.50478" lon="5.3053">
        <ele>913</ele>
      </trkpt>
      <trkpt lat="44.50479" lon="5.30551">
        <ele>914</ele>
      </trkpt>
      <trkpt lat="44.50472" lon="5.3058">
        <ele>916</ele>
      </trkpt>
      <trkpt lat="44.50461" lon="5.30599">
        <ele>915</ele>
      </trkpt>
      <trkpt lat="44.50355" lon="5.30695">
        <ele>906</ele>
      </trkpt>
      <trkpt lat="44.50308" lon="5.30727">
        <ele>906</ele>
      </trkpt>
      <trkpt lat="44.50179" lon="5.30851">
        <ele>895</ele>
      </trkpt>
      <trkpt lat="44.5016" lon="5.30857">
        <ele>895</ele>
      </trkpt>
      <trkpt lat="44.50118" lon="5.30862">
        <ele>895</ele>
      </trkpt>
      <trkpt lat="44.50056" lon="5.30843">
        <ele>895</ele>
      </trkpt>
      <trkpt lat="44.50023" lon="5.30848">
        <ele>893</ele>
      </trkpt>
      <trkpt lat="44.49947" lon="5.30899">
        <ele>888</ele>
      </trkpt>
      <trkpt lat="44.49914" lon="5.30912">
        <ele>886</ele>
      </trkpt>
      <trkpt lat="44.49898" lon="5.30925">
        <ele>883</ele>
      </trkpt>
      <trkpt lat="44.49856" lon="5.30963">
        <ele>874</ele>
      </trkpt>
      <trkpt lat="44.49846" lon="5.30966">
        <ele>875</ele>
      </trkpt>
      <trkpt lat="44.49835" lon="5.30966">
        <ele>877</ele>
      </trkpt>
      <trkpt lat="44.4981" lon="5.30957">
        <ele>880</ele>
      </trkpt>
      <trkpt lat="44.49799" lon="5.30948">
        <ele>882</ele>
      </trkpt>
      <trkpt lat="44.49764" lon="5.30853">
        <ele>897</ele>
      </trkpt>
      <trkpt lat="44.49758" lon="5.30845">
        <ele>895</ele>
      </trkpt>
      <trkpt lat="44.49753" lon="5.30842">
        <ele>894</ele>
      </trkpt>
      <trkpt lat="44.49746" lon="5.30842">
        <ele>892</ele>
      </trkpt>
      <trkpt lat="44.49714" lon="5.30868">
        <ele>884</ele>
      </trkpt>
      <trkpt lat="44.49691" lon="5.30879">
        <ele>880</ele>
      </trkpt>
      <trkpt lat="44.49671" lon="5.30881">
        <ele>876</ele>
      </trkpt>
      <trkpt lat="44.4965" lon="5.30879">
        <ele>877</ele>
      </trkpt>
      <trkpt lat="44.49629" lon="5.30866">
        <ele>878</ele>
      </trkpt>
      <trkpt lat="44.4962" lon="5.30858">
        <ele>876</ele>
      </trkpt>
      <trkpt lat="44.4961" lon="5.30844">
        <ele>874</ele>
      </trkpt>
      <trkpt lat="44.49596" lon="5.30819">
        <ele>870</ele>
      </trkpt>
      <trkpt lat="44.49556" lon="5.30723">
        <ele>867</ele>
      </trkpt>
      <trkpt lat="44.4952" lon="5.3066">
        <ele>865</ele>
      </trkpt>
      <trkpt lat="44.4949" lon="5.30618">
        <ele>864</ele>
      </trkpt>
      <trkpt lat="44.49466" lon="5.30598">
        <ele>859</ele>
      </trkpt>
      <trkpt lat="44.49398" lon="5.30573">
        <ele>846</ele>
      </trkpt>
      <trkpt lat="44.49377" lon="5.30561">
        <ele>845</ele>
      </trkpt>
      <trkpt lat="44.49361" lon="5.30546">
        <ele>844</ele>
      </trkpt>
      <trkpt lat="44.49346" lon="5.30525">
        <ele>845</ele>
      </trkpt>
      <trkpt lat="44.49299" lon="5.30444">
        <ele>847</ele>
      </trkpt>
      <trkpt lat="44.49275" lon="5.30395">
        <ele>845</ele>
      </trkpt>
      <trkpt lat="44.49267" lon="5.30354">
        <ele>845</ele>
      </trkpt>
      <trkpt lat="44.49268" lon="5.30332">
        <ele>845</ele>
      </trkpt>
      <trkpt lat="44.49279" lon="5.30253">
        <ele>841</ele>
      </trkpt>
      <trkpt lat="44.49279" lon="5.30246">
        <ele>840</ele>
      </trkpt>
      <trkpt lat="44.49277" lon="5.30242">
        <ele>840</ele>
      </trkpt>
      <trkpt lat="44.49272" lon="5.30239">
        <ele>839</ele>
      </trkpt>
      <trkpt lat="44.49267" lon="5.30245">
        <ele>838</ele>
      </trkpt>
      <trkpt lat="44.49262" lon="5.30275">
        <ele>835</ele>
      </trkpt>
      <trkpt lat="44.49247" lon="5.30335">
        <ele>836</ele>
      </trkpt>
      <trkpt lat="44.49245" lon="5.30367">
        <ele>836</ele>
      </trkpt>
      <trkpt lat="44.49247" lon="5.30388">
        <ele>836</ele>
      </trkpt>
      <trkpt lat="44.49275" lon="5.30533">
        <ele>828</ele>
      </trkpt>
      <trkpt lat="44.49284" lon="5.30611">
        <ele>825</ele>
      </trkpt>
      <trkpt lat="44.49281" lon="5.30633">
        <ele>824</ele>
      </trkpt>
      <trkpt lat="44.4927" lon="5.30666">
        <ele>823</ele>
      </trkpt>
      <trkpt lat="44.49232" lon="5.30741">
        <ele>815</ele>
      </trkpt>
      <trkpt lat="44.49229" lon="5.30768">
        <ele>814</ele>
      </trkpt>
      <trkpt lat="44.4923" lon="5.30785">
        <ele>813</ele>
      </trkpt>
      <trkpt lat="44.49276" lon="5.30901">
        <ele>807</ele>
      </trkpt>
      <trkpt lat="44.49314" lon="5.30981">
        <ele>800</ele>
      </trkpt>
      <trkpt lat="44.49328" lon="5.31005">
        <ele>802</ele>
      </trkpt>
      <trkpt lat="44.49353" lon="5.31031">
        <ele>804</ele>
      </trkpt>
      <trkpt lat="44.49361" lon="5.31043">
        <ele>803</ele>
      </trkpt>
      <trkpt lat="44.49371" lon="5.31068">
        <ele>803</ele>
      </trkpt>
      <trkpt lat="44.49374" lon="5.31082">
        <ele>802</ele>
      </trkpt>
      <trkpt lat="44.49375" lon="5.31098">
        <ele>801</ele>
      </trkpt>
      <trkpt lat="44.49368" lon="5.3113">
        <ele>800</ele>
      </trkpt>
      <trkpt lat="44.49364" lon="5.31162">
        <ele>798</ele>
      </trkpt>
      <trkpt lat="44.49368" lon="5.31193">
        <ele>796</ele>
      </trkpt>
      <trkpt lat="44.49402" lon="5.31265">
        <ele>788</ele>
      </trkpt>
      <trkpt lat="44.49417" lon="5.31282">
        <ele>787</ele>
      </trkpt>
      <trkpt lat="44.49446" lon="5.313">
        <ele>785</ele>
      </trkpt>
      <trkpt lat="44.49454" lon="5.31308">
        <ele>785</ele>
      </trkpt>
      <trkpt lat="44.49461" lon="5.3132">
        <ele>784</ele>
      </trkpt>
      <trkpt lat="44.49466" lon="5.31334">
        <ele>783</ele>
      </trkpt>
      <trkpt lat="44.49467" lon="5.31348">
        <ele>783</ele>
      </trkpt>
      <trkpt lat="44.49464" lon="5.31363">
        <ele>783</ele>
      </trkpt>
      <trkpt lat="44.49454" lon="5.31386">
        <ele>782</ele>
      </trkpt>
      <trkpt lat="44.49436" lon="5.31445">
        <ele>781</ele>
      </trkpt>
      <trkpt lat="44.49422" lon="5.31534">
        <ele>778</ele>
      </trkpt>
      <trkpt lat="44.49418" lon="5.31598">
        <ele>774</ele>
      </trkpt>
      <trkpt lat="44.49407" lon="5.31656">
        <ele>770</ele>
      </trkpt>
      <trkpt lat="44.49383" lon="5.31762">
        <ele>764</ele>
      </trkpt>
      <trkpt lat="44.49375" lon="5.31788">
        <ele>764</ele>
      </trkpt>
      <trkpt lat="44.4936" lon="5.31815">
        <ele>764</ele>
      </trkpt>
      <trkpt lat="44.49333" lon="5.31845">
        <ele>760</ele>
      </trkpt>
      <trkpt lat="44.49322" lon="5.31862">
        <ele>759</ele>
      </trkpt>
      <trkpt lat="44.49309" lon="5.31889">
        <ele>757</ele>
      </trkpt>
      <trkpt lat="44.49292" lon="5.31955">
        <ele>760</ele>
      </trkpt>
      <trkpt lat="44.49286" lon="5.32003">
        <ele>753</ele>
      </trkpt>
      <trkpt lat="44.49315" lon="5.32151">
        <ele>742</ele>
      </trkpt>
      <trkpt lat="44.49317" lon="5.32172">
        <ele>744</ele>
      </trkpt>
      <trkpt lat="44.49316" lon="5.32186">
        <ele>745</ele>
      </trkpt>
      <trkpt lat="44.49302" lon="5.32213">
        <ele>748</ele>
      </trkpt>
      <trkpt lat="44.4929" lon="5.32223">
        <ele>747</ele>
      </trkpt>
      <trkpt lat="44.49231" lon="5.32251">
        <ele>742</ele>
      </trkpt>
      <trkpt lat="44.49217" lon="5.32263">
        <ele>742</ele>
      </trkpt>
      <trkpt lat="44.49207" lon="5.32278">
        <ele>741</ele>
      </trkpt>
      <trkpt lat="44.49175" lon="5.32363">
        <ele>740</ele>
      </trkpt>
      <trkpt lat="44.49155" lon="5.32394">
        <ele>739</ele>
      </trkpt>
      <trkpt lat="44.49118" lon="5.32462">
        <ele>737</ele>
      </trkpt>
      <trkpt lat="44.49091" lon="5.32485">
        <ele>734</ele>
      </trkpt>
      <trkpt lat="44.49056" lon="5.32508">
        <ele>730</ele>
      </trkpt>
      <trkpt lat="44.49043" lon="5.32524">
        <ele>731</ele>
      </trkpt>
      <trkpt lat="44.49034" lon="5.32542">
        <ele>732</ele>
      </trkpt>
      <trkpt lat="44.49026" lon="5.32613">
        <ele>734</ele>
      </trkpt>
      <trkpt lat="44.4902" lon="5.32637">
        <ele>735</ele>
      </trkpt>
      <trkpt lat="44.48986" lon="5.32705">
        <ele>739</ele>
      </trkpt>
      <trkpt lat="44.48965" lon="5.32736">
        <ele>737</ele>
      </trkpt>
      <trkpt lat="44.48897" lon="5.32791">
        <ele>730</ele>
      </trkpt>
      <trkpt lat="44.48874" lon="5.3282">
        <ele>730</ele>
      </trkpt>
      <trkpt lat="44.48838" lon="5.32875">
        <ele>730</ele>
      </trkpt>
      <trkpt lat="44.48823" lon="5.32888">
        <ele>728</ele>
      </trkpt>
      <trkpt lat="44.48791" lon="5.32909">
        <ele>725</ele>
      </trkpt>
      <trkpt lat="44.48778" lon="5.32921">
        <ele>726</ele>
      </trkpt>
      <trkpt lat="44.48753" lon="5.3296">
        <ele>728</ele>
      </trkpt>
      <trkpt lat="44.48744" lon="5.32971">
        <ele>727</ele>
      </trkpt>
      <trkpt lat="44.48695" lon="5.33019">
        <ele>722</ele>
      </trkpt>
      <trkpt lat="44.48664" lon="5.33055">
        <ele>718</ele>
      </trkpt>
      <trkpt lat="44.48641" lon="5.33093">
        <ele>714</ele>
      </trkpt>
      <trkpt lat="44.48625" lon="5.33103">
        <ele>712</ele>
      </trkpt>
      <trkpt lat="44.48607" lon="5.33119">
        <ele>709</ele>
      </trkpt>
      <trkpt lat="44.48599" lon="5.33132">
        <ele>709</ele>
      </trkpt>
      <trkpt lat="44.48575" lon="5.33207">
        <ele>711</ele>
      </trkpt>
      <trkpt lat="44.48568" lon="5.33219">
        <ele>710</ele>
      </trkpt>
      <trkpt lat="44.48498" lon="5.33299">
        <ele>704</ele>
      </trkpt>
      <trkpt lat="44.48491" lon="5.3331">
        <ele>704</ele>
      </trkpt>
      <trkpt lat="44.48485" lon="5.33325">
        <ele>703</ele>
      </trkpt>
      <trkpt lat="44.48478" lon="5.33352">
        <ele>703</ele>
      </trkpt>
      <trkpt lat="44.48459" lon="5.33452">
        <ele>707</ele>
      </trkpt>
      <trkpt lat="44.48454" lon="5.33466">
        <ele>706</ele>
      </trkpt>
      <trkpt lat="44.48446" lon="5.33478">
        <ele>704</ele>
      </trkpt>
      <trkpt lat="44.48437" lon="5.33485">
        <ele>703</ele>
      </trkpt>
      <trkpt lat="44.48402" lon="5.33504">
        <ele>699</ele>
      </trkpt>
      <trkpt lat="44.48391" lon="5.33512">
        <ele>700</ele>
      </trkpt>
      <trkpt lat="44.48383" lon="5.33523">
        <ele>700</ele>
      </trkpt>
      <trkpt lat="44.48367" lon="5.33556">
        <ele>702</ele>
      </trkpt>
      <trkpt lat="44.48338" lon="5.33601">
        <ele>699</ele>
      </trkpt>
      <trkpt lat="44.48334" lon="5.33616">
        <ele>700</ele>
      </trkpt>
      <trkpt lat="44.48332" lon="5.33635">
        <ele>700</ele>
      </trkpt>
      <trkpt lat="44.48333" lon="5.33672">
        <ele>702</ele>
      </trkpt>
      <trkpt lat="44.48336" lon="5.33734">
        <ele>708</ele>
      </trkpt>
      <trkpt lat="44.48334" lon="5.33755">
        <ele>706</ele>
      </trkpt>
      <trkpt lat="44.48326" lon="5.33773">
        <ele>705</ele>
      </trkpt>
      <trkpt lat="44.48292" lon="5.3383">
        <ele>699</ele>
      </trkpt>
      <trkpt lat="44.48285" lon="5.33851">
        <ele>697</ele>
      </trkpt>
      <trkpt lat="44.48284" lon="5.33875">
        <ele>695</ele>
      </trkpt>
      <trkpt lat="44.48286" lon="5.33956">
        <ele>694</ele>
      </trkpt>
      <trkpt lat="44.48285" lon="5.33995">
        <ele>693</ele>
      </trkpt>
      <trkpt lat="44.4828" lon="5.34033">
        <ele>692</ele>
      </trkpt>
      <trkpt lat="44.48259" lon="5.34122">
        <ele>692</ele>
      </trkpt>
      <trkpt lat="44.48246" lon="5.3419">
        <ele>690</ele>
      </trkpt>
      <trkpt lat="44.48243" lon="5.34222">
        <ele>690</ele>
      </trkpt>
      <trkpt lat="44.48242" lon="5.34254">
        <ele>691</ele>
      </trkpt>
      <trkpt lat="44.48253" lon="5.34391">
        <ele>679</ele>
      </trkpt>
      <trkpt lat="44.48251" lon="5.34407">
        <ele>679</ele>
      </trkpt>
      <trkpt lat="44.48222" lon="5.3446">
        <ele>677</ele>
      </trkpt>
      <trkpt lat="44.48173" lon="5.34528">
        <ele>680</ele>
      </trkpt>
      <trkpt lat="44.48163" lon="5.34546">
        <ele>679</ele>
      </trkpt>
      <trkpt lat="44.48154" lon="5.34555">
        <ele>679</ele>
      </trkpt>
      <trkpt lat="44.48141" lon="5.3456">
        <ele>678</ele>
      </trkpt>
      <trkpt lat="44.48086" lon="5.34571">
        <ele>672</ele>
      </trkpt>
      <trkpt lat="44.48063" lon="5.34586">
        <ele>671</ele>
      </trkpt>
      <trkpt lat="44.48045" lon="5.34608">
        <ele>671</ele>
      </trkpt>
      <trkpt lat="44.48012" lon="5.34695">
        <ele>670</ele>
      </trkpt>
      <trkpt lat="44.48" lon="5.34706">
        <ele>670</ele>
      </trkpt>
      <trkpt lat="44.47916" lon="5.34753">
        <ele>664</ele>
      </trkpt>
      <trkpt lat="44.47892" lon="5.34774">
        <ele>666</ele>
      </trkpt>
      <trkpt lat="44.47871" lon="5.34801">
        <ele>668</ele>
      </trkpt>
      <trkpt lat="44.47842" lon="5.34849">
        <ele>669</ele>
      </trkpt>
      <trkpt lat="44.47828" lon="5.34869">
        <ele>668</ele>
      </trkpt>
      <trkpt lat="44.47812" lon="5.34885">
        <ele>667</ele>
      </trkpt>
      <trkpt lat="44.47714" lon="5.34947">
        <ele>663</ele>
      </trkpt>
      <trkpt lat="44.47684" lon="5.34972">
        <ele>661</ele>
      </trkpt>
      <trkpt lat="44.47667" lon="5.34994">
        <ele>662</ele>
      </trkpt>
      <trkpt lat="44.47633" lon="5.35046">
        <ele>665</ele>
      </trkpt>
      <trkpt lat="44.47545" lon="5.35166">
        <ele>661</ele>
      </trkpt>
      <trkpt lat="44.47533" lon="5.35181">
        <ele>661</ele>
      </trkpt>
      <trkpt lat="44.47487" lon="5.35215">
        <ele>659</ele>
      </trkpt>
      <trkpt lat="44.4747" lon="5.35238">
        <ele>656</ele>
      </trkpt>
      <trkpt lat="44.47456" lon="5.35265">
        <ele>653</ele>
      </trkpt>
      <trkpt lat="44.47431" lon="5.35322">
        <ele>667</ele>
      </trkpt>
      <trkpt lat="44.47403" lon="5.35372">
        <ele>672</ele>
      </trkpt>
      <trkpt lat="44.4739" lon="5.35385">
        <ele>666</ele>
      </trkpt>
      <trkpt lat="44.47339" lon="5.35414">
        <ele>647</ele>
      </trkpt>
      <trkpt lat="44.47303" lon="5.35431">
        <ele>647</ele>
      </trkpt>
      <trkpt lat="44.47248" lon="5.35468">
        <ele>643</ele>
      </trkpt>
      <trkpt lat="44.47234" lon="5.35471">
        <ele>641</ele>
      </trkpt>
      <trkpt lat="44.47189" lon="5.35467">
        <ele>634</ele>
      </trkpt>
      <trkpt lat="44.47171" lon="5.35471">
        <ele>633</ele>
      </trkpt>
      <trkpt lat="44.4715" lon="5.35479">
        <ele>631</ele>
      </trkpt>
      <trkpt lat="44.47134" lon="5.35494">
        <ele>632</ele>
      </trkpt>
      <trkpt lat="44.47123" lon="5.3551">
        <ele>632</ele>
      </trkpt>
      <trkpt lat="44.47113" lon="5.35557">
        <ele>640</ele>
      </trkpt>
      <trkpt lat="44.47109" lon="5.35566">
        <ele>639</ele>
      </trkpt>
      <trkpt lat="44.47077" lon="5.3559">
        <ele>636</ele>
      </trkpt>
      <trkpt lat="44.47072" lon="5.35597">
        <ele>637</ele>
      </trkpt>
      <trkpt lat="44.4707" lon="5.35617">
        <ele>639</ele>
      </trkpt>
      <trkpt lat="44.47067" lon="5.35626">
        <ele>640</ele>
      </trkpt>
      <trkpt lat="44.47047" lon="5.35645">
        <ele>644</ele>
      </trkpt>
      <trkpt lat="44.47036" lon="5.35653">
        <ele>640</ele>
      </trkpt>
      <trkpt lat="44.47001" lon="5.35671">
        <ele>630</ele>
      </trkpt>
      <trkpt lat="44.46969" lon="5.35692">
        <ele>627</ele>
      </trkpt>
      <trkpt lat="44.46942" lon="5.35707">
        <ele>626</ele>
      </trkpt>
      <trkpt lat="44.46938" lon="5.35711">
        <ele>626</ele>
      </trkpt>
      <trkpt lat="44.46923" lon="5.35744">
        <ele>631</ele>
      </trkpt>
      <trkpt lat="44.46918" lon="5.35752">
        <ele>632</ele>
      </trkpt>
      <trkpt lat="44.4691" lon="5.35758">
        <ele>631</ele>
      </trkpt>
      <trkpt lat="44.46886" lon="5.35766">
        <ele>629</ele>
      </trkpt>
      <trkpt lat="44.46867" lon="5.35778">
        <ele>624</ele>
      </trkpt>
      <trkpt lat="44.46863" lon="5.35784">
        <ele>622</ele>
      </trkpt>
      <trkpt lat="44.46857" lon="5.3582">
        <ele>615</ele>
      </trkpt>
      <trkpt lat="44.46861" lon="5.3584">
        <ele>623</ele>
      </trkpt>
      <trkpt lat="44.46876" lon="5.35867">
        <ele>638</ele>
      </trkpt>
      <trkpt lat="44.4688" lon="5.35882">
        <ele>636</ele>
      </trkpt>
      <trkpt lat="44.46881" lon="5.35922">
        <ele>631</ele>
      </trkpt>
      <trkpt lat="44.46884" lon="5.3593">
        <ele>623</ele>
      </trkpt>
      <trkpt lat="44.46913" lon="5.35984">
        <ele>618</ele>
      </trkpt>
      <trkpt lat="44.46918" lon="5.36004">
        <ele>616</ele>
      </trkpt>
      <trkpt lat="44.46922" lon="5.36015">
        <ele>611</ele>
      </trkpt>
      <trkpt lat="44.46935" lon="5.36033">
        <ele>624</ele>
      </trkpt>
      <trkpt lat="44.46939" lon="5.36041">
        <ele>620</ele>
      </trkpt>
      <trkpt lat="44.46944" lon="5.36071">
        <ele>614</ele>
      </trkpt>
      <trkpt lat="44.46952" lon="5.361">
        <ele>613</ele>
      </trkpt>
      <trkpt lat="44.46954" lon="5.36116">
        <ele>614</ele>
      </trkpt>
      <trkpt lat="44.46952" lon="5.36127">
        <ele>614</ele>
      </trkpt>
      <trkpt lat="44.46947" lon="5.36137">
        <ele>612</ele>
      </trkpt>
      <trkpt lat="44.46927" lon="5.36156">
        <ele>599</ele>
      </trkpt>
      <trkpt lat="44.46924" lon="5.36165">
        <ele>599</ele>
      </trkpt>
      <trkpt lat="44.46919" lon="5.36211">
        <ele>603</ele>
      </trkpt>
      <trkpt lat="44.46919" lon="5.36241">
        <ele>606</ele>
      </trkpt>
      <trkpt lat="44.46916" lon="5.36251">
        <ele>606</ele>
      </trkpt>
      <trkpt lat="44.4691" lon="5.36258">
        <ele>606</ele>
      </trkpt>
      <trkpt lat="44.46894" lon="5.3627">
        <ele>598</ele>
      </trkpt>
      <trkpt lat="44.46885" lon="5.36285">
        <ele>597</ele>
      </trkpt>
      <trkpt lat="44.46878" lon="5.36291">
        <ele>599</ele>
      </trkpt>
      <trkpt lat="44.46841" lon="5.36305">
        <ele>579</ele>
      </trkpt>
      <trkpt lat="44.46835" lon="5.36313">
        <ele>579</ele>
      </trkpt>
      <trkpt lat="44.46832" lon="5.36324">
        <ele>582</ele>
      </trkpt>
      <trkpt lat="44.46833" lon="5.36335">
        <ele>583</ele>
      </trkpt>
      <trkpt lat="44.4684" lon="5.36364">
        <ele>586</ele>
      </trkpt>
      <trkpt lat="44.46839" lon="5.36376">
        <ele>586</ele>
      </trkpt>
      <trkpt lat="44.46834" lon="5.36381">
        <ele>585</ele>
      </trkpt>
      <trkpt lat="44.46826" lon="5.36381">
        <ele>584</ele>
      </trkpt>
      <trkpt lat="44.46802" lon="5.36375">
        <ele>578</ele>
      </trkpt>
      <trkpt lat="44.46794" lon="5.36381">
        <ele>577</ele>
      </trkpt>
      <trkpt lat="44.46787" lon="5.36392">
        <ele>572</ele>
      </trkpt>
      <trkpt lat="44.46784" lon="5.3641">
        <ele>571</ele>
      </trkpt>
      <trkpt lat="44.4678" lon="5.36417">
        <ele>571</ele>
      </trkpt>
      <trkpt lat="44.46774" lon="5.36421">
        <ele>570</ele>
      </trkpt>
      <trkpt lat="44.46763" lon="5.36418">
        <ele>569</ele>
      </trkpt>
      <trkpt lat="44.46745" lon="5.36408">
        <ele>564</ele>
      </trkpt>
      <trkpt lat="44.46719" lon="5.36403">
        <ele>559</ele>
      </trkpt>
      <trkpt lat="44.46685" lon="5.36406">
        <ele>554</ele>
      </trkpt>
      <trkpt lat="44.46637" lon="5.36421">
        <ele>549</ele>
      </trkpt>
      <trkpt lat="44.46622" lon="5.36429">
        <ele>547</ele>
      </trkpt>
      <trkpt lat="44.46612" lon="5.3644">
        <ele>548</ele>
      </trkpt>
      <trkpt lat="44.46607" lon="5.36455">
        <ele>546</ele>
      </trkpt>
      <trkpt lat="44.46609" lon="5.36471">
        <ele>546</ele>
      </trkpt>
      <trkpt lat="44.46621" lon="5.36486">
        <ele>543</ele>
      </trkpt>
      <trkpt lat="44.46633" lon="5.36493">
        <ele>545</ele>
      </trkpt>
      <trkpt lat="44.4665" lon="5.365">
        <ele>545</ele>
      </trkpt>
      <trkpt lat="44.46668" lon="5.365">
        <ele>545</ele>
      </trkpt>
      <trkpt lat="44.46689" lon="5.36496">
        <ele>545</ele>
      </trkpt>
      <trkpt lat="44.46736" lon="5.36482">
        <ele>555</ele>
      </trkpt>
      <trkpt lat="44.46743" lon="5.36486">
        <ele>551</ele>
      </trkpt>
      <trkpt lat="44.46747" lon="5.36497">
        <ele>551</ele>
      </trkpt>
      <trkpt lat="44.46749" lon="5.36537">
        <ele>543</ele>
      </trkpt>
      <trkpt lat="44.46752" lon="5.36547">
        <ele>539</ele>
      </trkpt>
      <trkpt lat="44.46766" lon="5.36563">
        <ele>542</ele>
      </trkpt>
      <trkpt lat="44.46784" lon="5.36578">
        <ele>541</ele>
      </trkpt>
      <trkpt lat="44.46791" lon="5.36589">
        <ele>547</ele>
      </trkpt>
      <trkpt lat="44.46794" lon="5.36601">
        <ele>546</ele>
      </trkpt>
      <trkpt lat="44.46795" lon="5.36643">
        <ele>543</ele>
      </trkpt>
      <trkpt lat="44.468" lon="5.3666">
        <ele>540</ele>
      </trkpt>
      <trkpt lat="44.46824" lon="5.36715">
        <ele>538</ele>
      </trkpt>
      <trkpt lat="44.46826" lon="5.36726">
        <ele>537</ele>
      </trkpt>
      <trkpt lat="44.46825" lon="5.3673">
        <ele>537</ele>
      </trkpt>
      <trkpt lat="44.46781" lon="5.36693">
        <ele>526</ele>
      </trkpt>
      <trkpt lat="44.46759" lon="5.36679">
        <ele>523</ele>
      </trkpt>
      <trkpt lat="44.46703" lon="5.36659">
        <ele>523</ele>
      </trkpt>
      <trkpt lat="44.46685" lon="5.36656">
        <ele>523</ele>
      </trkpt>
      <trkpt lat="44.46666" lon="5.36656">
        <ele>523</ele>
      </trkpt>
      <trkpt lat="44.46628" lon="5.36661">
        <ele>522</ele>
      </trkpt>
      <trkpt lat="44.46594" lon="5.36672">
        <ele>521</ele>
      </trkpt>
      <trkpt lat="44.46578" lon="5.36681">
        <ele>520</ele>
      </trkpt>
      <trkpt lat="44.46565" lon="5.36694">
        <ele>520</ele>
      </trkpt>
      <trkpt lat="44.46554" lon="5.3671">
        <ele>519</ele>
      </trkpt>
      <trkpt lat="44.46545" lon="5.36728">
        <ele>519</ele>
      </trkpt>
      <trkpt lat="44.46513" lon="5.36828">
        <ele>522</ele>
      </trkpt>
      <trkpt lat="44.46503" lon="5.36851">
        <ele>524</ele>
      </trkpt>
      <trkpt lat="44.46496" lon="5.36863">
        <ele>524</ele>
      </trkpt>
      <trkpt lat="44.46486" lon="5.36874">
        <ele>525</ele>
      </trkpt>
      <trkpt lat="44.46461" lon="5.36893">
        <ele>526</ele>
      </trkpt>
      <trkpt lat="44.46448" lon="5.36898">
        <ele>526</ele>
      </trkpt>
      <trkpt lat="44.46434" lon="5.369">
        <ele>528</ele>
      </trkpt>
      <trkpt lat="44.46406" lon="5.36896">
        <ele>527</ele>
      </trkpt>
      <trkpt lat="44.46346" lon="5.36881">
        <ele>531</ele>
      </trkpt>
      <trkpt lat="44.46323" lon="5.36879">
        <ele>532</ele>
      </trkpt>
      <trkpt lat="44.46288" lon="5.3688">
        <ele>536</ele>
      </trkpt>
      <trkpt lat="44.46263" lon="5.36877">
        <ele>536</ele>
      </trkpt>
      <trkpt lat="44.46228" lon="5.36859">
        <ele>535</ele>
      </trkpt>
      <trkpt lat="44.46192" lon="5.3683">
        <ele>536</ele>
      </trkpt>
      <trkpt lat="44.46169" lon="5.36802">
        <ele>537</ele>
      </trkpt>
      <trkpt lat="44.46139" lon="5.36752">
        <ele>534</ele>
      </trkpt>
      <trkpt lat="44.46129" lon="5.36737">
        <ele>535</ele>
      </trkpt>
      <trkpt lat="44.46116" lon="5.36727">
        <ele>537</ele>
      </trkpt>
      <trkpt lat="44.46102" lon="5.3672">
        <ele>538</ele>
      </trkpt>
      <trkpt lat="44.46056" lon="5.36713">
        <ele>547</ele>
      </trkpt>
      <trkpt lat="44.46004" lon="5.36694">
        <ele>548</ele>
      </trkpt>
      <trkpt lat="44.45944" lon="5.36669">
        <ele>552</ele>
      </trkpt>
      <trkpt lat="44.45932" lon="5.36668">
        <ele>553</ele>
      </trkpt>
      <trkpt lat="44.45923" lon="5.3667">
        <ele>554</ele>
      </trkpt>
      <trkpt lat="44.45906" lon="5.36682">
        <ele>557</ele>
      </trkpt>
      <trkpt lat="44.45828" lon="5.36759">
        <ele>555</ele>
      </trkpt>
      <trkpt lat="44.45819" lon="5.36769">
        <ele>557</ele>
      </trkpt>
      <trkpt lat="44.45815" lon="5.36777">
        <ele>554</ele>
      </trkpt>
      <trkpt lat="44.45812" lon="5.3679">
        <ele>555</ele>
      </trkpt>
      <trkpt lat="44.45807" lon="5.36855">
        <ele>553</ele>
      </trkpt>
      <trkpt lat="44.45808" lon="5.36894">
        <ele>551</ele>
      </trkpt>
      <trkpt lat="44.45813" lon="5.3692">
        <ele>550</ele>
      </trkpt>
      <trkpt lat="44.45826" lon="5.36965">
        <ele>551</ele>
      </trkpt>
      <trkpt lat="44.45839" lon="5.37012">
        <ele>546</ele>
      </trkpt>
      <trkpt lat="44.45839" lon="5.37023">
        <ele>545</ele>
      </trkpt>
      <trkpt lat="44.45837" lon="5.37032">
        <ele>545</ele>
      </trkpt>
      <trkpt lat="44.45832" lon="5.37042">
        <ele>546</ele>
      </trkpt>
      <trkpt lat="44.45825" lon="5.3705">
        <ele>546</ele>
      </trkpt>
      <trkpt lat="44.45816" lon="5.37054">
        <ele>543</ele>
      </trkpt>
      <trkpt lat="44.45806" lon="5.37055">
        <ele>542</ele>
      </trkpt>
      <trkpt lat="44.45786" lon="5.37049">
        <ele>541</ele>
      </trkpt>
      <trkpt lat="44.45764" lon="5.37038">
        <ele>538</ele>
      </trkpt>
      <trkpt lat="44.45737" lon="5.3703">
        <ele>538</ele>
      </trkpt>
      <trkpt lat="44.45573" lon="5.37021">
        <ele>532</ele>
      </trkpt>
      <trkpt lat="44.45519" lon="5.37031">
        <ele>529</ele>
      </trkpt>
      <trkpt lat="44.45503" lon="5.37032">
        <ele>527</ele>
      </trkpt>
      <trkpt lat="44.45404" lon="5.37032">
        <ele>521</ele>
      </trkpt>
      <trkpt lat="44.45397" lon="5.37022">
        <ele>520</ele>
      </trkpt>
      <trkpt lat="44.45367" lon="5.37019">
        <ele>520</ele>
      </trkpt>
      <trkpt lat="44.4536" lon="5.37015">
        <ele>519</ele>
      </trkpt>
      <trkpt lat="44.45355" lon="5.37001">
        <ele>516</ele>
      </trkpt>
      <trkpt lat="44.45353" lon="5.36953">
        <ele>509</ele>
      </trkpt>
      <trkpt lat="44.45331" lon="5.36892">
        <ele>500</ele>
      </trkpt>
      <trkpt lat="44.45328" lon="5.36867">
        <ele>498</ele>
      </trkpt>
      <trkpt lat="44.45327" lon="5.36842">
        <ele>497</ele>
      </trkpt>
      <trkpt lat="44.45328" lon="5.36832">
        <ele>496</ele>
      </trkpt>
      <trkpt lat="44.45333" lon="5.36827">
        <ele>496</ele>
      </trkpt>
      <trkpt lat="44.45345" lon="5.36828">
        <ele>496</ele>
      </trkpt>
      <trkpt lat="44.45356" lon="5.36824">
        <ele>496</ele>
      </trkpt>
      <trkpt lat="44.45416" lon="5.36779">
        <ele>496</ele>
      </trkpt>
      <trkpt lat="44.45426" lon="5.36774">
        <ele>497</ele>
      </trkpt>
      <trkpt lat="44.45433" lon="5.36773">
        <ele>497</ele>
      </trkpt>
      <trkpt lat="44.45468" lon="5.36777">
        <ele>499</ele>
      </trkpt>
      <trkpt lat="44.45493" lon="5.36771">
        <ele>500</ele>
      </trkpt>
      <trkpt lat="44.45522" lon="5.36732">
        <ele>501</ele>
      </trkpt>
      <trkpt lat="44.45543" lon="5.36721">
        <ele>503</ele>
      </trkpt>
      <trkpt lat="44.45546" lon="5.36717">
        <ele>503</ele>
      </trkpt>
      <trkpt lat="44.45548" lon="5.36714">
        <ele>503</ele>
      </trkpt>
      <trkpt lat="44.45547" lon="5.36706">
        <ele>504</ele>
      </trkpt>
      <trkpt lat="44.45528" lon="5.3666">
        <ele>502</ele>
      </trkpt>
      <trkpt lat="44.45522" lon="5.36629">
        <ele>502</ele>
      </trkpt>
      <trkpt lat="44.45521" lon="5.36616">
        <ele>502</ele>
      </trkpt>
      <trkpt lat="44.45524" lon="5.36591">
        <ele>501</ele>
      </trkpt>
      <trkpt lat="44.45527" lon="5.36574">
        <ele>501</ele>
      </trkpt>
      <trkpt lat="44.45541" lon="5.3653">
        <ele>505</ele>
      </trkpt>
      <trkpt lat="44.45541" lon="5.36525">
        <ele>505</ele>
      </trkpt>
      <trkpt lat="44.45539" lon="5.36519">
        <ele>501</ele>
      </trkpt>
      <trkpt lat="44.45515" lon="5.36498">
        <ele>499</ele>
      </trkpt>
      <trkpt lat="44.45509" lon="5.36496">
        <ele>496</ele>
      </trkpt>
      <trkpt lat="44.455" lon="5.36501">
        <ele>495</ele>
      </trkpt>
      <trkpt lat="44.45418" lon="5.36596">
        <ele>491</ele>
      </trkpt>
      <trkpt lat="44.45394" lon="5.36621">
        <ele>492</ele>
      </trkpt>
      <trkpt lat="44.45381" lon="5.3663">
        <ele>493</ele>
      </trkpt>
      <trkpt lat="44.45357" lon="5.36643">
        <ele>492</ele>
      </trkpt>
      <trkpt lat="44.45268" lon="5.36681">
        <ele>491</ele>
      </trkpt>
      <trkpt lat="44.45259" lon="5.36681">
        <ele>490</ele>
      </trkpt>
      <trkpt lat="44.4523" lon="5.36666">
        <ele>491</ele>
      </trkpt>
      <trkpt lat="44.45201" lon="5.36656">
        <ele>492</ele>
      </trkpt>
      <trkpt lat="44.45058" lon="5.36639">
        <ele>492</ele>
      </trkpt>
      <trkpt lat="44.45045" lon="5.36641">
        <ele>492</ele>
      </trkpt>
      <trkpt lat="44.45006" lon="5.36663">
        <ele>492</ele>
      </trkpt>
      <trkpt lat="44.44974" lon="5.36674">
        <ele>493</ele>
      </trkpt>
      <trkpt lat="44.44964" lon="5.36673">
        <ele>494</ele>
      </trkpt>
      <trkpt lat="44.44954" lon="5.3667">
        <ele>494</ele>
      </trkpt>
      <trkpt lat="44.44909" lon="5.36653">
        <ele>495</ele>
      </trkpt>
      <trkpt lat="44.44855" lon="5.36654">
        <ele>494</ele>
      </trkpt>
      <trkpt lat="44.44839" lon="5.36651">
        <ele>494</ele>
      </trkpt>
      <trkpt lat="44.4481" lon="5.36631">
        <ele>500</ele>
      </trkpt>
      <trkpt lat="44.44769" lon="5.36608">
        <ele>504</ele>
      </trkpt>
      <trkpt lat="44.44677" lon="5.3657">
        <ele>502</ele>
      </trkpt>
      <trkpt lat="44.44667" lon="5.36564">
        <ele>506</ele>
      </trkpt>
      <trkpt lat="44.44653" lon="5.3655">
        <ele>507</ele>
      </trkpt>
      <trkpt lat="44.44637" lon="5.36523">
        <ele>509</ele>
      </trkpt>
      <trkpt lat="44.44631" lon="5.36517">
        <ele>510</ele>
      </trkpt>
      <trkpt lat="44.44578" lon="5.36486">
        <ele>509</ele>
      </trkpt>
      <trkpt lat="44.4453" lon="5.36448">
        <ele>511</ele>
      </trkpt>
      <trkpt lat="44.44504" lon="5.36416">
        <ele>512</ele>
      </trkpt>
      <trkpt lat="44.44498" lon="5.36406">
        <ele>512</ele>
      </trkpt>
      <trkpt lat="44.44488" lon="5.36383">
        <ele>515</ele>
      </trkpt>
      <trkpt lat="44.44484" lon="5.36359">
        <ele>513</ele>
      </trkpt>
      <trkpt lat="44.44483" lon="5.36347">
        <ele>513</ele>
      </trkpt>
      <trkpt lat="44.44482" lon="5.36172">
        <ele>523</ele>
      </trkpt>
      <trkpt lat="44.44484" lon="5.36151">
        <ele>523</ele>
      </trkpt>
      <trkpt lat="44.44488" lon="5.36141">
        <ele>530</ele>
      </trkpt>
      <trkpt lat="44.44499" lon="5.36129">
        <ele>531</ele>
      </trkpt>
      <trkpt lat="44.4452" lon="5.36112">
        <ele>541</ele>
      </trkpt>
      <trkpt lat="44.44524" lon="5.36107">
        <ele>541</ele>
      </trkpt>
      <trkpt lat="44.44526" lon="5.361">
        <ele>541</ele>
      </trkpt>
      <trkpt lat="44.44525" lon="5.36072">
        <ele>539</ele>
      </trkpt>
      <trkpt lat="44.44526" lon="5.36051">
        <ele>538</ele>
      </trkpt>
      <trkpt lat="44.44518" lon="5.36004">
        <ele>539</ele>
      </trkpt>
      <trkpt lat="44.44512" lon="5.35978">
        <ele>538</ele>
      </trkpt>
      <trkpt lat="44.44504" lon="5.35967">
        <ele>538</ele>
      </trkpt>
      <trkpt lat="44.44497" lon="5.35962">
        <ele>538</ele>
      </trkpt>
      <trkpt lat="44.44482" lon="5.35957">
        <ele>538</ele>
      </trkpt>
      <trkpt lat="44.44476" lon="5.35958">
        <ele>538</ele>
      </trkpt>
      <trkpt lat="44.44472" lon="5.35962">
        <ele>537</ele>
      </trkpt>
      <trkpt lat="44.44456" lon="5.35983">
        <ele>531</ele>
      </trkpt>
      <trkpt lat="44.44431" lon="5.35993">
        <ele>530</ele>
      </trkpt>
      <trkpt lat="44.44424" lon="5.35998">
        <ele>532</ele>
      </trkpt>
      <trkpt lat="44.4441" lon="5.36022">
        <ele>529</ele>
      </trkpt>
      <trkpt lat="44.44406" lon="5.36027">
        <ele>530</ele>
      </trkpt>
      <trkpt lat="44.44396" lon="5.36027">
        <ele>534</ele>
      </trkpt>
      <trkpt lat="44.44387" lon="5.36021">
        <ele>536</ele>
      </trkpt>
      <trkpt lat="44.44381" lon="5.36008">
        <ele>538</ele>
      </trkpt>
      <trkpt lat="44.4438" lon="5.35992">
        <ele>539</ele>
      </trkpt>
      <trkpt lat="44.44384" lon="5.35959">
        <ele>543</ele>
      </trkpt>
      <trkpt lat="44.44381" lon="5.35922">
        <ele>551</ele>
      </trkpt>
      <trkpt lat="44.44376" lon="5.35913">
        <ele>551</ele>
      </trkpt>
      <trkpt lat="44.44356" lon="5.35907">
        <ele>550</ele>
      </trkpt>
      <trkpt lat="44.44351" lon="5.35904">
        <ele>550</ele>
      </trkpt>
      <trkpt lat="44.4434" lon="5.35884">
        <ele>552</ele>
      </trkpt>
      <trkpt lat="44.44336" lon="5.35882">
        <ele>552</ele>
      </trkpt>
      <trkpt lat="44.44331" lon="5.35881">
        <ele>551</ele>
      </trkpt>
      <trkpt lat="44.44321" lon="5.35888">
        <ele>551</ele>
      </trkpt>
      <trkpt lat="44.44315" lon="5.35897">
        <ele>551</ele>
      </trkpt>
      <trkpt lat="44.44294" lon="5.35937">
        <ele>543</ele>
      </trkpt>
      <trkpt lat="44.44286" lon="5.35939">
        <ele>544</ele>
      </trkpt>
      <trkpt lat="44.44276" lon="5.35931">
        <ele>545</ele>
      </trkpt>
      <trkpt lat="44.44258" lon="5.35895">
        <ele>558</ele>
      </trkpt>
      <trkpt lat="44.44249" lon="5.35884">
        <ele>560</ele>
      </trkpt>
      <trkpt lat="44.44241" lon="5.35881">
        <ele>559</ele>
      </trkpt>
      <trkpt lat="44.44223" lon="5.35882">
        <ele>558</ele>
      </trkpt>
      <trkpt lat="44.44214" lon="5.35876">
        <ele>559</ele>
      </trkpt>
      <trkpt lat="44.44203" lon="5.35863">
        <ele>562</ele>
      </trkpt>
      <trkpt lat="44.44179" lon="5.35849">
        <ele>563</ele>
      </trkpt>
      <trkpt lat="44.44175" lon="5.35845">
        <ele>563</ele>
      </trkpt>
      <trkpt lat="44.44167" lon="5.35832">
        <ele>567</ele>
      </trkpt>
      <trkpt lat="44.44154" lon="5.35802">
        <ele>572</ele>
      </trkpt>
      <trkpt lat="44.4415" lon="5.35795">
        <ele>571</ele>
      </trkpt>
      <trkpt lat="44.44146" lon="5.35791">
        <ele>571</ele>
      </trkpt>
      <trkpt lat="44.44109" lon="5.35788">
        <ele>570</ele>
      </trkpt>
      <trkpt lat="44.44095" lon="5.35783">
        <ele>574</ele>
      </trkpt>
      <trkpt lat="44.44079" lon="5.35771">
        <ele>575</ele>
      </trkpt>
      <trkpt lat="44.44057" lon="5.35746">
        <ele>578</ele>
      </trkpt>
      <trkpt lat="44.44051" lon="5.35742">
        <ele>578</ele>
      </trkpt>
      <trkpt lat="44.44043" lon="5.3574">
        <ele>578</ele>
      </trkpt>
      <trkpt lat="44.44011" lon="5.35736">
        <ele>577</ele>
      </trkpt>
      <trkpt lat="44.43985" lon="5.35721">
        <ele>581</ele>
      </trkpt>
      <trkpt lat="44.43952" lon="5.35718">
        <ele>583</ele>
      </trkpt>
      <trkpt lat="44.43945" lon="5.35723">
        <ele>583</ele>
      </trkpt>
      <trkpt lat="44.43936" lon="5.35733">
        <ele>579</ele>
      </trkpt>
      <trkpt lat="44.43925" lon="5.3574">
        <ele>579</ele>
      </trkpt>
      <trkpt lat="44.43894" lon="5.35751">
        <ele>580</ele>
      </trkpt>
      <trkpt lat="44.43866" lon="5.35757">
        <ele>580</ele>
      </trkpt>
      <trkpt lat="44.43777" lon="5.35814">
        <ele>567</ele>
      </trkpt>
      <trkpt lat="44.43762" lon="5.35833">
        <ele>563</ele>
      </trkpt>
      <trkpt lat="44.43747" lon="5.35866">
        <ele>558</ele>
      </trkpt>
      <trkpt lat="44.43721" lon="5.35906">
        <ele>554</ele>
      </trkpt>
      <trkpt lat="44.43698" lon="5.35924">
        <ele>556</ele>
      </trkpt>
      <trkpt lat="44.43691" lon="5.35933">
        <ele>554</ele>
      </trkpt>
      <trkpt lat="44.4368" lon="5.35953">
        <ele>553</ele>
      </trkpt>
      <trkpt lat="44.43668" lon="5.35983">
        <ele>548</ele>
      </trkpt>
      <trkpt lat="44.43647" lon="5.36007">
        <ele>551</ele>
      </trkpt>
      <trkpt lat="44.43641" lon="5.36017">
        <ele>549</ele>
      </trkpt>
      <trkpt lat="44.43619" lon="5.36062">
        <ele>548</ele>
      </trkpt>
      <trkpt lat="44.43614" lon="5.36068">
        <ele>544</ele>
      </trkpt>
      <trkpt lat="44.43608" lon="5.36071">
        <ele>544</ele>
      </trkpt>
      <trkpt lat="44.43577" lon="5.3607">
        <ele>545</ele>
      </trkpt>
      <trkpt lat="44.43566" lon="5.36072">
        <ele>545</ele>
      </trkpt>
      <trkpt lat="44.43558" lon="5.36077">
        <ele>544</ele>
      </trkpt>
      <trkpt lat="44.43546" lon="5.36086">
        <ele>543</ele>
      </trkpt>
      <trkpt lat="44.43523" lon="5.36123">
        <ele>535</ele>
      </trkpt>
      <trkpt lat="44.43497" lon="5.36152">
        <ele>533</ele>
      </trkpt>
      <trkpt lat="44.43474" lon="5.36185">
        <ele>529</ele>
      </trkpt>
      <trkpt lat="44.43458" lon="5.36195">
        <ele>528</ele>
      </trkpt>
      <trkpt lat="44.43448" lon="5.36198">
        <ele>529</ele>
      </trkpt>
      <trkpt lat="44.43434" lon="5.36196">
        <ele>529</ele>
      </trkpt>
      <trkpt lat="44.4341" lon="5.36181">
        <ele>529</ele>
      </trkpt>
      <trkpt lat="44.43402" lon="5.36178">
        <ele>529</ele>
      </trkpt>
      <trkpt lat="44.43389" lon="5.36181">
        <ele>528</ele>
      </trkpt>
      <trkpt lat="44.43367" lon="5.36192">
        <ele>525</ele>
      </trkpt>
      <trkpt lat="44.4336" lon="5.36193">
        <ele>525</ele>
      </trkpt>
      <trkpt lat="44.43355" lon="5.3619">
        <ele>525</ele>
      </trkpt>
      <trkpt lat="44.43349" lon="5.36183">
        <ele>525</ele>
      </trkpt>
      <trkpt lat="44.43341" lon="5.36168">
        <ele>526</ele>
      </trkpt>
      <trkpt lat="44.43329" lon="5.36155">
        <ele>526</ele>
      </trkpt>
      <trkpt lat="44.43248" lon="5.36142">
        <ele>519</ele>
      </trkpt>
      <trkpt lat="44.43222" lon="5.36139">
        <ele>515</ele>
      </trkpt>
      <trkpt lat="44.4321" lon="5.36134">
        <ele>515</ele>
      </trkpt>
      <trkpt lat="44.43168" lon="5.36095">
        <ele>512</ele>
      </trkpt>
      <trkpt lat="44.43154" lon="5.3608">
        <ele>515</ele>
      </trkpt>
      <trkpt lat="44.43124" lon="5.36026">
        <ele>517</ele>
      </trkpt>
      <trkpt lat="44.43105" lon="5.36">
        <ele>515</ele>
      </trkpt>
      <trkpt lat="44.43094" lon="5.35971">
        <ele>512</ele>
      </trkpt>
      <trkpt lat="44.43088" lon="5.3596">
        <ele>512</ele>
      </trkpt>
      <trkpt lat="44.4307" lon="5.35936">
        <ele>513</ele>
      </trkpt>
      <trkpt lat="44.43047" lon="5.35896">
        <ele>513</ele>
      </trkpt>
      <trkpt lat="44.4304" lon="5.35887">
        <ele>513</ele>
      </trkpt>
      <trkpt lat="44.43032" lon="5.35882">
        <ele>509</ele>
      </trkpt>
      <trkpt lat="44.4302" lon="5.3588">
        <ele>508</ele>
      </trkpt>
      <trkpt lat="44.42999" lon="5.35868">
        <ele>508</ele>
      </trkpt>
      <trkpt lat="44.42982" lon="5.35863">
        <ele>506</ele>
      </trkpt>
      <trkpt lat="44.4297" lon="5.35863">
        <ele>505</ele>
      </trkpt>
      <trkpt lat="44.42958" lon="5.35867">
        <ele>504</ele>
      </trkpt>
      <trkpt lat="44.42946" lon="5.35868">
        <ele>502</ele>
      </trkpt>
      <trkpt lat="44.42931" lon="5.35862">
        <ele>502</ele>
      </trkpt>
      <trkpt lat="44.42893" lon="5.35861">
        <ele>495</ele>
      </trkpt>
      <trkpt lat="44.4285" lon="5.35869">
        <ele>492</ele>
      </trkpt>
      <trkpt lat="44.42833" lon="5.35869">
        <ele>491</ele>
      </trkpt>
      <trkpt lat="44.42817" lon="5.35868">
        <ele>490</ele>
      </trkpt>
      <trkpt lat="44.42781" lon="5.35858">
        <ele>488</ele>
      </trkpt>
      <trkpt lat="44.42756" lon="5.3586">
        <ele>486</ele>
      </trkpt>
      <trkpt lat="44.42637" lon="5.35889">
        <ele>480</ele>
      </trkpt>
      <trkpt lat="44.42601" lon="5.35895">
        <ele>481</ele>
      </trkpt>
      <trkpt lat="44.42575" lon="5.35896">
        <ele>481</ele>
      </trkpt>
      <trkpt lat="44.4256" lon="5.35894">
        <ele>480</ele>
      </trkpt>
      <trkpt lat="44.42546" lon="5.35885">
        <ele>480</ele>
      </trkpt>
      <trkpt lat="44.42528" lon="5.35863">
        <ele>483</ele>
      </trkpt>
      <trkpt lat="44.42512" lon="5.35851">
        <ele>483</ele>
      </trkpt>
      <trkpt lat="44.4249" lon="5.35842">
        <ele>481</ele>
      </trkpt>
      <trkpt lat="44.42454" lon="5.35835">
        <ele>471</ele>
      </trkpt>
      <trkpt lat="44.42449" lon="5.35835">
        <ele>471</ele>
      </trkpt>
      <trkpt lat="44.42437" lon="5.35843">
        <ele>470</ele>
      </trkpt>
      <trkpt lat="44.42326" lon="5.35977">
        <ele>459</ele>
      </trkpt>
      <trkpt lat="44.42319" lon="5.35978">
        <ele>459</ele>
      </trkpt>
      <trkpt lat="44.42307" lon="5.35974">
        <ele>458</ele>
      </trkpt>
      <trkpt lat="44.4229" lon="5.35963">
        <ele>457</ele>
      </trkpt>
      <trkpt lat="44.42255" lon="5.35934">
        <ele>455</ele>
      </trkpt>
      <trkpt lat="44.42213" lon="5.35913">
        <ele>455</ele>
      </trkpt>
      <trkpt lat="44.4214" lon="5.35874">
        <ele>453</ele>
      </trkpt>
      <trkpt lat="44.42118" lon="5.35865">
        <ele>453</ele>
      </trkpt>
      <trkpt lat="44.42096" lon="5.35852">
        <ele>453</ele>
      </trkpt>
      <trkpt lat="44.42086" lon="5.35843">
        <ele>454</ele>
      </trkpt>
      <trkpt lat="44.42021" lon="5.3575">
        <ele>461</ele>
      </trkpt>
      <trkpt lat="44.42012" lon="5.35741">
        <ele>462</ele>
      </trkpt>
      <trkpt lat="44.41998" lon="5.35734">
        <ele>462</ele>
      </trkpt>
      <trkpt lat="44.41972" lon="5.35726">
        <ele>466</ele>
      </trkpt>
      <trkpt lat="44.41881" lon="5.3568">
        <ele>464</ele>
      </trkpt>
      <trkpt lat="44.41863" lon="5.35666">
        <ele>464</ele>
      </trkpt>
      <trkpt lat="44.41835" lon="5.35639">
        <ele>463</ele>
      </trkpt>
      <trkpt lat="44.41791" lon="5.35589">
        <ele>469</ele>
      </trkpt>
      <trkpt lat="44.41781" lon="5.35582">
        <ele>465</ele>
      </trkpt>
      <trkpt lat="44.41743" lon="5.35577">
        <ele>461</ele>
      </trkpt>
      <trkpt lat="44.41705" lon="5.35579">
        <ele>458</ele>
      </trkpt>
      <trkpt lat="44.41674" lon="5.35572">
        <ele>456</ele>
      </trkpt>
      <trkpt lat="44.41627" lon="5.35593">
        <ele>453</ele>
      </trkpt>
      <trkpt lat="44.41616" lon="5.35595">
        <ele>451</ele>
      </trkpt>
      <trkpt lat="44.41592" lon="5.35594">
        <ele>450</ele>
      </trkpt>
      <trkpt lat="44.41574" lon="5.35589">
        <ele>451</ele>
      </trkpt>
      <trkpt lat="44.41487" lon="5.35556">
        <ele>451</ele>
      </trkpt>
      <trkpt lat="44.41466" lon="5.35546">
        <ele>451</ele>
      </trkpt>
      <trkpt lat="44.41452" lon="5.35537">
        <ele>452</ele>
      </trkpt>
      <trkpt lat="44.41448" lon="5.35539">
        <ele>450</ele>
      </trkpt>
      <trkpt lat="44.41435" lon="5.35588">
        <ele>449</ele>
      </trkpt>
      <trkpt lat="44.41394" lon="5.35563">
        <ele>450</ele>
      </trkpt>
      <trkpt lat="44.41388" lon="5.35556">
        <ele>450</ele>
      </trkpt>
      <trkpt lat="44.41265" lon="5.35367">
        <ele>447</ele>
      </trkpt>
      <trkpt lat="44.41169" lon="5.35208">
        <ele>446</ele>
      </trkpt>
      <trkpt lat="44.41102" lon="5.35108">
        <ele>444</ele>
      </trkpt>
      <trkpt lat="44.41055" lon="5.35031">
        <ele>442</ele>
      </trkpt>
      <trkpt lat="44.41038" lon="5.34997">
        <ele>442</ele>
      </trkpt>
      <trkpt lat="44.41015" lon="5.34933">
        <ele>444</ele>
      </trkpt>
      <trkpt lat="44.41" lon="5.34881">
        <ele>449</ele>
      </trkpt>
      <trkpt lat="44.41102" lon="5.34816">
        <ele>446</ele>
      </trkpt>
      <trkpt lat="44.41126" lon="5.34797">
        <ele>446</ele>
      </trkpt>
      <trkpt lat="44.41155" lon="5.34763">
        <ele>446</ele>
      </trkpt>
      <trkpt lat="44.41221" lon="5.34668">
        <ele>446</ele>
      </trkpt>
      <trkpt lat="44.41241" lon="5.34631">
        <ele>446</ele>
      </trkpt>
      <trkpt lat="44.41248" lon="5.34612">
        <ele>446</ele>
      </trkpt>
      <trkpt lat="44.41251" lon="5.34594">
        <ele>446</ele>
      </trkpt>
      <trkpt lat="44.41254" lon="5.34566">
        <ele>446</ele>
      </trkpt>
      <trkpt lat="44.41253" lon="5.34506">
        <ele>443</ele>
      </trkpt>
      <trkpt lat="44.41255" lon="5.34471">
        <ele>446</ele>
      </trkpt>
      <trkpt lat="44.4128" lon="5.34227">
        <ele>446</ele>
      </trkpt>
      <trkpt lat="44.41286" lon="5.34193">
        <ele>449</ele>
      </trkpt>
      <trkpt lat="44.41296" lon="5.3416">
        <ele>444</ele>
      </trkpt>
      <trkpt lat="44.41344" lon="5.34046">
        <ele>446</ele>
      </trkpt>
      <trkpt lat="44.41428" lon="5.3383">
        <ele>440</ele>
      </trkpt>
      <trkpt lat="44.41516" lon="5.33637">
        <ele>439</ele>
      </trkpt>
      <trkpt lat="44.41593" lon="5.33481">
        <ele>441</ele>
      </trkpt>
      <trkpt lat="44.41656" lon="5.33383">
        <ele>439</ele>
      </trkpt>
      <trkpt lat="44.41688" lon="5.33344">
        <ele>440</ele>
      </trkpt>
      <trkpt lat="44.41719" lon="5.33317">
        <ele>440</ele>
      </trkpt>
      <trkpt lat="44.41771" lon="5.33283">
        <ele>441</ele>
      </trkpt>
      <trkpt lat="44.41847" lon="5.33245">
        <ele>438</ele>
      </trkpt>
      <trkpt lat="44.41863" lon="5.33235">
        <ele>440</ele>
      </trkpt>
      <trkpt lat="44.41871" lon="5.33227">
        <ele>441</ele>
      </trkpt>
      <trkpt lat="44.41881" lon="5.33185">
        <ele>438</ele>
      </trkpt>
      <trkpt lat="44.41884" lon="5.33115">
        <ele>433</ele>
      </trkpt>
      <trkpt lat="44.41892" lon="5.33078">
        <ele>436</ele>
      </trkpt>
      <trkpt lat="44.41903" lon="5.33053">
        <ele>438</ele>
      </trkpt>
      <trkpt lat="44.41913" lon="5.33036">
        <ele>444</ele>
      </trkpt>
      <trkpt lat="44.41933" lon="5.33024">
        <ele>443</ele>
      </trkpt>
      <trkpt lat="44.41957" lon="5.33021">
        <ele>446</ele>
      </trkpt>
      <trkpt lat="44.4198" lon="5.33025">
        <ele>447</ele>
      </trkpt>
      <trkpt lat="44.42011" lon="5.33044">
        <ele>446</ele>
      </trkpt>
      <trkpt lat="44.42092" lon="5.33099">
        <ele>442</ele>
      </trkpt>
      <trkpt lat="44.42112" lon="5.33109">
        <ele>443</ele>
      </trkpt>
      <trkpt lat="44.42127" lon="5.33109">
        <ele>449</ele>
      </trkpt>
      <trkpt lat="44.42141" lon="5.33103">
        <ele>449</ele>
      </trkpt>
      <trkpt lat="44.42144" lon="5.33098">
        <ele>450</ele>
      </trkpt>
      <trkpt lat="44.42182" lon="5.33003">
        <ele>449</ele>
      </trkpt>
      <trkpt lat="44.42199" lon="5.32977">
        <ele>446</ele>
      </trkpt>
      <trkpt lat="44.42312" lon="5.32844">
        <ele>439</ele>
      </trkpt>
      <trkpt lat="44.42331" lon="5.32803">
        <ele>434</ele>
      </trkpt>
      <trkpt lat="44.42337" lon="5.3277">
        <ele>434</ele>
      </trkpt>
      <trkpt lat="44.42337" lon="5.32757">
        <ele>434</ele>
      </trkpt>
      <trkpt lat="44.42335" lon="5.32745">
        <ele>433</ele>
      </trkpt>
      <trkpt lat="44.42328" lon="5.32732">
        <ele>433</ele>
      </trkpt>
      <trkpt lat="44.42323" lon="5.32727">
        <ele>432</ele>
      </trkpt>
      <trkpt lat="44.42282" lon="5.3271">
        <ele>423</ele>
      </trkpt>
      <trkpt lat="44.42261" lon="5.32698">
        <ele>423</ele>
      </trkpt>
      <trkpt lat="44.42231" lon="5.32673">
        <ele>424</ele>
      </trkpt>
      <trkpt lat="44.42203" lon="5.32644">
        <ele>424</ele>
      </trkpt>
      <trkpt lat="44.4219" lon="5.32626">
        <ele>424</ele>
      </trkpt>
      <trkpt lat="44.42178" lon="5.32608">
        <ele>426</ele>
      </trkpt>
      <trkpt lat="44.42164" lon="5.3258">
        <ele>422</ele>
      </trkpt>
      <trkpt lat="44.42157" lon="5.32551">
        <ele>421</ele>
      </trkpt>
      <trkpt lat="44.42155" lon="5.32517">
        <ele>420</ele>
      </trkpt>
      <trkpt lat="44.42156" lon="5.32309">
        <ele>421</ele>
      </trkpt>
      <trkpt lat="44.42154" lon="5.32283">
        <ele>420</ele>
      </trkpt>
      <trkpt lat="44.42144" lon="5.32228">
        <ele>421</ele>
      </trkpt>
      <trkpt lat="44.42144" lon="5.32197">
        <ele>421</ele>
      </trkpt>
      <trkpt lat="44.42147" lon="5.32174">
        <ele>422</ele>
      </trkpt>
      <trkpt lat="44.42154" lon="5.32156">
        <ele>419</ele>
      </trkpt>
      <trkpt lat="44.42164" lon="5.32138">
        <ele>419</ele>
      </trkpt>
      <trkpt lat="44.42239" lon="5.32049">
        <ele>422</ele>
      </trkpt>
      <trkpt lat="44.42253" lon="5.32038">
        <ele>423</ele>
      </trkpt>
      <trkpt lat="44.42271" lon="5.32031">
        <ele>428</ele>
      </trkpt>
      <trkpt lat="44.423" lon="5.32031">
        <ele>428</ele>
      </trkpt>
      <trkpt lat="44.42373" lon="5.32043">
        <ele>420</ele>
      </trkpt>
      <trkpt lat="44.42385" lon="5.32041">
        <ele>419</ele>
      </trkpt>
      <trkpt lat="44.424" lon="5.32032">
        <ele>420</ele>
      </trkpt>
      <trkpt lat="44.42416" lon="5.32018">
        <ele>418</ele>
      </trkpt>
      <trkpt lat="44.42462" lon="5.31956">
        <ele>415</ele>
      </trkpt>
      <trkpt lat="44.42477" lon="5.3193">
        <ele>413</ele>
      </trkpt>
      <trkpt lat="44.42487" lon="5.31897">
        <ele>411</ele>
      </trkpt>
      <trkpt lat="44.42495" lon="5.31846">
        <ele>411</ele>
      </trkpt>
      <trkpt lat="44.42503" lon="5.31815">
        <ele>413</ele>
      </trkpt>
      <trkpt lat="44.42524" lon="5.31768">
        <ele>422</ele>
      </trkpt>
      <trkpt lat="44.42532" lon="5.3173">
        <ele>423</ele>
      </trkpt>
      <trkpt lat="44.42544" lon="5.31639">
        <ele>415</ele>
      </trkpt>
      <trkpt lat="44.42547" lon="5.31618">
        <ele>415</ele>
      </trkpt>
      <trkpt lat="44.42553" lon="5.316">
        <ele>414</ele>
      </trkpt>
      <trkpt lat="44.4256" lon="5.31581">
        <ele>416</ele>
      </trkpt>
      <trkpt lat="44.42568" lon="5.31566">
        <ele>413</ele>
      </trkpt>
      <trkpt lat="44.42585" lon="5.31545">
        <ele>415</ele>
      </trkpt>
      <trkpt lat="44.42599" lon="5.31533">
        <ele>418</ele>
      </trkpt>
      <trkpt lat="44.4262" lon="5.31521">
        <ele>418</ele>
      </trkpt>
      <trkpt lat="44.42644" lon="5.31514">
        <ele>417</ele>
      </trkpt>
      <trkpt lat="44.42673" lon="5.31511">
        <ele>418</ele>
      </trkpt>
      <trkpt lat="44.42702" lon="5.31524">
        <ele>417</ele>
      </trkpt>
      <trkpt lat="44.42768" lon="5.31564">
        <ele>409</ele>
      </trkpt>
      <trkpt lat="44.42794" lon="5.31576">
        <ele>407</ele>
      </trkpt>
      <trkpt lat="44.42811" lon="5.3158">
        <ele>407</ele>
      </trkpt>
      <trkpt lat="44.42828" lon="5.31575">
        <ele>407</ele>
      </trkpt>
      <trkpt lat="44.42862" lon="5.31553">
        <ele>409</ele>
      </trkpt>
      <trkpt lat="44.42875" lon="5.31548">
        <ele>409</ele>
      </trkpt>
      <trkpt lat="44.42887" lon="5.31544">
        <ele>409</ele>
      </trkpt>
      <trkpt lat="44.42931" lon="5.31537">
        <ele>407</ele>
      </trkpt>
      <trkpt lat="44.42942" lon="5.31534">
        <ele>409</ele>
      </trkpt>
      <trkpt lat="44.42967" lon="5.3152">
        <ele>405</ele>
      </trkpt>
      <trkpt lat="44.43004" lon="5.31494">
        <ele>409</ele>
      </trkpt>
      <trkpt lat="44.43042" lon="5.31474">
        <ele>406</ele>
      </trkpt>
      <trkpt lat="44.43064" lon="5.31457">
        <ele>406</ele>
      </trkpt>
      <trkpt lat="44.43121" lon="5.31403">
        <ele>406</ele>
      </trkpt>
      <trkpt lat="44.43137" lon="5.31385">
        <ele>402</ele>
      </trkpt>
      <trkpt lat="44.43169" lon="5.31344">
        <ele>407</ele>
      </trkpt>
      <trkpt lat="44.43185" lon="5.31317">
        <ele>412</ele>
      </trkpt>
      <trkpt lat="44.43194" lon="5.31292">
        <ele>414</ele>
      </trkpt>
      <trkpt lat="44.43197" lon="5.31276">
        <ele>415</ele>
      </trkpt>
      <trkpt lat="44.432" lon="5.31236">
        <ele>413</ele>
      </trkpt>
      <trkpt lat="44.43199" lon="5.31211">
        <ele>411</ele>
      </trkpt>
      <trkpt lat="44.43197" lon="5.31183">
        <ele>415</ele>
      </trkpt>
      <trkpt lat="44.43167" lon="5.31035">
        <ele>402</ele>
      </trkpt>
      <trkpt lat="44.43166" lon="5.31004">
        <ele>404</ele>
      </trkpt>
      <trkpt lat="44.43167" lon="5.30986">
        <ele>405</ele>
      </trkpt>
      <trkpt lat="44.43172" lon="5.30966">
        <ele>412</ele>
      </trkpt>
      <trkpt lat="44.43183" lon="5.30942">
        <ele>408</ele>
      </trkpt>
      <trkpt lat="44.43277" lon="5.308">
        <ele>417</ele>
      </trkpt>
      <trkpt lat="44.43293" lon="5.30767">
        <ele>433</ele>
      </trkpt>
      <trkpt lat="44.43301" lon="5.30731">
        <ele>437</ele>
      </trkpt>
      <trkpt lat="44.433" lon="5.30706">
        <ele>435</ele>
      </trkpt>
      <trkpt lat="44.43298" lon="5.30687">
        <ele>432</ele>
      </trkpt>
      <trkpt lat="44.43277" lon="5.30608">
        <ele>419</ele>
      </trkpt>
      <trkpt lat="44.43256" lon="5.30513">
        <ele>408</ele>
      </trkpt>
      <trkpt lat="44.43248" lon="5.30451">
        <ele>402</ele>
      </trkpt>
      <trkpt lat="44.43243" lon="5.30423">
        <ele>401</ele>
      </trkpt>
      <trkpt lat="44.43232" lon="5.30398">
        <ele>401</ele>
      </trkpt>
      <trkpt lat="44.43212" lon="5.30373">
        <ele>399</ele>
      </trkpt>
      <trkpt lat="44.43165" lon="5.3035">
        <ele>404</ele>
      </trkpt>
      <trkpt lat="44.43132" lon="5.3032">
        <ele>404</ele>
      </trkpt>
      <trkpt lat="44.43114" lon="5.30291">
        <ele>402</ele>
      </trkpt>
      <trkpt lat="44.43094" lon="5.3024">
        <ele>408</ele>
      </trkpt>
      <trkpt lat="44.43088" lon="5.30207">
        <ele>412</ele>
      </trkpt>
      <trkpt lat="44.43082" lon="5.30146">
        <ele>410</ele>
      </trkpt>
      <trkpt lat="44.43083" lon="5.30098">
        <ele>403</ele>
      </trkpt>
      <trkpt lat="44.43087" lon="5.3006">
        <ele>396</ele>
      </trkpt>
      <trkpt lat="44.43096" lon="5.30027">
        <ele>399</ele>
      </trkpt>
      <trkpt lat="44.43109" lon="5.29997">
        <ele>400</ele>
      </trkpt>
      <trkpt lat="44.4314" lon="5.29942">
        <ele>403</ele>
      </trkpt>
      <trkpt lat="44.4316" lon="5.29893">
        <ele>404</ele>
      </trkpt>
      <trkpt lat="44.43182" lon="5.29817">
        <ele>400</ele>
      </trkpt>
      <trkpt lat="44.43192" lon="5.29791">
        <ele>402</ele>
      </trkpt>
      <trkpt lat="44.43209" lon="5.2977">
        <ele>407</ele>
      </trkpt>
      <trkpt lat="44.43225" lon="5.29757">
        <ele>413</ele>
      </trkpt>
      <trkpt lat="44.43242" lon="5.29751">
        <ele>411</ele>
      </trkpt>
      <trkpt lat="44.43255" lon="5.2975">
        <ele>410</ele>
      </trkpt>
      <trkpt lat="44.4327" lon="5.29752">
        <ele>409</ele>
      </trkpt>
      <trkpt lat="44.43318" lon="5.29775">
        <ele>399</ele>
      </trkpt>
      <trkpt lat="44.43358" lon="5.29775">
        <ele>395</ele>
      </trkpt>
      <trkpt lat="44.43379" lon="5.29769">
        <ele>392</ele>
      </trkpt>
      <trkpt lat="44.43407" lon="5.29756">
        <ele>389</ele>
      </trkpt>
      <trkpt lat="44.43469" lon="5.29772">
        <ele>407</ele>
      </trkpt>
      <trkpt lat="44.43479" lon="5.29772">
        <ele>409</ele>
      </trkpt>
      <trkpt lat="44.43489" lon="5.29768">
        <ele>417</ele>
      </trkpt>
      <trkpt lat="44.435" lon="5.29756">
        <ele>411</ele>
      </trkpt>
      <trkpt lat="44.43563" lon="5.2967">
        <ele>403</ele>
      </trkpt>
      <trkpt lat="44.43691" lon="5.29517">
        <ele>418</ele>
      </trkpt>
      <trkpt lat="44.43707" lon="5.29494">
        <ele>421</ele>
      </trkpt>
      <trkpt lat="44.43741" lon="5.29423">
        <ele>416</ele>
      </trkpt>
      <trkpt lat="44.43749" lon="5.29393">
        <ele>416</ele>
      </trkpt>
      <trkpt lat="44.43751" lon="5.29371">
        <ele>416</ele>
      </trkpt>
      <trkpt lat="44.43747" lon="5.29351">
        <ele>415</ele>
      </trkpt>
      <trkpt lat="44.43738" lon="5.29328">
        <ele>414</ele>
      </trkpt>
      <trkpt lat="44.43702" lon="5.29273">
        <ele>401</ele>
      </trkpt>
      <trkpt lat="44.43669" lon="5.29244">
        <ele>400</ele>
      </trkpt>
      <trkpt lat="44.43651" lon="5.29238">
        <ele>396</ele>
      </trkpt>
      <trkpt lat="44.43641" lon="5.29238">
        <ele>394</ele>
      </trkpt>
      <trkpt lat="44.43626" lon="5.29243">
        <ele>394</ele>
      </trkpt>
      <trkpt lat="44.43609" lon="5.29254">
        <ele>392</ele>
      </trkpt>
      <trkpt lat="44.4359" lon="5.29271">
        <ele>390</ele>
      </trkpt>
      <trkpt lat="44.43553" lon="5.29324">
        <ele>388</ele>
      </trkpt>
      <trkpt lat="44.43538" lon="5.29343">
        <ele>392</ele>
      </trkpt>
      <trkpt lat="44.4353" lon="5.2935">
        <ele>392</ele>
      </trkpt>
      <trkpt lat="44.43518" lon="5.29354">
        <ele>392</ele>
      </trkpt>
      <trkpt lat="44.43503" lon="5.29351">
        <ele>392</ele>
      </trkpt>
      <trkpt lat="44.43491" lon="5.29344">
        <ele>392</ele>
      </trkpt>
      <trkpt lat="44.43474" lon="5.29323">
        <ele>391</ele>
      </trkpt>
      <trkpt lat="44.43456" lon="5.29283">
        <ele>393</ele>
      </trkpt>
      <trkpt lat="44.4345" lon="5.29248">
        <ele>394</ele>
      </trkpt>
      <trkpt lat="44.43447" lon="5.29209">
        <ele>396</ele>
      </trkpt>
      <trkpt lat="44.43452" lon="5.29129">
        <ele>402</ele>
      </trkpt>
      <trkpt lat="44.43448" lon="5.29092">
        <ele>406</ele>
      </trkpt>
      <trkpt lat="44.43442" lon="5.29054">
        <ele>411</ele>
      </trkpt>
      <trkpt lat="44.43433" lon="5.2902">
        <ele>411</ele>
      </trkpt>
      <trkpt lat="44.43367" lon="5.28832">
        <ele>394</ele>
      </trkpt>
      <trkpt lat="44.43355" lon="5.2881">
        <ele>393</ele>
      </trkpt>
      <trkpt lat="44.4334" lon="5.28792">
        <ele>390</ele>
      </trkpt>
      <trkpt lat="44.43311" lon="5.28777">
        <ele>396</ele>
      </trkpt>
      <trkpt lat="44.43282" lon="5.28777">
        <ele>399</ele>
      </trkpt>
      <trkpt lat="44.43261" lon="5.28783">
        <ele>400</ele>
      </trkpt>
      <trkpt lat="44.43235" lon="5.28793">
        <ele>396</ele>
      </trkpt>
      <trkpt lat="44.43222" lon="5.28794">
        <ele>394</ele>
      </trkpt>
      <trkpt lat="44.4321" lon="5.28791">
        <ele>394</ele>
      </trkpt>
      <trkpt lat="44.432" lon="5.2878">
        <ele>393</ele>
      </trkpt>
      <trkpt lat="44.43197" lon="5.28768">
        <ele>393</ele>
      </trkpt>
      <trkpt lat="44.43194" lon="5.28745">
        <ele>395</ele>
      </trkpt>
      <trkpt lat="44.43193" lon="5.28651">
        <ele>407</ele>
      </trkpt>
      <trkpt lat="44.43194" lon="5.28617">
        <ele>403</ele>
      </trkpt>
      <trkpt lat="44.432" lon="5.28594">
        <ele>402</ele>
      </trkpt>
      <trkpt lat="44.43224" lon="5.28526">
        <ele>401</ele>
      </trkpt>
      <trkpt lat="44.43287" lon="5.28407">
        <ele>397</ele>
      </trkpt>
      <trkpt lat="44.43315" lon="5.28341">
        <ele>397</ele>
      </trkpt>
      <trkpt lat="44.43322" lon="5.28316">
        <ele>407</ele>
      </trkpt>
      <trkpt lat="44.43326" lon="5.28292">
        <ele>407</ele>
      </trkpt>
      <trkpt lat="44.43324" lon="5.28263">
        <ele>409</ele>
      </trkpt>
      <trkpt lat="44.43317" lon="5.28247">
        <ele>407</ele>
      </trkpt>
      <trkpt lat="44.43305" lon="5.28229">
        <ele>415</ele>
      </trkpt>
      <trkpt lat="44.43292" lon="5.28216">
        <ele>416</ele>
      </trkpt>
      <trkpt lat="44.43276" lon="5.28209">
        <ele>411</ele>
      </trkpt>
      <trkpt lat="44.43257" lon="5.28209">
        <ele>402</ele>
      </trkpt>
      <trkpt lat="44.43226" lon="5.28217">
        <ele>388</ele>
      </trkpt>
      <trkpt lat="44.43189" lon="5.28222">
        <ele>381</ele>
      </trkpt>
      <trkpt lat="44.43178" lon="5.2822">
        <ele>379</ele>
      </trkpt>
      <trkpt lat="44.43169" lon="5.28211">
        <ele>379</ele>
      </trkpt>
      <trkpt lat="44.4316" lon="5.28195">
        <ele>385</ele>
      </trkpt>
      <trkpt lat="44.43157" lon="5.28175">
        <ele>387</ele>
      </trkpt>
      <trkpt lat="44.43157" lon="5.28156">
        <ele>393</ele>
      </trkpt>
      <trkpt lat="44.43162" lon="5.28133">
        <ele>399</ele>
      </trkpt>
      <trkpt lat="44.43205" lon="5.27998">
        <ele>411</ele>
      </trkpt>
      <trkpt lat="44.43208" lon="5.27973">
        <ele>418</ele>
      </trkpt>
      <trkpt lat="44.43202" lon="5.27905">
        <ele>407</ele>
      </trkpt>
      <trkpt lat="44.43196" lon="5.2788">
        <ele>412</ele>
      </trkpt>
      <trkpt lat="44.43186" lon="5.27855">
        <ele>415</ele>
      </trkpt>
      <trkpt lat="44.43162" lon="5.27808">
        <ele>409</ele>
      </trkpt>
      <trkpt lat="44.43139" lon="5.27776">
        <ele>397</ele>
      </trkpt>
      <trkpt lat="44.43112" lon="5.27746">
        <ele>388</ele>
      </trkpt>
      <trkpt lat="44.43098" lon="5.27732">
        <ele>388</ele>
      </trkpt>
      <trkpt lat="44.43068" lon="5.27712">
        <ele>384</ele>
      </trkpt>
      <trkpt lat="44.43033" lon="5.27692">
        <ele>384</ele>
      </trkpt>
      <trkpt lat="44.42997" lon="5.27676">
        <ele>387</ele>
      </trkpt>
      <trkpt lat="44.42965" lon="5.2767">
        <ele>385</ele>
      </trkpt>
      <trkpt lat="44.4295" lon="5.27672">
        <ele>378</ele>
      </trkpt>
      <trkpt lat="44.42921" lon="5.27681">
        <ele>374</ele>
      </trkpt>
      <trkpt lat="44.429" lon="5.27693">
        <ele>377</ele>
      </trkpt>
      <trkpt lat="44.42886" lon="5.27706">
        <ele>372</ele>
      </trkpt>
      <trkpt lat="44.42867" lon="5.2773">
        <ele>373</ele>
      </trkpt>
      <trkpt lat="44.42851" lon="5.27767">
        <ele>372</ele>
      </trkpt>
      <trkpt lat="44.42846" lon="5.27789">
        <ele>372</ele>
      </trkpt>
      <trkpt lat="44.42823" lon="5.2793">
        <ele>368</ele>
      </trkpt>
      <trkpt lat="44.42815" lon="5.2796">
        <ele>368</ele>
      </trkpt>
      <trkpt lat="44.42801" lon="5.27978">
        <ele>369</ele>
      </trkpt>
      <trkpt lat="44.4279" lon="5.27981">
        <ele>368</ele>
      </trkpt>
      <trkpt lat="44.4278" lon="5.27979">
        <ele>370</ele>
      </trkpt>
      <trkpt lat="44.42768" lon="5.27972">
        <ele>370</ele>
      </trkpt>
      <trkpt lat="44.42744" lon="5.27955">
        <ele>371</ele>
      </trkpt>
      <trkpt lat="44.42729" lon="5.27937">
        <ele>375</ele>
      </trkpt>
      <trkpt lat="44.42705" lon="5.27897">
        <ele>381</ele>
      </trkpt>
      <trkpt lat="44.42679" lon="5.27862">
        <ele>393</ele>
      </trkpt>
      <trkpt lat="44.42651" lon="5.27831">
        <ele>395</ele>
      </trkpt>
      <trkpt lat="44.42623" lon="5.27806">
        <ele>398</ele>
      </trkpt>
      <trkpt lat="44.42602" lon="5.2779">
        <ele>392</ele>
      </trkpt>
      <trkpt lat="44.42447" lon="5.27692">
        <ele>380</ele>
      </trkpt>
      <trkpt lat="44.42396" lon="5.2767">
        <ele>375</ele>
      </trkpt>
      <trkpt lat="44.42351" lon="5.27653">
        <ele>372</ele>
      </trkpt>
      <trkpt lat="44.42297" lon="5.27623">
        <ele>373</ele>
      </trkpt>
      <trkpt lat="44.42218" lon="5.27591">
        <ele>372</ele>
      </trkpt>
      <trkpt lat="44.4218" lon="5.27573">
        <ele>374</ele>
      </trkpt>
      <trkpt lat="44.42142" lon="5.27542">
        <ele>372</ele>
      </trkpt>
      <trkpt lat="44.42086" lon="5.2748">
        <ele>371</ele>
      </trkpt>
      <trkpt lat="44.42" lon="5.27372">
        <ele>375</ele>
      </trkpt>
      <trkpt lat="44.41975" lon="5.27345">
        <ele>373</ele>
      </trkpt>
      <trkpt lat="44.41911" lon="5.27297">
        <ele>373</ele>
      </trkpt>
      <trkpt lat="44.41863" lon="5.27241">
        <ele>370</ele>
      </trkpt>
      <trkpt lat="44.41827" lon="5.27208">
        <ele>371</ele>
      </trkpt>
      <trkpt lat="44.41785" lon="5.27165">
        <ele>373</ele>
      </trkpt>
      <trkpt lat="44.41659" lon="5.27044">
        <ele>375</ele>
      </trkpt>
      <trkpt lat="44.41547" lon="5.26951">
        <ele>372</ele>
      </trkpt>
      <trkpt lat="44.41532" lon="5.26932">
        <ele>369</ele>
      </trkpt>
      <trkpt lat="44.41515" lon="5.26901">
        <ele>371</ele>
      </trkpt>
      <trkpt lat="44.4151" lon="5.26887">
        <ele>370</ele>
      </trkpt>
      <trkpt lat="44.41498" lon="5.26859">
        <ele>373</ele>
      </trkpt>
      <trkpt lat="44.41444" lon="5.26749">
        <ele>369</ele>
      </trkpt>
      <trkpt lat="44.41433" lon="5.26717">
        <ele>370</ele>
      </trkpt>
      <trkpt lat="44.41429" lon="5.26693">
        <ele>370</ele>
      </trkpt>
      <trkpt lat="44.41428" lon="5.26666">
        <ele>366</ele>
      </trkpt>
      <trkpt lat="44.41442" lon="5.26497">
        <ele>368</ele>
      </trkpt>
      <trkpt lat="44.41441" lon="5.2648">
        <ele>368</ele>
      </trkpt>
      <trkpt lat="44.41437" lon="5.26459">
        <ele>369</ele>
      </trkpt>
      <trkpt lat="44.41427" lon="5.26421">
        <ele>367</ele>
      </trkpt>
      <trkpt lat="44.41393" lon="5.26342">
        <ele>367</ele>
      </trkpt>
      <trkpt lat="44.41363" lon="5.26292">
        <ele>369</ele>
      </trkpt>
      <trkpt lat="44.41343" lon="5.26268">
        <ele>365</ele>
      </trkpt>
      <trkpt lat="44.41299" lon="5.26231">
        <ele>363</ele>
      </trkpt>
      <trkpt lat="44.41273" lon="5.26198">
        <ele>368</ele>
      </trkpt>
      <trkpt lat="44.41265" lon="5.2618">
        <ele>368</ele>
      </trkpt>
      <trkpt lat="44.41258" lon="5.26154">
        <ele>366</ele>
      </trkpt>
      <trkpt lat="44.41248" lon="5.26126">
        <ele>367</ele>
      </trkpt>
      <trkpt lat="44.4121" lon="5.26054">
        <ele>366</ele>
      </trkpt>
      <trkpt lat="44.41196" lon="5.26018">
        <ele>363</ele>
      </trkpt>
      <trkpt lat="44.41188" lon="5.2598">
        <ele>365</ele>
      </trkpt>
      <trkpt lat="44.41165" lon="5.25841">
        <ele>366</ele>
      </trkpt>
      <trkpt lat="44.41154" lon="5.25812">
        <ele>366</ele>
      </trkpt>
      <trkpt lat="44.41144" lon="5.25794">
        <ele>362</ele>
      </trkpt>
      <trkpt lat="44.41096" lon="5.25735">
        <ele>362</ele>
      </trkpt>
      <trkpt lat="44.41082" lon="5.25706">
        <ele>359</ele>
      </trkpt>
      <trkpt lat="44.41076" lon="5.25674">
        <ele>361</ele>
      </trkpt>
      <trkpt lat="44.41068" lon="5.2558">
        <ele>365</ele>
      </trkpt>
      <trkpt lat="44.41062" lon="5.25552">
        <ele>359</ele>
      </trkpt>
      <trkpt lat="44.41056" lon="5.2553">
        <ele>357</ele>
      </trkpt>
      <trkpt lat="44.41049" lon="5.25515">
        <ele>356</ele>
      </trkpt>
      <trkpt lat="44.41027" lon="5.25487">
        <ele>352</ele>
      </trkpt>
      <trkpt lat="44.40987" lon="5.2544">
        <ele>359</ele>
      </trkpt>
      <trkpt lat="44.4097" lon="5.25425">
        <ele>357</ele>
      </trkpt>
      <trkpt lat="44.40922" lon="5.25395">
        <ele>358</ele>
      </trkpt>
      <trkpt lat="44.40905" lon="5.25382">
        <ele>358</ele>
      </trkpt>
      <trkpt lat="44.4089" lon="5.25362">
        <ele>359</ele>
      </trkpt>
      <trkpt lat="44.4084" lon="5.25271">
        <ele>357</ele>
      </trkpt>
      <trkpt lat="44.40821" lon="5.25241">
        <ele>359</ele>
      </trkpt>
      <trkpt lat="44.40808" lon="5.25225">
        <ele>357</ele>
      </trkpt>
      <trkpt lat="44.40795" lon="5.25214">
        <ele>357</ele>
      </trkpt>
      <trkpt lat="44.40769" lon="5.25196">
        <ele>357</ele>
      </trkpt>
      <trkpt lat="44.4077" lon="5.2519">
        <ele>358</ele>
      </trkpt>
      <trkpt lat="44.40763" lon="5.25173">
        <ele>361</ele>
      </trkpt>
      <trkpt lat="44.40738" lon="5.2517">
        <ele>359</ele>
      </trkpt>
      <trkpt lat="44.40714" lon="5.25157">
        <ele>357</ele>
      </trkpt>
      <trkpt lat="44.40675" lon="5.25132">
        <ele>357</ele>
      </trkpt>
      <trkpt lat="44.40667" lon="5.25109">
        <ele>360</ele>
      </trkpt>
      <trkpt lat="44.40667" lon="5.25012">
        <ele>372</ele>
      </trkpt>
      <trkpt lat="44.40653" lon="5.24996">
        <ele>376</ele>
      </trkpt>
      <trkpt lat="44.40589" lon="5.24948">
        <ele>375</ele>
      </trkpt>
      <trkpt lat="44.4058" lon="5.24931">
        <ele>375</ele>
      </trkpt>
      <trkpt lat="44.40573" lon="5.24877">
        <ele>385</ele>
      </trkpt>
      <trkpt lat="44.40565" lon="5.24853">
        <ele>387</ele>
      </trkpt>
      <trkpt lat="44.40522" lon="5.24775">
        <ele>401</ele>
      </trkpt>
      <trkpt lat="44.40496" lon="5.24756">
        <ele>401</ele>
      </trkpt>
      <trkpt lat="44.40472" lon="5.24722">
        <ele>403</ele>
      </trkpt>
      <trkpt lat="44.40397" lon="5.24705">
        <ele>392</ele>
      </trkpt>
      <trkpt lat="44.40361" lon="5.24708">
        <ele>391</ele>
      </trkpt>
      <trkpt lat="44.40337" lon="5.24703">
        <ele>391</ele>
      </trkpt>
      <trkpt lat="44.40315" lon="5.24685">
        <ele>397</ele>
      </trkpt>
      <trkpt lat="44.40307" lon="5.24671">
        <ele>402</ele>
      </trkpt>
      <trkpt lat="44.40306" lon="5.24661">
        <ele>403</ele>
      </trkpt>
      <trkpt lat="44.40316" lon="5.24627">
        <ele>408</ele>
      </trkpt>
      <trkpt lat="44.40344" lon="5.24585">
        <ele>417</ele>
      </trkpt>
      <trkpt lat="44.40352" lon="5.2456">
        <ele>424</ele>
      </trkpt>
      <trkpt lat="44.40351" lon="5.24537">
        <ele>425</ele>
      </trkpt>
      <trkpt lat="44.40343" lon="5.24513">
        <ele>419</ele>
      </trkpt>
      <trkpt lat="44.40343" lon="5.245">
        <ele>421</ele>
      </trkpt>
      <trkpt lat="44.40347" lon="5.24496">
        <ele>429</ele>
      </trkpt>
      <trkpt lat="44.40352" lon="5.24495">
        <ele>430</ele>
      </trkpt>
      <trkpt lat="44.40358" lon="5.24511">
        <ele>428</ele>
      </trkpt>
      <trkpt lat="44.40381" lon="5.2459">
        <ele>430</ele>
      </trkpt>
      <trkpt lat="44.40392" lon="5.24615">
        <ele>426</ele>
      </trkpt>
      <trkpt lat="44.40406" lon="5.24626">
        <ele>425</ele>
      </trkpt>
      <trkpt lat="44.40411" lon="5.24614">
        <ele>432</ele>
      </trkpt>
      <trkpt lat="44.40399" lon="5.24589">
        <ele>432</ele>
      </trkpt>
      <trkpt lat="44.40397" lon="5.24545">
        <ele>436</ele>
      </trkpt>
      <trkpt lat="44.40385" lon="5.24503">
        <ele>442</ele>
      </trkpt>
      <trkpt lat="44.40367" lon="5.24396">
        <ele>456</ele>
      </trkpt>
      <trkpt lat="44.40337" lon="5.24331">
        <ele>456</ele>
      </trkpt>
      <trkpt lat="44.40326" lon="5.24267">
        <ele>461</ele>
      </trkpt>
      <trkpt lat="44.4033" lon="5.24232">
        <ele>462</ele>
      </trkpt>
      <trkpt lat="44.40375" lon="5.24162">
        <ele>464</ele>
      </trkpt>
      <trkpt lat="44.40422" lon="5.24151">
        <ele>477</ele>
      </trkpt>
      <trkpt lat="44.40479" lon="5.24109">
        <ele>481</ele>
      </trkpt>
      <trkpt lat="44.40512" lon="5.24067">
        <ele>482</ele>
      </trkpt>
      <trkpt lat="44.40533" lon="5.2405">
        <ele>470</ele>
      </trkpt>
      <trkpt lat="44.40577" lon="5.24035">
        <ele>476</ele>
      </trkpt>
      <trkpt lat="44.40638" lon="5.24047">
        <ele>481</ele>
      </trkpt>
      <trkpt lat="44.40693" lon="5.24049">
        <ele>489</ele>
      </trkpt>
      <trkpt lat="44.40721" lon="5.24066">
        <ele>503</ele>
      </trkpt>
      <trkpt lat="44.40772" lon="5.24041">
        <ele>515</ele>
      </trkpt>
      <trkpt lat="44.40805" lon="5.23992">
        <ele>505</ele>
      </trkpt>
      <trkpt lat="44.40844" lon="5.23944">
        <ele>500</ele>
      </trkpt>
      <trkpt lat="44.40891" lon="5.23925">
        <ele>519</ele>
      </trkpt>
      <trkpt lat="44.40914" lon="5.23895">
        <ele>518</ele>
      </trkpt>
      <trkpt lat="44.4093" lon="5.2385">
        <ele>520</ele>
      </trkpt>
      <trkpt lat="44.40939" lon="5.23808">
        <ele>510</ele>
      </trkpt>
      <trkpt lat="44.40959" lon="5.23769">
        <ele>512</ele>
      </trkpt>
      <trkpt lat="44.40973" lon="5.23704">
        <ele>500</ele>
      </trkpt>
      <trkpt lat="44.40986" lon="5.23685">
        <ele>499</ele>
      </trkpt>
      <trkpt lat="44.41013" lon="5.23682">
        <ele>501</ele>
      </trkpt>
      <trkpt lat="44.41087" lon="5.23688">
        <ele>501</ele>
      </trkpt>
      <trkpt lat="44.41165" lon="5.23744">
        <ele>499</ele>
      </trkpt>
      <trkpt lat="44.41193" lon="5.23773">
        <ele>499</ele>
      </trkpt>
      <trkpt lat="44.41203" lon="5.23778">
        <ele>499</ele>
      </trkpt>
      <trkpt lat="44.41218" lon="5.23772">
        <ele>499</ele>
      </trkpt>
      <trkpt lat="44.41229" lon="5.23771">
        <ele>500</ele>
      </trkpt>
      <trkpt lat="44.41252" lon="5.23788">
        <ele>502</ele>
      </trkpt>
      <trkpt lat="44.4126" lon="5.23789">
        <ele>502</ele>
      </trkpt>
      <trkpt lat="44.41276" lon="5.23785">
        <ele>503</ele>
      </trkpt>
      <trkpt lat="44.41314" lon="5.23766">
        <ele>503</ele>
      </trkpt>
      <trkpt lat="44.41323" lon="5.23755">
        <ele>505</ele>
      </trkpt>
      <trkpt lat="44.41338" lon="5.23718">
        <ele>508</ele>
      </trkpt>
      <trkpt lat="44.4134" lon="5.23668">
        <ele>514</ele>
      </trkpt>
      <trkpt lat="44.41332" lon="5.23632">
        <ele>515</ele>
      </trkpt>
      <trkpt lat="44.41322" lon="5.23591">
        <ele>519</ele>
      </trkpt>
      <trkpt lat="44.4131" lon="5.23559">
        <ele>518</ele>
      </trkpt>
      <trkpt lat="44.4131" lon="5.23529">
        <ele>519</ele>
      </trkpt>
      <trkpt lat="44.41327" lon="5.23488">
        <ele>523</ele>
      </trkpt>
      <trkpt lat="44.41393" lon="5.23433">
        <ele>531</ele>
      </trkpt>
      <trkpt lat="44.41429" lon="5.23358">
        <ele>534</ele>
      </trkpt>
      <trkpt lat="44.41458" lon="5.2332">
        <ele>537</ele>
      </trkpt>
      <trkpt lat="44.41497" lon="5.23279">
        <ele>538</ele>
      </trkpt>
      <trkpt lat="44.41514" lon="5.2325">
        <ele>538</ele>
      </trkpt>
      <trkpt lat="44.41524" lon="5.23224">
        <ele>536</ele>
      </trkpt>
      <trkpt lat="44.41521" lon="5.23173">
        <ele>532</ele>
      </trkpt>
      <trkpt lat="44.41515" lon="5.23138">
        <ele>533</ele>
      </trkpt>
      <trkpt lat="44.41515" lon="5.23113">
        <ele>534</ele>
      </trkpt>
      <trkpt lat="44.4152" lon="5.23094">
        <ele>534</ele>
      </trkpt>
      <trkpt lat="44.41521" lon="5.23066">
        <ele>534</ele>
      </trkpt>
      <trkpt lat="44.41523" lon="5.23055">
        <ele>535</ele>
      </trkpt>
      <trkpt lat="44.41526" lon="5.23052">
        <ele>534</ele>
      </trkpt>
      <trkpt lat="44.41552" lon="5.23034">
        <ele>537</ele>
      </trkpt>
      <trkpt lat="44.41563" lon="5.23035">
        <ele>536</ele>
      </trkpt>
      <trkpt lat="44.41587" lon="5.23059">
        <ele>537</ele>
      </trkpt>
      <trkpt lat="44.41607" lon="5.23068">
        <ele>538</ele>
      </trkpt>
      <trkpt lat="44.41621" lon="5.2307">
        <ele>539</ele>
      </trkpt>
      <trkpt lat="44.41631" lon="5.23069">
        <ele>541</ele>
      </trkpt>
      <trkpt lat="44.4167" lon="5.2306">
        <ele>545</ele>
      </trkpt>
      <trkpt lat="44.41721" lon="5.23076">
        <ele>547</ele>
      </trkpt>
      <trkpt lat="44.4175" lon="5.23095">
        <ele>548</ele>
      </trkpt>
      <trkpt lat="44.41753" lon="5.2309">
        <ele>548</ele>
      </trkpt>
      <trkpt lat="44.41719" lon="5.22982">
        <ele>556</ele>
      </trkpt>
      <trkpt lat="44.41707" lon="5.22936">
        <ele>561</ele>
      </trkpt>
      <trkpt lat="44.41709" lon="5.2292">
        <ele>563</ele>
      </trkpt>
      <trkpt lat="44.41725" lon="5.22887">
        <ele>563</ele>
      </trkpt>
      <trkpt lat="44.41755" lon="5.2286">
        <ele>565</ele>
      </trkpt>
      <trkpt lat="44.41772" lon="5.22851">
        <ele>570</ele>
      </trkpt>
      <trkpt lat="44.41785" lon="5.22832">
        <ele>571</ele>
      </trkpt>
      <trkpt lat="44.41807" lon="5.22764">
        <ele>579</ele>
      </trkpt>
      <trkpt lat="44.41809" lon="5.22734">
        <ele>579</ele>
      </trkpt>
      <trkpt lat="44.41798" lon="5.22667">
        <ele>580</ele>
      </trkpt>
      <trkpt lat="44.4176" lon="5.22638">
        <ele>574</ele>
      </trkpt>
      <trkpt lat="44.41754" lon="5.22622">
        <ele>574</ele>
      </trkpt>
      <trkpt lat="44.41756" lon="5.22602">
        <ele>575</ele>
      </trkpt>
      <trkpt lat="44.41834" lon="5.22543">
        <ele>586</ele>
      </trkpt>
      <trkpt lat="44.41864" lon="5.22505">
        <ele>589</ele>
      </trkpt>
      <trkpt lat="44.41904" lon="5.2248">
        <ele>593</ele>
      </trkpt>
      <trkpt lat="44.41938" lon="5.22448">
        <ele>589</ele>
      </trkpt>
      <trkpt lat="44.4195" lon="5.22444">
        <ele>589</ele>
      </trkpt>
      <trkpt lat="44.4199" lon="5.22448">
        <ele>597</ele>
      </trkpt>
      <trkpt lat="44.41996" lon="5.22443">
        <ele>596</ele>
      </trkpt>
      <trkpt lat="44.42006" lon="5.22431">
        <ele>597</ele>
      </trkpt>
      <trkpt lat="44.42042" lon="5.22353">
        <ele>593</ele>
      </trkpt>
      <trkpt lat="44.42054" lon="5.22341">
        <ele>593</ele>
      </trkpt>
      <trkpt lat="44.42079" lon="5.22334">
        <ele>593</ele>
      </trkpt>
      <trkpt lat="44.42107" lon="5.22303">
        <ele>593</ele>
      </trkpt>
      <trkpt lat="44.42123" lon="5.22265">
        <ele>591</ele>
      </trkpt>
      <trkpt lat="44.42141" lon="5.22238">
        <ele>585</ele>
      </trkpt>
      <trkpt lat="44.4216" lon="5.22196">
        <ele>574</ele>
      </trkpt>
      <trkpt lat="44.42175" lon="5.22157">
        <ele>566</ele>
      </trkpt>
      <trkpt lat="44.42185" lon="5.22147">
        <ele>564</ele>
      </trkpt>
      <trkpt lat="44.42194" lon="5.22145">
        <ele>559</ele>
      </trkpt>
      <trkpt lat="44.42221" lon="5.22157">
        <ele>562</ele>
      </trkpt>
      <trkpt lat="44.42245" lon="5.22153">
        <ele>556</ele>
      </trkpt>
      <trkpt lat="44.42251" lon="5.22157">
        <ele>556</ele>
      </trkpt>
      <trkpt lat="44.42263" lon="5.22168">
        <ele>551</ele>
      </trkpt>
      <trkpt lat="44.42274" lon="5.22184">
        <ele>560</ele>
      </trkpt>
      <trkpt lat="44.42287" lon="5.22192">
        <ele>559</ele>
      </trkpt>
      <trkpt lat="44.42301" lon="5.22197">
        <ele>555</ele>
      </trkpt>
      <trkpt lat="44.42321" lon="5.22214">
        <ele>564</ele>
      </trkpt>
      <trkpt lat="44.42347" lon="5.22213">
        <ele>560</ele>
      </trkpt>
      <trkpt lat="44.4241" lon="5.22199">
        <ele>535</ele>
      </trkpt>
      <trkpt lat="44.42418" lon="5.22199">
        <ele>534</ele>
      </trkpt>
      <trkpt lat="44.42427" lon="5.22202">
        <ele>540</ele>
      </trkpt>
      <trkpt lat="44.42447" lon="5.22227">
        <ele>538</ele>
      </trkpt>
      <trkpt lat="44.42462" lon="5.22236">
        <ele>542</ele>
      </trkpt>
      <trkpt lat="44.42475" lon="5.22241">
        <ele>542</ele>
      </trkpt>
      <trkpt lat="44.42507" lon="5.22245">
        <ele>539</ele>
      </trkpt>
      <trkpt lat="44.42512" lon="5.22243">
        <ele>534</ele>
      </trkpt>
      <trkpt lat="44.42514" lon="5.22237">
        <ele>534</ele>
      </trkpt>
      <trkpt lat="44.42512" lon="5.22232">
        <ele>533</ele>
      </trkpt>
      <trkpt lat="44.42489" lon="5.2223">
        <ele>539</ele>
      </trkpt>
      <trkpt lat="44.4248" lon="5.22228">
        <ele>535</ele>
      </trkpt>
      <trkpt lat="44.42444" lon="5.22198">
        <ele>527</ele>
      </trkpt>
      <trkpt lat="44.42435" lon="5.22186">
        <ele>526</ele>
      </trkpt>
      <trkpt lat="44.42433" lon="5.22178">
        <ele>525</ele>
      </trkpt>
      <trkpt lat="44.42437" lon="5.22176">
        <ele>524</ele>
      </trkpt>
      <trkpt lat="44.42445" lon="5.22186">
        <ele>524</ele>
      </trkpt>
      <trkpt lat="44.42455" lon="5.22193">
        <ele>526</ele>
      </trkpt>
      <trkpt lat="44.42486" lon="5.22205">
        <ele>531</ele>
      </trkpt>
      <trkpt lat="44.42497" lon="5.22203">
        <ele>531</ele>
      </trkpt>
      <trkpt lat="44.42506" lon="5.22198">
        <ele>525</ele>
      </trkpt>
      <trkpt lat="44.42527" lon="5.22177">
        <ele>518</ele>
      </trkpt>
      <trkpt lat="44.42535" lon="5.22173">
        <ele>516</ele>
      </trkpt>
      <trkpt lat="44.42576" lon="5.22175">
        <ele>502</ele>
      </trkpt>
      <trkpt lat="44.42592" lon="5.22171">
        <ele>496</ele>
      </trkpt>
      <trkpt lat="44.426" lon="5.22173">
        <ele>494</ele>
      </trkpt>
      <trkpt lat="44.42604" lon="5.22182">
        <ele>494</ele>
      </trkpt>
      <trkpt lat="44.42609" lon="5.22218">
        <ele>496</ele>
      </trkpt>
      <trkpt lat="44.42616" lon="5.22255">
        <ele>496</ele>
      </trkpt>
      <trkpt lat="44.42622" lon="5.22308">
        <ele>501</ele>
      </trkpt>
      <trkpt lat="44.42625" lon="5.22319">
        <ele>498</ele>
      </trkpt>
      <trkpt lat="44.42631" lon="5.22328">
        <ele>498</ele>
      </trkpt>
      <trkpt lat="44.42648" lon="5.22342">
        <ele>500</ele>
      </trkpt>
      <trkpt lat="44.42666" lon="5.22355">
        <ele>494</ele>
      </trkpt>
      <trkpt lat="44.42692" lon="5.22368">
        <ele>489</ele>
      </trkpt>
      <trkpt lat="44.42695" lon="5.22378">
        <ele>490</ele>
      </trkpt>
      <trkpt lat="44.42708" lon="5.22389">
        <ele>484</ele>
      </trkpt>
      <trkpt lat="44.4271" lon="5.22383">
        <ele>483</ele>
      </trkpt>
      <trkpt lat="44.4271" lon="5.22377">
        <ele>483</ele>
      </trkpt>
      <trkpt lat="44.42674" lon="5.22327">
        <ele>488</ele>
      </trkpt>
      <trkpt lat="44.42667" lon="5.22305">
        <ele>485</ele>
      </trkpt>
      <trkpt lat="44.42669" lon="5.22299">
        <ele>484</ele>
      </trkpt>
      <trkpt lat="44.42681" lon="5.22289">
        <ele>478</ele>
      </trkpt>
      <trkpt lat="44.42691" lon="5.22275">
        <ele>474</ele>
      </trkpt>
      <trkpt lat="44.42695" lon="5.22258">
        <ele>474</ele>
      </trkpt>
      <trkpt lat="44.42698" lon="5.22228">
        <ele>469</ele>
      </trkpt>
      <trkpt lat="44.42693" lon="5.22184">
        <ele>468</ele>
      </trkpt>
      <trkpt lat="44.42694" lon="5.22172">
        <ele>469</ele>
      </trkpt>
      <trkpt lat="44.42713" lon="5.22133">
        <ele>464</ele>
      </trkpt>
      <trkpt lat="44.42733" lon="5.22113">
        <ele>460</ele>
      </trkpt>
      <trkpt lat="44.4274" lon="5.22119">
        <ele>451</ele>
      </trkpt>
      <trkpt lat="44.42737" lon="5.22125">
        <ele>452</ele>
      </trkpt>
      <trkpt lat="44.42717" lon="5.22152">
        <ele>462</ele>
      </trkpt>
      <trkpt lat="44.42714" lon="5.22168">
        <ele>462</ele>
      </trkpt>
      <trkpt lat="44.42713" lon="5.22184">
        <ele>461</ele>
      </trkpt>
      <trkpt lat="44.42727" lon="5.22208">
        <ele>461</ele>
      </trkpt>
      <trkpt lat="44.4273" lon="5.22225">
        <ele>461</ele>
      </trkpt>
      <trkpt lat="44.42736" lon="5.22234">
        <ele>456</ele>
      </trkpt>
      <trkpt lat="44.42742" lon="5.22235">
        <ele>455</ele>
      </trkpt>
      <trkpt lat="44.42747" lon="5.22228">
        <ele>453</ele>
      </trkpt>
      <trkpt lat="44.42743" lon="5.22213">
        <ele>454</ele>
      </trkpt>
      <trkpt lat="44.42739" lon="5.22191">
        <ele>453</ele>
      </trkpt>
      <trkpt lat="44.4274" lon="5.22174">
        <ele>453</ele>
      </trkpt>
      <trkpt lat="44.42766" lon="5.22132">
        <ele>438</ele>
      </trkpt>
      <trkpt lat="44.42774" lon="5.2211">
        <ele>436</ele>
      </trkpt>
      <trkpt lat="44.42776" lon="5.22093">
        <ele>435</ele>
      </trkpt>
      <trkpt lat="44.42763" lon="5.22044">
        <ele>435</ele>
      </trkpt>
      <trkpt lat="44.42769" lon="5.21997">
        <ele>430</ele>
      </trkpt>
      <trkpt lat="44.42769" lon="5.2198">
        <ele>429</ele>
      </trkpt>
      <trkpt lat="44.4277" lon="5.2197">
        <ele>426</ele>
      </trkpt>
      <trkpt lat="44.42777" lon="5.21973">
        <ele>425</ele>
      </trkpt>
      <trkpt lat="44.42779" lon="5.21982">
        <ele>428</ele>
      </trkpt>
      <trkpt lat="44.42782" lon="5.22">
        <ele>429</ele>
      </trkpt>
      <trkpt lat="44.42781" lon="5.22025">
        <ele>432</ele>
      </trkpt>
      <trkpt lat="44.42782" lon="5.22039">
        <ele>433</ele>
      </trkpt>
      <trkpt lat="44.42787" lon="5.22053">
        <ele>432</ele>
      </trkpt>
      <trkpt lat="44.42805" lon="5.22082">
        <ele>424</ele>
      </trkpt>
      <trkpt lat="44.42812" lon="5.22119">
        <ele>424</ele>
      </trkpt>
      <trkpt lat="44.42815" lon="5.22174">
        <ele>428</ele>
      </trkpt>
      <trkpt lat="44.42833" lon="5.2221">
        <ele>425</ele>
      </trkpt>
      <trkpt lat="44.42839" lon="5.22211">
        <ele>425</ele>
      </trkpt>
      <trkpt lat="44.42842" lon="5.22206">
        <ele>424</ele>
      </trkpt>
      <trkpt lat="44.42837" lon="5.2218">
        <ele>423</ele>
      </trkpt>
      <trkpt lat="44.42836" lon="5.22169">
        <ele>422</ele>
      </trkpt>
      <trkpt lat="44.42839" lon="5.22159">
        <ele>422</ele>
      </trkpt>
      <trkpt lat="44.42858" lon="5.22141">
        <ele>419</ele>
      </trkpt>
      <trkpt lat="44.42907" lon="5.2212">
        <ele>420</ele>
      </trkpt>
      <trkpt lat="44.42922" lon="5.22123">
        <ele>421</ele>
      </trkpt>
      <trkpt lat="44.42934" lon="5.22122">
        <ele>422</ele>
      </trkpt>
      <trkpt lat="44.42944" lon="5.22113">
        <ele>423</ele>
      </trkpt>
      <trkpt lat="44.4293" lon="5.2207">
        <ele>424</ele>
      </trkpt>
      <trkpt lat="44.42895" lon="5.22003">
        <ele>427</ele>
      </trkpt>
      <trkpt lat="44.42876" lon="5.21911">
        <ele>430</ele>
      </trkpt>
      <trkpt lat="44.42864" lon="5.21872">
        <ele>425</ele>
      </trkpt>
      <trkpt lat="44.42852" lon="5.21847">
        <ele>427</ele>
      </trkpt>
      <trkpt lat="44.42786" lon="5.21772">
        <ele>421</ele>
      </trkpt>
      <trkpt lat="44.42777" lon="5.21748">
        <ele>420</ele>
      </trkpt>
      <trkpt lat="44.42873" lon="5.21706">
        <ele>426</ele>
      </trkpt>
      <trkpt lat="44.42905" lon="5.21678">
        <ele>426</ele>
      </trkpt>
      <trkpt lat="44.43104" lon="5.21457">
        <ele>433</ele>
      </trkpt>
      <trkpt lat="44.4317" lon="5.21394">
        <ele>438</ele>
      </trkpt>
      <trkpt lat="44.43243" lon="5.21329">
        <ele>444</ele>
      </trkpt>
      <trkpt lat="44.43269" lon="5.21314">
        <ele>451</ele>
      </trkpt>
      <trkpt lat="44.43319" lon="5.21291">
        <ele>452</ele>
      </trkpt>
      <trkpt lat="44.43344" lon="5.21287">
        <ele>451</ele>
      </trkpt>
      <trkpt lat="44.43394" lon="5.21288">
        <ele>457</ele>
      </trkpt>
      <trkpt lat="44.43411" lon="5.21285">
        <ele>460</ele>
      </trkpt>
      <trkpt lat="44.43513" lon="5.21229">
        <ele>449</ele>
      </trkpt>
      <trkpt lat="44.43522" lon="5.21224">
        <ele>448</ele>
      </trkpt>
      <trkpt lat="44.43544" lon="5.21211">
        <ele>452</ele>
      </trkpt>
      <trkpt lat="44.43574" lon="5.21198">
        <ele>456</ele>
      </trkpt>
      <trkpt lat="44.43639" lon="5.21179">
        <ele>461</ele>
      </trkpt>
      <trkpt lat="44.4366" lon="5.2117">
        <ele>458</ele>
      </trkpt>
      <trkpt lat="44.43673" lon="5.21161">
        <ele>458</ele>
      </trkpt>
      <trkpt lat="44.43692" lon="5.21138">
        <ele>459</ele>
      </trkpt>
      <trkpt lat="44.4372" lon="5.21088">
        <ele>461</ele>
      </trkpt>
      <trkpt lat="44.43729" lon="5.21077">
        <ele>461</ele>
      </trkpt>
      <trkpt lat="44.43736" lon="5.21069">
        <ele>465</ele>
      </trkpt>
      <trkpt lat="44.43778" lon="5.2102">
        <ele>465</ele>
      </trkpt>
      <trkpt lat="44.43809" lon="5.20979">
        <ele>463</ele>
      </trkpt>
      <trkpt lat="44.43835" lon="5.20962">
        <ele>462</ele>
      </trkpt>
      <trkpt lat="44.4386" lon="5.20954">
        <ele>464</ele>
      </trkpt>
      <trkpt lat="44.43912" lon="5.20962">
        <ele>467</ele>
      </trkpt>
      <trkpt lat="44.43981" lon="5.20947">
        <ele>469</ele>
      </trkpt>
      <trkpt lat="44.4409" lon="5.20956">
        <ele>473</ele>
      </trkpt>
      <trkpt lat="44.44104" lon="5.20956">
        <ele>472</ele>
      </trkpt>
      <trkpt lat="44.44112" lon="5.20954">
        <ele>471</ele>
      </trkpt>
      <trkpt lat="44.44131" lon="5.20938">
        <ele>469</ele>
      </trkpt>
      <trkpt lat="44.44165" lon="5.2091">
        <ele>473</ele>
      </trkpt>
      <trkpt lat="44.44157" lon="5.20899">
        <ele>474</ele>
      </trkpt>
      <trkpt lat="44.44095" lon="5.20844">
        <ele>476</ele>
      </trkpt>
      <trkpt lat="44.44084" lon="5.20831">
        <ele>481</ele>
      </trkpt>
      <trkpt lat="44.44053" lon="5.20769">
        <ele>486</ele>
      </trkpt>
      <trkpt lat="44.44033" lon="5.2074">
        <ele>481</ele>
      </trkpt>
      <trkpt lat="44.44029" lon="5.20729">
        <ele>481</ele>
      </trkpt>
      <trkpt lat="44.44029" lon="5.20715">
        <ele>483</ele>
      </trkpt>
      <trkpt lat="44.44044" lon="5.20596">
        <ele>502</ele>
      </trkpt>
      <trkpt lat="44.44051" lon="5.20561">
        <ele>498</ele>
      </trkpt>
      <trkpt lat="44.44064" lon="5.20519">
        <ele>497</ele>
      </trkpt>
      <trkpt lat="44.4409" lon="5.2045">
        <ele>489</ele>
      </trkpt>
      <trkpt lat="44.441" lon="5.20429">
        <ele>494</ele>
      </trkpt>
      <trkpt lat="44.44117" lon="5.2041">
        <ele>490</ele>
      </trkpt>
      <trkpt lat="44.44166" lon="5.20379">
        <ele>513</ele>
      </trkpt>
      <trkpt lat="44.44179" lon="5.20366">
        <ele>516</ele>
      </trkpt>
      <trkpt lat="44.44214" lon="5.20307">
        <ele>508</ele>
      </trkpt>
      <trkpt lat="44.44251" lon="5.20223">
        <ele>502</ele>
      </trkpt>
      <trkpt lat="44.44262" lon="5.20205">
        <ele>502</ele>
      </trkpt>
      <trkpt lat="44.44275" lon="5.20191">
        <ele>501</ele>
      </trkpt>
      <trkpt lat="44.4432" lon="5.20165">
        <ele>506</ele>
      </trkpt>
      <trkpt lat="44.44334" lon="5.20162">
        <ele>505</ele>
      </trkpt>
      <trkpt lat="44.44346" lon="5.20163">
        <ele>508</ele>
      </trkpt>
      <trkpt lat="44.44437" lon="5.20184">
        <ele>519</ele>
      </trkpt>
      <trkpt lat="44.44448" lon="5.20181">
        <ele>518</ele>
      </trkpt>
      <trkpt lat="44.44472" lon="5.20166">
        <ele>513</ele>
      </trkpt>
      <trkpt lat="44.44483" lon="5.20168">
        <ele>515</ele>
      </trkpt>
      <trkpt lat="44.44491" lon="5.20177">
        <ele>518</ele>
      </trkpt>
      <trkpt lat="44.44496" lon="5.2019">
        <ele>519</ele>
      </trkpt>
      <trkpt lat="44.44502" lon="5.20199">
        <ele>521</ele>
      </trkpt>
      <trkpt lat="44.44514" lon="5.20205">
        <ele>526</ele>
      </trkpt>
      <trkpt lat="44.44527" lon="5.20204">
        <ele>524</ele>
      </trkpt>
      <trkpt lat="44.44544" lon="5.20196">
        <ele>518</ele>
      </trkpt>
      <trkpt lat="44.44556" lon="5.20195">
        <ele>517</ele>
      </trkpt>
      <trkpt lat="44.44565" lon="5.20197">
        <ele>518</ele>
      </trkpt>
      <trkpt lat="44.44586" lon="5.20207">
        <ele>522</ele>
      </trkpt>
      <trkpt lat="44.44606" lon="5.20206">
        <ele>527</ele>
      </trkpt>
      <trkpt lat="44.44624" lon="5.20216">
        <ele>533</ele>
      </trkpt>
      <trkpt lat="44.44646" lon="5.20219">
        <ele>535</ele>
      </trkpt>
      <trkpt lat="44.44661" lon="5.20213">
        <ele>539</ele>
      </trkpt>
      <trkpt lat="44.44675" lon="5.20199">
        <ele>532</ele>
      </trkpt>
      <trkpt lat="44.44681" lon="5.20182">
        <ele>530</ele>
      </trkpt>
      <trkpt lat="44.44686" lon="5.20163">
        <ele>524</ele>
      </trkpt>
      <trkpt lat="44.44694" lon="5.20157">
        <ele>522</ele>
      </trkpt>
      <trkpt lat="44.44703" lon="5.20164">
        <ele>523</ele>
      </trkpt>
      <trkpt lat="44.44714" lon="5.20167">
        <ele>522</ele>
      </trkpt>
      <trkpt lat="44.44733" lon="5.20155">
        <ele>520</ele>
      </trkpt>
      <trkpt lat="44.44741" lon="5.20155">
        <ele>520</ele>
      </trkpt>
      <trkpt lat="44.44752" lon="5.20163">
        <ele>521</ele>
      </trkpt>
      <trkpt lat="44.44765" lon="5.20167">
        <ele>525</ele>
      </trkpt>
      <trkpt lat="44.44784" lon="5.20166">
        <ele>526</ele>
      </trkpt>
      <trkpt lat="44.44835" lon="5.2017">
        <ele>530</ele>
      </trkpt>
      <trkpt lat="44.44915" lon="5.20156">
        <ele>522</ele>
      </trkpt>
      <trkpt lat="44.44924" lon="5.20149">
        <ele>522</ele>
      </trkpt>
      <trkpt lat="44.44926" lon="5.20137">
        <ele>519</ele>
      </trkpt>
      <trkpt lat="44.44927" lon="5.20097">
        <ele>519</ele>
      </trkpt>
      <trkpt lat="44.44932" lon="5.2008">
        <ele>522</ele>
      </trkpt>
      <trkpt lat="44.4494" lon="5.20069">
        <ele>523</ele>
      </trkpt>
      <trkpt lat="44.44962" lon="5.20059">
        <ele>526</ele>
      </trkpt>
      <trkpt lat="44.44995" lon="5.20055">
        <ele>526</ele>
      </trkpt>
      <trkpt lat="44.45007" lon="5.2005">
        <ele>526</ele>
      </trkpt>
      <trkpt lat="44.4501" lon="5.20039">
        <ele>526</ele>
      </trkpt>
      <trkpt lat="44.45008" lon="5.20029">
        <ele>528</ele>
      </trkpt>
      <trkpt lat="44.44987" lon="5.2001">
        <ele>530</ele>
      </trkpt>
      <trkpt lat="44.44956" lon="5.19998">
        <ele>533</ele>
      </trkpt>
      <trkpt lat="44.44926" lon="5.20001">
        <ele>532</ele>
      </trkpt>
      <trkpt lat="44.44896" lon="5.20011">
        <ele>530</ele>
      </trkpt>
      <trkpt lat="44.44885" lon="5.20007">
        <ele>531</ele>
      </trkpt>
      <trkpt lat="44.44871" lon="5.1999">
        <ele>536</ele>
      </trkpt>
      <trkpt lat="44.44859" lon="5.19968">
        <ele>538</ele>
      </trkpt>
      <trkpt lat="44.44832" lon="5.19954">
        <ele>540</ele>
      </trkpt>
      <trkpt lat="44.44798" lon="5.1995">
        <ele>541</ele>
      </trkpt>
      <trkpt lat="44.44777" lon="5.19964">
        <ele>539</ele>
      </trkpt>
      <trkpt lat="44.44764" lon="5.19981">
        <ele>536</ele>
      </trkpt>
      <trkpt lat="44.44757" lon="5.19981">
        <ele>538</ele>
      </trkpt>
      <trkpt lat="44.44753" lon="5.19976">
        <ele>542</ele>
      </trkpt>
      <trkpt lat="44.44754" lon="5.19969">
        <ele>543</ele>
      </trkpt>
      <trkpt lat="44.44797" lon="5.19918">
        <ele>553</ele>
      </trkpt>
      <trkpt lat="44.4483" lon="5.19903">
        <ele>551</ele>
      </trkpt>
      <trkpt lat="44.44854" lon="5.19904">
        <ele>550</ele>
      </trkpt>
      <trkpt lat="44.44876" lon="5.19894">
        <ele>556</ele>
      </trkpt>
      <trkpt lat="44.44894" lon="5.19891">
        <ele>557</ele>
      </trkpt>
      <trkpt lat="44.44915" lon="5.19897">
        <ele>554</ele>
      </trkpt>
      <trkpt lat="44.44931" lon="5.19895">
        <ele>556</ele>
      </trkpt>
      <trkpt lat="44.44947" lon="5.19888">
        <ele>563</ele>
      </trkpt>
      <trkpt lat="44.44957" lon="5.19888">
        <ele>563</ele>
      </trkpt>
      <trkpt lat="44.44964" lon="5.19892">
        <ele>563</ele>
      </trkpt>
      <trkpt lat="44.44994" lon="5.19912">
        <ele>557</ele>
      </trkpt>
      <trkpt lat="44.45011" lon="5.19914">
        <ele>556</ele>
      </trkpt>
      <trkpt lat="44.45017" lon="5.19909">
        <ele>555</ele>
      </trkpt>
      <trkpt lat="44.45021" lon="5.19897">
        <ele>557</ele>
      </trkpt>
      <trkpt lat="44.45022" lon="5.19853">
        <ele>572</ele>
      </trkpt>
      <trkpt lat="44.45026" lon="5.19844">
        <ele>573</ele>
      </trkpt>
      <trkpt lat="44.45032" lon="5.19841">
        <ele>573</ele>
      </trkpt>
      <trkpt lat="44.45039" lon="5.19843">
        <ele>574</ele>
      </trkpt>
      <trkpt lat="44.45066" lon="5.19878">
        <ele>566</ele>
      </trkpt>
      <trkpt lat="44.45076" lon="5.19886">
        <ele>566</ele>
      </trkpt>
      <trkpt lat="44.45088" lon="5.19885">
        <ele>566</ele>
      </trkpt>
      <trkpt lat="44.45122" lon="5.19868">
        <ele>569</ele>
      </trkpt>
      <trkpt lat="44.45179" lon="5.19821">
        <ele>584</ele>
      </trkpt>
      <trkpt lat="44.45242" lon="5.19782">
        <ele>581</ele>
      </trkpt>
      <trkpt lat="44.45254" lon="5.19762">
        <ele>584</ele>
      </trkpt>
      <trkpt lat="44.4527" lon="5.19753">
        <ele>590</ele>
      </trkpt>
      <trkpt lat="44.4529" lon="5.19746">
        <ele>590</ele>
      </trkpt>
      <trkpt lat="44.45372" lon="5.19681">
        <ele>587</ele>
      </trkpt>
      <trkpt lat="44.45385" lon="5.19659">
        <ele>586</ele>
      </trkpt>
      <trkpt lat="44.45393" lon="5.19632">
        <ele>594</ele>
      </trkpt>
      <trkpt lat="44.45426" lon="5.19565">
        <ele>593</ele>
      </trkpt>
      <trkpt lat="44.45454" lon="5.19475">
        <ele>612</ele>
      </trkpt>
      <trkpt lat="44.45462" lon="5.19458">
        <ele>606</ele>
      </trkpt>
      <trkpt lat="44.45495" lon="5.19424">
        <ele>606</ele>
      </trkpt>
      <trkpt lat="44.45507" lon="5.19405">
        <ele>613</ele>
      </trkpt>
      <trkpt lat="44.45515" lon="5.19374">
        <ele>615</ele>
      </trkpt>
      <trkpt lat="44.45552" lon="5.19299">
        <ele>619</ele>
      </trkpt>
      <trkpt lat="44.45554" lon="5.19284">
        <ele>621</ele>
      </trkpt>
      <trkpt lat="44.45552" lon="5.19268">
        <ele>625</ele>
      </trkpt>
      <trkpt lat="44.4555" lon="5.19235">
        <ele>630</ele>
      </trkpt>
      <trkpt lat="44.45563" lon="5.19175">
        <ele>637</ele>
      </trkpt>
      <trkpt lat="44.45581" lon="5.19146">
        <ele>635</ele>
      </trkpt>
      <trkpt lat="44.45584" lon="5.19129">
        <ele>638</ele>
      </trkpt>
      <trkpt lat="44.45582" lon="5.19099">
        <ele>642</ele>
      </trkpt>
      <trkpt lat="44.45585" lon="5.19076">
        <ele>648</ele>
      </trkpt>
      <trkpt lat="44.45595" lon="5.1906">
        <ele>654</ele>
      </trkpt>
      <trkpt lat="44.45617" lon="5.19049">
        <ele>646</ele>
      </trkpt>
      <trkpt lat="44.4565" lon="5.19016">
        <ele>647</ele>
      </trkpt>
      <trkpt lat="44.45678" lon="5.18992">
        <ele>651</ele>
      </trkpt>
      <trkpt lat="44.45695" lon="5.18985">
        <ele>648</ele>
      </trkpt>
      <trkpt lat="44.4572" lon="5.18971">
        <ele>651</ele>
      </trkpt>
      <trkpt lat="44.45727" lon="5.18962">
        <ele>651</ele>
      </trkpt>
      <trkpt lat="44.45731" lon="5.18945">
        <ele>656</ele>
      </trkpt>
      <trkpt lat="44.45731" lon="5.18916">
        <ele>660</ele>
      </trkpt>
      <trkpt lat="44.45739" lon="5.1888">
        <ele>662</ele>
      </trkpt>
      <trkpt lat="44.45758" lon="5.18856">
        <ele>666</ele>
      </trkpt>
      <trkpt lat="44.45782" lon="5.1884">
        <ele>664</ele>
      </trkpt>
      <trkpt lat="44.4581" lon="5.18825">
        <ele>667</ele>
      </trkpt>
      <trkpt lat="44.45818" lon="5.18815">
        <ele>667</ele>
      </trkpt>
      <trkpt lat="44.45828" lon="5.18794">
        <ele>668</ele>
      </trkpt>
      <trkpt lat="44.45856" lon="5.18711">
        <ele>675</ele>
      </trkpt>
      <trkpt lat="44.45863" lon="5.18703">
        <ele>675</ele>
      </trkpt>
      <trkpt lat="44.45884" lon="5.18686">
        <ele>673</ele>
      </trkpt>
      <trkpt lat="44.4589" lon="5.18673">
        <ele>674</ele>
      </trkpt>
      <trkpt lat="44.45896" lon="5.18653">
        <ele>677</ele>
      </trkpt>
      <trkpt lat="44.45899" lon="5.18628">
        <ele>680</ele>
      </trkpt>
      <trkpt lat="44.459" lon="5.186">
        <ele>681</ele>
      </trkpt>
      <trkpt lat="44.45897" lon="5.18578">
        <ele>683</ele>
      </trkpt>
      <trkpt lat="44.45888" lon="5.1855">
        <ele>684</ele>
      </trkpt>
      <trkpt lat="44.45876" lon="5.1853">
        <ele>686</ele>
      </trkpt>
      <trkpt lat="44.45874" lon="5.18514">
        <ele>686</ele>
      </trkpt>
      <trkpt lat="44.45881" lon="5.18324">
        <ele>698</ele>
      </trkpt>
      <trkpt lat="44.45883" lon="5.18304">
        <ele>701</ele>
      </trkpt>
      <trkpt lat="44.45888" lon="5.18279">
        <ele>704</ele>
      </trkpt>
      <trkpt lat="44.45898" lon="5.18256">
        <ele>705</ele>
      </trkpt>
      <trkpt lat="44.45912" lon="5.18186">
        <ele>712</ele>
      </trkpt>
      <trkpt lat="44.45925" lon="5.1815">
        <ele>714</ele>
      </trkpt>
      <trkpt lat="44.45926" lon="5.18141">
        <ele>715</ele>
      </trkpt>
      <trkpt lat="44.45924" lon="5.1813">
        <ele>715</ele>
      </trkpt>
      <trkpt lat="44.45916" lon="5.1812">
        <ele>715</ele>
      </trkpt>
      <trkpt lat="44.45904" lon="5.18113">
        <ele>714</ele>
      </trkpt>
      <trkpt lat="44.45893" lon="5.18099">
        <ele>715</ele>
      </trkpt>
      <trkpt lat="44.45885" lon="5.18047">
        <ele>712</ele>
      </trkpt>
      <trkpt lat="44.45886" lon="5.18036">
        <ele>713</ele>
      </trkpt>
      <trkpt lat="44.45901" lon="5.17997">
        <ele>716</ele>
      </trkpt>
      <trkpt lat="44.45905" lon="5.17962">
        <ele>716</ele>
      </trkpt>
      <trkpt lat="44.45902" lon="5.17923">
        <ele>716</ele>
      </trkpt>
      <trkpt lat="44.45894" lon="5.17861">
        <ele>725</ele>
      </trkpt>
      <trkpt lat="44.45904" lon="5.17838">
        <ele>726</ele>
      </trkpt>
      <trkpt lat="44.45938" lon="5.1781">
        <ele>726</ele>
      </trkpt>
      <trkpt lat="44.46096" lon="5.17602">
        <ele>734</ele>
      </trkpt>
      <trkpt lat="44.46128" lon="5.1759">
        <ele>734</ele>
      </trkpt>
      <trkpt lat="44.46158" lon="5.17592">
        <ele>733</ele>
      </trkpt>
      <trkpt lat="44.46176" lon="5.17596">
        <ele>733</ele>
      </trkpt>
      <trkpt lat="44.46186" lon="5.17569">
        <ele>730</ele>
      </trkpt>
      <trkpt lat="44.46217" lon="5.17521">
        <ele>727</ele>
      </trkpt>
      <trkpt lat="44.46239" lon="5.17491">
        <ele>723</ele>
      </trkpt>
      <trkpt lat="44.46243" lon="5.17454">
        <ele>724</ele>
      </trkpt>
      <trkpt lat="44.46253" lon="5.17416">
        <ele>727</ele>
      </trkpt>
      <trkpt lat="44.46272" lon="5.17373">
        <ele>722</ele>
      </trkpt>
      <trkpt lat="44.46275" lon="5.17359">
        <ele>720</ele>
      </trkpt>
      <trkpt lat="44.46271" lon="5.17346">
        <ele>720</ele>
      </trkpt>
      <trkpt lat="44.46255" lon="5.17312">
        <ele>723</ele>
      </trkpt>
      <trkpt lat="44.4624" lon="5.17268">
        <ele>720</ele>
      </trkpt>
      <trkpt lat="44.46194" lon="5.17173">
        <ele>721</ele>
      </trkpt>
      <trkpt lat="44.4619" lon="5.17159">
        <ele>718</ele>
      </trkpt>
      <trkpt lat="44.46191" lon="5.17152">
        <ele>718</ele>
      </trkpt>
      <trkpt lat="44.4621" lon="5.17129">
        <ele>710</ele>
      </trkpt>
      <trkpt lat="44.46233" lon="5.17094">
        <ele>707</ele>
      </trkpt>
      <trkpt lat="44.46237" lon="5.1708">
        <ele>702</ele>
      </trkpt>
      <trkpt lat="44.46235" lon="5.17068">
        <ele>705</ele>
      </trkpt>
      <trkpt lat="44.46171" lon="5.16982">
        <ele>708</ele>
      </trkpt>
      <trkpt lat="44.46083" lon="5.16931">
        <ele>710</ele>
      </trkpt>
      <trkpt lat="44.46042" lon="5.16913">
        <ele>707</ele>
      </trkpt>
      <trkpt lat="44.46002" lon="5.16866">
        <ele>707</ele>
      </trkpt>
      <trkpt lat="44.45987" lon="5.16838">
        <ele>697</ele>
      </trkpt>
      <trkpt lat="44.45948" lon="5.16831">
        <ele>699</ele>
      </trkpt>
      <trkpt lat="44.45893" lon="5.16775">
        <ele>699</ele>
      </trkpt>
      <trkpt lat="44.45868" lon="5.16771">
        <ele>701</ele>
      </trkpt>
      <trkpt lat="44.45856" lon="5.16748">
        <ele>698</ele>
      </trkpt>
      <trkpt lat="44.45848" lon="5.16599">
        <ele>677</ele>
      </trkpt>
      <trkpt lat="44.45855" lon="5.16572">
        <ele>673</ele>
      </trkpt>
      <trkpt lat="44.4586" lon="5.16532">
        <ele>669</ele>
      </trkpt>
      <trkpt lat="44.45834" lon="5.16481">
        <ele>671</ele>
      </trkpt>
      <trkpt lat="44.45815" lon="5.16475">
        <ele>672</ele>
      </trkpt>
      <trkpt lat="44.45766" lon="5.16517">
        <ele>692</ele>
      </trkpt>
      <trkpt lat="44.45729" lon="5.16499">
        <ele>682</ele>
      </trkpt>
      <trkpt lat="44.45697" lon="5.16493">
        <ele>683</ele>
      </trkpt>
      <trkpt lat="44.45692" lon="5.16479">
        <ele>683</ele>
      </trkpt>
      <trkpt lat="44.45727" lon="5.16423">
        <ele>669</ele>
      </trkpt>
      <trkpt lat="44.4575" lon="5.16401">
        <ele>660</ele>
      </trkpt>
      <trkpt lat="44.4577" lon="5.16341">
        <ele>654</ele>
      </trkpt>
      <trkpt lat="44.45751" lon="5.16283">
        <ele>659</ele>
      </trkpt>
      <trkpt lat="44.4574" lon="5.16163">
        <ele>650</ele>
      </trkpt>
      <trkpt lat="44.45728" lon="5.16101">
        <ele>654</ele>
      </trkpt>
      <trkpt lat="44.4571" lon="5.16049">
        <ele>648</ele>
      </trkpt>
      <trkpt lat="44.45707" lon="5.16002">
        <ele>646</ele>
      </trkpt>
      <trkpt lat="44.45699" lon="5.15956">
        <ele>645</ele>
      </trkpt>
      <trkpt lat="44.45654" lon="5.15855">
        <ele>641</ele>
      </trkpt>
      <trkpt lat="44.45623" lon="5.15812">
        <ele>646</ele>
      </trkpt>
      <trkpt lat="44.45612" lon="5.15781">
        <ele>643</ele>
      </trkpt>
      <trkpt lat="44.45623" lon="5.15742">
        <ele>639</ele>
      </trkpt>
      <trkpt lat="44.45617" lon="5.15679">
        <ele>635</ele>
      </trkpt>
      <trkpt lat="44.45606" lon="5.15648">
        <ele>632</ele>
      </trkpt>
      <trkpt lat="44.45592" lon="5.15629">
        <ele>633</ele>
      </trkpt>
      <trkpt lat="44.45555" lon="5.15622">
        <ele>637</ele>
      </trkpt>
      <trkpt lat="44.4551" lon="5.15589">
        <ele>631</ele>
      </trkpt>
      <trkpt lat="44.45493" lon="5.15582">
        <ele>627</ele>
      </trkpt>
      <trkpt lat="44.45471" lon="5.1558">
        <ele>628</ele>
      </trkpt>
      <trkpt lat="44.45459" lon="5.15575">
        <ele>628</ele>
      </trkpt>
      <trkpt lat="44.45447" lon="5.15568">
        <ele>629</ele>
      </trkpt>
      <trkpt lat="44.45441" lon="5.15561">
        <ele>628</ele>
      </trkpt>
      <trkpt lat="44.45437" lon="5.15551">
        <ele>625</ele>
      </trkpt>
      <trkpt lat="44.45429" lon="5.15509">
        <ele>622</ele>
      </trkpt>
      <trkpt lat="44.45423" lon="5.15498">
        <ele>619</ele>
      </trkpt>
      <trkpt lat="44.45416" lon="5.15492">
        <ele>620</ele>
      </trkpt>
      <trkpt lat="44.45407" lon="5.15487">
        <ele>619</ele>
      </trkpt>
      <trkpt lat="44.45352" lon="5.15474">
        <ele>618</ele>
      </trkpt>
      <trkpt lat="44.45337" lon="5.15467">
        <ele>619</ele>
      </trkpt>
      <trkpt lat="44.45323" lon="5.15451">
        <ele>619</ele>
      </trkpt>
      <trkpt lat="44.45312" lon="5.1543">
        <ele>618</ele>
      </trkpt>
      <trkpt lat="44.45299" lon="5.15412">
        <ele>617</ele>
      </trkpt>
      <trkpt lat="44.45287" lon="5.15399">
        <ele>618</ele>
      </trkpt>
      <trkpt lat="44.45265" lon="5.1538">
        <ele>616</ele>
      </trkpt>
      <trkpt lat="44.45255" lon="5.15367">
        <ele>616</ele>
      </trkpt>
      <trkpt lat="44.4525" lon="5.15337">
        <ele>614</ele>
      </trkpt>
      <trkpt lat="44.4525" lon="5.15262">
        <ele>614</ele>
      </trkpt>
      <trkpt lat="44.45264" lon="5.15249">
        <ele>613</ele>
      </trkpt>
      <trkpt lat="44.45301" lon="5.15253">
        <ele>611</ele>
      </trkpt>
      <trkpt lat="44.45446" lon="5.1529">
        <ele>609</ele>
      </trkpt>
      <trkpt lat="44.45543" lon="5.15299">
        <ele>606</ele>
      </trkpt>
      <trkpt lat="44.45668" lon="5.15287">
        <ele>597</ele>
      </trkpt>
      <trkpt lat="44.45685" lon="5.15282">
        <ele>597</ele>
      </trkpt>
      <trkpt lat="44.45701" lon="5.15271">
        <ele>598</ele>
      </trkpt>
      <trkpt lat="44.45717" lon="5.15253">
        <ele>597</ele>
      </trkpt>
      <trkpt lat="44.45769" lon="5.15168">
        <ele>597</ele>
      </trkpt>
      <trkpt lat="44.45811" lon="5.15116">
        <ele>598</ele>
      </trkpt>
      <trkpt lat="44.45829" lon="5.15103">
        <ele>598</ele>
      </trkpt>
      <trkpt lat="44.45863" lon="5.15097">
        <ele>594</ele>
      </trkpt>
      <trkpt lat="44.45912" lon="5.15066">
        <ele>593</ele>
      </trkpt>
      <trkpt lat="44.45983" lon="5.15009">
        <ele>589</ele>
      </trkpt>
      <trkpt lat="44.46052" lon="5.14924">
        <ele>586</ele>
      </trkpt>
      <trkpt lat="44.4608" lon="5.14865">
        <ele>588</ele>
      </trkpt>
      <trkpt lat="44.4618" lon="5.14753">
        <ele>581</ele>
      </trkpt>
      <trkpt lat="44.46191" lon="5.1474">
        <ele>581</ele>
      </trkpt>
      <trkpt lat="44.4622" lon="5.14708">
        <ele>583</ele>
      </trkpt>
      <trkpt lat="44.46283" lon="5.14727">
        <ele>581</ele>
      </trkpt>
      <trkpt lat="44.46299" lon="5.14722">
        <ele>579</ele>
      </trkpt>
      <trkpt lat="44.46323" lon="5.14686">
        <ele>577</ele>
      </trkpt>
      <trkpt lat="44.46407" lon="5.1451">
        <ele>574</ele>
      </trkpt>
      <trkpt lat="44.46496" lon="5.14259">
        <ele>569</ele>
      </trkpt>
      <trkpt lat="44.46545" lon="5.14204">
        <ele>568</ele>
      </trkpt>
      <trkpt lat="44.46784" lon="5.14019">
        <ele>564</ele>
      </trkpt>
      <trkpt lat="44.46897" lon="5.13863">
        <ele>560</ele>
      </trkpt>
      <trkpt lat="44.46954" lon="5.13709">
        <ele>554</ele>
      </trkpt>
      <trkpt lat="44.47002" lon="5.13621">
        <ele>551</ele>
      </trkpt>
      <trkpt lat="44.47018" lon="5.13609">
        <ele>550</ele>
      </trkpt>
      <trkpt lat="44.47034" lon="5.1361">
        <ele>550</ele>
      </trkpt>
      <trkpt lat="44.47079" lon="5.13622">
        <ele>556</ele>
      </trkpt>
      <trkpt lat="44.47111" lon="5.13618">
        <ele>559</ele>
      </trkpt>
      <trkpt lat="44.47137" lon="5.13598">
        <ele>563</ele>
      </trkpt>
      <trkpt lat="44.47294" lon="5.13393">
        <ele>565</ele>
      </trkpt>
      <trkpt lat="44.47414" lon="5.13307">
        <ele>559</ele>
      </trkpt>
      <trkpt lat="44.47486" lon="5.13237">
        <ele>564</ele>
      </trkpt>
      <trkpt lat="44.47539" lon="5.13149">
        <ele>552</ele>
      </trkpt>
      <trkpt lat="44.47614" lon="5.13049">
        <ele>549</ele>
      </trkpt>
      <trkpt lat="44.47654" lon="5.13025">
        <ele>552</ele>
      </trkpt>
      <trkpt lat="44.47873" lon="5.12885">
        <ele>542</ele>
      </trkpt>
      <trkpt lat="44.47924" lon="5.12878">
        <ele>541</ele>
      </trkpt>
      <trkpt lat="44.48173" lon="5.12848">
        <ele>539</ele>
      </trkpt>
      <trkpt lat="44.48292" lon="5.12809">
        <ele>522</ele>
      </trkpt>
      <trkpt lat="44.48313" lon="5.12803">
        <ele>523</ele>
      </trkpt>
      <trkpt lat="44.48371" lon="5.12782">
        <ele>538</ele>
      </trkpt>
      <trkpt lat="44.4839" lon="5.1277">
        <ele>537</ele>
      </trkpt>
      <trkpt lat="44.48406" lon="5.12757">
        <ele>544</ele>
      </trkpt>
      <trkpt lat="44.48417" lon="5.12746">
        <ele>535</ele>
      </trkpt>
      <trkpt lat="44.48425" lon="5.12732">
        <ele>535</ele>
      </trkpt>
      <trkpt lat="44.48438" lon="5.12708">
        <ele>535</ele>
      </trkpt>
      <trkpt lat="44.48478" lon="5.126">
        <ele>526</ele>
      </trkpt>
      <trkpt lat="44.48489" lon="5.12579">
        <ele>528</ele>
      </trkpt>
      <trkpt lat="44.48701" lon="5.1226">
        <ele>508</ele>
      </trkpt>
      <trkpt lat="44.48795" lon="5.12024">
        <ele>510</ele>
      </trkpt>
      <trkpt lat="44.48808" lon="5.12">
        <ele>509</ele>
      </trkpt>
      <trkpt lat="44.48818" lon="5.1199">
        <ele>508</ele>
      </trkpt>
      <trkpt lat="44.48837" lon="5.11978">
        <ele>511</ele>
      </trkpt>
      <trkpt lat="44.48883" lon="5.11956">
        <ele>515</ele>
      </trkpt>
      <trkpt lat="44.49183" lon="5.11792">
        <ele>512</ele>
      </trkpt>
      <trkpt lat="44.49212" lon="5.11778">
        <ele>506</ele>
      </trkpt>
      <trkpt lat="44.49251" lon="5.11763">
        <ele>506</ele>
      </trkpt>
      <trkpt lat="44.49414" lon="5.11694">
        <ele>497</ele>
      </trkpt>
      <trkpt lat="44.49435" lon="5.1168">
        <ele>501</ele>
      </trkpt>
      <trkpt lat="44.4945" lon="5.11664">
        <ele>496</ele>
      </trkpt>
      <trkpt lat="44.49532" lon="5.11562">
        <ele>491</ele>
      </trkpt>
      <trkpt lat="44.49552" lon="5.11545">
        <ele>489</ele>
      </trkpt>
      <trkpt lat="44.49564" lon="5.11538">
        <ele>488</ele>
      </trkpt>
      <trkpt lat="44.4958" lon="5.11531">
        <ele>487</ele>
      </trkpt>
      <trkpt lat="44.49641" lon="5.11508">
        <ele>484</ele>
      </trkpt>
      <trkpt lat="44.4965" lon="5.11506">
        <ele>484</ele>
      </trkpt>
      <trkpt lat="44.49659" lon="5.11505">
        <ele>483</ele>
      </trkpt>
      <trkpt lat="44.4968" lon="5.11498">
        <ele>483</ele>
      </trkpt>
      <trkpt lat="44.49712" lon="5.1148">
        <ele>481</ele>
      </trkpt>
      <trkpt lat="44.49753" lon="5.11464">
        <ele>479</ele>
      </trkpt>
      <trkpt lat="44.49945" lon="5.11421">
        <ele>487</ele>
      </trkpt>
      <trkpt lat="44.49948" lon="5.11419">
        <ele>487</ele>
      </trkpt>
      <trkpt lat="44.49959" lon="5.114">
        <ele>489</ele>
      </trkpt>
      <trkpt lat="44.50013" lon="5.11286">
        <ele>484</ele>
      </trkpt>
      <trkpt lat="44.5003" lon="5.11258">
        <ele>481</ele>
      </trkpt>
      <trkpt lat="44.50104" lon="5.11158">
        <ele>476</ele>
      </trkpt>
      <trkpt lat="44.50136" lon="5.11123">
        <ele>479</ele>
      </trkpt>
      <trkpt lat="44.50219" lon="5.11014">
        <ele>482</ele>
      </trkpt>
      <trkpt lat="44.50318" lon="5.10893">
        <ele>481</ele>
      </trkpt>
      <trkpt lat="44.50336" lon="5.10855">
        <ele>482</ele>
      </trkpt>
      <trkpt lat="44.50433" lon="5.10409">
        <ele>477</ele>
      </trkpt>
      <trkpt lat="44.50456" lon="5.10268">
        <ele>480</ele>
      </trkpt>
      <trkpt lat="44.50483" lon="5.1008">
        <ele>487</ele>
      </trkpt>
      <trkpt lat="44.50495" lon="5.09989">
        <ele>497</ele>
      </trkpt>
      <trkpt lat="44.50494" lon="5.09953">
        <ele>497</ele>
      </trkpt>
      <trkpt lat="44.50488" lon="5.09839">
        <ele>492</ele>
      </trkpt>
      <trkpt lat="44.50492" lon="5.09818">
        <ele>490</ele>
      </trkpt>
      <trkpt lat="44.50498" lon="5.09806">
        <ele>486</ele>
      </trkpt>
      <trkpt lat="44.50513" lon="5.098">
        <ele>487</ele>
      </trkpt>
      <trkpt lat="44.50577" lon="5.0979">
        <ele>493</ele>
      </trkpt>
      <trkpt lat="44.50703" lon="5.09785">
        <ele>498</ele>
      </trkpt>
      <trkpt lat="44.50713" lon="5.09784">
        <ele>499</ele>
      </trkpt>
      <trkpt lat="44.50719" lon="5.09777">
        <ele>495</ele>
      </trkpt>
      <trkpt lat="44.50733" lon="5.09782">
        <ele>499</ele>
      </trkpt>
      <trkpt lat="44.50745" lon="5.09783">
        <ele>500</ele>
      </trkpt>
      <trkpt lat="44.50803" lon="5.09783">
        <ele>502</ele>
      </trkpt>
      <trkpt lat="44.50844" lon="5.09778">
        <ele>503</ele>
      </trkpt>
      <trkpt lat="44.50884" lon="5.09762">
        <ele>502</ele>
      </trkpt>
      <trkpt lat="44.50898" lon="5.09751">
        <ele>501</ele>
      </trkpt>
      <trkpt lat="44.50909" lon="5.09738">
        <ele>499</ele>
      </trkpt>
      <trkpt lat="44.50917" lon="5.09725">
        <ele>499</ele>
      </trkpt>
      <trkpt lat="44.50974" lon="5.09587">
        <ele>498</ele>
      </trkpt>
      <trkpt lat="44.50984" lon="5.09546">
        <ele>495</ele>
      </trkpt>
      <trkpt lat="44.50997" lon="5.09426">
        <ele>486</ele>
      </trkpt>
      <trkpt lat="44.51023" lon="5.09333">
        <ele>478</ele>
      </trkpt>
      <trkpt lat="44.51036" lon="5.09256">
        <ele>477</ele>
      </trkpt>
      <trkpt lat="44.51042" lon="5.09248">
        <ele>473</ele>
      </trkpt>
      <trkpt lat="44.51049" lon="5.09247">
        <ele>473</ele>
      </trkpt>
      <trkpt lat="44.51056" lon="5.09252">
        <ele>472</ele>
      </trkpt>
      <trkpt lat="44.51061" lon="5.0926">
        <ele>472</ele>
      </trkpt>
      <trkpt lat="44.51069" lon="5.09308">
        <ele>471</ele>
      </trkpt>
      <trkpt lat="44.51095" lon="5.0943">
        <ele>470</ele>
      </trkpt>
      <trkpt lat="44.5111" lon="5.09481">
        <ele>470</ele>
      </trkpt>
      <trkpt lat="44.51135" lon="5.09527">
        <ele>468</ele>
      </trkpt>
      <trkpt lat="44.51198" lon="5.09604">
        <ele>465</ele>
      </trkpt>
      <trkpt lat="44.51207" lon="5.09613">
        <ele>465</ele>
      </trkpt>
      <trkpt lat="44.51215" lon="5.09616">
        <ele>464</ele>
      </trkpt>
      <trkpt lat="44.51222" lon="5.09612">
        <ele>462</ele>
      </trkpt>
      <trkpt lat="44.51228" lon="5.09603">
        <ele>461</ele>
      </trkpt>
      <trkpt lat="44.5123" lon="5.09592">
        <ele>460</ele>
      </trkpt>
      <trkpt lat="44.51227" lon="5.09548">
        <ele>454</ele>
      </trkpt>
      <trkpt lat="44.51228" lon="5.09503">
        <ele>452</ele>
      </trkpt>
      <trkpt lat="44.51233" lon="5.09475">
        <ele>451</ele>
      </trkpt>
      <trkpt lat="44.51296" lon="5.09304">
        <ele>445</ele>
      </trkpt>
      <trkpt lat="44.513" lon="5.09282">
        <ele>445</ele>
      </trkpt>
      <trkpt lat="44.51324" lon="5.09094">
        <ele>437</ele>
      </trkpt>
      <trkpt lat="44.5133" lon="5.09063">
        <ele>437</ele>
      </trkpt>
      <trkpt lat="44.51341" lon="5.09043">
        <ele>437</ele>
      </trkpt>
      <trkpt lat="44.51353" lon="5.09031">
        <ele>438</ele>
      </trkpt>
      <trkpt lat="44.51395" lon="5.09009">
        <ele>443</ele>
      </trkpt>
      <trkpt lat="44.51411" lon="5.08997">
        <ele>447</ele>
      </trkpt>
      <trkpt lat="44.51422" lon="5.08983">
        <ele>447</ele>
      </trkpt>
      <trkpt lat="44.51468" lon="5.08874">
        <ele>442</ele>
      </trkpt>
      <trkpt lat="44.51491" lon="5.08839">
        <ele>437</ele>
      </trkpt>
      <trkpt lat="44.51553" lon="5.08761">
        <ele>431</ele>
      </trkpt>
      <trkpt lat="44.51565" lon="5.0874">
        <ele>430</ele>
      </trkpt>
      <trkpt lat="44.51572" lon="5.08716">
        <ele>430</ele>
      </trkpt>
      <trkpt lat="44.51575" lon="5.08692">
        <ele>429</ele>
      </trkpt>
      <trkpt lat="44.51583" lon="5.08512">
        <ele>429</ele>
      </trkpt>
      <trkpt lat="44.51586" lon="5.08486">
        <ele>428</ele>
      </trkpt>
      <trkpt lat="44.51592" lon="5.08461">
        <ele>426</ele>
      </trkpt>
      <trkpt lat="44.51606" lon="5.08417">
        <ele>424</ele>
      </trkpt>
      <trkpt lat="44.51669" lon="5.08237">
        <ele>408</ele>
      </trkpt>
      <trkpt lat="44.51694" lon="5.08171">
        <ele>412</ele>
      </trkpt>
      <trkpt lat="44.51729" lon="5.0809">
        <ele>413</ele>
      </trkpt>
      <trkpt lat="44.51742" lon="5.08062">
        <ele>413</ele>
      </trkpt>
      <trkpt lat="44.51753" lon="5.08044">
        <ele>413</ele>
      </trkpt>
      <trkpt lat="44.51818" lon="5.07966">
        <ele>415</ele>
      </trkpt>
      <trkpt lat="44.51834" lon="5.07937">
        <ele>413</ele>
      </trkpt>
      <trkpt lat="44.51839" lon="5.07925">
        <ele>413</ele>
      </trkpt>
      <trkpt lat="44.51858" lon="5.07856">
        <ele>416</ele>
      </trkpt>
      <trkpt lat="44.5188" lon="5.07807">
        <ele>420</ele>
      </trkpt>
      <trkpt lat="44.51901" lon="5.0775">
        <ele>419</ele>
      </trkpt>
      <trkpt lat="44.51937" lon="5.07556">
        <ele>425</ele>
      </trkpt>
      <trkpt lat="44.52005" lon="5.07275">
        <ele>411</ele>
      </trkpt>
      <trkpt lat="44.52022" lon="5.07188">
        <ele>402</ele>
      </trkpt>
      <trkpt lat="44.52031" lon="5.07163">
        <ele>400</ele>
      </trkpt>
      <trkpt lat="44.52066" lon="5.07089">
        <ele>400</ele>
      </trkpt>
      <trkpt lat="44.52109" lon="5.06933">
        <ele>397</ele>
      </trkpt>
      <trkpt lat="44.52124" lon="5.06895">
        <ele>395</ele>
      </trkpt>
      <trkpt lat="44.52159" lon="5.06818">
        <ele>394</ele>
      </trkpt>
      <trkpt lat="44.5217" lon="5.06778">
        <ele>393</ele>
      </trkpt>
      <trkpt lat="44.5219" lon="5.0667">
        <ele>393</ele>
      </trkpt>
      <trkpt lat="44.52196" lon="5.06659">
        <ele>392</ele>
      </trkpt>
      <trkpt lat="44.5222" lon="5.06626">
        <ele>393</ele>
      </trkpt>
      <trkpt lat="44.5228" lon="5.06578">
        <ele>392</ele>
      </trkpt>
      <trkpt lat="44.5231" lon="5.06559">
        <ele>393</ele>
      </trkpt>
      <trkpt lat="44.52325" lon="5.06551">
        <ele>392</ele>
      </trkpt>
      <trkpt lat="44.52311" lon="5.06537">
        <ele>390</ele>
      </trkpt>
      <trkpt lat="44.52297" lon="5.06524">
        <ele>388</ele>
      </trkpt>
      <trkpt lat="44.52288" lon="5.06517">
        <ele>388</ele>
      </trkpt>
      <trkpt lat="44.52284" lon="5.06511">
        <ele>388</ele>
      </trkpt>
      <trkpt lat="44.52278" lon="5.06485">
        <ele>385</ele>
      </trkpt>
      <trkpt lat="44.52278" lon="5.06465">
        <ele>382</ele>
      </trkpt>
      <trkpt lat="44.52281" lon="5.0643">
        <ele>379</ele>
      </trkpt>
      <trkpt lat="44.52286" lon="5.06413">
        <ele>377</ele>
      </trkpt>
      <trkpt lat="44.52301" lon="5.06384">
        <ele>374</ele>
      </trkpt>
      <trkpt lat="44.52316" lon="5.06357">
        <ele>375</ele>
      </trkpt>
      <trkpt lat="44.52329" lon="5.06329">
        <ele>376</ele>
      </trkpt>
      <trkpt lat="44.52332" lon="5.06321">
        <ele>376</ele>
      </trkpt>
      <trkpt lat="44.52338" lon="5.0632">
        <ele>376</ele>
      </trkpt>
      <trkpt lat="44.5234" lon="5.06313">
        <ele>377</ele>
      </trkpt>
      <trkpt lat="44.52339" lon="5.06308">
        <ele>377</ele>
      </trkpt>
      <trkpt lat="44.52344" lon="5.06305">
        <ele>378</ele>
      </trkpt>
      <trkpt lat="44.52348" lon="5.063">
        <ele>379</ele>
      </trkpt>
      <trkpt lat="44.52447" lon="5.06131">
        <ele>384</ele>
      </trkpt>
      <trkpt lat="44.52451" lon="5.06134">
        <ele>384</ele>
      </trkpt>
      <trkpt lat="44.52457" lon="5.06132">
        <ele>384</ele>
      </trkpt>
      <trkpt lat="44.52459" lon="5.06123">
        <ele>384</ele>
      </trkpt>
      <trkpt lat="44.52457" lon="5.06116">
        <ele>384</ele>
      </trkpt>
      <trkpt lat="44.52469" lon="5.06098">
        <ele>386</ele>
      </trkpt>
      <trkpt lat="44.52478" lon="5.06066">
        <ele>386</ele>
      </trkpt>
      <trkpt lat="44.52501" lon="5.0602">
        <ele>389</ele>
      </trkpt>
      <trkpt lat="44.52507" lon="5.06001">
        <ele>390</ele>
      </trkpt>
      <trkpt lat="44.52513" lon="5.06002">
        <ele>390</ele>
      </trkpt>
      <trkpt lat="44.52544" lon="5.05979">
        <ele>393</ele>
      </trkpt>
      <trkpt lat="44.52603" lon="5.05974">
        <ele>391</ele>
      </trkpt>
      <trkpt lat="44.52619" lon="5.05975">
        <ele>391</ele>
      </trkpt>
      <trkpt lat="44.52641" lon="5.05955">
        <ele>392</ele>
      </trkpt>
      <trkpt lat="44.52731" lon="5.05887">
        <ele>402</ele>
      </trkpt>
      <trkpt lat="44.52733" lon="5.05869">
        <ele>403</ele>
      </trkpt>
      <trkpt lat="44.52745" lon="5.05832">
        <ele>409</ele>
      </trkpt>
      <trkpt lat="44.52754" lon="5.05761">
        <ele>410</ele>
      </trkpt>
      <trkpt lat="44.52764" lon="5.05706">
        <ele>412</ele>
      </trkpt>
      <trkpt lat="44.52768" lon="5.05691">
        <ele>413</ele>
      </trkpt>
      <trkpt lat="44.52796" lon="5.05639">
        <ele>415</ele>
      </trkpt>
      <trkpt lat="44.52822" lon="5.05583">
        <ele>417</ele>
      </trkpt>
      <trkpt lat="44.5285" lon="5.05539">
        <ele>416</ele>
      </trkpt>
      <trkpt lat="44.52872" lon="5.05507">
        <ele>415</ele>
      </trkpt>
      <trkpt lat="44.52885" lon="5.05439">
        <ele>416</ele>
      </trkpt>
      <trkpt lat="44.52888" lon="5.05381">
        <ele>419</ele>
      </trkpt>
      <trkpt lat="44.52881" lon="5.05366">
        <ele>419</ele>
      </trkpt>
      <trkpt lat="44.52858" lon="5.0534">
        <ele>420</ele>
      </trkpt>
      <trkpt lat="44.52833" lon="5.0527">
        <ele>425</ele>
      </trkpt>
      <trkpt lat="44.52817" lon="5.0525">
        <ele>424</ele>
      </trkpt>
      <trkpt lat="44.52765" lon="5.05193">
        <ele>424</ele>
      </trkpt>
      <trkpt lat="44.52712" lon="5.05139">
        <ele>425</ele>
      </trkpt>
      <trkpt lat="44.52677" lon="5.05113">
        <ele>420</ele>
      </trkpt>
      <trkpt lat="44.52625" lon="5.0503">
        <ele>424</ele>
      </trkpt>
      <trkpt lat="44.52609" lon="5.04995">
        <ele>426</ele>
      </trkpt>
      <trkpt lat="44.52584" lon="5.04901">
        <ele>429</ele>
      </trkpt>
      <trkpt lat="44.52573" lon="5.04852">
        <ele>430</ele>
      </trkpt>
      <trkpt lat="44.5257" lon="5.04819">
        <ele>424</ele>
      </trkpt>
      <trkpt lat="44.52569" lon="5.04774">
        <ele>422</ele>
      </trkpt>
      <trkpt lat="44.5258" lon="5.04701">
        <ele>425</ele>
      </trkpt>
      <trkpt lat="44.52611" lon="5.04615">
        <ele>421</ele>
      </trkpt>
      <trkpt lat="44.52631" lon="5.04576">
        <ele>416</ele>
      </trkpt>
      <trkpt lat="44.52696" lon="5.04513">
        <ele>411</ele>
      </trkpt>
      <trkpt lat="44.52722" lon="5.04481">
        <ele>409</ele>
      </trkpt>
      <trkpt lat="44.52747" lon="5.04426">
        <ele>404</ele>
      </trkpt>
      <trkpt lat="44.52762" lon="5.04376">
        <ele>398</ele>
      </trkpt>
      <trkpt lat="44.52772" lon="5.04298">
        <ele>392</ele>
      </trkpt>
      <trkpt lat="44.52761" lon="5.0424">
        <ele>393</ele>
      </trkpt>
      <trkpt lat="44.52744" lon="5.04174">
        <ele>394</ele>
      </trkpt>
      <trkpt lat="44.52737" lon="5.0413">
        <ele>393</ele>
      </trkpt>
      <trkpt lat="44.52744" lon="5.04109">
        <ele>391</ele>
      </trkpt>
      <trkpt lat="44.52802" lon="5.04083">
        <ele>383</ele>
      </trkpt>
      <trkpt lat="44.52843" lon="5.04067">
        <ele>378</ele>
      </trkpt>
      <trkpt lat="44.52861" lon="5.04041">
        <ele>375</ele>
      </trkpt>
      <trkpt lat="44.52861" lon="5.04016">
        <ele>375</ele>
      </trkpt>
      <trkpt lat="44.52851" lon="5.04006">
        <ele>375</ele>
      </trkpt>
      <trkpt lat="44.52838" lon="5.03999">
        <ele>374</ele>
      </trkpt>
      <trkpt lat="44.52823" lon="5.03996">
        <ele>374</ele>
      </trkpt>
      <trkpt lat="44.52814" lon="5.03989">
        <ele>374</ele>
      </trkpt>
      <trkpt lat="44.52807" lon="5.03972">
        <ele>372</ele>
      </trkpt>
      <trkpt lat="44.52763" lon="5.03823">
        <ele>365</ele>
      </trkpt>
      <trkpt lat="44.52754" lon="5.038">
        <ele>364</ele>
      </trkpt>
      <trkpt lat="44.52709" lon="5.03759">
        <ele>358</ele>
      </trkpt>
      <trkpt lat="44.52705" lon="5.03752">
        <ele>358</ele>
      </trkpt>
      <trkpt lat="44.52702" lon="5.03739">
        <ele>357</ele>
      </trkpt>
      <trkpt lat="44.52699" lon="5.03698">
        <ele>356</ele>
      </trkpt>
      <trkpt lat="44.52693" lon="5.03663">
        <ele>355</ele>
      </trkpt>
      <trkpt lat="44.52686" lon="5.03632">
        <ele>354</ele>
      </trkpt>
      <trkpt lat="44.52673" lon="5.03612">
        <ele>349</ele>
      </trkpt>
      <trkpt lat="44.52664" lon="5.03602">
        <ele>348</ele>
      </trkpt>
      <trkpt lat="44.5256" lon="5.03569">
        <ele>336</ele>
      </trkpt>
      <trkpt lat="44.52564" lon="5.03491">
        <ele>335</ele>
      </trkpt>
      <trkpt lat="44.52565" lon="5.03438">
        <ele>335</ele>
      </trkpt>
      <trkpt lat="44.52569" lon="5.03357">
        <ele>334</ele>
      </trkpt>
      <trkpt lat="44.52585" lon="5.03265">
        <ele>332</ele>
      </trkpt>
      <trkpt lat="44.5259" lon="5.03235">
        <ele>331</ele>
      </trkpt>
      <trkpt lat="44.5259" lon="5.03216">
        <ele>331</ele>
      </trkpt>
      <trkpt lat="44.52594" lon="5.03185">
        <ele>331</ele>
      </trkpt>
      <trkpt lat="44.52599" lon="5.03177">
        <ele>333</ele>
      </trkpt>
      <trkpt lat="44.52612" lon="5.031">
        <ele>333</ele>
      </trkpt>
      <trkpt lat="44.52631" lon="5.03005">
        <ele>335</ele>
      </trkpt>
      <trkpt lat="44.52671" lon="5.02866">
        <ele>332</ele>
      </trkpt>
      <trkpt lat="44.52684" lon="5.02834">
        <ele>330</ele>
      </trkpt>
      <trkpt lat="44.52691" lon="5.02819">
        <ele>329</ele>
      </trkpt>
      <trkpt lat="44.52703" lon="5.02801">
        <ele>328</ele>
      </trkpt>
      <trkpt lat="44.52883" lon="5.02575">
        <ele>328</ele>
      </trkpt>
      <trkpt lat="44.52911" lon="5.02533">
        <ele>328</ele>
      </trkpt>
      <trkpt lat="44.52934" lon="5.02489">
        <ele>328</ele>
      </trkpt>
      <trkpt lat="44.52946" lon="5.02456">
        <ele>327</ele>
      </trkpt>
      <trkpt lat="44.52955" lon="5.02418">
        <ele>326</ele>
      </trkpt>
      <trkpt lat="44.52958" lon="5.02355">
        <ele>324</ele>
      </trkpt>
      <trkpt lat="44.52965" lon="5.021">
        <ele>317</ele>
      </trkpt>
      <trkpt lat="44.52963" lon="5.01975">
        <ele>313</ele>
      </trkpt>
      <trkpt lat="44.52955" lon="5.01681">
        <ele>314</ele>
      </trkpt>
      <trkpt lat="44.52958" lon="5.0166">
        <ele>314</ele>
      </trkpt>
      <trkpt lat="44.53026" lon="5.01415">
        <ele>318</ele>
      </trkpt>
      <trkpt lat="44.53047" lon="5.0133">
        <ele>316</ele>
      </trkpt>
      <trkpt lat="44.5307" lon="5.01254">
        <ele>315</ele>
      </trkpt>
      <trkpt lat="44.53082" lon="5.012">
        <ele>314</ele>
      </trkpt>
      <trkpt lat="44.53102" lon="5.01084">
        <ele>312</ele>
      </trkpt>
      <trkpt lat="44.53114" lon="5.00983">
        <ele>308</ele>
      </trkpt>
      <trkpt lat="44.53122" lon="5.009">
        <ele>308</ele>
      </trkpt>
      <trkpt lat="44.53121" lon="5.00872">
        <ele>308</ele>
      </trkpt>
      <trkpt lat="44.53124" lon="5.00836">
        <ele>309</ele>
      </trkpt>
      <trkpt lat="44.53127" lon="5.00834">
        <ele>309</ele>
      </trkpt>
      <trkpt lat="44.53139" lon="5.0069">
        <ele>304</ele>
      </trkpt>
      <trkpt lat="44.53143" lon="5.00615">
        <ele>302</ele>
      </trkpt>
      <trkpt lat="44.53159" lon="5.00454">
        <ele>301</ele>
      </trkpt>
      <trkpt lat="44.53167" lon="5.00399">
        <ele>301</ele>
      </trkpt>
      <trkpt lat="44.53191" lon="5.00272">
        <ele>301</ele>
      </trkpt>
      <trkpt lat="44.53235" lon="5.00081">
        <ele>297</ele>
      </trkpt>
      <trkpt lat="44.53244" lon="5.00027">
        <ele>299</ele>
      </trkpt>
      <trkpt lat="44.53248" lon="4.99967">
        <ele>296</ele>
      </trkpt>
      <trkpt lat="44.53247" lon="4.9989">
        <ele>294</ele>
      </trkpt>
      <trkpt lat="44.5324" lon="4.99833">
        <ele>295</ele>
      </trkpt>
      <trkpt lat="44.53231" lon="4.99785">
        <ele>292</ele>
      </trkpt>
      <trkpt lat="44.53064" lon="4.99161">
        <ele>287</ele>
      </trkpt>
      <trkpt lat="44.53052" lon="4.99125">
        <ele>290</ele>
      </trkpt>
      <trkpt lat="44.53024" lon="4.99057">
        <ele>289</ele>
      </trkpt>
      <trkpt lat="44.53005" lon="4.99021">
        <ele>287</ele>
      </trkpt>
      <trkpt lat="44.52971" lon="4.98966">
        <ele>286</ele>
      </trkpt>
      <trkpt lat="44.52726" lon="4.9865">
        <ele>287</ele>
      </trkpt>
      <trkpt lat="44.52703" lon="4.9861">
        <ele>287</ele>
      </trkpt>
      <trkpt lat="44.52683" lon="4.98563">
        <ele>289</ele>
      </trkpt>
      <trkpt lat="44.52598" lon="4.98287">
        <ele>279</ele>
      </trkpt>
      <trkpt lat="44.52579" lon="4.98219">
        <ele>279</ele>
      </trkpt>
      <trkpt lat="44.52569" lon="4.98165">
        <ele>277</ele>
      </trkpt>
      <trkpt lat="44.52557" lon="4.98064">
        <ele>275</ele>
      </trkpt>
      <trkpt lat="44.52555" lon="4.97995">
        <ele>273</ele>
      </trkpt>
      <trkpt lat="44.52555" lon="4.97824">
        <ele>266</ele>
      </trkpt>
      <trkpt lat="44.52558" lon="4.97767">
        <ele>266</ele>
      </trkpt>
      <trkpt lat="44.5257" lon="4.97698">
        <ele>265</ele>
      </trkpt>
      <trkpt lat="44.52591" lon="4.97628">
        <ele>265</ele>
      </trkpt>
      <trkpt lat="44.52629" lon="4.9755">
        <ele>263</ele>
      </trkpt>
      <trkpt lat="44.53049" lon="4.96897">
        <ele>264</ele>
      </trkpt>
      <trkpt lat="44.53095" lon="4.96819">
        <ele>269</ele>
      </trkpt>
      <trkpt lat="44.53044" lon="4.96744">
        <ele>255</ele>
      </trkpt>
      <trkpt lat="44.53017" lon="4.96706">
        <ele>258</ele>
      </trkpt>
      <trkpt lat="44.53006" lon="4.96693">
        <ele>262</ele>
      </trkpt>
      <trkpt lat="44.52986" lon="4.96697">
        <ele>261</ele>
      </trkpt>
      <trkpt lat="44.52905" lon="4.96741">
        <ele>263</ele>
      </trkpt>
      <trkpt lat="44.52823" lon="4.96782">
        <ele>260</ele>
        <extensions>
          <visugpx:TrkExtension xmlns:visugpx="https://www.visugpx.com/editgpx/">
            <visugpx:node>1</visugpx:node>
            </visugpx:TrkExtension>
        </extensions>
      </trkpt>
    </trkseg>
  </trk>
  <trk>
    <name><![CDATA[Souspierre_6b (racc)]]></name>
    <extensions>
      <line xmlns="http://www.topografix.com/GPX/gpx_style/0/2">
        <color>008800</color>
        <width>4</width>
      </line>
    </extensions>
    <trkseg>
      <trkpt lat="44.5285" lon="4.96725">
        <ele>268</ele>
      </trkpt>
      <trkpt lat="44.5289" lon="4.96734">
        <ele>267</ele>
      </trkpt>
      <trkpt lat="44.52905" lon="4.96741">
        <ele>263</ele>
      </trkpt>
      <trkpt lat="44.52986" lon="4.96697">
        <ele>261</ele>
      </trkpt>
      <trkpt lat="44.53006" lon="4.96693">
        <ele>262</ele>
      </trkpt>
      <trkpt lat="44.53017" lon="4.96706">
        <ele>258</ele>
      </trkpt>
      <trkpt lat="44.53044" lon="4.96744">
        <ele>255</ele>
      </trkpt>
      <trkpt lat="44.53095" lon="4.96819">
        <ele>269</ele>
      </trkpt>
      <trkpt lat="44.53049" lon="4.96897">
        <ele>264</ele>
      </trkpt>
      <trkpt lat="44.52629" lon="4.9755">
        <ele>263</ele>
      </trkpt>
      <trkpt lat="44.52591" lon="4.97628">
        <ele>265</ele>
      </trkpt>
      <trkpt lat="44.5257" lon="4.97698">
        <ele>265</ele>
      </trkpt>
      <trkpt lat="44.52558" lon="4.97767">
        <ele>266</ele>
      </trkpt>
      <trkpt lat="44.52555" lon="4.97824">
        <ele>266</ele>
      </trkpt>
      <trkpt lat="44.52555" lon="4.97995">
        <ele>273</ele>
      </trkpt>
      <trkpt lat="44.52557" lon="4.98064">
        <ele>275</ele>
      </trkpt>
      <trkpt lat="44.52557" lon="4.98101">
        <ele>276</ele>
      </trkpt>
      <trkpt lat="44.52559" lon="4.98139">
        <ele>276</ele>
      </trkpt>
      <trkpt lat="44.52563" lon="4.98167">
        <ele>277</ele>
      </trkpt>
      <trkpt lat="44.52598" lon="4.98287">
        <ele>279</ele>
      </trkpt>
      <trkpt lat="44.52683" lon="4.98563">
        <ele>289</ele>
      </trkpt>
      <trkpt lat="44.52703" lon="4.9861">
        <ele>287</ele>
      </trkpt>
      <trkpt lat="44.52726" lon="4.9865">
        <ele>287</ele>
      </trkpt>
      <trkpt lat="44.52971" lon="4.98966">
        <ele>286</ele>
      </trkpt>
      <trkpt lat="44.53005" lon="4.99021">
        <ele>287</ele>
      </trkpt>
      <trkpt lat="44.53024" lon="4.99057">
        <ele>289</ele>
      </trkpt>
      <trkpt lat="44.53052" lon="4.99125">
        <ele>290</ele>
      </trkpt>
      <trkpt lat="44.53064" lon="4.99161">
        <ele>287</ele>
      </trkpt>
      <trkpt lat="44.53231" lon="4.99785">
        <ele>292</ele>
      </trkpt>
      <trkpt lat="44.5324" lon="4.99833">
        <ele>295</ele>
      </trkpt>
      <trkpt lat="44.53247" lon="4.9989">
        <ele>294</ele>
      </trkpt>
      <trkpt lat="44.53248" lon="4.99967">
        <ele>296</ele>
      </trkpt>
      <trkpt lat="44.53244" lon="5.00027">
        <ele>299</ele>
      </trkpt>
      <trkpt lat="44.53235" lon="5.00081">
        <ele>297</ele>
      </trkpt>
      <trkpt lat="44.53191" lon="5.00272">
        <ele>301</ele>
      </trkpt>
      <trkpt lat="44.53167" lon="5.00399">
        <ele>301</ele>
      </trkpt>
      <trkpt lat="44.53159" lon="5.00454">
        <ele>301</ele>
      </trkpt>
      <trkpt lat="44.5312" lon="5.00837">
        <ele>309</ele>
      </trkpt>
      <trkpt lat="44.53109" lon="5.00982">
        <ele>308</ele>
      </trkpt>
      <trkpt lat="44.53107" lon="5.01034">
        <ele>310</ele>
      </trkpt>
      <trkpt lat="44.53102" lon="5.01084">
        <ele>312</ele>
      </trkpt>
      <trkpt lat="44.53082" lon="5.012">
        <ele>314</ele>
      </trkpt>
      <trkpt lat="44.5307" lon="5.01254">
        <ele>315</ele>
      </trkpt>
      <trkpt lat="44.53047" lon="5.0133">
        <ele>316</ele>
      </trkpt>
      <trkpt lat="44.53026" lon="5.01415">
        <ele>318</ele>
      </trkpt>
      <trkpt lat="44.52958" lon="5.0166">
        <ele>314</ele>
      </trkpt>
      <trkpt lat="44.52955" lon="5.01681">
        <ele>314</ele>
      </trkpt>
      <trkpt lat="44.52963" lon="5.01975">
        <ele>313</ele>
      </trkpt>
      <trkpt lat="44.52965" lon="5.021">
        <ele>317</ele>
      </trkpt>
      <trkpt lat="44.52958" lon="5.02355">
        <ele>324</ele>
      </trkpt>
      <trkpt lat="44.52955" lon="5.02418">
        <ele>326</ele>
      </trkpt>
      <trkpt lat="44.52946" lon="5.02456">
        <ele>327</ele>
      </trkpt>
      <trkpt lat="44.52934" lon="5.02489">
        <ele>328</ele>
      </trkpt>
      <trkpt lat="44.52911" lon="5.02533">
        <ele>328</ele>
      </trkpt>
      <trkpt lat="44.52881" lon="5.02578">
        <ele>328</ele>
      </trkpt>
      <trkpt lat="44.52703" lon="5.02801">
        <ele>328</ele>
      </trkpt>
      <trkpt lat="44.52691" lon="5.02819">
        <ele>329</ele>
      </trkpt>
      <trkpt lat="44.52684" lon="5.02834">
        <ele>330</ele>
      </trkpt>
      <trkpt lat="44.52671" lon="5.02866">
        <ele>332</ele>
      </trkpt>
      <trkpt lat="44.52619" lon="5.03041">
        <ele>332</ele>
      </trkpt>
      <trkpt lat="44.52604" lon="5.03112">
        <ele>333</ele>
      </trkpt>
      <trkpt lat="44.52593" lon="5.03174">
        <ele>331</ele>
      </trkpt>
      <trkpt lat="44.5258" lon="5.03264">
        <ele>332</ele>
      </trkpt>
      <trkpt lat="44.52569" lon="5.03357">
        <ele>334</ele>
      </trkpt>
      <trkpt lat="44.52555" lon="5.03566">
        <ele>336</ele>
      </trkpt>
      <trkpt lat="44.5256" lon="5.03569">
        <ele>336</ele>
      </trkpt>
      <trkpt lat="44.52664" lon="5.03602">
        <ele>348</ele>
      </trkpt>
      <trkpt lat="44.52673" lon="5.03612">
        <ele>349</ele>
      </trkpt>
      <trkpt lat="44.52686" lon="5.03632">
        <ele>354</ele>
      </trkpt>
      <trkpt lat="44.52693" lon="5.03663">
        <ele>355</ele>
      </trkpt>
      <trkpt lat="44.52699" lon="5.03698">
        <ele>356</ele>
      </trkpt>
      <trkpt lat="44.52702" lon="5.03739">
        <ele>357</ele>
      </trkpt>
      <trkpt lat="44.52705" lon="5.03752">
        <ele>358</ele>
      </trkpt>
      <trkpt lat="44.52709" lon="5.03759">
        <ele>358</ele>
      </trkpt>
      <trkpt lat="44.52754" lon="5.038">
        <ele>364</ele>
      </trkpt>
      <trkpt lat="44.52763" lon="5.03823">
        <ele>365</ele>
      </trkpt>
      <trkpt lat="44.52807" lon="5.03972">
        <ele>372</ele>
      </trkpt>
      <trkpt lat="44.52814" lon="5.03989">
        <ele>374</ele>
      </trkpt>
      <trkpt lat="44.52823" lon="5.03996">
        <ele>374</ele>
      </trkpt>
      <trkpt lat="44.52838" lon="5.03999">
        <ele>374</ele>
      </trkpt>
      <trkpt lat="44.52851" lon="5.04006">
        <ele>375</ele>
      </trkpt>
      <trkpt lat="44.52861" lon="5.04016">
        <ele>375</ele>
      </trkpt>
      <trkpt lat="44.52861" lon="5.04041">
        <ele>375</ele>
      </trkpt>
      <trkpt lat="44.52843" lon="5.04067">
        <ele>378</ele>
      </trkpt>
      <trkpt lat="44.52802" lon="5.04083">
        <ele>383</ele>
      </trkpt>
      <trkpt lat="44.52744" lon="5.04109">
        <ele>391</ele>
      </trkpt>
      <trkpt lat="44.52737" lon="5.0413">
        <ele>393</ele>
      </trkpt>
      <trkpt lat="44.52744" lon="5.04174">
        <ele>394</ele>
      </trkpt>
      <trkpt lat="44.52761" lon="5.0424">
        <ele>393</ele>
      </trkpt>
      <trkpt lat="44.52772" lon="5.04298">
        <ele>392</ele>
      </trkpt>
      <trkpt lat="44.52762" lon="5.04376">
        <ele>398</ele>
      </trkpt>
      <trkpt lat="44.52747" lon="5.04426">
        <ele>404</ele>
      </trkpt>
      <trkpt lat="44.52722" lon="5.04481">
        <ele>409</ele>
      </trkpt>
      <trkpt lat="44.52696" lon="5.04513">
        <ele>411</ele>
      </trkpt>
      <trkpt lat="44.52631" lon="5.04576">
        <ele>416</ele>
      </trkpt>
      <trkpt lat="44.52611" lon="5.04615">
        <ele>421</ele>
      </trkpt>
      <trkpt lat="44.5258" lon="5.04701">
        <ele>425</ele>
      </trkpt>
      <trkpt lat="44.52569" lon="5.04774">
        <ele>422</ele>
      </trkpt>
      <trkpt lat="44.5257" lon="5.04819">
        <ele>424</ele>
      </trkpt>
      <trkpt lat="44.52573" lon="5.04852">
        <ele>430</ele>
      </trkpt>
      <trkpt lat="44.52584" lon="5.04901">
        <ele>429</ele>
      </trkpt>
      <trkpt lat="44.52609" lon="5.04995">
        <ele>426</ele>
      </trkpt>
      <trkpt lat="44.52625" lon="5.0503">
        <ele>424</ele>
      </trkpt>
      <trkpt lat="44.52677" lon="5.05113">
        <ele>420</ele>
      </trkpt>
      <trkpt lat="44.52712" lon="5.05139">
        <ele>425</ele>
      </trkpt>
      <trkpt lat="44.52765" lon="5.05193">
        <ele>424</ele>
      </trkpt>
      <trkpt lat="44.52817" lon="5.0525">
        <ele>424</ele>
      </trkpt>
      <trkpt lat="44.52833" lon="5.0527">
        <ele>425</ele>
      </trkpt>
      <trkpt lat="44.52858" lon="5.0534">
        <ele>420</ele>
      </trkpt>
      <trkpt lat="44.52881" lon="5.05366">
        <ele>419</ele>
      </trkpt>
      <trkpt lat="44.52888" lon="5.05381">
        <ele>419</ele>
      </trkpt>
      <trkpt lat="44.52885" lon="5.05439">
        <ele>416</ele>
      </trkpt>
      <trkpt lat="44.52872" lon="5.05507">
        <ele>415</ele>
      </trkpt>
      <trkpt lat="44.5285" lon="5.05539">
        <ele>416</ele>
      </trkpt>
      <trkpt lat="44.52822" lon="5.05583">
        <ele>417</ele>
      </trkpt>
      <trkpt lat="44.52796" lon="5.05639">
        <ele>415</ele>
      </trkpt>
      <trkpt lat="44.52768" lon="5.05691">
        <ele>413</ele>
      </trkpt>
      <trkpt lat="44.52764" lon="5.05706">
        <ele>412</ele>
      </trkpt>
      <trkpt lat="44.52754" lon="5.05761">
        <ele>410</ele>
      </trkpt>
      <trkpt lat="44.52745" lon="5.05832">
        <ele>409</ele>
      </trkpt>
      <trkpt lat="44.52733" lon="5.05869">
        <ele>403</ele>
      </trkpt>
      <trkpt lat="44.52731" lon="5.05887">
        <ele>402</ele>
      </trkpt>
      <trkpt lat="44.52641" lon="5.05955">
        <ele>392</ele>
      </trkpt>
      <trkpt lat="44.52619" lon="5.05975">
        <ele>391</ele>
      </trkpt>
      <trkpt lat="44.52629" lon="5.05979">
        <ele>391</ele>
      </trkpt>
      <trkpt lat="44.52645" lon="5.05992">
        <ele>391</ele>
      </trkpt>
      <trkpt lat="44.52713" lon="5.06061">
        <ele>394</ele>
      </trkpt>
      <trkpt lat="44.52789" lon="5.06162">
        <ele>396</ele>
      </trkpt>
      <trkpt lat="44.52829" lon="5.06212">
        <ele>402</ele>
      </trkpt>
      <trkpt lat="44.53004" lon="5.06396">
        <ele>401</ele>
      </trkpt>
      <trkpt lat="44.53023" lon="5.06421">
        <ele>401</ele>
      </trkpt>
      <trkpt lat="44.53041" lon="5.06453">
        <ele>400</ele>
      </trkpt>
      <trkpt lat="44.53054" lon="5.06487">
        <ele>399</ele>
      </trkpt>
      <trkpt lat="44.53061" lon="5.06514">
        <ele>398</ele>
      </trkpt>
      <trkpt lat="44.53067" lon="5.06549">
        <ele>398</ele>
      </trkpt>
      <trkpt lat="44.53071" lon="5.06588">
        <ele>399</ele>
      </trkpt>
      <trkpt lat="44.53075" lon="5.06688">
        <ele>399</ele>
      </trkpt>
      <trkpt lat="44.53068" lon="5.06719">
        <ele>397</ele>
      </trkpt>
      <trkpt lat="44.53064" lon="5.06728">
        <ele>399</ele>
      </trkpt>
      <trkpt lat="44.53064" lon="5.06735">
        <ele>399</ele>
      </trkpt>
      <trkpt lat="44.53066" lon="5.06741">
        <ele>400</ele>
      </trkpt>
      <trkpt lat="44.5307" lon="5.06746">
        <ele>400</ele>
      </trkpt>
      <trkpt lat="44.53075" lon="5.06748">
        <ele>402</ele>
      </trkpt>
      <trkpt lat="44.5308" lon="5.06747">
        <ele>402</ele>
      </trkpt>
      <trkpt lat="44.53084" lon="5.06742">
        <ele>402</ele>
      </trkpt>
      <trkpt lat="44.53094" lon="5.06739">
        <ele>402</ele>
      </trkpt>
      <trkpt lat="44.53122" lon="5.06744">
        <ele>404</ele>
      </trkpt>
      <trkpt lat="44.53236" lon="5.06792">
        <ele>409</ele>
      </trkpt>
      <trkpt lat="44.53295" lon="5.06832">
        <ele>411</ele>
      </trkpt>
      <trkpt lat="44.53486" lon="5.06976">
        <ele>418</ele>
      </trkpt>
      <trkpt lat="44.53605" lon="5.07088">
        <ele>424</ele>
      </trkpt>
      <trkpt lat="44.53799" lon="5.07278">
        <ele>426</ele>
      </trkpt>
      <trkpt lat="44.53957" lon="5.07451">
        <ele>431</ele>
      </trkpt>
      <trkpt lat="44.53967" lon="5.07456">
        <ele>431</ele>
      </trkpt>
      <trkpt lat="44.54001" lon="5.07454">
        <ele>433</ele>
      </trkpt>
      <trkpt lat="44.54019" lon="5.07462">
        <ele>436</ele>
      </trkpt>
      <trkpt lat="44.54102" lon="5.07544">
        <ele>447</ele>
      </trkpt>
      <trkpt lat="44.54152" lon="5.07585">
        <ele>443</ele>
      </trkpt>
      <trkpt lat="44.54194" lon="5.07613">
        <ele>448</ele>
      </trkpt>
      <trkpt lat="44.54307" lon="5.07706">
        <ele>462</ele>
      </trkpt>
      <trkpt lat="44.54349" lon="5.07733">
        <ele>456</ele>
      </trkpt>
      <trkpt lat="44.54394" lon="5.07754">
        <ele>452</ele>
      </trkpt>
      <trkpt lat="44.54473" lon="5.07797">
        <ele>454</ele>
      </trkpt>
      <trkpt lat="44.54574" lon="5.07817">
        <ele>461</ele>
      </trkpt>
      <trkpt lat="44.54611" lon="5.07832">
        <ele>466</ele>
      </trkpt>
      <trkpt lat="44.54623" lon="5.07838">
        <ele>462</ele>
      </trkpt>
      <trkpt lat="44.54664" lon="5.07873">
        <ele>461</ele>
      </trkpt>
      <trkpt lat="44.54683" lon="5.07892">
        <ele>462</ele>
      </trkpt>
      <trkpt lat="44.54725" lon="5.07931">
        <ele>464</ele>
      </trkpt>
      <trkpt lat="44.54784" lon="5.07978">
        <ele>470</ele>
      </trkpt>
      <trkpt lat="44.54808" lon="5.08">
        <ele>477</ele>
      </trkpt>
      <trkpt lat="44.54876" lon="5.08102">
        <ele>471</ele>
      </trkpt>
      <trkpt lat="44.54883" lon="5.08116">
        <ele>475</ele>
      </trkpt>
      <trkpt lat="44.54889" lon="5.0813">
        <ele>475</ele>
      </trkpt>
      <trkpt lat="44.54897" lon="5.08165">
        <ele>472</ele>
      </trkpt>
      <trkpt lat="44.54903" lon="5.08189">
        <ele>472</ele>
      </trkpt>
      <trkpt lat="44.54912" lon="5.08211">
        <ele>472</ele>
      </trkpt>
      <trkpt lat="44.54924" lon="5.0823">
        <ele>473</ele>
      </trkpt>
      <trkpt lat="44.54944" lon="5.08247">
        <ele>474</ele>
      </trkpt>
      <trkpt lat="44.54962" lon="5.08257">
        <ele>477</ele>
      </trkpt>
      <trkpt lat="44.54995" lon="5.08292">
        <ele>483</ele>
      </trkpt>
      <trkpt lat="44.55025" lon="5.0833">
        <ele>489</ele>
      </trkpt>
      <trkpt lat="44.55035" lon="5.08349">
        <ele>489</ele>
      </trkpt>
      <trkpt lat="44.55061" lon="5.08418">
        <ele>490</ele>
      </trkpt>
      <trkpt lat="44.55082" lon="5.08447">
        <ele>490</ele>
      </trkpt>
      <trkpt lat="44.55113" lon="5.08487">
        <ele>491</ele>
      </trkpt>
      <trkpt lat="44.55145" lon="5.08532">
        <ele>494</ele>
      </trkpt>
      <trkpt lat="44.55174" lon="5.08582">
        <ele>497</ele>
      </trkpt>
      <trkpt lat="44.55303" lon="5.08822">
        <ele>511</ele>
      </trkpt>
      <trkpt lat="44.55311" lon="5.08827">
        <ele>512</ele>
      </trkpt>
      <trkpt lat="44.55315" lon="5.08827">
        <ele>513</ele>
      </trkpt>
      <trkpt lat="44.5532" lon="5.08822">
        <ele>513</ele>
      </trkpt>
      <trkpt lat="44.55322" lon="5.08816">
        <ele>514</ele>
      </trkpt>
      <trkpt lat="44.55323" lon="5.08769">
        <ele>518</ele>
      </trkpt>
      <trkpt lat="44.55334" lon="5.08655">
        <ele>527</ele>
      </trkpt>
      <trkpt lat="44.55338" lon="5.08632">
        <ele>528</ele>
      </trkpt>
      <trkpt lat="44.5534" lon="5.08623">
        <ele>528</ele>
      </trkpt>
      <trkpt lat="44.55344" lon="5.08618">
        <ele>529</ele>
      </trkpt>
      <trkpt lat="44.55347" lon="5.08616">
        <ele>529</ele>
      </trkpt>
      <trkpt lat="44.55351" lon="5.08617">
        <ele>529</ele>
      </trkpt>
      <trkpt lat="44.55355" lon="5.08621">
        <ele>530</ele>
      </trkpt>
      <trkpt lat="44.55356" lon="5.08627">
        <ele>530</ele>
      </trkpt>
      <trkpt lat="44.55354" lon="5.08653">
        <ele>532</ele>
      </trkpt>
      <trkpt lat="44.55355" lon="5.08673">
        <ele>531</ele>
      </trkpt>
      <trkpt lat="44.55366" lon="5.08704">
        <ele>530</ele>
      </trkpt>
      <trkpt lat="44.55374" lon="5.08714">
        <ele>531</ele>
      </trkpt>
      <trkpt lat="44.55392" lon="5.08732">
        <ele>532</ele>
      </trkpt>
      <trkpt lat="44.55464" lon="5.08781">
        <ele>544</ele>
      </trkpt>
      <trkpt lat="44.55473" lon="5.08792">
        <ele>545</ele>
      </trkpt>
      <trkpt lat="44.55494" lon="5.0884">
        <ele>548</ele>
      </trkpt>
      <trkpt lat="44.55498" lon="5.08851">
        <ele>547</ele>
      </trkpt>
      <trkpt lat="44.55499" lon="5.08863">
        <ele>546</ele>
      </trkpt>
      <trkpt lat="44.55491" lon="5.08897">
        <ele>544</ele>
      </trkpt>
      <trkpt lat="44.55493" lon="5.08906">
        <ele>544</ele>
      </trkpt>
      <trkpt lat="44.55495" lon="5.0891">
        <ele>545</ele>
      </trkpt>
      <trkpt lat="44.55499" lon="5.08915">
        <ele>545</ele>
      </trkpt>
      <trkpt lat="44.55504" lon="5.08916">
        <ele>545</ele>
      </trkpt>
      <trkpt lat="44.55541" lon="5.08911">
        <ele>547</ele>
      </trkpt>
      <trkpt lat="44.55562" lon="5.08912">
        <ele>550</ele>
      </trkpt>
      <trkpt lat="44.55586" lon="5.08916">
        <ele>553</ele>
      </trkpt>
      <trkpt lat="44.55604" lon="5.08922">
        <ele>554</ele>
      </trkpt>
      <trkpt lat="44.55612" lon="5.08927">
        <ele>555</ele>
      </trkpt>
      <trkpt lat="44.5562" lon="5.08937">
        <ele>556</ele>
      </trkpt>
      <trkpt lat="44.55623" lon="5.08953">
        <ele>555</ele>
      </trkpt>
      <trkpt lat="44.55622" lon="5.08974">
        <ele>554</ele>
      </trkpt>
      <trkpt lat="44.55624" lon="5.08986">
        <ele>553</ele>
      </trkpt>
      <trkpt lat="44.5563" lon="5.08996">
        <ele>554</ele>
      </trkpt>
      <trkpt lat="44.55641" lon="5.09002">
        <ele>555</ele>
      </trkpt>
      <trkpt lat="44.55655" lon="5.09007">
        <ele>557</ele>
      </trkpt>
      <trkpt lat="44.55765" lon="5.09027">
        <ele>566</ele>
      </trkpt>
      <trkpt lat="44.55772" lon="5.09026">
        <ele>567</ele>
      </trkpt>
      <trkpt lat="44.55777" lon="5.09022">
        <ele>569</ele>
      </trkpt>
      <trkpt lat="44.55779" lon="5.09014">
        <ele>570</ele>
      </trkpt>
      <trkpt lat="44.55777" lon="5.09005">
        <ele>572</ele>
      </trkpt>
      <trkpt lat="44.55773" lon="5.08999">
        <ele>573</ele>
      </trkpt>
      <trkpt lat="44.55763" lon="5.08995">
        <ele>572</ele>
      </trkpt>
      <trkpt lat="44.55748" lon="5.08992">
        <ele>572</ele>
      </trkpt>
      <trkpt lat="44.55735" lon="5.08985">
        <ele>571</ele>
      </trkpt>
      <trkpt lat="44.55717" lon="5.08971">
        <ele>572</ele>
      </trkpt>
      <trkpt lat="44.55707" lon="5.08961">
        <ele>573</ele>
      </trkpt>
      <trkpt lat="44.55701" lon="5.08952">
        <ele>575</ele>
      </trkpt>
      <trkpt lat="44.55698" lon="5.08941">
        <ele>577</ele>
      </trkpt>
      <trkpt lat="44.55697" lon="5.08929">
        <ele>579</ele>
      </trkpt>
      <trkpt lat="44.55699" lon="5.08916">
        <ele>581</ele>
      </trkpt>
      <trkpt lat="44.55711" lon="5.08873">
        <ele>589</ele>
      </trkpt>
      <trkpt lat="44.55714" lon="5.08859">
        <ele>589</ele>
      </trkpt>
      <trkpt lat="44.55714" lon="5.08849">
        <ele>588</ele>
      </trkpt>
      <trkpt lat="44.55713" lon="5.08839">
        <ele>588</ele>
      </trkpt>
      <trkpt lat="44.55706" lon="5.0883">
        <ele>588</ele>
      </trkpt>
      <trkpt lat="44.55685" lon="5.0882">
        <ele>584</ele>
      </trkpt>
      <trkpt lat="44.55677" lon="5.0881">
        <ele>582</ele>
      </trkpt>
      <trkpt lat="44.55675" lon="5.08798">
        <ele>583</ele>
      </trkpt>
      <trkpt lat="44.55682" lon="5.0875">
        <ele>589</ele>
      </trkpt>
      <trkpt lat="44.55685" lon="5.08743">
        <ele>590</ele>
      </trkpt>
      <trkpt lat="44.55691" lon="5.0874">
        <ele>591</ele>
      </trkpt>
      <trkpt lat="44.55698" lon="5.08741">
        <ele>592</ele>
      </trkpt>
      <trkpt lat="44.55704" lon="5.08746">
        <ele>593</ele>
      </trkpt>
      <trkpt lat="44.5572" lon="5.08791">
        <ele>598</ele>
      </trkpt>
      <trkpt lat="44.55746" lon="5.0884">
        <ele>598</ele>
      </trkpt>
      <trkpt lat="44.55758" lon="5.08856">
        <ele>598</ele>
      </trkpt>
      <trkpt lat="44.55775" lon="5.08868">
        <ele>599</ele>
      </trkpt>
      <trkpt lat="44.55828" lon="5.08892">
        <ele>597</ele>
      </trkpt>
      <trkpt lat="44.55839" lon="5.08894">
        <ele>598</ele>
      </trkpt>
      <trkpt lat="44.55849" lon="5.08891">
        <ele>600</ele>
      </trkpt>
      <trkpt lat="44.55858" lon="5.08884">
        <ele>601</ele>
      </trkpt>
      <trkpt lat="44.5588" lon="5.08863">
        <ele>606</ele>
      </trkpt>
      <trkpt lat="44.55888" lon="5.08858">
        <ele>608</ele>
      </trkpt>
      <trkpt lat="44.55902" lon="5.08859">
        <ele>608</ele>
      </trkpt>
      <trkpt lat="44.56201" lon="5.08925">
        <ele>626</ele>
      </trkpt>
      <trkpt lat="44.5621" lon="5.08929">
        <ele>627</ele>
      </trkpt>
      <trkpt lat="44.56218" lon="5.08935">
        <ele>627</ele>
      </trkpt>
      <trkpt lat="44.56222" lon="5.0894">
        <ele>628</ele>
      </trkpt>
      <trkpt lat="44.56225" lon="5.08948">
        <ele>628</ele>
      </trkpt>
      <trkpt lat="44.56226" lon="5.08957">
        <ele>628</ele>
      </trkpt>
      <trkpt lat="44.56224" lon="5.0897">
        <ele>628</ele>
      </trkpt>
      <trkpt lat="44.56216" lon="5.08989">
        <ele>629</ele>
      </trkpt>
      <trkpt lat="44.56173" lon="5.09063">
        <ele>633</ele>
      </trkpt>
      <trkpt lat="44.56168" lon="5.09082">
        <ele>635</ele>
      </trkpt>
      <trkpt lat="44.56164" lon="5.09103">
        <ele>636</ele>
      </trkpt>
      <trkpt lat="44.56178" lon="5.09313">
        <ele>642</ele>
      </trkpt>
      <trkpt lat="44.5619" lon="5.09381">
        <ele>646</ele>
      </trkpt>
      <trkpt lat="44.56209" lon="5.09467">
        <ele>647</ele>
      </trkpt>
      <trkpt lat="44.56217" lon="5.0953">
        <ele>653</ele>
      </trkpt>
      <trkpt lat="44.56218" lon="5.09566">
        <ele>649</ele>
      </trkpt>
      <trkpt lat="44.5621" lon="5.09636">
        <ele>640</ele>
      </trkpt>
      <trkpt lat="44.56213" lon="5.09659">
        <ele>641</ele>
      </trkpt>
      <trkpt lat="44.56218" lon="5.09681">
        <ele>642</ele>
      </trkpt>
      <trkpt lat="44.56228" lon="5.09701">
        <ele>643</ele>
      </trkpt>
      <trkpt lat="44.56247" lon="5.09731">
        <ele>644</ele>
      </trkpt>
      <trkpt lat="44.56361" lon="5.09873">
        <ele>635</ele>
      </trkpt>
      <trkpt lat="44.56357" lon="5.09882">
        <ele>635</ele>
      </trkpt>
      <trkpt lat="44.56358" lon="5.09892">
        <ele>635</ele>
      </trkpt>
      <trkpt lat="44.56366" lon="5.09903">
        <ele>636</ele>
      </trkpt>
      <trkpt lat="44.5637" lon="5.09916">
        <ele>636</ele>
      </trkpt>
      <trkpt lat="44.56374" lon="5.09937">
        <ele>637</ele>
      </trkpt>
      <trkpt lat="44.5643" lon="5.10361">
        <ele>648</ele>
      </trkpt>
      <trkpt lat="44.56429" lon="5.10379">
        <ele>649</ele>
      </trkpt>
      <trkpt lat="44.56404" lon="5.10488">
        <ele>655</ele>
      </trkpt>
      <trkpt lat="44.56393" lon="5.10543">
        <ele>659</ele>
      </trkpt>
      <trkpt lat="44.56384" lon="5.10604">
        <ele>665</ele>
      </trkpt>
      <trkpt lat="44.56379" lon="5.10627">
        <ele>667</ele>
      </trkpt>
      <trkpt lat="44.56371" lon="5.10647">
        <ele>668</ele>
      </trkpt>
      <trkpt lat="44.56361" lon="5.10662">
        <ele>666</ele>
      </trkpt>
      <trkpt lat="44.56285" lon="5.10762">
        <ele>660</ele>
      </trkpt>
      <trkpt lat="44.56264" lon="5.10787">
        <ele>661</ele>
      </trkpt>
      <trkpt lat="44.56216" lon="5.10832">
        <ele>662</ele>
      </trkpt>
      <trkpt lat="44.56192" lon="5.10857">
        <ele>663</ele>
      </trkpt>
      <trkpt lat="44.5609" lon="5.10982">
        <ele>668</ele>
      </trkpt>
      <trkpt lat="44.56077" lon="5.10999">
        <ele>669</ele>
      </trkpt>
      <trkpt lat="44.56057" lon="5.11043">
        <ele>670</ele>
      </trkpt>
      <trkpt lat="44.56033" lon="5.11087">
        <ele>676</ele>
      </trkpt>
      <trkpt lat="44.5602" lon="5.11131">
        <ele>677</ele>
      </trkpt>
      <trkpt lat="44.56002" lon="5.11176">
        <ele>679</ele>
      </trkpt>
      <trkpt lat="44.55995" lon="5.11215">
        <ele>682</ele>
      </trkpt>
      <trkpt lat="44.55988" lon="5.11233">
        <ele>683</ele>
      </trkpt>
      <trkpt lat="44.55974" lon="5.11259">
        <ele>683</ele>
      </trkpt>
      <trkpt lat="44.55957" lon="5.11283">
        <ele>684</ele>
      </trkpt>
      <trkpt lat="44.5591" lon="5.11341">
        <ele>684</ele>
      </trkpt>
      <trkpt lat="44.55892" lon="5.1136">
        <ele>684</ele>
      </trkpt>
      <trkpt lat="44.55826" lon="5.11417">
        <ele>685</ele>
      </trkpt>
      <trkpt lat="44.558" lon="5.11436">
        <ele>687</ele>
      </trkpt>
      <trkpt lat="44.55827" lon="5.11553">
        <ele>691</ele>
      </trkpt>
      <trkpt lat="44.55836" lon="5.11572">
        <ele>692</ele>
      </trkpt>
      <trkpt lat="44.55921" lon="5.11681">
        <ele>698</ele>
      </trkpt>
      <trkpt lat="44.55928" lon="5.11696">
        <ele>699</ele>
      </trkpt>
      <trkpt lat="44.55933" lon="5.11713">
        <ele>700</ele>
      </trkpt>
      <trkpt lat="44.55942" lon="5.11758">
        <ele>702</ele>
      </trkpt>
      <trkpt lat="44.55949" lon="5.11767">
        <ele>702</ele>
      </trkpt>
      <trkpt lat="44.55986" lon="5.11786">
        <ele>703</ele>
      </trkpt>
      <trkpt lat="44.56022" lon="5.11789">
        <ele>705</ele>
      </trkpt>
      <trkpt lat="44.56048" lon="5.11798">
        <ele>704</ele>
      </trkpt>
      <trkpt lat="44.56118" lon="5.11833">
        <ele>701</ele>
      </trkpt>
      <trkpt lat="44.5615" lon="5.11845">
        <ele>695</ele>
      </trkpt>
      <trkpt lat="44.56211" lon="5.11855">
        <ele>698</ele>
      </trkpt>
      <trkpt lat="44.56242" lon="5.11865">
        <ele>696</ele>
      </trkpt>
      <trkpt lat="44.5626" lon="5.11878">
        <ele>695</ele>
      </trkpt>
      <trkpt lat="44.56308" lon="5.11905">
        <ele>692</ele>
      </trkpt>
      <trkpt lat="44.56405" lon="5.11947">
        <ele>682</ele>
      </trkpt>
      <trkpt lat="44.56397" lon="5.11967">
        <ele>679</ele>
      </trkpt>
      <trkpt lat="44.56362" lon="5.12002">
        <ele>673</ele>
      </trkpt>
      <trkpt lat="44.56345" lon="5.12025">
        <ele>670</ele>
      </trkpt>
      <trkpt lat="44.56298" lon="5.12098">
        <ele>660</ele>
      </trkpt>
      <trkpt lat="44.56289" lon="5.12107">
        <ele>660</ele>
      </trkpt>
      <trkpt lat="44.5628" lon="5.12107">
        <ele>660</ele>
      </trkpt>
      <trkpt lat="44.56271" lon="5.12103">
        <ele>659</ele>
      </trkpt>
      <trkpt lat="44.5626" lon="5.12095">
        <ele>659</ele>
      </trkpt>
      <trkpt lat="44.56246" lon="5.12079">
        <ele>659</ele>
      </trkpt>
      <trkpt lat="44.56236" lon="5.12065">
        <ele>659</ele>
      </trkpt>
      <trkpt lat="44.56221" lon="5.12051">
        <ele>658</ele>
      </trkpt>
      <trkpt lat="44.5621" lon="5.12042">
        <ele>657</ele>
      </trkpt>
      <trkpt lat="44.56199" lon="5.12036">
        <ele>656</ele>
      </trkpt>
      <trkpt lat="44.56187" lon="5.12032">
        <ele>655</ele>
      </trkpt>
      <trkpt lat="44.56174" lon="5.12033">
        <ele>654</ele>
      </trkpt>
      <trkpt lat="44.56158" lon="5.12038">
        <ele>653</ele>
      </trkpt>
      <trkpt lat="44.56138" lon="5.12053">
        <ele>652</ele>
      </trkpt>
      <trkpt lat="44.56124" lon="5.12078">
        <ele>650</ele>
      </trkpt>
      <trkpt lat="44.56116" lon="5.12122">
        <ele>646</ele>
      </trkpt>
      <trkpt lat="44.56097" lon="5.12202">
        <ele>642</ele>
      </trkpt>
      <trkpt lat="44.56091" lon="5.12218">
        <ele>642</ele>
      </trkpt>
      <trkpt lat="44.56075" lon="5.12248">
        <ele>641</ele>
      </trkpt>
      <trkpt lat="44.56068" lon="5.12266">
        <ele>641</ele>
      </trkpt>
      <trkpt lat="44.56063" lon="5.12285">
        <ele>642</ele>
      </trkpt>
      <trkpt lat="44.5606" lon="5.12305">
        <ele>642</ele>
      </trkpt>
      <trkpt lat="44.5606" lon="5.12326">
        <ele>641</ele>
      </trkpt>
      <trkpt lat="44.56061" lon="5.12369">
        <ele>638</ele>
      </trkpt>
      <trkpt lat="44.56056" lon="5.12425">
        <ele>638</ele>
      </trkpt>
      <trkpt lat="44.56058" lon="5.1244">
        <ele>637</ele>
      </trkpt>
      <trkpt lat="44.56066" lon="5.12472">
        <ele>636</ele>
      </trkpt>
      <trkpt lat="44.56066" lon="5.12486">
        <ele>636</ele>
      </trkpt>
      <trkpt lat="44.56063" lon="5.12496">
        <ele>637</ele>
      </trkpt>
      <trkpt lat="44.56042" lon="5.12526">
        <ele>638</ele>
      </trkpt>
      <trkpt lat="44.5603" lon="5.12529">
        <ele>638</ele>
      </trkpt>
      <trkpt lat="44.56018" lon="5.12527">
        <ele>639</ele>
      </trkpt>
      <trkpt lat="44.55993" lon="5.1251">
        <ele>640</ele>
      </trkpt>
      <trkpt lat="44.55977" lon="5.12508">
        <ele>640</ele>
      </trkpt>
      <trkpt lat="44.55957" lon="5.12513">
        <ele>640</ele>
      </trkpt>
      <trkpt lat="44.55939" lon="5.12525">
        <ele>637</ele>
      </trkpt>
      <trkpt lat="44.55924" lon="5.1254">
        <ele>634</ele>
      </trkpt>
      <trkpt lat="44.55882" lon="5.12594">
        <ele>624</ele>
      </trkpt>
      <trkpt lat="44.55854" lon="5.12625">
        <ele>624</ele>
      </trkpt>
      <trkpt lat="44.55848" lon="5.12638">
        <ele>624</ele>
      </trkpt>
      <trkpt lat="44.55845" lon="5.12653">
        <ele>623</ele>
      </trkpt>
      <trkpt lat="44.55834" lon="5.12674">
        <ele>623</ele>
      </trkpt>
      <trkpt lat="44.55828" lon="5.12691">
        <ele>623</ele>
      </trkpt>
      <trkpt lat="44.55821" lon="5.1272">
        <ele>624</ele>
      </trkpt>
      <trkpt lat="44.55812" lon="5.12737">
        <ele>624</ele>
      </trkpt>
      <trkpt lat="44.55801" lon="5.12751">
        <ele>625</ele>
      </trkpt>
      <trkpt lat="44.55783" lon="5.12781">
        <ele>625</ele>
      </trkpt>
      <trkpt lat="44.55779" lon="5.12798">
        <ele>624</ele>
      </trkpt>
      <trkpt lat="44.55775" lon="5.12853">
        <ele>620</ele>
      </trkpt>
      <trkpt lat="44.55771" lon="5.12875">
        <ele>622</ele>
      </trkpt>
      <trkpt lat="44.55763" lon="5.1289">
        <ele>625</ele>
      </trkpt>
      <trkpt lat="44.55757" lon="5.1291">
        <ele>627</ele>
      </trkpt>
      <trkpt lat="44.55755" lon="5.12957">
        <ele>625</ele>
      </trkpt>
      <trkpt lat="44.5575" lon="5.12973">
        <ele>625</ele>
      </trkpt>
      <trkpt lat="44.55743" lon="5.12986">
        <ele>625</ele>
      </trkpt>
      <trkpt lat="44.55668" lon="5.13078">
        <ele>626</ele>
      </trkpt>
      <trkpt lat="44.55658" lon="5.13101">
        <ele>624</ele>
      </trkpt>
      <trkpt lat="44.55633" lon="5.13172">
        <ele>620</ele>
      </trkpt>
      <trkpt lat="44.55599" lon="5.13228">
        <ele>619</ele>
      </trkpt>
      <trkpt lat="44.5559" lon="5.13238">
        <ele>621</ele>
      </trkpt>
      <trkpt lat="44.55575" lon="5.13245">
        <ele>623</ele>
      </trkpt>
      <trkpt lat="44.55566" lon="5.13255">
        <ele>625</ele>
      </trkpt>
      <trkpt lat="44.55559" lon="5.13269">
        <ele>624</ele>
      </trkpt>
      <trkpt lat="44.5554" lon="5.13329">
        <ele>619</ele>
      </trkpt>
      <trkpt lat="44.55529" lon="5.1335">
        <ele>615</ele>
      </trkpt>
      <trkpt lat="44.55517" lon="5.13368">
        <ele>612</ele>
      </trkpt>
      <trkpt lat="44.55503" lon="5.13384">
        <ele>613</ele>
      </trkpt>
      <trkpt lat="44.55486" lon="5.13396">
        <ele>614</ele>
      </trkpt>
      <trkpt lat="44.55425" lon="5.1343">
        <ele>612</ele>
      </trkpt>
      <trkpt lat="44.55404" lon="5.13435">
        <ele>614</ele>
      </trkpt>
      <trkpt lat="44.55395" lon="5.13435">
        <ele>615</ele>
      </trkpt>
      <trkpt lat="44.55371" lon="5.13427">
        <ele>617</ele>
      </trkpt>
      <trkpt lat="44.55362" lon="5.13429">
        <ele>617</ele>
      </trkpt>
      <trkpt lat="44.55338" lon="5.13443">
        <ele>618</ele>
      </trkpt>
      <trkpt lat="44.55307" lon="5.13466">
        <ele>614</ele>
      </trkpt>
      <trkpt lat="44.55298" lon="5.1348">
        <ele>613</ele>
      </trkpt>
      <trkpt lat="44.55294" lon="5.13499">
        <ele>613</ele>
      </trkpt>
      <trkpt lat="44.55287" lon="5.13512">
        <ele>612</ele>
      </trkpt>
      <trkpt lat="44.55279" lon="5.13515">
        <ele>614</ele>
      </trkpt>
      <trkpt lat="44.55255" lon="5.13516">
        <ele>618</ele>
      </trkpt>
      <trkpt lat="44.55256" lon="5.13531">
        <ele>618</ele>
      </trkpt>
      <trkpt lat="44.55262" lon="5.13547">
        <ele>617</ele>
      </trkpt>
      <trkpt lat="44.55264" lon="5.13564">
        <ele>617</ele>
      </trkpt>
      <trkpt lat="44.55264" lon="5.13582">
        <ele>617</ele>
      </trkpt>
      <trkpt lat="44.55252" lon="5.13678">
        <ele>618</ele>
      </trkpt>
      <trkpt lat="44.55243" lon="5.13733">
        <ele>614</ele>
      </trkpt>
      <trkpt lat="44.55234" lon="5.13764">
        <ele>613</ele>
      </trkpt>
      <trkpt lat="44.5523" lon="5.13775">
        <ele>612</ele>
      </trkpt>
      <trkpt lat="44.55218" lon="5.13789">
        <ele>612</ele>
      </trkpt>
      <trkpt lat="44.5517" lon="5.1383">
        <ele>610</ele>
      </trkpt>
      <trkpt lat="44.55143" lon="5.13874">
        <ele>609</ele>
      </trkpt>
      <trkpt lat="44.55115" lon="5.13939">
        <ele>606</ele>
      </trkpt>
      <trkpt lat="44.55115" lon="5.13967">
        <ele>606</ele>
      </trkpt>
      <trkpt lat="44.55151" lon="5.14101">
        <ele>607</ele>
      </trkpt>
      <trkpt lat="44.55159" lon="5.14163">
        <ele>611</ele>
      </trkpt>
      <trkpt lat="44.55159" lon="5.14353">
        <ele>604</ele>
      </trkpt>
      <trkpt lat="44.5515" lon="5.14402">
        <ele>603</ele>
      </trkpt>
      <trkpt lat="44.55135" lon="5.14445">
        <ele>606</ele>
      </trkpt>
      <trkpt lat="44.55117" lon="5.14477">
        <ele>604</ele>
      </trkpt>
      <trkpt lat="44.55098" lon="5.14502">
        <ele>603</ele>
      </trkpt>
      <trkpt lat="44.55071" lon="5.14523">
        <ele>603</ele>
      </trkpt>
      <trkpt lat="44.5506" lon="5.14536">
        <ele>601</ele>
      </trkpt>
      <trkpt lat="44.55053" lon="5.1455">
        <ele>600</ele>
      </trkpt>
      <trkpt lat="44.5505" lon="5.14568">
        <ele>598</ele>
      </trkpt>
      <trkpt lat="44.5505" lon="5.14584">
        <ele>597</ele>
      </trkpt>
      <trkpt lat="44.55072" lon="5.14672">
        <ele>589</ele>
      </trkpt>
      <trkpt lat="44.55077" lon="5.14681">
        <ele>589</ele>
      </trkpt>
      <trkpt lat="44.55087" lon="5.14686">
        <ele>588</ele>
      </trkpt>
      <trkpt lat="44.55104" lon="5.1469">
        <ele>588</ele>
      </trkpt>
      <trkpt lat="44.55147" lon="5.14708">
        <ele>581</ele>
      </trkpt>
      <trkpt lat="44.55177" lon="5.14707">
        <ele>582</ele>
      </trkpt>
      <trkpt lat="44.5519" lon="5.1471">
        <ele>583</ele>
      </trkpt>
      <trkpt lat="44.55233" lon="5.14733">
        <ele>575</ele>
      </trkpt>
      <trkpt lat="44.55253" lon="5.1474">
        <ele>574</ele>
      </trkpt>
      <trkpt lat="44.55276" lon="5.14747">
        <ele>572</ele>
      </trkpt>
      <trkpt lat="44.55319" lon="5.14752">
        <ele>568</ele>
      </trkpt>
      <trkpt lat="44.55336" lon="5.1475">
        <ele>567</ele>
      </trkpt>
      <trkpt lat="44.55369" lon="5.14741">
        <ele>566</ele>
      </trkpt>
      <trkpt lat="44.55391" lon="5.14743">
        <ele>563</ele>
      </trkpt>
      <trkpt lat="44.5541" lon="5.14738">
        <ele>560</ele>
      </trkpt>
      <trkpt lat="44.55472" lon="5.14692">
        <ele>560</ele>
      </trkpt>
      <trkpt lat="44.55481" lon="5.1469">
        <ele>559</ele>
      </trkpt>
      <trkpt lat="44.5549" lon="5.1469">
        <ele>559</ele>
      </trkpt>
      <trkpt lat="44.55498" lon="5.14693">
        <ele>558</ele>
      </trkpt>
      <trkpt lat="44.55509" lon="5.14704">
        <ele>557</ele>
      </trkpt>
      <trkpt lat="44.55517" lon="5.14715">
        <ele>557</ele>
      </trkpt>
      <trkpt lat="44.55522" lon="5.14733">
        <ele>558</ele>
      </trkpt>
      <trkpt lat="44.55522" lon="5.1476">
        <ele>558</ele>
      </trkpt>
      <trkpt lat="44.55518" lon="5.14777">
        <ele>558</ele>
      </trkpt>
      <trkpt lat="44.55511" lon="5.14794">
        <ele>557</ele>
      </trkpt>
      <trkpt lat="44.55494" lon="5.14828">
        <ele>556</ele>
      </trkpt>
      <trkpt lat="44.55493" lon="5.1484">
        <ele>556</ele>
      </trkpt>
      <trkpt lat="44.55498" lon="5.14879">
        <ele>557</ele>
      </trkpt>
      <trkpt lat="44.55494" lon="5.1489">
        <ele>557</ele>
      </trkpt>
      <trkpt lat="44.55488" lon="5.14898">
        <ele>557</ele>
      </trkpt>
      <trkpt lat="44.5547" lon="5.1491">
        <ele>556</ele>
      </trkpt>
      <trkpt lat="44.5544" lon="5.14936">
        <ele>555</ele>
      </trkpt>
      <trkpt lat="44.55426" lon="5.14944">
        <ele>555</ele>
      </trkpt>
      <trkpt lat="44.55412" lon="5.14955">
        <ele>554</ele>
      </trkpt>
      <trkpt lat="44.55389" lon="5.14992">
        <ele>555</ele>
      </trkpt>
      <trkpt lat="44.55338" lon="5.15056">
        <ele>543</ele>
      </trkpt>
      <trkpt lat="44.55329" lon="5.15064">
        <ele>541</ele>
      </trkpt>
      <trkpt lat="44.55311" lon="5.15071">
        <ele>538</ele>
      </trkpt>
      <trkpt lat="44.55303" lon="5.15078">
        <ele>537</ele>
      </trkpt>
      <trkpt lat="44.55299" lon="5.15088">
        <ele>536</ele>
      </trkpt>
      <trkpt lat="44.55295" lon="5.15105">
        <ele>535</ele>
      </trkpt>
      <trkpt lat="44.55295" lon="5.15122">
        <ele>534</ele>
      </trkpt>
      <trkpt lat="44.55297" lon="5.15144">
        <ele>532</ele>
      </trkpt>
      <trkpt lat="44.553" lon="5.15156">
        <ele>531</ele>
      </trkpt>
      <trkpt lat="44.55307" lon="5.15168">
        <ele>530</ele>
      </trkpt>
      <trkpt lat="44.55315" lon="5.15176">
        <ele>530</ele>
      </trkpt>
      <trkpt lat="44.55352" lon="5.15194">
        <ele>532</ele>
      </trkpt>
      <trkpt lat="44.55362" lon="5.15204">
        <ele>531</ele>
      </trkpt>
      <trkpt lat="44.55364" lon="5.1521">
        <ele>530</ele>
      </trkpt>
      <trkpt lat="44.55364" lon="5.15217">
        <ele>530</ele>
      </trkpt>
      <trkpt lat="44.55361" lon="5.15221">
        <ele>530</ele>
      </trkpt>
      <trkpt lat="44.55356" lon="5.15221">
        <ele>529</ele>
      </trkpt>
      <trkpt lat="44.55338" lon="5.1521">
        <ele>526</ele>
      </trkpt>
      <trkpt lat="44.55327" lon="5.15208">
        <ele>524</ele>
      </trkpt>
      <trkpt lat="44.55315" lon="5.1521">
        <ele>522</ele>
      </trkpt>
      <trkpt lat="44.55291" lon="5.15223">
        <ele>518</ele>
      </trkpt>
      <trkpt lat="44.5528" lon="5.15227">
        <ele>517</ele>
      </trkpt>
      <trkpt lat="44.5527" lon="5.15226">
        <ele>516</ele>
      </trkpt>
      <trkpt lat="44.5526" lon="5.1522">
        <ele>515</ele>
      </trkpt>
      <trkpt lat="44.55226" lon="5.15188">
        <ele>513</ele>
      </trkpt>
      <trkpt lat="44.55221" lon="5.1518">
        <ele>513</ele>
      </trkpt>
      <trkpt lat="44.55219" lon="5.15168">
        <ele>514</ele>
      </trkpt>
      <trkpt lat="44.55222" lon="5.15155">
        <ele>515</ele>
      </trkpt>
      <trkpt lat="44.55222" lon="5.15146">
        <ele>515</ele>
      </trkpt>
      <trkpt lat="44.55219" lon="5.15141">
        <ele>514</ele>
      </trkpt>
      <trkpt lat="44.55214" lon="5.15139">
        <ele>514</ele>
      </trkpt>
      <trkpt lat="44.55208" lon="5.15141">
        <ele>513</ele>
      </trkpt>
      <trkpt lat="44.55205" lon="5.15149">
        <ele>512</ele>
      </trkpt>
      <trkpt lat="44.55204" lon="5.15187">
        <ele>508</ele>
      </trkpt>
      <trkpt lat="44.55204" lon="5.15217">
        <ele>507</ele>
      </trkpt>
      <trkpt lat="44.55203" lon="5.15232">
        <ele>506</ele>
      </trkpt>
      <trkpt lat="44.55195" lon="5.15247">
        <ele>505</ele>
      </trkpt>
      <trkpt lat="44.5518" lon="5.15264">
        <ele>503</ele>
      </trkpt>
      <trkpt lat="44.55172" lon="5.15282">
        <ele>501</ele>
      </trkpt>
      <trkpt lat="44.55167" lon="5.15298">
        <ele>500</ele>
      </trkpt>
      <trkpt lat="44.55167" lon="5.15314">
        <ele>499</ele>
      </trkpt>
      <trkpt lat="44.55171" lon="5.15327">
        <ele>498</ele>
      </trkpt>
      <trkpt lat="44.55181" lon="5.1534">
        <ele>497</ele>
      </trkpt>
      <trkpt lat="44.55197" lon="5.15355">
        <ele>496</ele>
      </trkpt>
      <trkpt lat="44.55215" lon="5.15377">
        <ele>496</ele>
      </trkpt>
      <trkpt lat="44.55227" lon="5.15396">
        <ele>496</ele>
      </trkpt>
      <trkpt lat="44.55231" lon="5.15411">
        <ele>496</ele>
      </trkpt>
      <trkpt lat="44.55233" lon="5.15428">
        <ele>495</ele>
      </trkpt>
      <trkpt lat="44.55216" lon="5.15543">
        <ele>493</ele>
      </trkpt>
      <trkpt lat="44.55215" lon="5.15559">
        <ele>491</ele>
      </trkpt>
      <trkpt lat="44.55218" lon="5.15569">
        <ele>490</ele>
      </trkpt>
      <trkpt lat="44.55224" lon="5.1558">
        <ele>488</ele>
      </trkpt>
      <trkpt lat="44.55233" lon="5.15588">
        <ele>486</ele>
      </trkpt>
      <trkpt lat="44.55247" lon="5.15593">
        <ele>486</ele>
      </trkpt>
      <trkpt lat="44.55263" lon="5.15596">
        <ele>486</ele>
      </trkpt>
      <trkpt lat="44.55277" lon="5.15604">
        <ele>484</ele>
      </trkpt>
      <trkpt lat="44.55293" lon="5.15619">
        <ele>482</ele>
      </trkpt>
      <trkpt lat="44.55368" lon="5.15661">
        <ele>478</ele>
      </trkpt>
      <trkpt lat="44.55395" lon="5.15679">
        <ele>477</ele>
      </trkpt>
      <trkpt lat="44.55449" lon="5.15737">
        <ele>474</ele>
      </trkpt>
      <trkpt lat="44.55457" lon="5.15741">
        <ele>474</ele>
      </trkpt>
      <trkpt lat="44.55471" lon="5.15745">
        <ele>473</ele>
      </trkpt>
      <trkpt lat="44.55564" lon="5.15751">
        <ele>470</ele>
      </trkpt>
      <trkpt lat="44.55579" lon="5.15754">
        <ele>469</ele>
      </trkpt>
      <trkpt lat="44.55637" lon="5.15785">
        <ele>465</ele>
      </trkpt>
      <trkpt lat="44.55651" lon="5.15796">
        <ele>464</ele>
      </trkpt>
      <trkpt lat="44.55662" lon="5.1581">
        <ele>464</ele>
      </trkpt>
      <trkpt lat="44.55677" lon="5.15836">
        <ele>463</ele>
      </trkpt>
      <trkpt lat="44.5568" lon="5.15849">
        <ele>463</ele>
      </trkpt>
      <trkpt lat="44.55681" lon="5.15862">
        <ele>463</ele>
      </trkpt>
      <trkpt lat="44.55674" lon="5.15884">
        <ele>464</ele>
      </trkpt>
      <trkpt lat="44.55656" lon="5.15907">
        <ele>464</ele>
      </trkpt>
      <trkpt lat="44.55652" lon="5.1592">
        <ele>464</ele>
      </trkpt>
      <trkpt lat="44.55652" lon="5.15933">
        <ele>464</ele>
      </trkpt>
      <trkpt lat="44.55656" lon="5.15947">
        <ele>464</ele>
      </trkpt>
      <trkpt lat="44.55668" lon="5.15964">
        <ele>464</ele>
      </trkpt>
      <trkpt lat="44.55682" lon="5.15977">
        <ele>464</ele>
      </trkpt>
      <trkpt lat="44.55697" lon="5.15989">
        <ele>463</ele>
      </trkpt>
      <trkpt lat="44.5584" lon="5.16087">
        <ele>460</ele>
      </trkpt>
      <trkpt lat="44.55848" lon="5.161">
        <ele>461</ele>
      </trkpt>
      <trkpt lat="44.55851" lon="5.16111">
        <ele>461</ele>
      </trkpt>
      <trkpt lat="44.5585" lon="5.16124">
        <ele>462</ele>
      </trkpt>
      <trkpt lat="44.55847" lon="5.16135">
        <ele>462</ele>
      </trkpt>
      <trkpt lat="44.55765" lon="5.16202">
        <ele>465</ele>
      </trkpt>
      <trkpt lat="44.5575" lon="5.1622">
        <ele>465</ele>
      </trkpt>
      <trkpt lat="44.55721" lon="5.16282">
        <ele>466</ele>
      </trkpt>
      <trkpt lat="44.55709" lon="5.16295">
        <ele>466</ele>
      </trkpt>
      <trkpt lat="44.5567" lon="5.16316">
        <ele>465</ele>
      </trkpt>
      <trkpt lat="44.55647" lon="5.16331">
        <ele>466</ele>
      </trkpt>
      <trkpt lat="44.55609" lon="5.16372">
        <ele>467</ele>
      </trkpt>
      <trkpt lat="44.5558" lon="5.16397">
        <ele>467</ele>
      </trkpt>
      <trkpt lat="44.55566" lon="5.16417">
        <ele>467</ele>
      </trkpt>
      <trkpt lat="44.55553" lon="5.16451">
        <ele>467</ele>
      </trkpt>
      <trkpt lat="44.55523" lon="5.16551">
        <ele>471</ele>
      </trkpt>
      <trkpt lat="44.55515" lon="5.16584">
        <ele>473</ele>
      </trkpt>
      <trkpt lat="44.55517" lon="5.16593">
        <ele>474</ele>
      </trkpt>
      <trkpt lat="44.55534" lon="5.16601">
        <ele>476</ele>
      </trkpt>
      <trkpt lat="44.55575" lon="5.16601">
        <ele>480</ele>
      </trkpt>
      <trkpt lat="44.55596" lon="5.16598">
        <ele>481</ele>
      </trkpt>
      <trkpt lat="44.55627" lon="5.1657">
        <ele>482</ele>
      </trkpt>
      <trkpt lat="44.55632" lon="5.16577">
        <ele>482</ele>
      </trkpt>
      <trkpt lat="44.55591" lon="5.1661">
        <ele>482</ele>
      </trkpt>
      <trkpt lat="44.55572" lon="5.16628">
        <ele>482</ele>
      </trkpt>
      <trkpt lat="44.5556" lon="5.16669">
        <ele>483</ele>
      </trkpt>
      <trkpt lat="44.55556" lon="5.16701">
        <ele>486</ele>
      </trkpt>
      <trkpt lat="44.55556" lon="5.16756">
        <ele>490</ele>
      </trkpt>
      <trkpt lat="44.5555" lon="5.16808">
        <ele>490</ele>
      </trkpt>
      <trkpt lat="44.55514" lon="5.16932">
        <ele>483</ele>
      </trkpt>
      <trkpt lat="44.55445" lon="5.17185">
        <ele>482</ele>
      </trkpt>
      <trkpt lat="44.55434" lon="5.17209">
        <ele>484</ele>
      </trkpt>
      <trkpt lat="44.55413" lon="5.17246">
        <ele>487</ele>
      </trkpt>
      <trkpt lat="44.5525" lon="5.17501">
        <ele>497</ele>
      </trkpt>
      <trkpt lat="44.55235" lon="5.1753">
        <ele>499</ele>
      </trkpt>
      <trkpt lat="44.55167" lon="5.17679">
        <ele>513</ele>
      </trkpt>
      <trkpt lat="44.55157" lon="5.17705">
        <ele>514</ele>
      </trkpt>
      <trkpt lat="44.55149" lon="5.17751">
        <ele>516</ele>
      </trkpt>
      <trkpt lat="44.55135" lon="5.17796">
        <ele>523</ele>
      </trkpt>
      <trkpt lat="44.55131" lon="5.17815">
        <ele>527</ele>
      </trkpt>
      <trkpt lat="44.5513" lon="5.17859">
        <ele>537</ele>
      </trkpt>
      <trkpt lat="44.55121" lon="5.17886">
        <ele>537</ele>
      </trkpt>
      <trkpt lat="44.55102" lon="5.17924">
        <ele>538</ele>
      </trkpt>
      <trkpt lat="44.55088" lon="5.17974">
        <ele>527</ele>
      </trkpt>
      <trkpt lat="44.55069" lon="5.18108">
        <ele>535</ele>
      </trkpt>
      <trkpt lat="44.55055" lon="5.18164">
        <ele>535</ele>
      </trkpt>
      <trkpt lat="44.55055" lon="5.18184">
        <ele>534</ele>
      </trkpt>
      <trkpt lat="44.55062" lon="5.18203">
        <ele>532</ele>
      </trkpt>
      <trkpt lat="44.55093" lon="5.18253">
        <ele>528</ele>
      </trkpt>
      <trkpt lat="44.55106" lon="5.18286">
        <ele>524</ele>
      </trkpt>
      <trkpt lat="44.55109" lon="5.1832">
        <ele>521</ele>
      </trkpt>
      <trkpt lat="44.55109" lon="5.18334">
        <ele>522</ele>
      </trkpt>
      <trkpt lat="44.55103" lon="5.18358">
        <ele>525</ele>
      </trkpt>
      <trkpt lat="44.55057" lon="5.18445">
        <ele>536</ele>
      </trkpt>
      <trkpt lat="44.55012" lon="5.18506">
        <ele>539</ele>
      </trkpt>
      <trkpt lat="44.54988" lon="5.18566">
        <ele>552</ele>
      </trkpt>
      <trkpt lat="44.54973" lon="5.18586">
        <ele>546</ele>
      </trkpt>
      <trkpt lat="44.54959" lon="5.186">
        <ele>541</ele>
      </trkpt>
      <trkpt lat="44.54908" lon="5.18638">
        <ele>539</ele>
      </trkpt>
      <trkpt lat="44.5486" lon="5.1867">
        <ele>538</ele>
      </trkpt>
      <trkpt lat="44.54823" lon="5.18714">
        <ele>546</ele>
      </trkpt>
      <trkpt lat="44.54805" lon="5.18732">
        <ele>546</ele>
      </trkpt>
      <trkpt lat="44.54793" lon="5.18736">
        <ele>546</ele>
      </trkpt>
      <trkpt lat="44.54782" lon="5.18736">
        <ele>543</ele>
      </trkpt>
      <trkpt lat="44.54757" lon="5.18727">
        <ele>535</ele>
      </trkpt>
      <trkpt lat="44.54738" lon="5.18724">
        <ele>538</ele>
      </trkpt>
      <trkpt lat="44.54673" lon="5.18731">
        <ele>546</ele>
      </trkpt>
      <trkpt lat="44.54652" lon="5.18741">
        <ele>549</ele>
      </trkpt>
      <trkpt lat="44.54583" lon="5.18825">
        <ele>563</ele>
      </trkpt>
      <trkpt lat="44.54561" lon="5.18839">
        <ele>563</ele>
      </trkpt>
      <trkpt lat="44.54523" lon="5.18847">
        <ele>562</ele>
      </trkpt>
      <trkpt lat="44.54452" lon="5.18851">
        <ele>553</ele>
      </trkpt>
      <trkpt lat="44.54431" lon="5.18862">
        <ele>553</ele>
      </trkpt>
      <trkpt lat="44.54402" lon="5.18891">
        <ele>554</ele>
      </trkpt>
      <trkpt lat="44.54351" lon="5.18978">
        <ele>572</ele>
      </trkpt>
      <trkpt lat="44.54314" lon="5.19022">
        <ele>564</ele>
      </trkpt>
      <trkpt lat="44.54253" lon="5.19077">
        <ele>565</ele>
      </trkpt>
      <trkpt lat="44.5418" lon="5.1912">
        <ele>561</ele>
      </trkpt>
      <trkpt lat="44.54116" lon="5.19176">
        <ele>559</ele>
      </trkpt>
      <trkpt lat="44.54103" lon="5.19196">
        <ele>564</ele>
      </trkpt>
      <trkpt lat="44.54085" lon="5.19256">
        <ele>577</ele>
      </trkpt>
      <trkpt lat="44.54078" lon="5.19276">
        <ele>575</ele>
      </trkpt>
      <trkpt lat="44.54039" lon="5.19342">
        <ele>565</ele>
      </trkpt>
      <trkpt lat="44.54031" lon="5.19371">
        <ele>571</ele>
      </trkpt>
      <trkpt lat="44.54025" lon="5.19426">
        <ele>583</ele>
      </trkpt>
      <trkpt lat="44.54016" lon="5.19453">
        <ele>579</ele>
      </trkpt>
      <trkpt lat="44.54008" lon="5.1947">
        <ele>577</ele>
      </trkpt>
      <trkpt lat="44.53995" lon="5.1949">
        <ele>573</ele>
      </trkpt>
      <trkpt lat="44.53972" lon="5.19514">
        <ele>566</ele>
      </trkpt>
      <trkpt lat="44.5395" lon="5.19535">
        <ele>562</ele>
      </trkpt>
      <trkpt lat="44.53939" lon="5.19551">
        <ele>560</ele>
      </trkpt>
      <trkpt lat="44.5393" lon="5.19568">
        <ele>561</ele>
      </trkpt>
      <trkpt lat="44.53925" lon="5.19584">
        <ele>561</ele>
      </trkpt>
      <trkpt lat="44.53914" lon="5.19628">
        <ele>563</ele>
      </trkpt>
      <trkpt lat="44.53908" lon="5.19647">
        <ele>564</ele>
      </trkpt>
      <trkpt lat="44.53845" lon="5.19796">
        <ele>569</ele>
      </trkpt>
      <trkpt lat="44.53826" lon="5.19827">
        <ele>571</ele>
      </trkpt>
      <trkpt lat="44.53789" lon="5.1987">
        <ele>573</ele>
      </trkpt>
      <trkpt lat="44.53733" lon="5.19952">
        <ele>579</ele>
      </trkpt>
      <trkpt lat="44.53693" lon="5.20003">
        <ele>576</ele>
      </trkpt>
      <trkpt lat="44.53681" lon="5.20021">
        <ele>577</ele>
      </trkpt>
      <trkpt lat="44.53672" lon="5.20037">
        <ele>577</ele>
      </trkpt>
      <trkpt lat="44.53662" lon="5.20065">
        <ele>576</ele>
      </trkpt>
      <trkpt lat="44.53649" lon="5.2009">
        <ele>575</ele>
      </trkpt>
      <trkpt lat="44.53606" lon="5.20154">
        <ele>573</ele>
      </trkpt>
      <trkpt lat="44.53593" lon="5.20175">
        <ele>573</ele>
      </trkpt>
      <trkpt lat="44.53582" lon="5.20199">
        <ele>572</ele>
      </trkpt>
      <trkpt lat="44.5356" lon="5.20235">
        <ele>574</ele>
      </trkpt>
      <trkpt lat="44.53546" lon="5.20255">
        <ele>572</ele>
      </trkpt>
      <trkpt lat="44.53539" lon="5.20268">
        <ele>571</ele>
      </trkpt>
      <trkpt lat="44.53536" lon="5.20279">
        <ele>572</ele>
      </trkpt>
      <trkpt lat="44.53529" lon="5.20329">
        <ele>575</ele>
      </trkpt>
      <trkpt lat="44.53528" lon="5.20351">
        <ele>577</ele>
      </trkpt>
      <trkpt lat="44.5353" lon="5.20402">
        <ele>581</ele>
      </trkpt>
      <trkpt lat="44.53528" lon="5.20432">
        <ele>584</ele>
      </trkpt>
      <trkpt lat="44.53523" lon="5.2047">
        <ele>588</ele>
      </trkpt>
      <trkpt lat="44.53509" lon="5.20515">
        <ele>589</ele>
      </trkpt>
      <trkpt lat="44.53498" lon="5.20533">
        <ele>587</ele>
      </trkpt>
      <trkpt lat="44.53488" lon="5.20545">
        <ele>585</ele>
      </trkpt>
      <trkpt lat="44.53471" lon="5.20556">
        <ele>582</ele>
      </trkpt>
      <trkpt lat="44.53451" lon="5.20567">
        <ele>580</ele>
      </trkpt>
      <trkpt lat="44.53398" lon="5.20587">
        <ele>574</ele>
      </trkpt>
      <trkpt lat="44.53382" lon="5.20596">
        <ele>576</ele>
      </trkpt>
      <trkpt lat="44.53374" lon="5.20603">
        <ele>576</ele>
      </trkpt>
      <trkpt lat="44.53363" lon="5.20619">
        <ele>578</ele>
      </trkpt>
      <trkpt lat="44.53352" lon="5.20641">
        <ele>577</ele>
      </trkpt>
      <trkpt lat="44.53346" lon="5.20666">
        <ele>576</ele>
      </trkpt>
      <trkpt lat="44.53323" lon="5.20829">
        <ele>583</ele>
      </trkpt>
      <trkpt lat="44.53313" lon="5.20873">
        <ele>582</ele>
      </trkpt>
      <trkpt lat="44.5329" lon="5.20944">
        <ele>580</ele>
      </trkpt>
      <trkpt lat="44.53285" lon="5.2097">
        <ele>580</ele>
      </trkpt>
      <trkpt lat="44.53286" lon="5.20988">
        <ele>580</ele>
      </trkpt>
      <trkpt lat="44.53291" lon="5.2101">
        <ele>581</ele>
      </trkpt>
      <trkpt lat="44.53327" lon="5.21114">
        <ele>586</ele>
      </trkpt>
      <trkpt lat="44.53351" lon="5.21177">
        <ele>585</ele>
      </trkpt>
      <trkpt lat="44.5336" lon="5.21192">
        <ele>586</ele>
      </trkpt>
      <trkpt lat="44.53392" lon="5.21227">
        <ele>587</ele>
      </trkpt>
      <trkpt lat="44.53414" lon="5.21254">
        <ele>588</ele>
      </trkpt>
      <trkpt lat="44.5343" lon="5.21278">
        <ele>589</ele>
      </trkpt>
      <trkpt lat="44.53453" lon="5.21324">
        <ele>591</ele>
      </trkpt>
      <trkpt lat="44.53461" lon="5.2135">
        <ele>591</ele>
      </trkpt>
      <trkpt lat="44.53463" lon="5.2136">
        <ele>592</ele>
      </trkpt>
      <trkpt lat="44.5346" lon="5.21388">
        <ele>592</ele>
      </trkpt>
      <trkpt lat="44.53455" lon="5.21399">
        <ele>591</ele>
      </trkpt>
      <trkpt lat="44.53381" lon="5.21516">
        <ele>589</ele>
      </trkpt>
      <trkpt lat="44.53363" lon="5.21533">
        <ele>589</ele>
      </trkpt>
      <trkpt lat="44.53152" lon="5.2168">
        <ele>590</ele>
      </trkpt>
      <trkpt lat="44.52819" lon="5.21846">
        <ele>592</ele>
      </trkpt>
      <trkpt lat="44.52772" lon="5.21871">
        <ele>591</ele>
      </trkpt>
      <trkpt lat="44.5275" lon="5.21881">
        <ele>590</ele>
      </trkpt>
      <trkpt lat="44.52735" lon="5.21884">
        <ele>590</ele>
      </trkpt>
      <trkpt lat="44.52716" lon="5.21883">
        <ele>590</ele>
      </trkpt>
      <trkpt lat="44.52473" lon="5.21824">
        <ele>592</ele>
      </trkpt>
      <trkpt lat="44.52408" lon="5.21821">
        <ele>594</ele>
      </trkpt>
      <trkpt lat="44.52383" lon="5.21815">
        <ele>595</ele>
      </trkpt>
      <trkpt lat="44.52369" lon="5.2181">
        <ele>595</ele>
      </trkpt>
      <trkpt lat="44.5235" lon="5.21798">
        <ele>595</ele>
      </trkpt>
      <trkpt lat="44.52297" lon="5.21755">
        <ele>594</ele>
      </trkpt>
      <trkpt lat="44.52271" lon="5.21745">
        <ele>595</ele>
      </trkpt>
      <trkpt lat="44.52245" lon="5.21751">
        <ele>596</ele>
      </trkpt>
      <trkpt lat="44.52215" lon="5.21763">
        <ele>598</ele>
      </trkpt>
      <trkpt lat="44.52202" lon="5.21765">
        <ele>598</ele>
      </trkpt>
      <trkpt lat="44.52182" lon="5.21761">
        <ele>599</ele>
      </trkpt>
      <trkpt lat="44.52025" lon="5.2169">
        <ele>602</ele>
      </trkpt>
      <trkpt lat="44.51976" lon="5.21674">
        <ele>607</ele>
      </trkpt>
      <trkpt lat="44.51954" lon="5.21656">
        <ele>609</ele>
      </trkpt>
      <trkpt lat="44.51934" lon="5.21634">
        <ele>611</ele>
      </trkpt>
      <trkpt lat="44.5192" lon="5.21623">
        <ele>611</ele>
      </trkpt>
      <trkpt lat="44.51866" lon="5.21584">
        <ele>611</ele>
      </trkpt>
      <trkpt lat="44.51849" lon="5.21576">
        <ele>611</ele>
      </trkpt>
      <trkpt lat="44.51776" lon="5.21556">
        <ele>612</ele>
      </trkpt>
      <trkpt lat="44.51758" lon="5.21555">
        <ele>613</ele>
      </trkpt>
      <trkpt lat="44.51694" lon="5.2156">
        <ele>615</ele>
      </trkpt>
      <trkpt lat="44.51672" lon="5.21591">
        <ele>621</ele>
      </trkpt>
      <trkpt lat="44.51653" lon="5.2161">
        <ele>621</ele>
      </trkpt>
      <trkpt lat="44.51624" lon="5.21648">
        <ele>620</ele>
      </trkpt>
      <trkpt lat="44.51601" lon="5.21668">
        <ele>621</ele>
      </trkpt>
      <trkpt lat="44.51577" lon="5.21706">
        <ele>622</ele>
      </trkpt>
      <trkpt lat="44.5155" lon="5.21807">
        <ele>629</ele>
      </trkpt>
      <trkpt lat="44.51538" lon="5.2186">
        <ele>631</ele>
      </trkpt>
      <trkpt lat="44.51519" lon="5.21894">
        <ele>634</ele>
      </trkpt>
      <trkpt lat="44.51477" lon="5.21982">
        <ele>643</ele>
      </trkpt>
      <trkpt lat="44.51436" lon="5.22096">
        <ele>650</ele>
      </trkpt>
      <trkpt lat="44.51428" lon="5.22146">
        <ele>649</ele>
      </trkpt>
      <trkpt lat="44.51412" lon="5.22218">
        <ele>655</ele>
      </trkpt>
      <trkpt lat="44.51403" lon="5.22247">
        <ele>653</ele>
      </trkpt>
      <trkpt lat="44.51393" lon="5.22275">
        <ele>651</ele>
      </trkpt>
      <trkpt lat="44.51339" lon="5.22377">
        <ele>657</ele>
      </trkpt>
      <trkpt lat="44.51327" lon="5.22405">
        <ele>658</ele>
      </trkpt>
      <trkpt lat="44.51319" lon="5.22429">
        <ele>659</ele>
      </trkpt>
      <trkpt lat="44.5131" lon="5.22479">
        <ele>666</ele>
      </trkpt>
      <trkpt lat="44.51298" lon="5.22539">
        <ele>672</ele>
      </trkpt>
      <trkpt lat="44.51296" lon="5.22549">
        <ele>674</ele>
      </trkpt>
      <trkpt lat="44.51299" lon="5.22594">
        <ele>680</ele>
      </trkpt>
      <trkpt lat="44.51298" lon="5.22612">
        <ele>682</ele>
      </trkpt>
      <trkpt lat="44.51297" lon="5.22632">
        <ele>685</ele>
      </trkpt>
      <trkpt lat="44.51293" lon="5.22654">
        <ele>688</ele>
      </trkpt>
      <trkpt lat="44.51288" lon="5.22673">
        <ele>684</ele>
      </trkpt>
      <trkpt lat="44.51261" lon="5.22719">
        <ele>672</ele>
      </trkpt>
      <trkpt lat="44.51253" lon="5.22735">
        <ele>673</ele>
      </trkpt>
      <trkpt lat="44.51248" lon="5.22748">
        <ele>674</ele>
      </trkpt>
      <trkpt lat="44.51246" lon="5.22772">
        <ele>675</ele>
      </trkpt>
      <trkpt lat="44.51248" lon="5.2279">
        <ele>675</ele>
      </trkpt>
      <trkpt lat="44.51252" lon="5.22806">
        <ele>675</ele>
      </trkpt>
      <trkpt lat="44.51301" lon="5.22893">
        <ele>675</ele>
      </trkpt>
      <trkpt lat="44.5131" lon="5.22913">
        <ele>676</ele>
      </trkpt>
      <trkpt lat="44.51315" lon="5.22927">
        <ele>676</ele>
      </trkpt>
      <trkpt lat="44.51316" lon="5.22941">
        <ele>677</ele>
      </trkpt>
      <trkpt lat="44.51313" lon="5.2296">
        <ele>680</ele>
      </trkpt>
      <trkpt lat="44.51308" lon="5.22971">
        <ele>682</ele>
      </trkpt>
      <trkpt lat="44.513" lon="5.22981">
        <ele>684</ele>
      </trkpt>
      <trkpt lat="44.51275" lon="5.23003">
        <ele>683</ele>
      </trkpt>
      <trkpt lat="44.51258" lon="5.23024">
        <ele>683</ele>
      </trkpt>
      <trkpt lat="44.51232" lon="5.23065">
        <ele>686</ele>
      </trkpt>
      <trkpt lat="44.51223" lon="5.23076">
        <ele>686</ele>
      </trkpt>
      <trkpt lat="44.51195" lon="5.23095">
        <ele>685</ele>
      </trkpt>
      <trkpt lat="44.51193" lon="5.23105">
        <ele>686</ele>
      </trkpt>
      <trkpt lat="44.51197" lon="5.23112">
        <ele>687</ele>
      </trkpt>
      <trkpt lat="44.51201" lon="5.23113">
        <ele>688</ele>
      </trkpt>
      <trkpt lat="44.51214" lon="5.23108">
        <ele>690</ele>
      </trkpt>
      <trkpt lat="44.51269" lon="5.23053">
        <ele>695</ele>
      </trkpt>
      <trkpt lat="44.51285" lon="5.23042">
        <ele>697</ele>
      </trkpt>
      <trkpt lat="44.51298" lon="5.23036">
        <ele>698</ele>
      </trkpt>
      <trkpt lat="44.51318" lon="5.2303">
        <ele>697</ele>
      </trkpt>
      <trkpt lat="44.51419" lon="5.23014">
        <ele>701</ele>
      </trkpt>
      <trkpt lat="44.51423" lon="5.23019">
        <ele>701</ele>
      </trkpt>
      <trkpt lat="44.51424" lon="5.23026">
        <ele>701</ele>
      </trkpt>
      <trkpt lat="44.51422" lon="5.23033">
        <ele>701</ele>
      </trkpt>
      <trkpt lat="44.51412" lon="5.2304">
        <ele>701</ele>
      </trkpt>
      <trkpt lat="44.5137" lon="5.23042">
        <ele>702</ele>
      </trkpt>
      <trkpt lat="44.51329" lon="5.23055">
        <ele>702</ele>
      </trkpt>
      <trkpt lat="44.51318" lon="5.23062">
        <ele>704</ele>
      </trkpt>
      <trkpt lat="44.51308" lon="5.23072">
        <ele>706</ele>
      </trkpt>
      <trkpt lat="44.51302" lon="5.23082">
        <ele>707</ele>
      </trkpt>
      <trkpt lat="44.51298" lon="5.23096">
        <ele>709</ele>
      </trkpt>
      <trkpt lat="44.51298" lon="5.23108">
        <ele>711</ele>
      </trkpt>
      <trkpt lat="44.51301" lon="5.23155">
        <ele>718</ele>
      </trkpt>
      <trkpt lat="44.51301" lon="5.23187">
        <ele>720</ele>
      </trkpt>
      <trkpt lat="44.51298" lon="5.23223">
        <ele>722</ele>
      </trkpt>
      <trkpt lat="44.51273" lon="5.23316">
        <ele>724</ele>
      </trkpt>
      <trkpt lat="44.51266" lon="5.23336">
        <ele>725</ele>
      </trkpt>
      <trkpt lat="44.51222" lon="5.23415">
        <ele>728</ele>
      </trkpt>
      <trkpt lat="44.51211" lon="5.23427">
        <ele>728</ele>
      </trkpt>
      <trkpt lat="44.51174" lon="5.23449">
        <ele>728</ele>
      </trkpt>
      <trkpt lat="44.51164" lon="5.23459">
        <ele>731</ele>
      </trkpt>
      <trkpt lat="44.51158" lon="5.23468">
        <ele>733</ele>
      </trkpt>
      <trkpt lat="44.51155" lon="5.23475">
        <ele>734</ele>
      </trkpt>
      <trkpt lat="44.51148" lon="5.23509">
        <ele>739</ele>
      </trkpt>
      <trkpt lat="44.51142" lon="5.23526">
        <ele>740</ele>
      </trkpt>
      <trkpt lat="44.51134" lon="5.23543">
        <ele>742</ele>
      </trkpt>
      <trkpt lat="44.5112" lon="5.23562">
        <ele>744</ele>
      </trkpt>
      <trkpt lat="44.51112" lon="5.23571">
        <ele>745</ele>
      </trkpt>
      <trkpt lat="44.51099" lon="5.23582">
        <ele>747</ele>
      </trkpt>
      <trkpt lat="44.51079" lon="5.23591">
        <ele>750</ele>
      </trkpt>
      <trkpt lat="44.51058" lon="5.23605">
        <ele>750</ele>
      </trkpt>
      <trkpt lat="44.51008" lon="5.23652">
        <ele>750</ele>
      </trkpt>
      <trkpt lat="44.50946" lon="5.23691">
        <ele>747</ele>
      </trkpt>
      <trkpt lat="44.50864" lon="5.23749">
        <ele>758</ele>
      </trkpt>
      <trkpt lat="44.50849" lon="5.23764">
        <ele>759</ele>
      </trkpt>
      <trkpt lat="44.50819" lon="5.23803">
        <ele>760</ele>
      </trkpt>
      <trkpt lat="44.50799" lon="5.2382">
        <ele>762</ele>
      </trkpt>
      <trkpt lat="44.50784" lon="5.23841">
        <ele>764</ele>
      </trkpt>
      <trkpt lat="44.50781" lon="5.23853">
        <ele>766</ele>
      </trkpt>
      <trkpt lat="44.50781" lon="5.23864">
        <ele>767</ele>
      </trkpt>
      <trkpt lat="44.50789" lon="5.23931">
        <ele>775</ele>
      </trkpt>
      <trkpt lat="44.50788" lon="5.23945">
        <ele>774</ele>
      </trkpt>
      <trkpt lat="44.50782" lon="5.23968">
        <ele>772</ele>
      </trkpt>
      <trkpt lat="44.50762" lon="5.24003">
        <ele>768</ele>
      </trkpt>
      <trkpt lat="44.50757" lon="5.24017">
        <ele>770</ele>
      </trkpt>
      <trkpt lat="44.50755" lon="5.24028">
        <ele>771</ele>
      </trkpt>
      <trkpt lat="44.50764" lon="5.24179">
        <ele>788</ele>
      </trkpt>
      <trkpt lat="44.50763" lon="5.24195">
        <ele>789</ele>
      </trkpt>
      <trkpt lat="44.50752" lon="5.24271">
        <ele>793</ele>
      </trkpt>
      <trkpt lat="44.50742" lon="5.24319">
        <ele>798</ele>
      </trkpt>
      <trkpt lat="44.50739" lon="5.24328">
        <ele>799</ele>
      </trkpt>
      <trkpt lat="44.50738" lon="5.2434">
        <ele>799</ele>
      </trkpt>
      <trkpt lat="44.5074" lon="5.24349">
        <ele>800</ele>
      </trkpt>
      <trkpt lat="44.50744" lon="5.24353">
        <ele>800</ele>
      </trkpt>
      <trkpt lat="44.50752" lon="5.24352">
        <ele>801</ele>
      </trkpt>
      <trkpt lat="44.50758" lon="5.24337">
        <ele>802</ele>
      </trkpt>
      <trkpt lat="44.50772" lon="5.24272">
        <ele>808</ele>
      </trkpt>
      <trkpt lat="44.50788" lon="5.24217">
        <ele>808</ele>
      </trkpt>
      <trkpt lat="44.50791" lon="5.24162">
        <ele>804</ele>
      </trkpt>
      <trkpt lat="44.508" lon="5.24085">
        <ele>800</ele>
      </trkpt>
      <trkpt lat="44.50802" lon="5.24079">
        <ele>801</ele>
      </trkpt>
      <trkpt lat="44.50807" lon="5.24077">
        <ele>802</ele>
      </trkpt>
      <trkpt lat="44.50811" lon="5.24078">
        <ele>803</ele>
      </trkpt>
      <trkpt lat="44.50815" lon="5.24085">
        <ele>804</ele>
      </trkpt>
      <trkpt lat="44.50816" lon="5.24091">
        <ele>805</ele>
      </trkpt>
      <trkpt lat="44.50811" lon="5.2411">
        <ele>808</ele>
      </trkpt>
      <trkpt lat="44.50806" lon="5.24124">
        <ele>811</ele>
      </trkpt>
      <trkpt lat="44.50803" lon="5.24139">
        <ele>814</ele>
      </trkpt>
      <trkpt lat="44.50803" lon="5.24159">
        <ele>818</ele>
      </trkpt>
      <trkpt lat="44.50806" lon="5.24229">
        <ele>826</ele>
      </trkpt>
      <trkpt lat="44.50803" lon="5.24261">
        <ele>827</ele>
      </trkpt>
      <trkpt lat="44.50796" lon="5.24296">
        <ele>829</ele>
      </trkpt>
      <trkpt lat="44.50793" lon="5.24376">
        <ele>835</ele>
      </trkpt>
      <trkpt lat="44.50779" lon="5.24464">
        <ele>832</ele>
      </trkpt>
      <trkpt lat="44.50775" lon="5.24499">
        <ele>833</ele>
      </trkpt>
      <trkpt lat="44.50772" lon="5.24575">
        <ele>834</ele>
      </trkpt>
      <trkpt lat="44.5077" lon="5.24648">
        <ele>837</ele>
      </trkpt>
      <trkpt lat="44.50772" lon="5.24729">
        <ele>835</ele>
      </trkpt>
      <trkpt lat="44.50779" lon="5.24814">
        <ele>826</ele>
      </trkpt>
      <trkpt lat="44.50781" lon="5.24838">
        <ele>824</ele>
      </trkpt>
      <trkpt lat="44.50788" lon="5.24871">
        <ele>822</ele>
      </trkpt>
      <trkpt lat="44.50791" lon="5.24945">
        <ele>826</ele>
      </trkpt>
      <trkpt lat="44.50786" lon="5.24977">
        <ele>825</ele>
      </trkpt>
      <trkpt lat="44.50775" lon="5.24991">
        <ele>825</ele>
      </trkpt>
      <trkpt lat="44.50759" lon="5.25003">
        <ele>825</ele>
      </trkpt>
      <trkpt lat="44.50751" lon="5.25015">
        <ele>825</ele>
      </trkpt>
      <trkpt lat="44.50747" lon="5.25029">
        <ele>825</ele>
      </trkpt>
      <trkpt lat="44.50744" lon="5.25054">
        <ele>823</ele>
      </trkpt>
      <trkpt lat="44.50717" lon="5.2515">
        <ele>814</ele>
      </trkpt>
      <trkpt lat="44.50698" lon="5.25193">
        <ele>818</ele>
      </trkpt>
      <trkpt lat="44.50584" lon="5.25343">
        <ele>809</ele>
      </trkpt>
      <trkpt lat="44.50538" lon="5.25409">
        <ele>811</ele>
      </trkpt>
      <trkpt lat="44.50515" lon="5.25447">
        <ele>807</ele>
      </trkpt>
      <trkpt lat="44.50506" lon="5.25474">
        <ele>805</ele>
      </trkpt>
      <trkpt lat="44.505" lon="5.25499">
        <ele>804</ele>
      </trkpt>
      <trkpt lat="44.50496" lon="5.25538">
        <ele>803</ele>
      </trkpt>
      <trkpt lat="44.50496" lon="5.25561">
        <ele>802</ele>
      </trkpt>
      <trkpt lat="44.50498" lon="5.25585">
        <ele>804</ele>
      </trkpt>
      <trkpt lat="44.50506" lon="5.25616">
        <ele>806</ele>
      </trkpt>
      <trkpt lat="44.50514" lon="5.25631">
        <ele>806</ele>
      </trkpt>
      <trkpt lat="44.50535" lon="5.2565">
        <ele>806</ele>
      </trkpt>
      <trkpt lat="44.5055" lon="5.25655">
        <ele>803</ele>
      </trkpt>
      <trkpt lat="44.50581" lon="5.25662">
        <ele>796</ele>
      </trkpt>
      <trkpt lat="44.50595" lon="5.25669">
        <ele>796</ele>
      </trkpt>
      <trkpt lat="44.50607" lon="5.25677">
        <ele>797</ele>
      </trkpt>
      <trkpt lat="44.50634" lon="5.25706">
        <ele>798</ele>
      </trkpt>
      <trkpt lat="44.50654" lon="5.25734">
        <ele>798</ele>
      </trkpt>
      <trkpt lat="44.50664" lon="5.25749">
        <ele>798</ele>
      </trkpt>
      <trkpt lat="44.50673" lon="5.25773">
        <ele>798</ele>
      </trkpt>
      <trkpt lat="44.50676" lon="5.25785">
        <ele>798</ele>
      </trkpt>
      <trkpt lat="44.5068" lon="5.2581">
        <ele>798</ele>
      </trkpt>
      <trkpt lat="44.50682" lon="5.25836">
        <ele>797</ele>
      </trkpt>
      <trkpt lat="44.50684" lon="5.25879">
        <ele>794</ele>
      </trkpt>
      <trkpt lat="44.50695" lon="5.25965">
        <ele>794</ele>
      </trkpt>
      <trkpt lat="44.50707" lon="5.26022">
        <ele>793</ele>
      </trkpt>
      <trkpt lat="44.50717" lon="5.26054">
        <ele>791</ele>
      </trkpt>
      <trkpt lat="44.50723" lon="5.26105">
        <ele>789</ele>
      </trkpt>
      <trkpt lat="44.50727" lon="5.26115">
        <ele>789</ele>
      </trkpt>
      <trkpt lat="44.50729" lon="5.26129">
        <ele>789</ele>
      </trkpt>
      <trkpt lat="44.50728" lon="5.26167">
        <ele>788</ele>
      </trkpt>
      <trkpt lat="44.50723" lon="5.26201">
        <ele>791</ele>
      </trkpt>
      <trkpt lat="44.50719" lon="5.26218">
        <ele>793</ele>
      </trkpt>
      <trkpt lat="44.50721" lon="5.26228">
        <ele>792</ele>
      </trkpt>
      <trkpt lat="44.5073" lon="5.26238">
        <ele>789</ele>
      </trkpt>
      <trkpt lat="44.50741" lon="5.26247">
        <ele>787</ele>
      </trkpt>
      <trkpt lat="44.5076" lon="5.26272">
        <ele>783</ele>
      </trkpt>
      <trkpt lat="44.50774" lon="5.26299">
        <ele>780</ele>
      </trkpt>
      <trkpt lat="44.50791" lon="5.26341">
        <ele>783</ele>
      </trkpt>
      <trkpt lat="44.50801" lon="5.2638">
        <ele>781</ele>
      </trkpt>
      <trkpt lat="44.50806" lon="5.26451">
        <ele>777</ele>
      </trkpt>
      <trkpt lat="44.50815" lon="5.26486">
        <ele>778</ele>
      </trkpt>
      <trkpt lat="44.50819" lon="5.26536">
        <ele>779</ele>
      </trkpt>
      <trkpt lat="44.50819" lon="5.26553">
        <ele>779</ele>
      </trkpt>
      <trkpt lat="44.50817" lon="5.26576">
        <ele>779</ele>
      </trkpt>
      <trkpt lat="44.50805" lon="5.26617">
        <ele>778</ele>
      </trkpt>
      <trkpt lat="44.50798" lon="5.26639">
        <ele>781</ele>
      </trkpt>
      <trkpt lat="44.50794" lon="5.26645">
        <ele>782</ele>
      </trkpt>
      <trkpt lat="44.50789" lon="5.26666">
        <ele>784</ele>
      </trkpt>
      <trkpt lat="44.50772" lon="5.26709">
        <ele>783</ele>
      </trkpt>
      <trkpt lat="44.50757" lon="5.26754">
        <ele>783</ele>
      </trkpt>
      <trkpt lat="44.50753" lon="5.26788">
        <ele>782</ele>
      </trkpt>
      <trkpt lat="44.50753" lon="5.2683">
        <ele>780</ele>
      </trkpt>
      <trkpt lat="44.50755" lon="5.2685">
        <ele>781</ele>
      </trkpt>
      <trkpt lat="44.50766" lon="5.26879">
        <ele>782</ele>
      </trkpt>
      <trkpt lat="44.5077" lon="5.26885">
        <ele>782</ele>
      </trkpt>
      <trkpt lat="44.50783" lon="5.26892">
        <ele>783</ele>
      </trkpt>
      <trkpt lat="44.50789" lon="5.26897">
        <ele>783</ele>
      </trkpt>
      <trkpt lat="44.50819" lon="5.26963">
        <ele>786</ele>
      </trkpt>
      <trkpt lat="44.50882" lon="5.27114">
        <ele>791</ele>
      </trkpt>
      <trkpt lat="44.50919" lon="5.2721">
        <ele>802</ele>
      </trkpt>
      <trkpt lat="44.50916" lon="5.27246">
        <ele>804</ele>
      </trkpt>
      <trkpt lat="44.50907" lon="5.27286">
        <ele>807</ele>
      </trkpt>
      <trkpt lat="44.50914" lon="5.27328">
        <ele>810</ele>
      </trkpt>
      <trkpt lat="44.50915" lon="5.27365">
        <ele>811</ele>
      </trkpt>
      <trkpt lat="44.50914" lon="5.2741">
        <ele>812</ele>
      </trkpt>
      <trkpt lat="44.50914" lon="5.27461">
        <ele>813</ele>
      </trkpt>
      <trkpt lat="44.50918" lon="5.27512">
        <ele>815</ele>
      </trkpt>
      <trkpt lat="44.50932" lon="5.27551">
        <ele>821</ele>
      </trkpt>
      <trkpt lat="44.50946" lon="5.27583">
        <ele>822</ele>
      </trkpt>
      <trkpt lat="44.50985" lon="5.27637">
        <ele>824</ele>
      </trkpt>
      <trkpt lat="44.50991" lon="5.2765">
        <ele>825</ele>
      </trkpt>
      <trkpt lat="44.50993" lon="5.27663">
        <ele>827</ele>
      </trkpt>
      <trkpt lat="44.50991" lon="5.27675">
        <ele>828</ele>
      </trkpt>
      <trkpt lat="44.50984" lon="5.27688">
        <ele>829</ele>
      </trkpt>
      <trkpt lat="44.50943" lon="5.27753">
        <ele>832</ele>
      </trkpt>
      <trkpt lat="44.50926" lon="5.27789">
        <ele>834</ele>
      </trkpt>
      <trkpt lat="44.50922" lon="5.27832">
        <ele>837</ele>
      </trkpt>
      <trkpt lat="44.50926" lon="5.27878">
        <ele>837</ele>
      </trkpt>
      <trkpt lat="44.50939" lon="5.27923">
        <ele>841</ele>
      </trkpt>
      <trkpt lat="44.50972" lon="5.28009">
        <ele>845</ele>
      </trkpt>
      <trkpt lat="44.50975" lon="5.28031">
        <ele>845</ele>
      </trkpt>
      <trkpt lat="44.50971" lon="5.28066">
        <ele>844</ele>
      </trkpt>
      <trkpt lat="44.50969" lon="5.28093">
        <ele>845</ele>
      </trkpt>
      <trkpt lat="44.50974" lon="5.28119">
        <ele>846</ele>
      </trkpt>
      <trkpt lat="44.5098" lon="5.28138">
        <ele>847</ele>
      </trkpt>
      <trkpt lat="44.50985" lon="5.28164">
        <ele>848</ele>
      </trkpt>
      <trkpt lat="44.5099" lon="5.28194">
        <ele>849</ele>
      </trkpt>
      <trkpt lat="44.50997" lon="5.28214">
        <ele>850</ele>
      </trkpt>
      <trkpt lat="44.51012" lon="5.28244">
        <ele>851</ele>
      </trkpt>
      <trkpt lat="44.51068" lon="5.28328">
        <ele>855</ele>
      </trkpt>
      <trkpt lat="44.51079" lon="5.28371">
        <ele>858</ele>
      </trkpt>
      <trkpt lat="44.51073" lon="5.28421">
        <ele>858</ele>
      </trkpt>
      <trkpt lat="44.51049" lon="5.28462">
        <ele>858</ele>
      </trkpt>
      <trkpt lat="44.50984" lon="5.28518">
        <ele>864</ele>
      </trkpt>
      <trkpt lat="44.5096" lon="5.28562">
        <ele>863</ele>
      </trkpt>
      <trkpt lat="44.50956" lon="5.28611">
        <ele>864</ele>
      </trkpt>
      <trkpt lat="44.50954" lon="5.28677">
        <ele>862</ele>
      </trkpt>
      <trkpt lat="44.50947" lon="5.28735">
        <ele>861</ele>
      </trkpt>
      <trkpt lat="44.50943" lon="5.28757">
        <ele>860</ele>
      </trkpt>
      <trkpt lat="44.50938" lon="5.28766">
        <ele>860</ele>
      </trkpt>
      <trkpt lat="44.50931" lon="5.28771">
        <ele>860</ele>
      </trkpt>
      <trkpt lat="44.5092" lon="5.28772">
        <ele>864</ele>
      </trkpt>
      <trkpt lat="44.50909" lon="5.2877">
        <ele>869</ele>
      </trkpt>
      <trkpt lat="44.50899" lon="5.28767">
        <ele>873</ele>
      </trkpt>
      <trkpt lat="44.50868" lon="5.28749">
        <ele>882</ele>
      </trkpt>
      <trkpt lat="44.50846" lon="5.28738">
        <ele>883</ele>
      </trkpt>
      <trkpt lat="44.50831" lon="5.28739">
        <ele>884</ele>
      </trkpt>
      <trkpt lat="44.50718" lon="5.28797">
        <ele>888</ele>
      </trkpt>
      <trkpt lat="44.50685" lon="5.28832">
        <ele>888</ele>
      </trkpt>
      <trkpt lat="44.50656" lon="5.28875">
        <ele>889</ele>
      </trkpt>
      <trkpt lat="44.50649" lon="5.28925">
        <ele>892</ele>
      </trkpt>
      <trkpt lat="44.50663" lon="5.28966">
        <ele>891</ele>
      </trkpt>
      <trkpt lat="44.50684" lon="5.29048">
        <ele>895</ele>
      </trkpt>
      <trkpt lat="44.50704" lon="5.2909">
        <ele>898</ele>
      </trkpt>
      <trkpt lat="44.50731" lon="5.29123">
        <ele>898</ele>
      </trkpt>
      <trkpt lat="44.50764" lon="5.29209">
        <ele>901</ele>
      </trkpt>
      <trkpt lat="44.50763" lon="5.29245">
        <ele>904</ele>
      </trkpt>
      <trkpt lat="44.50758" lon="5.29289">
        <ele>908</ele>
      </trkpt>
      <trkpt lat="44.50768" lon="5.29335">
        <ele>908</ele>
      </trkpt>
      <trkpt lat="44.50789" lon="5.29378">
        <ele>912</ele>
      </trkpt>
      <trkpt lat="44.50799" lon="5.2942">
        <ele>912</ele>
      </trkpt>
      <trkpt lat="44.5079" lon="5.29471">
        <ele>919</ele>
      </trkpt>
      <trkpt lat="44.50765" lon="5.2951">
        <ele>916</ele>
      </trkpt>
      <trkpt lat="44.50737" lon="5.2955">
        <ele>910</ele>
      </trkpt>
      <trkpt lat="44.50726" lon="5.29558">
        <ele>909</ele>
      </trkpt>
      <trkpt lat="44.50627" lon="5.29579">
        <ele>909</ele>
      </trkpt>
      <trkpt lat="44.50616" lon="5.29585">
        <ele>909</ele>
      </trkpt>
      <trkpt lat="44.50609" lon="5.29595">
        <ele>909</ele>
      </trkpt>
      <trkpt lat="44.50603" lon="5.29609">
        <ele>909</ele>
      </trkpt>
      <trkpt lat="44.506" lon="5.29647">
        <ele>908</ele>
      </trkpt>
      <trkpt lat="44.50603" lon="5.2967">
        <ele>908</ele>
      </trkpt>
      <trkpt lat="44.50637" lon="5.29836">
        <ele>908</ele>
      </trkpt>
      <trkpt lat="44.50639" lon="5.29861">
        <ele>910</ele>
      </trkpt>
      <trkpt lat="44.50642" lon="5.2988">
        <ele>912</ele>
      </trkpt>
      <trkpt lat="44.50629" lon="5.29942">
        <ele>913</ele>
      </trkpt>
      <trkpt lat="44.506" lon="5.30016">
        <ele>912</ele>
      </trkpt>
      <trkpt lat="44.5054" lon="5.30142">
        <ele>914</ele>
      </trkpt>
      <trkpt lat="44.50528" lon="5.30155">
        <ele>914</ele>
      </trkpt>
      <trkpt lat="44.50494" lon="5.30169">
        <ele>915</ele>
      </trkpt>
      <trkpt lat="44.50485" lon="5.30179">
        <ele>914</ele>
      </trkpt>
      <trkpt lat="44.50478" lon="5.30192">
        <ele>914</ele>
      </trkpt>
      <trkpt lat="44.50475" lon="5.30203">
        <ele>913</ele>
      </trkpt>
      <trkpt lat="44.5045" lon="5.30355">
        <ele>913</ele>
      </trkpt>
      <trkpt lat="44.5045" lon="5.30369">
        <ele>913</ele>
      </trkpt>
      <trkpt lat="44.50459" lon="5.30456">
        <ele>911</ele>
      </trkpt>
      <trkpt lat="44.50478" lon="5.3053">
        <ele>913</ele>
      </trkpt>
      <trkpt lat="44.50479" lon="5.30551">
        <ele>914</ele>
      </trkpt>
      <trkpt lat="44.50472" lon="5.3058">
        <ele>916</ele>
      </trkpt>
      <trkpt lat="44.50461" lon="5.30599">
        <ele>915</ele>
      </trkpt>
      <trkpt lat="44.50355" lon="5.30695">
        <ele>906</ele>
      </trkpt>
      <trkpt lat="44.50308" lon="5.30727">
        <ele>906</ele>
      </trkpt>
      <trkpt lat="44.50179" lon="5.30851">
        <ele>895</ele>
      </trkpt>
      <trkpt lat="44.5016" lon="5.30857">
        <ele>895</ele>
      </trkpt>
      <trkpt lat="44.50118" lon="5.30862">
        <ele>895</ele>
      </trkpt>
      <trkpt lat="44.50056" lon="5.30843">
        <ele>895</ele>
      </trkpt>
      <trkpt lat="44.50023" lon="5.30848">
        <ele>895</ele>
      </trkpt>
      <trkpt lat="44.49947" lon="5.30899">
        <ele>888</ele>
      </trkpt>
      <trkpt lat="44.49914" lon="5.30912">
        <ele>886</ele>
      </trkpt>
      <trkpt lat="44.49898" lon="5.30925">
        <ele>883</ele>
      </trkpt>
      <trkpt lat="44.49856" lon="5.30963">
        <ele>874</ele>
      </trkpt>
      <trkpt lat="44.49846" lon="5.30966">
        <ele>875</ele>
      </trkpt>
      <trkpt lat="44.49835" lon="5.30966">
        <ele>877</ele>
      </trkpt>
      <trkpt lat="44.4981" lon="5.30957">
        <ele>880</ele>
      </trkpt>
      <trkpt lat="44.49799" lon="5.30948">
        <ele>882</ele>
      </trkpt>
      <trkpt lat="44.49764" lon="5.30853">
        <ele>897</ele>
      </trkpt>
      <trkpt lat="44.49758" lon="5.30845">
        <ele>895</ele>
      </trkpt>
      <trkpt lat="44.49753" lon="5.30842">
        <ele>894</ele>
      </trkpt>
      <trkpt lat="44.49746" lon="5.30842">
        <ele>892</ele>
      </trkpt>
      <trkpt lat="44.49714" lon="5.30868">
        <ele>884</ele>
      </trkpt>
      <trkpt lat="44.49691" lon="5.30879">
        <ele>880</ele>
      </trkpt>
      <trkpt lat="44.49671" lon="5.30881">
        <ele>876</ele>
      </trkpt>
      <trkpt lat="44.4965" lon="5.30879">
        <ele>877</ele>
      </trkpt>
      <trkpt lat="44.49629" lon="5.30866">
        <ele>878</ele>
      </trkpt>
      <trkpt lat="44.4962" lon="5.30858">
        <ele>876</ele>
      </trkpt>
      <trkpt lat="44.4961" lon="5.30844">
        <ele>874</ele>
      </trkpt>
      <trkpt lat="44.49596" lon="5.30819">
        <ele>870</ele>
      </trkpt>
      <trkpt lat="44.49556" lon="5.30723">
        <ele>867</ele>
      </trkpt>
      <trkpt lat="44.4952" lon="5.3066">
        <ele>865</ele>
      </trkpt>
      <trkpt lat="44.4949" lon="5.30618">
        <ele>864</ele>
      </trkpt>
      <trkpt lat="44.49466" lon="5.30598">
        <ele>859</ele>
      </trkpt>
      <trkpt lat="44.49398" lon="5.30573">
        <ele>846</ele>
      </trkpt>
      <trkpt lat="44.49377" lon="5.30561">
        <ele>845</ele>
      </trkpt>
      <trkpt lat="44.49361" lon="5.30546">
        <ele>844</ele>
      </trkpt>
      <trkpt lat="44.49346" lon="5.30525">
        <ele>845</ele>
      </trkpt>
      <trkpt lat="44.49299" lon="5.30444">
        <ele>847</ele>
      </trkpt>
      <trkpt lat="44.49275" lon="5.30395">
        <ele>845</ele>
      </trkpt>
      <trkpt lat="44.49267" lon="5.30354">
        <ele>845</ele>
      </trkpt>
      <trkpt lat="44.49268" lon="5.30332">
        <ele>844</ele>
      </trkpt>
      <trkpt lat="44.49279" lon="5.30253">
        <ele>841</ele>
      </trkpt>
      <trkpt lat="44.49279" lon="5.30246">
        <ele>840</ele>
      </trkpt>
      <trkpt lat="44.49277" lon="5.30242">
        <ele>840</ele>
      </trkpt>
      <trkpt lat="44.49272" lon="5.30239">
        <ele>840</ele>
      </trkpt>
      <trkpt lat="44.49279" lon="5.30205">
        <ele>837</ele>
      </trkpt>
      <trkpt lat="44.49294" lon="5.30182">
        <ele>839</ele>
      </trkpt>
      <trkpt lat="44.49294" lon="5.3017">
        <ele>840</ele>
      </trkpt>
      <trkpt lat="44.49289" lon="5.30161">
        <ele>839</ele>
      </trkpt>
      <trkpt lat="44.4927" lon="5.30152">
        <ele>837</ele>
      </trkpt>
      <trkpt lat="44.49259" lon="5.30099">
        <ele>834</ele>
      </trkpt>
      <trkpt lat="44.49233" lon="5.30065">
        <ele>835</ele>
      </trkpt>
      <trkpt lat="44.49216" lon="5.30057">
        <ele>837</ele>
      </trkpt>
      <trkpt lat="44.49222" lon="5.30042">
        <ele>838</ele>
      </trkpt>
      <trkpt lat="44.49245" lon="5.30026">
        <ele>841</ele>
      </trkpt>
      <trkpt lat="44.49266" lon="5.30022">
        <ele>842</ele>
      </trkpt>
      <trkpt lat="44.49275" lon="5.30016">
        <ele>842</ele>
      </trkpt>
      <trkpt lat="44.49315" lon="5.29925">
        <ele>848</ele>
      </trkpt>
      <trkpt lat="44.49315" lon="5.29914">
        <ele>849</ele>
      </trkpt>
      <trkpt lat="44.4931" lon="5.29909">
        <ele>850</ele>
      </trkpt>
      <trkpt lat="44.4928" lon="5.29894">
        <ele>855</ele>
      </trkpt>
      <trkpt lat="44.49256" lon="5.29868">
        <ele>857</ele>
      </trkpt>
      <trkpt lat="44.49241" lon="5.29857">
        <ele>858</ele>
      </trkpt>
      <trkpt lat="44.49225" lon="5.29848">
        <ele>858</ele>
      </trkpt>
      <trkpt lat="44.49207" lon="5.29846">
        <ele>859</ele>
      </trkpt>
      <trkpt lat="44.49187" lon="5.29851">
        <ele>861</ele>
      </trkpt>
      <trkpt lat="44.49173" lon="5.29862">
        <ele>862</ele>
      </trkpt>
      <trkpt lat="44.49168" lon="5.29859">
        <ele>863</ele>
      </trkpt>
      <trkpt lat="44.49168" lon="5.2985">
        <ele>863</ele>
      </trkpt>
      <trkpt lat="44.49181" lon="5.29832">
        <ele>865</ele>
      </trkpt>
      <trkpt lat="44.49196" lon="5.29812">
        <ele>867</ele>
      </trkpt>
      <trkpt lat="44.49206" lon="5.29806">
        <ele>868</ele>
      </trkpt>
      <trkpt lat="44.4921" lon="5.29798">
        <ele>868</ele>
      </trkpt>
      <trkpt lat="44.49208" lon="5.29792">
        <ele>868</ele>
      </trkpt>
      <trkpt lat="44.49202" lon="5.2979">
        <ele>868</ele>
      </trkpt>
      <trkpt lat="44.49185" lon="5.29802">
        <ele>869</ele>
      </trkpt>
      <trkpt lat="44.49135" lon="5.29816">
        <ele>874</ele>
      </trkpt>
      <trkpt lat="44.4912" lon="5.29828">
        <ele>874</ele>
      </trkpt>
      <trkpt lat="44.49102" lon="5.29863">
        <ele>875</ele>
      </trkpt>
      <trkpt lat="44.49089" lon="5.29873">
        <ele>876</ele>
      </trkpt>
      <trkpt lat="44.49058" lon="5.29873">
        <ele>879</ele>
      </trkpt>
      <trkpt lat="44.49051" lon="5.29866">
        <ele>881</ele>
      </trkpt>
      <trkpt lat="44.48987" lon="5.29718">
        <ele>901</ele>
      </trkpt>
      <trkpt lat="44.48963" lon="5.297">
        <ele>898</ele>
      </trkpt>
      <trkpt lat="44.48956" lon="5.29688">
        <ele>897</ele>
      </trkpt>
      <trkpt lat="44.48939" lon="5.29637">
        <ele>903</ele>
      </trkpt>
      <trkpt lat="44.48937" lon="5.2961">
        <ele>905</ele>
      </trkpt>
      <trkpt lat="44.48915" lon="5.29553">
        <ele>909</ele>
      </trkpt>
      <trkpt lat="44.48891" lon="5.29533">
        <ele>909</ele>
      </trkpt>
      <trkpt lat="44.48872" lon="5.29504">
        <ele>908</ele>
      </trkpt>
      <trkpt lat="44.48825" lon="5.29462">
        <ele>910</ele>
      </trkpt>
      <trkpt lat="44.48794" lon="5.29406">
        <ele>914</ele>
      </trkpt>
      <trkpt lat="44.48777" lon="5.29363">
        <ele>918</ele>
      </trkpt>
      <trkpt lat="44.48749" lon="5.29342">
        <ele>917</ele>
      </trkpt>
      <trkpt lat="44.487" lon="5.29334">
        <ele>914</ele>
      </trkpt>
      <trkpt lat="44.48671" lon="5.29316">
        <ele>914</ele>
      </trkpt>
      <trkpt lat="44.4862" lon="5.29307">
        <ele>916</ele>
      </trkpt>
      <trkpt lat="44.48595" lon="5.29295">
        <ele>915</ele>
      </trkpt>
      <trkpt lat="44.4858" lon="5.29294">
        <ele>915</ele>
      </trkpt>
      <trkpt lat="44.48566" lon="5.29288">
        <ele>917</ele>
      </trkpt>
      <trkpt lat="44.48552" lon="5.29281">
        <ele>918</ele>
      </trkpt>
      <trkpt lat="44.48526" lon="5.29263">
        <ele>921</ele>
      </trkpt>
      <trkpt lat="44.48484" lon="5.29241">
        <ele>930</ele>
      </trkpt>
      <trkpt lat="44.48456" lon="5.29212">
        <ele>935</ele>
      </trkpt>
      <trkpt lat="44.48416" lon="5.2919">
        <ele>938</ele>
      </trkpt>
      <trkpt lat="44.48404" lon="5.29196">
        <ele>937</ele>
      </trkpt>
      <trkpt lat="44.48392" lon="5.29213">
        <ele>936</ele>
      </trkpt>
      <trkpt lat="44.48376" lon="5.29252">
        <ele>934</ele>
      </trkpt>
      <trkpt lat="44.48356" lon="5.29276">
        <ele>936</ele>
      </trkpt>
      <trkpt lat="44.48334" lon="5.2933">
        <ele>940</ele>
      </trkpt>
      <trkpt lat="44.48306" lon="5.29349">
        <ele>946</ele>
      </trkpt>
      <trkpt lat="44.48278" lon="5.2939">
        <ele>953</ele>
      </trkpt>
      <trkpt lat="44.48262" lon="5.2947">
        <ele>961</ele>
      </trkpt>
      <trkpt lat="44.4821" lon="5.29536">
        <ele>974</ele>
      </trkpt>
      <trkpt lat="44.48164" lon="5.29558">
        <ele>973</ele>
      </trkpt>
      <trkpt lat="44.48145" lon="5.2957">
        <ele>970</ele>
      </trkpt>
      <trkpt lat="44.4807" lon="5.29648">
        <ele>959</ele>
      </trkpt>
      <trkpt lat="44.4801" lon="5.29664">
        <ele>953</ele>
      </trkpt>
      <trkpt lat="44.47979" lon="5.29696">
        <ele>951</ele>
      </trkpt>
      <trkpt lat="44.47965" lon="5.29701">
        <ele>950</ele>
      </trkpt>
      <trkpt lat="44.47951" lon="5.29716">
        <ele>948</ele>
      </trkpt>
      <trkpt lat="44.47938" lon="5.29742">
        <ele>945</ele>
      </trkpt>
      <trkpt lat="44.47921" lon="5.29761">
        <ele>942</ele>
      </trkpt>
      <trkpt lat="44.47905" lon="5.29825">
        <ele>935</ele>
      </trkpt>
      <trkpt lat="44.47901" lon="5.29888">
        <ele>930</ele>
      </trkpt>
      <trkpt lat="44.47875" lon="5.2996">
        <ele>926</ele>
      </trkpt>
      <trkpt lat="44.47871" lon="5.29986">
        <ele>925</ele>
      </trkpt>
      <trkpt lat="44.4787" lon="5.29993">
        <ele>925</ele>
      </trkpt>
      <trkpt lat="44.47854" lon="5.30022">
        <ele>922</ele>
      </trkpt>
      <trkpt lat="44.47823" lon="5.30057">
        <ele>919</ele>
      </trkpt>
      <trkpt lat="44.47773" lon="5.30132">
        <ele>907</ele>
      </trkpt>
      <trkpt lat="44.47767" lon="5.30167">
        <ele>902</ele>
      </trkpt>
      <trkpt lat="44.47742" lon="5.30219">
        <ele>894</ele>
      </trkpt>
      <trkpt lat="44.47715" lon="5.30246">
        <ele>894</ele>
      </trkpt>
      <trkpt lat="44.47688" lon="5.30259">
        <ele>894</ele>
      </trkpt>
      <trkpt lat="44.47652" lon="5.30303">
        <ele>895</ele>
      </trkpt>
      <trkpt lat="44.4756" lon="5.30439">
        <ele>880</ele>
      </trkpt>
      <trkpt lat="44.47495" lon="5.30512">
        <ele>870</ele>
      </trkpt>
      <trkpt lat="44.47471" lon="5.30569">
        <ele>862</ele>
      </trkpt>
      <trkpt lat="44.4745" lon="5.30591">
        <ele>864</ele>
      </trkpt>
      <trkpt lat="44.47427" lon="5.30631">
        <ele>857</ele>
      </trkpt>
      <trkpt lat="44.47405" lon="5.30644">
        <ele>856</ele>
      </trkpt>
      <trkpt lat="44.47385" lon="5.30639">
        <ele>854</ele>
      </trkpt>
      <trkpt lat="44.47338" lon="5.30594">
        <ele>853</ele>
      </trkpt>
      <trkpt lat="44.47294" lon="5.30571">
        <ele>856</ele>
      </trkpt>
      <trkpt lat="44.47217" lon="5.30556">
        <ele>854</ele>
      </trkpt>
      <trkpt lat="44.47165" lon="5.30564">
        <ele>854</ele>
      </trkpt>
      <trkpt lat="44.47102" lon="5.30543">
        <ele>852</ele>
      </trkpt>
      <trkpt lat="44.47088" lon="5.30548">
        <ele>848</ele>
      </trkpt>
      <trkpt lat="44.47075" lon="5.30568">
        <ele>848</ele>
      </trkpt>
      <trkpt lat="44.47054" lon="5.30583">
        <ele>842</ele>
      </trkpt>
      <trkpt lat="44.4703" lon="5.30589">
        <ele>838</ele>
      </trkpt>
      <trkpt lat="44.47005" lon="5.30623">
        <ele>839</ele>
      </trkpt>
      <trkpt lat="44.46989" lon="5.30637">
        <ele>838</ele>
      </trkpt>
      <trkpt lat="44.46976" lon="5.30659">
        <ele>835</ele>
      </trkpt>
      <trkpt lat="44.46961" lon="5.30675">
        <ele>835</ele>
      </trkpt>
      <trkpt lat="44.46927" lon="5.30689">
        <ele>826</ele>
      </trkpt>
      <trkpt lat="44.46907" lon="5.30723">
        <ele>829</ele>
      </trkpt>
      <trkpt lat="44.46869" lon="5.3076">
        <ele>830</ele>
      </trkpt>
      <trkpt lat="44.46853" lon="5.30785">
        <ele>831</ele>
      </trkpt>
      <trkpt lat="44.46842" lon="5.30797">
        <ele>831</ele>
      </trkpt>
      <trkpt lat="44.46813" lon="5.30819">
        <ele>829</ele>
      </trkpt>
      <trkpt lat="44.46784" lon="5.30832">
        <ele>821</ele>
      </trkpt>
      <trkpt lat="44.46702" lon="5.30865">
        <ele>813</ele>
      </trkpt>
      <trkpt lat="44.46683" lon="5.30885">
        <ele>813</ele>
      </trkpt>
      <trkpt lat="44.4664" lon="5.3098">
        <ele>816</ele>
      </trkpt>
      <trkpt lat="44.46584" lon="5.31007">
        <ele>811</ele>
      </trkpt>
      <trkpt lat="44.4651" lon="5.31054">
        <ele>806</ele>
      </trkpt>
      <trkpt lat="44.46395" lon="5.31104">
        <ele>798</ele>
      </trkpt>
      <trkpt lat="44.46376" lon="5.31118">
        <ele>797</ele>
      </trkpt>
      <trkpt lat="44.4625" lon="5.31261">
        <ele>794</ele>
      </trkpt>
      <trkpt lat="44.46183" lon="5.31311">
        <ele>794</ele>
      </trkpt>
      <trkpt lat="44.46134" lon="5.31338">
        <ele>793</ele>
      </trkpt>
      <trkpt lat="44.46107" lon="5.31368">
        <ele>792</ele>
      </trkpt>
      <trkpt lat="44.46061" lon="5.31375">
        <ele>787</ele>
      </trkpt>
      <trkpt lat="44.46008" lon="5.31399">
        <ele>785</ele>
      </trkpt>
      <trkpt lat="44.45961" lon="5.314">
        <ele>783</ele>
      </trkpt>
      <trkpt lat="44.45924" lon="5.31436">
        <ele>780</ele>
      </trkpt>
      <trkpt lat="44.45914" lon="5.31458">
        <ele>779</ele>
      </trkpt>
      <trkpt lat="44.45903" lon="5.31494">
        <ele>780</ele>
      </trkpt>
      <trkpt lat="44.45892" lon="5.3151">
        <ele>779</ele>
      </trkpt>
      <trkpt lat="44.45863" lon="5.31525">
        <ele>778</ele>
      </trkpt>
      <trkpt lat="44.45848" lon="5.31536">
        <ele>777</ele>
      </trkpt>
      <trkpt lat="44.45829" lon="5.31559">
        <ele>776</ele>
      </trkpt>
      <trkpt lat="44.45822" lon="5.31561">
        <ele>776</ele>
      </trkpt>
      <trkpt lat="44.4582" lon="5.31558">
        <ele>776</ele>
      </trkpt>
      <trkpt lat="44.45814" lon="5.31549">
        <ele>775</ele>
      </trkpt>
      <trkpt lat="44.45774" lon="5.31506">
        <ele>775</ele>
      </trkpt>
      <trkpt lat="44.45767" lon="5.31502">
        <ele>775</ele>
      </trkpt>
      <trkpt lat="44.45747" lon="5.31503">
        <ele>775</ele>
      </trkpt>
      <trkpt lat="44.45718" lon="5.31514">
        <ele>776</ele>
      </trkpt>
      <trkpt lat="44.45682" lon="5.31521">
        <ele>778</ele>
      </trkpt>
      <trkpt lat="44.45626" lon="5.31522">
        <ele>778</ele>
      </trkpt>
      <trkpt lat="44.45608" lon="5.3153">
        <ele>777</ele>
      </trkpt>
      <trkpt lat="44.45575" lon="5.31552">
        <ele>776</ele>
      </trkpt>
      <trkpt lat="44.45496" lon="5.31573">
        <ele>775</ele>
      </trkpt>
      <trkpt lat="44.45484" lon="5.31578">
        <ele>775</ele>
      </trkpt>
      <trkpt lat="44.4547" lon="5.3158">
        <ele>775</ele>
      </trkpt>
      <trkpt lat="44.45438" lon="5.31553">
        <ele>777</ele>
      </trkpt>
      <trkpt lat="44.45419" lon="5.31531">
        <ele>777</ele>
      </trkpt>
      <trkpt lat="44.45395" lon="5.31475">
        <ele>782</ele>
      </trkpt>
      <trkpt lat="44.45366" lon="5.31453">
        <ele>784</ele>
      </trkpt>
      <trkpt lat="44.45316" lon="5.31452">
        <ele>779</ele>
      </trkpt>
      <trkpt lat="44.4528" lon="5.31476">
        <ele>768</ele>
      </trkpt>
      <trkpt lat="44.45214" lon="5.31478">
        <ele>767</ele>
      </trkpt>
      <trkpt lat="44.45177" lon="5.31439">
        <ele>767</ele>
      </trkpt>
      <trkpt lat="44.45153" lon="5.31425">
        <ele>772</ele>
      </trkpt>
      <trkpt lat="44.45113" lon="5.3144">
        <ele>755</ele>
      </trkpt>
      <trkpt lat="44.45089" lon="5.31428">
        <ele>753</ele>
      </trkpt>
      <trkpt lat="44.45062" lon="5.31422">
        <ele>755</ele>
      </trkpt>
      <trkpt lat="44.45028" lon="5.31404">
        <ele>752</ele>
      </trkpt>
      <trkpt lat="44.44942" lon="5.31401">
        <ele>739</ele>
      </trkpt>
      <trkpt lat="44.44917" lon="5.31395">
        <ele>742</ele>
      </trkpt>
      <trkpt lat="44.44888" lon="5.3138">
        <ele>740</ele>
      </trkpt>
      <trkpt lat="44.44866" lon="5.31363">
        <ele>752</ele>
      </trkpt>
      <trkpt lat="44.44853" lon="5.31351">
        <ele>756</ele>
      </trkpt>
      <trkpt lat="44.44843" lon="5.31345">
        <ele>755</ele>
      </trkpt>
      <trkpt lat="44.44832" lon="5.31344">
        <ele>755</ele>
      </trkpt>
      <trkpt lat="44.4482" lon="5.31346">
        <ele>752</ele>
      </trkpt>
      <trkpt lat="44.44773" lon="5.31363">
        <ele>736</ele>
      </trkpt>
      <trkpt lat="44.44753" lon="5.31377">
        <ele>729</ele>
      </trkpt>
      <trkpt lat="44.44714" lon="5.31411">
        <ele>730</ele>
      </trkpt>
      <trkpt lat="44.44633" lon="5.31524">
        <ele>707</ele>
      </trkpt>
      <trkpt lat="44.44618" lon="5.31539">
        <ele>704</ele>
      </trkpt>
      <trkpt lat="44.44605" lon="5.31547">
        <ele>704</ele>
      </trkpt>
      <trkpt lat="44.44568" lon="5.31558">
        <ele>717</ele>
      </trkpt>
      <trkpt lat="44.44526" lon="5.31582">
        <ele>718</ele>
      </trkpt>
      <trkpt lat="44.44501" lon="5.31582">
        <ele>722</ele>
      </trkpt>
      <trkpt lat="44.44488" lon="5.31586">
        <ele>721</ele>
      </trkpt>
      <trkpt lat="44.44476" lon="5.31592">
        <ele>720</ele>
      </trkpt>
      <trkpt lat="44.44461" lon="5.31606">
        <ele>708</ele>
      </trkpt>
      <trkpt lat="44.44459" lon="5.31606">
        <ele>708</ele>
      </trkpt>
      <trkpt lat="44.44441" lon="5.31598">
        <ele>713</ele>
      </trkpt>
      <trkpt lat="44.44413" lon="5.31611">
        <ele>715</ele>
      </trkpt>
      <trkpt lat="44.44385" lon="5.31618">
        <ele>715</ele>
      </trkpt>
      <trkpt lat="44.44379" lon="5.31617">
        <ele>715</ele>
      </trkpt>
      <trkpt lat="44.44366" lon="5.31607">
        <ele>719</ele>
      </trkpt>
      <trkpt lat="44.4436" lon="5.31605">
        <ele>718</ele>
      </trkpt>
      <trkpt lat="44.44334" lon="5.31611">
        <ele>721</ele>
      </trkpt>
      <trkpt lat="44.44316" lon="5.31625">
        <ele>712</ele>
      </trkpt>
      <trkpt lat="44.44296" lon="5.31644">
        <ele>710</ele>
      </trkpt>
      <trkpt lat="44.44274" lon="5.31672">
        <ele>698</ele>
      </trkpt>
      <trkpt lat="44.44263" lon="5.31679">
        <ele>685</ele>
      </trkpt>
      <trkpt lat="44.44244" lon="5.31677">
        <ele>693</ele>
      </trkpt>
      <trkpt lat="44.44206" lon="5.31662">
        <ele>709</ele>
      </trkpt>
      <trkpt lat="44.44176" lon="5.31656">
        <ele>707</ele>
      </trkpt>
      <trkpt lat="44.4414" lon="5.31657">
        <ele>703</ele>
      </trkpt>
      <trkpt lat="44.4409" lon="5.31672">
        <ele>699</ele>
      </trkpt>
      <trkpt lat="44.4407" lon="5.31674">
        <ele>698</ele>
      </trkpt>
      <trkpt lat="44.44052" lon="5.31671">
        <ele>696</ele>
      </trkpt>
      <trkpt lat="44.44039" lon="5.31665">
        <ele>693</ele>
      </trkpt>
      <trkpt lat="44.44035" lon="5.31661">
        <ele>693</ele>
      </trkpt>
      <trkpt lat="44.44027" lon="5.3165">
        <ele>693</ele>
      </trkpt>
      <trkpt lat="44.44021" lon="5.31636">
        <ele>696</ele>
      </trkpt>
      <trkpt lat="44.44003" lon="5.31589">
        <ele>696</ele>
      </trkpt>
      <trkpt lat="44.43983" lon="5.31558">
        <ele>693</ele>
      </trkpt>
      <trkpt lat="44.43977" lon="5.31546">
        <ele>692</ele>
      </trkpt>
      <trkpt lat="44.43969" lon="5.31521">
        <ele>691</ele>
      </trkpt>
      <trkpt lat="44.43964" lon="5.31491">
        <ele>689</ele>
      </trkpt>
      <trkpt lat="44.43963" lon="5.31469">
        <ele>688</ele>
      </trkpt>
      <trkpt lat="44.43967" lon="5.31437">
        <ele>687</ele>
      </trkpt>
      <trkpt lat="44.43974" lon="5.31419">
        <ele>685</ele>
      </trkpt>
      <trkpt lat="44.43978" lon="5.31412">
        <ele>685</ele>
      </trkpt>
      <trkpt lat="44.43997" lon="5.31391">
        <ele>686</ele>
      </trkpt>
      <trkpt lat="44.43997" lon="5.31382">
        <ele>686</ele>
      </trkpt>
      <trkpt lat="44.43992" lon="5.31376">
        <ele>685</ele>
      </trkpt>
      <trkpt lat="44.43985" lon="5.31377">
        <ele>684</ele>
      </trkpt>
      <trkpt lat="44.43969" lon="5.31393">
        <ele>680</ele>
      </trkpt>
      <trkpt lat="44.43957" lon="5.31402">
        <ele>682</ele>
      </trkpt>
      <trkpt lat="44.43907" lon="5.31425">
        <ele>675</ele>
      </trkpt>
      <trkpt lat="44.43895" lon="5.31432">
        <ele>673</ele>
      </trkpt>
      <trkpt lat="44.43871" lon="5.31454">
        <ele>669</ele>
      </trkpt>
      <trkpt lat="44.43855" lon="5.31476">
        <ele>668</ele>
      </trkpt>
      <trkpt lat="44.43851" lon="5.31484">
        <ele>668</ele>
      </trkpt>
      <trkpt lat="44.43851" lon="5.315">
        <ele>668</ele>
      </trkpt>
      <trkpt lat="44.43859" lon="5.31524">
        <ele>669</ele>
      </trkpt>
      <trkpt lat="44.43859" lon="5.31529">
        <ele>668</ele>
      </trkpt>
      <trkpt lat="44.43858" lon="5.31534">
        <ele>668</ele>
      </trkpt>
      <trkpt lat="44.43855" lon="5.31536">
        <ele>667</ele>
      </trkpt>
      <trkpt lat="44.43847" lon="5.31532">
        <ele>667</ele>
      </trkpt>
      <trkpt lat="44.43824" lon="5.31496">
        <ele>663</ele>
      </trkpt>
      <trkpt lat="44.43821" lon="5.31488">
        <ele>663</ele>
      </trkpt>
      <trkpt lat="44.4382" lon="5.31472">
        <ele>662</ele>
      </trkpt>
      <trkpt lat="44.43824" lon="5.31457">
        <ele>662</ele>
      </trkpt>
      <trkpt lat="44.43866" lon="5.31364">
        <ele>656</ele>
      </trkpt>
      <trkpt lat="44.43875" lon="5.31336">
        <ele>655</ele>
      </trkpt>
      <trkpt lat="44.43878" lon="5.31308">
        <ele>650</ele>
      </trkpt>
      <trkpt lat="44.43886" lon="5.31289">
        <ele>650</ele>
      </trkpt>
      <trkpt lat="44.43908" lon="5.31261">
        <ele>650</ele>
      </trkpt>
      <trkpt lat="44.43913" lon="5.31238">
        <ele>647</ele>
      </trkpt>
      <trkpt lat="44.43916" lon="5.31214">
        <ele>644</ele>
      </trkpt>
      <trkpt lat="44.43923" lon="5.31202">
        <ele>640</ele>
      </trkpt>
      <trkpt lat="44.4394" lon="5.31199">
        <ele>643</ele>
      </trkpt>
      <trkpt lat="44.43965" lon="5.31201">
        <ele>649</ele>
      </trkpt>
      <trkpt lat="44.43969" lon="5.31196">
        <ele>649</ele>
      </trkpt>
      <trkpt lat="44.43968" lon="5.3119">
        <ele>648</ele>
      </trkpt>
      <trkpt lat="44.43964" lon="5.31188">
        <ele>648</ele>
      </trkpt>
      <trkpt lat="44.43949" lon="5.31188">
        <ele>643</ele>
      </trkpt>
      <trkpt lat="44.43931" lon="5.31184">
        <ele>642</ele>
      </trkpt>
      <trkpt lat="44.43878" lon="5.31165">
        <ele>631</ele>
      </trkpt>
      <trkpt lat="44.43868" lon="5.31164">
        <ele>628</ele>
      </trkpt>
      <trkpt lat="44.43856" lon="5.31169">
        <ele>628</ele>
      </trkpt>
      <trkpt lat="44.43853" lon="5.31167">
        <ele>628</ele>
      </trkpt>
      <trkpt lat="44.43851" lon="5.31163">
        <ele>627</ele>
      </trkpt>
      <trkpt lat="44.43851" lon="5.31159">
        <ele>627</ele>
      </trkpt>
      <trkpt lat="44.43853" lon="5.31154">
        <ele>627</ele>
      </trkpt>
      <trkpt lat="44.43857" lon="5.31152">
        <ele>627</ele>
      </trkpt>
      <trkpt lat="44.43916" lon="5.31156">
        <ele>635</ele>
      </trkpt>
      <trkpt lat="44.43921" lon="5.31154">
        <ele>636</ele>
      </trkpt>
      <trkpt lat="44.43926" lon="5.31149">
        <ele>636</ele>
      </trkpt>
      <trkpt lat="44.43927" lon="5.31143">
        <ele>634</ele>
      </trkpt>
      <trkpt lat="44.43926" lon="5.31135">
        <ele>634</ele>
      </trkpt>
      <trkpt lat="44.43908" lon="5.31098">
        <ele>631</ele>
      </trkpt>
      <trkpt lat="44.439" lon="5.31071">
        <ele>623</ele>
      </trkpt>
      <trkpt lat="44.43901" lon="5.31044">
        <ele>622</ele>
      </trkpt>
      <trkpt lat="44.43913" lon="5.3101">
        <ele>628</ele>
      </trkpt>
      <trkpt lat="44.43912" lon="5.30992">
        <ele>627</ele>
      </trkpt>
      <trkpt lat="44.43901" lon="5.30967">
        <ele>620</ele>
      </trkpt>
      <trkpt lat="44.43871" lon="5.30924">
        <ele>615</ele>
      </trkpt>
      <trkpt lat="44.43825" lon="5.30898">
        <ele>609</ele>
      </trkpt>
      <trkpt lat="44.43812" lon="5.30878">
        <ele>607</ele>
      </trkpt>
      <trkpt lat="44.43808" lon="5.30848">
        <ele>607</ele>
      </trkpt>
      <trkpt lat="44.43831" lon="5.30775">
        <ele>607</ele>
      </trkpt>
      <trkpt lat="44.43846" lon="5.30752">
        <ele>606</ele>
      </trkpt>
      <trkpt lat="44.4391" lon="5.3068">
        <ele>597</ele>
      </trkpt>
      <trkpt lat="44.43956" lon="5.30672">
        <ele>589</ele>
      </trkpt>
      <trkpt lat="44.43997" lon="5.30687">
        <ele>589</ele>
      </trkpt>
      <trkpt lat="44.44023" lon="5.30691">
        <ele>586</ele>
      </trkpt>
      <trkpt lat="44.44054" lon="5.30703">
        <ele>592</ele>
      </trkpt>
      <trkpt lat="44.44084" lon="5.30723">
        <ele>599</ele>
      </trkpt>
      <trkpt lat="44.44094" lon="5.30724">
        <ele>600</ele>
      </trkpt>
      <trkpt lat="44.44101" lon="5.30718">
        <ele>603</ele>
      </trkpt>
      <trkpt lat="44.44106" lon="5.30698">
        <ele>596</ele>
      </trkpt>
      <trkpt lat="44.44123" lon="5.30675">
        <ele>591</ele>
      </trkpt>
      <trkpt lat="44.4414" lon="5.30658">
        <ele>596</ele>
      </trkpt>
      <trkpt lat="44.44156" lon="5.30656">
        <ele>605</ele>
      </trkpt>
      <trkpt lat="44.44171" lon="5.30658">
        <ele>608</ele>
      </trkpt>
      <trkpt lat="44.44178" lon="5.30655">
        <ele>609</ele>
      </trkpt>
      <trkpt lat="44.44182" lon="5.30645">
        <ele>617</ele>
      </trkpt>
      <trkpt lat="44.44179" lon="5.3063">
        <ele>617</ele>
      </trkpt>
      <trkpt lat="44.44147" lon="5.3057">
        <ele>598</ele>
      </trkpt>
      <trkpt lat="44.44111" lon="5.30517">
        <ele>590</ele>
      </trkpt>
      <trkpt lat="44.44087" lon="5.30444">
        <ele>579</ele>
      </trkpt>
      <trkpt lat="44.4409" lon="5.30416">
        <ele>578</ele>
      </trkpt>
      <trkpt lat="44.44128" lon="5.30368">
        <ele>596</ele>
      </trkpt>
      <trkpt lat="44.4413" lon="5.30348">
        <ele>596</ele>
      </trkpt>
      <trkpt lat="44.4412" lon="5.30321">
        <ele>586</ele>
      </trkpt>
      <trkpt lat="44.44115" lon="5.30282">
        <ele>589</ele>
      </trkpt>
      <trkpt lat="44.44105" lon="5.3026">
        <ele>588</ele>
      </trkpt>
      <trkpt lat="44.44061" lon="5.30215">
        <ele>577</ele>
      </trkpt>
      <trkpt lat="44.44002" lon="5.30185">
        <ele>568</ele>
      </trkpt>
      <trkpt lat="44.43985" lon="5.30172">
        <ele>569</ele>
      </trkpt>
      <trkpt lat="44.43967" lon="5.30149">
        <ele>564</ele>
      </trkpt>
      <trkpt lat="44.43959" lon="5.3013">
        <ele>564</ele>
      </trkpt>
      <trkpt lat="44.4396" lon="5.30098">
        <ele>562</ele>
      </trkpt>
      <trkpt lat="44.43982" lon="5.30073">
        <ele>561</ele>
      </trkpt>
      <trkpt lat="44.44041" lon="5.30032">
        <ele>570</ele>
      </trkpt>
      <trkpt lat="44.44055" lon="5.30001">
        <ele>568</ele>
      </trkpt>
      <trkpt lat="44.44057" lon="5.29989">
        <ele>568</ele>
      </trkpt>
      <trkpt lat="44.44053" lon="5.2998">
        <ele>568</ele>
      </trkpt>
      <trkpt lat="44.44031" lon="5.29971">
        <ele>559</ele>
      </trkpt>
      <trkpt lat="44.43995" lon="5.29877">
        <ele>557</ele>
      </trkpt>
      <trkpt lat="44.43995" lon="5.29859">
        <ele>557</ele>
      </trkpt>
      <trkpt lat="44.4405" lon="5.29698">
        <ele>549</ele>
      </trkpt>
      <trkpt lat="44.44066" lon="5.29682">
        <ele>550</ele>
      </trkpt>
      <trkpt lat="44.44064" lon="5.29652">
        <ele>548</ele>
      </trkpt>
      <trkpt lat="44.44032" lon="5.29612">
        <ele>540</ele>
      </trkpt>
      <trkpt lat="44.43984" lon="5.29604">
        <ele>530</ele>
      </trkpt>
      <trkpt lat="44.43961" lon="5.29607">
        <ele>528</ele>
      </trkpt>
      <trkpt lat="44.43951" lon="5.296">
        <ele>524</ele>
      </trkpt>
      <trkpt lat="44.43959" lon="5.29502">
        <ele>526</ele>
      </trkpt>
      <trkpt lat="44.43978" lon="5.2947">
        <ele>521</ele>
      </trkpt>
      <trkpt lat="44.44017" lon="5.29479">
        <ele>526</ele>
      </trkpt>
      <trkpt lat="44.44055" lon="5.29458">
        <ele>526</ele>
      </trkpt>
      <trkpt lat="44.44077" lon="5.29449">
        <ele>520</ele>
      </trkpt>
      <trkpt lat="44.44153" lon="5.29443">
        <ele>516</ele>
      </trkpt>
      <trkpt lat="44.4417" lon="5.29455">
        <ele>520</ele>
      </trkpt>
      <trkpt lat="44.44187" lon="5.29477">
        <ele>522</ele>
      </trkpt>
      <trkpt lat="44.44198" lon="5.29475">
        <ele>522</ele>
      </trkpt>
      <trkpt lat="44.44216" lon="5.2945">
        <ele>520</ele>
      </trkpt>
      <trkpt lat="44.44246" lon="5.29441">
        <ele>523</ele>
      </trkpt>
      <trkpt lat="44.44251" lon="5.29426">
        <ele>523</ele>
      </trkpt>
      <trkpt lat="44.44222" lon="5.29367">
        <ele>515</ele>
      </trkpt>
      <trkpt lat="44.44223" lon="5.29352">
        <ele>515</ele>
      </trkpt>
      <trkpt lat="44.44227" lon="5.29339">
        <ele>513</ele>
      </trkpt>
      <trkpt lat="44.44244" lon="5.29321">
        <ele>516</ele>
      </trkpt>
      <trkpt lat="44.44262" lon="5.29313">
        <ele>517</ele>
      </trkpt>
      <trkpt lat="44.4427" lon="5.293">
        <ele>522</ele>
      </trkpt>
      <trkpt lat="44.44268" lon="5.29287">
        <ele>522</ele>
      </trkpt>
      <trkpt lat="44.44228" lon="5.29209">
        <ele>511</ele>
      </trkpt>
      <trkpt lat="44.44195" lon="5.29112">
        <ele>507</ele>
      </trkpt>
      <trkpt lat="44.44188" lon="5.29032">
        <ele>503</ele>
      </trkpt>
      <trkpt lat="44.44186" lon="5.28955">
        <ele>498</ele>
      </trkpt>
      <trkpt lat="44.44187" lon="5.28911">
        <ele>494</ele>
      </trkpt>
      <trkpt lat="44.44187" lon="5.2885">
        <ele>491</ele>
      </trkpt>
      <trkpt lat="44.44166" lon="5.28776">
        <ele>489</ele>
      </trkpt>
      <trkpt lat="44.44163" lon="5.28701">
        <ele>489</ele>
      </trkpt>
      <trkpt lat="44.44168" lon="5.28687">
        <ele>489</ele>
      </trkpt>
      <trkpt lat="44.44179" lon="5.28671">
        <ele>486</ele>
      </trkpt>
      <trkpt lat="44.44203" lon="5.28648">
        <ele>484</ele>
      </trkpt>
      <trkpt lat="44.44195" lon="5.28645">
        <ele>479</ele>
      </trkpt>
      <trkpt lat="44.44118" lon="5.28693">
        <ele>480</ele>
      </trkpt>
      <trkpt lat="44.44114" lon="5.287">
        <ele>480</ele>
      </trkpt>
      <trkpt lat="44.44112" lon="5.28706">
        <ele>481</ele>
      </trkpt>
      <trkpt lat="44.44112" lon="5.28725">
        <ele>481</ele>
      </trkpt>
      <trkpt lat="44.44119" lon="5.28816">
        <ele>476</ele>
      </trkpt>
      <trkpt lat="44.44115" lon="5.28836">
        <ele>476</ele>
      </trkpt>
      <trkpt lat="44.441" lon="5.28856">
        <ele>474</ele>
      </trkpt>
      <trkpt lat="44.4408" lon="5.28867">
        <ele>470</ele>
      </trkpt>
      <trkpt lat="44.43956" lon="5.28842">
        <ele>458</ele>
      </trkpt>
      <trkpt lat="44.4391" lon="5.28799">
        <ele>453</ele>
      </trkpt>
      <trkpt lat="44.439" lon="5.28795">
        <ele>452</ele>
      </trkpt>
      <trkpt lat="44.43891" lon="5.28794">
        <ele>452</ele>
      </trkpt>
      <trkpt lat="44.43874" lon="5.28797">
        <ele>452</ele>
      </trkpt>
      <trkpt lat="44.43857" lon="5.28803">
        <ele>451</ele>
      </trkpt>
      <trkpt lat="44.4383" lon="5.2884">
        <ele>450</ele>
      </trkpt>
      <trkpt lat="44.43807" lon="5.2888">
        <ele>447</ele>
      </trkpt>
      <trkpt lat="44.43733" lon="5.28906">
        <ele>441</ele>
      </trkpt>
      <trkpt lat="44.43731" lon="5.28924">
        <ele>441</ele>
      </trkpt>
      <trkpt lat="44.4375" lon="5.28962">
        <ele>445</ele>
      </trkpt>
      <trkpt lat="44.4375" lon="5.2897">
        <ele>445</ele>
      </trkpt>
      <trkpt lat="44.4374" lon="5.28976">
        <ele>445</ele>
      </trkpt>
      <trkpt lat="44.43691" lon="5.28915">
        <ele>438</ele>
      </trkpt>
      <trkpt lat="44.43636" lon="5.28877">
        <ele>434</ele>
      </trkpt>
      <trkpt lat="44.43559" lon="5.28885">
        <ele>427</ele>
      </trkpt>
      <trkpt lat="44.43544" lon="5.28896">
        <ele>428</ele>
      </trkpt>
      <trkpt lat="44.4352" lon="5.28934">
        <ele>431</ele>
      </trkpt>
      <trkpt lat="44.435" lon="5.28948">
        <ele>426</ele>
      </trkpt>
      <trkpt lat="44.43453" lon="5.28954">
        <ele>409</ele>
      </trkpt>
      <trkpt lat="44.43444" lon="5.28966">
        <ele>407</ele>
      </trkpt>
      <trkpt lat="44.43442" lon="5.28975">
        <ele>408</ele>
      </trkpt>
      <trkpt lat="44.43451" lon="5.29012">
        <ele>413</ele>
      </trkpt>
      <trkpt lat="44.43452" lon="5.29058">
        <ele>412</ele>
      </trkpt>
      <trkpt lat="44.43472" lon="5.29083">
        <ele>419</ele>
      </trkpt>
      <trkpt lat="44.43479" lon="5.29115">
        <ele>417</ele>
      </trkpt>
      <trkpt lat="44.4348" lon="5.2915">
        <ele>411</ele>
      </trkpt>
      <trkpt lat="44.43461" lon="5.29255">
        <ele>400</ele>
      </trkpt>
      <trkpt lat="44.43465" lon="5.29278">
        <ele>397</ele>
      </trkpt>
      <trkpt lat="44.43472" lon="5.29299">
        <ele>395</ele>
      </trkpt>
      <trkpt lat="44.43492" lon="5.29329">
        <ele>391</ele>
      </trkpt>
      <trkpt lat="44.43503" lon="5.29339">
        <ele>391</ele>
      </trkpt>
      <trkpt lat="44.43513" lon="5.29344">
        <ele>392</ele>
      </trkpt>
      <trkpt lat="44.43529" lon="5.29339">
        <ele>390</ele>
      </trkpt>
      <trkpt lat="44.43543" lon="5.29326">
        <ele>389</ele>
      </trkpt>
      <trkpt lat="44.43553" lon="5.29324">
        <ele>388</ele>
      </trkpt>
      <trkpt lat="44.43538" lon="5.29343">
        <ele>392</ele>
      </trkpt>
      <trkpt lat="44.4353" lon="5.2935">
        <ele>392</ele>
      </trkpt>
      <trkpt lat="44.43518" lon="5.29354">
        <ele>392</ele>
      </trkpt>
      <trkpt lat="44.43503" lon="5.29351">
        <ele>392</ele>
      </trkpt>
      <trkpt lat="44.43491" lon="5.29344">
        <ele>392</ele>
      </trkpt>
      <trkpt lat="44.43474" lon="5.29323">
        <ele>391</ele>
      </trkpt>
      <trkpt lat="44.43456" lon="5.29283">
        <ele>393</ele>
      </trkpt>
      <trkpt lat="44.4345" lon="5.29248">
        <ele>394</ele>
      </trkpt>
      <trkpt lat="44.43447" lon="5.29209">
        <ele>396</ele>
      </trkpt>
      <trkpt lat="44.43452" lon="5.29129">
        <ele>402</ele>
      </trkpt>
      <trkpt lat="44.43448" lon="5.29092">
        <ele>406</ele>
      </trkpt>
      <trkpt lat="44.43442" lon="5.29054">
        <ele>411</ele>
      </trkpt>
      <trkpt lat="44.43433" lon="5.2902">
        <ele>411</ele>
      </trkpt>
      <trkpt lat="44.43367" lon="5.28832">
        <ele>394</ele>
      </trkpt>
      <trkpt lat="44.43355" lon="5.2881">
        <ele>393</ele>
      </trkpt>
      <trkpt lat="44.4334" lon="5.28792">
        <ele>390</ele>
      </trkpt>
      <trkpt lat="44.43311" lon="5.28777">
        <ele>396</ele>
      </trkpt>
      <trkpt lat="44.43282" lon="5.28777">
        <ele>399</ele>
      </trkpt>
      <trkpt lat="44.43261" lon="5.28783">
        <ele>400</ele>
      </trkpt>
      <trkpt lat="44.43235" lon="5.28793">
        <ele>396</ele>
      </trkpt>
      <trkpt lat="44.43222" lon="5.28794">
        <ele>394</ele>
      </trkpt>
      <trkpt lat="44.4321" lon="5.28791">
        <ele>394</ele>
      </trkpt>
      <trkpt lat="44.432" lon="5.2878">
        <ele>393</ele>
      </trkpt>
      <trkpt lat="44.43197" lon="5.28768">
        <ele>393</ele>
      </trkpt>
      <trkpt lat="44.43194" lon="5.28745">
        <ele>395</ele>
      </trkpt>
      <trkpt lat="44.43193" lon="5.28651">
        <ele>407</ele>
      </trkpt>
      <trkpt lat="44.43194" lon="5.28617">
        <ele>403</ele>
      </trkpt>
      <trkpt lat="44.432" lon="5.28594">
        <ele>402</ele>
      </trkpt>
      <trkpt lat="44.43224" lon="5.28526">
        <ele>401</ele>
      </trkpt>
      <trkpt lat="44.43287" lon="5.28407">
        <ele>397</ele>
      </trkpt>
      <trkpt lat="44.43315" lon="5.28341">
        <ele>397</ele>
      </trkpt>
      <trkpt lat="44.43322" lon="5.28316">
        <ele>407</ele>
      </trkpt>
      <trkpt lat="44.43326" lon="5.28292">
        <ele>407</ele>
      </trkpt>
      <trkpt lat="44.43324" lon="5.28263">
        <ele>409</ele>
      </trkpt>
      <trkpt lat="44.43317" lon="5.28247">
        <ele>407</ele>
      </trkpt>
      <trkpt lat="44.43305" lon="5.28229">
        <ele>415</ele>
      </trkpt>
      <trkpt lat="44.43292" lon="5.28216">
        <ele>416</ele>
      </trkpt>
      <trkpt lat="44.43276" lon="5.28209">
        <ele>411</ele>
      </trkpt>
      <trkpt lat="44.43257" lon="5.28209">
        <ele>402</ele>
      </trkpt>
      <trkpt lat="44.43226" lon="5.28217">
        <ele>388</ele>
      </trkpt>
      <trkpt lat="44.43189" lon="5.28222">
        <ele>381</ele>
      </trkpt>
      <trkpt lat="44.43178" lon="5.2822">
        <ele>379</ele>
      </trkpt>
      <trkpt lat="44.43169" lon="5.28211">
        <ele>379</ele>
      </trkpt>
      <trkpt lat="44.4316" lon="5.28195">
        <ele>385</ele>
      </trkpt>
      <trkpt lat="44.43157" lon="5.28175">
        <ele>387</ele>
      </trkpt>
      <trkpt lat="44.43157" lon="5.28156">
        <ele>393</ele>
      </trkpt>
      <trkpt lat="44.43162" lon="5.28133">
        <ele>399</ele>
      </trkpt>
      <trkpt lat="44.43205" lon="5.27998">
        <ele>411</ele>
      </trkpt>
      <trkpt lat="44.43208" lon="5.27973">
        <ele>418</ele>
      </trkpt>
      <trkpt lat="44.43202" lon="5.27905">
        <ele>407</ele>
      </trkpt>
      <trkpt lat="44.43196" lon="5.2788">
        <ele>412</ele>
      </trkpt>
      <trkpt lat="44.43186" lon="5.27855">
        <ele>415</ele>
      </trkpt>
      <trkpt lat="44.43162" lon="5.27808">
        <ele>409</ele>
      </trkpt>
      <trkpt lat="44.43139" lon="5.27776">
        <ele>397</ele>
      </trkpt>
      <trkpt lat="44.43112" lon="5.27746">
        <ele>388</ele>
      </trkpt>
      <trkpt lat="44.43098" lon="5.27732">
        <ele>388</ele>
      </trkpt>
      <trkpt lat="44.43068" lon="5.27712">
        <ele>384</ele>
      </trkpt>
      <trkpt lat="44.43033" lon="5.27692">
        <ele>384</ele>
      </trkpt>
      <trkpt lat="44.42997" lon="5.27676">
        <ele>387</ele>
      </trkpt>
      <trkpt lat="44.42965" lon="5.2767">
        <ele>385</ele>
      </trkpt>
      <trkpt lat="44.4295" lon="5.27672">
        <ele>378</ele>
      </trkpt>
      <trkpt lat="44.42921" lon="5.27681">
        <ele>374</ele>
      </trkpt>
      <trkpt lat="44.429" lon="5.27693">
        <ele>377</ele>
      </trkpt>
      <trkpt lat="44.42886" lon="5.27706">
        <ele>372</ele>
      </trkpt>
      <trkpt lat="44.42867" lon="5.2773">
        <ele>373</ele>
      </trkpt>
      <trkpt lat="44.42851" lon="5.27767">
        <ele>372</ele>
      </trkpt>
      <trkpt lat="44.42846" lon="5.27789">
        <ele>372</ele>
      </trkpt>
      <trkpt lat="44.42823" lon="5.2793">
        <ele>368</ele>
      </trkpt>
      <trkpt lat="44.42815" lon="5.2796">
        <ele>368</ele>
      </trkpt>
      <trkpt lat="44.42801" lon="5.27978">
        <ele>369</ele>
      </trkpt>
      <trkpt lat="44.4279" lon="5.27981">
        <ele>368</ele>
      </trkpt>
      <trkpt lat="44.4278" lon="5.27979">
        <ele>370</ele>
      </trkpt>
      <trkpt lat="44.42768" lon="5.27972">
        <ele>370</ele>
      </trkpt>
      <trkpt lat="44.42744" lon="5.27955">
        <ele>371</ele>
      </trkpt>
      <trkpt lat="44.42729" lon="5.27937">
        <ele>375</ele>
      </trkpt>
      <trkpt lat="44.42705" lon="5.27897">
        <ele>381</ele>
      </trkpt>
      <trkpt lat="44.42679" lon="5.27862">
        <ele>393</ele>
      </trkpt>
      <trkpt lat="44.42651" lon="5.27831">
        <ele>395</ele>
      </trkpt>
      <trkpt lat="44.42623" lon="5.27806">
        <ele>398</ele>
      </trkpt>
      <trkpt lat="44.42602" lon="5.2779">
        <ele>392</ele>
      </trkpt>
      <trkpt lat="44.42447" lon="5.27692">
        <ele>380</ele>
      </trkpt>
      <trkpt lat="44.42396" lon="5.2767">
        <ele>375</ele>
      </trkpt>
      <trkpt lat="44.42351" lon="5.27653">
        <ele>372</ele>
      </trkpt>
      <trkpt lat="44.42297" lon="5.27623">
        <ele>373</ele>
      </trkpt>
      <trkpt lat="44.42218" lon="5.27591">
        <ele>372</ele>
      </trkpt>
      <trkpt lat="44.4218" lon="5.27573">
        <ele>374</ele>
      </trkpt>
      <trkpt lat="44.42142" lon="5.27542">
        <ele>372</ele>
      </trkpt>
      <trkpt lat="44.42086" lon="5.2748">
        <ele>371</ele>
      </trkpt>
      <trkpt lat="44.42" lon="5.27372">
        <ele>375</ele>
      </trkpt>
      <trkpt lat="44.41975" lon="5.27345">
        <ele>373</ele>
      </trkpt>
      <trkpt lat="44.41911" lon="5.27297">
        <ele>373</ele>
      </trkpt>
      <trkpt lat="44.41863" lon="5.27241">
        <ele>370</ele>
      </trkpt>
      <trkpt lat="44.41827" lon="5.27208">
        <ele>371</ele>
      </trkpt>
      <trkpt lat="44.41785" lon="5.27165">
        <ele>373</ele>
      </trkpt>
      <trkpt lat="44.41659" lon="5.27044">
        <ele>375</ele>
      </trkpt>
      <trkpt lat="44.41547" lon="5.26951">
        <ele>372</ele>
      </trkpt>
      <trkpt lat="44.41532" lon="5.26932">
        <ele>369</ele>
      </trkpt>
      <trkpt lat="44.41515" lon="5.26901">
        <ele>371</ele>
      </trkpt>
      <trkpt lat="44.4151" lon="5.26887">
        <ele>370</ele>
      </trkpt>
      <trkpt lat="44.41498" lon="5.26859">
        <ele>373</ele>
      </trkpt>
      <trkpt lat="44.41444" lon="5.26749">
        <ele>369</ele>
      </trkpt>
      <trkpt lat="44.41433" lon="5.26717">
        <ele>370</ele>
      </trkpt>
      <trkpt lat="44.41429" lon="5.26693">
        <ele>370</ele>
      </trkpt>
      <trkpt lat="44.41428" lon="5.26666">
        <ele>366</ele>
      </trkpt>
      <trkpt lat="44.41442" lon="5.26497">
        <ele>368</ele>
      </trkpt>
      <trkpt lat="44.41441" lon="5.2648">
        <ele>368</ele>
      </trkpt>
      <trkpt lat="44.41437" lon="5.26459">
        <ele>369</ele>
      </trkpt>
      <trkpt lat="44.41427" lon="5.26421">
        <ele>367</ele>
      </trkpt>
      <trkpt lat="44.41393" lon="5.26342">
        <ele>367</ele>
      </trkpt>
      <trkpt lat="44.41363" lon="5.26292">
        <ele>369</ele>
      </trkpt>
      <trkpt lat="44.41343" lon="5.26268">
        <ele>365</ele>
      </trkpt>
      <trkpt lat="44.41299" lon="5.26231">
        <ele>363</ele>
      </trkpt>
      <trkpt lat="44.41273" lon="5.26198">
        <ele>368</ele>
      </trkpt>
      <trkpt lat="44.41265" lon="5.2618">
        <ele>368</ele>
      </trkpt>
      <trkpt lat="44.41258" lon="5.26154">
        <ele>366</ele>
      </trkpt>
      <trkpt lat="44.41248" lon="5.26126">
        <ele>367</ele>
      </trkpt>
      <trkpt lat="44.4121" lon="5.26054">
        <ele>366</ele>
      </trkpt>
      <trkpt lat="44.41196" lon="5.26018">
        <ele>363</ele>
      </trkpt>
      <trkpt lat="44.41188" lon="5.25978">
        <ele>366</ele>
      </trkpt>
      <trkpt lat="44.41165" lon="5.25841">
        <ele>366</ele>
      </trkpt>
      <trkpt lat="44.41154" lon="5.25812">
        <ele>366</ele>
      </trkpt>
      <trkpt lat="44.41144" lon="5.25794">
        <ele>362</ele>
      </trkpt>
      <trkpt lat="44.41096" lon="5.25735">
        <ele>362</ele>
      </trkpt>
      <trkpt lat="44.41082" lon="5.25706">
        <ele>359</ele>
      </trkpt>
      <trkpt lat="44.41076" lon="5.25674">
        <ele>361</ele>
      </trkpt>
      <trkpt lat="44.41068" lon="5.2558">
        <ele>365</ele>
      </trkpt>
      <trkpt lat="44.41062" lon="5.25552">
        <ele>359</ele>
      </trkpt>
      <trkpt lat="44.41056" lon="5.2553">
        <ele>357</ele>
      </trkpt>
      <trkpt lat="44.41049" lon="5.25515">
        <ele>356</ele>
      </trkpt>
      <trkpt lat="44.41027" lon="5.25487">
        <ele>352</ele>
      </trkpt>
      <trkpt lat="44.40987" lon="5.2544">
        <ele>359</ele>
      </trkpt>
      <trkpt lat="44.4097" lon="5.25425">
        <ele>357</ele>
      </trkpt>
      <trkpt lat="44.40922" lon="5.25395">
        <ele>358</ele>
      </trkpt>
      <trkpt lat="44.40905" lon="5.25382">
        <ele>358</ele>
      </trkpt>
      <trkpt lat="44.4089" lon="5.25362">
        <ele>359</ele>
      </trkpt>
      <trkpt lat="44.4084" lon="5.25271">
        <ele>357</ele>
      </trkpt>
      <trkpt lat="44.40821" lon="5.25241">
        <ele>359</ele>
      </trkpt>
      <trkpt lat="44.40808" lon="5.25225">
        <ele>357</ele>
      </trkpt>
      <trkpt lat="44.40795" lon="5.25214">
        <ele>357</ele>
      </trkpt>
      <trkpt lat="44.40769" lon="5.25196">
        <ele>357</ele>
      </trkpt>
      <trkpt lat="44.4077" lon="5.2519">
        <ele>358</ele>
      </trkpt>
      <trkpt lat="44.40763" lon="5.25173">
        <ele>361</ele>
      </trkpt>
      <trkpt lat="44.40738" lon="5.2517">
        <ele>359</ele>
      </trkpt>
      <trkpt lat="44.40714" lon="5.25157">
        <ele>357</ele>
      </trkpt>
      <trkpt lat="44.40675" lon="5.25132">
        <ele>357</ele>
      </trkpt>
      <trkpt lat="44.40667" lon="5.25109">
        <ele>360</ele>
      </trkpt>
      <trkpt lat="44.40667" lon="5.25012">
        <ele>372</ele>
      </trkpt>
      <trkpt lat="44.40653" lon="5.24996">
        <ele>376</ele>
      </trkpt>
      <trkpt lat="44.40589" lon="5.24948">
        <ele>375</ele>
      </trkpt>
      <trkpt lat="44.4058" lon="5.24931">
        <ele>375</ele>
      </trkpt>
      <trkpt lat="44.40573" lon="5.24877">
        <ele>385</ele>
      </trkpt>
      <trkpt lat="44.40565" lon="5.24853">
        <ele>387</ele>
      </trkpt>
      <trkpt lat="44.40522" lon="5.24775">
        <ele>401</ele>
      </trkpt>
      <trkpt lat="44.40496" lon="5.24756">
        <ele>401</ele>
      </trkpt>
      <trkpt lat="44.40472" lon="5.24722">
        <ele>403</ele>
      </trkpt>
      <trkpt lat="44.40397" lon="5.24705">
        <ele>392</ele>
      </trkpt>
      <trkpt lat="44.40361" lon="5.24708">
        <ele>391</ele>
      </trkpt>
      <trkpt lat="44.40337" lon="5.24703">
        <ele>391</ele>
      </trkpt>
      <trkpt lat="44.40315" lon="5.24685">
        <ele>397</ele>
      </trkpt>
      <trkpt lat="44.40307" lon="5.24671">
        <ele>402</ele>
      </trkpt>
      <trkpt lat="44.40306" lon="5.24661">
        <ele>403</ele>
      </trkpt>
      <trkpt lat="44.40316" lon="5.24627">
        <ele>408</ele>
      </trkpt>
      <trkpt lat="44.40344" lon="5.24585">
        <ele>417</ele>
      </trkpt>
      <trkpt lat="44.40352" lon="5.2456">
        <ele>424</ele>
      </trkpt>
      <trkpt lat="44.40351" lon="5.24537">
        <ele>425</ele>
      </trkpt>
      <trkpt lat="44.40343" lon="5.24513">
        <ele>419</ele>
      </trkpt>
      <trkpt lat="44.40343" lon="5.245">
        <ele>421</ele>
      </trkpt>
      <trkpt lat="44.40347" lon="5.24496">
        <ele>429</ele>
      </trkpt>
      <trkpt lat="44.40352" lon="5.24495">
        <ele>430</ele>
      </trkpt>
      <trkpt lat="44.40358" lon="5.24511">
        <ele>428</ele>
      </trkpt>
      <trkpt lat="44.40381" lon="5.2459">
        <ele>430</ele>
      </trkpt>
      <trkpt lat="44.40392" lon="5.24615">
        <ele>426</ele>
      </trkpt>
      <trkpt lat="44.40406" lon="5.24626">
        <ele>425</ele>
      </trkpt>
      <trkpt lat="44.40411" lon="5.24614">
        <ele>432</ele>
      </trkpt>
      <trkpt lat="44.40399" lon="5.24589">
        <ele>432</ele>
      </trkpt>
      <trkpt lat="44.40397" lon="5.24545">
        <ele>436</ele>
      </trkpt>
      <trkpt lat="44.40385" lon="5.24503">
        <ele>442</ele>
      </trkpt>
      <trkpt lat="44.40367" lon="5.24396">
        <ele>456</ele>
      </trkpt>
      <trkpt lat="44.40337" lon="5.24331">
        <ele>456</ele>
      </trkpt>
      <trkpt lat="44.40326" lon="5.24267">
        <ele>461</ele>
      </trkpt>
      <trkpt lat="44.4033" lon="5.24232">
        <ele>462</ele>
      </trkpt>
      <trkpt lat="44.40375" lon="5.24162">
        <ele>464</ele>
      </trkpt>
      <trkpt lat="44.40422" lon="5.24151">
        <ele>477</ele>
      </trkpt>
      <trkpt lat="44.40479" lon="5.24109">
        <ele>481</ele>
      </trkpt>
      <trkpt lat="44.40512" lon="5.24067">
        <ele>482</ele>
      </trkpt>
      <trkpt lat="44.40533" lon="5.2405">
        <ele>470</ele>
      </trkpt>
      <trkpt lat="44.40577" lon="5.24035">
        <ele>476</ele>
      </trkpt>
      <trkpt lat="44.40638" lon="5.24047">
        <ele>481</ele>
      </trkpt>
      <trkpt lat="44.40693" lon="5.24049">
        <ele>489</ele>
      </trkpt>
      <trkpt lat="44.40721" lon="5.24066">
        <ele>503</ele>
      </trkpt>
      <trkpt lat="44.40772" lon="5.24041">
        <ele>515</ele>
      </trkpt>
      <trkpt lat="44.40805" lon="5.23992">
        <ele>505</ele>
      </trkpt>
      <trkpt lat="44.40844" lon="5.23944">
        <ele>500</ele>
      </trkpt>
      <trkpt lat="44.40891" lon="5.23925">
        <ele>519</ele>
      </trkpt>
      <trkpt lat="44.40914" lon="5.23895">
        <ele>518</ele>
      </trkpt>
      <trkpt lat="44.4093" lon="5.2385">
        <ele>520</ele>
      </trkpt>
      <trkpt lat="44.40939" lon="5.23808">
        <ele>510</ele>
      </trkpt>
      <trkpt lat="44.40959" lon="5.23769">
        <ele>512</ele>
      </trkpt>
      <trkpt lat="44.40973" lon="5.23704">
        <ele>500</ele>
      </trkpt>
      <trkpt lat="44.40986" lon="5.23685">
        <ele>499</ele>
      </trkpt>
      <trkpt lat="44.41013" lon="5.23682">
        <ele>501</ele>
      </trkpt>
      <trkpt lat="44.41087" lon="5.23688">
        <ele>501</ele>
      </trkpt>
      <trkpt lat="44.41165" lon="5.23744">
        <ele>499</ele>
      </trkpt>
      <trkpt lat="44.41193" lon="5.23773">
        <ele>499</ele>
      </trkpt>
      <trkpt lat="44.41203" lon="5.23778">
        <ele>499</ele>
      </trkpt>
      <trkpt lat="44.41218" lon="5.23772">
        <ele>499</ele>
      </trkpt>
      <trkpt lat="44.41229" lon="5.23771">
        <ele>500</ele>
      </trkpt>
      <trkpt lat="44.41252" lon="5.23788">
        <ele>502</ele>
      </trkpt>
      <trkpt lat="44.4126" lon="5.23789">
        <ele>502</ele>
      </trkpt>
      <trkpt lat="44.41276" lon="5.23785">
        <ele>503</ele>
      </trkpt>
      <trkpt lat="44.41314" lon="5.23766">
        <ele>503</ele>
      </trkpt>
      <trkpt lat="44.41323" lon="5.23755">
        <ele>505</ele>
      </trkpt>
      <trkpt lat="44.41338" lon="5.23718">
        <ele>508</ele>
      </trkpt>
      <trkpt lat="44.4134" lon="5.23668">
        <ele>514</ele>
      </trkpt>
      <trkpt lat="44.41332" lon="5.23632">
        <ele>515</ele>
      </trkpt>
      <trkpt lat="44.41322" lon="5.23591">
        <ele>519</ele>
      </trkpt>
      <trkpt lat="44.4131" lon="5.23559">
        <ele>518</ele>
      </trkpt>
      <trkpt lat="44.4131" lon="5.23529">
        <ele>519</ele>
      </trkpt>
      <trkpt lat="44.41327" lon="5.23488">
        <ele>523</ele>
      </trkpt>
      <trkpt lat="44.41393" lon="5.23433">
        <ele>531</ele>
      </trkpt>
      <trkpt lat="44.41429" lon="5.23358">
        <ele>534</ele>
      </trkpt>
      <trkpt lat="44.41458" lon="5.2332">
        <ele>537</ele>
      </trkpt>
      <trkpt lat="44.41497" lon="5.23279">
        <ele>538</ele>
      </trkpt>
      <trkpt lat="44.41514" lon="5.2325">
        <ele>538</ele>
      </trkpt>
      <trkpt lat="44.41524" lon="5.23224">
        <ele>536</ele>
      </trkpt>
      <trkpt lat="44.41521" lon="5.23173">
        <ele>532</ele>
      </trkpt>
      <trkpt lat="44.41515" lon="5.23138">
        <ele>533</ele>
      </trkpt>
      <trkpt lat="44.41515" lon="5.23113">
        <ele>534</ele>
      </trkpt>
      <trkpt lat="44.4152" lon="5.23094">
        <ele>534</ele>
      </trkpt>
      <trkpt lat="44.41521" lon="5.23066">
        <ele>534</ele>
      </trkpt>
      <trkpt lat="44.41523" lon="5.23055">
        <ele>535</ele>
      </trkpt>
      <trkpt lat="44.41526" lon="5.23052">
        <ele>534</ele>
      </trkpt>
      <trkpt lat="44.41552" lon="5.23034">
        <ele>537</ele>
      </trkpt>
      <trkpt lat="44.41563" lon="5.23035">
        <ele>536</ele>
      </trkpt>
      <trkpt lat="44.41587" lon="5.23059">
        <ele>537</ele>
      </trkpt>
      <trkpt lat="44.41607" lon="5.23068">
        <ele>538</ele>
      </trkpt>
      <trkpt lat="44.41621" lon="5.2307">
        <ele>539</ele>
      </trkpt>
      <trkpt lat="44.41631" lon="5.23069">
        <ele>541</ele>
      </trkpt>
      <trkpt lat="44.4167" lon="5.2306">
        <ele>545</ele>
      </trkpt>
      <trkpt lat="44.41721" lon="5.23076">
        <ele>547</ele>
      </trkpt>
      <trkpt lat="44.4175" lon="5.23095">
        <ele>548</ele>
      </trkpt>
      <trkpt lat="44.41753" lon="5.2309">
        <ele>548</ele>
      </trkpt>
      <trkpt lat="44.41719" lon="5.22982">
        <ele>556</ele>
      </trkpt>
      <trkpt lat="44.41707" lon="5.22936">
        <ele>561</ele>
      </trkpt>
      <trkpt lat="44.41709" lon="5.2292">
        <ele>563</ele>
      </trkpt>
      <trkpt lat="44.41725" lon="5.22887">
        <ele>563</ele>
      </trkpt>
      <trkpt lat="44.41755" lon="5.2286">
        <ele>565</ele>
      </trkpt>
      <trkpt lat="44.41772" lon="5.22851">
        <ele>570</ele>
      </trkpt>
      <trkpt lat="44.41785" lon="5.22832">
        <ele>571</ele>
      </trkpt>
      <trkpt lat="44.41807" lon="5.22764">
        <ele>579</ele>
      </trkpt>
      <trkpt lat="44.41809" lon="5.22734">
        <ele>579</ele>
      </trkpt>
      <trkpt lat="44.41798" lon="5.22667">
        <ele>580</ele>
      </trkpt>
      <trkpt lat="44.4176" lon="5.22638">
        <ele>574</ele>
      </trkpt>
      <trkpt lat="44.41754" lon="5.22622">
        <ele>574</ele>
      </trkpt>
      <trkpt lat="44.41756" lon="5.22602">
        <ele>575</ele>
      </trkpt>
      <trkpt lat="44.41834" lon="5.22543">
        <ele>586</ele>
      </trkpt>
      <trkpt lat="44.41864" lon="5.22505">
        <ele>589</ele>
      </trkpt>
      <trkpt lat="44.41904" lon="5.2248">
        <ele>593</ele>
      </trkpt>
      <trkpt lat="44.41938" lon="5.22448">
        <ele>589</ele>
      </trkpt>
      <trkpt lat="44.4195" lon="5.22444">
        <ele>589</ele>
      </trkpt>
      <trkpt lat="44.4199" lon="5.22448">
        <ele>597</ele>
      </trkpt>
      <trkpt lat="44.41996" lon="5.22443">
        <ele>596</ele>
      </trkpt>
      <trkpt lat="44.42006" lon="5.22431">
        <ele>597</ele>
      </trkpt>
      <trkpt lat="44.42042" lon="5.22353">
        <ele>593</ele>
      </trkpt>
      <trkpt lat="44.42054" lon="5.22341">
        <ele>593</ele>
      </trkpt>
      <trkpt lat="44.42079" lon="5.22334">
        <ele>593</ele>
      </trkpt>
      <trkpt lat="44.42107" lon="5.22303">
        <ele>593</ele>
      </trkpt>
      <trkpt lat="44.42123" lon="5.22265">
        <ele>591</ele>
      </trkpt>
      <trkpt lat="44.42141" lon="5.22238">
        <ele>585</ele>
      </trkpt>
      <trkpt lat="44.4216" lon="5.22196">
        <ele>574</ele>
      </trkpt>
      <trkpt lat="44.42175" lon="5.22157">
        <ele>566</ele>
      </trkpt>
      <trkpt lat="44.42185" lon="5.22147">
        <ele>564</ele>
      </trkpt>
      <trkpt lat="44.42194" lon="5.22145">
        <ele>559</ele>
      </trkpt>
      <trkpt lat="44.42221" lon="5.22157">
        <ele>562</ele>
      </trkpt>
      <trkpt lat="44.42245" lon="5.22153">
        <ele>556</ele>
      </trkpt>
      <trkpt lat="44.42251" lon="5.22157">
        <ele>556</ele>
      </trkpt>
      <trkpt lat="44.42263" lon="5.22168">
        <ele>551</ele>
      </trkpt>
      <trkpt lat="44.42274" lon="5.22184">
        <ele>560</ele>
      </trkpt>
      <trkpt lat="44.42287" lon="5.22192">
        <ele>559</ele>
      </trkpt>
      <trkpt lat="44.42301" lon="5.22197">
        <ele>555</ele>
      </trkpt>
      <trkpt lat="44.42321" lon="5.22214">
        <ele>564</ele>
      </trkpt>
      <trkpt lat="44.42347" lon="5.22213">
        <ele>560</ele>
      </trkpt>
      <trkpt lat="44.4241" lon="5.22199">
        <ele>535</ele>
      </trkpt>
      <trkpt lat="44.42418" lon="5.22199">
        <ele>534</ele>
      </trkpt>
      <trkpt lat="44.42427" lon="5.22202">
        <ele>540</ele>
      </trkpt>
      <trkpt lat="44.42447" lon="5.22227">
        <ele>538</ele>
      </trkpt>
      <trkpt lat="44.42462" lon="5.22236">
        <ele>542</ele>
      </trkpt>
      <trkpt lat="44.42475" lon="5.22241">
        <ele>542</ele>
      </trkpt>
      <trkpt lat="44.42507" lon="5.22245">
        <ele>539</ele>
      </trkpt>
      <trkpt lat="44.42512" lon="5.22243">
        <ele>534</ele>
      </trkpt>
      <trkpt lat="44.42514" lon="5.22237">
        <ele>534</ele>
      </trkpt>
      <trkpt lat="44.42512" lon="5.22232">
        <ele>533</ele>
      </trkpt>
      <trkpt lat="44.42489" lon="5.2223">
        <ele>539</ele>
      </trkpt>
      <trkpt lat="44.4248" lon="5.22228">
        <ele>535</ele>
      </trkpt>
      <trkpt lat="44.42444" lon="5.22198">
        <ele>527</ele>
      </trkpt>
      <trkpt lat="44.42435" lon="5.22186">
        <ele>526</ele>
      </trkpt>
      <trkpt lat="44.42433" lon="5.22178">
        <ele>525</ele>
      </trkpt>
      <trkpt lat="44.42437" lon="5.22176">
        <ele>524</ele>
      </trkpt>
      <trkpt lat="44.42445" lon="5.22186">
        <ele>524</ele>
      </trkpt>
      <trkpt lat="44.42455" lon="5.22193">
        <ele>526</ele>
      </trkpt>
      <trkpt lat="44.42486" lon="5.22205">
        <ele>531</ele>
      </trkpt>
      <trkpt lat="44.42497" lon="5.22203">
        <ele>531</ele>
      </trkpt>
      <trkpt lat="44.42506" lon="5.22198">
        <ele>524</ele>
      </trkpt>
      <trkpt lat="44.42527" lon="5.22177">
        <ele>518</ele>
      </trkpt>
      <trkpt lat="44.42535" lon="5.22173">
        <ele>516</ele>
      </trkpt>
      <trkpt lat="44.42576" lon="5.22175">
        <ele>502</ele>
      </trkpt>
      <trkpt lat="44.42592" lon="5.22171">
        <ele>496</ele>
      </trkpt>
      <trkpt lat="44.426" lon="5.22173">
        <ele>494</ele>
      </trkpt>
      <trkpt lat="44.42604" lon="5.22182">
        <ele>494</ele>
      </trkpt>
      <trkpt lat="44.42609" lon="5.22218">
        <ele>496</ele>
      </trkpt>
      <trkpt lat="44.42616" lon="5.22255">
        <ele>496</ele>
      </trkpt>
      <trkpt lat="44.42622" lon="5.22308">
        <ele>501</ele>
      </trkpt>
      <trkpt lat="44.42625" lon="5.22319">
        <ele>498</ele>
      </trkpt>
      <trkpt lat="44.42631" lon="5.22328">
        <ele>498</ele>
      </trkpt>
      <trkpt lat="44.42648" lon="5.22342">
        <ele>500</ele>
      </trkpt>
      <trkpt lat="44.42666" lon="5.22355">
        <ele>494</ele>
      </trkpt>
      <trkpt lat="44.42692" lon="5.22368">
        <ele>489</ele>
      </trkpt>
      <trkpt lat="44.42695" lon="5.22378">
        <ele>490</ele>
      </trkpt>
      <trkpt lat="44.42708" lon="5.22389">
        <ele>484</ele>
      </trkpt>
      <trkpt lat="44.4271" lon="5.22383">
        <ele>483</ele>
      </trkpt>
      <trkpt lat="44.4271" lon="5.22377">
        <ele>483</ele>
      </trkpt>
      <trkpt lat="44.42674" lon="5.22327">
        <ele>488</ele>
      </trkpt>
      <trkpt lat="44.42667" lon="5.22305">
        <ele>485</ele>
      </trkpt>
      <trkpt lat="44.42669" lon="5.22299">
        <ele>484</ele>
      </trkpt>
      <trkpt lat="44.42681" lon="5.22289">
        <ele>478</ele>
      </trkpt>
      <trkpt lat="44.42691" lon="5.22275">
        <ele>474</ele>
      </trkpt>
      <trkpt lat="44.42695" lon="5.22258">
        <ele>474</ele>
      </trkpt>
      <trkpt lat="44.42698" lon="5.22228">
        <ele>469</ele>
      </trkpt>
      <trkpt lat="44.42693" lon="5.22184">
        <ele>468</ele>
      </trkpt>
      <trkpt lat="44.42694" lon="5.22172">
        <ele>469</ele>
      </trkpt>
      <trkpt lat="44.42713" lon="5.22133">
        <ele>464</ele>
      </trkpt>
      <trkpt lat="44.42733" lon="5.22113">
        <ele>460</ele>
      </trkpt>
      <trkpt lat="44.4274" lon="5.22119">
        <ele>451</ele>
      </trkpt>
      <trkpt lat="44.42737" lon="5.22125">
        <ele>452</ele>
      </trkpt>
      <trkpt lat="44.42717" lon="5.22152">
        <ele>462</ele>
      </trkpt>
      <trkpt lat="44.42714" lon="5.22168">
        <ele>462</ele>
      </trkpt>
      <trkpt lat="44.42713" lon="5.22184">
        <ele>461</ele>
      </trkpt>
      <trkpt lat="44.42727" lon="5.22208">
        <ele>461</ele>
      </trkpt>
      <trkpt lat="44.4273" lon="5.22225">
        <ele>461</ele>
      </trkpt>
      <trkpt lat="44.42736" lon="5.22234">
        <ele>456</ele>
      </trkpt>
      <trkpt lat="44.42742" lon="5.22235">
        <ele>455</ele>
      </trkpt>
      <trkpt lat="44.42747" lon="5.22228">
        <ele>453</ele>
      </trkpt>
      <trkpt lat="44.42743" lon="5.22213">
        <ele>454</ele>
      </trkpt>
      <trkpt lat="44.42739" lon="5.22191">
        <ele>453</ele>
      </trkpt>
      <trkpt lat="44.4274" lon="5.22174">
        <ele>453</ele>
      </trkpt>
      <trkpt lat="44.42766" lon="5.22132">
        <ele>438</ele>
      </trkpt>
      <trkpt lat="44.42774" lon="5.2211">
        <ele>436</ele>
      </trkpt>
      <trkpt lat="44.42776" lon="5.22093">
        <ele>435</ele>
      </trkpt>
      <trkpt lat="44.42763" lon="5.22044">
        <ele>435</ele>
      </trkpt>
      <trkpt lat="44.42769" lon="5.21997">
        <ele>430</ele>
      </trkpt>
      <trkpt lat="44.42769" lon="5.2198">
        <ele>429</ele>
      </trkpt>
      <trkpt lat="44.4277" lon="5.2197">
        <ele>426</ele>
      </trkpt>
      <trkpt lat="44.42777" lon="5.21973">
        <ele>425</ele>
      </trkpt>
      <trkpt lat="44.42779" lon="5.21982">
        <ele>428</ele>
      </trkpt>
      <trkpt lat="44.42782" lon="5.22">
        <ele>429</ele>
      </trkpt>
      <trkpt lat="44.42781" lon="5.22025">
        <ele>432</ele>
      </trkpt>
      <trkpt lat="44.42782" lon="5.22039">
        <ele>433</ele>
      </trkpt>
      <trkpt lat="44.42787" lon="5.22053">
        <ele>432</ele>
      </trkpt>
      <trkpt lat="44.42805" lon="5.22082">
        <ele>424</ele>
      </trkpt>
      <trkpt lat="44.42812" lon="5.22119">
        <ele>424</ele>
      </trkpt>
      <trkpt lat="44.42815" lon="5.22174">
        <ele>428</ele>
      </trkpt>
      <trkpt lat="44.42833" lon="5.2221">
        <ele>425</ele>
      </trkpt>
      <trkpt lat="44.42839" lon="5.22211">
        <ele>425</ele>
      </trkpt>
      <trkpt lat="44.42842" lon="5.22206">
        <ele>424</ele>
      </trkpt>
      <trkpt lat="44.42837" lon="5.2218">
        <ele>423</ele>
      </trkpt>
      <trkpt lat="44.42836" lon="5.22169">
        <ele>422</ele>
      </trkpt>
      <trkpt lat="44.42839" lon="5.22159">
        <ele>422</ele>
      </trkpt>
      <trkpt lat="44.42858" lon="5.22141">
        <ele>419</ele>
      </trkpt>
      <trkpt lat="44.42907" lon="5.2212">
        <ele>420</ele>
      </trkpt>
      <trkpt lat="44.42922" lon="5.22123">
        <ele>421</ele>
      </trkpt>
      <trkpt lat="44.42934" lon="5.22122">
        <ele>422</ele>
      </trkpt>
      <trkpt lat="44.42944" lon="5.22113">
        <ele>423</ele>
      </trkpt>
      <trkpt lat="44.4293" lon="5.2207">
        <ele>424</ele>
      </trkpt>
      <trkpt lat="44.42895" lon="5.22003">
        <ele>427</ele>
      </trkpt>
      <trkpt lat="44.42876" lon="5.21911">
        <ele>430</ele>
      </trkpt>
      <trkpt lat="44.42864" lon="5.21872">
        <ele>425</ele>
      </trkpt>
      <trkpt lat="44.42852" lon="5.21847">
        <ele>427</ele>
      </trkpt>
      <trkpt lat="44.42786" lon="5.21772">
        <ele>421</ele>
      </trkpt>
      <trkpt lat="44.42777" lon="5.21748">
        <ele>420</ele>
      </trkpt>
      <trkpt lat="44.42873" lon="5.21706">
        <ele>426</ele>
      </trkpt>
      <trkpt lat="44.42905" lon="5.21678">
        <ele>426</ele>
      </trkpt>
      <trkpt lat="44.43104" lon="5.21457">
        <ele>433</ele>
      </trkpt>
      <trkpt lat="44.4317" lon="5.21394">
        <ele>438</ele>
      </trkpt>
      <trkpt lat="44.43243" lon="5.21329">
        <ele>444</ele>
      </trkpt>
      <trkpt lat="44.43269" lon="5.21314">
        <ele>451</ele>
      </trkpt>
      <trkpt lat="44.43319" lon="5.21291">
        <ele>452</ele>
      </trkpt>
      <trkpt lat="44.43344" lon="5.21287">
        <ele>451</ele>
      </trkpt>
      <trkpt lat="44.43394" lon="5.21288">
        <ele>457</ele>
      </trkpt>
      <trkpt lat="44.43411" lon="5.21285">
        <ele>460</ele>
      </trkpt>
      <trkpt lat="44.43513" lon="5.21229">
        <ele>449</ele>
      </trkpt>
      <trkpt lat="44.43522" lon="5.21224">
        <ele>448</ele>
      </trkpt>
      <trkpt lat="44.43544" lon="5.21211">
        <ele>452</ele>
      </trkpt>
      <trkpt lat="44.43574" lon="5.21198">
        <ele>456</ele>
      </trkpt>
      <trkpt lat="44.43639" lon="5.21179">
        <ele>461</ele>
      </trkpt>
      <trkpt lat="44.4366" lon="5.2117">
        <ele>458</ele>
      </trkpt>
      <trkpt lat="44.43673" lon="5.21161">
        <ele>458</ele>
      </trkpt>
      <trkpt lat="44.43692" lon="5.21138">
        <ele>459</ele>
      </trkpt>
      <trkpt lat="44.4372" lon="5.21088">
        <ele>461</ele>
      </trkpt>
      <trkpt lat="44.43729" lon="5.21077">
        <ele>461</ele>
      </trkpt>
      <trkpt lat="44.43736" lon="5.21069">
        <ele>465</ele>
      </trkpt>
      <trkpt lat="44.43778" lon="5.2102">
        <ele>465</ele>
      </trkpt>
      <trkpt lat="44.43809" lon="5.20979">
        <ele>463</ele>
      </trkpt>
      <trkpt lat="44.43835" lon="5.20962">
        <ele>462</ele>
      </trkpt>
      <trkpt lat="44.4386" lon="5.20954">
        <ele>464</ele>
      </trkpt>
      <trkpt lat="44.43912" lon="5.20962">
        <ele>467</ele>
      </trkpt>
      <trkpt lat="44.43981" lon="5.20947">
        <ele>469</ele>
      </trkpt>
      <trkpt lat="44.4409" lon="5.20956">
        <ele>473</ele>
      </trkpt>
      <trkpt lat="44.44104" lon="5.20956">
        <ele>472</ele>
      </trkpt>
      <trkpt lat="44.44112" lon="5.20954">
        <ele>471</ele>
      </trkpt>
      <trkpt lat="44.44131" lon="5.20938">
        <ele>469</ele>
      </trkpt>
      <trkpt lat="44.44165" lon="5.2091">
        <ele>473</ele>
      </trkpt>
      <trkpt lat="44.44157" lon="5.20899">
        <ele>474</ele>
      </trkpt>
      <trkpt lat="44.44095" lon="5.20844">
        <ele>476</ele>
      </trkpt>
      <trkpt lat="44.44084" lon="5.20831">
        <ele>481</ele>
      </trkpt>
      <trkpt lat="44.44053" lon="5.20769">
        <ele>486</ele>
      </trkpt>
      <trkpt lat="44.44033" lon="5.2074">
        <ele>481</ele>
      </trkpt>
      <trkpt lat="44.44029" lon="5.20729">
        <ele>481</ele>
      </trkpt>
      <trkpt lat="44.44029" lon="5.20715">
        <ele>483</ele>
      </trkpt>
      <trkpt lat="44.44044" lon="5.20596">
        <ele>502</ele>
      </trkpt>
      <trkpt lat="44.44051" lon="5.20561">
        <ele>498</ele>
      </trkpt>
      <trkpt lat="44.44064" lon="5.20519">
        <ele>497</ele>
      </trkpt>
      <trkpt lat="44.4409" lon="5.2045">
        <ele>489</ele>
      </trkpt>
      <trkpt lat="44.441" lon="5.20429">
        <ele>494</ele>
      </trkpt>
      <trkpt lat="44.44117" lon="5.2041">
        <ele>490</ele>
      </trkpt>
      <trkpt lat="44.44166" lon="5.20379">
        <ele>513</ele>
      </trkpt>
      <trkpt lat="44.44179" lon="5.20366">
        <ele>516</ele>
      </trkpt>
      <trkpt lat="44.44214" lon="5.20307">
        <ele>508</ele>
      </trkpt>
      <trkpt lat="44.44251" lon="5.20223">
        <ele>502</ele>
      </trkpt>
      <trkpt lat="44.44262" lon="5.20205">
        <ele>502</ele>
      </trkpt>
      <trkpt lat="44.44275" lon="5.20191">
        <ele>501</ele>
      </trkpt>
      <trkpt lat="44.4432" lon="5.20165">
        <ele>506</ele>
      </trkpt>
      <trkpt lat="44.44334" lon="5.20162">
        <ele>505</ele>
      </trkpt>
      <trkpt lat="44.44346" lon="5.20163">
        <ele>508</ele>
      </trkpt>
      <trkpt lat="44.44437" lon="5.20184">
        <ele>519</ele>
      </trkpt>
      <trkpt lat="44.44448" lon="5.20181">
        <ele>518</ele>
      </trkpt>
      <trkpt lat="44.44472" lon="5.20166">
        <ele>513</ele>
      </trkpt>
      <trkpt lat="44.44483" lon="5.20168">
        <ele>515</ele>
      </trkpt>
      <trkpt lat="44.44491" lon="5.20177">
        <ele>518</ele>
      </trkpt>
      <trkpt lat="44.44496" lon="5.2019">
        <ele>519</ele>
      </trkpt>
      <trkpt lat="44.44502" lon="5.20199">
        <ele>521</ele>
      </trkpt>
      <trkpt lat="44.44514" lon="5.20205">
        <ele>526</ele>
      </trkpt>
      <trkpt lat="44.44527" lon="5.20204">
        <ele>524</ele>
      </trkpt>
      <trkpt lat="44.44544" lon="5.20196">
        <ele>518</ele>
      </trkpt>
      <trkpt lat="44.44556" lon="5.20195">
        <ele>517</ele>
      </trkpt>
      <trkpt lat="44.44565" lon="5.20197">
        <ele>518</ele>
      </trkpt>
      <trkpt lat="44.44586" lon="5.20207">
        <ele>522</ele>
      </trkpt>
      <trkpt lat="44.44606" lon="5.20206">
        <ele>527</ele>
      </trkpt>
      <trkpt lat="44.44624" lon="5.20216">
        <ele>533</ele>
      </trkpt>
      <trkpt lat="44.44646" lon="5.20219">
        <ele>535</ele>
      </trkpt>
      <trkpt lat="44.44661" lon="5.20213">
        <ele>539</ele>
      </trkpt>
      <trkpt lat="44.44675" lon="5.20199">
        <ele>532</ele>
      </trkpt>
      <trkpt lat="44.44681" lon="5.20182">
        <ele>530</ele>
      </trkpt>
      <trkpt lat="44.44686" lon="5.20163">
        <ele>524</ele>
      </trkpt>
      <trkpt lat="44.44694" lon="5.20157">
        <ele>522</ele>
      </trkpt>
      <trkpt lat="44.44703" lon="5.20164">
        <ele>523</ele>
      </trkpt>
      <trkpt lat="44.44714" lon="5.20167">
        <ele>522</ele>
      </trkpt>
      <trkpt lat="44.44733" lon="5.20155">
        <ele>520</ele>
      </trkpt>
      <trkpt lat="44.44741" lon="5.20155">
        <ele>520</ele>
      </trkpt>
      <trkpt lat="44.44752" lon="5.20163">
        <ele>521</ele>
      </trkpt>
      <trkpt lat="44.44765" lon="5.20167">
        <ele>525</ele>
      </trkpt>
      <trkpt lat="44.44784" lon="5.20166">
        <ele>526</ele>
      </trkpt>
      <trkpt lat="44.44835" lon="5.2017">
        <ele>530</ele>
      </trkpt>
      <trkpt lat="44.44915" lon="5.20156">
        <ele>522</ele>
      </trkpt>
      <trkpt lat="44.44924" lon="5.20149">
        <ele>522</ele>
      </trkpt>
      <trkpt lat="44.44926" lon="5.20137">
        <ele>519</ele>
      </trkpt>
      <trkpt lat="44.44927" lon="5.20097">
        <ele>519</ele>
      </trkpt>
      <trkpt lat="44.44932" lon="5.2008">
        <ele>522</ele>
      </trkpt>
      <trkpt lat="44.4494" lon="5.20069">
        <ele>523</ele>
      </trkpt>
      <trkpt lat="44.44962" lon="5.20059">
        <ele>526</ele>
      </trkpt>
      <trkpt lat="44.44995" lon="5.20055">
        <ele>526</ele>
      </trkpt>
      <trkpt lat="44.45007" lon="5.2005">
        <ele>526</ele>
      </trkpt>
      <trkpt lat="44.4501" lon="5.20039">
        <ele>526</ele>
      </trkpt>
      <trkpt lat="44.45008" lon="5.20029">
        <ele>528</ele>
      </trkpt>
      <trkpt lat="44.44987" lon="5.2001">
        <ele>530</ele>
      </trkpt>
      <trkpt lat="44.44956" lon="5.19998">
        <ele>533</ele>
      </trkpt>
      <trkpt lat="44.44926" lon="5.20001">
        <ele>532</ele>
      </trkpt>
      <trkpt lat="44.44896" lon="5.20011">
        <ele>530</ele>
      </trkpt>
      <trkpt lat="44.44885" lon="5.20007">
        <ele>531</ele>
      </trkpt>
      <trkpt lat="44.44871" lon="5.1999">
        <ele>536</ele>
      </trkpt>
      <trkpt lat="44.44859" lon="5.19968">
        <ele>538</ele>
      </trkpt>
      <trkpt lat="44.44832" lon="5.19954">
        <ele>540</ele>
      </trkpt>
      <trkpt lat="44.44798" lon="5.1995">
        <ele>541</ele>
      </trkpt>
      <trkpt lat="44.44777" lon="5.19964">
        <ele>539</ele>
      </trkpt>
      <trkpt lat="44.44764" lon="5.19981">
        <ele>536</ele>
      </trkpt>
      <trkpt lat="44.44757" lon="5.19981">
        <ele>538</ele>
      </trkpt>
      <trkpt lat="44.44753" lon="5.19976">
        <ele>543</ele>
      </trkpt>
      <trkpt lat="44.44754" lon="5.19969">
        <ele>543</ele>
      </trkpt>
      <trkpt lat="44.44797" lon="5.19918">
        <ele>553</ele>
      </trkpt>
      <trkpt lat="44.4483" lon="5.19903">
        <ele>551</ele>
      </trkpt>
      <trkpt lat="44.44854" lon="5.19904">
        <ele>550</ele>
      </trkpt>
      <trkpt lat="44.44876" lon="5.19894">
        <ele>556</ele>
      </trkpt>
      <trkpt lat="44.44894" lon="5.19891">
        <ele>557</ele>
      </trkpt>
      <trkpt lat="44.44915" lon="5.19897">
        <ele>554</ele>
      </trkpt>
      <trkpt lat="44.44931" lon="5.19895">
        <ele>556</ele>
      </trkpt>
      <trkpt lat="44.44947" lon="5.19888">
        <ele>563</ele>
      </trkpt>
      <trkpt lat="44.44957" lon="5.19888">
        <ele>563</ele>
      </trkpt>
      <trkpt lat="44.44964" lon="5.19892">
        <ele>563</ele>
      </trkpt>
      <trkpt lat="44.44994" lon="5.19912">
        <ele>557</ele>
      </trkpt>
      <trkpt lat="44.45011" lon="5.19914">
        <ele>556</ele>
      </trkpt>
      <trkpt lat="44.45017" lon="5.19909">
        <ele>555</ele>
      </trkpt>
      <trkpt lat="44.45021" lon="5.19897">
        <ele>557</ele>
      </trkpt>
      <trkpt lat="44.45022" lon="5.19853">
        <ele>572</ele>
      </trkpt>
      <trkpt lat="44.45026" lon="5.19844">
        <ele>573</ele>
      </trkpt>
      <trkpt lat="44.45032" lon="5.19841">
        <ele>573</ele>
      </trkpt>
      <trkpt lat="44.45039" lon="5.19843">
        <ele>574</ele>
      </trkpt>
      <trkpt lat="44.45066" lon="5.19878">
        <ele>566</ele>
      </trkpt>
      <trkpt lat="44.45076" lon="5.19886">
        <ele>566</ele>
      </trkpt>
      <trkpt lat="44.45088" lon="5.19885">
        <ele>566</ele>
      </trkpt>
      <trkpt lat="44.45122" lon="5.19868">
        <ele>569</ele>
      </trkpt>
      <trkpt lat="44.45179" lon="5.19821">
        <ele>584</ele>
      </trkpt>
      <trkpt lat="44.45242" lon="5.19782">
        <ele>581</ele>
      </trkpt>
      <trkpt lat="44.45254" lon="5.19762">
        <ele>584</ele>
      </trkpt>
      <trkpt lat="44.4527" lon="5.19753">
        <ele>590</ele>
      </trkpt>
      <trkpt lat="44.4529" lon="5.19746">
        <ele>590</ele>
      </trkpt>
      <trkpt lat="44.45372" lon="5.19681">
        <ele>587</ele>
      </trkpt>
      <trkpt lat="44.45385" lon="5.19659">
        <ele>586</ele>
      </trkpt>
      <trkpt lat="44.45393" lon="5.19632">
        <ele>594</ele>
      </trkpt>
      <trkpt lat="44.45426" lon="5.19565">
        <ele>593</ele>
      </trkpt>
      <trkpt lat="44.45454" lon="5.19475">
        <ele>612</ele>
      </trkpt>
      <trkpt lat="44.45462" lon="5.19458">
        <ele>606</ele>
      </trkpt>
      <trkpt lat="44.45495" lon="5.19424">
        <ele>606</ele>
      </trkpt>
      <trkpt lat="44.45507" lon="5.19405">
        <ele>613</ele>
      </trkpt>
      <trkpt lat="44.45515" lon="5.19374">
        <ele>615</ele>
      </trkpt>
      <trkpt lat="44.45552" lon="5.19299">
        <ele>619</ele>
      </trkpt>
      <trkpt lat="44.45554" lon="5.19284">
        <ele>621</ele>
      </trkpt>
      <trkpt lat="44.45552" lon="5.19268">
        <ele>625</ele>
      </trkpt>
      <trkpt lat="44.4555" lon="5.19235">
        <ele>630</ele>
      </trkpt>
      <trkpt lat="44.45563" lon="5.19175">
        <ele>637</ele>
      </trkpt>
      <trkpt lat="44.45581" lon="5.19146">
        <ele>635</ele>
      </trkpt>
      <trkpt lat="44.45584" lon="5.19129">
        <ele>638</ele>
      </trkpt>
      <trkpt lat="44.45582" lon="5.19099">
        <ele>642</ele>
      </trkpt>
      <trkpt lat="44.45585" lon="5.19076">
        <ele>648</ele>
      </trkpt>
      <trkpt lat="44.45595" lon="5.1906">
        <ele>654</ele>
      </trkpt>
      <trkpt lat="44.45617" lon="5.19049">
        <ele>646</ele>
      </trkpt>
      <trkpt lat="44.4565" lon="5.19016">
        <ele>647</ele>
      </trkpt>
      <trkpt lat="44.45678" lon="5.18992">
        <ele>651</ele>
      </trkpt>
      <trkpt lat="44.45695" lon="5.18985">
        <ele>648</ele>
      </trkpt>
      <trkpt lat="44.4572" lon="5.18971">
        <ele>651</ele>
      </trkpt>
      <trkpt lat="44.45727" lon="5.18962">
        <ele>651</ele>
      </trkpt>
      <trkpt lat="44.45731" lon="5.18945">
        <ele>656</ele>
      </trkpt>
      <trkpt lat="44.45731" lon="5.18916">
        <ele>660</ele>
      </trkpt>
      <trkpt lat="44.45739" lon="5.1888">
        <ele>662</ele>
      </trkpt>
      <trkpt lat="44.45758" lon="5.18856">
        <ele>666</ele>
      </trkpt>
      <trkpt lat="44.45782" lon="5.1884">
        <ele>664</ele>
      </trkpt>
      <trkpt lat="44.4581" lon="5.18825">
        <ele>667</ele>
      </trkpt>
      <trkpt lat="44.45818" lon="5.18815">
        <ele>667</ele>
      </trkpt>
      <trkpt lat="44.45828" lon="5.18794">
        <ele>668</ele>
      </trkpt>
      <trkpt lat="44.45856" lon="5.18711">
        <ele>675</ele>
      </trkpt>
      <trkpt lat="44.45863" lon="5.18703">
        <ele>675</ele>
      </trkpt>
      <trkpt lat="44.45884" lon="5.18686">
        <ele>673</ele>
      </trkpt>
      <trkpt lat="44.4589" lon="5.18673">
        <ele>674</ele>
      </trkpt>
      <trkpt lat="44.45896" lon="5.18653">
        <ele>677</ele>
      </trkpt>
      <trkpt lat="44.45899" lon="5.18628">
        <ele>680</ele>
      </trkpt>
      <trkpt lat="44.459" lon="5.186">
        <ele>681</ele>
      </trkpt>
      <trkpt lat="44.45897" lon="5.18578">
        <ele>683</ele>
      </trkpt>
      <trkpt lat="44.45888" lon="5.1855">
        <ele>684</ele>
      </trkpt>
      <trkpt lat="44.45876" lon="5.1853">
        <ele>686</ele>
      </trkpt>
      <trkpt lat="44.45874" lon="5.18514">
        <ele>686</ele>
      </trkpt>
      <trkpt lat="44.45881" lon="5.18324">
        <ele>698</ele>
      </trkpt>
      <trkpt lat="44.45883" lon="5.18304">
        <ele>701</ele>
      </trkpt>
      <trkpt lat="44.45888" lon="5.18279">
        <ele>704</ele>
      </trkpt>
      <trkpt lat="44.45898" lon="5.18256">
        <ele>705</ele>
      </trkpt>
      <trkpt lat="44.45912" lon="5.18186">
        <ele>712</ele>
      </trkpt>
      <trkpt lat="44.45925" lon="5.1815">
        <ele>714</ele>
      </trkpt>
      <trkpt lat="44.45926" lon="5.18141">
        <ele>715</ele>
      </trkpt>
      <trkpt lat="44.45924" lon="5.1813">
        <ele>715</ele>
      </trkpt>
      <trkpt lat="44.45916" lon="5.1812">
        <ele>715</ele>
      </trkpt>
      <trkpt lat="44.45904" lon="5.18113">
        <ele>714</ele>
      </trkpt>
      <trkpt lat="44.45893" lon="5.18099">
        <ele>715</ele>
      </trkpt>
      <trkpt lat="44.45885" lon="5.18047">
        <ele>712</ele>
      </trkpt>
      <trkpt lat="44.45886" lon="5.18036">
        <ele>713</ele>
      </trkpt>
      <trkpt lat="44.45901" lon="5.17997">
        <ele>716</ele>
      </trkpt>
      <trkpt lat="44.45905" lon="5.17962">
        <ele>716</ele>
      </trkpt>
      <trkpt lat="44.45902" lon="5.17923">
        <ele>716</ele>
      </trkpt>
      <trkpt lat="44.45894" lon="5.17861">
        <ele>725</ele>
      </trkpt>
      <trkpt lat="44.45904" lon="5.17838">
        <ele>726</ele>
      </trkpt>
      <trkpt lat="44.45938" lon="5.1781">
        <ele>726</ele>
      </trkpt>
      <trkpt lat="44.46096" lon="5.17602">
        <ele>734</ele>
      </trkpt>
      <trkpt lat="44.46128" lon="5.1759">
        <ele>734</ele>
      </trkpt>
      <trkpt lat="44.46158" lon="5.17592">
        <ele>733</ele>
      </trkpt>
      <trkpt lat="44.46176" lon="5.17596">
        <ele>733</ele>
      </trkpt>
      <trkpt lat="44.46186" lon="5.17569">
        <ele>730</ele>
      </trkpt>
      <trkpt lat="44.46217" lon="5.17521">
        <ele>727</ele>
      </trkpt>
      <trkpt lat="44.46239" lon="5.17491">
        <ele>723</ele>
      </trkpt>
      <trkpt lat="44.46243" lon="5.17454">
        <ele>724</ele>
      </trkpt>
      <trkpt lat="44.46253" lon="5.17416">
        <ele>727</ele>
      </trkpt>
      <trkpt lat="44.46272" lon="5.17373">
        <ele>722</ele>
      </trkpt>
      <trkpt lat="44.46275" lon="5.17359">
        <ele>720</ele>
      </trkpt>
      <trkpt lat="44.46271" lon="5.17346">
        <ele>720</ele>
      </trkpt>
      <trkpt lat="44.46255" lon="5.17312">
        <ele>723</ele>
      </trkpt>
      <trkpt lat="44.4624" lon="5.17268">
        <ele>720</ele>
      </trkpt>
      <trkpt lat="44.46194" lon="5.17173">
        <ele>721</ele>
      </trkpt>
      <trkpt lat="44.4619" lon="5.17159">
        <ele>718</ele>
      </trkpt>
      <trkpt lat="44.46191" lon="5.17152">
        <ele>718</ele>
      </trkpt>
      <trkpt lat="44.4621" lon="5.17129">
        <ele>710</ele>
      </trkpt>
      <trkpt lat="44.46233" lon="5.17094">
        <ele>707</ele>
      </trkpt>
      <trkpt lat="44.46237" lon="5.1708">
        <ele>702</ele>
      </trkpt>
      <trkpt lat="44.46235" lon="5.17068">
        <ele>705</ele>
      </trkpt>
      <trkpt lat="44.46171" lon="5.16982">
        <ele>708</ele>
      </trkpt>
      <trkpt lat="44.46083" lon="5.16931">
        <ele>710</ele>
      </trkpt>
      <trkpt lat="44.46042" lon="5.16913">
        <ele>707</ele>
      </trkpt>
      <trkpt lat="44.46002" lon="5.16866">
        <ele>707</ele>
      </trkpt>
      <trkpt lat="44.45987" lon="5.16838">
        <ele>697</ele>
      </trkpt>
      <trkpt lat="44.45948" lon="5.16831">
        <ele>699</ele>
      </trkpt>
      <trkpt lat="44.45893" lon="5.16775">
        <ele>699</ele>
      </trkpt>
      <trkpt lat="44.45868" lon="5.16771">
        <ele>701</ele>
      </trkpt>
      <trkpt lat="44.45856" lon="5.16748">
        <ele>698</ele>
      </trkpt>
      <trkpt lat="44.45848" lon="5.16599">
        <ele>677</ele>
      </trkpt>
      <trkpt lat="44.45855" lon="5.16572">
        <ele>673</ele>
      </trkpt>
      <trkpt lat="44.4586" lon="5.16532">
        <ele>669</ele>
      </trkpt>
      <trkpt lat="44.45834" lon="5.16481">
        <ele>671</ele>
      </trkpt>
      <trkpt lat="44.45815" lon="5.16475">
        <ele>672</ele>
      </trkpt>
      <trkpt lat="44.45766" lon="5.16517">
        <ele>692</ele>
      </trkpt>
      <trkpt lat="44.45729" lon="5.16499">
        <ele>682</ele>
      </trkpt>
      <trkpt lat="44.45697" lon="5.16493">
        <ele>683</ele>
      </trkpt>
      <trkpt lat="44.45692" lon="5.16479">
        <ele>683</ele>
      </trkpt>
      <trkpt lat="44.45727" lon="5.16423">
        <ele>669</ele>
      </trkpt>
      <trkpt lat="44.4575" lon="5.16401">
        <ele>660</ele>
      </trkpt>
      <trkpt lat="44.4577" lon="5.16341">
        <ele>654</ele>
      </trkpt>
      <trkpt lat="44.45751" lon="5.16283">
        <ele>659</ele>
      </trkpt>
      <trkpt lat="44.4574" lon="5.16163">
        <ele>650</ele>
      </trkpt>
      <trkpt lat="44.45728" lon="5.16101">
        <ele>654</ele>
      </trkpt>
      <trkpt lat="44.4571" lon="5.16049">
        <ele>648</ele>
      </trkpt>
      <trkpt lat="44.45707" lon="5.16002">
        <ele>646</ele>
      </trkpt>
      <trkpt lat="44.45699" lon="5.15956">
        <ele>645</ele>
      </trkpt>
      <trkpt lat="44.45654" lon="5.15855">
        <ele>641</ele>
      </trkpt>
      <trkpt lat="44.45623" lon="5.15812">
        <ele>646</ele>
      </trkpt>
      <trkpt lat="44.45612" lon="5.15781">
        <ele>643</ele>
      </trkpt>
      <trkpt lat="44.45623" lon="5.15742">
        <ele>639</ele>
      </trkpt>
      <trkpt lat="44.45617" lon="5.15679">
        <ele>635</ele>
      </trkpt>
      <trkpt lat="44.45606" lon="5.15648">
        <ele>632</ele>
      </trkpt>
      <trkpt lat="44.45592" lon="5.15629">
        <ele>633</ele>
      </trkpt>
      <trkpt lat="44.45555" lon="5.15622">
        <ele>637</ele>
      </trkpt>
      <trkpt lat="44.4551" lon="5.15589">
        <ele>631</ele>
      </trkpt>
      <trkpt lat="44.45493" lon="5.15582">
        <ele>627</ele>
      </trkpt>
      <trkpt lat="44.45471" lon="5.1558">
        <ele>628</ele>
      </trkpt>
      <trkpt lat="44.45459" lon="5.15575">
        <ele>628</ele>
      </trkpt>
      <trkpt lat="44.45447" lon="5.15568">
        <ele>629</ele>
      </trkpt>
      <trkpt lat="44.45441" lon="5.15561">
        <ele>628</ele>
      </trkpt>
      <trkpt lat="44.45437" lon="5.15551">
        <ele>625</ele>
      </trkpt>
      <trkpt lat="44.45429" lon="5.15509">
        <ele>622</ele>
      </trkpt>
      <trkpt lat="44.45423" lon="5.15498">
        <ele>619</ele>
      </trkpt>
      <trkpt lat="44.45416" lon="5.15492">
        <ele>620</ele>
      </trkpt>
      <trkpt lat="44.45407" lon="5.15487">
        <ele>619</ele>
      </trkpt>
      <trkpt lat="44.45352" lon="5.15474">
        <ele>618</ele>
      </trkpt>
      <trkpt lat="44.45337" lon="5.15467">
        <ele>619</ele>
      </trkpt>
      <trkpt lat="44.45323" lon="5.15451">
        <ele>619</ele>
      </trkpt>
      <trkpt lat="44.45312" lon="5.1543">
        <ele>618</ele>
      </trkpt>
      <trkpt lat="44.45299" lon="5.15412">
        <ele>617</ele>
      </trkpt>
      <trkpt lat="44.45287" lon="5.15399">
        <ele>618</ele>
      </trkpt>
      <trkpt lat="44.45265" lon="5.1538">
        <ele>616</ele>
      </trkpt>
      <trkpt lat="44.45255" lon="5.15367">
        <ele>616</ele>
      </trkpt>
      <trkpt lat="44.4525" lon="5.15337">
        <ele>614</ele>
      </trkpt>
      <trkpt lat="44.4525" lon="5.15262">
        <ele>614</ele>
      </trkpt>
      <trkpt lat="44.45264" lon="5.15249">
        <ele>613</ele>
      </trkpt>
      <trkpt lat="44.45301" lon="5.15253">
        <ele>611</ele>
      </trkpt>
      <trkpt lat="44.45446" lon="5.1529">
        <ele>609</ele>
      </trkpt>
      <trkpt lat="44.45543" lon="5.15299">
        <ele>606</ele>
      </trkpt>
      <trkpt lat="44.45668" lon="5.15287">
        <ele>597</ele>
      </trkpt>
      <trkpt lat="44.45685" lon="5.15282">
        <ele>597</ele>
      </trkpt>
      <trkpt lat="44.45701" lon="5.15271">
        <ele>598</ele>
      </trkpt>
      <trkpt lat="44.45717" lon="5.15253">
        <ele>597</ele>
      </trkpt>
      <trkpt lat="44.45769" lon="5.15168">
        <ele>597</ele>
      </trkpt>
      <trkpt lat="44.45811" lon="5.15116">
        <ele>598</ele>
      </trkpt>
      <trkpt lat="44.45829" lon="5.15103">
        <ele>598</ele>
      </trkpt>
      <trkpt lat="44.45863" lon="5.15097">
        <ele>594</ele>
      </trkpt>
      <trkpt lat="44.45912" lon="5.15066">
        <ele>593</ele>
      </trkpt>
      <trkpt lat="44.45983" lon="5.15009">
        <ele>589</ele>
      </trkpt>
      <trkpt lat="44.46052" lon="5.14924">
        <ele>586</ele>
      </trkpt>
      <trkpt lat="44.4608" lon="5.14865">
        <ele>588</ele>
      </trkpt>
      <trkpt lat="44.4618" lon="5.14753">
        <ele>581</ele>
      </trkpt>
      <trkpt lat="44.46191" lon="5.1474">
        <ele>581</ele>
      </trkpt>
      <trkpt lat="44.4622" lon="5.14708">
        <ele>583</ele>
      </trkpt>
      <trkpt lat="44.46283" lon="5.14727">
        <ele>581</ele>
      </trkpt>
      <trkpt lat="44.46299" lon="5.14722">
        <ele>579</ele>
      </trkpt>
      <trkpt lat="44.46323" lon="5.14686">
        <ele>577</ele>
      </trkpt>
      <trkpt lat="44.46407" lon="5.1451">
        <ele>574</ele>
      </trkpt>
      <trkpt lat="44.46496" lon="5.14259">
        <ele>569</ele>
      </trkpt>
      <trkpt lat="44.46545" lon="5.14204">
        <ele>568</ele>
      </trkpt>
      <trkpt lat="44.46784" lon="5.14019">
        <ele>564</ele>
      </trkpt>
      <trkpt lat="44.46897" lon="5.13863">
        <ele>560</ele>
      </trkpt>
      <trkpt lat="44.46954" lon="5.13709">
        <ele>554</ele>
      </trkpt>
      <trkpt lat="44.47002" lon="5.13621">
        <ele>551</ele>
      </trkpt>
      <trkpt lat="44.47018" lon="5.13609">
        <ele>550</ele>
      </trkpt>
      <trkpt lat="44.47034" lon="5.1361">
        <ele>550</ele>
      </trkpt>
      <trkpt lat="44.47079" lon="5.13622">
        <ele>556</ele>
      </trkpt>
      <trkpt lat="44.47111" lon="5.13618">
        <ele>559</ele>
      </trkpt>
      <trkpt lat="44.47137" lon="5.13598">
        <ele>563</ele>
      </trkpt>
      <trkpt lat="44.47294" lon="5.13393">
        <ele>565</ele>
      </trkpt>
      <trkpt lat="44.47414" lon="5.13307">
        <ele>559</ele>
      </trkpt>
      <trkpt lat="44.47486" lon="5.13237">
        <ele>564</ele>
      </trkpt>
      <trkpt lat="44.47539" lon="5.13149">
        <ele>552</ele>
      </trkpt>
      <trkpt lat="44.47614" lon="5.13049">
        <ele>549</ele>
      </trkpt>
      <trkpt lat="44.47654" lon="5.13025">
        <ele>552</ele>
      </trkpt>
      <trkpt lat="44.47873" lon="5.12885">
        <ele>542</ele>
      </trkpt>
      <trkpt lat="44.47924" lon="5.12878">
        <ele>541</ele>
      </trkpt>
      <trkpt lat="44.48173" lon="5.12848">
        <ele>539</ele>
      </trkpt>
      <trkpt lat="44.48292" lon="5.12809">
        <ele>522</ele>
      </trkpt>
      <trkpt lat="44.48313" lon="5.12803">
        <ele>523</ele>
      </trkpt>
      <trkpt lat="44.48371" lon="5.12782">
        <ele>538</ele>
      </trkpt>
      <trkpt lat="44.4839" lon="5.1277">
        <ele>537</ele>
      </trkpt>
      <trkpt lat="44.48406" lon="5.12757">
        <ele>544</ele>
      </trkpt>
      <trkpt lat="44.48417" lon="5.12746">
        <ele>535</ele>
      </trkpt>
      <trkpt lat="44.48425" lon="5.12732">
        <ele>535</ele>
      </trkpt>
      <trkpt lat="44.48438" lon="5.12708">
        <ele>535</ele>
      </trkpt>
      <trkpt lat="44.48478" lon="5.126">
        <ele>526</ele>
      </trkpt>
      <trkpt lat="44.48489" lon="5.12579">
        <ele>528</ele>
      </trkpt>
      <trkpt lat="44.48701" lon="5.1226">
        <ele>508</ele>
      </trkpt>
      <trkpt lat="44.48795" lon="5.12024">
        <ele>510</ele>
      </trkpt>
      <trkpt lat="44.48808" lon="5.12">
        <ele>509</ele>
      </trkpt>
      <trkpt lat="44.48818" lon="5.1199">
        <ele>508</ele>
      </trkpt>
      <trkpt lat="44.48837" lon="5.11978">
        <ele>511</ele>
      </trkpt>
      <trkpt lat="44.48883" lon="5.11956">
        <ele>515</ele>
      </trkpt>
      <trkpt lat="44.49183" lon="5.11792">
        <ele>512</ele>
      </trkpt>
      <trkpt lat="44.49212" lon="5.11778">
        <ele>506</ele>
      </trkpt>
      <trkpt lat="44.49251" lon="5.11763">
        <ele>506</ele>
      </trkpt>
      <trkpt lat="44.49414" lon="5.11694">
        <ele>497</ele>
      </trkpt>
      <trkpt lat="44.49435" lon="5.1168">
        <ele>501</ele>
      </trkpt>
      <trkpt lat="44.4945" lon="5.11664">
        <ele>496</ele>
      </trkpt>
      <trkpt lat="44.49532" lon="5.11562">
        <ele>491</ele>
      </trkpt>
      <trkpt lat="44.49552" lon="5.11545">
        <ele>489</ele>
      </trkpt>
      <trkpt lat="44.49564" lon="5.11538">
        <ele>488</ele>
      </trkpt>
      <trkpt lat="44.4958" lon="5.11531">
        <ele>487</ele>
      </trkpt>
      <trkpt lat="44.49641" lon="5.11508">
        <ele>484</ele>
      </trkpt>
      <trkpt lat="44.4965" lon="5.11506">
        <ele>484</ele>
      </trkpt>
      <trkpt lat="44.49659" lon="5.11505">
        <ele>483</ele>
      </trkpt>
      <trkpt lat="44.4968" lon="5.11498">
        <ele>483</ele>
      </trkpt>
      <trkpt lat="44.49712" lon="5.1148">
        <ele>481</ele>
      </trkpt>
      <trkpt lat="44.49753" lon="5.11464">
        <ele>479</ele>
      </trkpt>
      <trkpt lat="44.49945" lon="5.11421">
        <ele>487</ele>
      </trkpt>
      <trkpt lat="44.49948" lon="5.11419">
        <ele>487</ele>
      </trkpt>
      <trkpt lat="44.49959" lon="5.114">
        <ele>489</ele>
      </trkpt>
      <trkpt lat="44.50013" lon="5.11286">
        <ele>484</ele>
      </trkpt>
      <trkpt lat="44.5003" lon="5.11258">
        <ele>481</ele>
      </trkpt>
      <trkpt lat="44.50104" lon="5.11158">
        <ele>476</ele>
      </trkpt>
      <trkpt lat="44.50136" lon="5.11123">
        <ele>479</ele>
      </trkpt>
      <trkpt lat="44.50219" lon="5.11014">
        <ele>482</ele>
      </trkpt>
      <trkpt lat="44.50318" lon="5.10893">
        <ele>481</ele>
      </trkpt>
      <trkpt lat="44.50336" lon="5.10855">
        <ele>482</ele>
      </trkpt>
      <trkpt lat="44.50433" lon="5.10409">
        <ele>477</ele>
      </trkpt>
      <trkpt lat="44.50456" lon="5.10268">
        <ele>480</ele>
      </trkpt>
      <trkpt lat="44.50483" lon="5.1008">
        <ele>487</ele>
      </trkpt>
      <trkpt lat="44.50495" lon="5.09989">
        <ele>497</ele>
      </trkpt>
      <trkpt lat="44.50494" lon="5.09953">
        <ele>497</ele>
      </trkpt>
      <trkpt lat="44.50488" lon="5.09839">
        <ele>492</ele>
      </trkpt>
      <trkpt lat="44.50492" lon="5.09818">
        <ele>490</ele>
      </trkpt>
      <trkpt lat="44.50498" lon="5.09806">
        <ele>486</ele>
      </trkpt>
      <trkpt lat="44.50513" lon="5.098">
        <ele>487</ele>
      </trkpt>
      <trkpt lat="44.50577" lon="5.0979">
        <ele>493</ele>
      </trkpt>
      <trkpt lat="44.50703" lon="5.09785">
        <ele>498</ele>
      </trkpt>
      <trkpt lat="44.50713" lon="5.09784">
        <ele>499</ele>
      </trkpt>
      <trkpt lat="44.50719" lon="5.09777">
        <ele>495</ele>
      </trkpt>
      <trkpt lat="44.50733" lon="5.09782">
        <ele>499</ele>
      </trkpt>
      <trkpt lat="44.50745" lon="5.09783">
        <ele>500</ele>
      </trkpt>
      <trkpt lat="44.50803" lon="5.09783">
        <ele>502</ele>
      </trkpt>
      <trkpt lat="44.50844" lon="5.09778">
        <ele>503</ele>
      </trkpt>
      <trkpt lat="44.50884" lon="5.09762">
        <ele>502</ele>
      </trkpt>
      <trkpt lat="44.50898" lon="5.09751">
        <ele>501</ele>
      </trkpt>
      <trkpt lat="44.50909" lon="5.09738">
        <ele>499</ele>
      </trkpt>
      <trkpt lat="44.50917" lon="5.09725">
        <ele>499</ele>
      </trkpt>
      <trkpt lat="44.50974" lon="5.09587">
        <ele>498</ele>
      </trkpt>
      <trkpt lat="44.50984" lon="5.09546">
        <ele>495</ele>
      </trkpt>
      <trkpt lat="44.50997" lon="5.09426">
        <ele>486</ele>
      </trkpt>
      <trkpt lat="44.51023" lon="5.09333">
        <ele>478</ele>
      </trkpt>
      <trkpt lat="44.51036" lon="5.09256">
        <ele>477</ele>
      </trkpt>
      <trkpt lat="44.51042" lon="5.09248">
        <ele>473</ele>
      </trkpt>
      <trkpt lat="44.51049" lon="5.09247">
        <ele>473</ele>
      </trkpt>
      <trkpt lat="44.51056" lon="5.09252">
        <ele>472</ele>
      </trkpt>
      <trkpt lat="44.51061" lon="5.0926">
        <ele>472</ele>
      </trkpt>
      <trkpt lat="44.51069" lon="5.09308">
        <ele>471</ele>
      </trkpt>
      <trkpt lat="44.51095" lon="5.0943">
        <ele>470</ele>
      </trkpt>
      <trkpt lat="44.5111" lon="5.09481">
        <ele>470</ele>
      </trkpt>
      <trkpt lat="44.51135" lon="5.09527">
        <ele>468</ele>
      </trkpt>
      <trkpt lat="44.51198" lon="5.09604">
        <ele>465</ele>
      </trkpt>
      <trkpt lat="44.51207" lon="5.09613">
        <ele>465</ele>
      </trkpt>
      <trkpt lat="44.51215" lon="5.09616">
        <ele>464</ele>
      </trkpt>
      <trkpt lat="44.51222" lon="5.09612">
        <ele>462</ele>
      </trkpt>
      <trkpt lat="44.51228" lon="5.09603">
        <ele>461</ele>
      </trkpt>
      <trkpt lat="44.5123" lon="5.09592">
        <ele>460</ele>
      </trkpt>
      <trkpt lat="44.51227" lon="5.09548">
        <ele>454</ele>
      </trkpt>
      <trkpt lat="44.51228" lon="5.09503">
        <ele>452</ele>
      </trkpt>
      <trkpt lat="44.51233" lon="5.09475">
        <ele>451</ele>
      </trkpt>
      <trkpt lat="44.51296" lon="5.09304">
        <ele>445</ele>
      </trkpt>
      <trkpt lat="44.513" lon="5.09282">
        <ele>445</ele>
      </trkpt>
      <trkpt lat="44.51324" lon="5.09094">
        <ele>437</ele>
      </trkpt>
      <trkpt lat="44.5133" lon="5.09063">
        <ele>437</ele>
      </trkpt>
      <trkpt lat="44.51341" lon="5.09043">
        <ele>437</ele>
      </trkpt>
      <trkpt lat="44.51353" lon="5.09031">
        <ele>438</ele>
      </trkpt>
      <trkpt lat="44.51395" lon="5.09009">
        <ele>443</ele>
      </trkpt>
      <trkpt lat="44.51411" lon="5.08997">
        <ele>447</ele>
      </trkpt>
      <trkpt lat="44.51422" lon="5.08983">
        <ele>447</ele>
      </trkpt>
      <trkpt lat="44.51468" lon="5.08874">
        <ele>442</ele>
      </trkpt>
      <trkpt lat="44.51491" lon="5.08839">
        <ele>437</ele>
      </trkpt>
      <trkpt lat="44.51553" lon="5.08761">
        <ele>431</ele>
      </trkpt>
      <trkpt lat="44.51565" lon="5.0874">
        <ele>430</ele>
      </trkpt>
      <trkpt lat="44.51572" lon="5.08716">
        <ele>430</ele>
      </trkpt>
      <trkpt lat="44.51575" lon="5.08692">
        <ele>429</ele>
      </trkpt>
      <trkpt lat="44.51583" lon="5.08512">
        <ele>429</ele>
      </trkpt>
      <trkpt lat="44.51586" lon="5.08486">
        <ele>428</ele>
      </trkpt>
      <trkpt lat="44.51592" lon="5.08461">
        <ele>426</ele>
      </trkpt>
      <trkpt lat="44.51606" lon="5.08417">
        <ele>424</ele>
      </trkpt>
      <trkpt lat="44.51669" lon="5.08237">
        <ele>408</ele>
      </trkpt>
      <trkpt lat="44.51694" lon="5.08171">
        <ele>412</ele>
      </trkpt>
      <trkpt lat="44.51729" lon="5.0809">
        <ele>413</ele>
      </trkpt>
      <trkpt lat="44.51742" lon="5.08062">
        <ele>413</ele>
      </trkpt>
      <trkpt lat="44.51753" lon="5.08044">
        <ele>413</ele>
      </trkpt>
      <trkpt lat="44.51818" lon="5.07966">
        <ele>415</ele>
      </trkpt>
      <trkpt lat="44.51834" lon="5.07937">
        <ele>413</ele>
      </trkpt>
      <trkpt lat="44.51839" lon="5.07925">
        <ele>413</ele>
      </trkpt>
      <trkpt lat="44.51858" lon="5.07856">
        <ele>416</ele>
      </trkpt>
      <trkpt lat="44.5188" lon="5.07807">
        <ele>420</ele>
      </trkpt>
      <trkpt lat="44.51901" lon="5.0775">
        <ele>419</ele>
      </trkpt>
      <trkpt lat="44.51937" lon="5.07556">
        <ele>425</ele>
      </trkpt>
      <trkpt lat="44.52005" lon="5.07275">
        <ele>411</ele>
      </trkpt>
      <trkpt lat="44.52022" lon="5.07188">
        <ele>402</ele>
      </trkpt>
      <trkpt lat="44.52031" lon="5.07163">
        <ele>400</ele>
      </trkpt>
      <trkpt lat="44.52066" lon="5.07089">
        <ele>400</ele>
      </trkpt>
      <trkpt lat="44.52109" lon="5.06933">
        <ele>397</ele>
      </trkpt>
      <trkpt lat="44.52124" lon="5.06895">
        <ele>395</ele>
      </trkpt>
      <trkpt lat="44.52159" lon="5.06818">
        <ele>394</ele>
      </trkpt>
      <trkpt lat="44.5217" lon="5.06778">
        <ele>393</ele>
      </trkpt>
      <trkpt lat="44.5219" lon="5.0667">
        <ele>393</ele>
      </trkpt>
      <trkpt lat="44.52196" lon="5.06659">
        <ele>392</ele>
      </trkpt>
      <trkpt lat="44.5222" lon="5.06626">
        <ele>393</ele>
      </trkpt>
      <trkpt lat="44.5228" lon="5.06578">
        <ele>392</ele>
      </trkpt>
      <trkpt lat="44.5231" lon="5.06559">
        <ele>393</ele>
      </trkpt>
      <trkpt lat="44.52325" lon="5.06551">
        <ele>392</ele>
      </trkpt>
      <trkpt lat="44.52311" lon="5.06537">
        <ele>390</ele>
      </trkpt>
      <trkpt lat="44.52297" lon="5.06524">
        <ele>388</ele>
      </trkpt>
      <trkpt lat="44.52288" lon="5.06517">
        <ele>388</ele>
      </trkpt>
      <trkpt lat="44.52284" lon="5.06511">
        <ele>388</ele>
      </trkpt>
      <trkpt lat="44.52278" lon="5.06485">
        <ele>385</ele>
      </trkpt>
      <trkpt lat="44.52278" lon="5.06465">
        <ele>382</ele>
      </trkpt>
      <trkpt lat="44.52281" lon="5.0643">
        <ele>379</ele>
      </trkpt>
      <trkpt lat="44.52286" lon="5.06413">
        <ele>377</ele>
      </trkpt>
      <trkpt lat="44.52301" lon="5.06384">
        <ele>374</ele>
      </trkpt>
      <trkpt lat="44.52316" lon="5.06357">
        <ele>375</ele>
      </trkpt>
      <trkpt lat="44.52329" lon="5.06329">
        <ele>376</ele>
      </trkpt>
      <trkpt lat="44.52332" lon="5.06321">
        <ele>376</ele>
      </trkpt>
      <trkpt lat="44.52338" lon="5.0632">
        <ele>376</ele>
      </trkpt>
      <trkpt lat="44.5234" lon="5.06313">
        <ele>377</ele>
      </trkpt>
      <trkpt lat="44.52339" lon="5.06308">
        <ele>377</ele>
      </trkpt>
      <trkpt lat="44.52344" lon="5.06305">
        <ele>378</ele>
      </trkpt>
      <trkpt lat="44.52348" lon="5.063">
        <ele>379</ele>
      </trkpt>
      <trkpt lat="44.52447" lon="5.06131">
        <ele>384</ele>
      </trkpt>
      <trkpt lat="44.52451" lon="5.06134">
        <ele>384</ele>
      </trkpt>
      <trkpt lat="44.52457" lon="5.06132">
        <ele>384</ele>
      </trkpt>
      <trkpt lat="44.52459" lon="5.06123">
        <ele>384</ele>
      </trkpt>
      <trkpt lat="44.52457" lon="5.06116">
        <ele>384</ele>
      </trkpt>
      <trkpt lat="44.52469" lon="5.06098">
        <ele>386</ele>
      </trkpt>
      <trkpt lat="44.52478" lon="5.06066">
        <ele>386</ele>
      </trkpt>
      <trkpt lat="44.52501" lon="5.0602">
        <ele>389</ele>
      </trkpt>
      <trkpt lat="44.52507" lon="5.06001">
        <ele>390</ele>
      </trkpt>
      <trkpt lat="44.52513" lon="5.06002">
        <ele>390</ele>
      </trkpt>
      <trkpt lat="44.52544" lon="5.05979">
        <ele>393</ele>
      </trkpt>
      <trkpt lat="44.52603" lon="5.05974">
        <ele>391</ele>
      </trkpt>
      <trkpt lat="44.52619" lon="5.05975">
        <ele>391</ele>
      </trkpt>
      <trkpt lat="44.52641" lon="5.05955">
        <ele>392</ele>
      </trkpt>
      <trkpt lat="44.52731" lon="5.05887">
        <ele>402</ele>
      </trkpt>
      <trkpt lat="44.52733" lon="5.05869">
        <ele>403</ele>
      </trkpt>
      <trkpt lat="44.52745" lon="5.05832">
        <ele>409</ele>
      </trkpt>
      <trkpt lat="44.52754" lon="5.05761">
        <ele>410</ele>
      </trkpt>
      <trkpt lat="44.52764" lon="5.05706">
        <ele>412</ele>
      </trkpt>
      <trkpt lat="44.52768" lon="5.05691">
        <ele>413</ele>
      </trkpt>
      <trkpt lat="44.52796" lon="5.05639">
        <ele>415</ele>
      </trkpt>
      <trkpt lat="44.52822" lon="5.05583">
        <ele>417</ele>
      </trkpt>
      <trkpt lat="44.5285" lon="5.05539">
        <ele>416</ele>
      </trkpt>
      <trkpt lat="44.52872" lon="5.05507">
        <ele>415</ele>
      </trkpt>
      <trkpt lat="44.52885" lon="5.05439">
        <ele>416</ele>
      </trkpt>
      <trkpt lat="44.52888" lon="5.05381">
        <ele>419</ele>
      </trkpt>
      <trkpt lat="44.52881" lon="5.05366">
        <ele>419</ele>
      </trkpt>
      <trkpt lat="44.52858" lon="5.0534">
        <ele>420</ele>
      </trkpt>
      <trkpt lat="44.52833" lon="5.0527">
        <ele>425</ele>
      </trkpt>
      <trkpt lat="44.52817" lon="5.0525">
        <ele>424</ele>
      </trkpt>
      <trkpt lat="44.52765" lon="5.05193">
        <ele>424</ele>
      </trkpt>
      <trkpt lat="44.52712" lon="5.05139">
        <ele>425</ele>
      </trkpt>
      <trkpt lat="44.52677" lon="5.05113">
        <ele>420</ele>
      </trkpt>
      <trkpt lat="44.52625" lon="5.0503">
        <ele>424</ele>
      </trkpt>
      <trkpt lat="44.52609" lon="5.04995">
        <ele>426</ele>
      </trkpt>
      <trkpt lat="44.52584" lon="5.04901">
        <ele>429</ele>
      </trkpt>
      <trkpt lat="44.52573" lon="5.04852">
        <ele>430</ele>
      </trkpt>
      <trkpt lat="44.5257" lon="5.04819">
        <ele>424</ele>
      </trkpt>
      <trkpt lat="44.52569" lon="5.04774">
        <ele>422</ele>
      </trkpt>
      <trkpt lat="44.5258" lon="5.04701">
        <ele>425</ele>
      </trkpt>
      <trkpt lat="44.52611" lon="5.04615">
        <ele>421</ele>
      </trkpt>
      <trkpt lat="44.52631" lon="5.04576">
        <ele>416</ele>
      </trkpt>
      <trkpt lat="44.52696" lon="5.04513">
        <ele>411</ele>
      </trkpt>
      <trkpt lat="44.52722" lon="5.04481">
        <ele>409</ele>
      </trkpt>
      <trkpt lat="44.52747" lon="5.04426">
        <ele>404</ele>
      </trkpt>
      <trkpt lat="44.52762" lon="5.04376">
        <ele>398</ele>
      </trkpt>
      <trkpt lat="44.52772" lon="5.04298">
        <ele>392</ele>
      </trkpt>
      <trkpt lat="44.52761" lon="5.0424">
        <ele>393</ele>
      </trkpt>
      <trkpt lat="44.52744" lon="5.04174">
        <ele>394</ele>
      </trkpt>
      <trkpt lat="44.52737" lon="5.0413">
        <ele>393</ele>
      </trkpt>
      <trkpt lat="44.52744" lon="5.04109">
        <ele>391</ele>
      </trkpt>
      <trkpt lat="44.52802" lon="5.04083">
        <ele>383</ele>
      </trkpt>
      <trkpt lat="44.52843" lon="5.04067">
        <ele>378</ele>
      </trkpt>
      <trkpt lat="44.52861" lon="5.04041">
        <ele>375</ele>
      </trkpt>
      <trkpt lat="44.52861" lon="5.04016">
        <ele>375</ele>
      </trkpt>
      <trkpt lat="44.52851" lon="5.04006">
        <ele>375</ele>
      </trkpt>
      <trkpt lat="44.52838" lon="5.03999">
        <ele>374</ele>
      </trkpt>
      <trkpt lat="44.52823" lon="5.03996">
        <ele>374</ele>
      </trkpt>
      <trkpt lat="44.52814" lon="5.03989">
        <ele>374</ele>
      </trkpt>
      <trkpt lat="44.52807" lon="5.03972">
        <ele>372</ele>
      </trkpt>
      <trkpt lat="44.52763" lon="5.03823">
        <ele>365</ele>
      </trkpt>
      <trkpt lat="44.52754" lon="5.038">
        <ele>364</ele>
      </trkpt>
      <trkpt lat="44.52709" lon="5.03759">
        <ele>358</ele>
      </trkpt>
      <trkpt lat="44.52705" lon="5.03752">
        <ele>358</ele>
      </trkpt>
      <trkpt lat="44.52702" lon="5.03739">
        <ele>357</ele>
      </trkpt>
      <trkpt lat="44.52699" lon="5.03698">
        <ele>356</ele>
      </trkpt>
      <trkpt lat="44.52693" lon="5.03663">
        <ele>355</ele>
      </trkpt>
      <trkpt lat="44.52686" lon="5.03632">
        <ele>354</ele>
      </trkpt>
      <trkpt lat="44.52673" lon="5.03612">
        <ele>349</ele>
      </trkpt>
      <trkpt lat="44.52664" lon="5.03602">
        <ele>348</ele>
      </trkpt>
      <trkpt lat="44.5256" lon="5.03569">
        <ele>336</ele>
      </trkpt>
      <trkpt lat="44.52564" lon="5.03491">
        <ele>335</ele>
      </trkpt>
      <trkpt lat="44.52565" lon="5.03438">
        <ele>335</ele>
      </trkpt>
      <trkpt lat="44.52569" lon="5.03357">
        <ele>334</ele>
      </trkpt>
      <trkpt lat="44.52585" lon="5.03265">
        <ele>332</ele>
      </trkpt>
      <trkpt lat="44.5259" lon="5.03235">
        <ele>331</ele>
      </trkpt>
      <trkpt lat="44.5259" lon="5.03216">
        <ele>331</ele>
      </trkpt>
      <trkpt lat="44.52594" lon="5.03185">
        <ele>331</ele>
      </trkpt>
      <trkpt lat="44.52599" lon="5.03177">
        <ele>333</ele>
      </trkpt>
      <trkpt lat="44.52612" lon="5.031">
        <ele>333</ele>
      </trkpt>
      <trkpt lat="44.52631" lon="5.03005">
        <ele>335</ele>
      </trkpt>
      <trkpt lat="44.52671" lon="5.02866">
        <ele>332</ele>
      </trkpt>
      <trkpt lat="44.52684" lon="5.02834">
        <ele>330</ele>
      </trkpt>
      <trkpt lat="44.52691" lon="5.02819">
        <ele>329</ele>
      </trkpt>
      <trkpt lat="44.52703" lon="5.02801">
        <ele>328</ele>
      </trkpt>
      <trkpt lat="44.52883" lon="5.02575">
        <ele>328</ele>
      </trkpt>
      <trkpt lat="44.52911" lon="5.02533">
        <ele>328</ele>
      </trkpt>
      <trkpt lat="44.52934" lon="5.02489">
        <ele>328</ele>
      </trkpt>
      <trkpt lat="44.52946" lon="5.02456">
        <ele>327</ele>
      </trkpt>
      <trkpt lat="44.52955" lon="5.02418">
        <ele>326</ele>
      </trkpt>
      <trkpt lat="44.52958" lon="5.02355">
        <ele>324</ele>
      </trkpt>
      <trkpt lat="44.52965" lon="5.021">
        <ele>317</ele>
      </trkpt>
      <trkpt lat="44.52963" lon="5.01975">
        <ele>313</ele>
      </trkpt>
      <trkpt lat="44.52955" lon="5.01681">
        <ele>314</ele>
      </trkpt>
      <trkpt lat="44.52958" lon="5.0166">
        <ele>314</ele>
      </trkpt>
      <trkpt lat="44.53026" lon="5.01415">
        <ele>318</ele>
      </trkpt>
      <trkpt lat="44.53047" lon="5.0133">
        <ele>316</ele>
      </trkpt>
      <trkpt lat="44.5307" lon="5.01254">
        <ele>315</ele>
      </trkpt>
      <trkpt lat="44.53082" lon="5.012">
        <ele>314</ele>
      </trkpt>
      <trkpt lat="44.53102" lon="5.01084">
        <ele>312</ele>
      </trkpt>
      <trkpt lat="44.53114" lon="5.00983">
        <ele>308</ele>
      </trkpt>
      <trkpt lat="44.53122" lon="5.009">
        <ele>308</ele>
      </trkpt>
      <trkpt lat="44.53121" lon="5.00872">
        <ele>308</ele>
      </trkpt>
      <trkpt lat="44.53124" lon="5.00836">
        <ele>309</ele>
      </trkpt>
      <trkpt lat="44.53127" lon="5.00834">
        <ele>309</ele>
      </trkpt>
      <trkpt lat="44.53139" lon="5.0069">
        <ele>304</ele>
      </trkpt>
      <trkpt lat="44.53143" lon="5.00615">
        <ele>302</ele>
      </trkpt>
      <trkpt lat="44.53159" lon="5.00454">
        <ele>301</ele>
      </trkpt>
      <trkpt lat="44.53167" lon="5.00399">
        <ele>301</ele>
      </trkpt>
      <trkpt lat="44.53191" lon="5.00272">
        <ele>301</ele>
      </trkpt>
      <trkpt lat="44.53235" lon="5.00081">
        <ele>297</ele>
      </trkpt>
      <trkpt lat="44.53244" lon="5.00027">
        <ele>299</ele>
      </trkpt>
      <trkpt lat="44.53248" lon="4.99967">
        <ele>296</ele>
      </trkpt>
      <trkpt lat="44.53247" lon="4.9989">
        <ele>294</ele>
      </trkpt>
      <trkpt lat="44.5324" lon="4.99833">
        <ele>295</ele>
      </trkpt>
      <trkpt lat="44.53231" lon="4.99785">
        <ele>292</ele>
      </trkpt>
      <trkpt lat="44.53064" lon="4.99161">
        <ele>287</ele>
      </trkpt>
      <trkpt lat="44.53052" lon="4.99125">
        <ele>290</ele>
      </trkpt>
      <trkpt lat="44.53024" lon="4.99057">
        <ele>289</ele>
      </trkpt>
      <trkpt lat="44.53005" lon="4.99021">
        <ele>287</ele>
      </trkpt>
      <trkpt lat="44.52971" lon="4.98966">
        <ele>286</ele>
      </trkpt>
      <trkpt lat="44.52726" lon="4.9865">
        <ele>287</ele>
      </trkpt>
      <trkpt lat="44.52703" lon="4.9861">
        <ele>287</ele>
      </trkpt>
      <trkpt lat="44.52683" lon="4.98563">
        <ele>289</ele>
      </trkpt>
      <trkpt lat="44.52598" lon="4.98287">
        <ele>279</ele>
      </trkpt>
      <trkpt lat="44.52579" lon="4.98219">
        <ele>279</ele>
      </trkpt>
      <trkpt lat="44.52569" lon="4.98165">
        <ele>277</ele>
      </trkpt>
      <trkpt lat="44.52557" lon="4.98064">
        <ele>275</ele>
      </trkpt>
      <trkpt lat="44.52555" lon="4.97995">
        <ele>273</ele>
      </trkpt>
      <trkpt lat="44.52555" lon="4.97824">
        <ele>266</ele>
      </trkpt>
      <trkpt lat="44.52558" lon="4.97767">
        <ele>266</ele>
      </trkpt>
      <trkpt lat="44.5257" lon="4.97698">
        <ele>265</ele>
      </trkpt>
      <trkpt lat="44.52591" lon="4.97628">
        <ele>265</ele>
      </trkpt>
      <trkpt lat="44.52629" lon="4.9755">
        <ele>263</ele>
      </trkpt>
      <trkpt lat="44.53049" lon="4.96897">
        <ele>264</ele>
      </trkpt>
      <trkpt lat="44.53095" lon="4.96819">
        <ele>269</ele>
      </trkpt>
      <trkpt lat="44.53044" lon="4.96744">
        <ele>255</ele>
      </trkpt>
      <trkpt lat="44.53017" lon="4.96706">
        <ele>258</ele>
      </trkpt>
      <trkpt lat="44.53006" lon="4.96693">
        <ele>262</ele>
      </trkpt>
      <trkpt lat="44.52986" lon="4.96697">
        <ele>261</ele>
      </trkpt>
      <trkpt lat="44.52905" lon="4.96741">
        <ele>263</ele>
      </trkpt>
      <trkpt lat="44.52823" lon="4.96782">
        <ele>260</ele>
        <extensions>
          <visugpx:TrkExtension xmlns:visugpx="https://www.visugpx.com/editgpx/">
            <visugpx:node>1</visugpx:node>
            </visugpx:TrkExtension>
        </extensions>
      </trkpt>
    </trkseg>
  </trk>
  <trk>
    <name><![CDATA[Souspierre_8 ah]]></name>
    <extensions>
      <line xmlns="http://www.topografix.com/GPX/gpx_style/0/2">
        <color>880000</color>
        <width>4</width>
      </line>
    </extensions>
    <trkseg>
      <trkpt lat="44.52851" lon="4.96725">
        <ele>268</ele>
      </trkpt>
      <trkpt lat="44.5289" lon="4.96734">
        <ele>267</ele>
      </trkpt>
      <trkpt lat="44.52905" lon="4.96741">
        <ele>263</ele>
      </trkpt>
      <trkpt lat="44.52986" lon="4.96697">
        <ele>261</ele>
      </trkpt>
      <trkpt lat="44.53006" lon="4.96693">
        <ele>262</ele>
      </trkpt>
      <trkpt lat="44.53017" lon="4.96706">
        <ele>258</ele>
      </trkpt>
      <trkpt lat="44.53044" lon="4.96744">
        <ele>255</ele>
      </trkpt>
      <trkpt lat="44.53095" lon="4.96819">
        <ele>269</ele>
      </trkpt>
      <trkpt lat="44.53119" lon="4.96782">
        <ele>270</ele>
      </trkpt>
      <trkpt lat="44.53139" lon="4.96757">
        <ele>270</ele>
      </trkpt>
      <trkpt lat="44.53154" lon="4.96741">
        <ele>265</ele>
      </trkpt>
      <trkpt lat="44.53179" lon="4.9672">
        <ele>259</ele>
      </trkpt>
      <trkpt lat="44.53398" lon="4.96602">
        <ele>255</ele>
      </trkpt>
      <trkpt lat="44.53417" lon="4.96584">
        <ele>259</ele>
      </trkpt>
      <trkpt lat="44.53446" lon="4.96547">
        <ele>253</ele>
      </trkpt>
      <trkpt lat="44.53486" lon="4.96488">
        <ele>248</ele>
      </trkpt>
      <trkpt lat="44.53511" lon="4.96454">
        <ele>245</ele>
      </trkpt>
      <trkpt lat="44.53536" lon="4.96433">
        <ele>245</ele>
      </trkpt>
      <trkpt lat="44.53575" lon="4.96411">
        <ele>246</ele>
      </trkpt>
      <trkpt lat="44.53658" lon="4.96377">
        <ele>249</ele>
      </trkpt>
      <trkpt lat="44.53705" lon="4.96346">
        <ele>247</ele>
      </trkpt>
      <trkpt lat="44.53757" lon="4.96306">
        <ele>251</ele>
      </trkpt>
      <trkpt lat="44.53782" lon="4.96282">
        <ele>252</ele>
      </trkpt>
      <trkpt lat="44.53808" lon="4.96252">
        <ele>252</ele>
      </trkpt>
      <trkpt lat="44.53831" lon="4.9621">
        <ele>247</ele>
      </trkpt>
      <trkpt lat="44.53843" lon="4.96165">
        <ele>239</ele>
      </trkpt>
      <trkpt lat="44.53855" lon="4.96096">
        <ele>236</ele>
      </trkpt>
      <trkpt lat="44.53872" lon="4.96038">
        <ele>236</ele>
      </trkpt>
      <trkpt lat="44.53886" lon="4.96003">
        <ele>237</ele>
      </trkpt>
      <trkpt lat="44.53884" lon="4.96">
        <ele>237</ele>
      </trkpt>
      <trkpt lat="44.53802" lon="4.95894">
        <ele>239</ele>
      </trkpt>
      <trkpt lat="44.53798" lon="4.95884">
        <ele>239</ele>
      </trkpt>
      <trkpt lat="44.53819" lon="4.95728">
        <ele>240</ele>
      </trkpt>
      <trkpt lat="44.53818" lon="4.95585">
        <ele>238</ele>
      </trkpt>
      <trkpt lat="44.53829" lon="4.95509">
        <ele>237</ele>
      </trkpt>
      <trkpt lat="44.53825" lon="4.95499">
        <ele>238</ele>
      </trkpt>
      <trkpt lat="44.53816" lon="4.95492">
        <ele>238</ele>
      </trkpt>
      <trkpt lat="44.53775" lon="4.95489">
        <ele>240</ele>
      </trkpt>
      <trkpt lat="44.53768" lon="4.95481">
        <ele>240</ele>
      </trkpt>
      <trkpt lat="44.53768" lon="4.95473">
        <ele>240</ele>
      </trkpt>
      <trkpt lat="44.53768" lon="4.95466">
        <ele>241</ele>
      </trkpt>
      <trkpt lat="44.53804" lon="4.95231">
        <ele>245</ele>
      </trkpt>
      <trkpt lat="44.53792" lon="4.95102">
        <ele>246</ele>
      </trkpt>
      <trkpt lat="44.53794" lon="4.95038">
        <ele>246</ele>
      </trkpt>
      <trkpt lat="44.53805" lon="4.95003">
        <ele>245</ele>
      </trkpt>
      <trkpt lat="44.53804" lon="4.94997">
        <ele>245</ele>
      </trkpt>
      <trkpt lat="44.53801" lon="4.94992">
        <ele>245</ele>
      </trkpt>
      <trkpt lat="44.53756" lon="4.94992">
        <ele>252</ele>
      </trkpt>
      <trkpt lat="44.53752" lon="4.94984">
        <ele>253</ele>
      </trkpt>
      <trkpt lat="44.53752" lon="4.94966">
        <ele>253</ele>
      </trkpt>
      <trkpt lat="44.53761" lon="4.94908">
        <ele>253</ele>
      </trkpt>
      <trkpt lat="44.53762" lon="4.94869">
        <ele>253</ele>
      </trkpt>
      <trkpt lat="44.53744" lon="4.94812">
        <ele>256</ele>
      </trkpt>
      <trkpt lat="44.53729" lon="4.94754">
        <ele>264</ele>
      </trkpt>
      <trkpt lat="44.53738" lon="4.94711">
        <ele>261</ele>
      </trkpt>
      <trkpt lat="44.5374" lon="4.94667">
        <ele>262</ele>
      </trkpt>
      <trkpt lat="44.53749" lon="4.94655">
        <ele>262</ele>
      </trkpt>
      <trkpt lat="44.5378" lon="4.94655">
        <ele>258</ele>
      </trkpt>
      <trkpt lat="44.53793" lon="4.94644">
        <ele>253</ele>
      </trkpt>
      <trkpt lat="44.53802" lon="4.94617">
        <ele>252</ele>
      </trkpt>
      <trkpt lat="44.53802" lon="4.94593">
        <ele>251</ele>
      </trkpt>
      <trkpt lat="44.53796" lon="4.9454">
        <ele>251</ele>
      </trkpt>
      <trkpt lat="44.53803" lon="4.945">
        <ele>250</ele>
      </trkpt>
      <trkpt lat="44.53812" lon="4.94485">
        <ele>250</ele>
      </trkpt>
      <trkpt lat="44.53884" lon="4.94443">
        <ele>241</ele>
      </trkpt>
      <trkpt lat="44.53897" lon="4.94427">
        <ele>240</ele>
      </trkpt>
      <trkpt lat="44.53899" lon="4.94411">
        <ele>239</ele>
      </trkpt>
      <trkpt lat="44.53898" lon="4.94386">
        <ele>238</ele>
      </trkpt>
      <trkpt lat="44.5389" lon="4.9431">
        <ele>236</ele>
      </trkpt>
      <trkpt lat="44.53878" lon="4.94286">
        <ele>237</ele>
      </trkpt>
      <trkpt lat="44.53844" lon="4.94236">
        <ele>241</ele>
      </trkpt>
      <trkpt lat="44.53841" lon="4.94226">
        <ele>241</ele>
      </trkpt>
      <trkpt lat="44.53842" lon="4.94212">
        <ele>242</ele>
      </trkpt>
      <trkpt lat="44.53852" lon="4.942">
        <ele>240</ele>
      </trkpt>
      <trkpt lat="44.5388" lon="4.94189">
        <ele>237</ele>
      </trkpt>
      <trkpt lat="44.53917" lon="4.94165">
        <ele>232</ele>
      </trkpt>
      <trkpt lat="44.53964" lon="4.94139">
        <ele>227</ele>
      </trkpt>
      <trkpt lat="44.53979" lon="4.94118">
        <ele>227</ele>
      </trkpt>
      <trkpt lat="44.53997" lon="4.94069">
        <ele>224</ele>
      </trkpt>
      <trkpt lat="44.54016" lon="4.94005">
        <ele>222</ele>
      </trkpt>
      <trkpt lat="44.54038" lon="4.93916">
        <ele>219</ele>
      </trkpt>
      <trkpt lat="44.54049" lon="4.93884">
        <ele>220</ele>
      </trkpt>
      <trkpt lat="44.54061" lon="4.9386">
        <ele>221</ele>
      </trkpt>
      <trkpt lat="44.54155" lon="4.93813">
        <ele>220</ele>
      </trkpt>
      <trkpt lat="44.54177" lon="4.9381">
        <ele>220</ele>
      </trkpt>
      <trkpt lat="44.54191" lon="4.93802">
        <ele>219</ele>
      </trkpt>
      <trkpt lat="44.54195" lon="4.93796">
        <ele>219</ele>
      </trkpt>
      <trkpt lat="44.542" lon="4.93786">
        <ele>219</ele>
      </trkpt>
      <trkpt lat="44.54203" lon="4.9377">
        <ele>218</ele>
      </trkpt>
      <trkpt lat="44.5421" lon="4.9369">
        <ele>215</ele>
      </trkpt>
      <trkpt lat="44.54214" lon="4.93668">
        <ele>215</ele>
      </trkpt>
      <trkpt lat="44.5425" lon="4.93603">
        <ele>212</ele>
      </trkpt>
      <trkpt lat="44.54281" lon="4.93536">
        <ele>211</ele>
      </trkpt>
      <trkpt lat="44.54308" lon="4.93493">
        <ele>214</ele>
      </trkpt>
      <trkpt lat="44.54313" lon="4.93475">
        <ele>214</ele>
      </trkpt>
      <trkpt lat="44.53809" lon="4.93365">
        <ele>226</ele>
      </trkpt>
      <trkpt lat="44.53775" lon="4.93358">
        <ele>227</ele>
      </trkpt>
      <trkpt lat="44.53777" lon="4.9331">
        <ele>227</ele>
      </trkpt>
      <trkpt lat="44.53788" lon="4.93165">
        <ele>225</ele>
      </trkpt>
      <trkpt lat="44.53809" lon="4.92919">
        <ele>227</ele>
      </trkpt>
      <trkpt lat="44.5381" lon="4.92885">
        <ele>224</ele>
      </trkpt>
      <trkpt lat="44.53806" lon="4.92863">
        <ele>224</ele>
      </trkpt>
      <trkpt lat="44.53714" lon="4.92752">
        <ele>220</ele>
      </trkpt>
      <trkpt lat="44.53692" lon="4.92727">
        <ele>221</ele>
      </trkpt>
      <trkpt lat="44.53675" lon="4.92708">
        <ele>223</ele>
      </trkpt>
      <trkpt lat="44.53666" lon="4.92693">
        <ele>223</ele>
      </trkpt>
      <trkpt lat="44.53663" lon="4.92684">
        <ele>222</ele>
      </trkpt>
      <trkpt lat="44.53657" lon="4.92661">
        <ele>222</ele>
      </trkpt>
      <trkpt lat="44.53615" lon="4.92462">
        <ele>223</ele>
      </trkpt>
      <trkpt lat="44.53603" lon="4.92433">
        <ele>222</ele>
      </trkpt>
      <trkpt lat="44.53155" lon="4.91755">
        <ele>226</ele>
      </trkpt>
      <trkpt lat="44.53131" lon="4.91722">
        <ele>226</ele>
      </trkpt>
      <trkpt lat="44.53118" lon="4.91697">
        <ele>226</ele>
      </trkpt>
      <trkpt lat="44.53112" lon="4.91678">
        <ele>226</ele>
      </trkpt>
      <trkpt lat="44.53087" lon="4.91584">
        <ele>228</ele>
      </trkpt>
      <trkpt lat="44.5304" lon="4.91424">
        <ele>225</ele>
      </trkpt>
      <trkpt lat="44.52944" lon="4.91162">
        <ele>225</ele>
      </trkpt>
      <trkpt lat="44.52942" lon="4.91161">
        <ele>225</ele>
      </trkpt>
      <trkpt lat="44.5293" lon="4.91148">
        <ele>226</ele>
      </trkpt>
      <trkpt lat="44.52678" lon="4.90834">
        <ele>231</ele>
      </trkpt>
      <trkpt lat="44.5261" lon="4.90752">
        <ele>234</ele>
      </trkpt>
      <trkpt lat="44.52355" lon="4.90437">
        <ele>236</ele>
      </trkpt>
      <trkpt lat="44.52318" lon="4.90383">
        <ele>237</ele>
      </trkpt>
      <trkpt lat="44.52308" lon="4.90365">
        <ele>237</ele>
      </trkpt>
      <trkpt lat="44.52286" lon="4.90312">
        <ele>235</ele>
      </trkpt>
      <trkpt lat="44.52148" lon="4.89961">
        <ele>226</ele>
      </trkpt>
      <trkpt lat="44.5213" lon="4.89915">
        <ele>226</ele>
      </trkpt>
      <trkpt lat="44.52111" lon="4.89873">
        <ele>227</ele>
      </trkpt>
      <trkpt lat="44.52095" lon="4.89847">
        <ele>228</ele>
      </trkpt>
      <trkpt lat="44.51975" lon="4.89719">
        <ele>226</ele>
      </trkpt>
      <trkpt lat="44.51957" lon="4.89696">
        <ele>226</ele>
      </trkpt>
      <trkpt lat="44.51946" lon="4.89672">
        <ele>225</ele>
      </trkpt>
      <trkpt lat="44.51939" lon="4.89652">
        <ele>224</ele>
      </trkpt>
      <trkpt lat="44.51892" lon="4.8938">
        <ele>226</ele>
      </trkpt>
      <trkpt lat="44.51885" lon="4.89354">
        <ele>227</ele>
      </trkpt>
      <trkpt lat="44.51871" lon="4.89326">
        <ele>227</ele>
      </trkpt>
      <trkpt lat="44.51608" lon="4.88916">
        <ele>239</ele>
      </trkpt>
      <trkpt lat="44.51556" lon="4.8884">
        <ele>247</ele>
      </trkpt>
      <trkpt lat="44.51502" lon="4.88779">
        <ele>250</ele>
      </trkpt>
      <trkpt lat="44.51494" lon="4.88772">
        <ele>251</ele>
      </trkpt>
      <trkpt lat="44.5149" lon="4.8876">
        <ele>251</ele>
      </trkpt>
      <trkpt lat="44.51493" lon="4.88727">
        <ele>250</ele>
      </trkpt>
      <trkpt lat="44.51496" lon="4.88716">
        <ele>248</ele>
      </trkpt>
      <trkpt lat="44.51498" lon="4.8865">
        <ele>246</ele>
      </trkpt>
      <trkpt lat="44.51522" lon="4.88102">
        <ele>248</ele>
      </trkpt>
      <trkpt lat="44.51527" lon="4.88058">
        <ele>248</ele>
      </trkpt>
      <trkpt lat="44.51539" lon="4.8802">
        <ele>250</ele>
      </trkpt>
      <trkpt lat="44.51549" lon="4.88001">
        <ele>248</ele>
      </trkpt>
      <trkpt lat="44.5156" lon="4.87983">
        <ele>249</ele>
      </trkpt>
      <trkpt lat="44.51625" lon="4.87917">
        <ele>251</ele>
      </trkpt>
      <trkpt lat="44.51632" lon="4.87905">
        <ele>252</ele>
      </trkpt>
      <trkpt lat="44.51641" lon="4.87886">
        <ele>252</ele>
      </trkpt>
      <trkpt lat="44.51645" lon="4.87866">
        <ele>254</ele>
      </trkpt>
      <trkpt lat="44.5166" lon="4.8773">
        <ele>255</ele>
      </trkpt>
      <trkpt lat="44.517" lon="4.8734">
        <ele>257</ele>
      </trkpt>
      <trkpt lat="44.51699" lon="4.87293">
        <ele>258</ele>
      </trkpt>
      <trkpt lat="44.51654" lon="4.8695">
        <ele>260</ele>
      </trkpt>
      <trkpt lat="44.51644" lon="4.86901">
        <ele>261</ele>
      </trkpt>
      <trkpt lat="44.51611" lon="4.86784">
        <ele>264</ele>
      </trkpt>
      <trkpt lat="44.51548" lon="4.86538">
        <ele>265</ele>
      </trkpt>
      <trkpt lat="44.51528" lon="4.86436">
        <ele>269</ele>
      </trkpt>
      <trkpt lat="44.51484" lon="4.86304">
        <ele>275</ele>
      </trkpt>
      <trkpt lat="44.51472" lon="4.86275">
        <ele>274</ele>
      </trkpt>
      <trkpt lat="44.51408" lon="4.86172">
        <ele>271</ele>
      </trkpt>
      <trkpt lat="44.5138" lon="4.86135">
        <ele>266</ele>
      </trkpt>
      <trkpt lat="44.51351" lon="4.86112">
        <ele>270</ele>
      </trkpt>
      <trkpt lat="44.51312" lon="4.86096">
        <ele>276</ele>
      </trkpt>
      <trkpt lat="44.51248" lon="4.86087">
        <ele>284</ele>
      </trkpt>
      <trkpt lat="44.51195" lon="4.86087">
        <ele>288</ele>
      </trkpt>
      <trkpt lat="44.51154" lon="4.86093">
        <ele>289</ele>
      </trkpt>
      <trkpt lat="44.5114" lon="4.861">
        <ele>290</ele>
      </trkpt>
      <trkpt lat="44.5112" lon="4.86114">
        <ele>292</ele>
      </trkpt>
      <trkpt lat="44.5109" lon="4.86141">
        <ele>290</ele>
      </trkpt>
      <trkpt lat="44.51071" lon="4.8616">
        <ele>289</ele>
      </trkpt>
      <trkpt lat="44.51041" lon="4.86199">
        <ele>287</ele>
      </trkpt>
      <trkpt lat="44.50967" lon="4.86277">
        <ele>282</ele>
      </trkpt>
      <trkpt lat="44.5094" lon="4.86293">
        <ele>278</ele>
      </trkpt>
      <trkpt lat="44.50921" lon="4.86299">
        <ele>276</ele>
      </trkpt>
      <trkpt lat="44.50881" lon="4.86298">
        <ele>275</ele>
      </trkpt>
      <trkpt lat="44.50851" lon="4.86294">
        <ele>272</ele>
      </trkpt>
      <trkpt lat="44.5081" lon="4.86282">
        <ele>268</ele>
      </trkpt>
      <trkpt lat="44.50758" lon="4.86255">
        <ele>265</ele>
      </trkpt>
      <trkpt lat="44.50744" lon="4.86249">
        <ele>265</ele>
      </trkpt>
      <trkpt lat="44.50725" lon="4.86251">
        <ele>265</ele>
      </trkpt>
      <trkpt lat="44.5069" lon="4.86269">
        <ele>264</ele>
      </trkpt>
      <trkpt lat="44.50666" lon="4.86284">
        <ele>262</ele>
      </trkpt>
      <trkpt lat="44.50646" lon="4.86304">
        <ele>262</ele>
      </trkpt>
      <trkpt lat="44.50631" lon="4.86338">
        <ele>263</ele>
      </trkpt>
      <trkpt lat="44.50628" lon="4.86381">
        <ele>264</ele>
      </trkpt>
      <trkpt lat="44.50629" lon="4.86401">
        <ele>264</ele>
      </trkpt>
      <trkpt lat="44.50633" lon="4.86418">
        <ele>263</ele>
      </trkpt>
      <trkpt lat="44.50657" lon="4.86452">
        <ele>263</ele>
      </trkpt>
      <trkpt lat="44.50658" lon="4.86461">
        <ele>263</ele>
      </trkpt>
      <trkpt lat="44.50656" lon="4.86472">
        <ele>261</ele>
      </trkpt>
      <trkpt lat="44.5065" lon="4.86476">
        <ele>260</ele>
      </trkpt>
      <trkpt lat="44.50644" lon="4.86475">
        <ele>260</ele>
      </trkpt>
      <trkpt lat="44.50626" lon="4.86468">
        <ele>261</ele>
      </trkpt>
      <trkpt lat="44.50589" lon="4.86441">
        <ele>257</ele>
      </trkpt>
      <trkpt lat="44.50566" lon="4.86421">
        <ele>256</ele>
      </trkpt>
      <trkpt lat="44.50529" lon="4.86407">
        <ele>253</ele>
      </trkpt>
      <trkpt lat="44.50476" lon="4.86384">
        <ele>248</ele>
      </trkpt>
      <trkpt lat="44.50419" lon="4.86318">
        <ele>242</ele>
      </trkpt>
      <trkpt lat="44.50398" lon="4.86282">
        <ele>238</ele>
      </trkpt>
      <trkpt lat="44.50397" lon="4.86274">
        <ele>238</ele>
      </trkpt>
      <trkpt lat="44.50388" lon="4.86191">
        <ele>238</ele>
      </trkpt>
      <trkpt lat="44.50394" lon="4.86153">
        <ele>236</ele>
      </trkpt>
      <trkpt lat="44.5039" lon="4.86108">
        <ele>236</ele>
      </trkpt>
      <trkpt lat="44.50375" lon="4.85992">
        <ele>228</ele>
      </trkpt>
      <trkpt lat="44.50366" lon="4.85918">
        <ele>227</ele>
      </trkpt>
      <trkpt lat="44.50362" lon="4.85912">
        <ele>226</ele>
      </trkpt>
      <trkpt lat="44.50359" lon="4.85905">
        <ele>226</ele>
      </trkpt>
      <trkpt lat="44.50339" lon="4.8589">
        <ele>223</ele>
      </trkpt>
      <trkpt lat="44.50309" lon="4.8588">
        <ele>220</ele>
      </trkpt>
      <trkpt lat="44.50295" lon="4.85979">
        <ele>221</ele>
      </trkpt>
      <trkpt lat="44.50245" lon="4.86302">
        <ele>226</ele>
      </trkpt>
      <trkpt lat="44.5024" lon="4.8633">
        <ele>226</ele>
      </trkpt>
      <trkpt lat="44.50232" lon="4.86358">
        <ele>226</ele>
      </trkpt>
      <trkpt lat="44.5022" lon="4.86388">
        <ele>226</ele>
      </trkpt>
      <trkpt lat="44.50211" lon="4.86405">
        <ele>226</ele>
      </trkpt>
      <trkpt lat="44.50198" lon="4.86416">
        <ele>227</ele>
      </trkpt>
      <trkpt lat="44.50184" lon="4.86417">
        <ele>226</ele>
      </trkpt>
      <trkpt lat="44.50176" lon="4.86416">
        <ele>226</ele>
      </trkpt>
      <trkpt lat="44.50157" lon="4.86398">
        <ele>226</ele>
      </trkpt>
      <trkpt lat="44.5015" lon="4.86395">
        <ele>226</ele>
      </trkpt>
      <trkpt lat="44.50142" lon="4.86404">
        <ele>226</ele>
      </trkpt>
      <trkpt lat="44.50046" lon="4.86574">
        <ele>231</ele>
      </trkpt>
      <trkpt lat="44.50031" lon="4.86592">
        <ele>235</ele>
      </trkpt>
      <trkpt lat="44.5001" lon="4.86604">
        <ele>238</ele>
      </trkpt>
      <trkpt lat="44.49984" lon="4.86615">
        <ele>240</ele>
      </trkpt>
      <trkpt lat="44.49957" lon="4.86628">
        <ele>242</ele>
      </trkpt>
      <trkpt lat="44.49948" lon="4.86635">
        <ele>242</ele>
      </trkpt>
      <trkpt lat="44.49942" lon="4.86646">
        <ele>242</ele>
      </trkpt>
      <trkpt lat="44.49938" lon="4.86659">
        <ele>242</ele>
      </trkpt>
      <trkpt lat="44.49938" lon="4.86674">
        <ele>243</ele>
      </trkpt>
      <trkpt lat="44.49941" lon="4.86686">
        <ele>243</ele>
      </trkpt>
      <trkpt lat="44.49945" lon="4.86694">
        <ele>245</ele>
      </trkpt>
      <trkpt lat="44.49951" lon="4.86699">
        <ele>245</ele>
      </trkpt>
      <trkpt lat="44.49963" lon="4.86705">
        <ele>241</ele>
      </trkpt>
      <trkpt lat="44.49979" lon="4.86707">
        <ele>240</ele>
      </trkpt>
      <trkpt lat="44.49986" lon="4.86711">
        <ele>238</ele>
      </trkpt>
      <trkpt lat="44.49989" lon="4.86717">
        <ele>235</ele>
      </trkpt>
      <trkpt lat="44.49989" lon="4.86721">
        <ele>234</ele>
      </trkpt>
      <trkpt lat="44.49986" lon="4.86726">
        <ele>238</ele>
      </trkpt>
      <trkpt lat="44.49981" lon="4.86728">
        <ele>239</ele>
      </trkpt>
      <trkpt lat="44.49966" lon="4.86726">
        <ele>241</ele>
      </trkpt>
      <trkpt lat="44.49944" lon="4.86728">
        <ele>248</ele>
      </trkpt>
      <trkpt lat="44.49912" lon="4.86743">
        <ele>251</ele>
      </trkpt>
      <trkpt lat="44.49892" lon="4.8676">
        <ele>255</ele>
      </trkpt>
      <trkpt lat="44.4988" lon="4.86777">
        <ele>259</ele>
      </trkpt>
      <trkpt lat="44.49872" lon="4.86796">
        <ele>260</ele>
      </trkpt>
      <trkpt lat="44.49854" lon="4.86847">
        <ele>268</ele>
      </trkpt>
      <trkpt lat="44.49843" lon="4.86894">
        <ele>271</ele>
      </trkpt>
      <trkpt lat="44.49837" lon="4.86916">
        <ele>273</ele>
      </trkpt>
      <trkpt lat="44.4982" lon="4.86953">
        <ele>275</ele>
      </trkpt>
      <trkpt lat="44.49802" lon="4.8698">
        <ele>277</ele>
      </trkpt>
      <trkpt lat="44.4978" lon="4.87003">
        <ele>280</ele>
      </trkpt>
      <trkpt lat="44.49758" lon="4.87018">
        <ele>279</ele>
      </trkpt>
      <trkpt lat="44.49732" lon="4.87027">
        <ele>280</ele>
      </trkpt>
      <trkpt lat="44.49706" lon="4.8703">
        <ele>282</ele>
      </trkpt>
      <trkpt lat="44.4965" lon="4.8703">
        <ele>288</ele>
      </trkpt>
      <trkpt lat="44.49635" lon="4.87039">
        <ele>289</ele>
      </trkpt>
      <trkpt lat="44.49637" lon="4.87044">
        <ele>289</ele>
      </trkpt>
      <trkpt lat="44.49638" lon="4.8705">
        <ele>289</ele>
      </trkpt>
      <trkpt lat="44.49665" lon="4.87058">
        <ele>288</ele>
      </trkpt>
      <trkpt lat="44.49708" lon="4.87084">
        <ele>290</ele>
      </trkpt>
      <trkpt lat="44.49731" lon="4.87093">
        <ele>289</ele>
      </trkpt>
      <trkpt lat="44.49765" lon="4.87097">
        <ele>289</ele>
      </trkpt>
      <trkpt lat="44.49775" lon="4.87103">
        <ele>289</ele>
      </trkpt>
      <trkpt lat="44.49784" lon="4.87119">
        <ele>290</ele>
      </trkpt>
      <trkpt lat="44.49782" lon="4.87138">
        <ele>289</ele>
      </trkpt>
      <trkpt lat="44.49771" lon="4.87147">
        <ele>289</ele>
      </trkpt>
      <trkpt lat="44.4975" lon="4.87129">
        <ele>292</ele>
      </trkpt>
      <trkpt lat="44.49604" lon="4.87141">
        <ele>307</ele>
      </trkpt>
      <trkpt lat="44.49534" lon="4.87151">
        <ele>315</ele>
      </trkpt>
      <trkpt lat="44.4951" lon="4.8715">
        <ele>316</ele>
      </trkpt>
      <trkpt lat="44.49497" lon="4.87152">
        <ele>316</ele>
      </trkpt>
      <trkpt lat="44.49492" lon="4.87155">
        <ele>316</ele>
      </trkpt>
      <trkpt lat="44.4949" lon="4.8716">
        <ele>317</ele>
      </trkpt>
      <trkpt lat="44.49491" lon="4.87165">
        <ele>321</ele>
      </trkpt>
      <trkpt lat="44.49493" lon="4.87169">
        <ele>322</ele>
      </trkpt>
      <trkpt lat="44.49497" lon="4.87172">
        <ele>322</ele>
      </trkpt>
      <trkpt lat="44.49526" lon="4.87174">
        <ele>322</ele>
      </trkpt>
      <trkpt lat="44.49554" lon="4.87186">
        <ele>320</ele>
      </trkpt>
      <trkpt lat="44.49594" lon="4.87207">
        <ele>322</ele>
      </trkpt>
      <trkpt lat="44.49615" lon="4.87222">
        <ele>323</ele>
      </trkpt>
      <trkpt lat="44.49622" lon="4.87232">
        <ele>324</ele>
      </trkpt>
      <trkpt lat="44.49629" lon="4.87247">
        <ele>323</ele>
      </trkpt>
      <trkpt lat="44.49633" lon="4.8726">
        <ele>323</ele>
      </trkpt>
      <trkpt lat="44.49634" lon="4.87272">
        <ele>323</ele>
      </trkpt>
      <trkpt lat="44.49632" lon="4.8729">
        <ele>325</ele>
      </trkpt>
      <trkpt lat="44.49625" lon="4.87314">
        <ele>325</ele>
      </trkpt>
      <trkpt lat="44.49612" lon="4.87348">
        <ele>331</ele>
      </trkpt>
      <trkpt lat="44.49603" lon="4.87366">
        <ele>331</ele>
      </trkpt>
      <trkpt lat="44.49599" lon="4.87368">
        <ele>332</ele>
      </trkpt>
      <trkpt lat="44.49593" lon="4.87363">
        <ele>338</ele>
      </trkpt>
      <trkpt lat="44.49593" lon="4.87359">
        <ele>338</ele>
      </trkpt>
      <trkpt lat="44.49593" lon="4.87353">
        <ele>338</ele>
      </trkpt>
      <trkpt lat="44.49602" lon="4.87335">
        <ele>332</ele>
      </trkpt>
      <trkpt lat="44.49608" lon="4.87312">
        <ele>332</ele>
      </trkpt>
      <trkpt lat="44.49604" lon="4.87291">
        <ele>331</ele>
      </trkpt>
      <trkpt lat="44.49592" lon="4.87273">
        <ele>332</ele>
      </trkpt>
      <trkpt lat="44.49574" lon="4.87262">
        <ele>333</ele>
      </trkpt>
      <trkpt lat="44.49548" lon="4.87255">
        <ele>335</ele>
      </trkpt>
      <trkpt lat="44.49522" lon="4.87255">
        <ele>339</ele>
      </trkpt>
      <trkpt lat="44.49409" lon="4.87285">
        <ele>351</ele>
      </trkpt>
      <trkpt lat="44.494" lon="4.87288">
        <ele>352</ele>
      </trkpt>
      <trkpt lat="44.49394" lon="4.87295">
        <ele>353</ele>
      </trkpt>
      <trkpt lat="44.49392" lon="4.87299">
        <ele>353</ele>
      </trkpt>
      <trkpt lat="44.49392" lon="4.87304">
        <ele>357</ele>
      </trkpt>
      <trkpt lat="44.49397" lon="4.87307">
        <ele>358</ele>
      </trkpt>
      <trkpt lat="44.49414" lon="4.87302">
        <ele>353</ele>
      </trkpt>
      <trkpt lat="44.49428" lon="4.87301">
        <ele>352</ele>
      </trkpt>
      <trkpt lat="44.49448" lon="4.87304">
        <ele>355</ele>
      </trkpt>
      <trkpt lat="44.49465" lon="4.87313">
        <ele>354</ele>
      </trkpt>
      <trkpt lat="44.49473" lon="4.87328">
        <ele>354</ele>
      </trkpt>
      <trkpt lat="44.49465" lon="4.87366">
        <ele>359</ele>
      </trkpt>
      <trkpt lat="44.49464" lon="4.87392">
        <ele>362</ele>
      </trkpt>
      <trkpt lat="44.49467" lon="4.8743">
        <ele>365</ele>
      </trkpt>
      <trkpt lat="44.49496" lon="4.87539">
        <ele>366</ele>
      </trkpt>
      <trkpt lat="44.49492" lon="4.87553">
        <ele>366</ele>
      </trkpt>
      <trkpt lat="44.49487" lon="4.87547">
        <ele>367</ele>
      </trkpt>
      <trkpt lat="44.49463" lon="4.87506">
        <ele>373</ele>
      </trkpt>
      <trkpt lat="44.49429" lon="4.87477">
        <ele>380</ele>
      </trkpt>
      <trkpt lat="44.49415" lon="4.87471">
        <ele>380</ele>
      </trkpt>
      <trkpt lat="44.49362" lon="4.8746">
        <ele>381</ele>
      </trkpt>
      <trkpt lat="44.49357" lon="4.87462">
        <ele>381</ele>
      </trkpt>
      <trkpt lat="44.49354" lon="4.87466">
        <ele>381</ele>
      </trkpt>
      <trkpt lat="44.49354" lon="4.87471">
        <ele>385</ele>
      </trkpt>
      <trkpt lat="44.49356" lon="4.87475">
        <ele>385</ele>
      </trkpt>
      <trkpt lat="44.49372" lon="4.87483">
        <ele>385</ele>
      </trkpt>
      <trkpt lat="44.49378" lon="4.8749">
        <ele>384</ele>
      </trkpt>
      <trkpt lat="44.49381" lon="4.87499">
        <ele>386</ele>
      </trkpt>
      <trkpt lat="44.49381" lon="4.87508">
        <ele>387</ele>
      </trkpt>
      <trkpt lat="44.49375" lon="4.87526">
        <ele>389</ele>
      </trkpt>
      <trkpt lat="44.49365" lon="4.87542">
        <ele>391</ele>
      </trkpt>
      <trkpt lat="44.4935" lon="4.87559">
        <ele>392</ele>
      </trkpt>
      <trkpt lat="44.49345" lon="4.8756">
        <ele>394</ele>
      </trkpt>
      <trkpt lat="44.49339" lon="4.87555">
        <ele>394</ele>
      </trkpt>
      <trkpt lat="44.4933" lon="4.87538">
        <ele>393</ele>
      </trkpt>
      <trkpt lat="44.49317" lon="4.87523">
        <ele>393</ele>
      </trkpt>
      <trkpt lat="44.49308" lon="4.87518">
        <ele>393</ele>
      </trkpt>
      <trkpt lat="44.49296" lon="4.87514">
        <ele>393</ele>
      </trkpt>
      <trkpt lat="44.49207" lon="4.87515">
        <ele>404</ele>
      </trkpt>
      <trkpt lat="44.49184" lon="4.87509">
        <ele>405</ele>
      </trkpt>
      <trkpt lat="44.49176" lon="4.87509">
        <ele>408</ele>
      </trkpt>
      <trkpt lat="44.49171" lon="4.87514">
        <ele>409</ele>
      </trkpt>
      <trkpt lat="44.4917" lon="4.87519">
        <ele>409</ele>
      </trkpt>
      <trkpt lat="44.49171" lon="4.87526">
        <ele>411</ele>
      </trkpt>
      <trkpt lat="44.49178" lon="4.87531">
        <ele>411</ele>
      </trkpt>
      <trkpt lat="44.49197" lon="4.87539">
        <ele>407</ele>
      </trkpt>
      <trkpt lat="44.49209" lon="4.87557">
        <ele>407</ele>
      </trkpt>
      <trkpt lat="44.49216" lon="4.87588">
        <ele>409</ele>
      </trkpt>
      <trkpt lat="44.49215" lon="4.87596">
        <ele>409</ele>
      </trkpt>
      <trkpt lat="44.49213" lon="4.87613">
        <ele>410</ele>
      </trkpt>
      <trkpt lat="44.49203" lon="4.87645">
        <ele>415</ele>
      </trkpt>
      <trkpt lat="44.492" lon="4.87669">
        <ele>417</ele>
      </trkpt>
      <trkpt lat="44.49203" lon="4.87697">
        <ele>419</ele>
      </trkpt>
      <trkpt lat="44.49201" lon="4.87703">
        <ele>419</ele>
      </trkpt>
      <trkpt lat="44.49198" lon="4.87707">
        <ele>419</ele>
      </trkpt>
      <trkpt lat="44.49191" lon="4.87707">
        <ele>419</ele>
      </trkpt>
      <trkpt lat="44.49189" lon="4.87703">
        <ele>420</ele>
      </trkpt>
      <trkpt lat="44.49184" lon="4.87682">
        <ele>418</ele>
      </trkpt>
      <trkpt lat="44.4918" lon="4.87671">
        <ele>421</ele>
      </trkpt>
      <trkpt lat="44.49159" lon="4.87625">
        <ele>420</ele>
      </trkpt>
      <trkpt lat="44.49152" lon="4.87616">
        <ele>423</ele>
      </trkpt>
      <trkpt lat="44.49129" lon="4.87603">
        <ele>422</ele>
      </trkpt>
      <trkpt lat="44.49073" lon="4.87588">
        <ele>430</ele>
      </trkpt>
      <trkpt lat="44.49061" lon="4.87582">
        <ele>433</ele>
      </trkpt>
      <trkpt lat="44.49051" lon="4.87576">
        <ele>431</ele>
      </trkpt>
      <trkpt lat="44.48931" lon="4.87487">
        <ele>435</ele>
      </trkpt>
      <trkpt lat="44.48917" lon="4.8748">
        <ele>435</ele>
      </trkpt>
      <trkpt lat="44.48892" lon="4.87476">
        <ele>434</ele>
      </trkpt>
      <trkpt lat="44.48837" lon="4.87477">
        <ele>430</ele>
      </trkpt>
      <trkpt lat="44.48736" lon="4.87491">
        <ele>426</ele>
      </trkpt>
      <trkpt lat="44.48715" lon="4.87498">
        <ele>424</ele>
      </trkpt>
      <trkpt lat="44.48701" lon="4.8751">
        <ele>423</ele>
      </trkpt>
      <trkpt lat="44.48685" lon="4.87532">
        <ele>422</ele>
      </trkpt>
      <trkpt lat="44.48652" lon="4.87589">
        <ele>419</ele>
      </trkpt>
      <trkpt lat="44.48634" lon="4.87607">
        <ele>418</ele>
      </trkpt>
      <trkpt lat="44.48616" lon="4.87616">
        <ele>418</ele>
      </trkpt>
      <trkpt lat="44.48593" lon="4.87623">
        <ele>418</ele>
      </trkpt>
      <trkpt lat="44.4857" lon="4.87633">
        <ele>418</ele>
      </trkpt>
      <trkpt lat="44.48418" lon="4.87789">
        <ele>418</ele>
      </trkpt>
      <trkpt lat="44.48397" lon="4.87807">
        <ele>416</ele>
      </trkpt>
      <trkpt lat="44.48379" lon="4.87814">
        <ele>416</ele>
      </trkpt>
      <trkpt lat="44.4823" lon="4.87799">
        <ele>408</ele>
      </trkpt>
      <trkpt lat="44.48213" lon="4.87794">
        <ele>408</ele>
      </trkpt>
      <trkpt lat="44.48208" lon="4.8779">
        <ele>407</ele>
      </trkpt>
      <trkpt lat="44.48201" lon="4.87783">
        <ele>407</ele>
      </trkpt>
      <trkpt lat="44.4814" lon="4.87706">
        <ele>401</ele>
      </trkpt>
      <trkpt lat="44.47708" lon="4.87521">
        <ele>382</ele>
      </trkpt>
      <trkpt lat="44.4768" lon="4.87515">
        <ele>383</ele>
      </trkpt>
      <trkpt lat="44.47308" lon="4.87651">
        <ele>376</ele>
      </trkpt>
      <trkpt lat="44.47179" lon="4.87692">
        <ele>369</ele>
      </trkpt>
      <trkpt lat="44.47173" lon="4.87692">
        <ele>369</ele>
      </trkpt>
      <trkpt lat="44.47163" lon="4.87692">
        <ele>369</ele>
      </trkpt>
      <trkpt lat="44.47039" lon="4.87662">
        <ele>368</ele>
      </trkpt>
      <trkpt lat="44.46994" lon="4.87653">
        <ele>368</ele>
      </trkpt>
      <trkpt lat="44.46951" lon="4.87638">
        <ele>371</ele>
      </trkpt>
      <trkpt lat="44.46866" lon="4.87629">
        <ele>371</ele>
      </trkpt>
      <trkpt lat="44.46806" lon="4.87653">
        <ele>369</ele>
      </trkpt>
      <trkpt lat="44.46773" lon="4.87672">
        <ele>371</ele>
      </trkpt>
      <trkpt lat="44.46761" lon="4.87685">
        <ele>371</ele>
      </trkpt>
      <trkpt lat="44.46755" lon="4.877">
        <ele>372</ele>
      </trkpt>
      <trkpt lat="44.46753" lon="4.87707">
        <ele>373</ele>
      </trkpt>
      <trkpt lat="44.4675" lon="4.87724">
        <ele>372</ele>
      </trkpt>
      <trkpt lat="44.46746" lon="4.87815">
        <ele>372</ele>
      </trkpt>
      <trkpt lat="44.46738" lon="4.87828">
        <ele>372</ele>
      </trkpt>
      <trkpt lat="44.46731" lon="4.87835">
        <ele>371</ele>
      </trkpt>
      <trkpt lat="44.46718" lon="4.87837">
        <ele>370</ele>
      </trkpt>
      <trkpt lat="44.46662" lon="4.87801">
        <ele>367</ele>
      </trkpt>
      <trkpt lat="44.46648" lon="4.87798">
        <ele>368</ele>
      </trkpt>
      <trkpt lat="44.46633" lon="4.87798">
        <ele>369</ele>
      </trkpt>
      <trkpt lat="44.46606" lon="4.87807">
        <ele>373</ele>
      </trkpt>
      <trkpt lat="44.4652" lon="4.87858">
        <ele>372</ele>
      </trkpt>
      <trkpt lat="44.46295" lon="4.88006">
        <ele>361</ele>
      </trkpt>
      <trkpt lat="44.46222" lon="4.88052">
        <ele>355</ele>
      </trkpt>
      <trkpt lat="44.46196" lon="4.88084">
        <ele>353</ele>
      </trkpt>
      <trkpt lat="44.46167" lon="4.88154">
        <ele>349</ele>
      </trkpt>
      <trkpt lat="44.46147" lon="4.88177">
        <ele>346</ele>
      </trkpt>
      <trkpt lat="44.46083" lon="4.88215">
        <ele>339</ele>
      </trkpt>
      <trkpt lat="44.46029" lon="4.88258">
        <ele>336</ele>
      </trkpt>
      <trkpt lat="44.46026" lon="4.88264">
        <ele>336</ele>
      </trkpt>
      <trkpt lat="44.45995" lon="4.88322">
        <ele>334</ele>
      </trkpt>
      <trkpt lat="44.45935" lon="4.88426">
        <ele>326</ele>
      </trkpt>
      <trkpt lat="44.45925" lon="4.88455">
        <ele>323</ele>
      </trkpt>
      <trkpt lat="44.45919" lon="4.88491">
        <ele>321</ele>
      </trkpt>
      <trkpt lat="44.45917" lon="4.88511">
        <ele>319</ele>
      </trkpt>
      <trkpt lat="44.45919" lon="4.88539">
        <ele>317</ele>
      </trkpt>
      <trkpt lat="44.4593" lon="4.8858">
        <ele>318</ele>
      </trkpt>
      <trkpt lat="44.45929" lon="4.88592">
        <ele>316</ele>
      </trkpt>
      <trkpt lat="44.45926" lon="4.88602">
        <ele>315</ele>
      </trkpt>
      <trkpt lat="44.45916" lon="4.8861">
        <ele>315</ele>
      </trkpt>
      <trkpt lat="44.45905" lon="4.8861">
        <ele>315</ele>
      </trkpt>
      <trkpt lat="44.45865" lon="4.88597">
        <ele>313</ele>
      </trkpt>
      <trkpt lat="44.458" lon="4.8859">
        <ele>308</ele>
      </trkpt>
      <trkpt lat="44.45764" lon="4.88596">
        <ele>307</ele>
      </trkpt>
      <trkpt lat="44.45711" lon="4.88614">
        <ele>303</ele>
      </trkpt>
      <trkpt lat="44.45658" lon="4.88651">
        <ele>300</ele>
      </trkpt>
      <trkpt lat="44.4563" lon="4.88679">
        <ele>298</ele>
      </trkpt>
      <trkpt lat="44.45607" lon="4.88712">
        <ele>295</ele>
      </trkpt>
      <trkpt lat="44.45543" lon="4.88825">
        <ele>289</ele>
      </trkpt>
      <trkpt lat="44.45449" lon="4.89003">
        <ele>281</ele>
      </trkpt>
      <trkpt lat="44.45402" lon="4.89074">
        <ele>281</ele>
      </trkpt>
      <trkpt lat="44.45358" lon="4.89122">
        <ele>277</ele>
      </trkpt>
      <trkpt lat="44.45278" lon="4.89194">
        <ele>276</ele>
      </trkpt>
      <trkpt lat="44.45145" lon="4.89321">
        <ele>270</ele>
      </trkpt>
      <trkpt lat="44.44906" lon="4.89539">
        <ele>260</ele>
      </trkpt>
      <trkpt lat="44.44787" lon="4.89654">
        <ele>253</ele>
      </trkpt>
      <trkpt lat="44.44448" lon="4.89971">
        <ele>237</ele>
      </trkpt>
      <trkpt lat="44.44279" lon="4.90171">
        <ele>232</ele>
      </trkpt>
      <trkpt lat="44.44144" lon="4.90324">
        <ele>226</ele>
      </trkpt>
      <trkpt lat="44.44044" lon="4.90445">
        <ele>220</ele>
      </trkpt>
      <trkpt lat="44.43993" lon="4.90503">
        <ele>215</ele>
      </trkpt>
      <trkpt lat="44.43961" lon="4.9053">
        <ele>212</ele>
      </trkpt>
      <trkpt lat="44.43928" lon="4.90547">
        <ele>208</ele>
      </trkpt>
      <trkpt lat="44.43894" lon="4.90556">
        <ele>206</ele>
      </trkpt>
      <trkpt lat="44.43818" lon="4.90552">
        <ele>203</ele>
      </trkpt>
      <trkpt lat="44.43582" lon="4.90556">
        <ele>200</ele>
      </trkpt>
      <trkpt lat="44.43554" lon="4.90563">
        <ele>198</ele>
      </trkpt>
      <trkpt lat="44.43484" lon="4.90615">
        <ele>192</ele>
      </trkpt>
      <trkpt lat="44.43341" lon="4.90739">
        <ele>189</ele>
      </trkpt>
      <trkpt lat="44.43316" lon="4.90745">
        <ele>191</ele>
      </trkpt>
      <trkpt lat="44.43279" lon="4.90728">
        <ele>193</ele>
      </trkpt>
      <trkpt lat="44.43213" lon="4.90681">
        <ele>196</ele>
      </trkpt>
      <trkpt lat="44.43177" lon="4.9064">
        <ele>201</ele>
      </trkpt>
      <trkpt lat="44.43151" lon="4.90603">
        <ele>202</ele>
      </trkpt>
      <trkpt lat="44.43122" lon="4.90552">
        <ele>204</ele>
      </trkpt>
      <trkpt lat="44.43098" lon="4.90497">
        <ele>203</ele>
      </trkpt>
      <trkpt lat="44.43087" lon="4.90489">
        <ele>206</ele>
      </trkpt>
      <trkpt lat="44.43074" lon="4.90491">
        <ele>207</ele>
      </trkpt>
      <trkpt lat="44.43067" lon="4.90499">
        <ele>212</ele>
      </trkpt>
      <trkpt lat="44.43061" lon="4.90513">
        <ele>213</ele>
      </trkpt>
      <trkpt lat="44.43059" lon="4.90572">
        <ele>215</ele>
      </trkpt>
      <trkpt lat="44.43054" lon="4.90595">
        <ele>215</ele>
      </trkpt>
      <trkpt lat="44.43041" lon="4.90621">
        <ele>214</ele>
      </trkpt>
      <trkpt lat="44.43013" lon="4.90647">
        <ele>217</ele>
      </trkpt>
      <trkpt lat="44.42969" lon="4.90668">
        <ele>220</ele>
      </trkpt>
      <trkpt lat="44.42941" lon="4.90672">
        <ele>221</ele>
      </trkpt>
      <trkpt lat="44.42893" lon="4.90676">
        <ele>220</ele>
      </trkpt>
      <trkpt lat="44.42708" lon="4.90674">
        <ele>209</ele>
      </trkpt>
      <trkpt lat="44.42622" lon="4.90676">
        <ele>212</ele>
      </trkpt>
      <trkpt lat="44.4257" lon="4.90682">
        <ele>214</ele>
      </trkpt>
      <trkpt lat="44.42227" lon="4.90802">
        <ele>203</ele>
      </trkpt>
      <trkpt lat="44.4209" lon="4.90855">
        <ele>201</ele>
      </trkpt>
      <trkpt lat="44.42044" lon="4.90867">
        <ele>202</ele>
      </trkpt>
      <trkpt lat="44.42015" lon="4.90863">
        <ele>203</ele>
      </trkpt>
      <trkpt lat="44.42018" lon="4.90872">
        <ele>204</ele>
      </trkpt>
      <trkpt lat="44.42012" lon="4.90876">
        <ele>204</ele>
      </trkpt>
      <trkpt lat="44.42011" lon="4.90878">
        <ele>204</ele>
      </trkpt>
      <trkpt lat="44.42012" lon="4.90887">
        <ele>204</ele>
      </trkpt>
      <trkpt lat="44.41996" lon="4.90895">
        <ele>205</ele>
      </trkpt>
      <trkpt lat="44.42" lon="4.90923">
        <ele>205</ele>
      </trkpt>
      <trkpt lat="44.42003" lon="4.90951">
        <ele>202</ele>
      </trkpt>
      <trkpt lat="44.41967" lon="4.90951">
        <ele>205</ele>
      </trkpt>
      <trkpt lat="44.41966" lon="4.90961">
        <ele>205</ele>
      </trkpt>
      <trkpt lat="44.41971" lon="4.90975">
        <ele>200</ele>
      </trkpt>
      <trkpt lat="44.4196" lon="4.90984">
        <ele>200</ele>
      </trkpt>
      <trkpt lat="44.41933" lon="4.90995">
        <ele>201</ele>
      </trkpt>
      <trkpt lat="44.41908" lon="4.91017">
        <ele>199</ele>
      </trkpt>
      <trkpt lat="44.41899" lon="4.91018">
        <ele>201</ele>
      </trkpt>
      <trkpt lat="44.41893" lon="4.91015">
        <ele>202</ele>
      </trkpt>
      <trkpt lat="44.4188" lon="4.91014">
        <ele>202</ele>
      </trkpt>
      <trkpt lat="44.41868" lon="4.91017">
        <ele>204</ele>
      </trkpt>
      <trkpt lat="44.41804" lon="4.91027">
        <ele>199</ele>
      </trkpt>
      <trkpt lat="44.41801" lon="4.91044">
        <ele>197</ele>
      </trkpt>
      <trkpt lat="44.41732" lon="4.91049">
        <ele>191</ele>
      </trkpt>
      <trkpt lat="44.41702" lon="4.91024">
        <ele>190</ele>
      </trkpt>
      <trkpt lat="44.41702" lon="4.91031">
        <ele>190</ele>
      </trkpt>
      <trkpt lat="44.41693" lon="4.91056">
        <ele>189</ele>
      </trkpt>
      <trkpt lat="44.41672" lon="4.91097">
        <ele>189</ele>
      </trkpt>
      <trkpt lat="44.41629" lon="4.9119">
        <ele>187</ele>
      </trkpt>
      <trkpt lat="44.41617" lon="4.91231">
        <ele>186</ele>
      </trkpt>
      <trkpt lat="44.41611" lon="4.91273">
        <ele>186</ele>
      </trkpt>
      <trkpt lat="44.41601" lon="4.91391">
        <ele>196</ele>
      </trkpt>
      <trkpt lat="44.4159" lon="4.91428">
        <ele>196</ele>
      </trkpt>
      <trkpt lat="44.4157" lon="4.91469">
        <ele>197</ele>
      </trkpt>
      <trkpt lat="44.41535" lon="4.91529">
        <ele>193</ele>
      </trkpt>
      <trkpt lat="44.41505" lon="4.91563">
        <ele>191</ele>
      </trkpt>
      <trkpt lat="44.41428" lon="4.91626">
        <ele>190</ele>
      </trkpt>
      <trkpt lat="44.41404" lon="4.91649">
        <ele>191</ele>
      </trkpt>
      <trkpt lat="44.41385" lon="4.9167">
        <ele>191</ele>
      </trkpt>
      <trkpt lat="44.41365" lon="4.91711">
        <ele>191</ele>
      </trkpt>
      <trkpt lat="44.41351" lon="4.91729">
        <ele>191</ele>
      </trkpt>
      <trkpt lat="44.41335" lon="4.91745">
        <ele>190</ele>
      </trkpt>
      <trkpt lat="44.41329" lon="4.91748">
        <ele>191</ele>
      </trkpt>
      <trkpt lat="44.41235" lon="4.91793">
        <ele>191</ele>
      </trkpt>
      <trkpt lat="44.41141" lon="4.918">
        <ele>187</ele>
      </trkpt>
      <trkpt lat="44.40981" lon="4.91797">
        <ele>183</ele>
      </trkpt>
      <trkpt lat="44.40938" lon="4.91781">
        <ele>183</ele>
      </trkpt>
      <trkpt lat="44.40869" lon="4.91713">
        <ele>175</ele>
      </trkpt>
      <trkpt lat="44.40824" lon="4.91656">
        <ele>180</ele>
      </trkpt>
      <trkpt lat="44.40814" lon="4.91625">
        <ele>188</ele>
      </trkpt>
      <trkpt lat="44.40807" lon="4.91565">
        <ele>191</ele>
      </trkpt>
      <trkpt lat="44.40798" lon="4.91536">
        <ele>192</ele>
      </trkpt>
      <trkpt lat="44.40784" lon="4.91507">
        <ele>192</ele>
      </trkpt>
      <trkpt lat="44.4075" lon="4.91479">
        <ele>194</ele>
      </trkpt>
      <trkpt lat="44.40711" lon="4.91458">
        <ele>196</ele>
      </trkpt>
      <trkpt lat="44.4067" lon="4.9147">
        <ele>200</ele>
      </trkpt>
      <trkpt lat="44.40429" lon="4.91603">
        <ele>205</ele>
      </trkpt>
      <trkpt lat="44.40392" lon="4.91624">
        <ele>206</ele>
      </trkpt>
      <trkpt lat="44.40325" lon="4.91679">
        <ele>206</ele>
      </trkpt>
      <trkpt lat="44.40205" lon="4.91772">
        <ele>198</ele>
      </trkpt>
      <trkpt lat="44.4013" lon="4.9181">
        <ele>198</ele>
      </trkpt>
      <trkpt lat="44.40108" lon="4.91824">
        <ele>196</ele>
      </trkpt>
      <trkpt lat="44.40041" lon="4.91878">
        <ele>194</ele>
      </trkpt>
      <trkpt lat="44.39947" lon="4.91921">
        <ele>190</ele>
      </trkpt>
      <trkpt lat="44.39906" lon="4.91948">
        <ele>190</ele>
      </trkpt>
      <trkpt lat="44.39878" lon="4.91962">
        <ele>188</ele>
      </trkpt>
      <trkpt lat="44.39777" lon="4.91991">
        <ele>184</ele>
      </trkpt>
      <trkpt lat="44.39752" lon="4.92005">
        <ele>185</ele>
      </trkpt>
      <trkpt lat="44.39733" lon="4.92022">
        <ele>183</ele>
      </trkpt>
      <trkpt lat="44.39732" lon="4.91981">
        <ele>179</ele>
      </trkpt>
      <trkpt lat="44.39728" lon="4.91937">
        <ele>174</ele>
      </trkpt>
      <trkpt lat="44.39719" lon="4.91862">
        <ele>171</ele>
      </trkpt>
      <trkpt lat="44.3972" lon="4.91794">
        <ele>169</ele>
      </trkpt>
      <trkpt lat="44.39718" lon="4.91744">
        <ele>168</ele>
      </trkpt>
      <trkpt lat="44.39708" lon="4.91714">
        <ele>168</ele>
      </trkpt>
      <trkpt lat="44.39685" lon="4.91681">
        <ele>167</ele>
      </trkpt>
      <trkpt lat="44.39684" lon="4.91677">
        <ele>167</ele>
      </trkpt>
      <trkpt lat="44.39667" lon="4.91682">
        <ele>168</ele>
      </trkpt>
      <trkpt lat="44.39659" lon="4.91681">
        <ele>168</ele>
      </trkpt>
      <trkpt lat="44.39647" lon="4.91682">
        <ele>169</ele>
      </trkpt>
      <trkpt lat="44.39603" lon="4.91705">
        <ele>169</ele>
      </trkpt>
      <trkpt lat="44.39586" lon="4.91709">
        <ele>167</ele>
      </trkpt>
      <trkpt lat="44.39569" lon="4.91706">
        <ele>167</ele>
      </trkpt>
      <trkpt lat="44.39515" lon="4.91683">
        <ele>167</ele>
      </trkpt>
      <trkpt lat="44.39498" lon="4.91679">
        <ele>167</ele>
      </trkpt>
      <trkpt lat="44.39463" lon="4.91679">
        <ele>168</ele>
      </trkpt>
      <trkpt lat="44.39454" lon="4.91671">
        <ele>167</ele>
      </trkpt>
      <trkpt lat="44.39447" lon="4.91659">
        <ele>168</ele>
      </trkpt>
      <trkpt lat="44.39443" lon="4.91645">
        <ele>168</ele>
      </trkpt>
      <trkpt lat="44.39436" lon="4.91631">
        <ele>169</ele>
      </trkpt>
      <trkpt lat="44.39429" lon="4.91622">
        <ele>169</ele>
      </trkpt>
      <trkpt lat="44.39353" lon="4.91604">
        <ele>167</ele>
      </trkpt>
      <trkpt lat="44.3913" lon="4.91542">
        <ele>165</ele>
      </trkpt>
      <trkpt lat="44.39091" lon="4.91534">
        <ele>166</ele>
      </trkpt>
      <trkpt lat="44.3909" lon="4.9154">
        <ele>166</ele>
      </trkpt>
      <trkpt lat="44.39038" lon="4.9154">
        <ele>166</ele>
      </trkpt>
      <trkpt lat="44.39019" lon="4.91545">
        <ele>166</ele>
      </trkpt>
      <trkpt lat="44.38933" lon="4.916">
        <ele>164</ele>
      </trkpt>
      <trkpt lat="44.38847" lon="4.91645">
        <ele>163</ele>
      </trkpt>
      <trkpt lat="44.38822" lon="4.91655">
        <ele>164</ele>
      </trkpt>
      <trkpt lat="44.38791" lon="4.91659">
        <ele>164</ele>
      </trkpt>
      <trkpt lat="44.38644" lon="4.9163">
        <ele>164</ele>
      </trkpt>
      <trkpt lat="44.38611" lon="4.91627">
        <ele>164</ele>
      </trkpt>
      <trkpt lat="44.38483" lon="4.916">
        <ele>164</ele>
      </trkpt>
      <trkpt lat="44.38415" lon="4.9159">
        <ele>164</ele>
      </trkpt>
      <trkpt lat="44.38314" lon="4.916">
        <ele>164</ele>
      </trkpt>
      <trkpt lat="44.38164" lon="4.91599">
        <ele>165</ele>
      </trkpt>
      <trkpt lat="44.38124" lon="4.91606">
        <ele>166</ele>
      </trkpt>
      <trkpt lat="44.38018" lon="4.91637">
        <ele>165</ele>
      </trkpt>
      <trkpt lat="44.37926" lon="4.91654">
        <ele>164</ele>
      </trkpt>
      <trkpt lat="44.37867" lon="4.91678">
        <ele>166</ele>
      </trkpt>
      <trkpt lat="44.37793" lon="4.9171">
        <ele>166</ele>
      </trkpt>
      <trkpt lat="44.37763" lon="4.91725">
        <ele>167</ele>
      </trkpt>
      <trkpt lat="44.37706" lon="4.9176">
        <ele>167</ele>
      </trkpt>
      <trkpt lat="44.37696" lon="4.91776">
        <ele>168</ele>
      </trkpt>
      <trkpt lat="44.37685" lon="4.91766">
        <ele>167</ele>
      </trkpt>
      <trkpt lat="44.37672" lon="4.91758">
        <ele>166</ele>
      </trkpt>
      <trkpt lat="44.37639" lon="4.91749">
        <ele>166</ele>
      </trkpt>
      <trkpt lat="44.37615" lon="4.91746">
        <ele>164</ele>
      </trkpt>
      <trkpt lat="44.37394" lon="4.91754">
        <ele>162</ele>
      </trkpt>
      <trkpt lat="44.37364" lon="4.91754">
        <ele>163</ele>
      </trkpt>
      <trkpt lat="44.37347" lon="4.9175">
        <ele>163</ele>
      </trkpt>
      <trkpt lat="44.37331" lon="4.91743">
        <ele>162</ele>
      </trkpt>
      <trkpt lat="44.37318" lon="4.91737">
        <ele>162</ele>
      </trkpt>
      <trkpt lat="44.37272" lon="4.91713">
        <ele>163</ele>
      </trkpt>
      <trkpt lat="44.37249" lon="4.91703">
        <ele>163</ele>
      </trkpt>
      <trkpt lat="44.37217" lon="4.91694">
        <ele>164</ele>
      </trkpt>
      <trkpt lat="44.36906" lon="4.91656">
        <ele>165</ele>
      </trkpt>
      <trkpt lat="44.36885" lon="4.91652">
        <ele>164</ele>
      </trkpt>
      <trkpt lat="44.36871" lon="4.91646">
        <ele>163</ele>
      </trkpt>
      <trkpt lat="44.36848" lon="4.91631">
        <ele>163</ele>
      </trkpt>
      <trkpt lat="44.36631" lon="4.91463">
        <ele>161</ele>
      </trkpt>
      <trkpt lat="44.36547" lon="4.91408">
        <ele>160</ele>
      </trkpt>
      <trkpt lat="44.36412" lon="4.91307">
        <ele>160</ele>
      </trkpt>
      <trkpt lat="44.36399" lon="4.91295">
        <ele>159</ele>
      </trkpt>
      <trkpt lat="44.36322" lon="4.91192">
        <ele>161</ele>
      </trkpt>
      <trkpt lat="44.3627" lon="4.91117">
        <ele>159</ele>
      </trkpt>
      <trkpt lat="44.36264" lon="4.9111">
        <ele>159</ele>
      </trkpt>
      <trkpt lat="44.36251" lon="4.91103">
        <ele>157</ele>
      </trkpt>
      <trkpt lat="44.36242" lon="4.91101">
        <ele>157</ele>
      </trkpt>
      <trkpt lat="44.3623" lon="4.91099">
        <ele>156</ele>
      </trkpt>
      <trkpt lat="44.36213" lon="4.91101">
        <ele>156</ele>
      </trkpt>
      <trkpt lat="44.3598" lon="4.91181">
        <ele>154</ele>
      </trkpt>
      <trkpt lat="44.35915" lon="4.91192">
        <ele>154</ele>
      </trkpt>
      <trkpt lat="44.35898" lon="4.912">
        <ele>153</ele>
      </trkpt>
      <trkpt lat="44.35888" lon="4.91208">
        <ele>153</ele>
      </trkpt>
      <trkpt lat="44.35883" lon="4.91208">
        <ele>153</ele>
      </trkpt>
      <trkpt lat="44.35809" lon="4.91188">
        <ele>151</ele>
      </trkpt>
      <trkpt lat="44.35676" lon="4.91152">
        <ele>157</ele>
      </trkpt>
      <trkpt lat="44.3566" lon="4.9115">
        <ele>157</ele>
      </trkpt>
      <trkpt lat="44.35639" lon="4.91153">
        <ele>157</ele>
      </trkpt>
      <trkpt lat="44.35625" lon="4.91159">
        <ele>157</ele>
      </trkpt>
      <trkpt lat="44.35613" lon="4.91168">
        <ele>157</ele>
      </trkpt>
      <trkpt lat="44.3558" lon="4.91213">
        <ele>157</ele>
      </trkpt>
      <trkpt lat="44.35573" lon="4.91204">
        <ele>157</ele>
      </trkpt>
      <trkpt lat="44.35564" lon="4.91203">
        <ele>156</ele>
      </trkpt>
      <trkpt lat="44.35556" lon="4.91209">
        <ele>156</ele>
      </trkpt>
      <trkpt lat="44.35552" lon="4.91221">
        <ele>156</ele>
      </trkpt>
      <trkpt lat="44.35554" lon="4.91233">
        <ele>156</ele>
      </trkpt>
      <trkpt lat="44.35547" lon="4.91242">
        <ele>156</ele>
      </trkpt>
      <trkpt lat="44.35541" lon="4.91253">
        <ele>156</ele>
      </trkpt>
      <trkpt lat="44.35521" lon="4.91301">
        <ele>156</ele>
      </trkpt>
      <trkpt lat="44.35315" lon="4.91634">
        <ele>158</ele>
      </trkpt>
      <trkpt lat="44.35232" lon="4.91731">
        <ele>157</ele>
      </trkpt>
      <trkpt lat="44.35192" lon="4.91775">
        <ele>155</ele>
      </trkpt>
      <trkpt lat="44.35163" lon="4.91794">
        <ele>156</ele>
      </trkpt>
      <trkpt lat="44.35143" lon="4.91799">
        <ele>156</ele>
      </trkpt>
      <trkpt lat="44.3506" lon="4.91805">
        <ele>153</ele>
      </trkpt>
      <trkpt lat="44.35031" lon="4.91809">
        <ele>153</ele>
      </trkpt>
      <trkpt lat="44.35008" lon="4.91817">
        <ele>153</ele>
      </trkpt>
      <trkpt lat="44.3499" lon="4.91827">
        <ele>153</ele>
      </trkpt>
      <trkpt lat="44.34974" lon="4.91837">
        <ele>153</ele>
      </trkpt>
      <trkpt lat="44.34877" lon="4.91914">
        <ele>154</ele>
      </trkpt>
      <trkpt lat="44.34852" lon="4.91932">
        <ele>153</ele>
      </trkpt>
      <trkpt lat="44.34793" lon="4.91994">
        <ele>154</ele>
      </trkpt>
      <trkpt lat="44.34782" lon="4.92005">
        <ele>154</ele>
      </trkpt>
      <trkpt lat="44.34764" lon="4.92018">
        <ele>154</ele>
      </trkpt>
      <trkpt lat="44.34756" lon="4.92023">
        <ele>154</ele>
      </trkpt>
      <trkpt lat="44.34544" lon="4.92135">
        <ele>152</ele>
      </trkpt>
      <trkpt lat="44.34476" lon="4.92174">
        <ele>153</ele>
      </trkpt>
      <trkpt lat="44.34416" lon="4.92212">
        <ele>153</ele>
      </trkpt>
      <trkpt lat="44.34361" lon="4.92231">
        <ele>153</ele>
      </trkpt>
      <trkpt lat="44.34329" lon="4.92247">
        <ele>153</ele>
      </trkpt>
      <trkpt lat="44.34227" lon="4.9232">
        <ele>153</ele>
      </trkpt>
      <trkpt lat="44.34219" lon="4.92324">
        <ele>153</ele>
      </trkpt>
      <trkpt lat="44.34197" lon="4.92324">
        <ele>153</ele>
      </trkpt>
      <trkpt lat="44.3414" lon="4.92303">
        <ele>153</ele>
      </trkpt>
      <trkpt lat="44.34126" lon="4.92301">
        <ele>153</ele>
      </trkpt>
      <trkpt lat="44.34116" lon="4.92302">
        <ele>152</ele>
      </trkpt>
      <trkpt lat="44.34107" lon="4.92305">
        <ele>152</ele>
      </trkpt>
      <trkpt lat="44.34095" lon="4.92313">
        <ele>152</ele>
      </trkpt>
      <trkpt lat="44.34025" lon="4.92393">
        <ele>153</ele>
      </trkpt>
      <trkpt lat="44.33994" lon="4.92422">
        <ele>153</ele>
      </trkpt>
      <trkpt lat="44.33981" lon="4.92429">
        <ele>153</ele>
      </trkpt>
      <trkpt lat="44.33948" lon="4.92443">
        <ele>152</ele>
      </trkpt>
      <trkpt lat="44.33935" lon="4.92453">
        <ele>152</ele>
      </trkpt>
      <trkpt lat="44.33807" lon="4.92613">
        <ele>156</ele>
      </trkpt>
      <trkpt lat="44.33774" lon="4.92648">
        <ele>157</ele>
      </trkpt>
      <trkpt lat="44.33698" lon="4.92723">
        <ele>159</ele>
      </trkpt>
      <trkpt lat="44.33662" lon="4.92769">
        <ele>161</ele>
      </trkpt>
      <trkpt lat="44.33513" lon="4.92981">
        <ele>164</ele>
      </trkpt>
      <trkpt lat="44.33487" lon="4.93014">
        <ele>164</ele>
      </trkpt>
      <trkpt lat="44.33395" lon="4.93113">
        <ele>162</ele>
      </trkpt>
      <trkpt lat="44.33352" lon="4.93152">
        <ele>162</ele>
      </trkpt>
      <trkpt lat="44.33313" lon="4.93183">
        <ele>162</ele>
      </trkpt>
      <trkpt lat="44.33239" lon="4.93236">
        <ele>162</ele>
      </trkpt>
      <trkpt lat="44.33217" lon="4.9326">
        <ele>163</ele>
      </trkpt>
      <trkpt lat="44.33206" lon="4.93274">
        <ele>162</ele>
      </trkpt>
      <trkpt lat="44.33189" lon="4.93301">
        <ele>163</ele>
      </trkpt>
      <trkpt lat="44.33171" lon="4.93335">
        <ele>163</ele>
      </trkpt>
      <trkpt lat="44.33152" lon="4.93367">
        <ele>163</ele>
      </trkpt>
      <trkpt lat="44.33047" lon="4.93509">
        <ele>162</ele>
      </trkpt>
      <trkpt lat="44.3303" lon="4.9353">
        <ele>163</ele>
      </trkpt>
      <trkpt lat="44.33012" lon="4.9355">
        <ele>163</ele>
      </trkpt>
      <trkpt lat="44.32976" lon="4.93581">
        <ele>162</ele>
      </trkpt>
      <trkpt lat="44.32951" lon="4.93604">
        <ele>162</ele>
      </trkpt>
      <trkpt lat="44.32915" lon="4.93649">
        <ele>163</ele>
      </trkpt>
      <trkpt lat="44.32843" lon="4.93725">
        <ele>165</ele>
      </trkpt>
      <trkpt lat="44.32821" lon="4.93746">
        <ele>165</ele>
      </trkpt>
      <trkpt lat="44.32796" lon="4.93765">
        <ele>165</ele>
      </trkpt>
      <trkpt lat="44.327" lon="4.93826">
        <ele>163</ele>
      </trkpt>
      <trkpt lat="44.32672" lon="4.93839">
        <ele>165</ele>
      </trkpt>
      <trkpt lat="44.32549" lon="4.93879">
        <ele>169</ele>
      </trkpt>
      <trkpt lat="44.3251" lon="4.93888">
        <ele>170</ele>
      </trkpt>
      <trkpt lat="44.32484" lon="4.93885">
        <ele>169</ele>
      </trkpt>
      <trkpt lat="44.32396" lon="4.93861">
        <ele>165</ele>
      </trkpt>
      <trkpt lat="44.32382" lon="4.9386">
        <ele>164</ele>
      </trkpt>
      <trkpt lat="44.32369" lon="4.93863">
        <ele>162</ele>
      </trkpt>
      <trkpt lat="44.32357" lon="4.93868">
        <ele>162</ele>
      </trkpt>
      <trkpt lat="44.32347" lon="4.93876">
        <ele>162</ele>
      </trkpt>
      <trkpt lat="44.32308" lon="4.93916">
        <ele>161</ele>
      </trkpt>
      <trkpt lat="44.32287" lon="4.93938">
        <ele>160</ele>
      </trkpt>
      <trkpt lat="44.31958" lon="4.94293">
        <ele>166</ele>
      </trkpt>
      <trkpt lat="44.31943" lon="4.94317">
        <ele>167</ele>
      </trkpt>
      <trkpt lat="44.31935" lon="4.94336">
        <ele>167</ele>
      </trkpt>
      <trkpt lat="44.3193" lon="4.94347">
        <ele>167</ele>
      </trkpt>
      <trkpt lat="44.31925" lon="4.94368">
        <ele>168</ele>
      </trkpt>
      <trkpt lat="44.31842" lon="4.94819">
        <ele>184</ele>
      </trkpt>
      <trkpt lat="44.31841" lon="4.94824">
        <ele>184</ele>
      </trkpt>
      <trkpt lat="44.31843" lon="4.94829">
        <ele>184</ele>
      </trkpt>
      <trkpt lat="44.31853" lon="4.94844">
        <ele>184</ele>
      </trkpt>
      <trkpt lat="44.3185" lon="4.94851">
        <ele>184</ele>
      </trkpt>
      <trkpt lat="44.3185" lon="4.94858">
        <ele>184</ele>
      </trkpt>
      <trkpt lat="44.31851" lon="4.94865">
        <ele>184</ele>
      </trkpt>
      <trkpt lat="44.3184" lon="4.94874">
        <ele>184</ele>
      </trkpt>
      <trkpt lat="44.31764" lon="4.94918">
        <ele>186</ele>
      </trkpt>
      <trkpt lat="44.31693" lon="4.94956">
        <ele>186</ele>
      </trkpt>
      <trkpt lat="44.31668" lon="4.94963">
        <ele>187</ele>
      </trkpt>
      <trkpt lat="44.31647" lon="4.94967">
        <ele>187</ele>
      </trkpt>
      <trkpt lat="44.31624" lon="4.94966">
        <ele>188</ele>
      </trkpt>
      <trkpt lat="44.31619" lon="4.94964">
        <ele>188</ele>
      </trkpt>
      <trkpt lat="44.31565" lon="4.94922">
        <ele>187</ele>
      </trkpt>
      <trkpt lat="44.31548" lon="4.94913">
        <ele>185</ele>
      </trkpt>
      <trkpt lat="44.3151" lon="4.94904">
        <ele>185</ele>
      </trkpt>
      <trkpt lat="44.31476" lon="4.94901">
        <ele>186</ele>
      </trkpt>
      <trkpt lat="44.31464" lon="4.94902">
        <ele>186</ele>
      </trkpt>
      <trkpt lat="44.31444" lon="4.94908">
        <ele>186</ele>
      </trkpt>
      <trkpt lat="44.31411" lon="4.94924">
        <ele>186</ele>
      </trkpt>
      <trkpt lat="44.31373" lon="4.94949">
        <ele>186</ele>
      </trkpt>
      <trkpt lat="44.31353" lon="4.94974">
        <ele>187</ele>
      </trkpt>
      <trkpt lat="44.31316" lon="4.95026">
        <ele>187</ele>
      </trkpt>
      <trkpt lat="44.31309" lon="4.95028">
        <ele>187</ele>
      </trkpt>
      <trkpt lat="44.31287" lon="4.95078">
        <ele>187</ele>
      </trkpt>
      <trkpt lat="44.31275" lon="4.95117">
        <ele>186</ele>
      </trkpt>
      <trkpt lat="44.31264" lon="4.95189">
        <ele>185</ele>
      </trkpt>
      <trkpt lat="44.31232" lon="4.95243">
        <ele>182</ele>
      </trkpt>
      <trkpt lat="44.31224" lon="4.95254">
        <ele>181</ele>
      </trkpt>
      <trkpt lat="44.31145" lon="4.95333">
        <ele>180</ele>
      </trkpt>
      <trkpt lat="44.31123" lon="4.95362">
        <ele>181</ele>
      </trkpt>
      <trkpt lat="44.31112" lon="4.95388">
        <ele>179</ele>
      </trkpt>
      <trkpt lat="44.31103" lon="4.95417">
        <ele>180</ele>
      </trkpt>
      <trkpt lat="44.31084" lon="4.95484">
        <ele>180</ele>
      </trkpt>
      <trkpt lat="44.31075" lon="4.95526">
        <ele>181</ele>
      </trkpt>
      <trkpt lat="44.31068" lon="4.95565">
        <ele>182</ele>
      </trkpt>
      <trkpt lat="44.3105" lon="4.95709">
        <ele>182</ele>
      </trkpt>
      <trkpt lat="44.3104" lon="4.95759">
        <ele>184</ele>
      </trkpt>
      <trkpt lat="44.31033" lon="4.95782">
        <ele>183</ele>
      </trkpt>
      <trkpt lat="44.31014" lon="4.95823">
        <ele>183</ele>
      </trkpt>
      <trkpt lat="44.30975" lon="4.95892">
        <ele>184</ele>
      </trkpt>
      <trkpt lat="44.30954" lon="4.9594">
        <ele>185</ele>
      </trkpt>
      <trkpt lat="44.30943" lon="4.95977">
        <ele>185</ele>
      </trkpt>
      <trkpt lat="44.30901" lon="4.96159">
        <ele>185</ele>
      </trkpt>
      <trkpt lat="44.30864" lon="4.963">
        <ele>191</ele>
      </trkpt>
      <trkpt lat="44.30844" lon="4.9639">
        <ele>192</ele>
      </trkpt>
      <trkpt lat="44.30827" lon="4.96443">
        <ele>193</ele>
      </trkpt>
      <trkpt lat="44.30806" lon="4.96496">
        <ele>194</ele>
      </trkpt>
      <trkpt lat="44.30756" lon="4.9659">
        <ele>200</ele>
      </trkpt>
      <trkpt lat="44.30697" lon="4.96763">
        <ele>206</ele>
      </trkpt>
      <trkpt lat="44.30656" lon="4.96866">
        <ele>211</ele>
      </trkpt>
      <trkpt lat="44.3059" lon="4.97024">
        <ele>216</ele>
      </trkpt>
      <trkpt lat="44.30529" lon="4.97175">
        <ele>217</ele>
      </trkpt>
      <trkpt lat="44.30505" lon="4.9723">
        <ele>217</ele>
      </trkpt>
      <trkpt lat="44.30407" lon="4.97392">
        <ele>215</ele>
      </trkpt>
      <trkpt lat="44.30376" lon="4.97438">
        <ele>214</ele>
      </trkpt>
      <trkpt lat="44.30351" lon="4.97465">
        <ele>213</ele>
      </trkpt>
      <trkpt lat="44.30304" lon="4.97501">
        <ele>211</ele>
      </trkpt>
      <trkpt lat="44.30264" lon="4.97545">
        <ele>210</ele>
      </trkpt>
      <trkpt lat="44.30247" lon="4.97559">
        <ele>210</ele>
      </trkpt>
      <trkpt lat="44.30228" lon="4.97571">
        <ele>211</ele>
      </trkpt>
      <trkpt lat="44.30195" lon="4.97584">
        <ele>211</ele>
      </trkpt>
      <trkpt lat="44.30163" lon="4.97592">
        <ele>212</ele>
      </trkpt>
      <trkpt lat="44.30143" lon="4.97592">
        <ele>213</ele>
      </trkpt>
      <trkpt lat="44.30013" lon="4.97588">
        <ele>212</ele>
      </trkpt>
      <trkpt lat="44.29859" lon="4.976">
        <ele>208</ele>
      </trkpt>
      <trkpt lat="44.29806" lon="4.97598">
        <ele>204</ele>
      </trkpt>
      <trkpt lat="44.29779" lon="4.976">
        <ele>204</ele>
      </trkpt>
      <trkpt lat="44.29686" lon="4.97625">
        <ele>200</ele>
      </trkpt>
      <trkpt lat="44.2964" lon="4.97626">
        <ele>198</ele>
      </trkpt>
      <trkpt lat="44.29563" lon="4.97615">
        <ele>197</ele>
      </trkpt>
      <trkpt lat="44.29146" lon="4.97538">
        <ele>180</ele>
      </trkpt>
      <trkpt lat="44.29132" lon="4.97537">
        <ele>179</ele>
      </trkpt>
      <trkpt lat="44.29072" lon="4.97554">
        <ele>177</ele>
      </trkpt>
      <trkpt lat="44.29026" lon="4.97563">
        <ele>174</ele>
      </trkpt>
      <trkpt lat="44.28995" lon="4.97566">
        <ele>174</ele>
      </trkpt>
      <trkpt lat="44.28984" lon="4.97564">
        <ele>174</ele>
      </trkpt>
      <trkpt lat="44.28976" lon="4.97561">
        <ele>174</ele>
      </trkpt>
      <trkpt lat="44.28968" lon="4.9755">
        <ele>175</ele>
      </trkpt>
      <trkpt lat="44.28964" lon="4.97542">
        <ele>175</ele>
      </trkpt>
      <trkpt lat="44.28963" lon="4.97502">
        <ele>175</ele>
      </trkpt>
      <trkpt lat="44.28971" lon="4.97424">
        <ele>177</ele>
      </trkpt>
      <trkpt lat="44.28996" lon="4.97251">
        <ele>178</ele>
      </trkpt>
      <trkpt lat="44.28989" lon="4.97249">
        <ele>178</ele>
      </trkpt>
      <trkpt lat="44.28853" lon="4.97274">
        <ele>173</ele>
      </trkpt>
      <trkpt lat="44.28844" lon="4.9727">
        <ele>172</ele>
      </trkpt>
      <trkpt lat="44.2884" lon="4.97263">
        <ele>172</ele>
      </trkpt>
      <trkpt lat="44.28784" lon="4.9708">
        <ele>168</ele>
      </trkpt>
      <trkpt lat="44.28715" lon="4.96952">
        <ele>167</ele>
      </trkpt>
      <trkpt lat="44.28711" lon="4.96938">
        <ele>166</ele>
      </trkpt>
      <trkpt lat="44.28705" lon="4.96885">
        <ele>167</ele>
      </trkpt>
      <trkpt lat="44.28688" lon="4.96839">
        <ele>167</ele>
      </trkpt>
      <trkpt lat="44.28673" lon="4.96792">
        <ele>166</ele>
      </trkpt>
      <trkpt lat="44.2865" lon="4.96698">
        <ele>167</ele>
      </trkpt>
      <trkpt lat="44.2861" lon="4.96473">
        <ele>163</ele>
      </trkpt>
      <trkpt lat="44.28611" lon="4.96462">
        <ele>164</ele>
      </trkpt>
      <trkpt lat="44.28519" lon="4.96443">
        <ele>159</ele>
      </trkpt>
      <trkpt lat="44.28418" lon="4.96427">
        <ele>156</ele>
      </trkpt>
      <trkpt lat="44.28407" lon="4.96425">
        <ele>156</ele>
      </trkpt>
      <trkpt lat="44.28404" lon="4.96421">
        <ele>156</ele>
      </trkpt>
      <trkpt lat="44.28393" lon="4.9644">
        <ele>155</ele>
      </trkpt>
      <trkpt lat="44.28381" lon="4.96466">
        <ele>154</ele>
      </trkpt>
      <trkpt lat="44.28375" lon="4.96473">
        <ele>154</ele>
      </trkpt>
      <trkpt lat="44.28371" lon="4.96474">
        <ele>154</ele>
      </trkpt>
      <trkpt lat="44.28164" lon="4.96502">
        <ele>150</ele>
      </trkpt>
      <trkpt lat="44.2816" lon="4.96498">
        <ele>151</ele>
      </trkpt>
      <trkpt lat="44.28131" lon="4.96437">
        <ele>151</ele>
      </trkpt>
      <trkpt lat="44.28041" lon="4.9613">
        <ele>151</ele>
      </trkpt>
      <trkpt lat="44.27984" lon="4.95968">
        <ele>149</ele>
      </trkpt>
      <trkpt lat="44.27977" lon="4.95951">
        <ele>149</ele>
      </trkpt>
      <trkpt lat="44.27927" lon="4.95864">
        <ele>148</ele>
      </trkpt>
      <trkpt lat="44.27913" lon="4.95835">
        <ele>148</ele>
      </trkpt>
      <trkpt lat="44.27895" lon="4.95789">
        <ele>148</ele>
      </trkpt>
      <trkpt lat="44.27881" lon="4.95737">
        <ele>146</ele>
      </trkpt>
      <trkpt lat="44.27847" lon="4.95658">
        <ele>147</ele>
      </trkpt>
      <trkpt lat="44.27839" lon="4.95631">
        <ele>147</ele>
      </trkpt>
      <trkpt lat="44.27786" lon="4.95421">
        <ele>146</ele>
      </trkpt>
      <trkpt lat="44.27761" lon="4.95312">
        <ele>145</ele>
      </trkpt>
      <trkpt lat="44.27745" lon="4.95272">
        <ele>145</ele>
      </trkpt>
      <trkpt lat="44.2771" lon="4.95175">
        <ele>144</ele>
      </trkpt>
      <trkpt lat="44.2753" lon="4.95315">
        <ele>144</ele>
      </trkpt>
      <trkpt lat="44.27308" lon="4.95484">
        <ele>144</ele>
      </trkpt>
      <trkpt lat="44.27275" lon="4.95508">
        <ele>143</ele>
      </trkpt>
      <trkpt lat="44.27226" lon="4.95547">
        <ele>144</ele>
      </trkpt>
      <trkpt lat="44.26829" lon="4.95851">
        <ele>157</ele>
      </trkpt>
      <trkpt lat="44.26847" lon="4.95892">
        <ele>156</ele>
      </trkpt>
      <trkpt lat="44.26886" lon="4.96007">
        <ele>153</ele>
      </trkpt>
      <trkpt lat="44.269" lon="4.96042">
        <ele>152</ele>
      </trkpt>
      <trkpt lat="44.26944" lon="4.96136">
        <ele>153</ele>
      </trkpt>
      <trkpt lat="44.27034" lon="4.96304">
        <ele>157</ele>
      </trkpt>
      <trkpt lat="44.27039" lon="4.96317">
        <ele>157</ele>
      </trkpt>
      <trkpt lat="44.27053" lon="4.96389">
        <ele>162</ele>
      </trkpt>
      <trkpt lat="44.27063" lon="4.96413">
        <ele>162</ele>
      </trkpt>
      <trkpt lat="44.27086" lon="4.96478">
        <ele>160</ele>
      </trkpt>
      <trkpt lat="44.2715" lon="4.96608">
        <ele>154</ele>
      </trkpt>
      <trkpt lat="44.27179" lon="4.96658">
        <ele>155</ele>
      </trkpt>
      <trkpt lat="44.27215" lon="4.9671">
        <ele>155</ele>
      </trkpt>
      <trkpt lat="44.27226" lon="4.9673">
        <ele>156</ele>
      </trkpt>
      <trkpt lat="44.27233" lon="4.9675">
        <ele>156</ele>
      </trkpt>
      <trkpt lat="44.27254" lon="4.96857">
        <ele>160</ele>
      </trkpt>
      <trkpt lat="44.27261" lon="4.96887">
        <ele>160</ele>
      </trkpt>
      <trkpt lat="44.27314" lon="4.97077">
        <ele>157</ele>
      </trkpt>
      <trkpt lat="44.27327" lon="4.97123">
        <ele>156</ele>
      </trkpt>
      <trkpt lat="44.27338" lon="4.97152">
        <ele>158</ele>
      </trkpt>
      <trkpt lat="44.27348" lon="4.97174">
        <ele>158</ele>
      </trkpt>
      <trkpt lat="44.27363" lon="4.97198">
        <ele>158</ele>
      </trkpt>
      <trkpt lat="44.27376" lon="4.97215">
        <ele>158</ele>
      </trkpt>
      <trkpt lat="44.27407" lon="4.9725">
        <ele>159</ele>
      </trkpt>
      <trkpt lat="44.27423" lon="4.9727">
        <ele>160</ele>
      </trkpt>
      <trkpt lat="44.27486" lon="4.97375">
        <ele>165</ele>
      </trkpt>
      <trkpt lat="44.27496" lon="4.97397">
        <ele>167</ele>
      </trkpt>
      <trkpt lat="44.27501" lon="4.97413">
        <ele>167</ele>
      </trkpt>
      <trkpt lat="44.27516" lon="4.97457">
        <ele>167</ele>
      </trkpt>
      <trkpt lat="44.27533" lon="4.97491">
        <ele>168</ele>
      </trkpt>
      <trkpt lat="44.27556" lon="4.97523">
        <ele>167</ele>
      </trkpt>
      <trkpt lat="44.2757" lon="4.97544">
        <ele>165</ele>
      </trkpt>
      <trkpt lat="44.27581" lon="4.97573">
        <ele>165</ele>
      </trkpt>
      <trkpt lat="44.27621" lon="4.97696">
        <ele>161</ele>
      </trkpt>
      <trkpt lat="44.27682" lon="4.97856">
        <ele>164</ele>
      </trkpt>
      <trkpt lat="44.2769" lon="4.97883">
        <ele>165</ele>
      </trkpt>
      <trkpt lat="44.27719" lon="4.98025">
        <ele>169</ele>
      </trkpt>
      <trkpt lat="44.27752" lon="4.98169">
        <ele>171</ele>
      </trkpt>
      <trkpt lat="44.27793" lon="4.98275">
        <ele>171</ele>
      </trkpt>
      <trkpt lat="44.27808" lon="4.98303">
        <ele>171</ele>
      </trkpt>
      <trkpt lat="44.27828" lon="4.98332">
        <ele>169</ele>
      </trkpt>
      <trkpt lat="44.27847" lon="4.9837">
        <ele>168</ele>
      </trkpt>
      <trkpt lat="44.27856" lon="4.98413">
        <ele>168</ele>
      </trkpt>
      <trkpt lat="44.2786" lon="4.98445">
        <ele>170</ele>
      </trkpt>
      <trkpt lat="44.27863" lon="4.98478">
        <ele>171</ele>
      </trkpt>
      <trkpt lat="44.27859" lon="4.9857">
        <ele>172</ele>
      </trkpt>
      <trkpt lat="44.27859" lon="4.98611">
        <ele>173</ele>
      </trkpt>
      <trkpt lat="44.27862" lon="4.98637">
        <ele>174</ele>
      </trkpt>
      <trkpt lat="44.2787" lon="4.98658">
        <ele>173</ele>
      </trkpt>
      <trkpt lat="44.27883" lon="4.98685">
        <ele>174</ele>
      </trkpt>
      <trkpt lat="44.27916" lon="4.98723">
        <ele>173</ele>
      </trkpt>
      <trkpt lat="44.27942" lon="4.98759">
        <ele>171</ele>
      </trkpt>
      <trkpt lat="44.27961" lon="4.98796">
        <ele>170</ele>
      </trkpt>
      <trkpt lat="44.27977" lon="4.98829">
        <ele>171</ele>
      </trkpt>
      <trkpt lat="44.27984" lon="4.98853">
        <ele>170</ele>
      </trkpt>
      <trkpt lat="44.27994" lon="4.989">
        <ele>171</ele>
      </trkpt>
      <trkpt lat="44.28025" lon="4.99082">
        <ele>175</ele>
      </trkpt>
      <trkpt lat="44.28031" lon="4.99109">
        <ele>175</ele>
      </trkpt>
      <trkpt lat="44.28041" lon="4.99131">
        <ele>174</ele>
      </trkpt>
      <trkpt lat="44.28048" lon="4.99147">
        <ele>175</ele>
      </trkpt>
      <trkpt lat="44.28057" lon="4.99159">
        <ele>175</ele>
      </trkpt>
      <trkpt lat="44.28069" lon="4.99186">
        <ele>174</ele>
      </trkpt>
      <trkpt lat="44.28069" lon="4.99194">
        <ele>174</ele>
      </trkpt>
      <trkpt lat="44.28072" lon="4.99202">
        <ele>175</ele>
      </trkpt>
      <trkpt lat="44.28077" lon="4.99208">
        <ele>174</ele>
      </trkpt>
      <trkpt lat="44.28086" lon="4.99211">
        <ele>174</ele>
      </trkpt>
      <trkpt lat="44.28093" lon="4.99208">
        <ele>173</ele>
      </trkpt>
      <trkpt lat="44.28098" lon="4.992">
        <ele>173</ele>
      </trkpt>
      <trkpt lat="44.28102" lon="4.99174">
        <ele>173</ele>
      </trkpt>
      <trkpt lat="44.28111" lon="4.99156">
        <ele>173</ele>
      </trkpt>
      <trkpt lat="44.28122" lon="4.99148">
        <ele>173</ele>
      </trkpt>
      <trkpt lat="44.28146" lon="4.99135">
        <ele>173</ele>
      </trkpt>
      <trkpt lat="44.28593" lon="4.98967">
        <ele>166</ele>
      </trkpt>
      <trkpt lat="44.28861" lon="4.98871">
        <ele>166</ele>
      </trkpt>
      <trkpt lat="44.29059" lon="4.98797">
        <ele>174</ele>
      </trkpt>
      <trkpt lat="44.29087" lon="4.98795">
        <ele>175</ele>
      </trkpt>
      <trkpt lat="44.29124" lon="4.98799">
        <ele>177</ele>
      </trkpt>
      <trkpt lat="44.29131" lon="4.98803">
        <ele>178</ele>
      </trkpt>
      <trkpt lat="44.2914" lon="4.9881">
        <ele>177</ele>
      </trkpt>
      <trkpt lat="44.29153" lon="4.98826">
        <ele>178</ele>
      </trkpt>
      <trkpt lat="44.29165" lon="4.98856">
        <ele>177</ele>
      </trkpt>
      <trkpt lat="44.29385" lon="4.99764">
        <ele>178</ele>
      </trkpt>
      <trkpt lat="44.29394" lon="4.99793">
        <ele>178</ele>
      </trkpt>
      <trkpt lat="44.29416" lon="4.99851">
        <ele>179</ele>
      </trkpt>
      <trkpt lat="44.29614" lon="5.00287">
        <ele>185</ele>
      </trkpt>
      <trkpt lat="44.29638" lon="5.00352">
        <ele>185</ele>
      </trkpt>
      <trkpt lat="44.29648" lon="5.00383">
        <ele>186</ele>
      </trkpt>
      <trkpt lat="44.29736" lon="5.0071">
        <ele>191</ele>
      </trkpt>
      <trkpt lat="44.29754" lon="5.00751">
        <ele>192</ele>
      </trkpt>
      <trkpt lat="44.29761" lon="5.0078">
        <ele>194</ele>
      </trkpt>
      <trkpt lat="44.29841" lon="5.00918">
        <ele>199</ele>
      </trkpt>
      <trkpt lat="44.29846" lon="5.00927">
        <ele>200</ele>
      </trkpt>
      <trkpt lat="44.29886" lon="5.0091">
        <ele>200</ele>
      </trkpt>
      <trkpt lat="44.29883" lon="5.00893">
        <ele>200</ele>
      </trkpt>
      <trkpt lat="44.29895" lon="5.00873">
        <ele>201</ele>
      </trkpt>
      <trkpt lat="44.29953" lon="5.00812">
        <ele>205</ele>
      </trkpt>
      <trkpt lat="44.30051" lon="5.00727">
        <ele>208</ele>
      </trkpt>
      <trkpt lat="44.30113" lon="5.00665">
        <ele>213</ele>
      </trkpt>
      <trkpt lat="44.30257" lon="5.00589">
        <ele>221</ele>
      </trkpt>
      <trkpt lat="44.30306" lon="5.00573">
        <ele>226</ele>
      </trkpt>
      <trkpt lat="44.30378" lon="5.00557">
        <ele>226</ele>
      </trkpt>
      <trkpt lat="44.30465" lon="5.00534">
        <ele>232</ele>
      </trkpt>
      <trkpt lat="44.30509" lon="5.00519">
        <ele>235</ele>
      </trkpt>
      <trkpt lat="44.30521" lon="5.00512">
        <ele>235</ele>
      </trkpt>
      <trkpt lat="44.30529" lon="5.00502">
        <ele>235</ele>
      </trkpt>
      <trkpt lat="44.3053" lon="5.00486">
        <ele>238</ele>
      </trkpt>
      <trkpt lat="44.30499" lon="5.00273">
        <ele>252</ele>
      </trkpt>
      <trkpt lat="44.305" lon="5.00251">
        <ele>253</ele>
      </trkpt>
      <trkpt lat="44.30508" lon="5.00232">
        <ele>254</ele>
      </trkpt>
      <trkpt lat="44.30561" lon="5.00163">
        <ele>261</ele>
      </trkpt>
      <trkpt lat="44.30579" lon="5.00148">
        <ele>262</ele>
      </trkpt>
      <trkpt lat="44.30591" lon="5.00143">
        <ele>262</ele>
      </trkpt>
      <trkpt lat="44.30603" lon="5.00142">
        <ele>263</ele>
      </trkpt>
      <trkpt lat="44.30677" lon="5.00165">
        <ele>265</ele>
      </trkpt>
      <trkpt lat="44.30704" lon="5.00176">
        <ele>269</ele>
      </trkpt>
      <trkpt lat="44.30738" lon="5.002">
        <ele>274</ele>
      </trkpt>
      <trkpt lat="44.30784" lon="5.00214">
        <ele>276</ele>
      </trkpt>
      <trkpt lat="44.30836" lon="5.00214">
        <ele>277</ele>
      </trkpt>
      <trkpt lat="44.30876" lon="5.00227">
        <ele>277</ele>
      </trkpt>
      <trkpt lat="44.3092" lon="5.00258">
        <ele>280</ele>
      </trkpt>
      <trkpt lat="44.30941" lon="5.00264">
        <ele>283</ele>
      </trkpt>
      <trkpt lat="44.3095" lon="5.00266">
        <ele>283</ele>
      </trkpt>
      <trkpt lat="44.30963" lon="5.00265">
        <ele>286</ele>
      </trkpt>
      <trkpt lat="44.31031" lon="5.00246">
        <ele>293</ele>
      </trkpt>
      <trkpt lat="44.31042" lon="5.00248">
        <ele>296</ele>
      </trkpt>
      <trkpt lat="44.31051" lon="5.00253">
        <ele>296</ele>
      </trkpt>
      <trkpt lat="44.31101" lon="5.00303">
        <ele>301</ele>
      </trkpt>
      <trkpt lat="44.31128" lon="5.00317">
        <ele>300</ele>
      </trkpt>
      <trkpt lat="44.31151" lon="5.00324">
        <ele>302</ele>
      </trkpt>
      <trkpt lat="44.31237" lon="5.00325">
        <ele>309</ele>
      </trkpt>
      <trkpt lat="44.31355" lon="5.00304">
        <ele>322</ele>
      </trkpt>
      <trkpt lat="44.31423" lon="5.00308">
        <ele>328</ele>
      </trkpt>
      <trkpt lat="44.31429" lon="5.00307">
        <ele>332</ele>
      </trkpt>
      <trkpt lat="44.31432" lon="5.00301">
        <ele>333</ele>
      </trkpt>
      <trkpt lat="44.31431" lon="5.00296">
        <ele>333</ele>
      </trkpt>
      <trkpt lat="44.31425" lon="5.00291">
        <ele>330</ele>
      </trkpt>
      <trkpt lat="44.31382" lon="5.00279">
        <ele>327</ele>
      </trkpt>
      <trkpt lat="44.31359" lon="5.0027">
        <ele>330</ele>
      </trkpt>
      <trkpt lat="44.31322" lon="5.00244">
        <ele>333</ele>
      </trkpt>
      <trkpt lat="44.31291" lon="5.00227">
        <ele>332</ele>
      </trkpt>
      <trkpt lat="44.31277" lon="5.00217">
        <ele>334</ele>
      </trkpt>
      <trkpt lat="44.31273" lon="5.00208">
        <ele>335</ele>
      </trkpt>
      <trkpt lat="44.31271" lon="5.00198">
        <ele>334</ele>
      </trkpt>
      <trkpt lat="44.31273" lon="5.0019">
        <ele>336</ele>
      </trkpt>
      <trkpt lat="44.31278" lon="5.00182">
        <ele>337</ele>
      </trkpt>
      <trkpt lat="44.31304" lon="5.0016">
        <ele>340</ele>
      </trkpt>
      <trkpt lat="44.31378" lon="5.00127">
        <ele>348</ele>
      </trkpt>
      <trkpt lat="44.31392" lon="5.00128">
        <ele>348</ele>
      </trkpt>
      <trkpt lat="44.31411" lon="5.00134">
        <ele>351</ele>
      </trkpt>
      <trkpt lat="44.3142" lon="5.00135">
        <ele>351</ele>
      </trkpt>
      <trkpt lat="44.31429" lon="5.00132">
        <ele>354</ele>
      </trkpt>
      <trkpt lat="44.31444" lon="5.00123">
        <ele>354</ele>
      </trkpt>
      <trkpt lat="44.31462" lon="5.00107">
        <ele>359</ele>
      </trkpt>
      <trkpt lat="44.3148" lon="5.00082">
        <ele>360</ele>
      </trkpt>
      <trkpt lat="44.31483" lon="5.00073">
        <ele>363</ele>
      </trkpt>
      <trkpt lat="44.31482" lon="5.00064">
        <ele>363</ele>
      </trkpt>
      <trkpt lat="44.3148" lon="5.00057">
        <ele>360</ele>
      </trkpt>
      <trkpt lat="44.31428" lon="4.9997">
        <ele>361</ele>
      </trkpt>
      <trkpt lat="44.31423" lon="4.99956">
        <ele>360</ele>
      </trkpt>
      <trkpt lat="44.31423" lon="4.99944">
        <ele>360</ele>
      </trkpt>
      <trkpt lat="44.31429" lon="4.99935">
        <ele>361</ele>
      </trkpt>
      <trkpt lat="44.31595" lon="4.99907">
        <ele>364</ele>
      </trkpt>
      <trkpt lat="44.31626" lon="4.99906">
        <ele>359</ele>
      </trkpt>
      <trkpt lat="44.31634" lon="4.9991">
        <ele>359</ele>
      </trkpt>
      <trkpt lat="44.31644" lon="4.99918">
        <ele>360</ele>
      </trkpt>
      <trkpt lat="44.31659" lon="4.9994">
        <ele>356</ele>
      </trkpt>
      <trkpt lat="44.31665" lon="4.99954">
        <ele>358</ele>
      </trkpt>
      <trkpt lat="44.31672" lon="4.99998">
        <ele>359</ele>
      </trkpt>
      <trkpt lat="44.31676" lon="5.00012">
        <ele>361</ele>
      </trkpt>
      <trkpt lat="44.31684" lon="5.00021">
        <ele>361</ele>
      </trkpt>
      <trkpt lat="44.31691" lon="5.00026">
        <ele>361</ele>
      </trkpt>
      <trkpt lat="44.31762" lon="5.00048">
        <ele>358</ele>
      </trkpt>
      <trkpt lat="44.31776" lon="5.00054">
        <ele>359</ele>
      </trkpt>
      <trkpt lat="44.31809" lon="5.00081">
        <ele>361</ele>
      </trkpt>
      <trkpt lat="44.31819" lon="5.00083">
        <ele>362</ele>
      </trkpt>
      <trkpt lat="44.31832" lon="5.0008">
        <ele>362</ele>
      </trkpt>
      <trkpt lat="44.31836" lon="5.00075">
        <ele>362</ele>
      </trkpt>
      <trkpt lat="44.31843" lon="5.00057">
        <ele>364</ele>
      </trkpt>
      <trkpt lat="44.31844" lon="5.00046">
        <ele>365</ele>
      </trkpt>
      <trkpt lat="44.3184" lon="5.00023">
        <ele>364</ele>
      </trkpt>
      <trkpt lat="44.31814" lon="4.99961">
        <ele>362</ele>
      </trkpt>
      <trkpt lat="44.31808" lon="4.99932">
        <ele>362</ele>
      </trkpt>
      <trkpt lat="44.31807" lon="4.99917">
        <ele>361</ele>
      </trkpt>
      <trkpt lat="44.31811" lon="4.99899">
        <ele>362</ele>
      </trkpt>
      <trkpt lat="44.31825" lon="4.99853">
        <ele>363</ele>
      </trkpt>
      <trkpt lat="44.31836" lon="4.99826">
        <ele>360</ele>
      </trkpt>
      <trkpt lat="44.31863" lon="4.99787">
        <ele>361</ele>
      </trkpt>
      <trkpt lat="44.31916" lon="4.99723">
        <ele>362</ele>
      </trkpt>
      <trkpt lat="44.31997" lon="4.99647">
        <ele>357</ele>
      </trkpt>
      <trkpt lat="44.32016" lon="4.9962">
        <ele>354</ele>
      </trkpt>
      <trkpt lat="44.32033" lon="4.99575">
        <ele>354</ele>
      </trkpt>
      <trkpt lat="44.32056" lon="4.99489">
        <ele>352</ele>
      </trkpt>
      <trkpt lat="44.32097" lon="4.99376">
        <ele>345</ele>
      </trkpt>
      <trkpt lat="44.32102" lon="4.99349">
        <ele>345</ele>
      </trkpt>
      <trkpt lat="44.32102" lon="4.99281">
        <ele>343</ele>
      </trkpt>
      <trkpt lat="44.32103" lon="4.99244">
        <ele>345</ele>
      </trkpt>
      <trkpt lat="44.32104" lon="4.99229">
        <ele>345</ele>
      </trkpt>
      <trkpt lat="44.32116" lon="4.9919">
        <ele>347</ele>
      </trkpt>
      <trkpt lat="44.32135" lon="4.99141">
        <ele>346</ele>
      </trkpt>
      <trkpt lat="44.32151" lon="4.99121">
        <ele>348</ele>
      </trkpt>
      <trkpt lat="44.32156" lon="4.99118">
        <ele>349</ele>
      </trkpt>
      <trkpt lat="44.32161" lon="4.99119">
        <ele>349</ele>
      </trkpt>
      <trkpt lat="44.32168" lon="4.99123">
        <ele>349</ele>
      </trkpt>
      <trkpt lat="44.32191" lon="4.99152">
        <ele>346</ele>
      </trkpt>
      <trkpt lat="44.32218" lon="4.99179">
        <ele>341</ele>
      </trkpt>
      <trkpt lat="44.32237" lon="4.99191">
        <ele>341</ele>
      </trkpt>
      <trkpt lat="44.3227" lon="4.99206">
        <ele>337</ele>
      </trkpt>
      <trkpt lat="44.32336" lon="4.99222">
        <ele>334</ele>
      </trkpt>
      <trkpt lat="44.32348" lon="4.99224">
        <ele>329</ele>
      </trkpt>
      <trkpt lat="44.3237" lon="4.99221">
        <ele>331</ele>
      </trkpt>
      <trkpt lat="44.32379" lon="4.99216">
        <ele>329</ele>
      </trkpt>
      <trkpt lat="44.32408" lon="4.99191">
        <ele>333</ele>
      </trkpt>
      <trkpt lat="44.32414" lon="4.99188">
        <ele>334</ele>
      </trkpt>
      <trkpt lat="44.32438" lon="4.99196">
        <ele>326</ele>
      </trkpt>
      <trkpt lat="44.32457" lon="4.99208">
        <ele>321</ele>
      </trkpt>
      <trkpt lat="44.32478" lon="4.99209">
        <ele>319</ele>
      </trkpt>
      <trkpt lat="44.32483" lon="4.99207">
        <ele>315</ele>
      </trkpt>
      <trkpt lat="44.32499" lon="4.992">
        <ele>314</ele>
      </trkpt>
      <trkpt lat="44.32514" lon="4.99185">
        <ele>310</ele>
      </trkpt>
      <trkpt lat="44.32521" lon="4.99173">
        <ele>309</ele>
      </trkpt>
      <trkpt lat="44.32537" lon="4.9913">
        <ele>306</ele>
      </trkpt>
      <trkpt lat="44.32546" lon="4.99113">
        <ele>306</ele>
      </trkpt>
      <trkpt lat="44.32568" lon="4.9908">
        <ele>304</ele>
      </trkpt>
      <trkpt lat="44.32572" lon="4.99072">
        <ele>304</ele>
      </trkpt>
      <trkpt lat="44.32574" lon="4.99062">
        <ele>304</ele>
      </trkpt>
      <trkpt lat="44.32575" lon="4.99033">
        <ele>304</ele>
      </trkpt>
      <trkpt lat="44.3258" lon="4.9902">
        <ele>302</ele>
      </trkpt>
      <trkpt lat="44.32584" lon="4.99016">
        <ele>302</ele>
      </trkpt>
      <trkpt lat="44.32593" lon="4.99012">
        <ele>299</ele>
      </trkpt>
      <trkpt lat="44.32604" lon="4.99017">
        <ele>299</ele>
      </trkpt>
      <trkpt lat="44.32609" lon="4.99029">
        <ele>299</ele>
      </trkpt>
      <trkpt lat="44.32609" lon="4.99043">
        <ele>300</ele>
      </trkpt>
      <trkpt lat="44.32607" lon="4.99049">
        <ele>300</ele>
      </trkpt>
      <trkpt lat="44.32579" lon="4.99104">
        <ele>301</ele>
      </trkpt>
      <trkpt lat="44.32572" lon="4.99126">
        <ele>298</ele>
      </trkpt>
      <trkpt lat="44.32572" lon="4.99173">
        <ele>292</ele>
      </trkpt>
      <trkpt lat="44.32564" lon="4.9921">
        <ele>295</ele>
      </trkpt>
      <trkpt lat="44.32563" lon="4.99229">
        <ele>292</ele>
      </trkpt>
      <trkpt lat="44.32564" lon="4.99257">
        <ele>288</ele>
      </trkpt>
      <trkpt lat="44.32562" lon="4.99268">
        <ele>288</ele>
      </trkpt>
      <trkpt lat="44.32553" lon="4.99286">
        <ele>288</ele>
      </trkpt>
      <trkpt lat="44.32545" lon="4.99295">
        <ele>288</ele>
      </trkpt>
      <trkpt lat="44.32461" lon="4.99365">
        <ele>291</ele>
      </trkpt>
      <trkpt lat="44.32455" lon="4.99373">
        <ele>291</ele>
      </trkpt>
      <trkpt lat="44.32451" lon="4.9939">
        <ele>291</ele>
      </trkpt>
      <trkpt lat="44.32453" lon="4.99411">
        <ele>290</ele>
      </trkpt>
      <trkpt lat="44.32457" lon="4.9942">
        <ele>288</ele>
      </trkpt>
      <trkpt lat="44.32462" lon="4.99427">
        <ele>288</ele>
      </trkpt>
      <trkpt lat="44.32471" lon="4.99432">
        <ele>287</ele>
      </trkpt>
      <trkpt lat="44.32483" lon="4.99432">
        <ele>286</ele>
      </trkpt>
      <trkpt lat="44.32507" lon="4.99416">
        <ele>285</ele>
      </trkpt>
      <trkpt lat="44.32578" lon="4.99393">
        <ele>274</ele>
      </trkpt>
      <trkpt lat="44.32587" lon="4.99389">
        <ele>273</ele>
      </trkpt>
      <trkpt lat="44.32599" lon="4.99379">
        <ele>269</ele>
      </trkpt>
      <trkpt lat="44.32604" lon="4.99372">
        <ele>268</ele>
      </trkpt>
      <trkpt lat="44.32611" lon="4.99353">
        <ele>268</ele>
      </trkpt>
      <trkpt lat="44.32624" lon="4.99279">
        <ele>265</ele>
      </trkpt>
      <trkpt lat="44.32627" lon="4.99254">
        <ele>265</ele>
      </trkpt>
      <trkpt lat="44.32634" lon="4.99237">
        <ele>265</ele>
      </trkpt>
      <trkpt lat="44.32641" lon="4.99228">
        <ele>265</ele>
      </trkpt>
      <trkpt lat="44.32646" lon="4.99226">
        <ele>265</ele>
      </trkpt>
      <trkpt lat="44.32657" lon="4.99226">
        <ele>262</ele>
      </trkpt>
      <trkpt lat="44.32675" lon="4.99233">
        <ele>261</ele>
      </trkpt>
      <trkpt lat="44.32684" lon="4.99202">
        <ele>260</ele>
      </trkpt>
      <trkpt lat="44.32691" lon="4.99186">
        <ele>260</ele>
      </trkpt>
      <trkpt lat="44.32717" lon="4.99141">
        <ele>260</ele>
      </trkpt>
      <trkpt lat="44.32732" lon="4.9912">
        <ele>260</ele>
      </trkpt>
      <trkpt lat="44.32773" lon="4.99079">
        <ele>261</ele>
      </trkpt>
      <trkpt lat="44.3279" lon="4.99066">
        <ele>261</ele>
      </trkpt>
      <trkpt lat="44.32844" lon="4.99033">
        <ele>259</ele>
      </trkpt>
      <trkpt lat="44.32858" lon="4.99022">
        <ele>259</ele>
      </trkpt>
      <trkpt lat="44.32873" lon="4.99005">
        <ele>257</ele>
      </trkpt>
      <trkpt lat="44.32895" lon="4.98972">
        <ele>257</ele>
      </trkpt>
      <trkpt lat="44.32905" lon="4.98959">
        <ele>255</ele>
      </trkpt>
      <trkpt lat="44.32918" lon="4.98948">
        <ele>255</ele>
      </trkpt>
      <trkpt lat="44.32964" lon="4.98917">
        <ele>253</ele>
      </trkpt>
      <trkpt lat="44.32977" lon="4.98906">
        <ele>252</ele>
      </trkpt>
      <trkpt lat="44.33032" lon="4.98849">
        <ele>250</ele>
      </trkpt>
      <trkpt lat="44.33055" lon="4.98828">
        <ele>250</ele>
      </trkpt>
      <trkpt lat="44.33076" lon="4.98814">
        <ele>251</ele>
      </trkpt>
      <trkpt lat="44.33114" lon="4.98794">
        <ele>252</ele>
      </trkpt>
      <trkpt lat="44.3313" lon="4.98783">
        <ele>254</ele>
      </trkpt>
      <trkpt lat="44.33152" lon="4.98757">
        <ele>255</ele>
      </trkpt>
      <trkpt lat="44.33176" lon="4.98736">
        <ele>257</ele>
      </trkpt>
      <trkpt lat="44.33194" lon="4.98717">
        <ele>257</ele>
      </trkpt>
      <trkpt lat="44.33215" lon="4.98689">
        <ele>259</ele>
      </trkpt>
      <trkpt lat="44.3323" lon="4.98657">
        <ele>258</ele>
      </trkpt>
      <trkpt lat="44.33238" lon="4.98621">
        <ele>258</ele>
      </trkpt>
      <trkpt lat="44.33254" lon="4.98578">
        <ele>253</ele>
      </trkpt>
      <trkpt lat="44.33269" lon="4.98548">
        <ele>253</ele>
      </trkpt>
      <trkpt lat="44.33284" lon="4.98526">
        <ele>251</ele>
      </trkpt>
      <trkpt lat="44.33314" lon="4.98466">
        <ele>251</ele>
      </trkpt>
      <trkpt lat="44.33397" lon="4.98321">
        <ele>251</ele>
      </trkpt>
      <trkpt lat="44.33412" lon="4.98299">
        <ele>250</ele>
      </trkpt>
      <trkpt lat="44.33483" lon="4.98217">
        <ele>247</ele>
      </trkpt>
      <trkpt lat="44.33486" lon="4.98207">
        <ele>247</ele>
      </trkpt>
      <trkpt lat="44.33486" lon="4.98184">
        <ele>247</ele>
      </trkpt>
      <trkpt lat="44.33489" lon="4.98167">
        <ele>247</ele>
      </trkpt>
      <trkpt lat="44.33498" lon="4.98152">
        <ele>247</ele>
      </trkpt>
      <trkpt lat="44.33518" lon="4.98125">
        <ele>249</ele>
      </trkpt>
      <trkpt lat="44.33564" lon="4.98068">
        <ele>246</ele>
      </trkpt>
      <trkpt lat="44.33691" lon="4.97924">
        <ele>246</ele>
      </trkpt>
      <trkpt lat="44.33728" lon="4.97884">
        <ele>242</ele>
      </trkpt>
      <trkpt lat="44.33777" lon="4.97842">
        <ele>245</ele>
      </trkpt>
      <trkpt lat="44.33948" lon="4.97675">
        <ele>241</ele>
      </trkpt>
      <trkpt lat="44.3397" lon="4.97661">
        <ele>241</ele>
      </trkpt>
      <trkpt lat="44.34048" lon="4.97628">
        <ele>248</ele>
      </trkpt>
      <trkpt lat="44.3414" lon="4.97592">
        <ele>247</ele>
      </trkpt>
      <trkpt lat="44.34154" lon="4.9759">
        <ele>247</ele>
      </trkpt>
      <trkpt lat="44.34161" lon="4.97592">
        <ele>246</ele>
      </trkpt>
      <trkpt lat="44.34171" lon="4.976">
        <ele>246</ele>
      </trkpt>
      <trkpt lat="44.34245" lon="4.97681">
        <ele>248</ele>
      </trkpt>
      <trkpt lat="44.34295" lon="4.97729">
        <ele>247</ele>
      </trkpt>
      <trkpt lat="44.34392" lon="4.97811">
        <ele>248</ele>
      </trkpt>
      <trkpt lat="44.34512" lon="4.97878">
        <ele>247</ele>
      </trkpt>
      <trkpt lat="44.34542" lon="4.97891">
        <ele>247</ele>
      </trkpt>
      <trkpt lat="44.34619" lon="4.97917">
        <ele>248</ele>
      </trkpt>
      <trkpt lat="44.34647" lon="4.97934">
        <ele>247</ele>
      </trkpt>
      <trkpt lat="44.34667" lon="4.97951">
        <ele>247</ele>
      </trkpt>
      <trkpt lat="44.34753" lon="4.98064">
        <ele>248</ele>
      </trkpt>
      <trkpt lat="44.34774" lon="4.98085">
        <ele>249</ele>
      </trkpt>
      <trkpt lat="44.34895" lon="4.98191">
        <ele>250</ele>
      </trkpt>
      <trkpt lat="44.34916" lon="4.98205">
        <ele>250</ele>
      </trkpt>
      <trkpt lat="44.34931" lon="4.98207">
        <ele>251</ele>
      </trkpt>
      <trkpt lat="44.34975" lon="4.982">
        <ele>252</ele>
      </trkpt>
      <trkpt lat="44.34995" lon="4.98196">
        <ele>253</ele>
      </trkpt>
      <trkpt lat="44.35016" lon="4.98183">
        <ele>255</ele>
      </trkpt>
      <trkpt lat="44.35023" lon="4.98174">
        <ele>255</ele>
      </trkpt>
      <trkpt lat="44.35048" lon="4.98101">
        <ele>260</ele>
      </trkpt>
      <trkpt lat="44.3506" lon="4.9808">
        <ele>259</ele>
      </trkpt>
      <trkpt lat="44.35067" lon="4.98072">
        <ele>260</ele>
      </trkpt>
      <trkpt lat="44.35076" lon="4.98067">
        <ele>260</ele>
      </trkpt>
      <trkpt lat="44.35086" lon="4.98067">
        <ele>261</ele>
      </trkpt>
      <trkpt lat="44.35095" lon="4.9807">
        <ele>263</ele>
      </trkpt>
      <trkpt lat="44.35112" lon="4.98084">
        <ele>264</ele>
      </trkpt>
      <trkpt lat="44.35125" lon="4.98105">
        <ele>268</ele>
      </trkpt>
      <trkpt lat="44.35152" lon="4.98174">
        <ele>271</ele>
      </trkpt>
      <trkpt lat="44.35192" lon="4.98259">
        <ele>273</ele>
      </trkpt>
      <trkpt lat="44.35204" lon="4.98276">
        <ele>273</ele>
      </trkpt>
      <trkpt lat="44.35219" lon="4.98285">
        <ele>274</ele>
      </trkpt>
      <trkpt lat="44.35259" lon="4.983">
        <ele>276</ele>
      </trkpt>
      <trkpt lat="44.35326" lon="4.98319">
        <ele>280</ele>
      </trkpt>
      <trkpt lat="44.35361" lon="4.98323">
        <ele>283</ele>
      </trkpt>
      <trkpt lat="44.3545" lon="4.98319">
        <ele>286</ele>
      </trkpt>
      <trkpt lat="44.35495" lon="4.98309">
        <ele>289</ele>
      </trkpt>
      <trkpt lat="44.35603" lon="4.98297">
        <ele>297</ele>
      </trkpt>
      <trkpt lat="44.35653" lon="4.98295">
        <ele>292</ele>
      </trkpt>
      <trkpt lat="44.35685" lon="4.983">
        <ele>291</ele>
      </trkpt>
      <trkpt lat="44.358" lon="4.98359">
        <ele>292</ele>
      </trkpt>
      <trkpt lat="44.35815" lon="4.98371">
        <ele>293</ele>
      </trkpt>
      <trkpt lat="44.35896" lon="4.98455">
        <ele>295</ele>
      </trkpt>
      <trkpt lat="44.35913" lon="4.98468">
        <ele>293</ele>
      </trkpt>
      <trkpt lat="44.35935" lon="4.98481">
        <ele>292</ele>
      </trkpt>
      <trkpt lat="44.35956" lon="4.9849">
        <ele>290</ele>
      </trkpt>
      <trkpt lat="44.3607" lon="4.98518">
        <ele>282</ele>
      </trkpt>
      <trkpt lat="44.361" lon="4.98527">
        <ele>279</ele>
      </trkpt>
      <trkpt lat="44.36214" lon="4.98584">
        <ele>276</ele>
      </trkpt>
      <trkpt lat="44.36265" lon="4.98615">
        <ele>274</ele>
      </trkpt>
      <trkpt lat="44.36302" lon="4.9865">
        <ele>272</ele>
      </trkpt>
      <trkpt lat="44.36335" lon="4.98692">
        <ele>270</ele>
      </trkpt>
      <trkpt lat="44.36353" lon="4.9871">
        <ele>271</ele>
      </trkpt>
      <trkpt lat="44.36362" lon="4.98716">
        <ele>271</ele>
      </trkpt>
      <trkpt lat="44.36371" lon="4.98717">
        <ele>271</ele>
      </trkpt>
      <trkpt lat="44.36427" lon="4.98695">
        <ele>267</ele>
      </trkpt>
      <trkpt lat="44.3644" lon="4.98694">
        <ele>265</ele>
      </trkpt>
      <trkpt lat="44.36452" lon="4.98696">
        <ele>266</ele>
      </trkpt>
      <trkpt lat="44.36564" lon="4.98762">
        <ele>259</ele>
      </trkpt>
      <trkpt lat="44.36586" lon="4.9877">
        <ele>258</ele>
      </trkpt>
      <trkpt lat="44.36773" lon="4.98809">
        <ele>249</ele>
      </trkpt>
      <trkpt lat="44.36803" lon="4.98809">
        <ele>248</ele>
      </trkpt>
      <trkpt lat="44.37133" lon="4.98751">
        <ele>237</ele>
      </trkpt>
      <trkpt lat="44.37191" lon="4.98735">
        <ele>237</ele>
      </trkpt>
      <trkpt lat="44.37278" lon="4.98699">
        <ele>235</ele>
      </trkpt>
      <trkpt lat="44.37304" lon="4.9869">
        <ele>233</ele>
      </trkpt>
      <trkpt lat="44.37331" lon="4.98686">
        <ele>232</ele>
      </trkpt>
      <trkpt lat="44.37363" lon="4.98685">
        <ele>232</ele>
      </trkpt>
      <trkpt lat="44.37558" lon="4.98736">
        <ele>233</ele>
      </trkpt>
      <trkpt lat="44.37616" lon="4.98758">
        <ele>232</ele>
      </trkpt>
      <trkpt lat="44.37715" lon="4.98803">
        <ele>232</ele>
      </trkpt>
      <trkpt lat="44.37818" lon="4.98834">
        <ele>233</ele>
      </trkpt>
      <trkpt lat="44.37838" lon="4.98846">
        <ele>233</ele>
      </trkpt>
      <trkpt lat="44.38015" lon="4.98981">
        <ele>236</ele>
      </trkpt>
      <trkpt lat="44.38155" lon="4.99069">
        <ele>242</ele>
      </trkpt>
      <trkpt lat="44.382" lon="4.99095">
        <ele>243</ele>
      </trkpt>
      <trkpt lat="44.38202" lon="4.99102">
        <ele>243</ele>
      </trkpt>
      <trkpt lat="44.38204" lon="4.99104">
        <ele>243</ele>
      </trkpt>
      <trkpt lat="44.3821" lon="4.99106">
        <ele>244</ele>
      </trkpt>
      <trkpt lat="44.38213" lon="4.99103">
        <ele>244</ele>
      </trkpt>
      <trkpt lat="44.38215" lon="4.99095">
        <ele>244</ele>
      </trkpt>
      <trkpt lat="44.38214" lon="4.9909">
        <ele>244</ele>
      </trkpt>
      <trkpt lat="44.38243" lon="4.9906">
        <ele>244</ele>
      </trkpt>
      <trkpt lat="44.38269" lon="4.99038">
        <ele>244</ele>
      </trkpt>
      <trkpt lat="44.38288" lon="4.99107">
        <ele>245</ele>
      </trkpt>
      <trkpt lat="44.38311" lon="4.99099">
        <ele>246</ele>
      </trkpt>
      <trkpt lat="44.38338" lon="4.9908">
        <ele>249</ele>
      </trkpt>
      <trkpt lat="44.38347" lon="4.99078">
        <ele>250</ele>
      </trkpt>
      <trkpt lat="44.38351" lon="4.99081">
        <ele>250</ele>
      </trkpt>
      <trkpt lat="44.38354" lon="4.99086">
        <ele>250</ele>
      </trkpt>
      <trkpt lat="44.38365" lon="4.99106">
        <ele>250</ele>
      </trkpt>
      <trkpt lat="44.38389" lon="4.99132">
        <ele>249</ele>
      </trkpt>
      <trkpt lat="44.38405" lon="4.99141">
        <ele>248</ele>
      </trkpt>
      <trkpt lat="44.38426" lon="4.9915">
        <ele>248</ele>
      </trkpt>
      <trkpt lat="44.38436" lon="4.99095">
        <ele>248</ele>
      </trkpt>
      <trkpt lat="44.38439" lon="4.9907">
        <ele>249</ele>
      </trkpt>
      <trkpt lat="44.38442" lon="4.99053">
        <ele>249</ele>
      </trkpt>
      <trkpt lat="44.38445" lon="4.99045">
        <ele>249</ele>
      </trkpt>
      <trkpt lat="44.38464" lon="4.99034">
        <ele>246</ele>
      </trkpt>
      <trkpt lat="44.38483" lon="4.99038">
        <ele>243</ele>
      </trkpt>
      <trkpt lat="44.38497" lon="4.99037">
        <ele>242</ele>
      </trkpt>
      <trkpt lat="44.38506" lon="4.99032">
        <ele>242</ele>
      </trkpt>
      <trkpt lat="44.3851" lon="4.99034">
        <ele>242</ele>
      </trkpt>
      <trkpt lat="44.3852" lon="4.99046">
        <ele>240</ele>
      </trkpt>
      <trkpt lat="44.38528" lon="4.99047">
        <ele>240</ele>
      </trkpt>
      <trkpt lat="44.38529" lon="4.99068">
        <ele>242</ele>
      </trkpt>
      <trkpt lat="44.38551" lon="4.99073">
        <ele>239</ele>
      </trkpt>
      <trkpt lat="44.38586" lon="4.99083">
        <ele>237</ele>
      </trkpt>
      <trkpt lat="44.38615" lon="4.99085">
        <ele>236</ele>
      </trkpt>
      <trkpt lat="44.38626" lon="4.99088">
        <ele>235</ele>
      </trkpt>
      <trkpt lat="44.38638" lon="4.991">
        <ele>234</ele>
      </trkpt>
      <trkpt lat="44.3865" lon="4.99088">
        <ele>233</ele>
      </trkpt>
      <trkpt lat="44.38657" lon="4.99087">
        <ele>233</ele>
      </trkpt>
      <trkpt lat="44.38661" lon="4.99081">
        <ele>233</ele>
      </trkpt>
      <trkpt lat="44.38662" lon="4.99073">
        <ele>233</ele>
      </trkpt>
      <trkpt lat="44.38666" lon="4.99073">
        <ele>233</ele>
      </trkpt>
      <trkpt lat="44.38719" lon="4.99054">
        <ele>231</ele>
      </trkpt>
      <trkpt lat="44.38733" lon="4.99061">
        <ele>231</ele>
      </trkpt>
      <trkpt lat="44.38738" lon="4.99068">
        <ele>231</ele>
      </trkpt>
      <trkpt lat="44.38744" lon="4.99069">
        <ele>231</ele>
      </trkpt>
      <trkpt lat="44.38752" lon="4.99063">
        <ele>231</ele>
      </trkpt>
      <trkpt lat="44.38758" lon="4.99046">
        <ele>230</ele>
      </trkpt>
      <trkpt lat="44.38764" lon="4.9904">
        <ele>230</ele>
      </trkpt>
      <trkpt lat="44.3888" lon="4.99001">
        <ele>230</ele>
      </trkpt>
      <trkpt lat="44.3898" lon="4.98971">
        <ele>229</ele>
      </trkpt>
      <trkpt lat="44.39072" lon="4.9894">
        <ele>229</ele>
      </trkpt>
      <trkpt lat="44.39103" lon="4.98919">
        <ele>229</ele>
      </trkpt>
      <trkpt lat="44.39138" lon="4.98889">
        <ele>228</ele>
      </trkpt>
      <trkpt lat="44.39156" lon="4.98875">
        <ele>228</ele>
      </trkpt>
      <trkpt lat="44.39187" lon="4.98858">
        <ele>227</ele>
      </trkpt>
      <trkpt lat="44.39305" lon="4.98799">
        <ele>229</ele>
      </trkpt>
      <trkpt lat="44.39367" lon="4.98784">
        <ele>228</ele>
      </trkpt>
      <trkpt lat="44.39405" lon="4.98772">
        <ele>228</ele>
      </trkpt>
      <trkpt lat="44.39552" lon="4.98722">
        <ele>230</ele>
      </trkpt>
      <trkpt lat="44.39579" lon="4.98711">
        <ele>230</ele>
      </trkpt>
      <trkpt lat="44.39767" lon="4.98607">
        <ele>232</ele>
      </trkpt>
      <trkpt lat="44.39804" lon="4.98589">
        <ele>232</ele>
      </trkpt>
      <trkpt lat="44.39912" lon="4.98549">
        <ele>233</ele>
      </trkpt>
      <trkpt lat="44.40068" lon="4.98508">
        <ele>236</ele>
      </trkpt>
      <trkpt lat="44.40129" lon="4.98484">
        <ele>233</ele>
      </trkpt>
      <trkpt lat="44.40323" lon="4.98397">
        <ele>234</ele>
      </trkpt>
      <trkpt lat="44.40411" lon="4.9836">
        <ele>234</ele>
      </trkpt>
      <trkpt lat="44.40647" lon="4.98295">
        <ele>232</ele>
      </trkpt>
      <trkpt lat="44.40709" lon="4.98274">
        <ele>235</ele>
      </trkpt>
      <trkpt lat="44.40747" lon="4.98266">
        <ele>234</ele>
      </trkpt>
      <trkpt lat="44.40826" lon="4.98254">
        <ele>236</ele>
      </trkpt>
      <trkpt lat="44.40884" lon="4.98249">
        <ele>237</ele>
      </trkpt>
      <trkpt lat="44.41028" lon="4.98253">
        <ele>238</ele>
      </trkpt>
      <trkpt lat="44.41069" lon="4.98257">
        <ele>239</ele>
      </trkpt>
      <trkpt lat="44.41112" lon="4.98264">
        <ele>239</ele>
      </trkpt>
      <trkpt lat="44.41185" lon="4.98289">
        <ele>240</ele>
      </trkpt>
      <trkpt lat="44.41204" lon="4.98298">
        <ele>240</ele>
      </trkpt>
      <trkpt lat="44.41222" lon="4.98308">
        <ele>240</ele>
      </trkpt>
      <trkpt lat="44.4133" lon="4.98391">
        <ele>243</ele>
      </trkpt>
      <trkpt lat="44.41346" lon="4.98401">
        <ele>244</ele>
      </trkpt>
      <trkpt lat="44.41357" lon="4.98404">
        <ele>244</ele>
      </trkpt>
      <trkpt lat="44.41371" lon="4.98406">
        <ele>244</ele>
      </trkpt>
      <trkpt lat="44.4186" lon="4.98304">
        <ele>249</ele>
      </trkpt>
      <trkpt lat="44.41896" lon="4.98305">
        <ele>250</ele>
      </trkpt>
      <trkpt lat="44.42068" lon="4.98321">
        <ele>251</ele>
      </trkpt>
      <trkpt lat="44.42291" lon="4.98376">
        <ele>246</ele>
      </trkpt>
      <trkpt lat="44.42332" lon="4.98387">
        <ele>246</ele>
      </trkpt>
      <trkpt lat="44.4238" lon="4.98401">
        <ele>246</ele>
      </trkpt>
      <trkpt lat="44.42444" lon="4.98409">
        <ele>248</ele>
      </trkpt>
      <trkpt lat="44.42495" lon="4.98409">
        <ele>248</ele>
      </trkpt>
      <trkpt lat="44.42531" lon="4.98405">
        <ele>248</ele>
      </trkpt>
      <trkpt lat="44.42576" lon="4.98395">
        <ele>248</ele>
      </trkpt>
      <trkpt lat="44.42607" lon="4.98385">
        <ele>247</ele>
      </trkpt>
      <trkpt lat="44.42753" lon="4.98323">
        <ele>248</ele>
      </trkpt>
      <trkpt lat="44.42809" lon="4.98308">
        <ele>250</ele>
      </trkpt>
      <trkpt lat="44.42927" lon="4.98294">
        <ele>252</ele>
      </trkpt>
      <trkpt lat="44.42962" lon="4.98293">
        <ele>256</ele>
      </trkpt>
      <trkpt lat="44.43069" lon="4.98298">
        <ele>258</ele>
      </trkpt>
      <trkpt lat="44.43178" lon="4.98295">
        <ele>255</ele>
      </trkpt>
      <trkpt lat="44.43199" lon="4.98292">
        <ele>255</ele>
      </trkpt>
      <trkpt lat="44.43233" lon="4.98281">
        <ele>255</ele>
      </trkpt>
      <trkpt lat="44.43267" lon="4.98263">
        <ele>257</ele>
      </trkpt>
      <trkpt lat="44.43282" lon="4.9825">
        <ele>257</ele>
      </trkpt>
      <trkpt lat="44.43292" lon="4.98237">
        <ele>257</ele>
      </trkpt>
      <trkpt lat="44.433" lon="4.9822">
        <ele>257</ele>
      </trkpt>
      <trkpt lat="44.43311" lon="4.98189">
        <ele>257</ele>
      </trkpt>
      <trkpt lat="44.43362" lon="4.97947">
        <ele>266</ele>
      </trkpt>
      <trkpt lat="44.4337" lon="4.97916">
        <ele>265</ele>
      </trkpt>
      <trkpt lat="44.43396" lon="4.97855">
        <ele>268</ele>
      </trkpt>
      <trkpt lat="44.43441" lon="4.97774">
        <ele>273</ele>
      </trkpt>
      <trkpt lat="44.43463" lon="4.97736">
        <ele>275</ele>
      </trkpt>
      <trkpt lat="44.4348" lon="4.97716">
        <ele>275</ele>
      </trkpt>
      <trkpt lat="44.43499" lon="4.97703">
        <ele>275</ele>
      </trkpt>
      <trkpt lat="44.43539" lon="4.97679">
        <ele>272</ele>
      </trkpt>
      <trkpt lat="44.43589" lon="4.97661">
        <ele>266</ele>
      </trkpt>
      <trkpt lat="44.43613" lon="4.9766">
        <ele>265</ele>
      </trkpt>
      <trkpt lat="44.43639" lon="4.97667">
        <ele>266</ele>
      </trkpt>
      <trkpt lat="44.43685" lon="4.97693">
        <ele>260</ele>
      </trkpt>
      <trkpt lat="44.43773" lon="4.97732">
        <ele>260</ele>
      </trkpt>
      <trkpt lat="44.43904" lon="4.97794">
        <ele>262</ele>
      </trkpt>
      <trkpt lat="44.43944" lon="4.97819">
        <ele>264</ele>
      </trkpt>
      <trkpt lat="44.43977" lon="4.97843">
        <ele>264</ele>
      </trkpt>
      <trkpt lat="44.44048" lon="4.97921">
        <ele>262</ele>
      </trkpt>
      <trkpt lat="44.44149" lon="4.98053">
        <ele>267</ele>
      </trkpt>
      <trkpt lat="44.44173" lon="4.98075">
        <ele>270</ele>
      </trkpt>
      <trkpt lat="44.44174" lon="4.98079">
        <ele>270</ele>
      </trkpt>
      <trkpt lat="44.44177" lon="4.98081">
        <ele>270</ele>
      </trkpt>
      <trkpt lat="44.4418" lon="4.98081">
        <ele>270</ele>
      </trkpt>
      <trkpt lat="44.44183" lon="4.98076">
        <ele>270</ele>
      </trkpt>
      <trkpt lat="44.44191" lon="4.9807">
        <ele>271</ele>
      </trkpt>
      <trkpt lat="44.44203" lon="4.98059">
        <ele>270</ele>
      </trkpt>
      <trkpt lat="44.44219" lon="4.9804">
        <ele>271</ele>
      </trkpt>
      <trkpt lat="44.44239" lon="4.98012">
        <ele>272</ele>
      </trkpt>
      <trkpt lat="44.44264" lon="4.97964">
        <ele>271</ele>
      </trkpt>
      <trkpt lat="44.44274" lon="4.97958">
        <ele>270</ele>
      </trkpt>
      <trkpt lat="44.4428" lon="4.97954">
        <ele>271</ele>
      </trkpt>
      <trkpt lat="44.44288" lon="4.97952">
        <ele>271</ele>
      </trkpt>
      <trkpt lat="44.44298" lon="4.97952">
        <ele>273</ele>
      </trkpt>
      <trkpt lat="44.4432" lon="4.97962">
        <ele>275</ele>
      </trkpt>
      <trkpt lat="44.4433" lon="4.97961">
        <ele>276</ele>
      </trkpt>
      <trkpt lat="44.44358" lon="4.97944">
        <ele>276</ele>
      </trkpt>
      <trkpt lat="44.44364" lon="4.97934">
        <ele>274</ele>
      </trkpt>
      <trkpt lat="44.44376" lon="4.97945">
        <ele>276</ele>
      </trkpt>
      <trkpt lat="44.44396" lon="4.97948">
        <ele>276</ele>
      </trkpt>
      <trkpt lat="44.4441" lon="4.97952">
        <ele>276</ele>
      </trkpt>
      <trkpt lat="44.44427" lon="4.97963">
        <ele>276</ele>
      </trkpt>
      <trkpt lat="44.4444" lon="4.97945">
        <ele>277</ele>
      </trkpt>
      <trkpt lat="44.44457" lon="4.97906">
        <ele>280</ele>
      </trkpt>
      <trkpt lat="44.44484" lon="4.97914">
        <ele>280</ele>
      </trkpt>
      <trkpt lat="44.44506" lon="4.97917">
        <ele>281</ele>
      </trkpt>
      <trkpt lat="44.44543" lon="4.97917">
        <ele>283</ele>
      </trkpt>
      <trkpt lat="44.44648" lon="4.97927">
        <ele>288</ele>
      </trkpt>
      <trkpt lat="44.44671" lon="4.97922">
        <ele>290</ele>
      </trkpt>
      <trkpt lat="44.44706" lon="4.97924">
        <ele>291</ele>
      </trkpt>
      <trkpt lat="44.44754" lon="4.97861">
        <ele>295</ele>
      </trkpt>
      <trkpt lat="44.44826" lon="4.97758">
        <ele>300</ele>
      </trkpt>
      <trkpt lat="44.44862" lon="4.97718">
        <ele>301</ele>
      </trkpt>
      <trkpt lat="44.4491" lon="4.97679">
        <ele>302</ele>
      </trkpt>
      <trkpt lat="44.45016" lon="4.97585">
        <ele>306</ele>
      </trkpt>
      <trkpt lat="44.45139" lon="4.97513">
        <ele>314</ele>
      </trkpt>
      <trkpt lat="44.45169" lon="4.97498">
        <ele>315</ele>
      </trkpt>
      <trkpt lat="44.45459" lon="4.97312">
        <ele>301</ele>
      </trkpt>
      <trkpt lat="44.45514" lon="4.97274">
        <ele>304</ele>
      </trkpt>
      <trkpt lat="44.45538" lon="4.97247">
        <ele>305</ele>
      </trkpt>
      <trkpt lat="44.45569" lon="4.97201">
        <ele>311</ele>
      </trkpt>
      <trkpt lat="44.45599" lon="4.97164">
        <ele>309</ele>
      </trkpt>
      <trkpt lat="44.45709" lon="4.97073">
        <ele>309</ele>
      </trkpt>
      <trkpt lat="44.45758" lon="4.97054">
        <ele>305</ele>
      </trkpt>
      <trkpt lat="44.45881" lon="4.9702">
        <ele>304</ele>
      </trkpt>
      <trkpt lat="44.45904" lon="4.97001">
        <ele>305</ele>
      </trkpt>
      <trkpt lat="44.46088" lon="4.96763">
        <ele>311</ele>
      </trkpt>
      <trkpt lat="44.46204" lon="4.96591">
        <ele>313</ele>
      </trkpt>
      <trkpt lat="44.46364" lon="4.96447">
        <ele>319</ele>
      </trkpt>
      <trkpt lat="44.46394" lon="4.96433">
        <ele>318</ele>
      </trkpt>
      <trkpt lat="44.46461" lon="4.96424">
        <ele>316</ele>
      </trkpt>
      <trkpt lat="44.4651" lon="4.96414">
        <ele>317</ele>
      </trkpt>
      <trkpt lat="44.46546" lon="4.96404">
        <ele>320</ele>
      </trkpt>
      <trkpt lat="44.4656" lon="4.96393">
        <ele>320</ele>
      </trkpt>
      <trkpt lat="44.46572" lon="4.96377">
        <ele>321</ele>
      </trkpt>
      <trkpt lat="44.46598" lon="4.96306">
        <ele>323</ele>
      </trkpt>
      <trkpt lat="44.46609" lon="4.96291">
        <ele>323</ele>
      </trkpt>
      <trkpt lat="44.46622" lon="4.9628">
        <ele>323</ele>
      </trkpt>
      <trkpt lat="44.46637" lon="4.96272">
        <ele>325</ele>
      </trkpt>
      <trkpt lat="44.46673" lon="4.96222">
        <ele>327</ele>
      </trkpt>
      <trkpt lat="44.46697" lon="4.962">
        <ele>329</ele>
      </trkpt>
      <trkpt lat="44.46722" lon="4.96184">
        <ele>331</ele>
      </trkpt>
      <trkpt lat="44.46774" lon="4.96128">
        <ele>332</ele>
      </trkpt>
      <trkpt lat="44.46802" lon="4.96093">
        <ele>333</ele>
      </trkpt>
      <trkpt lat="44.46844" lon="4.96028">
        <ele>336</ele>
      </trkpt>
      <trkpt lat="44.46855" lon="4.96014">
        <ele>337</ele>
      </trkpt>
      <trkpt lat="44.46875" lon="4.96001">
        <ele>337</ele>
      </trkpt>
      <trkpt lat="44.46894" lon="4.95991">
        <ele>337</ele>
      </trkpt>
      <trkpt lat="44.4703" lon="4.95929">
        <ele>344</ele>
      </trkpt>
      <trkpt lat="44.47045" lon="4.95918">
        <ele>348</ele>
      </trkpt>
      <trkpt lat="44.47048" lon="4.95913">
        <ele>346</ele>
      </trkpt>
      <trkpt lat="44.47087" lon="4.95847">
        <ele>349</ele>
      </trkpt>
      <trkpt lat="44.47101" lon="4.95834">
        <ele>353</ele>
      </trkpt>
      <trkpt lat="44.47113" lon="4.95829">
        <ele>355</ele>
      </trkpt>
      <trkpt lat="44.47132" lon="4.95829">
        <ele>358</ele>
      </trkpt>
      <trkpt lat="44.47301" lon="4.95875">
        <ele>371</ele>
      </trkpt>
      <trkpt lat="44.47392" lon="4.9591">
        <ele>378</ele>
      </trkpt>
      <trkpt lat="44.47422" lon="4.9592">
        <ele>376</ele>
      </trkpt>
      <trkpt lat="44.47452" lon="4.95921">
        <ele>378</ele>
      </trkpt>
      <trkpt lat="44.47537" lon="4.95931">
        <ele>387</ele>
      </trkpt>
      <trkpt lat="44.47615" lon="4.95947">
        <ele>387</ele>
      </trkpt>
      <trkpt lat="44.47649" lon="4.95947">
        <ele>389</ele>
      </trkpt>
      <trkpt lat="44.47738" lon="4.95925">
        <ele>399</ele>
      </trkpt>
      <trkpt lat="44.47771" lon="4.95927">
        <ele>402</ele>
      </trkpt>
      <trkpt lat="44.47827" lon="4.95943">
        <ele>407</ele>
      </trkpt>
      <trkpt lat="44.479" lon="4.95957">
        <ele>410</ele>
      </trkpt>
      <trkpt lat="44.4797" lon="4.95975">
        <ele>415</ele>
      </trkpt>
      <trkpt lat="44.47993" lon="4.95981">
        <ele>417</ele>
      </trkpt>
      <trkpt lat="44.48026" lon="4.95998">
        <ele>418</ele>
      </trkpt>
      <trkpt lat="44.48046" lon="4.96005">
        <ele>416</ele>
      </trkpt>
      <trkpt lat="44.48061" lon="4.96007">
        <ele>416</ele>
      </trkpt>
      <trkpt lat="44.48066" lon="4.96001">
        <ele>417</ele>
      </trkpt>
      <trkpt lat="44.48063" lon="4.95994">
        <ele>421</ele>
      </trkpt>
      <trkpt lat="44.4801" lon="4.95967">
        <ele>422</ele>
      </trkpt>
      <trkpt lat="44.47993" lon="4.95954">
        <ele>423</ele>
      </trkpt>
      <trkpt lat="44.47974" lon="4.95944">
        <ele>420</ele>
      </trkpt>
      <trkpt lat="44.47871" lon="4.95898">
        <ele>421</ele>
      </trkpt>
      <trkpt lat="44.4777" lon="4.95845">
        <ele>418</ele>
      </trkpt>
      <trkpt lat="44.47761" lon="4.95838">
        <ele>417</ele>
      </trkpt>
      <trkpt lat="44.47758" lon="4.95829">
        <ele>416</ele>
      </trkpt>
      <trkpt lat="44.47762" lon="4.95821">
        <ele>415</ele>
      </trkpt>
      <trkpt lat="44.47772" lon="4.95819">
        <ele>416</ele>
      </trkpt>
      <trkpt lat="44.47822" lon="4.95827">
        <ele>422</ele>
      </trkpt>
      <trkpt lat="44.47847" lon="4.95825">
        <ele>425</ele>
      </trkpt>
      <trkpt lat="44.47879" lon="4.95813">
        <ele>428</ele>
      </trkpt>
      <trkpt lat="44.47958" lon="4.95801">
        <ele>434</ele>
      </trkpt>
      <trkpt lat="44.48009" lon="4.95789">
        <ele>436</ele>
      </trkpt>
      <trkpt lat="44.48029" lon="4.95789">
        <ele>439</ele>
      </trkpt>
      <trkpt lat="44.48115" lon="4.95774">
        <ele>440</ele>
      </trkpt>
      <trkpt lat="44.48229" lon="4.95775">
        <ele>448</ele>
      </trkpt>
      <trkpt lat="44.48388" lon="4.95751">
        <ele>465</ele>
      </trkpt>
      <trkpt lat="44.48493" lon="4.95747">
        <ele>469</ele>
      </trkpt>
      <trkpt lat="44.48516" lon="4.95739">
        <ele>472</ele>
      </trkpt>
      <trkpt lat="44.48543" lon="4.95724">
        <ele>476</ele>
      </trkpt>
      <trkpt lat="44.48573" lon="4.95704">
        <ele>476</ele>
      </trkpt>
      <trkpt lat="44.48605" lon="4.9568">
        <ele>478</ele>
      </trkpt>
      <trkpt lat="44.48623" lon="4.9567">
        <ele>478</ele>
      </trkpt>
      <trkpt lat="44.48652" lon="4.95669">
        <ele>481</ele>
      </trkpt>
      <trkpt lat="44.48672" lon="4.95678">
        <ele>483</ele>
      </trkpt>
      <trkpt lat="44.48749" lon="4.95722">
        <ele>490</ele>
      </trkpt>
      <trkpt lat="44.48783" lon="4.95746">
        <ele>493</ele>
      </trkpt>
      <trkpt lat="44.48821" lon="4.95757">
        <ele>494</ele>
      </trkpt>
      <trkpt lat="44.48878" lon="4.95788">
        <ele>497</ele>
      </trkpt>
      <trkpt lat="44.48885" lon="4.95788">
        <ele>497</ele>
      </trkpt>
      <trkpt lat="44.48888" lon="4.95786">
        <ele>497</ele>
      </trkpt>
      <trkpt lat="44.4889" lon="4.95778">
        <ele>497</ele>
      </trkpt>
      <trkpt lat="44.48875" lon="4.95709">
        <ele>500</ele>
      </trkpt>
      <trkpt lat="44.48875" lon="4.9569">
        <ele>501</ele>
      </trkpt>
      <trkpt lat="44.48878" lon="4.95675">
        <ele>501</ele>
      </trkpt>
      <trkpt lat="44.489" lon="4.95644">
        <ele>503</ele>
      </trkpt>
      <trkpt lat="44.48956" lon="4.95589">
        <ele>505</ele>
      </trkpt>
      <trkpt lat="44.48972" lon="4.95577">
        <ele>506</ele>
      </trkpt>
      <trkpt lat="44.48992" lon="4.95563">
        <ele>507</ele>
      </trkpt>
      <trkpt lat="44.49031" lon="4.95544">
        <ele>507</ele>
      </trkpt>
      <trkpt lat="44.49073" lon="4.9554">
        <ele>507</ele>
      </trkpt>
      <trkpt lat="44.49112" lon="4.95511">
        <ele>506</ele>
      </trkpt>
      <trkpt lat="44.49138" lon="4.95488">
        <ele>507</ele>
      </trkpt>
      <trkpt lat="44.49152" lon="4.95461">
        <ele>507</ele>
      </trkpt>
      <trkpt lat="44.49165" lon="4.95408">
        <ele>507</ele>
      </trkpt>
      <trkpt lat="44.49178" lon="4.95374">
        <ele>506</ele>
      </trkpt>
      <trkpt lat="44.4919" lon="4.95331">
        <ele>508</ele>
      </trkpt>
      <trkpt lat="44.49206" lon="4.95252">
        <ele>506</ele>
      </trkpt>
      <trkpt lat="44.4922" lon="4.95208">
        <ele>505</ele>
      </trkpt>
      <trkpt lat="44.49224" lon="4.95202">
        <ele>505</ele>
      </trkpt>
      <trkpt lat="44.49302" lon="4.95089">
        <ele>501</ele>
      </trkpt>
      <trkpt lat="44.49361" lon="4.95019">
        <ele>503</ele>
      </trkpt>
      <trkpt lat="44.49398" lon="4.94952">
        <ele>500</ele>
      </trkpt>
      <trkpt lat="44.49441" lon="4.94892">
        <ele>500</ele>
      </trkpt>
      <trkpt lat="44.49485" lon="4.94838">
        <ele>496</ele>
      </trkpt>
      <trkpt lat="44.4956" lon="4.94771">
        <ele>492</ele>
      </trkpt>
      <trkpt lat="44.49574" lon="4.94763">
        <ele>493</ele>
      </trkpt>
      <trkpt lat="44.49588" lon="4.94751">
        <ele>493</ele>
      </trkpt>
      <trkpt lat="44.49598" lon="4.94738">
        <ele>492</ele>
      </trkpt>
      <trkpt lat="44.49622" lon="4.94714">
        <ele>492</ele>
      </trkpt>
      <trkpt lat="44.4965" lon="4.94669">
        <ele>493</ele>
      </trkpt>
      <trkpt lat="44.49654" lon="4.94644">
        <ele>493</ele>
      </trkpt>
      <trkpt lat="44.49653" lon="4.94587">
        <ele>493</ele>
      </trkpt>
      <trkpt lat="44.49629" lon="4.94412">
        <ele>494</ele>
      </trkpt>
      <trkpt lat="44.49612" lon="4.94346">
        <ele>495</ele>
      </trkpt>
      <trkpt lat="44.49584" lon="4.9428">
        <ele>493</ele>
      </trkpt>
      <trkpt lat="44.49549" lon="4.94202">
        <ele>487</ele>
      </trkpt>
      <trkpt lat="44.49534" lon="4.94132">
        <ele>488</ele>
      </trkpt>
      <trkpt lat="44.49518" lon="4.93989">
        <ele>489</ele>
      </trkpt>
      <trkpt lat="44.49513" lon="4.93955">
        <ele>490</ele>
      </trkpt>
      <trkpt lat="44.49513" lon="4.93932">
        <ele>491</ele>
      </trkpt>
      <trkpt lat="44.49516" lon="4.93902">
        <ele>492</ele>
      </trkpt>
      <trkpt lat="44.49514" lon="4.93884">
        <ele>492</ele>
      </trkpt>
      <trkpt lat="44.49506" lon="4.93863">
        <ele>491</ele>
      </trkpt>
      <trkpt lat="44.49497" lon="4.93846">
        <ele>490</ele>
      </trkpt>
      <trkpt lat="44.4949" lon="4.93816">
        <ele>489</ele>
      </trkpt>
      <trkpt lat="44.4949" lon="4.93807">
        <ele>489</ele>
      </trkpt>
      <trkpt lat="44.49489" lon="4.93765">
        <ele>487</ele>
      </trkpt>
      <trkpt lat="44.49493" lon="4.93724">
        <ele>486</ele>
      </trkpt>
      <trkpt lat="44.49499" lon="4.93708">
        <ele>484</ele>
      </trkpt>
      <trkpt lat="44.49501" lon="4.93695">
        <ele>484</ele>
      </trkpt>
      <trkpt lat="44.49491" lon="4.93675">
        <ele>483</ele>
      </trkpt>
      <trkpt lat="44.49497" lon="4.93658">
        <ele>481</ele>
      </trkpt>
      <trkpt lat="44.49509" lon="4.93636">
        <ele>480</ele>
      </trkpt>
      <trkpt lat="44.49524" lon="4.93615">
        <ele>480</ele>
      </trkpt>
      <trkpt lat="44.49532" lon="4.9361">
        <ele>480</ele>
      </trkpt>
      <trkpt lat="44.49543" lon="4.93609">
        <ele>478</ele>
      </trkpt>
      <trkpt lat="44.4956" lon="4.93615">
        <ele>479</ele>
      </trkpt>
      <trkpt lat="44.49609" lon="4.93643">
        <ele>479</ele>
      </trkpt>
      <trkpt lat="44.49629" lon="4.93647">
        <ele>478</ele>
      </trkpt>
      <trkpt lat="44.49635" lon="4.93645">
        <ele>478</ele>
      </trkpt>
      <trkpt lat="44.49648" lon="4.93641">
        <ele>478</ele>
      </trkpt>
      <trkpt lat="44.49685" lon="4.9361">
        <ele>472</ele>
      </trkpt>
      <trkpt lat="44.49693" lon="4.93607">
        <ele>471</ele>
      </trkpt>
      <trkpt lat="44.49707" lon="4.93606">
        <ele>471</ele>
      </trkpt>
      <trkpt lat="44.49712" lon="4.93608">
        <ele>468</ele>
      </trkpt>
      <trkpt lat="44.4972" lon="4.93614">
        <ele>468</ele>
      </trkpt>
      <trkpt lat="44.49729" lon="4.93626">
        <ele>468</ele>
      </trkpt>
      <trkpt lat="44.49736" lon="4.93639">
        <ele>468</ele>
      </trkpt>
      <trkpt lat="44.49753" lon="4.93702">
        <ele>468</ele>
      </trkpt>
      <trkpt lat="44.49757" lon="4.9371">
        <ele>468</ele>
      </trkpt>
      <trkpt lat="44.49767" lon="4.93719">
        <ele>466</ele>
      </trkpt>
      <trkpt lat="44.49777" lon="4.93722">
        <ele>466</ele>
      </trkpt>
      <trkpt lat="44.49788" lon="4.93721">
        <ele>466</ele>
      </trkpt>
      <trkpt lat="44.49798" lon="4.93716">
        <ele>465</ele>
      </trkpt>
      <trkpt lat="44.49846" lon="4.93669">
        <ele>464</ele>
      </trkpt>
      <trkpt lat="44.49865" lon="4.93657">
        <ele>463</ele>
      </trkpt>
      <trkpt lat="44.49878" lon="4.9365">
        <ele>462</ele>
      </trkpt>
      <trkpt lat="44.49932" lon="4.93632">
        <ele>458</ele>
      </trkpt>
      <trkpt lat="44.49959" lon="4.93625">
        <ele>456</ele>
      </trkpt>
      <trkpt lat="44.50006" lon="4.93623">
        <ele>454</ele>
      </trkpt>
      <trkpt lat="44.50018" lon="4.93625">
        <ele>452</ele>
      </trkpt>
      <trkpt lat="44.50026" lon="4.93632">
        <ele>451</ele>
      </trkpt>
      <trkpt lat="44.50034" lon="4.93645">
        <ele>452</ele>
      </trkpt>
      <trkpt lat="44.50036" lon="4.93659">
        <ele>452</ele>
      </trkpt>
      <trkpt lat="44.50033" lon="4.93675">
        <ele>451</ele>
      </trkpt>
      <trkpt lat="44.49995" lon="4.93734">
        <ele>445</ele>
      </trkpt>
      <trkpt lat="44.49986" lon="4.93758">
        <ele>444</ele>
      </trkpt>
      <trkpt lat="44.49969" lon="4.93944">
        <ele>434</ele>
      </trkpt>
      <trkpt lat="44.49964" lon="4.94028">
        <ele>432</ele>
      </trkpt>
      <trkpt lat="44.49968" lon="4.94054">
        <ele>432</ele>
      </trkpt>
      <trkpt lat="44.49984" lon="4.94075">
        <ele>431</ele>
      </trkpt>
      <trkpt lat="44.50221" lon="4.94226">
        <ele>422</ele>
      </trkpt>
      <trkpt lat="44.50236" lon="4.94226">
        <ele>422</ele>
      </trkpt>
      <trkpt lat="44.50249" lon="4.94217">
        <ele>420</ele>
      </trkpt>
      <trkpt lat="44.50276" lon="4.94175">
        <ele>417</ele>
      </trkpt>
      <trkpt lat="44.50293" lon="4.94158">
        <ele>414</ele>
      </trkpt>
      <trkpt lat="44.50315" lon="4.94147">
        <ele>414</ele>
      </trkpt>
      <trkpt lat="44.50448" lon="4.94103">
        <ele>414</ele>
      </trkpt>
      <trkpt lat="44.50468" lon="4.9409">
        <ele>417</ele>
      </trkpt>
      <trkpt lat="44.50484" lon="4.94075">
        <ele>411</ele>
      </trkpt>
      <trkpt lat="44.50569" lon="4.93968">
        <ele>401</ele>
      </trkpt>
      <trkpt lat="44.50617" lon="4.93922">
        <ele>401</ele>
      </trkpt>
      <trkpt lat="44.5067" lon="4.93877">
        <ele>389</ele>
      </trkpt>
      <trkpt lat="44.50685" lon="4.93867">
        <ele>389</ele>
      </trkpt>
      <trkpt lat="44.50703" lon="4.93862">
        <ele>388</ele>
      </trkpt>
      <trkpt lat="44.50734" lon="4.93858">
        <ele>383</ele>
      </trkpt>
      <trkpt lat="44.50773" lon="4.93847">
        <ele>387</ele>
      </trkpt>
      <trkpt lat="44.50807" lon="4.93825">
        <ele>384</ele>
      </trkpt>
      <trkpt lat="44.50839" lon="4.93796">
        <ele>380</ele>
      </trkpt>
      <trkpt lat="44.50883" lon="4.93726">
        <ele>368</ele>
      </trkpt>
      <trkpt lat="44.50896" lon="4.93719">
        <ele>363</ele>
      </trkpt>
      <trkpt lat="44.50915" lon="4.93717">
        <ele>360</ele>
      </trkpt>
      <trkpt lat="44.50929" lon="4.93722">
        <ele>364</ele>
      </trkpt>
      <trkpt lat="44.50941" lon="4.93731">
        <ele>361</ele>
      </trkpt>
      <trkpt lat="44.50946" lon="4.93743">
        <ele>362</ele>
      </trkpt>
      <trkpt lat="44.50946" lon="4.93757">
        <ele>368</ele>
      </trkpt>
      <trkpt lat="44.50942" lon="4.93784">
        <ele>375</ele>
      </trkpt>
      <trkpt lat="44.50943" lon="4.93797">
        <ele>376</ele>
      </trkpt>
      <trkpt lat="44.50952" lon="4.93809">
        <ele>380</ele>
      </trkpt>
      <trkpt lat="44.5096" lon="4.93811">
        <ele>378</ele>
      </trkpt>
      <trkpt lat="44.50967" lon="4.93811">
        <ele>377</ele>
      </trkpt>
      <trkpt lat="44.5109" lon="4.93776">
        <ele>357</ele>
      </trkpt>
      <trkpt lat="44.51132" lon="4.93772">
        <ele>354</ele>
      </trkpt>
      <trkpt lat="44.51214" lon="4.93782">
        <ele>359</ele>
      </trkpt>
      <trkpt lat="44.51283" lon="4.93779">
        <ele>359</ele>
      </trkpt>
      <trkpt lat="44.5145" lon="4.93736">
        <ele>340</ele>
      </trkpt>
      <trkpt lat="44.5149" lon="4.93738">
        <ele>333</ele>
      </trkpt>
      <trkpt lat="44.51571" lon="4.93774">
        <ele>330</ele>
      </trkpt>
      <trkpt lat="44.51596" lon="4.9378">
        <ele>336</ele>
      </trkpt>
      <trkpt lat="44.51641" lon="4.93784">
        <ele>328</ele>
      </trkpt>
      <trkpt lat="44.51739" lon="4.93803">
        <ele>317</ele>
      </trkpt>
      <trkpt lat="44.5175" lon="4.93808">
        <ele>319</ele>
      </trkpt>
      <trkpt lat="44.51758" lon="4.93818">
        <ele>319</ele>
      </trkpt>
      <trkpt lat="44.51764" lon="4.93833">
        <ele>321</ele>
      </trkpt>
      <trkpt lat="44.51769" lon="4.93898">
        <ele>318</ele>
      </trkpt>
      <trkpt lat="44.51771" lon="4.93977">
        <ele>319</ele>
      </trkpt>
      <trkpt lat="44.51768" lon="4.93991">
        <ele>319</ele>
      </trkpt>
      <trkpt lat="44.51762" lon="4.94003">
        <ele>322</ele>
      </trkpt>
      <trkpt lat="44.51729" lon="4.94043">
        <ele>324</ele>
      </trkpt>
      <trkpt lat="44.51724" lon="4.94055">
        <ele>323</ele>
      </trkpt>
      <trkpt lat="44.51728" lon="4.94074">
        <ele>323</ele>
      </trkpt>
      <trkpt lat="44.5173" lon="4.94078">
        <ele>324</ele>
      </trkpt>
      <trkpt lat="44.51738" lon="4.94081">
        <ele>323</ele>
      </trkpt>
      <trkpt lat="44.51746" lon="4.9408">
        <ele>324</ele>
      </trkpt>
      <trkpt lat="44.51815" lon="4.94024">
        <ele>318</ele>
      </trkpt>
      <trkpt lat="44.51825" lon="4.9401">
        <ele>322</ele>
      </trkpt>
      <trkpt lat="44.51833" lon="4.93994">
        <ele>324</ele>
      </trkpt>
      <trkpt lat="44.51835" lon="4.93979">
        <ele>324</ele>
      </trkpt>
      <trkpt lat="44.51834" lon="4.93931">
        <ele>325</ele>
      </trkpt>
      <trkpt lat="44.51869" lon="4.93766">
        <ele>313</ele>
      </trkpt>
      <trkpt lat="44.51882" lon="4.93735">
        <ele>312</ele>
      </trkpt>
      <trkpt lat="44.51896" lon="4.93719">
        <ele>308</ele>
      </trkpt>
      <trkpt lat="44.51957" lon="4.93688">
        <ele>306</ele>
      </trkpt>
      <trkpt lat="44.52007" lon="4.93665">
        <ele>306</ele>
      </trkpt>
      <trkpt lat="44.52062" lon="4.9366">
        <ele>303</ele>
      </trkpt>
      <trkpt lat="44.52126" lon="4.93648">
        <ele>291</ele>
      </trkpt>
      <trkpt lat="44.52138" lon="4.93652">
        <ele>289</ele>
      </trkpt>
      <trkpt lat="44.52185" lon="4.93698">
        <ele>303</ele>
      </trkpt>
      <trkpt lat="44.52196" lon="4.93701">
        <ele>303</ele>
      </trkpt>
      <trkpt lat="44.52245" lon="4.93695">
        <ele>298</ele>
      </trkpt>
      <trkpt lat="44.52259" lon="4.93699">
        <ele>298</ele>
      </trkpt>
      <trkpt lat="44.52282" lon="4.93713">
        <ele>298</ele>
      </trkpt>
      <trkpt lat="44.52294" lon="4.93714">
        <ele>299</ele>
      </trkpt>
      <trkpt lat="44.523" lon="4.93709">
        <ele>299</ele>
      </trkpt>
      <trkpt lat="44.52316" lon="4.93678">
        <ele>294</ele>
      </trkpt>
      <trkpt lat="44.52332" lon="4.93663">
        <ele>291</ele>
      </trkpt>
      <trkpt lat="44.52624" lon="4.93499">
        <ele>275</ele>
      </trkpt>
      <trkpt lat="44.52732" lon="4.93436">
        <ele>273</ele>
      </trkpt>
      <trkpt lat="44.52836" lon="4.9335">
        <ele>264</ele>
      </trkpt>
      <trkpt lat="44.53008" lon="4.93211">
        <ele>252</ele>
      </trkpt>
      <trkpt lat="44.53045" lon="4.93202">
        <ele>249</ele>
      </trkpt>
      <trkpt lat="44.53809" lon="4.93365">
        <ele>226</ele>
      </trkpt>
      <trkpt lat="44.54313" lon="4.93475">
        <ele>214</ele>
      </trkpt>
      <trkpt lat="44.54347" lon="4.93484">
        <ele>214</ele>
      </trkpt>
      <trkpt lat="44.5444" lon="4.93501">
        <ele>219</ele>
      </trkpt>
      <trkpt lat="44.54454" lon="4.93507">
        <ele>219</ele>
      </trkpt>
      <trkpt lat="44.54467" lon="4.93508">
        <ele>221</ele>
      </trkpt>
      <trkpt lat="44.54469" lon="4.93512">
        <ele>222</ele>
      </trkpt>
      <trkpt lat="44.5447" lon="4.9353">
        <ele>222</ele>
      </trkpt>
      <trkpt lat="44.54467" lon="4.9357">
        <ele>222</ele>
      </trkpt>
      <trkpt lat="44.54468" lon="4.93609">
        <ele>222</ele>
      </trkpt>
      <trkpt lat="44.54451" lon="4.93722">
        <ele>229</ele>
      </trkpt>
      <trkpt lat="44.54411" lon="4.93929">
        <ele>220</ele>
      </trkpt>
      <trkpt lat="44.54391" lon="4.94031">
        <ele>219</ele>
      </trkpt>
      <trkpt lat="44.54382" lon="4.94069">
        <ele>220</ele>
      </trkpt>
      <trkpt lat="44.54358" lon="4.94151">
        <ele>220</ele>
      </trkpt>
      <trkpt lat="44.54321" lon="4.94414">
        <ele>224</ele>
      </trkpt>
      <trkpt lat="44.54321" lon="4.94427">
        <ele>225</ele>
      </trkpt>
      <trkpt lat="44.54332" lon="4.94542">
        <ele>229</ele>
      </trkpt>
      <trkpt lat="44.54333" lon="4.94571">
        <ele>229</ele>
      </trkpt>
      <trkpt lat="44.54329" lon="4.94597">
        <ele>229</ele>
      </trkpt>
      <trkpt lat="44.54326" lon="4.94607">
        <ele>229</ele>
      </trkpt>
      <trkpt lat="44.54281" lon="4.94699">
        <ele>228</ele>
      </trkpt>
      <trkpt lat="44.54271" lon="4.94731">
        <ele>228</ele>
      </trkpt>
      <trkpt lat="44.5427" lon="4.94745">
        <ele>228</ele>
      </trkpt>
      <trkpt lat="44.54252" lon="4.94831">
        <ele>231</ele>
      </trkpt>
      <trkpt lat="44.54226" lon="4.94991">
        <ele>233</ele>
      </trkpt>
      <trkpt lat="44.54215" lon="4.95175">
        <ele>242</ele>
      </trkpt>
      <trkpt lat="44.5421" lon="4.95199">
        <ele>246</ele>
      </trkpt>
      <trkpt lat="44.54201" lon="4.95222">
        <ele>243</ele>
      </trkpt>
      <trkpt lat="44.54105" lon="4.95379">
        <ele>235</ele>
      </trkpt>
      <trkpt lat="44.54103" lon="4.95385">
        <ele>235</ele>
      </trkpt>
      <trkpt lat="44.54093" lon="4.95414">
        <ele>234</ele>
      </trkpt>
      <trkpt lat="44.5409" lon="4.95438">
        <ele>235</ele>
      </trkpt>
      <trkpt lat="44.54094" lon="4.95539">
        <ele>235</ele>
      </trkpt>
      <trkpt lat="44.5409" lon="4.9557">
        <ele>234</ele>
      </trkpt>
      <trkpt lat="44.54079" lon="4.9563">
        <ele>235</ele>
      </trkpt>
      <trkpt lat="44.54063" lon="4.9569">
        <ele>237</ele>
      </trkpt>
      <trkpt lat="44.54053" lon="4.95714">
        <ele>240</ele>
      </trkpt>
      <trkpt lat="44.54038" lon="4.95746">
        <ele>238</ele>
      </trkpt>
      <trkpt lat="44.53992" lon="4.9583">
        <ele>240</ele>
      </trkpt>
      <trkpt lat="44.53964" lon="4.95877">
        <ele>240</ele>
      </trkpt>
      <trkpt lat="44.53934" lon="4.95924">
        <ele>238</ele>
      </trkpt>
      <trkpt lat="44.53905" lon="4.9596">
        <ele>237</ele>
      </trkpt>
      <trkpt lat="44.53882" lon="4.95997">
        <ele>237</ele>
      </trkpt>
      <trkpt lat="44.53872" lon="4.96018">
        <ele>237</ele>
      </trkpt>
      <trkpt lat="44.5386" lon="4.96058">
        <ele>236</ele>
      </trkpt>
      <trkpt lat="44.53855" lon="4.96096">
        <ele>236</ele>
      </trkpt>
      <trkpt lat="44.53843" lon="4.96165">
        <ele>239</ele>
      </trkpt>
      <trkpt lat="44.53831" lon="4.9621">
        <ele>247</ele>
      </trkpt>
      <trkpt lat="44.53808" lon="4.96252">
        <ele>252</ele>
      </trkpt>
      <trkpt lat="44.53782" lon="4.96282">
        <ele>252</ele>
      </trkpt>
      <trkpt lat="44.53757" lon="4.96306">
        <ele>251</ele>
      </trkpt>
      <trkpt lat="44.53705" lon="4.96346">
        <ele>247</ele>
      </trkpt>
      <trkpt lat="44.53658" lon="4.96377">
        <ele>249</ele>
      </trkpt>
      <trkpt lat="44.53575" lon="4.96411">
        <ele>246</ele>
      </trkpt>
      <trkpt lat="44.53532" lon="4.96437">
        <ele>245</ele>
      </trkpt>
      <trkpt lat="44.53511" lon="4.96454">
        <ele>245</ele>
      </trkpt>
      <trkpt lat="44.53486" lon="4.96488">
        <ele>248</ele>
      </trkpt>
      <trkpt lat="44.53446" lon="4.96547">
        <ele>253</ele>
      </trkpt>
      <trkpt lat="44.53417" lon="4.96584">
        <ele>259</ele>
      </trkpt>
      <trkpt lat="44.53398" lon="4.96602">
        <ele>255</ele>
      </trkpt>
      <trkpt lat="44.53179" lon="4.9672">
        <ele>259</ele>
      </trkpt>
      <trkpt lat="44.53154" lon="4.96741">
        <ele>265</ele>
      </trkpt>
      <trkpt lat="44.53139" lon="4.96757">
        <ele>270</ele>
      </trkpt>
      <trkpt lat="44.53119" lon="4.96782">
        <ele>270</ele>
      </trkpt>
      <trkpt lat="44.53095" lon="4.96819">
        <ele>269</ele>
      </trkpt>
      <trkpt lat="44.53017" lon="4.96706">
        <ele>258</ele>
      </trkpt>
      <trkpt lat="44.53006" lon="4.96693">
        <ele>262</ele>
      </trkpt>
      <trkpt lat="44.52999" lon="4.96695">
        <ele>259</ele>
      </trkpt>
      <trkpt lat="44.52986" lon="4.96697">
        <ele>261</ele>
      </trkpt>
      <trkpt lat="44.52905" lon="4.96741">
        <ele>263</ele>
      </trkpt>
      <trkpt lat="44.52848" lon="4.96769">
        <ele>262</ele>
      </trkpt>
    </trkseg>
  </trk>
  <trk>
    <name><![CDATA[Souspierre / Vaison-la-Romaine - Ventoux]]></name>
    <extensions>
      <line xmlns="http://www.topografix.com/GPX/gpx_style/0/2">
        <color>008888</color>
        <width>4</width>
      </line>
    </extensions>
    <trkseg>
      <trkpt lat="44.23543" lon="5.08701">
        <ele>210</ele>
      </trkpt>
      <trkpt lat="44.23426" lon="5.08826">
        <ele>211</ele>
      </trkpt>
      <trkpt lat="44.23378" lon="5.08884">
        <ele>210</ele>
      </trkpt>
      <trkpt lat="44.23336" lon="5.08922">
        <ele>212</ele>
      </trkpt>
      <trkpt lat="44.23303" lon="5.08944">
        <ele>212</ele>
      </trkpt>
      <trkpt lat="44.23274" lon="5.08958">
        <ele>212</ele>
      </trkpt>
      <trkpt lat="44.23245" lon="5.08966">
        <ele>212</ele>
      </trkpt>
      <trkpt lat="44.2321" lon="5.08968">
        <ele>212</ele>
      </trkpt>
      <trkpt lat="44.23166" lon="5.0896">
        <ele>211</ele>
      </trkpt>
      <trkpt lat="44.23042" lon="5.0892">
        <ele>207</ele>
      </trkpt>
      <trkpt lat="44.22986" lon="5.08896">
        <ele>206</ele>
      </trkpt>
      <trkpt lat="44.22911" lon="5.08836">
        <ele>206</ele>
      </trkpt>
      <trkpt lat="44.22907" lon="5.08832">
        <ele>207</ele>
      </trkpt>
      <trkpt lat="44.22903" lon="5.08822">
        <ele>207</ele>
      </trkpt>
      <trkpt lat="44.22891" lon="5.08803">
        <ele>209</ele>
      </trkpt>
      <trkpt lat="44.22884" lon="5.08801">
        <ele>209</ele>
      </trkpt>
      <trkpt lat="44.22854" lon="5.08819">
        <ele>209</ele>
      </trkpt>
      <trkpt lat="44.22817" lon="5.08826">
        <ele>212</ele>
      </trkpt>
      <trkpt lat="44.22709" lon="5.08826">
        <ele>219</ele>
      </trkpt>
      <trkpt lat="44.22652" lon="5.08829">
        <ele>218</ele>
      </trkpt>
      <trkpt lat="44.22602" lon="5.08842">
        <ele>214</ele>
      </trkpt>
      <trkpt lat="44.22588" lon="5.0885">
        <ele>214</ele>
      </trkpt>
      <trkpt lat="44.22554" lon="5.08874">
        <ele>213</ele>
      </trkpt>
      <trkpt lat="44.22527" lon="5.08898">
        <ele>214</ele>
      </trkpt>
      <trkpt lat="44.22504" lon="5.08924">
        <ele>216</ele>
      </trkpt>
      <trkpt lat="44.22485" lon="5.0895">
        <ele>217</ele>
      </trkpt>
      <trkpt lat="44.22426" lon="5.0904">
        <ele>221</ele>
      </trkpt>
      <trkpt lat="44.22409" lon="5.09068">
        <ele>221</ele>
      </trkpt>
      <trkpt lat="44.22398" lon="5.0909">
        <ele>221</ele>
      </trkpt>
      <trkpt lat="44.22385" lon="5.09122">
        <ele>221</ele>
      </trkpt>
      <trkpt lat="44.22374" lon="5.09151">
        <ele>221</ele>
      </trkpt>
      <trkpt lat="44.22337" lon="5.09279">
        <ele>220</ele>
      </trkpt>
      <trkpt lat="44.22325" lon="5.09311">
        <ele>221</ele>
      </trkpt>
      <trkpt lat="44.22309" lon="5.09339">
        <ele>220</ele>
      </trkpt>
      <trkpt lat="44.22285" lon="5.09367">
        <ele>219</ele>
      </trkpt>
      <trkpt lat="44.22177" lon="5.09482">
        <ele>221</ele>
      </trkpt>
      <trkpt lat="44.22097" lon="5.09564">
        <ele>223</ele>
      </trkpt>
      <trkpt lat="44.21983" lon="5.09668">
        <ele>226</ele>
      </trkpt>
      <trkpt lat="44.21944" lon="5.09693">
        <ele>226</ele>
      </trkpt>
      <trkpt lat="44.21928" lon="5.09712">
        <ele>226</ele>
      </trkpt>
      <trkpt lat="44.21914" lon="5.09722">
        <ele>226</ele>
      </trkpt>
      <trkpt lat="44.21908" lon="5.09723">
        <ele>226</ele>
      </trkpt>
      <trkpt lat="44.21901" lon="5.0972">
        <ele>226</ele>
      </trkpt>
      <trkpt lat="44.21894" lon="5.09722">
        <ele>226</ele>
      </trkpt>
      <trkpt lat="44.21888" lon="5.09729">
        <ele>226</ele>
      </trkpt>
      <trkpt lat="44.21868" lon="5.09736">
        <ele>226</ele>
      </trkpt>
      <trkpt lat="44.21854" lon="5.09741">
        <ele>226</ele>
      </trkpt>
      <trkpt lat="44.21822" lon="5.09758">
        <ele>226</ele>
      </trkpt>
      <trkpt lat="44.21757" lon="5.098">
        <ele>227</ele>
      </trkpt>
      <trkpt lat="44.21678" lon="5.09853">
        <ele>230</ele>
      </trkpt>
      <trkpt lat="44.21712" lon="5.09956">
        <ele>229</ele>
      </trkpt>
      <trkpt lat="44.21703" lon="5.10016">
        <ele>227</ele>
      </trkpt>
      <trkpt lat="44.217" lon="5.10047">
        <ele>226</ele>
      </trkpt>
      <trkpt lat="44.21697" lon="5.10116">
        <ele>226</ele>
      </trkpt>
      <trkpt lat="44.21728" lon="5.10462">
        <ele>227</ele>
      </trkpt>
      <trkpt lat="44.21734" lon="5.1051">
        <ele>228</ele>
      </trkpt>
      <trkpt lat="44.21691" lon="5.10485">
        <ele>229</ele>
      </trkpt>
      <trkpt lat="44.21681" lon="5.10482">
        <ele>230</ele>
      </trkpt>
      <trkpt lat="44.21655" lon="5.10483">
        <ele>230</ele>
      </trkpt>
      <trkpt lat="44.21636" lon="5.10472">
        <ele>231</ele>
      </trkpt>
      <trkpt lat="44.21625" lon="5.10468">
        <ele>231</ele>
      </trkpt>
      <trkpt lat="44.21604" lon="5.1047">
        <ele>233</ele>
      </trkpt>
      <trkpt lat="44.21508" lon="5.10503">
        <ele>232</ele>
      </trkpt>
      <trkpt lat="44.21447" lon="5.10535">
        <ele>234</ele>
      </trkpt>
      <trkpt lat="44.21357" lon="5.10593">
        <ele>237</ele>
      </trkpt>
      <trkpt lat="44.21317" lon="5.10614">
        <ele>238</ele>
      </trkpt>
      <trkpt lat="44.212" lon="5.1066">
        <ele>242</ele>
      </trkpt>
      <trkpt lat="44.21172" lon="5.10669">
        <ele>243</ele>
      </trkpt>
      <trkpt lat="44.21104" lon="5.10698">
        <ele>242</ele>
      </trkpt>
      <trkpt lat="44.21011" lon="5.10745">
        <ele>244</ele>
      </trkpt>
      <trkpt lat="44.20986" lon="5.1076">
        <ele>245</ele>
      </trkpt>
      <trkpt lat="44.20966" lon="5.10778">
        <ele>245</ele>
      </trkpt>
      <trkpt lat="44.2095" lon="5.10799">
        <ele>245</ele>
      </trkpt>
      <trkpt lat="44.20939" lon="5.1082">
        <ele>245</ele>
      </trkpt>
      <trkpt lat="44.20925" lon="5.10854">
        <ele>246</ele>
      </trkpt>
      <trkpt lat="44.20891" lon="5.11012">
        <ele>247</ele>
      </trkpt>
      <trkpt lat="44.20881" lon="5.11051">
        <ele>248</ele>
      </trkpt>
      <trkpt lat="44.20837" lon="5.11203">
        <ele>252</ele>
      </trkpt>
      <trkpt lat="44.20811" lon="5.11278">
        <ele>253</ele>
      </trkpt>
      <trkpt lat="44.20783" lon="5.11363">
        <ele>256</ele>
      </trkpt>
      <trkpt lat="44.20731" lon="5.11624">
        <ele>260</ele>
      </trkpt>
      <trkpt lat="44.20682" lon="5.11857">
        <ele>265</ele>
      </trkpt>
      <trkpt lat="44.2067" lon="5.11897">
        <ele>268</ele>
      </trkpt>
      <trkpt lat="44.20656" lon="5.11929">
        <ele>270</ele>
      </trkpt>
      <trkpt lat="44.20622" lon="5.11992">
        <ele>270</ele>
      </trkpt>
      <trkpt lat="44.20594" lon="5.1204">
        <ele>270</ele>
      </trkpt>
      <trkpt lat="44.204" lon="5.12309">
        <ele>275</ele>
      </trkpt>
      <trkpt lat="44.20387" lon="5.12324">
        <ele>275</ele>
      </trkpt>
      <trkpt lat="44.20376" lon="5.12332">
        <ele>275</ele>
      </trkpt>
      <trkpt lat="44.20352" lon="5.12346">
        <ele>276</ele>
      </trkpt>
      <trkpt lat="44.20313" lon="5.12358">
        <ele>275</ele>
      </trkpt>
      <trkpt lat="44.20297" lon="5.12346">
        <ele>274</ele>
      </trkpt>
      <trkpt lat="44.20265" lon="5.12318">
        <ele>273</ele>
      </trkpt>
      <trkpt lat="44.20261" lon="5.1231">
        <ele>273</ele>
      </trkpt>
      <trkpt lat="44.20256" lon="5.12297">
        <ele>272</ele>
      </trkpt>
      <trkpt lat="44.20254" lon="5.12274">
        <ele>273</ele>
      </trkpt>
      <trkpt lat="44.2026" lon="5.1224">
        <ele>272</ele>
      </trkpt>
      <trkpt lat="44.20299" lon="5.12095">
        <ele>275</ele>
      </trkpt>
      <trkpt lat="44.20325" lon="5.12027">
        <ele>277</ele>
      </trkpt>
      <trkpt lat="44.20385" lon="5.11898">
        <ele>277</ele>
      </trkpt>
      <trkpt lat="44.20403" lon="5.11847">
        <ele>277</ele>
      </trkpt>
      <trkpt lat="44.20411" lon="5.11814">
        <ele>278</ele>
      </trkpt>
      <trkpt lat="44.20415" lon="5.11796">
        <ele>277</ele>
      </trkpt>
      <trkpt lat="44.20414" lon="5.11775">
        <ele>277</ele>
      </trkpt>
      <trkpt lat="44.2041" lon="5.11757">
        <ele>277</ele>
      </trkpt>
      <trkpt lat="44.20402" lon="5.11741">
        <ele>278</ele>
      </trkpt>
      <trkpt lat="44.20392" lon="5.11728">
        <ele>284</ele>
      </trkpt>
      <trkpt lat="44.20252" lon="5.11582">
        <ele>286</ele>
      </trkpt>
      <trkpt lat="44.20245" lon="5.11579">
        <ele>286</ele>
      </trkpt>
      <trkpt lat="44.20235" lon="5.1158">
        <ele>286</ele>
      </trkpt>
      <trkpt lat="44.20226" lon="5.11584">
        <ele>286</ele>
      </trkpt>
      <trkpt lat="44.20219" lon="5.11592">
        <ele>287</ele>
      </trkpt>
      <trkpt lat="44.20215" lon="5.11603">
        <ele>287</ele>
      </trkpt>
      <trkpt lat="44.2021" lon="5.11619">
        <ele>288</ele>
      </trkpt>
      <trkpt lat="44.20204" lon="5.11653">
        <ele>289</ele>
      </trkpt>
      <trkpt lat="44.20197" lon="5.11678">
        <ele>290</ele>
      </trkpt>
      <trkpt lat="44.2019" lon="5.11689">
        <ele>290</ele>
      </trkpt>
      <trkpt lat="44.20181" lon="5.11699">
        <ele>292</ele>
      </trkpt>
      <trkpt lat="44.20167" lon="5.11708">
        <ele>292</ele>
      </trkpt>
      <trkpt lat="44.20157" lon="5.11712">
        <ele>292</ele>
      </trkpt>
      <trkpt lat="44.20123" lon="5.11715">
        <ele>295</ele>
      </trkpt>
      <trkpt lat="44.20105" lon="5.1172">
        <ele>296</ele>
      </trkpt>
      <trkpt lat="44.20037" lon="5.11747">
        <ele>296</ele>
      </trkpt>
      <trkpt lat="44.20007" lon="5.11759">
        <ele>294</ele>
      </trkpt>
      <trkpt lat="44.19976" lon="5.1178">
        <ele>288</ele>
      </trkpt>
      <trkpt lat="44.1995" lon="5.11805">
        <ele>292</ele>
      </trkpt>
      <trkpt lat="44.19924" lon="5.11833">
        <ele>295</ele>
      </trkpt>
      <trkpt lat="44.19914" lon="5.11839">
        <ele>297</ele>
      </trkpt>
      <trkpt lat="44.19896" lon="5.11838">
        <ele>296</ele>
      </trkpt>
      <trkpt lat="44.19823" lon="5.11829">
        <ele>283</ele>
      </trkpt>
      <trkpt lat="44.19814" lon="5.1183">
        <ele>283</ele>
      </trkpt>
      <trkpt lat="44.198" lon="5.11835">
        <ele>283</ele>
      </trkpt>
      <trkpt lat="44.19753" lon="5.11882">
        <ele>288</ele>
      </trkpt>
      <trkpt lat="44.1973" lon="5.11893">
        <ele>287</ele>
      </trkpt>
      <trkpt lat="44.1972" lon="5.11894">
        <ele>282</ele>
      </trkpt>
      <trkpt lat="44.19708" lon="5.11893">
        <ele>280</ele>
      </trkpt>
      <trkpt lat="44.19695" lon="5.1189">
        <ele>275</ele>
      </trkpt>
      <trkpt lat="44.19679" lon="5.1188">
        <ele>274</ele>
      </trkpt>
      <trkpt lat="44.19664" lon="5.11864">
        <ele>271</ele>
      </trkpt>
      <trkpt lat="44.19642" lon="5.11824">
        <ele>268</ele>
      </trkpt>
      <trkpt lat="44.19629" lon="5.11789">
        <ele>267</ele>
      </trkpt>
      <trkpt lat="44.19621" lon="5.1178">
        <ele>266</ele>
      </trkpt>
      <trkpt lat="44.19615" lon="5.11777">
        <ele>267</ele>
      </trkpt>
      <trkpt lat="44.19592" lon="5.11794">
        <ele>269</ele>
      </trkpt>
      <trkpt lat="44.19569" lon="5.11801">
        <ele>270</ele>
      </trkpt>
      <trkpt lat="44.19503" lon="5.1181">
        <ele>280</ele>
      </trkpt>
      <trkpt lat="44.19486" lon="5.11816">
        <ele>282</ele>
      </trkpt>
      <trkpt lat="44.19462" lon="5.11829">
        <ele>283</ele>
      </trkpt>
      <trkpt lat="44.19373" lon="5.11887">
        <ele>281</ele>
      </trkpt>
      <trkpt lat="44.19274" lon="5.11937">
        <ele>288</ele>
      </trkpt>
      <trkpt lat="44.19243" lon="5.11951">
        <ele>289</ele>
      </trkpt>
      <trkpt lat="44.19108" lon="5.11998">
        <ele>283</ele>
      </trkpt>
      <trkpt lat="44.19022" lon="5.12023">
        <ele>288</ele>
      </trkpt>
      <trkpt lat="44.18825" lon="5.12086">
        <ele>289</ele>
      </trkpt>
      <trkpt lat="44.18796" lon="5.12098">
        <ele>291</ele>
      </trkpt>
      <trkpt lat="44.18779" lon="5.12108">
        <ele>292</ele>
      </trkpt>
      <trkpt lat="44.18487" lon="5.12321">
        <ele>299</ele>
      </trkpt>
      <trkpt lat="44.18466" lon="5.12342">
        <ele>299</ele>
      </trkpt>
      <trkpt lat="44.18224" lon="5.12644">
        <ele>304</ele>
      </trkpt>
      <trkpt lat="44.18209" lon="5.12659">
        <ele>304</ele>
      </trkpt>
      <trkpt lat="44.1803" lon="5.1274">
        <ele>309</ele>
      </trkpt>
      <trkpt lat="44.17811" lon="5.12834">
        <ele>312</ele>
      </trkpt>
      <trkpt lat="44.17785" lon="5.12956">
        <ele>313</ele>
      </trkpt>
      <trkpt lat="44.17781" lon="5.12967">
        <ele>314</ele>
      </trkpt>
      <trkpt lat="44.17765" lon="5.12971">
        <ele>314</ele>
      </trkpt>
      <trkpt lat="44.1771" lon="5.13015">
        <ele>315</ele>
      </trkpt>
      <trkpt lat="44.17664" lon="5.13048">
        <ele>315</ele>
      </trkpt>
      <trkpt lat="44.17596" lon="5.13104">
        <ele>319</ele>
      </trkpt>
      <trkpt lat="44.17564" lon="5.13132">
        <ele>322</ele>
      </trkpt>
      <trkpt lat="44.17558" lon="5.13132">
        <ele>322</ele>
      </trkpt>
      <trkpt lat="44.17553" lon="5.1315">
        <ele>323</ele>
      </trkpt>
      <trkpt lat="44.1755" lon="5.13158">
        <ele>323</ele>
      </trkpt>
      <trkpt lat="44.17536" lon="5.13175">
        <ele>324</ele>
      </trkpt>
      <trkpt lat="44.17458" lon="5.13253">
        <ele>325</ele>
      </trkpt>
      <trkpt lat="44.17395" lon="5.13319">
        <ele>327</ele>
      </trkpt>
      <trkpt lat="44.1735" lon="5.13363">
        <ele>330</ele>
      </trkpt>
      <trkpt lat="44.17335" lon="5.1337">
        <ele>331</ele>
      </trkpt>
      <trkpt lat="44.17319" lon="5.1337">
        <ele>332</ele>
      </trkpt>
      <trkpt lat="44.1731" lon="5.13503">
        <ele>340</ele>
      </trkpt>
      <trkpt lat="44.17313" lon="5.1354">
        <ele>342</ele>
      </trkpt>
      <trkpt lat="44.17304" lon="5.13609">
        <ele>342</ele>
      </trkpt>
      <trkpt lat="44.17285" lon="5.13695">
        <ele>342</ele>
      </trkpt>
      <trkpt lat="44.1728" lon="5.13705">
        <ele>344</ele>
      </trkpt>
      <trkpt lat="44.17268" lon="5.13719">
        <ele>344</ele>
      </trkpt>
      <trkpt lat="44.17238" lon="5.13749">
        <ele>347</ele>
      </trkpt>
      <trkpt lat="44.17188" lon="5.13795">
        <ele>352</ele>
      </trkpt>
      <trkpt lat="44.17178" lon="5.13807">
        <ele>352</ele>
      </trkpt>
      <trkpt lat="44.17165" lon="5.13827">
        <ele>354</ele>
      </trkpt>
      <trkpt lat="44.17136" lon="5.13903">
        <ele>363</ele>
      </trkpt>
      <trkpt lat="44.1713" lon="5.13915">
        <ele>363</ele>
      </trkpt>
      <trkpt lat="44.17112" lon="5.13936">
        <ele>365</ele>
      </trkpt>
      <trkpt lat="44.17089" lon="5.13961">
        <ele>367</ele>
      </trkpt>
      <trkpt lat="44.17082" lon="5.13972">
        <ele>366</ele>
      </trkpt>
      <trkpt lat="44.17067" lon="5.14026">
        <ele>368</ele>
      </trkpt>
      <trkpt lat="44.17059" lon="5.14047">
        <ele>368</ele>
      </trkpt>
      <trkpt lat="44.17017" lon="5.141">
        <ele>372</ele>
      </trkpt>
      <trkpt lat="44.17004" lon="5.14124">
        <ele>376</ele>
      </trkpt>
      <trkpt lat="44.16993" lon="5.14149">
        <ele>381</ele>
      </trkpt>
      <trkpt lat="44.16984" lon="5.14164">
        <ele>382</ele>
      </trkpt>
      <trkpt lat="44.16954" lon="5.14197">
        <ele>384</ele>
      </trkpt>
      <trkpt lat="44.16933" lon="5.14229">
        <ele>386</ele>
      </trkpt>
      <trkpt lat="44.1687" lon="5.1434">
        <ele>398</ele>
      </trkpt>
      <trkpt lat="44.16858" lon="5.14373">
        <ele>397</ele>
      </trkpt>
      <trkpt lat="44.16849" lon="5.14414">
        <ele>399</ele>
      </trkpt>
      <trkpt lat="44.1684" lon="5.14475">
        <ele>405</ele>
      </trkpt>
      <trkpt lat="44.16829" lon="5.1453">
        <ele>406</ele>
      </trkpt>
      <trkpt lat="44.16767" lon="5.14744">
        <ele>408</ele>
      </trkpt>
      <trkpt lat="44.16745" lon="5.14815">
        <ele>402</ele>
      </trkpt>
      <trkpt lat="44.16732" lon="5.14844">
        <ele>403</ele>
      </trkpt>
      <trkpt lat="44.1672" lon="5.1486">
        <ele>403</ele>
      </trkpt>
      <trkpt lat="44.16709" lon="5.14871">
        <ele>405</ele>
      </trkpt>
      <trkpt lat="44.16699" lon="5.14873">
        <ele>405</ele>
      </trkpt>
      <trkpt lat="44.16678" lon="5.1487">
        <ele>405</ele>
      </trkpt>
      <trkpt lat="44.16668" lon="5.14864">
        <ele>403</ele>
      </trkpt>
      <trkpt lat="44.16658" lon="5.14853">
        <ele>402</ele>
      </trkpt>
      <trkpt lat="44.16652" lon="5.14842">
        <ele>403</ele>
      </trkpt>
      <trkpt lat="44.16622" lon="5.14761">
        <ele>401</ele>
      </trkpt>
      <trkpt lat="44.16615" lon="5.1475">
        <ele>403</ele>
      </trkpt>
      <trkpt lat="44.16609" lon="5.14743">
        <ele>404</ele>
      </trkpt>
      <trkpt lat="44.16598" lon="5.14737">
        <ele>404</ele>
      </trkpt>
      <trkpt lat="44.16578" lon="5.14738">
        <ele>410</ele>
      </trkpt>
      <trkpt lat="44.16572" lon="5.14735">
        <ele>410</ele>
      </trkpt>
      <trkpt lat="44.16562" lon="5.14726">
        <ele>409</ele>
      </trkpt>
      <trkpt lat="44.16558" lon="5.14719">
        <ele>413</ele>
      </trkpt>
      <trkpt lat="44.16556" lon="5.1471">
        <ele>413</ele>
      </trkpt>
      <trkpt lat="44.16547" lon="5.14639">
        <ele>413</ele>
      </trkpt>
      <trkpt lat="44.16549" lon="5.14609">
        <ele>417</ele>
      </trkpt>
      <trkpt lat="44.16557" lon="5.14575">
        <ele>418</ele>
      </trkpt>
      <trkpt lat="44.16558" lon="5.14552">
        <ele>419</ele>
      </trkpt>
      <trkpt lat="44.16551" lon="5.14534">
        <ele>420</ele>
      </trkpt>
      <trkpt lat="44.16545" lon="5.14527">
        <ele>420</ele>
      </trkpt>
      <trkpt lat="44.16521" lon="5.14503">
        <ele>425</ele>
      </trkpt>
      <trkpt lat="44.16513" lon="5.14492">
        <ele>425</ele>
      </trkpt>
      <trkpt lat="44.16507" lon="5.14477">
        <ele>426</ele>
      </trkpt>
      <trkpt lat="44.16501" lon="5.14454">
        <ele>430</ele>
      </trkpt>
      <trkpt lat="44.16501" lon="5.14443">
        <ele>431</ele>
      </trkpt>
      <trkpt lat="44.16507" lon="5.14386">
        <ele>426</ele>
      </trkpt>
      <trkpt lat="44.16506" lon="5.14367">
        <ele>427</ele>
      </trkpt>
      <trkpt lat="44.16498" lon="5.14342">
        <ele>433</ele>
      </trkpt>
      <trkpt lat="44.16488" lon="5.14322">
        <ele>433</ele>
      </trkpt>
      <trkpt lat="44.16474" lon="5.14277">
        <ele>437</ele>
      </trkpt>
      <trkpt lat="44.16468" lon="5.14265">
        <ele>437</ele>
      </trkpt>
      <trkpt lat="44.16461" lon="5.14255">
        <ele>437</ele>
      </trkpt>
      <trkpt lat="44.16438" lon="5.14232">
        <ele>443</ele>
      </trkpt>
      <trkpt lat="44.16422" lon="5.14214">
        <ele>441</ele>
      </trkpt>
      <trkpt lat="44.16372" lon="5.14144">
        <ele>449</ele>
      </trkpt>
      <trkpt lat="44.1636" lon="5.14131">
        <ele>450</ele>
      </trkpt>
      <trkpt lat="44.16347" lon="5.14123">
        <ele>450</ele>
      </trkpt>
      <trkpt lat="44.16334" lon="5.1412">
        <ele>453</ele>
      </trkpt>
      <trkpt lat="44.16238" lon="5.1412">
        <ele>470</ele>
      </trkpt>
      <trkpt lat="44.16213" lon="5.14124">
        <ele>476</ele>
      </trkpt>
      <trkpt lat="44.16191" lon="5.14136">
        <ele>482</ele>
      </trkpt>
      <trkpt lat="44.16179" lon="5.14138">
        <ele>483</ele>
      </trkpt>
      <trkpt lat="44.16113" lon="5.14135">
        <ele>487</ele>
      </trkpt>
      <trkpt lat="44.161" lon="5.14135">
        <ele>486</ele>
      </trkpt>
      <trkpt lat="44.16087" lon="5.14138">
        <ele>486</ele>
      </trkpt>
      <trkpt lat="44.16036" lon="5.14166">
        <ele>494</ele>
      </trkpt>
      <trkpt lat="44.16016" lon="5.14181">
        <ele>500</ele>
      </trkpt>
      <trkpt lat="44.16005" lon="5.14194">
        <ele>501</ele>
      </trkpt>
      <trkpt lat="44.15994" lon="5.14212">
        <ele>503</ele>
      </trkpt>
      <trkpt lat="44.15981" lon="5.1424">
        <ele>508</ele>
      </trkpt>
      <trkpt lat="44.15975" lon="5.14257">
        <ele>502</ele>
      </trkpt>
      <trkpt lat="44.15972" lon="5.14279">
        <ele>502</ele>
      </trkpt>
      <trkpt lat="44.15973" lon="5.1429">
        <ele>503</ele>
      </trkpt>
      <trkpt lat="44.15978" lon="5.14306">
        <ele>512</ele>
      </trkpt>
      <trkpt lat="44.15985" lon="5.1432">
        <ele>512</ele>
      </trkpt>
      <trkpt lat="44.15993" lon="5.14334">
        <ele>512</ele>
      </trkpt>
      <trkpt lat="44.16069" lon="5.14419">
        <ele>529</ele>
      </trkpt>
      <trkpt lat="44.16088" lon="5.14444">
        <ele>536</ele>
      </trkpt>
      <trkpt lat="44.16108" lon="5.14468">
        <ele>536</ele>
      </trkpt>
      <trkpt lat="44.16117" lon="5.14487">
        <ele>543</ele>
      </trkpt>
      <trkpt lat="44.16118" lon="5.14506">
        <ele>542</ele>
      </trkpt>
      <trkpt lat="44.16115" lon="5.14536">
        <ele>535</ele>
      </trkpt>
      <trkpt lat="44.16115" lon="5.14548">
        <ele>535</ele>
      </trkpt>
      <trkpt lat="44.1612" lon="5.14569">
        <ele>541</ele>
      </trkpt>
      <trkpt lat="44.16132" lon="5.14588">
        <ele>542</ele>
      </trkpt>
      <trkpt lat="44.16137" lon="5.14605">
        <ele>543</ele>
      </trkpt>
      <trkpt lat="44.16138" lon="5.14643">
        <ele>546</ele>
      </trkpt>
      <trkpt lat="44.16146" lon="5.14674">
        <ele>557</ele>
      </trkpt>
      <trkpt lat="44.16147" lon="5.14683">
        <ele>558</ele>
      </trkpt>
      <trkpt lat="44.16145" lon="5.14691">
        <ele>558</ele>
      </trkpt>
      <trkpt lat="44.16142" lon="5.14698">
        <ele>553</ele>
      </trkpt>
      <trkpt lat="44.16134" lon="5.14706">
        <ele>557</ele>
      </trkpt>
      <trkpt lat="44.16128" lon="5.14707">
        <ele>556</ele>
      </trkpt>
      <trkpt lat="44.16123" lon="5.14706">
        <ele>556</ele>
      </trkpt>
      <trkpt lat="44.16091" lon="5.14688">
        <ele>545</ele>
      </trkpt>
      <trkpt lat="44.16081" lon="5.14685">
        <ele>543</ele>
      </trkpt>
      <trkpt lat="44.16068" lon="5.14686">
        <ele>543</ele>
      </trkpt>
      <trkpt lat="44.16062" lon="5.14691">
        <ele>544</ele>
      </trkpt>
      <trkpt lat="44.16059" lon="5.14698">
        <ele>544</ele>
      </trkpt>
      <trkpt lat="44.16049" lon="5.14742">
        <ele>556</ele>
      </trkpt>
      <trkpt lat="44.16044" lon="5.14757">
        <ele>562</ele>
      </trkpt>
      <trkpt lat="44.16037" lon="5.14768">
        <ele>563</ele>
      </trkpt>
      <trkpt lat="44.16022" lon="5.14779">
        <ele>562</ele>
      </trkpt>
      <trkpt lat="44.16015" lon="5.1479">
        <ele>567</ele>
      </trkpt>
      <trkpt lat="44.16011" lon="5.14806">
        <ele>568</ele>
      </trkpt>
      <trkpt lat="44.16" lon="5.1489">
        <ele>580</ele>
      </trkpt>
      <trkpt lat="44.15997" lon="5.14902">
        <ele>584</ele>
      </trkpt>
      <trkpt lat="44.15988" lon="5.14914">
        <ele>584</ele>
      </trkpt>
      <trkpt lat="44.15983" lon="5.14916">
        <ele>583</ele>
      </trkpt>
      <trkpt lat="44.15971" lon="5.14912">
        <ele>579</ele>
      </trkpt>
      <trkpt lat="44.15932" lon="5.14881">
        <ele>573</ele>
      </trkpt>
      <trkpt lat="44.15923" lon="5.14871">
        <ele>574</ele>
      </trkpt>
      <trkpt lat="44.15919" lon="5.14863">
        <ele>574</ele>
      </trkpt>
      <trkpt lat="44.15903" lon="5.14811">
        <ele>568</ele>
      </trkpt>
      <trkpt lat="44.15894" lon="5.14792">
        <ele>565</ele>
      </trkpt>
      <trkpt lat="44.15884" lon="5.14779">
        <ele>570</ele>
      </trkpt>
      <trkpt lat="44.15872" lon="5.14769">
        <ele>571</ele>
      </trkpt>
      <trkpt lat="44.1586" lon="5.14762">
        <ele>578</ele>
      </trkpt>
      <trkpt lat="44.15785" lon="5.14742">
        <ele>584</ele>
      </trkpt>
      <trkpt lat="44.15728" lon="5.14716">
        <ele>589</ele>
      </trkpt>
      <trkpt lat="44.15707" lon="5.1471">
        <ele>594</ele>
      </trkpt>
      <trkpt lat="44.15697" lon="5.14709">
        <ele>600</ele>
      </trkpt>
      <trkpt lat="44.1565" lon="5.14721">
        <ele>606</ele>
      </trkpt>
      <trkpt lat="44.15608" lon="5.14736">
        <ele>611</ele>
      </trkpt>
      <trkpt lat="44.15598" lon="5.14744">
        <ele>611</ele>
      </trkpt>
      <trkpt lat="44.15594" lon="5.14753">
        <ele>611</ele>
      </trkpt>
      <trkpt lat="44.15592" lon="5.1476">
        <ele>614</ele>
      </trkpt>
      <trkpt lat="44.15593" lon="5.14766">
        <ele>614</ele>
      </trkpt>
      <trkpt lat="44.15597" lon="5.14774">
        <ele>614</ele>
      </trkpt>
      <trkpt lat="44.15604" lon="5.14783">
        <ele>615</ele>
      </trkpt>
      <trkpt lat="44.15663" lon="5.14836">
        <ele>623</ele>
      </trkpt>
      <trkpt lat="44.15675" lon="5.1485">
        <ele>628</ele>
      </trkpt>
      <trkpt lat="44.15689" lon="5.14872">
        <ele>630</ele>
      </trkpt>
      <trkpt lat="44.15712" lon="5.14923">
        <ele>635</ele>
      </trkpt>
      <trkpt lat="44.15719" lon="5.14946">
        <ele>636</ele>
      </trkpt>
      <trkpt lat="44.15723" lon="5.14971">
        <ele>638</ele>
      </trkpt>
      <trkpt lat="44.15726" lon="5.15">
        <ele>641</ele>
      </trkpt>
      <trkpt lat="44.15726" lon="5.15018">
        <ele>643</ele>
      </trkpt>
      <trkpt lat="44.15721" lon="5.15067">
        <ele>646</ele>
      </trkpt>
      <trkpt lat="44.15721" lon="5.15082">
        <ele>646</ele>
      </trkpt>
      <trkpt lat="44.15723" lon="5.15097">
        <ele>647</ele>
      </trkpt>
      <trkpt lat="44.15757" lon="5.15209">
        <ele>658</ele>
      </trkpt>
      <trkpt lat="44.15764" lon="5.15226">
        <ele>658</ele>
      </trkpt>
      <trkpt lat="44.15788" lon="5.15267">
        <ele>661</ele>
      </trkpt>
      <trkpt lat="44.15822" lon="5.15306">
        <ele>666</ele>
      </trkpt>
      <trkpt lat="44.15835" lon="5.15323">
        <ele>666</ele>
      </trkpt>
      <trkpt lat="44.15842" lon="5.15336">
        <ele>669</ele>
      </trkpt>
      <trkpt lat="44.15863" lon="5.15383">
        <ele>669</ele>
      </trkpt>
      <trkpt lat="44.15871" lon="5.15394">
        <ele>670</ele>
      </trkpt>
      <trkpt lat="44.15885" lon="5.15405">
        <ele>670</ele>
      </trkpt>
      <trkpt lat="44.15892" lon="5.15407">
        <ele>670</ele>
      </trkpt>
      <trkpt lat="44.15905" lon="5.15406">
        <ele>671</ele>
      </trkpt>
      <trkpt lat="44.15931" lon="5.15398">
        <ele>676</ele>
      </trkpt>
      <trkpt lat="44.15946" lon="5.15396">
        <ele>677</ele>
      </trkpt>
      <trkpt lat="44.15958" lon="5.15397">
        <ele>680</ele>
      </trkpt>
      <trkpt lat="44.15984" lon="5.15405">
        <ele>684</ele>
      </trkpt>
      <trkpt lat="44.1602" lon="5.15405">
        <ele>687</ele>
      </trkpt>
      <trkpt lat="44.1603" lon="5.15407">
        <ele>687</ele>
      </trkpt>
      <trkpt lat="44.16051" lon="5.15421">
        <ele>689</ele>
      </trkpt>
      <trkpt lat="44.16076" lon="5.15441">
        <ele>694</ele>
      </trkpt>
      <trkpt lat="44.16153" lon="5.15506">
        <ele>697</ele>
      </trkpt>
      <trkpt lat="44.16178" lon="5.15534">
        <ele>700</ele>
      </trkpt>
      <trkpt lat="44.16194" lon="5.15563">
        <ele>701</ele>
      </trkpt>
      <trkpt lat="44.16206" lon="5.15593">
        <ele>704</ele>
      </trkpt>
      <trkpt lat="44.16227" lon="5.15658">
        <ele>707</ele>
      </trkpt>
      <trkpt lat="44.16234" lon="5.15693">
        <ele>708</ele>
      </trkpt>
      <trkpt lat="44.16238" lon="5.15734">
        <ele>709</ele>
      </trkpt>
      <trkpt lat="44.16245" lon="5.15828">
        <ele>709</ele>
      </trkpt>
      <trkpt lat="44.16249" lon="5.15849">
        <ele>707</ele>
      </trkpt>
      <trkpt lat="44.16254" lon="5.15866">
        <ele>705</ele>
      </trkpt>
      <trkpt lat="44.16262" lon="5.15877">
        <ele>706</ele>
      </trkpt>
      <trkpt lat="44.16276" lon="5.15891">
        <ele>705</ele>
      </trkpt>
      <trkpt lat="44.16322" lon="5.15923">
        <ele>705</ele>
      </trkpt>
      <trkpt lat="44.16344" lon="5.15931">
        <ele>705</ele>
      </trkpt>
      <trkpt lat="44.16379" lon="5.15936">
        <ele>706</ele>
      </trkpt>
      <trkpt lat="44.16402" lon="5.15942">
        <ele>709</ele>
      </trkpt>
      <trkpt lat="44.16411" lon="5.15948">
        <ele>710</ele>
      </trkpt>
      <trkpt lat="44.16418" lon="5.15955">
        <ele>711</ele>
      </trkpt>
      <trkpt lat="44.16432" lon="5.15975">
        <ele>714</ele>
      </trkpt>
      <trkpt lat="44.16451" lon="5.16012">
        <ele>719</ele>
      </trkpt>
      <trkpt lat="44.16463" lon="5.16042">
        <ele>721</ele>
      </trkpt>
      <trkpt lat="44.16473" lon="5.16078">
        <ele>723</ele>
      </trkpt>
      <trkpt lat="44.16491" lon="5.16184">
        <ele>732</ele>
      </trkpt>
      <trkpt lat="44.16498" lon="5.16209">
        <ele>732</ele>
      </trkpt>
      <trkpt lat="44.16503" lon="5.16224">
        <ele>732</ele>
      </trkpt>
      <trkpt lat="44.1652" lon="5.16254">
        <ele>736</ele>
      </trkpt>
      <trkpt lat="44.16546" lon="5.16291">
        <ele>741</ele>
      </trkpt>
      <trkpt lat="44.16562" lon="5.1632">
        <ele>746</ele>
      </trkpt>
      <trkpt lat="44.16573" lon="5.16349">
        <ele>746</ele>
      </trkpt>
      <trkpt lat="44.16581" lon="5.16377">
        <ele>746</ele>
      </trkpt>
      <trkpt lat="44.16586" lon="5.16405">
        <ele>746</ele>
      </trkpt>
      <trkpt lat="44.16608" lon="5.16601">
        <ele>759</ele>
      </trkpt>
      <trkpt lat="44.16618" lon="5.16655">
        <ele>764</ele>
      </trkpt>
      <trkpt lat="44.16631" lon="5.16711">
        <ele>761</ele>
      </trkpt>
      <trkpt lat="44.16641" lon="5.16739">
        <ele>761</ele>
      </trkpt>
      <trkpt lat="44.16654" lon="5.16766">
        <ele>766</ele>
      </trkpt>
      <trkpt lat="44.16674" lon="5.16805">
        <ele>770</ele>
      </trkpt>
      <trkpt lat="44.16689" lon="5.16836">
        <ele>769</ele>
      </trkpt>
      <trkpt lat="44.16701" lon="5.16869">
        <ele>770</ele>
      </trkpt>
      <trkpt lat="44.16712" lon="5.16904">
        <ele>770</ele>
      </trkpt>
      <trkpt lat="44.16721" lon="5.16938">
        <ele>769</ele>
      </trkpt>
      <trkpt lat="44.16727" lon="5.16978">
        <ele>768</ele>
      </trkpt>
      <trkpt lat="44.16725" lon="5.17028">
        <ele>765</ele>
      </trkpt>
      <trkpt lat="44.1672" lon="5.17086">
        <ele>764</ele>
      </trkpt>
      <trkpt lat="44.16717" lon="5.17141">
        <ele>764</ele>
      </trkpt>
      <trkpt lat="44.16715" lon="5.17362">
        <ele>776</ele>
      </trkpt>
      <trkpt lat="44.16717" lon="5.17459">
        <ele>788</ele>
      </trkpt>
      <trkpt lat="44.16723" lon="5.17552">
        <ele>793</ele>
      </trkpt>
      <trkpt lat="44.16729" lon="5.17575">
        <ele>792</ele>
      </trkpt>
      <trkpt lat="44.16745" lon="5.17618">
        <ele>794</ele>
      </trkpt>
      <trkpt lat="44.1675" lon="5.17639">
        <ele>794</ele>
      </trkpt>
      <trkpt lat="44.16753" lon="5.1766">
        <ele>796</ele>
      </trkpt>
      <trkpt lat="44.16753" lon="5.17682">
        <ele>799</ele>
      </trkpt>
      <trkpt lat="44.1675" lon="5.17723">
        <ele>802</ele>
      </trkpt>
      <trkpt lat="44.16743" lon="5.17748">
        <ele>805</ele>
      </trkpt>
      <trkpt lat="44.16736" lon="5.17771">
        <ele>808</ele>
      </trkpt>
      <trkpt lat="44.16711" lon="5.17826">
        <ele>820</ele>
      </trkpt>
      <trkpt lat="44.16703" lon="5.17854">
        <ele>824</ele>
      </trkpt>
      <trkpt lat="44.16678" lon="5.1799">
        <ele>834</ele>
      </trkpt>
      <trkpt lat="44.16676" lon="5.18013">
        <ele>835</ele>
      </trkpt>
      <trkpt lat="44.16677" lon="5.18034">
        <ele>837</ele>
      </trkpt>
      <trkpt lat="44.16681" lon="5.18053">
        <ele>837</ele>
      </trkpt>
      <trkpt lat="44.16763" lon="5.18251">
        <ele>850</ele>
      </trkpt>
      <trkpt lat="44.16772" lon="5.18276">
        <ele>853</ele>
      </trkpt>
      <trkpt lat="44.16785" lon="5.18328">
        <ele>858</ele>
      </trkpt>
      <trkpt lat="44.16795" lon="5.18379">
        <ele>860</ele>
      </trkpt>
      <trkpt lat="44.16801" lon="5.1843">
        <ele>859</ele>
      </trkpt>
      <trkpt lat="44.16824" lon="5.18538">
        <ele>863</ele>
      </trkpt>
      <trkpt lat="44.16829" lon="5.18551">
        <ele>863</ele>
      </trkpt>
      <trkpt lat="44.1684" lon="5.18572">
        <ele>863</ele>
      </trkpt>
      <trkpt lat="44.16877" lon="5.18626">
        <ele>859</ele>
      </trkpt>
      <trkpt lat="44.16887" lon="5.18642">
        <ele>858</ele>
      </trkpt>
      <trkpt lat="44.16894" lon="5.18659">
        <ele>853</ele>
      </trkpt>
      <trkpt lat="44.16897" lon="5.18675">
        <ele>854</ele>
      </trkpt>
      <trkpt lat="44.16897" lon="5.18691">
        <ele>855</ele>
      </trkpt>
      <trkpt lat="44.16895" lon="5.18709">
        <ele>857</ele>
      </trkpt>
      <trkpt lat="44.1687" lon="5.18771">
        <ele>869</ele>
      </trkpt>
      <trkpt lat="44.16824" lon="5.18866">
        <ele>881</ele>
      </trkpt>
      <trkpt lat="44.16817" lon="5.18888">
        <ele>884</ele>
      </trkpt>
      <trkpt lat="44.16817" lon="5.18913">
        <ele>886</ele>
      </trkpt>
      <trkpt lat="44.1682" lon="5.18925">
        <ele>886</ele>
      </trkpt>
      <trkpt lat="44.16827" lon="5.1894">
        <ele>886</ele>
      </trkpt>
      <trkpt lat="44.16837" lon="5.18954">
        <ele>884</ele>
      </trkpt>
      <trkpt lat="44.16892" lon="5.19013">
        <ele>884</ele>
      </trkpt>
      <trkpt lat="44.16925" lon="5.19054">
        <ele>876</ele>
      </trkpt>
      <trkpt lat="44.16934" lon="5.19069">
        <ele>875</ele>
      </trkpt>
      <trkpt lat="44.16937" lon="5.19086">
        <ele>875</ele>
      </trkpt>
      <trkpt lat="44.16937" lon="5.19093">
        <ele>877</ele>
      </trkpt>
      <trkpt lat="44.16934" lon="5.19105">
        <ele>877</ele>
      </trkpt>
      <trkpt lat="44.16928" lon="5.19117">
        <ele>882</ele>
      </trkpt>
      <trkpt lat="44.16918" lon="5.19129">
        <ele>889</ele>
      </trkpt>
      <trkpt lat="44.16905" lon="5.19139">
        <ele>890</ele>
      </trkpt>
      <trkpt lat="44.16868" lon="5.19158">
        <ele>896</ele>
      </trkpt>
      <trkpt lat="44.16849" lon="5.19165">
        <ele>897</ele>
      </trkpt>
      <trkpt lat="44.16772" lon="5.19184">
        <ele>903</ele>
      </trkpt>
      <trkpt lat="44.16752" lon="5.19192">
        <ele>903</ele>
      </trkpt>
      <trkpt lat="44.16733" lon="5.19203">
        <ele>909</ele>
      </trkpt>
      <trkpt lat="44.16719" lon="5.19216">
        <ele>907</ele>
      </trkpt>
      <trkpt lat="44.16702" lon="5.19244">
        <ele>912</ele>
      </trkpt>
      <trkpt lat="44.16654" lon="5.19366">
        <ele>918</ele>
      </trkpt>
      <trkpt lat="44.16648" lon="5.19384">
        <ele>919</ele>
      </trkpt>
      <trkpt lat="44.16646" lon="5.19399">
        <ele>920</ele>
      </trkpt>
      <trkpt lat="44.16647" lon="5.19425">
        <ele>920</ele>
      </trkpt>
      <trkpt lat="44.16657" lon="5.19449">
        <ele>920</ele>
      </trkpt>
      <trkpt lat="44.16682" lon="5.1947">
        <ele>921</ele>
      </trkpt>
      <trkpt lat="44.16737" lon="5.19497">
        <ele>923</ele>
      </trkpt>
      <trkpt lat="44.16862" lon="5.19549">
        <ele>929</ele>
      </trkpt>
      <trkpt lat="44.16893" lon="5.19564">
        <ele>927</ele>
      </trkpt>
      <trkpt lat="44.16932" lon="5.19589">
        <ele>924</ele>
      </trkpt>
      <trkpt lat="44.1696" lon="5.19613">
        <ele>920</ele>
      </trkpt>
      <trkpt lat="44.1697" lon="5.19628">
        <ele>923</ele>
      </trkpt>
      <trkpt lat="44.16976" lon="5.19646">
        <ele>925</ele>
      </trkpt>
      <trkpt lat="44.16977" lon="5.19657">
        <ele>920</ele>
      </trkpt>
      <trkpt lat="44.16973" lon="5.19681">
        <ele>930</ele>
      </trkpt>
      <trkpt lat="44.16967" lon="5.19694">
        <ele>932</ele>
      </trkpt>
      <trkpt lat="44.16911" lon="5.19789">
        <ele>950</ele>
      </trkpt>
      <trkpt lat="44.16877" lon="5.19842">
        <ele>955</ele>
      </trkpt>
      <trkpt lat="44.16866" lon="5.19866">
        <ele>955</ele>
      </trkpt>
      <trkpt lat="44.16861" lon="5.19891">
        <ele>956</ele>
      </trkpt>
      <trkpt lat="44.16861" lon="5.19906">
        <ele>959</ele>
      </trkpt>
      <trkpt lat="44.16866" lon="5.19947">
        <ele>966</ele>
      </trkpt>
      <trkpt lat="44.16871" lon="5.1997">
        <ele>967</ele>
      </trkpt>
      <trkpt lat="44.16885" lon="5.20007">
        <ele>965</ele>
      </trkpt>
      <trkpt lat="44.16898" lon="5.20032">
        <ele>969</ele>
      </trkpt>
      <trkpt lat="44.1691" lon="5.20052">
        <ele>967</ele>
      </trkpt>
      <trkpt lat="44.16927" lon="5.20073">
        <ele>969</ele>
      </trkpt>
      <trkpt lat="44.16941" lon="5.20088">
        <ele>970</ele>
      </trkpt>
      <trkpt lat="44.16958" lon="5.20101">
        <ele>971</ele>
      </trkpt>
      <trkpt lat="44.16974" lon="5.20111">
        <ele>972</ele>
      </trkpt>
      <trkpt lat="44.17053" lon="5.20147">
        <ele>966</ele>
      </trkpt>
      <trkpt lat="44.17068" lon="5.20162">
        <ele>958</ele>
      </trkpt>
      <trkpt lat="44.17084" lon="5.20188">
        <ele>960</ele>
      </trkpt>
      <trkpt lat="44.1709" lon="5.20202">
        <ele>951</ele>
      </trkpt>
      <trkpt lat="44.17095" lon="5.20225">
        <ele>952</ele>
      </trkpt>
      <trkpt lat="44.17096" lon="5.20239">
        <ele>958</ele>
      </trkpt>
      <trkpt lat="44.17094" lon="5.20272">
        <ele>967</ele>
      </trkpt>
      <trkpt lat="44.17087" lon="5.20306">
        <ele>980</ele>
      </trkpt>
      <trkpt lat="44.17065" lon="5.20383">
        <ele>993</ele>
      </trkpt>
      <trkpt lat="44.17062" lon="5.20406">
        <ele>996</ele>
      </trkpt>
      <trkpt lat="44.17063" lon="5.20434">
        <ele>998</ele>
      </trkpt>
      <trkpt lat="44.17066" lon="5.20453">
        <ele>999</ele>
      </trkpt>
      <trkpt lat="44.17076" lon="5.20484">
        <ele>1000</ele>
      </trkpt>
      <trkpt lat="44.17118" lon="5.20569">
        <ele>1009</ele>
      </trkpt>
      <trkpt lat="44.17129" lon="5.20596">
        <ele>1013</ele>
      </trkpt>
      <trkpt lat="44.17141" lon="5.20631">
        <ele>1015</ele>
      </trkpt>
      <trkpt lat="44.17175" lon="5.20741">
        <ele>1020</ele>
      </trkpt>
      <trkpt lat="44.17211" lon="5.20888">
        <ele>1030</ele>
      </trkpt>
      <trkpt lat="44.17224" lon="5.20969">
        <ele>1047</ele>
      </trkpt>
      <trkpt lat="44.17247" lon="5.21087">
        <ele>1059</ele>
      </trkpt>
      <trkpt lat="44.17254" lon="5.21142">
        <ele>1065</ele>
      </trkpt>
      <trkpt lat="44.17257" lon="5.21205">
        <ele>1074</ele>
      </trkpt>
      <trkpt lat="44.17264" lon="5.21244">
        <ele>1079</ele>
      </trkpt>
      <trkpt lat="44.17296" lon="5.21375">
        <ele>1091</ele>
      </trkpt>
      <trkpt lat="44.17378" lon="5.21661">
        <ele>1115</ele>
      </trkpt>
      <trkpt lat="44.17383" lon="5.21685">
        <ele>1116</ele>
      </trkpt>
      <trkpt lat="44.17386" lon="5.21709">
        <ele>1117</ele>
      </trkpt>
      <trkpt lat="44.1738" lon="5.21734">
        <ele>1120</ele>
      </trkpt>
      <trkpt lat="44.17334" lon="5.21815">
        <ele>1125</ele>
      </trkpt>
      <trkpt lat="44.17323" lon="5.21855">
        <ele>1130</ele>
      </trkpt>
      <trkpt lat="44.17318" lon="5.21895">
        <ele>1135</ele>
      </trkpt>
      <trkpt lat="44.17314" lon="5.21933">
        <ele>1138</ele>
      </trkpt>
      <trkpt lat="44.17311" lon="5.22026">
        <ele>1143</ele>
      </trkpt>
      <trkpt lat="44.17313" lon="5.22039">
        <ele>1144</ele>
      </trkpt>
      <trkpt lat="44.17318" lon="5.22053">
        <ele>1145</ele>
      </trkpt>
      <trkpt lat="44.17343" lon="5.22093">
        <ele>1147</ele>
      </trkpt>
      <trkpt lat="44.17346" lon="5.22106">
        <ele>1147</ele>
      </trkpt>
      <trkpt lat="44.17346" lon="5.22121">
        <ele>1147</ele>
      </trkpt>
      <trkpt lat="44.17342" lon="5.22145">
        <ele>1147</ele>
      </trkpt>
      <trkpt lat="44.17337" lon="5.22158">
        <ele>1150</ele>
      </trkpt>
      <trkpt lat="44.1733" lon="5.22168">
        <ele>1150</ele>
      </trkpt>
      <trkpt lat="44.17323" lon="5.22172">
        <ele>1151</ele>
      </trkpt>
      <trkpt lat="44.17314" lon="5.22173">
        <ele>1152</ele>
      </trkpt>
      <trkpt lat="44.17258" lon="5.22167">
        <ele>1159</ele>
      </trkpt>
      <trkpt lat="44.17245" lon="5.22164">
        <ele>1163</ele>
      </trkpt>
      <trkpt lat="44.17231" lon="5.22156">
        <ele>1163</ele>
      </trkpt>
      <trkpt lat="44.17184" lon="5.22117">
        <ele>1167</ele>
      </trkpt>
      <trkpt lat="44.17174" lon="5.22107">
        <ele>1167</ele>
      </trkpt>
      <trkpt lat="44.17141" lon="5.22059">
        <ele>1169</ele>
      </trkpt>
      <trkpt lat="44.17136" lon="5.22056">
        <ele>1170</ele>
      </trkpt>
      <trkpt lat="44.17129" lon="5.2206">
        <ele>1171</ele>
      </trkpt>
      <trkpt lat="44.17126" lon="5.22065">
        <ele>1174</ele>
      </trkpt>
      <trkpt lat="44.17126" lon="5.22071">
        <ele>1174</ele>
      </trkpt>
      <trkpt lat="44.17127" lon="5.22079">
        <ele>1175</ele>
      </trkpt>
      <trkpt lat="44.17152" lon="5.22135">
        <ele>1177</ele>
      </trkpt>
      <trkpt lat="44.17187" lon="5.22222">
        <ele>1184</ele>
      </trkpt>
      <trkpt lat="44.17209" lon="5.22285">
        <ele>1192</ele>
      </trkpt>
      <trkpt lat="44.17233" lon="5.2236">
        <ele>1195</ele>
      </trkpt>
      <trkpt lat="44.17257" lon="5.22418">
        <ele>1197</ele>
      </trkpt>
      <trkpt lat="44.17274" lon="5.22452">
        <ele>1205</ele>
      </trkpt>
      <trkpt lat="44.1729" lon="5.22491">
        <ele>1202</ele>
      </trkpt>
      <trkpt lat="44.17298" lon="5.22518">
        <ele>1207</ele>
      </trkpt>
      <trkpt lat="44.17342" lon="5.22709">
        <ele>1224</ele>
      </trkpt>
      <trkpt lat="44.17352" lon="5.22748">
        <ele>1230</ele>
      </trkpt>
      <trkpt lat="44.17373" lon="5.22811">
        <ele>1233</ele>
      </trkpt>
      <trkpt lat="44.17391" lon="5.22857">
        <ele>1242</ele>
      </trkpt>
      <trkpt lat="44.1744" lon="5.22965">
        <ele>1255</ele>
      </trkpt>
      <trkpt lat="44.175" lon="5.23075">
        <ele>1267</ele>
      </trkpt>
      <trkpt lat="44.17509" lon="5.23095">
        <ele>1267</ele>
      </trkpt>
      <trkpt lat="44.17533" lon="5.23164">
        <ele>1269</ele>
      </trkpt>
      <trkpt lat="44.17565" lon="5.23312">
        <ele>1279</ele>
      </trkpt>
      <trkpt lat="44.17567" lon="5.23324">
        <ele>1281</ele>
      </trkpt>
      <trkpt lat="44.17567" lon="5.23389">
        <ele>1288</ele>
      </trkpt>
      <trkpt lat="44.17569" lon="5.23455">
        <ele>1291</ele>
      </trkpt>
      <trkpt lat="44.17564" lon="5.23481">
        <ele>1292</ele>
      </trkpt>
      <trkpt lat="44.17551" lon="5.23519">
        <ele>1303</ele>
      </trkpt>
      <trkpt lat="44.17547" lon="5.23535">
        <ele>1305</ele>
      </trkpt>
      <trkpt lat="44.17545" lon="5.23549">
        <ele>1305</ele>
      </trkpt>
      <trkpt lat="44.17547" lon="5.23573">
        <ele>1310</ele>
      </trkpt>
      <trkpt lat="44.17552" lon="5.23589">
        <ele>1311</ele>
      </trkpt>
      <trkpt lat="44.17561" lon="5.23607">
        <ele>1310</ele>
      </trkpt>
      <trkpt lat="44.17577" lon="5.23633">
        <ele>1318</ele>
      </trkpt>
      <trkpt lat="44.17621" lon="5.23695">
        <ele>1321</ele>
      </trkpt>
      <trkpt lat="44.17641" lon="5.23732">
        <ele>1331</ele>
      </trkpt>
      <trkpt lat="44.17674" lon="5.23808">
        <ele>1327</ele>
      </trkpt>
      <trkpt lat="44.17682" lon="5.23829">
        <ele>1329</ele>
      </trkpt>
      <trkpt lat="44.17688" lon="5.23852">
        <ele>1332</ele>
      </trkpt>
      <trkpt lat="44.1769" lon="5.23872">
        <ele>1332</ele>
      </trkpt>
      <trkpt lat="44.17689" lon="5.23895">
        <ele>1332</ele>
      </trkpt>
      <trkpt lat="44.17686" lon="5.23906">
        <ele>1332</ele>
      </trkpt>
      <trkpt lat="44.17661" lon="5.23966">
        <ele>1340</ele>
      </trkpt>
      <trkpt lat="44.17656" lon="5.23983">
        <ele>1340</ele>
      </trkpt>
      <trkpt lat="44.17643" lon="5.24044">
        <ele>1357</ele>
      </trkpt>
      <trkpt lat="44.17642" lon="5.2406">
        <ele>1358</ele>
      </trkpt>
      <trkpt lat="44.17644" lon="5.24074">
        <ele>1359</ele>
      </trkpt>
      <trkpt lat="44.1765" lon="5.24087">
        <ele>1360</ele>
      </trkpt>
      <trkpt lat="44.17738" lon="5.2417">
        <ele>1358</ele>
      </trkpt>
      <trkpt lat="44.17749" lon="5.24184">
        <ele>1362</ele>
      </trkpt>
      <trkpt lat="44.17766" lon="5.24209">
        <ele>1360</ele>
      </trkpt>
      <trkpt lat="44.17778" lon="5.24234">
        <ele>1366</ele>
      </trkpt>
      <trkpt lat="44.17807" lon="5.24304">
        <ele>1372</ele>
      </trkpt>
      <trkpt lat="44.1783" lon="5.24371">
        <ele>1368</ele>
      </trkpt>
      <trkpt lat="44.17837" lon="5.24397">
        <ele>1370</ele>
      </trkpt>
      <trkpt lat="44.17845" lon="5.2444">
        <ele>1363</ele>
      </trkpt>
      <trkpt lat="44.17847" lon="5.24466">
        <ele>1365</ele>
      </trkpt>
      <trkpt lat="44.17846" lon="5.24509">
        <ele>1376</ele>
      </trkpt>
      <trkpt lat="44.17847" lon="5.24525">
        <ele>1377</ele>
      </trkpt>
      <trkpt lat="44.17852" lon="5.24542">
        <ele>1383</ele>
      </trkpt>
      <trkpt lat="44.17857" lon="5.24553">
        <ele>1383</ele>
      </trkpt>
      <trkpt lat="44.17873" lon="5.24574">
        <ele>1380</ele>
      </trkpt>
      <trkpt lat="44.17921" lon="5.24619">
        <ele>1390</ele>
      </trkpt>
      <trkpt lat="44.17944" lon="5.24649">
        <ele>1395</ele>
      </trkpt>
      <trkpt lat="44.17973" lon="5.24697">
        <ele>1398</ele>
      </trkpt>
      <trkpt lat="44.18006" lon="5.2476">
        <ele>1399</ele>
      </trkpt>
      <trkpt lat="44.18029" lon="5.24816">
        <ele>1403</ele>
      </trkpt>
      <trkpt lat="44.1804" lon="5.2485">
        <ele>1398</ele>
      </trkpt>
      <trkpt lat="44.18049" lon="5.24903">
        <ele>1401</ele>
      </trkpt>
      <trkpt lat="44.18054" lon="5.24948">
        <ele>1401</ele>
      </trkpt>
      <trkpt lat="44.18055" lon="5.24966">
        <ele>1400</ele>
      </trkpt>
      <trkpt lat="44.18053" lon="5.24983">
        <ele>1398</ele>
      </trkpt>
      <trkpt lat="44.18043" lon="5.25041">
        <ele>1395</ele>
      </trkpt>
      <trkpt lat="44.18036" lon="5.2514">
        <ele>1397</ele>
      </trkpt>
      <trkpt lat="44.1803" lon="5.25159">
        <ele>1403</ele>
      </trkpt>
      <trkpt lat="44.18026" lon="5.25165">
        <ele>1404</ele>
      </trkpt>
      <trkpt lat="44.18021" lon="5.25172">
        <ele>1404</ele>
      </trkpt>
      <trkpt lat="44.17994" lon="5.25197">
        <ele>1412</ele>
      </trkpt>
      <trkpt lat="44.1799" lon="5.25204">
        <ele>1410</ele>
      </trkpt>
      <trkpt lat="44.17985" lon="5.25219">
        <ele>1410</ele>
      </trkpt>
      <trkpt lat="44.17983" lon="5.25229">
        <ele>1410</ele>
      </trkpt>
      <trkpt lat="44.17982" lon="5.25273">
        <ele>1405</ele>
      </trkpt>
      <trkpt lat="44.17983" lon="5.25325">
        <ele>1405</ele>
      </trkpt>
      <trkpt lat="44.17985" lon="5.25339">
        <ele>1405</ele>
      </trkpt>
      <trkpt lat="44.18009" lon="5.25428">
        <ele>1417</ele>
      </trkpt>
      <trkpt lat="44.18014" lon="5.25446">
        <ele>1418</ele>
      </trkpt>
      <trkpt lat="44.18021" lon="5.25458">
        <ele>1423</ele>
      </trkpt>
      <trkpt lat="44.18032" lon="5.2547">
        <ele>1423</ele>
      </trkpt>
      <trkpt lat="44.18044" lon="5.25477">
        <ele>1420</ele>
      </trkpt>
      <trkpt lat="44.18089" lon="5.25495">
        <ele>1417</ele>
      </trkpt>
      <trkpt lat="44.18099" lon="5.25508">
        <ele>1417</ele>
      </trkpt>
      <trkpt lat="44.18102" lon="5.25524">
        <ele>1418</ele>
      </trkpt>
      <trkpt lat="44.18104" lon="5.25557">
        <ele>1418</ele>
      </trkpt>
      <trkpt lat="44.18109" lon="5.25583">
        <ele>1418</ele>
      </trkpt>
      <trkpt lat="44.18114" lon="5.25766">
        <ele>1425</ele>
      </trkpt>
      <trkpt lat="44.18112" lon="5.25824">
        <ele>1426</ele>
      </trkpt>
      <trkpt lat="44.18109" lon="5.25843">
        <ele>1427</ele>
      </trkpt>
      <trkpt lat="44.18106" lon="5.25847">
        <ele>1427</ele>
      </trkpt>
      <trkpt lat="44.18098" lon="5.25848">
        <ele>1428</ele>
      </trkpt>
      <trkpt lat="44.18092" lon="5.25841">
        <ele>1428</ele>
      </trkpt>
      <trkpt lat="44.1809" lon="5.25829">
        <ele>1428</ele>
      </trkpt>
      <trkpt lat="44.18088" lon="5.25734">
        <ele>1430</ele>
      </trkpt>
      <trkpt lat="44.1809" lon="5.25676">
        <ele>1422</ele>
      </trkpt>
      <trkpt lat="44.18089" lon="5.25619">
        <ele>1419</ele>
      </trkpt>
      <trkpt lat="44.18085" lon="5.25601">
        <ele>1423</ele>
      </trkpt>
      <trkpt lat="44.1808" lon="5.25586">
        <ele>1424</ele>
      </trkpt>
      <trkpt lat="44.18072" lon="5.25573">
        <ele>1424</ele>
      </trkpt>
      <trkpt lat="44.18063" lon="5.25564">
        <ele>1426</ele>
      </trkpt>
      <trkpt lat="44.18044" lon="5.25546">
        <ele>1431</ele>
      </trkpt>
      <trkpt lat="44.17991" lon="5.2551">
        <ele>1443</ele>
      </trkpt>
      <trkpt lat="44.17981" lon="5.255">
        <ele>1440</ele>
      </trkpt>
      <trkpt lat="44.17973" lon="5.25481">
        <ele>1446</ele>
      </trkpt>
      <trkpt lat="44.17949" lon="5.254">
        <ele>1443</ele>
      </trkpt>
      <trkpt lat="44.17934" lon="5.25361">
        <ele>1441</ele>
      </trkpt>
      <trkpt lat="44.17928" lon="5.25342">
        <ele>1441</ele>
      </trkpt>
      <trkpt lat="44.1792" lon="5.2529">
        <ele>1452</ele>
      </trkpt>
      <trkpt lat="44.17907" lon="5.25237">
        <ele>1455</ele>
      </trkpt>
      <trkpt lat="44.17893" lon="5.25208">
        <ele>1465</ele>
      </trkpt>
      <trkpt lat="44.1789" lon="5.25196">
        <ele>1466</ele>
      </trkpt>
      <trkpt lat="44.1789" lon="5.25185">
        <ele>1466</ele>
      </trkpt>
      <trkpt lat="44.17899" lon="5.25139">
        <ele>1461</ele>
      </trkpt>
      <trkpt lat="44.17901" lon="5.2512">
        <ele>1461</ele>
      </trkpt>
      <trkpt lat="44.17898" lon="5.25086">
        <ele>1468</ele>
      </trkpt>
      <trkpt lat="44.17893" lon="5.25067">
        <ele>1477</ele>
      </trkpt>
      <trkpt lat="44.17858" lon="5.24981">
        <ele>1485</ele>
      </trkpt>
      <trkpt lat="44.17827" lon="5.24917">
        <ele>1492</ele>
      </trkpt>
      <trkpt lat="44.17739" lon="5.24777">
        <ele>1498</ele>
      </trkpt>
      <trkpt lat="44.17692" lon="5.24711">
        <ele>1512</ele>
      </trkpt>
      <trkpt lat="44.17683" lon="5.24692">
        <ele>1508</ele>
      </trkpt>
      <trkpt lat="44.17677" lon="5.24672">
        <ele>1503</ele>
      </trkpt>
      <trkpt lat="44.1767" lon="5.24664">
        <ele>1513</ele>
      </trkpt>
      <trkpt lat="44.17664" lon="5.24665">
        <ele>1515</ele>
      </trkpt>
      <trkpt lat="44.1766" lon="5.24674">
        <ele>1520</ele>
      </trkpt>
      <trkpt lat="44.1766" lon="5.24682">
        <ele>1521</ele>
      </trkpt>
      <trkpt lat="44.17678" lon="5.24712">
        <ele>1514</ele>
      </trkpt>
      <trkpt lat="44.17684" lon="5.24732">
        <ele>1518</ele>
      </trkpt>
      <trkpt lat="44.17718" lon="5.24861">
        <ele>1528</ele>
      </trkpt>
      <trkpt lat="44.17739" lon="5.2496">
        <ele>1538</ele>
      </trkpt>
      <trkpt lat="44.17755" lon="5.2507">
        <ele>1534</ele>
      </trkpt>
      <trkpt lat="44.1776" lon="5.2513">
        <ele>1534</ele>
      </trkpt>
      <trkpt lat="44.17763" lon="5.25199">
        <ele>1532</ele>
      </trkpt>
      <trkpt lat="44.17774" lon="5.2533">
        <ele>1545</ele>
      </trkpt>
      <trkpt lat="44.17781" lon="5.25443">
        <ele>1547</ele>
      </trkpt>
      <trkpt lat="44.1778" lon="5.2547">
        <ele>1547</ele>
      </trkpt>
      <trkpt lat="44.17769" lon="5.25523">
        <ele>1550</ele>
      </trkpt>
      <trkpt lat="44.17767" lon="5.25544">
        <ele>1555</ele>
      </trkpt>
      <trkpt lat="44.17769" lon="5.25558">
        <ele>1556</ele>
      </trkpt>
      <trkpt lat="44.17788" lon="5.25609">
        <ele>1553</ele>
      </trkpt>
      <trkpt lat="44.17793" lon="5.25629">
        <ele>1555</ele>
      </trkpt>
      <trkpt lat="44.17798" lon="5.25683">
        <ele>1559</ele>
      </trkpt>
      <trkpt lat="44.178" lon="5.25727">
        <ele>1561</ele>
      </trkpt>
      <trkpt lat="44.178" lon="5.25767">
        <ele>1564</ele>
      </trkpt>
      <trkpt lat="44.17795" lon="5.25818">
        <ele>1564</ele>
      </trkpt>
      <trkpt lat="44.17786" lon="5.25858">
        <ele>1566</ele>
      </trkpt>
      <trkpt lat="44.17773" lon="5.25889">
        <ele>1578</ele>
      </trkpt>
      <trkpt lat="44.1777" lon="5.25899">
        <ele>1581</ele>
      </trkpt>
      <trkpt lat="44.1777" lon="5.25912">
        <ele>1581</ele>
      </trkpt>
      <trkpt lat="44.17773" lon="5.25924">
        <ele>1584</ele>
      </trkpt>
      <trkpt lat="44.17781" lon="5.25948">
        <ele>1584</ele>
      </trkpt>
      <trkpt lat="44.17785" lon="5.25963">
        <ele>1577</ele>
      </trkpt>
      <trkpt lat="44.17787" lon="5.25995">
        <ele>1578</ele>
      </trkpt>
      <trkpt lat="44.17789" lon="5.26049">
        <ele>1578</ele>
      </trkpt>
      <trkpt lat="44.1779" lon="5.26089">
        <ele>1578</ele>
      </trkpt>
      <trkpt lat="44.17789" lon="5.2613">
        <ele>1579</ele>
      </trkpt>
      <trkpt lat="44.17782" lon="5.2622">
        <ele>1596</ele>
      </trkpt>
      <trkpt lat="44.17787" lon="5.26331">
        <ele>1598</ele>
      </trkpt>
      <trkpt lat="44.17787" lon="5.26375">
        <ele>1604</ele>
      </trkpt>
      <trkpt lat="44.17785" lon="5.26453">
        <ele>1608</ele>
      </trkpt>
      <trkpt lat="44.17783" lon="5.26491">
        <ele>1610</ele>
      </trkpt>
      <trkpt lat="44.1778" lon="5.26521">
        <ele>1620</ele>
      </trkpt>
      <trkpt lat="44.17776" lon="5.26544">
        <ele>1621</ele>
      </trkpt>
      <trkpt lat="44.1776" lon="5.26599">
        <ele>1623</ele>
      </trkpt>
      <trkpt lat="44.17761" lon="5.26623">
        <ele>1624</ele>
      </trkpt>
      <trkpt lat="44.17767" lon="5.26666">
        <ele>1625</ele>
      </trkpt>
      <trkpt lat="44.17769" lon="5.26695">
        <ele>1628</ele>
      </trkpt>
      <trkpt lat="44.17768" lon="5.26834">
        <ele>1635</ele>
      </trkpt>
      <trkpt lat="44.17763" lon="5.26924">
        <ele>1636</ele>
      </trkpt>
      <trkpt lat="44.1775" lon="5.27062">
        <ele>1648</ele>
      </trkpt>
      <trkpt lat="44.17732" lon="5.27154">
        <ele>1649</ele>
      </trkpt>
      <trkpt lat="44.17725" lon="5.27221">
        <ele>1660</ele>
      </trkpt>
      <trkpt lat="44.17717" lon="5.27249">
        <ele>1657</ele>
      </trkpt>
      <trkpt lat="44.17714" lon="5.27257">
        <ele>1657</ele>
      </trkpt>
      <trkpt lat="44.17704" lon="5.27268">
        <ele>1655</ele>
      </trkpt>
      <trkpt lat="44.17674" lon="5.2729">
        <ele>1664</ele>
      </trkpt>
      <trkpt lat="44.17656" lon="5.2731">
        <ele>1674</ele>
      </trkpt>
      <trkpt lat="44.17646" lon="5.27326">
        <ele>1673</ele>
      </trkpt>
      <trkpt lat="44.17624" lon="5.27373">
        <ele>1683</ele>
      </trkpt>
      <trkpt lat="44.17607" lon="5.27416">
        <ele>1695</ele>
      </trkpt>
      <trkpt lat="44.17607" lon="5.27422">
        <ele>1696</ele>
      </trkpt>
      <trkpt lat="44.17612" lon="5.27433">
        <ele>1701</ele>
      </trkpt>
      <trkpt lat="44.17627" lon="5.27445">
        <ele>1696</ele>
      </trkpt>
      <trkpt lat="44.1767" lon="5.27463">
        <ele>1697</ele>
      </trkpt>
      <trkpt lat="44.17692" lon="5.2748">
        <ele>1698</ele>
      </trkpt>
      <trkpt lat="44.17718" lon="5.27513">
        <ele>1699</ele>
      </trkpt>
      <trkpt lat="44.17733" lon="5.27541">
        <ele>1698</ele>
      </trkpt>
      <trkpt lat="44.17754" lon="5.276">
        <ele>1706</ele>
      </trkpt>
      <trkpt lat="44.17765" lon="5.27646">
        <ele>1703</ele>
      </trkpt>
      <trkpt lat="44.1777" lon="5.27673">
        <ele>1705</ele>
      </trkpt>
      <trkpt lat="44.17774" lon="5.27718">
        <ele>1710</ele>
      </trkpt>
      <trkpt lat="44.17774" lon="5.27766">
        <ele>1714</ele>
      </trkpt>
      <trkpt lat="44.17767" lon="5.27918">
        <ele>1717</ele>
      </trkpt>
      <trkpt lat="44.17758" lon="5.27997">
        <ele>1720</ele>
      </trkpt>
      <trkpt lat="44.17758" lon="5.2803">
        <ele>1719</ele>
      </trkpt>
      <trkpt lat="44.17755" lon="5.28038">
        <ele>1718</ele>
      </trkpt>
      <trkpt lat="44.17745" lon="5.28041">
        <ele>1730</ele>
      </trkpt>
      <trkpt lat="44.17741" lon="5.28038">
        <ele>1731</ele>
      </trkpt>
      <trkpt lat="44.17737" lon="5.28026">
        <ele>1734</ele>
      </trkpt>
      <trkpt lat="44.17741" lon="5.27997">
        <ele>1734</ele>
      </trkpt>
      <trkpt lat="44.17742" lon="5.27965">
        <ele>1733</ele>
      </trkpt>
      <trkpt lat="44.17731" lon="5.27893">
        <ele>1733</ele>
      </trkpt>
      <trkpt lat="44.17725" lon="5.27868">
        <ele>1743</ele>
      </trkpt>
      <trkpt lat="44.1771" lon="5.27819">
        <ele>1745</ele>
      </trkpt>
      <trkpt lat="44.17669" lon="5.27719">
        <ele>1758</ele>
      </trkpt>
      <trkpt lat="44.1766" lon="5.27701">
        <ele>1756</ele>
      </trkpt>
      <trkpt lat="44.17651" lon="5.27688">
        <ele>1757</ele>
      </trkpt>
      <trkpt lat="44.17639" lon="5.27674">
        <ele>1764</ele>
      </trkpt>
      <trkpt lat="44.1761" lon="5.27652">
        <ele>1777</ele>
      </trkpt>
      <trkpt lat="44.17581" lon="5.27634">
        <ele>1780</ele>
      </trkpt>
      <trkpt lat="44.17559" lon="5.27624">
        <ele>1785</ele>
      </trkpt>
      <trkpt lat="44.17537" lon="5.27617">
        <ele>1779</ele>
      </trkpt>
      <trkpt lat="44.1749" lon="5.27607">
        <ele>1792</ele>
      </trkpt>
      <trkpt lat="44.1747" lon="5.27594">
        <ele>1798</ele>
      </trkpt>
      <trkpt lat="44.17455" lon="5.27579">
        <ele>1791</ele>
      </trkpt>
      <trkpt lat="44.17434" lon="5.2755">
        <ele>1788</ele>
      </trkpt>
      <trkpt lat="44.17407" lon="5.27516">
        <ele>1791</ele>
      </trkpt>
      <trkpt lat="44.17389" lon="5.27485">
        <ele>1799</ele>
      </trkpt>
      <trkpt lat="44.17383" lon="5.27463">
        <ele>1796</ele>
      </trkpt>
      <trkpt lat="44.17382" lon="5.27449">
        <ele>1795</ele>
      </trkpt>
      <trkpt lat="44.1738" lon="5.27347">
        <ele>1802</ele>
      </trkpt>
      <trkpt lat="44.17381" lon="5.27306">
        <ele>1811</ele>
      </trkpt>
      <trkpt lat="44.17386" lon="5.27277">
        <ele>1813</ele>
      </trkpt>
      <trkpt lat="44.17386" lon="5.27257">
        <ele>1815</ele>
      </trkpt>
      <trkpt lat="44.17381" lon="5.27246">
        <ele>1815</ele>
      </trkpt>
      <trkpt lat="44.17373" lon="5.27239">
        <ele>1815</ele>
      </trkpt>
      <trkpt lat="44.17367" lon="5.27238">
        <ele>1816</ele>
      </trkpt>
      <trkpt lat="44.17354" lon="5.27243">
        <ele>1820</ele>
      </trkpt>
      <trkpt lat="44.17348" lon="5.2725">
        <ele>1820</ele>
      </trkpt>
      <trkpt lat="44.17347" lon="5.27259">
        <ele>1821</ele>
      </trkpt>
      <trkpt lat="44.17353" lon="5.27394">
        <ele>1812</ele>
      </trkpt>
      <trkpt lat="44.17351" lon="5.275">
        <ele>1818</ele>
      </trkpt>
      <trkpt lat="44.17353" lon="5.2752">
        <ele>1823</ele>
      </trkpt>
      <trkpt lat="44.17358" lon="5.27539">
        <ele>1826</ele>
      </trkpt>
      <trkpt lat="44.17369" lon="5.27571">
        <ele>1823</ele>
      </trkpt>
      <trkpt lat="44.17413" lon="5.27671">
        <ele>1836</ele>
      </trkpt>
      <trkpt lat="44.17426" lon="5.27692">
        <ele>1840</ele>
      </trkpt>
      <trkpt lat="44.17479" lon="5.27746">
        <ele>1843</ele>
      </trkpt>
      <trkpt lat="44.17488" lon="5.2776">
        <ele>1849</ele>
      </trkpt>
      <trkpt lat="44.17504" lon="5.27789">
        <ele>1854</ele>
      </trkpt>
      <trkpt lat="44.17511" lon="5.27807">
        <ele>1846</ele>
      </trkpt>
      <trkpt lat="44.17518" lon="5.27837">
        <ele>1850</ele>
      </trkpt>
      <trkpt lat="44.17522" lon="5.27869">
        <ele>1855</ele>
      </trkpt>
      <trkpt lat="44.17525" lon="5.27901">
        <ele>1857</ele>
      </trkpt>
      <trkpt lat="44.17522" lon="5.27938">
        <ele>1860</ele>
      </trkpt>
      <trkpt lat="44.17513" lon="5.27989">
        <ele>1862</ele>
      </trkpt>
      <trkpt lat="44.17503" lon="5.28033">
        <ele>1870</ele>
      </trkpt>
      <trkpt lat="44.17499" lon="5.28041">
        <ele>1870</ele>
      </trkpt>
      <trkpt lat="44.17493" lon="5.28048">
        <ele>1872</ele>
      </trkpt>
      <trkpt lat="44.17484" lon="5.28049">
        <ele>1872</ele>
      </trkpt>
      <trkpt lat="44.17479" lon="5.28045">
        <ele>1872</ele>
      </trkpt>
      <trkpt lat="44.17471" lon="5.28033">
        <ele>1879</ele>
      </trkpt>
      <trkpt lat="44.17446" lon="5.2798">
        <ele>1885</ele>
      </trkpt>
      <trkpt lat="44.1744" lon="5.27973">
        <ele>1888</ele>
      </trkpt>
      <trkpt lat="44.17399" lon="5.27949">
        <ele>1892</ele>
      </trkpt>
      <trkpt lat="44.17363" lon="5.27919">
        <ele>1891</ele>
      </trkpt>
      <trkpt lat="44.17344" lon="5.27895">
        <ele>1896</ele>
      </trkpt>
      <trkpt lat="44.17335" lon="5.27874">
        <ele>1894</ele>
      </trkpt>
      <trkpt lat="44.17331" lon="5.27853">
        <ele>1900</ele>
      </trkpt>
      <trkpt lat="44.17331" lon="5.27815">
        <ele>1904</ele>
      </trkpt>
      <trkpt lat="44.1735" lon="5.27716">
        <ele>1885</ele>
      </trkpt>
      <trkpt lat="44.17349" lon="5.27708">
        <ele>1883</ele>
      </trkpt>
      <trkpt lat="44.17346" lon="5.27702">
        <ele>1876</ele>
      </trkpt>
      <trkpt lat="44.1734" lon="5.27703">
        <ele>1883</ele>
      </trkpt>
      <trkpt lat="44.17338" lon="5.27705">
        <ele>1887</ele>
      </trkpt>
      <trkpt lat="44.17325" lon="5.27745">
        <ele>1897</ele>
      </trkpt>
      <trkpt lat="44.17303" lon="5.27801">
        <ele>1899</ele>
      </trkpt>
      <trkpt lat="44.17299" lon="5.27819">
        <ele>1896</ele>
      </trkpt>
      <trkpt lat="44.17297" lon="5.27841">
        <ele>1894</ele>
      </trkpt>
      <trkpt lat="44.17296" lon="5.2789">
        <ele>1883</ele>
      </trkpt>
      <trkpt lat="44.17299" lon="5.27904">
        <ele>1879</ele>
      </trkpt>
      <trkpt lat="44.17305" lon="5.27925">
        <ele>1876</ele>
      </trkpt>
      <trkpt lat="44.17374" lon="5.28066">
        <ele>1865</ele>
      </trkpt>
      <trkpt lat="44.17379" lon="5.28087">
        <ele>1865</ele>
      </trkpt>
      <trkpt lat="44.17418" lon="5.28289">
        <ele>1833</ele>
      </trkpt>
      <trkpt lat="44.17422" lon="5.28317">
        <ele>1819</ele>
      </trkpt>
      <trkpt lat="44.17424" lon="5.2835">
        <ele>1808</ele>
      </trkpt>
      <trkpt lat="44.17419" lon="5.28367">
        <ele>1814</ele>
      </trkpt>
      <trkpt lat="44.17413" lon="5.28376">
        <ele>1809</ele>
      </trkpt>
      <trkpt lat="44.17402" lon="5.28383">
        <ele>1810</ele>
      </trkpt>
      <trkpt lat="44.17369" lon="5.28393">
        <ele>1820</ele>
      </trkpt>
      <trkpt lat="44.17239" lon="5.28414">
        <ele>1814</ele>
      </trkpt>
      <trkpt lat="44.17153" lon="5.28428">
        <ele>1806</ele>
      </trkpt>
      <trkpt lat="44.17125" lon="5.2844">
        <ele>1803</ele>
      </trkpt>
      <trkpt lat="44.17101" lon="5.28458">
        <ele>1804</ele>
      </trkpt>
      <trkpt lat="44.1707" lon="5.28502">
        <ele>1803</ele>
      </trkpt>
      <trkpt lat="44.17049" lon="5.28526">
        <ele>1798</ele>
      </trkpt>
      <trkpt lat="44.16977" lon="5.28591">
        <ele>1790</ele>
      </trkpt>
      <trkpt lat="44.16957" lon="5.28614">
        <ele>1785</ele>
      </trkpt>
      <trkpt lat="44.16936" lon="5.28644">
        <ele>1781</ele>
      </trkpt>
      <trkpt lat="44.16913" lon="5.28688">
        <ele>1776</ele>
      </trkpt>
      <trkpt lat="44.16887" lon="5.28759">
        <ele>1771</ele>
      </trkpt>
      <trkpt lat="44.16875" lon="5.28801">
        <ele>1770</ele>
      </trkpt>
      <trkpt lat="44.16868" lon="5.28841">
        <ele>1769</ele>
      </trkpt>
      <trkpt lat="44.16862" lon="5.28885">
        <ele>1762</ele>
      </trkpt>
      <trkpt lat="44.1686" lon="5.28918">
        <ele>1759</ele>
      </trkpt>
      <trkpt lat="44.1686" lon="5.28937">
        <ele>1756</ele>
      </trkpt>
      <trkpt lat="44.16862" lon="5.28953">
        <ele>1753</ele>
      </trkpt>
      <trkpt lat="44.16867" lon="5.28975">
        <ele>1756</ele>
      </trkpt>
      <trkpt lat="44.16875" lon="5.28996">
        <ele>1751</ele>
      </trkpt>
      <trkpt lat="44.16889" lon="5.29015">
        <ele>1747</ele>
      </trkpt>
      <trkpt lat="44.16939" lon="5.29072">
        <ele>1753</ele>
      </trkpt>
      <trkpt lat="44.16945" lon="5.29088">
        <ele>1754</ele>
      </trkpt>
      <trkpt lat="44.16946" lon="5.29096">
        <ele>1755</ele>
      </trkpt>
      <trkpt lat="44.16944" lon="5.29103">
        <ele>1755</ele>
      </trkpt>
      <trkpt lat="44.1694" lon="5.29111">
        <ele>1755</ele>
      </trkpt>
      <trkpt lat="44.16931" lon="5.29119">
        <ele>1754</ele>
      </trkpt>
      <trkpt lat="44.16763" lon="5.29189">
        <ele>1728</ele>
      </trkpt>
      <trkpt lat="44.16746" lon="5.29203">
        <ele>1725</ele>
      </trkpt>
      <trkpt lat="44.16738" lon="5.29212">
        <ele>1725</ele>
      </trkpt>
      <trkpt lat="44.16722" lon="5.29238">
        <ele>1721</ele>
      </trkpt>
      <trkpt lat="44.16716" lon="5.29251">
        <ele>1721</ele>
      </trkpt>
      <trkpt lat="44.16708" lon="5.29277">
        <ele>1722</ele>
      </trkpt>
      <trkpt lat="44.16706" lon="5.29307">
        <ele>1721</ele>
      </trkpt>
      <trkpt lat="44.16708" lon="5.29336">
        <ele>1719</ele>
      </trkpt>
      <trkpt lat="44.16713" lon="5.29361">
        <ele>1715</ele>
      </trkpt>
      <trkpt lat="44.16719" lon="5.29377">
        <ele>1711</ele>
      </trkpt>
      <trkpt lat="44.16759" lon="5.29465">
        <ele>1717</ele>
      </trkpt>
      <trkpt lat="44.16764" lon="5.29478">
        <ele>1717</ele>
      </trkpt>
      <trkpt lat="44.16768" lon="5.29498">
        <ele>1715</ele>
      </trkpt>
      <trkpt lat="44.16768" lon="5.29508">
        <ele>1716</ele>
      </trkpt>
      <trkpt lat="44.16763" lon="5.29528">
        <ele>1715</ele>
      </trkpt>
      <trkpt lat="44.16757" lon="5.29542">
        <ele>1716</ele>
      </trkpt>
      <trkpt lat="44.16747" lon="5.29558">
        <ele>1708</ele>
      </trkpt>
      <trkpt lat="44.16734" lon="5.29573">
        <ele>1710</ele>
      </trkpt>
      <trkpt lat="44.16698" lon="5.29608">
        <ele>1700</ele>
      </trkpt>
      <trkpt lat="44.16577" lon="5.29687">
        <ele>1682</ele>
      </trkpt>
      <trkpt lat="44.16569" lon="5.29693">
        <ele>1681</ele>
      </trkpt>
      <trkpt lat="44.16551" lon="5.29717">
        <ele>1679</ele>
      </trkpt>
      <trkpt lat="44.16544" lon="5.2973">
        <ele>1679</ele>
      </trkpt>
      <trkpt lat="44.16534" lon="5.29766">
        <ele>1681</ele>
      </trkpt>
      <trkpt lat="44.16514" lon="5.29863">
        <ele>1677</ele>
      </trkpt>
      <trkpt lat="44.16505" lon="5.29894">
        <ele>1677</ele>
      </trkpt>
      <trkpt lat="44.16462" lon="5.29989">
        <ele>1663</ele>
      </trkpt>
      <trkpt lat="44.1645" lon="5.30019">
        <ele>1663</ele>
      </trkpt>
      <trkpt lat="44.164" lon="5.30167">
        <ele>1656</ele>
      </trkpt>
      <trkpt lat="44.1639" lon="5.30189">
        <ele>1651</ele>
      </trkpt>
      <trkpt lat="44.16384" lon="5.30197">
        <ele>1651</ele>
      </trkpt>
      <trkpt lat="44.16369" lon="5.30213">
        <ele>1652</ele>
      </trkpt>
      <trkpt lat="44.16315" lon="5.3025">
        <ele>1640</ele>
      </trkpt>
      <trkpt lat="44.16304" lon="5.30253">
        <ele>1635</ele>
      </trkpt>
      <trkpt lat="44.16298" lon="5.30253">
        <ele>1635</ele>
      </trkpt>
      <trkpt lat="44.16291" lon="5.3025">
        <ele>1634</ele>
      </trkpt>
      <trkpt lat="44.16276" lon="5.30233">
        <ele>1630</ele>
      </trkpt>
      <trkpt lat="44.16267" lon="5.3022">
        <ele>1624</ele>
      </trkpt>
      <trkpt lat="44.16197" lon="5.30091">
        <ele>1606</ele>
      </trkpt>
      <trkpt lat="44.16189" lon="5.30081">
        <ele>1607</ele>
      </trkpt>
      <trkpt lat="44.16182" lon="5.30075">
        <ele>1607</ele>
      </trkpt>
      <trkpt lat="44.16174" lon="5.30073">
        <ele>1608</ele>
      </trkpt>
      <trkpt lat="44.16164" lon="5.30073">
        <ele>1612</ele>
      </trkpt>
      <trkpt lat="44.16153" lon="5.30077">
        <ele>1613</ele>
      </trkpt>
      <trkpt lat="44.16129" lon="5.30092">
        <ele>1615</ele>
      </trkpt>
      <trkpt lat="44.16107" lon="5.3011">
        <ele>1613</ele>
      </trkpt>
      <trkpt lat="44.16089" lon="5.30128">
        <ele>1614</ele>
      </trkpt>
      <trkpt lat="44.16072" lon="5.30149">
        <ele>1611</ele>
      </trkpt>
      <trkpt lat="44.16058" lon="5.30176">
        <ele>1608</ele>
      </trkpt>
      <trkpt lat="44.16002" lon="5.30326">
        <ele>1600</ele>
      </trkpt>
      <trkpt lat="44.15971" lon="5.30473">
        <ele>1592</ele>
      </trkpt>
      <trkpt lat="44.15964" lon="5.30504">
        <ele>1591</ele>
      </trkpt>
      <trkpt lat="44.15962" lon="5.30525">
        <ele>1590</ele>
      </trkpt>
      <trkpt lat="44.15961" lon="5.30544">
        <ele>1589</ele>
      </trkpt>
      <trkpt lat="44.15965" lon="5.3058">
        <ele>1586</ele>
      </trkpt>
      <trkpt lat="44.15984" lon="5.30674">
        <ele>1583</ele>
      </trkpt>
      <trkpt lat="44.15992" lon="5.30705">
        <ele>1579</ele>
      </trkpt>
      <trkpt lat="44.16" lon="5.30726">
        <ele>1579</ele>
      </trkpt>
      <trkpt lat="44.16023" lon="5.30776">
        <ele>1581</ele>
      </trkpt>
      <trkpt lat="44.16026" lon="5.30786">
        <ele>1581</ele>
      </trkpt>
      <trkpt lat="44.16028" lon="5.30798">
        <ele>1580</ele>
      </trkpt>
      <trkpt lat="44.16027" lon="5.30807">
        <ele>1580</ele>
      </trkpt>
      <trkpt lat="44.16024" lon="5.30814">
        <ele>1579</ele>
      </trkpt>
      <trkpt lat="44.1602" lon="5.30818">
        <ele>1579</ele>
      </trkpt>
      <trkpt lat="44.16008" lon="5.30822">
        <ele>1578</ele>
      </trkpt>
      <trkpt lat="44.15922" lon="5.3081">
        <ele>1561</ele>
      </trkpt>
      <trkpt lat="44.15904" lon="5.30811">
        <ele>1558</ele>
      </trkpt>
      <trkpt lat="44.15886" lon="5.30813">
        <ele>1555</ele>
      </trkpt>
      <trkpt lat="44.15868" lon="5.30819">
        <ele>1558</ele>
      </trkpt>
      <trkpt lat="44.15831" lon="5.30838">
        <ele>1554</ele>
      </trkpt>
      <trkpt lat="44.15814" lon="5.30851">
        <ele>1557</ele>
      </trkpt>
      <trkpt lat="44.15794" lon="5.30872">
        <ele>1555</ele>
      </trkpt>
      <trkpt lat="44.15784" lon="5.30888">
        <ele>1554</ele>
      </trkpt>
      <trkpt lat="44.15772" lon="5.30912">
        <ele>1552</ele>
      </trkpt>
      <trkpt lat="44.15756" lon="5.3096">
        <ele>1553</ele>
      </trkpt>
      <trkpt lat="44.15744" lon="5.31022">
        <ele>1547</ele>
      </trkpt>
      <trkpt lat="44.15741" lon="5.31048">
        <ele>1545</ele>
      </trkpt>
      <trkpt lat="44.1574" lon="5.31076">
        <ele>1542</ele>
      </trkpt>
      <trkpt lat="44.15747" lon="5.31129">
        <ele>1534</ele>
      </trkpt>
      <trkpt lat="44.15753" lon="5.31151">
        <ele>1531</ele>
      </trkpt>
      <trkpt lat="44.15775" lon="5.3121">
        <ele>1533</ele>
      </trkpt>
      <trkpt lat="44.15778" lon="5.31221">
        <ele>1533</ele>
      </trkpt>
      <trkpt lat="44.15782" lon="5.31307">
        <ele>1529</ele>
      </trkpt>
      <trkpt lat="44.1578" lon="5.31327">
        <ele>1528</ele>
      </trkpt>
      <trkpt lat="44.15775" lon="5.31337">
        <ele>1528</ele>
      </trkpt>
      <trkpt lat="44.15769" lon="5.31343">
        <ele>1528</ele>
      </trkpt>
      <trkpt lat="44.15763" lon="5.31346">
        <ele>1528</ele>
      </trkpt>
      <trkpt lat="44.15755" lon="5.31346">
        <ele>1527</ele>
      </trkpt>
      <trkpt lat="44.15748" lon="5.31344">
        <ele>1525</ele>
      </trkpt>
      <trkpt lat="44.15712" lon="5.31315">
        <ele>1517</ele>
      </trkpt>
      <trkpt lat="44.15693" lon="5.31305">
        <ele>1511</ele>
      </trkpt>
      <trkpt lat="44.15623" lon="5.31275">
        <ele>1506</ele>
      </trkpt>
      <trkpt lat="44.15606" lon="5.31265">
        <ele>1507</ele>
      </trkpt>
      <trkpt lat="44.15545" lon="5.31221">
        <ele>1496</ele>
      </trkpt>
      <trkpt lat="44.15531" lon="5.31218">
        <ele>1497</ele>
      </trkpt>
      <trkpt lat="44.15516" lon="5.31221">
        <ele>1498</ele>
      </trkpt>
      <trkpt lat="44.15512" lon="5.31224">
        <ele>1498</ele>
      </trkpt>
      <trkpt lat="44.155" lon="5.31237">
        <ele>1502</ele>
      </trkpt>
      <trkpt lat="44.15494" lon="5.31248">
        <ele>1503</ele>
      </trkpt>
      <trkpt lat="44.15488" lon="5.31271">
        <ele>1505</ele>
      </trkpt>
      <trkpt lat="44.15486" lon="5.31295">
        <ele>1505</ele>
      </trkpt>
      <trkpt lat="44.15479" lon="5.31389">
        <ele>1502</ele>
      </trkpt>
      <trkpt lat="44.15478" lon="5.31437">
        <ele>1498</ele>
      </trkpt>
      <trkpt lat="44.15478" lon="5.3146">
        <ele>1496</ele>
      </trkpt>
      <trkpt lat="44.15484" lon="5.31491">
        <ele>1495</ele>
      </trkpt>
      <trkpt lat="44.15498" lon="5.31524">
        <ele>1495</ele>
      </trkpt>
      <trkpt lat="44.15498" lon="5.31532">
        <ele>1496</ele>
      </trkpt>
      <trkpt lat="44.15494" lon="5.31541">
        <ele>1497</ele>
      </trkpt>
      <trkpt lat="44.1549" lon="5.31544">
        <ele>1497</ele>
      </trkpt>
      <trkpt lat="44.15484" lon="5.31545">
        <ele>1496</ele>
      </trkpt>
      <trkpt lat="44.15477" lon="5.31543">
        <ele>1496</ele>
      </trkpt>
      <trkpt lat="44.15467" lon="5.31537">
        <ele>1493</ele>
      </trkpt>
      <trkpt lat="44.15379" lon="5.31475">
        <ele>1477</ele>
      </trkpt>
      <trkpt lat="44.15321" lon="5.31447">
        <ele>1470</ele>
      </trkpt>
      <trkpt lat="44.15308" lon="5.31438">
        <ele>1470</ele>
      </trkpt>
      <trkpt lat="44.15297" lon="5.31429">
        <ele>1469</ele>
      </trkpt>
      <trkpt lat="44.15277" lon="5.31402">
        <ele>1466</ele>
      </trkpt>
      <trkpt lat="44.15258" lon="5.31381">
        <ele>1462</ele>
      </trkpt>
      <trkpt lat="44.15248" lon="5.31372">
        <ele>1463</ele>
      </trkpt>
      <trkpt lat="44.15228" lon="5.31361">
        <ele>1459</ele>
      </trkpt>
      <trkpt lat="44.15174" lon="5.31349">
        <ele>1460</ele>
      </trkpt>
      <trkpt lat="44.15154" lon="5.31349">
        <ele>1459</ele>
      </trkpt>
      <trkpt lat="44.15145" lon="5.31353">
        <ele>1458</ele>
      </trkpt>
      <trkpt lat="44.15126" lon="5.31368">
        <ele>1457</ele>
      </trkpt>
      <trkpt lat="44.15108" lon="5.31386">
        <ele>1456</ele>
      </trkpt>
      <trkpt lat="44.15098" lon="5.31401">
        <ele>1455</ele>
      </trkpt>
      <trkpt lat="44.15092" lon="5.31414">
        <ele>1455</ele>
      </trkpt>
      <trkpt lat="44.1509" lon="5.31426">
        <ele>1453</ele>
      </trkpt>
      <trkpt lat="44.15091" lon="5.3144">
        <ele>1453</ele>
      </trkpt>
      <trkpt lat="44.15096" lon="5.31455">
        <ele>1451</ele>
      </trkpt>
      <trkpt lat="44.15115" lon="5.31491">
        <ele>1449</ele>
      </trkpt>
      <trkpt lat="44.15122" lon="5.3151">
        <ele>1450</ele>
      </trkpt>
      <trkpt lat="44.15157" lon="5.31643">
        <ele>1444</ele>
      </trkpt>
      <trkpt lat="44.15191" lon="5.31734">
        <ele>1435</ele>
      </trkpt>
      <trkpt lat="44.15222" lon="5.3184">
        <ele>1436</ele>
      </trkpt>
      <trkpt lat="44.15222" lon="5.31858">
        <ele>1433</ele>
      </trkpt>
      <trkpt lat="44.1522" lon="5.31869">
        <ele>1433</ele>
      </trkpt>
      <trkpt lat="44.15213" lon="5.31879">
        <ele>1430</ele>
      </trkpt>
      <trkpt lat="44.15204" lon="5.31886">
        <ele>1429</ele>
      </trkpt>
      <trkpt lat="44.15195" lon="5.31885">
        <ele>1426</ele>
      </trkpt>
      <trkpt lat="44.15193" lon="5.3189">
        <ele>1426</ele>
      </trkpt>
      <trkpt lat="44.1519" lon="5.31892">
        <ele>1426</ele>
      </trkpt>
      <trkpt lat="44.15183" lon="5.31891">
        <ele>1426</ele>
      </trkpt>
      <trkpt lat="44.15113" lon="5.31836">
        <ele>1420</ele>
      </trkpt>
      <trkpt lat="44.15078" lon="5.31813">
        <ele>1416</ele>
      </trkpt>
      <trkpt lat="44.14949" lon="5.31767">
        <ele>1416</ele>
      </trkpt>
      <trkpt lat="44.14937" lon="5.31767">
        <ele>1417</ele>
      </trkpt>
      <trkpt lat="44.14926" lon="5.31775">
        <ele>1417</ele>
      </trkpt>
      <trkpt lat="44.1492" lon="5.31786">
        <ele>1417</ele>
      </trkpt>
      <trkpt lat="44.14914" lon="5.31799">
        <ele>1420</ele>
      </trkpt>
      <trkpt lat="44.14905" lon="5.31831">
        <ele>1423</ele>
      </trkpt>
      <trkpt lat="44.14901" lon="5.31859">
        <ele>1425</ele>
      </trkpt>
      <trkpt lat="44.14896" lon="5.31927">
        <ele>1426</ele>
      </trkpt>
      <trkpt lat="44.14896" lon="5.32008">
        <ele>1425</ele>
      </trkpt>
      <trkpt lat="44.14895" lon="5.32032">
        <ele>1425</ele>
      </trkpt>
      <trkpt lat="44.14891" lon="5.32059">
        <ele>1422</ele>
      </trkpt>
      <trkpt lat="44.1488" lon="5.32101">
        <ele>1422</ele>
      </trkpt>
      <trkpt lat="44.14874" lon="5.3212">
        <ele>1422</ele>
      </trkpt>
      <trkpt lat="44.14841" lon="5.32198">
        <ele>1422</ele>
      </trkpt>
      <trkpt lat="44.14835" lon="5.32218">
        <ele>1420</ele>
      </trkpt>
      <trkpt lat="44.14832" lon="5.32234">
        <ele>1419</ele>
      </trkpt>
      <trkpt lat="44.14831" lon="5.32263">
        <ele>1418</ele>
      </trkpt>
      <trkpt lat="44.14834" lon="5.32281">
        <ele>1417</ele>
      </trkpt>
      <trkpt lat="44.14842" lon="5.32309">
        <ele>1418</ele>
      </trkpt>
      <trkpt lat="44.14849" lon="5.32323">
        <ele>1415</ele>
      </trkpt>
      <trkpt lat="44.14858" lon="5.32336">
        <ele>1414</ele>
      </trkpt>
      <trkpt lat="44.14874" lon="5.32351">
        <ele>1411</ele>
      </trkpt>
      <trkpt lat="44.1493" lon="5.32384">
        <ele>1413</ele>
      </trkpt>
      <trkpt lat="44.15009" lon="5.32449">
        <ele>1421</ele>
      </trkpt>
      <trkpt lat="44.15041" lon="5.32479">
        <ele>1423</ele>
      </trkpt>
      <trkpt lat="44.15075" lon="5.32518">
        <ele>1419</ele>
      </trkpt>
      <trkpt lat="44.15105" lon="5.32556">
        <ele>1423</ele>
      </trkpt>
      <trkpt lat="44.15154" lon="5.32637">
        <ele>1422</ele>
      </trkpt>
      <trkpt lat="44.15177" lon="5.32666">
        <ele>1420</ele>
      </trkpt>
      <trkpt lat="44.15223" lon="5.32699">
        <ele>1420</ele>
      </trkpt>
      <trkpt lat="44.15242" lon="5.32711">
        <ele>1419</ele>
      </trkpt>
      <trkpt lat="44.15319" lon="5.32751">
        <ele>1425</ele>
      </trkpt>
      <trkpt lat="44.15326" lon="5.32756">
        <ele>1425</ele>
      </trkpt>
      <trkpt lat="44.1533" lon="5.32763">
        <ele>1425</ele>
      </trkpt>
      <trkpt lat="44.1533" lon="5.32778">
        <ele>1425</ele>
      </trkpt>
      <trkpt lat="44.15326" lon="5.32785">
        <ele>1426</ele>
      </trkpt>
      <trkpt lat="44.15319" lon="5.32789">
        <ele>1428</ele>
      </trkpt>
      <trkpt lat="44.15235" lon="5.3279">
        <ele>1419</ele>
      </trkpt>
      <trkpt lat="44.15191" lon="5.32787">
        <ele>1415</ele>
      </trkpt>
      <trkpt lat="44.15133" lon="5.32777">
        <ele>1413</ele>
      </trkpt>
      <trkpt lat="44.15094" lon="5.32765">
        <ele>1412</ele>
      </trkpt>
      <trkpt lat="44.15009" lon="5.3273">
        <ele>1397</ele>
      </trkpt>
      <trkpt lat="44.14921" lon="5.32684">
        <ele>1395</ele>
      </trkpt>
      <trkpt lat="44.14903" lon="5.32679">
        <ele>1395</ele>
      </trkpt>
      <trkpt lat="44.14895" lon="5.3268">
        <ele>1396</ele>
      </trkpt>
      <trkpt lat="44.14889" lon="5.32682">
        <ele>1395</ele>
      </trkpt>
      <trkpt lat="44.14883" lon="5.32688">
        <ele>1397</ele>
      </trkpt>
      <trkpt lat="44.14876" lon="5.32703">
        <ele>1397</ele>
      </trkpt>
      <trkpt lat="44.14874" lon="5.32714">
        <ele>1401</ele>
      </trkpt>
      <trkpt lat="44.14874" lon="5.32725">
        <ele>1402</ele>
      </trkpt>
      <trkpt lat="44.14876" lon="5.32739">
        <ele>1404</ele>
      </trkpt>
      <trkpt lat="44.14899" lon="5.32811">
        <ele>1417</ele>
      </trkpt>
      <trkpt lat="44.149" lon="5.3283">
        <ele>1418</ele>
      </trkpt>
      <trkpt lat="44.14897" lon="5.32915">
        <ele>1417</ele>
      </trkpt>
      <trkpt lat="44.14888" lon="5.32981">
        <ele>1410</ele>
      </trkpt>
      <trkpt lat="44.14888" lon="5.33">
        <ele>1410</ele>
      </trkpt>
      <trkpt lat="44.14892" lon="5.33028">
        <ele>1409</ele>
      </trkpt>
      <trkpt lat="44.14905" lon="5.33086">
        <ele>1413</ele>
      </trkpt>
      <trkpt lat="44.14938" lon="5.33196">
        <ele>1412</ele>
      </trkpt>
      <trkpt lat="44.14943" lon="5.33227">
        <ele>1410</ele>
      </trkpt>
      <trkpt lat="44.14943" lon="5.33239">
        <ele>1410</ele>
      </trkpt>
      <trkpt lat="44.14941" lon="5.33249">
        <ele>1410</ele>
      </trkpt>
      <trkpt lat="44.14935" lon="5.3326">
        <ele>1409</ele>
      </trkpt>
      <trkpt lat="44.14922" lon="5.33266">
        <ele>1408</ele>
      </trkpt>
      <trkpt lat="44.14897" lon="5.33269">
        <ele>1403</ele>
      </trkpt>
      <trkpt lat="44.14891" lon="5.33272">
        <ele>1399</ele>
      </trkpt>
      <trkpt lat="44.14887" lon="5.33276">
        <ele>1399</ele>
      </trkpt>
      <trkpt lat="44.14885" lon="5.33282">
        <ele>1398</ele>
      </trkpt>
      <trkpt lat="44.14885" lon="5.33291">
        <ele>1399</ele>
      </trkpt>
      <trkpt lat="44.14888" lon="5.33301">
        <ele>1399</ele>
      </trkpt>
      <trkpt lat="44.14915" lon="5.3336">
        <ele>1402</ele>
      </trkpt>
      <trkpt lat="44.14942" lon="5.33404">
        <ele>1406</ele>
      </trkpt>
      <trkpt lat="44.14942" lon="5.33414">
        <ele>1406</ele>
      </trkpt>
      <trkpt lat="44.14939" lon="5.33421">
        <ele>1406</ele>
      </trkpt>
      <trkpt lat="44.14934" lon="5.33424">
        <ele>1406</ele>
      </trkpt>
      <trkpt lat="44.14927" lon="5.33425">
        <ele>1406</ele>
      </trkpt>
      <trkpt lat="44.14918" lon="5.33423">
        <ele>1403</ele>
      </trkpt>
      <trkpt lat="44.14881" lon="5.33407">
        <ele>1399</ele>
      </trkpt>
      <trkpt lat="44.14857" lon="5.33407">
        <ele>1398</ele>
      </trkpt>
      <trkpt lat="44.14842" lon="5.33409">
        <ele>1397</ele>
      </trkpt>
      <trkpt lat="44.14743" lon="5.33436">
        <ele>1391</ele>
      </trkpt>
      <trkpt lat="44.14692" lon="5.33444">
        <ele>1385</ele>
      </trkpt>
      <trkpt lat="44.14637" lon="5.33448">
        <ele>1379</ele>
      </trkpt>
      <trkpt lat="44.14572" lon="5.33442">
        <ele>1375</ele>
      </trkpt>
      <trkpt lat="44.14554" lon="5.33442">
        <ele>1373</ele>
      </trkpt>
      <trkpt lat="44.14541" lon="5.33447">
        <ele>1373</ele>
      </trkpt>
      <trkpt lat="44.14527" lon="5.3346">
        <ele>1372</ele>
      </trkpt>
      <trkpt lat="44.14522" lon="5.33469">
        <ele>1372</ele>
      </trkpt>
      <trkpt lat="44.14509" lon="5.33498">
        <ele>1373</ele>
      </trkpt>
      <trkpt lat="44.14496" lon="5.33542">
        <ele>1373</ele>
      </trkpt>
      <trkpt lat="44.14474" lon="5.33622">
        <ele>1369</ele>
      </trkpt>
      <trkpt lat="44.14468" lon="5.33655">
        <ele>1368</ele>
      </trkpt>
      <trkpt lat="44.14465" lon="5.33688">
        <ele>1367</ele>
      </trkpt>
      <trkpt lat="44.14469" lon="5.33717">
        <ele>1366</ele>
      </trkpt>
      <trkpt lat="44.14473" lon="5.33729">
        <ele>1366</ele>
      </trkpt>
      <trkpt lat="44.14485" lon="5.3375">
        <ele>1369</ele>
      </trkpt>
      <trkpt lat="44.14502" lon="5.33766">
        <ele>1368</ele>
      </trkpt>
      <trkpt lat="44.14583" lon="5.33817">
        <ele>1371</ele>
      </trkpt>
      <trkpt lat="44.14618" lon="5.33837">
        <ele>1374</ele>
      </trkpt>
      <trkpt lat="44.14623" lon="5.33843">
        <ele>1373</ele>
      </trkpt>
      <trkpt lat="44.14625" lon="5.3385">
        <ele>1373</ele>
      </trkpt>
      <trkpt lat="44.14625" lon="5.33858">
        <ele>1373</ele>
      </trkpt>
      <trkpt lat="44.14622" lon="5.33865">
        <ele>1373</ele>
      </trkpt>
      <trkpt lat="44.14616" lon="5.33869">
        <ele>1373</ele>
      </trkpt>
      <trkpt lat="44.1461" lon="5.33871">
        <ele>1372</ele>
      </trkpt>
      <trkpt lat="44.14561" lon="5.3387">
        <ele>1368</ele>
      </trkpt>
      <trkpt lat="44.14525" lon="5.33879">
        <ele>1364</ele>
      </trkpt>
      <trkpt lat="44.1444" lon="5.33927">
        <ele>1357</ele>
      </trkpt>
      <trkpt lat="44.14424" lon="5.33933">
        <ele>1357</ele>
      </trkpt>
      <trkpt lat="44.14408" lon="5.33937">
        <ele>1354</ele>
      </trkpt>
      <trkpt lat="44.14362" lon="5.33939">
        <ele>1350</ele>
      </trkpt>
      <trkpt lat="44.14335" lon="5.33944">
        <ele>1349</ele>
      </trkpt>
      <trkpt lat="44.1431" lon="5.33959">
        <ele>1352</ele>
      </trkpt>
      <trkpt lat="44.14286" lon="5.33981">
        <ele>1350</ele>
      </trkpt>
      <trkpt lat="44.14268" lon="5.34004">
        <ele>1349</ele>
      </trkpt>
      <trkpt lat="44.14261" lon="5.34017">
        <ele>1349</ele>
      </trkpt>
      <trkpt lat="44.14233" lon="5.34097">
        <ele>1347</ele>
      </trkpt>
      <trkpt lat="44.14224" lon="5.34138">
        <ele>1344</ele>
      </trkpt>
      <trkpt lat="44.14217" lon="5.34203">
        <ele>1342</ele>
      </trkpt>
      <trkpt lat="44.14214" lon="5.34222">
        <ele>1342</ele>
      </trkpt>
      <trkpt lat="44.14209" lon="5.3424">
        <ele>1342</ele>
      </trkpt>
      <trkpt lat="44.14191" lon="5.34292">
        <ele>1340</ele>
      </trkpt>
      <trkpt lat="44.14178" lon="5.34323">
        <ele>1340</ele>
      </trkpt>
      <trkpt lat="44.14134" lon="5.34385">
        <ele>1335</ele>
      </trkpt>
      <trkpt lat="44.14113" lon="5.3442">
        <ele>1333</ele>
      </trkpt>
      <trkpt lat="44.1411" lon="5.3443">
        <ele>1332</ele>
      </trkpt>
      <trkpt lat="44.14111" lon="5.34443">
        <ele>1332</ele>
      </trkpt>
      <trkpt lat="44.14113" lon="5.3445">
        <ele>1332</ele>
      </trkpt>
      <trkpt lat="44.14119" lon="5.34459">
        <ele>1331</ele>
      </trkpt>
      <trkpt lat="44.14144" lon="5.34481">
        <ele>1330</ele>
      </trkpt>
      <trkpt lat="44.1416" lon="5.34493">
        <ele>1327</ele>
      </trkpt>
      <trkpt lat="44.14178" lon="5.34502">
        <ele>1327</ele>
      </trkpt>
      <trkpt lat="44.1424" lon="5.34527">
        <ele>1323</ele>
      </trkpt>
      <trkpt lat="44.14271" lon="5.34529">
        <ele>1320</ele>
      </trkpt>
      <trkpt lat="44.143" lon="5.34526">
        <ele>1317</ele>
      </trkpt>
      <trkpt lat="44.14328" lon="5.34519">
        <ele>1316</ele>
      </trkpt>
      <trkpt lat="44.14345" lon="5.34513">
        <ele>1313</ele>
      </trkpt>
      <trkpt lat="44.14376" lon="5.34497">
        <ele>1314</ele>
      </trkpt>
      <trkpt lat="44.14416" lon="5.3447">
        <ele>1313</ele>
      </trkpt>
      <trkpt lat="44.14488" lon="5.34403">
        <ele>1316</ele>
      </trkpt>
      <trkpt lat="44.14508" lon="5.34389">
        <ele>1325</ele>
      </trkpt>
      <trkpt lat="44.14518" lon="5.34388">
        <ele>1326</ele>
      </trkpt>
      <trkpt lat="44.14527" lon="5.34391">
        <ele>1326</ele>
      </trkpt>
      <trkpt lat="44.14535" lon="5.34397">
        <ele>1330</ele>
      </trkpt>
      <trkpt lat="44.14556" lon="5.34426">
        <ele>1325</ele>
      </trkpt>
      <trkpt lat="44.14576" lon="5.34458">
        <ele>1318</ele>
      </trkpt>
      <trkpt lat="44.14589" lon="5.34474">
        <ele>1320</ele>
      </trkpt>
      <trkpt lat="44.14619" lon="5.34495">
        <ele>1315</ele>
      </trkpt>
      <trkpt lat="44.1465" lon="5.34507">
        <ele>1313</ele>
      </trkpt>
      <trkpt lat="44.14718" lon="5.34516">
        <ele>1305</ele>
      </trkpt>
      <trkpt lat="44.14799" lon="5.34515">
        <ele>1302</ele>
      </trkpt>
      <trkpt lat="44.14894" lon="5.345">
        <ele>1300</ele>
      </trkpt>
      <trkpt lat="44.14913" lon="5.34493">
        <ele>1301</ele>
      </trkpt>
      <trkpt lat="44.14932" lon="5.34477">
        <ele>1310</ele>
      </trkpt>
      <trkpt lat="44.1494" lon="5.34474">
        <ele>1310</ele>
      </trkpt>
      <trkpt lat="44.14945" lon="5.34474">
        <ele>1310</ele>
      </trkpt>
      <trkpt lat="44.14953" lon="5.34478">
        <ele>1312</ele>
      </trkpt>
      <trkpt lat="44.14976" lon="5.34504">
        <ele>1303</ele>
      </trkpt>
      <trkpt lat="44.14985" lon="5.34511">
        <ele>1299</ele>
      </trkpt>
      <trkpt lat="44.15004" lon="5.3452">
        <ele>1298</ele>
      </trkpt>
      <trkpt lat="44.15035" lon="5.34531">
        <ele>1300</ele>
      </trkpt>
      <trkpt lat="44.15065" lon="5.34537">
        <ele>1299</ele>
      </trkpt>
      <trkpt lat="44.15109" lon="5.3454">
        <ele>1289</ele>
      </trkpt>
      <trkpt lat="44.15133" lon="5.34537">
        <ele>1290</ele>
      </trkpt>
      <trkpt lat="44.15147" lon="5.34533">
        <ele>1287</ele>
      </trkpt>
      <trkpt lat="44.15156" lon="5.34528">
        <ele>1287</ele>
      </trkpt>
      <trkpt lat="44.15164" lon="5.3452">
        <ele>1287</ele>
      </trkpt>
      <trkpt lat="44.1519" lon="5.34489">
        <ele>1299</ele>
      </trkpt>
      <trkpt lat="44.15197" lon="5.34485">
        <ele>1301</ele>
      </trkpt>
      <trkpt lat="44.15204" lon="5.34485">
        <ele>1306</ele>
      </trkpt>
      <trkpt lat="44.15211" lon="5.34486">
        <ele>1307</ele>
      </trkpt>
      <trkpt lat="44.15217" lon="5.3449">
        <ele>1307</ele>
      </trkpt>
      <trkpt lat="44.15226" lon="5.345">
        <ele>1307</ele>
      </trkpt>
      <trkpt lat="44.15251" lon="5.34547">
        <ele>1295</ele>
      </trkpt>
      <trkpt lat="44.1527" lon="5.34566">
        <ele>1292</ele>
      </trkpt>
      <trkpt lat="44.15291" lon="5.34576">
        <ele>1294</ele>
      </trkpt>
      <trkpt lat="44.15326" lon="5.34586">
        <ele>1293</ele>
      </trkpt>
      <trkpt lat="44.15355" lon="5.3459">
        <ele>1289</ele>
      </trkpt>
      <trkpt lat="44.15376" lon="5.34589">
        <ele>1285</ele>
      </trkpt>
      <trkpt lat="44.15396" lon="5.34585">
        <ele>1280</ele>
      </trkpt>
      <trkpt lat="44.1542" lon="5.3457">
        <ele>1279</ele>
      </trkpt>
      <trkpt lat="44.1543" lon="5.34559">
        <ele>1278</ele>
      </trkpt>
      <trkpt lat="44.15448" lon="5.34532">
        <ele>1282</ele>
      </trkpt>
      <trkpt lat="44.15464" lon="5.34502">
        <ele>1284</ele>
      </trkpt>
      <trkpt lat="44.15482" lon="5.3446">
        <ele>1294</ele>
      </trkpt>
      <trkpt lat="44.15486" lon="5.34455">
        <ele>1296</ele>
      </trkpt>
      <trkpt lat="44.15496" lon="5.34452">
        <ele>1302</ele>
      </trkpt>
      <trkpt lat="44.15503" lon="5.34456">
        <ele>1297</ele>
      </trkpt>
      <trkpt lat="44.15513" lon="5.34469">
        <ele>1302</ele>
      </trkpt>
      <trkpt lat="44.1553" lon="5.34506">
        <ele>1296</ele>
      </trkpt>
      <trkpt lat="44.15552" lon="5.34558">
        <ele>1291</ele>
      </trkpt>
      <trkpt lat="44.15565" lon="5.34576">
        <ele>1289</ele>
      </trkpt>
      <trkpt lat="44.15598" lon="5.34609">
        <ele>1288</ele>
      </trkpt>
      <trkpt lat="44.15614" lon="5.34635">
        <ele>1284</ele>
      </trkpt>
      <trkpt lat="44.15629" lon="5.34664">
        <ele>1285</ele>
      </trkpt>
      <trkpt lat="44.15646" lon="5.34689">
        <ele>1282</ele>
      </trkpt>
      <trkpt lat="44.15671" lon="5.34711">
        <ele>1275</ele>
      </trkpt>
      <trkpt lat="44.15702" lon="5.34731">
        <ele>1277</ele>
      </trkpt>
      <trkpt lat="44.15729" lon="5.34742">
        <ele>1275</ele>
      </trkpt>
      <trkpt lat="44.15753" lon="5.34747">
        <ele>1277</ele>
      </trkpt>
      <trkpt lat="44.15764" lon="5.34756">
        <ele>1282</ele>
      </trkpt>
      <trkpt lat="44.1577" lon="5.34769">
        <ele>1279</ele>
      </trkpt>
      <trkpt lat="44.1577" lon="5.3478">
        <ele>1279</ele>
      </trkpt>
      <trkpt lat="44.15766" lon="5.34791">
        <ele>1279</ele>
      </trkpt>
      <trkpt lat="44.15754" lon="5.34801">
        <ele>1274</ele>
      </trkpt>
      <trkpt lat="44.15717" lon="5.34819">
        <ele>1271</ele>
      </trkpt>
      <trkpt lat="44.15701" lon="5.34835">
        <ele>1270</ele>
      </trkpt>
      <trkpt lat="44.15693" lon="5.34845">
        <ele>1268</ele>
      </trkpt>
      <trkpt lat="44.1569" lon="5.34854">
        <ele>1268</ele>
      </trkpt>
      <trkpt lat="44.15688" lon="5.34869">
        <ele>1268</ele>
      </trkpt>
      <trkpt lat="44.15691" lon="5.34878">
        <ele>1268</ele>
      </trkpt>
      <trkpt lat="44.15705" lon="5.3491">
        <ele>1276</ele>
      </trkpt>
      <trkpt lat="44.15721" lon="5.3494">
        <ele>1280</ele>
      </trkpt>
      <trkpt lat="44.15724" lon="5.34949">
        <ele>1281</ele>
      </trkpt>
      <trkpt lat="44.15724" lon="5.34961">
        <ele>1283</ele>
      </trkpt>
      <trkpt lat="44.15721" lon="5.34969">
        <ele>1282</ele>
      </trkpt>
      <trkpt lat="44.15717" lon="5.34972">
        <ele>1282</ele>
      </trkpt>
      <trkpt lat="44.15702" lon="5.34975">
        <ele>1280</ele>
      </trkpt>
      <trkpt lat="44.15673" lon="5.34973">
        <ele>1272</ele>
      </trkpt>
      <trkpt lat="44.15649" lon="5.34965">
        <ele>1269</ele>
      </trkpt>
      <trkpt lat="44.15618" lon="5.34944">
        <ele>1263</ele>
      </trkpt>
      <trkpt lat="44.15606" lon="5.34939">
        <ele>1261</ele>
      </trkpt>
      <trkpt lat="44.15585" lon="5.34938">
        <ele>1260</ele>
      </trkpt>
      <trkpt lat="44.15555" lon="5.34945">
        <ele>1260</ele>
      </trkpt>
      <trkpt lat="44.15541" lon="5.34951">
        <ele>1260</ele>
      </trkpt>
      <trkpt lat="44.15502" lon="5.34977">
        <ele>1263</ele>
      </trkpt>
      <trkpt lat="44.15458" lon="5.34997">
        <ele>1266</ele>
      </trkpt>
      <trkpt lat="44.15442" lon="5.35">
        <ele>1260</ele>
      </trkpt>
      <trkpt lat="44.15396" lon="5.34994">
        <ele>1256</ele>
      </trkpt>
      <trkpt lat="44.15352" lon="5.34999">
        <ele>1254</ele>
      </trkpt>
      <trkpt lat="44.15324" lon="5.35011">
        <ele>1256</ele>
      </trkpt>
      <trkpt lat="44.15313" lon="5.3502">
        <ele>1256</ele>
      </trkpt>
      <trkpt lat="44.15304" lon="5.3503">
        <ele>1252</ele>
      </trkpt>
      <trkpt lat="44.15295" lon="5.35045">
        <ele>1255</ele>
      </trkpt>
      <trkpt lat="44.15288" lon="5.35059">
        <ele>1255</ele>
      </trkpt>
      <trkpt lat="44.15284" lon="5.35074">
        <ele>1257</ele>
      </trkpt>
      <trkpt lat="44.15281" lon="5.35089">
        <ele>1253</ele>
      </trkpt>
      <trkpt lat="44.15279" lon="5.35122">
        <ele>1254</ele>
      </trkpt>
      <trkpt lat="44.15278" lon="5.35189">
        <ele>1253</ele>
      </trkpt>
      <trkpt lat="44.15275" lon="5.35206">
        <ele>1253</ele>
      </trkpt>
      <trkpt lat="44.15265" lon="5.35238">
        <ele>1253</ele>
      </trkpt>
      <trkpt lat="44.15242" lon="5.35289">
        <ele>1249</ele>
      </trkpt>
      <trkpt lat="44.15232" lon="5.35318">
        <ele>1249</ele>
      </trkpt>
      <trkpt lat="44.1522" lon="5.3539">
        <ele>1241</ele>
      </trkpt>
      <trkpt lat="44.15219" lon="5.35405">
        <ele>1240</ele>
      </trkpt>
      <trkpt lat="44.15221" lon="5.35427">
        <ele>1239</ele>
      </trkpt>
      <trkpt lat="44.15221" lon="5.35437">
        <ele>1239</ele>
      </trkpt>
      <trkpt lat="44.15215" lon="5.35451">
        <ele>1239</ele>
      </trkpt>
      <trkpt lat="44.1521" lon="5.35456">
        <ele>1240</ele>
      </trkpt>
      <trkpt lat="44.15186" lon="5.35464">
        <ele>1235</ele>
      </trkpt>
      <trkpt lat="44.15176" lon="5.35469">
        <ele>1234</ele>
      </trkpt>
      <trkpt lat="44.15145" lon="5.35499">
        <ele>1232</ele>
      </trkpt>
      <trkpt lat="44.15134" lon="5.35513">
        <ele>1229</ele>
      </trkpt>
      <trkpt lat="44.15127" lon="5.35523">
        <ele>1229</ele>
      </trkpt>
      <trkpt lat="44.15115" lon="5.35553">
        <ele>1226</ele>
      </trkpt>
      <trkpt lat="44.15107" lon="5.35558">
        <ele>1225</ele>
      </trkpt>
      <trkpt lat="44.15098" lon="5.35556">
        <ele>1225</ele>
      </trkpt>
      <trkpt lat="44.15092" lon="5.35552">
        <ele>1224</ele>
      </trkpt>
      <trkpt lat="44.15066" lon="5.35516">
        <ele>1219</ele>
      </trkpt>
      <trkpt lat="44.15052" lon="5.35505">
        <ele>1215</ele>
      </trkpt>
      <trkpt lat="44.15032" lon="5.355">
        <ele>1214</ele>
      </trkpt>
      <trkpt lat="44.15019" lon="5.35499">
        <ele>1212</ele>
      </trkpt>
      <trkpt lat="44.15007" lon="5.35501">
        <ele>1212</ele>
      </trkpt>
      <trkpt lat="44.14986" lon="5.35511">
        <ele>1213</ele>
      </trkpt>
      <trkpt lat="44.14971" lon="5.35522">
        <ele>1212</ele>
      </trkpt>
      <trkpt lat="44.14952" lon="5.35539">
        <ele>1213</ele>
      </trkpt>
      <trkpt lat="44.14924" lon="5.35572">
        <ele>1210</ele>
      </trkpt>
      <trkpt lat="44.14906" lon="5.35598">
        <ele>1208</ele>
      </trkpt>
      <trkpt lat="44.14885" lon="5.3564">
        <ele>1204</ele>
      </trkpt>
      <trkpt lat="44.14875" lon="5.35671">
        <ele>1204</ele>
      </trkpt>
      <trkpt lat="44.14869" lon="5.35706">
        <ele>1203</ele>
      </trkpt>
      <trkpt lat="44.14869" lon="5.3574">
        <ele>1201</ele>
      </trkpt>
      <trkpt lat="44.14872" lon="5.35765">
        <ele>1200</ele>
      </trkpt>
      <trkpt lat="44.14893" lon="5.3586">
        <ele>1190</ele>
      </trkpt>
      <trkpt lat="44.14898" lon="5.35873">
        <ele>1190</ele>
      </trkpt>
      <trkpt lat="44.14914" lon="5.35893">
        <ele>1190</ele>
      </trkpt>
      <trkpt lat="44.14949" lon="5.35928">
        <ele>1197</ele>
      </trkpt>
      <trkpt lat="44.14953" lon="5.35943">
        <ele>1197</ele>
      </trkpt>
      <trkpt lat="44.1495" lon="5.35955">
        <ele>1195</ele>
      </trkpt>
      <trkpt lat="44.14943" lon="5.35965">
        <ele>1192</ele>
      </trkpt>
      <trkpt lat="44.14938" lon="5.35966">
        <ele>1192</ele>
      </trkpt>
      <trkpt lat="44.14929" lon="5.35964">
        <ele>1192</ele>
      </trkpt>
      <trkpt lat="44.14802" lon="5.3592">
        <ele>1173</ele>
      </trkpt>
      <trkpt lat="44.14776" lon="5.35911">
        <ele>1170</ele>
      </trkpt>
      <trkpt lat="44.14762" lon="5.35911">
        <ele>1169</ele>
      </trkpt>
      <trkpt lat="44.1472" lon="5.35921">
        <ele>1167</ele>
      </trkpt>
      <trkpt lat="44.14693" lon="5.35931">
        <ele>1168</ele>
      </trkpt>
      <trkpt lat="44.14668" lon="5.35948">
        <ele>1166</ele>
      </trkpt>
      <trkpt lat="44.14657" lon="5.35959">
        <ele>1167</ele>
      </trkpt>
      <trkpt lat="44.14641" lon="5.35981">
        <ele>1163</ele>
      </trkpt>
      <trkpt lat="44.14626" lon="5.36012">
        <ele>1164</ele>
      </trkpt>
      <trkpt lat="44.14611" lon="5.36056">
        <ele>1162</ele>
      </trkpt>
      <trkpt lat="44.14601" lon="5.36108">
        <ele>1165</ele>
      </trkpt>
      <trkpt lat="44.14598" lon="5.36144">
        <ele>1164</ele>
      </trkpt>
      <trkpt lat="44.14598" lon="5.36177">
        <ele>1163</ele>
      </trkpt>
      <trkpt lat="44.14604" lon="5.36248">
        <ele>1159</ele>
      </trkpt>
      <trkpt lat="44.14603" lon="5.36279">
        <ele>1159</ele>
      </trkpt>
      <trkpt lat="44.14598" lon="5.36297">
        <ele>1159</ele>
      </trkpt>
      <trkpt lat="44.14593" lon="5.36306">
        <ele>1158</ele>
      </trkpt>
      <trkpt lat="44.14581" lon="5.36322">
        <ele>1154</ele>
      </trkpt>
      <trkpt lat="44.14554" lon="5.3635">
        <ele>1150</ele>
      </trkpt>
      <trkpt lat="44.1452" lon="5.36389">
        <ele>1148</ele>
      </trkpt>
      <trkpt lat="44.14513" lon="5.36401">
        <ele>1148</ele>
      </trkpt>
      <trkpt lat="44.14507" lon="5.36424">
        <ele>1147</ele>
      </trkpt>
      <trkpt lat="44.14507" lon="5.36448">
        <ele>1147</ele>
      </trkpt>
      <trkpt lat="44.14512" lon="5.36472">
        <ele>1145</ele>
      </trkpt>
      <trkpt lat="44.1458" lon="5.36622">
        <ele>1141</ele>
      </trkpt>
      <trkpt lat="44.14583" lon="5.36635">
        <ele>1141</ele>
      </trkpt>
      <trkpt lat="44.14584" lon="5.36645">
        <ele>1142</ele>
      </trkpt>
      <trkpt lat="44.14581" lon="5.36653">
        <ele>1142</ele>
      </trkpt>
      <trkpt lat="44.14577" lon="5.3666">
        <ele>1142</ele>
      </trkpt>
      <trkpt lat="44.14572" lon="5.36664">
        <ele>1142</ele>
      </trkpt>
      <trkpt lat="44.14566" lon="5.36665">
        <ele>1142</ele>
      </trkpt>
      <trkpt lat="44.14475" lon="5.36651">
        <ele>1134</ele>
      </trkpt>
      <trkpt lat="44.1445" lon="5.36653">
        <ele>1134</ele>
      </trkpt>
      <trkpt lat="44.1443" lon="5.36657">
        <ele>1132</ele>
      </trkpt>
      <trkpt lat="44.144" lon="5.36667">
        <ele>1129</ele>
      </trkpt>
      <trkpt lat="44.14383" lon="5.36676">
        <ele>1126</ele>
      </trkpt>
      <trkpt lat="44.14342" lon="5.36706">
        <ele>1128</ele>
      </trkpt>
      <trkpt lat="44.14329" lon="5.36721">
        <ele>1124</ele>
      </trkpt>
      <trkpt lat="44.14299" lon="5.36763">
        <ele>1123</ele>
      </trkpt>
      <trkpt lat="44.14283" lon="5.36797">
        <ele>1123</ele>
      </trkpt>
      <trkpt lat="44.14278" lon="5.36816">
        <ele>1119</ele>
      </trkpt>
      <trkpt lat="44.14272" lon="5.36859">
        <ele>1118</ele>
      </trkpt>
      <trkpt lat="44.14266" lon="5.36964">
        <ele>1119</ele>
      </trkpt>
      <trkpt lat="44.14262" lon="5.37004">
        <ele>1118</ele>
      </trkpt>
      <trkpt lat="44.1426" lon="5.37016">
        <ele>1117</ele>
      </trkpt>
      <trkpt lat="44.14255" lon="5.37027">
        <ele>1116</ele>
      </trkpt>
      <trkpt lat="44.14237" lon="5.37053">
        <ele>1110</ele>
      </trkpt>
      <trkpt lat="44.14229" lon="5.3706">
        <ele>1109</ele>
      </trkpt>
      <trkpt lat="44.14222" lon="5.37063">
        <ele>1106</ele>
      </trkpt>
      <trkpt lat="44.1421" lon="5.37062">
        <ele>1106</ele>
      </trkpt>
      <trkpt lat="44.14203" lon="5.37056">
        <ele>1106</ele>
      </trkpt>
      <trkpt lat="44.14197" lon="5.37048">
        <ele>1103</ele>
      </trkpt>
      <trkpt lat="44.14194" lon="5.37038">
        <ele>1103</ele>
      </trkpt>
      <trkpt lat="44.1418" lon="5.36975">
        <ele>1100</ele>
      </trkpt>
      <trkpt lat="44.14173" lon="5.36954">
        <ele>1099</ele>
      </trkpt>
      <trkpt lat="44.14164" lon="5.36937">
        <ele>1097</ele>
      </trkpt>
      <trkpt lat="44.14141" lon="5.36896">
        <ele>1095</ele>
      </trkpt>
      <trkpt lat="44.1413" lon="5.36881">
        <ele>1094</ele>
      </trkpt>
      <trkpt lat="44.14114" lon="5.36862">
        <ele>1092</ele>
      </trkpt>
      <trkpt lat="44.14083" lon="5.36835">
        <ele>1088</ele>
      </trkpt>
      <trkpt lat="44.14047" lon="5.36811">
        <ele>1084</ele>
      </trkpt>
      <trkpt lat="44.13998" lon="5.36791">
        <ele>1083</ele>
      </trkpt>
      <trkpt lat="44.13952" lon="5.36786">
        <ele>1079</ele>
      </trkpt>
      <trkpt lat="44.13922" lon="5.36784">
        <ele>1078</ele>
      </trkpt>
      <trkpt lat="44.13905" lon="5.36784">
        <ele>1076</ele>
      </trkpt>
      <trkpt lat="44.13884" lon="5.3679">
        <ele>1077</ele>
      </trkpt>
      <trkpt lat="44.13861" lon="5.36801">
        <ele>1075</ele>
      </trkpt>
      <trkpt lat="44.13827" lon="5.36824">
        <ele>1075</ele>
      </trkpt>
      <trkpt lat="44.13809" lon="5.36844">
        <ele>1074</ele>
      </trkpt>
      <trkpt lat="44.1377" lon="5.36893">
        <ele>1072</ele>
      </trkpt>
      <trkpt lat="44.13742" lon="5.36915">
        <ele>1069</ele>
      </trkpt>
      <trkpt lat="44.13712" lon="5.36929">
        <ele>1066</ele>
      </trkpt>
      <trkpt lat="44.13669" lon="5.36944">
        <ele>1060</ele>
      </trkpt>
      <trkpt lat="44.13622" lon="5.36955">
        <ele>1059</ele>
      </trkpt>
      <trkpt lat="44.13595" lon="5.36968">
        <ele>1056</ele>
      </trkpt>
      <trkpt lat="44.13573" lon="5.36981">
        <ele>1053</ele>
      </trkpt>
      <trkpt lat="44.13498" lon="5.37037">
        <ele>1047</ele>
      </trkpt>
      <trkpt lat="44.13463" lon="5.37061">
        <ele>1044</ele>
      </trkpt>
      <trkpt lat="44.13445" lon="5.37076">
        <ele>1041</ele>
      </trkpt>
      <trkpt lat="44.13439" lon="5.37085">
        <ele>1040</ele>
      </trkpt>
      <trkpt lat="44.13436" lon="5.37095">
        <ele>1040</ele>
      </trkpt>
      <trkpt lat="44.13434" lon="5.37107">
        <ele>1040</ele>
      </trkpt>
      <trkpt lat="44.13435" lon="5.37127">
        <ele>1039</ele>
      </trkpt>
      <trkpt lat="44.13439" lon="5.37136">
        <ele>1039</ele>
      </trkpt>
      <trkpt lat="44.13445" lon="5.37147">
        <ele>1039</ele>
      </trkpt>
      <trkpt lat="44.13553" lon="5.37285">
        <ele>1035</ele>
      </trkpt>
      <trkpt lat="44.1357" lon="5.37304">
        <ele>1034</ele>
      </trkpt>
      <trkpt lat="44.13596" lon="5.37324">
        <ele>1032</ele>
      </trkpt>
      <trkpt lat="44.13634" lon="5.37344">
        <ele>1032</ele>
      </trkpt>
      <trkpt lat="44.13641" lon="5.3735">
        <ele>1032</ele>
      </trkpt>
      <trkpt lat="44.13645" lon="5.37358">
        <ele>1033</ele>
      </trkpt>
      <trkpt lat="44.13646" lon="5.37368">
        <ele>1032</ele>
      </trkpt>
      <trkpt lat="44.13646" lon="5.37378">
        <ele>1031</ele>
      </trkpt>
      <trkpt lat="44.13642" lon="5.37387">
        <ele>1029</ele>
      </trkpt>
      <trkpt lat="44.13637" lon="5.37393">
        <ele>1029</ele>
      </trkpt>
      <trkpt lat="44.1363" lon="5.37396">
        <ele>1029</ele>
      </trkpt>
      <trkpt lat="44.13553" lon="5.37409">
        <ele>1022</ele>
      </trkpt>
      <trkpt lat="44.13392" lon="5.37452">
        <ele>1004</ele>
      </trkpt>
      <trkpt lat="44.1338" lon="5.37451">
        <ele>1004</ele>
      </trkpt>
      <trkpt lat="44.13318" lon="5.37433">
        <ele>1003</ele>
      </trkpt>
      <trkpt lat="44.13276" lon="5.37418">
        <ele>1000</ele>
      </trkpt>
      <trkpt lat="44.13263" lon="5.37411">
        <ele>1000</ele>
      </trkpt>
      <trkpt lat="44.13126" lon="5.37338">
        <ele>990</ele>
      </trkpt>
      <trkpt lat="44.13098" lon="5.37326">
        <ele>989</ele>
      </trkpt>
      <trkpt lat="44.13045" lon="5.37313">
        <ele>986</ele>
      </trkpt>
      <trkpt lat="44.13033" lon="5.37312">
        <ele>986</ele>
      </trkpt>
      <trkpt lat="44.13008" lon="5.37316">
        <ele>987</ele>
      </trkpt>
      <trkpt lat="44.12996" lon="5.3732">
        <ele>986</ele>
      </trkpt>
      <trkpt lat="44.12947" lon="5.37343">
        <ele>982</ele>
      </trkpt>
      <trkpt lat="44.12938" lon="5.37346">
        <ele>985</ele>
      </trkpt>
      <trkpt lat="44.12897" lon="5.37351">
        <ele>981</ele>
      </trkpt>
      <trkpt lat="44.12844" lon="5.37353">
        <ele>975</ele>
      </trkpt>
      <trkpt lat="44.12805" lon="5.37348">
        <ele>970</ele>
      </trkpt>
      <trkpt lat="44.12786" lon="5.37344">
        <ele>970</ele>
      </trkpt>
      <trkpt lat="44.12688" lon="5.37311">
        <ele>961</ele>
      </trkpt>
      <trkpt lat="44.12655" lon="5.37303">
        <ele>959</ele>
      </trkpt>
      <trkpt lat="44.12499" lon="5.37303">
        <ele>952</ele>
      </trkpt>
      <trkpt lat="44.12471" lon="5.37308">
        <ele>951</ele>
      </trkpt>
      <trkpt lat="44.12446" lon="5.37315">
        <ele>950</ele>
      </trkpt>
      <trkpt lat="44.12414" lon="5.37331">
        <ele>950</ele>
      </trkpt>
      <trkpt lat="44.12382" lon="5.37353">
        <ele>949</ele>
      </trkpt>
      <trkpt lat="44.12357" lon="5.37375">
        <ele>947</ele>
      </trkpt>
      <trkpt lat="44.12277" lon="5.37466">
        <ele>942</ele>
      </trkpt>
      <trkpt lat="44.12208" lon="5.37561">
        <ele>936</ele>
      </trkpt>
      <trkpt lat="44.12187" lon="5.37597">
        <ele>933</ele>
      </trkpt>
      <trkpt lat="44.12172" lon="5.3763">
        <ele>932</ele>
      </trkpt>
      <trkpt lat="44.12158" lon="5.37669">
        <ele>927</ele>
      </trkpt>
      <trkpt lat="44.1212" lon="5.37819">
        <ele>922</ele>
      </trkpt>
      <trkpt lat="44.1211" lon="5.3785">
        <ele>920</ele>
      </trkpt>
      <trkpt lat="44.12103" lon="5.37864">
        <ele>919</ele>
      </trkpt>
      <trkpt lat="44.12089" lon="5.37882">
        <ele>919</ele>
      </trkpt>
      <trkpt lat="44.12023" lon="5.37959">
        <ele>915</ele>
      </trkpt>
      <trkpt lat="44.12002" lon="5.37987">
        <ele>911</ele>
      </trkpt>
      <trkpt lat="44.11921" lon="5.38116">
        <ele>904</ele>
      </trkpt>
      <trkpt lat="44.11913" lon="5.38132">
        <ele>901</ele>
      </trkpt>
      <trkpt lat="44.11909" lon="5.38146">
        <ele>901</ele>
      </trkpt>
      <trkpt lat="44.11905" lon="5.38161">
        <ele>901</ele>
      </trkpt>
      <trkpt lat="44.11901" lon="5.38199">
        <ele>901</ele>
      </trkpt>
      <trkpt lat="44.11898" lon="5.38211">
        <ele>901</ele>
      </trkpt>
      <trkpt lat="44.11893" lon="5.38224">
        <ele>901</ele>
      </trkpt>
      <trkpt lat="44.11886" lon="5.38234">
        <ele>899</ele>
      </trkpt>
      <trkpt lat="44.1186" lon="5.38261">
        <ele>896</ele>
      </trkpt>
      <trkpt lat="44.11753" lon="5.38369">
        <ele>884</ele>
      </trkpt>
      <trkpt lat="44.11738" lon="5.38387">
        <ele>884</ele>
      </trkpt>
      <trkpt lat="44.1173" lon="5.384">
        <ele>883</ele>
      </trkpt>
      <trkpt lat="44.11723" lon="5.38417">
        <ele>881</ele>
      </trkpt>
      <trkpt lat="44.11716" lon="5.38451">
        <ele>880</ele>
      </trkpt>
      <trkpt lat="44.11716" lon="5.3847">
        <ele>880</ele>
      </trkpt>
      <trkpt lat="44.11718" lon="5.38487">
        <ele>878</ele>
      </trkpt>
      <trkpt lat="44.11726" lon="5.38523">
        <ele>876</ele>
      </trkpt>
      <trkpt lat="44.11736" lon="5.38547">
        <ele>875</ele>
      </trkpt>
      <trkpt lat="44.11744" lon="5.38562">
        <ele>875</ele>
      </trkpt>
      <trkpt lat="44.11771" lon="5.386">
        <ele>875</ele>
      </trkpt>
      <trkpt lat="44.11774" lon="5.38608">
        <ele>875</ele>
      </trkpt>
      <trkpt lat="44.11774" lon="5.38617">
        <ele>875</ele>
      </trkpt>
      <trkpt lat="44.1177" lon="5.3863">
        <ele>874</ele>
      </trkpt>
      <trkpt lat="44.11765" lon="5.38636">
        <ele>873</ele>
      </trkpt>
      <trkpt lat="44.11714" lon="5.38681">
        <ele>868</ele>
      </trkpt>
      <trkpt lat="44.117" lon="5.38691">
        <ele>868</ele>
      </trkpt>
      <trkpt lat="44.11622" lon="5.38737">
        <ele>860</ele>
      </trkpt>
      <trkpt lat="44.11605" lon="5.38749">
        <ele>859</ele>
      </trkpt>
      <trkpt lat="44.11594" lon="5.38759">
        <ele>859</ele>
      </trkpt>
      <trkpt lat="44.11577" lon="5.38781">
        <ele>858</ele>
      </trkpt>
      <trkpt lat="44.1157" lon="5.38794">
        <ele>858</ele>
      </trkpt>
      <trkpt lat="44.11532" lon="5.38873">
        <ele>855</ele>
      </trkpt>
      <trkpt lat="44.11525" lon="5.38883">
        <ele>853</ele>
      </trkpt>
      <trkpt lat="44.11512" lon="5.38896">
        <ele>853</ele>
      </trkpt>
      <trkpt lat="44.11495" lon="5.38901">
        <ele>853</ele>
      </trkpt>
      <trkpt lat="44.11487" lon="5.38899">
        <ele>852</ele>
      </trkpt>
      <trkpt lat="44.1146" lon="5.38886">
        <ele>851</ele>
      </trkpt>
      <trkpt lat="44.11448" lon="5.38883">
        <ele>850</ele>
      </trkpt>
      <trkpt lat="44.11438" lon="5.38884">
        <ele>849</ele>
      </trkpt>
      <trkpt lat="44.11427" lon="5.38888">
        <ele>849</ele>
      </trkpt>
      <trkpt lat="44.1136" lon="5.38933">
        <ele>846</ele>
      </trkpt>
      <trkpt lat="44.11343" lon="5.38938">
        <ele>845</ele>
      </trkpt>
      <trkpt lat="44.11331" lon="5.38936">
        <ele>844</ele>
      </trkpt>
      <trkpt lat="44.11319" lon="5.38929">
        <ele>844</ele>
      </trkpt>
      <trkpt lat="44.11269" lon="5.38882">
        <ele>840</ele>
      </trkpt>
      <trkpt lat="44.1126" lon="5.38876">
        <ele>841</ele>
      </trkpt>
      <trkpt lat="44.1125" lon="5.38872">
        <ele>841</ele>
      </trkpt>
      <trkpt lat="44.11226" lon="5.3887">
        <ele>841</ele>
      </trkpt>
      <trkpt lat="44.1118" lon="5.38874">
        <ele>840</ele>
      </trkpt>
      <trkpt lat="44.11126" lon="5.3887">
        <ele>835</ele>
      </trkpt>
      <trkpt lat="44.11111" lon="5.38871">
        <ele>834</ele>
      </trkpt>
      <trkpt lat="44.11096" lon="5.38873">
        <ele>835</ele>
      </trkpt>
      <trkpt lat="44.11067" lon="5.38883">
        <ele>834</ele>
      </trkpt>
      <trkpt lat="44.11041" lon="5.38899">
        <ele>833</ele>
      </trkpt>
      <trkpt lat="44.11021" lon="5.3892">
        <ele>833</ele>
      </trkpt>
      <trkpt lat="44.10998" lon="5.38952">
        <ele>832</ele>
      </trkpt>
      <trkpt lat="44.10987" lon="5.38973">
        <ele>832</ele>
      </trkpt>
      <trkpt lat="44.10981" lon="5.38989">
        <ele>831</ele>
      </trkpt>
      <trkpt lat="44.10977" lon="5.39012">
        <ele>830</ele>
      </trkpt>
      <trkpt lat="44.10972" lon="5.39053">
        <ele>827</ele>
      </trkpt>
      <trkpt lat="44.10972" lon="5.3907">
        <ele>826</ele>
      </trkpt>
      <trkpt lat="44.10974" lon="5.39083">
        <ele>826</ele>
      </trkpt>
      <trkpt lat="44.10983" lon="5.39104">
        <ele>826</ele>
      </trkpt>
      <trkpt lat="44.1099" lon="5.39114">
        <ele>826</ele>
      </trkpt>
      <trkpt lat="44.11017" lon="5.3914">
        <ele>824</ele>
      </trkpt>
      <trkpt lat="44.11063" lon="5.39179">
        <ele>818</ele>
      </trkpt>
      <trkpt lat="44.11145" lon="5.3923">
        <ele>817</ele>
      </trkpt>
      <trkpt lat="44.11168" lon="5.39241">
        <ele>814</ele>
      </trkpt>
      <trkpt lat="44.11195" lon="5.39248">
        <ele>815</ele>
      </trkpt>
      <trkpt lat="44.11203" lon="5.39252">
        <ele>817</ele>
      </trkpt>
      <trkpt lat="44.1121" lon="5.3926">
        <ele>817</ele>
      </trkpt>
      <trkpt lat="44.11213" lon="5.3927">
        <ele>815</ele>
      </trkpt>
      <trkpt lat="44.11213" lon="5.3928">
        <ele>815</ele>
      </trkpt>
      <trkpt lat="44.11209" lon="5.39293">
        <ele>813</ele>
      </trkpt>
      <trkpt lat="44.11182" lon="5.39341">
        <ele>807</ele>
      </trkpt>
      <trkpt lat="44.1118" lon="5.3936">
        <ele>804</ele>
      </trkpt>
      <trkpt lat="44.11185" lon="5.39374">
        <ele>801</ele>
      </trkpt>
      <trkpt lat="44.11189" lon="5.3938">
        <ele>800</ele>
      </trkpt>
      <trkpt lat="44.11234" lon="5.39401">
        <ele>802</ele>
      </trkpt>
      <trkpt lat="44.11331" lon="5.39461">
        <ele>800</ele>
      </trkpt>
      <trkpt lat="44.11348" lon="5.39473">
        <ele>802</ele>
      </trkpt>
      <trkpt lat="44.11364" lon="5.3949">
        <ele>797</ele>
      </trkpt>
      <trkpt lat="44.11377" lon="5.39509">
        <ele>798</ele>
      </trkpt>
      <trkpt lat="44.11387" lon="5.39527">
        <ele>794</ele>
      </trkpt>
      <trkpt lat="44.11402" lon="5.39563">
        <ele>793</ele>
      </trkpt>
      <trkpt lat="44.11441" lon="5.39668">
        <ele>784</ele>
      </trkpt>
      <trkpt lat="44.11443" lon="5.39679">
        <ele>783</ele>
      </trkpt>
      <trkpt lat="44.11442" lon="5.39689">
        <ele>782</ele>
      </trkpt>
      <trkpt lat="44.11437" lon="5.39703">
        <ele>782</ele>
      </trkpt>
      <trkpt lat="44.11431" lon="5.39709">
        <ele>781</ele>
      </trkpt>
      <trkpt lat="44.11392" lon="5.39728">
        <ele>780</ele>
      </trkpt>
      <trkpt lat="44.11372" lon="5.3973">
        <ele>780</ele>
      </trkpt>
      <trkpt lat="44.11343" lon="5.39727">
        <ele>779</ele>
      </trkpt>
      <trkpt lat="44.11325" lon="5.39727">
        <ele>777</ele>
      </trkpt>
      <trkpt lat="44.11254" lon="5.39742">
        <ele>772</ele>
      </trkpt>
      <trkpt lat="44.11196" lon="5.39744">
        <ele>768</ele>
      </trkpt>
      <trkpt lat="44.11176" lon="5.39751">
        <ele>768</ele>
      </trkpt>
      <trkpt lat="44.11156" lon="5.39761">
        <ele>766</ele>
      </trkpt>
      <trkpt lat="44.11084" lon="5.39825">
        <ele>757</ele>
      </trkpt>
      <trkpt lat="44.10933" lon="5.39926">
        <ele>748</ele>
      </trkpt>
      <trkpt lat="44.10918" lon="5.39939">
        <ele>746</ele>
      </trkpt>
      <trkpt lat="44.10887" lon="5.39975">
        <ele>744</ele>
      </trkpt>
      <trkpt lat="44.10824" lon="5.40068">
        <ele>738</ele>
      </trkpt>
      <trkpt lat="44.1081" lon="5.4008">
        <ele>738</ele>
      </trkpt>
      <trkpt lat="44.10801" lon="5.40081">
        <ele>738</ele>
      </trkpt>
      <trkpt lat="44.10792" lon="5.40079">
        <ele>738</ele>
      </trkpt>
      <trkpt lat="44.10769" lon="5.40067">
        <ele>737</ele>
      </trkpt>
      <trkpt lat="44.10749" lon="5.40058">
        <ele>736</ele>
      </trkpt>
      <trkpt lat="44.10705" lon="5.40044">
        <ele>733</ele>
      </trkpt>
      <trkpt lat="44.10686" lon="5.40032">
        <ele>733</ele>
      </trkpt>
      <trkpt lat="44.10657" lon="5.40006">
        <ele>731</ele>
      </trkpt>
      <trkpt lat="44.10604" lon="5.39971">
        <ele>725</ele>
      </trkpt>
      <trkpt lat="44.10525" lon="5.39922">
        <ele>721</ele>
      </trkpt>
      <trkpt lat="44.10504" lon="5.39914">
        <ele>720</ele>
      </trkpt>
      <trkpt lat="44.10488" lon="5.39913">
        <ele>720</ele>
      </trkpt>
      <trkpt lat="44.10469" lon="5.39917">
        <ele>720</ele>
      </trkpt>
      <trkpt lat="44.10444" lon="5.3993">
        <ele>719</ele>
      </trkpt>
      <trkpt lat="44.10428" lon="5.39945">
        <ele>719</ele>
      </trkpt>
      <trkpt lat="44.10376" lon="5.40019">
        <ele>717</ele>
      </trkpt>
      <trkpt lat="44.10357" lon="5.40038">
        <ele>718</ele>
      </trkpt>
      <trkpt lat="44.10338" lon="5.40053">
        <ele>717</ele>
      </trkpt>
      <trkpt lat="44.10176" lon="5.40143">
        <ele>713</ele>
      </trkpt>
      <trkpt lat="44.10173" lon="5.40131">
        <ele>714</ele>
      </trkpt>
      <trkpt lat="44.10173" lon="5.40112">
        <ele>715</ele>
      </trkpt>
      <trkpt lat="44.10167" lon="5.40082">
        <ele>717</ele>
      </trkpt>
      <trkpt lat="44.10151" lon="5.4009">
        <ele>717</ele>
      </trkpt>
      <trkpt lat="44.10142" lon="5.40098">
        <ele>716</ele>
      </trkpt>
      <trkpt lat="44.10126" lon="5.40107">
        <ele>717</ele>
      </trkpt>
      <trkpt lat="44.10136" lon="5.40145">
        <ele>715</ele>
      </trkpt>
      <trkpt lat="44.10127" lon="5.40152">
        <ele>714</ele>
      </trkpt>
      <trkpt lat="44.10102" lon="5.40165">
        <ele>715</ele>
      </trkpt>
      <trkpt lat="44.10086" lon="5.40164">
        <ele>716</ele>
      </trkpt>
      <trkpt lat="44.10065" lon="5.40169">
        <ele>716</ele>
      </trkpt>
      <trkpt lat="44.10053" lon="5.40176">
        <ele>716</ele>
      </trkpt>
      <trkpt lat="44.10043" lon="5.40201">
        <ele>716</ele>
      </trkpt>
      <trkpt lat="44.10028" lon="5.40207">
        <ele>715</ele>
      </trkpt>
      <trkpt lat="44.10022" lon="5.40207">
        <ele>715</ele>
      </trkpt>
      <trkpt lat="44.10019" lon="5.4022">
        <ele>715</ele>
      </trkpt>
      <trkpt lat="44.10021" lon="5.40231">
        <ele>715</ele>
      </trkpt>
      <trkpt lat="44.10005" lon="5.40238">
        <ele>714</ele>
      </trkpt>
      <trkpt lat="44.09956" lon="5.40253">
        <ele>715</ele>
      </trkpt>
      <trkpt lat="44.09935" lon="5.40264">
        <ele>713</ele>
      </trkpt>
      <trkpt lat="44.09919" lon="5.40287">
        <ele>712</ele>
      </trkpt>
      <trkpt lat="44.09896" lon="5.40333">
        <ele>708</ele>
      </trkpt>
      <trkpt lat="44.0988" lon="5.40357">
        <ele>707</ele>
      </trkpt>
      <trkpt lat="44.09744" lon="5.40544">
        <ele>696</ele>
      </trkpt>
      <trkpt lat="44.09729" lon="5.40567">
        <ele>696</ele>
      </trkpt>
      <trkpt lat="44.09721" lon="5.40587">
        <ele>695</ele>
      </trkpt>
      <trkpt lat="44.09719" lon="5.40599">
        <ele>695</ele>
      </trkpt>
      <trkpt lat="44.0972" lon="5.40621">
        <ele>695</ele>
      </trkpt>
      <trkpt lat="44.09726" lon="5.40641">
        <ele>697</ele>
      </trkpt>
      <trkpt lat="44.09734" lon="5.40653">
        <ele>698</ele>
      </trkpt>
      <trkpt lat="44.09855" lon="5.40772">
        <ele>703</ele>
      </trkpt>
      <trkpt lat="44.09939" lon="5.40872">
        <ele>707</ele>
      </trkpt>
      <trkpt lat="44.09961" lon="5.40892">
        <ele>709</ele>
      </trkpt>
      <trkpt lat="44.09965" lon="5.40899">
        <ele>709</ele>
      </trkpt>
      <trkpt lat="44.09967" lon="5.40911">
        <ele>714</ele>
      </trkpt>
      <trkpt lat="44.0998" lon="5.40915">
        <ele>712</ele>
      </trkpt>
      <trkpt lat="44.10004" lon="5.40917">
        <ele>709</ele>
      </trkpt>
      <trkpt lat="44.10075" lon="5.40938">
        <ele>712</ele>
      </trkpt>
      <trkpt lat="44.10096" lon="5.40943">
        <ele>714</ele>
      </trkpt>
      <trkpt lat="44.1012" lon="5.4094">
        <ele>714</ele>
      </trkpt>
      <trkpt lat="44.10193" lon="5.40915">
        <ele>706</ele>
      </trkpt>
      <trkpt lat="44.10239" lon="5.40917">
        <ele>704</ele>
      </trkpt>
      <trkpt lat="44.1035" lon="5.40958">
        <ele>706</ele>
      </trkpt>
      <trkpt lat="44.10378" lon="5.4097">
        <ele>707</ele>
      </trkpt>
      <trkpt lat="44.10567" lon="5.41066">
        <ele>710</ele>
      </trkpt>
      <trkpt lat="44.10743" lon="5.41152">
        <ele>714</ele>
      </trkpt>
      <trkpt lat="44.10787" lon="5.41176">
        <ele>713</ele>
      </trkpt>
      <trkpt lat="44.1084" lon="5.41225">
        <ele>714</ele>
      </trkpt>
      <trkpt lat="44.10882" lon="5.41251">
        <ele>717</ele>
      </trkpt>
      <trkpt lat="44.11037" lon="5.41307">
        <ele>722</ele>
      </trkpt>
      <trkpt lat="44.11041" lon="5.41316">
        <ele>722</ele>
      </trkpt>
      <trkpt lat="44.11075" lon="5.4134">
        <ele>724</ele>
      </trkpt>
      <trkpt lat="44.11246" lon="5.41438">
        <ele>733</ele>
      </trkpt>
      <trkpt lat="44.1129" lon="5.41474">
        <ele>732</ele>
      </trkpt>
      <trkpt lat="44.11381" lon="5.41591">
        <ele>736</ele>
      </trkpt>
      <trkpt lat="44.11404" lon="5.41617">
        <ele>737</ele>
      </trkpt>
      <trkpt lat="44.11475" lon="5.41685">
        <ele>743</ele>
      </trkpt>
      <trkpt lat="44.11568" lon="5.41785">
        <ele>739</ele>
      </trkpt>
      <trkpt lat="44.11596" lon="5.41823">
        <ele>740</ele>
      </trkpt>
      <trkpt lat="44.11627" lon="5.41877">
        <ele>744</ele>
      </trkpt>
      <trkpt lat="44.11724" lon="5.41992">
        <ele>749</ele>
      </trkpt>
      <trkpt lat="44.11739" lon="5.42006">
        <ele>747</ele>
      </trkpt>
      <trkpt lat="44.11788" lon="5.42046">
        <ele>746</ele>
      </trkpt>
      <trkpt lat="44.11895" lon="5.42166">
        <ele>750</ele>
      </trkpt>
      <trkpt lat="44.1193" lon="5.42191">
        <ele>751</ele>
      </trkpt>
      <trkpt lat="44.11951" lon="5.42199">
        <ele>751</ele>
      </trkpt>
      <trkpt lat="44.11971" lon="5.42202">
        <ele>751</ele>
      </trkpt>
      <trkpt lat="44.12134" lon="5.42243">
        <ele>762</ele>
      </trkpt>
      <trkpt lat="44.12249" lon="5.42259">
        <ele>767</ele>
      </trkpt>
      <trkpt lat="44.12299" lon="5.42273">
        <ele>769</ele>
      </trkpt>
      <trkpt lat="44.12321" lon="5.42287">
        <ele>769</ele>
      </trkpt>
      <trkpt lat="44.12319" lon="5.42302">
        <ele>768</ele>
      </trkpt>
      <trkpt lat="44.12327" lon="5.42311">
        <ele>768</ele>
      </trkpt>
      <trkpt lat="44.12339" lon="5.42335">
        <ele>767</ele>
      </trkpt>
      <trkpt lat="44.12365" lon="5.4239">
        <ele>767</ele>
      </trkpt>
      <trkpt lat="44.12393" lon="5.42439">
        <ele>772</ele>
      </trkpt>
      <trkpt lat="44.12411" lon="5.42466">
        <ele>775</ele>
      </trkpt>
      <trkpt lat="44.1244" lon="5.42499">
        <ele>774</ele>
      </trkpt>
      <trkpt lat="44.12474" lon="5.42528">
        <ele>774</ele>
      </trkpt>
      <trkpt lat="44.12493" lon="5.42547">
        <ele>775</ele>
      </trkpt>
      <trkpt lat="44.12527" lon="5.42594">
        <ele>776</ele>
      </trkpt>
      <trkpt lat="44.12543" lon="5.42613">
        <ele>776</ele>
      </trkpt>
      <trkpt lat="44.12564" lon="5.42628">
        <ele>779</ele>
      </trkpt>
      <trkpt lat="44.12612" lon="5.42645">
        <ele>778</ele>
      </trkpt>
      <trkpt lat="44.12667" lon="5.42661">
        <ele>781</ele>
      </trkpt>
      <trkpt lat="44.12696" lon="5.42672">
        <ele>781</ele>
      </trkpt>
      <trkpt lat="44.12755" lon="5.42704">
        <ele>783</ele>
      </trkpt>
      <trkpt lat="44.12768" lon="5.42707">
        <ele>786</ele>
      </trkpt>
      <trkpt lat="44.12797" lon="5.4271">
        <ele>783</ele>
      </trkpt>
      <trkpt lat="44.12804" lon="5.42713">
        <ele>783</ele>
      </trkpt>
      <trkpt lat="44.12813" lon="5.42718">
        <ele>781</ele>
      </trkpt>
      <trkpt lat="44.12836" lon="5.42743">
        <ele>784</ele>
      </trkpt>
      <trkpt lat="44.1286" lon="5.42764">
        <ele>787</ele>
      </trkpt>
      <trkpt lat="44.12894" lon="5.4279">
        <ele>793</ele>
      </trkpt>
      <trkpt lat="44.12914" lon="5.42799">
        <ele>794</ele>
      </trkpt>
      <trkpt lat="44.12927" lon="5.42799">
        <ele>796</ele>
      </trkpt>
      <trkpt lat="44.12932" lon="5.42796">
        <ele>796</ele>
      </trkpt>
      <trkpt lat="44.12936" lon="5.42791">
        <ele>796</ele>
      </trkpt>
      <trkpt lat="44.12939" lon="5.42773">
        <ele>797</ele>
      </trkpt>
      <trkpt lat="44.12938" lon="5.42763">
        <ele>797</ele>
      </trkpt>
      <trkpt lat="44.12916" lon="5.42721">
        <ele>791</ele>
      </trkpt>
      <trkpt lat="44.12913" lon="5.42704">
        <ele>789</ele>
      </trkpt>
      <trkpt lat="44.12915" lon="5.42693">
        <ele>789</ele>
      </trkpt>
      <trkpt lat="44.1292" lon="5.4268">
        <ele>788</ele>
      </trkpt>
      <trkpt lat="44.12928" lon="5.42668">
        <ele>783</ele>
      </trkpt>
      <trkpt lat="44.12937" lon="5.42661">
        <ele>782</ele>
      </trkpt>
      <trkpt lat="44.12948" lon="5.42657">
        <ele>780</ele>
      </trkpt>
      <trkpt lat="44.12966" lon="5.42656">
        <ele>776</ele>
      </trkpt>
      <trkpt lat="44.12979" lon="5.4266">
        <ele>771</ele>
      </trkpt>
      <trkpt lat="44.13015" lon="5.42686">
        <ele>773</ele>
      </trkpt>
      <trkpt lat="44.13066" lon="5.42725">
        <ele>770</ele>
      </trkpt>
      <trkpt lat="44.13081" lon="5.42732">
        <ele>769</ele>
      </trkpt>
      <trkpt lat="44.13156" lon="5.42751">
        <ele>772</ele>
      </trkpt>
      <trkpt lat="44.1316" lon="5.42761">
        <ele>774</ele>
      </trkpt>
      <trkpt lat="44.13163" lon="5.42764">
        <ele>778</ele>
      </trkpt>
      <trkpt lat="44.13177" lon="5.42768">
        <ele>779</ele>
      </trkpt>
      <trkpt lat="44.132" lon="5.4277">
        <ele>781</ele>
      </trkpt>
      <trkpt lat="44.13223" lon="5.42766">
        <ele>781</ele>
      </trkpt>
      <trkpt lat="44.13283" lon="5.4275">
        <ele>785</ele>
      </trkpt>
      <trkpt lat="44.13315" lon="5.42736">
        <ele>788</ele>
      </trkpt>
      <trkpt lat="44.13333" lon="5.42723">
        <ele>787</ele>
      </trkpt>
      <trkpt lat="44.13343" lon="5.4271">
        <ele>789</ele>
      </trkpt>
      <trkpt lat="44.13369" lon="5.42645">
        <ele>783</ele>
      </trkpt>
      <trkpt lat="44.13374" lon="5.42638">
        <ele>783</ele>
      </trkpt>
      <trkpt lat="44.13382" lon="5.42633">
        <ele>783</ele>
      </trkpt>
      <trkpt lat="44.13459" lon="5.42603">
        <ele>782</ele>
      </trkpt>
      <trkpt lat="44.13471" lon="5.42602">
        <ele>782</ele>
      </trkpt>
      <trkpt lat="44.13506" lon="5.42604">
        <ele>783</ele>
      </trkpt>
      <trkpt lat="44.1352" lon="5.42596">
        <ele>783</ele>
      </trkpt>
      <trkpt lat="44.13537" lon="5.42582">
        <ele>782</ele>
      </trkpt>
      <trkpt lat="44.1356" lon="5.42553">
        <ele>780</ele>
      </trkpt>
      <trkpt lat="44.13588" lon="5.42508">
        <ele>779</ele>
      </trkpt>
      <trkpt lat="44.13598" lon="5.425">
        <ele>779</ele>
      </trkpt>
      <trkpt lat="44.13699" lon="5.4246">
        <ele>772</ele>
      </trkpt>
      <trkpt lat="44.13721" lon="5.42444">
        <ele>773</ele>
      </trkpt>
      <trkpt lat="44.13749" lon="5.42438">
        <ele>771</ele>
      </trkpt>
      <trkpt lat="44.13765" lon="5.42441">
        <ele>769</ele>
      </trkpt>
      <trkpt lat="44.13785" lon="5.42449">
        <ele>767</ele>
      </trkpt>
      <trkpt lat="44.138" lon="5.42459">
        <ele>767</ele>
      </trkpt>
      <trkpt lat="44.13812" lon="5.42475">
        <ele>765</ele>
      </trkpt>
      <trkpt lat="44.13823" lon="5.42491">
        <ele>764</ele>
      </trkpt>
      <trkpt lat="44.1383" lon="5.4251">
        <ele>764</ele>
      </trkpt>
      <trkpt lat="44.13846" lon="5.42566">
        <ele>759</ele>
      </trkpt>
      <trkpt lat="44.13867" lon="5.42605">
        <ele>760</ele>
      </trkpt>
      <trkpt lat="44.13874" lon="5.4261">
        <ele>760</ele>
      </trkpt>
      <trkpt lat="44.13882" lon="5.42612">
        <ele>760</ele>
      </trkpt>
      <trkpt lat="44.13921" lon="5.42605">
        <ele>755</ele>
      </trkpt>
      <trkpt lat="44.13941" lon="5.42608">
        <ele>755</ele>
      </trkpt>
      <trkpt lat="44.13946" lon="5.42615">
        <ele>754</ele>
      </trkpt>
      <trkpt lat="44.13975" lon="5.4269">
        <ele>755</ele>
      </trkpt>
      <trkpt lat="44.13982" lon="5.42702">
        <ele>754</ele>
      </trkpt>
      <trkpt lat="44.13989" lon="5.4271">
        <ele>755</ele>
      </trkpt>
      <trkpt lat="44.14023" lon="5.42723">
        <ele>753</ele>
      </trkpt>
      <trkpt lat="44.14036" lon="5.42733">
        <ele>752</ele>
      </trkpt>
      <trkpt lat="44.14056" lon="5.42754">
        <ele>753</ele>
      </trkpt>
      <trkpt lat="44.14071" lon="5.42776">
        <ele>752</ele>
      </trkpt>
      <trkpt lat="44.14087" lon="5.42802">
        <ele>753</ele>
      </trkpt>
      <trkpt lat="44.14101" lon="5.42816">
        <ele>750</ele>
      </trkpt>
      <trkpt lat="44.1412" lon="5.42829">
        <ele>745</ele>
      </trkpt>
      <trkpt lat="44.14138" lon="5.42845">
        <ele>744</ele>
      </trkpt>
      <trkpt lat="44.14145" lon="5.42856">
        <ele>742</ele>
      </trkpt>
      <trkpt lat="44.14149" lon="5.42873">
        <ele>741</ele>
      </trkpt>
      <trkpt lat="44.14149" lon="5.42888">
        <ele>740</ele>
      </trkpt>
      <trkpt lat="44.14145" lon="5.42908">
        <ele>737</ele>
      </trkpt>
      <trkpt lat="44.14125" lon="5.42945">
        <ele>736</ele>
      </trkpt>
      <trkpt lat="44.14119" lon="5.42967">
        <ele>732</ele>
      </trkpt>
      <trkpt lat="44.14115" lon="5.42995">
        <ele>730</ele>
      </trkpt>
      <trkpt lat="44.1411" lon="5.43009">
        <ele>730</ele>
      </trkpt>
      <trkpt lat="44.14102" lon="5.43023">
        <ele>726</ele>
      </trkpt>
      <trkpt lat="44.14071" lon="5.43064">
        <ele>727</ele>
      </trkpt>
      <trkpt lat="44.14069" lon="5.43075">
        <ele>725</ele>
      </trkpt>
      <trkpt lat="44.14071" lon="5.4308">
        <ele>724</ele>
      </trkpt>
      <trkpt lat="44.14075" lon="5.43082">
        <ele>724</ele>
      </trkpt>
      <trkpt lat="44.14079" lon="5.43081">
        <ele>724</ele>
      </trkpt>
      <trkpt lat="44.14099" lon="5.4307">
        <ele>719</ele>
      </trkpt>
      <trkpt lat="44.14161" lon="5.43026">
        <ele>717</ele>
      </trkpt>
      <trkpt lat="44.14176" lon="5.43019">
        <ele>714</ele>
      </trkpt>
      <trkpt lat="44.14192" lon="5.43015">
        <ele>714</ele>
      </trkpt>
      <trkpt lat="44.14202" lon="5.43017">
        <ele>711</ele>
      </trkpt>
      <trkpt lat="44.14226" lon="5.43033">
        <ele>709</ele>
      </trkpt>
      <trkpt lat="44.14236" lon="5.43036">
        <ele>707</ele>
      </trkpt>
      <trkpt lat="44.14276" lon="5.43039">
        <ele>705</ele>
      </trkpt>
      <trkpt lat="44.14287" lon="5.43042">
        <ele>703</ele>
      </trkpt>
      <trkpt lat="44.14298" lon="5.43049">
        <ele>703</ele>
      </trkpt>
      <trkpt lat="44.14323" lon="5.43071">
        <ele>703</ele>
      </trkpt>
      <trkpt lat="44.1433" lon="5.43076">
        <ele>703</ele>
      </trkpt>
      <trkpt lat="44.14344" lon="5.43079">
        <ele>703</ele>
      </trkpt>
      <trkpt lat="44.14375" lon="5.43079">
        <ele>702</ele>
      </trkpt>
      <trkpt lat="44.14523" lon="5.43056">
        <ele>695</ele>
      </trkpt>
      <trkpt lat="44.14537" lon="5.43057">
        <ele>694</ele>
      </trkpt>
      <trkpt lat="44.1455" lon="5.43072">
        <ele>696</ele>
      </trkpt>
      <trkpt lat="44.14557" lon="5.43077">
        <ele>696</ele>
      </trkpt>
      <trkpt lat="44.14593" lon="5.43083">
        <ele>691</ele>
      </trkpt>
      <trkpt lat="44.14656" lon="5.43108">
        <ele>687</ele>
      </trkpt>
      <trkpt lat="44.14672" lon="5.43121">
        <ele>684</ele>
      </trkpt>
      <trkpt lat="44.14687" lon="5.43122">
        <ele>683</ele>
      </trkpt>
      <trkpt lat="44.14702" lon="5.43129">
        <ele>679</ele>
      </trkpt>
      <trkpt lat="44.14713" lon="5.43137">
        <ele>679</ele>
      </trkpt>
      <trkpt lat="44.14727" lon="5.43151">
        <ele>674</ele>
      </trkpt>
      <trkpt lat="44.14737" lon="5.43164">
        <ele>673</ele>
      </trkpt>
      <trkpt lat="44.14785" lon="5.43206">
        <ele>664</ele>
      </trkpt>
      <trkpt lat="44.14858" lon="5.43283">
        <ele>656</ele>
      </trkpt>
      <trkpt lat="44.14913" lon="5.43313">
        <ele>650</ele>
      </trkpt>
      <trkpt lat="44.14942" lon="5.43321">
        <ele>646</ele>
      </trkpt>
      <trkpt lat="44.14972" lon="5.43349">
        <ele>639</ele>
      </trkpt>
      <trkpt lat="44.15017" lon="5.43364">
        <ele>637</ele>
      </trkpt>
      <trkpt lat="44.15048" lon="5.43391">
        <ele>630</ele>
      </trkpt>
      <trkpt lat="44.15074" lon="5.43409">
        <ele>625</ele>
      </trkpt>
      <trkpt lat="44.15154" lon="5.43449">
        <ele>612</ele>
      </trkpt>
      <trkpt lat="44.15161" lon="5.43454">
        <ele>612</ele>
      </trkpt>
      <trkpt lat="44.15188" lon="5.43492">
        <ele>610</ele>
      </trkpt>
      <trkpt lat="44.15196" lon="5.43494">
        <ele>611</ele>
      </trkpt>
      <trkpt lat="44.15227" lon="5.43478">
        <ele>613</ele>
      </trkpt>
      <trkpt lat="44.15234" lon="5.43478">
        <ele>613</ele>
      </trkpt>
      <trkpt lat="44.1527" lon="5.43493">
        <ele>614</ele>
      </trkpt>
      <trkpt lat="44.15293" lon="5.43494">
        <ele>616</ele>
      </trkpt>
      <trkpt lat="44.15307" lon="5.4349">
        <ele>617</ele>
      </trkpt>
      <trkpt lat="44.15356" lon="5.43544">
        <ele>616</ele>
      </trkpt>
      <trkpt lat="44.1537" lon="5.43557">
        <ele>616</ele>
      </trkpt>
      <trkpt lat="44.15384" lon="5.43563">
        <ele>616</ele>
      </trkpt>
      <trkpt lat="44.15397" lon="5.43565">
        <ele>616</ele>
      </trkpt>
      <trkpt lat="44.15445" lon="5.43564">
        <ele>619</ele>
      </trkpt>
      <trkpt lat="44.15472" lon="5.43565">
        <ele>623</ele>
      </trkpt>
      <trkpt lat="44.15502" lon="5.43571">
        <ele>619</ele>
      </trkpt>
      <trkpt lat="44.15546" lon="5.43589">
        <ele>613</ele>
      </trkpt>
      <trkpt lat="44.15555" lon="5.4359">
        <ele>613</ele>
      </trkpt>
      <trkpt lat="44.15564" lon="5.43589">
        <ele>613</ele>
      </trkpt>
      <trkpt lat="44.15579" lon="5.43581">
        <ele>613</ele>
      </trkpt>
      <trkpt lat="44.15591" lon="5.43567">
        <ele>614</ele>
      </trkpt>
      <trkpt lat="44.15607" lon="5.43539">
        <ele>618</ele>
      </trkpt>
      <trkpt lat="44.15619" lon="5.43523">
        <ele>617</ele>
      </trkpt>
      <trkpt lat="44.15628" lon="5.43517">
        <ele>617</ele>
      </trkpt>
      <trkpt lat="44.15638" lon="5.43516">
        <ele>617</ele>
      </trkpt>
      <trkpt lat="44.15663" lon="5.4352">
        <ele>613</ele>
      </trkpt>
      <trkpt lat="44.15713" lon="5.43497">
        <ele>608</ele>
      </trkpt>
      <trkpt lat="44.15771" lon="5.43485">
        <ele>603</ele>
      </trkpt>
      <trkpt lat="44.15796" lon="5.43479">
        <ele>600</ele>
      </trkpt>
      <trkpt lat="44.15809" lon="5.43473">
        <ele>600</ele>
      </trkpt>
      <trkpt lat="44.15847" lon="5.43434">
        <ele>600</ele>
      </trkpt>
      <trkpt lat="44.15855" lon="5.43423">
        <ele>598</ele>
      </trkpt>
      <trkpt lat="44.15876" lon="5.43374">
        <ele>594</ele>
      </trkpt>
      <trkpt lat="44.15884" lon="5.43366">
        <ele>594</ele>
      </trkpt>
      <trkpt lat="44.15894" lon="5.43358">
        <ele>592</ele>
      </trkpt>
      <trkpt lat="44.1591" lon="5.43351">
        <ele>591</ele>
      </trkpt>
      <trkpt lat="44.15923" lon="5.43347">
        <ele>590</ele>
      </trkpt>
      <trkpt lat="44.15946" lon="5.43344">
        <ele>590</ele>
      </trkpt>
      <trkpt lat="44.15962" lon="5.43338">
        <ele>588</ele>
      </trkpt>
      <trkpt lat="44.1602" lon="5.43298">
        <ele>587</ele>
      </trkpt>
      <trkpt lat="44.16029" lon="5.43293">
        <ele>588</ele>
      </trkpt>
      <trkpt lat="44.16036" lon="5.43291">
        <ele>590</ele>
      </trkpt>
      <trkpt lat="44.16056" lon="5.43292">
        <ele>591</ele>
      </trkpt>
      <trkpt lat="44.16069" lon="5.43291">
        <ele>595</ele>
      </trkpt>
      <trkpt lat="44.16083" lon="5.43287">
        <ele>591</ele>
      </trkpt>
      <trkpt lat="44.16102" lon="5.43276">
        <ele>593</ele>
      </trkpt>
      <trkpt lat="44.1621" lon="5.43191">
        <ele>589</ele>
      </trkpt>
      <trkpt lat="44.16282" lon="5.43152">
        <ele>587</ele>
      </trkpt>
      <trkpt lat="44.16308" lon="5.43141">
        <ele>584</ele>
      </trkpt>
      <trkpt lat="44.16322" lon="5.43138">
        <ele>581</ele>
      </trkpt>
      <trkpt lat="44.16343" lon="5.43139">
        <ele>577</ele>
      </trkpt>
      <trkpt lat="44.16471" lon="5.43181">
        <ele>574</ele>
      </trkpt>
      <trkpt lat="44.1647" lon="5.43154">
        <ele>573</ele>
      </trkpt>
      <trkpt lat="44.16473" lon="5.43138">
        <ele>571</ele>
      </trkpt>
      <trkpt lat="44.16672" lon="5.42772">
        <ele>562</ele>
      </trkpt>
      <trkpt lat="44.16679" lon="5.42751">
        <ele>562</ele>
      </trkpt>
      <trkpt lat="44.16685" lon="5.42715">
        <ele>562</ele>
      </trkpt>
      <trkpt lat="44.16714" lon="5.42145">
        <ele>564</ele>
      </trkpt>
      <trkpt lat="44.16717" lon="5.42104">
        <ele>569</ele>
      </trkpt>
      <trkpt lat="44.16721" lon="5.42084">
        <ele>571</ele>
      </trkpt>
      <trkpt lat="44.16756" lon="5.41959">
        <ele>584</ele>
      </trkpt>
      <trkpt lat="44.16769" lon="5.41924">
        <ele>575</ele>
      </trkpt>
      <trkpt lat="44.16791" lon="5.41893">
        <ele>573</ele>
      </trkpt>
      <trkpt lat="44.16849" lon="5.41841">
        <ele>567</ele>
      </trkpt>
      <trkpt lat="44.16895" lon="5.41803">
        <ele>569</ele>
      </trkpt>
      <trkpt lat="44.16912" lon="5.41783">
        <ele>568</ele>
      </trkpt>
      <trkpt lat="44.16924" lon="5.41757">
        <ele>576</ele>
      </trkpt>
      <trkpt lat="44.16929" lon="5.41736">
        <ele>577</ele>
      </trkpt>
      <trkpt lat="44.16946" lon="5.41647">
        <ele>581</ele>
      </trkpt>
      <trkpt lat="44.16967" lon="5.41554">
        <ele>587</ele>
      </trkpt>
      <trkpt lat="44.16979" lon="5.41448">
        <ele>586</ele>
      </trkpt>
      <trkpt lat="44.16987" lon="5.41413">
        <ele>582</ele>
      </trkpt>
      <trkpt lat="44.16992" lon="5.41398">
        <ele>578</ele>
      </trkpt>
      <trkpt lat="44.17033" lon="5.41312">
        <ele>577</ele>
      </trkpt>
      <trkpt lat="44.17049" lon="5.41282">
        <ele>571</ele>
      </trkpt>
      <trkpt lat="44.17077" lon="5.41238">
        <ele>578</ele>
      </trkpt>
      <trkpt lat="44.17084" lon="5.41222">
        <ele>576</ele>
      </trkpt>
      <trkpt lat="44.17088" lon="5.41205">
        <ele>576</ele>
      </trkpt>
      <trkpt lat="44.1709" lon="5.41186">
        <ele>586</ele>
      </trkpt>
      <trkpt lat="44.1709" lon="5.41168">
        <ele>585</ele>
      </trkpt>
      <trkpt lat="44.17083" lon="5.41114">
        <ele>569</ele>
      </trkpt>
      <trkpt lat="44.17083" lon="5.41094">
        <ele>566</ele>
      </trkpt>
      <trkpt lat="44.17085" lon="5.41075">
        <ele>566</ele>
      </trkpt>
      <trkpt lat="44.17089" lon="5.41054">
        <ele>570</ele>
      </trkpt>
      <trkpt lat="44.17099" lon="5.41017">
        <ele>567</ele>
      </trkpt>
      <trkpt lat="44.17152" lon="5.40888">
        <ele>568</ele>
      </trkpt>
      <trkpt lat="44.17161" lon="5.40873">
        <ele>568</ele>
      </trkpt>
      <trkpt lat="44.17193" lon="5.40834">
        <ele>563</ele>
      </trkpt>
      <trkpt lat="44.17203" lon="5.40819">
        <ele>567</ele>
      </trkpt>
      <trkpt lat="44.17212" lon="5.40798">
        <ele>562</ele>
      </trkpt>
      <trkpt lat="44.1722" lon="5.40771">
        <ele>557</ele>
      </trkpt>
      <trkpt lat="44.17226" lon="5.40757">
        <ele>553</ele>
      </trkpt>
      <trkpt lat="44.17235" lon="5.40746">
        <ele>555</ele>
      </trkpt>
      <trkpt lat="44.17261" lon="5.40723">
        <ele>555</ele>
      </trkpt>
      <trkpt lat="44.17283" lon="5.40702">
        <ele>554</ele>
      </trkpt>
      <trkpt lat="44.17306" lon="5.40668">
        <ele>550</ele>
      </trkpt>
      <trkpt lat="44.17332" lon="5.40621">
        <ele>548</ele>
      </trkpt>
      <trkpt lat="44.17353" lon="5.4059">
        <ele>549</ele>
      </trkpt>
      <trkpt lat="44.17377" lon="5.40566">
        <ele>549</ele>
      </trkpt>
      <trkpt lat="44.17453" lon="5.40506">
        <ele>559</ele>
      </trkpt>
      <trkpt lat="44.17465" lon="5.40494">
        <ele>560</ele>
      </trkpt>
      <trkpt lat="44.17475" lon="5.4048">
        <ele>559</ele>
      </trkpt>
      <trkpt lat="44.17482" lon="5.40464">
        <ele>566</ele>
      </trkpt>
      <trkpt lat="44.17488" lon="5.40441">
        <ele>564</ele>
      </trkpt>
      <trkpt lat="44.175" lon="5.4032">
        <ele>557</ele>
      </trkpt>
      <trkpt lat="44.17501" lon="5.40238">
        <ele>551</ele>
      </trkpt>
      <trkpt lat="44.17511" lon="5.40211">
        <ele>552</ele>
      </trkpt>
      <trkpt lat="44.17533" lon="5.4018">
        <ele>547</ele>
      </trkpt>
      <trkpt lat="44.17543" lon="5.40171">
        <ele>544</ele>
      </trkpt>
      <trkpt lat="44.17553" lon="5.40165">
        <ele>543</ele>
      </trkpt>
      <trkpt lat="44.17564" lon="5.40162">
        <ele>541</ele>
      </trkpt>
      <trkpt lat="44.17575" lon="5.40163">
        <ele>540</ele>
      </trkpt>
      <trkpt lat="44.17624" lon="5.40183">
        <ele>543</ele>
      </trkpt>
      <trkpt lat="44.17635" lon="5.40184">
        <ele>544</ele>
      </trkpt>
      <trkpt lat="44.1764" lon="5.40182">
        <ele>544</ele>
      </trkpt>
      <trkpt lat="44.17657" lon="5.40169">
        <ele>543</ele>
      </trkpt>
      <trkpt lat="44.17763" lon="5.40054">
        <ele>555</ele>
      </trkpt>
      <trkpt lat="44.17777" lon="5.4003">
        <ele>551</ele>
      </trkpt>
      <trkpt lat="44.17798" lon="5.39986">
        <ele>553</ele>
      </trkpt>
      <trkpt lat="44.17843" lon="5.3988">
        <ele>551</ele>
      </trkpt>
      <trkpt lat="44.17868" lon="5.39815">
        <ele>545</ele>
      </trkpt>
      <trkpt lat="44.17902" lon="5.39712">
        <ele>542</ele>
      </trkpt>
      <trkpt lat="44.17955" lon="5.39535">
        <ele>535</ele>
      </trkpt>
      <trkpt lat="44.17981" lon="5.39469">
        <ele>528</ele>
      </trkpt>
      <trkpt lat="44.18061" lon="5.39303">
        <ele>519</ele>
      </trkpt>
      <trkpt lat="44.18133" lon="5.39149">
        <ele>516</ele>
      </trkpt>
      <trkpt lat="44.18312" lon="5.38781">
        <ele>516</ele>
      </trkpt>
      <trkpt lat="44.18329" lon="5.38744">
        <ele>517</ele>
      </trkpt>
      <trkpt lat="44.18335" lon="5.38719">
        <ele>517</ele>
      </trkpt>
      <trkpt lat="44.18338" lon="5.38687">
        <ele>517</ele>
      </trkpt>
      <trkpt lat="44.18336" lon="5.38656">
        <ele>518</ele>
      </trkpt>
      <trkpt lat="44.18278" lon="5.38337">
        <ele>518</ele>
      </trkpt>
      <trkpt lat="44.18254" lon="5.3821">
        <ele>516</ele>
      </trkpt>
      <trkpt lat="44.18243" lon="5.38159">
        <ele>516</ele>
      </trkpt>
      <trkpt lat="44.18207" lon="5.38067">
        <ele>518</ele>
      </trkpt>
      <trkpt lat="44.18201" lon="5.38045">
        <ele>521</ele>
      </trkpt>
      <trkpt lat="44.18196" lon="5.37998">
        <ele>525</ele>
      </trkpt>
      <trkpt lat="44.18194" lon="5.37923">
        <ele>527</ele>
      </trkpt>
      <trkpt lat="44.18189" lon="5.37891">
        <ele>525</ele>
      </trkpt>
      <trkpt lat="44.1818" lon="5.37852">
        <ele>521</ele>
      </trkpt>
      <trkpt lat="44.18163" lon="5.3781">
        <ele>510</ele>
      </trkpt>
      <trkpt lat="44.18134" lon="5.37756">
        <ele>506</ele>
      </trkpt>
      <trkpt lat="44.18121" lon="5.37724">
        <ele>506</ele>
      </trkpt>
      <trkpt lat="44.1811" lon="5.37691">
        <ele>507</ele>
      </trkpt>
      <trkpt lat="44.18106" lon="5.37673">
        <ele>506</ele>
      </trkpt>
      <trkpt lat="44.18103" lon="5.37636">
        <ele>506</ele>
      </trkpt>
      <trkpt lat="44.18105" lon="5.376">
        <ele>507</ele>
      </trkpt>
      <trkpt lat="44.1811" lon="5.37558">
        <ele>507</ele>
      </trkpt>
      <trkpt lat="44.18121" lon="5.37511">
        <ele>508</ele>
      </trkpt>
      <trkpt lat="44.18133" lon="5.37457">
        <ele>507</ele>
      </trkpt>
      <trkpt lat="44.18165" lon="5.37336">
        <ele>505</ele>
      </trkpt>
      <trkpt lat="44.18176" lon="5.37303">
        <ele>507</ele>
      </trkpt>
      <trkpt lat="44.18183" lon="5.37289">
        <ele>508</ele>
      </trkpt>
      <trkpt lat="44.18205" lon="5.37255">
        <ele>514</ele>
      </trkpt>
      <trkpt lat="44.18255" lon="5.3719">
        <ele>523</ele>
      </trkpt>
      <trkpt lat="44.1827" lon="5.37162">
        <ele>529</ele>
      </trkpt>
      <trkpt lat="44.18283" lon="5.3713">
        <ele>538</ele>
      </trkpt>
      <trkpt lat="44.18305" lon="5.37065">
        <ele>531</ele>
      </trkpt>
      <trkpt lat="44.18327" lon="5.36951">
        <ele>535</ele>
      </trkpt>
      <trkpt lat="44.18339" lon="5.36876">
        <ele>543</ele>
      </trkpt>
      <trkpt lat="44.1834" lon="5.3685">
        <ele>542</ele>
      </trkpt>
      <trkpt lat="44.18335" lon="5.36758">
        <ele>527</ele>
      </trkpt>
      <trkpt lat="44.18336" lon="5.36737">
        <ele>527</ele>
      </trkpt>
      <trkpt lat="44.18351" lon="5.36629">
        <ele>527</ele>
      </trkpt>
      <trkpt lat="44.18373" lon="5.36429">
        <ele>530</ele>
      </trkpt>
      <trkpt lat="44.18377" lon="5.36298">
        <ele>513</ele>
      </trkpt>
      <trkpt lat="44.18386" lon="5.36175">
        <ele>512</ele>
      </trkpt>
      <trkpt lat="44.18385" lon="5.36106">
        <ele>517</ele>
      </trkpt>
      <trkpt lat="44.18389" lon="5.36064">
        <ele>519</ele>
      </trkpt>
      <trkpt lat="44.18425" lon="5.3586">
        <ele>531</ele>
      </trkpt>
      <trkpt lat="44.1843" lon="5.35802">
        <ele>524</ele>
      </trkpt>
      <trkpt lat="44.18443" lon="5.35738">
        <ele>521</ele>
      </trkpt>
      <trkpt lat="44.18449" lon="5.35693">
        <ele>518</ele>
      </trkpt>
      <trkpt lat="44.18449" lon="5.35593">
        <ele>511</ele>
      </trkpt>
      <trkpt lat="44.18445" lon="5.35524">
        <ele>510</ele>
      </trkpt>
      <trkpt lat="44.18445" lon="5.35481">
        <ele>512</ele>
      </trkpt>
      <trkpt lat="44.18457" lon="5.35409">
        <ele>521</ele>
      </trkpt>
      <trkpt lat="44.18468" lon="5.35323">
        <ele>512</ele>
      </trkpt>
      <trkpt lat="44.18482" lon="5.35253">
        <ele>515</ele>
      </trkpt>
      <trkpt lat="44.18492" lon="5.35193">
        <ele>509</ele>
      </trkpt>
      <trkpt lat="44.18496" lon="5.3516">
        <ele>506</ele>
      </trkpt>
      <trkpt lat="44.18504" lon="5.35126">
        <ele>507</ele>
      </trkpt>
      <trkpt lat="44.18507" lon="5.35107">
        <ele>514</ele>
      </trkpt>
      <trkpt lat="44.18508" lon="5.35086">
        <ele>511</ele>
      </trkpt>
      <trkpt lat="44.18504" lon="5.35042">
        <ele>500</ele>
      </trkpt>
      <trkpt lat="44.18504" lon="5.3502">
        <ele>498</ele>
      </trkpt>
      <trkpt lat="44.18506" lon="5.34997">
        <ele>502</ele>
      </trkpt>
      <trkpt lat="44.1851" lon="5.34971">
        <ele>501</ele>
      </trkpt>
      <trkpt lat="44.18525" lon="5.34931">
        <ele>498</ele>
      </trkpt>
      <trkpt lat="44.18553" lon="5.34871">
        <ele>497</ele>
      </trkpt>
      <trkpt lat="44.18584" lon="5.34811">
        <ele>492</ele>
      </trkpt>
      <trkpt lat="44.18591" lon="5.34791">
        <ele>496</ele>
      </trkpt>
      <trkpt lat="44.18605" lon="5.34737">
        <ele>496</ele>
      </trkpt>
      <trkpt lat="44.18612" lon="5.34701">
        <ele>498</ele>
      </trkpt>
      <trkpt lat="44.18616" lon="5.3466">
        <ele>501</ele>
      </trkpt>
      <trkpt lat="44.18623" lon="5.34621">
        <ele>511</ele>
      </trkpt>
      <trkpt lat="44.18638" lon="5.34564">
        <ele>503</ele>
      </trkpt>
      <trkpt lat="44.18654" lon="5.34525">
        <ele>509</ele>
      </trkpt>
      <trkpt lat="44.18665" lon="5.34504">
        <ele>501</ele>
      </trkpt>
      <trkpt lat="44.18691" lon="5.34469">
        <ele>501</ele>
      </trkpt>
      <trkpt lat="44.1875" lon="5.34406">
        <ele>506</ele>
      </trkpt>
      <trkpt lat="44.18792" lon="5.34354">
        <ele>517</ele>
      </trkpt>
      <trkpt lat="44.18814" lon="5.34318">
        <ele>523</ele>
      </trkpt>
      <trkpt lat="44.1883" lon="5.34285">
        <ele>515</ele>
      </trkpt>
      <trkpt lat="44.18835" lon="5.34269">
        <ele>515</ele>
      </trkpt>
      <trkpt lat="44.18838" lon="5.34252">
        <ele>512</ele>
      </trkpt>
      <trkpt lat="44.18842" lon="5.34192">
        <ele>520</ele>
      </trkpt>
      <trkpt lat="44.18852" lon="5.34126">
        <ele>516</ele>
      </trkpt>
      <trkpt lat="44.18852" lon="5.34104">
        <ele>515</ele>
      </trkpt>
      <trkpt lat="44.18846" lon="5.34032">
        <ele>510</ele>
      </trkpt>
      <trkpt lat="44.18843" lon="5.3398">
        <ele>508</ele>
      </trkpt>
      <trkpt lat="44.18843" lon="5.33934">
        <ele>506</ele>
      </trkpt>
      <trkpt lat="44.18847" lon="5.33881">
        <ele>504</ele>
      </trkpt>
      <trkpt lat="44.18847" lon="5.33854">
        <ele>503</ele>
      </trkpt>
      <trkpt lat="44.18839" lon="5.33792">
        <ele>498</ele>
      </trkpt>
      <trkpt lat="44.18842" lon="5.3378">
        <ele>495</ele>
      </trkpt>
      <trkpt lat="44.18848" lon="5.33768">
        <ele>494</ele>
      </trkpt>
      <trkpt lat="44.18883" lon="5.3374">
        <ele>503</ele>
      </trkpt>
      <trkpt lat="44.18916" lon="5.33705">
        <ele>503</ele>
      </trkpt>
      <trkpt lat="44.18949" lon="5.33653">
        <ele>497</ele>
      </trkpt>
      <trkpt lat="44.18995" lon="5.33575">
        <ele>501</ele>
      </trkpt>
      <trkpt lat="44.19005" lon="5.33555">
        <ele>495</ele>
      </trkpt>
      <trkpt lat="44.19036" lon="5.33473">
        <ele>494</ele>
      </trkpt>
      <trkpt lat="44.19072" lon="5.33392">
        <ele>481</ele>
      </trkpt>
      <trkpt lat="44.19077" lon="5.33375">
        <ele>481</ele>
      </trkpt>
      <trkpt lat="44.19081" lon="5.33342">
        <ele>480</ele>
      </trkpt>
      <trkpt lat="44.19088" lon="5.33317">
        <ele>480</ele>
      </trkpt>
      <trkpt lat="44.19094" lon="5.33307">
        <ele>486</ele>
      </trkpt>
      <trkpt lat="44.1912" lon="5.33273">
        <ele>495</ele>
      </trkpt>
      <trkpt lat="44.19143" lon="5.33225">
        <ele>485</ele>
      </trkpt>
      <trkpt lat="44.19173" lon="5.33155">
        <ele>487</ele>
      </trkpt>
      <trkpt lat="44.19188" lon="5.3313">
        <ele>481</ele>
      </trkpt>
      <trkpt lat="44.19212" lon="5.33094">
        <ele>482</ele>
      </trkpt>
      <trkpt lat="44.19246" lon="5.33058">
        <ele>477</ele>
      </trkpt>
      <trkpt lat="44.19269" lon="5.33031">
        <ele>481</ele>
      </trkpt>
      <trkpt lat="44.19296" lon="5.32988">
        <ele>487</ele>
      </trkpt>
      <trkpt lat="44.19319" lon="5.32944">
        <ele>490</ele>
      </trkpt>
      <trkpt lat="44.19326" lon="5.32926">
        <ele>491</ele>
      </trkpt>
      <trkpt lat="44.19338" lon="5.32885">
        <ele>488</ele>
      </trkpt>
      <trkpt lat="44.19355" lon="5.32801">
        <ele>492</ele>
      </trkpt>
      <trkpt lat="44.19361" lon="5.32737">
        <ele>485</ele>
      </trkpt>
      <trkpt lat="44.19365" lon="5.32719">
        <ele>482</ele>
      </trkpt>
      <trkpt lat="44.19407" lon="5.32595">
        <ele>491</ele>
      </trkpt>
      <trkpt lat="44.19414" lon="5.3257">
        <ele>486</ele>
      </trkpt>
      <trkpt lat="44.19423" lon="5.32501">
        <ele>490</ele>
      </trkpt>
      <trkpt lat="44.19427" lon="5.32477">
        <ele>486</ele>
      </trkpt>
      <trkpt lat="44.19451" lon="5.32383">
        <ele>489</ele>
      </trkpt>
      <trkpt lat="44.19457" lon="5.32338">
        <ele>486</ele>
      </trkpt>
      <trkpt lat="44.19458" lon="5.32288">
        <ele>486</ele>
      </trkpt>
      <trkpt lat="44.19456" lon="5.32263">
        <ele>487</ele>
      </trkpt>
      <trkpt lat="44.19447" lon="5.32193">
        <ele>472</ele>
      </trkpt>
      <trkpt lat="44.19446" lon="5.32175">
        <ele>470</ele>
      </trkpt>
      <trkpt lat="44.19447" lon="5.3216">
        <ele>470</ele>
      </trkpt>
      <trkpt lat="44.19454" lon="5.32126">
        <ele>480</ele>
      </trkpt>
      <trkpt lat="44.19471" lon="5.32078">
        <ele>473</ele>
      </trkpt>
      <trkpt lat="44.19478" lon="5.32052">
        <ele>472</ele>
      </trkpt>
      <trkpt lat="44.19484" lon="5.32024">
        <ele>466</ele>
      </trkpt>
      <trkpt lat="44.19503" lon="5.3191">
        <ele>460</ele>
      </trkpt>
      <trkpt lat="44.19521" lon="5.31774">
        <ele>472</ele>
      </trkpt>
      <trkpt lat="44.19527" lon="5.31661">
        <ele>465</ele>
      </trkpt>
      <trkpt lat="44.19531" lon="5.31635">
        <ele>465</ele>
      </trkpt>
      <trkpt lat="44.19537" lon="5.3161">
        <ele>473</ele>
      </trkpt>
      <trkpt lat="44.19545" lon="5.31587">
        <ele>471</ele>
      </trkpt>
      <trkpt lat="44.19602" lon="5.31439">
        <ele>461</ele>
      </trkpt>
      <trkpt lat="44.19622" lon="5.31394">
        <ele>459</ele>
      </trkpt>
      <trkpt lat="44.19633" lon="5.31375">
        <ele>458</ele>
      </trkpt>
      <trkpt lat="44.19645" lon="5.31359">
        <ele>462</ele>
      </trkpt>
      <trkpt lat="44.19672" lon="5.31329">
        <ele>459</ele>
      </trkpt>
      <trkpt lat="44.19684" lon="5.31311">
        <ele>464</ele>
      </trkpt>
      <trkpt lat="44.19693" lon="5.31292">
        <ele>463</ele>
      </trkpt>
      <trkpt lat="44.19701" lon="5.31271">
        <ele>470</ele>
      </trkpt>
      <trkpt lat="44.19706" lon="5.31248">
        <ele>467</ele>
      </trkpt>
      <trkpt lat="44.1971" lon="5.31225">
        <ele>464</ele>
      </trkpt>
      <trkpt lat="44.19714" lon="5.31178">
        <ele>460</ele>
      </trkpt>
      <trkpt lat="44.19719" lon="5.31156">
        <ele>457</ele>
      </trkpt>
      <trkpt lat="44.19726" lon="5.31135">
        <ele>454</ele>
      </trkpt>
      <trkpt lat="44.19735" lon="5.31116">
        <ele>459</ele>
      </trkpt>
      <trkpt lat="44.19772" lon="5.31063">
        <ele>459</ele>
      </trkpt>
      <trkpt lat="44.19783" lon="5.31044">
        <ele>459</ele>
      </trkpt>
      <trkpt lat="44.19792" lon="5.31024">
        <ele>464</ele>
      </trkpt>
      <trkpt lat="44.198" lon="5.31002">
        <ele>459</ele>
      </trkpt>
      <trkpt lat="44.19817" lon="5.30922">
        <ele>458</ele>
      </trkpt>
      <trkpt lat="44.1984" lon="5.30859">
        <ele>461</ele>
      </trkpt>
      <trkpt lat="44.19875" lon="5.30709">
        <ele>457</ele>
      </trkpt>
      <trkpt lat="44.19888" lon="5.30674">
        <ele>452</ele>
      </trkpt>
      <trkpt lat="44.19907" lon="5.30632">
        <ele>458</ele>
      </trkpt>
      <trkpt lat="44.19916" lon="5.30605">
        <ele>455</ele>
      </trkpt>
      <trkpt lat="44.19918" lon="5.30583">
        <ele>453</ele>
      </trkpt>
      <trkpt lat="44.19917" lon="5.3057">
        <ele>452</ele>
      </trkpt>
      <trkpt lat="44.19915" lon="5.30558">
        <ele>451</ele>
      </trkpt>
      <trkpt lat="44.19909" lon="5.30543">
        <ele>450</ele>
      </trkpt>
      <trkpt lat="44.19888" lon="5.30509">
        <ele>444</ele>
      </trkpt>
      <trkpt lat="44.19885" lon="5.30495">
        <ele>444</ele>
      </trkpt>
      <trkpt lat="44.19886" lon="5.30477">
        <ele>444</ele>
      </trkpt>
      <trkpt lat="44.19891" lon="5.30457">
        <ele>444</ele>
      </trkpt>
      <trkpt lat="44.19925" lon="5.30377">
        <ele>451</ele>
      </trkpt>
      <trkpt lat="44.19931" lon="5.30355">
        <ele>446</ele>
      </trkpt>
      <trkpt lat="44.19936" lon="5.30329">
        <ele>439</ele>
      </trkpt>
      <trkpt lat="44.19931" lon="5.30268">
        <ele>432</ele>
      </trkpt>
      <trkpt lat="44.19931" lon="5.30247">
        <ele>430</ele>
      </trkpt>
      <trkpt lat="44.19933" lon="5.30224">
        <ele>429</ele>
      </trkpt>
      <trkpt lat="44.19944" lon="5.30178">
        <ele>429</ele>
      </trkpt>
      <trkpt lat="44.19964" lon="5.3014">
        <ele>428</ele>
      </trkpt>
      <trkpt lat="44.19967" lon="5.30129">
        <ele>428</ele>
      </trkpt>
      <trkpt lat="44.19969" lon="5.30117">
        <ele>428</ele>
      </trkpt>
      <trkpt lat="44.19968" lon="5.30104">
        <ele>428</ele>
      </trkpt>
      <trkpt lat="44.19959" lon="5.30071">
        <ele>427</ele>
      </trkpt>
      <trkpt lat="44.19956" lon="5.30054">
        <ele>426</ele>
      </trkpt>
      <trkpt lat="44.19955" lon="5.30039">
        <ele>426</ele>
      </trkpt>
      <trkpt lat="44.19958" lon="5.30024">
        <ele>426</ele>
      </trkpt>
      <trkpt lat="44.19966" lon="5.29993">
        <ele>426</ele>
      </trkpt>
      <trkpt lat="44.19968" lon="5.29974">
        <ele>427</ele>
      </trkpt>
      <trkpt lat="44.19972" lon="5.29894">
        <ele>423</ele>
      </trkpt>
      <trkpt lat="44.1998" lon="5.29828">
        <ele>422</ele>
      </trkpt>
      <trkpt lat="44.19988" lon="5.29792">
        <ele>422</ele>
      </trkpt>
      <trkpt lat="44.20016" lon="5.29715">
        <ele>426</ele>
      </trkpt>
      <trkpt lat="44.20023" lon="5.29688">
        <ele>425</ele>
      </trkpt>
      <trkpt lat="44.20055" lon="5.29519">
        <ele>419</ele>
      </trkpt>
      <trkpt lat="44.20071" lon="5.29468">
        <ele>419</ele>
      </trkpt>
      <trkpt lat="44.20152" lon="5.29257">
        <ele>415</ele>
      </trkpt>
      <trkpt lat="44.20167" lon="5.29228">
        <ele>416</ele>
      </trkpt>
      <trkpt lat="44.20176" lon="5.29215">
        <ele>415</ele>
      </trkpt>
      <trkpt lat="44.2028" lon="5.29123">
        <ele>414</ele>
      </trkpt>
      <trkpt lat="44.20293" lon="5.29108">
        <ele>413</ele>
      </trkpt>
      <trkpt lat="44.20303" lon="5.29091">
        <ele>415</ele>
      </trkpt>
      <trkpt lat="44.20311" lon="5.29072">
        <ele>415</ele>
      </trkpt>
      <trkpt lat="44.20359" lon="5.28895">
        <ele>414</ele>
      </trkpt>
      <trkpt lat="44.20404" lon="5.28744">
        <ele>413</ele>
      </trkpt>
      <trkpt lat="44.20412" lon="5.28718">
        <ele>414</ele>
      </trkpt>
      <trkpt lat="44.20424" lon="5.28697">
        <ele>413</ele>
      </trkpt>
      <trkpt lat="44.20461" lon="5.28647">
        <ele>412</ele>
      </trkpt>
      <trkpt lat="44.20476" lon="5.28622">
        <ele>412</ele>
      </trkpt>
      <trkpt lat="44.20522" lon="5.28531">
        <ele>408</ele>
      </trkpt>
      <trkpt lat="44.20563" lon="5.28456">
        <ele>408</ele>
      </trkpt>
      <trkpt lat="44.20574" lon="5.28443">
        <ele>408</ele>
      </trkpt>
      <trkpt lat="44.20587" lon="5.28433">
        <ele>407</ele>
      </trkpt>
      <trkpt lat="44.20645" lon="5.28409">
        <ele>414</ele>
      </trkpt>
      <trkpt lat="44.20654" lon="5.28403">
        <ele>415</ele>
      </trkpt>
      <trkpt lat="44.20664" lon="5.28386">
        <ele>412</ele>
      </trkpt>
      <trkpt lat="44.20672" lon="5.28367">
        <ele>411</ele>
      </trkpt>
      <trkpt lat="44.20714" lon="5.28232">
        <ele>412</ele>
      </trkpt>
      <trkpt lat="44.20732" lon="5.28189">
        <ele>408</ele>
      </trkpt>
      <trkpt lat="44.20842" lon="5.2794">
        <ele>407</ele>
      </trkpt>
      <trkpt lat="44.20854" lon="5.27921">
        <ele>406</ele>
      </trkpt>
      <trkpt lat="44.20869" lon="5.27904">
        <ele>407</ele>
      </trkpt>
      <trkpt lat="44.20884" lon="5.27896">
        <ele>405</ele>
      </trkpt>
      <trkpt lat="44.20998" lon="5.27877">
        <ele>428</ele>
      </trkpt>
      <trkpt lat="44.21016" lon="5.27871">
        <ele>439</ele>
      </trkpt>
      <trkpt lat="44.21029" lon="5.27861">
        <ele>433</ele>
      </trkpt>
      <trkpt lat="44.21039" lon="5.27853">
        <ele>441</ele>
      </trkpt>
      <trkpt lat="44.21072" lon="5.27816">
        <ele>444</ele>
      </trkpt>
      <trkpt lat="44.21095" lon="5.27781">
        <ele>446</ele>
      </trkpt>
      <trkpt lat="44.21154" lon="5.27678">
        <ele>446</ele>
      </trkpt>
      <trkpt lat="44.21166" lon="5.27646">
        <ele>437</ele>
      </trkpt>
      <trkpt lat="44.21169" lon="5.27627">
        <ele>436</ele>
      </trkpt>
      <trkpt lat="44.21174" lon="5.27568">
        <ele>435</ele>
      </trkpt>
      <trkpt lat="44.21179" lon="5.27544">
        <ele>430</ele>
      </trkpt>
      <trkpt lat="44.21184" lon="5.2753">
        <ele>425</ele>
      </trkpt>
      <trkpt lat="44.21211" lon="5.27501">
        <ele>429</ele>
      </trkpt>
      <trkpt lat="44.21241" lon="5.27469">
        <ele>434</ele>
      </trkpt>
      <trkpt lat="44.21262" lon="5.27437">
        <ele>439</ele>
      </trkpt>
      <trkpt lat="44.21269" lon="5.27421">
        <ele>436</ele>
      </trkpt>
      <trkpt lat="44.21307" lon="5.27284">
        <ele>431</ele>
      </trkpt>
      <trkpt lat="44.21316" lon="5.27242">
        <ele>436</ele>
      </trkpt>
      <trkpt lat="44.21347" lon="5.27151">
        <ele>435</ele>
      </trkpt>
      <trkpt lat="44.21366" lon="5.27114">
        <ele>430</ele>
      </trkpt>
      <trkpt lat="44.21378" lon="5.27084">
        <ele>437</ele>
      </trkpt>
      <trkpt lat="44.21383" lon="5.27061">
        <ele>433</ele>
      </trkpt>
      <trkpt lat="44.21387" lon="5.27025">
        <ele>431</ele>
      </trkpt>
      <trkpt lat="44.21392" lon="5.27001">
        <ele>430</ele>
      </trkpt>
      <trkpt lat="44.21452" lon="5.26767">
        <ele>435</ele>
      </trkpt>
      <trkpt lat="44.21456" lon="5.26745">
        <ele>433</ele>
      </trkpt>
      <trkpt lat="44.21461" lon="5.26684">
        <ele>429</ele>
      </trkpt>
      <trkpt lat="44.21469" lon="5.26529">
        <ele>427</ele>
      </trkpt>
      <trkpt lat="44.21471" lon="5.26435">
        <ele>430</ele>
      </trkpt>
      <trkpt lat="44.21468" lon="5.26376">
        <ele>434</ele>
      </trkpt>
      <trkpt lat="44.21471" lon="5.26361">
        <ele>435</ele>
      </trkpt>
      <trkpt lat="44.21476" lon="5.26347">
        <ele>435</ele>
      </trkpt>
      <trkpt lat="44.215" lon="5.26309">
        <ele>441</ele>
      </trkpt>
      <trkpt lat="44.21523" lon="5.26269">
        <ele>446</ele>
      </trkpt>
      <trkpt lat="44.21539" lon="5.26245">
        <ele>450</ele>
      </trkpt>
      <trkpt lat="44.21554" lon="5.26227">
        <ele>451</ele>
      </trkpt>
      <trkpt lat="44.21558" lon="5.26216">
        <ele>451</ele>
      </trkpt>
      <trkpt lat="44.21558" lon="5.26203">
        <ele>451</ele>
      </trkpt>
      <trkpt lat="44.21553" lon="5.26174">
        <ele>450</ele>
      </trkpt>
      <trkpt lat="44.21552" lon="5.26157">
        <ele>450</ele>
      </trkpt>
      <trkpt lat="44.21553" lon="5.26139">
        <ele>450</ele>
      </trkpt>
      <trkpt lat="44.21557" lon="5.26121">
        <ele>451</ele>
      </trkpt>
      <trkpt lat="44.21567" lon="5.26083">
        <ele>461</ele>
      </trkpt>
      <trkpt lat="44.21596" lon="5.26013">
        <ele>463</ele>
      </trkpt>
      <trkpt lat="44.21614" lon="5.25953">
        <ele>456</ele>
      </trkpt>
      <trkpt lat="44.21617" lon="5.25937">
        <ele>454</ele>
      </trkpt>
      <trkpt lat="44.21618" lon="5.25918">
        <ele>459</ele>
      </trkpt>
      <trkpt lat="44.21617" lon="5.25855">
        <ele>453</ele>
      </trkpt>
      <trkpt lat="44.21623" lon="5.25794">
        <ele>463</ele>
      </trkpt>
      <trkpt lat="44.21624" lon="5.25693">
        <ele>461</ele>
      </trkpt>
      <trkpt lat="44.21627" lon="5.25675">
        <ele>461</ele>
      </trkpt>
      <trkpt lat="44.21632" lon="5.25657">
        <ele>461</ele>
      </trkpt>
      <trkpt lat="44.21647" lon="5.25624">
        <ele>465</ele>
      </trkpt>
      <trkpt lat="44.21653" lon="5.25607">
        <ele>466</ele>
      </trkpt>
      <trkpt lat="44.21656" lon="5.25588">
        <ele>467</ele>
      </trkpt>
      <trkpt lat="44.21659" lon="5.25543">
        <ele>468</ele>
      </trkpt>
      <trkpt lat="44.21669" lon="5.25498">
        <ele>470</ele>
      </trkpt>
      <trkpt lat="44.2167" lon="5.25481">
        <ele>470</ele>
      </trkpt>
      <trkpt lat="44.21659" lon="5.25426">
        <ele>470</ele>
      </trkpt>
      <trkpt lat="44.21654" lon="5.25388">
        <ele>471</ele>
      </trkpt>
      <trkpt lat="44.21654" lon="5.25348">
        <ele>472</ele>
      </trkpt>
      <trkpt lat="44.21655" lon="5.2533">
        <ele>472</ele>
      </trkpt>
      <trkpt lat="44.21661" lon="5.25299">
        <ele>472</ele>
      </trkpt>
      <trkpt lat="44.21666" lon="5.25288">
        <ele>473</ele>
      </trkpt>
      <trkpt lat="44.21693" lon="5.25263">
        <ele>478</ele>
      </trkpt>
      <trkpt lat="44.21701" lon="5.25249">
        <ele>481</ele>
      </trkpt>
      <trkpt lat="44.21706" lon="5.25233">
        <ele>481</ele>
      </trkpt>
      <trkpt lat="44.21709" lon="5.25215">
        <ele>480</ele>
      </trkpt>
      <trkpt lat="44.21708" lon="5.25197">
        <ele>479</ele>
      </trkpt>
      <trkpt lat="44.21699" lon="5.25145">
        <ele>478</ele>
      </trkpt>
      <trkpt lat="44.217" lon="5.25127">
        <ele>478</ele>
      </trkpt>
      <trkpt lat="44.21704" lon="5.25111">
        <ele>481</ele>
      </trkpt>
      <trkpt lat="44.21711" lon="5.25097">
        <ele>482</ele>
      </trkpt>
      <trkpt lat="44.21721" lon="5.25087">
        <ele>481</ele>
      </trkpt>
      <trkpt lat="44.21755" lon="5.25063">
        <ele>487</ele>
      </trkpt>
      <trkpt lat="44.21765" lon="5.25053">
        <ele>491</ele>
      </trkpt>
      <trkpt lat="44.21772" lon="5.2504">
        <ele>492</ele>
      </trkpt>
      <trkpt lat="44.21777" lon="5.25025">
        <ele>491</ele>
      </trkpt>
      <trkpt lat="44.21779" lon="5.25008">
        <ele>492</ele>
      </trkpt>
      <trkpt lat="44.21778" lon="5.24992">
        <ele>491</ele>
      </trkpt>
      <trkpt lat="44.2177" lon="5.24947">
        <ele>489</ele>
      </trkpt>
      <trkpt lat="44.21772" lon="5.24934">
        <ele>488</ele>
      </trkpt>
      <trkpt lat="44.21775" lon="5.24924">
        <ele>488</ele>
      </trkpt>
      <trkpt lat="44.2178" lon="5.24916">
        <ele>487</ele>
      </trkpt>
      <trkpt lat="44.21787" lon="5.2491">
        <ele>493</ele>
      </trkpt>
      <trkpt lat="44.2183" lon="5.24893">
        <ele>500</ele>
      </trkpt>
      <trkpt lat="44.21838" lon="5.24886">
        <ele>501</ele>
      </trkpt>
      <trkpt lat="44.21844" lon="5.24876">
        <ele>506</ele>
      </trkpt>
      <trkpt lat="44.21845" lon="5.24864">
        <ele>506</ele>
      </trkpt>
      <trkpt lat="44.21843" lon="5.24851">
        <ele>506</ele>
      </trkpt>
      <trkpt lat="44.21838" lon="5.2484">
        <ele>503</ele>
      </trkpt>
      <trkpt lat="44.2183" lon="5.2483">
        <ele>502</ele>
      </trkpt>
      <trkpt lat="44.21787" lon="5.24793">
        <ele>500</ele>
      </trkpt>
      <trkpt lat="44.21777" lon="5.24783">
        <ele>499</ele>
      </trkpt>
      <trkpt lat="44.2177" lon="5.24772">
        <ele>500</ele>
      </trkpt>
      <trkpt lat="44.21765" lon="5.24757">
        <ele>500</ele>
      </trkpt>
      <trkpt lat="44.21759" lon="5.24729">
        <ele>507</ele>
      </trkpt>
      <trkpt lat="44.21754" lon="5.24714">
        <ele>504</ele>
      </trkpt>
      <trkpt lat="44.21727" lon="5.2466">
        <ele>507</ele>
      </trkpt>
      <trkpt lat="44.21711" lon="5.24622">
        <ele>511</ele>
      </trkpt>
      <trkpt lat="44.21708" lon="5.24607">
        <ele>513</ele>
      </trkpt>
      <trkpt lat="44.21705" lon="5.24589">
        <ele>514</ele>
      </trkpt>
      <trkpt lat="44.21705" lon="5.24573">
        <ele>514</ele>
      </trkpt>
      <trkpt lat="44.21708" lon="5.24557">
        <ele>514</ele>
      </trkpt>
      <trkpt lat="44.21715" lon="5.24534">
        <ele>511</ele>
      </trkpt>
      <trkpt lat="44.21726" lon="5.24518">
        <ele>512</ele>
      </trkpt>
      <trkpt lat="44.21761" lon="5.24493">
        <ele>521</ele>
      </trkpt>
      <trkpt lat="44.21772" lon="5.24481">
        <ele>522</ele>
      </trkpt>
      <trkpt lat="44.21834" lon="5.24377">
        <ele>532</ele>
      </trkpt>
      <trkpt lat="44.21843" lon="5.24359">
        <ele>534</ele>
      </trkpt>
      <trkpt lat="44.21845" lon="5.24347">
        <ele>534</ele>
      </trkpt>
      <trkpt lat="44.21842" lon="5.24336">
        <ele>532</ele>
      </trkpt>
      <trkpt lat="44.21839" lon="5.24332">
        <ele>529</ele>
      </trkpt>
      <trkpt lat="44.21834" lon="5.24329">
        <ele>529</ele>
      </trkpt>
      <trkpt lat="44.21796" lon="5.24332">
        <ele>524</ele>
      </trkpt>
      <trkpt lat="44.21753" lon="5.24328">
        <ele>521</ele>
      </trkpt>
      <trkpt lat="44.21742" lon="5.24326">
        <ele>521</ele>
      </trkpt>
      <trkpt lat="44.21736" lon="5.24322">
        <ele>521</ele>
      </trkpt>
      <trkpt lat="44.21726" lon="5.24307">
        <ele>524</ele>
      </trkpt>
      <trkpt lat="44.21714" lon="5.2426">
        <ele>529</ele>
      </trkpt>
      <trkpt lat="44.21707" lon="5.24238">
        <ele>531</ele>
      </trkpt>
      <trkpt lat="44.21676" lon="5.24175">
        <ele>534</ele>
      </trkpt>
      <trkpt lat="44.2167" lon="5.24158">
        <ele>533</ele>
      </trkpt>
      <trkpt lat="44.21664" lon="5.24124">
        <ele>532</ele>
      </trkpt>
      <trkpt lat="44.21663" lon="5.24106">
        <ele>533</ele>
      </trkpt>
      <trkpt lat="44.21666" lon="5.24048">
        <ele>540</ele>
      </trkpt>
      <trkpt lat="44.21673" lon="5.24005">
        <ele>545</ele>
      </trkpt>
      <trkpt lat="44.21683" lon="5.23961">
        <ele>545</ele>
      </trkpt>
      <trkpt lat="44.2169" lon="5.23942">
        <ele>545</ele>
      </trkpt>
      <trkpt lat="44.21707" lon="5.23908">
        <ele>548</ele>
      </trkpt>
      <trkpt lat="44.2173" lon="5.23879">
        <ele>549</ele>
      </trkpt>
      <trkpt lat="44.21751" lon="5.23862">
        <ele>546</ele>
      </trkpt>
      <trkpt lat="44.21811" lon="5.23841">
        <ele>560</ele>
      </trkpt>
      <trkpt lat="44.21843" lon="5.23822">
        <ele>561</ele>
      </trkpt>
      <trkpt lat="44.21862" lon="5.23814">
        <ele>561</ele>
      </trkpt>
      <trkpt lat="44.21875" lon="5.2381">
        <ele>560</ele>
      </trkpt>
      <trkpt lat="44.2194" lon="5.23801">
        <ele>574</ele>
      </trkpt>
      <trkpt lat="44.21951" lon="5.23797">
        <ele>580</ele>
      </trkpt>
      <trkpt lat="44.2198" lon="5.23779">
        <ele>585</ele>
      </trkpt>
      <trkpt lat="44.21983" lon="5.23775">
        <ele>585</ele>
      </trkpt>
      <trkpt lat="44.21987" lon="5.23764">
        <ele>585</ele>
      </trkpt>
      <trkpt lat="44.21987" lon="5.23752">
        <ele>584</ele>
      </trkpt>
      <trkpt lat="44.21983" lon="5.23741">
        <ele>583</ele>
      </trkpt>
      <trkpt lat="44.21957" lon="5.23719">
        <ele>575</ele>
      </trkpt>
      <trkpt lat="44.21948" lon="5.23704">
        <ele>570</ele>
      </trkpt>
      <trkpt lat="44.21945" lon="5.23689">
        <ele>572</ele>
      </trkpt>
      <trkpt lat="44.21946" lon="5.23679">
        <ele>572</ele>
      </trkpt>
      <trkpt lat="44.2195" lon="5.2366">
        <ele>575</ele>
      </trkpt>
      <trkpt lat="44.21965" lon="5.23623">
        <ele>583</ele>
      </trkpt>
      <trkpt lat="44.21969" lon="5.23608">
        <ele>583</ele>
      </trkpt>
      <trkpt lat="44.21967" lon="5.23595">
        <ele>583</ele>
      </trkpt>
      <trkpt lat="44.21961" lon="5.23585">
        <ele>583</ele>
      </trkpt>
      <trkpt lat="44.21951" lon="5.23578">
        <ele>582</ele>
      </trkpt>
      <trkpt lat="44.21926" lon="5.23568">
        <ele>578</ele>
      </trkpt>
      <trkpt lat="44.219" lon="5.2355">
        <ele>576</ele>
      </trkpt>
      <trkpt lat="44.21866" lon="5.23533">
        <ele>573</ele>
      </trkpt>
      <trkpt lat="44.21856" lon="5.23519">
        <ele>573</ele>
      </trkpt>
      <trkpt lat="44.2185" lon="5.23497">
        <ele>576</ele>
      </trkpt>
      <trkpt lat="44.21849" lon="5.23479">
        <ele>577</ele>
      </trkpt>
      <trkpt lat="44.21854" lon="5.23396">
        <ele>581</ele>
      </trkpt>
      <trkpt lat="44.21861" lon="5.23361">
        <ele>581</ele>
      </trkpt>
      <trkpt lat="44.21864" lon="5.23337">
        <ele>581</ele>
      </trkpt>
      <trkpt lat="44.21861" lon="5.23302">
        <ele>581</ele>
      </trkpt>
      <trkpt lat="44.21866" lon="5.23254">
        <ele>583</ele>
      </trkpt>
      <trkpt lat="44.21865" lon="5.23236">
        <ele>583</ele>
      </trkpt>
      <trkpt lat="44.21863" lon="5.23224">
        <ele>584</ele>
      </trkpt>
      <trkpt lat="44.21859" lon="5.23214">
        <ele>584</ele>
      </trkpt>
      <trkpt lat="44.21835" lon="5.23194">
        <ele>581</ele>
      </trkpt>
      <trkpt lat="44.21824" lon="5.2318">
        <ele>580</ele>
      </trkpt>
      <trkpt lat="44.21819" lon="5.23168">
        <ele>581</ele>
      </trkpt>
      <trkpt lat="44.21817" lon="5.23151">
        <ele>582</ele>
      </trkpt>
      <trkpt lat="44.21819" lon="5.23129">
        <ele>583</ele>
      </trkpt>
      <trkpt lat="44.21827" lon="5.23083">
        <ele>586</ele>
      </trkpt>
      <trkpt lat="44.21874" lon="5.2286">
        <ele>583</ele>
      </trkpt>
      <trkpt lat="44.21879" lon="5.22845">
        <ele>582</ele>
      </trkpt>
      <trkpt lat="44.21885" lon="5.22836">
        <ele>578</ele>
      </trkpt>
      <trkpt lat="44.21895" lon="5.22829">
        <ele>578</ele>
      </trkpt>
      <trkpt lat="44.21904" lon="5.22829">
        <ele>578</ele>
      </trkpt>
      <trkpt lat="44.21953" lon="5.22849">
        <ele>586</ele>
      </trkpt>
      <trkpt lat="44.21967" lon="5.22847">
        <ele>587</ele>
      </trkpt>
      <trkpt lat="44.21971" lon="5.22842">
        <ele>588</ele>
      </trkpt>
      <trkpt lat="44.21973" lon="5.22837">
        <ele>587</ele>
      </trkpt>
      <trkpt lat="44.21974" lon="5.2282">
        <ele>587</ele>
      </trkpt>
      <trkpt lat="44.21963" lon="5.22781">
        <ele>585</ele>
      </trkpt>
      <trkpt lat="44.21956" lon="5.22729">
        <ele>583</ele>
      </trkpt>
      <trkpt lat="44.21955" lon="5.2265">
        <ele>577</ele>
      </trkpt>
      <trkpt lat="44.21952" lon="5.22544">
        <ele>566</ele>
      </trkpt>
      <trkpt lat="44.21954" lon="5.22523">
        <ele>563</ele>
      </trkpt>
      <trkpt lat="44.21971" lon="5.22454">
        <ele>559</ele>
      </trkpt>
      <trkpt lat="44.2199" lon="5.22359">
        <ele>554</ele>
      </trkpt>
      <trkpt lat="44.22002" lon="5.22316">
        <ele>547</ele>
      </trkpt>
      <trkpt lat="44.2201" lon="5.22297">
        <ele>547</ele>
      </trkpt>
      <trkpt lat="44.22051" lon="5.22224">
        <ele>546</ele>
      </trkpt>
      <trkpt lat="44.22059" lon="5.22202">
        <ele>545</ele>
      </trkpt>
      <trkpt lat="44.2207" lon="5.22154">
        <ele>547</ele>
      </trkpt>
      <trkpt lat="44.22073" lon="5.22129">
        <ele>546</ele>
      </trkpt>
      <trkpt lat="44.22076" lon="5.22053">
        <ele>541</ele>
      </trkpt>
      <trkpt lat="44.22081" lon="5.22001">
        <ele>535</ele>
      </trkpt>
      <trkpt lat="44.2209" lon="5.21952">
        <ele>539</ele>
      </trkpt>
      <trkpt lat="44.22101" lon="5.21907">
        <ele>535</ele>
      </trkpt>
      <trkpt lat="44.22111" lon="5.21857">
        <ele>533</ele>
      </trkpt>
      <trkpt lat="44.22112" lon="5.21834">
        <ele>532</ele>
      </trkpt>
      <trkpt lat="44.22108" lon="5.21779">
        <ele>524</ele>
      </trkpt>
      <trkpt lat="44.2211" lon="5.21758">
        <ele>523</ele>
      </trkpt>
      <trkpt lat="44.22121" lon="5.21707">
        <ele>528</ele>
      </trkpt>
      <trkpt lat="44.22123" lon="5.21689">
        <ele>527</ele>
      </trkpt>
      <trkpt lat="44.22121" lon="5.21612">
        <ele>525</ele>
      </trkpt>
      <trkpt lat="44.22124" lon="5.21563">
        <ele>522</ele>
      </trkpt>
      <trkpt lat="44.22135" lon="5.21491">
        <ele>512</ele>
      </trkpt>
      <trkpt lat="44.2214" lon="5.21415">
        <ele>503</ele>
      </trkpt>
      <trkpt lat="44.22144" lon="5.21394">
        <ele>500</ele>
      </trkpt>
      <trkpt lat="44.22158" lon="5.21349">
        <ele>505</ele>
      </trkpt>
      <trkpt lat="44.22164" lon="5.21323">
        <ele>500</ele>
      </trkpt>
      <trkpt lat="44.22167" lon="5.21297">
        <ele>498</ele>
      </trkpt>
      <trkpt lat="44.22168" lon="5.21271">
        <ele>497</ele>
      </trkpt>
      <trkpt lat="44.22163" lon="5.212">
        <ele>495</ele>
      </trkpt>
      <trkpt lat="44.22163" lon="5.21171">
        <ele>495</ele>
      </trkpt>
      <trkpt lat="44.22171" lon="5.21062">
        <ele>489</ele>
      </trkpt>
      <trkpt lat="44.22192" lon="5.20775">
        <ele>470</ele>
      </trkpt>
      <trkpt lat="44.22194" lon="5.20717">
        <ele>466</ele>
      </trkpt>
      <trkpt lat="44.22194" lon="5.20623">
        <ele>454</ele>
      </trkpt>
      <trkpt lat="44.22196" lon="5.20604">
        <ele>451</ele>
      </trkpt>
      <trkpt lat="44.22201" lon="5.20584">
        <ele>450</ele>
      </trkpt>
      <trkpt lat="44.22213" lon="5.20555">
        <ele>445</ele>
      </trkpt>
      <trkpt lat="44.22234" lon="5.20527">
        <ele>445</ele>
      </trkpt>
      <trkpt lat="44.22244" lon="5.20508">
        <ele>445</ele>
      </trkpt>
      <trkpt lat="44.22255" lon="5.20475">
        <ele>439</ele>
      </trkpt>
      <trkpt lat="44.22269" lon="5.2041">
        <ele>434</ele>
      </trkpt>
      <trkpt lat="44.22278" lon="5.20384">
        <ele>429</ele>
      </trkpt>
      <trkpt lat="44.22286" lon="5.2037">
        <ele>431</ele>
      </trkpt>
      <trkpt lat="44.22298" lon="5.20354">
        <ele>426</ele>
      </trkpt>
      <trkpt lat="44.22315" lon="5.20339">
        <ele>427</ele>
      </trkpt>
      <trkpt lat="44.22328" lon="5.20332">
        <ele>423</ele>
      </trkpt>
      <trkpt lat="44.2235" lon="5.20325">
        <ele>421</ele>
      </trkpt>
      <trkpt lat="44.22363" lon="5.20325">
        <ele>421</ele>
      </trkpt>
      <trkpt lat="44.22382" lon="5.2033">
        <ele>419</ele>
      </trkpt>
      <trkpt lat="44.22414" lon="5.20353">
        <ele>424</ele>
      </trkpt>
      <trkpt lat="44.22422" lon="5.20356">
        <ele>426</ele>
      </trkpt>
      <trkpt lat="44.22429" lon="5.20355">
        <ele>430</ele>
      </trkpt>
      <trkpt lat="44.22436" lon="5.20351">
        <ele>431</ele>
      </trkpt>
      <trkpt lat="44.22443" lon="5.20343">
        <ele>431</ele>
      </trkpt>
      <trkpt lat="44.22446" lon="5.20333">
        <ele>429</ele>
      </trkpt>
      <trkpt lat="44.22448" lon="5.20305">
        <ele>425</ele>
      </trkpt>
      <trkpt lat="44.22451" lon="5.20293">
        <ele>427</ele>
      </trkpt>
      <trkpt lat="44.22455" lon="5.20284">
        <ele>427</ele>
      </trkpt>
      <trkpt lat="44.22478" lon="5.20265">
        <ele>423</ele>
      </trkpt>
      <trkpt lat="44.22517" lon="5.20245">
        <ele>424</ele>
      </trkpt>
      <trkpt lat="44.22553" lon="5.20222">
        <ele>422</ele>
      </trkpt>
      <trkpt lat="44.22576" lon="5.20204">
        <ele>424</ele>
      </trkpt>
      <trkpt lat="44.22609" lon="5.2017">
        <ele>420</ele>
      </trkpt>
      <trkpt lat="44.22632" lon="5.20138">
        <ele>420</ele>
      </trkpt>
      <trkpt lat="44.22642" lon="5.20121">
        <ele>420</ele>
      </trkpt>
      <trkpt lat="44.22661" lon="5.20075">
        <ele>417</ele>
      </trkpt>
      <trkpt lat="44.22677" lon="5.20051">
        <ele>418</ele>
      </trkpt>
      <trkpt lat="44.22712" lon="5.20017">
        <ele>417</ele>
      </trkpt>
      <trkpt lat="44.22742" lon="5.19971">
        <ele>415</ele>
      </trkpt>
      <trkpt lat="44.22755" lon="5.19957">
        <ele>414</ele>
      </trkpt>
      <trkpt lat="44.22796" lon="5.19924">
        <ele>415</ele>
      </trkpt>
      <trkpt lat="44.22808" lon="5.19905">
        <ele>414</ele>
      </trkpt>
      <trkpt lat="44.22814" lon="5.19886">
        <ele>414</ele>
      </trkpt>
      <trkpt lat="44.22818" lon="5.19832">
        <ele>408</ele>
      </trkpt>
      <trkpt lat="44.22824" lon="5.19817">
        <ele>407</ele>
      </trkpt>
      <trkpt lat="44.22833" lon="5.19807">
        <ele>404</ele>
      </trkpt>
      <trkpt lat="44.22846" lon="5.19802">
        <ele>406</ele>
      </trkpt>
      <trkpt lat="44.22857" lon="5.19802">
        <ele>407</ele>
      </trkpt>
      <trkpt lat="44.22886" lon="5.19805">
        <ele>410</ele>
      </trkpt>
      <trkpt lat="44.22894" lon="5.19802">
        <ele>410</ele>
      </trkpt>
      <trkpt lat="44.229" lon="5.19796">
        <ele>413</ele>
      </trkpt>
      <trkpt lat="44.22905" lon="5.19787">
        <ele>414</ele>
      </trkpt>
      <trkpt lat="44.22907" lon="5.19777">
        <ele>414</ele>
      </trkpt>
      <trkpt lat="44.22906" lon="5.19763">
        <ele>414</ele>
      </trkpt>
      <trkpt lat="44.229" lon="5.19746">
        <ele>415</ele>
      </trkpt>
      <trkpt lat="44.22892" lon="5.19735">
        <ele>410</ele>
      </trkpt>
      <trkpt lat="44.22872" lon="5.19717">
        <ele>409</ele>
      </trkpt>
      <trkpt lat="44.22861" lon="5.19705">
        <ele>403</ele>
      </trkpt>
      <trkpt lat="44.22847" lon="5.19677">
        <ele>405</ele>
      </trkpt>
      <trkpt lat="44.22839" lon="5.19656">
        <ele>403</ele>
      </trkpt>
      <trkpt lat="44.22832" lon="5.19632">
        <ele>405</ele>
      </trkpt>
      <trkpt lat="44.22816" lon="5.19566">
        <ele>406</ele>
      </trkpt>
      <trkpt lat="44.22802" lon="5.19487">
        <ele>405</ele>
      </trkpt>
      <trkpt lat="44.22785" lon="5.19415">
        <ele>405</ele>
      </trkpt>
      <trkpt lat="44.22784" lon="5.19387">
        <ele>402</ele>
      </trkpt>
      <trkpt lat="44.22787" lon="5.1932">
        <ele>405</ele>
      </trkpt>
      <trkpt lat="44.2279" lon="5.19285">
        <ele>404</ele>
      </trkpt>
      <trkpt lat="44.22797" lon="5.19258">
        <ele>402</ele>
      </trkpt>
      <trkpt lat="44.2282" lon="5.19205">
        <ele>404</ele>
      </trkpt>
      <trkpt lat="44.22827" lon="5.19176">
        <ele>403</ele>
      </trkpt>
      <trkpt lat="44.22833" lon="5.19125">
        <ele>399</ele>
      </trkpt>
      <trkpt lat="44.22845" lon="5.19051">
        <ele>396</ele>
      </trkpt>
      <trkpt lat="44.22859" lon="5.18982">
        <ele>391</ele>
      </trkpt>
      <trkpt lat="44.22847" lon="5.18975">
        <ele>388</ele>
      </trkpt>
      <trkpt lat="44.22837" lon="5.18973">
        <ele>388</ele>
      </trkpt>
      <trkpt lat="44.22833" lon="5.18974">
        <ele>388</ele>
      </trkpt>
      <trkpt lat="44.22789" lon="5.19015">
        <ele>388</ele>
      </trkpt>
      <trkpt lat="44.22773" lon="5.19028">
        <ele>386</ele>
      </trkpt>
      <trkpt lat="44.22754" lon="5.19039">
        <ele>385</ele>
      </trkpt>
      <trkpt lat="44.22735" lon="5.19044">
        <ele>384</ele>
      </trkpt>
      <trkpt lat="44.22704" lon="5.19041">
        <ele>383</ele>
      </trkpt>
      <trkpt lat="44.22681" lon="5.19034">
        <ele>382</ele>
      </trkpt>
      <trkpt lat="44.22669" lon="5.19033">
        <ele>382</ele>
      </trkpt>
      <trkpt lat="44.22663" lon="5.19035">
        <ele>381</ele>
      </trkpt>
      <trkpt lat="44.22657" lon="5.1904">
        <ele>381</ele>
      </trkpt>
      <trkpt lat="44.22653" lon="5.19052">
        <ele>381</ele>
      </trkpt>
      <trkpt lat="44.22652" lon="5.19065">
        <ele>379</ele>
      </trkpt>
      <trkpt lat="44.22658" lon="5.19087">
        <ele>378</ele>
      </trkpt>
      <trkpt lat="44.2267" lon="5.19109">
        <ele>375</ele>
      </trkpt>
      <trkpt lat="44.2269" lon="5.19131">
        <ele>376</ele>
      </trkpt>
      <trkpt lat="44.22697" lon="5.19143">
        <ele>376</ele>
      </trkpt>
      <trkpt lat="44.22701" lon="5.19152">
        <ele>379</ele>
      </trkpt>
      <trkpt lat="44.22701" lon="5.19162">
        <ele>380</ele>
      </trkpt>
      <trkpt lat="44.22699" lon="5.19171">
        <ele>377</ele>
      </trkpt>
      <trkpt lat="44.22694" lon="5.19181">
        <ele>377</ele>
      </trkpt>
      <trkpt lat="44.22678" lon="5.19198">
        <ele>376</ele>
      </trkpt>
      <trkpt lat="44.22635" lon="5.19224">
        <ele>371</ele>
      </trkpt>
      <trkpt lat="44.22589" lon="5.19272">
        <ele>365</ele>
      </trkpt>
      <trkpt lat="44.22576" lon="5.19281">
        <ele>364</ele>
      </trkpt>
      <trkpt lat="44.22567" lon="5.19294">
        <ele>363</ele>
      </trkpt>
      <trkpt lat="44.22561" lon="5.19316">
        <ele>360</ele>
      </trkpt>
      <trkpt lat="44.22544" lon="5.19343">
        <ele>360</ele>
      </trkpt>
      <trkpt lat="44.22501" lon="5.19385">
        <ele>357</ele>
      </trkpt>
      <trkpt lat="44.22492" lon="5.19403">
        <ele>358</ele>
      </trkpt>
      <trkpt lat="44.22476" lon="5.1944">
        <ele>357</ele>
      </trkpt>
      <trkpt lat="44.22466" lon="5.19459">
        <ele>356</ele>
      </trkpt>
      <trkpt lat="44.22437" lon="5.19495">
        <ele>351</ele>
      </trkpt>
      <trkpt lat="44.22403" lon="5.19525">
        <ele>349</ele>
      </trkpt>
      <trkpt lat="44.22377" lon="5.19537">
        <ele>348</ele>
      </trkpt>
      <trkpt lat="44.22359" lon="5.19548">
        <ele>348</ele>
      </trkpt>
      <trkpt lat="44.22324" lon="5.19579">
        <ele>349</ele>
      </trkpt>
      <trkpt lat="44.22314" lon="5.19594">
        <ele>350</ele>
      </trkpt>
      <trkpt lat="44.22306" lon="5.19614">
        <ele>350</ele>
      </trkpt>
      <trkpt lat="44.22286" lon="5.19708">
        <ele>351</ele>
      </trkpt>
      <trkpt lat="44.2228" lon="5.19723">
        <ele>348</ele>
      </trkpt>
      <trkpt lat="44.22274" lon="5.19731">
        <ele>349</ele>
      </trkpt>
      <trkpt lat="44.22265" lon="5.19737">
        <ele>349</ele>
      </trkpt>
      <trkpt lat="44.2222" lon="5.1975">
        <ele>347</ele>
      </trkpt>
      <trkpt lat="44.22166" lon="5.19773">
        <ele>348</ele>
      </trkpt>
      <trkpt lat="44.22156" lon="5.19775">
        <ele>348</ele>
      </trkpt>
      <trkpt lat="44.22144" lon="5.19774">
        <ele>348</ele>
      </trkpt>
      <trkpt lat="44.22108" lon="5.19753">
        <ele>345</ele>
      </trkpt>
      <trkpt lat="44.22095" lon="5.19753">
        <ele>346</ele>
      </trkpt>
      <trkpt lat="44.22089" lon="5.19761">
        <ele>349</ele>
      </trkpt>
      <trkpt lat="44.22077" lon="5.19798">
        <ele>353</ele>
      </trkpt>
      <trkpt lat="44.22068" lon="5.19816">
        <ele>355</ele>
      </trkpt>
      <trkpt lat="44.21983" lon="5.19903">
        <ele>353</ele>
      </trkpt>
      <trkpt lat="44.21978" lon="5.19907">
        <ele>351</ele>
      </trkpt>
      <trkpt lat="44.21972" lon="5.19908">
        <ele>351</ele>
      </trkpt>
      <trkpt lat="44.21966" lon="5.19905">
        <ele>350</ele>
      </trkpt>
      <trkpt lat="44.21951" lon="5.19894">
        <ele>349</ele>
      </trkpt>
      <trkpt lat="44.21937" lon="5.19889">
        <ele>348</ele>
      </trkpt>
      <trkpt lat="44.21926" lon="5.19888">
        <ele>347</ele>
      </trkpt>
      <trkpt lat="44.21918" lon="5.19891">
        <ele>346</ele>
      </trkpt>
      <trkpt lat="44.21909" lon="5.199">
        <ele>347</ele>
      </trkpt>
      <trkpt lat="44.21885" lon="5.1995">
        <ele>345</ele>
      </trkpt>
      <trkpt lat="44.21867" lon="5.19983">
        <ele>343</ele>
      </trkpt>
      <trkpt lat="44.21864" lon="5.1999">
        <ele>343</ele>
      </trkpt>
      <trkpt lat="44.21864" lon="5.20008">
        <ele>343</ele>
      </trkpt>
      <trkpt lat="44.21875" lon="5.20048">
        <ele>346</ele>
      </trkpt>
      <trkpt lat="44.21873" lon="5.2006">
        <ele>347</ele>
      </trkpt>
      <trkpt lat="44.21865" lon="5.20069">
        <ele>347</ele>
      </trkpt>
      <trkpt lat="44.21836" lon="5.2007">
        <ele>342</ele>
      </trkpt>
      <trkpt lat="44.2183" lon="5.20073">
        <ele>342</ele>
      </trkpt>
      <trkpt lat="44.21821" lon="5.20081">
        <ele>341</ele>
      </trkpt>
      <trkpt lat="44.21818" lon="5.20087">
        <ele>341</ele>
      </trkpt>
      <trkpt lat="44.2182" lon="5.2014">
        <ele>343</ele>
      </trkpt>
      <trkpt lat="44.21817" lon="5.20211">
        <ele>344</ele>
      </trkpt>
      <trkpt lat="44.21815" lon="5.20288">
        <ele>344</ele>
      </trkpt>
      <trkpt lat="44.21817" lon="5.20339">
        <ele>343</ele>
      </trkpt>
      <trkpt lat="44.21817" lon="5.20388">
        <ele>341</ele>
      </trkpt>
      <trkpt lat="44.21814" lon="5.20424">
        <ele>337</ele>
      </trkpt>
      <trkpt lat="44.21808" lon="5.20593">
        <ele>325</ele>
      </trkpt>
      <trkpt lat="44.21815" lon="5.20691">
        <ele>329</ele>
      </trkpt>
      <trkpt lat="44.21815" lon="5.2076">
        <ele>331</ele>
      </trkpt>
      <trkpt lat="44.21821" lon="5.208">
        <ele>332</ele>
      </trkpt>
      <trkpt lat="44.21825" lon="5.20872">
        <ele>333</ele>
      </trkpt>
      <trkpt lat="44.21821" lon="5.20919">
        <ele>333</ele>
      </trkpt>
      <trkpt lat="44.21807" lon="5.21007">
        <ele>333</ele>
      </trkpt>
      <trkpt lat="44.21785" lon="5.21082">
        <ele>332</ele>
      </trkpt>
      <trkpt lat="44.21774" lon="5.21107">
        <ele>330</ele>
      </trkpt>
      <trkpt lat="44.21758" lon="5.21115">
        <ele>329</ele>
      </trkpt>
      <trkpt lat="44.21722" lon="5.21131">
        <ele>327</ele>
      </trkpt>
      <trkpt lat="44.21675" lon="5.21169">
        <ele>325</ele>
      </trkpt>
      <trkpt lat="44.21595" lon="5.21223">
        <ele>324</ele>
      </trkpt>
      <trkpt lat="44.21579" lon="5.2124">
        <ele>323</ele>
      </trkpt>
      <trkpt lat="44.21542" lon="5.21299">
        <ele>324</ele>
      </trkpt>
      <trkpt lat="44.21531" lon="5.21326">
        <ele>324</ele>
      </trkpt>
      <trkpt lat="44.21523" lon="5.21354">
        <ele>325</ele>
      </trkpt>
      <trkpt lat="44.21512" lon="5.21382">
        <ele>325</ele>
      </trkpt>
      <trkpt lat="44.21506" lon="5.21387">
        <ele>324</ele>
      </trkpt>
      <trkpt lat="44.21496" lon="5.21386">
        <ele>321</ele>
      </trkpt>
      <trkpt lat="44.21489" lon="5.21381">
        <ele>321</ele>
      </trkpt>
      <trkpt lat="44.21486" lon="5.21376">
        <ele>321</ele>
      </trkpt>
      <trkpt lat="44.21477" lon="5.21357">
        <ele>319</ele>
      </trkpt>
      <trkpt lat="44.21469" lon="5.2133">
        <ele>317</ele>
      </trkpt>
      <trkpt lat="44.21458" lon="5.21286">
        <ele>315</ele>
      </trkpt>
      <trkpt lat="44.21451" lon="5.21266">
        <ele>314</ele>
      </trkpt>
      <trkpt lat="44.21348" lon="5.21096">
        <ele>313</ele>
      </trkpt>
      <trkpt lat="44.21326" lon="5.21055">
        <ele>314</ele>
      </trkpt>
      <trkpt lat="44.21318" lon="5.21035">
        <ele>314</ele>
      </trkpt>
      <trkpt lat="44.21307" lon="5.20968">
        <ele>315</ele>
      </trkpt>
      <trkpt lat="44.21298" lon="5.20943">
        <ele>315</ele>
      </trkpt>
      <trkpt lat="44.21265" lon="5.20871">
        <ele>320</ele>
      </trkpt>
      <trkpt lat="44.21235" lon="5.20795">
        <ele>323</ele>
      </trkpt>
      <trkpt lat="44.21223" lon="5.20756">
        <ele>325</ele>
      </trkpt>
      <trkpt lat="44.21217" lon="5.20725">
        <ele>325</ele>
      </trkpt>
      <trkpt lat="44.21217" lon="5.20704">
        <ele>325</ele>
      </trkpt>
      <trkpt lat="44.2122" lon="5.2068">
        <ele>325</ele>
      </trkpt>
      <trkpt lat="44.21224" lon="5.20655">
        <ele>326</ele>
      </trkpt>
      <trkpt lat="44.2124" lon="5.20585">
        <ele>323</ele>
      </trkpt>
      <trkpt lat="44.21242" lon="5.20563">
        <ele>324</ele>
      </trkpt>
      <trkpt lat="44.21243" lon="5.20487">
        <ele>328</ele>
      </trkpt>
      <trkpt lat="44.21245" lon="5.20462">
        <ele>330</ele>
      </trkpt>
      <trkpt lat="44.21255" lon="5.20435">
        <ele>332</ele>
      </trkpt>
      <trkpt lat="44.21301" lon="5.20347">
        <ele>334</ele>
      </trkpt>
      <trkpt lat="44.21356" lon="5.20239">
        <ele>328</ele>
      </trkpt>
      <trkpt lat="44.21396" lon="5.20191">
        <ele>323</ele>
      </trkpt>
      <trkpt lat="44.21407" lon="5.20173">
        <ele>323</ele>
      </trkpt>
      <trkpt lat="44.21414" lon="5.20157">
        <ele>325</ele>
      </trkpt>
      <trkpt lat="44.21418" lon="5.20135">
        <ele>327</ele>
      </trkpt>
      <trkpt lat="44.21425" lon="5.20076">
        <ele>329</ele>
      </trkpt>
      <trkpt lat="44.21425" lon="5.20054">
        <ele>330</ele>
      </trkpt>
      <trkpt lat="44.2142" lon="5.19985">
        <ele>330</ele>
      </trkpt>
      <trkpt lat="44.21422" lon="5.19965">
        <ele>330</ele>
      </trkpt>
      <trkpt lat="44.21426" lon="5.19951">
        <ele>329</ele>
      </trkpt>
      <trkpt lat="44.21433" lon="5.19939">
        <ele>330</ele>
      </trkpt>
      <trkpt lat="44.21447" lon="5.1992">
        <ele>332</ele>
      </trkpt>
      <trkpt lat="44.21453" lon="5.19909">
        <ele>330</ele>
      </trkpt>
      <trkpt lat="44.21459" lon="5.19892">
        <ele>333</ele>
      </trkpt>
      <trkpt lat="44.21463" lon="5.19873">
        <ele>333</ele>
      </trkpt>
      <trkpt lat="44.21476" lon="5.19736">
        <ele>345</ele>
      </trkpt>
      <trkpt lat="44.21477" lon="5.19705">
        <ele>347</ele>
      </trkpt>
      <trkpt lat="44.21474" lon="5.19687">
        <ele>348</ele>
      </trkpt>
      <trkpt lat="44.21471" lon="5.19672">
        <ele>347</ele>
      </trkpt>
      <trkpt lat="44.21465" lon="5.19661">
        <ele>348</ele>
      </trkpt>
      <trkpt lat="44.21457" lon="5.1965">
        <ele>347</ele>
      </trkpt>
      <trkpt lat="44.21442" lon="5.19636">
        <ele>348</ele>
      </trkpt>
      <trkpt lat="44.21406" lon="5.19609">
        <ele>350</ele>
      </trkpt>
      <trkpt lat="44.21373" lon="5.19596">
        <ele>353</ele>
      </trkpt>
      <trkpt lat="44.21369" lon="5.19591">
        <ele>354</ele>
      </trkpt>
      <trkpt lat="44.21367" lon="5.19583">
        <ele>355</ele>
      </trkpt>
      <trkpt lat="44.21367" lon="5.19575">
        <ele>355</ele>
      </trkpt>
      <trkpt lat="44.21374" lon="5.19561">
        <ele>354</ele>
      </trkpt>
      <trkpt lat="44.21386" lon="5.19546">
        <ele>356</ele>
      </trkpt>
      <trkpt lat="44.21397" lon="5.19539">
        <ele>355</ele>
      </trkpt>
      <trkpt lat="44.21445" lon="5.19523">
        <ele>358</ele>
      </trkpt>
      <trkpt lat="44.21475" lon="5.19505">
        <ele>362</ele>
      </trkpt>
      <trkpt lat="44.21532" lon="5.19461">
        <ele>361</ele>
      </trkpt>
      <trkpt lat="44.21538" lon="5.19452">
        <ele>357</ele>
      </trkpt>
      <trkpt lat="44.21538" lon="5.1944">
        <ele>356</ele>
      </trkpt>
      <trkpt lat="44.21535" lon="5.19435">
        <ele>356</ele>
      </trkpt>
      <trkpt lat="44.21531" lon="5.19433">
        <ele>362</ele>
      </trkpt>
      <trkpt lat="44.21499" lon="5.19436">
        <ele>367</ele>
      </trkpt>
      <trkpt lat="44.2148" lon="5.19433">
        <ele>368</ele>
      </trkpt>
      <trkpt lat="44.21452" lon="5.19422">
        <ele>373</ele>
      </trkpt>
      <trkpt lat="44.21383" lon="5.1938">
        <ele>384</ele>
      </trkpt>
      <trkpt lat="44.21366" lon="5.19371">
        <ele>385</ele>
      </trkpt>
      <trkpt lat="44.21351" lon="5.19367">
        <ele>386</ele>
      </trkpt>
      <trkpt lat="44.21318" lon="5.19362">
        <ele>391</ele>
      </trkpt>
      <trkpt lat="44.21302" lon="5.19361">
        <ele>393</ele>
      </trkpt>
      <trkpt lat="44.21273" lon="5.19366">
        <ele>395</ele>
      </trkpt>
      <trkpt lat="44.21248" lon="5.19374">
        <ele>395</ele>
      </trkpt>
      <trkpt lat="44.21239" lon="5.1937">
        <ele>396</ele>
      </trkpt>
      <trkpt lat="44.21234" lon="5.19364">
        <ele>398</ele>
      </trkpt>
      <trkpt lat="44.21233" lon="5.19353">
        <ele>398</ele>
      </trkpt>
      <trkpt lat="44.21235" lon="5.19341">
        <ele>399</ele>
      </trkpt>
      <trkpt lat="44.21269" lon="5.19217">
        <ele>398</ele>
      </trkpt>
      <trkpt lat="44.21271" lon="5.19204">
        <ele>397</ele>
      </trkpt>
      <trkpt lat="44.2127" lon="5.19193">
        <ele>395</ele>
      </trkpt>
      <trkpt lat="44.21266" lon="5.19183">
        <ele>396</ele>
      </trkpt>
      <trkpt lat="44.2126" lon="5.19178">
        <ele>395</ele>
      </trkpt>
      <trkpt lat="44.21249" lon="5.19173">
        <ele>399</ele>
      </trkpt>
      <trkpt lat="44.21236" lon="5.19172">
        <ele>399</ele>
      </trkpt>
      <trkpt lat="44.21222" lon="5.19174">
        <ele>401</ele>
      </trkpt>
      <trkpt lat="44.21182" lon="5.1919">
        <ele>403</ele>
      </trkpt>
      <trkpt lat="44.21173" lon="5.19191">
        <ele>403</ele>
      </trkpt>
      <trkpt lat="44.21166" lon="5.1919">
        <ele>404</ele>
      </trkpt>
      <trkpt lat="44.2116" lon="5.19184">
        <ele>404</ele>
      </trkpt>
      <trkpt lat="44.21156" lon="5.19176">
        <ele>404</ele>
      </trkpt>
      <trkpt lat="44.21156" lon="5.19166">
        <ele>403</ele>
      </trkpt>
      <trkpt lat="44.21159" lon="5.19156">
        <ele>402</ele>
      </trkpt>
      <trkpt lat="44.21172" lon="5.19127">
        <ele>401</ele>
      </trkpt>
      <trkpt lat="44.21187" lon="5.19098">
        <ele>399</ele>
      </trkpt>
      <trkpt lat="44.21203" lon="5.19077">
        <ele>400</ele>
      </trkpt>
      <trkpt lat="44.21224" lon="5.19063">
        <ele>401</ele>
      </trkpt>
      <trkpt lat="44.21275" lon="5.19035">
        <ele>403</ele>
      </trkpt>
      <trkpt lat="44.2133" lon="5.18987">
        <ele>416</ele>
      </trkpt>
      <trkpt lat="44.21347" lon="5.18967">
        <ele>418</ele>
      </trkpt>
      <trkpt lat="44.21353" lon="5.18955">
        <ele>419</ele>
      </trkpt>
      <trkpt lat="44.21356" lon="5.18944">
        <ele>419</ele>
      </trkpt>
      <trkpt lat="44.21358" lon="5.18933">
        <ele>419</ele>
      </trkpt>
      <trkpt lat="44.21352" lon="5.18916">
        <ele>415</ele>
      </trkpt>
      <trkpt lat="44.21345" lon="5.1891">
        <ele>415</ele>
      </trkpt>
      <trkpt lat="44.21337" lon="5.18908">
        <ele>416</ele>
      </trkpt>
      <trkpt lat="44.21326" lon="5.18908">
        <ele>418</ele>
      </trkpt>
      <trkpt lat="44.21223" lon="5.1894">
        <ele>420</ele>
      </trkpt>
      <trkpt lat="44.2115" lon="5.18958">
        <ele>422</ele>
      </trkpt>
      <trkpt lat="44.21037" lon="5.18965">
        <ele>425</ele>
      </trkpt>
      <trkpt lat="44.21019" lon="5.18961">
        <ele>426</ele>
      </trkpt>
      <trkpt lat="44.21001" lon="5.18953">
        <ele>429</ele>
      </trkpt>
      <trkpt lat="44.20989" lon="5.18944">
        <ele>426</ele>
      </trkpt>
      <trkpt lat="44.20977" lon="5.18932">
        <ele>430</ele>
      </trkpt>
      <trkpt lat="44.20965" lon="5.18914">
        <ele>427</ele>
      </trkpt>
      <trkpt lat="44.20947" lon="5.18874">
        <ele>429</ele>
      </trkpt>
      <trkpt lat="44.20936" lon="5.18863">
        <ele>427</ele>
      </trkpt>
      <trkpt lat="44.20912" lon="5.18852">
        <ele>431</ele>
      </trkpt>
      <trkpt lat="44.20899" lon="5.18851">
        <ele>432</ele>
      </trkpt>
      <trkpt lat="44.20879" lon="5.18853">
        <ele>436</ele>
      </trkpt>
      <trkpt lat="44.20871" lon="5.18851">
        <ele>436</ele>
      </trkpt>
      <trkpt lat="44.20867" lon="5.18847">
        <ele>436</ele>
      </trkpt>
      <trkpt lat="44.20862" lon="5.18833">
        <ele>436</ele>
      </trkpt>
      <trkpt lat="44.20863" lon="5.18825">
        <ele>436</ele>
      </trkpt>
      <trkpt lat="44.20868" lon="5.18808">
        <ele>434</ele>
      </trkpt>
      <trkpt lat="44.20899" lon="5.1878">
        <ele>435</ele>
      </trkpt>
      <trkpt lat="44.20958" lon="5.18741">
        <ele>439</ele>
      </trkpt>
      <trkpt lat="44.20978" lon="5.18732">
        <ele>440</ele>
      </trkpt>
      <trkpt lat="44.20998" lon="5.18729">
        <ele>440</ele>
      </trkpt>
      <trkpt lat="44.21009" lon="5.1872">
        <ele>442</ele>
      </trkpt>
      <trkpt lat="44.21017" lon="5.18703">
        <ele>442</ele>
      </trkpt>
      <trkpt lat="44.21023" lon="5.18648">
        <ele>444</ele>
      </trkpt>
      <trkpt lat="44.21023" lon="5.186">
        <ele>444</ele>
      </trkpt>
      <trkpt lat="44.21029" lon="5.18541">
        <ele>442</ele>
      </trkpt>
      <trkpt lat="44.21042" lon="5.18485">
        <ele>439</ele>
      </trkpt>
      <trkpt lat="44.21044" lon="5.18461">
        <ele>440</ele>
      </trkpt>
      <trkpt lat="44.21042" lon="5.18359">
        <ele>446</ele>
      </trkpt>
      <trkpt lat="44.21044" lon="5.18312">
        <ele>447</ele>
      </trkpt>
      <trkpt lat="44.21051" lon="5.18266">
        <ele>446</ele>
      </trkpt>
      <trkpt lat="44.21074" lon="5.18146">
        <ele>436</ele>
      </trkpt>
      <trkpt lat="44.21088" lon="5.18082">
        <ele>431</ele>
      </trkpt>
      <trkpt lat="44.21101" lon="5.18047">
        <ele>429</ele>
      </trkpt>
      <trkpt lat="44.21109" lon="5.1803">
        <ele>423</ele>
      </trkpt>
      <trkpt lat="44.21114" lon="5.18022">
        <ele>423</ele>
      </trkpt>
      <trkpt lat="44.21122" lon="5.18017">
        <ele>424</ele>
      </trkpt>
      <trkpt lat="44.21166" lon="5.18018">
        <ele>427</ele>
      </trkpt>
      <trkpt lat="44.21186" lon="5.1801">
        <ele>428</ele>
      </trkpt>
      <trkpt lat="44.21204" lon="5.17999">
        <ele>425</ele>
      </trkpt>
      <trkpt lat="44.21206" lon="5.17996">
        <ele>425</ele>
      </trkpt>
      <trkpt lat="44.21207" lon="5.1799">
        <ele>424</ele>
      </trkpt>
      <trkpt lat="44.21205" lon="5.17985">
        <ele>423</ele>
      </trkpt>
      <trkpt lat="44.21201" lon="5.17984">
        <ele>423</ele>
      </trkpt>
      <trkpt lat="44.21193" lon="5.17985">
        <ele>421</ele>
      </trkpt>
      <trkpt lat="44.2118" lon="5.17991">
        <ele>422</ele>
      </trkpt>
      <trkpt lat="44.21172" lon="5.17991">
        <ele>420</ele>
      </trkpt>
      <trkpt lat="44.21161" lon="5.17987">
        <ele>419</ele>
      </trkpt>
      <trkpt lat="44.21138" lon="5.17953">
        <ele>409</ele>
      </trkpt>
      <trkpt lat="44.21132" lon="5.17948">
        <ele>405</ele>
      </trkpt>
      <trkpt lat="44.21126" lon="5.17946">
        <ele>405</ele>
      </trkpt>
      <trkpt lat="44.21117" lon="5.17947">
        <ele>405</ele>
      </trkpt>
      <trkpt lat="44.21084" lon="5.17966">
        <ele>408</ele>
      </trkpt>
      <trkpt lat="44.21076" lon="5.17974">
        <ele>409</ele>
      </trkpt>
      <trkpt lat="44.21051" lon="5.18017">
        <ele>415</ele>
      </trkpt>
      <trkpt lat="44.21041" lon="5.18022">
        <ele>415</ele>
      </trkpt>
      <trkpt lat="44.21035" lon="5.18022">
        <ele>415</ele>
      </trkpt>
      <trkpt lat="44.21031" lon="5.18019">
        <ele>412</ele>
      </trkpt>
      <trkpt lat="44.21028" lon="5.18009">
        <ele>412</ele>
      </trkpt>
      <trkpt lat="44.21027" lon="5.18002">
        <ele>408</ele>
      </trkpt>
      <trkpt lat="44.21029" lon="5.17992">
        <ele>408</ele>
      </trkpt>
      <trkpt lat="44.21048" lon="5.17944">
        <ele>402</ele>
      </trkpt>
      <trkpt lat="44.21077" lon="5.17913">
        <ele>401</ele>
      </trkpt>
      <trkpt lat="44.21126" lon="5.17863">
        <ele>400</ele>
      </trkpt>
      <trkpt lat="44.21131" lon="5.17859">
        <ele>400</ele>
      </trkpt>
      <trkpt lat="44.21136" lon="5.17858">
        <ele>400</ele>
      </trkpt>
      <trkpt lat="44.21145" lon="5.17862">
        <ele>399</ele>
      </trkpt>
      <trkpt lat="44.21149" lon="5.17866">
        <ele>399</ele>
      </trkpt>
      <trkpt lat="44.21165" lon="5.17896">
        <ele>399</ele>
      </trkpt>
      <trkpt lat="44.21176" lon="5.17905">
        <ele>399</ele>
      </trkpt>
      <trkpt lat="44.2119" lon="5.17908">
        <ele>398</ele>
      </trkpt>
      <trkpt lat="44.21198" lon="5.17908">
        <ele>399</ele>
      </trkpt>
      <trkpt lat="44.21209" lon="5.17903">
        <ele>401</ele>
      </trkpt>
      <trkpt lat="44.21245" lon="5.17869">
        <ele>398</ele>
      </trkpt>
      <trkpt lat="44.21263" lon="5.17843">
        <ele>394</ele>
      </trkpt>
      <trkpt lat="44.21268" lon="5.17838">
        <ele>392</ele>
      </trkpt>
      <trkpt lat="44.21274" lon="5.17837">
        <ele>392</ele>
      </trkpt>
      <trkpt lat="44.21281" lon="5.17839">
        <ele>393</ele>
      </trkpt>
      <trkpt lat="44.2131" lon="5.17861">
        <ele>395</ele>
      </trkpt>
      <trkpt lat="44.21318" lon="5.17863">
        <ele>395</ele>
      </trkpt>
      <trkpt lat="44.21325" lon="5.1786">
        <ele>395</ele>
      </trkpt>
      <trkpt lat="44.21352" lon="5.17827">
        <ele>389</ele>
      </trkpt>
      <trkpt lat="44.21359" lon="5.17822">
        <ele>390</ele>
      </trkpt>
      <trkpt lat="44.21381" lon="5.17818">
        <ele>395</ele>
      </trkpt>
      <trkpt lat="44.21387" lon="5.17812">
        <ele>396</ele>
      </trkpt>
      <trkpt lat="44.21393" lon="5.17801">
        <ele>392</ele>
      </trkpt>
      <trkpt lat="44.21395" lon="5.1779">
        <ele>394</ele>
      </trkpt>
      <trkpt lat="44.21395" lon="5.17781">
        <ele>390</ele>
      </trkpt>
      <trkpt lat="44.21391" lon="5.17768">
        <ele>386</ele>
      </trkpt>
      <trkpt lat="44.21383" lon="5.17756">
        <ele>386</ele>
      </trkpt>
      <trkpt lat="44.21367" lon="5.17747">
        <ele>385</ele>
      </trkpt>
      <trkpt lat="44.21346" lon="5.17741">
        <ele>386</ele>
      </trkpt>
      <trkpt lat="44.21239" lon="5.17726">
        <ele>394</ele>
      </trkpt>
      <trkpt lat="44.21227" lon="5.17721">
        <ele>396</ele>
      </trkpt>
      <trkpt lat="44.21199" lon="5.177">
        <ele>398</ele>
      </trkpt>
      <trkpt lat="44.21146" lon="5.17642">
        <ele>407</ele>
      </trkpt>
      <trkpt lat="44.21095" lon="5.17584">
        <ele>411</ele>
      </trkpt>
      <trkpt lat="44.2107" lon="5.17564">
        <ele>410</ele>
      </trkpt>
      <trkpt lat="44.21038" lon="5.17543">
        <ele>411</ele>
      </trkpt>
      <trkpt lat="44.20997" lon="5.17525">
        <ele>413</ele>
      </trkpt>
      <trkpt lat="44.20968" lon="5.17516">
        <ele>414</ele>
      </trkpt>
      <trkpt lat="44.20948" lon="5.17514">
        <ele>414</ele>
      </trkpt>
      <trkpt lat="44.2089" lon="5.17514">
        <ele>417</ele>
      </trkpt>
      <trkpt lat="44.20798" lon="5.17511">
        <ele>426</ele>
      </trkpt>
      <trkpt lat="44.20778" lon="5.17508">
        <ele>428</ele>
      </trkpt>
      <trkpt lat="44.20769" lon="5.17503">
        <ele>426</ele>
      </trkpt>
      <trkpt lat="44.20763" lon="5.17496">
        <ele>426</ele>
      </trkpt>
      <trkpt lat="44.2076" lon="5.17487">
        <ele>426</ele>
      </trkpt>
      <trkpt lat="44.20759" lon="5.17476">
        <ele>427</ele>
      </trkpt>
      <trkpt lat="44.20761" lon="5.17468">
        <ele>427</ele>
      </trkpt>
      <trkpt lat="44.20768" lon="5.17456">
        <ele>427</ele>
      </trkpt>
      <trkpt lat="44.20778" lon="5.1745">
        <ele>427</ele>
      </trkpt>
      <trkpt lat="44.20803" lon="5.17442">
        <ele>428</ele>
      </trkpt>
      <trkpt lat="44.20849" lon="5.17432">
        <ele>423</ele>
      </trkpt>
      <trkpt lat="44.20859" lon="5.17426">
        <ele>423</ele>
      </trkpt>
      <trkpt lat="44.20871" lon="5.17416">
        <ele>424</ele>
      </trkpt>
      <trkpt lat="44.20882" lon="5.17391">
        <ele>428</ele>
      </trkpt>
      <trkpt lat="44.20908" lon="5.17276">
        <ele>444</ele>
      </trkpt>
      <trkpt lat="44.20913" lon="5.17266">
        <ele>444</ele>
      </trkpt>
      <trkpt lat="44.20925" lon="5.17253">
        <ele>448</ele>
      </trkpt>
      <trkpt lat="44.20931" lon="5.17253">
        <ele>448</ele>
      </trkpt>
      <trkpt lat="44.20938" lon="5.17256">
        <ele>447</ele>
      </trkpt>
      <trkpt lat="44.20944" lon="5.17262">
        <ele>447</ele>
      </trkpt>
      <trkpt lat="44.20975" lon="5.17331">
        <ele>443</ele>
      </trkpt>
      <trkpt lat="44.20984" lon="5.1734">
        <ele>442</ele>
      </trkpt>
      <trkpt lat="44.20991" lon="5.17343">
        <ele>442</ele>
      </trkpt>
      <trkpt lat="44.20998" lon="5.17342">
        <ele>442</ele>
      </trkpt>
      <trkpt lat="44.21004" lon="5.17339">
        <ele>443</ele>
      </trkpt>
      <trkpt lat="44.21009" lon="5.17332">
        <ele>447</ele>
      </trkpt>
      <trkpt lat="44.21013" lon="5.17322">
        <ele>447</ele>
      </trkpt>
      <trkpt lat="44.21014" lon="5.17311">
        <ele>448</ele>
      </trkpt>
      <trkpt lat="44.21013" lon="5.173">
        <ele>449</ele>
      </trkpt>
      <trkpt lat="44.20932" lon="5.17102">
        <ele>457</ele>
      </trkpt>
      <trkpt lat="44.20921" lon="5.17073">
        <ele>457</ele>
      </trkpt>
      <trkpt lat="44.20913" lon="5.17046">
        <ele>459</ele>
      </trkpt>
      <trkpt lat="44.20907" lon="5.17015">
        <ele>461</ele>
      </trkpt>
      <trkpt lat="44.20902" lon="5.16963">
        <ele>463</ele>
      </trkpt>
      <trkpt lat="44.20895" lon="5.16873">
        <ele>471</ele>
      </trkpt>
      <trkpt lat="44.20894" lon="5.16814">
        <ele>471</ele>
      </trkpt>
      <trkpt lat="44.20898" lon="5.16748">
        <ele>468</ele>
      </trkpt>
      <trkpt lat="44.20898" lon="5.16713">
        <ele>466</ele>
      </trkpt>
      <trkpt lat="44.20896" lon="5.16692">
        <ele>464</ele>
      </trkpt>
      <trkpt lat="44.2089" lon="5.16664">
        <ele>462</ele>
      </trkpt>
      <trkpt lat="44.20877" lon="5.1664">
        <ele>459</ele>
      </trkpt>
      <trkpt lat="44.20866" lon="5.16628">
        <ele>459</ele>
      </trkpt>
      <trkpt lat="44.20844" lon="5.16613">
        <ele>455</ele>
      </trkpt>
      <trkpt lat="44.208" lon="5.16593">
        <ele>457</ele>
      </trkpt>
      <trkpt lat="44.20778" lon="5.16586">
        <ele>453</ele>
      </trkpt>
      <trkpt lat="44.20758" lon="5.16584">
        <ele>452</ele>
      </trkpt>
      <trkpt lat="44.20735" lon="5.16585">
        <ele>452</ele>
      </trkpt>
      <trkpt lat="44.20691" lon="5.16593">
        <ele>456</ele>
      </trkpt>
      <trkpt lat="44.20652" lon="5.16601">
        <ele>454</ele>
      </trkpt>
      <trkpt lat="44.20583" lon="5.16622">
        <ele>452</ele>
      </trkpt>
      <trkpt lat="44.2057" lon="5.16624">
        <ele>452</ele>
      </trkpt>
      <trkpt lat="44.2056" lon="5.16623">
        <ele>452</ele>
      </trkpt>
      <trkpt lat="44.20548" lon="5.1662">
        <ele>451</ele>
      </trkpt>
      <trkpt lat="44.20539" lon="5.16613">
        <ele>448</ele>
      </trkpt>
      <trkpt lat="44.20531" lon="5.166">
        <ele>447</ele>
      </trkpt>
      <trkpt lat="44.20525" lon="5.16585">
        <ele>443</ele>
      </trkpt>
      <trkpt lat="44.2052" lon="5.16564">
        <ele>442</ele>
      </trkpt>
      <trkpt lat="44.20503" lon="5.16467">
        <ele>437</ele>
      </trkpt>
      <trkpt lat="44.205" lon="5.16435">
        <ele>436</ele>
      </trkpt>
      <trkpt lat="44.20502" lon="5.16372">
        <ele>432</ele>
      </trkpt>
      <trkpt lat="44.20519" lon="5.16203">
        <ele>426</ele>
      </trkpt>
      <trkpt lat="44.20518" lon="5.16173">
        <ele>424</ele>
      </trkpt>
      <trkpt lat="44.20513" lon="5.16145">
        <ele>423</ele>
      </trkpt>
      <trkpt lat="44.20498" lon="5.16095">
        <ele>419</ele>
      </trkpt>
      <trkpt lat="44.20477" lon="5.16032">
        <ele>414</ele>
      </trkpt>
      <trkpt lat="44.2047" lon="5.16013">
        <ele>414</ele>
      </trkpt>
      <trkpt lat="44.20458" lon="5.15991">
        <ele>412</ele>
      </trkpt>
      <trkpt lat="44.20442" lon="5.15974">
        <ele>412</ele>
      </trkpt>
      <trkpt lat="44.20426" lon="5.15962">
        <ele>412</ele>
      </trkpt>
      <trkpt lat="44.20336" lon="5.15902">
        <ele>406</ele>
      </trkpt>
      <trkpt lat="44.20175" lon="5.15795">
        <ele>395</ele>
      </trkpt>
      <trkpt lat="44.20154" lon="5.15785">
        <ele>394</ele>
      </trkpt>
      <trkpt lat="44.20137" lon="5.15783">
        <ele>394</ele>
      </trkpt>
      <trkpt lat="44.20067" lon="5.15789">
        <ele>393</ele>
      </trkpt>
      <trkpt lat="44.20056" lon="5.15787">
        <ele>393</ele>
      </trkpt>
      <trkpt lat="44.19962" lon="5.15745">
        <ele>392</ele>
      </trkpt>
      <trkpt lat="44.19942" lon="5.15732">
        <ele>394</ele>
      </trkpt>
      <trkpt lat="44.19923" lon="5.15714">
        <ele>391</ele>
      </trkpt>
      <trkpt lat="44.19905" lon="5.1568">
        <ele>388</ele>
      </trkpt>
      <trkpt lat="44.19874" lon="5.15611">
        <ele>386</ele>
      </trkpt>
      <trkpt lat="44.1982" lon="5.155">
        <ele>384</ele>
      </trkpt>
      <trkpt lat="44.19812" lon="5.15476">
        <ele>381</ele>
      </trkpt>
      <trkpt lat="44.19809" lon="5.15457">
        <ele>381</ele>
      </trkpt>
      <trkpt lat="44.19808" lon="5.15435">
        <ele>378</ele>
      </trkpt>
      <trkpt lat="44.19814" lon="5.15362">
        <ele>371</ele>
      </trkpt>
      <trkpt lat="44.19814" lon="5.15347">
        <ele>371</ele>
      </trkpt>
      <trkpt lat="44.19808" lon="5.15323">
        <ele>370</ele>
      </trkpt>
      <trkpt lat="44.198" lon="5.15306">
        <ele>369</ele>
      </trkpt>
      <trkpt lat="44.19781" lon="5.15272">
        <ele>367</ele>
      </trkpt>
      <trkpt lat="44.19757" lon="5.15232">
        <ele>366</ele>
      </trkpt>
      <trkpt lat="44.19737" lon="5.15206">
        <ele>366</ele>
      </trkpt>
      <trkpt lat="44.19728" lon="5.15196">
        <ele>365</ele>
      </trkpt>
      <trkpt lat="44.19686" lon="5.1516">
        <ele>364</ele>
      </trkpt>
      <trkpt lat="44.19661" lon="5.15146">
        <ele>363</ele>
      </trkpt>
      <trkpt lat="44.19635" lon="5.15136">
        <ele>362</ele>
      </trkpt>
      <trkpt lat="44.19527" lon="5.15102">
        <ele>361</ele>
      </trkpt>
      <trkpt lat="44.19452" lon="5.1508">
        <ele>361</ele>
      </trkpt>
      <trkpt lat="44.1943" lon="5.15071">
        <ele>361</ele>
      </trkpt>
      <trkpt lat="44.1941" lon="5.15057">
        <ele>362</ele>
      </trkpt>
      <trkpt lat="44.19396" lon="5.15043">
        <ele>362</ele>
      </trkpt>
      <trkpt lat="44.19382" lon="5.15016">
        <ele>362</ele>
      </trkpt>
      <trkpt lat="44.19373" lon="5.14983">
        <ele>361</ele>
      </trkpt>
      <trkpt lat="44.1937" lon="5.14967">
        <ele>359</ele>
      </trkpt>
      <trkpt lat="44.1937" lon="5.14942">
        <ele>358</ele>
      </trkpt>
      <trkpt lat="44.19375" lon="5.14909">
        <ele>357</ele>
      </trkpt>
      <trkpt lat="44.19395" lon="5.14822">
        <ele>355</ele>
      </trkpt>
      <trkpt lat="44.19398" lon="5.14805">
        <ele>355</ele>
      </trkpt>
      <trkpt lat="44.19398" lon="5.14785">
        <ele>355</ele>
      </trkpt>
      <trkpt lat="44.19393" lon="5.14578">
        <ele>349</ele>
      </trkpt>
      <trkpt lat="44.19389" lon="5.14512">
        <ele>347</ele>
      </trkpt>
      <trkpt lat="44.19379" lon="5.14466">
        <ele>345</ele>
      </trkpt>
      <trkpt lat="44.19363" lon="5.14423">
        <ele>342</ele>
      </trkpt>
      <trkpt lat="44.19259" lon="5.14252">
        <ele>335</ele>
      </trkpt>
      <trkpt lat="44.1923" lon="5.14196">
        <ele>332</ele>
      </trkpt>
      <trkpt lat="44.1916" lon="5.14046">
        <ele>320</ele>
      </trkpt>
      <trkpt lat="44.19062" lon="5.13888">
        <ele>315</ele>
      </trkpt>
      <trkpt lat="44.1895" lon="5.13701">
        <ele>320</ele>
      </trkpt>
      <trkpt lat="44.18922" lon="5.13671">
        <ele>322</ele>
      </trkpt>
      <trkpt lat="44.18888" lon="5.13643">
        <ele>326</ele>
      </trkpt>
      <trkpt lat="44.18864" lon="5.13608">
        <ele>326</ele>
      </trkpt>
      <trkpt lat="44.18875" lon="5.13595">
        <ele>323</ele>
      </trkpt>
      <trkpt lat="44.18913" lon="5.13515">
        <ele>320</ele>
      </trkpt>
      <trkpt lat="44.18921" lon="5.13505">
        <ele>320</ele>
      </trkpt>
      <trkpt lat="44.18952" lon="5.13488">
        <ele>317</ele>
      </trkpt>
      <trkpt lat="44.19041" lon="5.13446">
        <ele>317</ele>
      </trkpt>
      <trkpt lat="44.19103" lon="5.134">
        <ele>312</ele>
      </trkpt>
      <trkpt lat="44.19124" lon="5.13391">
        <ele>310</ele>
      </trkpt>
      <trkpt lat="44.19193" lon="5.13377">
        <ele>306</ele>
      </trkpt>
      <trkpt lat="44.19222" lon="5.13374">
        <ele>305</ele>
      </trkpt>
      <trkpt lat="44.19263" lon="5.13382">
        <ele>304</ele>
      </trkpt>
      <trkpt lat="44.19299" lon="5.13395">
        <ele>303</ele>
      </trkpt>
      <trkpt lat="44.19349" lon="5.1342">
        <ele>304</ele>
      </trkpt>
      <trkpt lat="44.19362" lon="5.13431">
        <ele>304</ele>
      </trkpt>
      <trkpt lat="44.19374" lon="5.13436">
        <ele>304</ele>
      </trkpt>
      <trkpt lat="44.1939" lon="5.13407">
        <ele>304</ele>
      </trkpt>
      <trkpt lat="44.1941" lon="5.13362">
        <ele>304</ele>
      </trkpt>
      <trkpt lat="44.19443" lon="5.13313">
        <ele>305</ele>
      </trkpt>
      <trkpt lat="44.19487" lon="5.13259">
        <ele>303</ele>
      </trkpt>
      <trkpt lat="44.1953" lon="5.13196">
        <ele>301</ele>
      </trkpt>
      <trkpt lat="44.19595" lon="5.13088">
        <ele>301</ele>
      </trkpt>
      <trkpt lat="44.19628" lon="5.13036">
        <ele>300</ele>
      </trkpt>
      <trkpt lat="44.19663" lon="5.12987">
        <ele>298</ele>
      </trkpt>
      <trkpt lat="44.19689" lon="5.12961">
        <ele>297</ele>
      </trkpt>
      <trkpt lat="44.19803" lon="5.12887">
        <ele>295</ele>
      </trkpt>
      <trkpt lat="44.19818" lon="5.12872">
        <ele>295</ele>
      </trkpt>
      <trkpt lat="44.1983" lon="5.12855">
        <ele>293</ele>
      </trkpt>
      <trkpt lat="44.19904" lon="5.12731">
        <ele>289</ele>
      </trkpt>
      <trkpt lat="44.20017" lon="5.1263">
        <ele>283</ele>
      </trkpt>
      <trkpt lat="44.20223" lon="5.12422">
        <ele>277</ele>
      </trkpt>
      <trkpt lat="44.20269" lon="5.12379">
        <ele>274</ele>
      </trkpt>
      <trkpt lat="44.20309" lon="5.12358">
        <ele>274</ele>
      </trkpt>
      <trkpt lat="44.20313" lon="5.12358">
        <ele>275</ele>
      </trkpt>
      <trkpt lat="44.20363" lon="5.12396">
        <ele>280</ele>
      </trkpt>
      <trkpt lat="44.20374" lon="5.12401">
        <ele>282</ele>
      </trkpt>
      <trkpt lat="44.20385" lon="5.12402">
        <ele>282</ele>
      </trkpt>
      <trkpt lat="44.20409" lon="5.12395">
        <ele>283</ele>
      </trkpt>
      <trkpt lat="44.20654" lon="5.12211">
        <ele>288</ele>
      </trkpt>
      <trkpt lat="44.20669" lon="5.12204">
        <ele>288</ele>
      </trkpt>
      <trkpt lat="44.20684" lon="5.122">
        <ele>289</ele>
      </trkpt>
      <trkpt lat="44.20732" lon="5.12196">
        <ele>286</ele>
      </trkpt>
      <trkpt lat="44.20773" lon="5.12198">
        <ele>286</ele>
      </trkpt>
      <trkpt lat="44.2079" lon="5.12202">
        <ele>285</ele>
      </trkpt>
      <trkpt lat="44.20815" lon="5.12212">
        <ele>283</ele>
      </trkpt>
      <trkpt lat="44.20898" lon="5.12253">
        <ele>275</ele>
      </trkpt>
      <trkpt lat="44.20912" lon="5.12263">
        <ele>277</ele>
      </trkpt>
      <trkpt lat="44.20936" lon="5.12289">
        <ele>275</ele>
      </trkpt>
      <trkpt lat="44.20961" lon="5.12327">
        <ele>271</ele>
      </trkpt>
      <trkpt lat="44.21004" lon="5.12408">
        <ele>270</ele>
      </trkpt>
      <trkpt lat="44.21029" lon="5.12452">
        <ele>267</ele>
      </trkpt>
      <trkpt lat="44.21057" lon="5.12482">
        <ele>271</ele>
      </trkpt>
      <trkpt lat="44.2107" lon="5.12491">
        <ele>272</ele>
      </trkpt>
      <trkpt lat="44.21084" lon="5.12496">
        <ele>272</ele>
      </trkpt>
      <trkpt lat="44.21109" lon="5.12497">
        <ele>272</ele>
      </trkpt>
      <trkpt lat="44.21194" lon="5.12493">
        <ele>268</ele>
      </trkpt>
      <trkpt lat="44.21213" lon="5.12495">
        <ele>267</ele>
      </trkpt>
      <trkpt lat="44.21243" lon="5.12507">
        <ele>267</ele>
      </trkpt>
      <trkpt lat="44.21267" lon="5.12528">
        <ele>266</ele>
      </trkpt>
      <trkpt lat="44.21368" lon="5.12649">
        <ele>263</ele>
      </trkpt>
      <trkpt lat="44.21404" lon="5.12701">
        <ele>263</ele>
      </trkpt>
      <trkpt lat="44.21467" lon="5.12827">
        <ele>265</ele>
      </trkpt>
      <trkpt lat="44.21573" lon="5.1295">
        <ele>266</ele>
      </trkpt>
      <trkpt lat="44.21583" lon="5.12964">
        <ele>266</ele>
      </trkpt>
      <trkpt lat="44.216" lon="5.13003">
        <ele>266</ele>
      </trkpt>
      <trkpt lat="44.2161" lon="5.13044">
        <ele>266</ele>
      </trkpt>
      <trkpt lat="44.21647" lon="5.13236">
        <ele>270</ele>
      </trkpt>
      <trkpt lat="44.21652" lon="5.1325">
        <ele>270</ele>
      </trkpt>
      <trkpt lat="44.21662" lon="5.13283">
        <ele>271</ele>
      </trkpt>
      <trkpt lat="44.21666" lon="5.13304">
        <ele>271</ele>
      </trkpt>
      <trkpt lat="44.21665" lon="5.13315">
        <ele>272</ele>
      </trkpt>
      <trkpt lat="44.21668" lon="5.13324">
        <ele>272</ele>
      </trkpt>
      <trkpt lat="44.21673" lon="5.13364">
        <ele>272</ele>
      </trkpt>
      <trkpt lat="44.21724" lon="5.13619">
        <ele>280</ele>
      </trkpt>
      <trkpt lat="44.21757" lon="5.13791">
        <ele>287</ele>
      </trkpt>
      <trkpt lat="44.21767" lon="5.13831">
        <ele>286</ele>
      </trkpt>
      <trkpt lat="44.21773" lon="5.13846">
        <ele>285</ele>
      </trkpt>
      <trkpt lat="44.21836" lon="5.1396">
        <ele>280</ele>
      </trkpt>
      <trkpt lat="44.21857" lon="5.14014">
        <ele>275</ele>
      </trkpt>
      <trkpt lat="44.21866" lon="5.14033">
        <ele>273</ele>
      </trkpt>
      <trkpt lat="44.21893" lon="5.14078">
        <ele>272</ele>
      </trkpt>
      <trkpt lat="44.21899" lon="5.14099">
        <ele>273</ele>
      </trkpt>
      <trkpt lat="44.21897" lon="5.14105">
        <ele>273</ele>
      </trkpt>
      <trkpt lat="44.21898" lon="5.14113">
        <ele>273</ele>
      </trkpt>
      <trkpt lat="44.219" lon="5.14119">
        <ele>274</ele>
      </trkpt>
      <trkpt lat="44.21904" lon="5.14123">
        <ele>274</ele>
      </trkpt>
      <trkpt lat="44.2191" lon="5.14123">
        <ele>274</ele>
      </trkpt>
      <trkpt lat="44.21915" lon="5.14121">
        <ele>274</ele>
      </trkpt>
      <trkpt lat="44.21918" lon="5.14114">
        <ele>273</ele>
      </trkpt>
      <trkpt lat="44.21919" lon="5.14108">
        <ele>273</ele>
      </trkpt>
      <trkpt lat="44.21918" lon="5.14101">
        <ele>273</ele>
      </trkpt>
      <trkpt lat="44.21939" lon="5.1409">
        <ele>273</ele>
      </trkpt>
      <trkpt lat="44.22058" lon="5.13985">
        <ele>275</ele>
      </trkpt>
      <trkpt lat="44.22087" lon="5.13953">
        <ele>280</ele>
      </trkpt>
      <trkpt lat="44.22142" lon="5.13855">
        <ele>273</ele>
      </trkpt>
      <trkpt lat="44.22161" lon="5.13808">
        <ele>270</ele>
      </trkpt>
      <trkpt lat="44.22173" lon="5.13784">
        <ele>273</ele>
      </trkpt>
      <trkpt lat="44.22241" lon="5.13688">
        <ele>271</ele>
      </trkpt>
      <trkpt lat="44.22301" lon="5.13633">
        <ele>268</ele>
      </trkpt>
      <trkpt lat="44.22367" lon="5.13589">
        <ele>271</ele>
      </trkpt>
      <trkpt lat="44.22388" lon="5.13579">
        <ele>270</ele>
      </trkpt>
      <trkpt lat="44.22404" lon="5.13577">
        <ele>271</ele>
      </trkpt>
      <trkpt lat="44.22411" lon="5.13579">
        <ele>271</ele>
      </trkpt>
      <trkpt lat="44.22486" lon="5.13632">
        <ele>271</ele>
      </trkpt>
      <trkpt lat="44.22523" lon="5.13655">
        <ele>270</ele>
      </trkpt>
      <trkpt lat="44.2254" lon="5.1366">
        <ele>267</ele>
      </trkpt>
      <trkpt lat="44.2255" lon="5.13658">
        <ele>267</ele>
      </trkpt>
      <trkpt lat="44.2257" lon="5.13646">
        <ele>263</ele>
      </trkpt>
      <trkpt lat="44.22585" lon="5.13642">
        <ele>260</ele>
      </trkpt>
      <trkpt lat="44.22599" lon="5.13643">
        <ele>261</ele>
      </trkpt>
      <trkpt lat="44.22635" lon="5.1366">
        <ele>259</ele>
      </trkpt>
      <trkpt lat="44.22662" lon="5.13667">
        <ele>257</ele>
      </trkpt>
      <trkpt lat="44.22843" lon="5.13684">
        <ele>249</ele>
      </trkpt>
      <trkpt lat="44.22885" lon="5.13691">
        <ele>247</ele>
      </trkpt>
      <trkpt lat="44.22908" lon="5.13699">
        <ele>248</ele>
      </trkpt>
      <trkpt lat="44.22911" lon="5.13693">
        <ele>245</ele>
      </trkpt>
      <trkpt lat="44.22931" lon="5.13638">
        <ele>246</ele>
      </trkpt>
      <trkpt lat="44.22934" lon="5.13625">
        <ele>247</ele>
      </trkpt>
      <trkpt lat="44.22937" lon="5.13607">
        <ele>249</ele>
      </trkpt>
      <trkpt lat="44.22936" lon="5.13548">
        <ele>253</ele>
      </trkpt>
      <trkpt lat="44.22931" lon="5.13503">
        <ele>256</ele>
      </trkpt>
      <trkpt lat="44.22897" lon="5.13328">
        <ele>261</ele>
      </trkpt>
      <trkpt lat="44.2289" lon="5.13331">
        <ele>256</ele>
      </trkpt>
      <trkpt lat="44.2271" lon="5.13223">
        <ele>243</ele>
      </trkpt>
      <trkpt lat="44.22681" lon="5.13201">
        <ele>242</ele>
      </trkpt>
      <trkpt lat="44.22672" lon="5.13187">
        <ele>242</ele>
      </trkpt>
      <trkpt lat="44.22666" lon="5.13173">
        <ele>242</ele>
      </trkpt>
      <trkpt lat="44.22663" lon="5.1315">
        <ele>243</ele>
      </trkpt>
      <trkpt lat="44.22663" lon="5.13123">
        <ele>243</ele>
      </trkpt>
      <trkpt lat="44.22671" lon="5.13028">
        <ele>243</ele>
      </trkpt>
      <trkpt lat="44.22669" lon="5.12966">
        <ele>242</ele>
      </trkpt>
      <trkpt lat="44.22672" lon="5.12951">
        <ele>242</ele>
      </trkpt>
      <trkpt lat="44.22677" lon="5.12938">
        <ele>244</ele>
      </trkpt>
      <trkpt lat="44.22699" lon="5.129">
        <ele>242</ele>
      </trkpt>
      <trkpt lat="44.22703" lon="5.12884">
        <ele>242</ele>
      </trkpt>
      <trkpt lat="44.22703" lon="5.12859">
        <ele>240</ele>
      </trkpt>
      <trkpt lat="44.227" lon="5.12838">
        <ele>238</ele>
      </trkpt>
      <trkpt lat="44.22701" lon="5.12813">
        <ele>240</ele>
      </trkpt>
      <trkpt lat="44.22726" lon="5.12724">
        <ele>245</ele>
      </trkpt>
      <trkpt lat="44.22734" lon="5.1269">
        <ele>250</ele>
      </trkpt>
      <trkpt lat="44.22737" lon="5.12664">
        <ele>252</ele>
      </trkpt>
      <trkpt lat="44.22736" lon="5.12594">
        <ele>253</ele>
      </trkpt>
      <trkpt lat="44.22732" lon="5.12563">
        <ele>254</ele>
      </trkpt>
      <trkpt lat="44.22722" lon="5.12516">
        <ele>250</ele>
      </trkpt>
      <trkpt lat="44.22708" lon="5.12466">
        <ele>252</ele>
      </trkpt>
      <trkpt lat="44.22694" lon="5.12428">
        <ele>247</ele>
      </trkpt>
      <trkpt lat="44.22658" lon="5.12357">
        <ele>243</ele>
      </trkpt>
      <trkpt lat="44.22605" lon="5.12276">
        <ele>235</ele>
      </trkpt>
      <trkpt lat="44.226" lon="5.12268">
        <ele>236</ele>
      </trkpt>
      <trkpt lat="44.22582" lon="5.12235">
        <ele>234</ele>
      </trkpt>
      <trkpt lat="44.22569" lon="5.12204">
        <ele>235</ele>
      </trkpt>
      <trkpt lat="44.2251" lon="5.12044">
        <ele>236</ele>
      </trkpt>
      <trkpt lat="44.22499" lon="5.12009">
        <ele>235</ele>
      </trkpt>
      <trkpt lat="44.22487" lon="5.11959">
        <ele>236</ele>
      </trkpt>
      <trkpt lat="44.22444" lon="5.11735">
        <ele>235</ele>
      </trkpt>
      <trkpt lat="44.22435" lon="5.11698">
        <ele>236</ele>
      </trkpt>
      <trkpt lat="44.22427" lon="5.11673">
        <ele>237</ele>
      </trkpt>
      <trkpt lat="44.22399" lon="5.11611">
        <ele>244</ele>
      </trkpt>
      <trkpt lat="44.22375" lon="5.11552">
        <ele>252</ele>
      </trkpt>
      <trkpt lat="44.22362" lon="5.11507">
        <ele>251</ele>
      </trkpt>
      <trkpt lat="44.2234" lon="5.11377">
        <ele>258</ele>
      </trkpt>
      <trkpt lat="44.22338" lon="5.11353">
        <ele>257</ele>
      </trkpt>
      <trkpt lat="44.22339" lon="5.11333">
        <ele>259</ele>
      </trkpt>
      <trkpt lat="44.22347" lon="5.11315">
        <ele>261</ele>
      </trkpt>
      <trkpt lat="44.22373" lon="5.11271">
        <ele>260</ele>
      </trkpt>
      <trkpt lat="44.22382" lon="5.11244">
        <ele>260</ele>
      </trkpt>
      <trkpt lat="44.22425" lon="5.11032">
        <ele>262</ele>
      </trkpt>
      <trkpt lat="44.22445" lon="5.11001">
        <ele>261</ele>
      </trkpt>
      <trkpt lat="44.22467" lon="5.10977">
        <ele>263</ele>
      </trkpt>
      <trkpt lat="44.22493" lon="5.10954">
        <ele>262</ele>
      </trkpt>
      <trkpt lat="44.22566" lon="5.10908">
        <ele>266</ele>
      </trkpt>
      <trkpt lat="44.22574" lon="5.10897">
        <ele>266</ele>
      </trkpt>
      <trkpt lat="44.2258" lon="5.10886">
        <ele>264</ele>
      </trkpt>
      <trkpt lat="44.22583" lon="5.10874">
        <ele>264</ele>
      </trkpt>
      <trkpt lat="44.22586" lon="5.10785">
        <ele>257</ele>
      </trkpt>
      <trkpt lat="44.22591" lon="5.10738">
        <ele>255</ele>
      </trkpt>
      <trkpt lat="44.22601" lon="5.10699">
        <ele>253</ele>
      </trkpt>
      <trkpt lat="44.22627" lon="5.10622">
        <ele>249</ele>
      </trkpt>
      <trkpt lat="44.22639" lon="5.10589">
        <ele>246</ele>
      </trkpt>
      <trkpt lat="44.22646" lon="5.10575">
        <ele>246</ele>
      </trkpt>
      <trkpt lat="44.22652" lon="5.10568">
        <ele>246</ele>
      </trkpt>
      <trkpt lat="44.22684" lon="5.10546">
        <ele>246</ele>
      </trkpt>
      <trkpt lat="44.22693" lon="5.10538">
        <ele>246</ele>
      </trkpt>
      <trkpt lat="44.227" lon="5.10526">
        <ele>247</ele>
      </trkpt>
      <trkpt lat="44.22702" lon="5.10513">
        <ele>248</ele>
      </trkpt>
      <trkpt lat="44.22701" lon="5.105">
        <ele>249</ele>
      </trkpt>
      <trkpt lat="44.22696" lon="5.10488">
        <ele>247</ele>
      </trkpt>
      <trkpt lat="44.22662" lon="5.10446">
        <ele>241</ele>
      </trkpt>
      <trkpt lat="44.22638" lon="5.10396">
        <ele>236</ele>
      </trkpt>
      <trkpt lat="44.22631" lon="5.10369">
        <ele>235</ele>
      </trkpt>
      <trkpt lat="44.2263" lon="5.10349">
        <ele>235</ele>
      </trkpt>
      <trkpt lat="44.22632" lon="5.10327">
        <ele>234</ele>
      </trkpt>
      <trkpt lat="44.22642" lon="5.10291">
        <ele>233</ele>
      </trkpt>
      <trkpt lat="44.22658" lon="5.10249">
        <ele>234</ele>
      </trkpt>
      <trkpt lat="44.22684" lon="5.10163">
        <ele>231</ele>
      </trkpt>
      <trkpt lat="44.22691" lon="5.10149">
        <ele>231</ele>
      </trkpt>
      <trkpt lat="44.22713" lon="5.10117">
        <ele>231</ele>
      </trkpt>
      <trkpt lat="44.22731" lon="5.10086">
        <ele>233</ele>
      </trkpt>
      <trkpt lat="44.22773" lon="5.09997">
        <ele>233</ele>
      </trkpt>
      <trkpt lat="44.22793" lon="5.09972">
        <ele>232</ele>
      </trkpt>
      <trkpt lat="44.22816" lon="5.09955">
        <ele>233</ele>
      </trkpt>
      <trkpt lat="44.22842" lon="5.09929">
        <ele>234</ele>
      </trkpt>
      <trkpt lat="44.22868" lon="5.09877">
        <ele>234</ele>
      </trkpt>
      <trkpt lat="44.22907" lon="5.09829">
        <ele>231</ele>
      </trkpt>
      <trkpt lat="44.22944" lon="5.09791">
        <ele>232</ele>
      </trkpt>
      <trkpt lat="44.22996" lon="5.09716">
        <ele>233</ele>
      </trkpt>
      <trkpt lat="44.23015" lon="5.09693">
        <ele>234</ele>
      </trkpt>
      <trkpt lat="44.23037" lon="5.09672">
        <ele>236</ele>
      </trkpt>
      <trkpt lat="44.23046" lon="5.09666">
        <ele>235</ele>
      </trkpt>
      <trkpt lat="44.23049" lon="5.0967">
        <ele>236</ele>
      </trkpt>
      <trkpt lat="44.23052" lon="5.0967">
        <ele>236</ele>
      </trkpt>
      <trkpt lat="44.23055" lon="5.09667">
        <ele>235</ele>
      </trkpt>
      <trkpt lat="44.23055" lon="5.09662">
        <ele>235</ele>
      </trkpt>
      <trkpt lat="44.23053" lon="5.09657">
        <ele>234</ele>
      </trkpt>
      <trkpt lat="44.23062" lon="5.09605">
        <ele>233</ele>
      </trkpt>
      <trkpt lat="44.23088" lon="5.09492">
        <ele>229</ele>
      </trkpt>
      <trkpt lat="44.23098" lon="5.09437">
        <ele>229</ele>
      </trkpt>
      <trkpt lat="44.23103" lon="5.09381">
        <ele>231</ele>
      </trkpt>
      <trkpt lat="44.23124" lon="5.09051">
        <ele>221</ele>
        <extensions>
          <visugpx:TrkExtension xmlns:visugpx="https://www.visugpx.com/editgpx/">
            <visugpx:node>1</visugpx:node>
            </visugpx:TrkExtension>
        </extensions>
      </trkpt>
    </trkseg>
  </trk>
  <trk>
    <name><![CDATA[Souspierre_0]]></name>
    <extensions>
      <line xmlns="http://www.topografix.com/GPX/gpx_style/0/2">
        <color>888800</color>
        <width>4</width>
      </line>
    </extensions>
    <trkseg>
      <trkpt lat="44.52848" lon="4.96769">
        <ele>262</ele>
      </trkpt>
      <trkpt lat="44.52986" lon="4.96697">
        <ele>261</ele>
      </trkpt>
      <trkpt lat="44.53006" lon="4.96693">
        <ele>262</ele>
      </trkpt>
      <trkpt lat="44.53017" lon="4.96706">
        <ele>258</ele>
      </trkpt>
      <trkpt lat="44.53044" lon="4.96744">
        <ele>255</ele>
      </trkpt>
      <trkpt lat="44.53095" lon="4.96819">
        <ele>269</ele>
      </trkpt>
      <trkpt lat="44.53119" lon="4.96782">
        <ele>270</ele>
      </trkpt>
      <trkpt lat="44.53139" lon="4.96757">
        <ele>270</ele>
      </trkpt>
      <trkpt lat="44.53154" lon="4.96741">
        <ele>265</ele>
      </trkpt>
      <trkpt lat="44.53179" lon="4.9672">
        <ele>259</ele>
      </trkpt>
      <trkpt lat="44.53398" lon="4.96602">
        <ele>255</ele>
      </trkpt>
      <trkpt lat="44.53417" lon="4.96584">
        <ele>259</ele>
      </trkpt>
      <trkpt lat="44.53446" lon="4.96547">
        <ele>253</ele>
      </trkpt>
      <trkpt lat="44.53486" lon="4.96488">
        <ele>248</ele>
      </trkpt>
      <trkpt lat="44.53511" lon="4.96454">
        <ele>245</ele>
      </trkpt>
      <trkpt lat="44.53536" lon="4.96433">
        <ele>245</ele>
      </trkpt>
      <trkpt lat="44.53575" lon="4.96411">
        <ele>246</ele>
      </trkpt>
      <trkpt lat="44.53658" lon="4.96377">
        <ele>249</ele>
      </trkpt>
      <trkpt lat="44.53705" lon="4.96346">
        <ele>247</ele>
      </trkpt>
      <trkpt lat="44.53757" lon="4.96306">
        <ele>251</ele>
      </trkpt>
      <trkpt lat="44.53782" lon="4.96282">
        <ele>252</ele>
      </trkpt>
      <trkpt lat="44.53808" lon="4.96252">
        <ele>252</ele>
      </trkpt>
      <trkpt lat="44.53831" lon="4.9621">
        <ele>247</ele>
      </trkpt>
      <trkpt lat="44.53843" lon="4.96165">
        <ele>239</ele>
      </trkpt>
      <trkpt lat="44.53855" lon="4.96096">
        <ele>236</ele>
      </trkpt>
      <trkpt lat="44.53872" lon="4.96038">
        <ele>236</ele>
      </trkpt>
      <trkpt lat="44.53886" lon="4.96003">
        <ele>237</ele>
      </trkpt>
      <trkpt lat="44.53899" lon="4.96022">
        <ele>238</ele>
      </trkpt>
      <trkpt lat="44.53898" lon="4.96042">
        <ele>238</ele>
      </trkpt>
      <trkpt lat="44.53875" lon="4.96104">
        <ele>237</ele>
      </trkpt>
      <trkpt lat="44.53851" lon="4.96211">
        <ele>251</ele>
      </trkpt>
      <trkpt lat="44.53855" lon="4.96223">
        <ele>256</ele>
      </trkpt>
      <trkpt lat="44.53865" lon="4.96229">
        <ele>258</ele>
      </trkpt>
      <trkpt lat="44.53912" lon="4.96198">
        <ele>255</ele>
      </trkpt>
      <trkpt lat="44.54017" lon="4.96116">
        <ele>262</ele>
      </trkpt>
      <trkpt lat="44.54059" lon="4.96059">
        <ele>265</ele>
      </trkpt>
      <trkpt lat="44.54106" lon="4.95959">
        <ele>269</ele>
      </trkpt>
      <trkpt lat="44.54117" lon="4.95952">
        <ele>269</ele>
      </trkpt>
      <trkpt lat="44.54126" lon="4.95952">
        <ele>269</ele>
      </trkpt>
      <trkpt lat="44.54184" lon="4.95977">
        <ele>270</ele>
      </trkpt>
      <trkpt lat="44.54262" lon="4.96061">
        <ele>276</ele>
      </trkpt>
      <trkpt lat="44.54301" lon="4.96099">
        <ele>279</ele>
      </trkpt>
      <trkpt lat="44.54325" lon="4.96119">
        <ele>281</ele>
      </trkpt>
      <trkpt lat="44.54429" lon="4.96166">
        <ele>289</ele>
      </trkpt>
      <trkpt lat="44.54487" lon="4.96178">
        <ele>292</ele>
      </trkpt>
      <trkpt lat="44.54558" lon="4.96187">
        <ele>291</ele>
      </trkpt>
      <trkpt lat="44.54578" lon="4.96193">
        <ele>291</ele>
      </trkpt>
      <trkpt lat="44.54598" lon="4.96205">
        <ele>293</ele>
      </trkpt>
      <trkpt lat="44.54629" lon="4.96229">
        <ele>295</ele>
      </trkpt>
      <trkpt lat="44.5465" lon="4.96248">
        <ele>295</ele>
      </trkpt>
      <trkpt lat="44.54711" lon="4.96313">
        <ele>300</ele>
      </trkpt>
      <trkpt lat="44.54724" lon="4.96324">
        <ele>300</ele>
      </trkpt>
      <trkpt lat="44.54878" lon="4.96373">
        <ele>310</ele>
      </trkpt>
      <trkpt lat="44.54881" lon="4.96375">
        <ele>310</ele>
      </trkpt>
      <trkpt lat="44.54882" lon="4.96381">
        <ele>310</ele>
      </trkpt>
      <trkpt lat="44.54876" lon="4.96388">
        <ele>309</ele>
      </trkpt>
      <trkpt lat="44.54819" lon="4.9643">
        <ele>311</ele>
      </trkpt>
      <trkpt lat="44.54816" lon="4.96437">
        <ele>311</ele>
      </trkpt>
      <trkpt lat="44.54815" lon="4.96444">
        <ele>315</ele>
      </trkpt>
      <trkpt lat="44.54817" lon="4.9645">
        <ele>315</ele>
      </trkpt>
      <trkpt lat="44.54821" lon="4.96453">
        <ele>315</ele>
      </trkpt>
      <trkpt lat="44.54852" lon="4.9645">
        <ele>315</ele>
      </trkpt>
      <trkpt lat="44.54865" lon="4.96452">
        <ele>315</ele>
      </trkpt>
      <trkpt lat="44.54877" lon="4.96457">
        <ele>314</ele>
      </trkpt>
      <trkpt lat="44.54883" lon="4.96461">
        <ele>314</ele>
      </trkpt>
      <trkpt lat="44.54893" lon="4.96472">
        <ele>316</ele>
      </trkpt>
      <trkpt lat="44.54904" lon="4.96487">
        <ele>317</ele>
      </trkpt>
      <trkpt lat="44.54915" lon="4.96516">
        <ele>318</ele>
      </trkpt>
      <trkpt lat="44.54919" lon="4.96531">
        <ele>321</ele>
      </trkpt>
      <trkpt lat="44.5492" lon="4.96546">
        <ele>322</ele>
      </trkpt>
      <trkpt lat="44.54918" lon="4.96569">
        <ele>325</ele>
      </trkpt>
      <trkpt lat="44.54909" lon="4.96608">
        <ele>329</ele>
      </trkpt>
      <trkpt lat="44.54907" lon="4.96623">
        <ele>331</ele>
      </trkpt>
      <trkpt lat="44.54909" lon="4.96638">
        <ele>334</ele>
      </trkpt>
      <trkpt lat="44.54913" lon="4.96644">
        <ele>335</ele>
      </trkpt>
      <trkpt lat="44.54925" lon="4.96651">
        <ele>335</ele>
      </trkpt>
      <trkpt lat="44.54931" lon="4.9665">
        <ele>335</ele>
      </trkpt>
      <trkpt lat="44.54943" lon="4.96642">
        <ele>336</ele>
      </trkpt>
      <trkpt lat="44.54955" lon="4.96625">
        <ele>333</ele>
      </trkpt>
      <trkpt lat="44.5496" lon="4.96622">
        <ele>332</ele>
      </trkpt>
      <trkpt lat="44.54967" lon="4.96622">
        <ele>332</ele>
      </trkpt>
      <trkpt lat="44.54988" lon="4.96637">
        <ele>330</ele>
      </trkpt>
      <trkpt lat="44.54999" lon="4.96647">
        <ele>333</ele>
      </trkpt>
      <trkpt lat="44.55005" lon="4.96653">
        <ele>333</ele>
      </trkpt>
      <trkpt lat="44.55008" lon="4.9666">
        <ele>333</ele>
      </trkpt>
      <trkpt lat="44.55009" lon="4.96668">
        <ele>336</ele>
      </trkpt>
      <trkpt lat="44.55007" lon="4.96674">
        <ele>336</ele>
      </trkpt>
      <trkpt lat="44.55003" lon="4.9668">
        <ele>337</ele>
      </trkpt>
      <trkpt lat="44.54998" lon="4.96683">
        <ele>337</ele>
      </trkpt>
      <trkpt lat="44.54964" lon="4.96693">
        <ele>341</ele>
      </trkpt>
      <trkpt lat="44.54945" lon="4.96706">
        <ele>344</ele>
      </trkpt>
      <trkpt lat="44.5494" lon="4.96711">
        <ele>344</ele>
      </trkpt>
      <trkpt lat="44.54938" lon="4.96719">
        <ele>345</ele>
      </trkpt>
      <trkpt lat="44.54938" lon="4.96727">
        <ele>347</ele>
      </trkpt>
      <trkpt lat="44.5494" lon="4.96734">
        <ele>347</ele>
      </trkpt>
      <trkpt lat="44.54944" lon="4.96739">
        <ele>347</ele>
      </trkpt>
      <trkpt lat="44.5499" lon="4.96775">
        <ele>348</ele>
      </trkpt>
      <trkpt lat="44.54998" lon="4.96786">
        <ele>350</ele>
      </trkpt>
      <trkpt lat="44.55002" lon="4.96795">
        <ele>350</ele>
      </trkpt>
      <trkpt lat="44.55004" lon="4.96811">
        <ele>352</ele>
      </trkpt>
      <trkpt lat="44.55" lon="4.9686">
        <ele>355</ele>
      </trkpt>
      <trkpt lat="44.55001" lon="4.96867">
        <ele>357</ele>
      </trkpt>
      <trkpt lat="44.55003" lon="4.96873">
        <ele>356</ele>
      </trkpt>
      <trkpt lat="44.5501" lon="4.96877">
        <ele>357</ele>
      </trkpt>
      <trkpt lat="44.55016" lon="4.96878">
        <ele>357</ele>
      </trkpt>
      <trkpt lat="44.55035" lon="4.96871">
        <ele>356</ele>
      </trkpt>
      <trkpt lat="44.55046" lon="4.96871">
        <ele>356</ele>
      </trkpt>
      <trkpt lat="44.55071" lon="4.96887">
        <ele>356</ele>
      </trkpt>
      <trkpt lat="44.55082" lon="4.969">
        <ele>358</ele>
      </trkpt>
      <trkpt lat="44.55085" lon="4.96914">
        <ele>359</ele>
      </trkpt>
      <trkpt lat="44.55086" lon="4.96922">
        <ele>361</ele>
      </trkpt>
      <trkpt lat="44.55078" lon="4.96953">
        <ele>364</ele>
      </trkpt>
      <trkpt lat="44.55076" lon="4.96968">
        <ele>364</ele>
      </trkpt>
      <trkpt lat="44.55079" lon="4.9698">
        <ele>366</ele>
      </trkpt>
      <trkpt lat="44.55088" lon="4.96986">
        <ele>366</ele>
      </trkpt>
      <trkpt lat="44.55127" lon="4.96979">
        <ele>366</ele>
      </trkpt>
      <trkpt lat="44.55147" lon="4.96985">
        <ele>366</ele>
      </trkpt>
      <trkpt lat="44.55156" lon="4.96991">
        <ele>366</ele>
      </trkpt>
      <trkpt lat="44.55177" lon="4.97018">
        <ele>369</ele>
      </trkpt>
      <trkpt lat="44.55188" lon="4.9704">
        <ele>372</ele>
      </trkpt>
      <trkpt lat="44.552" lon="4.97057">
        <ele>375</ele>
      </trkpt>
      <trkpt lat="44.55217" lon="4.97067">
        <ele>376</ele>
      </trkpt>
      <trkpt lat="44.55247" lon="4.97071">
        <ele>376</ele>
      </trkpt>
      <trkpt lat="44.55258" lon="4.97077">
        <ele>377</ele>
      </trkpt>
      <trkpt lat="44.55266" lon="4.97086">
        <ele>378</ele>
      </trkpt>
      <trkpt lat="44.55292" lon="4.97128">
        <ele>381</ele>
      </trkpt>
      <trkpt lat="44.55298" lon="4.97135">
        <ele>381</ele>
      </trkpt>
      <trkpt lat="44.55432" lon="4.97242">
        <ele>394</ele>
      </trkpt>
      <trkpt lat="44.55451" lon="4.97261">
        <ele>393</ele>
      </trkpt>
      <trkpt lat="44.55457" lon="4.97279">
        <ele>393</ele>
      </trkpt>
      <trkpt lat="44.55463" lon="4.97312">
        <ele>392</ele>
      </trkpt>
      <trkpt lat="44.5547" lon="4.97333">
        <ele>392</ele>
      </trkpt>
      <trkpt lat="44.55476" lon="4.97342">
        <ele>392</ele>
      </trkpt>
      <trkpt lat="44.55519" lon="4.974">
        <ele>389</ele>
      </trkpt>
      <trkpt lat="44.5553" lon="4.97415">
        <ele>389</ele>
      </trkpt>
      <trkpt lat="44.55574" lon="4.97454">
        <ele>391</ele>
      </trkpt>
      <trkpt lat="44.55639" lon="4.97544">
        <ele>394</ele>
      </trkpt>
      <trkpt lat="44.55653" lon="4.97565">
        <ele>396</ele>
      </trkpt>
      <trkpt lat="44.55669" lon="4.97599">
        <ele>396</ele>
      </trkpt>
      <trkpt lat="44.55682" lon="4.97632">
        <ele>396</ele>
      </trkpt>
      <trkpt lat="44.55696" lon="4.97679">
        <ele>396</ele>
      </trkpt>
      <trkpt lat="44.55706" lon="4.97699">
        <ele>396</ele>
      </trkpt>
      <trkpt lat="44.55718" lon="4.97718">
        <ele>393</ele>
      </trkpt>
      <trkpt lat="44.55745" lon="4.97748">
        <ele>391</ele>
      </trkpt>
      <trkpt lat="44.55755" lon="4.9777">
        <ele>391</ele>
      </trkpt>
      <trkpt lat="44.55757" lon="4.97781">
        <ele>393</ele>
      </trkpt>
      <trkpt lat="44.55757" lon="4.97794">
        <ele>393</ele>
      </trkpt>
      <trkpt lat="44.55756" lon="4.9783">
        <ele>396</ele>
      </trkpt>
      <trkpt lat="44.55757" lon="4.97842">
        <ele>398</ele>
      </trkpt>
      <trkpt lat="44.55761" lon="4.97855">
        <ele>398</ele>
      </trkpt>
      <trkpt lat="44.55785" lon="4.97903">
        <ele>401</ele>
      </trkpt>
      <trkpt lat="44.55812" lon="4.97933">
        <ele>402</ele>
      </trkpt>
      <trkpt lat="44.55822" lon="4.97954">
        <ele>403</ele>
      </trkpt>
      <trkpt lat="44.55825" lon="4.97969">
        <ele>403</ele>
      </trkpt>
      <trkpt lat="44.55832" lon="4.97982">
        <ele>406</ele>
      </trkpt>
      <trkpt lat="44.55839" lon="4.9799">
        <ele>406</ele>
      </trkpt>
      <trkpt lat="44.5586" lon="4.98006">
        <ele>406</ele>
      </trkpt>
      <trkpt lat="44.55872" lon="4.98023">
        <ele>405</ele>
      </trkpt>
      <trkpt lat="44.55878" lon="4.98044">
        <ele>405</ele>
      </trkpt>
      <trkpt lat="44.55882" lon="4.98077">
        <ele>407</ele>
      </trkpt>
      <trkpt lat="44.55887" lon="4.98085">
        <ele>410</ele>
      </trkpt>
      <trkpt lat="44.55894" lon="4.98088">
        <ele>410</ele>
      </trkpt>
      <trkpt lat="44.55919" lon="4.98087">
        <ele>408</ele>
      </trkpt>
      <trkpt lat="44.55934" lon="4.98092">
        <ele>406</ele>
      </trkpt>
      <trkpt lat="44.55961" lon="4.98112">
        <ele>407</ele>
      </trkpt>
      <trkpt lat="44.55988" lon="4.98143">
        <ele>410</ele>
      </trkpt>
      <trkpt lat="44.56019" lon="4.98194">
        <ele>413</ele>
      </trkpt>
      <trkpt lat="44.56023" lon="4.98213">
        <ele>414</ele>
      </trkpt>
      <trkpt lat="44.56023" lon="4.98234">
        <ele>418</ele>
      </trkpt>
      <trkpt lat="44.56026" lon="4.98242">
        <ele>418</ele>
      </trkpt>
      <trkpt lat="44.56032" lon="4.98248">
        <ele>419</ele>
      </trkpt>
      <trkpt lat="44.56039" lon="4.9825">
        <ele>421</ele>
      </trkpt>
      <trkpt lat="44.56047" lon="4.9825">
        <ele>420</ele>
      </trkpt>
      <trkpt lat="44.56068" lon="4.98243">
        <ele>417</ele>
      </trkpt>
      <trkpt lat="44.56076" lon="4.98245">
        <ele>416</ele>
      </trkpt>
      <trkpt lat="44.56083" lon="4.98248">
        <ele>416</ele>
      </trkpt>
      <trkpt lat="44.56101" lon="4.98265">
        <ele>417</ele>
      </trkpt>
      <trkpt lat="44.56117" lon="4.98285">
        <ele>419</ele>
      </trkpt>
      <trkpt lat="44.56152" lon="4.98338">
        <ele>424</ele>
      </trkpt>
      <trkpt lat="44.56185" lon="4.98382">
        <ele>424</ele>
      </trkpt>
      <trkpt lat="44.56227" lon="4.98447">
        <ele>427</ele>
      </trkpt>
      <trkpt lat="44.56268" lon="4.98502">
        <ele>430</ele>
      </trkpt>
      <trkpt lat="44.56279" lon="4.98526">
        <ele>430</ele>
      </trkpt>
      <trkpt lat="44.56282" lon="4.98538">
        <ele>432</ele>
      </trkpt>
      <trkpt lat="44.56285" lon="4.98592">
        <ele>433</ele>
      </trkpt>
      <trkpt lat="44.56297" lon="4.9868">
        <ele>434</ele>
      </trkpt>
      <trkpt lat="44.56298" lon="4.98699">
        <ele>435</ele>
      </trkpt>
      <trkpt lat="44.56296" lon="4.98713">
        <ele>436</ele>
      </trkpt>
      <trkpt lat="44.56291" lon="4.98728">
        <ele>439</ele>
      </trkpt>
      <trkpt lat="44.56281" lon="4.98748">
        <ele>439</ele>
      </trkpt>
      <trkpt lat="44.56259" lon="4.98771">
        <ele>441</ele>
      </trkpt>
      <trkpt lat="44.56237" lon="4.98787">
        <ele>445</ele>
      </trkpt>
      <trkpt lat="44.56229" lon="4.98798">
        <ele>446</ele>
      </trkpt>
      <trkpt lat="44.56227" lon="4.98807">
        <ele>445</ele>
      </trkpt>
      <trkpt lat="44.56228" lon="4.98812">
        <ele>445</ele>
      </trkpt>
      <trkpt lat="44.56238" lon="4.98834">
        <ele>441</ele>
      </trkpt>
      <trkpt lat="44.56243" lon="4.98851">
        <ele>441</ele>
      </trkpt>
      <trkpt lat="44.56247" lon="4.98873">
        <ele>440</ele>
      </trkpt>
      <trkpt lat="44.56246" lon="4.98886">
        <ele>440</ele>
      </trkpt>
      <trkpt lat="44.56239" lon="4.98913">
        <ele>441</ele>
      </trkpt>
      <trkpt lat="44.56215" lon="4.98974">
        <ele>443</ele>
      </trkpt>
      <trkpt lat="44.56202" lon="4.98999">
        <ele>448</ele>
      </trkpt>
      <trkpt lat="44.56194" lon="4.99008">
        <ele>448</ele>
      </trkpt>
      <trkpt lat="44.56184" lon="4.99012">
        <ele>449</ele>
      </trkpt>
      <trkpt lat="44.56169" lon="4.99012">
        <ele>455</ele>
      </trkpt>
      <trkpt lat="44.56162" lon="4.99017">
        <ele>456</ele>
      </trkpt>
      <trkpt lat="44.56159" lon="4.99023">
        <ele>457</ele>
      </trkpt>
      <trkpt lat="44.56164" lon="4.99031">
        <ele>455</ele>
      </trkpt>
      <trkpt lat="44.56181" lon="4.99047">
        <ele>453</ele>
      </trkpt>
      <trkpt lat="44.56192" lon="4.99064">
        <ele>448</ele>
      </trkpt>
      <trkpt lat="44.56198" lon="4.99098">
        <ele>448</ele>
      </trkpt>
      <trkpt lat="44.56206" lon="4.99122">
        <ele>448</ele>
      </trkpt>
      <trkpt lat="44.56208" lon="4.99143">
        <ele>449</ele>
      </trkpt>
      <trkpt lat="44.56207" lon="4.99167">
        <ele>451</ele>
      </trkpt>
      <trkpt lat="44.5621" lon="4.99179">
        <ele>451</ele>
      </trkpt>
      <trkpt lat="44.56221" lon="4.99202">
        <ele>446</ele>
      </trkpt>
      <trkpt lat="44.56223" lon="4.99213">
        <ele>445</ele>
      </trkpt>
      <trkpt lat="44.56226" lon="4.99263">
        <ele>447</ele>
      </trkpt>
      <trkpt lat="44.56234" lon="4.99322">
        <ele>453</ele>
      </trkpt>
      <trkpt lat="44.56237" lon="4.99398">
        <ele>452</ele>
      </trkpt>
      <trkpt lat="44.56238" lon="4.99437">
        <ele>446</ele>
      </trkpt>
      <trkpt lat="44.56233" lon="4.99479">
        <ele>450</ele>
      </trkpt>
      <trkpt lat="44.56228" lon="4.99501">
        <ele>451</ele>
      </trkpt>
      <trkpt lat="44.56222" lon="4.99518">
        <ele>452</ele>
      </trkpt>
      <trkpt lat="44.562" lon="4.99546">
        <ele>459</ele>
      </trkpt>
      <trkpt lat="44.56195" lon="4.99562">
        <ele>459</ele>
      </trkpt>
      <trkpt lat="44.56194" lon="4.99579">
        <ele>460</ele>
      </trkpt>
      <trkpt lat="44.56198" lon="4.99599">
        <ele>459</ele>
      </trkpt>
      <trkpt lat="44.56198" lon="4.99606">
        <ele>459</ele>
      </trkpt>
      <trkpt lat="44.56188" lon="4.99644">
        <ele>462</ele>
      </trkpt>
      <trkpt lat="44.56188" lon="4.99649">
        <ele>462</ele>
      </trkpt>
      <trkpt lat="44.56199" lon="4.99681">
        <ele>461</ele>
      </trkpt>
      <trkpt lat="44.56201" lon="4.99694">
        <ele>460</ele>
      </trkpt>
      <trkpt lat="44.562" lon="4.99703">
        <ele>460</ele>
      </trkpt>
      <trkpt lat="44.56199" lon="4.99711">
        <ele>460</ele>
      </trkpt>
      <trkpt lat="44.56193" lon="4.99721">
        <ele>459</ele>
      </trkpt>
      <trkpt lat="44.56187" lon="4.99726">
        <ele>458</ele>
      </trkpt>
      <trkpt lat="44.56172" lon="4.99731">
        <ele>462</ele>
      </trkpt>
      <trkpt lat="44.56141" lon="4.99734">
        <ele>469</ele>
      </trkpt>
      <trkpt lat="44.56131" lon="4.99738">
        <ele>469</ele>
      </trkpt>
      <trkpt lat="44.56123" lon="4.99743">
        <ele>474</ele>
      </trkpt>
      <trkpt lat="44.56114" lon="4.99752">
        <ele>470</ele>
      </trkpt>
      <trkpt lat="44.56098" lon="4.99784">
        <ele>471</ele>
      </trkpt>
      <trkpt lat="44.56089" lon="4.99799">
        <ele>471</ele>
      </trkpt>
      <trkpt lat="44.56084" lon="4.9981">
        <ele>469</ele>
      </trkpt>
      <trkpt lat="44.56078" lon="4.99842">
        <ele>466</ele>
      </trkpt>
      <trkpt lat="44.56069" lon="4.99875">
        <ele>471</ele>
      </trkpt>
      <trkpt lat="44.56044" lon="4.99932">
        <ele>474</ele>
      </trkpt>
      <trkpt lat="44.56041" lon="4.99951">
        <ele>480</ele>
      </trkpt>
      <trkpt lat="44.56044" lon="4.99959">
        <ele>475</ele>
      </trkpt>
      <trkpt lat="44.56049" lon="4.99967">
        <ele>475</ele>
      </trkpt>
      <trkpt lat="44.56087" lon="4.99997">
        <ele>468</ele>
      </trkpt>
      <trkpt lat="44.56097" lon="5.00009">
        <ele>480</ele>
      </trkpt>
      <trkpt lat="44.56108" lon="5.00025">
        <ele>479</ele>
      </trkpt>
      <trkpt lat="44.56116" lon="5.00039">
        <ele>483</ele>
      </trkpt>
      <trkpt lat="44.5613" lon="5.00054">
        <ele>482</ele>
      </trkpt>
      <trkpt lat="44.56145" lon="5.00063">
        <ele>487</ele>
      </trkpt>
      <trkpt lat="44.56208" lon="5.00082">
        <ele>479</ele>
      </trkpt>
      <trkpt lat="44.56215" lon="5.00088">
        <ele>478</ele>
      </trkpt>
      <trkpt lat="44.56218" lon="5.00092">
        <ele>478</ele>
      </trkpt>
      <trkpt lat="44.56221" lon="5.00099">
        <ele>478</ele>
      </trkpt>
      <trkpt lat="44.56224" lon="5.00137">
        <ele>480</ele>
      </trkpt>
      <trkpt lat="44.56226" lon="5.00147">
        <ele>480</ele>
      </trkpt>
      <trkpt lat="44.56235" lon="5.0017">
        <ele>478</ele>
      </trkpt>
      <trkpt lat="44.56236" lon="5.00181">
        <ele>477</ele>
      </trkpt>
      <trkpt lat="44.56232" lon="5.00195">
        <ele>475</ele>
      </trkpt>
      <trkpt lat="44.56223" lon="5.00204">
        <ele>475</ele>
      </trkpt>
      <trkpt lat="44.56208" lon="5.00213">
        <ele>480</ele>
      </trkpt>
      <trkpt lat="44.56202" lon="5.00222">
        <ele>480</ele>
      </trkpt>
      <trkpt lat="44.56196" lon="5.00243">
        <ele>479</ele>
      </trkpt>
      <trkpt lat="44.56198" lon="5.00289">
        <ele>482</ele>
      </trkpt>
      <trkpt lat="44.56205" lon="5.00342">
        <ele>485</ele>
      </trkpt>
      <trkpt lat="44.56206" lon="5.00368">
        <ele>485</ele>
      </trkpt>
      <trkpt lat="44.56201" lon="5.00435">
        <ele>488</ele>
      </trkpt>
      <trkpt lat="44.56202" lon="5.00453">
        <ele>489</ele>
      </trkpt>
      <trkpt lat="44.56205" lon="5.00467">
        <ele>489</ele>
      </trkpt>
      <trkpt lat="44.56219" lon="5.00496">
        <ele>486</ele>
      </trkpt>
      <trkpt lat="44.56221" lon="5.00504">
        <ele>489</ele>
      </trkpt>
      <trkpt lat="44.56223" lon="5.0054">
        <ele>492</ele>
      </trkpt>
      <trkpt lat="44.56226" lon="5.00551">
        <ele>493</ele>
      </trkpt>
      <trkpt lat="44.56244" lon="5.00577">
        <ele>492</ele>
      </trkpt>
      <trkpt lat="44.56246" lon="5.00592">
        <ele>496</ele>
      </trkpt>
      <trkpt lat="44.56245" lon="5.00619">
        <ele>501</ele>
      </trkpt>
      <trkpt lat="44.56247" lon="5.00627">
        <ele>502</ele>
      </trkpt>
      <trkpt lat="44.56258" lon="5.00642">
        <ele>504</ele>
      </trkpt>
      <trkpt lat="44.56272" lon="5.00651">
        <ele>496</ele>
      </trkpt>
      <trkpt lat="44.56284" lon="5.00662">
        <ele>495</ele>
      </trkpt>
      <trkpt lat="44.56293" lon="5.00678">
        <ele>494</ele>
      </trkpt>
      <trkpt lat="44.56294" lon="5.00691">
        <ele>487</ele>
      </trkpt>
      <trkpt lat="44.56279" lon="5.00754">
        <ele>491</ele>
      </trkpt>
      <trkpt lat="44.56271" lon="5.00772">
        <ele>491</ele>
      </trkpt>
      <trkpt lat="44.56259" lon="5.00786">
        <ele>495</ele>
      </trkpt>
      <trkpt lat="44.56233" lon="5.00807">
        <ele>498</ele>
      </trkpt>
      <trkpt lat="44.56183" lon="5.00853">
        <ele>503</ele>
      </trkpt>
      <trkpt lat="44.56171" lon="5.00867">
        <ele>509</ele>
      </trkpt>
      <trkpt lat="44.56165" lon="5.00881">
        <ele>510</ele>
      </trkpt>
      <trkpt lat="44.56162" lon="5.00894">
        <ele>511</ele>
      </trkpt>
      <trkpt lat="44.56161" lon="5.00906">
        <ele>511</ele>
      </trkpt>
      <trkpt lat="44.56161" lon="5.00916">
        <ele>511</ele>
      </trkpt>
      <trkpt lat="44.56165" lon="5.0093">
        <ele>512</ele>
      </trkpt>
      <trkpt lat="44.56176" lon="5.00955">
        <ele>515</ele>
      </trkpt>
      <trkpt lat="44.56179" lon="5.00972">
        <ele>516</ele>
      </trkpt>
      <trkpt lat="44.56183" lon="5.00981">
        <ele>515</ele>
      </trkpt>
      <trkpt lat="44.56194" lon="5.00998">
        <ele>515</ele>
      </trkpt>
      <trkpt lat="44.56238" lon="5.0103">
        <ele>509</ele>
      </trkpt>
      <trkpt lat="44.56247" lon="5.01039">
        <ele>508</ele>
      </trkpt>
      <trkpt lat="44.56254" lon="5.01051">
        <ele>508</ele>
      </trkpt>
      <trkpt lat="44.5626" lon="5.01069">
        <ele>510</ele>
      </trkpt>
      <trkpt lat="44.56271" lon="5.01155">
        <ele>511</ele>
      </trkpt>
      <trkpt lat="44.5627" lon="5.01193">
        <ele>514</ele>
      </trkpt>
      <trkpt lat="44.56272" lon="5.01221">
        <ele>514</ele>
      </trkpt>
      <trkpt lat="44.56273" lon="5.01254">
        <ele>512</ele>
      </trkpt>
      <trkpt lat="44.56269" lon="5.0128">
        <ele>511</ele>
      </trkpt>
      <trkpt lat="44.56249" lon="5.01352">
        <ele>520</ele>
      </trkpt>
      <trkpt lat="44.56229" lon="5.01391">
        <ele>524</ele>
      </trkpt>
      <trkpt lat="44.56224" lon="5.01407">
        <ele>524</ele>
      </trkpt>
      <trkpt lat="44.56229" lon="5.01445">
        <ele>522</ele>
      </trkpt>
      <trkpt lat="44.56228" lon="5.01494">
        <ele>523</ele>
      </trkpt>
      <trkpt lat="44.56248" lon="5.01591">
        <ele>518</ele>
      </trkpt>
      <trkpt lat="44.56268" lon="5.01659">
        <ele>520</ele>
      </trkpt>
      <trkpt lat="44.56275" lon="5.01704">
        <ele>522</ele>
      </trkpt>
      <trkpt lat="44.56292" lon="5.01759">
        <ele>526</ele>
      </trkpt>
      <trkpt lat="44.56296" lon="5.01777">
        <ele>529</ele>
      </trkpt>
      <trkpt lat="44.56303" lon="5.01784">
        <ele>532</ele>
      </trkpt>
      <trkpt lat="44.5631" lon="5.01782">
        <ele>532</ele>
      </trkpt>
      <trkpt lat="44.56316" lon="5.01776">
        <ele>530</ele>
      </trkpt>
      <trkpt lat="44.56322" lon="5.01762">
        <ele>534</ele>
      </trkpt>
      <trkpt lat="44.56326" lon="5.01746">
        <ele>533</ele>
      </trkpt>
      <trkpt lat="44.56356" lon="5.01558">
        <ele>529</ele>
      </trkpt>
      <trkpt lat="44.56361" lon="5.01528">
        <ele>522</ele>
      </trkpt>
      <trkpt lat="44.56372" lon="5.0149">
        <ele>516</ele>
      </trkpt>
      <trkpt lat="44.56382" lon="5.0146">
        <ele>518</ele>
      </trkpt>
      <trkpt lat="44.56391" lon="5.0144">
        <ele>515</ele>
      </trkpt>
      <trkpt lat="44.5643" lon="5.01373">
        <ele>517</ele>
      </trkpt>
      <trkpt lat="44.56438" lon="5.01351">
        <ele>521</ele>
      </trkpt>
      <trkpt lat="44.5644" lon="5.01342">
        <ele>521</ele>
      </trkpt>
      <trkpt lat="44.56438" lon="5.01318">
        <ele>516</ele>
      </trkpt>
      <trkpt lat="44.56438" lon="5.01298">
        <ele>511</ele>
      </trkpt>
      <trkpt lat="44.56435" lon="5.01267">
        <ele>507</ele>
      </trkpt>
      <trkpt lat="44.56436" lon="5.01242">
        <ele>506</ele>
      </trkpt>
      <trkpt lat="44.56441" lon="5.0122">
        <ele>506</ele>
      </trkpt>
      <trkpt lat="44.56455" lon="5.01203">
        <ele>506</ele>
      </trkpt>
      <trkpt lat="44.56487" lon="5.01174">
        <ele>506</ele>
      </trkpt>
      <trkpt lat="44.56494" lon="5.01144">
        <ele>502</ele>
      </trkpt>
      <trkpt lat="44.56501" lon="5.01128">
        <ele>501</ele>
      </trkpt>
      <trkpt lat="44.56515" lon="5.01118">
        <ele>499</ele>
      </trkpt>
      <trkpt lat="44.5653" lon="5.01114">
        <ele>497</ele>
      </trkpt>
      <trkpt lat="44.56547" lon="5.01124">
        <ele>495</ele>
      </trkpt>
      <trkpt lat="44.56559" lon="5.01134">
        <ele>496</ele>
      </trkpt>
      <trkpt lat="44.56567" lon="5.01139">
        <ele>496</ele>
      </trkpt>
      <trkpt lat="44.56574" lon="5.01138">
        <ele>498</ele>
      </trkpt>
      <trkpt lat="44.56581" lon="5.0114">
        <ele>500</ele>
      </trkpt>
      <trkpt lat="44.56589" lon="5.0114">
        <ele>501</ele>
      </trkpt>
      <trkpt lat="44.56601" lon="5.01131">
        <ele>502</ele>
      </trkpt>
      <trkpt lat="44.56628" lon="5.01101">
        <ele>502</ele>
      </trkpt>
      <trkpt lat="44.56653" lon="5.01085">
        <ele>503</ele>
      </trkpt>
      <trkpt lat="44.56671" lon="5.01077">
        <ele>501</ele>
      </trkpt>
      <trkpt lat="44.56686" lon="5.01066">
        <ele>503</ele>
      </trkpt>
      <trkpt lat="44.56693" lon="5.01056">
        <ele>502</ele>
      </trkpt>
      <trkpt lat="44.56722" lon="5.00979">
        <ele>496</ele>
      </trkpt>
      <trkpt lat="44.56726" lon="5.00956">
        <ele>494</ele>
      </trkpt>
      <trkpt lat="44.56724" lon="5.00935">
        <ele>492</ele>
      </trkpt>
      <trkpt lat="44.56696" lon="5.00778">
        <ele>483</ele>
      </trkpt>
      <trkpt lat="44.56695" lon="5.00737">
        <ele>480</ele>
      </trkpt>
      <trkpt lat="44.56696" lon="5.00721">
        <ele>478</ele>
      </trkpt>
      <trkpt lat="44.56699" lon="5.00703">
        <ele>477</ele>
      </trkpt>
      <trkpt lat="44.56708" lon="5.00676">
        <ele>476</ele>
      </trkpt>
      <trkpt lat="44.56731" lon="5.00633">
        <ele>475</ele>
      </trkpt>
      <trkpt lat="44.56736" lon="5.0062">
        <ele>475</ele>
      </trkpt>
      <trkpt lat="44.56738" lon="5.00606">
        <ele>476</ele>
      </trkpt>
      <trkpt lat="44.56742" lon="5.00558">
        <ele>474</ele>
      </trkpt>
      <trkpt lat="44.56753" lon="5.00495">
        <ele>467</ele>
      </trkpt>
      <trkpt lat="44.56759" lon="5.0045">
        <ele>465</ele>
      </trkpt>
      <trkpt lat="44.56759" lon="5.00303">
        <ele>453</ele>
      </trkpt>
      <trkpt lat="44.56763" lon="5.00274">
        <ele>452</ele>
      </trkpt>
      <trkpt lat="44.56775" lon="5.00243">
        <ele>453</ele>
      </trkpt>
      <trkpt lat="44.56822" lon="5.00169">
        <ele>449</ele>
      </trkpt>
      <trkpt lat="44.56836" lon="5.00155">
        <ele>446</ele>
      </trkpt>
      <trkpt lat="44.56853" lon="5.0014">
        <ele>446</ele>
      </trkpt>
      <trkpt lat="44.56865" lon="5.00127">
        <ele>444</ele>
      </trkpt>
      <trkpt lat="44.56871" lon="5.00117">
        <ele>444</ele>
      </trkpt>
      <trkpt lat="44.56884" lon="5.00078">
        <ele>442</ele>
      </trkpt>
      <trkpt lat="44.56888" lon="5.00046">
        <ele>441</ele>
      </trkpt>
      <trkpt lat="44.56887" lon="5.00031">
        <ele>440</ele>
      </trkpt>
      <trkpt lat="44.56884" lon="5.00018">
        <ele>438</ele>
      </trkpt>
      <trkpt lat="44.56879" lon="5.00005">
        <ele>438</ele>
      </trkpt>
      <trkpt lat="44.56872" lon="4.99994">
        <ele>433</ele>
      </trkpt>
      <trkpt lat="44.56856" lon="4.99977">
        <ele>432</ele>
      </trkpt>
      <trkpt lat="44.56791" lon="4.99917">
        <ele>426</ele>
      </trkpt>
      <trkpt lat="44.56763" lon="4.99896">
        <ele>424</ele>
      </trkpt>
      <trkpt lat="44.56749" lon="4.99881">
        <ele>423</ele>
      </trkpt>
      <trkpt lat="44.56735" lon="4.99862">
        <ele>420</ele>
      </trkpt>
      <trkpt lat="44.56727" lon="4.99847">
        <ele>420</ele>
      </trkpt>
      <trkpt lat="44.56721" lon="4.9983">
        <ele>420</ele>
      </trkpt>
      <trkpt lat="44.56718" lon="4.99815">
        <ele>420</ele>
      </trkpt>
      <trkpt lat="44.56717" lon="4.99784">
        <ele>419</ele>
      </trkpt>
      <trkpt lat="44.56719" lon="4.99714">
        <ele>410</ele>
      </trkpt>
      <trkpt lat="44.56726" lon="4.99698">
        <ele>410</ele>
      </trkpt>
      <trkpt lat="44.56736" lon="4.99684">
        <ele>407</ele>
      </trkpt>
      <trkpt lat="44.56763" lon="4.99637">
        <ele>404</ele>
      </trkpt>
      <trkpt lat="44.56783" lon="4.99629">
        <ele>407</ele>
      </trkpt>
      <trkpt lat="44.56787" lon="4.99624">
        <ele>407</ele>
      </trkpt>
      <trkpt lat="44.56788" lon="4.99618">
        <ele>407</ele>
      </trkpt>
      <trkpt lat="44.56785" lon="4.99613">
        <ele>406</ele>
      </trkpt>
      <trkpt lat="44.5678" lon="4.99611">
        <ele>404</ele>
      </trkpt>
      <trkpt lat="44.56742" lon="4.99629">
        <ele>403</ele>
      </trkpt>
      <trkpt lat="44.56725" lon="4.99639">
        <ele>402</ele>
      </trkpt>
      <trkpt lat="44.56712" lon="4.9965">
        <ele>402</ele>
      </trkpt>
      <trkpt lat="44.56704" lon="4.9966">
        <ele>398</ele>
      </trkpt>
      <trkpt lat="44.56698" lon="4.99671">
        <ele>400</ele>
      </trkpt>
      <trkpt lat="44.56677" lon="4.99726">
        <ele>399</ele>
      </trkpt>
      <trkpt lat="44.56671" lon="4.99755">
        <ele>403</ele>
      </trkpt>
      <trkpt lat="44.56667" lon="4.99793">
        <ele>407</ele>
      </trkpt>
      <trkpt lat="44.56667" lon="4.99808">
        <ele>407</ele>
      </trkpt>
      <trkpt lat="44.56663" lon="4.99819">
        <ele>407</ele>
      </trkpt>
      <trkpt lat="44.56657" lon="4.99813">
        <ele>405</ele>
      </trkpt>
      <trkpt lat="44.56656" lon="4.99807">
        <ele>405</ele>
      </trkpt>
      <trkpt lat="44.5666" lon="4.99776">
        <ele>402</ele>
      </trkpt>
      <trkpt lat="44.56664" lon="4.99722">
        <ele>395</ele>
      </trkpt>
      <trkpt lat="44.56678" lon="4.99638">
        <ele>385</ele>
      </trkpt>
      <trkpt lat="44.56686" lon="4.99611">
        <ele>387</ele>
      </trkpt>
      <trkpt lat="44.56702" lon="4.99572">
        <ele>383</ele>
      </trkpt>
      <trkpt lat="44.56728" lon="4.99492">
        <ele>373</ele>
      </trkpt>
      <trkpt lat="44.56743" lon="4.99463">
        <ele>373</ele>
      </trkpt>
      <trkpt lat="44.56759" lon="4.99438">
        <ele>367</ele>
      </trkpt>
      <trkpt lat="44.56794" lon="4.99403">
        <ele>367</ele>
      </trkpt>
      <trkpt lat="44.56811" lon="4.9939">
        <ele>367</ele>
      </trkpt>
      <trkpt lat="44.56906" lon="4.99317">
        <ele>361</ele>
      </trkpt>
      <trkpt lat="44.56924" lon="4.99295">
        <ele>355</ele>
      </trkpt>
      <trkpt lat="44.56974" lon="4.9924">
        <ele>348</ele>
      </trkpt>
      <trkpt lat="44.56991" lon="4.99217">
        <ele>344</ele>
      </trkpt>
      <trkpt lat="44.57034" lon="4.99185">
        <ele>337</ele>
      </trkpt>
      <trkpt lat="44.57044" lon="4.99179">
        <ele>336</ele>
      </trkpt>
      <trkpt lat="44.57054" lon="4.99176">
        <ele>336</ele>
      </trkpt>
      <trkpt lat="44.57087" lon="4.99178">
        <ele>335</ele>
      </trkpt>
      <trkpt lat="44.57118" lon="4.99161">
        <ele>327</ele>
      </trkpt>
      <trkpt lat="44.57137" lon="4.99157">
        <ele>325</ele>
      </trkpt>
      <trkpt lat="44.57155" lon="4.99159">
        <ele>323</ele>
      </trkpt>
      <trkpt lat="44.57178" lon="4.99155">
        <ele>322</ele>
      </trkpt>
      <trkpt lat="44.57199" lon="4.99147">
        <ele>320</ele>
      </trkpt>
      <trkpt lat="44.57206" lon="4.99141">
        <ele>320</ele>
      </trkpt>
      <trkpt lat="44.57212" lon="4.99149">
        <ele>319</ele>
      </trkpt>
      <trkpt lat="44.57464" lon="4.99181">
        <ele>311</ele>
      </trkpt>
      <trkpt lat="44.57517" lon="4.99193">
        <ele>310</ele>
      </trkpt>
      <trkpt lat="44.57564" lon="4.99196">
        <ele>309</ele>
      </trkpt>
      <trkpt lat="44.57593" lon="4.99193">
        <ele>305</ele>
      </trkpt>
      <trkpt lat="44.5762" lon="4.99197">
        <ele>304</ele>
      </trkpt>
      <trkpt lat="44.57712" lon="4.9925">
        <ele>296</ele>
      </trkpt>
      <trkpt lat="44.57753" lon="4.99265">
        <ele>294</ele>
      </trkpt>
      <trkpt lat="44.57803" lon="4.99291">
        <ele>293</ele>
      </trkpt>
      <trkpt lat="44.57822" lon="4.99308">
        <ele>291</ele>
      </trkpt>
      <trkpt lat="44.57856" lon="4.99434">
        <ele>284</ele>
      </trkpt>
      <trkpt lat="44.57864" lon="4.99457">
        <ele>283</ele>
      </trkpt>
      <trkpt lat="44.57877" lon="4.99474">
        <ele>283</ele>
      </trkpt>
      <trkpt lat="44.57908" lon="4.995">
        <ele>281</ele>
      </trkpt>
      <trkpt lat="44.57952" lon="4.99515">
        <ele>281</ele>
      </trkpt>
      <trkpt lat="44.58014" lon="4.99529">
        <ele>280</ele>
      </trkpt>
      <trkpt lat="44.58061" lon="4.99548">
        <ele>278</ele>
      </trkpt>
      <trkpt lat="44.58108" lon="4.99559">
        <ele>274</ele>
      </trkpt>
      <trkpt lat="44.58137" lon="4.99563">
        <ele>273</ele>
      </trkpt>
      <trkpt lat="44.58149" lon="4.99561">
        <ele>273</ele>
      </trkpt>
      <trkpt lat="44.58197" lon="4.99537">
        <ele>271</ele>
      </trkpt>
      <trkpt lat="44.5823" lon="4.99531">
        <ele>272</ele>
      </trkpt>
      <trkpt lat="44.58264" lon="4.99519">
        <ele>271</ele>
      </trkpt>
      <trkpt lat="44.58294" lon="4.995">
        <ele>270</ele>
      </trkpt>
      <trkpt lat="44.58313" lon="4.99493">
        <ele>270</ele>
      </trkpt>
      <trkpt lat="44.58351" lon="4.99486">
        <ele>266</ele>
      </trkpt>
      <trkpt lat="44.58375" lon="4.99477">
        <ele>266</ele>
      </trkpt>
      <trkpt lat="44.58443" lon="4.99444">
        <ele>262</ele>
      </trkpt>
      <trkpt lat="44.58541" lon="4.99621">
        <ele>254</ele>
      </trkpt>
      <trkpt lat="44.58565" lon="4.9967">
        <ele>255</ele>
      </trkpt>
      <trkpt lat="44.5858" lon="4.99683">
        <ele>255</ele>
      </trkpt>
      <trkpt lat="44.58606" lon="4.99698">
        <ele>254</ele>
      </trkpt>
      <trkpt lat="44.58887" lon="4.99796">
        <ele>248</ele>
      </trkpt>
      <trkpt lat="44.58847" lon="4.99892">
        <ele>249</ele>
      </trkpt>
      <trkpt lat="44.58829" lon="5.00004">
        <ele>252</ele>
      </trkpt>
      <trkpt lat="44.58804" lon="5.00128">
        <ele>253</ele>
      </trkpt>
      <trkpt lat="44.58804" lon="5.00193">
        <ele>251</ele>
      </trkpt>
      <trkpt lat="44.58802" lon="5.00287">
        <ele>255</ele>
      </trkpt>
      <trkpt lat="44.5875" lon="5.00426">
        <ele>256</ele>
      </trkpt>
      <trkpt lat="44.58728" lon="5.00511">
        <ele>254</ele>
      </trkpt>
      <trkpt lat="44.58724" lon="5.00623">
        <ele>258</ele>
      </trkpt>
      <trkpt lat="44.5872" lon="5.00659">
        <ele>258</ele>
      </trkpt>
      <trkpt lat="44.58702" lon="5.00713">
        <ele>258</ele>
      </trkpt>
      <trkpt lat="44.58625" lon="5.00894">
        <ele>262</ele>
      </trkpt>
      <trkpt lat="44.58581" lon="5.01024">
        <ele>264</ele>
      </trkpt>
      <trkpt lat="44.58547" lon="5.01145">
        <ele>267</ele>
      </trkpt>
      <trkpt lat="44.58519" lon="5.0119">
        <ele>267</ele>
      </trkpt>
      <trkpt lat="44.58406" lon="5.0131">
        <ele>274</ele>
      </trkpt>
      <trkpt lat="44.58368" lon="5.01374">
        <ele>277</ele>
      </trkpt>
      <trkpt lat="44.58346" lon="5.01415">
        <ele>279</ele>
      </trkpt>
      <trkpt lat="44.58284" lon="5.01728">
        <ele>284</ele>
      </trkpt>
      <trkpt lat="44.58277" lon="5.01751">
        <ele>285</ele>
      </trkpt>
      <trkpt lat="44.58233" lon="5.01943">
        <ele>292</ele>
      </trkpt>
      <trkpt lat="44.58183" lon="5.0219">
        <ele>291</ele>
      </trkpt>
      <trkpt lat="44.58138" lon="5.02399">
        <ele>296</ele>
      </trkpt>
      <trkpt lat="44.58089" lon="5.02603">
        <ele>303</ele>
      </trkpt>
      <trkpt lat="44.58067" lon="5.02707">
        <ele>308</ele>
      </trkpt>
      <trkpt lat="44.58025" lon="5.03039">
        <ele>325</ele>
      </trkpt>
      <trkpt lat="44.58004" lon="5.03201">
        <ele>328</ele>
      </trkpt>
      <trkpt lat="44.58006" lon="5.03224">
        <ele>327</ele>
      </trkpt>
      <trkpt lat="44.58017" lon="5.0326">
        <ele>325</ele>
      </trkpt>
      <trkpt lat="44.58046" lon="5.03325">
        <ele>329</ele>
      </trkpt>
      <trkpt lat="44.58064" lon="5.03358">
        <ele>329</ele>
      </trkpt>
      <trkpt lat="44.58065" lon="5.03372">
        <ele>328</ele>
      </trkpt>
      <trkpt lat="44.58041" lon="5.03418">
        <ele>332</ele>
      </trkpt>
      <trkpt lat="44.58034" lon="5.03445">
        <ele>332</ele>
      </trkpt>
      <trkpt lat="44.58033" lon="5.03464">
        <ele>332</ele>
      </trkpt>
      <trkpt lat="44.58034" lon="5.03485">
        <ele>334</ele>
      </trkpt>
      <trkpt lat="44.58041" lon="5.03505">
        <ele>338</ele>
      </trkpt>
      <trkpt lat="44.58067" lon="5.03538">
        <ele>335</ele>
      </trkpt>
      <trkpt lat="44.58084" lon="5.03555">
        <ele>332</ele>
      </trkpt>
      <trkpt lat="44.58112" lon="5.03579">
        <ele>334</ele>
      </trkpt>
      <trkpt lat="44.58146" lon="5.03599">
        <ele>335</ele>
      </trkpt>
      <trkpt lat="44.58175" lon="5.03611">
        <ele>335</ele>
      </trkpt>
      <trkpt lat="44.5819" lon="5.03621">
        <ele>336</ele>
      </trkpt>
      <trkpt lat="44.58201" lon="5.03634">
        <ele>336</ele>
      </trkpt>
      <trkpt lat="44.58217" lon="5.03699">
        <ele>338</ele>
      </trkpt>
      <trkpt lat="44.58217" lon="5.03732">
        <ele>338</ele>
      </trkpt>
      <trkpt lat="44.58214" lon="5.0376">
        <ele>339</ele>
      </trkpt>
      <trkpt lat="44.58213" lon="5.0378">
        <ele>341</ele>
      </trkpt>
      <trkpt lat="44.58229" lon="5.03821">
        <ele>342</ele>
      </trkpt>
      <trkpt lat="44.58231" lon="5.03833">
        <ele>343</ele>
      </trkpt>
      <trkpt lat="44.5823" lon="5.03903">
        <ele>341</ele>
      </trkpt>
      <trkpt lat="44.58231" lon="5.03927">
        <ele>342</ele>
      </trkpt>
      <trkpt lat="44.58247" lon="5.03974">
        <ele>347</ele>
      </trkpt>
      <trkpt lat="44.58248" lon="5.03998">
        <ele>347</ele>
      </trkpt>
      <trkpt lat="44.58244" lon="5.04025">
        <ele>347</ele>
      </trkpt>
      <trkpt lat="44.58213" lon="5.04145">
        <ele>355</ele>
      </trkpt>
      <trkpt lat="44.58201" lon="5.04215">
        <ele>351</ele>
      </trkpt>
      <trkpt lat="44.58194" lon="5.04275">
        <ele>354</ele>
      </trkpt>
      <trkpt lat="44.5817" lon="5.04362">
        <ele>354</ele>
      </trkpt>
      <trkpt lat="44.58153" lon="5.04391">
        <ele>354</ele>
      </trkpt>
      <trkpt lat="44.58123" lon="5.04425">
        <ele>353</ele>
      </trkpt>
      <trkpt lat="44.58113" lon="5.0444">
        <ele>353</ele>
      </trkpt>
      <trkpt lat="44.58111" lon="5.04452">
        <ele>353</ele>
      </trkpt>
      <trkpt lat="44.5811" lon="5.04478">
        <ele>354</ele>
      </trkpt>
      <trkpt lat="44.58111" lon="5.04495">
        <ele>354</ele>
      </trkpt>
      <trkpt lat="44.58118" lon="5.04501">
        <ele>355</ele>
      </trkpt>
      <trkpt lat="44.58136" lon="5.04506">
        <ele>361</ele>
      </trkpt>
      <trkpt lat="44.5814" lon="5.04509">
        <ele>361</ele>
      </trkpt>
      <trkpt lat="44.58141" lon="5.04524">
        <ele>362</ele>
      </trkpt>
      <trkpt lat="44.58152" lon="5.04817">
        <ele>374</ele>
      </trkpt>
      <trkpt lat="44.58153" lon="5.04834">
        <ele>374</ele>
      </trkpt>
      <trkpt lat="44.58142" lon="5.04896">
        <ele>381</ele>
      </trkpt>
      <trkpt lat="44.58136" lon="5.04973">
        <ele>385</ele>
      </trkpt>
      <trkpt lat="44.58134" lon="5.05088">
        <ele>367</ele>
      </trkpt>
      <trkpt lat="44.58137" lon="5.05113">
        <ele>364</ele>
      </trkpt>
      <trkpt lat="44.58142" lon="5.05128">
        <ele>363</ele>
      </trkpt>
      <trkpt lat="44.58191" lon="5.0522">
        <ele>370</ele>
      </trkpt>
      <trkpt lat="44.58194" lon="5.05231">
        <ele>370</ele>
      </trkpt>
      <trkpt lat="44.582" lon="5.05266">
        <ele>367</ele>
      </trkpt>
      <trkpt lat="44.58204" lon="5.05276">
        <ele>367</ele>
      </trkpt>
      <trkpt lat="44.5821" lon="5.05285">
        <ele>365</ele>
      </trkpt>
      <trkpt lat="44.58281" lon="5.05381">
        <ele>369</ele>
      </trkpt>
      <trkpt lat="44.58252" lon="5.0545">
        <ele>365</ele>
      </trkpt>
      <trkpt lat="44.58234" lon="5.05488">
        <ele>369</ele>
      </trkpt>
      <trkpt lat="44.58183" lon="5.05577">
        <ele>380</ele>
      </trkpt>
      <trkpt lat="44.58158" lon="5.05606">
        <ele>378</ele>
      </trkpt>
      <trkpt lat="44.58137" lon="5.05627">
        <ele>377</ele>
      </trkpt>
      <trkpt lat="44.57972" lon="5.05769">
        <ele>378</ele>
      </trkpt>
      <trkpt lat="44.57958" lon="5.05774">
        <ele>375</ele>
      </trkpt>
      <trkpt lat="44.57945" lon="5.05773">
        <ele>375</ele>
      </trkpt>
      <trkpt lat="44.57934" lon="5.05769">
        <ele>375</ele>
      </trkpt>
      <trkpt lat="44.5784" lon="5.05708">
        <ele>371</ele>
      </trkpt>
      <trkpt lat="44.57826" lon="5.05702">
        <ele>371</ele>
      </trkpt>
      <trkpt lat="44.57818" lon="5.05703">
        <ele>374</ele>
      </trkpt>
      <trkpt lat="44.57805" lon="5.05708">
        <ele>374</ele>
      </trkpt>
      <trkpt lat="44.57751" lon="5.05771">
        <ele>378</ele>
      </trkpt>
      <trkpt lat="44.57698" lon="5.05859">
        <ele>382</ele>
      </trkpt>
      <trkpt lat="44.57688" lon="5.059">
        <ele>380</ele>
      </trkpt>
      <trkpt lat="44.57678" lon="5.05956">
        <ele>386</ele>
      </trkpt>
      <trkpt lat="44.57658" lon="5.06005">
        <ele>386</ele>
      </trkpt>
      <trkpt lat="44.57634" lon="5.06029">
        <ele>391</ele>
      </trkpt>
      <trkpt lat="44.57614" lon="5.06055">
        <ele>394</ele>
      </trkpt>
      <trkpt lat="44.57605" lon="5.06066">
        <ele>392</ele>
      </trkpt>
      <trkpt lat="44.5758" lon="5.06119">
        <ele>394</ele>
      </trkpt>
      <trkpt lat="44.57564" lon="5.06214">
        <ele>399</ele>
      </trkpt>
      <trkpt lat="44.5756" lon="5.06265">
        <ele>399</ele>
      </trkpt>
      <trkpt lat="44.57558" lon="5.06318">
        <ele>399</ele>
      </trkpt>
      <trkpt lat="44.57549" lon="5.06331">
        <ele>401</ele>
      </trkpt>
      <trkpt lat="44.57545" lon="5.06342">
        <ele>401</ele>
      </trkpt>
      <trkpt lat="44.57531" lon="5.0634">
        <ele>409</ele>
      </trkpt>
      <trkpt lat="44.57446" lon="5.06352">
        <ele>426</ele>
      </trkpt>
      <trkpt lat="44.57425" lon="5.0635">
        <ele>428</ele>
      </trkpt>
      <trkpt lat="44.57393" lon="5.06342">
        <ele>433</ele>
      </trkpt>
      <trkpt lat="44.57387" lon="5.06351">
        <ele>433</ele>
      </trkpt>
      <trkpt lat="44.57396" lon="5.0637">
        <ele>434</ele>
      </trkpt>
      <trkpt lat="44.57429" lon="5.06395">
        <ele>431</ele>
      </trkpt>
      <trkpt lat="44.57481" lon="5.06424">
        <ele>424</ele>
      </trkpt>
      <trkpt lat="44.57492" lon="5.06439">
        <ele>417</ele>
      </trkpt>
      <trkpt lat="44.57493" lon="5.06445">
        <ele>417</ele>
      </trkpt>
      <trkpt lat="44.5749" lon="5.06468">
        <ele>418</ele>
      </trkpt>
      <trkpt lat="44.57483" lon="5.06495">
        <ele>427</ele>
      </trkpt>
      <trkpt lat="44.57444" lon="5.06543">
        <ele>442</ele>
      </trkpt>
      <trkpt lat="44.57429" lon="5.06564">
        <ele>446</ele>
      </trkpt>
      <trkpt lat="44.57433" lon="5.06581">
        <ele>442</ele>
      </trkpt>
      <trkpt lat="44.57452" lon="5.06595">
        <ele>439</ele>
      </trkpt>
      <trkpt lat="44.57453" lon="5.06624">
        <ele>437</ele>
      </trkpt>
      <trkpt lat="44.57447" lon="5.06652">
        <ele>438</ele>
      </trkpt>
      <trkpt lat="44.5743" lon="5.06707">
        <ele>446</ele>
      </trkpt>
      <trkpt lat="44.57424" lon="5.06734">
        <ele>447</ele>
      </trkpt>
      <trkpt lat="44.5742" lon="5.0676">
        <ele>449</ele>
      </trkpt>
      <trkpt lat="44.57419" lon="5.0678">
        <ele>451</ele>
      </trkpt>
      <trkpt lat="44.57416" lon="5.06797">
        <ele>452</ele>
      </trkpt>
      <trkpt lat="44.57411" lon="5.06806">
        <ele>453</ele>
      </trkpt>
      <trkpt lat="44.57399" lon="5.06813">
        <ele>455</ele>
      </trkpt>
      <trkpt lat="44.57379" lon="5.06817">
        <ele>456</ele>
      </trkpt>
      <trkpt lat="44.57362" lon="5.06826">
        <ele>459</ele>
      </trkpt>
      <trkpt lat="44.57326" lon="5.06879">
        <ele>457</ele>
      </trkpt>
      <trkpt lat="44.57317" lon="5.06887">
        <ele>462</ele>
      </trkpt>
      <trkpt lat="44.57297" lon="5.0689">
        <ele>463</ele>
      </trkpt>
      <trkpt lat="44.57267" lon="5.06879">
        <ele>470</ele>
      </trkpt>
      <trkpt lat="44.57222" lon="5.06867">
        <ele>474</ele>
      </trkpt>
      <trkpt lat="44.57189" lon="5.06864">
        <ele>475</ele>
      </trkpt>
      <trkpt lat="44.57165" lon="5.06868">
        <ele>477</ele>
      </trkpt>
      <trkpt lat="44.57141" lon="5.06881">
        <ele>479</ele>
      </trkpt>
      <trkpt lat="44.57111" lon="5.06905">
        <ele>477</ele>
      </trkpt>
      <trkpt lat="44.57065" lon="5.06958">
        <ele>484</ele>
      </trkpt>
      <trkpt lat="44.57057" lon="5.06974">
        <ele>485</ele>
      </trkpt>
      <trkpt lat="44.57052" lon="5.07005">
        <ele>490</ele>
      </trkpt>
      <trkpt lat="44.57054" lon="5.07028">
        <ele>492</ele>
      </trkpt>
      <trkpt lat="44.57063" lon="5.0704">
        <ele>496</ele>
      </trkpt>
      <trkpt lat="44.57072" lon="5.07048">
        <ele>494</ele>
      </trkpt>
      <trkpt lat="44.57106" lon="5.07055">
        <ele>487</ele>
      </trkpt>
      <trkpt lat="44.57127" lon="5.07066">
        <ele>480</ele>
      </trkpt>
      <trkpt lat="44.5713" lon="5.07082">
        <ele>479</ele>
      </trkpt>
      <trkpt lat="44.57127" lon="5.07096">
        <ele>480</ele>
      </trkpt>
      <trkpt lat="44.57091" lon="5.07253">
        <ele>505</ele>
      </trkpt>
      <trkpt lat="44.57078" lon="5.0728">
        <ele>508</ele>
      </trkpt>
      <trkpt lat="44.57075" lon="5.0729">
        <ele>509</ele>
      </trkpt>
      <trkpt lat="44.57085" lon="5.07304">
        <ele>509</ele>
      </trkpt>
      <trkpt lat="44.57106" lon="5.07318">
        <ele>506</ele>
      </trkpt>
      <trkpt lat="44.57119" lon="5.0733">
        <ele>506</ele>
      </trkpt>
      <trkpt lat="44.57127" lon="5.07381">
        <ele>508</ele>
      </trkpt>
      <trkpt lat="44.5713" lon="5.07432">
        <ele>511</ele>
      </trkpt>
      <trkpt lat="44.5713" lon="5.07468">
        <ele>511</ele>
      </trkpt>
      <trkpt lat="44.57126" lon="5.07503">
        <ele>517</ele>
      </trkpt>
      <trkpt lat="44.57109" lon="5.0757">
        <ele>519</ele>
      </trkpt>
      <trkpt lat="44.57107" lon="5.07607">
        <ele>522</ele>
      </trkpt>
      <trkpt lat="44.57128" lon="5.07645">
        <ele>521</ele>
      </trkpt>
      <trkpt lat="44.57154" lon="5.07658">
        <ele>519</ele>
      </trkpt>
      <trkpt lat="44.57203" lon="5.07726">
        <ele>505</ele>
      </trkpt>
      <trkpt lat="44.57228" lon="5.07786">
        <ele>499</ele>
      </trkpt>
      <trkpt lat="44.57231" lon="5.07852">
        <ele>497</ele>
      </trkpt>
      <trkpt lat="44.57226" lon="5.07883">
        <ele>497</ele>
      </trkpt>
      <trkpt lat="44.57203" lon="5.0792">
        <ele>498</ele>
      </trkpt>
      <trkpt lat="44.57203" lon="5.07957">
        <ele>495</ele>
      </trkpt>
      <trkpt lat="44.57218" lon="5.08058">
        <ele>484</ele>
      </trkpt>
      <trkpt lat="44.57211" lon="5.08094">
        <ele>483</ele>
      </trkpt>
      <trkpt lat="44.5721" lon="5.08105">
        <ele>486</ele>
      </trkpt>
      <trkpt lat="44.57213" lon="5.08111">
        <ele>483</ele>
      </trkpt>
      <trkpt lat="44.57217" lon="5.08112">
        <ele>482</ele>
      </trkpt>
      <trkpt lat="44.57222" lon="5.0811">
        <ele>482</ele>
      </trkpt>
      <trkpt lat="44.57225" lon="5.08103">
        <ele>482</ele>
      </trkpt>
      <trkpt lat="44.57232" lon="5.08066">
        <ele>483</ele>
      </trkpt>
      <trkpt lat="44.57236" lon="5.08062">
        <ele>483</ele>
      </trkpt>
      <trkpt lat="44.57241" lon="5.08062">
        <ele>480</ele>
      </trkpt>
      <trkpt lat="44.57245" lon="5.08067">
        <ele>480</ele>
      </trkpt>
      <trkpt lat="44.57245" lon="5.08074">
        <ele>479</ele>
      </trkpt>
      <trkpt lat="44.57238" lon="5.08142">
        <ele>477</ele>
      </trkpt>
      <trkpt lat="44.57234" lon="5.08158">
        <ele>476</ele>
      </trkpt>
      <trkpt lat="44.57226" lon="5.08174">
        <ele>475</ele>
      </trkpt>
      <trkpt lat="44.57224" lon="5.08185">
        <ele>474</ele>
      </trkpt>
      <trkpt lat="44.57225" lon="5.08194">
        <ele>475</ele>
      </trkpt>
      <trkpt lat="44.57255" lon="5.08311">
        <ele>465</ele>
      </trkpt>
      <trkpt lat="44.57257" lon="5.08328">
        <ele>465</ele>
      </trkpt>
      <trkpt lat="44.57255" lon="5.08341">
        <ele>464</ele>
      </trkpt>
      <trkpt lat="44.57251" lon="5.0835">
        <ele>466</ele>
      </trkpt>
      <trkpt lat="44.5723" lon="5.08368">
        <ele>475</ele>
      </trkpt>
      <trkpt lat="44.57228" lon="5.08379">
        <ele>476</ele>
      </trkpt>
      <trkpt lat="44.57231" lon="5.08388">
        <ele>475</ele>
      </trkpt>
      <trkpt lat="44.57251" lon="5.08409">
        <ele>464</ele>
      </trkpt>
      <trkpt lat="44.57254" lon="5.0842">
        <ele>463</ele>
      </trkpt>
      <trkpt lat="44.57255" lon="5.08473">
        <ele>462</ele>
      </trkpt>
      <trkpt lat="44.57253" lon="5.08493">
        <ele>460</ele>
      </trkpt>
      <trkpt lat="44.57241" lon="5.08533">
        <ele>458</ele>
      </trkpt>
      <trkpt lat="44.57242" lon="5.08547">
        <ele>458</ele>
      </trkpt>
      <trkpt lat="44.57248" lon="5.08562">
        <ele>457</ele>
      </trkpt>
      <trkpt lat="44.57255" lon="5.08573">
        <ele>457</ele>
      </trkpt>
      <trkpt lat="44.57268" lon="5.08576">
        <ele>457</ele>
      </trkpt>
      <trkpt lat="44.57291" lon="5.08571">
        <ele>457</ele>
      </trkpt>
      <trkpt lat="44.573" lon="5.08562">
        <ele>458</ele>
      </trkpt>
      <trkpt lat="44.57313" lon="5.08528">
        <ele>457</ele>
      </trkpt>
      <trkpt lat="44.57334" lon="5.0846">
        <ele>460</ele>
      </trkpt>
      <trkpt lat="44.57346" lon="5.0844">
        <ele>458</ele>
      </trkpt>
      <trkpt lat="44.57369" lon="5.08431">
        <ele>461</ele>
      </trkpt>
      <trkpt lat="44.57407" lon="5.0842">
        <ele>462</ele>
      </trkpt>
      <trkpt lat="44.57477" lon="5.08441">
        <ele>464</ele>
      </trkpt>
      <trkpt lat="44.57485" lon="5.08441">
        <ele>464</ele>
      </trkpt>
      <trkpt lat="44.57502" lon="5.08438">
        <ele>465</ele>
      </trkpt>
      <trkpt lat="44.57595" lon="5.08398">
        <ele>469</ele>
      </trkpt>
      <trkpt lat="44.57631" lon="5.08387">
        <ele>475</ele>
      </trkpt>
      <trkpt lat="44.57653" lon="5.08385">
        <ele>476</ele>
      </trkpt>
      <trkpt lat="44.57701" lon="5.08403">
        <ele>489</ele>
      </trkpt>
      <trkpt lat="44.57721" lon="5.08404">
        <ele>493</ele>
      </trkpt>
      <trkpt lat="44.57778" lon="5.08392">
        <ele>493</ele>
      </trkpt>
      <trkpt lat="44.57789" lon="5.08395">
        <ele>494</ele>
      </trkpt>
      <trkpt lat="44.57809" lon="5.08407">
        <ele>497</ele>
      </trkpt>
      <trkpt lat="44.57817" lon="5.08405">
        <ele>498</ele>
      </trkpt>
      <trkpt lat="44.5783" lon="5.08394">
        <ele>501</ele>
      </trkpt>
      <trkpt lat="44.57844" lon="5.08353">
        <ele>498</ele>
      </trkpt>
      <trkpt lat="44.57842" lon="5.08338">
        <ele>498</ele>
      </trkpt>
      <trkpt lat="44.57829" lon="5.08311">
        <ele>499</ele>
      </trkpt>
      <trkpt lat="44.57826" lon="5.08288">
        <ele>500</ele>
      </trkpt>
      <trkpt lat="44.57828" lon="5.08257">
        <ele>502</ele>
      </trkpt>
      <trkpt lat="44.57833" lon="5.08223">
        <ele>503</ele>
      </trkpt>
      <trkpt lat="44.5783" lon="5.08204">
        <ele>504</ele>
      </trkpt>
      <trkpt lat="44.57815" lon="5.08168">
        <ele>504</ele>
      </trkpt>
      <trkpt lat="44.57809" lon="5.08145">
        <ele>504</ele>
      </trkpt>
      <trkpt lat="44.57835" lon="5.08193">
        <ele>505</ele>
      </trkpt>
      <trkpt lat="44.57843" lon="5.08219">
        <ele>504</ele>
      </trkpt>
      <trkpt lat="44.57841" lon="5.0827">
        <ele>502</ele>
      </trkpt>
      <trkpt lat="44.57849" lon="5.083">
        <ele>502</ele>
      </trkpt>
      <trkpt lat="44.57873" lon="5.08326">
        <ele>503</ele>
      </trkpt>
      <trkpt lat="44.57878" lon="5.08346">
        <ele>505</ele>
      </trkpt>
      <trkpt lat="44.57889" lon="5.08353">
        <ele>504</ele>
      </trkpt>
      <trkpt lat="44.57913" lon="5.08361">
        <ele>510</ele>
      </trkpt>
      <trkpt lat="44.57929" lon="5.08379">
        <ele>510</ele>
      </trkpt>
      <trkpt lat="44.57934" lon="5.08394">
        <ele>515</ele>
      </trkpt>
      <trkpt lat="44.57934" lon="5.08406">
        <ele>515</ele>
      </trkpt>
      <trkpt lat="44.57928" lon="5.08419">
        <ele>513</ele>
      </trkpt>
      <trkpt lat="44.57918" lon="5.08424">
        <ele>515</ele>
      </trkpt>
      <trkpt lat="44.57902" lon="5.08422">
        <ele>513</ele>
      </trkpt>
      <trkpt lat="44.57882" lon="5.08436">
        <ele>515</ele>
      </trkpt>
      <trkpt lat="44.57804" lon="5.085">
        <ele>518</ele>
      </trkpt>
      <trkpt lat="44.57746" lon="5.08552">
        <ele>525</ele>
      </trkpt>
      <trkpt lat="44.57725" lon="5.08601">
        <ele>534</ele>
      </trkpt>
      <trkpt lat="44.57658" lon="5.08655">
        <ele>534</ele>
      </trkpt>
      <trkpt lat="44.57621" lon="5.0872">
        <ele>535</ele>
      </trkpt>
      <trkpt lat="44.57602" lon="5.08761">
        <ele>538</ele>
      </trkpt>
      <trkpt lat="44.576" lon="5.08882">
        <ele>543</ele>
      </trkpt>
      <trkpt lat="44.57607" lon="5.08887">
        <ele>544</ele>
      </trkpt>
      <trkpt lat="44.57616" lon="5.08885">
        <ele>545</ele>
      </trkpt>
      <trkpt lat="44.57618" lon="5.08879">
        <ele>545</ele>
      </trkpt>
      <trkpt lat="44.57617" lon="5.08823">
        <ele>543</ele>
      </trkpt>
      <trkpt lat="44.57631" lon="5.088">
        <ele>544</ele>
      </trkpt>
      <trkpt lat="44.57768" lon="5.08708">
        <ele>563</ele>
      </trkpt>
      <trkpt lat="44.57789" lon="5.08705">
        <ele>563</ele>
      </trkpt>
      <trkpt lat="44.5781" lon="5.08761">
        <ele>569</ele>
      </trkpt>
      <trkpt lat="44.57852" lon="5.08848">
        <ele>584</ele>
      </trkpt>
      <trkpt lat="44.57859" lon="5.08895">
        <ele>585</ele>
      </trkpt>
      <trkpt lat="44.57859" lon="5.08942">
        <ele>586</ele>
      </trkpt>
      <trkpt lat="44.5785" lon="5.08987">
        <ele>586</ele>
      </trkpt>
      <trkpt lat="44.57837" lon="5.0903">
        <ele>583</ele>
      </trkpt>
      <trkpt lat="44.57814" lon="5.09078">
        <ele>581</ele>
      </trkpt>
      <trkpt lat="44.5781" lon="5.09097">
        <ele>582</ele>
      </trkpt>
      <trkpt lat="44.57814" lon="5.09112">
        <ele>582</ele>
      </trkpt>
      <trkpt lat="44.57819" lon="5.0912">
        <ele>583</ele>
      </trkpt>
      <trkpt lat="44.5783" lon="5.09128">
        <ele>586</ele>
      </trkpt>
      <trkpt lat="44.57857" lon="5.09139">
        <ele>591</ele>
      </trkpt>
      <trkpt lat="44.57867" lon="5.09155">
        <ele>591</ele>
      </trkpt>
      <trkpt lat="44.57868" lon="5.09177">
        <ele>592</ele>
      </trkpt>
      <trkpt lat="44.57861" lon="5.0919">
        <ele>592</ele>
      </trkpt>
      <trkpt lat="44.57848" lon="5.09203">
        <ele>591</ele>
      </trkpt>
      <trkpt lat="44.57813" lon="5.09261">
        <ele>595</ele>
      </trkpt>
      <trkpt lat="44.57803" lon="5.09283">
        <ele>598</ele>
      </trkpt>
      <trkpt lat="44.57799" lon="5.09306">
        <ele>598</ele>
      </trkpt>
      <trkpt lat="44.57801" lon="5.09336">
        <ele>601</ele>
      </trkpt>
      <trkpt lat="44.57808" lon="5.09388">
        <ele>603</ele>
      </trkpt>
      <trkpt lat="44.57817" lon="5.0942">
        <ele>604</ele>
      </trkpt>
      <trkpt lat="44.57887" lon="5.0958">
        <ele>619</ele>
      </trkpt>
      <trkpt lat="44.57897" lon="5.09632">
        <ele>620</ele>
      </trkpt>
      <trkpt lat="44.57917" lon="5.09663">
        <ele>623</ele>
      </trkpt>
      <trkpt lat="44.57956" lon="5.09683">
        <ele>624</ele>
      </trkpt>
      <trkpt lat="44.5798" lon="5.09715">
        <ele>622</ele>
      </trkpt>
      <trkpt lat="44.58005" lon="5.09762">
        <ele>623</ele>
      </trkpt>
      <trkpt lat="44.58072" lon="5.09868">
        <ele>624</ele>
      </trkpt>
      <trkpt lat="44.58161" lon="5.09924">
        <ele>631</ele>
      </trkpt>
      <trkpt lat="44.58166" lon="5.0994">
        <ele>632</ele>
      </trkpt>
      <trkpt lat="44.58162" lon="5.1009">
        <ele>636</ele>
      </trkpt>
      <trkpt lat="44.58152" lon="5.10186">
        <ele>639</ele>
      </trkpt>
      <trkpt lat="44.58145" lon="5.10208">
        <ele>640</ele>
      </trkpt>
      <trkpt lat="44.58141" lon="5.10217">
        <ele>640</ele>
      </trkpt>
      <trkpt lat="44.58133" lon="5.10269">
        <ele>640</ele>
      </trkpt>
      <trkpt lat="44.58136" lon="5.10322">
        <ele>638</ele>
      </trkpt>
      <trkpt lat="44.58121" lon="5.10441">
        <ele>644</ele>
      </trkpt>
      <trkpt lat="44.58084" lon="5.10518">
        <ele>653</ele>
      </trkpt>
      <trkpt lat="44.58055" lon="5.10575">
        <ele>649</ele>
      </trkpt>
      <trkpt lat="44.58026" lon="5.10614">
        <ele>649</ele>
      </trkpt>
      <trkpt lat="44.5801" lon="5.10653">
        <ele>653</ele>
      </trkpt>
      <trkpt lat="44.5792" lon="5.10758">
        <ele>650</ele>
      </trkpt>
      <trkpt lat="44.57792" lon="5.10886">
        <ele>654</ele>
      </trkpt>
      <trkpt lat="44.57767" lon="5.10856">
        <ele>656</ele>
      </trkpt>
      <trkpt lat="44.57752" lon="5.10843">
        <ele>659</ele>
      </trkpt>
      <trkpt lat="44.57729" lon="5.10839">
        <ele>663</ele>
      </trkpt>
      <trkpt lat="44.57712" lon="5.10823">
        <ele>664</ele>
      </trkpt>
      <trkpt lat="44.57707" lon="5.1081">
        <ele>666</ele>
      </trkpt>
      <trkpt lat="44.5771" lon="5.10786">
        <ele>665</ele>
      </trkpt>
      <trkpt lat="44.57723" lon="5.10751">
        <ele>663</ele>
      </trkpt>
      <trkpt lat="44.57746" lon="5.10718">
        <ele>659</ele>
      </trkpt>
      <trkpt lat="44.57768" lon="5.10683">
        <ele>650</ele>
      </trkpt>
      <trkpt lat="44.57781" lon="5.10655">
        <ele>646</ele>
      </trkpt>
      <trkpt lat="44.57791" lon="5.10607">
        <ele>642</ele>
      </trkpt>
      <trkpt lat="44.57788" lon="5.1059">
        <ele>642</ele>
      </trkpt>
      <trkpt lat="44.57772" lon="5.10571">
        <ele>640</ele>
      </trkpt>
      <trkpt lat="44.57739" lon="5.10566">
        <ele>647</ele>
      </trkpt>
      <trkpt lat="44.5771" lon="5.10567">
        <ele>652</ele>
      </trkpt>
      <trkpt lat="44.57666" lon="5.10585">
        <ele>653</ele>
      </trkpt>
      <trkpt lat="44.57633" lon="5.10612">
        <ele>657</ele>
      </trkpt>
      <trkpt lat="44.5757" lon="5.10681">
        <ele>658</ele>
      </trkpt>
      <trkpt lat="44.57555" lon="5.10691">
        <ele>657</ele>
      </trkpt>
      <trkpt lat="44.57538" lon="5.10703">
        <ele>659</ele>
      </trkpt>
      <trkpt lat="44.57504" lon="5.1072">
        <ele>659</ele>
      </trkpt>
      <trkpt lat="44.57485" lon="5.10723">
        <ele>657</ele>
      </trkpt>
      <trkpt lat="44.57459" lon="5.10722">
        <ele>655</ele>
      </trkpt>
      <trkpt lat="44.57397" lon="5.10703">
        <ele>647</ele>
      </trkpt>
      <trkpt lat="44.5737" lon="5.10701">
        <ele>645</ele>
      </trkpt>
      <trkpt lat="44.57358" lon="5.1071">
        <ele>646</ele>
      </trkpt>
      <trkpt lat="44.57347" lon="5.10722">
        <ele>642</ele>
      </trkpt>
      <trkpt lat="44.57334" lon="5.10755">
        <ele>646</ele>
      </trkpt>
      <trkpt lat="44.57324" lon="5.1077">
        <ele>645</ele>
      </trkpt>
      <trkpt lat="44.57309" lon="5.10778">
        <ele>641</ele>
      </trkpt>
      <trkpt lat="44.57298" lon="5.10777">
        <ele>641</ele>
      </trkpt>
      <trkpt lat="44.57289" lon="5.10773">
        <ele>641</ele>
      </trkpt>
      <trkpt lat="44.57278" lon="5.10762">
        <ele>641</ele>
      </trkpt>
      <trkpt lat="44.5727" lon="5.10751">
        <ele>638</ele>
      </trkpt>
      <trkpt lat="44.57237" lon="5.1069">
        <ele>633</ele>
      </trkpt>
      <trkpt lat="44.57201" lon="5.10648">
        <ele>634</ele>
      </trkpt>
      <trkpt lat="44.57165" lon="5.10617">
        <ele>633</ele>
      </trkpt>
      <trkpt lat="44.57074" lon="5.10565">
        <ele>629</ele>
      </trkpt>
      <trkpt lat="44.57046" lon="5.1056">
        <ele>627</ele>
      </trkpt>
      <trkpt lat="44.57034" lon="5.10562">
        <ele>627</ele>
      </trkpt>
      <trkpt lat="44.57012" lon="5.10575">
        <ele>627</ele>
      </trkpt>
      <trkpt lat="44.56929" lon="5.10643">
        <ele>634</ele>
      </trkpt>
      <trkpt lat="44.56919" lon="5.10645">
        <ele>634</ele>
      </trkpt>
      <trkpt lat="44.56909" lon="5.10645">
        <ele>633</ele>
      </trkpt>
      <trkpt lat="44.569" lon="5.10641">
        <ele>628</ele>
      </trkpt>
      <trkpt lat="44.56889" lon="5.1063">
        <ele>626</ele>
      </trkpt>
      <trkpt lat="44.56881" lon="5.10617">
        <ele>625</ele>
      </trkpt>
      <trkpt lat="44.56855" lon="5.1054">
        <ele>619</ele>
      </trkpt>
      <trkpt lat="44.56848" lon="5.10526">
        <ele>621</ele>
      </trkpt>
      <trkpt lat="44.56836" lon="5.1051">
        <ele>622</ele>
      </trkpt>
      <trkpt lat="44.56764" lon="5.10458">
        <ele>622</ele>
      </trkpt>
      <trkpt lat="44.56748" lon="5.10442">
        <ele>621</ele>
      </trkpt>
      <trkpt lat="44.56733" lon="5.10423">
        <ele>623</ele>
      </trkpt>
      <trkpt lat="44.56702" lon="5.10379">
        <ele>623</ele>
      </trkpt>
      <trkpt lat="44.56627" lon="5.10264">
        <ele>623</ele>
      </trkpt>
      <trkpt lat="44.5658" lon="5.10198">
        <ele>625</ele>
      </trkpt>
      <trkpt lat="44.56372" lon="5.09887">
        <ele>635</ele>
      </trkpt>
      <trkpt lat="44.56361" lon="5.09873">
        <ele>635</ele>
      </trkpt>
      <trkpt lat="44.56357" lon="5.09882">
        <ele>635</ele>
      </trkpt>
      <trkpt lat="44.56358" lon="5.09892">
        <ele>636</ele>
      </trkpt>
      <trkpt lat="44.56366" lon="5.09903">
        <ele>636</ele>
      </trkpt>
      <trkpt lat="44.5637" lon="5.09916">
        <ele>636</ele>
      </trkpt>
      <trkpt lat="44.56374" lon="5.09937">
        <ele>636</ele>
      </trkpt>
      <trkpt lat="44.5643" lon="5.10361">
        <ele>648</ele>
      </trkpt>
      <trkpt lat="44.56429" lon="5.10379">
        <ele>649</ele>
      </trkpt>
      <trkpt lat="44.56404" lon="5.10488">
        <ele>655</ele>
      </trkpt>
      <trkpt lat="44.56393" lon="5.10543">
        <ele>659</ele>
      </trkpt>
      <trkpt lat="44.56384" lon="5.10604">
        <ele>665</ele>
      </trkpt>
      <trkpt lat="44.56379" lon="5.10627">
        <ele>668</ele>
      </trkpt>
      <trkpt lat="44.56371" lon="5.10647">
        <ele>668</ele>
      </trkpt>
      <trkpt lat="44.56361" lon="5.10662">
        <ele>667</ele>
      </trkpt>
      <trkpt lat="44.56285" lon="5.10762">
        <ele>660</ele>
      </trkpt>
      <trkpt lat="44.56264" lon="5.10787">
        <ele>661</ele>
      </trkpt>
      <trkpt lat="44.56216" lon="5.10832">
        <ele>662</ele>
      </trkpt>
      <trkpt lat="44.56192" lon="5.10857">
        <ele>663</ele>
      </trkpt>
      <trkpt lat="44.5609" lon="5.10982">
        <ele>668</ele>
      </trkpt>
      <trkpt lat="44.56077" lon="5.10999">
        <ele>668</ele>
      </trkpt>
      <trkpt lat="44.56057" lon="5.11043">
        <ele>670</ele>
      </trkpt>
      <trkpt lat="44.56033" lon="5.11087">
        <ele>676</ele>
      </trkpt>
      <trkpt lat="44.5602" lon="5.11131">
        <ele>677</ele>
      </trkpt>
      <trkpt lat="44.56002" lon="5.11176">
        <ele>679</ele>
      </trkpt>
      <trkpt lat="44.55995" lon="5.11215">
        <ele>681</ele>
      </trkpt>
      <trkpt lat="44.55988" lon="5.11233">
        <ele>683</ele>
      </trkpt>
      <trkpt lat="44.55974" lon="5.11259">
        <ele>683</ele>
      </trkpt>
      <trkpt lat="44.55957" lon="5.11283">
        <ele>684</ele>
      </trkpt>
      <trkpt lat="44.5591" lon="5.11341">
        <ele>684</ele>
      </trkpt>
      <trkpt lat="44.55892" lon="5.1136">
        <ele>683</ele>
      </trkpt>
      <trkpt lat="44.55826" lon="5.11417">
        <ele>685</ele>
      </trkpt>
      <trkpt lat="44.558" lon="5.11436">
        <ele>685</ele>
      </trkpt>
      <trkpt lat="44.55788" lon="5.11424">
        <ele>685</ele>
      </trkpt>
      <trkpt lat="44.55753" lon="5.11382">
        <ele>684</ele>
      </trkpt>
      <trkpt lat="44.55664" lon="5.11314">
        <ele>682</ele>
      </trkpt>
      <trkpt lat="44.5545" lon="5.11174">
        <ele>675</ele>
      </trkpt>
      <trkpt lat="44.5531" lon="5.11081">
        <ele>671</ele>
      </trkpt>
      <trkpt lat="44.55295" lon="5.11082">
        <ele>671</ele>
      </trkpt>
      <trkpt lat="44.55282" lon="5.11101">
        <ele>673</ele>
      </trkpt>
      <trkpt lat="44.55258" lon="5.11177">
        <ele>678</ele>
      </trkpt>
      <trkpt lat="44.55223" lon="5.11271">
        <ele>681</ele>
      </trkpt>
      <trkpt lat="44.5522" lon="5.11277">
        <ele>681</ele>
      </trkpt>
      <trkpt lat="44.55209" lon="5.11286">
        <ele>679</ele>
      </trkpt>
      <trkpt lat="44.55162" lon="5.1131">
        <ele>678</ele>
      </trkpt>
      <trkpt lat="44.55144" lon="5.11314">
        <ele>677</ele>
      </trkpt>
      <trkpt lat="44.55096" lon="5.11318">
        <ele>677</ele>
      </trkpt>
      <trkpt lat="44.55079" lon="5.11324">
        <ele>677</ele>
      </trkpt>
      <trkpt lat="44.55066" lon="5.11331">
        <ele>677</ele>
      </trkpt>
      <trkpt lat="44.55054" lon="5.11342">
        <ele>680</ele>
      </trkpt>
      <trkpt lat="44.55019" lon="5.11393">
        <ele>684</ele>
      </trkpt>
      <trkpt lat="44.5501" lon="5.114">
        <ele>683</ele>
      </trkpt>
      <trkpt lat="44.55003" lon="5.11402">
        <ele>683</ele>
      </trkpt>
      <trkpt lat="44.54992" lon="5.114">
        <ele>683</ele>
      </trkpt>
      <trkpt lat="44.54968" lon="5.11387">
        <ele>680</ele>
      </trkpt>
      <trkpt lat="44.54957" lon="5.1138">
        <ele>681</ele>
      </trkpt>
      <trkpt lat="44.5495" lon="5.11372">
        <ele>681</ele>
      </trkpt>
      <trkpt lat="44.54943" lon="5.11359">
        <ele>679</ele>
      </trkpt>
      <trkpt lat="44.54932" lon="5.11326">
        <ele>676</ele>
      </trkpt>
      <trkpt lat="44.54926" lon="5.11311">
        <ele>677</ele>
      </trkpt>
      <trkpt lat="44.54919" lon="5.11299">
        <ele>675</ele>
      </trkpt>
      <trkpt lat="44.54911" lon="5.11293">
        <ele>675</ele>
      </trkpt>
      <trkpt lat="44.54903" lon="5.11289">
        <ele>677</ele>
      </trkpt>
      <trkpt lat="44.54888" lon="5.1129">
        <ele>678</ele>
      </trkpt>
      <trkpt lat="44.54834" lon="5.11302">
        <ele>681</ele>
      </trkpt>
      <trkpt lat="44.54816" lon="5.1131">
        <ele>681</ele>
      </trkpt>
      <trkpt lat="44.54809" lon="5.1131">
        <ele>681</ele>
      </trkpt>
      <trkpt lat="44.54782" lon="5.11327">
        <ele>680</ele>
      </trkpt>
      <trkpt lat="44.54772" lon="5.11328">
        <ele>680</ele>
      </trkpt>
      <trkpt lat="44.54765" lon="5.11322">
        <ele>680</ele>
      </trkpt>
      <trkpt lat="44.54741" lon="5.11288">
        <ele>677</ele>
      </trkpt>
      <trkpt lat="44.54731" lon="5.11277">
        <ele>676</ele>
      </trkpt>
      <trkpt lat="44.5468" lon="5.11244">
        <ele>677</ele>
      </trkpt>
      <trkpt lat="44.54633" lon="5.11202">
        <ele>674</ele>
      </trkpt>
      <trkpt lat="44.54608" lon="5.11178">
        <ele>673</ele>
      </trkpt>
      <trkpt lat="44.54588" lon="5.11166">
        <ele>671</ele>
      </trkpt>
      <trkpt lat="44.5457" lon="5.11163">
        <ele>673</ele>
      </trkpt>
      <trkpt lat="44.54541" lon="5.11164">
        <ele>675</ele>
      </trkpt>
      <trkpt lat="44.54504" lon="5.11171">
        <ele>680</ele>
      </trkpt>
      <trkpt lat="44.54483" lon="5.11181">
        <ele>678</ele>
      </trkpt>
      <trkpt lat="44.54434" lon="5.11221">
        <ele>679</ele>
      </trkpt>
      <trkpt lat="44.54409" lon="5.11234">
        <ele>680</ele>
      </trkpt>
      <trkpt lat="44.54394" lon="5.11237">
        <ele>677</ele>
      </trkpt>
      <trkpt lat="44.54359" lon="5.11237">
        <ele>675</ele>
      </trkpt>
      <trkpt lat="44.54347" lon="5.11236">
        <ele>674</ele>
      </trkpt>
      <trkpt lat="44.54328" lon="5.11223">
        <ele>670</ele>
      </trkpt>
      <trkpt lat="44.54308" lon="5.11205">
        <ele>667</ele>
      </trkpt>
      <trkpt lat="44.5429" lon="5.11182">
        <ele>661</ele>
      </trkpt>
      <trkpt lat="44.54227" lon="5.11072">
        <ele>649</ele>
      </trkpt>
      <trkpt lat="44.54223" lon="5.11056">
        <ele>649</ele>
      </trkpt>
      <trkpt lat="44.54222" lon="5.11037">
        <ele>649</ele>
      </trkpt>
      <trkpt lat="44.54225" lon="5.10956">
        <ele>646</ele>
      </trkpt>
      <trkpt lat="44.54229" lon="5.10905">
        <ele>644</ele>
      </trkpt>
      <trkpt lat="44.54229" lon="5.10884">
        <ele>644</ele>
      </trkpt>
      <trkpt lat="44.54226" lon="5.10875">
        <ele>644</ele>
      </trkpt>
      <trkpt lat="44.5422" lon="5.10872">
        <ele>643</ele>
      </trkpt>
      <trkpt lat="44.54215" lon="5.10873">
        <ele>643</ele>
      </trkpt>
      <trkpt lat="44.54206" lon="5.10885">
        <ele>640</ele>
      </trkpt>
      <trkpt lat="44.54196" lon="5.10904">
        <ele>641</ele>
      </trkpt>
      <trkpt lat="44.54157" lon="5.10999">
        <ele>639</ele>
      </trkpt>
      <trkpt lat="44.54144" lon="5.11016">
        <ele>638</ele>
      </trkpt>
      <trkpt lat="44.54119" lon="5.11023">
        <ele>636</ele>
      </trkpt>
      <trkpt lat="44.54089" lon="5.1102">
        <ele>633</ele>
      </trkpt>
      <trkpt lat="44.54079" lon="5.11024">
        <ele>633</ele>
      </trkpt>
      <trkpt lat="44.5407" lon="5.11036">
        <ele>630</ele>
      </trkpt>
      <trkpt lat="44.54067" lon="5.11051">
        <ele>629</ele>
      </trkpt>
      <trkpt lat="44.54068" lon="5.11073">
        <ele>629</ele>
      </trkpt>
      <trkpt lat="44.54077" lon="5.11114">
        <ele>635</ele>
      </trkpt>
      <trkpt lat="44.54078" lon="5.1114">
        <ele>637</ele>
      </trkpt>
      <trkpt lat="44.54074" lon="5.11161">
        <ele>639</ele>
      </trkpt>
      <trkpt lat="44.5407" lon="5.11171">
        <ele>636</ele>
      </trkpt>
      <trkpt lat="44.54054" lon="5.1119">
        <ele>634</ele>
      </trkpt>
      <trkpt lat="44.54039" lon="5.11241">
        <ele>633</ele>
      </trkpt>
      <trkpt lat="44.54026" lon="5.11253">
        <ele>632</ele>
      </trkpt>
      <trkpt lat="44.54004" lon="5.11261">
        <ele>628</ele>
      </trkpt>
      <trkpt lat="44.53993" lon="5.11259">
        <ele>627</ele>
      </trkpt>
      <trkpt lat="44.53977" lon="5.11243">
        <ele>623</ele>
      </trkpt>
      <trkpt lat="44.53972" lon="5.11231">
        <ele>623</ele>
      </trkpt>
      <trkpt lat="44.53971" lon="5.11212">
        <ele>619</ele>
      </trkpt>
      <trkpt lat="44.53972" lon="5.11142">
        <ele>615</ele>
      </trkpt>
      <trkpt lat="44.53969" lon="5.11114">
        <ele>611</ele>
      </trkpt>
      <trkpt lat="44.53959" lon="5.11093">
        <ele>612</ele>
      </trkpt>
      <trkpt lat="44.53931" lon="5.11065">
        <ele>610</ele>
      </trkpt>
      <trkpt lat="44.53912" lon="5.11051">
        <ele>605</ele>
      </trkpt>
      <trkpt lat="44.53892" lon="5.11044">
        <ele>611</ele>
      </trkpt>
      <trkpt lat="44.53845" lon="5.11044">
        <ele>614</ele>
      </trkpt>
      <trkpt lat="44.53806" lon="5.11053">
        <ele>612</ele>
      </trkpt>
      <trkpt lat="44.53768" lon="5.11071">
        <ele>615</ele>
      </trkpt>
      <trkpt lat="44.53752" lon="5.11085">
        <ele>611</ele>
      </trkpt>
      <trkpt lat="44.53746" lon="5.11086">
        <ele>610</ele>
      </trkpt>
      <trkpt lat="44.53741" lon="5.1108">
        <ele>609</ele>
      </trkpt>
      <trkpt lat="44.53742" lon="5.11072">
        <ele>609</ele>
      </trkpt>
      <trkpt lat="44.53744" lon="5.11068">
        <ele>609</ele>
      </trkpt>
      <trkpt lat="44.53775" lon="5.11049">
        <ele>608</ele>
      </trkpt>
      <trkpt lat="44.53814" lon="5.11007">
        <ele>600</ele>
      </trkpt>
      <trkpt lat="44.53881" lon="5.10991">
        <ele>595</ele>
      </trkpt>
      <trkpt lat="44.53885" lon="5.10985">
        <ele>594</ele>
      </trkpt>
      <trkpt lat="44.53885" lon="5.10978">
        <ele>593</ele>
      </trkpt>
      <trkpt lat="44.53879" lon="5.10972">
        <ele>588</ele>
      </trkpt>
      <trkpt lat="44.5384" lon="5.10978">
        <ele>593</ele>
      </trkpt>
      <trkpt lat="44.53805" lon="5.10972">
        <ele>585</ele>
      </trkpt>
      <trkpt lat="44.53777" lon="5.10977">
        <ele>588</ele>
      </trkpt>
      <trkpt lat="44.53757" lon="5.10994">
        <ele>587</ele>
      </trkpt>
      <trkpt lat="44.53722" lon="5.11">
        <ele>584</ele>
      </trkpt>
      <trkpt lat="44.53694" lon="5.11012">
        <ele>583</ele>
      </trkpt>
      <trkpt lat="44.53689" lon="5.11021">
        <ele>583</ele>
      </trkpt>
      <trkpt lat="44.53679" lon="5.11054">
        <ele>579</ele>
      </trkpt>
      <trkpt lat="44.53672" lon="5.11116">
        <ele>584</ele>
      </trkpt>
      <trkpt lat="44.53664" lon="5.11141">
        <ele>584</ele>
      </trkpt>
      <trkpt lat="44.53659" lon="5.11147">
        <ele>584</ele>
      </trkpt>
      <trkpt lat="44.53655" lon="5.11149">
        <ele>583</ele>
      </trkpt>
      <trkpt lat="44.53652" lon="5.11148">
        <ele>577</ele>
      </trkpt>
      <trkpt lat="44.5365" lon="5.11144">
        <ele>576</ele>
      </trkpt>
      <trkpt lat="44.5365" lon="5.11137">
        <ele>575</ele>
      </trkpt>
      <trkpt lat="44.53655" lon="5.1112">
        <ele>582</ele>
      </trkpt>
      <trkpt lat="44.53658" lon="5.11102">
        <ele>581</ele>
      </trkpt>
      <trkpt lat="44.53656" lon="5.11086">
        <ele>579</ele>
      </trkpt>
      <trkpt lat="44.53639" lon="5.11019">
        <ele>563</ele>
      </trkpt>
      <trkpt lat="44.53624" lon="5.10993">
        <ele>557</ele>
      </trkpt>
      <trkpt lat="44.53621" lon="5.10982">
        <ele>556</ele>
      </trkpt>
      <trkpt lat="44.53621" lon="5.10972">
        <ele>554</ele>
      </trkpt>
      <trkpt lat="44.53629" lon="5.10952">
        <ele>556</ele>
      </trkpt>
      <trkpt lat="44.53681" lon="5.10885">
        <ele>547</ele>
      </trkpt>
      <trkpt lat="44.53685" lon="5.10878">
        <ele>551</ele>
      </trkpt>
      <trkpt lat="44.53685" lon="5.1087">
        <ele>551</ele>
      </trkpt>
      <trkpt lat="44.53682" lon="5.10864">
        <ele>551</ele>
      </trkpt>
      <trkpt lat="44.53672" lon="5.10853">
        <ele>546</ele>
      </trkpt>
      <trkpt lat="44.5356" lon="5.10764">
        <ele>537</ele>
      </trkpt>
      <trkpt lat="44.53535" lon="5.10741">
        <ele>536</ele>
      </trkpt>
      <trkpt lat="44.53506" lon="5.10702">
        <ele>536</ele>
      </trkpt>
      <trkpt lat="44.53466" lon="5.10647">
        <ele>535</ele>
      </trkpt>
      <trkpt lat="44.53448" lon="5.10627">
        <ele>532</ele>
      </trkpt>
      <trkpt lat="44.53379" lon="5.10569">
        <ele>529</ele>
      </trkpt>
      <trkpt lat="44.53341" lon="5.10539">
        <ele>522</ele>
      </trkpt>
      <trkpt lat="44.53316" lon="5.10514">
        <ele>522</ele>
      </trkpt>
      <trkpt lat="44.53293" lon="5.10486">
        <ele>525</ele>
      </trkpt>
      <trkpt lat="44.5323" lon="5.10425">
        <ele>520</ele>
      </trkpt>
      <trkpt lat="44.53187" lon="5.10389">
        <ele>522</ele>
      </trkpt>
      <trkpt lat="44.53174" lon="5.10366">
        <ele>519</ele>
      </trkpt>
      <trkpt lat="44.5317" lon="5.10342">
        <ele>521</ele>
      </trkpt>
      <trkpt lat="44.53168" lon="5.10313">
        <ele>524</ele>
      </trkpt>
      <trkpt lat="44.53168" lon="5.10282">
        <ele>525</ele>
      </trkpt>
      <trkpt lat="44.53166" lon="5.10251">
        <ele>527</ele>
      </trkpt>
      <trkpt lat="44.53159" lon="5.1021">
        <ele>530</ele>
      </trkpt>
      <trkpt lat="44.53151" lon="5.10179">
        <ele>527</ele>
      </trkpt>
      <trkpt lat="44.53134" lon="5.10138">
        <ele>530</ele>
      </trkpt>
      <trkpt lat="44.53103" lon="5.10054">
        <ele>521</ele>
      </trkpt>
      <trkpt lat="44.53082" lon="5.10016">
        <ele>516</ele>
      </trkpt>
      <trkpt lat="44.53074" lon="5.09997">
        <ele>522</ele>
      </trkpt>
      <trkpt lat="44.53063" lon="5.09955">
        <ele>519</ele>
      </trkpt>
      <trkpt lat="44.53056" lon="5.09937">
        <ele>521</ele>
      </trkpt>
      <trkpt lat="44.53044" lon="5.0992">
        <ele>518</ele>
      </trkpt>
      <trkpt lat="44.53036" lon="5.09904">
        <ele>508</ele>
      </trkpt>
      <trkpt lat="44.53022" lon="5.09866">
        <ele>511</ele>
      </trkpt>
      <trkpt lat="44.53002" lon="5.09827">
        <ele>510</ele>
      </trkpt>
      <trkpt lat="44.52961" lon="5.09713">
        <ele>507</ele>
      </trkpt>
      <trkpt lat="44.52946" lon="5.09667">
        <ele>503</ele>
      </trkpt>
      <trkpt lat="44.52932" lon="5.09637">
        <ele>508</ele>
      </trkpt>
      <trkpt lat="44.52903" lon="5.09595">
        <ele>495</ele>
      </trkpt>
      <trkpt lat="44.52846" lon="5.09501">
        <ele>493</ele>
      </trkpt>
      <trkpt lat="44.52799" lon="5.09409">
        <ele>493</ele>
      </trkpt>
      <trkpt lat="44.52768" lon="5.09344">
        <ele>484</ele>
      </trkpt>
      <trkpt lat="44.52745" lon="5.09263">
        <ele>476</ele>
      </trkpt>
      <trkpt lat="44.52618" lon="5.08999">
        <ele>466</ele>
      </trkpt>
      <trkpt lat="44.52606" lon="5.08979">
        <ele>465</ele>
      </trkpt>
      <trkpt lat="44.52576" lon="5.08941">
        <ele>463</ele>
      </trkpt>
      <trkpt lat="44.52556" lon="5.08922">
        <ele>458</ele>
      </trkpt>
      <trkpt lat="44.52539" lon="5.08911">
        <ele>456</ele>
      </trkpt>
      <trkpt lat="44.52436" lon="5.08866">
        <ele>447</ele>
      </trkpt>
      <trkpt lat="44.52315" lon="5.08818">
        <ele>442</ele>
      </trkpt>
      <trkpt lat="44.52129" lon="5.0874">
        <ele>436</ele>
      </trkpt>
      <trkpt lat="44.52111" lon="5.08726">
        <ele>434</ele>
      </trkpt>
      <trkpt lat="44.52046" lon="5.08651">
        <ele>431</ele>
      </trkpt>
      <trkpt lat="44.52034" lon="5.08626">
        <ele>430</ele>
      </trkpt>
      <trkpt lat="44.52017" lon="5.08574">
        <ele>430</ele>
      </trkpt>
      <trkpt lat="44.5197" lon="5.08491">
        <ele>427</ele>
      </trkpt>
      <trkpt lat="44.51916" lon="5.08402">
        <ele>427</ele>
      </trkpt>
      <trkpt lat="44.51848" lon="5.08262">
        <ele>423</ele>
      </trkpt>
      <trkpt lat="44.51835" lon="5.08227">
        <ele>421</ele>
      </trkpt>
      <trkpt lat="44.51777" lon="5.08014">
        <ele>415</ele>
      </trkpt>
      <trkpt lat="44.51818" lon="5.07966">
        <ele>415</ele>
      </trkpt>
      <trkpt lat="44.51834" lon="5.07937">
        <ele>413</ele>
      </trkpt>
      <trkpt lat="44.51839" lon="5.07925">
        <ele>413</ele>
      </trkpt>
      <trkpt lat="44.51858" lon="5.07856">
        <ele>416</ele>
      </trkpt>
      <trkpt lat="44.5188" lon="5.07807">
        <ele>420</ele>
      </trkpt>
      <trkpt lat="44.51901" lon="5.0775">
        <ele>419</ele>
      </trkpt>
      <trkpt lat="44.51918" lon="5.07659">
        <ele>421</ele>
      </trkpt>
      <trkpt lat="44.51937" lon="5.07556">
        <ele>425</ele>
      </trkpt>
      <trkpt lat="44.52005" lon="5.07275">
        <ele>411</ele>
      </trkpt>
      <trkpt lat="44.52022" lon="5.07188">
        <ele>402</ele>
      </trkpt>
      <trkpt lat="44.52031" lon="5.07163">
        <ele>400</ele>
      </trkpt>
      <trkpt lat="44.52066" lon="5.07089">
        <ele>400</ele>
      </trkpt>
      <trkpt lat="44.52109" lon="5.06933">
        <ele>397</ele>
      </trkpt>
      <trkpt lat="44.52124" lon="5.06895">
        <ele>395</ele>
      </trkpt>
      <trkpt lat="44.52159" lon="5.06818">
        <ele>394</ele>
      </trkpt>
      <trkpt lat="44.5217" lon="5.06778">
        <ele>393</ele>
      </trkpt>
      <trkpt lat="44.5219" lon="5.0667">
        <ele>393</ele>
      </trkpt>
      <trkpt lat="44.52196" lon="5.06659">
        <ele>392</ele>
      </trkpt>
      <trkpt lat="44.5222" lon="5.06626">
        <ele>393</ele>
      </trkpt>
      <trkpt lat="44.5228" lon="5.06578">
        <ele>392</ele>
      </trkpt>
      <trkpt lat="44.5231" lon="5.06559">
        <ele>393</ele>
      </trkpt>
      <trkpt lat="44.52325" lon="5.06551">
        <ele>392</ele>
      </trkpt>
      <trkpt lat="44.52311" lon="5.06537">
        <ele>390</ele>
      </trkpt>
      <trkpt lat="44.52297" lon="5.06524">
        <ele>388</ele>
      </trkpt>
      <trkpt lat="44.52288" lon="5.06517">
        <ele>388</ele>
      </trkpt>
      <trkpt lat="44.52284" lon="5.06511">
        <ele>388</ele>
      </trkpt>
      <trkpt lat="44.52278" lon="5.06485">
        <ele>385</ele>
      </trkpt>
      <trkpt lat="44.52278" lon="5.06465">
        <ele>382</ele>
      </trkpt>
      <trkpt lat="44.52281" lon="5.0643">
        <ele>379</ele>
      </trkpt>
      <trkpt lat="44.52286" lon="5.06413">
        <ele>377</ele>
      </trkpt>
      <trkpt lat="44.52301" lon="5.06384">
        <ele>374</ele>
      </trkpt>
      <trkpt lat="44.52316" lon="5.06357">
        <ele>375</ele>
      </trkpt>
      <trkpt lat="44.52329" lon="5.06329">
        <ele>376</ele>
      </trkpt>
      <trkpt lat="44.52332" lon="5.06321">
        <ele>376</ele>
      </trkpt>
      <trkpt lat="44.52338" lon="5.0632">
        <ele>376</ele>
      </trkpt>
      <trkpt lat="44.5234" lon="5.06313">
        <ele>377</ele>
      </trkpt>
      <trkpt lat="44.52339" lon="5.06308">
        <ele>377</ele>
      </trkpt>
      <trkpt lat="44.52344" lon="5.06305">
        <ele>378</ele>
      </trkpt>
      <trkpt lat="44.52348" lon="5.063">
        <ele>379</ele>
      </trkpt>
      <trkpt lat="44.52447" lon="5.06131">
        <ele>384</ele>
      </trkpt>
      <trkpt lat="44.52451" lon="5.06134">
        <ele>384</ele>
      </trkpt>
      <trkpt lat="44.52457" lon="5.06132">
        <ele>384</ele>
      </trkpt>
      <trkpt lat="44.52459" lon="5.06123">
        <ele>384</ele>
      </trkpt>
      <trkpt lat="44.52457" lon="5.06116">
        <ele>384</ele>
      </trkpt>
      <trkpt lat="44.52469" lon="5.06098">
        <ele>386</ele>
      </trkpt>
      <trkpt lat="44.52478" lon="5.06066">
        <ele>386</ele>
      </trkpt>
      <trkpt lat="44.52501" lon="5.0602">
        <ele>389</ele>
      </trkpt>
      <trkpt lat="44.52507" lon="5.06001">
        <ele>390</ele>
      </trkpt>
      <trkpt lat="44.52513" lon="5.06002">
        <ele>390</ele>
      </trkpt>
      <trkpt lat="44.52544" lon="5.05979">
        <ele>393</ele>
      </trkpt>
      <trkpt lat="44.52603" lon="5.05974">
        <ele>391</ele>
      </trkpt>
      <trkpt lat="44.52619" lon="5.05975">
        <ele>391</ele>
      </trkpt>
      <trkpt lat="44.52641" lon="5.05955">
        <ele>392</ele>
      </trkpt>
      <trkpt lat="44.52731" lon="5.05887">
        <ele>402</ele>
      </trkpt>
      <trkpt lat="44.52733" lon="5.05869">
        <ele>403</ele>
      </trkpt>
      <trkpt lat="44.52745" lon="5.05832">
        <ele>409</ele>
      </trkpt>
      <trkpt lat="44.52754" lon="5.05761">
        <ele>410</ele>
      </trkpt>
      <trkpt lat="44.52764" lon="5.05706">
        <ele>412</ele>
      </trkpt>
      <trkpt lat="44.52768" lon="5.05691">
        <ele>413</ele>
      </trkpt>
      <trkpt lat="44.52796" lon="5.05639">
        <ele>415</ele>
      </trkpt>
      <trkpt lat="44.52822" lon="5.05583">
        <ele>417</ele>
      </trkpt>
      <trkpt lat="44.5285" lon="5.05539">
        <ele>416</ele>
      </trkpt>
      <trkpt lat="44.52872" lon="5.05507">
        <ele>415</ele>
      </trkpt>
      <trkpt lat="44.52885" lon="5.05439">
        <ele>416</ele>
      </trkpt>
      <trkpt lat="44.52888" lon="5.05381">
        <ele>419</ele>
      </trkpt>
      <trkpt lat="44.52881" lon="5.05366">
        <ele>419</ele>
      </trkpt>
      <trkpt lat="44.52858" lon="5.0534">
        <ele>420</ele>
      </trkpt>
      <trkpt lat="44.52833" lon="5.0527">
        <ele>425</ele>
      </trkpt>
      <trkpt lat="44.52817" lon="5.0525">
        <ele>424</ele>
      </trkpt>
      <trkpt lat="44.52765" lon="5.05193">
        <ele>424</ele>
      </trkpt>
      <trkpt lat="44.52712" lon="5.05139">
        <ele>425</ele>
      </trkpt>
      <trkpt lat="44.52677" lon="5.05113">
        <ele>420</ele>
      </trkpt>
      <trkpt lat="44.52625" lon="5.0503">
        <ele>424</ele>
      </trkpt>
      <trkpt lat="44.52609" lon="5.04995">
        <ele>426</ele>
      </trkpt>
      <trkpt lat="44.52584" lon="5.04901">
        <ele>429</ele>
      </trkpt>
      <trkpt lat="44.52573" lon="5.04852">
        <ele>430</ele>
      </trkpt>
      <trkpt lat="44.5257" lon="5.04819">
        <ele>424</ele>
      </trkpt>
      <trkpt lat="44.52569" lon="5.04774">
        <ele>422</ele>
      </trkpt>
      <trkpt lat="44.5258" lon="5.04701">
        <ele>425</ele>
      </trkpt>
      <trkpt lat="44.52611" lon="5.04615">
        <ele>421</ele>
      </trkpt>
      <trkpt lat="44.52631" lon="5.04576">
        <ele>416</ele>
      </trkpt>
      <trkpt lat="44.52696" lon="5.04513">
        <ele>411</ele>
      </trkpt>
      <trkpt lat="44.52722" lon="5.04481">
        <ele>409</ele>
      </trkpt>
      <trkpt lat="44.52747" lon="5.04426">
        <ele>404</ele>
      </trkpt>
      <trkpt lat="44.52762" lon="5.04376">
        <ele>398</ele>
      </trkpt>
      <trkpt lat="44.52772" lon="5.04298">
        <ele>392</ele>
      </trkpt>
      <trkpt lat="44.52761" lon="5.0424">
        <ele>393</ele>
      </trkpt>
      <trkpt lat="44.52744" lon="5.04174">
        <ele>394</ele>
      </trkpt>
      <trkpt lat="44.52737" lon="5.0413">
        <ele>393</ele>
      </trkpt>
      <trkpt lat="44.52744" lon="5.04109">
        <ele>391</ele>
      </trkpt>
      <trkpt lat="44.52802" lon="5.04083">
        <ele>383</ele>
      </trkpt>
      <trkpt lat="44.52843" lon="5.04067">
        <ele>378</ele>
      </trkpt>
      <trkpt lat="44.52861" lon="5.04041">
        <ele>375</ele>
      </trkpt>
      <trkpt lat="44.52861" lon="5.04016">
        <ele>375</ele>
      </trkpt>
      <trkpt lat="44.52851" lon="5.04006">
        <ele>375</ele>
      </trkpt>
      <trkpt lat="44.52838" lon="5.03999">
        <ele>374</ele>
      </trkpt>
      <trkpt lat="44.52823" lon="5.03996">
        <ele>374</ele>
      </trkpt>
      <trkpt lat="44.52814" lon="5.03989">
        <ele>374</ele>
      </trkpt>
      <trkpt lat="44.52807" lon="5.03972">
        <ele>372</ele>
      </trkpt>
      <trkpt lat="44.52763" lon="5.03823">
        <ele>365</ele>
      </trkpt>
      <trkpt lat="44.52754" lon="5.038">
        <ele>364</ele>
      </trkpt>
      <trkpt lat="44.52709" lon="5.03759">
        <ele>358</ele>
      </trkpt>
      <trkpt lat="44.52705" lon="5.03752">
        <ele>358</ele>
      </trkpt>
      <trkpt lat="44.52702" lon="5.03739">
        <ele>357</ele>
      </trkpt>
      <trkpt lat="44.52699" lon="5.03698">
        <ele>356</ele>
      </trkpt>
      <trkpt lat="44.52693" lon="5.03663">
        <ele>355</ele>
      </trkpt>
      <trkpt lat="44.52686" lon="5.03632">
        <ele>354</ele>
      </trkpt>
      <trkpt lat="44.52673" lon="5.03612">
        <ele>349</ele>
      </trkpt>
      <trkpt lat="44.52664" lon="5.03602">
        <ele>348</ele>
      </trkpt>
      <trkpt lat="44.5256" lon="5.03569">
        <ele>336</ele>
      </trkpt>
      <trkpt lat="44.52564" lon="5.03491">
        <ele>335</ele>
      </trkpt>
      <trkpt lat="44.52565" lon="5.03438">
        <ele>335</ele>
      </trkpt>
      <trkpt lat="44.52569" lon="5.03357">
        <ele>334</ele>
      </trkpt>
      <trkpt lat="44.52585" lon="5.03265">
        <ele>332</ele>
      </trkpt>
      <trkpt lat="44.5259" lon="5.03235">
        <ele>331</ele>
      </trkpt>
      <trkpt lat="44.5259" lon="5.03216">
        <ele>331</ele>
      </trkpt>
      <trkpt lat="44.52594" lon="5.03185">
        <ele>331</ele>
      </trkpt>
      <trkpt lat="44.52599" lon="5.03177">
        <ele>333</ele>
      </trkpt>
      <trkpt lat="44.52612" lon="5.031">
        <ele>333</ele>
      </trkpt>
      <trkpt lat="44.52631" lon="5.03005">
        <ele>335</ele>
      </trkpt>
      <trkpt lat="44.52671" lon="5.02866">
        <ele>332</ele>
      </trkpt>
      <trkpt lat="44.52684" lon="5.02834">
        <ele>330</ele>
      </trkpt>
      <trkpt lat="44.52691" lon="5.02819">
        <ele>329</ele>
      </trkpt>
      <trkpt lat="44.52703" lon="5.02801">
        <ele>328</ele>
      </trkpt>
      <trkpt lat="44.52883" lon="5.02575">
        <ele>328</ele>
      </trkpt>
      <trkpt lat="44.52911" lon="5.02533">
        <ele>328</ele>
      </trkpt>
      <trkpt lat="44.52934" lon="5.02489">
        <ele>328</ele>
      </trkpt>
      <trkpt lat="44.52946" lon="5.02456">
        <ele>327</ele>
      </trkpt>
      <trkpt lat="44.52955" lon="5.02418">
        <ele>326</ele>
      </trkpt>
      <trkpt lat="44.52958" lon="5.02355">
        <ele>324</ele>
      </trkpt>
      <trkpt lat="44.52965" lon="5.021">
        <ele>317</ele>
      </trkpt>
      <trkpt lat="44.52963" lon="5.01975">
        <ele>313</ele>
      </trkpt>
      <trkpt lat="44.52955" lon="5.01681">
        <ele>314</ele>
      </trkpt>
      <trkpt lat="44.52958" lon="5.0166">
        <ele>314</ele>
      </trkpt>
      <trkpt lat="44.53026" lon="5.01415">
        <ele>318</ele>
      </trkpt>
      <trkpt lat="44.53047" lon="5.0133">
        <ele>316</ele>
      </trkpt>
      <trkpt lat="44.5307" lon="5.01254">
        <ele>315</ele>
      </trkpt>
      <trkpt lat="44.53082" lon="5.012">
        <ele>314</ele>
      </trkpt>
      <trkpt lat="44.53102" lon="5.01084">
        <ele>312</ele>
      </trkpt>
      <trkpt lat="44.53114" lon="5.00983">
        <ele>308</ele>
      </trkpt>
      <trkpt lat="44.53122" lon="5.009">
        <ele>308</ele>
      </trkpt>
      <trkpt lat="44.53121" lon="5.00872">
        <ele>308</ele>
      </trkpt>
      <trkpt lat="44.53124" lon="5.00836">
        <ele>309</ele>
      </trkpt>
      <trkpt lat="44.53127" lon="5.00834">
        <ele>309</ele>
      </trkpt>
      <trkpt lat="44.53139" lon="5.0069">
        <ele>304</ele>
      </trkpt>
      <trkpt lat="44.53143" lon="5.00615">
        <ele>302</ele>
      </trkpt>
      <trkpt lat="44.53159" lon="5.00454">
        <ele>301</ele>
      </trkpt>
      <trkpt lat="44.53167" lon="5.00399">
        <ele>301</ele>
      </trkpt>
      <trkpt lat="44.53191" lon="5.00272">
        <ele>301</ele>
      </trkpt>
      <trkpt lat="44.53235" lon="5.00081">
        <ele>297</ele>
      </trkpt>
      <trkpt lat="44.53244" lon="5.00027">
        <ele>299</ele>
      </trkpt>
      <trkpt lat="44.53248" lon="4.99967">
        <ele>296</ele>
      </trkpt>
      <trkpt lat="44.53247" lon="4.9989">
        <ele>294</ele>
      </trkpt>
      <trkpt lat="44.5324" lon="4.99833">
        <ele>295</ele>
      </trkpt>
      <trkpt lat="44.53231" lon="4.99785">
        <ele>292</ele>
      </trkpt>
      <trkpt lat="44.53064" lon="4.99161">
        <ele>287</ele>
      </trkpt>
      <trkpt lat="44.53052" lon="4.99125">
        <ele>290</ele>
      </trkpt>
      <trkpt lat="44.53024" lon="4.99057">
        <ele>289</ele>
      </trkpt>
      <trkpt lat="44.53005" lon="4.99021">
        <ele>287</ele>
      </trkpt>
      <trkpt lat="44.52971" lon="4.98966">
        <ele>286</ele>
      </trkpt>
      <trkpt lat="44.52726" lon="4.9865">
        <ele>287</ele>
      </trkpt>
      <trkpt lat="44.52703" lon="4.9861">
        <ele>287</ele>
      </trkpt>
      <trkpt lat="44.52683" lon="4.98563">
        <ele>289</ele>
      </trkpt>
      <trkpt lat="44.52598" lon="4.98287">
        <ele>279</ele>
      </trkpt>
      <trkpt lat="44.52579" lon="4.98219">
        <ele>279</ele>
      </trkpt>
      <trkpt lat="44.52569" lon="4.98165">
        <ele>277</ele>
      </trkpt>
      <trkpt lat="44.52557" lon="4.98064">
        <ele>275</ele>
      </trkpt>
      <trkpt lat="44.52555" lon="4.97995">
        <ele>273</ele>
      </trkpt>
      <trkpt lat="44.52555" lon="4.97824">
        <ele>266</ele>
      </trkpt>
      <trkpt lat="44.52558" lon="4.97767">
        <ele>266</ele>
      </trkpt>
      <trkpt lat="44.5257" lon="4.97698">
        <ele>265</ele>
      </trkpt>
      <trkpt lat="44.52591" lon="4.97628">
        <ele>265</ele>
      </trkpt>
      <trkpt lat="44.52629" lon="4.9755">
        <ele>263</ele>
      </trkpt>
      <trkpt lat="44.53049" lon="4.96897">
        <ele>264</ele>
      </trkpt>
      <trkpt lat="44.53095" lon="4.96819">
        <ele>269</ele>
      </trkpt>
      <trkpt lat="44.53044" lon="4.96744">
        <ele>255</ele>
      </trkpt>
      <trkpt lat="44.53017" lon="4.96706">
        <ele>258</ele>
      </trkpt>
      <trkpt lat="44.53006" lon="4.96693">
        <ele>262</ele>
      </trkpt>
      <trkpt lat="44.52986" lon="4.96697">
        <ele>261</ele>
      </trkpt>
      <trkpt lat="44.52905" lon="4.96741">
        <ele>263</ele>
      </trkpt>
      <trkpt lat="44.5289" lon="4.96734">
        <ele>267</ele>
      </trkpt>
      <trkpt lat="44.52854" lon="4.96725">
        <ele>268</ele>
        <extensions>
          <visugpx:TrkExtension xmlns:visugpx="https://www.visugpx.com/editgpx/">
            <visugpx:node>1</visugpx:node>
            </visugpx:TrkExtension>
        </extensions>
      </trkpt>
    </trkseg>
  </trk>
  <trk>
    <name><![CDATA[Souspierre_1]]></name>
    <extensions>
      <line xmlns="http://www.topografix.com/GPX/gpx_style/0/2">
        <color>880088</color>
        <width>4</width>
      </line>
    </extensions>
    <trkseg>
      <trkpt lat="44.5287" lon="4.96758">
        <ele>263</ele>
      </trkpt>
      <trkpt lat="44.52986" lon="4.96697">
        <ele>261</ele>
      </trkpt>
      <trkpt lat="44.53006" lon="4.96693">
        <ele>262</ele>
      </trkpt>
      <trkpt lat="44.53017" lon="4.96706">
        <ele>258</ele>
      </trkpt>
      <trkpt lat="44.53044" lon="4.96744">
        <ele>255</ele>
      </trkpt>
      <trkpt lat="44.53095" lon="4.96819">
        <ele>269</ele>
      </trkpt>
      <trkpt lat="44.53049" lon="4.96897">
        <ele>264</ele>
      </trkpt>
      <trkpt lat="44.52626" lon="4.97557">
        <ele>264</ele>
      </trkpt>
      <trkpt lat="44.52591" lon="4.97628">
        <ele>265</ele>
      </trkpt>
      <trkpt lat="44.5257" lon="4.97698">
        <ele>265</ele>
      </trkpt>
      <trkpt lat="44.52558" lon="4.97767">
        <ele>266</ele>
      </trkpt>
      <trkpt lat="44.52555" lon="4.97824">
        <ele>266</ele>
      </trkpt>
      <trkpt lat="44.52555" lon="4.97995">
        <ele>273</ele>
      </trkpt>
      <trkpt lat="44.52557" lon="4.98064">
        <ele>275</ele>
      </trkpt>
      <trkpt lat="44.52557" lon="4.98101">
        <ele>276</ele>
      </trkpt>
      <trkpt lat="44.52559" lon="4.98139">
        <ele>276</ele>
      </trkpt>
      <trkpt lat="44.52563" lon="4.98167">
        <ele>277</ele>
      </trkpt>
      <trkpt lat="44.52598" lon="4.98287">
        <ele>279</ele>
      </trkpt>
      <trkpt lat="44.52683" lon="4.98563">
        <ele>289</ele>
      </trkpt>
      <trkpt lat="44.52703" lon="4.9861">
        <ele>287</ele>
      </trkpt>
      <trkpt lat="44.52726" lon="4.9865">
        <ele>287</ele>
      </trkpt>
      <trkpt lat="44.52971" lon="4.98966">
        <ele>286</ele>
      </trkpt>
      <trkpt lat="44.53005" lon="4.99021">
        <ele>287</ele>
      </trkpt>
      <trkpt lat="44.53024" lon="4.99057">
        <ele>289</ele>
      </trkpt>
      <trkpt lat="44.53052" lon="4.99125">
        <ele>290</ele>
      </trkpt>
      <trkpt lat="44.53064" lon="4.99161">
        <ele>287</ele>
      </trkpt>
      <trkpt lat="44.53231" lon="4.99785">
        <ele>292</ele>
      </trkpt>
      <trkpt lat="44.5324" lon="4.99833">
        <ele>295</ele>
      </trkpt>
      <trkpt lat="44.53247" lon="4.9989">
        <ele>294</ele>
      </trkpt>
      <trkpt lat="44.53248" lon="4.99954">
        <ele>296</ele>
      </trkpt>
      <trkpt lat="44.53248" lon="4.99967">
        <ele>296</ele>
      </trkpt>
      <trkpt lat="44.53244" lon="5.00027">
        <ele>299</ele>
      </trkpt>
      <trkpt lat="44.53235" lon="5.00081">
        <ele>297</ele>
      </trkpt>
      <trkpt lat="44.53191" lon="5.00272">
        <ele>301</ele>
      </trkpt>
      <trkpt lat="44.53167" lon="5.00399">
        <ele>301</ele>
      </trkpt>
      <trkpt lat="44.53159" lon="5.00454">
        <ele>301</ele>
      </trkpt>
      <trkpt lat="44.5312" lon="5.00837">
        <ele>309</ele>
      </trkpt>
      <trkpt lat="44.53109" lon="5.00982">
        <ele>308</ele>
      </trkpt>
      <trkpt lat="44.53107" lon="5.01034">
        <ele>310</ele>
      </trkpt>
      <trkpt lat="44.53102" lon="5.01084">
        <ele>312</ele>
      </trkpt>
      <trkpt lat="44.53082" lon="5.012">
        <ele>314</ele>
      </trkpt>
      <trkpt lat="44.5307" lon="5.01254">
        <ele>315</ele>
      </trkpt>
      <trkpt lat="44.53047" lon="5.0133">
        <ele>316</ele>
      </trkpt>
      <trkpt lat="44.53026" lon="5.01415">
        <ele>318</ele>
      </trkpt>
      <trkpt lat="44.52958" lon="5.0166">
        <ele>314</ele>
      </trkpt>
      <trkpt lat="44.52955" lon="5.01681">
        <ele>314</ele>
      </trkpt>
      <trkpt lat="44.52963" lon="5.01975">
        <ele>313</ele>
      </trkpt>
      <trkpt lat="44.52965" lon="5.021">
        <ele>317</ele>
      </trkpt>
      <trkpt lat="44.52958" lon="5.02355">
        <ele>324</ele>
      </trkpt>
      <trkpt lat="44.52955" lon="5.02418">
        <ele>326</ele>
      </trkpt>
      <trkpt lat="44.52953" lon="5.02425">
        <ele>326</ele>
      </trkpt>
      <trkpt lat="44.52946" lon="5.02456">
        <ele>327</ele>
      </trkpt>
      <trkpt lat="44.52934" lon="5.02489">
        <ele>328</ele>
      </trkpt>
      <trkpt lat="44.52911" lon="5.02533">
        <ele>328</ele>
      </trkpt>
      <trkpt lat="44.52881" lon="5.02578">
        <ele>328</ele>
      </trkpt>
      <trkpt lat="44.52703" lon="5.02801">
        <ele>328</ele>
      </trkpt>
      <trkpt lat="44.52691" lon="5.02819">
        <ele>329</ele>
      </trkpt>
      <trkpt lat="44.52684" lon="5.02834">
        <ele>330</ele>
      </trkpt>
      <trkpt lat="44.52671" lon="5.02866">
        <ele>332</ele>
      </trkpt>
      <trkpt lat="44.52619" lon="5.03041">
        <ele>332</ele>
      </trkpt>
      <trkpt lat="44.52604" lon="5.03112">
        <ele>333</ele>
      </trkpt>
      <trkpt lat="44.52593" lon="5.03174">
        <ele>331</ele>
      </trkpt>
      <trkpt lat="44.5258" lon="5.03264">
        <ele>332</ele>
      </trkpt>
      <trkpt lat="44.52569" lon="5.03357">
        <ele>334</ele>
      </trkpt>
      <trkpt lat="44.52565" lon="5.03438">
        <ele>335</ele>
      </trkpt>
      <trkpt lat="44.52557" lon="5.03525">
        <ele>336</ele>
      </trkpt>
      <trkpt lat="44.52544" lon="5.03742">
        <ele>344</ele>
      </trkpt>
      <trkpt lat="44.52532" lon="5.0382">
        <ele>349</ele>
      </trkpt>
      <trkpt lat="44.52525" lon="5.03855">
        <ele>351</ele>
      </trkpt>
      <trkpt lat="44.52514" lon="5.0389">
        <ele>347</ele>
      </trkpt>
      <trkpt lat="44.52411" lon="5.04149">
        <ele>345</ele>
      </trkpt>
      <trkpt lat="44.52393" lon="5.04201">
        <ele>344</ele>
      </trkpt>
      <trkpt lat="44.52379" lon="5.04262">
        <ele>343</ele>
      </trkpt>
      <trkpt lat="44.52347" lon="5.04447">
        <ele>340</ele>
      </trkpt>
      <trkpt lat="44.5234" lon="5.04476">
        <ele>341</ele>
      </trkpt>
      <trkpt lat="44.52325" lon="5.04562">
        <ele>342</ele>
      </trkpt>
      <trkpt lat="44.52313" lon="5.04605">
        <ele>341</ele>
      </trkpt>
      <trkpt lat="44.52308" lon="5.0462">
        <ele>342</ele>
      </trkpt>
      <trkpt lat="44.52293" lon="5.04654">
        <ele>345</ele>
      </trkpt>
      <trkpt lat="44.52277" lon="5.04667">
        <ele>345</ele>
      </trkpt>
      <trkpt lat="44.5227" lon="5.04668">
        <ele>345</ele>
      </trkpt>
      <trkpt lat="44.52263" lon="5.04677">
        <ele>344</ele>
      </trkpt>
      <trkpt lat="44.52261" lon="5.04689">
        <ele>345</ele>
      </trkpt>
      <trkpt lat="44.52253" lon="5.04712">
        <ele>345</ele>
      </trkpt>
      <trkpt lat="44.52181" lon="5.0482">
        <ele>345</ele>
      </trkpt>
      <trkpt lat="44.52171" lon="5.04842">
        <ele>346</ele>
      </trkpt>
      <trkpt lat="44.52162" lon="5.04882">
        <ele>347</ele>
      </trkpt>
      <trkpt lat="44.52159" lon="5.04921">
        <ele>349</ele>
      </trkpt>
      <trkpt lat="44.52157" lon="5.04965">
        <ele>351</ele>
      </trkpt>
      <trkpt lat="44.52137" lon="5.05193">
        <ele>357</ele>
      </trkpt>
      <trkpt lat="44.52127" lon="5.0549">
        <ele>366</ele>
      </trkpt>
      <trkpt lat="44.52122" lon="5.0556">
        <ele>368</ele>
      </trkpt>
      <trkpt lat="44.5212" lon="5.05671">
        <ele>373</ele>
      </trkpt>
      <trkpt lat="44.52132" lon="5.05732">
        <ele>372</ele>
      </trkpt>
      <trkpt lat="44.52173" lon="5.05851">
        <ele>374</ele>
      </trkpt>
      <trkpt lat="44.5233" lon="5.06306">
        <ele>377</ele>
      </trkpt>
      <trkpt lat="44.52329" lon="5.06312">
        <ele>376</ele>
      </trkpt>
      <trkpt lat="44.52328" lon="5.06314">
        <ele>376</ele>
      </trkpt>
      <trkpt lat="44.52332" lon="5.06321">
        <ele>376</ele>
      </trkpt>
      <trkpt lat="44.52329" lon="5.06329">
        <ele>376</ele>
      </trkpt>
      <trkpt lat="44.52316" lon="5.06357">
        <ele>375</ele>
      </trkpt>
      <trkpt lat="44.52301" lon="5.06384">
        <ele>374</ele>
      </trkpt>
      <trkpt lat="44.52286" lon="5.06413">
        <ele>377</ele>
      </trkpt>
      <trkpt lat="44.52281" lon="5.0643">
        <ele>379</ele>
      </trkpt>
      <trkpt lat="44.52278" lon="5.06465">
        <ele>382</ele>
      </trkpt>
      <trkpt lat="44.52278" lon="5.06485">
        <ele>385</ele>
      </trkpt>
      <trkpt lat="44.52284" lon="5.06511">
        <ele>388</ele>
      </trkpt>
      <trkpt lat="44.52288" lon="5.06517">
        <ele>388</ele>
      </trkpt>
      <trkpt lat="44.52297" lon="5.06524">
        <ele>388</ele>
      </trkpt>
      <trkpt lat="44.52311" lon="5.06537">
        <ele>390</ele>
      </trkpt>
      <trkpt lat="44.52308" lon="5.06552">
        <ele>391</ele>
      </trkpt>
      <trkpt lat="44.5231" lon="5.06559">
        <ele>393</ele>
      </trkpt>
      <trkpt lat="44.5228" lon="5.06578">
        <ele>392</ele>
      </trkpt>
      <trkpt lat="44.5222" lon="5.06626">
        <ele>393</ele>
      </trkpt>
      <trkpt lat="44.52196" lon="5.06659">
        <ele>392</ele>
      </trkpt>
      <trkpt lat="44.5219" lon="5.0667">
        <ele>393</ele>
      </trkpt>
      <trkpt lat="44.52181" lon="5.06718">
        <ele>392</ele>
      </trkpt>
      <trkpt lat="44.5217" lon="5.06778">
        <ele>393</ele>
      </trkpt>
      <trkpt lat="44.52159" lon="5.06818">
        <ele>394</ele>
      </trkpt>
      <trkpt lat="44.52124" lon="5.06895">
        <ele>395</ele>
      </trkpt>
      <trkpt lat="44.52109" lon="5.06933">
        <ele>397</ele>
      </trkpt>
      <trkpt lat="44.52066" lon="5.07089">
        <ele>400</ele>
      </trkpt>
      <trkpt lat="44.52031" lon="5.07163">
        <ele>400</ele>
      </trkpt>
      <trkpt lat="44.52022" lon="5.07188">
        <ele>402</ele>
      </trkpt>
      <trkpt lat="44.52005" lon="5.07275">
        <ele>411</ele>
      </trkpt>
      <trkpt lat="44.51937" lon="5.07556">
        <ele>425</ele>
      </trkpt>
      <trkpt lat="44.51901" lon="5.0775">
        <ele>419</ele>
      </trkpt>
      <trkpt lat="44.5188" lon="5.07807">
        <ele>420</ele>
      </trkpt>
      <trkpt lat="44.51858" lon="5.07856">
        <ele>416</ele>
      </trkpt>
      <trkpt lat="44.51839" lon="5.07925">
        <ele>413</ele>
      </trkpt>
      <trkpt lat="44.51834" lon="5.07937">
        <ele>413</ele>
      </trkpt>
      <trkpt lat="44.51818" lon="5.07966">
        <ele>415</ele>
      </trkpt>
      <trkpt lat="44.51753" lon="5.08044">
        <ele>413</ele>
      </trkpt>
      <trkpt lat="44.51739" lon="5.08068">
        <ele>413</ele>
      </trkpt>
      <trkpt lat="44.51694" lon="5.08171">
        <ele>412</ele>
      </trkpt>
      <trkpt lat="44.51669" lon="5.08237">
        <ele>408</ele>
      </trkpt>
      <trkpt lat="44.51606" lon="5.08417">
        <ele>424</ele>
      </trkpt>
      <trkpt lat="44.51592" lon="5.08461">
        <ele>426</ele>
      </trkpt>
      <trkpt lat="44.51586" lon="5.08486">
        <ele>428</ele>
      </trkpt>
      <trkpt lat="44.51583" lon="5.08512">
        <ele>429</ele>
      </trkpt>
      <trkpt lat="44.51575" lon="5.08692">
        <ele>429</ele>
      </trkpt>
      <trkpt lat="44.51572" lon="5.08716">
        <ele>430</ele>
      </trkpt>
      <trkpt lat="44.51565" lon="5.0874">
        <ele>430</ele>
      </trkpt>
      <trkpt lat="44.51553" lon="5.08761">
        <ele>431</ele>
      </trkpt>
      <trkpt lat="44.51491" lon="5.08839">
        <ele>437</ele>
      </trkpt>
      <trkpt lat="44.51468" lon="5.08874">
        <ele>442</ele>
      </trkpt>
      <trkpt lat="44.51422" lon="5.08983">
        <ele>447</ele>
      </trkpt>
      <trkpt lat="44.51411" lon="5.08997">
        <ele>447</ele>
      </trkpt>
      <trkpt lat="44.51395" lon="5.09009">
        <ele>443</ele>
      </trkpt>
      <trkpt lat="44.51353" lon="5.09031">
        <ele>438</ele>
      </trkpt>
      <trkpt lat="44.51341" lon="5.09043">
        <ele>437</ele>
      </trkpt>
      <trkpt lat="44.5133" lon="5.09063">
        <ele>437</ele>
      </trkpt>
      <trkpt lat="44.51324" lon="5.09094">
        <ele>437</ele>
      </trkpt>
      <trkpt lat="44.513" lon="5.09282">
        <ele>445</ele>
      </trkpt>
      <trkpt lat="44.51296" lon="5.09304">
        <ele>445</ele>
      </trkpt>
      <trkpt lat="44.51233" lon="5.09475">
        <ele>451</ele>
      </trkpt>
      <trkpt lat="44.51228" lon="5.09503">
        <ele>452</ele>
      </trkpt>
      <trkpt lat="44.51227" lon="5.09517">
        <ele>452</ele>
      </trkpt>
      <trkpt lat="44.51227" lon="5.09548">
        <ele>454</ele>
      </trkpt>
      <trkpt lat="44.5123" lon="5.09592">
        <ele>460</ele>
      </trkpt>
      <trkpt lat="44.51228" lon="5.09603">
        <ele>461</ele>
      </trkpt>
      <trkpt lat="44.51222" lon="5.09612">
        <ele>462</ele>
      </trkpt>
      <trkpt lat="44.51215" lon="5.09616">
        <ele>464</ele>
      </trkpt>
      <trkpt lat="44.51207" lon="5.09613">
        <ele>465</ele>
      </trkpt>
      <trkpt lat="44.51198" lon="5.09604">
        <ele>465</ele>
      </trkpt>
      <trkpt lat="44.51135" lon="5.09527">
        <ele>468</ele>
      </trkpt>
      <trkpt lat="44.5111" lon="5.09481">
        <ele>470</ele>
      </trkpt>
      <trkpt lat="44.51095" lon="5.0943">
        <ele>470</ele>
      </trkpt>
      <trkpt lat="44.51069" lon="5.09308">
        <ele>471</ele>
      </trkpt>
      <trkpt lat="44.51061" lon="5.0926">
        <ele>472</ele>
      </trkpt>
      <trkpt lat="44.51056" lon="5.09252">
        <ele>472</ele>
      </trkpt>
      <trkpt lat="44.51049" lon="5.09247">
        <ele>473</ele>
      </trkpt>
      <trkpt lat="44.51042" lon="5.09248">
        <ele>473</ele>
      </trkpt>
      <trkpt lat="44.51036" lon="5.09256">
        <ele>477</ele>
      </trkpt>
      <trkpt lat="44.51023" lon="5.09333">
        <ele>478</ele>
      </trkpt>
      <trkpt lat="44.50997" lon="5.09426">
        <ele>486</ele>
      </trkpt>
      <trkpt lat="44.50984" lon="5.09546">
        <ele>495</ele>
      </trkpt>
      <trkpt lat="44.50974" lon="5.09587">
        <ele>498</ele>
      </trkpt>
      <trkpt lat="44.50917" lon="5.09725">
        <ele>499</ele>
      </trkpt>
      <trkpt lat="44.50909" lon="5.09738">
        <ele>499</ele>
      </trkpt>
      <trkpt lat="44.50898" lon="5.09751">
        <ele>501</ele>
      </trkpt>
      <trkpt lat="44.50884" lon="5.09762">
        <ele>502</ele>
      </trkpt>
      <trkpt lat="44.50844" lon="5.09778">
        <ele>503</ele>
      </trkpt>
      <trkpt lat="44.50803" lon="5.09783">
        <ele>502</ele>
      </trkpt>
      <trkpt lat="44.50745" lon="5.09783">
        <ele>500</ele>
      </trkpt>
      <trkpt lat="44.50733" lon="5.09782">
        <ele>499</ele>
      </trkpt>
      <trkpt lat="44.50719" lon="5.09777">
        <ele>495</ele>
      </trkpt>
      <trkpt lat="44.50713" lon="5.09784">
        <ele>499</ele>
      </trkpt>
      <trkpt lat="44.50703" lon="5.09785">
        <ele>498</ele>
      </trkpt>
      <trkpt lat="44.50577" lon="5.0979">
        <ele>493</ele>
      </trkpt>
      <trkpt lat="44.50513" lon="5.098">
        <ele>487</ele>
      </trkpt>
      <trkpt lat="44.50498" lon="5.09806">
        <ele>486</ele>
      </trkpt>
      <trkpt lat="44.50492" lon="5.09818">
        <ele>490</ele>
      </trkpt>
      <trkpt lat="44.50488" lon="5.09839">
        <ele>492</ele>
      </trkpt>
      <trkpt lat="44.50494" lon="5.09953">
        <ele>497</ele>
      </trkpt>
      <trkpt lat="44.50495" lon="5.09989">
        <ele>497</ele>
      </trkpt>
      <trkpt lat="44.50483" lon="5.1008">
        <ele>487</ele>
      </trkpt>
      <trkpt lat="44.50456" lon="5.10268">
        <ele>480</ele>
      </trkpt>
      <trkpt lat="44.50433" lon="5.10409">
        <ele>477</ele>
      </trkpt>
      <trkpt lat="44.50336" lon="5.10855">
        <ele>482</ele>
      </trkpt>
      <trkpt lat="44.50318" lon="5.10893">
        <ele>481</ele>
      </trkpt>
      <trkpt lat="44.50219" lon="5.11014">
        <ele>482</ele>
      </trkpt>
      <trkpt lat="44.50136" lon="5.11123">
        <ele>479</ele>
      </trkpt>
      <trkpt lat="44.50104" lon="5.11158">
        <ele>476</ele>
      </trkpt>
      <trkpt lat="44.5003" lon="5.11258">
        <ele>481</ele>
      </trkpt>
      <trkpt lat="44.50013" lon="5.11286">
        <ele>484</ele>
      </trkpt>
      <trkpt lat="44.49959" lon="5.114">
        <ele>489</ele>
      </trkpt>
      <trkpt lat="44.49948" lon="5.11419">
        <ele>487</ele>
      </trkpt>
      <trkpt lat="44.49945" lon="5.11421">
        <ele>487</ele>
      </trkpt>
      <trkpt lat="44.49753" lon="5.11464">
        <ele>479</ele>
      </trkpt>
      <trkpt lat="44.49712" lon="5.1148">
        <ele>481</ele>
      </trkpt>
      <trkpt lat="44.4968" lon="5.11498">
        <ele>483</ele>
      </trkpt>
      <trkpt lat="44.49659" lon="5.11505">
        <ele>483</ele>
      </trkpt>
      <trkpt lat="44.4965" lon="5.11506">
        <ele>484</ele>
      </trkpt>
      <trkpt lat="44.49634" lon="5.11577">
        <ele>485</ele>
      </trkpt>
      <trkpt lat="44.49642" lon="5.11595">
        <ele>486</ele>
      </trkpt>
      <trkpt lat="44.49651" lon="5.11626">
        <ele>485</ele>
      </trkpt>
      <trkpt lat="44.49652" lon="5.11634">
        <ele>485</ele>
      </trkpt>
      <trkpt lat="44.4965" lon="5.11644">
        <ele>484</ele>
      </trkpt>
      <trkpt lat="44.496" lon="5.11808">
        <ele>487</ele>
      </trkpt>
      <trkpt lat="44.49576" lon="5.11909">
        <ele>488</ele>
      </trkpt>
      <trkpt lat="44.49567" lon="5.11985">
        <ele>493</ele>
      </trkpt>
      <trkpt lat="44.49554" lon="5.12051">
        <ele>490</ele>
      </trkpt>
      <trkpt lat="44.49546" lon="5.12125">
        <ele>489</ele>
      </trkpt>
      <trkpt lat="44.49544" lon="5.12207">
        <ele>493</ele>
      </trkpt>
      <trkpt lat="44.49546" lon="5.12253">
        <ele>494</ele>
      </trkpt>
      <trkpt lat="44.49573" lon="5.12423">
        <ele>497</ele>
      </trkpt>
      <trkpt lat="44.49595" lon="5.12495">
        <ele>500</ele>
      </trkpt>
      <trkpt lat="44.49695" lon="5.127">
        <ele>501</ele>
      </trkpt>
      <trkpt lat="44.49765" lon="5.12862">
        <ele>499</ele>
      </trkpt>
      <trkpt lat="44.49797" lon="5.12926">
        <ele>505</ele>
      </trkpt>
      <trkpt lat="44.49866" lon="5.13025">
        <ele>506</ele>
      </trkpt>
      <trkpt lat="44.49893" lon="5.13051">
        <ele>506</ele>
      </trkpt>
      <trkpt lat="44.49988" lon="5.13136">
        <ele>507</ele>
      </trkpt>
      <trkpt lat="44.50011" lon="5.13165">
        <ele>511</ele>
      </trkpt>
      <trkpt lat="44.50042" lon="5.13195">
        <ele>512</ele>
      </trkpt>
      <trkpt lat="44.5011" lon="5.13236">
        <ele>515</ele>
      </trkpt>
      <trkpt lat="44.50242" lon="5.13322">
        <ele>515</ele>
      </trkpt>
      <trkpt lat="44.50356" lon="5.13427">
        <ele>514</ele>
      </trkpt>
      <trkpt lat="44.50464" lon="5.13529">
        <ele>522</ele>
      </trkpt>
      <trkpt lat="44.50484" lon="5.13546">
        <ele>522</ele>
      </trkpt>
      <trkpt lat="44.50509" lon="5.1356">
        <ele>522</ele>
      </trkpt>
      <trkpt lat="44.50566" lon="5.13584">
        <ele>529</ele>
      </trkpt>
      <trkpt lat="44.50686" lon="5.1367">
        <ele>544</ele>
      </trkpt>
      <trkpt lat="44.50714" lon="5.13701">
        <ele>543</ele>
      </trkpt>
      <trkpt lat="44.50731" lon="5.13728">
        <ele>540</ele>
      </trkpt>
      <trkpt lat="44.50743" lon="5.13758">
        <ele>543</ele>
      </trkpt>
      <trkpt lat="44.50772" lon="5.13853">
        <ele>541</ele>
      </trkpt>
      <trkpt lat="44.50793" lon="5.13891">
        <ele>549</ele>
      </trkpt>
      <trkpt lat="44.5085" lon="5.13986">
        <ele>540</ele>
      </trkpt>
      <trkpt lat="44.50862" lon="5.13999">
        <ele>540</ele>
      </trkpt>
      <trkpt lat="44.5108" lon="5.14161">
        <ele>551</ele>
      </trkpt>
      <trkpt lat="44.51098" lon="5.1418">
        <ele>556</ele>
      </trkpt>
      <trkpt lat="44.51108" lon="5.14196">
        <ele>556</ele>
      </trkpt>
      <trkpt lat="44.51117" lon="5.14217">
        <ele>551</ele>
      </trkpt>
      <trkpt lat="44.5115" lon="5.14308">
        <ele>557</ele>
      </trkpt>
      <trkpt lat="44.51159" lon="5.14347">
        <ele>558</ele>
      </trkpt>
      <trkpt lat="44.51162" lon="5.14397">
        <ele>550</ele>
      </trkpt>
      <trkpt lat="44.5117" lon="5.14435">
        <ele>546</ele>
      </trkpt>
      <trkpt lat="44.51187" lon="5.14487">
        <ele>552</ele>
      </trkpt>
      <trkpt lat="44.51198" lon="5.14529">
        <ele>551</ele>
      </trkpt>
      <trkpt lat="44.51207" lon="5.14597">
        <ele>549</ele>
      </trkpt>
      <trkpt lat="44.51216" lon="5.14645">
        <ele>554</ele>
      </trkpt>
      <trkpt lat="44.51289" lon="5.14816">
        <ele>556</ele>
      </trkpt>
      <trkpt lat="44.51328" lon="5.14858">
        <ele>556</ele>
      </trkpt>
      <trkpt lat="44.51358" lon="5.14899">
        <ele>555</ele>
      </trkpt>
      <trkpt lat="44.51406" lon="5.14988">
        <ele>556</ele>
      </trkpt>
      <trkpt lat="44.51406" lon="5.14999">
        <ele>556</ele>
      </trkpt>
      <trkpt lat="44.5154" lon="5.15246">
        <ele>561</ele>
      </trkpt>
      <trkpt lat="44.51563" lon="5.15287">
        <ele>560</ele>
      </trkpt>
      <trkpt lat="44.51589" lon="5.15326">
        <ele>559</ele>
      </trkpt>
      <trkpt lat="44.51604" lon="5.15343">
        <ele>559</ele>
      </trkpt>
      <trkpt lat="44.51622" lon="5.15354">
        <ele>559</ele>
      </trkpt>
      <trkpt lat="44.51637" lon="5.15356">
        <ele>562</ele>
      </trkpt>
      <trkpt lat="44.51653" lon="5.15351">
        <ele>563</ele>
      </trkpt>
      <trkpt lat="44.51673" lon="5.15338">
        <ele>566</ele>
      </trkpt>
      <trkpt lat="44.51805" lon="5.15212">
        <ele>575</ele>
      </trkpt>
      <trkpt lat="44.51893" lon="5.15125">
        <ele>578</ele>
      </trkpt>
      <trkpt lat="44.51914" lon="5.15117">
        <ele>579</ele>
      </trkpt>
      <trkpt lat="44.51928" lon="5.15115">
        <ele>580</ele>
      </trkpt>
      <trkpt lat="44.52105" lon="5.15151">
        <ele>591</ele>
      </trkpt>
      <trkpt lat="44.52273" lon="5.15178">
        <ele>594</ele>
      </trkpt>
      <trkpt lat="44.52349" lon="5.15193">
        <ele>597</ele>
      </trkpt>
      <trkpt lat="44.52368" lon="5.152">
        <ele>596</ele>
      </trkpt>
      <trkpt lat="44.52454" lon="5.15231">
        <ele>597</ele>
      </trkpt>
      <trkpt lat="44.52481" lon="5.15245">
        <ele>601</ele>
      </trkpt>
      <trkpt lat="44.52581" lon="5.15365">
        <ele>604</ele>
      </trkpt>
      <trkpt lat="44.52603" lon="5.15387">
        <ele>604</ele>
      </trkpt>
      <trkpt lat="44.52619" lon="5.15395">
        <ele>603</ele>
      </trkpt>
      <trkpt lat="44.52645" lon="5.15391">
        <ele>606</ele>
      </trkpt>
      <trkpt lat="44.52711" lon="5.1537">
        <ele>610</ele>
      </trkpt>
      <trkpt lat="44.5273" lon="5.15369">
        <ele>611</ele>
      </trkpt>
      <trkpt lat="44.5274" lon="5.15374">
        <ele>614</ele>
      </trkpt>
      <trkpt lat="44.52764" lon="5.15398">
        <ele>612</ele>
      </trkpt>
      <trkpt lat="44.52794" lon="5.15448">
        <ele>616</ele>
      </trkpt>
      <trkpt lat="44.52827" lon="5.15486">
        <ele>615</ele>
      </trkpt>
      <trkpt lat="44.52883" lon="5.15525">
        <ele>616</ele>
      </trkpt>
      <trkpt lat="44.52962" lon="5.15574">
        <ele>614</ele>
      </trkpt>
      <trkpt lat="44.53" lon="5.15601">
        <ele>609</ele>
      </trkpt>
      <trkpt lat="44.53017" lon="5.15626">
        <ele>608</ele>
      </trkpt>
      <trkpt lat="44.53025" lon="5.1566">
        <ele>607</ele>
      </trkpt>
      <trkpt lat="44.53035" lon="5.1573">
        <ele>605</ele>
      </trkpt>
      <trkpt lat="44.53044" lon="5.15806">
        <ele>600</ele>
      </trkpt>
      <trkpt lat="44.53055" lon="5.15831">
        <ele>601</ele>
      </trkpt>
      <trkpt lat="44.53072" lon="5.15851">
        <ele>602</ele>
      </trkpt>
      <trkpt lat="44.53112" lon="5.15877">
        <ele>604</ele>
      </trkpt>
      <trkpt lat="44.53187" lon="5.15864">
        <ele>591</ele>
      </trkpt>
      <trkpt lat="44.53209" lon="5.15867">
        <ele>591</ele>
      </trkpt>
      <trkpt lat="44.53222" lon="5.15885">
        <ele>587</ele>
      </trkpt>
      <trkpt lat="44.5323" lon="5.15908">
        <ele>588</ele>
      </trkpt>
      <trkpt lat="44.53222" lon="5.15931">
        <ele>589</ele>
      </trkpt>
      <trkpt lat="44.53213" lon="5.15943">
        <ele>589</ele>
      </trkpt>
      <trkpt lat="44.53149" lon="5.16005">
        <ele>588</ele>
      </trkpt>
      <trkpt lat="44.53136" lon="5.16025">
        <ele>587</ele>
      </trkpt>
      <trkpt lat="44.53129" lon="5.1605">
        <ele>587</ele>
      </trkpt>
      <trkpt lat="44.53133" lon="5.16073">
        <ele>587</ele>
      </trkpt>
      <trkpt lat="44.53157" lon="5.16167">
        <ele>593</ele>
      </trkpt>
      <trkpt lat="44.53185" lon="5.16296">
        <ele>582</ele>
      </trkpt>
      <trkpt lat="44.53195" lon="5.16322">
        <ele>584</ele>
      </trkpt>
      <trkpt lat="44.53216" lon="5.16343">
        <ele>586</ele>
      </trkpt>
      <trkpt lat="44.53355" lon="5.16418">
        <ele>576</ele>
      </trkpt>
      <trkpt lat="44.5341" lon="5.16443">
        <ele>570</ele>
      </trkpt>
      <trkpt lat="44.5345" lon="5.16464">
        <ele>565</ele>
      </trkpt>
      <trkpt lat="44.53466" lon="5.1649">
        <ele>560</ele>
      </trkpt>
      <trkpt lat="44.53466" lon="5.16522">
        <ele>560</ele>
      </trkpt>
      <trkpt lat="44.53457" lon="5.16566">
        <ele>565</ele>
      </trkpt>
      <trkpt lat="44.53457" lon="5.16589">
        <ele>567</ele>
      </trkpt>
      <trkpt lat="44.53474" lon="5.16614">
        <ele>564</ele>
      </trkpt>
      <trkpt lat="44.53517" lon="5.16638">
        <ele>562</ele>
      </trkpt>
      <trkpt lat="44.53561" lon="5.16644">
        <ele>562</ele>
      </trkpt>
      <trkpt lat="44.53671" lon="5.16649">
        <ele>553</ele>
      </trkpt>
      <trkpt lat="44.5374" lon="5.16644">
        <ele>553</ele>
      </trkpt>
      <trkpt lat="44.5377" lon="5.16639">
        <ele>548</ele>
      </trkpt>
      <trkpt lat="44.53799" lon="5.16645">
        <ele>549</ele>
      </trkpt>
      <trkpt lat="44.53839" lon="5.1666">
        <ele>547</ele>
      </trkpt>
      <trkpt lat="44.53912" lon="5.167">
        <ele>544</ele>
      </trkpt>
      <trkpt lat="44.53933" lon="5.1671">
        <ele>543</ele>
      </trkpt>
      <trkpt lat="44.53952" lon="5.16711">
        <ele>543</ele>
      </trkpt>
      <trkpt lat="44.53972" lon="5.16707">
        <ele>542</ele>
      </trkpt>
      <trkpt lat="44.54016" lon="5.16689">
        <ele>540</ele>
      </trkpt>
      <trkpt lat="44.54133" lon="5.16652">
        <ele>530</ele>
      </trkpt>
      <trkpt lat="44.54146" lon="5.16652">
        <ele>530</ele>
      </trkpt>
      <trkpt lat="44.54421" lon="5.16749">
        <ele>515</ele>
      </trkpt>
      <trkpt lat="44.54644" lon="5.16885">
        <ele>505</ele>
      </trkpt>
      <trkpt lat="44.54933" lon="5.1705">
        <ele>501</ele>
      </trkpt>
      <trkpt lat="44.54957" lon="5.17056">
        <ele>501</ele>
      </trkpt>
      <trkpt lat="44.55014" lon="5.17065">
        <ele>501</ele>
      </trkpt>
      <trkpt lat="44.551" lon="5.17055">
        <ele>489</ele>
      </trkpt>
      <trkpt lat="44.55116" lon="5.17062">
        <ele>488</ele>
      </trkpt>
      <trkpt lat="44.55129" lon="5.17075">
        <ele>486</ele>
      </trkpt>
      <trkpt lat="44.55136" lon="5.1711">
        <ele>486</ele>
      </trkpt>
      <trkpt lat="44.55136" lon="5.17166">
        <ele>485</ele>
      </trkpt>
      <trkpt lat="44.55146" lon="5.17198">
        <ele>486</ele>
      </trkpt>
      <trkpt lat="44.55164" lon="5.17225">
        <ele>486</ele>
      </trkpt>
      <trkpt lat="44.5526" lon="5.17305">
        <ele>483</ele>
      </trkpt>
      <trkpt lat="44.55337" lon="5.17364">
        <ele>490</ele>
      </trkpt>
      <trkpt lat="44.55413" lon="5.17246">
        <ele>487</ele>
      </trkpt>
      <trkpt lat="44.55434" lon="5.17209">
        <ele>484</ele>
      </trkpt>
      <trkpt lat="44.55445" lon="5.17185">
        <ele>482</ele>
      </trkpt>
      <trkpt lat="44.55514" lon="5.16932">
        <ele>483</ele>
      </trkpt>
      <trkpt lat="44.5555" lon="5.16808">
        <ele>490</ele>
      </trkpt>
      <trkpt lat="44.55556" lon="5.16756">
        <ele>490</ele>
      </trkpt>
      <trkpt lat="44.55556" lon="5.16701">
        <ele>488</ele>
      </trkpt>
      <trkpt lat="44.5556" lon="5.16669">
        <ele>483</ele>
      </trkpt>
      <trkpt lat="44.55572" lon="5.16628">
        <ele>483</ele>
      </trkpt>
      <trkpt lat="44.55591" lon="5.1661">
        <ele>482</ele>
      </trkpt>
      <trkpt lat="44.55651" lon="5.16563">
        <ele>483</ele>
      </trkpt>
      <trkpt lat="44.5571" lon="5.16514">
        <ele>482</ele>
      </trkpt>
      <trkpt lat="44.55721" lon="5.16502">
        <ele>479</ele>
      </trkpt>
      <trkpt lat="44.5576" lon="5.16444">
        <ele>474</ele>
      </trkpt>
      <trkpt lat="44.55807" lon="5.16401">
        <ele>471</ele>
      </trkpt>
      <trkpt lat="44.55889" lon="5.16341">
        <ele>466</ele>
      </trkpt>
      <trkpt lat="44.56089" lon="5.16222">
        <ele>460</ele>
      </trkpt>
      <trkpt lat="44.56106" lon="5.16208">
        <ele>462</ele>
      </trkpt>
      <trkpt lat="44.56124" lon="5.16189">
        <ele>461</ele>
      </trkpt>
      <trkpt lat="44.56211" lon="5.16077">
        <ele>459</ele>
      </trkpt>
      <trkpt lat="44.56275" lon="5.15974">
        <ele>456</ele>
      </trkpt>
      <trkpt lat="44.56286" lon="5.15962">
        <ele>456</ele>
      </trkpt>
      <trkpt lat="44.56307" lon="5.15948">
        <ele>455</ele>
      </trkpt>
      <trkpt lat="44.5632" lon="5.15945">
        <ele>455</ele>
      </trkpt>
      <trkpt lat="44.56356" lon="5.15945">
        <ele>454</ele>
      </trkpt>
      <trkpt lat="44.56374" lon="5.15954">
        <ele>455</ele>
      </trkpt>
      <trkpt lat="44.56384" lon="5.15963">
        <ele>453</ele>
      </trkpt>
      <trkpt lat="44.56392" lon="5.15977">
        <ele>454</ele>
      </trkpt>
      <trkpt lat="44.56401" lon="5.15994">
        <ele>453</ele>
      </trkpt>
      <trkpt lat="44.56417" lon="5.16038">
        <ele>452</ele>
      </trkpt>
      <trkpt lat="44.56437" lon="5.16082">
        <ele>450</ele>
      </trkpt>
      <trkpt lat="44.56447" lon="5.16101">
        <ele>452</ele>
      </trkpt>
      <trkpt lat="44.56458" lon="5.16117">
        <ele>456</ele>
      </trkpt>
      <trkpt lat="44.56472" lon="5.16131">
        <ele>452</ele>
      </trkpt>
      <trkpt lat="44.56518" lon="5.16161">
        <ele>452</ele>
      </trkpt>
      <trkpt lat="44.56555" lon="5.16177">
        <ele>454</ele>
      </trkpt>
      <trkpt lat="44.5657" lon="5.16178">
        <ele>453</ele>
      </trkpt>
      <trkpt lat="44.56583" lon="5.16175">
        <ele>453</ele>
      </trkpt>
      <trkpt lat="44.56679" lon="5.1612">
        <ele>452</ele>
      </trkpt>
      <trkpt lat="44.56734" lon="5.16085">
        <ele>445</ele>
      </trkpt>
      <trkpt lat="44.56748" lon="5.16078">
        <ele>443</ele>
      </trkpt>
      <trkpt lat="44.56761" lon="5.16076">
        <ele>443</ele>
      </trkpt>
      <trkpt lat="44.56776" lon="5.16077">
        <ele>442</ele>
      </trkpt>
      <trkpt lat="44.56797" lon="5.16082">
        <ele>441</ele>
      </trkpt>
      <trkpt lat="44.56965" lon="5.16134">
        <ele>443</ele>
      </trkpt>
      <trkpt lat="44.56986" lon="5.16135">
        <ele>443</ele>
      </trkpt>
      <trkpt lat="44.56999" lon="5.16131">
        <ele>445</ele>
      </trkpt>
      <trkpt lat="44.57016" lon="5.16121">
        <ele>445</ele>
      </trkpt>
      <trkpt lat="44.57138" lon="5.16027">
        <ele>444</ele>
      </trkpt>
      <trkpt lat="44.57152" lon="5.16013">
        <ele>445</ele>
      </trkpt>
      <trkpt lat="44.57159" lon="5.16">
        <ele>450</ele>
      </trkpt>
      <trkpt lat="44.57164" lon="5.15987">
        <ele>451</ele>
      </trkpt>
      <trkpt lat="44.57172" lon="5.15994">
        <ele>451</ele>
      </trkpt>
      <trkpt lat="44.57177" lon="5.16032">
        <ele>450</ele>
      </trkpt>
      <trkpt lat="44.57214" lon="5.16095">
        <ele>457</ele>
      </trkpt>
      <trkpt lat="44.5723" lon="5.16144">
        <ele>454</ele>
      </trkpt>
      <trkpt lat="44.57231" lon="5.1627">
        <ele>449</ele>
      </trkpt>
      <trkpt lat="44.57242" lon="5.16338">
        <ele>451</ele>
      </trkpt>
      <trkpt lat="44.57251" lon="5.16358">
        <ele>452</ele>
      </trkpt>
      <trkpt lat="44.57281" lon="5.16393">
        <ele>455</ele>
      </trkpt>
      <trkpt lat="44.573" lon="5.16436">
        <ele>455</ele>
      </trkpt>
      <trkpt lat="44.57322" lon="5.16505">
        <ele>453</ele>
      </trkpt>
      <trkpt lat="44.5735" lon="5.16556">
        <ele>454</ele>
      </trkpt>
      <trkpt lat="44.57354" lon="5.1656">
        <ele>454</ele>
      </trkpt>
      <trkpt lat="44.57383" lon="5.16591">
        <ele>456</ele>
      </trkpt>
      <trkpt lat="44.57491" lon="5.16736">
        <ele>460</ele>
      </trkpt>
      <trkpt lat="44.57541" lon="5.16773">
        <ele>464</ele>
      </trkpt>
      <trkpt lat="44.57555" lon="5.1679">
        <ele>469</ele>
      </trkpt>
      <trkpt lat="44.57561" lon="5.16806">
        <ele>470</ele>
      </trkpt>
      <trkpt lat="44.57568" lon="5.16836">
        <ele>471</ele>
      </trkpt>
      <trkpt lat="44.57621" lon="5.16932">
        <ele>474</ele>
      </trkpt>
      <trkpt lat="44.57664" lon="5.16991">
        <ele>473</ele>
      </trkpt>
      <trkpt lat="44.57669" lon="5.17003">
        <ele>472</ele>
      </trkpt>
      <trkpt lat="44.57677" lon="5.17036">
        <ele>466</ele>
      </trkpt>
      <trkpt lat="44.57717" lon="5.17226">
        <ele>467</ele>
      </trkpt>
      <trkpt lat="44.57759" lon="5.17375">
        <ele>479</ele>
      </trkpt>
      <trkpt lat="44.57762" lon="5.17401">
        <ele>479</ele>
      </trkpt>
      <trkpt lat="44.57763" lon="5.17443">
        <ele>480</ele>
      </trkpt>
      <trkpt lat="44.57759" lon="5.17507">
        <ele>485</ele>
      </trkpt>
      <trkpt lat="44.57796" lon="5.17515">
        <ele>492</ele>
      </trkpt>
      <trkpt lat="44.57856" lon="5.17507">
        <ele>494</ele>
      </trkpt>
      <trkpt lat="44.57879" lon="5.17507">
        <ele>494</ele>
      </trkpt>
      <trkpt lat="44.5789" lon="5.17511">
        <ele>494</ele>
      </trkpt>
      <trkpt lat="44.57969" lon="5.17571">
        <ele>495</ele>
      </trkpt>
      <trkpt lat="44.57986" lon="5.17579">
        <ele>495</ele>
      </trkpt>
      <trkpt lat="44.57995" lon="5.17581">
        <ele>496</ele>
      </trkpt>
      <trkpt lat="44.5807" lon="5.17579">
        <ele>501</ele>
      </trkpt>
      <trkpt lat="44.58138" lon="5.17569">
        <ele>503</ele>
      </trkpt>
      <trkpt lat="44.58176" lon="5.17567">
        <ele>504</ele>
      </trkpt>
      <trkpt lat="44.58225" lon="5.17546">
        <ele>506</ele>
      </trkpt>
      <trkpt lat="44.58308" lon="5.17518">
        <ele>506</ele>
      </trkpt>
      <trkpt lat="44.58331" lon="5.175">
        <ele>505</ele>
      </trkpt>
      <trkpt lat="44.58343" lon="5.17488">
        <ele>505</ele>
      </trkpt>
      <trkpt lat="44.58354" lon="5.17471">
        <ele>506</ele>
      </trkpt>
      <trkpt lat="44.58368" lon="5.17442">
        <ele>505</ele>
      </trkpt>
      <trkpt lat="44.58375" lon="5.17435">
        <ele>505</ele>
      </trkpt>
      <trkpt lat="44.5839" lon="5.17428">
        <ele>507</ele>
      </trkpt>
      <trkpt lat="44.58398" lon="5.17428">
        <ele>507</ele>
      </trkpt>
      <trkpt lat="44.58455" lon="5.17443">
        <ele>507</ele>
      </trkpt>
      <trkpt lat="44.58472" lon="5.17441">
        <ele>506</ele>
      </trkpt>
      <trkpt lat="44.58511" lon="5.17416">
        <ele>505</ele>
      </trkpt>
      <trkpt lat="44.58574" lon="5.17365">
        <ele>509</ele>
      </trkpt>
      <trkpt lat="44.58609" lon="5.17348">
        <ele>511</ele>
      </trkpt>
      <trkpt lat="44.58645" lon="5.17339">
        <ele>514</ele>
      </trkpt>
      <trkpt lat="44.58669" lon="5.17338">
        <ele>517</ele>
      </trkpt>
      <trkpt lat="44.58697" lon="5.17342">
        <ele>522</ele>
      </trkpt>
      <trkpt lat="44.5876" lon="5.17339">
        <ele>524</ele>
      </trkpt>
      <trkpt lat="44.58782" lon="5.17332">
        <ele>522</ele>
      </trkpt>
      <trkpt lat="44.588" lon="5.17332">
        <ele>522</ele>
      </trkpt>
      <trkpt lat="44.58807" lon="5.17334">
        <ele>522</ele>
      </trkpt>
      <trkpt lat="44.58875" lon="5.17383">
        <ele>530</ele>
      </trkpt>
      <trkpt lat="44.58883" lon="5.17386">
        <ele>531</ele>
      </trkpt>
      <trkpt lat="44.58918" lon="5.1739">
        <ele>533</ele>
      </trkpt>
      <trkpt lat="44.58924" lon="5.17389">
        <ele>533</ele>
      </trkpt>
      <trkpt lat="44.58935" lon="5.17382">
        <ele>535</ele>
      </trkpt>
      <trkpt lat="44.58943" lon="5.17373">
        <ele>536</ele>
      </trkpt>
      <trkpt lat="44.58987" lon="5.17312">
        <ele>533</ele>
      </trkpt>
      <trkpt lat="44.59013" lon="5.17284">
        <ele>531</ele>
      </trkpt>
      <trkpt lat="44.59048" lon="5.17254">
        <ele>529</ele>
      </trkpt>
      <trkpt lat="44.59078" lon="5.17175">
        <ele>526</ele>
      </trkpt>
      <trkpt lat="44.59111" lon="5.17145">
        <ele>524</ele>
      </trkpt>
      <trkpt lat="44.59146" lon="5.17132">
        <ele>523</ele>
      </trkpt>
      <trkpt lat="44.59206" lon="5.17143">
        <ele>521</ele>
      </trkpt>
      <trkpt lat="44.59232" lon="5.17136">
        <ele>520</ele>
      </trkpt>
      <trkpt lat="44.59271" lon="5.17133">
        <ele>519</ele>
      </trkpt>
      <trkpt lat="44.5933" lon="5.17116">
        <ele>519</ele>
      </trkpt>
      <trkpt lat="44.5937" lon="5.17094">
        <ele>519</ele>
      </trkpt>
      <trkpt lat="44.59455" lon="5.17018">
        <ele>517</ele>
      </trkpt>
      <trkpt lat="44.59479" lon="5.16995">
        <ele>516</ele>
      </trkpt>
      <trkpt lat="44.59516" lon="5.16966">
        <ele>515</ele>
      </trkpt>
      <trkpt lat="44.59547" lon="5.16955">
        <ele>514</ele>
      </trkpt>
      <trkpt lat="44.59586" lon="5.16947">
        <ele>510</ele>
      </trkpt>
      <trkpt lat="44.59624" lon="5.16975">
        <ele>512</ele>
      </trkpt>
      <trkpt lat="44.59631" lon="5.16978">
        <ele>515</ele>
      </trkpt>
      <trkpt lat="44.59645" lon="5.1698">
        <ele>515</ele>
      </trkpt>
      <trkpt lat="44.59657" lon="5.16978">
        <ele>516</ele>
      </trkpt>
      <trkpt lat="44.59675" lon="5.16971">
        <ele>514</ele>
      </trkpt>
      <trkpt lat="44.59685" lon="5.1696">
        <ele>515</ele>
      </trkpt>
      <trkpt lat="44.59686" lon="5.16948">
        <ele>513</ele>
      </trkpt>
      <trkpt lat="44.59681" lon="5.16928">
        <ele>511</ele>
      </trkpt>
      <trkpt lat="44.59679" lon="5.1691">
        <ele>510</ele>
      </trkpt>
      <trkpt lat="44.5969" lon="5.16845">
        <ele>512</ele>
      </trkpt>
      <trkpt lat="44.59729" lon="5.16868">
        <ele>513</ele>
      </trkpt>
      <trkpt lat="44.59746" lon="5.16868">
        <ele>515</ele>
      </trkpt>
      <trkpt lat="44.59772" lon="5.16859">
        <ele>521</ele>
      </trkpt>
      <trkpt lat="44.59785" lon="5.16857">
        <ele>521</ele>
      </trkpt>
      <trkpt lat="44.59796" lon="5.16862">
        <ele>523</ele>
      </trkpt>
      <trkpt lat="44.59854" lon="5.16912">
        <ele>525</ele>
      </trkpt>
      <trkpt lat="44.59873" lon="5.16936">
        <ele>525</ele>
      </trkpt>
      <trkpt lat="44.59973" lon="5.17022">
        <ele>537</ele>
      </trkpt>
      <trkpt lat="44.59982" lon="5.17044">
        <ele>536</ele>
      </trkpt>
      <trkpt lat="44.6" lon="5.17066">
        <ele>535</ele>
      </trkpt>
      <trkpt lat="44.60032" lon="5.17086">
        <ele>538</ele>
      </trkpt>
      <trkpt lat="44.60041" lon="5.17098">
        <ele>536</ele>
      </trkpt>
      <trkpt lat="44.60083" lon="5.17177">
        <ele>538</ele>
      </trkpt>
      <trkpt lat="44.60091" lon="5.17197">
        <ele>538</ele>
      </trkpt>
      <trkpt lat="44.60099" lon="5.17228">
        <ele>543</ele>
      </trkpt>
      <trkpt lat="44.60111" lon="5.17261">
        <ele>543</ele>
      </trkpt>
      <trkpt lat="44.60114" lon="5.17266">
        <ele>542</ele>
      </trkpt>
      <trkpt lat="44.60126" lon="5.17285">
        <ele>547</ele>
      </trkpt>
      <trkpt lat="44.60155" lon="5.1732">
        <ele>545</ele>
      </trkpt>
      <trkpt lat="44.60218" lon="5.17377">
        <ele>542</ele>
      </trkpt>
      <trkpt lat="44.60235" lon="5.17396">
        <ele>546</ele>
      </trkpt>
      <trkpt lat="44.60291" lon="5.17478">
        <ele>555</ele>
      </trkpt>
      <trkpt lat="44.60304" lon="5.17509">
        <ele>561</ele>
      </trkpt>
      <trkpt lat="44.60304" lon="5.17541">
        <ele>564</ele>
      </trkpt>
      <trkpt lat="44.60294" lon="5.17578">
        <ele>567</ele>
      </trkpt>
      <trkpt lat="44.60293" lon="5.17589">
        <ele>569</ele>
      </trkpt>
      <trkpt lat="44.60294" lon="5.176">
        <ele>570</ele>
      </trkpt>
      <trkpt lat="44.60304" lon="5.17617">
        <ele>574</ele>
      </trkpt>
      <trkpt lat="44.60314" lon="5.1762">
        <ele>575</ele>
      </trkpt>
      <trkpt lat="44.60323" lon="5.17615">
        <ele>578</ele>
      </trkpt>
      <trkpt lat="44.6034" lon="5.17596">
        <ele>578</ele>
      </trkpt>
      <trkpt lat="44.60346" lon="5.17582">
        <ele>575</ele>
      </trkpt>
      <trkpt lat="44.6035" lon="5.17554">
        <ele>572</ele>
      </trkpt>
      <trkpt lat="44.60357" lon="5.17528">
        <ele>571</ele>
      </trkpt>
      <trkpt lat="44.60366" lon="5.17519">
        <ele>571</ele>
      </trkpt>
      <trkpt lat="44.60374" lon="5.17518">
        <ele>571</ele>
      </trkpt>
      <trkpt lat="44.60382" lon="5.17521">
        <ele>573</ele>
      </trkpt>
      <trkpt lat="44.60437" lon="5.17552">
        <ele>589</ele>
      </trkpt>
      <trkpt lat="44.60443" lon="5.1755">
        <ele>589</ele>
      </trkpt>
      <trkpt lat="44.60471" lon="5.17495">
        <ele>587</ele>
      </trkpt>
      <trkpt lat="44.60483" lon="5.17484">
        <ele>587</ele>
      </trkpt>
      <trkpt lat="44.60501" lon="5.17475">
        <ele>587</ele>
      </trkpt>
      <trkpt lat="44.60544" lon="5.17463">
        <ele>591</ele>
      </trkpt>
      <trkpt lat="44.60566" lon="5.17461">
        <ele>594</ele>
      </trkpt>
      <trkpt lat="44.60577" lon="5.17465">
        <ele>598</ele>
      </trkpt>
      <trkpt lat="44.60589" lon="5.17466">
        <ele>599</ele>
      </trkpt>
      <trkpt lat="44.60598" lon="5.17464">
        <ele>600</ele>
      </trkpt>
      <trkpt lat="44.60608" lon="5.17456">
        <ele>605</ele>
      </trkpt>
      <trkpt lat="44.6062" lon="5.17434">
        <ele>602</ele>
      </trkpt>
      <trkpt lat="44.60632" lon="5.17419">
        <ele>603</ele>
      </trkpt>
      <trkpt lat="44.60699" lon="5.17378">
        <ele>613</ele>
      </trkpt>
      <trkpt lat="44.60747" lon="5.17358">
        <ele>616</ele>
      </trkpt>
      <trkpt lat="44.6079" lon="5.17335">
        <ele>612</ele>
      </trkpt>
      <trkpt lat="44.608" lon="5.17337">
        <ele>613</ele>
      </trkpt>
      <trkpt lat="44.60836" lon="5.17361">
        <ele>622</ele>
      </trkpt>
      <trkpt lat="44.60849" lon="5.17366">
        <ele>629</ele>
      </trkpt>
      <trkpt lat="44.60884" lon="5.17366">
        <ele>629</ele>
      </trkpt>
      <trkpt lat="44.60912" lon="5.17362">
        <ele>621</ele>
      </trkpt>
      <trkpt lat="44.60933" lon="5.1737">
        <ele>628</ele>
      </trkpt>
      <trkpt lat="44.60959" lon="5.17387">
        <ele>628</ele>
      </trkpt>
      <trkpt lat="44.61054" lon="5.17464">
        <ele>644</ele>
      </trkpt>
      <trkpt lat="44.61062" lon="5.17466">
        <ele>644</ele>
      </trkpt>
      <trkpt lat="44.61131" lon="5.17463">
        <ele>650</ele>
      </trkpt>
      <trkpt lat="44.61185" lon="5.17474">
        <ele>646</ele>
      </trkpt>
      <trkpt lat="44.61222" lon="5.17486">
        <ele>648</ele>
      </trkpt>
      <trkpt lat="44.61226" lon="5.17491">
        <ele>649</ele>
      </trkpt>
      <trkpt lat="44.61227" lon="5.17496">
        <ele>649</ele>
      </trkpt>
      <trkpt lat="44.61223" lon="5.17505">
        <ele>655</ele>
      </trkpt>
      <trkpt lat="44.61189" lon="5.17504">
        <ele>653</ele>
      </trkpt>
      <trkpt lat="44.61115" lon="5.17552">
        <ele>674</ele>
      </trkpt>
      <trkpt lat="44.61109" lon="5.17553">
        <ele>674</ele>
      </trkpt>
      <trkpt lat="44.61077" lon="5.1756">
        <ele>674</ele>
      </trkpt>
      <trkpt lat="44.61044" lon="5.17551">
        <ele>669</ele>
      </trkpt>
      <trkpt lat="44.61019" lon="5.17549">
        <ele>668</ele>
      </trkpt>
      <trkpt lat="44.60951" lon="5.17556">
        <ele>677</ele>
      </trkpt>
      <trkpt lat="44.6094" lon="5.17561">
        <ele>683</ele>
      </trkpt>
      <trkpt lat="44.60919" lon="5.1758">
        <ele>685</ele>
      </trkpt>
      <trkpt lat="44.60912" lon="5.1759">
        <ele>690</ele>
      </trkpt>
      <trkpt lat="44.60908" lon="5.17604">
        <ele>691</ele>
      </trkpt>
      <trkpt lat="44.60911" lon="5.17611">
        <ele>691</ele>
      </trkpt>
      <trkpt lat="44.6092" lon="5.17618">
        <ele>695</ele>
      </trkpt>
      <trkpt lat="44.60928" lon="5.17616">
        <ele>691</ele>
      </trkpt>
      <trkpt lat="44.60948" lon="5.17603">
        <ele>690</ele>
      </trkpt>
      <trkpt lat="44.60954" lon="5.17602">
        <ele>690</ele>
      </trkpt>
      <trkpt lat="44.6099" lon="5.17614">
        <ele>690</ele>
      </trkpt>
      <trkpt lat="44.6101" lon="5.17616">
        <ele>690</ele>
      </trkpt>
      <trkpt lat="44.61032" lon="5.17622">
        <ele>696</ele>
      </trkpt>
      <trkpt lat="44.61048" lon="5.17629">
        <ele>695</ele>
      </trkpt>
      <trkpt lat="44.61089" lon="5.17652">
        <ele>705</ele>
      </trkpt>
      <trkpt lat="44.61097" lon="5.17652">
        <ele>706</ele>
      </trkpt>
      <trkpt lat="44.61112" lon="5.17647">
        <ele>705</ele>
      </trkpt>
      <trkpt lat="44.61132" lon="5.17648">
        <ele>706</ele>
      </trkpt>
      <trkpt lat="44.6115" lon="5.17659">
        <ele>707</ele>
      </trkpt>
      <trkpt lat="44.6116" lon="5.17672">
        <ele>712</ele>
      </trkpt>
      <trkpt lat="44.6117" lon="5.17681">
        <ele>713</ele>
      </trkpt>
      <trkpt lat="44.61208" lon="5.17694">
        <ele>711</ele>
      </trkpt>
      <trkpt lat="44.61278" lon="5.17749">
        <ele>714</ele>
      </trkpt>
      <trkpt lat="44.61286" lon="5.1776">
        <ele>719</ele>
      </trkpt>
      <trkpt lat="44.61301" lon="5.17792">
        <ele>722</ele>
      </trkpt>
      <trkpt lat="44.61346" lon="5.1785">
        <ele>727</ele>
      </trkpt>
      <trkpt lat="44.61349" lon="5.17857">
        <ele>728</ele>
      </trkpt>
      <trkpt lat="44.61349" lon="5.17864">
        <ele>729</ele>
      </trkpt>
      <trkpt lat="44.61344" lon="5.17871">
        <ele>735</ele>
      </trkpt>
      <trkpt lat="44.61338" lon="5.17871">
        <ele>735</ele>
      </trkpt>
      <trkpt lat="44.61287" lon="5.17842">
        <ele>739</ele>
      </trkpt>
      <trkpt lat="44.61233" lon="5.17801">
        <ele>738</ele>
      </trkpt>
      <trkpt lat="44.61216" lon="5.17792">
        <ele>739</ele>
      </trkpt>
      <trkpt lat="44.61178" lon="5.17782">
        <ele>743</ele>
      </trkpt>
      <trkpt lat="44.61152" lon="5.17777">
        <ele>747</ele>
      </trkpt>
      <trkpt lat="44.61106" lon="5.17781">
        <ele>752</ele>
      </trkpt>
      <trkpt lat="44.61044" lon="5.17776">
        <ele>756</ele>
      </trkpt>
      <trkpt lat="44.61034" lon="5.17778">
        <ele>757</ele>
      </trkpt>
      <trkpt lat="44.61019" lon="5.17786">
        <ele>765</ele>
      </trkpt>
      <trkpt lat="44.61006" lon="5.17798">
        <ele>766</ele>
      </trkpt>
      <trkpt lat="44.60991" lon="5.17815">
        <ele>773</ele>
      </trkpt>
      <trkpt lat="44.60967" lon="5.1786">
        <ele>778</ele>
      </trkpt>
      <trkpt lat="44.60959" lon="5.17879">
        <ele>778</ele>
      </trkpt>
      <trkpt lat="44.60946" lon="5.17947">
        <ele>785</ele>
      </trkpt>
      <trkpt lat="44.60941" lon="5.17961">
        <ele>788</ele>
      </trkpt>
      <trkpt lat="44.60934" lon="5.17971">
        <ele>788</ele>
      </trkpt>
      <trkpt lat="44.60922" lon="5.17978">
        <ele>788</ele>
      </trkpt>
      <trkpt lat="44.60899" lon="5.17981">
        <ele>785</ele>
      </trkpt>
      <trkpt lat="44.60875" lon="5.17987">
        <ele>785</ele>
      </trkpt>
      <trkpt lat="44.60845" lon="5.18003">
        <ele>786</ele>
      </trkpt>
      <trkpt lat="44.60782" lon="5.18047">
        <ele>796</ele>
      </trkpt>
      <trkpt lat="44.60771" lon="5.18065">
        <ele>800</ele>
      </trkpt>
      <trkpt lat="44.60762" lon="5.18091">
        <ele>801</ele>
      </trkpt>
      <trkpt lat="44.6076" lon="5.18102">
        <ele>801</ele>
      </trkpt>
      <trkpt lat="44.60761" lon="5.18108">
        <ele>802</ele>
      </trkpt>
      <trkpt lat="44.60765" lon="5.18113">
        <ele>803</ele>
      </trkpt>
      <trkpt lat="44.60772" lon="5.18112">
        <ele>807</ele>
      </trkpt>
      <trkpt lat="44.6078" lon="5.18105">
        <ele>807</ele>
      </trkpt>
      <trkpt lat="44.6081" lon="5.18087">
        <ele>808</ele>
      </trkpt>
      <trkpt lat="44.60826" lon="5.18082">
        <ele>810</ele>
      </trkpt>
      <trkpt lat="44.60878" lon="5.1807">
        <ele>810</ele>
      </trkpt>
      <trkpt lat="44.60901" lon="5.18074">
        <ele>810</ele>
      </trkpt>
      <trkpt lat="44.60952" lon="5.18093">
        <ele>815</ele>
      </trkpt>
      <trkpt lat="44.60985" lon="5.18117">
        <ele>821</ele>
      </trkpt>
      <trkpt lat="44.60994" lon="5.1812">
        <ele>821</ele>
      </trkpt>
      <trkpt lat="44.61006" lon="5.18121">
        <ele>821</ele>
      </trkpt>
      <trkpt lat="44.61089" lon="5.18144">
        <ele>831</ele>
      </trkpt>
      <trkpt lat="44.61128" lon="5.18146">
        <ele>834</ele>
      </trkpt>
      <trkpt lat="44.61137" lon="5.18151">
        <ele>836</ele>
      </trkpt>
      <trkpt lat="44.6114" lon="5.18157">
        <ele>836</ele>
      </trkpt>
      <trkpt lat="44.6114" lon="5.18166">
        <ele>837</ele>
      </trkpt>
      <trkpt lat="44.61135" lon="5.18174">
        <ele>842</ele>
      </trkpt>
      <trkpt lat="44.61032" lon="5.18253">
        <ele>845</ele>
      </trkpt>
      <trkpt lat="44.61013" lon="5.18272">
        <ele>849</ele>
      </trkpt>
      <trkpt lat="44.6099" lon="5.18287">
        <ele>854</ele>
      </trkpt>
      <trkpt lat="44.60968" lon="5.18314">
        <ele>858</ele>
      </trkpt>
      <trkpt lat="44.60933" lon="5.18344">
        <ele>860</ele>
      </trkpt>
      <trkpt lat="44.60904" lon="5.18364">
        <ele>858</ele>
      </trkpt>
      <trkpt lat="44.60897" lon="5.18374">
        <ele>860</ele>
      </trkpt>
      <trkpt lat="44.60896" lon="5.18387">
        <ele>861</ele>
      </trkpt>
      <trkpt lat="44.609" lon="5.184">
        <ele>864</ele>
      </trkpt>
      <trkpt lat="44.60912" lon="5.18408">
        <ele>867</ele>
      </trkpt>
      <trkpt lat="44.60929" lon="5.18411">
        <ele>868</ele>
      </trkpt>
      <trkpt lat="44.60947" lon="5.18412">
        <ele>872</ele>
      </trkpt>
      <trkpt lat="44.60969" lon="5.18402">
        <ele>875</ele>
      </trkpt>
      <trkpt lat="44.6102" lon="5.18391">
        <ele>875</ele>
      </trkpt>
      <trkpt lat="44.61049" lon="5.18388">
        <ele>879</ele>
      </trkpt>
      <trkpt lat="44.61074" lon="5.1838">
        <ele>883</ele>
      </trkpt>
      <trkpt lat="44.6111" lon="5.18357">
        <ele>882</ele>
      </trkpt>
      <trkpt lat="44.61165" lon="5.18337">
        <ele>883</ele>
      </trkpt>
      <trkpt lat="44.61188" lon="5.18337">
        <ele>888</ele>
      </trkpt>
      <trkpt lat="44.61258" lon="5.18356">
        <ele>901</ele>
      </trkpt>
      <trkpt lat="44.61273" lon="5.18355">
        <ele>903</ele>
      </trkpt>
      <trkpt lat="44.61294" lon="5.18348">
        <ele>903</ele>
      </trkpt>
      <trkpt lat="44.61328" lon="5.18342">
        <ele>909</ele>
      </trkpt>
      <trkpt lat="44.61367" lon="5.18313">
        <ele>910</ele>
      </trkpt>
      <trkpt lat="44.61402" lon="5.18309">
        <ele>907</ele>
      </trkpt>
      <trkpt lat="44.61416" lon="5.18312">
        <ele>917</ele>
      </trkpt>
      <trkpt lat="44.61439" lon="5.18323">
        <ele>925</ele>
      </trkpt>
      <trkpt lat="44.61447" lon="5.18323">
        <ele>926</ele>
      </trkpt>
      <trkpt lat="44.61564" lon="5.18275">
        <ele>924</ele>
      </trkpt>
      <trkpt lat="44.61585" lon="5.18273">
        <ele>925</ele>
      </trkpt>
      <trkpt lat="44.61741" lon="5.18306">
        <ele>940</ele>
      </trkpt>
      <trkpt lat="44.61881" lon="5.18325">
        <ele>953</ele>
      </trkpt>
      <trkpt lat="44.61929" lon="5.18336">
        <ele>957</ele>
      </trkpt>
      <trkpt lat="44.6196" lon="5.18347">
        <ele>961</ele>
      </trkpt>
      <trkpt lat="44.61976" lon="5.1836">
        <ele>960</ele>
      </trkpt>
      <trkpt lat="44.61987" lon="5.18372">
        <ele>962</ele>
      </trkpt>
      <trkpt lat="44.62037" lon="5.18447">
        <ele>961</ele>
      </trkpt>
      <trkpt lat="44.62063" lon="5.18495">
        <ele>957</ele>
      </trkpt>
      <trkpt lat="44.62075" lon="5.18521">
        <ele>956</ele>
      </trkpt>
      <trkpt lat="44.62082" lon="5.18542">
        <ele>960</ele>
      </trkpt>
      <trkpt lat="44.62108" lon="5.18597">
        <ele>962</ele>
      </trkpt>
      <trkpt lat="44.62158" lon="5.18745">
        <ele>964</ele>
      </trkpt>
      <trkpt lat="44.62186" lon="5.18877">
        <ele>973</ele>
      </trkpt>
      <trkpt lat="44.62196" lon="5.1896">
        <ele>982</ele>
      </trkpt>
      <trkpt lat="44.62217" lon="5.19191">
        <ele>1004</ele>
      </trkpt>
      <trkpt lat="44.62223" lon="5.19209">
        <ele>1013</ele>
      </trkpt>
      <trkpt lat="44.62229" lon="5.19218">
        <ele>1013</ele>
      </trkpt>
      <trkpt lat="44.62235" lon="5.19224">
        <ele>1013</ele>
      </trkpt>
      <trkpt lat="44.62279" lon="5.19232">
        <ele>1006</ele>
      </trkpt>
      <trkpt lat="44.62295" lon="5.19241">
        <ele>1005</ele>
      </trkpt>
      <trkpt lat="44.62308" lon="5.19258">
        <ele>1005</ele>
      </trkpt>
      <trkpt lat="44.62338" lon="5.19317">
        <ele>1004</ele>
      </trkpt>
      <trkpt lat="44.62349" lon="5.19367">
        <ele>1012</ele>
      </trkpt>
      <trkpt lat="44.62352" lon="5.19415">
        <ele>1011</ele>
      </trkpt>
      <trkpt lat="44.62358" lon="5.1944">
        <ele>1016</ele>
      </trkpt>
      <trkpt lat="44.62384" lon="5.19493">
        <ele>1008</ele>
      </trkpt>
      <trkpt lat="44.62393" lon="5.19521">
        <ele>1011</ele>
      </trkpt>
      <trkpt lat="44.62398" lon="5.19572">
        <ele>1024</ele>
      </trkpt>
      <trkpt lat="44.62405" lon="5.19596">
        <ele>1028</ele>
      </trkpt>
      <trkpt lat="44.62421" lon="5.19628">
        <ele>1023</ele>
      </trkpt>
      <trkpt lat="44.62464" lon="5.19693">
        <ele>1015</ele>
      </trkpt>
      <trkpt lat="44.62467" lon="5.19708">
        <ele>1018</ele>
      </trkpt>
      <trkpt lat="44.62466" lon="5.19728">
        <ele>1021</ele>
      </trkpt>
      <trkpt lat="44.62463" lon="5.19751">
        <ele>1021</ele>
      </trkpt>
      <trkpt lat="44.62462" lon="5.19772">
        <ele>1023</ele>
      </trkpt>
      <trkpt lat="44.62464" lon="5.19787">
        <ele>1025</ele>
      </trkpt>
      <trkpt lat="44.62484" lon="5.19823">
        <ele>1028</ele>
      </trkpt>
      <trkpt lat="44.62505" lon="5.19873">
        <ele>1034</ele>
      </trkpt>
      <trkpt lat="44.62612" lon="5.20026">
        <ele>1040</ele>
      </trkpt>
      <trkpt lat="44.62647" lon="5.201">
        <ele>1050</ele>
      </trkpt>
      <trkpt lat="44.62663" lon="5.20123">
        <ele>1051</ele>
      </trkpt>
      <trkpt lat="44.62696" lon="5.20161">
        <ele>1048</ele>
      </trkpt>
      <trkpt lat="44.6272" lon="5.20178">
        <ele>1046</ele>
      </trkpt>
      <trkpt lat="44.62762" lon="5.20195">
        <ele>1056</ele>
      </trkpt>
      <trkpt lat="44.62771" lon="5.20202">
        <ele>1057</ele>
      </trkpt>
      <trkpt lat="44.62839" lon="5.20296">
        <ele>1054</ele>
      </trkpt>
      <trkpt lat="44.62861" lon="5.20342">
        <ele>1048</ele>
      </trkpt>
      <trkpt lat="44.62907" lon="5.20396">
        <ele>1047</ele>
      </trkpt>
      <trkpt lat="44.62915" lon="5.20411">
        <ele>1047</ele>
      </trkpt>
      <trkpt lat="44.62919" lon="5.20422">
        <ele>1045</ele>
      </trkpt>
      <trkpt lat="44.6292" lon="5.20432">
        <ele>1038</ele>
      </trkpt>
      <trkpt lat="44.62919" lon="5.20456">
        <ele>1032</ele>
      </trkpt>
      <trkpt lat="44.62922" lon="5.20476">
        <ele>1031</ele>
      </trkpt>
      <trkpt lat="44.62926" lon="5.20487">
        <ele>1027</ele>
      </trkpt>
      <trkpt lat="44.62965" lon="5.20522">
        <ele>1032</ele>
      </trkpt>
      <trkpt lat="44.62981" lon="5.2054">
        <ele>1027</ele>
      </trkpt>
      <trkpt lat="44.62993" lon="5.20557">
        <ele>1031</ele>
      </trkpt>
      <trkpt lat="44.63004" lon="5.20588">
        <ele>1027</ele>
      </trkpt>
      <trkpt lat="44.63027" lon="5.20622">
        <ele>1029</ele>
      </trkpt>
      <trkpt lat="44.6303" lon="5.20632">
        <ele>1029</ele>
      </trkpt>
      <trkpt lat="44.6303" lon="5.20639">
        <ele>1029</ele>
      </trkpt>
      <trkpt lat="44.63026" lon="5.20697">
        <ele>1022</ele>
      </trkpt>
      <trkpt lat="44.63031" lon="5.20739">
        <ele>1017</ele>
      </trkpt>
      <trkpt lat="44.63041" lon="5.20773">
        <ele>1011</ele>
      </trkpt>
      <trkpt lat="44.63057" lon="5.20805">
        <ele>1008</ele>
      </trkpt>
      <trkpt lat="44.63075" lon="5.20826">
        <ele>1004</ele>
      </trkpt>
      <trkpt lat="44.63106" lon="5.20855">
        <ele>1000</ele>
      </trkpt>
      <trkpt lat="44.63131" lon="5.20867">
        <ele>997</ele>
      </trkpt>
      <trkpt lat="44.63139" lon="5.20874">
        <ele>997</ele>
      </trkpt>
      <trkpt lat="44.63149" lon="5.20884">
        <ele>996</ele>
      </trkpt>
      <trkpt lat="44.63174" lon="5.20917">
        <ele>990</ele>
      </trkpt>
      <trkpt lat="44.6319" lon="5.20929">
        <ele>987</ele>
      </trkpt>
      <trkpt lat="44.63218" lon="5.20937">
        <ele>988</ele>
      </trkpt>
      <trkpt lat="44.63272" lon="5.20945">
        <ele>984</ele>
      </trkpt>
      <trkpt lat="44.63294" lon="5.20944">
        <ele>983</ele>
      </trkpt>
      <trkpt lat="44.63304" lon="5.20939">
        <ele>981</ele>
      </trkpt>
      <trkpt lat="44.63319" lon="5.20923">
        <ele>982</ele>
      </trkpt>
      <trkpt lat="44.6333" lon="5.20915">
        <ele>985</ele>
      </trkpt>
      <trkpt lat="44.6334" lon="5.20916">
        <ele>985</ele>
      </trkpt>
      <trkpt lat="44.63348" lon="5.2092">
        <ele>984</ele>
      </trkpt>
      <trkpt lat="44.63367" lon="5.20937">
        <ele>980</ele>
      </trkpt>
      <trkpt lat="44.63405" lon="5.20979">
        <ele>970</ele>
      </trkpt>
      <trkpt lat="44.63417" lon="5.20982">
        <ele>970</ele>
      </trkpt>
      <trkpt lat="44.63429" lon="5.20982">
        <ele>969</ele>
      </trkpt>
      <trkpt lat="44.63461" lon="5.20972">
        <ele>972</ele>
      </trkpt>
      <trkpt lat="44.63499" lon="5.20974">
        <ele>967</ele>
      </trkpt>
      <trkpt lat="44.63517" lon="5.20972">
        <ele>967</ele>
      </trkpt>
      <trkpt lat="44.63555" lon="5.20957">
        <ele>965</ele>
      </trkpt>
      <trkpt lat="44.63565" lon="5.20957">
        <ele>965</ele>
      </trkpt>
      <trkpt lat="44.63582" lon="5.20965">
        <ele>962</ele>
      </trkpt>
      <trkpt lat="44.63599" lon="5.20984">
        <ele>958</ele>
      </trkpt>
      <trkpt lat="44.6361" lon="5.20993">
        <ele>957</ele>
      </trkpt>
      <trkpt lat="44.63622" lon="5.20996">
        <ele>957</ele>
      </trkpt>
      <trkpt lat="44.63669" lon="5.2099">
        <ele>958</ele>
      </trkpt>
      <trkpt lat="44.6368" lon="5.2099">
        <ele>959</ele>
      </trkpt>
      <trkpt lat="44.63695" lon="5.20994">
        <ele>960</ele>
      </trkpt>
      <trkpt lat="44.63776" lon="5.21038">
        <ele>942</ele>
      </trkpt>
      <trkpt lat="44.63788" lon="5.2104">
        <ele>941</ele>
      </trkpt>
      <trkpt lat="44.63802" lon="5.21037">
        <ele>937</ele>
      </trkpt>
      <trkpt lat="44.63836" lon="5.21009">
        <ele>940</ele>
      </trkpt>
      <trkpt lat="44.63848" lon="5.21004">
        <ele>945</ele>
      </trkpt>
      <trkpt lat="44.63858" lon="5.21003">
        <ele>945</ele>
      </trkpt>
      <trkpt lat="44.63867" lon="5.21007">
        <ele>940</ele>
      </trkpt>
      <trkpt lat="44.63882" lon="5.21028">
        <ele>938</ele>
      </trkpt>
      <trkpt lat="44.63891" lon="5.21037">
        <ele>933</ele>
      </trkpt>
      <trkpt lat="44.63901" lon="5.21041">
        <ele>933</ele>
      </trkpt>
      <trkpt lat="44.63959" lon="5.21045">
        <ele>933</ele>
      </trkpt>
      <trkpt lat="44.63987" lon="5.2104">
        <ele>933</ele>
      </trkpt>
      <trkpt lat="44.63996" lon="5.2104">
        <ele>933</ele>
      </trkpt>
      <trkpt lat="44.64" lon="5.21042">
        <ele>933</ele>
      </trkpt>
      <trkpt lat="44.64018" lon="5.21056">
        <ele>932</ele>
      </trkpt>
      <trkpt lat="44.64034" lon="5.21065">
        <ele>926</ele>
      </trkpt>
      <trkpt lat="44.64077" lon="5.21072">
        <ele>921</ele>
      </trkpt>
      <trkpt lat="44.64094" lon="5.21072">
        <ele>919</ele>
      </trkpt>
      <trkpt lat="44.64103" lon="5.2107">
        <ele>915</ele>
      </trkpt>
      <trkpt lat="44.6413" lon="5.21051">
        <ele>915</ele>
      </trkpt>
      <trkpt lat="44.64146" lon="5.21044">
        <ele>914</ele>
      </trkpt>
      <trkpt lat="44.64163" lon="5.21043">
        <ele>916</ele>
      </trkpt>
      <trkpt lat="44.64174" lon="5.21047">
        <ele>917</ele>
      </trkpt>
      <trkpt lat="44.6418" lon="5.21051">
        <ele>917</ele>
      </trkpt>
      <trkpt lat="44.64187" lon="5.21064">
        <ele>918</ele>
      </trkpt>
      <trkpt lat="44.64192" lon="5.21082">
        <ele>918</ele>
      </trkpt>
      <trkpt lat="44.64197" lon="5.21097">
        <ele>913</ele>
      </trkpt>
      <trkpt lat="44.64209" lon="5.21117">
        <ele>909</ele>
      </trkpt>
      <trkpt lat="44.64216" lon="5.21125">
        <ele>912</ele>
      </trkpt>
      <trkpt lat="44.64229" lon="5.21133">
        <ele>913</ele>
      </trkpt>
      <trkpt lat="44.64263" lon="5.21141">
        <ele>919</ele>
      </trkpt>
      <trkpt lat="44.64272" lon="5.21149">
        <ele>920</ele>
      </trkpt>
      <trkpt lat="44.64288" lon="5.21171">
        <ele>920</ele>
      </trkpt>
      <trkpt lat="44.64294" lon="5.21189">
        <ele>916</ele>
      </trkpt>
      <trkpt lat="44.64301" lon="5.21223">
        <ele>917</ele>
      </trkpt>
      <trkpt lat="44.64313" lon="5.2127">
        <ele>907</ele>
      </trkpt>
      <trkpt lat="44.64323" lon="5.21296">
        <ele>902</ele>
      </trkpt>
      <trkpt lat="44.64338" lon="5.21328">
        <ele>905</ele>
      </trkpt>
      <trkpt lat="44.64356" lon="5.21371">
        <ele>896</ele>
      </trkpt>
      <trkpt lat="44.64383" lon="5.21459">
        <ele>892</ele>
      </trkpt>
      <trkpt lat="44.64393" lon="5.21475">
        <ele>892</ele>
      </trkpt>
      <trkpt lat="44.64413" lon="5.21494">
        <ele>897</ele>
      </trkpt>
      <trkpt lat="44.64421" lon="5.2151">
        <ele>894</ele>
      </trkpt>
      <trkpt lat="44.64425" lon="5.21533">
        <ele>893</ele>
      </trkpt>
      <trkpt lat="44.64424" lon="5.21559">
        <ele>888</ele>
      </trkpt>
      <trkpt lat="44.64426" lon="5.21572">
        <ele>884</ele>
      </trkpt>
      <trkpt lat="44.64432" lon="5.21592">
        <ele>878</ele>
      </trkpt>
      <trkpt lat="44.64458" lon="5.2164">
        <ele>877</ele>
      </trkpt>
      <trkpt lat="44.64468" lon="5.21667">
        <ele>877</ele>
      </trkpt>
      <trkpt lat="44.64472" lon="5.2171">
        <ele>871</ele>
      </trkpt>
      <trkpt lat="44.64475" lon="5.21729">
        <ele>869</ele>
      </trkpt>
      <trkpt lat="44.64493" lon="5.21805">
        <ele>861</ele>
      </trkpt>
      <trkpt lat="44.64498" lon="5.21814">
        <ele>857</ele>
      </trkpt>
      <trkpt lat="44.64505" lon="5.21821">
        <ele>856</ele>
      </trkpt>
      <trkpt lat="44.6451" lon="5.21824">
        <ele>856</ele>
      </trkpt>
      <trkpt lat="44.64522" lon="5.21826">
        <ele>852</ele>
      </trkpt>
      <trkpt lat="44.64539" lon="5.21823">
        <ele>851</ele>
      </trkpt>
      <trkpt lat="44.64553" lon="5.21815">
        <ele>846</ele>
      </trkpt>
      <trkpt lat="44.64573" lon="5.21793">
        <ele>848</ele>
      </trkpt>
      <trkpt lat="44.64607" lon="5.21738">
        <ele>843</ele>
      </trkpt>
      <trkpt lat="44.64635" lon="5.21709">
        <ele>841</ele>
      </trkpt>
      <trkpt lat="44.64664" lon="5.21669">
        <ele>841</ele>
      </trkpt>
      <trkpt lat="44.64731" lon="5.2155">
        <ele>840</ele>
      </trkpt>
      <trkpt lat="44.64747" lon="5.21533">
        <ele>838</ele>
      </trkpt>
      <trkpt lat="44.64753" lon="5.21527">
        <ele>838</ele>
      </trkpt>
      <trkpt lat="44.64882" lon="5.2143">
        <ele>826</ele>
      </trkpt>
      <trkpt lat="44.64927" lon="5.21343">
        <ele>823</ele>
      </trkpt>
      <trkpt lat="44.64944" lon="5.21297">
        <ele>817</ele>
      </trkpt>
      <trkpt lat="44.64958" lon="5.21277">
        <ele>816</ele>
      </trkpt>
      <trkpt lat="44.64973" lon="5.21246">
        <ele>812</ele>
      </trkpt>
      <trkpt lat="44.64995" lon="5.21222">
        <ele>808</ele>
      </trkpt>
      <trkpt lat="44.65003" lon="5.21209">
        <ele>808</ele>
      </trkpt>
      <trkpt lat="44.65009" lon="5.21184">
        <ele>808</ele>
      </trkpt>
      <trkpt lat="44.65009" lon="5.21132">
        <ele>806</ele>
      </trkpt>
      <trkpt lat="44.65013" lon="5.21129">
        <ele>805</ele>
      </trkpt>
      <trkpt lat="44.65019" lon="5.21129">
        <ele>800</ele>
      </trkpt>
      <trkpt lat="44.65023" lon="5.21139">
        <ele>799</ele>
      </trkpt>
      <trkpt lat="44.65055" lon="5.21317">
        <ele>793</ele>
      </trkpt>
      <trkpt lat="44.65057" lon="5.21351">
        <ele>791</ele>
      </trkpt>
      <trkpt lat="44.65059" lon="5.21359">
        <ele>791</ele>
      </trkpt>
      <trkpt lat="44.65062" lon="5.21364">
        <ele>791</ele>
      </trkpt>
      <trkpt lat="44.65065" lon="5.21365">
        <ele>791</ele>
      </trkpt>
      <trkpt lat="44.65073" lon="5.2136">
        <ele>790</ele>
      </trkpt>
      <trkpt lat="44.6508" lon="5.2135">
        <ele>785</ele>
      </trkpt>
      <trkpt lat="44.65087" lon="5.21336">
        <ele>785</ele>
      </trkpt>
      <trkpt lat="44.65094" lon="5.21301">
        <ele>784</ele>
      </trkpt>
      <trkpt lat="44.65097" lon="5.21283">
        <ele>784</ele>
      </trkpt>
      <trkpt lat="44.65101" lon="5.21271">
        <ele>784</ele>
      </trkpt>
      <trkpt lat="44.65125" lon="5.21253">
        <ele>778</ele>
      </trkpt>
      <trkpt lat="44.65135" lon="5.21235">
        <ele>773</ele>
      </trkpt>
      <trkpt lat="44.65138" lon="5.21215">
        <ele>775</ele>
      </trkpt>
      <trkpt lat="44.65148" lon="5.21174">
        <ele>775</ele>
      </trkpt>
      <trkpt lat="44.65154" lon="5.21162">
        <ele>775</ele>
      </trkpt>
      <trkpt lat="44.65159" lon="5.21152">
        <ele>771</ele>
      </trkpt>
      <trkpt lat="44.65208" lon="5.21096">
        <ele>759</ele>
      </trkpt>
      <trkpt lat="44.6521" lon="5.21088">
        <ele>758</ele>
      </trkpt>
      <trkpt lat="44.65208" lon="5.21077">
        <ele>757</ele>
      </trkpt>
      <trkpt lat="44.65201" lon="5.21065">
        <ele>758</ele>
      </trkpt>
      <trkpt lat="44.65168" lon="5.21045">
        <ele>759</ele>
      </trkpt>
      <trkpt lat="44.65161" lon="5.2103">
        <ele>757</ele>
      </trkpt>
      <trkpt lat="44.65158" lon="5.2101">
        <ele>756</ele>
      </trkpt>
      <trkpt lat="44.6516" lon="5.21001">
        <ele>756</ele>
      </trkpt>
      <trkpt lat="44.65194" lon="5.20948">
        <ele>758</ele>
      </trkpt>
      <trkpt lat="44.65251" lon="5.20929">
        <ele>749</ele>
      </trkpt>
      <trkpt lat="44.6526" lon="5.20923">
        <ele>749</ele>
      </trkpt>
      <trkpt lat="44.65272" lon="5.20908">
        <ele>750</ele>
      </trkpt>
      <trkpt lat="44.65297" lon="5.20902">
        <ele>746</ele>
      </trkpt>
      <trkpt lat="44.65329" lon="5.209">
        <ele>738</ele>
      </trkpt>
      <trkpt lat="44.65338" lon="5.20896">
        <ele>738</ele>
      </trkpt>
      <trkpt lat="44.65352" lon="5.20878">
        <ele>736</ele>
      </trkpt>
      <trkpt lat="44.65365" lon="5.20855">
        <ele>738</ele>
      </trkpt>
      <trkpt lat="44.6537" lon="5.20839">
        <ele>739</ele>
      </trkpt>
      <trkpt lat="44.65375" lon="5.20805">
        <ele>742</ele>
      </trkpt>
      <trkpt lat="44.65413" lon="5.20699">
        <ele>735</ele>
      </trkpt>
      <trkpt lat="44.65433" lon="5.20667">
        <ele>737</ele>
      </trkpt>
      <trkpt lat="44.65467" lon="5.20639">
        <ele>724</ele>
      </trkpt>
      <trkpt lat="44.65513" lon="5.20523">
        <ele>724</ele>
      </trkpt>
      <trkpt lat="44.6559" lon="5.20449">
        <ele>718</ele>
      </trkpt>
      <trkpt lat="44.65649" lon="5.20412">
        <ele>715</ele>
      </trkpt>
      <trkpt lat="44.6569" lon="5.20383">
        <ele>712</ele>
      </trkpt>
      <trkpt lat="44.65743" lon="5.20355">
        <ele>705</ele>
      </trkpt>
      <trkpt lat="44.65748" lon="5.20348">
        <ele>704</ele>
      </trkpt>
      <trkpt lat="44.65753" lon="5.20335">
        <ele>706</ele>
      </trkpt>
      <trkpt lat="44.6576" lon="5.203">
        <ele>708</ele>
      </trkpt>
      <trkpt lat="44.65766" lon="5.20286">
        <ele>708</ele>
      </trkpt>
      <trkpt lat="44.6578" lon="5.20265">
        <ele>705</ele>
      </trkpt>
      <trkpt lat="44.65794" lon="5.20259">
        <ele>705</ele>
      </trkpt>
      <trkpt lat="44.65817" lon="5.20253">
        <ele>704</ele>
      </trkpt>
      <trkpt lat="44.65905" lon="5.20194">
        <ele>698</ele>
      </trkpt>
      <trkpt lat="44.65965" lon="5.2012">
        <ele>690</ele>
      </trkpt>
      <trkpt lat="44.65995" lon="5.2008">
        <ele>691</ele>
      </trkpt>
      <trkpt lat="44.66038" lon="5.20036">
        <ele>685</ele>
      </trkpt>
      <trkpt lat="44.66044" lon="5.20026">
        <ele>688</ele>
      </trkpt>
      <trkpt lat="44.66057" lon="5.19981">
        <ele>684</ele>
      </trkpt>
      <trkpt lat="44.66069" lon="5.19951">
        <ele>685</ele>
      </trkpt>
      <trkpt lat="44.66073" lon="5.19935">
        <ele>684</ele>
      </trkpt>
      <trkpt lat="44.66074" lon="5.19923">
        <ele>676</ele>
      </trkpt>
      <trkpt lat="44.66064" lon="5.1985">
        <ele>677</ele>
      </trkpt>
      <trkpt lat="44.66057" lon="5.19812">
        <ele>672</ele>
      </trkpt>
      <trkpt lat="44.66039" lon="5.19737">
        <ele>675</ele>
      </trkpt>
      <trkpt lat="44.6601" lon="5.19659">
        <ele>673</ele>
      </trkpt>
      <trkpt lat="44.66002" lon="5.19621">
        <ele>668</ele>
      </trkpt>
      <trkpt lat="44.6599" lon="5.19583">
        <ele>668</ele>
      </trkpt>
      <trkpt lat="44.65977" lon="5.19547">
        <ele>662</ele>
      </trkpt>
      <trkpt lat="44.65964" lon="5.19504">
        <ele>661</ele>
      </trkpt>
      <trkpt lat="44.65947" lon="5.19479">
        <ele>669</ele>
      </trkpt>
      <trkpt lat="44.65944" lon="5.19465">
        <ele>666</ele>
      </trkpt>
      <trkpt lat="44.65943" lon="5.19451">
        <ele>665</ele>
      </trkpt>
      <trkpt lat="44.65947" lon="5.19438">
        <ele>662</ele>
      </trkpt>
      <trkpt lat="44.65961" lon="5.19415">
        <ele>660</ele>
      </trkpt>
      <trkpt lat="44.65964" lon="5.19404">
        <ele>654</ele>
      </trkpt>
      <trkpt lat="44.65968" lon="5.19361">
        <ele>655</ele>
      </trkpt>
      <trkpt lat="44.65976" lon="5.1934">
        <ele>655</ele>
      </trkpt>
      <trkpt lat="44.65992" lon="5.19318">
        <ele>651</ele>
      </trkpt>
      <trkpt lat="44.66008" lon="5.19306">
        <ele>654</ele>
      </trkpt>
      <trkpt lat="44.66049" lon="5.19253">
        <ele>651</ele>
      </trkpt>
      <trkpt lat="44.66074" lon="5.19237">
        <ele>645</ele>
      </trkpt>
      <trkpt lat="44.66104" lon="5.19228">
        <ele>638</ele>
      </trkpt>
      <trkpt lat="44.66124" lon="5.19212">
        <ele>641</ele>
      </trkpt>
      <trkpt lat="44.66148" lon="5.19185">
        <ele>641</ele>
      </trkpt>
      <trkpt lat="44.66189" lon="5.19132">
        <ele>643</ele>
      </trkpt>
      <trkpt lat="44.66219" lon="5.19114">
        <ele>643</ele>
      </trkpt>
      <trkpt lat="44.66267" lon="5.19094">
        <ele>639</ele>
      </trkpt>
      <trkpt lat="44.66281" lon="5.19085">
        <ele>641</ele>
      </trkpt>
      <trkpt lat="44.66296" lon="5.19072">
        <ele>641</ele>
      </trkpt>
      <trkpt lat="44.66305" lon="5.19039">
        <ele>641</ele>
      </trkpt>
      <trkpt lat="44.66313" lon="5.18945">
        <ele>634</ele>
      </trkpt>
      <trkpt lat="44.66311" lon="5.18917">
        <ele>633</ele>
      </trkpt>
      <trkpt lat="44.66312" lon="5.18894">
        <ele>633</ele>
      </trkpt>
      <trkpt lat="44.66315" lon="5.18887">
        <ele>632</ele>
      </trkpt>
      <trkpt lat="44.66318" lon="5.18878">
        <ele>632</ele>
      </trkpt>
      <trkpt lat="44.6634" lon="5.18846">
        <ele>624</ele>
      </trkpt>
      <trkpt lat="44.66348" lon="5.18832">
        <ele>624</ele>
      </trkpt>
      <trkpt lat="44.66353" lon="5.18817">
        <ele>619</ele>
      </trkpt>
      <trkpt lat="44.66361" lon="5.18772">
        <ele>621</ele>
      </trkpt>
      <trkpt lat="44.66374" lon="5.18747">
        <ele>627</ele>
      </trkpt>
      <trkpt lat="44.66382" lon="5.18738">
        <ele>630</ele>
      </trkpt>
      <trkpt lat="44.66388" lon="5.18735">
        <ele>631</ele>
      </trkpt>
      <trkpt lat="44.66398" lon="5.18737">
        <ele>631</ele>
      </trkpt>
      <trkpt lat="44.66403" lon="5.18744">
        <ele>632</ele>
      </trkpt>
      <trkpt lat="44.66418" lon="5.18792">
        <ele>622</ele>
      </trkpt>
      <trkpt lat="44.6643" lon="5.18815">
        <ele>615</ele>
      </trkpt>
      <trkpt lat="44.66471" lon="5.1886">
        <ele>607</ele>
      </trkpt>
      <trkpt lat="44.66516" lon="5.18893">
        <ele>599</ele>
      </trkpt>
      <trkpt lat="44.66541" lon="5.18906">
        <ele>591</ele>
      </trkpt>
      <trkpt lat="44.66562" lon="5.18907">
        <ele>589</ele>
      </trkpt>
      <trkpt lat="44.6658" lon="5.18896">
        <ele>585</ele>
      </trkpt>
      <trkpt lat="44.66599" lon="5.18881">
        <ele>589</ele>
      </trkpt>
      <trkpt lat="44.66645" lon="5.18856">
        <ele>581</ele>
      </trkpt>
      <trkpt lat="44.66663" lon="5.18834">
        <ele>578</ele>
      </trkpt>
      <trkpt lat="44.66679" lon="5.18806">
        <ele>580</ele>
      </trkpt>
      <trkpt lat="44.66693" lon="5.18787">
        <ele>575</ele>
      </trkpt>
      <trkpt lat="44.66711" lon="5.18772">
        <ele>579</ele>
      </trkpt>
      <trkpt lat="44.66781" lon="5.18741">
        <ele>567</ele>
      </trkpt>
      <trkpt lat="44.66823" lon="5.18737">
        <ele>561</ele>
      </trkpt>
      <trkpt lat="44.66862" lon="5.18726">
        <ele>557</ele>
      </trkpt>
      <trkpt lat="44.66888" lon="5.18717">
        <ele>553</ele>
      </trkpt>
      <trkpt lat="44.66968" lon="5.18666">
        <ele>546</ele>
      </trkpt>
      <trkpt lat="44.66996" lon="5.18642">
        <ele>544</ele>
      </trkpt>
      <trkpt lat="44.67026" lon="5.18612">
        <ele>541</ele>
      </trkpt>
      <trkpt lat="44.67079" lon="5.18573">
        <ele>533</ele>
      </trkpt>
      <trkpt lat="44.67108" lon="5.18559">
        <ele>533</ele>
      </trkpt>
      <trkpt lat="44.67121" lon="5.18541">
        <ele>533</ele>
      </trkpt>
      <trkpt lat="44.67127" lon="5.18507">
        <ele>531</ele>
      </trkpt>
      <trkpt lat="44.67134" lon="5.18492">
        <ele>528</ele>
      </trkpt>
      <trkpt lat="44.67159" lon="5.18477">
        <ele>523</ele>
      </trkpt>
      <trkpt lat="44.6719" lon="5.1848">
        <ele>518</ele>
      </trkpt>
      <trkpt lat="44.672" lon="5.18485">
        <ele>516</ele>
      </trkpt>
      <trkpt lat="44.67208" lon="5.18496">
        <ele>516</ele>
      </trkpt>
      <trkpt lat="44.67222" lon="5.18562">
        <ele>514</ele>
      </trkpt>
      <trkpt lat="44.67231" lon="5.18592">
        <ele>513</ele>
      </trkpt>
      <trkpt lat="44.67274" lon="5.1863">
        <ele>514</ele>
      </trkpt>
      <trkpt lat="44.6728" lon="5.18649">
        <ele>514</ele>
      </trkpt>
      <trkpt lat="44.67282" lon="5.18672">
        <ele>512</ele>
      </trkpt>
      <trkpt lat="44.67288" lon="5.18704">
        <ele>507</ele>
      </trkpt>
      <trkpt lat="44.6731" lon="5.18726">
        <ele>506</ele>
      </trkpt>
      <trkpt lat="44.67332" lon="5.18736">
        <ele>499</ele>
      </trkpt>
      <trkpt lat="44.67406" lon="5.18754">
        <ele>496</ele>
      </trkpt>
      <trkpt lat="44.67456" lon="5.18773">
        <ele>486</ele>
      </trkpt>
      <trkpt lat="44.67479" lon="5.18773">
        <ele>483</ele>
      </trkpt>
      <trkpt lat="44.67505" lon="5.18758">
        <ele>479</ele>
      </trkpt>
      <trkpt lat="44.6753" lon="5.18754">
        <ele>482</ele>
      </trkpt>
      <trkpt lat="44.67554" lon="5.18756">
        <ele>470</ele>
      </trkpt>
      <trkpt lat="44.6758" lon="5.18754">
        <ele>479</ele>
      </trkpt>
      <trkpt lat="44.67614" lon="5.18754">
        <ele>477</ele>
      </trkpt>
      <trkpt lat="44.67708" lon="5.1875">
        <ele>474</ele>
      </trkpt>
      <trkpt lat="44.67734" lon="5.18755">
        <ele>473</ele>
      </trkpt>
      <trkpt lat="44.67759" lon="5.18777">
        <ele>465</ele>
      </trkpt>
      <trkpt lat="44.67784" lon="5.18786">
        <ele>461</ele>
      </trkpt>
      <trkpt lat="44.67802" lon="5.18785">
        <ele>461</ele>
      </trkpt>
      <trkpt lat="44.67845" lon="5.18766">
        <ele>467</ele>
      </trkpt>
      <trkpt lat="44.67859" lon="5.18768">
        <ele>468</ele>
      </trkpt>
      <trkpt lat="44.67893" lon="5.18819">
        <ele>460</ele>
      </trkpt>
      <trkpt lat="44.6793" lon="5.18863">
        <ele>456</ele>
      </trkpt>
      <trkpt lat="44.67975" lon="5.18924">
        <ele>443</ele>
      </trkpt>
      <trkpt lat="44.67983" lon="5.18932">
        <ele>442</ele>
      </trkpt>
      <trkpt lat="44.68001" lon="5.18939">
        <ele>443</ele>
      </trkpt>
      <trkpt lat="44.68019" lon="5.18934">
        <ele>446</ele>
      </trkpt>
      <trkpt lat="44.6803" lon="5.18929">
        <ele>447</ele>
      </trkpt>
      <trkpt lat="44.68036" lon="5.18929">
        <ele>447</ele>
      </trkpt>
      <trkpt lat="44.68049" lon="5.18935">
        <ele>449</ele>
      </trkpt>
      <trkpt lat="44.68054" lon="5.1894">
        <ele>449</ele>
      </trkpt>
      <trkpt lat="44.6806" lon="5.18949">
        <ele>449</ele>
      </trkpt>
      <trkpt lat="44.68065" lon="5.1897">
        <ele>449</ele>
      </trkpt>
      <trkpt lat="44.68066" lon="5.18982">
        <ele>447</ele>
      </trkpt>
      <trkpt lat="44.68065" lon="5.18994">
        <ele>447</ele>
      </trkpt>
      <trkpt lat="44.68059" lon="5.19021">
        <ele>444</ele>
      </trkpt>
      <trkpt lat="44.68056" lon="5.19049">
        <ele>438</ele>
      </trkpt>
      <trkpt lat="44.68058" lon="5.19061">
        <ele>434</ele>
      </trkpt>
      <trkpt lat="44.68067" lon="5.19081">
        <ele>432</ele>
      </trkpt>
      <trkpt lat="44.68093" lon="5.19102">
        <ele>430</ele>
      </trkpt>
      <trkpt lat="44.6811" lon="5.19113">
        <ele>432</ele>
      </trkpt>
      <trkpt lat="44.68151" lon="5.19131">
        <ele>426</ele>
      </trkpt>
      <trkpt lat="44.68204" lon="5.1916">
        <ele>425</ele>
      </trkpt>
      <trkpt lat="44.68212" lon="5.19166">
        <ele>424</ele>
      </trkpt>
      <trkpt lat="44.68225" lon="5.19184">
        <ele>422</ele>
      </trkpt>
      <trkpt lat="44.6823" lon="5.19197">
        <ele>420</ele>
      </trkpt>
      <trkpt lat="44.68245" lon="5.19249">
        <ele>411</ele>
      </trkpt>
      <trkpt lat="44.68252" lon="5.19267">
        <ele>407</ele>
      </trkpt>
      <trkpt lat="44.6826" lon="5.19275">
        <ele>406</ele>
      </trkpt>
      <trkpt lat="44.68267" lon="5.19275">
        <ele>406</ele>
      </trkpt>
      <trkpt lat="44.68285" lon="5.19262">
        <ele>405</ele>
      </trkpt>
      <trkpt lat="44.68296" lon="5.19243">
        <ele>408</ele>
      </trkpt>
      <trkpt lat="44.68308" lon="5.19208">
        <ele>410</ele>
      </trkpt>
      <trkpt lat="44.68314" lon="5.19198">
        <ele>411</ele>
      </trkpt>
      <trkpt lat="44.68321" lon="5.19194">
        <ele>411</ele>
      </trkpt>
      <trkpt lat="44.68325" lon="5.19194">
        <ele>411</ele>
      </trkpt>
      <trkpt lat="44.68335" lon="5.19198">
        <ele>411</ele>
      </trkpt>
      <trkpt lat="44.6834" lon="5.19212">
        <ele>410</ele>
      </trkpt>
      <trkpt lat="44.68342" lon="5.19229">
        <ele>410</ele>
      </trkpt>
      <trkpt lat="44.68341" lon="5.1924">
        <ele>410</ele>
      </trkpt>
      <trkpt lat="44.68335" lon="5.19284">
        <ele>407</ele>
      </trkpt>
      <trkpt lat="44.68328" lon="5.19313">
        <ele>401</ele>
      </trkpt>
      <trkpt lat="44.68327" lon="5.19332">
        <ele>400</ele>
      </trkpt>
      <trkpt lat="44.68329" lon="5.19344">
        <ele>394</ele>
      </trkpt>
      <trkpt lat="44.68333" lon="5.19349">
        <ele>394</ele>
      </trkpt>
      <trkpt lat="44.68343" lon="5.1936">
        <ele>393</ele>
      </trkpt>
      <trkpt lat="44.68351" lon="5.19366">
        <ele>392</ele>
      </trkpt>
      <trkpt lat="44.68364" lon="5.19371">
        <ele>386</ele>
      </trkpt>
      <trkpt lat="44.68378" lon="5.19371">
        <ele>385</ele>
      </trkpt>
      <trkpt lat="44.68452" lon="5.19346">
        <ele>385</ele>
      </trkpt>
      <trkpt lat="44.6855" lon="5.19322">
        <ele>377</ele>
      </trkpt>
      <trkpt lat="44.68572" lon="5.19321">
        <ele>376</ele>
      </trkpt>
      <trkpt lat="44.68598" lon="5.19328">
        <ele>373</ele>
      </trkpt>
      <trkpt lat="44.68661" lon="5.19352">
        <ele>366</ele>
      </trkpt>
      <trkpt lat="44.68683" lon="5.19356">
        <ele>365</ele>
      </trkpt>
      <trkpt lat="44.6875" lon="5.19363">
        <ele>360</ele>
      </trkpt>
      <trkpt lat="44.68774" lon="5.1937">
        <ele>357</ele>
      </trkpt>
      <trkpt lat="44.68835" lon="5.19397">
        <ele>352</ele>
      </trkpt>
      <trkpt lat="44.68892" lon="5.19407">
        <ele>349</ele>
      </trkpt>
      <trkpt lat="44.68906" lon="5.19416">
        <ele>349</ele>
      </trkpt>
      <trkpt lat="44.68986" lon="5.19501">
        <ele>333</ele>
      </trkpt>
      <trkpt lat="44.68995" lon="5.19505">
        <ele>329</ele>
      </trkpt>
      <trkpt lat="44.69001" lon="5.19505">
        <ele>328</ele>
      </trkpt>
      <trkpt lat="44.69012" lon="5.19502">
        <ele>328</ele>
      </trkpt>
      <trkpt lat="44.69021" lon="5.19493">
        <ele>323</ele>
      </trkpt>
      <trkpt lat="44.69032" lon="5.19475">
        <ele>325</ele>
      </trkpt>
      <trkpt lat="44.69054" lon="5.1943">
        <ele>324</ele>
      </trkpt>
      <trkpt lat="44.69065" lon="5.19403">
        <ele>327</ele>
      </trkpt>
      <trkpt lat="44.69068" lon="5.19399">
        <ele>327</ele>
      </trkpt>
      <trkpt lat="44.69072" lon="5.19398">
        <ele>326</ele>
      </trkpt>
      <trkpt lat="44.69078" lon="5.19403">
        <ele>320</ele>
      </trkpt>
      <trkpt lat="44.69079" lon="5.19412">
        <ele>319</ele>
      </trkpt>
      <trkpt lat="44.69068" lon="5.19442">
        <ele>322</ele>
      </trkpt>
      <trkpt lat="44.69054" lon="5.19528">
        <ele>316</ele>
      </trkpt>
      <trkpt lat="44.69054" lon="5.19553">
        <ele>317</ele>
      </trkpt>
      <trkpt lat="44.69057" lon="5.19566">
        <ele>319</ele>
      </trkpt>
      <trkpt lat="44.69065" lon="5.19579">
        <ele>320</ele>
      </trkpt>
      <trkpt lat="44.69138" lon="5.19627">
        <ele>306</ele>
      </trkpt>
      <trkpt lat="44.69161" lon="5.19652">
        <ele>302</ele>
      </trkpt>
      <trkpt lat="44.69166" lon="5.19678">
        <ele>302</ele>
      </trkpt>
      <trkpt lat="44.69161" lon="5.19835">
        <ele>294</ele>
      </trkpt>
      <trkpt lat="44.69279" lon="5.19847">
        <ele>290</ele>
      </trkpt>
      <trkpt lat="44.69348" lon="5.19851">
        <ele>289</ele>
      </trkpt>
      <trkpt lat="44.69407" lon="5.1987">
        <ele>286</ele>
      </trkpt>
      <trkpt lat="44.69438" lon="5.19888">
        <ele>279</ele>
      </trkpt>
      <trkpt lat="44.69462" lon="5.19909">
        <ele>276</ele>
      </trkpt>
      <trkpt lat="44.69469" lon="5.19921">
        <ele>272</ele>
      </trkpt>
      <trkpt lat="44.69471" lon="5.19938">
        <ele>272</ele>
      </trkpt>
      <trkpt lat="44.69471" lon="5.19954">
        <ele>272</ele>
      </trkpt>
      <trkpt lat="44.69473" lon="5.19968">
        <ele>273</ele>
      </trkpt>
      <trkpt lat="44.69478" lon="5.19981">
        <ele>274</ele>
      </trkpt>
      <trkpt lat="44.69501" lon="5.20019">
        <ele>272</ele>
      </trkpt>
      <trkpt lat="44.69506" lon="5.20037">
        <ele>273</ele>
      </trkpt>
      <trkpt lat="44.69507" lon="5.20052">
        <ele>274</ele>
      </trkpt>
      <trkpt lat="44.69506" lon="5.20064">
        <ele>274</ele>
      </trkpt>
      <trkpt lat="44.69501" lon="5.20077">
        <ele>275</ele>
      </trkpt>
      <trkpt lat="44.69495" lon="5.20089">
        <ele>275</ele>
      </trkpt>
      <trkpt lat="44.69489" lon="5.20093">
        <ele>275</ele>
      </trkpt>
      <trkpt lat="44.69485" lon="5.20097">
        <ele>275</ele>
      </trkpt>
      <trkpt lat="44.69475" lon="5.20096">
        <ele>275</ele>
      </trkpt>
      <trkpt lat="44.69467" lon="5.20091">
        <ele>275</ele>
      </trkpt>
      <trkpt lat="44.69497" lon="5.19991">
        <ele>269</ele>
      </trkpt>
      <trkpt lat="44.69503" lon="5.19946">
        <ele>265</ele>
      </trkpt>
      <trkpt lat="44.69506" lon="5.19895">
        <ele>265</ele>
      </trkpt>
      <trkpt lat="44.69501" lon="5.19794">
        <ele>266</ele>
      </trkpt>
      <trkpt lat="44.6951" lon="5.19731">
        <ele>262</ele>
      </trkpt>
      <trkpt lat="44.69521" lon="5.19714">
        <ele>259</ele>
      </trkpt>
      <trkpt lat="44.69524" lon="5.19716">
        <ele>259</ele>
      </trkpt>
      <trkpt lat="44.69566" lon="5.1972">
        <ele>260</ele>
      </trkpt>
      <trkpt lat="44.69597" lon="5.19722">
        <ele>265</ele>
      </trkpt>
      <trkpt lat="44.6966" lon="5.19705">
        <ele>270</ele>
      </trkpt>
      <trkpt lat="44.69766" lon="5.19705">
        <ele>271</ele>
      </trkpt>
      <trkpt lat="44.69764" lon="5.19694">
        <ele>269</ele>
      </trkpt>
      <trkpt lat="44.69763" lon="5.19683">
        <ele>268</ele>
      </trkpt>
      <trkpt lat="44.69741" lon="5.19628">
        <ele>262</ele>
      </trkpt>
      <trkpt lat="44.69742" lon="5.19609">
        <ele>262</ele>
      </trkpt>
      <trkpt lat="44.69731" lon="5.19607">
        <ele>261</ele>
      </trkpt>
      <trkpt lat="44.69752" lon="5.19516">
        <ele>262</ele>
      </trkpt>
      <trkpt lat="44.69717" lon="5.19494">
        <ele>262</ele>
      </trkpt>
      <trkpt lat="44.69708" lon="5.19492">
        <ele>262</ele>
      </trkpt>
      <trkpt lat="44.69678" lon="5.195">
        <ele>262</ele>
      </trkpt>
      <trkpt lat="44.69669" lon="5.19499">
        <ele>262</ele>
      </trkpt>
      <trkpt lat="44.69675" lon="5.19439">
        <ele>264</ele>
      </trkpt>
      <trkpt lat="44.69677" lon="5.19405">
        <ele>265</ele>
      </trkpt>
      <trkpt lat="44.69592" lon="5.18511">
        <ele>264</ele>
      </trkpt>
      <trkpt lat="44.69578" lon="5.18354">
        <ele>261</ele>
      </trkpt>
      <trkpt lat="44.69511" lon="5.17609">
        <ele>256</ele>
      </trkpt>
      <trkpt lat="44.69494" lon="5.17519">
        <ele>259</ele>
      </trkpt>
      <trkpt lat="44.69411" lon="5.17141">
        <ele>268</ele>
      </trkpt>
      <trkpt lat="44.69405" lon="5.17091">
        <ele>266</ele>
      </trkpt>
      <trkpt lat="44.69404" lon="5.17066">
        <ele>267</ele>
      </trkpt>
      <trkpt lat="44.694" lon="5.17041">
        <ele>265</ele>
      </trkpt>
      <trkpt lat="44.694" lon="5.17027">
        <ele>264</ele>
      </trkpt>
      <trkpt lat="44.69397" lon="5.17018">
        <ele>263</ele>
      </trkpt>
      <trkpt lat="44.69393" lon="5.17013">
        <ele>263</ele>
      </trkpt>
      <trkpt lat="44.69383" lon="5.17007">
        <ele>261</ele>
      </trkpt>
      <trkpt lat="44.69372" lon="5.17009">
        <ele>254</ele>
      </trkpt>
      <trkpt lat="44.69364" lon="5.17019">
        <ele>253</ele>
      </trkpt>
      <trkpt lat="44.69361" lon="5.17027">
        <ele>254</ele>
      </trkpt>
      <trkpt lat="44.69361" lon="5.17037">
        <ele>254</ele>
      </trkpt>
      <trkpt lat="44.69362" lon="5.17047">
        <ele>254</ele>
      </trkpt>
      <trkpt lat="44.69359" lon="5.17078">
        <ele>255</ele>
      </trkpt>
      <trkpt lat="44.69352" lon="5.17113">
        <ele>252</ele>
      </trkpt>
      <trkpt lat="44.69332" lon="5.17178">
        <ele>252</ele>
      </trkpt>
      <trkpt lat="44.69311" lon="5.17267">
        <ele>250</ele>
      </trkpt>
      <trkpt lat="44.69286" lon="5.17396">
        <ele>248</ele>
      </trkpt>
      <trkpt lat="44.69267" lon="5.17593">
        <ele>250</ele>
      </trkpt>
      <trkpt lat="44.69246" lon="5.17588">
        <ele>250</ele>
      </trkpt>
      <trkpt lat="44.69237" lon="5.17576">
        <ele>250</ele>
      </trkpt>
      <trkpt lat="44.69239" lon="5.17559">
        <ele>251</ele>
      </trkpt>
      <trkpt lat="44.69245" lon="5.17539">
        <ele>250</ele>
      </trkpt>
      <trkpt lat="44.69248" lon="5.17521">
        <ele>250</ele>
      </trkpt>
      <trkpt lat="44.69236" lon="5.17427">
        <ele>251</ele>
      </trkpt>
      <trkpt lat="44.69227" lon="5.17372">
        <ele>251</ele>
      </trkpt>
      <trkpt lat="44.69219" lon="5.17347">
        <ele>251</ele>
      </trkpt>
      <trkpt lat="44.69213" lon="5.17315">
        <ele>253</ele>
      </trkpt>
      <trkpt lat="44.6922" lon="5.17266">
        <ele>251</ele>
      </trkpt>
      <trkpt lat="44.69211" lon="5.1713">
        <ele>251</ele>
      </trkpt>
      <trkpt lat="44.69211" lon="5.1708">
        <ele>253</ele>
      </trkpt>
      <trkpt lat="44.69229" lon="5.16983">
        <ele>250</ele>
      </trkpt>
      <trkpt lat="44.69243" lon="5.16885">
        <ele>252</ele>
      </trkpt>
      <trkpt lat="44.69251" lon="5.16856">
        <ele>253</ele>
      </trkpt>
      <trkpt lat="44.69264" lon="5.16828">
        <ele>254</ele>
      </trkpt>
      <trkpt lat="44.69311" lon="5.16773">
        <ele>247</ele>
      </trkpt>
      <trkpt lat="44.69333" lon="5.16738">
        <ele>246</ele>
      </trkpt>
      <trkpt lat="44.69367" lon="5.16635">
        <ele>249</ele>
      </trkpt>
      <trkpt lat="44.69387" lon="5.16503">
        <ele>247</ele>
      </trkpt>
      <trkpt lat="44.69392" lon="5.16432">
        <ele>247</ele>
      </trkpt>
      <trkpt lat="44.69389" lon="5.16355">
        <ele>245</ele>
      </trkpt>
      <trkpt lat="44.69389" lon="5.16308">
        <ele>244</ele>
      </trkpt>
      <trkpt lat="44.69393" lon="5.16268">
        <ele>243</ele>
      </trkpt>
      <trkpt lat="44.69404" lon="5.16211">
        <ele>246</ele>
      </trkpt>
      <trkpt lat="44.69411" lon="5.16154">
        <ele>246</ele>
      </trkpt>
      <trkpt lat="44.69419" lon="5.16071">
        <ele>245</ele>
      </trkpt>
      <trkpt lat="44.69442" lon="5.15967">
        <ele>245</ele>
      </trkpt>
      <trkpt lat="44.69446" lon="5.15894">
        <ele>246</ele>
      </trkpt>
      <trkpt lat="44.69451" lon="5.15869">
        <ele>246</ele>
      </trkpt>
      <trkpt lat="44.69455" lon="5.15858">
        <ele>247</ele>
      </trkpt>
      <trkpt lat="44.69462" lon="5.15832">
        <ele>248</ele>
      </trkpt>
      <trkpt lat="44.69468" lon="5.158">
        <ele>248</ele>
      </trkpt>
      <trkpt lat="44.69468" lon="5.15785">
        <ele>248</ele>
      </trkpt>
      <trkpt lat="44.69466" lon="5.15774">
        <ele>248</ele>
      </trkpt>
      <trkpt lat="44.69461" lon="5.15765">
        <ele>249</ele>
      </trkpt>
      <trkpt lat="44.69446" lon="5.15749">
        <ele>248</ele>
      </trkpt>
      <trkpt lat="44.69416" lon="5.15707">
        <ele>250</ele>
      </trkpt>
      <trkpt lat="44.69378" lon="5.1563">
        <ele>255</ele>
      </trkpt>
      <trkpt lat="44.69359" lon="5.15598">
        <ele>257</ele>
      </trkpt>
      <trkpt lat="44.69337" lon="5.15554">
        <ele>258</ele>
      </trkpt>
      <trkpt lat="44.69326" lon="5.15527">
        <ele>257</ele>
      </trkpt>
      <trkpt lat="44.69308" lon="5.15476">
        <ele>254</ele>
      </trkpt>
      <trkpt lat="44.69302" lon="5.15452">
        <ele>254</ele>
      </trkpt>
      <trkpt lat="44.69297" lon="5.15429">
        <ele>253</ele>
      </trkpt>
      <trkpt lat="44.69293" lon="5.15393">
        <ele>252</ele>
      </trkpt>
      <trkpt lat="44.69291" lon="5.15335">
        <ele>252</ele>
      </trkpt>
      <trkpt lat="44.69286" lon="5.15274">
        <ele>250</ele>
      </trkpt>
      <trkpt lat="44.69246" lon="5.15164">
        <ele>248</ele>
      </trkpt>
      <trkpt lat="44.69224" lon="5.15088">
        <ele>250</ele>
      </trkpt>
      <trkpt lat="44.69236" lon="5.14886">
        <ele>252</ele>
      </trkpt>
      <trkpt lat="44.69238" lon="5.14807">
        <ele>252</ele>
      </trkpt>
      <trkpt lat="44.69262" lon="5.14649">
        <ele>249</ele>
      </trkpt>
      <trkpt lat="44.6926" lon="5.14575">
        <ele>251</ele>
      </trkpt>
      <trkpt lat="44.69261" lon="5.14496">
        <ele>250</ele>
      </trkpt>
      <trkpt lat="44.69273" lon="5.14309">
        <ele>251</ele>
      </trkpt>
      <trkpt lat="44.69269" lon="5.14066">
        <ele>253</ele>
      </trkpt>
      <trkpt lat="44.69271" lon="5.14019">
        <ele>249</ele>
      </trkpt>
      <trkpt lat="44.69276" lon="5.13993">
        <ele>249</ele>
      </trkpt>
      <trkpt lat="44.69299" lon="5.13929">
        <ele>246</ele>
      </trkpt>
      <trkpt lat="44.69335" lon="5.13855">
        <ele>242</ele>
      </trkpt>
      <trkpt lat="44.69372" lon="5.13831">
        <ele>239</ele>
      </trkpt>
      <trkpt lat="44.69376" lon="5.13821">
        <ele>239</ele>
      </trkpt>
      <trkpt lat="44.6937" lon="5.13774">
        <ele>238</ele>
      </trkpt>
      <trkpt lat="44.69369" lon="5.13752">
        <ele>238</ele>
      </trkpt>
      <trkpt lat="44.69401" lon="5.13533">
        <ele>236</ele>
      </trkpt>
      <trkpt lat="44.69436" lon="5.13273">
        <ele>234</ele>
      </trkpt>
      <trkpt lat="44.69489" lon="5.1304">
        <ele>233</ele>
      </trkpt>
      <trkpt lat="44.69503" lon="5.12984">
        <ele>234</ele>
      </trkpt>
      <trkpt lat="44.69517" lon="5.12823">
        <ele>233</ele>
      </trkpt>
      <trkpt lat="44.69523" lon="5.12693">
        <ele>232</ele>
      </trkpt>
      <trkpt lat="44.69511" lon="5.12547">
        <ele>232</ele>
      </trkpt>
      <trkpt lat="44.6951" lon="5.125">
        <ele>232</ele>
      </trkpt>
      <trkpt lat="44.69513" lon="5.12307">
        <ele>234</ele>
      </trkpt>
      <trkpt lat="44.69518" lon="5.12213">
        <ele>234</ele>
      </trkpt>
      <trkpt lat="44.69522" lon="5.12181">
        <ele>232</ele>
      </trkpt>
      <trkpt lat="44.69538" lon="5.12126">
        <ele>232</ele>
      </trkpt>
      <trkpt lat="44.69577" lon="5.12019">
        <ele>228</ele>
      </trkpt>
      <trkpt lat="44.69726" lon="5.11743">
        <ele>233</ele>
      </trkpt>
      <trkpt lat="44.69781" lon="5.11631">
        <ele>230</ele>
      </trkpt>
      <trkpt lat="44.69816" lon="5.11551">
        <ele>233</ele>
      </trkpt>
      <trkpt lat="44.69855" lon="5.11439">
        <ele>231</ele>
      </trkpt>
      <trkpt lat="44.69864" lon="5.11405">
        <ele>230</ele>
      </trkpt>
      <trkpt lat="44.69884" lon="5.1121">
        <ele>227</ele>
      </trkpt>
      <trkpt lat="44.6989" lon="5.11179">
        <ele>228</ele>
      </trkpt>
      <trkpt lat="44.69892" lon="5.11173">
        <ele>228</ele>
      </trkpt>
      <trkpt lat="44.69944" lon="5.11044">
        <ele>230</ele>
      </trkpt>
      <trkpt lat="44.70007" lon="5.10862">
        <ele>230</ele>
      </trkpt>
      <trkpt lat="44.70018" lon="5.10812">
        <ele>229</ele>
      </trkpt>
      <trkpt lat="44.70112" lon="5.10367">
        <ele>225</ele>
      </trkpt>
      <trkpt lat="44.70138" lon="5.10284">
        <ele>225</ele>
      </trkpt>
      <trkpt lat="44.70182" lon="5.10154">
        <ele>225</ele>
      </trkpt>
      <trkpt lat="44.70203" lon="5.10073">
        <ele>224</ele>
      </trkpt>
      <trkpt lat="44.70215" lon="5.09965">
        <ele>222</ele>
      </trkpt>
      <trkpt lat="44.70223" lon="5.0993">
        <ele>223</ele>
      </trkpt>
      <trkpt lat="44.70207" lon="5.09883">
        <ele>223</ele>
      </trkpt>
      <trkpt lat="44.70203" lon="5.09844">
        <ele>223</ele>
      </trkpt>
      <trkpt lat="44.70229" lon="5.09726">
        <ele>223</ele>
      </trkpt>
      <trkpt lat="44.70243" lon="5.097">
        <ele>222</ele>
      </trkpt>
      <trkpt lat="44.70309" lon="5.09554">
        <ele>219</ele>
      </trkpt>
      <trkpt lat="44.70334" lon="5.0951">
        <ele>219</ele>
      </trkpt>
      <trkpt lat="44.70349" lon="5.09466">
        <ele>220</ele>
      </trkpt>
      <trkpt lat="44.70355" lon="5.09435">
        <ele>220</ele>
      </trkpt>
      <trkpt lat="44.70358" lon="5.09404">
        <ele>219</ele>
      </trkpt>
      <trkpt lat="44.70366" lon="5.09161">
        <ele>219</ele>
      </trkpt>
      <trkpt lat="44.70372" lon="5.09129">
        <ele>218</ele>
      </trkpt>
      <trkpt lat="44.70442" lon="5.08884">
        <ele>217</ele>
      </trkpt>
      <trkpt lat="44.70448" lon="5.08873">
        <ele>217</ele>
      </trkpt>
      <trkpt lat="44.70455" lon="5.0887">
        <ele>217</ele>
      </trkpt>
      <trkpt lat="44.70468" lon="5.08872">
        <ele>217</ele>
      </trkpt>
      <trkpt lat="44.70471" lon="5.08882">
        <ele>217</ele>
      </trkpt>
      <trkpt lat="44.70476" lon="5.08888">
        <ele>217</ele>
      </trkpt>
      <trkpt lat="44.70483" lon="5.0889">
        <ele>217</ele>
      </trkpt>
      <trkpt lat="44.70493" lon="5.08885">
        <ele>218</ele>
      </trkpt>
      <trkpt lat="44.70495" lon="5.08881">
        <ele>218</ele>
      </trkpt>
      <trkpt lat="44.70498" lon="5.0887">
        <ele>218</ele>
      </trkpt>
      <trkpt lat="44.70498" lon="5.08863">
        <ele>217</ele>
      </trkpt>
      <trkpt lat="44.70494" lon="5.08854">
        <ele>217</ele>
      </trkpt>
      <trkpt lat="44.70496" lon="5.08833">
        <ele>216</ele>
      </trkpt>
      <trkpt lat="44.70506" lon="5.08799">
        <ele>216</ele>
      </trkpt>
      <trkpt lat="44.70528" lon="5.08712">
        <ele>216</ele>
      </trkpt>
      <trkpt lat="44.70556" lon="5.08619">
        <ele>216</ele>
      </trkpt>
      <trkpt lat="44.70584" lon="5.08517">
        <ele>216</ele>
      </trkpt>
      <trkpt lat="44.70591" lon="5.08494">
        <ele>215</ele>
      </trkpt>
      <trkpt lat="44.7061" lon="5.0838">
        <ele>216</ele>
      </trkpt>
      <trkpt lat="44.70628" lon="5.08294">
        <ele>216</ele>
      </trkpt>
      <trkpt lat="44.70647" lon="5.08228">
        <ele>217</ele>
      </trkpt>
      <trkpt lat="44.70671" lon="5.08164">
        <ele>216</ele>
      </trkpt>
      <trkpt lat="44.70774" lon="5.0796">
        <ele>215</ele>
      </trkpt>
      <trkpt lat="44.70812" lon="5.07873">
        <ele>212</ele>
      </trkpt>
      <trkpt lat="44.70842" lon="5.07773">
        <ele>210</ele>
      </trkpt>
      <trkpt lat="44.70874" lon="5.07635">
        <ele>212</ele>
      </trkpt>
      <trkpt lat="44.70889" lon="5.07548">
        <ele>212</ele>
      </trkpt>
      <trkpt lat="44.70894" lon="5.07478">
        <ele>210</ele>
      </trkpt>
      <trkpt lat="44.70896" lon="5.07348">
        <ele>210</ele>
      </trkpt>
      <trkpt lat="44.7103" lon="5.07368">
        <ele>209</ele>
      </trkpt>
      <trkpt lat="44.71004" lon="5.06884">
        <ele>209</ele>
      </trkpt>
      <trkpt lat="44.70997" lon="5.06731">
        <ele>208</ele>
      </trkpt>
      <trkpt lat="44.70993" lon="5.06625">
        <ele>207</ele>
      </trkpt>
      <trkpt lat="44.70993" lon="5.0655">
        <ele>207</ele>
      </trkpt>
      <trkpt lat="44.70998" lon="5.06493">
        <ele>206</ele>
      </trkpt>
      <trkpt lat="44.71002" lon="5.06473">
        <ele>205</ele>
      </trkpt>
      <trkpt lat="44.71014" lon="5.06432">
        <ele>204</ele>
      </trkpt>
      <trkpt lat="44.7103" lon="5.06392">
        <ele>203</ele>
      </trkpt>
      <trkpt lat="44.71033" lon="5.06379">
        <ele>203</ele>
      </trkpt>
      <trkpt lat="44.71036" lon="5.06344">
        <ele>203</ele>
      </trkpt>
      <trkpt lat="44.71045" lon="5.06256">
        <ele>203</ele>
      </trkpt>
      <trkpt lat="44.71067" lon="5.06099">
        <ele>204</ele>
      </trkpt>
      <trkpt lat="44.71107" lon="5.05846">
        <ele>202</ele>
      </trkpt>
      <trkpt lat="44.71112" lon="5.05799">
        <ele>203</ele>
      </trkpt>
      <trkpt lat="44.71096" lon="5.05805">
        <ele>203</ele>
      </trkpt>
      <trkpt lat="44.71033" lon="5.05834">
        <ele>206</ele>
      </trkpt>
      <trkpt lat="44.71016" lon="5.05833">
        <ele>207</ele>
      </trkpt>
      <trkpt lat="44.71012" lon="5.05823">
        <ele>207</ele>
      </trkpt>
      <trkpt lat="44.71006" lon="5.05817">
        <ele>207</ele>
      </trkpt>
      <trkpt lat="44.71002" lon="5.05815">
        <ele>207</ele>
      </trkpt>
      <trkpt lat="44.70992" lon="5.05818">
        <ele>207</ele>
      </trkpt>
      <trkpt lat="44.70985" lon="5.05829">
        <ele>207</ele>
      </trkpt>
      <trkpt lat="44.70957" lon="5.05837">
        <ele>207</ele>
      </trkpt>
      <trkpt lat="44.70943" lon="5.05839">
        <ele>208</ele>
      </trkpt>
      <trkpt lat="44.70789" lon="5.05885">
        <ele>215</ele>
      </trkpt>
      <trkpt lat="44.70707" lon="5.059">
        <ele>219</ele>
      </trkpt>
      <trkpt lat="44.70569" lon="5.05943">
        <ele>223</ele>
      </trkpt>
      <trkpt lat="44.70508" lon="5.05957">
        <ele>225</ele>
      </trkpt>
      <trkpt lat="44.70472" lon="5.05969">
        <ele>226</ele>
      </trkpt>
      <trkpt lat="44.70456" lon="5.05971">
        <ele>226</ele>
      </trkpt>
      <trkpt lat="44.70425" lon="5.05966">
        <ele>226</ele>
      </trkpt>
      <trkpt lat="44.70397" lon="5.05967">
        <ele>227</ele>
      </trkpt>
      <trkpt lat="44.70352" lon="5.05962">
        <ele>229</ele>
      </trkpt>
      <trkpt lat="44.70326" lon="5.05962">
        <ele>229</ele>
      </trkpt>
      <trkpt lat="44.70309" lon="5.05957">
        <ele>230</ele>
      </trkpt>
      <trkpt lat="44.70295" lon="5.05947">
        <ele>229</ele>
      </trkpt>
      <trkpt lat="44.7027" lon="5.05925">
        <ele>228</ele>
      </trkpt>
      <trkpt lat="44.7025" lon="5.05915">
        <ele>229</ele>
      </trkpt>
      <trkpt lat="44.70187" lon="5.0587">
        <ele>230</ele>
      </trkpt>
      <trkpt lat="44.70135" lon="5.0586">
        <ele>228</ele>
      </trkpt>
      <trkpt lat="44.70122" lon="5.05853">
        <ele>227</ele>
      </trkpt>
      <trkpt lat="44.70094" lon="5.05827">
        <ele>226</ele>
      </trkpt>
      <trkpt lat="44.70079" lon="5.05816">
        <ele>226</ele>
      </trkpt>
      <trkpt lat="44.70041" lon="5.05794">
        <ele>232</ele>
      </trkpt>
      <trkpt lat="44.7" lon="5.05772">
        <ele>234</ele>
      </trkpt>
      <trkpt lat="44.69961" lon="5.05747">
        <ele>234</ele>
      </trkpt>
      <trkpt lat="44.69948" lon="5.05742">
        <ele>233</ele>
      </trkpt>
      <trkpt lat="44.6977" lon="5.05731">
        <ele>241</ele>
      </trkpt>
      <trkpt lat="44.69763" lon="5.05728">
        <ele>242</ele>
      </trkpt>
      <trkpt lat="44.69757" lon="5.05726">
        <ele>242</ele>
      </trkpt>
      <trkpt lat="44.69639" lon="5.05648">
        <ele>245</ele>
      </trkpt>
      <trkpt lat="44.69604" lon="5.05639">
        <ele>247</ele>
      </trkpt>
      <trkpt lat="44.69467" lon="5.0563">
        <ele>251</ele>
      </trkpt>
      <trkpt lat="44.69429" lon="5.05625">
        <ele>252</ele>
      </trkpt>
      <trkpt lat="44.69401" lon="5.05617">
        <ele>252</ele>
      </trkpt>
      <trkpt lat="44.69351" lon="5.05597">
        <ele>252</ele>
      </trkpt>
      <trkpt lat="44.69233" lon="5.05559">
        <ele>255</ele>
      </trkpt>
      <trkpt lat="44.6922" lon="5.05555">
        <ele>253</ele>
      </trkpt>
      <trkpt lat="44.69201" lon="5.05558">
        <ele>257</ele>
      </trkpt>
      <trkpt lat="44.69192" lon="5.05565">
        <ele>257</ele>
      </trkpt>
      <trkpt lat="44.69085" lon="5.05685">
        <ele>263</ele>
      </trkpt>
      <trkpt lat="44.68978" lon="5.05776">
        <ele>270</ele>
      </trkpt>
      <trkpt lat="44.6893" lon="5.05816">
        <ele>271</ele>
      </trkpt>
      <trkpt lat="44.68913" lon="5.05828">
        <ele>271</ele>
      </trkpt>
      <trkpt lat="44.6886" lon="5.05859">
        <ele>275</ele>
      </trkpt>
      <trkpt lat="44.68824" lon="5.05878">
        <ele>274</ele>
      </trkpt>
      <trkpt lat="44.68801" lon="5.05894">
        <ele>277</ele>
      </trkpt>
      <trkpt lat="44.68793" lon="5.05906">
        <ele>274</ele>
      </trkpt>
      <trkpt lat="44.68768" lon="5.05961">
        <ele>277</ele>
      </trkpt>
      <trkpt lat="44.68762" lon="5.05969">
        <ele>276</ele>
      </trkpt>
      <trkpt lat="44.68755" lon="5.05973">
        <ele>276</ele>
      </trkpt>
      <trkpt lat="44.68747" lon="5.05973">
        <ele>276</ele>
      </trkpt>
      <trkpt lat="44.6874" lon="5.05969">
        <ele>274</ele>
      </trkpt>
      <trkpt lat="44.68734" lon="5.05963">
        <ele>273</ele>
      </trkpt>
      <trkpt lat="44.6872" lon="5.05941">
        <ele>271</ele>
      </trkpt>
      <trkpt lat="44.68697" lon="5.05912">
        <ele>270</ele>
      </trkpt>
      <trkpt lat="44.68687" lon="5.05902">
        <ele>270</ele>
      </trkpt>
      <trkpt lat="44.68666" lon="5.05891">
        <ele>273</ele>
      </trkpt>
      <trkpt lat="44.68609" lon="5.05878">
        <ele>279</ele>
      </trkpt>
      <trkpt lat="44.68589" lon="5.05879">
        <ele>283</ele>
      </trkpt>
      <trkpt lat="44.68569" lon="5.05884">
        <ele>284</ele>
      </trkpt>
      <trkpt lat="44.68549" lon="5.05891">
        <ele>290</ele>
      </trkpt>
      <trkpt lat="44.68536" lon="5.05899">
        <ele>290</ele>
      </trkpt>
      <trkpt lat="44.68524" lon="5.05907">
        <ele>290</ele>
      </trkpt>
      <trkpt lat="44.68509" lon="5.05928">
        <ele>291</ele>
      </trkpt>
      <trkpt lat="44.68475" lon="5.05997">
        <ele>296</ele>
      </trkpt>
      <trkpt lat="44.68459" lon="5.0602">
        <ele>295</ele>
      </trkpt>
      <trkpt lat="44.68386" lon="5.061">
        <ele>293</ele>
      </trkpt>
      <trkpt lat="44.68116" lon="5.06379">
        <ele>296</ele>
      </trkpt>
      <trkpt lat="44.68043" lon="5.06471">
        <ele>300</ele>
      </trkpt>
      <trkpt lat="44.68033" lon="5.06485">
        <ele>302</ele>
      </trkpt>
      <trkpt lat="44.68006" lon="5.06542">
        <ele>306</ele>
      </trkpt>
      <trkpt lat="44.67999" lon="5.06554">
        <ele>307</ele>
      </trkpt>
      <trkpt lat="44.67985" lon="5.06571">
        <ele>308</ele>
      </trkpt>
      <trkpt lat="44.67968" lon="5.06601">
        <ele>311</ele>
      </trkpt>
      <trkpt lat="44.67924" lon="5.06723">
        <ele>317</ele>
      </trkpt>
      <trkpt lat="44.67913" lon="5.06809">
        <ele>324</ele>
      </trkpt>
      <trkpt lat="44.67901" lon="5.06844">
        <ele>324</ele>
      </trkpt>
      <trkpt lat="44.67895" lon="5.06853">
        <ele>324</ele>
      </trkpt>
      <trkpt lat="44.67887" lon="5.06857">
        <ele>324</ele>
      </trkpt>
      <trkpt lat="44.67878" lon="5.06855">
        <ele>323</ele>
      </trkpt>
      <trkpt lat="44.67873" lon="5.06851">
        <ele>323</ele>
      </trkpt>
      <trkpt lat="44.67868" lon="5.06832">
        <ele>322</ele>
      </trkpt>
      <trkpt lat="44.67868" lon="5.06741">
        <ele>318</ele>
      </trkpt>
      <trkpt lat="44.67865" lon="5.06731">
        <ele>318</ele>
      </trkpt>
      <trkpt lat="44.6786" lon="5.06726">
        <ele>318</ele>
      </trkpt>
      <trkpt lat="44.67854" lon="5.06722">
        <ele>319</ele>
      </trkpt>
      <trkpt lat="44.67846" lon="5.06722">
        <ele>321</ele>
      </trkpt>
      <trkpt lat="44.67747" lon="5.06744">
        <ele>331</ele>
      </trkpt>
      <trkpt lat="44.67731" lon="5.0675">
        <ele>332</ele>
      </trkpt>
      <trkpt lat="44.67727" lon="5.06756">
        <ele>333</ele>
      </trkpt>
      <trkpt lat="44.67722" lon="5.0677">
        <ele>334</ele>
      </trkpt>
      <trkpt lat="44.67719" lon="5.06786">
        <ele>336</ele>
      </trkpt>
      <trkpt lat="44.6772" lon="5.06796">
        <ele>336</ele>
      </trkpt>
      <trkpt lat="44.67718" lon="5.06805">
        <ele>336</ele>
      </trkpt>
      <trkpt lat="44.67708" lon="5.06818">
        <ele>340</ele>
      </trkpt>
      <trkpt lat="44.67692" lon="5.06816">
        <ele>340</ele>
      </trkpt>
      <trkpt lat="44.67685" lon="5.06811">
        <ele>341</ele>
      </trkpt>
      <trkpt lat="44.67674" lon="5.06789">
        <ele>338</ele>
      </trkpt>
      <trkpt lat="44.67671" lon="5.06775">
        <ele>335</ele>
      </trkpt>
      <trkpt lat="44.67666" lon="5.06764">
        <ele>335</ele>
      </trkpt>
      <trkpt lat="44.6766" lon="5.06758">
        <ele>335</ele>
      </trkpt>
      <trkpt lat="44.6758" lon="5.0673">
        <ele>345</ele>
      </trkpt>
      <trkpt lat="44.6757" lon="5.06728">
        <ele>346</ele>
      </trkpt>
      <trkpt lat="44.67554" lon="5.06728">
        <ele>347</ele>
      </trkpt>
      <trkpt lat="44.67519" lon="5.06741">
        <ele>350</ele>
      </trkpt>
      <trkpt lat="44.67504" lon="5.06743">
        <ele>351</ele>
      </trkpt>
      <trkpt lat="44.67484" lon="5.06739">
        <ele>353</ele>
      </trkpt>
      <trkpt lat="44.67458" lon="5.06729">
        <ele>353</ele>
      </trkpt>
      <trkpt lat="44.67449" lon="5.06729">
        <ele>353</ele>
      </trkpt>
      <trkpt lat="44.67365" lon="5.06755">
        <ele>360</ele>
      </trkpt>
      <trkpt lat="44.67288" lon="5.06794">
        <ele>362</ele>
      </trkpt>
      <trkpt lat="44.67228" lon="5.06828">
        <ele>361</ele>
      </trkpt>
      <trkpt lat="44.67201" lon="5.06851">
        <ele>362</ele>
      </trkpt>
      <trkpt lat="44.67187" lon="5.06859">
        <ele>362</ele>
      </trkpt>
      <trkpt lat="44.67108" lon="5.06888">
        <ele>371</ele>
      </trkpt>
      <trkpt lat="44.6709" lon="5.06889">
        <ele>374</ele>
      </trkpt>
      <trkpt lat="44.67028" lon="5.06881">
        <ele>377</ele>
      </trkpt>
      <trkpt lat="44.67006" lon="5.06888">
        <ele>381</ele>
      </trkpt>
      <trkpt lat="44.66992" lon="5.0689">
        <ele>382</ele>
      </trkpt>
      <trkpt lat="44.66958" lon="5.06884">
        <ele>388</ele>
      </trkpt>
      <trkpt lat="44.66931" lon="5.06888">
        <ele>389</ele>
      </trkpt>
      <trkpt lat="44.66915" lon="5.06892">
        <ele>396</ele>
      </trkpt>
      <trkpt lat="44.66885" lon="5.06909">
        <ele>399</ele>
      </trkpt>
      <trkpt lat="44.6687" lon="5.06914">
        <ele>403</ele>
      </trkpt>
      <trkpt lat="44.66823" lon="5.0692">
        <ele>411</ele>
      </trkpt>
      <trkpt lat="44.66792" lon="5.06927">
        <ele>406</ele>
      </trkpt>
      <trkpt lat="44.6672" lon="5.06959">
        <ele>422</ele>
      </trkpt>
      <trkpt lat="44.66696" lon="5.06962">
        <ele>432</ele>
      </trkpt>
      <trkpt lat="44.6668" lon="5.06963">
        <ele>447</ele>
      </trkpt>
      <trkpt lat="44.66647" lon="5.06976">
        <ele>473</ele>
      </trkpt>
      <trkpt lat="44.66626" lon="5.06969">
        <ele>454</ele>
      </trkpt>
      <trkpt lat="44.66607" lon="5.06957">
        <ele>452</ele>
      </trkpt>
      <trkpt lat="44.66584" lon="5.06926">
        <ele>443</ele>
      </trkpt>
      <trkpt lat="44.66561" lon="5.06918">
        <ele>446</ele>
      </trkpt>
      <trkpt lat="44.66545" lon="5.06917">
        <ele>450</ele>
      </trkpt>
      <trkpt lat="44.66527" lon="5.0692">
        <ele>453</ele>
      </trkpt>
      <trkpt lat="44.66483" lon="5.0691">
        <ele>450</ele>
      </trkpt>
      <trkpt lat="44.66468" lon="5.06912">
        <ele>450</ele>
      </trkpt>
      <trkpt lat="44.66452" lon="5.06929">
        <ele>449</ele>
      </trkpt>
      <trkpt lat="44.66412" lon="5.06953">
        <ele>455</ele>
      </trkpt>
      <trkpt lat="44.66374" lon="5.07007">
        <ele>458</ele>
      </trkpt>
      <trkpt lat="44.66363" lon="5.07014">
        <ele>457</ele>
      </trkpt>
      <trkpt lat="44.66345" lon="5.07021">
        <ele>457</ele>
      </trkpt>
      <trkpt lat="44.66335" lon="5.07023">
        <ele>457</ele>
      </trkpt>
      <trkpt lat="44.6632" lon="5.0702">
        <ele>458</ele>
      </trkpt>
      <trkpt lat="44.66271" lon="5.07">
        <ele>461</ele>
      </trkpt>
      <trkpt lat="44.66237" lon="5.06981">
        <ele>466</ele>
      </trkpt>
      <trkpt lat="44.66225" lon="5.06978">
        <ele>466</ele>
      </trkpt>
      <trkpt lat="44.66219" lon="5.06981">
        <ele>466</ele>
      </trkpt>
      <trkpt lat="44.66217" lon="5.06984">
        <ele>467</ele>
      </trkpt>
      <trkpt lat="44.66216" lon="5.06991">
        <ele>467</ele>
      </trkpt>
      <trkpt lat="44.66221" lon="5.06996">
        <ele>467</ele>
      </trkpt>
      <trkpt lat="44.66258" lon="5.07013">
        <ele>463</ele>
      </trkpt>
      <trkpt lat="44.66274" lon="5.07022">
        <ele>461</ele>
      </trkpt>
      <trkpt lat="44.66288" lon="5.07033">
        <ele>461</ele>
      </trkpt>
      <trkpt lat="44.66295" lon="5.07043">
        <ele>462</ele>
      </trkpt>
      <trkpt lat="44.66296" lon="5.07055">
        <ele>462</ele>
      </trkpt>
      <trkpt lat="44.66284" lon="5.07091">
        <ele>470</ele>
      </trkpt>
      <trkpt lat="44.66267" lon="5.0714">
        <ele>478</ele>
      </trkpt>
      <trkpt lat="44.66256" lon="5.07175">
        <ele>481</ele>
      </trkpt>
      <trkpt lat="44.66248" lon="5.07211">
        <ele>482</ele>
      </trkpt>
      <trkpt lat="44.66241" lon="5.07227">
        <ele>484</ele>
      </trkpt>
      <trkpt lat="44.66227" lon="5.07236">
        <ele>482</ele>
      </trkpt>
      <trkpt lat="44.66218" lon="5.07239">
        <ele>483</ele>
      </trkpt>
      <trkpt lat="44.66174" lon="5.07243">
        <ele>488</ele>
      </trkpt>
      <trkpt lat="44.66166" lon="5.07246">
        <ele>489</ele>
      </trkpt>
      <trkpt lat="44.66159" lon="5.07252">
        <ele>489</ele>
      </trkpt>
      <trkpt lat="44.66161" lon="5.07256">
        <ele>489</ele>
      </trkpt>
      <trkpt lat="44.66164" lon="5.07259">
        <ele>489</ele>
      </trkpt>
      <trkpt lat="44.66182" lon="5.07266">
        <ele>489</ele>
      </trkpt>
      <trkpt lat="44.66209" lon="5.07281">
        <ele>487</ele>
      </trkpt>
      <trkpt lat="44.66214" lon="5.07287">
        <ele>487</ele>
      </trkpt>
      <trkpt lat="44.66218" lon="5.07303">
        <ele>488</ele>
      </trkpt>
      <trkpt lat="44.6622" lon="5.07317">
        <ele>490</ele>
      </trkpt>
      <trkpt lat="44.66217" lon="5.07374">
        <ele>495</ele>
      </trkpt>
      <trkpt lat="44.66217" lon="5.07414">
        <ele>496</ele>
      </trkpt>
      <trkpt lat="44.6622" lon="5.07438">
        <ele>497</ele>
      </trkpt>
      <trkpt lat="44.66246" lon="5.07578">
        <ele>506</ele>
      </trkpt>
      <trkpt lat="44.66254" lon="5.07631">
        <ele>507</ele>
      </trkpt>
      <trkpt lat="44.66254" lon="5.07644">
        <ele>508</ele>
      </trkpt>
      <trkpt lat="44.66251" lon="5.07669">
        <ele>509</ele>
      </trkpt>
      <trkpt lat="44.66246" lon="5.0769">
        <ele>510</ele>
      </trkpt>
      <trkpt lat="44.66214" lon="5.07758">
        <ele>511</ele>
      </trkpt>
      <trkpt lat="44.66205" lon="5.07774">
        <ele>508</ele>
      </trkpt>
      <trkpt lat="44.66194" lon="5.07786">
        <ele>507</ele>
      </trkpt>
      <trkpt lat="44.66143" lon="5.07824">
        <ele>499</ele>
      </trkpt>
      <trkpt lat="44.66118" lon="5.07855">
        <ele>495</ele>
      </trkpt>
      <trkpt lat="44.661" lon="5.07883">
        <ele>492</ele>
      </trkpt>
      <trkpt lat="44.66093" lon="5.07891">
        <ele>492</ele>
      </trkpt>
      <trkpt lat="44.66086" lon="5.07895">
        <ele>490</ele>
      </trkpt>
      <trkpt lat="44.66065" lon="5.07897">
        <ele>489</ele>
      </trkpt>
      <trkpt lat="44.66047" lon="5.07897">
        <ele>489</ele>
      </trkpt>
      <trkpt lat="44.66028" lon="5.07892">
        <ele>486</ele>
      </trkpt>
      <trkpt lat="44.66008" lon="5.07882">
        <ele>486</ele>
      </trkpt>
      <trkpt lat="44.6598" lon="5.07854">
        <ele>487</ele>
      </trkpt>
      <trkpt lat="44.65949" lon="5.0781">
        <ele>488</ele>
      </trkpt>
      <trkpt lat="44.6591" lon="5.07773">
        <ele>487</ele>
      </trkpt>
      <trkpt lat="44.65904" lon="5.07773">
        <ele>484</ele>
      </trkpt>
      <trkpt lat="44.65902" lon="5.07776">
        <ele>483</ele>
      </trkpt>
      <trkpt lat="44.65901" lon="5.07781">
        <ele>480</ele>
      </trkpt>
      <trkpt lat="44.65903" lon="5.07787">
        <ele>480</ele>
      </trkpt>
      <trkpt lat="44.65932" lon="5.07826">
        <ele>480</ele>
      </trkpt>
      <trkpt lat="44.65948" lon="5.07854">
        <ele>481</ele>
      </trkpt>
      <trkpt lat="44.65977" lon="5.07915">
        <ele>472</ele>
      </trkpt>
      <trkpt lat="44.65993" lon="5.07941">
        <ele>471</ele>
      </trkpt>
      <trkpt lat="44.66017" lon="5.07992">
        <ele>462</ele>
      </trkpt>
      <trkpt lat="44.66042" lon="5.0806">
        <ele>452</ele>
      </trkpt>
      <trkpt lat="44.66047" lon="5.0807">
        <ele>455</ele>
      </trkpt>
      <trkpt lat="44.66055" lon="5.08078">
        <ele>455</ele>
      </trkpt>
      <trkpt lat="44.6608" lon="5.0809">
        <ele>460</ele>
      </trkpt>
      <trkpt lat="44.66082" lon="5.08095">
        <ele>460</ele>
      </trkpt>
      <trkpt lat="44.66082" lon="5.08133">
        <ele>456</ele>
      </trkpt>
      <trkpt lat="44.66084" lon="5.08144">
        <ele>453</ele>
      </trkpt>
      <trkpt lat="44.66106" lon="5.08231">
        <ele>448</ele>
      </trkpt>
      <trkpt lat="44.66114" lon="5.0825">
        <ele>447</ele>
      </trkpt>
      <trkpt lat="44.66127" lon="5.08274">
        <ele>444</ele>
      </trkpt>
      <trkpt lat="44.66131" lon="5.08287">
        <ele>443</ele>
      </trkpt>
      <trkpt lat="44.66132" lon="5.08315">
        <ele>440</ele>
      </trkpt>
      <trkpt lat="44.66123" lon="5.0836">
        <ele>437</ele>
      </trkpt>
      <trkpt lat="44.66119" lon="5.08372">
        <ele>437</ele>
      </trkpt>
      <trkpt lat="44.66109" lon="5.08393">
        <ele>435</ele>
      </trkpt>
      <trkpt lat="44.66103" lon="5.08402">
        <ele>435</ele>
      </trkpt>
      <trkpt lat="44.66084" lon="5.08416">
        <ele>431</ele>
      </trkpt>
      <trkpt lat="44.66058" lon="5.08425">
        <ele>427</ele>
      </trkpt>
      <trkpt lat="44.6605" lon="5.0843">
        <ele>427</ele>
      </trkpt>
      <trkpt lat="44.66027" lon="5.08457">
        <ele>425</ele>
      </trkpt>
      <trkpt lat="44.6602" lon="5.08467">
        <ele>425</ele>
      </trkpt>
      <trkpt lat="44.66016" lon="5.08479">
        <ele>425</ele>
      </trkpt>
      <trkpt lat="44.65989" lon="5.0856">
        <ele>422</ele>
      </trkpt>
      <trkpt lat="44.65979" lon="5.08602">
        <ele>420</ele>
      </trkpt>
      <trkpt lat="44.65973" lon="5.08641">
        <ele>418</ele>
      </trkpt>
      <trkpt lat="44.65956" lon="5.08785">
        <ele>416</ele>
      </trkpt>
      <trkpt lat="44.65946" lon="5.08837">
        <ele>412</ele>
      </trkpt>
      <trkpt lat="44.65941" lon="5.08905">
        <ele>409</ele>
      </trkpt>
      <trkpt lat="44.65894" lon="5.09261">
        <ele>405</ele>
      </trkpt>
      <trkpt lat="44.65881" lon="5.09341">
        <ele>403</ele>
      </trkpt>
      <trkpt lat="44.65865" lon="5.09391">
        <ele>405</ele>
      </trkpt>
      <trkpt lat="44.65809" lon="5.09512">
        <ele>402</ele>
      </trkpt>
      <trkpt lat="44.65785" lon="5.09538">
        <ele>403</ele>
      </trkpt>
      <trkpt lat="44.65757" lon="5.09556">
        <ele>403</ele>
      </trkpt>
      <trkpt lat="44.65752" lon="5.09557">
        <ele>403</ele>
      </trkpt>
      <trkpt lat="44.65725" lon="5.09565">
        <ele>400</ele>
      </trkpt>
      <trkpt lat="44.65691" lon="5.09557">
        <ele>404</ele>
      </trkpt>
      <trkpt lat="44.65629" lon="5.09554">
        <ele>399</ele>
      </trkpt>
      <trkpt lat="44.65551" lon="5.09544">
        <ele>398</ele>
      </trkpt>
      <trkpt lat="44.65531" lon="5.09551">
        <ele>396</ele>
      </trkpt>
      <trkpt lat="44.65523" lon="5.09552">
        <ele>397</ele>
      </trkpt>
      <trkpt lat="44.65516" lon="5.09547">
        <ele>398</ele>
      </trkpt>
      <trkpt lat="44.65506" lon="5.0953">
        <ele>399</ele>
      </trkpt>
      <trkpt lat="44.65474" lon="5.09461">
        <ele>389</ele>
      </trkpt>
      <trkpt lat="44.65455" lon="5.0943">
        <ele>393</ele>
      </trkpt>
      <trkpt lat="44.65434" lon="5.09403">
        <ele>398</ele>
      </trkpt>
      <trkpt lat="44.65411" lon="5.09357">
        <ele>406</ele>
      </trkpt>
      <trkpt lat="44.65402" lon="5.09311">
        <ele>401</ele>
      </trkpt>
      <trkpt lat="44.654" lon="5.09228">
        <ele>400</ele>
      </trkpt>
      <trkpt lat="44.65395" lon="5.09182">
        <ele>397</ele>
      </trkpt>
      <trkpt lat="44.65381" lon="5.09108">
        <ele>403</ele>
      </trkpt>
      <trkpt lat="44.65371" lon="5.09032">
        <ele>398</ele>
      </trkpt>
      <trkpt lat="44.65338" lon="5.0886">
        <ele>401</ele>
      </trkpt>
      <trkpt lat="44.65335" lon="5.08852">
        <ele>403</ele>
      </trkpt>
      <trkpt lat="44.65271" lon="5.08679">
        <ele>386</ele>
      </trkpt>
      <trkpt lat="44.65237" lon="5.08563">
        <ele>382</ele>
      </trkpt>
      <trkpt lat="44.652" lon="5.08449">
        <ele>380</ele>
      </trkpt>
      <trkpt lat="44.65192" lon="5.0841">
        <ele>381</ele>
      </trkpt>
      <trkpt lat="44.65171" lon="5.08281">
        <ele>381</ele>
      </trkpt>
      <trkpt lat="44.65158" lon="5.08232">
        <ele>379</ele>
      </trkpt>
      <trkpt lat="44.65094" lon="5.08042">
        <ele>368</ele>
      </trkpt>
      <trkpt lat="44.65013" lon="5.07885">
        <ele>367</ele>
      </trkpt>
      <trkpt lat="44.64992" lon="5.07838">
        <ele>367</ele>
      </trkpt>
      <trkpt lat="44.6499" lon="5.07829">
        <ele>365</ele>
      </trkpt>
      <trkpt lat="44.64982" lon="5.07798">
        <ele>365</ele>
      </trkpt>
      <trkpt lat="44.64979" lon="5.07776">
        <ele>366</ele>
      </trkpt>
      <trkpt lat="44.64973" lon="5.07693">
        <ele>368</ele>
      </trkpt>
      <trkpt lat="44.64922" lon="5.07354">
        <ele>360</ele>
      </trkpt>
      <trkpt lat="44.6492" lon="5.07347">
        <ele>360</ele>
      </trkpt>
      <trkpt lat="44.64917" lon="5.07335">
        <ele>360</ele>
      </trkpt>
      <trkpt lat="44.64881" lon="5.07262">
        <ele>356</ele>
      </trkpt>
      <trkpt lat="44.64836" lon="5.07175">
        <ele>350</ele>
      </trkpt>
      <trkpt lat="44.64823" lon="5.0714">
        <ele>348</ele>
      </trkpt>
      <trkpt lat="44.64794" lon="5.07005">
        <ele>346</ele>
      </trkpt>
      <trkpt lat="44.64792" lon="5.06985">
        <ele>346</ele>
      </trkpt>
      <trkpt lat="44.64791" lon="5.06916">
        <ele>344</ele>
      </trkpt>
      <trkpt lat="44.64787" lon="5.06801">
        <ele>347</ele>
      </trkpt>
      <trkpt lat="44.64782" lon="5.06767">
        <ele>346</ele>
      </trkpt>
      <trkpt lat="44.6472" lon="5.06534">
        <ele>335</ele>
      </trkpt>
      <trkpt lat="44.6471" lon="5.06514">
        <ele>333</ele>
      </trkpt>
      <trkpt lat="44.64606" lon="5.06362">
        <ele>329</ele>
      </trkpt>
      <trkpt lat="44.64592" lon="5.06334">
        <ele>329</ele>
      </trkpt>
      <trkpt lat="44.64591" lon="5.06327">
        <ele>329</ele>
      </trkpt>
      <trkpt lat="44.64589" lon="5.06286">
        <ele>329</ele>
      </trkpt>
      <trkpt lat="44.64585" lon="5.0627">
        <ele>330</ele>
      </trkpt>
      <trkpt lat="44.64568" lon="5.06244">
        <ele>330</ele>
      </trkpt>
      <trkpt lat="44.64564" lon="5.06231">
        <ele>330</ele>
      </trkpt>
      <trkpt lat="44.64562" lon="5.06217">
        <ele>330</ele>
      </trkpt>
      <trkpt lat="44.64562" lon="5.06206">
        <ele>330</ele>
      </trkpt>
      <trkpt lat="44.64584" lon="5.06141">
        <ele>330</ele>
      </trkpt>
      <trkpt lat="44.64585" lon="5.06127">
        <ele>329</ele>
      </trkpt>
      <trkpt lat="44.64584" lon="5.0612">
        <ele>329</ele>
      </trkpt>
      <trkpt lat="44.64563" lon="5.06019">
        <ele>329</ele>
      </trkpt>
      <trkpt lat="44.64495" lon="5.05729">
        <ele>326</ele>
      </trkpt>
      <trkpt lat="44.64494" lon="5.05707">
        <ele>326</ele>
      </trkpt>
      <trkpt lat="44.64496" lon="5.05686">
        <ele>327</ele>
      </trkpt>
      <trkpt lat="44.64498" lon="5.05681">
        <ele>327</ele>
      </trkpt>
      <trkpt lat="44.64498" lon="5.0567">
        <ele>327</ele>
      </trkpt>
      <trkpt lat="44.64497" lon="5.05665">
        <ele>327</ele>
      </trkpt>
      <trkpt lat="44.6449" lon="5.05659">
        <ele>326</ele>
      </trkpt>
      <trkpt lat="44.64479" lon="5.05634">
        <ele>326</ele>
      </trkpt>
      <trkpt lat="44.64465" lon="5.05595">
        <ele>327</ele>
      </trkpt>
      <trkpt lat="44.64454" lon="5.05556">
        <ele>328</ele>
      </trkpt>
      <trkpt lat="44.64377" lon="5.05335">
        <ele>324</ele>
      </trkpt>
      <trkpt lat="44.64372" lon="5.05316">
        <ele>325</ele>
      </trkpt>
      <trkpt lat="44.64366" lon="5.05255">
        <ele>329</ele>
      </trkpt>
      <trkpt lat="44.64354" lon="5.05256">
        <ele>329</ele>
      </trkpt>
      <trkpt lat="44.64345" lon="5.0526">
        <ele>327</ele>
      </trkpt>
      <trkpt lat="44.64161" lon="5.05051">
        <ele>314</ele>
      </trkpt>
      <trkpt lat="44.64134" lon="5.05027">
        <ele>313</ele>
      </trkpt>
      <trkpt lat="44.64118" lon="5.05016">
        <ele>312</ele>
      </trkpt>
      <trkpt lat="44.64064" lon="5.04987">
        <ele>308</ele>
      </trkpt>
      <trkpt lat="44.64039" lon="5.04967">
        <ele>309</ele>
      </trkpt>
      <trkpt lat="44.638" lon="5.04679">
        <ele>309</ele>
      </trkpt>
      <trkpt lat="44.63792" lon="5.04664">
        <ele>310</ele>
      </trkpt>
      <trkpt lat="44.63785" lon="5.04648">
        <ele>311</ele>
      </trkpt>
      <trkpt lat="44.63781" lon="5.0463">
        <ele>314</ele>
      </trkpt>
      <trkpt lat="44.6377" lon="5.04533">
        <ele>321</ele>
      </trkpt>
      <trkpt lat="44.63766" lon="5.04518">
        <ele>319</ele>
      </trkpt>
      <trkpt lat="44.63757" lon="5.04498">
        <ele>319</ele>
      </trkpt>
      <trkpt lat="44.63646" lon="5.04272">
        <ele>310</ele>
      </trkpt>
      <trkpt lat="44.63632" lon="5.04252">
        <ele>310</ele>
      </trkpt>
      <trkpt lat="44.63539" lon="5.04139">
        <ele>306</ele>
      </trkpt>
      <trkpt lat="44.63526" lon="5.04127">
        <ele>306</ele>
      </trkpt>
      <trkpt lat="44.63514" lon="5.0412">
        <ele>304</ele>
      </trkpt>
      <trkpt lat="44.63507" lon="5.04119">
        <ele>303</ele>
      </trkpt>
      <trkpt lat="44.63332" lon="5.04106">
        <ele>294</ele>
      </trkpt>
      <trkpt lat="44.63097" lon="5.04091">
        <ele>293</ele>
      </trkpt>
      <trkpt lat="44.63058" lon="5.04086">
        <ele>293</ele>
      </trkpt>
      <trkpt lat="44.63032" lon="5.04079">
        <ele>297</ele>
      </trkpt>
      <trkpt lat="44.62972" lon="5.04055">
        <ele>300</ele>
      </trkpt>
      <trkpt lat="44.62828" lon="5.03967">
        <ele>298</ele>
      </trkpt>
      <trkpt lat="44.62812" lon="5.03954">
        <ele>295</ele>
      </trkpt>
      <trkpt lat="44.62802" lon="5.03943">
        <ele>299</ele>
      </trkpt>
      <trkpt lat="44.62791" lon="5.03926">
        <ele>295</ele>
      </trkpt>
      <trkpt lat="44.62759" lon="5.03847">
        <ele>299</ele>
      </trkpt>
      <trkpt lat="44.62715" lon="5.03749">
        <ele>300</ele>
      </trkpt>
      <trkpt lat="44.62709" lon="5.03731">
        <ele>296</ele>
      </trkpt>
      <trkpt lat="44.62705" lon="5.03699">
        <ele>298</ele>
      </trkpt>
      <trkpt lat="44.62713" lon="5.03583">
        <ele>312</ele>
      </trkpt>
      <trkpt lat="44.62607" lon="5.0358">
        <ele>286</ele>
      </trkpt>
      <trkpt lat="44.62596" lon="5.03584">
        <ele>286</ele>
      </trkpt>
      <trkpt lat="44.62567" lon="5.03626">
        <ele>288</ele>
      </trkpt>
      <trkpt lat="44.62556" lon="5.03637">
        <ele>289</ele>
      </trkpt>
      <trkpt lat="44.62534" lon="5.03649">
        <ele>293</ele>
      </trkpt>
      <trkpt lat="44.62504" lon="5.0366">
        <ele>294</ele>
      </trkpt>
      <trkpt lat="44.62484" lon="5.03673">
        <ele>293</ele>
      </trkpt>
      <trkpt lat="44.62467" lon="5.03686">
        <ele>293</ele>
      </trkpt>
      <trkpt lat="44.62439" lon="5.03713">
        <ele>294</ele>
      </trkpt>
      <trkpt lat="44.62429" lon="5.03727">
        <ele>293</ele>
      </trkpt>
      <trkpt lat="44.62394" lon="5.03795">
        <ele>289</ele>
      </trkpt>
      <trkpt lat="44.62372" lon="5.03811">
        <ele>290</ele>
      </trkpt>
      <trkpt lat="44.62306" lon="5.03846">
        <ele>291</ele>
      </trkpt>
      <trkpt lat="44.62083" lon="5.03959">
        <ele>299</ele>
      </trkpt>
      <trkpt lat="44.62022" lon="5.03988">
        <ele>303</ele>
      </trkpt>
      <trkpt lat="44.61997" lon="5.03996">
        <ele>306</ele>
      </trkpt>
      <trkpt lat="44.61926" lon="5.04013">
        <ele>308</ele>
      </trkpt>
      <trkpt lat="44.61741" lon="5.04034">
        <ele>312</ele>
      </trkpt>
      <trkpt lat="44.61677" lon="5.04046">
        <ele>316</ele>
      </trkpt>
      <trkpt lat="44.61614" lon="5.04082">
        <ele>319</ele>
      </trkpt>
      <trkpt lat="44.61599" lon="5.04095">
        <ele>318</ele>
      </trkpt>
      <trkpt lat="44.61579" lon="5.04117">
        <ele>317</ele>
      </trkpt>
      <trkpt lat="44.61552" lon="5.04166">
        <ele>318</ele>
      </trkpt>
      <trkpt lat="44.61534" lon="5.04189">
        <ele>319</ele>
      </trkpt>
      <trkpt lat="44.61481" lon="5.04236">
        <ele>319</ele>
      </trkpt>
      <trkpt lat="44.61456" lon="5.0425">
        <ele>323</ele>
      </trkpt>
      <trkpt lat="44.61378" lon="5.04258">
        <ele>327</ele>
      </trkpt>
      <trkpt lat="44.6132" lon="5.04253">
        <ele>328</ele>
      </trkpt>
      <trkpt lat="44.61278" lon="5.04224">
        <ele>332</ele>
      </trkpt>
      <trkpt lat="44.61244" lon="5.04181">
        <ele>340</ele>
      </trkpt>
      <trkpt lat="44.61162" lon="5.04141">
        <ele>339</ele>
      </trkpt>
      <trkpt lat="44.61106" lon="5.04122">
        <ele>338</ele>
      </trkpt>
      <trkpt lat="44.6105" lon="5.04122">
        <ele>334</ele>
      </trkpt>
      <trkpt lat="44.61009" lon="5.04118">
        <ele>334</ele>
      </trkpt>
      <trkpt lat="44.60976" lon="5.0411">
        <ele>338</ele>
      </trkpt>
      <trkpt lat="44.60957" lon="5.04097">
        <ele>338</ele>
      </trkpt>
      <trkpt lat="44.60934" lon="5.04063">
        <ele>344</ele>
      </trkpt>
      <trkpt lat="44.60911" lon="5.04046">
        <ele>347</ele>
      </trkpt>
      <trkpt lat="44.60861" lon="5.04029">
        <ele>344</ele>
      </trkpt>
      <trkpt lat="44.60812" lon="5.04017">
        <ele>349</ele>
      </trkpt>
      <trkpt lat="44.60781" lon="5.03996">
        <ele>353</ele>
      </trkpt>
      <trkpt lat="44.607" lon="5.03928">
        <ele>361</ele>
      </trkpt>
      <trkpt lat="44.60681" lon="5.03921">
        <ele>359</ele>
      </trkpt>
      <trkpt lat="44.60617" lon="5.03903">
        <ele>360</ele>
      </trkpt>
      <trkpt lat="44.60591" lon="5.03901">
        <ele>360</ele>
      </trkpt>
      <trkpt lat="44.60474" lon="5.03906">
        <ele>368</ele>
      </trkpt>
      <trkpt lat="44.6022" lon="5.03891">
        <ele>375</ele>
      </trkpt>
      <trkpt lat="44.60087" lon="5.03849">
        <ele>385</ele>
      </trkpt>
      <trkpt lat="44.60044" lon="5.03844">
        <ele>388</ele>
      </trkpt>
      <trkpt lat="44.60038" lon="5.03846">
        <ele>388</ele>
      </trkpt>
      <trkpt lat="44.59995" lon="5.03857">
        <ele>390</ele>
      </trkpt>
      <trkpt lat="44.59922" lon="5.03886">
        <ele>391</ele>
      </trkpt>
      <trkpt lat="44.59853" lon="5.03935">
        <ele>386</ele>
      </trkpt>
      <trkpt lat="44.59829" lon="5.03945">
        <ele>391</ele>
      </trkpt>
      <trkpt lat="44.59803" lon="5.0394">
        <ele>397</ele>
      </trkpt>
      <trkpt lat="44.59775" lon="5.03959">
        <ele>395</ele>
      </trkpt>
      <trkpt lat="44.59752" lon="5.03993">
        <ele>394</ele>
      </trkpt>
      <trkpt lat="44.59729" lon="5.04013">
        <ele>399</ele>
      </trkpt>
      <trkpt lat="44.59708" lon="5.0404">
        <ele>406</ele>
      </trkpt>
      <trkpt lat="44.59689" lon="5.04116">
        <ele>403</ele>
      </trkpt>
      <trkpt lat="44.59659" lon="5.04203">
        <ele>401</ele>
      </trkpt>
      <trkpt lat="44.59546" lon="5.04451">
        <ele>410</ele>
      </trkpt>
      <trkpt lat="44.59531" lon="5.0445">
        <ele>417</ele>
      </trkpt>
      <trkpt lat="44.59496" lon="5.04528">
        <ele>418</ele>
      </trkpt>
      <trkpt lat="44.59464" lon="5.04567">
        <ele>421</ele>
      </trkpt>
      <trkpt lat="44.59439" lon="5.04624">
        <ele>419</ele>
      </trkpt>
      <trkpt lat="44.59417" lon="5.04744">
        <ele>418</ele>
      </trkpt>
      <trkpt lat="44.59404" lon="5.04789">
        <ele>419</ele>
      </trkpt>
      <trkpt lat="44.59289" lon="5.05015">
        <ele>423</ele>
      </trkpt>
      <trkpt lat="44.59179" lon="5.05271">
        <ele>425</ele>
      </trkpt>
      <trkpt lat="44.59157" lon="5.05275">
        <ele>425</ele>
      </trkpt>
      <trkpt lat="44.58993" lon="5.05326">
        <ele>422</ele>
      </trkpt>
      <trkpt lat="44.58937" lon="5.05332">
        <ele>423</ele>
      </trkpt>
      <trkpt lat="44.58895" lon="5.05345">
        <ele>417</ele>
      </trkpt>
      <trkpt lat="44.5885" lon="5.05367">
        <ele>412</ele>
      </trkpt>
      <trkpt lat="44.58803" lon="5.05393">
        <ele>406</ele>
      </trkpt>
      <trkpt lat="44.58762" lon="5.05413">
        <ele>402</ele>
      </trkpt>
      <trkpt lat="44.58741" lon="5.05417">
        <ele>402</ele>
      </trkpt>
      <trkpt lat="44.58688" lon="5.0542">
        <ele>398</ele>
      </trkpt>
      <trkpt lat="44.58609" lon="5.0543">
        <ele>389</ele>
      </trkpt>
      <trkpt lat="44.58598" lon="5.05429">
        <ele>388</ele>
      </trkpt>
      <trkpt lat="44.58565" lon="5.05422">
        <ele>388</ele>
      </trkpt>
      <trkpt lat="44.58558" lon="5.05423">
        <ele>388</ele>
      </trkpt>
      <trkpt lat="44.58501" lon="5.05448">
        <ele>380</ele>
      </trkpt>
      <trkpt lat="44.58452" lon="5.05448">
        <ele>377</ele>
      </trkpt>
      <trkpt lat="44.58435" lon="5.05446">
        <ele>376</ele>
      </trkpt>
      <trkpt lat="44.58311" lon="5.05388">
        <ele>374</ele>
      </trkpt>
      <trkpt lat="44.58281" lon="5.05381">
        <ele>369</ele>
      </trkpt>
      <trkpt lat="44.5821" lon="5.05285">
        <ele>365</ele>
      </trkpt>
      <trkpt lat="44.58204" lon="5.05276">
        <ele>367</ele>
      </trkpt>
      <trkpt lat="44.582" lon="5.05266">
        <ele>367</ele>
      </trkpt>
      <trkpt lat="44.58194" lon="5.05231">
        <ele>370</ele>
      </trkpt>
      <trkpt lat="44.58191" lon="5.0522">
        <ele>370</ele>
      </trkpt>
      <trkpt lat="44.58142" lon="5.05128">
        <ele>363</ele>
      </trkpt>
      <trkpt lat="44.58137" lon="5.05113">
        <ele>364</ele>
      </trkpt>
      <trkpt lat="44.58134" lon="5.05088">
        <ele>367</ele>
      </trkpt>
      <trkpt lat="44.58136" lon="5.04973">
        <ele>385</ele>
      </trkpt>
      <trkpt lat="44.58142" lon="5.04896">
        <ele>381</ele>
      </trkpt>
      <trkpt lat="44.58153" lon="5.04834">
        <ele>374</ele>
      </trkpt>
      <trkpt lat="44.58141" lon="5.04524">
        <ele>362</ele>
      </trkpt>
      <trkpt lat="44.5814" lon="5.04509">
        <ele>361</ele>
      </trkpt>
      <trkpt lat="44.58136" lon="5.04506">
        <ele>361</ele>
      </trkpt>
      <trkpt lat="44.58118" lon="5.04501">
        <ele>355</ele>
      </trkpt>
      <trkpt lat="44.58111" lon="5.04495">
        <ele>354</ele>
      </trkpt>
      <trkpt lat="44.5811" lon="5.04478">
        <ele>354</ele>
      </trkpt>
      <trkpt lat="44.58111" lon="5.04452">
        <ele>353</ele>
      </trkpt>
      <trkpt lat="44.58113" lon="5.0444">
        <ele>353</ele>
      </trkpt>
      <trkpt lat="44.58123" lon="5.04425">
        <ele>353</ele>
      </trkpt>
      <trkpt lat="44.58153" lon="5.04391">
        <ele>354</ele>
      </trkpt>
      <trkpt lat="44.5817" lon="5.04362">
        <ele>354</ele>
      </trkpt>
      <trkpt lat="44.58194" lon="5.04275">
        <ele>354</ele>
      </trkpt>
      <trkpt lat="44.58201" lon="5.04215">
        <ele>351</ele>
      </trkpt>
      <trkpt lat="44.58213" lon="5.04145">
        <ele>355</ele>
      </trkpt>
      <trkpt lat="44.58244" lon="5.04025">
        <ele>347</ele>
      </trkpt>
      <trkpt lat="44.58248" lon="5.03998">
        <ele>347</ele>
      </trkpt>
      <trkpt lat="44.58247" lon="5.03974">
        <ele>347</ele>
      </trkpt>
      <trkpt lat="44.58231" lon="5.03927">
        <ele>342</ele>
      </trkpt>
      <trkpt lat="44.5823" lon="5.03903">
        <ele>341</ele>
      </trkpt>
      <trkpt lat="44.58231" lon="5.03833">
        <ele>343</ele>
      </trkpt>
      <trkpt lat="44.58229" lon="5.03821">
        <ele>342</ele>
      </trkpt>
      <trkpt lat="44.58213" lon="5.0378">
        <ele>341</ele>
      </trkpt>
      <trkpt lat="44.58214" lon="5.0376">
        <ele>339</ele>
      </trkpt>
      <trkpt lat="44.58217" lon="5.03732">
        <ele>338</ele>
      </trkpt>
      <trkpt lat="44.58217" lon="5.03699">
        <ele>338</ele>
      </trkpt>
      <trkpt lat="44.58201" lon="5.03634">
        <ele>336</ele>
      </trkpt>
      <trkpt lat="44.5819" lon="5.03621">
        <ele>336</ele>
      </trkpt>
      <trkpt lat="44.58175" lon="5.03611">
        <ele>335</ele>
      </trkpt>
      <trkpt lat="44.58146" lon="5.03599">
        <ele>335</ele>
      </trkpt>
      <trkpt lat="44.58112" lon="5.03579">
        <ele>334</ele>
      </trkpt>
      <trkpt lat="44.58084" lon="5.03555">
        <ele>332</ele>
      </trkpt>
      <trkpt lat="44.58067" lon="5.03538">
        <ele>335</ele>
      </trkpt>
      <trkpt lat="44.58041" lon="5.03505">
        <ele>338</ele>
      </trkpt>
      <trkpt lat="44.58034" lon="5.03485">
        <ele>334</ele>
      </trkpt>
      <trkpt lat="44.58033" lon="5.03464">
        <ele>332</ele>
      </trkpt>
      <trkpt lat="44.58034" lon="5.03445">
        <ele>332</ele>
      </trkpt>
      <trkpt lat="44.58041" lon="5.03418">
        <ele>332</ele>
      </trkpt>
      <trkpt lat="44.58065" lon="5.03372">
        <ele>328</ele>
      </trkpt>
      <trkpt lat="44.58064" lon="5.03358">
        <ele>329</ele>
      </trkpt>
      <trkpt lat="44.58046" lon="5.03325">
        <ele>329</ele>
      </trkpt>
      <trkpt lat="44.58016" lon="5.03257">
        <ele>327</ele>
      </trkpt>
      <trkpt lat="44.58006" lon="5.03224">
        <ele>327</ele>
      </trkpt>
      <trkpt lat="44.58004" lon="5.03201">
        <ele>328</ele>
      </trkpt>
      <trkpt lat="44.58006" lon="5.03181">
        <ele>329</ele>
      </trkpt>
      <trkpt lat="44.58025" lon="5.03039">
        <ele>325</ele>
      </trkpt>
      <trkpt lat="44.58067" lon="5.02707">
        <ele>308</ele>
      </trkpt>
      <trkpt lat="44.58089" lon="5.02603">
        <ele>303</ele>
      </trkpt>
      <trkpt lat="44.58138" lon="5.02399">
        <ele>296</ele>
      </trkpt>
      <trkpt lat="44.58183" lon="5.0219">
        <ele>291</ele>
      </trkpt>
      <trkpt lat="44.58233" lon="5.01943">
        <ele>292</ele>
      </trkpt>
      <trkpt lat="44.58277" lon="5.01751">
        <ele>285</ele>
      </trkpt>
      <trkpt lat="44.58284" lon="5.01728">
        <ele>284</ele>
      </trkpt>
      <trkpt lat="44.58346" lon="5.01415">
        <ele>279</ele>
      </trkpt>
      <trkpt lat="44.58368" lon="5.01374">
        <ele>277</ele>
      </trkpt>
      <trkpt lat="44.58406" lon="5.0131">
        <ele>274</ele>
      </trkpt>
      <trkpt lat="44.58519" lon="5.0119">
        <ele>267</ele>
      </trkpt>
      <trkpt lat="44.58547" lon="5.01145">
        <ele>267</ele>
      </trkpt>
      <trkpt lat="44.58581" lon="5.01024">
        <ele>264</ele>
      </trkpt>
      <trkpt lat="44.58625" lon="5.00894">
        <ele>262</ele>
      </trkpt>
      <trkpt lat="44.58702" lon="5.00713">
        <ele>258</ele>
      </trkpt>
      <trkpt lat="44.5872" lon="5.00659">
        <ele>258</ele>
      </trkpt>
      <trkpt lat="44.58724" lon="5.00623">
        <ele>258</ele>
      </trkpt>
      <trkpt lat="44.58728" lon="5.00511">
        <ele>254</ele>
      </trkpt>
      <trkpt lat="44.5875" lon="5.00426">
        <ele>256</ele>
      </trkpt>
      <trkpt lat="44.58802" lon="5.00287">
        <ele>255</ele>
      </trkpt>
      <trkpt lat="44.58804" lon="5.00201">
        <ele>252</ele>
      </trkpt>
      <trkpt lat="44.58804" lon="5.00128">
        <ele>253</ele>
      </trkpt>
      <trkpt lat="44.58829" lon="5.00004">
        <ele>252</ele>
      </trkpt>
      <trkpt lat="44.58847" lon="4.99892">
        <ele>249</ele>
      </trkpt>
      <trkpt lat="44.58887" lon="4.99796">
        <ele>248</ele>
      </trkpt>
      <trkpt lat="44.58606" lon="4.99698">
        <ele>254</ele>
      </trkpt>
      <trkpt lat="44.5858" lon="4.99683">
        <ele>255</ele>
      </trkpt>
      <trkpt lat="44.58565" lon="4.9967">
        <ele>255</ele>
      </trkpt>
      <trkpt lat="44.58541" lon="4.99621">
        <ele>254</ele>
      </trkpt>
      <trkpt lat="44.58443" lon="4.99444">
        <ele>262</ele>
      </trkpt>
      <trkpt lat="44.58375" lon="4.99477">
        <ele>266</ele>
      </trkpt>
      <trkpt lat="44.58351" lon="4.99486">
        <ele>266</ele>
      </trkpt>
      <trkpt lat="44.58313" lon="4.99493">
        <ele>270</ele>
      </trkpt>
      <trkpt lat="44.58294" lon="4.995">
        <ele>270</ele>
      </trkpt>
      <trkpt lat="44.58264" lon="4.99519">
        <ele>271</ele>
      </trkpt>
      <trkpt lat="44.5823" lon="4.99531">
        <ele>272</ele>
      </trkpt>
      <trkpt lat="44.58197" lon="4.99537">
        <ele>271</ele>
      </trkpt>
      <trkpt lat="44.58149" lon="4.99561">
        <ele>273</ele>
      </trkpt>
      <trkpt lat="44.58137" lon="4.99563">
        <ele>273</ele>
      </trkpt>
      <trkpt lat="44.58108" lon="4.99559">
        <ele>274</ele>
      </trkpt>
      <trkpt lat="44.58061" lon="4.99548">
        <ele>278</ele>
      </trkpt>
      <trkpt lat="44.58032" lon="4.99536">
        <ele>279</ele>
      </trkpt>
      <trkpt lat="44.58014" lon="4.99529">
        <ele>280</ele>
      </trkpt>
      <trkpt lat="44.57952" lon="4.99515">
        <ele>281</ele>
      </trkpt>
      <trkpt lat="44.57908" lon="4.995">
        <ele>281</ele>
      </trkpt>
      <trkpt lat="44.57877" lon="4.99474">
        <ele>283</ele>
      </trkpt>
      <trkpt lat="44.57864" lon="4.99457">
        <ele>283</ele>
      </trkpt>
      <trkpt lat="44.57856" lon="4.99434">
        <ele>284</ele>
      </trkpt>
      <trkpt lat="44.57822" lon="4.99308">
        <ele>291</ele>
      </trkpt>
      <trkpt lat="44.57803" lon="4.99291">
        <ele>293</ele>
      </trkpt>
      <trkpt lat="44.57753" lon="4.99265">
        <ele>294</ele>
      </trkpt>
      <trkpt lat="44.57712" lon="4.9925">
        <ele>296</ele>
      </trkpt>
      <trkpt lat="44.5762" lon="4.99197">
        <ele>304</ele>
      </trkpt>
      <trkpt lat="44.57593" lon="4.99193">
        <ele>305</ele>
      </trkpt>
      <trkpt lat="44.57564" lon="4.99196">
        <ele>309</ele>
      </trkpt>
      <trkpt lat="44.57517" lon="4.99193">
        <ele>310</ele>
      </trkpt>
      <trkpt lat="44.57464" lon="4.99181">
        <ele>311</ele>
      </trkpt>
      <trkpt lat="44.57212" lon="4.99149">
        <ele>319</ele>
      </trkpt>
      <trkpt lat="44.57206" lon="4.99141">
        <ele>320</ele>
      </trkpt>
      <trkpt lat="44.57222" lon="4.99122">
        <ele>320</ele>
      </trkpt>
      <trkpt lat="44.5725" lon="4.99075">
        <ele>318</ele>
      </trkpt>
      <trkpt lat="44.57322" lon="4.9897">
        <ele>320</ele>
      </trkpt>
      <trkpt lat="44.57342" lon="4.98937">
        <ele>319</ele>
      </trkpt>
      <trkpt lat="44.57355" lon="4.98905">
        <ele>320</ele>
      </trkpt>
      <trkpt lat="44.57363" lon="4.98881">
        <ele>318</ele>
      </trkpt>
      <trkpt lat="44.57372" lon="4.98841">
        <ele>315</ele>
      </trkpt>
      <trkpt lat="44.57378" lon="4.98815">
        <ele>314</ele>
      </trkpt>
      <trkpt lat="44.57379" lon="4.98793">
        <ele>311</ele>
      </trkpt>
      <trkpt lat="44.57379" lon="4.98766">
        <ele>308</ele>
      </trkpt>
      <trkpt lat="44.57372" lon="4.98687">
        <ele>298</ele>
      </trkpt>
      <trkpt lat="44.57377" lon="4.98592">
        <ele>296</ele>
      </trkpt>
      <trkpt lat="44.57372" lon="4.98547">
        <ele>294</ele>
      </trkpt>
      <trkpt lat="44.57357" lon="4.98475">
        <ele>292</ele>
      </trkpt>
      <trkpt lat="44.57356" lon="4.98458">
        <ele>292</ele>
      </trkpt>
      <trkpt lat="44.5736" lon="4.9843">
        <ele>291</ele>
      </trkpt>
      <trkpt lat="44.57365" lon="4.98419">
        <ele>291</ele>
      </trkpt>
      <trkpt lat="44.57415" lon="4.98327">
        <ele>287</ele>
      </trkpt>
      <trkpt lat="44.57436" lon="4.98296">
        <ele>285</ele>
      </trkpt>
      <trkpt lat="44.57458" lon="4.98269">
        <ele>284</ele>
      </trkpt>
      <trkpt lat="44.57541" lon="4.9819">
        <ele>277</ele>
      </trkpt>
      <trkpt lat="44.57584" lon="4.98125">
        <ele>275</ele>
      </trkpt>
      <trkpt lat="44.57622" lon="4.98075">
        <ele>274</ele>
      </trkpt>
      <trkpt lat="44.57631" lon="4.98058">
        <ele>275</ele>
      </trkpt>
      <trkpt lat="44.57636" lon="4.98031">
        <ele>273</ele>
      </trkpt>
      <trkpt lat="44.57634" lon="4.98017">
        <ele>272</ele>
      </trkpt>
      <trkpt lat="44.57626" lon="4.97989">
        <ele>270</ele>
      </trkpt>
      <trkpt lat="44.57621" lon="4.97958">
        <ele>269</ele>
      </trkpt>
      <trkpt lat="44.57619" lon="4.9794">
        <ele>269</ele>
      </trkpt>
      <trkpt lat="44.5762" lon="4.97925">
        <ele>269</ele>
      </trkpt>
      <trkpt lat="44.57636" lon="4.97802">
        <ele>269</ele>
      </trkpt>
      <trkpt lat="44.5764" lon="4.97788">
        <ele>269</ele>
      </trkpt>
      <trkpt lat="44.57646" lon="4.97779">
        <ele>268</ele>
      </trkpt>
      <trkpt lat="44.57604" lon="4.97704">
        <ele>267</ele>
      </trkpt>
      <trkpt lat="44.57595" lon="4.9769">
        <ele>267</ele>
      </trkpt>
      <trkpt lat="44.57554" lon="4.97627">
        <ele>267</ele>
      </trkpt>
      <trkpt lat="44.57546" lon="4.97621">
        <ele>267</ele>
      </trkpt>
      <trkpt lat="44.57212" lon="4.97281">
        <ele>261</ele>
      </trkpt>
      <trkpt lat="44.57168" lon="4.97222">
        <ele>260</ele>
      </trkpt>
      <trkpt lat="44.57112" lon="4.97121">
        <ele>261</ele>
      </trkpt>
      <trkpt lat="44.56982" lon="4.96895">
        <ele>270</ele>
      </trkpt>
      <trkpt lat="44.56938" lon="4.9683">
        <ele>267</ele>
      </trkpt>
      <trkpt lat="44.56921" lon="4.96821">
        <ele>268</ele>
      </trkpt>
      <trkpt lat="44.56766" lon="4.96778">
        <ele>276</ele>
      </trkpt>
      <trkpt lat="44.5675" lon="4.96774">
        <ele>277</ele>
      </trkpt>
      <trkpt lat="44.56711" lon="4.96758">
        <ele>278</ele>
      </trkpt>
      <trkpt lat="44.56683" lon="4.96729">
        <ele>279</ele>
      </trkpt>
      <trkpt lat="44.56636" lon="4.96669">
        <ele>282</ele>
      </trkpt>
      <trkpt lat="44.56547" lon="4.96563">
        <ele>282</ele>
      </trkpt>
      <trkpt lat="44.56527" lon="4.96545">
        <ele>281</ele>
      </trkpt>
      <trkpt lat="44.56516" lon="4.96538">
        <ele>281</ele>
      </trkpt>
      <trkpt lat="44.56503" lon="4.96534">
        <ele>281</ele>
      </trkpt>
      <trkpt lat="44.56484" lon="4.96533">
        <ele>281</ele>
      </trkpt>
      <trkpt lat="44.56435" lon="4.9654">
        <ele>279</ele>
      </trkpt>
      <trkpt lat="44.56413" lon="4.96539">
        <ele>278</ele>
      </trkpt>
      <trkpt lat="44.56394" lon="4.96538">
        <ele>276</ele>
      </trkpt>
      <trkpt lat="44.56379" lon="4.96533">
        <ele>276</ele>
      </trkpt>
      <trkpt lat="44.56367" lon="4.96527">
        <ele>275</ele>
      </trkpt>
      <trkpt lat="44.5635" lon="4.96511">
        <ele>274</ele>
      </trkpt>
      <trkpt lat="44.56344" lon="4.96501">
        <ele>273</ele>
      </trkpt>
      <trkpt lat="44.56312" lon="4.96413">
        <ele>269</ele>
      </trkpt>
      <trkpt lat="44.56307" lon="4.96402">
        <ele>268</ele>
      </trkpt>
      <trkpt lat="44.56299" lon="4.96394">
        <ele>268</ele>
      </trkpt>
      <trkpt lat="44.56288" lon="4.96384">
        <ele>267</ele>
      </trkpt>
      <trkpt lat="44.56249" lon="4.96365">
        <ele>268</ele>
      </trkpt>
      <trkpt lat="44.56201" lon="4.96356">
        <ele>268</ele>
      </trkpt>
      <trkpt lat="44.5618" lon="4.96348">
        <ele>267</ele>
      </trkpt>
      <trkpt lat="44.56158" lon="4.96336">
        <ele>266</ele>
      </trkpt>
      <trkpt lat="44.56134" lon="4.96314">
        <ele>264</ele>
      </trkpt>
      <trkpt lat="44.56074" lon="4.96239">
        <ele>266</ele>
      </trkpt>
      <trkpt lat="44.5606" lon="4.96213">
        <ele>266</ele>
      </trkpt>
      <trkpt lat="44.56034" lon="4.96152">
        <ele>264</ele>
      </trkpt>
      <trkpt lat="44.56025" lon="4.96133">
        <ele>263</ele>
      </trkpt>
      <trkpt lat="44.56017" lon="4.96121">
        <ele>263</ele>
      </trkpt>
      <trkpt lat="44.55999" lon="4.96103">
        <ele>264</ele>
      </trkpt>
      <trkpt lat="44.55979" lon="4.96088">
        <ele>264</ele>
      </trkpt>
      <trkpt lat="44.55957" lon="4.96078">
        <ele>263</ele>
      </trkpt>
      <trkpt lat="44.55939" lon="4.96074">
        <ele>263</ele>
      </trkpt>
      <trkpt lat="44.55908" lon="4.96075">
        <ele>263</ele>
      </trkpt>
      <trkpt lat="44.55862" lon="4.96084">
        <ele>268</ele>
      </trkpt>
      <trkpt lat="44.55823" lon="4.96101">
        <ele>269</ele>
      </trkpt>
      <trkpt lat="44.55727" lon="4.96167">
        <ele>268</ele>
      </trkpt>
      <trkpt lat="44.55677" lon="4.96207">
        <ele>268</ele>
      </trkpt>
      <trkpt lat="44.5564" lon="4.96234">
        <ele>266</ele>
      </trkpt>
      <trkpt lat="44.55613" lon="4.9625">
        <ele>267</ele>
      </trkpt>
      <trkpt lat="44.55069" lon="4.96426">
        <ele>296</ele>
      </trkpt>
      <trkpt lat="44.55027" lon="4.96441">
        <ele>296</ele>
      </trkpt>
      <trkpt lat="44.55017" lon="4.96445">
        <ele>299</ele>
      </trkpt>
      <trkpt lat="44.54998" lon="4.96449">
        <ele>300</ele>
      </trkpt>
      <trkpt lat="44.54986" lon="4.96449">
        <ele>303</ele>
      </trkpt>
      <trkpt lat="44.54978" lon="4.96446">
        <ele>303</ele>
      </trkpt>
      <trkpt lat="44.54951" lon="4.96422">
        <ele>306</ele>
      </trkpt>
      <trkpt lat="44.54931" lon="4.964">
        <ele>309</ele>
      </trkpt>
      <trkpt lat="44.54912" lon="4.96385">
        <ele>311</ele>
      </trkpt>
      <trkpt lat="44.54878" lon="4.96373">
        <ele>310</ele>
      </trkpt>
      <trkpt lat="44.54724" lon="4.96324">
        <ele>300</ele>
      </trkpt>
      <trkpt lat="44.54711" lon="4.96313">
        <ele>300</ele>
      </trkpt>
      <trkpt lat="44.5465" lon="4.96248">
        <ele>295</ele>
      </trkpt>
      <trkpt lat="44.54629" lon="4.96229">
        <ele>295</ele>
      </trkpt>
      <trkpt lat="44.54598" lon="4.96205">
        <ele>293</ele>
      </trkpt>
      <trkpt lat="44.54578" lon="4.96193">
        <ele>291</ele>
      </trkpt>
      <trkpt lat="44.54558" lon="4.96187">
        <ele>291</ele>
      </trkpt>
      <trkpt lat="44.54507" lon="4.96181">
        <ele>291</ele>
      </trkpt>
      <trkpt lat="44.54458" lon="4.96173">
        <ele>291</ele>
      </trkpt>
      <trkpt lat="44.54429" lon="4.96166">
        <ele>289</ele>
      </trkpt>
      <trkpt lat="44.54325" lon="4.96119">
        <ele>281</ele>
      </trkpt>
      <trkpt lat="44.54301" lon="4.96099">
        <ele>279</ele>
      </trkpt>
      <trkpt lat="44.54262" lon="4.96061">
        <ele>276</ele>
      </trkpt>
      <trkpt lat="44.54184" lon="4.95977">
        <ele>270</ele>
      </trkpt>
      <trkpt lat="44.54126" lon="4.95952">
        <ele>269</ele>
      </trkpt>
      <trkpt lat="44.54117" lon="4.95952">
        <ele>269</ele>
      </trkpt>
      <trkpt lat="44.54106" lon="4.95959">
        <ele>269</ele>
      </trkpt>
      <trkpt lat="44.54059" lon="4.96059">
        <ele>265</ele>
      </trkpt>
      <trkpt lat="44.54017" lon="4.96116">
        <ele>262</ele>
      </trkpt>
      <trkpt lat="44.53912" lon="4.96198">
        <ele>255</ele>
      </trkpt>
      <trkpt lat="44.53865" lon="4.96229">
        <ele>258</ele>
      </trkpt>
      <trkpt lat="44.53855" lon="4.96223">
        <ele>256</ele>
      </trkpt>
      <trkpt lat="44.53851" lon="4.96211">
        <ele>251</ele>
      </trkpt>
      <trkpt lat="44.53875" lon="4.96104">
        <ele>237</ele>
      </trkpt>
      <trkpt lat="44.53898" lon="4.96042">
        <ele>238</ele>
      </trkpt>
      <trkpt lat="44.53899" lon="4.96022">
        <ele>238</ele>
      </trkpt>
      <trkpt lat="44.53884" lon="4.96">
        <ele>237</ele>
      </trkpt>
      <trkpt lat="44.53882" lon="4.95997">
        <ele>237</ele>
      </trkpt>
      <trkpt lat="44.53872" lon="4.96018">
        <ele>237</ele>
      </trkpt>
      <trkpt lat="44.5386" lon="4.96058">
        <ele>236</ele>
      </trkpt>
      <trkpt lat="44.53855" lon="4.96096">
        <ele>236</ele>
      </trkpt>
      <trkpt lat="44.53843" lon="4.96165">
        <ele>239</ele>
      </trkpt>
      <trkpt lat="44.53831" lon="4.9621">
        <ele>247</ele>
      </trkpt>
      <trkpt lat="44.53808" lon="4.96252">
        <ele>252</ele>
      </trkpt>
      <trkpt lat="44.53782" lon="4.96282">
        <ele>252</ele>
      </trkpt>
      <trkpt lat="44.53757" lon="4.96306">
        <ele>251</ele>
      </trkpt>
      <trkpt lat="44.53705" lon="4.96346">
        <ele>247</ele>
      </trkpt>
      <trkpt lat="44.53658" lon="4.96377">
        <ele>249</ele>
      </trkpt>
      <trkpt lat="44.53575" lon="4.96411">
        <ele>246</ele>
      </trkpt>
      <trkpt lat="44.53536" lon="4.96433">
        <ele>245</ele>
      </trkpt>
      <trkpt lat="44.53511" lon="4.96454">
        <ele>245</ele>
      </trkpt>
      <trkpt lat="44.53486" lon="4.96488">
        <ele>248</ele>
      </trkpt>
      <trkpt lat="44.53446" lon="4.96547">
        <ele>253</ele>
      </trkpt>
      <trkpt lat="44.53417" lon="4.96584">
        <ele>259</ele>
      </trkpt>
      <trkpt lat="44.53398" lon="4.96602">
        <ele>255</ele>
      </trkpt>
      <trkpt lat="44.53179" lon="4.9672">
        <ele>259</ele>
      </trkpt>
      <trkpt lat="44.53154" lon="4.96741">
        <ele>265</ele>
      </trkpt>
      <trkpt lat="44.53139" lon="4.96757">
        <ele>270</ele>
      </trkpt>
      <trkpt lat="44.53119" lon="4.96782">
        <ele>270</ele>
      </trkpt>
      <trkpt lat="44.53095" lon="4.96819">
        <ele>269</ele>
      </trkpt>
      <trkpt lat="44.53044" lon="4.96744">
        <ele>255</ele>
      </trkpt>
      <trkpt lat="44.53017" lon="4.96706">
        <ele>258</ele>
      </trkpt>
      <trkpt lat="44.53006" lon="4.96693">
        <ele>262</ele>
      </trkpt>
      <trkpt lat="44.52986" lon="4.96697">
        <ele>261</ele>
      </trkpt>
      <trkpt lat="44.52905" lon="4.96741">
        <ele>263</ele>
      </trkpt>
      <trkpt lat="44.5289" lon="4.96734">
        <ele>267</ele>
      </trkpt>
      <trkpt lat="44.5285" lon="4.96725">
        <ele>268</ele>
        <extensions>
          <visugpx:TrkExtension xmlns:visugpx="https://www.visugpx.com/editgpx/">
            <visugpx:node>1</visugpx:node>
            </visugpx:TrkExtension>
        </extensions>
      </trkpt>
    </trkseg>
  </trk>
  <trk>
    <name><![CDATA[Souspierre_8]]></name>
    <extensions>
      <line xmlns="http://www.topografix.com/GPX/gpx_style/0/2">
        <color>0000FF</color>
        <width>4</width>
      </line>
    </extensions>
    <trkseg>
      <trkpt lat="44.52848" lon="4.96769">
        <ele>262</ele>
      </trkpt>
      <trkpt lat="44.52986" lon="4.96697">
        <ele>261</ele>
      </trkpt>
      <trkpt lat="44.53006" lon="4.96693">
        <ele>262</ele>
      </trkpt>
      <trkpt lat="44.53017" lon="4.96706">
        <ele>258</ele>
      </trkpt>
      <trkpt lat="44.53044" lon="4.96744">
        <ele>255</ele>
      </trkpt>
      <trkpt lat="44.53095" lon="4.96819">
        <ele>269</ele>
      </trkpt>
      <trkpt lat="44.53119" lon="4.96782">
        <ele>270</ele>
      </trkpt>
      <trkpt lat="44.53139" lon="4.96757">
        <ele>270</ele>
      </trkpt>
      <trkpt lat="44.53154" lon="4.96741">
        <ele>265</ele>
      </trkpt>
      <trkpt lat="44.53179" lon="4.9672">
        <ele>259</ele>
      </trkpt>
      <trkpt lat="44.53398" lon="4.96602">
        <ele>255</ele>
      </trkpt>
      <trkpt lat="44.53417" lon="4.96584">
        <ele>259</ele>
      </trkpt>
      <trkpt lat="44.53446" lon="4.96547">
        <ele>253</ele>
      </trkpt>
      <trkpt lat="44.53486" lon="4.96488">
        <ele>248</ele>
      </trkpt>
      <trkpt lat="44.53511" lon="4.96454">
        <ele>245</ele>
      </trkpt>
      <trkpt lat="44.53536" lon="4.96433">
        <ele>245</ele>
      </trkpt>
      <trkpt lat="44.53575" lon="4.96411">
        <ele>246</ele>
      </trkpt>
      <trkpt lat="44.53658" lon="4.96377">
        <ele>249</ele>
      </trkpt>
      <trkpt lat="44.53705" lon="4.96346">
        <ele>247</ele>
      </trkpt>
      <trkpt lat="44.53757" lon="4.96306">
        <ele>251</ele>
      </trkpt>
      <trkpt lat="44.53782" lon="4.96282">
        <ele>252</ele>
      </trkpt>
      <trkpt lat="44.53808" lon="4.96252">
        <ele>252</ele>
      </trkpt>
      <trkpt lat="44.53831" lon="4.9621">
        <ele>247</ele>
      </trkpt>
      <trkpt lat="44.53843" lon="4.96165">
        <ele>239</ele>
      </trkpt>
      <trkpt lat="44.53855" lon="4.96096">
        <ele>236</ele>
      </trkpt>
      <trkpt lat="44.53872" lon="4.96038">
        <ele>236</ele>
      </trkpt>
      <trkpt lat="44.53886" lon="4.96003">
        <ele>237</ele>
      </trkpt>
      <trkpt lat="44.53992" lon="4.9583">
        <ele>240</ele>
      </trkpt>
      <trkpt lat="44.54038" lon="4.95746">
        <ele>238</ele>
      </trkpt>
      <trkpt lat="44.54053" lon="4.95714">
        <ele>240</ele>
      </trkpt>
      <trkpt lat="44.54063" lon="4.9569">
        <ele>237</ele>
      </trkpt>
      <trkpt lat="44.54079" lon="4.9563">
        <ele>235</ele>
      </trkpt>
      <trkpt lat="44.5409" lon="4.9557">
        <ele>234</ele>
      </trkpt>
      <trkpt lat="44.54094" lon="4.95539">
        <ele>235</ele>
      </trkpt>
      <trkpt lat="44.5409" lon="4.95438">
        <ele>235</ele>
      </trkpt>
      <trkpt lat="44.54093" lon="4.95414">
        <ele>234</ele>
      </trkpt>
      <trkpt lat="44.54105" lon="4.95379">
        <ele>235</ele>
      </trkpt>
      <trkpt lat="44.54201" lon="4.95222">
        <ele>243</ele>
      </trkpt>
      <trkpt lat="44.5421" lon="4.95199">
        <ele>246</ele>
      </trkpt>
      <trkpt lat="44.54215" lon="4.95175">
        <ele>242</ele>
      </trkpt>
      <trkpt lat="44.54226" lon="4.94991">
        <ele>233</ele>
      </trkpt>
      <trkpt lat="44.54252" lon="4.94831">
        <ele>231</ele>
      </trkpt>
      <trkpt lat="44.5427" lon="4.94745">
        <ele>228</ele>
      </trkpt>
      <trkpt lat="44.54285" lon="4.94701">
        <ele>228</ele>
      </trkpt>
      <trkpt lat="44.54329" lon="4.94611">
        <ele>229</ele>
      </trkpt>
      <trkpt lat="44.54336" lon="4.94593">
        <ele>229</ele>
      </trkpt>
      <trkpt lat="44.54339" lon="4.9456">
        <ele>229</ele>
      </trkpt>
      <trkpt lat="44.54323" lon="4.944">
        <ele>224</ele>
      </trkpt>
      <trkpt lat="44.54358" lon="4.94151">
        <ele>220</ele>
      </trkpt>
      <trkpt lat="44.54382" lon="4.94069">
        <ele>220</ele>
      </trkpt>
      <trkpt lat="44.54391" lon="4.94031">
        <ele>219</ele>
      </trkpt>
      <trkpt lat="44.54411" lon="4.93929">
        <ele>220</ele>
      </trkpt>
      <trkpt lat="44.54451" lon="4.93722">
        <ele>229</ele>
      </trkpt>
      <trkpt lat="44.54468" lon="4.93609">
        <ele>222</ele>
      </trkpt>
      <trkpt lat="44.54467" lon="4.9357">
        <ele>222</ele>
      </trkpt>
      <trkpt lat="44.5447" lon="4.9353">
        <ele>222</ele>
      </trkpt>
      <trkpt lat="44.54475" lon="4.93513">
        <ele>222</ele>
      </trkpt>
      <trkpt lat="44.54478" lon="4.93508">
        <ele>222</ele>
      </trkpt>
      <trkpt lat="44.54478" lon="4.93503">
        <ele>222</ele>
      </trkpt>
      <trkpt lat="44.54475" lon="4.93499">
        <ele>222</ele>
      </trkpt>
      <trkpt lat="44.5447" lon="4.93499">
        <ele>221</ele>
      </trkpt>
      <trkpt lat="44.54468" lon="4.935">
        <ele>221</ele>
      </trkpt>
      <trkpt lat="44.5444" lon="4.93501">
        <ele>219</ele>
      </trkpt>
      <trkpt lat="44.54347" lon="4.93484">
        <ele>214</ele>
      </trkpt>
      <trkpt lat="44.54313" lon="4.93475">
        <ele>214</ele>
      </trkpt>
      <trkpt lat="44.53809" lon="4.93365">
        <ele>226</ele>
      </trkpt>
      <trkpt lat="44.53045" lon="4.93202">
        <ele>249</ele>
      </trkpt>
      <trkpt lat="44.53008" lon="4.93211">
        <ele>252</ele>
      </trkpt>
      <trkpt lat="44.52836" lon="4.9335">
        <ele>264</ele>
      </trkpt>
      <trkpt lat="44.52732" lon="4.93436">
        <ele>273</ele>
      </trkpt>
      <trkpt lat="44.52624" lon="4.93499">
        <ele>275</ele>
      </trkpt>
      <trkpt lat="44.52332" lon="4.93663">
        <ele>291</ele>
      </trkpt>
      <trkpt lat="44.52316" lon="4.93678">
        <ele>294</ele>
      </trkpt>
      <trkpt lat="44.523" lon="4.93709">
        <ele>299</ele>
      </trkpt>
      <trkpt lat="44.52294" lon="4.93714">
        <ele>299</ele>
      </trkpt>
      <trkpt lat="44.52282" lon="4.93713">
        <ele>298</ele>
      </trkpt>
      <trkpt lat="44.52259" lon="4.93699">
        <ele>298</ele>
      </trkpt>
      <trkpt lat="44.52245" lon="4.93695">
        <ele>298</ele>
      </trkpt>
      <trkpt lat="44.52196" lon="4.93701">
        <ele>303</ele>
      </trkpt>
      <trkpt lat="44.52185" lon="4.93698">
        <ele>303</ele>
      </trkpt>
      <trkpt lat="44.52138" lon="4.93652">
        <ele>289</ele>
      </trkpt>
      <trkpt lat="44.52126" lon="4.93648">
        <ele>291</ele>
      </trkpt>
      <trkpt lat="44.52062" lon="4.9366">
        <ele>303</ele>
      </trkpt>
      <trkpt lat="44.52007" lon="4.93665">
        <ele>306</ele>
      </trkpt>
      <trkpt lat="44.51957" lon="4.93688">
        <ele>306</ele>
      </trkpt>
      <trkpt lat="44.51896" lon="4.93719">
        <ele>308</ele>
      </trkpt>
      <trkpt lat="44.51882" lon="4.93735">
        <ele>312</ele>
      </trkpt>
      <trkpt lat="44.51869" lon="4.93766">
        <ele>313</ele>
      </trkpt>
      <trkpt lat="44.51834" lon="4.93931">
        <ele>325</ele>
      </trkpt>
      <trkpt lat="44.51835" lon="4.93979">
        <ele>324</ele>
      </trkpt>
      <trkpt lat="44.51833" lon="4.93994">
        <ele>324</ele>
      </trkpt>
      <trkpt lat="44.51825" lon="4.9401">
        <ele>322</ele>
      </trkpt>
      <trkpt lat="44.51815" lon="4.94024">
        <ele>318</ele>
      </trkpt>
      <trkpt lat="44.51746" lon="4.9408">
        <ele>324</ele>
      </trkpt>
      <trkpt lat="44.51738" lon="4.94081">
        <ele>323</ele>
      </trkpt>
      <trkpt lat="44.5173" lon="4.94078">
        <ele>324</ele>
      </trkpt>
      <trkpt lat="44.51728" lon="4.94074">
        <ele>323</ele>
      </trkpt>
      <trkpt lat="44.51724" lon="4.94055">
        <ele>323</ele>
      </trkpt>
      <trkpt lat="44.51729" lon="4.94043">
        <ele>324</ele>
      </trkpt>
      <trkpt lat="44.51762" lon="4.94003">
        <ele>322</ele>
      </trkpt>
      <trkpt lat="44.51768" lon="4.93991">
        <ele>319</ele>
      </trkpt>
      <trkpt lat="44.51771" lon="4.93977">
        <ele>319</ele>
      </trkpt>
      <trkpt lat="44.51769" lon="4.93898">
        <ele>318</ele>
      </trkpt>
      <trkpt lat="44.51764" lon="4.93833">
        <ele>321</ele>
      </trkpt>
      <trkpt lat="44.51758" lon="4.93818">
        <ele>319</ele>
      </trkpt>
      <trkpt lat="44.5175" lon="4.93808">
        <ele>319</ele>
      </trkpt>
      <trkpt lat="44.51739" lon="4.93803">
        <ele>317</ele>
      </trkpt>
      <trkpt lat="44.51641" lon="4.93784">
        <ele>328</ele>
      </trkpt>
      <trkpt lat="44.51596" lon="4.9378">
        <ele>336</ele>
      </trkpt>
      <trkpt lat="44.51571" lon="4.93774">
        <ele>330</ele>
      </trkpt>
      <trkpt lat="44.5149" lon="4.93738">
        <ele>333</ele>
      </trkpt>
      <trkpt lat="44.5145" lon="4.93736">
        <ele>340</ele>
      </trkpt>
      <trkpt lat="44.51283" lon="4.93779">
        <ele>359</ele>
      </trkpt>
      <trkpt lat="44.51214" lon="4.93782">
        <ele>359</ele>
      </trkpt>
      <trkpt lat="44.51132" lon="4.93772">
        <ele>354</ele>
      </trkpt>
      <trkpt lat="44.51097" lon="4.93775">
        <ele>357</ele>
      </trkpt>
      <trkpt lat="44.50967" lon="4.93811">
        <ele>377</ele>
      </trkpt>
      <trkpt lat="44.5096" lon="4.93811">
        <ele>378</ele>
      </trkpt>
      <trkpt lat="44.50952" lon="4.93809">
        <ele>380</ele>
      </trkpt>
      <trkpt lat="44.50943" lon="4.93797">
        <ele>376</ele>
      </trkpt>
      <trkpt lat="44.50942" lon="4.93784">
        <ele>375</ele>
      </trkpt>
      <trkpt lat="44.50946" lon="4.93757">
        <ele>368</ele>
      </trkpt>
      <trkpt lat="44.50946" lon="4.93743">
        <ele>362</ele>
      </trkpt>
      <trkpt lat="44.50941" lon="4.93731">
        <ele>361</ele>
      </trkpt>
      <trkpt lat="44.50929" lon="4.93722">
        <ele>364</ele>
      </trkpt>
      <trkpt lat="44.50915" lon="4.93717">
        <ele>360</ele>
      </trkpt>
      <trkpt lat="44.50896" lon="4.93719">
        <ele>363</ele>
      </trkpt>
      <trkpt lat="44.50883" lon="4.93726">
        <ele>368</ele>
      </trkpt>
      <trkpt lat="44.50839" lon="4.93796">
        <ele>380</ele>
      </trkpt>
      <trkpt lat="44.50807" lon="4.93825">
        <ele>384</ele>
      </trkpt>
      <trkpt lat="44.50773" lon="4.93847">
        <ele>387</ele>
      </trkpt>
      <trkpt lat="44.50734" lon="4.93858">
        <ele>383</ele>
      </trkpt>
      <trkpt lat="44.50703" lon="4.93862">
        <ele>388</ele>
      </trkpt>
      <trkpt lat="44.50685" lon="4.93867">
        <ele>389</ele>
      </trkpt>
      <trkpt lat="44.5067" lon="4.93877">
        <ele>389</ele>
      </trkpt>
      <trkpt lat="44.50617" lon="4.93922">
        <ele>401</ele>
      </trkpt>
      <trkpt lat="44.50569" lon="4.93968">
        <ele>401</ele>
      </trkpt>
      <trkpt lat="44.50484" lon="4.94075">
        <ele>411</ele>
      </trkpt>
      <trkpt lat="44.50468" lon="4.9409">
        <ele>417</ele>
      </trkpt>
      <trkpt lat="44.50448" lon="4.94103">
        <ele>414</ele>
      </trkpt>
      <trkpt lat="44.50315" lon="4.94147">
        <ele>414</ele>
      </trkpt>
      <trkpt lat="44.50293" lon="4.94158">
        <ele>414</ele>
      </trkpt>
      <trkpt lat="44.50276" lon="4.94175">
        <ele>417</ele>
      </trkpt>
      <trkpt lat="44.50249" lon="4.94217">
        <ele>420</ele>
      </trkpt>
      <trkpt lat="44.50236" lon="4.94226">
        <ele>422</ele>
      </trkpt>
      <trkpt lat="44.50221" lon="4.94226">
        <ele>422</ele>
      </trkpt>
      <trkpt lat="44.49984" lon="4.94075">
        <ele>431</ele>
      </trkpt>
      <trkpt lat="44.49968" lon="4.94054">
        <ele>432</ele>
      </trkpt>
      <trkpt lat="44.49964" lon="4.94028">
        <ele>432</ele>
      </trkpt>
      <trkpt lat="44.49969" lon="4.93944">
        <ele>434</ele>
      </trkpt>
      <trkpt lat="44.49986" lon="4.93758">
        <ele>444</ele>
      </trkpt>
      <trkpt lat="44.49995" lon="4.93734">
        <ele>445</ele>
      </trkpt>
      <trkpt lat="44.50033" lon="4.93675">
        <ele>451</ele>
      </trkpt>
      <trkpt lat="44.50036" lon="4.93659">
        <ele>452</ele>
      </trkpt>
      <trkpt lat="44.50034" lon="4.93645">
        <ele>452</ele>
      </trkpt>
      <trkpt lat="44.50026" lon="4.93632">
        <ele>451</ele>
      </trkpt>
      <trkpt lat="44.50018" lon="4.93625">
        <ele>452</ele>
      </trkpt>
      <trkpt lat="44.50006" lon="4.93623">
        <ele>454</ele>
      </trkpt>
      <trkpt lat="44.49959" lon="4.93625">
        <ele>456</ele>
      </trkpt>
      <trkpt lat="44.49932" lon="4.93632">
        <ele>458</ele>
      </trkpt>
      <trkpt lat="44.49878" lon="4.9365">
        <ele>462</ele>
      </trkpt>
      <trkpt lat="44.49865" lon="4.93657">
        <ele>463</ele>
      </trkpt>
      <trkpt lat="44.49846" lon="4.93669">
        <ele>464</ele>
      </trkpt>
      <trkpt lat="44.49798" lon="4.93716">
        <ele>465</ele>
      </trkpt>
      <trkpt lat="44.49788" lon="4.93721">
        <ele>466</ele>
      </trkpt>
      <trkpt lat="44.49777" lon="4.93722">
        <ele>466</ele>
      </trkpt>
      <trkpt lat="44.49767" lon="4.93719">
        <ele>466</ele>
      </trkpt>
      <trkpt lat="44.49757" lon="4.9371">
        <ele>468</ele>
      </trkpt>
      <trkpt lat="44.49753" lon="4.93702">
        <ele>468</ele>
      </trkpt>
      <trkpt lat="44.49736" lon="4.93639">
        <ele>468</ele>
      </trkpt>
      <trkpt lat="44.49729" lon="4.93626">
        <ele>468</ele>
      </trkpt>
      <trkpt lat="44.4972" lon="4.93614">
        <ele>468</ele>
      </trkpt>
      <trkpt lat="44.49707" lon="4.93606">
        <ele>471</ele>
      </trkpt>
      <trkpt lat="44.49693" lon="4.93607">
        <ele>471</ele>
      </trkpt>
      <trkpt lat="44.49685" lon="4.9361">
        <ele>472</ele>
      </trkpt>
      <trkpt lat="44.49648" lon="4.93641">
        <ele>478</ele>
      </trkpt>
      <trkpt lat="44.49629" lon="4.93647">
        <ele>478</ele>
      </trkpt>
      <trkpt lat="44.49609" lon="4.93643">
        <ele>479</ele>
      </trkpt>
      <trkpt lat="44.4956" lon="4.93615">
        <ele>479</ele>
      </trkpt>
      <trkpt lat="44.49543" lon="4.93609">
        <ele>478</ele>
      </trkpt>
      <trkpt lat="44.49532" lon="4.9361">
        <ele>480</ele>
      </trkpt>
      <trkpt lat="44.49524" lon="4.93615">
        <ele>480</ele>
      </trkpt>
      <trkpt lat="44.49509" lon="4.93636">
        <ele>480</ele>
      </trkpt>
      <trkpt lat="44.49497" lon="4.93658">
        <ele>481</ele>
      </trkpt>
      <trkpt lat="44.49491" lon="4.93675">
        <ele>483</ele>
      </trkpt>
      <trkpt lat="44.49501" lon="4.93695">
        <ele>484</ele>
      </trkpt>
      <trkpt lat="44.49499" lon="4.93708">
        <ele>484</ele>
      </trkpt>
      <trkpt lat="44.49493" lon="4.93724">
        <ele>486</ele>
      </trkpt>
      <trkpt lat="44.49489" lon="4.93765">
        <ele>487</ele>
      </trkpt>
      <trkpt lat="44.4949" lon="4.93816">
        <ele>489</ele>
      </trkpt>
      <trkpt lat="44.49497" lon="4.93846">
        <ele>490</ele>
      </trkpt>
      <trkpt lat="44.49506" lon="4.93863">
        <ele>491</ele>
      </trkpt>
      <trkpt lat="44.49514" lon="4.93884">
        <ele>492</ele>
      </trkpt>
      <trkpt lat="44.49516" lon="4.93902">
        <ele>492</ele>
      </trkpt>
      <trkpt lat="44.49513" lon="4.93932">
        <ele>491</ele>
      </trkpt>
      <trkpt lat="44.49513" lon="4.93955">
        <ele>490</ele>
      </trkpt>
      <trkpt lat="44.49518" lon="4.93989">
        <ele>489</ele>
      </trkpt>
      <trkpt lat="44.49534" lon="4.94132">
        <ele>488</ele>
      </trkpt>
      <trkpt lat="44.49549" lon="4.94202">
        <ele>487</ele>
      </trkpt>
      <trkpt lat="44.49584" lon="4.9428">
        <ele>493</ele>
      </trkpt>
      <trkpt lat="44.49612" lon="4.94346">
        <ele>495</ele>
      </trkpt>
      <trkpt lat="44.49629" lon="4.94412">
        <ele>494</ele>
      </trkpt>
      <trkpt lat="44.49653" lon="4.94587">
        <ele>493</ele>
      </trkpt>
      <trkpt lat="44.49654" lon="4.94644">
        <ele>493</ele>
      </trkpt>
      <trkpt lat="44.4965" lon="4.94669">
        <ele>493</ele>
      </trkpt>
      <trkpt lat="44.49622" lon="4.94714">
        <ele>492</ele>
      </trkpt>
      <trkpt lat="44.49598" lon="4.94738">
        <ele>492</ele>
      </trkpt>
      <trkpt lat="44.49588" lon="4.94751">
        <ele>493</ele>
      </trkpt>
      <trkpt lat="44.49574" lon="4.94763">
        <ele>493</ele>
      </trkpt>
      <trkpt lat="44.4956" lon="4.94771">
        <ele>492</ele>
      </trkpt>
      <trkpt lat="44.49485" lon="4.94838">
        <ele>496</ele>
      </trkpt>
      <trkpt lat="44.49441" lon="4.94892">
        <ele>500</ele>
      </trkpt>
      <trkpt lat="44.49398" lon="4.94952">
        <ele>500</ele>
      </trkpt>
      <trkpt lat="44.49361" lon="4.95019">
        <ele>503</ele>
      </trkpt>
      <trkpt lat="44.49302" lon="4.95089">
        <ele>501</ele>
      </trkpt>
      <trkpt lat="44.4922" lon="4.95208">
        <ele>505</ele>
      </trkpt>
      <trkpt lat="44.49206" lon="4.95252">
        <ele>506</ele>
      </trkpt>
      <trkpt lat="44.4919" lon="4.95331">
        <ele>508</ele>
      </trkpt>
      <trkpt lat="44.49179" lon="4.95371">
        <ele>506</ele>
      </trkpt>
      <trkpt lat="44.49165" lon="4.95408">
        <ele>507</ele>
      </trkpt>
      <trkpt lat="44.49152" lon="4.95461">
        <ele>507</ele>
      </trkpt>
      <trkpt lat="44.49138" lon="4.95488">
        <ele>507</ele>
      </trkpt>
      <trkpt lat="44.49112" lon="4.95511">
        <ele>506</ele>
      </trkpt>
      <trkpt lat="44.49073" lon="4.9554">
        <ele>507</ele>
      </trkpt>
      <trkpt lat="44.49031" lon="4.95544">
        <ele>507</ele>
      </trkpt>
      <trkpt lat="44.48992" lon="4.95563">
        <ele>507</ele>
      </trkpt>
      <trkpt lat="44.48972" lon="4.95577">
        <ele>506</ele>
      </trkpt>
      <trkpt lat="44.48956" lon="4.95589">
        <ele>505</ele>
      </trkpt>
      <trkpt lat="44.489" lon="4.95644">
        <ele>503</ele>
      </trkpt>
      <trkpt lat="44.48878" lon="4.95675">
        <ele>501</ele>
      </trkpt>
      <trkpt lat="44.48875" lon="4.9569">
        <ele>501</ele>
      </trkpt>
      <trkpt lat="44.48875" lon="4.95709">
        <ele>500</ele>
      </trkpt>
      <trkpt lat="44.4889" lon="4.95778">
        <ele>497</ele>
      </trkpt>
      <trkpt lat="44.48888" lon="4.95786">
        <ele>497</ele>
      </trkpt>
      <trkpt lat="44.48885" lon="4.95788">
        <ele>497</ele>
      </trkpt>
      <trkpt lat="44.48878" lon="4.95788">
        <ele>497</ele>
      </trkpt>
      <trkpt lat="44.48821" lon="4.95757">
        <ele>494</ele>
      </trkpt>
      <trkpt lat="44.48783" lon="4.95746">
        <ele>493</ele>
      </trkpt>
      <trkpt lat="44.48749" lon="4.95722">
        <ele>490</ele>
      </trkpt>
      <trkpt lat="44.48672" lon="4.95678">
        <ele>483</ele>
      </trkpt>
      <trkpt lat="44.48652" lon="4.95669">
        <ele>481</ele>
      </trkpt>
      <trkpt lat="44.48623" lon="4.9567">
        <ele>478</ele>
      </trkpt>
      <trkpt lat="44.48605" lon="4.9568">
        <ele>478</ele>
      </trkpt>
      <trkpt lat="44.48573" lon="4.95704">
        <ele>476</ele>
      </trkpt>
      <trkpt lat="44.48543" lon="4.95724">
        <ele>476</ele>
      </trkpt>
      <trkpt lat="44.48516" lon="4.95739">
        <ele>472</ele>
      </trkpt>
      <trkpt lat="44.48493" lon="4.95747">
        <ele>469</ele>
      </trkpt>
      <trkpt lat="44.48388" lon="4.95751">
        <ele>465</ele>
      </trkpt>
      <trkpt lat="44.48229" lon="4.95775">
        <ele>448</ele>
      </trkpt>
      <trkpt lat="44.48115" lon="4.95774">
        <ele>440</ele>
      </trkpt>
      <trkpt lat="44.48029" lon="4.95789">
        <ele>439</ele>
      </trkpt>
      <trkpt lat="44.48009" lon="4.95789">
        <ele>436</ele>
      </trkpt>
      <trkpt lat="44.47958" lon="4.95801">
        <ele>434</ele>
      </trkpt>
      <trkpt lat="44.47879" lon="4.95813">
        <ele>428</ele>
      </trkpt>
      <trkpt lat="44.47847" lon="4.95825">
        <ele>425</ele>
      </trkpt>
      <trkpt lat="44.47822" lon="4.95827">
        <ele>422</ele>
      </trkpt>
      <trkpt lat="44.47772" lon="4.95819">
        <ele>416</ele>
      </trkpt>
      <trkpt lat="44.47762" lon="4.95821">
        <ele>415</ele>
      </trkpt>
      <trkpt lat="44.47758" lon="4.95829">
        <ele>416</ele>
      </trkpt>
      <trkpt lat="44.47761" lon="4.95838">
        <ele>417</ele>
      </trkpt>
      <trkpt lat="44.4777" lon="4.95845">
        <ele>418</ele>
      </trkpt>
      <trkpt lat="44.47871" lon="4.95898">
        <ele>421</ele>
      </trkpt>
      <trkpt lat="44.47974" lon="4.95944">
        <ele>420</ele>
      </trkpt>
      <trkpt lat="44.47993" lon="4.95954">
        <ele>423</ele>
      </trkpt>
      <trkpt lat="44.4801" lon="4.95967">
        <ele>422</ele>
      </trkpt>
      <trkpt lat="44.48063" lon="4.95994">
        <ele>421</ele>
      </trkpt>
      <trkpt lat="44.48066" lon="4.96001">
        <ele>417</ele>
      </trkpt>
      <trkpt lat="44.48061" lon="4.96007">
        <ele>416</ele>
      </trkpt>
      <trkpt lat="44.48046" lon="4.96005">
        <ele>416</ele>
      </trkpt>
      <trkpt lat="44.48026" lon="4.95998">
        <ele>418</ele>
      </trkpt>
      <trkpt lat="44.47993" lon="4.95981">
        <ele>417</ele>
      </trkpt>
      <trkpt lat="44.4797" lon="4.95975">
        <ele>415</ele>
      </trkpt>
      <trkpt lat="44.479" lon="4.95957">
        <ele>410</ele>
      </trkpt>
      <trkpt lat="44.47827" lon="4.95943">
        <ele>407</ele>
      </trkpt>
      <trkpt lat="44.47771" lon="4.95927">
        <ele>402</ele>
      </trkpt>
      <trkpt lat="44.47738" lon="4.95925">
        <ele>399</ele>
      </trkpt>
      <trkpt lat="44.47649" lon="4.95947">
        <ele>389</ele>
      </trkpt>
      <trkpt lat="44.47615" lon="4.95947">
        <ele>387</ele>
      </trkpt>
      <trkpt lat="44.47537" lon="4.95931">
        <ele>387</ele>
      </trkpt>
      <trkpt lat="44.47452" lon="4.95921">
        <ele>378</ele>
      </trkpt>
      <trkpt lat="44.47422" lon="4.9592">
        <ele>376</ele>
      </trkpt>
      <trkpt lat="44.47392" lon="4.9591">
        <ele>378</ele>
      </trkpt>
      <trkpt lat="44.47301" lon="4.95875">
        <ele>371</ele>
      </trkpt>
      <trkpt lat="44.47132" lon="4.95829">
        <ele>358</ele>
      </trkpt>
      <trkpt lat="44.47113" lon="4.95829">
        <ele>355</ele>
      </trkpt>
      <trkpt lat="44.47101" lon="4.95834">
        <ele>353</ele>
      </trkpt>
      <trkpt lat="44.47087" lon="4.95847">
        <ele>349</ele>
      </trkpt>
      <trkpt lat="44.47045" lon="4.95918">
        <ele>348</ele>
      </trkpt>
      <trkpt lat="44.4703" lon="4.95929">
        <ele>344</ele>
      </trkpt>
      <trkpt lat="44.46875" lon="4.96001">
        <ele>337</ele>
      </trkpt>
      <trkpt lat="44.46855" lon="4.96014">
        <ele>337</ele>
      </trkpt>
      <trkpt lat="44.46844" lon="4.96028">
        <ele>336</ele>
      </trkpt>
      <trkpt lat="44.46802" lon="4.96093">
        <ele>333</ele>
      </trkpt>
      <trkpt lat="44.46774" lon="4.96128">
        <ele>332</ele>
      </trkpt>
      <trkpt lat="44.46722" lon="4.96184">
        <ele>331</ele>
      </trkpt>
      <trkpt lat="44.46697" lon="4.962">
        <ele>329</ele>
      </trkpt>
      <trkpt lat="44.46673" lon="4.96222">
        <ele>327</ele>
      </trkpt>
      <trkpt lat="44.46637" lon="4.96272">
        <ele>325</ele>
      </trkpt>
      <trkpt lat="44.46622" lon="4.9628">
        <ele>323</ele>
      </trkpt>
      <trkpt lat="44.46609" lon="4.96291">
        <ele>323</ele>
      </trkpt>
      <trkpt lat="44.46598" lon="4.96306">
        <ele>323</ele>
      </trkpt>
      <trkpt lat="44.46572" lon="4.96377">
        <ele>321</ele>
      </trkpt>
      <trkpt lat="44.4656" lon="4.96393">
        <ele>320</ele>
      </trkpt>
      <trkpt lat="44.46546" lon="4.96404">
        <ele>320</ele>
      </trkpt>
      <trkpt lat="44.4651" lon="4.96414">
        <ele>317</ele>
      </trkpt>
      <trkpt lat="44.46461" lon="4.96424">
        <ele>316</ele>
      </trkpt>
      <trkpt lat="44.46394" lon="4.96433">
        <ele>318</ele>
      </trkpt>
      <trkpt lat="44.46364" lon="4.96447">
        <ele>319</ele>
      </trkpt>
      <trkpt lat="44.46204" lon="4.96591">
        <ele>313</ele>
      </trkpt>
      <trkpt lat="44.46127" lon="4.96706">
        <ele>314</ele>
      </trkpt>
      <trkpt lat="44.46088" lon="4.96763">
        <ele>311</ele>
      </trkpt>
      <trkpt lat="44.45904" lon="4.97001">
        <ele>305</ele>
      </trkpt>
      <trkpt lat="44.45881" lon="4.9702">
        <ele>304</ele>
      </trkpt>
      <trkpt lat="44.45758" lon="4.97054">
        <ele>305</ele>
      </trkpt>
      <trkpt lat="44.45709" lon="4.97073">
        <ele>309</ele>
      </trkpt>
      <trkpt lat="44.45599" lon="4.97164">
        <ele>309</ele>
      </trkpt>
      <trkpt lat="44.45569" lon="4.97201">
        <ele>311</ele>
      </trkpt>
      <trkpt lat="44.45538" lon="4.97247">
        <ele>305</ele>
      </trkpt>
      <trkpt lat="44.45514" lon="4.97274">
        <ele>304</ele>
      </trkpt>
      <trkpt lat="44.45459" lon="4.97312">
        <ele>301</ele>
      </trkpt>
      <trkpt lat="44.45169" lon="4.97498">
        <ele>315</ele>
      </trkpt>
      <trkpt lat="44.45139" lon="4.97513">
        <ele>314</ele>
      </trkpt>
      <trkpt lat="44.45016" lon="4.97585">
        <ele>306</ele>
      </trkpt>
      <trkpt lat="44.4491" lon="4.97679">
        <ele>302</ele>
      </trkpt>
      <trkpt lat="44.44862" lon="4.97718">
        <ele>301</ele>
      </trkpt>
      <trkpt lat="44.44826" lon="4.97758">
        <ele>300</ele>
      </trkpt>
      <trkpt lat="44.44754" lon="4.97861">
        <ele>295</ele>
      </trkpt>
      <trkpt lat="44.44706" lon="4.97924">
        <ele>291</ele>
      </trkpt>
      <trkpt lat="44.44671" lon="4.97922">
        <ele>290</ele>
      </trkpt>
      <trkpt lat="44.44648" lon="4.97927">
        <ele>288</ele>
      </trkpt>
      <trkpt lat="44.44543" lon="4.97917">
        <ele>283</ele>
      </trkpt>
      <trkpt lat="44.44506" lon="4.97917">
        <ele>281</ele>
      </trkpt>
      <trkpt lat="44.44484" lon="4.97914">
        <ele>280</ele>
      </trkpt>
      <trkpt lat="44.44457" lon="4.97906">
        <ele>280</ele>
      </trkpt>
      <trkpt lat="44.4444" lon="4.97945">
        <ele>277</ele>
      </trkpt>
      <trkpt lat="44.44427" lon="4.97963">
        <ele>276</ele>
      </trkpt>
      <trkpt lat="44.4441" lon="4.97952">
        <ele>276</ele>
      </trkpt>
      <trkpt lat="44.44396" lon="4.97948">
        <ele>276</ele>
      </trkpt>
      <trkpt lat="44.44376" lon="4.97945">
        <ele>276</ele>
      </trkpt>
      <trkpt lat="44.44364" lon="4.97934">
        <ele>274</ele>
      </trkpt>
      <trkpt lat="44.44358" lon="4.97944">
        <ele>276</ele>
      </trkpt>
      <trkpt lat="44.4433" lon="4.97961">
        <ele>276</ele>
      </trkpt>
      <trkpt lat="44.4432" lon="4.97962">
        <ele>275</ele>
      </trkpt>
      <trkpt lat="44.44298" lon="4.97952">
        <ele>273</ele>
      </trkpt>
      <trkpt lat="44.44288" lon="4.97952">
        <ele>271</ele>
      </trkpt>
      <trkpt lat="44.4428" lon="4.97954">
        <ele>271</ele>
      </trkpt>
      <trkpt lat="44.44274" lon="4.97958">
        <ele>270</ele>
      </trkpt>
      <trkpt lat="44.44264" lon="4.97964">
        <ele>271</ele>
      </trkpt>
      <trkpt lat="44.44239" lon="4.98012">
        <ele>272</ele>
      </trkpt>
      <trkpt lat="44.44219" lon="4.9804">
        <ele>271</ele>
      </trkpt>
      <trkpt lat="44.44203" lon="4.98059">
        <ele>270</ele>
      </trkpt>
      <trkpt lat="44.44191" lon="4.9807">
        <ele>271</ele>
      </trkpt>
      <trkpt lat="44.44189" lon="4.98072">
        <ele>271</ele>
      </trkpt>
      <trkpt lat="44.44182" lon="4.98069">
        <ele>270</ele>
      </trkpt>
      <trkpt lat="44.44179" lon="4.98067">
        <ele>270</ele>
      </trkpt>
      <trkpt lat="44.44174" lon="4.98068">
        <ele>270</ele>
      </trkpt>
      <trkpt lat="44.44165" lon="4.98068">
        <ele>270</ele>
      </trkpt>
      <trkpt lat="44.44149" lon="4.98053">
        <ele>267</ele>
      </trkpt>
      <trkpt lat="44.44048" lon="4.97921">
        <ele>262</ele>
      </trkpt>
      <trkpt lat="44.43977" lon="4.97843">
        <ele>264</ele>
      </trkpt>
      <trkpt lat="44.43941" lon="4.97816">
        <ele>264</ele>
      </trkpt>
      <trkpt lat="44.43904" lon="4.97794">
        <ele>262</ele>
      </trkpt>
      <trkpt lat="44.43773" lon="4.97732">
        <ele>260</ele>
      </trkpt>
      <trkpt lat="44.43685" lon="4.97693">
        <ele>260</ele>
      </trkpt>
      <trkpt lat="44.43639" lon="4.97667">
        <ele>266</ele>
      </trkpt>
      <trkpt lat="44.43613" lon="4.9766">
        <ele>265</ele>
      </trkpt>
      <trkpt lat="44.43589" lon="4.97661">
        <ele>266</ele>
      </trkpt>
      <trkpt lat="44.43539" lon="4.97679">
        <ele>272</ele>
      </trkpt>
      <trkpt lat="44.43499" lon="4.97703">
        <ele>275</ele>
      </trkpt>
      <trkpt lat="44.4348" lon="4.97716">
        <ele>275</ele>
      </trkpt>
      <trkpt lat="44.43463" lon="4.97736">
        <ele>275</ele>
      </trkpt>
      <trkpt lat="44.43437" lon="4.9778">
        <ele>273</ele>
      </trkpt>
      <trkpt lat="44.43396" lon="4.97855">
        <ele>268</ele>
      </trkpt>
      <trkpt lat="44.4337" lon="4.97916">
        <ele>265</ele>
      </trkpt>
      <trkpt lat="44.43362" lon="4.97947">
        <ele>266</ele>
      </trkpt>
      <trkpt lat="44.43311" lon="4.98189">
        <ele>257</ele>
      </trkpt>
      <trkpt lat="44.433" lon="4.9822">
        <ele>257</ele>
      </trkpt>
      <trkpt lat="44.43292" lon="4.98237">
        <ele>257</ele>
      </trkpt>
      <trkpt lat="44.43282" lon="4.9825">
        <ele>257</ele>
      </trkpt>
      <trkpt lat="44.43267" lon="4.98263">
        <ele>257</ele>
      </trkpt>
      <trkpt lat="44.43254" lon="4.98271">
        <ele>256</ele>
      </trkpt>
      <trkpt lat="44.43229" lon="4.98283">
        <ele>255</ele>
      </trkpt>
      <trkpt lat="44.43199" lon="4.98292">
        <ele>255</ele>
      </trkpt>
      <trkpt lat="44.43178" lon="4.98295">
        <ele>255</ele>
      </trkpt>
      <trkpt lat="44.43069" lon="4.98298">
        <ele>258</ele>
      </trkpt>
      <trkpt lat="44.42962" lon="4.98293">
        <ele>256</ele>
      </trkpt>
      <trkpt lat="44.42927" lon="4.98294">
        <ele>252</ele>
      </trkpt>
      <trkpt lat="44.42809" lon="4.98308">
        <ele>250</ele>
      </trkpt>
      <trkpt lat="44.42753" lon="4.98323">
        <ele>248</ele>
      </trkpt>
      <trkpt lat="44.42607" lon="4.98385">
        <ele>247</ele>
      </trkpt>
      <trkpt lat="44.42576" lon="4.98395">
        <ele>248</ele>
      </trkpt>
      <trkpt lat="44.42531" lon="4.98405">
        <ele>248</ele>
      </trkpt>
      <trkpt lat="44.42495" lon="4.98409">
        <ele>248</ele>
      </trkpt>
      <trkpt lat="44.42444" lon="4.98409">
        <ele>248</ele>
      </trkpt>
      <trkpt lat="44.4238" lon="4.98401">
        <ele>246</ele>
      </trkpt>
      <trkpt lat="44.42332" lon="4.98387">
        <ele>246</ele>
      </trkpt>
      <trkpt lat="44.42291" lon="4.98376">
        <ele>246</ele>
      </trkpt>
      <trkpt lat="44.42068" lon="4.98321">
        <ele>251</ele>
      </trkpt>
      <trkpt lat="44.41896" lon="4.98305">
        <ele>250</ele>
      </trkpt>
      <trkpt lat="44.41855" lon="4.98304">
        <ele>249</ele>
      </trkpt>
      <trkpt lat="44.41371" lon="4.98406">
        <ele>244</ele>
      </trkpt>
      <trkpt lat="44.41357" lon="4.98404">
        <ele>244</ele>
      </trkpt>
      <trkpt lat="44.41346" lon="4.98401">
        <ele>244</ele>
      </trkpt>
      <trkpt lat="44.4133" lon="4.98391">
        <ele>243</ele>
      </trkpt>
      <trkpt lat="44.41222" lon="4.98308">
        <ele>240</ele>
      </trkpt>
      <trkpt lat="44.41204" lon="4.98298">
        <ele>240</ele>
      </trkpt>
      <trkpt lat="44.41185" lon="4.98289">
        <ele>240</ele>
      </trkpt>
      <trkpt lat="44.41112" lon="4.98264">
        <ele>239</ele>
      </trkpt>
      <trkpt lat="44.41069" lon="4.98257">
        <ele>239</ele>
      </trkpt>
      <trkpt lat="44.41028" lon="4.98253">
        <ele>238</ele>
      </trkpt>
      <trkpt lat="44.40884" lon="4.98249">
        <ele>237</ele>
      </trkpt>
      <trkpt lat="44.40826" lon="4.98254">
        <ele>236</ele>
      </trkpt>
      <trkpt lat="44.40741" lon="4.98267">
        <ele>234</ele>
      </trkpt>
      <trkpt lat="44.40709" lon="4.98274">
        <ele>235</ele>
      </trkpt>
      <trkpt lat="44.40647" lon="4.98295">
        <ele>232</ele>
      </trkpt>
      <trkpt lat="44.40411" lon="4.9836">
        <ele>234</ele>
      </trkpt>
      <trkpt lat="44.40323" lon="4.98397">
        <ele>234</ele>
      </trkpt>
      <trkpt lat="44.40129" lon="4.98484">
        <ele>233</ele>
      </trkpt>
      <trkpt lat="44.40068" lon="4.98508">
        <ele>236</ele>
      </trkpt>
      <trkpt lat="44.39912" lon="4.98549">
        <ele>233</ele>
      </trkpt>
      <trkpt lat="44.39798" lon="4.98591">
        <ele>232</ele>
      </trkpt>
      <trkpt lat="44.39767" lon="4.98607">
        <ele>232</ele>
      </trkpt>
      <trkpt lat="44.39579" lon="4.98711">
        <ele>230</ele>
      </trkpt>
      <trkpt lat="44.39552" lon="4.98722">
        <ele>230</ele>
      </trkpt>
      <trkpt lat="44.39367" lon="4.98784">
        <ele>228</ele>
      </trkpt>
      <trkpt lat="44.39305" lon="4.98799">
        <ele>229</ele>
      </trkpt>
      <trkpt lat="44.39187" lon="4.98858">
        <ele>227</ele>
      </trkpt>
      <trkpt lat="44.39156" lon="4.98875">
        <ele>228</ele>
      </trkpt>
      <trkpt lat="44.39138" lon="4.98889">
        <ele>228</ele>
      </trkpt>
      <trkpt lat="44.39103" lon="4.98919">
        <ele>229</ele>
      </trkpt>
      <trkpt lat="44.39072" lon="4.9894">
        <ele>229</ele>
      </trkpt>
      <trkpt lat="44.3898" lon="4.98971">
        <ele>229</ele>
      </trkpt>
      <trkpt lat="44.3888" lon="4.99001">
        <ele>230</ele>
      </trkpt>
      <trkpt lat="44.38764" lon="4.9904">
        <ele>230</ele>
      </trkpt>
      <trkpt lat="44.3875" lon="4.99039">
        <ele>230</ele>
      </trkpt>
      <trkpt lat="44.38744" lon="4.99036">
        <ele>230</ele>
      </trkpt>
      <trkpt lat="44.38737" lon="4.99039">
        <ele>231</ele>
      </trkpt>
      <trkpt lat="44.38715" lon="4.99056">
        <ele>231</ele>
      </trkpt>
      <trkpt lat="44.38666" lon="4.99073">
        <ele>233</ele>
      </trkpt>
      <trkpt lat="44.38662" lon="4.99073">
        <ele>233</ele>
      </trkpt>
      <trkpt lat="44.38659" lon="4.99066">
        <ele>233</ele>
      </trkpt>
      <trkpt lat="44.38653" lon="4.99063">
        <ele>233</ele>
      </trkpt>
      <trkpt lat="44.3865" lon="4.99064">
        <ele>233</ele>
      </trkpt>
      <trkpt lat="44.38645" lon="4.99069">
        <ele>234</ele>
      </trkpt>
      <trkpt lat="44.38645" lon="4.99081">
        <ele>234</ele>
      </trkpt>
      <trkpt lat="44.38638" lon="4.991">
        <ele>234</ele>
      </trkpt>
      <trkpt lat="44.38626" lon="4.99088">
        <ele>235</ele>
      </trkpt>
      <trkpt lat="44.38615" lon="4.99085">
        <ele>236</ele>
      </trkpt>
      <trkpt lat="44.38586" lon="4.99083">
        <ele>237</ele>
      </trkpt>
      <trkpt lat="44.38551" lon="4.99073">
        <ele>239</ele>
      </trkpt>
      <trkpt lat="44.38529" lon="4.99068">
        <ele>242</ele>
      </trkpt>
      <trkpt lat="44.38528" lon="4.99047">
        <ele>240</ele>
      </trkpt>
      <trkpt lat="44.3852" lon="4.99046">
        <ele>240</ele>
      </trkpt>
      <trkpt lat="44.3851" lon="4.99034">
        <ele>242</ele>
      </trkpt>
      <trkpt lat="44.38506" lon="4.99032">
        <ele>242</ele>
      </trkpt>
      <trkpt lat="44.38497" lon="4.99037">
        <ele>242</ele>
      </trkpt>
      <trkpt lat="44.38483" lon="4.99038">
        <ele>243</ele>
      </trkpt>
      <trkpt lat="44.38464" lon="4.99034">
        <ele>246</ele>
      </trkpt>
      <trkpt lat="44.38445" lon="4.99045">
        <ele>249</ele>
      </trkpt>
      <trkpt lat="44.38442" lon="4.99053">
        <ele>249</ele>
      </trkpt>
      <trkpt lat="44.38439" lon="4.9907">
        <ele>249</ele>
      </trkpt>
      <trkpt lat="44.38436" lon="4.99095">
        <ele>248</ele>
      </trkpt>
      <trkpt lat="44.38426" lon="4.9915">
        <ele>248</ele>
      </trkpt>
      <trkpt lat="44.38405" lon="4.99141">
        <ele>248</ele>
      </trkpt>
      <trkpt lat="44.38389" lon="4.99132">
        <ele>249</ele>
      </trkpt>
      <trkpt lat="44.38365" lon="4.99106">
        <ele>250</ele>
      </trkpt>
      <trkpt lat="44.38354" lon="4.99086">
        <ele>250</ele>
      </trkpt>
      <trkpt lat="44.38351" lon="4.99081">
        <ele>250</ele>
      </trkpt>
      <trkpt lat="44.38347" lon="4.99078">
        <ele>250</ele>
      </trkpt>
      <trkpt lat="44.38338" lon="4.9908">
        <ele>249</ele>
      </trkpt>
      <trkpt lat="44.38311" lon="4.99099">
        <ele>246</ele>
      </trkpt>
      <trkpt lat="44.38288" lon="4.99107">
        <ele>245</ele>
      </trkpt>
      <trkpt lat="44.38269" lon="4.99038">
        <ele>244</ele>
      </trkpt>
      <trkpt lat="44.38243" lon="4.9906">
        <ele>244</ele>
      </trkpt>
      <trkpt lat="44.38214" lon="4.9909">
        <ele>244</ele>
      </trkpt>
      <trkpt lat="44.3821" lon="4.99086">
        <ele>244</ele>
      </trkpt>
      <trkpt lat="44.38207" lon="4.99086">
        <ele>243</ele>
      </trkpt>
      <trkpt lat="44.38202" lon="4.9909">
        <ele>243</ele>
      </trkpt>
      <trkpt lat="44.382" lon="4.99095">
        <ele>243</ele>
      </trkpt>
      <trkpt lat="44.38155" lon="4.99069">
        <ele>242</ele>
      </trkpt>
      <trkpt lat="44.38015" lon="4.98981">
        <ele>236</ele>
      </trkpt>
      <trkpt lat="44.37838" lon="4.98846">
        <ele>233</ele>
      </trkpt>
      <trkpt lat="44.37818" lon="4.98834">
        <ele>233</ele>
      </trkpt>
      <trkpt lat="44.37715" lon="4.98803">
        <ele>232</ele>
      </trkpt>
      <trkpt lat="44.37616" lon="4.98758">
        <ele>232</ele>
      </trkpt>
      <trkpt lat="44.37558" lon="4.98736">
        <ele>233</ele>
      </trkpt>
      <trkpt lat="44.37363" lon="4.98685">
        <ele>232</ele>
      </trkpt>
      <trkpt lat="44.37331" lon="4.98686">
        <ele>232</ele>
      </trkpt>
      <trkpt lat="44.37304" lon="4.9869">
        <ele>233</ele>
      </trkpt>
      <trkpt lat="44.37278" lon="4.98699">
        <ele>235</ele>
      </trkpt>
      <trkpt lat="44.37191" lon="4.98735">
        <ele>237</ele>
      </trkpt>
      <trkpt lat="44.37133" lon="4.98751">
        <ele>237</ele>
      </trkpt>
      <trkpt lat="44.36803" lon="4.98809">
        <ele>248</ele>
      </trkpt>
      <trkpt lat="44.36773" lon="4.98809">
        <ele>249</ele>
      </trkpt>
      <trkpt lat="44.36616" lon="4.98777">
        <ele>257</ele>
      </trkpt>
      <trkpt lat="44.36586" lon="4.9877">
        <ele>258</ele>
      </trkpt>
      <trkpt lat="44.36564" lon="4.98762">
        <ele>259</ele>
      </trkpt>
      <trkpt lat="44.36452" lon="4.98696">
        <ele>266</ele>
      </trkpt>
      <trkpt lat="44.3644" lon="4.98694">
        <ele>265</ele>
      </trkpt>
      <trkpt lat="44.36427" lon="4.98695">
        <ele>267</ele>
      </trkpt>
      <trkpt lat="44.36371" lon="4.98717">
        <ele>271</ele>
      </trkpt>
      <trkpt lat="44.36362" lon="4.98716">
        <ele>271</ele>
      </trkpt>
      <trkpt lat="44.36353" lon="4.9871">
        <ele>271</ele>
      </trkpt>
      <trkpt lat="44.36335" lon="4.98692">
        <ele>270</ele>
      </trkpt>
      <trkpt lat="44.36302" lon="4.9865">
        <ele>272</ele>
      </trkpt>
      <trkpt lat="44.36265" lon="4.98615">
        <ele>274</ele>
      </trkpt>
      <trkpt lat="44.36214" lon="4.98584">
        <ele>276</ele>
      </trkpt>
      <trkpt lat="44.361" lon="4.98527">
        <ele>279</ele>
      </trkpt>
      <trkpt lat="44.3607" lon="4.98518">
        <ele>282</ele>
      </trkpt>
      <trkpt lat="44.35956" lon="4.9849">
        <ele>290</ele>
      </trkpt>
      <trkpt lat="44.35935" lon="4.98481">
        <ele>292</ele>
      </trkpt>
      <trkpt lat="44.35913" lon="4.98468">
        <ele>293</ele>
      </trkpt>
      <trkpt lat="44.35889" lon="4.98448">
        <ele>295</ele>
      </trkpt>
      <trkpt lat="44.35815" lon="4.98371">
        <ele>293</ele>
      </trkpt>
      <trkpt lat="44.358" lon="4.98359">
        <ele>292</ele>
      </trkpt>
      <trkpt lat="44.35685" lon="4.983">
        <ele>291</ele>
      </trkpt>
      <trkpt lat="44.35653" lon="4.98295">
        <ele>292</ele>
      </trkpt>
      <trkpt lat="44.35603" lon="4.98297">
        <ele>297</ele>
      </trkpt>
      <trkpt lat="44.35495" lon="4.98309">
        <ele>289</ele>
      </trkpt>
      <trkpt lat="44.3545" lon="4.98319">
        <ele>286</ele>
      </trkpt>
      <trkpt lat="44.35361" lon="4.98323">
        <ele>283</ele>
      </trkpt>
      <trkpt lat="44.35326" lon="4.98319">
        <ele>280</ele>
      </trkpt>
      <trkpt lat="44.35259" lon="4.983">
        <ele>276</ele>
      </trkpt>
      <trkpt lat="44.35219" lon="4.98285">
        <ele>274</ele>
      </trkpt>
      <trkpt lat="44.35204" lon="4.98276">
        <ele>273</ele>
      </trkpt>
      <trkpt lat="44.35192" lon="4.98259">
        <ele>273</ele>
      </trkpt>
      <trkpt lat="44.35152" lon="4.98174">
        <ele>271</ele>
      </trkpt>
      <trkpt lat="44.35125" lon="4.98105">
        <ele>268</ele>
      </trkpt>
      <trkpt lat="44.35112" lon="4.98084">
        <ele>264</ele>
      </trkpt>
      <trkpt lat="44.35095" lon="4.9807">
        <ele>263</ele>
      </trkpt>
      <trkpt lat="44.35086" lon="4.98067">
        <ele>261</ele>
      </trkpt>
      <trkpt lat="44.35076" lon="4.98067">
        <ele>260</ele>
      </trkpt>
      <trkpt lat="44.35067" lon="4.98072">
        <ele>260</ele>
      </trkpt>
      <trkpt lat="44.3506" lon="4.9808">
        <ele>259</ele>
      </trkpt>
      <trkpt lat="44.35048" lon="4.98101">
        <ele>260</ele>
      </trkpt>
      <trkpt lat="44.35023" lon="4.98174">
        <ele>255</ele>
      </trkpt>
      <trkpt lat="44.35016" lon="4.98183">
        <ele>255</ele>
      </trkpt>
      <trkpt lat="44.34995" lon="4.98196">
        <ele>253</ele>
      </trkpt>
      <trkpt lat="44.34975" lon="4.982">
        <ele>252</ele>
      </trkpt>
      <trkpt lat="44.34931" lon="4.98207">
        <ele>251</ele>
      </trkpt>
      <trkpt lat="44.34916" lon="4.98205">
        <ele>250</ele>
      </trkpt>
      <trkpt lat="44.34895" lon="4.98191">
        <ele>250</ele>
      </trkpt>
      <trkpt lat="44.34774" lon="4.98085">
        <ele>249</ele>
      </trkpt>
      <trkpt lat="44.34753" lon="4.98064">
        <ele>248</ele>
      </trkpt>
      <trkpt lat="44.34667" lon="4.97951">
        <ele>247</ele>
      </trkpt>
      <trkpt lat="44.34647" lon="4.97934">
        <ele>247</ele>
      </trkpt>
      <trkpt lat="44.34619" lon="4.97917">
        <ele>248</ele>
      </trkpt>
      <trkpt lat="44.34542" lon="4.97891">
        <ele>247</ele>
      </trkpt>
      <trkpt lat="44.34512" lon="4.97878">
        <ele>247</ele>
      </trkpt>
      <trkpt lat="44.34389" lon="4.97809">
        <ele>248</ele>
      </trkpt>
      <trkpt lat="44.34295" lon="4.97729">
        <ele>247</ele>
      </trkpt>
      <trkpt lat="44.34245" lon="4.97681">
        <ele>248</ele>
      </trkpt>
      <trkpt lat="44.34171" lon="4.976">
        <ele>246</ele>
      </trkpt>
      <trkpt lat="44.34161" lon="4.97592">
        <ele>246</ele>
      </trkpt>
      <trkpt lat="44.34154" lon="4.9759">
        <ele>247</ele>
      </trkpt>
      <trkpt lat="44.3414" lon="4.97592">
        <ele>247</ele>
      </trkpt>
      <trkpt lat="44.3397" lon="4.97661">
        <ele>241</ele>
      </trkpt>
      <trkpt lat="44.33948" lon="4.97675">
        <ele>241</ele>
      </trkpt>
      <trkpt lat="44.33777" lon="4.97842">
        <ele>245</ele>
      </trkpt>
      <trkpt lat="44.33728" lon="4.97884">
        <ele>242</ele>
      </trkpt>
      <trkpt lat="44.33691" lon="4.97924">
        <ele>246</ele>
      </trkpt>
      <trkpt lat="44.33564" lon="4.98068">
        <ele>246</ele>
      </trkpt>
      <trkpt lat="44.33518" lon="4.98125">
        <ele>249</ele>
      </trkpt>
      <trkpt lat="44.33498" lon="4.98152">
        <ele>247</ele>
      </trkpt>
      <trkpt lat="44.33489" lon="4.98167">
        <ele>247</ele>
      </trkpt>
      <trkpt lat="44.33486" lon="4.98184">
        <ele>247</ele>
      </trkpt>
      <trkpt lat="44.33486" lon="4.98207">
        <ele>247</ele>
      </trkpt>
      <trkpt lat="44.33483" lon="4.98217">
        <ele>247</ele>
      </trkpt>
      <trkpt lat="44.33412" lon="4.98299">
        <ele>250</ele>
      </trkpt>
      <trkpt lat="44.33397" lon="4.98321">
        <ele>251</ele>
      </trkpt>
      <trkpt lat="44.33314" lon="4.98466">
        <ele>251</ele>
      </trkpt>
      <trkpt lat="44.33284" lon="4.98526">
        <ele>251</ele>
      </trkpt>
      <trkpt lat="44.33269" lon="4.98548">
        <ele>253</ele>
      </trkpt>
      <trkpt lat="44.33254" lon="4.98578">
        <ele>253</ele>
      </trkpt>
      <trkpt lat="44.33238" lon="4.98621">
        <ele>258</ele>
      </trkpt>
      <trkpt lat="44.3323" lon="4.98657">
        <ele>258</ele>
      </trkpt>
      <trkpt lat="44.33215" lon="4.98689">
        <ele>259</ele>
      </trkpt>
      <trkpt lat="44.33194" lon="4.98717">
        <ele>257</ele>
      </trkpt>
      <trkpt lat="44.33176" lon="4.98736">
        <ele>257</ele>
      </trkpt>
      <trkpt lat="44.33152" lon="4.98757">
        <ele>255</ele>
      </trkpt>
      <trkpt lat="44.3313" lon="4.98783">
        <ele>254</ele>
      </trkpt>
      <trkpt lat="44.33114" lon="4.98794">
        <ele>252</ele>
      </trkpt>
      <trkpt lat="44.33076" lon="4.98814">
        <ele>251</ele>
      </trkpt>
      <trkpt lat="44.33055" lon="4.98828">
        <ele>250</ele>
      </trkpt>
      <trkpt lat="44.33032" lon="4.98849">
        <ele>250</ele>
      </trkpt>
      <trkpt lat="44.32977" lon="4.98906">
        <ele>252</ele>
      </trkpt>
      <trkpt lat="44.32964" lon="4.98917">
        <ele>253</ele>
      </trkpt>
      <trkpt lat="44.32918" lon="4.98948">
        <ele>255</ele>
      </trkpt>
      <trkpt lat="44.32905" lon="4.98959">
        <ele>255</ele>
      </trkpt>
      <trkpt lat="44.32895" lon="4.98972">
        <ele>257</ele>
      </trkpt>
      <trkpt lat="44.32873" lon="4.99005">
        <ele>257</ele>
      </trkpt>
      <trkpt lat="44.32858" lon="4.99022">
        <ele>259</ele>
      </trkpt>
      <trkpt lat="44.32844" lon="4.99033">
        <ele>259</ele>
      </trkpt>
      <trkpt lat="44.3279" lon="4.99066">
        <ele>261</ele>
      </trkpt>
      <trkpt lat="44.32773" lon="4.99079">
        <ele>261</ele>
      </trkpt>
      <trkpt lat="44.32732" lon="4.9912">
        <ele>260</ele>
      </trkpt>
      <trkpt lat="44.32717" lon="4.99141">
        <ele>260</ele>
      </trkpt>
      <trkpt lat="44.32691" lon="4.99186">
        <ele>260</ele>
      </trkpt>
      <trkpt lat="44.32684" lon="4.99202">
        <ele>260</ele>
      </trkpt>
      <trkpt lat="44.32675" lon="4.99233">
        <ele>261</ele>
      </trkpt>
      <trkpt lat="44.32657" lon="4.99226">
        <ele>262</ele>
      </trkpt>
      <trkpt lat="44.32646" lon="4.99226">
        <ele>265</ele>
      </trkpt>
      <trkpt lat="44.32641" lon="4.99228">
        <ele>265</ele>
      </trkpt>
      <trkpt lat="44.32634" lon="4.99237">
        <ele>265</ele>
      </trkpt>
      <trkpt lat="44.32627" lon="4.99254">
        <ele>265</ele>
      </trkpt>
      <trkpt lat="44.32624" lon="4.99279">
        <ele>265</ele>
      </trkpt>
      <trkpt lat="44.32611" lon="4.99353">
        <ele>268</ele>
      </trkpt>
      <trkpt lat="44.32604" lon="4.99372">
        <ele>268</ele>
      </trkpt>
      <trkpt lat="44.32599" lon="4.99379">
        <ele>269</ele>
      </trkpt>
      <trkpt lat="44.32587" lon="4.99389">
        <ele>273</ele>
      </trkpt>
      <trkpt lat="44.32578" lon="4.99393">
        <ele>274</ele>
      </trkpt>
      <trkpt lat="44.32507" lon="4.99416">
        <ele>285</ele>
      </trkpt>
      <trkpt lat="44.32483" lon="4.99432">
        <ele>286</ele>
      </trkpt>
      <trkpt lat="44.32471" lon="4.99432">
        <ele>287</ele>
      </trkpt>
      <trkpt lat="44.32462" lon="4.99427">
        <ele>288</ele>
      </trkpt>
      <trkpt lat="44.32457" lon="4.9942">
        <ele>288</ele>
      </trkpt>
      <trkpt lat="44.32453" lon="4.99411">
        <ele>290</ele>
      </trkpt>
      <trkpt lat="44.32451" lon="4.9939">
        <ele>291</ele>
      </trkpt>
      <trkpt lat="44.32455" lon="4.99373">
        <ele>291</ele>
      </trkpt>
      <trkpt lat="44.32461" lon="4.99365">
        <ele>291</ele>
      </trkpt>
      <trkpt lat="44.32545" lon="4.99295">
        <ele>288</ele>
      </trkpt>
      <trkpt lat="44.32553" lon="4.99286">
        <ele>288</ele>
      </trkpt>
      <trkpt lat="44.32562" lon="4.99268">
        <ele>288</ele>
      </trkpt>
      <trkpt lat="44.32564" lon="4.99257">
        <ele>288</ele>
      </trkpt>
      <trkpt lat="44.32563" lon="4.99229">
        <ele>292</ele>
      </trkpt>
      <trkpt lat="44.32564" lon="4.9921">
        <ele>295</ele>
      </trkpt>
      <trkpt lat="44.32572" lon="4.99173">
        <ele>292</ele>
      </trkpt>
      <trkpt lat="44.32572" lon="4.99126">
        <ele>298</ele>
      </trkpt>
      <trkpt lat="44.32579" lon="4.99104">
        <ele>301</ele>
      </trkpt>
      <trkpt lat="44.32607" lon="4.99049">
        <ele>300</ele>
      </trkpt>
      <trkpt lat="44.32609" lon="4.99043">
        <ele>300</ele>
      </trkpt>
      <trkpt lat="44.32609" lon="4.99029">
        <ele>299</ele>
      </trkpt>
      <trkpt lat="44.32604" lon="4.99017">
        <ele>299</ele>
      </trkpt>
      <trkpt lat="44.32593" lon="4.99012">
        <ele>299</ele>
      </trkpt>
      <trkpt lat="44.32584" lon="4.99016">
        <ele>302</ele>
      </trkpt>
      <trkpt lat="44.3258" lon="4.9902">
        <ele>302</ele>
      </trkpt>
      <trkpt lat="44.32575" lon="4.99033">
        <ele>304</ele>
      </trkpt>
      <trkpt lat="44.32574" lon="4.99062">
        <ele>304</ele>
      </trkpt>
      <trkpt lat="44.32572" lon="4.99072">
        <ele>304</ele>
      </trkpt>
      <trkpt lat="44.32568" lon="4.9908">
        <ele>304</ele>
      </trkpt>
      <trkpt lat="44.32546" lon="4.99113">
        <ele>306</ele>
      </trkpt>
      <trkpt lat="44.32537" lon="4.9913">
        <ele>306</ele>
      </trkpt>
      <trkpt lat="44.32521" lon="4.99173">
        <ele>309</ele>
      </trkpt>
      <trkpt lat="44.32514" lon="4.99185">
        <ele>310</ele>
      </trkpt>
      <trkpt lat="44.32499" lon="4.992">
        <ele>314</ele>
      </trkpt>
      <trkpt lat="44.32478" lon="4.99209">
        <ele>319</ele>
      </trkpt>
      <trkpt lat="44.32457" lon="4.99208">
        <ele>321</ele>
      </trkpt>
      <trkpt lat="44.32438" lon="4.99196">
        <ele>326</ele>
      </trkpt>
      <trkpt lat="44.32414" lon="4.99188">
        <ele>334</ele>
      </trkpt>
      <trkpt lat="44.32408" lon="4.99191">
        <ele>333</ele>
      </trkpt>
      <trkpt lat="44.32379" lon="4.99216">
        <ele>329</ele>
      </trkpt>
      <trkpt lat="44.3237" lon="4.99221">
        <ele>331</ele>
      </trkpt>
      <trkpt lat="44.3236" lon="4.99223">
        <ele>328</ele>
      </trkpt>
      <trkpt lat="44.32348" lon="4.99224">
        <ele>329</ele>
      </trkpt>
      <trkpt lat="44.32336" lon="4.99222">
        <ele>334</ele>
      </trkpt>
      <trkpt lat="44.3227" lon="4.99206">
        <ele>337</ele>
      </trkpt>
      <trkpt lat="44.32237" lon="4.99191">
        <ele>341</ele>
      </trkpt>
      <trkpt lat="44.32218" lon="4.99179">
        <ele>341</ele>
      </trkpt>
      <trkpt lat="44.32191" lon="4.99152">
        <ele>346</ele>
      </trkpt>
      <trkpt lat="44.32168" lon="4.99123">
        <ele>349</ele>
      </trkpt>
      <trkpt lat="44.32161" lon="4.99119">
        <ele>349</ele>
      </trkpt>
      <trkpt lat="44.32156" lon="4.99118">
        <ele>349</ele>
      </trkpt>
      <trkpt lat="44.32151" lon="4.99121">
        <ele>348</ele>
      </trkpt>
      <trkpt lat="44.32135" lon="4.99141">
        <ele>346</ele>
      </trkpt>
      <trkpt lat="44.32116" lon="4.9919">
        <ele>347</ele>
      </trkpt>
      <trkpt lat="44.32104" lon="4.99229">
        <ele>345</ele>
      </trkpt>
      <trkpt lat="44.32103" lon="4.99244">
        <ele>345</ele>
      </trkpt>
      <trkpt lat="44.32102" lon="4.99281">
        <ele>343</ele>
      </trkpt>
      <trkpt lat="44.32102" lon="4.99349">
        <ele>345</ele>
      </trkpt>
      <trkpt lat="44.32097" lon="4.99376">
        <ele>345</ele>
      </trkpt>
      <trkpt lat="44.32056" lon="4.99489">
        <ele>352</ele>
      </trkpt>
      <trkpt lat="44.32033" lon="4.99575">
        <ele>354</ele>
      </trkpt>
      <trkpt lat="44.32016" lon="4.9962">
        <ele>354</ele>
      </trkpt>
      <trkpt lat="44.31997" lon="4.99647">
        <ele>357</ele>
      </trkpt>
      <trkpt lat="44.31916" lon="4.99723">
        <ele>362</ele>
      </trkpt>
      <trkpt lat="44.31863" lon="4.99787">
        <ele>361</ele>
      </trkpt>
      <trkpt lat="44.31836" lon="4.99826">
        <ele>360</ele>
      </trkpt>
      <trkpt lat="44.31825" lon="4.99853">
        <ele>363</ele>
      </trkpt>
      <trkpt lat="44.31811" lon="4.99899">
        <ele>362</ele>
      </trkpt>
      <trkpt lat="44.31807" lon="4.99917">
        <ele>361</ele>
      </trkpt>
      <trkpt lat="44.31808" lon="4.99932">
        <ele>362</ele>
      </trkpt>
      <trkpt lat="44.31814" lon="4.99961">
        <ele>362</ele>
      </trkpt>
      <trkpt lat="44.3184" lon="5.00023">
        <ele>364</ele>
      </trkpt>
      <trkpt lat="44.31844" lon="5.00046">
        <ele>365</ele>
      </trkpt>
      <trkpt lat="44.31843" lon="5.00057">
        <ele>364</ele>
      </trkpt>
      <trkpt lat="44.31836" lon="5.00074">
        <ele>362</ele>
      </trkpt>
      <trkpt lat="44.31832" lon="5.0008">
        <ele>362</ele>
      </trkpt>
      <trkpt lat="44.31819" lon="5.00083">
        <ele>362</ele>
      </trkpt>
      <trkpt lat="44.31809" lon="5.00081">
        <ele>361</ele>
      </trkpt>
      <trkpt lat="44.31776" lon="5.00054">
        <ele>359</ele>
      </trkpt>
      <trkpt lat="44.31762" lon="5.00048">
        <ele>358</ele>
      </trkpt>
      <trkpt lat="44.31691" lon="5.00026">
        <ele>361</ele>
      </trkpt>
      <trkpt lat="44.31684" lon="5.00021">
        <ele>361</ele>
      </trkpt>
      <trkpt lat="44.31676" lon="5.00012">
        <ele>361</ele>
      </trkpt>
      <trkpt lat="44.31672" lon="4.99998">
        <ele>359</ele>
      </trkpt>
      <trkpt lat="44.31665" lon="4.99954">
        <ele>358</ele>
      </trkpt>
      <trkpt lat="44.31659" lon="4.9994">
        <ele>356</ele>
      </trkpt>
      <trkpt lat="44.31644" lon="4.99918">
        <ele>360</ele>
      </trkpt>
      <trkpt lat="44.31634" lon="4.9991">
        <ele>359</ele>
      </trkpt>
      <trkpt lat="44.31626" lon="4.99906">
        <ele>359</ele>
      </trkpt>
      <trkpt lat="44.31595" lon="4.99907">
        <ele>364</ele>
      </trkpt>
      <trkpt lat="44.31429" lon="4.99935">
        <ele>361</ele>
      </trkpt>
      <trkpt lat="44.31423" lon="4.99944">
        <ele>360</ele>
      </trkpt>
      <trkpt lat="44.31423" lon="4.99956">
        <ele>360</ele>
      </trkpt>
      <trkpt lat="44.31428" lon="4.9997">
        <ele>361</ele>
      </trkpt>
      <trkpt lat="44.3148" lon="5.00057">
        <ele>360</ele>
      </trkpt>
      <trkpt lat="44.31482" lon="5.00064">
        <ele>363</ele>
      </trkpt>
      <trkpt lat="44.31483" lon="5.00073">
        <ele>363</ele>
      </trkpt>
      <trkpt lat="44.3148" lon="5.00082">
        <ele>360</ele>
      </trkpt>
      <trkpt lat="44.31462" lon="5.00107">
        <ele>359</ele>
      </trkpt>
      <trkpt lat="44.31444" lon="5.00123">
        <ele>354</ele>
      </trkpt>
      <trkpt lat="44.31429" lon="5.00132">
        <ele>354</ele>
      </trkpt>
      <trkpt lat="44.3142" lon="5.00135">
        <ele>351</ele>
      </trkpt>
      <trkpt lat="44.31411" lon="5.00134">
        <ele>351</ele>
      </trkpt>
      <trkpt lat="44.31392" lon="5.00128">
        <ele>348</ele>
      </trkpt>
      <trkpt lat="44.31378" lon="5.00127">
        <ele>348</ele>
      </trkpt>
      <trkpt lat="44.31304" lon="5.0016">
        <ele>340</ele>
      </trkpt>
      <trkpt lat="44.31278" lon="5.00182">
        <ele>337</ele>
      </trkpt>
      <trkpt lat="44.31272" lon="5.00191">
        <ele>336</ele>
      </trkpt>
      <trkpt lat="44.31271" lon="5.00198">
        <ele>334</ele>
      </trkpt>
      <trkpt lat="44.31273" lon="5.00208">
        <ele>335</ele>
      </trkpt>
      <trkpt lat="44.31277" lon="5.00217">
        <ele>334</ele>
      </trkpt>
      <trkpt lat="44.31291" lon="5.00227">
        <ele>332</ele>
      </trkpt>
      <trkpt lat="44.31322" lon="5.00244">
        <ele>333</ele>
      </trkpt>
      <trkpt lat="44.31359" lon="5.0027">
        <ele>330</ele>
      </trkpt>
      <trkpt lat="44.31382" lon="5.00279">
        <ele>327</ele>
      </trkpt>
      <trkpt lat="44.31425" lon="5.00291">
        <ele>330</ele>
      </trkpt>
      <trkpt lat="44.31431" lon="5.00296">
        <ele>333</ele>
      </trkpt>
      <trkpt lat="44.31432" lon="5.00301">
        <ele>333</ele>
      </trkpt>
      <trkpt lat="44.31429" lon="5.00307">
        <ele>332</ele>
      </trkpt>
      <trkpt lat="44.31423" lon="5.00308">
        <ele>328</ele>
      </trkpt>
      <trkpt lat="44.31355" lon="5.00304">
        <ele>322</ele>
      </trkpt>
      <trkpt lat="44.31237" lon="5.00325">
        <ele>309</ele>
      </trkpt>
      <trkpt lat="44.31151" lon="5.00324">
        <ele>302</ele>
      </trkpt>
      <trkpt lat="44.31128" lon="5.00317">
        <ele>300</ele>
      </trkpt>
      <trkpt lat="44.31101" lon="5.00303">
        <ele>301</ele>
      </trkpt>
      <trkpt lat="44.31051" lon="5.00253">
        <ele>296</ele>
      </trkpt>
      <trkpt lat="44.31042" lon="5.00248">
        <ele>296</ele>
      </trkpt>
      <trkpt lat="44.31031" lon="5.00246">
        <ele>293</ele>
      </trkpt>
      <trkpt lat="44.30963" lon="5.00265">
        <ele>286</ele>
      </trkpt>
      <trkpt lat="44.3095" lon="5.00266">
        <ele>283</ele>
      </trkpt>
      <trkpt lat="44.3092" lon="5.00258">
        <ele>280</ele>
      </trkpt>
      <trkpt lat="44.30876" lon="5.00227">
        <ele>277</ele>
      </trkpt>
      <trkpt lat="44.30836" lon="5.00214">
        <ele>277</ele>
      </trkpt>
      <trkpt lat="44.30784" lon="5.00214">
        <ele>276</ele>
      </trkpt>
      <trkpt lat="44.30738" lon="5.002">
        <ele>274</ele>
      </trkpt>
      <trkpt lat="44.30704" lon="5.00176">
        <ele>269</ele>
      </trkpt>
      <trkpt lat="44.30677" lon="5.00165">
        <ele>265</ele>
      </trkpt>
      <trkpt lat="44.30603" lon="5.00142">
        <ele>263</ele>
      </trkpt>
      <trkpt lat="44.30591" lon="5.00143">
        <ele>262</ele>
      </trkpt>
      <trkpt lat="44.30579" lon="5.00148">
        <ele>262</ele>
      </trkpt>
      <trkpt lat="44.30561" lon="5.00163">
        <ele>261</ele>
      </trkpt>
      <trkpt lat="44.30508" lon="5.00232">
        <ele>254</ele>
      </trkpt>
      <trkpt lat="44.305" lon="5.00251">
        <ele>253</ele>
      </trkpt>
      <trkpt lat="44.30499" lon="5.00273">
        <ele>252</ele>
      </trkpt>
      <trkpt lat="44.3053" lon="5.00486">
        <ele>238</ele>
      </trkpt>
      <trkpt lat="44.30529" lon="5.00502">
        <ele>235</ele>
      </trkpt>
      <trkpt lat="44.30521" lon="5.00512">
        <ele>235</ele>
      </trkpt>
      <trkpt lat="44.30509" lon="5.00519">
        <ele>235</ele>
      </trkpt>
      <trkpt lat="44.30465" lon="5.00534">
        <ele>232</ele>
      </trkpt>
      <trkpt lat="44.30378" lon="5.00557">
        <ele>226</ele>
      </trkpt>
      <trkpt lat="44.30306" lon="5.00573">
        <ele>226</ele>
      </trkpt>
      <trkpt lat="44.30257" lon="5.00589">
        <ele>221</ele>
      </trkpt>
      <trkpt lat="44.30113" lon="5.00665">
        <ele>213</ele>
      </trkpt>
      <trkpt lat="44.30051" lon="5.00727">
        <ele>208</ele>
      </trkpt>
      <trkpt lat="44.29953" lon="5.00812">
        <ele>205</ele>
      </trkpt>
      <trkpt lat="44.29895" lon="5.00873">
        <ele>201</ele>
      </trkpt>
      <trkpt lat="44.29883" lon="5.00893">
        <ele>200</ele>
      </trkpt>
      <trkpt lat="44.29877" lon="5.009">
        <ele>200</ele>
      </trkpt>
      <trkpt lat="44.29841" lon="5.00918">
        <ele>199</ele>
      </trkpt>
      <trkpt lat="44.29771" lon="5.00798">
        <ele>194</ele>
      </trkpt>
      <trkpt lat="44.29765" lon="5.00775">
        <ele>194</ele>
      </trkpt>
      <trkpt lat="44.2976" lon="5.00749">
        <ele>193</ele>
      </trkpt>
      <trkpt lat="44.29755" lon="5.00735">
        <ele>191</ele>
      </trkpt>
      <trkpt lat="44.29731" lon="5.00692">
        <ele>191</ele>
      </trkpt>
      <trkpt lat="44.29648" lon="5.00383">
        <ele>186</ele>
      </trkpt>
      <trkpt lat="44.29638" lon="5.00352">
        <ele>185</ele>
      </trkpt>
      <trkpt lat="44.29614" lon="5.00287">
        <ele>185</ele>
      </trkpt>
      <trkpt lat="44.29416" lon="4.99851">
        <ele>179</ele>
      </trkpt>
      <trkpt lat="44.29394" lon="4.99793">
        <ele>178</ele>
      </trkpt>
      <trkpt lat="44.29385" lon="4.99764">
        <ele>178</ele>
      </trkpt>
      <trkpt lat="44.29165" lon="4.98856">
        <ele>177</ele>
      </trkpt>
      <trkpt lat="44.29159" lon="4.9881">
        <ele>178</ele>
      </trkpt>
      <trkpt lat="44.2916" lon="4.988">
        <ele>179</ele>
      </trkpt>
      <trkpt lat="44.29163" lon="4.98794">
        <ele>179</ele>
      </trkpt>
      <trkpt lat="44.29163" lon="4.9878">
        <ele>179</ele>
      </trkpt>
      <trkpt lat="44.29159" lon="4.98767">
        <ele>179</ele>
      </trkpt>
      <trkpt lat="44.29148" lon="4.98755">
        <ele>179</ele>
      </trkpt>
      <trkpt lat="44.29144" lon="4.98744">
        <ele>178</ele>
      </trkpt>
      <trkpt lat="44.29136" lon="4.98699">
        <ele>179</ele>
      </trkpt>
      <trkpt lat="44.29136" lon="4.98679">
        <ele>179</ele>
      </trkpt>
      <trkpt lat="44.29141" lon="4.98548">
        <ele>179</ele>
      </trkpt>
      <trkpt lat="44.2914" lon="4.98505">
        <ele>179</ele>
      </trkpt>
      <trkpt lat="44.29135" lon="4.98457">
        <ele>180</ele>
      </trkpt>
      <trkpt lat="44.28995" lon="4.97724">
        <ele>171</ele>
      </trkpt>
      <trkpt lat="44.28979" lon="4.97652">
        <ele>170</ele>
      </trkpt>
      <trkpt lat="44.28972" lon="4.9761">
        <ele>172</ele>
      </trkpt>
      <trkpt lat="44.28975" lon="4.9759">
        <ele>173</ele>
      </trkpt>
      <trkpt lat="44.28979" lon="4.97579">
        <ele>174</ele>
      </trkpt>
      <trkpt lat="44.28985" lon="4.97572">
        <ele>174</ele>
      </trkpt>
      <trkpt lat="44.28995" lon="4.97566">
        <ele>174</ele>
      </trkpt>
      <trkpt lat="44.29026" lon="4.97563">
        <ele>174</ele>
      </trkpt>
      <trkpt lat="44.29072" lon="4.97554">
        <ele>177</ele>
      </trkpt>
      <trkpt lat="44.29132" lon="4.97537">
        <ele>179</ele>
      </trkpt>
      <trkpt lat="44.29146" lon="4.97538">
        <ele>180</ele>
      </trkpt>
      <trkpt lat="44.29571" lon="4.97616">
        <ele>198</ele>
      </trkpt>
      <trkpt lat="44.2964" lon="4.97626">
        <ele>198</ele>
      </trkpt>
      <trkpt lat="44.29686" lon="4.97625">
        <ele>200</ele>
      </trkpt>
      <trkpt lat="44.29779" lon="4.976">
        <ele>204</ele>
      </trkpt>
      <trkpt lat="44.29806" lon="4.97598">
        <ele>204</ele>
      </trkpt>
      <trkpt lat="44.29859" lon="4.976">
        <ele>208</ele>
      </trkpt>
      <trkpt lat="44.30017" lon="4.97587">
        <ele>212</ele>
      </trkpt>
      <trkpt lat="44.30143" lon="4.97592">
        <ele>213</ele>
      </trkpt>
      <trkpt lat="44.30163" lon="4.97592">
        <ele>212</ele>
      </trkpt>
      <trkpt lat="44.30195" lon="4.97584">
        <ele>211</ele>
      </trkpt>
      <trkpt lat="44.30228" lon="4.97571">
        <ele>211</ele>
      </trkpt>
      <trkpt lat="44.30247" lon="4.97559">
        <ele>210</ele>
      </trkpt>
      <trkpt lat="44.30264" lon="4.97545">
        <ele>210</ele>
      </trkpt>
      <trkpt lat="44.30304" lon="4.97501">
        <ele>211</ele>
      </trkpt>
      <trkpt lat="44.30351" lon="4.97465">
        <ele>213</ele>
      </trkpt>
      <trkpt lat="44.30376" lon="4.97438">
        <ele>214</ele>
      </trkpt>
      <trkpt lat="44.30407" lon="4.97392">
        <ele>215</ele>
      </trkpt>
      <trkpt lat="44.30505" lon="4.9723">
        <ele>217</ele>
      </trkpt>
      <trkpt lat="44.30529" lon="4.97175">
        <ele>217</ele>
      </trkpt>
      <trkpt lat="44.3059" lon="4.97024">
        <ele>216</ele>
      </trkpt>
      <trkpt lat="44.30656" lon="4.96866">
        <ele>211</ele>
      </trkpt>
      <trkpt lat="44.30697" lon="4.96763">
        <ele>206</ele>
      </trkpt>
      <trkpt lat="44.30756" lon="4.9659">
        <ele>200</ele>
      </trkpt>
      <trkpt lat="44.30806" lon="4.96496">
        <ele>194</ele>
      </trkpt>
      <trkpt lat="44.30829" lon="4.96438">
        <ele>193</ele>
      </trkpt>
      <trkpt lat="44.30844" lon="4.9639">
        <ele>192</ele>
      </trkpt>
      <trkpt lat="44.30864" lon="4.963">
        <ele>191</ele>
      </trkpt>
      <trkpt lat="44.30901" lon="4.96159">
        <ele>185</ele>
      </trkpt>
      <trkpt lat="44.30943" lon="4.95977">
        <ele>185</ele>
      </trkpt>
      <trkpt lat="44.30954" lon="4.9594">
        <ele>185</ele>
      </trkpt>
      <trkpt lat="44.30975" lon="4.95892">
        <ele>184</ele>
      </trkpt>
      <trkpt lat="44.31014" lon="4.95823">
        <ele>183</ele>
      </trkpt>
      <trkpt lat="44.31033" lon="4.95782">
        <ele>183</ele>
      </trkpt>
      <trkpt lat="44.3104" lon="4.95759">
        <ele>184</ele>
      </trkpt>
      <trkpt lat="44.3105" lon="4.95709">
        <ele>182</ele>
      </trkpt>
      <trkpt lat="44.31068" lon="4.95565">
        <ele>182</ele>
      </trkpt>
      <trkpt lat="44.31075" lon="4.95526">
        <ele>181</ele>
      </trkpt>
      <trkpt lat="44.31084" lon="4.95484">
        <ele>180</ele>
      </trkpt>
      <trkpt lat="44.31103" lon="4.95417">
        <ele>180</ele>
      </trkpt>
      <trkpt lat="44.31112" lon="4.95388">
        <ele>179</ele>
      </trkpt>
      <trkpt lat="44.31123" lon="4.95362">
        <ele>181</ele>
      </trkpt>
      <trkpt lat="44.31145" lon="4.95333">
        <ele>180</ele>
      </trkpt>
      <trkpt lat="44.31224" lon="4.95254">
        <ele>181</ele>
      </trkpt>
      <trkpt lat="44.31232" lon="4.95243">
        <ele>182</ele>
      </trkpt>
      <trkpt lat="44.31264" lon="4.95189">
        <ele>185</ele>
      </trkpt>
      <trkpt lat="44.31275" lon="4.95117">
        <ele>186</ele>
      </trkpt>
      <trkpt lat="44.31287" lon="4.95078">
        <ele>187</ele>
      </trkpt>
      <trkpt lat="44.31309" lon="4.95028">
        <ele>187</ele>
      </trkpt>
      <trkpt lat="44.31316" lon="4.95026">
        <ele>187</ele>
      </trkpt>
      <trkpt lat="44.31365" lon="4.94959">
        <ele>185</ele>
      </trkpt>
      <trkpt lat="44.31373" lon="4.94949">
        <ele>186</ele>
      </trkpt>
      <trkpt lat="44.31411" lon="4.94924">
        <ele>186</ele>
      </trkpt>
      <trkpt lat="44.31444" lon="4.94908">
        <ele>186</ele>
      </trkpt>
      <trkpt lat="44.31464" lon="4.94902">
        <ele>186</ele>
      </trkpt>
      <trkpt lat="44.31476" lon="4.94901">
        <ele>186</ele>
      </trkpt>
      <trkpt lat="44.3151" lon="4.94904">
        <ele>185</ele>
      </trkpt>
      <trkpt lat="44.31548" lon="4.94913">
        <ele>185</ele>
      </trkpt>
      <trkpt lat="44.31565" lon="4.94922">
        <ele>187</ele>
      </trkpt>
      <trkpt lat="44.31619" lon="4.94964">
        <ele>188</ele>
      </trkpt>
      <trkpt lat="44.31624" lon="4.94966">
        <ele>188</ele>
      </trkpt>
      <trkpt lat="44.31647" lon="4.94967">
        <ele>187</ele>
      </trkpt>
      <trkpt lat="44.31675" lon="4.94962">
        <ele>187</ele>
      </trkpt>
      <trkpt lat="44.31693" lon="4.94956">
        <ele>186</ele>
      </trkpt>
      <trkpt lat="44.31764" lon="4.94918">
        <ele>186</ele>
      </trkpt>
      <trkpt lat="44.3184" lon="4.94874">
        <ele>184</ele>
      </trkpt>
      <trkpt lat="44.31851" lon="4.94865">
        <ele>184</ele>
      </trkpt>
      <trkpt lat="44.31857" lon="4.94873">
        <ele>184</ele>
      </trkpt>
      <trkpt lat="44.31866" lon="4.94875">
        <ele>185</ele>
      </trkpt>
      <trkpt lat="44.31871" lon="4.94872">
        <ele>185</ele>
      </trkpt>
      <trkpt lat="44.31874" lon="4.94867">
        <ele>185</ele>
      </trkpt>
      <trkpt lat="44.31876" lon="4.9486">
        <ele>185</ele>
      </trkpt>
      <trkpt lat="44.31876" lon="4.94853">
        <ele>185</ele>
      </trkpt>
      <trkpt lat="44.31873" lon="4.94845">
        <ele>185</ele>
      </trkpt>
      <trkpt lat="44.31869" lon="4.9484">
        <ele>184</ele>
      </trkpt>
      <trkpt lat="44.31863" lon="4.94838">
        <ele>184</ele>
      </trkpt>
      <trkpt lat="44.31858" lon="4.94839">
        <ele>184</ele>
      </trkpt>
      <trkpt lat="44.31853" lon="4.94844">
        <ele>184</ele>
      </trkpt>
      <trkpt lat="44.31843" lon="4.94829">
        <ele>184</ele>
      </trkpt>
      <trkpt lat="44.31841" lon="4.94824">
        <ele>184</ele>
      </trkpt>
      <trkpt lat="44.31842" lon="4.94819">
        <ele>184</ele>
      </trkpt>
      <trkpt lat="44.31925" lon="4.94368">
        <ele>168</ele>
      </trkpt>
      <trkpt lat="44.3193" lon="4.94347">
        <ele>167</ele>
      </trkpt>
      <trkpt lat="44.31943" lon="4.94317">
        <ele>167</ele>
      </trkpt>
      <trkpt lat="44.31958" lon="4.94293">
        <ele>166</ele>
      </trkpt>
      <trkpt lat="44.32287" lon="4.93938">
        <ele>160</ele>
      </trkpt>
      <trkpt lat="44.32308" lon="4.93916">
        <ele>161</ele>
      </trkpt>
      <trkpt lat="44.32347" lon="4.93876">
        <ele>162</ele>
      </trkpt>
      <trkpt lat="44.32357" lon="4.93868">
        <ele>162</ele>
      </trkpt>
      <trkpt lat="44.32369" lon="4.93863">
        <ele>162</ele>
      </trkpt>
      <trkpt lat="44.32382" lon="4.9386">
        <ele>164</ele>
      </trkpt>
      <trkpt lat="44.32396" lon="4.93861">
        <ele>165</ele>
      </trkpt>
      <trkpt lat="44.32484" lon="4.93885">
        <ele>169</ele>
      </trkpt>
      <trkpt lat="44.3251" lon="4.93888">
        <ele>170</ele>
      </trkpt>
      <trkpt lat="44.32549" lon="4.93879">
        <ele>169</ele>
      </trkpt>
      <trkpt lat="44.32672" lon="4.93839">
        <ele>165</ele>
      </trkpt>
      <trkpt lat="44.327" lon="4.93826">
        <ele>163</ele>
      </trkpt>
      <trkpt lat="44.32796" lon="4.93765">
        <ele>165</ele>
      </trkpt>
      <trkpt lat="44.32821" lon="4.93746">
        <ele>165</ele>
      </trkpt>
      <trkpt lat="44.32843" lon="4.93725">
        <ele>165</ele>
      </trkpt>
      <trkpt lat="44.32915" lon="4.93649">
        <ele>163</ele>
      </trkpt>
      <trkpt lat="44.32951" lon="4.93604">
        <ele>162</ele>
      </trkpt>
      <trkpt lat="44.32976" lon="4.93581">
        <ele>162</ele>
      </trkpt>
      <trkpt lat="44.33012" lon="4.9355">
        <ele>163</ele>
      </trkpt>
      <trkpt lat="44.3303" lon="4.9353">
        <ele>163</ele>
      </trkpt>
      <trkpt lat="44.33047" lon="4.93509">
        <ele>162</ele>
      </trkpt>
      <trkpt lat="44.33152" lon="4.93367">
        <ele>163</ele>
      </trkpt>
      <trkpt lat="44.33171" lon="4.93335">
        <ele>163</ele>
      </trkpt>
      <trkpt lat="44.33189" lon="4.93301">
        <ele>163</ele>
      </trkpt>
      <trkpt lat="44.33206" lon="4.93274">
        <ele>162</ele>
      </trkpt>
      <trkpt lat="44.33222" lon="4.93254">
        <ele>162</ele>
      </trkpt>
      <trkpt lat="44.33239" lon="4.93236">
        <ele>162</ele>
      </trkpt>
      <trkpt lat="44.33256" lon="4.93223">
        <ele>162</ele>
      </trkpt>
      <trkpt lat="44.33313" lon="4.93183">
        <ele>162</ele>
      </trkpt>
      <trkpt lat="44.33352" lon="4.93152">
        <ele>162</ele>
      </trkpt>
      <trkpt lat="44.33395" lon="4.93113">
        <ele>162</ele>
      </trkpt>
      <trkpt lat="44.33487" lon="4.93014">
        <ele>164</ele>
      </trkpt>
      <trkpt lat="44.33513" lon="4.92981">
        <ele>164</ele>
      </trkpt>
      <trkpt lat="44.33662" lon="4.92769">
        <ele>161</ele>
      </trkpt>
      <trkpt lat="44.33698" lon="4.92723">
        <ele>159</ele>
      </trkpt>
      <trkpt lat="44.33774" lon="4.92648">
        <ele>157</ele>
      </trkpt>
      <trkpt lat="44.33807" lon="4.92613">
        <ele>156</ele>
      </trkpt>
      <trkpt lat="44.33935" lon="4.92453">
        <ele>152</ele>
      </trkpt>
      <trkpt lat="44.33948" lon="4.92443">
        <ele>152</ele>
      </trkpt>
      <trkpt lat="44.33981" lon="4.92429">
        <ele>153</ele>
      </trkpt>
      <trkpt lat="44.33994" lon="4.92422">
        <ele>153</ele>
      </trkpt>
      <trkpt lat="44.34025" lon="4.92393">
        <ele>153</ele>
      </trkpt>
      <trkpt lat="44.34095" lon="4.92313">
        <ele>152</ele>
      </trkpt>
      <trkpt lat="44.34107" lon="4.92305">
        <ele>152</ele>
      </trkpt>
      <trkpt lat="44.34116" lon="4.92302">
        <ele>152</ele>
      </trkpt>
      <trkpt lat="44.34126" lon="4.92301">
        <ele>153</ele>
      </trkpt>
      <trkpt lat="44.3414" lon="4.92303">
        <ele>153</ele>
      </trkpt>
      <trkpt lat="44.34197" lon="4.92324">
        <ele>153</ele>
      </trkpt>
      <trkpt lat="44.34219" lon="4.92324">
        <ele>153</ele>
      </trkpt>
      <trkpt lat="44.34227" lon="4.9232">
        <ele>153</ele>
      </trkpt>
      <trkpt lat="44.34329" lon="4.92247">
        <ele>153</ele>
      </trkpt>
      <trkpt lat="44.34361" lon="4.92231">
        <ele>153</ele>
      </trkpt>
      <trkpt lat="44.34416" lon="4.92212">
        <ele>153</ele>
      </trkpt>
      <trkpt lat="44.34476" lon="4.92174">
        <ele>153</ele>
      </trkpt>
      <trkpt lat="44.34544" lon="4.92135">
        <ele>152</ele>
      </trkpt>
      <trkpt lat="44.34756" lon="4.92023">
        <ele>154</ele>
      </trkpt>
      <trkpt lat="44.34764" lon="4.92018">
        <ele>154</ele>
      </trkpt>
      <trkpt lat="44.34782" lon="4.92005">
        <ele>154</ele>
      </trkpt>
      <trkpt lat="44.34793" lon="4.91994">
        <ele>154</ele>
      </trkpt>
      <trkpt lat="44.34852" lon="4.91932">
        <ele>153</ele>
      </trkpt>
      <trkpt lat="44.34877" lon="4.91914">
        <ele>154</ele>
      </trkpt>
      <trkpt lat="44.34974" lon="4.91837">
        <ele>153</ele>
      </trkpt>
      <trkpt lat="44.3499" lon="4.91827">
        <ele>153</ele>
      </trkpt>
      <trkpt lat="44.35014" lon="4.91814">
        <ele>153</ele>
      </trkpt>
      <trkpt lat="44.35031" lon="4.91809">
        <ele>153</ele>
      </trkpt>
      <trkpt lat="44.3506" lon="4.91805">
        <ele>153</ele>
      </trkpt>
      <trkpt lat="44.35143" lon="4.91799">
        <ele>156</ele>
      </trkpt>
      <trkpt lat="44.35163" lon="4.91794">
        <ele>156</ele>
      </trkpt>
      <trkpt lat="44.35192" lon="4.91775">
        <ele>155</ele>
      </trkpt>
      <trkpt lat="44.35232" lon="4.91731">
        <ele>157</ele>
      </trkpt>
      <trkpt lat="44.35315" lon="4.91634">
        <ele>158</ele>
      </trkpt>
      <trkpt lat="44.35521" lon="4.91301">
        <ele>156</ele>
      </trkpt>
      <trkpt lat="44.35541" lon="4.91253">
        <ele>156</ele>
      </trkpt>
      <trkpt lat="44.35547" lon="4.91242">
        <ele>156</ele>
      </trkpt>
      <trkpt lat="44.35554" lon="4.91233">
        <ele>156</ele>
      </trkpt>
      <trkpt lat="44.35559" lon="4.91241">
        <ele>156</ele>
      </trkpt>
      <trkpt lat="44.35567" lon="4.91244">
        <ele>157</ele>
      </trkpt>
      <trkpt lat="44.3557" lon="4.91243">
        <ele>157</ele>
      </trkpt>
      <trkpt lat="44.35578" lon="4.91237">
        <ele>157</ele>
      </trkpt>
      <trkpt lat="44.35582" lon="4.91225">
        <ele>157</ele>
      </trkpt>
      <trkpt lat="44.3558" lon="4.91213">
        <ele>157</ele>
      </trkpt>
      <trkpt lat="44.35587" lon="4.91205">
        <ele>157</ele>
      </trkpt>
      <trkpt lat="44.35609" lon="4.91172">
        <ele>157</ele>
      </trkpt>
      <trkpt lat="44.35617" lon="4.91164">
        <ele>156</ele>
      </trkpt>
      <trkpt lat="44.35639" lon="4.91153">
        <ele>157</ele>
      </trkpt>
      <trkpt lat="44.3566" lon="4.9115">
        <ele>157</ele>
      </trkpt>
      <trkpt lat="44.35676" lon="4.91152">
        <ele>157</ele>
      </trkpt>
      <trkpt lat="44.35809" lon="4.91188">
        <ele>151</ele>
      </trkpt>
      <trkpt lat="44.35883" lon="4.91208">
        <ele>153</ele>
      </trkpt>
      <trkpt lat="44.35888" lon="4.91208">
        <ele>153</ele>
      </trkpt>
      <trkpt lat="44.35898" lon="4.912">
        <ele>153</ele>
      </trkpt>
      <trkpt lat="44.35915" lon="4.91192">
        <ele>154</ele>
      </trkpt>
      <trkpt lat="44.3598" lon="4.91181">
        <ele>154</ele>
      </trkpt>
      <trkpt lat="44.36213" lon="4.91101">
        <ele>156</ele>
      </trkpt>
      <trkpt lat="44.3623" lon="4.91099">
        <ele>156</ele>
      </trkpt>
      <trkpt lat="44.36242" lon="4.91101">
        <ele>157</ele>
      </trkpt>
      <trkpt lat="44.36251" lon="4.91103">
        <ele>157</ele>
      </trkpt>
      <trkpt lat="44.36264" lon="4.9111">
        <ele>159</ele>
      </trkpt>
      <trkpt lat="44.3627" lon="4.91117">
        <ele>159</ele>
      </trkpt>
      <trkpt lat="44.36322" lon="4.91192">
        <ele>161</ele>
      </trkpt>
      <trkpt lat="44.36399" lon="4.91295">
        <ele>159</ele>
      </trkpt>
      <trkpt lat="44.36412" lon="4.91307">
        <ele>160</ele>
      </trkpt>
      <trkpt lat="44.36547" lon="4.91408">
        <ele>160</ele>
      </trkpt>
      <trkpt lat="44.36631" lon="4.91463">
        <ele>161</ele>
      </trkpt>
      <trkpt lat="44.3674" lon="4.91547">
        <ele>164</ele>
      </trkpt>
      <trkpt lat="44.36848" lon="4.91631">
        <ele>163</ele>
      </trkpt>
      <trkpt lat="44.36871" lon="4.91646">
        <ele>163</ele>
      </trkpt>
      <trkpt lat="44.36885" lon="4.91652">
        <ele>164</ele>
      </trkpt>
      <trkpt lat="44.36906" lon="4.91656">
        <ele>165</ele>
      </trkpt>
      <trkpt lat="44.37217" lon="4.91694">
        <ele>164</ele>
      </trkpt>
      <trkpt lat="44.37249" lon="4.91703">
        <ele>163</ele>
      </trkpt>
      <trkpt lat="44.37272" lon="4.91713">
        <ele>163</ele>
      </trkpt>
      <trkpt lat="44.37318" lon="4.91737">
        <ele>162</ele>
      </trkpt>
      <trkpt lat="44.37331" lon="4.91743">
        <ele>162</ele>
      </trkpt>
      <trkpt lat="44.37347" lon="4.9175">
        <ele>163</ele>
      </trkpt>
      <trkpt lat="44.37364" lon="4.91754">
        <ele>163</ele>
      </trkpt>
      <trkpt lat="44.37394" lon="4.91754">
        <ele>162</ele>
      </trkpt>
      <trkpt lat="44.37615" lon="4.91746">
        <ele>164</ele>
      </trkpt>
      <trkpt lat="44.37639" lon="4.91749">
        <ele>166</ele>
      </trkpt>
      <trkpt lat="44.37672" lon="4.91758">
        <ele>166</ele>
      </trkpt>
      <trkpt lat="44.37685" lon="4.91766">
        <ele>167</ele>
      </trkpt>
      <trkpt lat="44.37696" lon="4.91776">
        <ele>168</ele>
      </trkpt>
      <trkpt lat="44.37706" lon="4.9176">
        <ele>167</ele>
      </trkpt>
      <trkpt lat="44.37763" lon="4.91725">
        <ele>167</ele>
      </trkpt>
      <trkpt lat="44.37793" lon="4.9171">
        <ele>166</ele>
      </trkpt>
      <trkpt lat="44.37867" lon="4.91678">
        <ele>166</ele>
      </trkpt>
      <trkpt lat="44.37926" lon="4.91654">
        <ele>164</ele>
      </trkpt>
      <trkpt lat="44.38018" lon="4.91637">
        <ele>165</ele>
      </trkpt>
      <trkpt lat="44.38124" lon="4.91606">
        <ele>166</ele>
      </trkpt>
      <trkpt lat="44.38164" lon="4.91599">
        <ele>165</ele>
      </trkpt>
      <trkpt lat="44.38314" lon="4.916">
        <ele>164</ele>
      </trkpt>
      <trkpt lat="44.38415" lon="4.9159">
        <ele>164</ele>
      </trkpt>
      <trkpt lat="44.38483" lon="4.916">
        <ele>164</ele>
      </trkpt>
      <trkpt lat="44.38611" lon="4.91627">
        <ele>164</ele>
      </trkpt>
      <trkpt lat="44.38644" lon="4.9163">
        <ele>164</ele>
      </trkpt>
      <trkpt lat="44.38791" lon="4.91659">
        <ele>164</ele>
      </trkpt>
      <trkpt lat="44.38822" lon="4.91655">
        <ele>164</ele>
      </trkpt>
      <trkpt lat="44.38847" lon="4.91645">
        <ele>163</ele>
      </trkpt>
      <trkpt lat="44.38933" lon="4.916">
        <ele>164</ele>
      </trkpt>
      <trkpt lat="44.39019" lon="4.91545">
        <ele>166</ele>
      </trkpt>
      <trkpt lat="44.39038" lon="4.9154">
        <ele>166</ele>
      </trkpt>
      <trkpt lat="44.3909" lon="4.9154">
        <ele>166</ele>
      </trkpt>
      <trkpt lat="44.39091" lon="4.91534">
        <ele>166</ele>
      </trkpt>
      <trkpt lat="44.3913" lon="4.91542">
        <ele>165</ele>
      </trkpt>
      <trkpt lat="44.39353" lon="4.91604">
        <ele>167</ele>
      </trkpt>
      <trkpt lat="44.39429" lon="4.91622">
        <ele>169</ele>
      </trkpt>
      <trkpt lat="44.39436" lon="4.91631">
        <ele>169</ele>
      </trkpt>
      <trkpt lat="44.39443" lon="4.91645">
        <ele>168</ele>
      </trkpt>
      <trkpt lat="44.39447" lon="4.91659">
        <ele>168</ele>
      </trkpt>
      <trkpt lat="44.39454" lon="4.91671">
        <ele>167</ele>
      </trkpt>
      <trkpt lat="44.39463" lon="4.91679">
        <ele>168</ele>
      </trkpt>
      <trkpt lat="44.39498" lon="4.91679">
        <ele>167</ele>
      </trkpt>
      <trkpt lat="44.39515" lon="4.91683">
        <ele>167</ele>
      </trkpt>
      <trkpt lat="44.39569" lon="4.91706">
        <ele>167</ele>
      </trkpt>
      <trkpt lat="44.39586" lon="4.91709">
        <ele>167</ele>
      </trkpt>
      <trkpt lat="44.39603" lon="4.91705">
        <ele>169</ele>
      </trkpt>
      <trkpt lat="44.39647" lon="4.91682">
        <ele>169</ele>
      </trkpt>
      <trkpt lat="44.39659" lon="4.91681">
        <ele>168</ele>
      </trkpt>
      <trkpt lat="44.39667" lon="4.91682">
        <ele>168</ele>
      </trkpt>
      <trkpt lat="44.39684" lon="4.91677">
        <ele>167</ele>
      </trkpt>
      <trkpt lat="44.39685" lon="4.91681">
        <ele>167</ele>
      </trkpt>
      <trkpt lat="44.39708" lon="4.91714">
        <ele>168</ele>
      </trkpt>
      <trkpt lat="44.39718" lon="4.91744">
        <ele>168</ele>
      </trkpt>
      <trkpt lat="44.3972" lon="4.91794">
        <ele>169</ele>
      </trkpt>
      <trkpt lat="44.39719" lon="4.91862">
        <ele>171</ele>
      </trkpt>
      <trkpt lat="44.39728" lon="4.91937">
        <ele>174</ele>
      </trkpt>
      <trkpt lat="44.39732" lon="4.91981">
        <ele>179</ele>
      </trkpt>
      <trkpt lat="44.39733" lon="4.92022">
        <ele>183</ele>
      </trkpt>
      <trkpt lat="44.39752" lon="4.92005">
        <ele>185</ele>
      </trkpt>
      <trkpt lat="44.39777" lon="4.91991">
        <ele>184</ele>
      </trkpt>
      <trkpt lat="44.39878" lon="4.91962">
        <ele>188</ele>
      </trkpt>
      <trkpt lat="44.39906" lon="4.91948">
        <ele>190</ele>
      </trkpt>
      <trkpt lat="44.39947" lon="4.91921">
        <ele>190</ele>
      </trkpt>
      <trkpt lat="44.40041" lon="4.91878">
        <ele>194</ele>
      </trkpt>
      <trkpt lat="44.40108" lon="4.91824">
        <ele>196</ele>
      </trkpt>
      <trkpt lat="44.4013" lon="4.9181">
        <ele>198</ele>
      </trkpt>
      <trkpt lat="44.40205" lon="4.91772">
        <ele>198</ele>
      </trkpt>
      <trkpt lat="44.40325" lon="4.91679">
        <ele>206</ele>
      </trkpt>
      <trkpt lat="44.40392" lon="4.91624">
        <ele>206</ele>
      </trkpt>
      <trkpt lat="44.40429" lon="4.91603">
        <ele>205</ele>
      </trkpt>
      <trkpt lat="44.4067" lon="4.9147">
        <ele>200</ele>
      </trkpt>
      <trkpt lat="44.40711" lon="4.91458">
        <ele>196</ele>
      </trkpt>
      <trkpt lat="44.4075" lon="4.91479">
        <ele>194</ele>
      </trkpt>
      <trkpt lat="44.40784" lon="4.91507">
        <ele>192</ele>
      </trkpt>
      <trkpt lat="44.40798" lon="4.91536">
        <ele>192</ele>
      </trkpt>
      <trkpt lat="44.40807" lon="4.91565">
        <ele>191</ele>
      </trkpt>
      <trkpt lat="44.40814" lon="4.91625">
        <ele>188</ele>
      </trkpt>
      <trkpt lat="44.40824" lon="4.91656">
        <ele>180</ele>
      </trkpt>
      <trkpt lat="44.40869" lon="4.91713">
        <ele>175</ele>
      </trkpt>
      <trkpt lat="44.40938" lon="4.91781">
        <ele>183</ele>
      </trkpt>
      <trkpt lat="44.40981" lon="4.91797">
        <ele>183</ele>
      </trkpt>
      <trkpt lat="44.41141" lon="4.918">
        <ele>187</ele>
      </trkpt>
      <trkpt lat="44.41235" lon="4.91793">
        <ele>191</ele>
      </trkpt>
      <trkpt lat="44.41335" lon="4.91745">
        <ele>190</ele>
      </trkpt>
      <trkpt lat="44.41351" lon="4.91729">
        <ele>191</ele>
      </trkpt>
      <trkpt lat="44.41365" lon="4.91711">
        <ele>191</ele>
      </trkpt>
      <trkpt lat="44.41385" lon="4.9167">
        <ele>191</ele>
      </trkpt>
      <trkpt lat="44.41428" lon="4.91626">
        <ele>190</ele>
      </trkpt>
      <trkpt lat="44.41505" lon="4.91563">
        <ele>191</ele>
      </trkpt>
      <trkpt lat="44.41535" lon="4.91529">
        <ele>193</ele>
      </trkpt>
      <trkpt lat="44.4157" lon="4.91469">
        <ele>197</ele>
      </trkpt>
      <trkpt lat="44.4159" lon="4.91428">
        <ele>196</ele>
      </trkpt>
      <trkpt lat="44.41601" lon="4.91391">
        <ele>196</ele>
      </trkpt>
      <trkpt lat="44.41611" lon="4.91273">
        <ele>186</ele>
      </trkpt>
      <trkpt lat="44.41617" lon="4.91231">
        <ele>186</ele>
      </trkpt>
      <trkpt lat="44.41629" lon="4.9119">
        <ele>187</ele>
      </trkpt>
      <trkpt lat="44.41672" lon="4.91097">
        <ele>189</ele>
      </trkpt>
      <trkpt lat="44.41693" lon="4.91056">
        <ele>189</ele>
      </trkpt>
      <trkpt lat="44.41732" lon="4.91049">
        <ele>191</ele>
      </trkpt>
      <trkpt lat="44.41961" lon="4.91027">
        <ele>194</ele>
      </trkpt>
      <trkpt lat="44.41969" lon="4.9104">
        <ele>193</ele>
      </trkpt>
      <trkpt lat="44.4198" lon="4.91032">
        <ele>193</ele>
      </trkpt>
      <trkpt lat="44.41983" lon="4.91023">
        <ele>195</ele>
      </trkpt>
      <trkpt lat="44.4203" lon="4.90982">
        <ele>195</ele>
      </trkpt>
      <trkpt lat="44.42045" lon="4.90958">
        <ele>197</ele>
      </trkpt>
      <trkpt lat="44.42069" lon="4.90939">
        <ele>198</ele>
      </trkpt>
      <trkpt lat="44.42089" lon="4.90911">
        <ele>199</ele>
      </trkpt>
      <trkpt lat="44.42098" lon="4.9089">
        <ele>198</ele>
      </trkpt>
      <trkpt lat="44.421" lon="4.90876">
        <ele>199</ele>
      </trkpt>
      <trkpt lat="44.4209" lon="4.90855">
        <ele>201</ele>
      </trkpt>
      <trkpt lat="44.42227" lon="4.90802">
        <ele>203</ele>
      </trkpt>
      <trkpt lat="44.4257" lon="4.90682">
        <ele>214</ele>
      </trkpt>
      <trkpt lat="44.42622" lon="4.90676">
        <ele>212</ele>
      </trkpt>
      <trkpt lat="44.42708" lon="4.90674">
        <ele>209</ele>
      </trkpt>
      <trkpt lat="44.42893" lon="4.90676">
        <ele>220</ele>
      </trkpt>
      <trkpt lat="44.42941" lon="4.90672">
        <ele>221</ele>
      </trkpt>
      <trkpt lat="44.42969" lon="4.90668">
        <ele>220</ele>
      </trkpt>
      <trkpt lat="44.43013" lon="4.90647">
        <ele>217</ele>
      </trkpt>
      <trkpt lat="44.43041" lon="4.90621">
        <ele>214</ele>
      </trkpt>
      <trkpt lat="44.43054" lon="4.90595">
        <ele>215</ele>
      </trkpt>
      <trkpt lat="44.43059" lon="4.90572">
        <ele>215</ele>
      </trkpt>
      <trkpt lat="44.43061" lon="4.90513">
        <ele>213</ele>
      </trkpt>
      <trkpt lat="44.43067" lon="4.90499">
        <ele>212</ele>
      </trkpt>
      <trkpt lat="44.43074" lon="4.90491">
        <ele>207</ele>
      </trkpt>
      <trkpt lat="44.43087" lon="4.90489">
        <ele>206</ele>
      </trkpt>
      <trkpt lat="44.43098" lon="4.90497">
        <ele>203</ele>
      </trkpt>
      <trkpt lat="44.43122" lon="4.90552">
        <ele>204</ele>
      </trkpt>
      <trkpt lat="44.43151" lon="4.90603">
        <ele>202</ele>
      </trkpt>
      <trkpt lat="44.43177" lon="4.9064">
        <ele>201</ele>
      </trkpt>
      <trkpt lat="44.43213" lon="4.90681">
        <ele>196</ele>
      </trkpt>
      <trkpt lat="44.43279" lon="4.90728">
        <ele>193</ele>
      </trkpt>
      <trkpt lat="44.43316" lon="4.90745">
        <ele>191</ele>
      </trkpt>
      <trkpt lat="44.43341" lon="4.90739">
        <ele>189</ele>
      </trkpt>
      <trkpt lat="44.43484" lon="4.90615">
        <ele>192</ele>
      </trkpt>
      <trkpt lat="44.43554" lon="4.90563">
        <ele>198</ele>
      </trkpt>
      <trkpt lat="44.43582" lon="4.90556">
        <ele>200</ele>
      </trkpt>
      <trkpt lat="44.43818" lon="4.90552">
        <ele>203</ele>
      </trkpt>
      <trkpt lat="44.43894" lon="4.90556">
        <ele>206</ele>
      </trkpt>
      <trkpt lat="44.43928" lon="4.90547">
        <ele>208</ele>
      </trkpt>
      <trkpt lat="44.43961" lon="4.9053">
        <ele>212</ele>
      </trkpt>
      <trkpt lat="44.43993" lon="4.90503">
        <ele>215</ele>
      </trkpt>
      <trkpt lat="44.44044" lon="4.90445">
        <ele>220</ele>
      </trkpt>
      <trkpt lat="44.44144" lon="4.90324">
        <ele>226</ele>
      </trkpt>
      <trkpt lat="44.44279" lon="4.90171">
        <ele>232</ele>
      </trkpt>
      <trkpt lat="44.44448" lon="4.89971">
        <ele>237</ele>
      </trkpt>
      <trkpt lat="44.44787" lon="4.89654">
        <ele>253</ele>
      </trkpt>
      <trkpt lat="44.44906" lon="4.89539">
        <ele>260</ele>
      </trkpt>
      <trkpt lat="44.45145" lon="4.89321">
        <ele>270</ele>
      </trkpt>
      <trkpt lat="44.45278" lon="4.89194">
        <ele>276</ele>
      </trkpt>
      <trkpt lat="44.45358" lon="4.89122">
        <ele>277</ele>
      </trkpt>
      <trkpt lat="44.45402" lon="4.89074">
        <ele>281</ele>
      </trkpt>
      <trkpt lat="44.45449" lon="4.89003">
        <ele>281</ele>
      </trkpt>
      <trkpt lat="44.45543" lon="4.88825">
        <ele>289</ele>
      </trkpt>
      <trkpt lat="44.45607" lon="4.88712">
        <ele>295</ele>
      </trkpt>
      <trkpt lat="44.4563" lon="4.88679">
        <ele>298</ele>
      </trkpt>
      <trkpt lat="44.45662" lon="4.88647">
        <ele>300</ele>
      </trkpt>
      <trkpt lat="44.45711" lon="4.88614">
        <ele>303</ele>
      </trkpt>
      <trkpt lat="44.45764" lon="4.88596">
        <ele>307</ele>
      </trkpt>
      <trkpt lat="44.458" lon="4.8859">
        <ele>308</ele>
      </trkpt>
      <trkpt lat="44.45865" lon="4.88597">
        <ele>313</ele>
      </trkpt>
      <trkpt lat="44.45905" lon="4.8861">
        <ele>315</ele>
      </trkpt>
      <trkpt lat="44.45916" lon="4.8861">
        <ele>315</ele>
      </trkpt>
      <trkpt lat="44.45926" lon="4.88602">
        <ele>315</ele>
      </trkpt>
      <trkpt lat="44.45929" lon="4.88592">
        <ele>316</ele>
      </trkpt>
      <trkpt lat="44.4593" lon="4.8858">
        <ele>318</ele>
      </trkpt>
      <trkpt lat="44.45919" lon="4.88539">
        <ele>317</ele>
      </trkpt>
      <trkpt lat="44.45917" lon="4.88511">
        <ele>319</ele>
      </trkpt>
      <trkpt lat="44.45919" lon="4.88491">
        <ele>321</ele>
      </trkpt>
      <trkpt lat="44.45925" lon="4.88455">
        <ele>323</ele>
      </trkpt>
      <trkpt lat="44.45935" lon="4.88426">
        <ele>326</ele>
      </trkpt>
      <trkpt lat="44.45995" lon="4.88322">
        <ele>334</ele>
      </trkpt>
      <trkpt lat="44.46029" lon="4.88258">
        <ele>336</ele>
      </trkpt>
      <trkpt lat="44.46083" lon="4.88215">
        <ele>339</ele>
      </trkpt>
      <trkpt lat="44.46147" lon="4.88177">
        <ele>346</ele>
      </trkpt>
      <trkpt lat="44.46167" lon="4.88154">
        <ele>349</ele>
      </trkpt>
      <trkpt lat="44.46196" lon="4.88084">
        <ele>353</ele>
      </trkpt>
      <trkpt lat="44.46222" lon="4.88052">
        <ele>355</ele>
      </trkpt>
      <trkpt lat="44.46295" lon="4.88006">
        <ele>361</ele>
      </trkpt>
      <trkpt lat="44.4652" lon="4.87858">
        <ele>372</ele>
      </trkpt>
      <trkpt lat="44.46606" lon="4.87807">
        <ele>373</ele>
      </trkpt>
      <trkpt lat="44.46633" lon="4.87798">
        <ele>369</ele>
      </trkpt>
      <trkpt lat="44.46648" lon="4.87798">
        <ele>368</ele>
      </trkpt>
      <trkpt lat="44.46662" lon="4.87801">
        <ele>367</ele>
      </trkpt>
      <trkpt lat="44.46718" lon="4.87837">
        <ele>370</ele>
      </trkpt>
      <trkpt lat="44.46731" lon="4.87835">
        <ele>371</ele>
      </trkpt>
      <trkpt lat="44.46738" lon="4.87828">
        <ele>372</ele>
      </trkpt>
      <trkpt lat="44.46746" lon="4.87815">
        <ele>372</ele>
      </trkpt>
      <trkpt lat="44.4675" lon="4.87724">
        <ele>372</ele>
      </trkpt>
      <trkpt lat="44.46755" lon="4.877">
        <ele>372</ele>
      </trkpt>
      <trkpt lat="44.46761" lon="4.87685">
        <ele>371</ele>
      </trkpt>
      <trkpt lat="44.46773" lon="4.87672">
        <ele>371</ele>
      </trkpt>
      <trkpt lat="44.46806" lon="4.87653">
        <ele>369</ele>
      </trkpt>
      <trkpt lat="44.46866" lon="4.87629">
        <ele>371</ele>
      </trkpt>
      <trkpt lat="44.46951" lon="4.87638">
        <ele>371</ele>
      </trkpt>
      <trkpt lat="44.46994" lon="4.87653">
        <ele>368</ele>
      </trkpt>
      <trkpt lat="44.47039" lon="4.87662">
        <ele>368</ele>
      </trkpt>
      <trkpt lat="44.47163" lon="4.87692">
        <ele>369</ele>
      </trkpt>
      <trkpt lat="44.47179" lon="4.87692">
        <ele>369</ele>
      </trkpt>
      <trkpt lat="44.47308" lon="4.87651">
        <ele>376</ele>
      </trkpt>
      <trkpt lat="44.4768" lon="4.87515">
        <ele>383</ele>
      </trkpt>
      <trkpt lat="44.47708" lon="4.87521">
        <ele>382</ele>
      </trkpt>
      <trkpt lat="44.4814" lon="4.87706">
        <ele>401</ele>
      </trkpt>
      <trkpt lat="44.48201" lon="4.87783">
        <ele>407</ele>
      </trkpt>
      <trkpt lat="44.48213" lon="4.87794">
        <ele>408</ele>
      </trkpt>
      <trkpt lat="44.4823" lon="4.87799">
        <ele>408</ele>
      </trkpt>
      <trkpt lat="44.48379" lon="4.87814">
        <ele>416</ele>
      </trkpt>
      <trkpt lat="44.48397" lon="4.87807">
        <ele>416</ele>
      </trkpt>
      <trkpt lat="44.48418" lon="4.87789">
        <ele>418</ele>
      </trkpt>
      <trkpt lat="44.4857" lon="4.87633">
        <ele>418</ele>
      </trkpt>
      <trkpt lat="44.48593" lon="4.87623">
        <ele>418</ele>
      </trkpt>
      <trkpt lat="44.48616" lon="4.87616">
        <ele>418</ele>
      </trkpt>
      <trkpt lat="44.48634" lon="4.87607">
        <ele>418</ele>
      </trkpt>
      <trkpt lat="44.48652" lon="4.87589">
        <ele>419</ele>
      </trkpt>
      <trkpt lat="44.48685" lon="4.87532">
        <ele>422</ele>
      </trkpt>
      <trkpt lat="44.48701" lon="4.8751">
        <ele>423</ele>
      </trkpt>
      <trkpt lat="44.48715" lon="4.87498">
        <ele>424</ele>
      </trkpt>
      <trkpt lat="44.48736" lon="4.87491">
        <ele>426</ele>
      </trkpt>
      <trkpt lat="44.48797" lon="4.87481">
        <ele>428</ele>
      </trkpt>
      <trkpt lat="44.48837" lon="4.87477">
        <ele>430</ele>
      </trkpt>
      <trkpt lat="44.48892" lon="4.87476">
        <ele>434</ele>
      </trkpt>
      <trkpt lat="44.48917" lon="4.8748">
        <ele>435</ele>
      </trkpt>
      <trkpt lat="44.48931" lon="4.87487">
        <ele>435</ele>
      </trkpt>
      <trkpt lat="44.49051" lon="4.87576">
        <ele>431</ele>
      </trkpt>
      <trkpt lat="44.49061" lon="4.87582">
        <ele>433</ele>
      </trkpt>
      <trkpt lat="44.49073" lon="4.87588">
        <ele>430</ele>
      </trkpt>
      <trkpt lat="44.49129" lon="4.87603">
        <ele>422</ele>
      </trkpt>
      <trkpt lat="44.49152" lon="4.87616">
        <ele>423</ele>
      </trkpt>
      <trkpt lat="44.49159" lon="4.87625">
        <ele>420</ele>
      </trkpt>
      <trkpt lat="44.4918" lon="4.87671">
        <ele>421</ele>
      </trkpt>
      <trkpt lat="44.49184" lon="4.87682">
        <ele>418</ele>
      </trkpt>
      <trkpt lat="44.49189" lon="4.87703">
        <ele>420</ele>
      </trkpt>
      <trkpt lat="44.49191" lon="4.87707">
        <ele>419</ele>
      </trkpt>
      <trkpt lat="44.49198" lon="4.87707">
        <ele>419</ele>
      </trkpt>
      <trkpt lat="44.49201" lon="4.87703">
        <ele>419</ele>
      </trkpt>
      <trkpt lat="44.49203" lon="4.87697">
        <ele>419</ele>
      </trkpt>
      <trkpt lat="44.492" lon="4.87669">
        <ele>417</ele>
      </trkpt>
      <trkpt lat="44.49203" lon="4.87645">
        <ele>415</ele>
      </trkpt>
      <trkpt lat="44.49213" lon="4.87613">
        <ele>410</ele>
      </trkpt>
      <trkpt lat="44.49216" lon="4.87588">
        <ele>409</ele>
      </trkpt>
      <trkpt lat="44.49209" lon="4.87557">
        <ele>407</ele>
      </trkpt>
      <trkpt lat="44.49197" lon="4.87539">
        <ele>407</ele>
      </trkpt>
      <trkpt lat="44.49178" lon="4.87531">
        <ele>411</ele>
      </trkpt>
      <trkpt lat="44.49171" lon="4.87526">
        <ele>411</ele>
      </trkpt>
      <trkpt lat="44.4917" lon="4.87519">
        <ele>409</ele>
      </trkpt>
      <trkpt lat="44.49171" lon="4.87514">
        <ele>409</ele>
      </trkpt>
      <trkpt lat="44.49176" lon="4.87509">
        <ele>408</ele>
      </trkpt>
      <trkpt lat="44.49184" lon="4.87509">
        <ele>405</ele>
      </trkpt>
      <trkpt lat="44.49207" lon="4.87515">
        <ele>404</ele>
      </trkpt>
      <trkpt lat="44.49296" lon="4.87514">
        <ele>393</ele>
      </trkpt>
      <trkpt lat="44.49308" lon="4.87518">
        <ele>393</ele>
      </trkpt>
      <trkpt lat="44.49317" lon="4.87523">
        <ele>393</ele>
      </trkpt>
      <trkpt lat="44.4933" lon="4.87538">
        <ele>393</ele>
      </trkpt>
      <trkpt lat="44.49339" lon="4.87555">
        <ele>394</ele>
      </trkpt>
      <trkpt lat="44.49345" lon="4.8756">
        <ele>394</ele>
      </trkpt>
      <trkpt lat="44.4935" lon="4.87559">
        <ele>392</ele>
      </trkpt>
      <trkpt lat="44.49365" lon="4.87542">
        <ele>391</ele>
      </trkpt>
      <trkpt lat="44.49375" lon="4.87526">
        <ele>389</ele>
      </trkpt>
      <trkpt lat="44.49381" lon="4.87508">
        <ele>387</ele>
      </trkpt>
      <trkpt lat="44.49381" lon="4.87499">
        <ele>386</ele>
      </trkpt>
      <trkpt lat="44.49378" lon="4.8749">
        <ele>384</ele>
      </trkpt>
      <trkpt lat="44.49372" lon="4.87483">
        <ele>385</ele>
      </trkpt>
      <trkpt lat="44.49356" lon="4.87475">
        <ele>385</ele>
      </trkpt>
      <trkpt lat="44.49354" lon="4.87471">
        <ele>385</ele>
      </trkpt>
      <trkpt lat="44.49354" lon="4.87466">
        <ele>381</ele>
      </trkpt>
      <trkpt lat="44.49357" lon="4.87462">
        <ele>381</ele>
      </trkpt>
      <trkpt lat="44.49362" lon="4.8746">
        <ele>381</ele>
      </trkpt>
      <trkpt lat="44.49415" lon="4.87471">
        <ele>380</ele>
      </trkpt>
      <trkpt lat="44.49429" lon="4.87477">
        <ele>380</ele>
      </trkpt>
      <trkpt lat="44.49463" lon="4.87506">
        <ele>373</ele>
      </trkpt>
      <trkpt lat="44.49475" lon="4.87524">
        <ele>372</ele>
      </trkpt>
      <trkpt lat="44.49482" lon="4.87539">
        <ele>372</ele>
      </trkpt>
      <trkpt lat="44.49492" lon="4.87553">
        <ele>366</ele>
      </trkpt>
      <trkpt lat="44.49496" lon="4.87539">
        <ele>366</ele>
      </trkpt>
      <trkpt lat="44.49467" lon="4.8743">
        <ele>365</ele>
      </trkpt>
      <trkpt lat="44.49464" lon="4.87392">
        <ele>362</ele>
      </trkpt>
      <trkpt lat="44.49465" lon="4.87366">
        <ele>359</ele>
      </trkpt>
      <trkpt lat="44.49473" lon="4.87328">
        <ele>354</ele>
      </trkpt>
      <trkpt lat="44.49465" lon="4.87313">
        <ele>354</ele>
      </trkpt>
      <trkpt lat="44.49448" lon="4.87304">
        <ele>355</ele>
      </trkpt>
      <trkpt lat="44.49428" lon="4.87301">
        <ele>352</ele>
      </trkpt>
      <trkpt lat="44.49414" lon="4.87302">
        <ele>353</ele>
      </trkpt>
      <trkpt lat="44.49397" lon="4.87307">
        <ele>358</ele>
      </trkpt>
      <trkpt lat="44.49392" lon="4.87304">
        <ele>357</ele>
      </trkpt>
      <trkpt lat="44.49392" lon="4.87299">
        <ele>353</ele>
      </trkpt>
      <trkpt lat="44.49394" lon="4.87295">
        <ele>353</ele>
      </trkpt>
      <trkpt lat="44.494" lon="4.87288">
        <ele>352</ele>
      </trkpt>
      <trkpt lat="44.49409" lon="4.87285">
        <ele>351</ele>
      </trkpt>
      <trkpt lat="44.49522" lon="4.87255">
        <ele>339</ele>
      </trkpt>
      <trkpt lat="44.49548" lon="4.87255">
        <ele>335</ele>
      </trkpt>
      <trkpt lat="44.49574" lon="4.87262">
        <ele>333</ele>
      </trkpt>
      <trkpt lat="44.49592" lon="4.87273">
        <ele>332</ele>
      </trkpt>
      <trkpt lat="44.49604" lon="4.87291">
        <ele>331</ele>
      </trkpt>
      <trkpt lat="44.49608" lon="4.87312">
        <ele>332</ele>
      </trkpt>
      <trkpt lat="44.49602" lon="4.87335">
        <ele>332</ele>
      </trkpt>
      <trkpt lat="44.49593" lon="4.87353">
        <ele>338</ele>
      </trkpt>
      <trkpt lat="44.49593" lon="4.87359">
        <ele>338</ele>
      </trkpt>
      <trkpt lat="44.49593" lon="4.87363">
        <ele>338</ele>
      </trkpt>
      <trkpt lat="44.49595" lon="4.87366">
        <ele>337</ele>
      </trkpt>
      <trkpt lat="44.49599" lon="4.87368">
        <ele>332</ele>
      </trkpt>
      <trkpt lat="44.49603" lon="4.87366">
        <ele>331</ele>
      </trkpt>
      <trkpt lat="44.49612" lon="4.87348">
        <ele>331</ele>
      </trkpt>
      <trkpt lat="44.49625" lon="4.87314">
        <ele>325</ele>
      </trkpt>
      <trkpt lat="44.49632" lon="4.8729">
        <ele>325</ele>
      </trkpt>
      <trkpt lat="44.49634" lon="4.87272">
        <ele>323</ele>
      </trkpt>
      <trkpt lat="44.49633" lon="4.8726">
        <ele>323</ele>
      </trkpt>
      <trkpt lat="44.49629" lon="4.87247">
        <ele>323</ele>
      </trkpt>
      <trkpt lat="44.49622" lon="4.87232">
        <ele>324</ele>
      </trkpt>
      <trkpt lat="44.49615" lon="4.87222">
        <ele>323</ele>
      </trkpt>
      <trkpt lat="44.49594" lon="4.87207">
        <ele>322</ele>
      </trkpt>
      <trkpt lat="44.49554" lon="4.87186">
        <ele>320</ele>
      </trkpt>
      <trkpt lat="44.49526" lon="4.87174">
        <ele>322</ele>
      </trkpt>
      <trkpt lat="44.49497" lon="4.87172">
        <ele>322</ele>
      </trkpt>
      <trkpt lat="44.49493" lon="4.87169">
        <ele>322</ele>
      </trkpt>
      <trkpt lat="44.49491" lon="4.87165">
        <ele>321</ele>
      </trkpt>
      <trkpt lat="44.4949" lon="4.8716">
        <ele>317</ele>
      </trkpt>
      <trkpt lat="44.49492" lon="4.87155">
        <ele>316</ele>
      </trkpt>
      <trkpt lat="44.49497" lon="4.87152">
        <ele>316</ele>
      </trkpt>
      <trkpt lat="44.4951" lon="4.8715">
        <ele>316</ele>
      </trkpt>
      <trkpt lat="44.49534" lon="4.87151">
        <ele>315</ele>
      </trkpt>
      <trkpt lat="44.49604" lon="4.87141">
        <ele>307</ele>
      </trkpt>
      <trkpt lat="44.4975" lon="4.87129">
        <ele>292</ele>
      </trkpt>
      <trkpt lat="44.49771" lon="4.87147">
        <ele>289</ele>
      </trkpt>
      <trkpt lat="44.49782" lon="4.87138">
        <ele>289</ele>
      </trkpt>
      <trkpt lat="44.49784" lon="4.87119">
        <ele>290</ele>
      </trkpt>
      <trkpt lat="44.49775" lon="4.87103">
        <ele>289</ele>
      </trkpt>
      <trkpt lat="44.49765" lon="4.87097">
        <ele>289</ele>
      </trkpt>
      <trkpt lat="44.49731" lon="4.87093">
        <ele>289</ele>
      </trkpt>
      <trkpt lat="44.49708" lon="4.87084">
        <ele>290</ele>
      </trkpt>
      <trkpt lat="44.49665" lon="4.87058">
        <ele>288</ele>
      </trkpt>
      <trkpt lat="44.49638" lon="4.8705">
        <ele>289</ele>
      </trkpt>
      <trkpt lat="44.49635" lon="4.87039">
        <ele>289</ele>
      </trkpt>
      <trkpt lat="44.4965" lon="4.8703">
        <ele>288</ele>
      </trkpt>
      <trkpt lat="44.49706" lon="4.8703">
        <ele>282</ele>
      </trkpt>
      <trkpt lat="44.49732" lon="4.87027">
        <ele>280</ele>
      </trkpt>
      <trkpt lat="44.49758" lon="4.87018">
        <ele>279</ele>
      </trkpt>
      <trkpt lat="44.4978" lon="4.87003">
        <ele>280</ele>
      </trkpt>
      <trkpt lat="44.49802" lon="4.8698">
        <ele>277</ele>
      </trkpt>
      <trkpt lat="44.4982" lon="4.86953">
        <ele>275</ele>
      </trkpt>
      <trkpt lat="44.49837" lon="4.86916">
        <ele>273</ele>
      </trkpt>
      <trkpt lat="44.49843" lon="4.86894">
        <ele>271</ele>
      </trkpt>
      <trkpt lat="44.49854" lon="4.86847">
        <ele>268</ele>
      </trkpt>
      <trkpt lat="44.49872" lon="4.86796">
        <ele>260</ele>
      </trkpt>
      <trkpt lat="44.4988" lon="4.86777">
        <ele>259</ele>
      </trkpt>
      <trkpt lat="44.49892" lon="4.8676">
        <ele>255</ele>
      </trkpt>
      <trkpt lat="44.49912" lon="4.86743">
        <ele>251</ele>
      </trkpt>
      <trkpt lat="44.49944" lon="4.86728">
        <ele>248</ele>
      </trkpt>
      <trkpt lat="44.49966" lon="4.86726">
        <ele>241</ele>
      </trkpt>
      <trkpt lat="44.49981" lon="4.86728">
        <ele>239</ele>
      </trkpt>
      <trkpt lat="44.49986" lon="4.86726">
        <ele>238</ele>
      </trkpt>
      <trkpt lat="44.49989" lon="4.86721">
        <ele>234</ele>
      </trkpt>
      <trkpt lat="44.49989" lon="4.86717">
        <ele>235</ele>
      </trkpt>
      <trkpt lat="44.49986" lon="4.86711">
        <ele>238</ele>
      </trkpt>
      <trkpt lat="44.49979" lon="4.86707">
        <ele>240</ele>
      </trkpt>
      <trkpt lat="44.49963" lon="4.86705">
        <ele>241</ele>
      </trkpt>
      <trkpt lat="44.49951" lon="4.86699">
        <ele>245</ele>
      </trkpt>
      <trkpt lat="44.49945" lon="4.86694">
        <ele>245</ele>
      </trkpt>
      <trkpt lat="44.49941" lon="4.86686">
        <ele>243</ele>
      </trkpt>
      <trkpt lat="44.49938" lon="4.86674">
        <ele>243</ele>
      </trkpt>
      <trkpt lat="44.49938" lon="4.86659">
        <ele>242</ele>
      </trkpt>
      <trkpt lat="44.49942" lon="4.86646">
        <ele>242</ele>
      </trkpt>
      <trkpt lat="44.49948" lon="4.86635">
        <ele>242</ele>
      </trkpt>
      <trkpt lat="44.49957" lon="4.86628">
        <ele>242</ele>
      </trkpt>
      <trkpt lat="44.49984" lon="4.86615">
        <ele>240</ele>
      </trkpt>
      <trkpt lat="44.5001" lon="4.86604">
        <ele>238</ele>
      </trkpt>
      <trkpt lat="44.50031" lon="4.86592">
        <ele>235</ele>
      </trkpt>
      <trkpt lat="44.50046" lon="4.86574">
        <ele>231</ele>
      </trkpt>
      <trkpt lat="44.50142" lon="4.86404">
        <ele>226</ele>
      </trkpt>
      <trkpt lat="44.5015" lon="4.86395">
        <ele>226</ele>
      </trkpt>
      <trkpt lat="44.50157" lon="4.86398">
        <ele>226</ele>
      </trkpt>
      <trkpt lat="44.50176" lon="4.86416">
        <ele>226</ele>
      </trkpt>
      <trkpt lat="44.50184" lon="4.86417">
        <ele>226</ele>
      </trkpt>
      <trkpt lat="44.50198" lon="4.86416">
        <ele>227</ele>
      </trkpt>
      <trkpt lat="44.50211" lon="4.86405">
        <ele>226</ele>
      </trkpt>
      <trkpt lat="44.5022" lon="4.86388">
        <ele>226</ele>
      </trkpt>
      <trkpt lat="44.50232" lon="4.86358">
        <ele>226</ele>
      </trkpt>
      <trkpt lat="44.5024" lon="4.8633">
        <ele>226</ele>
      </trkpt>
      <trkpt lat="44.50245" lon="4.86302">
        <ele>226</ele>
      </trkpt>
      <trkpt lat="44.50295" lon="4.85979">
        <ele>221</ele>
      </trkpt>
      <trkpt lat="44.50309" lon="4.8588">
        <ele>220</ele>
      </trkpt>
      <trkpt lat="44.50339" lon="4.8589">
        <ele>223</ele>
      </trkpt>
      <trkpt lat="44.50359" lon="4.85905">
        <ele>226</ele>
      </trkpt>
      <trkpt lat="44.50366" lon="4.85918">
        <ele>227</ele>
      </trkpt>
      <trkpt lat="44.50375" lon="4.85992">
        <ele>228</ele>
      </trkpt>
      <trkpt lat="44.5039" lon="4.86108">
        <ele>236</ele>
      </trkpt>
      <trkpt lat="44.50394" lon="4.86153">
        <ele>236</ele>
      </trkpt>
      <trkpt lat="44.50388" lon="4.86191">
        <ele>238</ele>
      </trkpt>
      <trkpt lat="44.50398" lon="4.86282">
        <ele>238</ele>
      </trkpt>
      <trkpt lat="44.50419" lon="4.86318">
        <ele>242</ele>
      </trkpt>
      <trkpt lat="44.50476" lon="4.86384">
        <ele>248</ele>
      </trkpt>
      <trkpt lat="44.50529" lon="4.86407">
        <ele>253</ele>
      </trkpt>
      <trkpt lat="44.50566" lon="4.86421">
        <ele>256</ele>
      </trkpt>
      <trkpt lat="44.50589" lon="4.86441">
        <ele>257</ele>
      </trkpt>
      <trkpt lat="44.50626" lon="4.86468">
        <ele>261</ele>
      </trkpt>
      <trkpt lat="44.50644" lon="4.86475">
        <ele>260</ele>
      </trkpt>
      <trkpt lat="44.5065" lon="4.86476">
        <ele>260</ele>
      </trkpt>
      <trkpt lat="44.50656" lon="4.86472">
        <ele>261</ele>
      </trkpt>
      <trkpt lat="44.50658" lon="4.86461">
        <ele>263</ele>
      </trkpt>
      <trkpt lat="44.50657" lon="4.86452">
        <ele>263</ele>
      </trkpt>
      <trkpt lat="44.50633" lon="4.86418">
        <ele>263</ele>
      </trkpt>
      <trkpt lat="44.50629" lon="4.86401">
        <ele>264</ele>
      </trkpt>
      <trkpt lat="44.50628" lon="4.86381">
        <ele>264</ele>
      </trkpt>
      <trkpt lat="44.50631" lon="4.86338">
        <ele>263</ele>
      </trkpt>
      <trkpt lat="44.50646" lon="4.86304">
        <ele>262</ele>
      </trkpt>
      <trkpt lat="44.50666" lon="4.86284">
        <ele>262</ele>
      </trkpt>
      <trkpt lat="44.5069" lon="4.86269">
        <ele>264</ele>
      </trkpt>
      <trkpt lat="44.50725" lon="4.86251">
        <ele>265</ele>
      </trkpt>
      <trkpt lat="44.50744" lon="4.86249">
        <ele>265</ele>
      </trkpt>
      <trkpt lat="44.50758" lon="4.86255">
        <ele>265</ele>
      </trkpt>
      <trkpt lat="44.5081" lon="4.86282">
        <ele>268</ele>
      </trkpt>
      <trkpt lat="44.50851" lon="4.86294">
        <ele>272</ele>
      </trkpt>
      <trkpt lat="44.50881" lon="4.86298">
        <ele>275</ele>
      </trkpt>
      <trkpt lat="44.50921" lon="4.86299">
        <ele>276</ele>
      </trkpt>
      <trkpt lat="44.50945" lon="4.86291">
        <ele>278</ele>
      </trkpt>
      <trkpt lat="44.50967" lon="4.86277">
        <ele>282</ele>
      </trkpt>
      <trkpt lat="44.51041" lon="4.86199">
        <ele>287</ele>
      </trkpt>
      <trkpt lat="44.51071" lon="4.8616">
        <ele>289</ele>
      </trkpt>
      <trkpt lat="44.5112" lon="4.86114">
        <ele>292</ele>
      </trkpt>
      <trkpt lat="44.5114" lon="4.861">
        <ele>290</ele>
      </trkpt>
      <trkpt lat="44.51154" lon="4.86093">
        <ele>289</ele>
      </trkpt>
      <trkpt lat="44.51168" lon="4.86091">
        <ele>288</ele>
      </trkpt>
      <trkpt lat="44.51195" lon="4.86087">
        <ele>288</ele>
      </trkpt>
      <trkpt lat="44.51248" lon="4.86087">
        <ele>284</ele>
      </trkpt>
      <trkpt lat="44.51312" lon="4.86096">
        <ele>276</ele>
      </trkpt>
      <trkpt lat="44.51351" lon="4.86112">
        <ele>270</ele>
      </trkpt>
      <trkpt lat="44.5138" lon="4.86135">
        <ele>266</ele>
      </trkpt>
      <trkpt lat="44.51408" lon="4.86172">
        <ele>271</ele>
      </trkpt>
      <trkpt lat="44.51472" lon="4.86275">
        <ele>274</ele>
      </trkpt>
      <trkpt lat="44.51484" lon="4.86304">
        <ele>275</ele>
      </trkpt>
      <trkpt lat="44.51528" lon="4.86436">
        <ele>269</ele>
      </trkpt>
      <trkpt lat="44.51548" lon="4.86538">
        <ele>265</ele>
      </trkpt>
      <trkpt lat="44.51611" lon="4.86784">
        <ele>264</ele>
      </trkpt>
      <trkpt lat="44.51646" lon="4.86908">
        <ele>262</ele>
      </trkpt>
      <trkpt lat="44.51654" lon="4.8695">
        <ele>260</ele>
      </trkpt>
      <trkpt lat="44.51699" lon="4.87293">
        <ele>258</ele>
      </trkpt>
      <trkpt lat="44.517" lon="4.8734">
        <ele>257</ele>
      </trkpt>
      <trkpt lat="44.5166" lon="4.8773">
        <ele>255</ele>
      </trkpt>
      <trkpt lat="44.51645" lon="4.87866">
        <ele>254</ele>
      </trkpt>
      <trkpt lat="44.51641" lon="4.87886">
        <ele>252</ele>
      </trkpt>
      <trkpt lat="44.51632" lon="4.87905">
        <ele>252</ele>
      </trkpt>
      <trkpt lat="44.51625" lon="4.87917">
        <ele>251</ele>
      </trkpt>
      <trkpt lat="44.5156" lon="4.87983">
        <ele>249</ele>
      </trkpt>
      <trkpt lat="44.51549" lon="4.88001">
        <ele>248</ele>
      </trkpt>
      <trkpt lat="44.51539" lon="4.8802">
        <ele>250</ele>
      </trkpt>
      <trkpt lat="44.51527" lon="4.88058">
        <ele>248</ele>
      </trkpt>
      <trkpt lat="44.51522" lon="4.88102">
        <ele>248</ele>
      </trkpt>
      <trkpt lat="44.51498" lon="4.8865">
        <ele>246</ele>
      </trkpt>
      <trkpt lat="44.51496" lon="4.88716">
        <ele>248</ele>
      </trkpt>
      <trkpt lat="44.51493" lon="4.88727">
        <ele>250</ele>
      </trkpt>
      <trkpt lat="44.51491" lon="4.88751">
        <ele>251</ele>
      </trkpt>
      <trkpt lat="44.5149" lon="4.8876">
        <ele>251</ele>
      </trkpt>
      <trkpt lat="44.51494" lon="4.88772">
        <ele>251</ele>
      </trkpt>
      <trkpt lat="44.51502" lon="4.88779">
        <ele>250</ele>
      </trkpt>
      <trkpt lat="44.51556" lon="4.8884">
        <ele>247</ele>
      </trkpt>
      <trkpt lat="44.51657" lon="4.88992">
        <ele>235</ele>
      </trkpt>
      <trkpt lat="44.51871" lon="4.89326">
        <ele>227</ele>
      </trkpt>
      <trkpt lat="44.51885" lon="4.89354">
        <ele>227</ele>
      </trkpt>
      <trkpt lat="44.51892" lon="4.8938">
        <ele>226</ele>
      </trkpt>
      <trkpt lat="44.51939" lon="4.89652">
        <ele>224</ele>
      </trkpt>
      <trkpt lat="44.51946" lon="4.89672">
        <ele>225</ele>
      </trkpt>
      <trkpt lat="44.51957" lon="4.89696">
        <ele>226</ele>
      </trkpt>
      <trkpt lat="44.51975" lon="4.89719">
        <ele>226</ele>
      </trkpt>
      <trkpt lat="44.52095" lon="4.89847">
        <ele>228</ele>
      </trkpt>
      <trkpt lat="44.52111" lon="4.89873">
        <ele>227</ele>
      </trkpt>
      <trkpt lat="44.5213" lon="4.89915">
        <ele>226</ele>
      </trkpt>
      <trkpt lat="44.52148" lon="4.89961">
        <ele>226</ele>
      </trkpt>
      <trkpt lat="44.52286" lon="4.90312">
        <ele>235</ele>
      </trkpt>
      <trkpt lat="44.52308" lon="4.90365">
        <ele>237</ele>
      </trkpt>
      <trkpt lat="44.52321" lon="4.90389">
        <ele>237</ele>
      </trkpt>
      <trkpt lat="44.52355" lon="4.90437">
        <ele>236</ele>
      </trkpt>
      <trkpt lat="44.5261" lon="4.90752">
        <ele>234</ele>
      </trkpt>
      <trkpt lat="44.52678" lon="4.90834">
        <ele>231</ele>
      </trkpt>
      <trkpt lat="44.5293" lon="4.91148">
        <ele>226</ele>
      </trkpt>
      <trkpt lat="44.52942" lon="4.91161">
        <ele>225</ele>
      </trkpt>
      <trkpt lat="44.52944" lon="4.91162">
        <ele>225</ele>
      </trkpt>
      <trkpt lat="44.5304" lon="4.91424">
        <ele>225</ele>
      </trkpt>
      <trkpt lat="44.53087" lon="4.91584">
        <ele>228</ele>
      </trkpt>
      <trkpt lat="44.53112" lon="4.91678">
        <ele>226</ele>
      </trkpt>
      <trkpt lat="44.53118" lon="4.91697">
        <ele>226</ele>
      </trkpt>
      <trkpt lat="44.53131" lon="4.91722">
        <ele>226</ele>
      </trkpt>
      <trkpt lat="44.53155" lon="4.91755">
        <ele>226</ele>
      </trkpt>
      <trkpt lat="44.53603" lon="4.92433">
        <ele>222</ele>
      </trkpt>
      <trkpt lat="44.53615" lon="4.92462">
        <ele>223</ele>
      </trkpt>
      <trkpt lat="44.53657" lon="4.92661">
        <ele>222</ele>
      </trkpt>
      <trkpt lat="44.53666" lon="4.92693">
        <ele>223</ele>
      </trkpt>
      <trkpt lat="44.53675" lon="4.92708">
        <ele>223</ele>
      </trkpt>
      <trkpt lat="44.53692" lon="4.92727">
        <ele>221</ele>
      </trkpt>
      <trkpt lat="44.53714" lon="4.92752">
        <ele>220</ele>
      </trkpt>
      <trkpt lat="44.53806" lon="4.92863">
        <ele>224</ele>
      </trkpt>
      <trkpt lat="44.5381" lon="4.92885">
        <ele>224</ele>
      </trkpt>
      <trkpt lat="44.53809" lon="4.92919">
        <ele>227</ele>
      </trkpt>
      <trkpt lat="44.53788" lon="4.93165">
        <ele>225</ele>
      </trkpt>
      <trkpt lat="44.53777" lon="4.9331">
        <ele>227</ele>
      </trkpt>
      <trkpt lat="44.53775" lon="4.93358">
        <ele>227</ele>
      </trkpt>
      <trkpt lat="44.53809" lon="4.93365">
        <ele>226</ele>
      </trkpt>
      <trkpt lat="44.54313" lon="4.93475">
        <ele>214</ele>
      </trkpt>
      <trkpt lat="44.54308" lon="4.93493">
        <ele>214</ele>
      </trkpt>
      <trkpt lat="44.54281" lon="4.93536">
        <ele>211</ele>
      </trkpt>
      <trkpt lat="44.5425" lon="4.93603">
        <ele>212</ele>
      </trkpt>
      <trkpt lat="44.54214" lon="4.93668">
        <ele>215</ele>
      </trkpt>
      <trkpt lat="44.5421" lon="4.9369">
        <ele>215</ele>
      </trkpt>
      <trkpt lat="44.54203" lon="4.9377">
        <ele>218</ele>
      </trkpt>
      <trkpt lat="44.542" lon="4.93786">
        <ele>219</ele>
      </trkpt>
      <trkpt lat="44.54191" lon="4.93802">
        <ele>219</ele>
      </trkpt>
      <trkpt lat="44.54177" lon="4.9381">
        <ele>220</ele>
      </trkpt>
      <trkpt lat="44.54155" lon="4.93813">
        <ele>220</ele>
      </trkpt>
      <trkpt lat="44.54061" lon="4.9386">
        <ele>221</ele>
      </trkpt>
      <trkpt lat="44.54049" lon="4.93884">
        <ele>220</ele>
      </trkpt>
      <trkpt lat="44.54038" lon="4.93916">
        <ele>219</ele>
      </trkpt>
      <trkpt lat="44.54016" lon="4.94005">
        <ele>222</ele>
      </trkpt>
      <trkpt lat="44.53997" lon="4.94069">
        <ele>224</ele>
      </trkpt>
      <trkpt lat="44.53979" lon="4.94118">
        <ele>227</ele>
      </trkpt>
      <trkpt lat="44.53964" lon="4.94139">
        <ele>227</ele>
      </trkpt>
      <trkpt lat="44.53917" lon="4.94165">
        <ele>232</ele>
      </trkpt>
      <trkpt lat="44.5388" lon="4.94189">
        <ele>237</ele>
      </trkpt>
      <trkpt lat="44.53852" lon="4.942">
        <ele>240</ele>
      </trkpt>
      <trkpt lat="44.53842" lon="4.94212">
        <ele>242</ele>
      </trkpt>
      <trkpt lat="44.53841" lon="4.94226">
        <ele>241</ele>
      </trkpt>
      <trkpt lat="44.53844" lon="4.94236">
        <ele>241</ele>
      </trkpt>
      <trkpt lat="44.53878" lon="4.94286">
        <ele>237</ele>
      </trkpt>
      <trkpt lat="44.5389" lon="4.9431">
        <ele>236</ele>
      </trkpt>
      <trkpt lat="44.53898" lon="4.94386">
        <ele>238</ele>
      </trkpt>
      <trkpt lat="44.53899" lon="4.94411">
        <ele>239</ele>
      </trkpt>
      <trkpt lat="44.53897" lon="4.94427">
        <ele>240</ele>
      </trkpt>
      <trkpt lat="44.53884" lon="4.94443">
        <ele>241</ele>
      </trkpt>
      <trkpt lat="44.53812" lon="4.94485">
        <ele>250</ele>
      </trkpt>
      <trkpt lat="44.53803" lon="4.945">
        <ele>250</ele>
      </trkpt>
      <trkpt lat="44.53796" lon="4.9454">
        <ele>251</ele>
      </trkpt>
      <trkpt lat="44.53802" lon="4.94593">
        <ele>251</ele>
      </trkpt>
      <trkpt lat="44.53802" lon="4.94617">
        <ele>252</ele>
      </trkpt>
      <trkpt lat="44.53793" lon="4.94644">
        <ele>253</ele>
      </trkpt>
      <trkpt lat="44.5378" lon="4.94655">
        <ele>258</ele>
      </trkpt>
      <trkpt lat="44.53749" lon="4.94655">
        <ele>262</ele>
      </trkpt>
      <trkpt lat="44.5374" lon="4.94667">
        <ele>262</ele>
      </trkpt>
      <trkpt lat="44.53738" lon="4.94711">
        <ele>261</ele>
      </trkpt>
      <trkpt lat="44.53729" lon="4.94754">
        <ele>264</ele>
      </trkpt>
      <trkpt lat="44.53744" lon="4.94812">
        <ele>256</ele>
      </trkpt>
      <trkpt lat="44.53762" lon="4.94869">
        <ele>253</ele>
      </trkpt>
      <trkpt lat="44.53761" lon="4.94908">
        <ele>253</ele>
      </trkpt>
      <trkpt lat="44.53752" lon="4.94966">
        <ele>253</ele>
      </trkpt>
      <trkpt lat="44.53752" lon="4.94984">
        <ele>253</ele>
      </trkpt>
      <trkpt lat="44.53756" lon="4.94992">
        <ele>252</ele>
      </trkpt>
      <trkpt lat="44.53801" lon="4.94992">
        <ele>245</ele>
      </trkpt>
      <trkpt lat="44.53804" lon="4.94997">
        <ele>245</ele>
      </trkpt>
      <trkpt lat="44.53805" lon="4.95003">
        <ele>245</ele>
      </trkpt>
      <trkpt lat="44.53794" lon="4.95038">
        <ele>246</ele>
      </trkpt>
      <trkpt lat="44.53792" lon="4.95102">
        <ele>246</ele>
      </trkpt>
      <trkpt lat="44.53804" lon="4.95231">
        <ele>245</ele>
      </trkpt>
      <trkpt lat="44.53768" lon="4.95466">
        <ele>241</ele>
      </trkpt>
      <trkpt lat="44.53768" lon="4.95481">
        <ele>240</ele>
      </trkpt>
      <trkpt lat="44.53775" lon="4.95489">
        <ele>240</ele>
      </trkpt>
      <trkpt lat="44.53816" lon="4.95492">
        <ele>238</ele>
      </trkpt>
      <trkpt lat="44.53825" lon="4.95499">
        <ele>238</ele>
      </trkpt>
      <trkpt lat="44.53829" lon="4.95509">
        <ele>237</ele>
      </trkpt>
      <trkpt lat="44.53818" lon="4.95585">
        <ele>238</ele>
      </trkpt>
      <trkpt lat="44.53819" lon="4.95728">
        <ele>240</ele>
      </trkpt>
      <trkpt lat="44.53798" lon="4.95884">
        <ele>239</ele>
      </trkpt>
      <trkpt lat="44.53802" lon="4.95894">
        <ele>239</ele>
      </trkpt>
      <trkpt lat="44.53882" lon="4.95997">
        <ele>237</ele>
      </trkpt>
      <trkpt lat="44.53872" lon="4.96018">
        <ele>237</ele>
      </trkpt>
      <trkpt lat="44.5386" lon="4.96058">
        <ele>236</ele>
      </trkpt>
      <trkpt lat="44.53855" lon="4.96096">
        <ele>236</ele>
      </trkpt>
      <trkpt lat="44.53843" lon="4.96165">
        <ele>239</ele>
      </trkpt>
      <trkpt lat="44.53831" lon="4.9621">
        <ele>247</ele>
      </trkpt>
      <trkpt lat="44.53808" lon="4.96252">
        <ele>252</ele>
      </trkpt>
      <trkpt lat="44.53782" lon="4.96282">
        <ele>252</ele>
      </trkpt>
      <trkpt lat="44.53757" lon="4.96306">
        <ele>251</ele>
      </trkpt>
      <trkpt lat="44.53705" lon="4.96346">
        <ele>247</ele>
      </trkpt>
      <trkpt lat="44.53658" lon="4.96377">
        <ele>249</ele>
      </trkpt>
      <trkpt lat="44.53575" lon="4.96411">
        <ele>246</ele>
      </trkpt>
      <trkpt lat="44.53536" lon="4.96433">
        <ele>245</ele>
      </trkpt>
      <trkpt lat="44.53511" lon="4.96454">
        <ele>245</ele>
      </trkpt>
      <trkpt lat="44.53486" lon="4.96488">
        <ele>248</ele>
      </trkpt>
      <trkpt lat="44.53446" lon="4.96547">
        <ele>253</ele>
      </trkpt>
      <trkpt lat="44.53417" lon="4.96584">
        <ele>259</ele>
      </trkpt>
      <trkpt lat="44.53398" lon="4.96602">
        <ele>255</ele>
      </trkpt>
      <trkpt lat="44.53179" lon="4.9672">
        <ele>259</ele>
      </trkpt>
      <trkpt lat="44.53154" lon="4.96741">
        <ele>265</ele>
      </trkpt>
      <trkpt lat="44.53139" lon="4.96757">
        <ele>270</ele>
      </trkpt>
      <trkpt lat="44.53119" lon="4.96782">
        <ele>270</ele>
      </trkpt>
      <trkpt lat="44.53095" lon="4.96819">
        <ele>269</ele>
      </trkpt>
      <trkpt lat="44.53044" lon="4.96744">
        <ele>255</ele>
      </trkpt>
      <trkpt lat="44.53017" lon="4.96706">
        <ele>258</ele>
      </trkpt>
      <trkpt lat="44.53006" lon="4.96693">
        <ele>262</ele>
      </trkpt>
      <trkpt lat="44.52986" lon="4.96697">
        <ele>261</ele>
      </trkpt>
      <trkpt lat="44.52905" lon="4.96741">
        <ele>263</ele>
      </trkpt>
      <trkpt lat="44.5289" lon="4.96734">
        <ele>267</ele>
      </trkpt>
      <trkpt lat="44.52851" lon="4.96725">
        <ele>268</ele>
        <extensions>
          <visugpx:TrkExtension xmlns:visugpx="https://www.visugpx.com/editgpx/">
            <visugpx:node>1</visugpx:node>
            </visugpx:TrkExtension>
        </extensions>
      </trkpt>
    </trkseg>
  </trk>
  <trk>
    <name><![CDATA[Souspierre_2]]></name>
    <extensions>
      <line xmlns="http://www.topografix.com/GPX/gpx_style/0/2">
        <color>00FF00</color>
        <width>4</width>
      </line>
    </extensions>
    <trkseg>
      <trkpt lat="44.52848" lon="4.96769">
        <ele>262</ele>
      </trkpt>
      <trkpt lat="44.52986" lon="4.96697">
        <ele>261</ele>
      </trkpt>
      <trkpt lat="44.53006" lon="4.96693">
        <ele>262</ele>
      </trkpt>
      <trkpt lat="44.53017" lon="4.96706">
        <ele>258</ele>
      </trkpt>
      <trkpt lat="44.53044" lon="4.96744">
        <ele>255</ele>
      </trkpt>
      <trkpt lat="44.53095" lon="4.96819">
        <ele>269</ele>
      </trkpt>
      <trkpt lat="44.53049" lon="4.96897">
        <ele>264</ele>
      </trkpt>
      <trkpt lat="44.52629" lon="4.9755">
        <ele>263</ele>
      </trkpt>
      <trkpt lat="44.52591" lon="4.97628">
        <ele>265</ele>
      </trkpt>
      <trkpt lat="44.5257" lon="4.97698">
        <ele>265</ele>
      </trkpt>
      <trkpt lat="44.52558" lon="4.97767">
        <ele>266</ele>
      </trkpt>
      <trkpt lat="44.52555" lon="4.97824">
        <ele>266</ele>
      </trkpt>
      <trkpt lat="44.52555" lon="4.97995">
        <ele>273</ele>
      </trkpt>
      <trkpt lat="44.52557" lon="4.98064">
        <ele>275</ele>
      </trkpt>
      <trkpt lat="44.52557" lon="4.98101">
        <ele>276</ele>
      </trkpt>
      <trkpt lat="44.52559" lon="4.98139">
        <ele>276</ele>
      </trkpt>
      <trkpt lat="44.52563" lon="4.98167">
        <ele>277</ele>
      </trkpt>
      <trkpt lat="44.52598" lon="4.98287">
        <ele>279</ele>
      </trkpt>
      <trkpt lat="44.52683" lon="4.98563">
        <ele>289</ele>
      </trkpt>
      <trkpt lat="44.52703" lon="4.9861">
        <ele>287</ele>
      </trkpt>
      <trkpt lat="44.52726" lon="4.9865">
        <ele>287</ele>
      </trkpt>
      <trkpt lat="44.52971" lon="4.98966">
        <ele>286</ele>
      </trkpt>
      <trkpt lat="44.53005" lon="4.99021">
        <ele>287</ele>
      </trkpt>
      <trkpt lat="44.53024" lon="4.99057">
        <ele>289</ele>
      </trkpt>
      <trkpt lat="44.53052" lon="4.99125">
        <ele>290</ele>
      </trkpt>
      <trkpt lat="44.53064" lon="4.99161">
        <ele>287</ele>
      </trkpt>
      <trkpt lat="44.53231" lon="4.99785">
        <ele>292</ele>
      </trkpt>
      <trkpt lat="44.5324" lon="4.99833">
        <ele>295</ele>
      </trkpt>
      <trkpt lat="44.53247" lon="4.9989">
        <ele>294</ele>
      </trkpt>
      <trkpt lat="44.53248" lon="4.99967">
        <ele>296</ele>
      </trkpt>
      <trkpt lat="44.53244" lon="5.00027">
        <ele>299</ele>
      </trkpt>
      <trkpt lat="44.53235" lon="5.00081">
        <ele>297</ele>
      </trkpt>
      <trkpt lat="44.53191" lon="5.00272">
        <ele>301</ele>
      </trkpt>
      <trkpt lat="44.53167" lon="5.00399">
        <ele>301</ele>
      </trkpt>
      <trkpt lat="44.53159" lon="5.00454">
        <ele>301</ele>
      </trkpt>
      <trkpt lat="44.5312" lon="5.00837">
        <ele>309</ele>
      </trkpt>
      <trkpt lat="44.53109" lon="5.00982">
        <ele>308</ele>
      </trkpt>
      <trkpt lat="44.53107" lon="5.01034">
        <ele>310</ele>
      </trkpt>
      <trkpt lat="44.53102" lon="5.01084">
        <ele>312</ele>
      </trkpt>
      <trkpt lat="44.53082" lon="5.012">
        <ele>314</ele>
      </trkpt>
      <trkpt lat="44.5307" lon="5.01254">
        <ele>315</ele>
      </trkpt>
      <trkpt lat="44.53047" lon="5.0133">
        <ele>316</ele>
      </trkpt>
      <trkpt lat="44.53026" lon="5.01415">
        <ele>318</ele>
      </trkpt>
      <trkpt lat="44.52958" lon="5.0166">
        <ele>314</ele>
      </trkpt>
      <trkpt lat="44.52955" lon="5.01681">
        <ele>314</ele>
      </trkpt>
      <trkpt lat="44.52963" lon="5.01975">
        <ele>313</ele>
      </trkpt>
      <trkpt lat="44.52965" lon="5.021">
        <ele>317</ele>
      </trkpt>
      <trkpt lat="44.52958" lon="5.02355">
        <ele>324</ele>
      </trkpt>
      <trkpt lat="44.52955" lon="5.02418">
        <ele>326</ele>
      </trkpt>
      <trkpt lat="44.52946" lon="5.02456">
        <ele>327</ele>
      </trkpt>
      <trkpt lat="44.52934" lon="5.02489">
        <ele>328</ele>
      </trkpt>
      <trkpt lat="44.52911" lon="5.02533">
        <ele>328</ele>
      </trkpt>
      <trkpt lat="44.52881" lon="5.02578">
        <ele>328</ele>
      </trkpt>
      <trkpt lat="44.52703" lon="5.02801">
        <ele>328</ele>
      </trkpt>
      <trkpt lat="44.52691" lon="5.02819">
        <ele>329</ele>
      </trkpt>
      <trkpt lat="44.52684" lon="5.02834">
        <ele>330</ele>
      </trkpt>
      <trkpt lat="44.52671" lon="5.02866">
        <ele>332</ele>
      </trkpt>
      <trkpt lat="44.52619" lon="5.03041">
        <ele>332</ele>
      </trkpt>
      <trkpt lat="44.52604" lon="5.03112">
        <ele>333</ele>
      </trkpt>
      <trkpt lat="44.52593" lon="5.03174">
        <ele>331</ele>
      </trkpt>
      <trkpt lat="44.5258" lon="5.03264">
        <ele>332</ele>
      </trkpt>
      <trkpt lat="44.52569" lon="5.03357">
        <ele>334</ele>
      </trkpt>
      <trkpt lat="44.52555" lon="5.03566">
        <ele>336</ele>
      </trkpt>
      <trkpt lat="44.5256" lon="5.03569">
        <ele>336</ele>
      </trkpt>
      <trkpt lat="44.52664" lon="5.03602">
        <ele>348</ele>
      </trkpt>
      <trkpt lat="44.52673" lon="5.03612">
        <ele>349</ele>
      </trkpt>
      <trkpt lat="44.52686" lon="5.03632">
        <ele>354</ele>
      </trkpt>
      <trkpt lat="44.52693" lon="5.03663">
        <ele>355</ele>
      </trkpt>
      <trkpt lat="44.52699" lon="5.03698">
        <ele>356</ele>
      </trkpt>
      <trkpt lat="44.52702" lon="5.03739">
        <ele>357</ele>
      </trkpt>
      <trkpt lat="44.52705" lon="5.03752">
        <ele>358</ele>
      </trkpt>
      <trkpt lat="44.52709" lon="5.03759">
        <ele>358</ele>
      </trkpt>
      <trkpt lat="44.52754" lon="5.038">
        <ele>364</ele>
      </trkpt>
      <trkpt lat="44.52763" lon="5.03823">
        <ele>365</ele>
      </trkpt>
      <trkpt lat="44.52807" lon="5.03972">
        <ele>372</ele>
      </trkpt>
      <trkpt lat="44.52814" lon="5.03989">
        <ele>374</ele>
      </trkpt>
      <trkpt lat="44.52823" lon="5.03996">
        <ele>374</ele>
      </trkpt>
      <trkpt lat="44.52838" lon="5.03999">
        <ele>374</ele>
      </trkpt>
      <trkpt lat="44.52851" lon="5.04006">
        <ele>375</ele>
      </trkpt>
      <trkpt lat="44.52861" lon="5.04016">
        <ele>375</ele>
      </trkpt>
      <trkpt lat="44.52861" lon="5.04041">
        <ele>375</ele>
      </trkpt>
      <trkpt lat="44.52843" lon="5.04067">
        <ele>378</ele>
      </trkpt>
      <trkpt lat="44.52802" lon="5.04083">
        <ele>383</ele>
      </trkpt>
      <trkpt lat="44.52744" lon="5.04109">
        <ele>391</ele>
      </trkpt>
      <trkpt lat="44.52737" lon="5.0413">
        <ele>393</ele>
      </trkpt>
      <trkpt lat="44.52744" lon="5.04174">
        <ele>394</ele>
      </trkpt>
      <trkpt lat="44.52761" lon="5.0424">
        <ele>393</ele>
      </trkpt>
      <trkpt lat="44.52772" lon="5.04298">
        <ele>392</ele>
      </trkpt>
      <trkpt lat="44.52762" lon="5.04376">
        <ele>398</ele>
      </trkpt>
      <trkpt lat="44.52747" lon="5.04426">
        <ele>404</ele>
      </trkpt>
      <trkpt lat="44.52722" lon="5.04481">
        <ele>409</ele>
      </trkpt>
      <trkpt lat="44.52696" lon="5.04513">
        <ele>411</ele>
      </trkpt>
      <trkpt lat="44.52631" lon="5.04576">
        <ele>416</ele>
      </trkpt>
      <trkpt lat="44.52611" lon="5.04615">
        <ele>421</ele>
      </trkpt>
      <trkpt lat="44.5258" lon="5.04701">
        <ele>425</ele>
      </trkpt>
      <trkpt lat="44.52569" lon="5.04774">
        <ele>422</ele>
      </trkpt>
      <trkpt lat="44.5257" lon="5.04819">
        <ele>424</ele>
      </trkpt>
      <trkpt lat="44.52573" lon="5.04852">
        <ele>430</ele>
      </trkpt>
      <trkpt lat="44.52584" lon="5.04901">
        <ele>429</ele>
      </trkpt>
      <trkpt lat="44.52609" lon="5.04995">
        <ele>426</ele>
      </trkpt>
      <trkpt lat="44.52625" lon="5.0503">
        <ele>424</ele>
      </trkpt>
      <trkpt lat="44.52677" lon="5.05113">
        <ele>420</ele>
      </trkpt>
      <trkpt lat="44.52712" lon="5.05139">
        <ele>425</ele>
      </trkpt>
      <trkpt lat="44.52765" lon="5.05193">
        <ele>424</ele>
      </trkpt>
      <trkpt lat="44.52817" lon="5.0525">
        <ele>424</ele>
      </trkpt>
      <trkpt lat="44.52833" lon="5.0527">
        <ele>425</ele>
      </trkpt>
      <trkpt lat="44.52858" lon="5.0534">
        <ele>420</ele>
      </trkpt>
      <trkpt lat="44.52881" lon="5.05366">
        <ele>419</ele>
      </trkpt>
      <trkpt lat="44.52888" lon="5.05381">
        <ele>419</ele>
      </trkpt>
      <trkpt lat="44.52885" lon="5.05439">
        <ele>416</ele>
      </trkpt>
      <trkpt lat="44.52872" lon="5.05507">
        <ele>415</ele>
      </trkpt>
      <trkpt lat="44.5285" lon="5.05539">
        <ele>416</ele>
      </trkpt>
      <trkpt lat="44.52822" lon="5.05583">
        <ele>417</ele>
      </trkpt>
      <trkpt lat="44.52796" lon="5.05639">
        <ele>415</ele>
      </trkpt>
      <trkpt lat="44.52768" lon="5.05691">
        <ele>413</ele>
      </trkpt>
      <trkpt lat="44.52764" lon="5.05706">
        <ele>412</ele>
      </trkpt>
      <trkpt lat="44.52754" lon="5.05761">
        <ele>410</ele>
      </trkpt>
      <trkpt lat="44.52745" lon="5.05832">
        <ele>409</ele>
      </trkpt>
      <trkpt lat="44.52733" lon="5.05869">
        <ele>403</ele>
      </trkpt>
      <trkpt lat="44.52731" lon="5.05887">
        <ele>402</ele>
      </trkpt>
      <trkpt lat="44.52641" lon="5.05955">
        <ele>392</ele>
      </trkpt>
      <trkpt lat="44.52619" lon="5.05975">
        <ele>391</ele>
      </trkpt>
      <trkpt lat="44.52603" lon="5.05974">
        <ele>391</ele>
      </trkpt>
      <trkpt lat="44.52544" lon="5.05979">
        <ele>393</ele>
      </trkpt>
      <trkpt lat="44.52536" lon="5.05976">
        <ele>392</ele>
      </trkpt>
      <trkpt lat="44.5251" lon="5.05977">
        <ele>390</ele>
      </trkpt>
      <trkpt lat="44.52505" lon="5.05981">
        <ele>390</ele>
      </trkpt>
      <trkpt lat="44.52503" lon="5.05985">
        <ele>390</ele>
      </trkpt>
      <trkpt lat="44.52503" lon="5.05994">
        <ele>390</ele>
      </trkpt>
      <trkpt lat="44.52507" lon="5.06001">
        <ele>390</ele>
      </trkpt>
      <trkpt lat="44.52501" lon="5.0602">
        <ele>389</ele>
      </trkpt>
      <trkpt lat="44.52478" lon="5.06066">
        <ele>386</ele>
      </trkpt>
      <trkpt lat="44.52469" lon="5.06098">
        <ele>386</ele>
      </trkpt>
      <trkpt lat="44.52457" lon="5.06116">
        <ele>384</ele>
      </trkpt>
      <trkpt lat="44.52452" lon="5.06114">
        <ele>384</ele>
      </trkpt>
      <trkpt lat="44.52447" lon="5.06116">
        <ele>384</ele>
      </trkpt>
      <trkpt lat="44.52445" lon="5.06123">
        <ele>384</ele>
      </trkpt>
      <trkpt lat="44.52447" lon="5.06131">
        <ele>384</ele>
      </trkpt>
      <trkpt lat="44.52348" lon="5.063">
        <ele>379</ele>
      </trkpt>
      <trkpt lat="44.52344" lon="5.06305">
        <ele>378</ele>
      </trkpt>
      <trkpt lat="44.52339" lon="5.06308">
        <ele>377</ele>
      </trkpt>
      <trkpt lat="44.52334" lon="5.06304">
        <ele>378</ele>
      </trkpt>
      <trkpt lat="44.5233" lon="5.06306">
        <ele>377</ele>
      </trkpt>
      <trkpt lat="44.52328" lon="5.06314">
        <ele>376</ele>
      </trkpt>
      <trkpt lat="44.52332" lon="5.06321">
        <ele>376</ele>
      </trkpt>
      <trkpt lat="44.52329" lon="5.06329">
        <ele>376</ele>
      </trkpt>
      <trkpt lat="44.52316" lon="5.06357">
        <ele>375</ele>
      </trkpt>
      <trkpt lat="44.52301" lon="5.06384">
        <ele>374</ele>
      </trkpt>
      <trkpt lat="44.52286" lon="5.06413">
        <ele>377</ele>
      </trkpt>
      <trkpt lat="44.52281" lon="5.0643">
        <ele>379</ele>
      </trkpt>
      <trkpt lat="44.52278" lon="5.06465">
        <ele>382</ele>
      </trkpt>
      <trkpt lat="44.52278" lon="5.06485">
        <ele>385</ele>
      </trkpt>
      <trkpt lat="44.52284" lon="5.06511">
        <ele>388</ele>
      </trkpt>
      <trkpt lat="44.52288" lon="5.06517">
        <ele>388</ele>
      </trkpt>
      <trkpt lat="44.52297" lon="5.06524">
        <ele>388</ele>
      </trkpt>
      <trkpt lat="44.52311" lon="5.06537">
        <ele>390</ele>
      </trkpt>
      <trkpt lat="44.52308" lon="5.06552">
        <ele>391</ele>
      </trkpt>
      <trkpt lat="44.5231" lon="5.06559">
        <ele>393</ele>
      </trkpt>
      <trkpt lat="44.5228" lon="5.06578">
        <ele>392</ele>
      </trkpt>
      <trkpt lat="44.5222" lon="5.06626">
        <ele>393</ele>
      </trkpt>
      <trkpt lat="44.52196" lon="5.06659">
        <ele>392</ele>
      </trkpt>
      <trkpt lat="44.5219" lon="5.0667">
        <ele>393</ele>
      </trkpt>
      <trkpt lat="44.5217" lon="5.06778">
        <ele>393</ele>
      </trkpt>
      <trkpt lat="44.52159" lon="5.06818">
        <ele>394</ele>
      </trkpt>
      <trkpt lat="44.52124" lon="5.06895">
        <ele>395</ele>
      </trkpt>
      <trkpt lat="44.52109" lon="5.06933">
        <ele>397</ele>
      </trkpt>
      <trkpt lat="44.52066" lon="5.07089">
        <ele>400</ele>
      </trkpt>
      <trkpt lat="44.52031" lon="5.07163">
        <ele>400</ele>
      </trkpt>
      <trkpt lat="44.52022" lon="5.07188">
        <ele>402</ele>
      </trkpt>
      <trkpt lat="44.52005" lon="5.07275">
        <ele>411</ele>
      </trkpt>
      <trkpt lat="44.51937" lon="5.07556">
        <ele>425</ele>
      </trkpt>
      <trkpt lat="44.51901" lon="5.0775">
        <ele>419</ele>
      </trkpt>
      <trkpt lat="44.5188" lon="5.07807">
        <ele>420</ele>
      </trkpt>
      <trkpt lat="44.51858" lon="5.07856">
        <ele>416</ele>
      </trkpt>
      <trkpt lat="44.51839" lon="5.07925">
        <ele>413</ele>
      </trkpt>
      <trkpt lat="44.51834" lon="5.07937">
        <ele>413</ele>
      </trkpt>
      <trkpt lat="44.51818" lon="5.07966">
        <ele>415</ele>
      </trkpt>
      <trkpt lat="44.51753" lon="5.08044">
        <ele>413</ele>
      </trkpt>
      <trkpt lat="44.51742" lon="5.08062">
        <ele>413</ele>
      </trkpt>
      <trkpt lat="44.51729" lon="5.0809">
        <ele>413</ele>
      </trkpt>
      <trkpt lat="44.51694" lon="5.08171">
        <ele>412</ele>
      </trkpt>
      <trkpt lat="44.51669" lon="5.08237">
        <ele>408</ele>
      </trkpt>
      <trkpt lat="44.51606" lon="5.08417">
        <ele>424</ele>
      </trkpt>
      <trkpt lat="44.51592" lon="5.08461">
        <ele>426</ele>
      </trkpt>
      <trkpt lat="44.51586" lon="5.08486">
        <ele>428</ele>
      </trkpt>
      <trkpt lat="44.51583" lon="5.08512">
        <ele>429</ele>
      </trkpt>
      <trkpt lat="44.51575" lon="5.08692">
        <ele>429</ele>
      </trkpt>
      <trkpt lat="44.51572" lon="5.08716">
        <ele>430</ele>
      </trkpt>
      <trkpt lat="44.51565" lon="5.0874">
        <ele>430</ele>
      </trkpt>
      <trkpt lat="44.51553" lon="5.08761">
        <ele>431</ele>
      </trkpt>
      <trkpt lat="44.51491" lon="5.08839">
        <ele>437</ele>
      </trkpt>
      <trkpt lat="44.51468" lon="5.08874">
        <ele>442</ele>
      </trkpt>
      <trkpt lat="44.51422" lon="5.08983">
        <ele>447</ele>
      </trkpt>
      <trkpt lat="44.51411" lon="5.08997">
        <ele>447</ele>
      </trkpt>
      <trkpt lat="44.51395" lon="5.09009">
        <ele>443</ele>
      </trkpt>
      <trkpt lat="44.51353" lon="5.09031">
        <ele>438</ele>
      </trkpt>
      <trkpt lat="44.51341" lon="5.09043">
        <ele>437</ele>
      </trkpt>
      <trkpt lat="44.5133" lon="5.09063">
        <ele>437</ele>
      </trkpt>
      <trkpt lat="44.51324" lon="5.09094">
        <ele>437</ele>
      </trkpt>
      <trkpt lat="44.513" lon="5.09282">
        <ele>445</ele>
      </trkpt>
      <trkpt lat="44.51296" lon="5.09304">
        <ele>445</ele>
      </trkpt>
      <trkpt lat="44.51233" lon="5.09475">
        <ele>451</ele>
      </trkpt>
      <trkpt lat="44.51228" lon="5.09503">
        <ele>452</ele>
      </trkpt>
      <trkpt lat="44.51227" lon="5.09548">
        <ele>454</ele>
      </trkpt>
      <trkpt lat="44.5123" lon="5.09592">
        <ele>460</ele>
      </trkpt>
      <trkpt lat="44.51228" lon="5.09603">
        <ele>461</ele>
      </trkpt>
      <trkpt lat="44.51222" lon="5.09612">
        <ele>462</ele>
      </trkpt>
      <trkpt lat="44.51215" lon="5.09616">
        <ele>464</ele>
      </trkpt>
      <trkpt lat="44.51207" lon="5.09613">
        <ele>465</ele>
      </trkpt>
      <trkpt lat="44.51198" lon="5.09604">
        <ele>465</ele>
      </trkpt>
      <trkpt lat="44.51135" lon="5.09527">
        <ele>468</ele>
      </trkpt>
      <trkpt lat="44.5111" lon="5.09481">
        <ele>470</ele>
      </trkpt>
      <trkpt lat="44.51095" lon="5.0943">
        <ele>470</ele>
      </trkpt>
      <trkpt lat="44.51069" lon="5.09308">
        <ele>471</ele>
      </trkpt>
      <trkpt lat="44.51061" lon="5.0926">
        <ele>472</ele>
      </trkpt>
      <trkpt lat="44.51056" lon="5.09252">
        <ele>472</ele>
      </trkpt>
      <trkpt lat="44.51049" lon="5.09247">
        <ele>473</ele>
      </trkpt>
      <trkpt lat="44.51042" lon="5.09248">
        <ele>473</ele>
      </trkpt>
      <trkpt lat="44.51036" lon="5.09256">
        <ele>477</ele>
      </trkpt>
      <trkpt lat="44.51023" lon="5.09333">
        <ele>478</ele>
      </trkpt>
      <trkpt lat="44.50997" lon="5.09426">
        <ele>486</ele>
      </trkpt>
      <trkpt lat="44.50984" lon="5.09546">
        <ele>495</ele>
      </trkpt>
      <trkpt lat="44.50974" lon="5.09587">
        <ele>498</ele>
      </trkpt>
      <trkpt lat="44.50917" lon="5.09725">
        <ele>499</ele>
      </trkpt>
      <trkpt lat="44.50909" lon="5.09738">
        <ele>499</ele>
      </trkpt>
      <trkpt lat="44.50898" lon="5.09751">
        <ele>501</ele>
      </trkpt>
      <trkpt lat="44.50884" lon="5.09762">
        <ele>502</ele>
      </trkpt>
      <trkpt lat="44.50844" lon="5.09778">
        <ele>503</ele>
      </trkpt>
      <trkpt lat="44.50803" lon="5.09783">
        <ele>502</ele>
      </trkpt>
      <trkpt lat="44.50745" lon="5.09783">
        <ele>500</ele>
      </trkpt>
      <trkpt lat="44.50733" lon="5.09782">
        <ele>499</ele>
      </trkpt>
      <trkpt lat="44.50719" lon="5.09777">
        <ele>495</ele>
      </trkpt>
      <trkpt lat="44.50713" lon="5.09784">
        <ele>499</ele>
      </trkpt>
      <trkpt lat="44.50703" lon="5.09785">
        <ele>498</ele>
      </trkpt>
      <trkpt lat="44.50577" lon="5.0979">
        <ele>493</ele>
      </trkpt>
      <trkpt lat="44.50513" lon="5.098">
        <ele>487</ele>
      </trkpt>
      <trkpt lat="44.50498" lon="5.09806">
        <ele>486</ele>
      </trkpt>
      <trkpt lat="44.50492" lon="5.09818">
        <ele>490</ele>
      </trkpt>
      <trkpt lat="44.50488" lon="5.09839">
        <ele>492</ele>
      </trkpt>
      <trkpt lat="44.50494" lon="5.09953">
        <ele>497</ele>
      </trkpt>
      <trkpt lat="44.50495" lon="5.09989">
        <ele>497</ele>
      </trkpt>
      <trkpt lat="44.50483" lon="5.1008">
        <ele>487</ele>
      </trkpt>
      <trkpt lat="44.50456" lon="5.10268">
        <ele>480</ele>
      </trkpt>
      <trkpt lat="44.50433" lon="5.10409">
        <ele>477</ele>
      </trkpt>
      <trkpt lat="44.50336" lon="5.10855">
        <ele>482</ele>
      </trkpt>
      <trkpt lat="44.50318" lon="5.10893">
        <ele>481</ele>
      </trkpt>
      <trkpt lat="44.50219" lon="5.11014">
        <ele>482</ele>
      </trkpt>
      <trkpt lat="44.50136" lon="5.11123">
        <ele>479</ele>
      </trkpt>
      <trkpt lat="44.50104" lon="5.11158">
        <ele>476</ele>
      </trkpt>
      <trkpt lat="44.5003" lon="5.11258">
        <ele>481</ele>
      </trkpt>
      <trkpt lat="44.50013" lon="5.11286">
        <ele>484</ele>
      </trkpt>
      <trkpt lat="44.49959" lon="5.114">
        <ele>489</ele>
      </trkpt>
      <trkpt lat="44.49948" lon="5.11419">
        <ele>487</ele>
      </trkpt>
      <trkpt lat="44.49945" lon="5.11421">
        <ele>487</ele>
      </trkpt>
      <trkpt lat="44.49753" lon="5.11464">
        <ele>479</ele>
      </trkpt>
      <trkpt lat="44.49712" lon="5.1148">
        <ele>481</ele>
      </trkpt>
      <trkpt lat="44.4968" lon="5.11498">
        <ele>483</ele>
      </trkpt>
      <trkpt lat="44.49659" lon="5.11505">
        <ele>483</ele>
      </trkpt>
      <trkpt lat="44.4965" lon="5.11506">
        <ele>484</ele>
      </trkpt>
      <trkpt lat="44.49641" lon="5.11508">
        <ele>484</ele>
      </trkpt>
      <trkpt lat="44.4958" lon="5.11531">
        <ele>487</ele>
      </trkpt>
      <trkpt lat="44.49564" lon="5.11538">
        <ele>488</ele>
      </trkpt>
      <trkpt lat="44.49552" lon="5.11545">
        <ele>489</ele>
      </trkpt>
      <trkpt lat="44.49532" lon="5.11562">
        <ele>491</ele>
      </trkpt>
      <trkpt lat="44.4945" lon="5.11664">
        <ele>496</ele>
      </trkpt>
      <trkpt lat="44.49435" lon="5.1168">
        <ele>501</ele>
      </trkpt>
      <trkpt lat="44.49414" lon="5.11694">
        <ele>497</ele>
      </trkpt>
      <trkpt lat="44.49251" lon="5.11763">
        <ele>506</ele>
      </trkpt>
      <trkpt lat="44.49212" lon="5.11778">
        <ele>506</ele>
      </trkpt>
      <trkpt lat="44.49183" lon="5.11792">
        <ele>512</ele>
      </trkpt>
      <trkpt lat="44.48883" lon="5.11956">
        <ele>515</ele>
      </trkpt>
      <trkpt lat="44.48837" lon="5.11978">
        <ele>511</ele>
      </trkpt>
      <trkpt lat="44.48818" lon="5.1199">
        <ele>508</ele>
      </trkpt>
      <trkpt lat="44.48808" lon="5.12">
        <ele>509</ele>
      </trkpt>
      <trkpt lat="44.48795" lon="5.12024">
        <ele>510</ele>
      </trkpt>
      <trkpt lat="44.48701" lon="5.1226">
        <ele>508</ele>
      </trkpt>
      <trkpt lat="44.48489" lon="5.12579">
        <ele>528</ele>
      </trkpt>
      <trkpt lat="44.48478" lon="5.126">
        <ele>526</ele>
      </trkpt>
      <trkpt lat="44.48438" lon="5.12708">
        <ele>535</ele>
      </trkpt>
      <trkpt lat="44.48425" lon="5.12732">
        <ele>535</ele>
      </trkpt>
      <trkpt lat="44.48417" lon="5.12746">
        <ele>535</ele>
      </trkpt>
      <trkpt lat="44.48406" lon="5.12757">
        <ele>544</ele>
      </trkpt>
      <trkpt lat="44.4839" lon="5.1277">
        <ele>537</ele>
      </trkpt>
      <trkpt lat="44.48371" lon="5.12782">
        <ele>538</ele>
      </trkpt>
      <trkpt lat="44.48313" lon="5.12803">
        <ele>523</ele>
      </trkpt>
      <trkpt lat="44.48292" lon="5.12809">
        <ele>522</ele>
      </trkpt>
      <trkpt lat="44.48173" lon="5.12848">
        <ele>539</ele>
      </trkpt>
      <trkpt lat="44.48125" lon="5.12854">
        <ele>539</ele>
      </trkpt>
      <trkpt lat="44.47873" lon="5.12885">
        <ele>542</ele>
      </trkpt>
      <trkpt lat="44.47654" lon="5.13025">
        <ele>552</ele>
      </trkpt>
      <trkpt lat="44.47614" lon="5.13049">
        <ele>549</ele>
      </trkpt>
      <trkpt lat="44.47539" lon="5.13149">
        <ele>552</ele>
      </trkpt>
      <trkpt lat="44.47486" lon="5.13237">
        <ele>564</ele>
      </trkpt>
      <trkpt lat="44.47414" lon="5.13307">
        <ele>559</ele>
      </trkpt>
      <trkpt lat="44.47294" lon="5.13393">
        <ele>565</ele>
      </trkpt>
      <trkpt lat="44.47137" lon="5.13598">
        <ele>563</ele>
      </trkpt>
      <trkpt lat="44.47111" lon="5.13618">
        <ele>559</ele>
      </trkpt>
      <trkpt lat="44.47079" lon="5.13622">
        <ele>556</ele>
      </trkpt>
      <trkpt lat="44.47034" lon="5.1361">
        <ele>550</ele>
      </trkpt>
      <trkpt lat="44.47018" lon="5.13609">
        <ele>550</ele>
      </trkpt>
      <trkpt lat="44.47002" lon="5.13621">
        <ele>551</ele>
      </trkpt>
      <trkpt lat="44.46954" lon="5.13709">
        <ele>554</ele>
      </trkpt>
      <trkpt lat="44.46897" lon="5.13863">
        <ele>560</ele>
      </trkpt>
      <trkpt lat="44.46784" lon="5.14019">
        <ele>564</ele>
      </trkpt>
      <trkpt lat="44.46545" lon="5.14204">
        <ele>568</ele>
      </trkpt>
      <trkpt lat="44.46496" lon="5.14259">
        <ele>569</ele>
      </trkpt>
      <trkpt lat="44.46407" lon="5.1451">
        <ele>574</ele>
      </trkpt>
      <trkpt lat="44.46323" lon="5.14686">
        <ele>577</ele>
      </trkpt>
      <trkpt lat="44.46299" lon="5.14722">
        <ele>579</ele>
      </trkpt>
      <trkpt lat="44.46283" lon="5.14727">
        <ele>581</ele>
      </trkpt>
      <trkpt lat="44.4622" lon="5.14708">
        <ele>583</ele>
      </trkpt>
      <trkpt lat="44.46191" lon="5.1474">
        <ele>581</ele>
      </trkpt>
      <trkpt lat="44.4618" lon="5.14753">
        <ele>581</ele>
      </trkpt>
      <trkpt lat="44.4608" lon="5.14865">
        <ele>588</ele>
      </trkpt>
      <trkpt lat="44.46052" lon="5.14924">
        <ele>586</ele>
      </trkpt>
      <trkpt lat="44.45983" lon="5.15009">
        <ele>589</ele>
      </trkpt>
      <trkpt lat="44.45912" lon="5.15066">
        <ele>593</ele>
      </trkpt>
      <trkpt lat="44.45863" lon="5.15097">
        <ele>594</ele>
      </trkpt>
      <trkpt lat="44.45829" lon="5.15103">
        <ele>598</ele>
      </trkpt>
      <trkpt lat="44.45811" lon="5.15116">
        <ele>598</ele>
      </trkpt>
      <trkpt lat="44.45769" lon="5.15168">
        <ele>597</ele>
      </trkpt>
      <trkpt lat="44.45717" lon="5.15253">
        <ele>597</ele>
      </trkpt>
      <trkpt lat="44.45701" lon="5.15271">
        <ele>598</ele>
      </trkpt>
      <trkpt lat="44.45685" lon="5.15282">
        <ele>597</ele>
      </trkpt>
      <trkpt lat="44.45668" lon="5.15287">
        <ele>597</ele>
      </trkpt>
      <trkpt lat="44.45543" lon="5.15299">
        <ele>606</ele>
      </trkpt>
      <trkpt lat="44.45446" lon="5.1529">
        <ele>609</ele>
      </trkpt>
      <trkpt lat="44.45301" lon="5.15253">
        <ele>611</ele>
      </trkpt>
      <trkpt lat="44.45264" lon="5.15249">
        <ele>613</ele>
      </trkpt>
      <trkpt lat="44.4525" lon="5.15262">
        <ele>614</ele>
      </trkpt>
      <trkpt lat="44.4525" lon="5.15337">
        <ele>614</ele>
      </trkpt>
      <trkpt lat="44.45255" lon="5.15367">
        <ele>616</ele>
      </trkpt>
      <trkpt lat="44.45265" lon="5.1538">
        <ele>616</ele>
      </trkpt>
      <trkpt lat="44.45287" lon="5.15399">
        <ele>618</ele>
      </trkpt>
      <trkpt lat="44.45299" lon="5.15412">
        <ele>617</ele>
      </trkpt>
      <trkpt lat="44.45312" lon="5.1543">
        <ele>618</ele>
      </trkpt>
      <trkpt lat="44.45323" lon="5.15451">
        <ele>619</ele>
      </trkpt>
      <trkpt lat="44.45337" lon="5.15467">
        <ele>619</ele>
      </trkpt>
      <trkpt lat="44.45352" lon="5.15474">
        <ele>618</ele>
      </trkpt>
      <trkpt lat="44.45407" lon="5.15487">
        <ele>619</ele>
      </trkpt>
      <trkpt lat="44.45416" lon="5.15492">
        <ele>620</ele>
      </trkpt>
      <trkpt lat="44.45423" lon="5.15498">
        <ele>619</ele>
      </trkpt>
      <trkpt lat="44.45429" lon="5.15509">
        <ele>622</ele>
      </trkpt>
      <trkpt lat="44.45437" lon="5.15551">
        <ele>625</ele>
      </trkpt>
      <trkpt lat="44.45441" lon="5.15561">
        <ele>628</ele>
      </trkpt>
      <trkpt lat="44.45447" lon="5.15568">
        <ele>629</ele>
      </trkpt>
      <trkpt lat="44.45459" lon="5.15575">
        <ele>628</ele>
      </trkpt>
      <trkpt lat="44.45471" lon="5.1558">
        <ele>628</ele>
      </trkpt>
      <trkpt lat="44.45493" lon="5.15582">
        <ele>627</ele>
      </trkpt>
      <trkpt lat="44.4551" lon="5.15589">
        <ele>631</ele>
      </trkpt>
      <trkpt lat="44.45555" lon="5.15622">
        <ele>637</ele>
      </trkpt>
      <trkpt lat="44.45592" lon="5.15629">
        <ele>633</ele>
      </trkpt>
      <trkpt lat="44.45606" lon="5.15648">
        <ele>632</ele>
      </trkpt>
      <trkpt lat="44.45617" lon="5.15679">
        <ele>635</ele>
      </trkpt>
      <trkpt lat="44.45623" lon="5.15742">
        <ele>639</ele>
      </trkpt>
      <trkpt lat="44.45612" lon="5.15781">
        <ele>643</ele>
      </trkpt>
      <trkpt lat="44.45623" lon="5.15812">
        <ele>646</ele>
      </trkpt>
      <trkpt lat="44.45654" lon="5.15855">
        <ele>641</ele>
      </trkpt>
      <trkpt lat="44.45699" lon="5.15956">
        <ele>645</ele>
      </trkpt>
      <trkpt lat="44.45707" lon="5.16002">
        <ele>646</ele>
      </trkpt>
      <trkpt lat="44.4571" lon="5.16049">
        <ele>648</ele>
      </trkpt>
      <trkpt lat="44.45728" lon="5.16101">
        <ele>654</ele>
      </trkpt>
      <trkpt lat="44.4574" lon="5.16163">
        <ele>650</ele>
      </trkpt>
      <trkpt lat="44.45751" lon="5.16283">
        <ele>659</ele>
      </trkpt>
      <trkpt lat="44.4577" lon="5.16341">
        <ele>654</ele>
      </trkpt>
      <trkpt lat="44.4575" lon="5.16401">
        <ele>660</ele>
      </trkpt>
      <trkpt lat="44.45727" lon="5.16423">
        <ele>669</ele>
      </trkpt>
      <trkpt lat="44.45692" lon="5.16479">
        <ele>683</ele>
      </trkpt>
      <trkpt lat="44.45697" lon="5.16493">
        <ele>683</ele>
      </trkpt>
      <trkpt lat="44.45729" lon="5.16499">
        <ele>682</ele>
      </trkpt>
      <trkpt lat="44.45766" lon="5.16517">
        <ele>692</ele>
      </trkpt>
      <trkpt lat="44.45815" lon="5.16475">
        <ele>672</ele>
      </trkpt>
      <trkpt lat="44.45834" lon="5.16481">
        <ele>671</ele>
      </trkpt>
      <trkpt lat="44.4586" lon="5.16532">
        <ele>669</ele>
      </trkpt>
      <trkpt lat="44.45855" lon="5.16572">
        <ele>673</ele>
      </trkpt>
      <trkpt lat="44.45848" lon="5.16599">
        <ele>677</ele>
      </trkpt>
      <trkpt lat="44.45856" lon="5.16748">
        <ele>698</ele>
      </trkpt>
      <trkpt lat="44.45868" lon="5.16771">
        <ele>701</ele>
      </trkpt>
      <trkpt lat="44.45893" lon="5.16775">
        <ele>699</ele>
      </trkpt>
      <trkpt lat="44.45948" lon="5.16831">
        <ele>699</ele>
      </trkpt>
      <trkpt lat="44.45987" lon="5.16838">
        <ele>697</ele>
      </trkpt>
      <trkpt lat="44.46002" lon="5.16866">
        <ele>707</ele>
      </trkpt>
      <trkpt lat="44.46042" lon="5.16913">
        <ele>707</ele>
      </trkpt>
      <trkpt lat="44.46083" lon="5.16931">
        <ele>710</ele>
      </trkpt>
      <trkpt lat="44.46171" lon="5.16982">
        <ele>708</ele>
      </trkpt>
      <trkpt lat="44.46235" lon="5.17068">
        <ele>705</ele>
      </trkpt>
      <trkpt lat="44.46237" lon="5.1708">
        <ele>702</ele>
      </trkpt>
      <trkpt lat="44.46233" lon="5.17094">
        <ele>707</ele>
      </trkpt>
      <trkpt lat="44.4621" lon="5.17129">
        <ele>710</ele>
      </trkpt>
      <trkpt lat="44.46191" lon="5.17152">
        <ele>718</ele>
      </trkpt>
      <trkpt lat="44.4619" lon="5.17159">
        <ele>718</ele>
      </trkpt>
      <trkpt lat="44.46194" lon="5.17173">
        <ele>721</ele>
      </trkpt>
      <trkpt lat="44.4624" lon="5.17268">
        <ele>720</ele>
      </trkpt>
      <trkpt lat="44.46255" lon="5.17312">
        <ele>723</ele>
      </trkpt>
      <trkpt lat="44.46271" lon="5.17346">
        <ele>720</ele>
      </trkpt>
      <trkpt lat="44.46275" lon="5.17359">
        <ele>720</ele>
      </trkpt>
      <trkpt lat="44.46272" lon="5.17373">
        <ele>722</ele>
      </trkpt>
      <trkpt lat="44.46253" lon="5.17416">
        <ele>727</ele>
      </trkpt>
      <trkpt lat="44.46243" lon="5.17454">
        <ele>724</ele>
      </trkpt>
      <trkpt lat="44.46239" lon="5.17491">
        <ele>723</ele>
      </trkpt>
      <trkpt lat="44.46217" lon="5.17521">
        <ele>727</ele>
      </trkpt>
      <trkpt lat="44.46186" lon="5.17569">
        <ele>730</ele>
      </trkpt>
      <trkpt lat="44.46176" lon="5.17596">
        <ele>733</ele>
      </trkpt>
      <trkpt lat="44.46158" lon="5.17592">
        <ele>733</ele>
      </trkpt>
      <trkpt lat="44.46128" lon="5.1759">
        <ele>734</ele>
      </trkpt>
      <trkpt lat="44.46096" lon="5.17602">
        <ele>734</ele>
      </trkpt>
      <trkpt lat="44.45938" lon="5.1781">
        <ele>726</ele>
      </trkpt>
      <trkpt lat="44.45904" lon="5.17838">
        <ele>726</ele>
      </trkpt>
      <trkpt lat="44.45894" lon="5.17861">
        <ele>725</ele>
      </trkpt>
      <trkpt lat="44.45902" lon="5.17923">
        <ele>716</ele>
      </trkpt>
      <trkpt lat="44.45905" lon="5.17962">
        <ele>716</ele>
      </trkpt>
      <trkpt lat="44.45901" lon="5.17997">
        <ele>716</ele>
      </trkpt>
      <trkpt lat="44.45886" lon="5.18036">
        <ele>713</ele>
      </trkpt>
      <trkpt lat="44.45885" lon="5.18047">
        <ele>712</ele>
      </trkpt>
      <trkpt lat="44.45893" lon="5.18099">
        <ele>715</ele>
      </trkpt>
      <trkpt lat="44.45904" lon="5.18113">
        <ele>714</ele>
      </trkpt>
      <trkpt lat="44.45916" lon="5.1812">
        <ele>715</ele>
      </trkpt>
      <trkpt lat="44.45924" lon="5.1813">
        <ele>715</ele>
      </trkpt>
      <trkpt lat="44.45926" lon="5.18141">
        <ele>715</ele>
      </trkpt>
      <trkpt lat="44.45925" lon="5.1815">
        <ele>714</ele>
      </trkpt>
      <trkpt lat="44.45912" lon="5.18186">
        <ele>712</ele>
      </trkpt>
      <trkpt lat="44.45898" lon="5.18256">
        <ele>705</ele>
      </trkpt>
      <trkpt lat="44.45888" lon="5.18279">
        <ele>704</ele>
      </trkpt>
      <trkpt lat="44.45883" lon="5.18304">
        <ele>701</ele>
      </trkpt>
      <trkpt lat="44.45881" lon="5.18324">
        <ele>698</ele>
      </trkpt>
      <trkpt lat="44.45874" lon="5.18514">
        <ele>686</ele>
      </trkpt>
      <trkpt lat="44.45876" lon="5.1853">
        <ele>686</ele>
      </trkpt>
      <trkpt lat="44.45888" lon="5.1855">
        <ele>684</ele>
      </trkpt>
      <trkpt lat="44.45897" lon="5.18578">
        <ele>683</ele>
      </trkpt>
      <trkpt lat="44.459" lon="5.186">
        <ele>681</ele>
      </trkpt>
      <trkpt lat="44.45899" lon="5.18628">
        <ele>680</ele>
      </trkpt>
      <trkpt lat="44.45896" lon="5.18653">
        <ele>677</ele>
      </trkpt>
      <trkpt lat="44.4589" lon="5.18673">
        <ele>674</ele>
      </trkpt>
      <trkpt lat="44.45884" lon="5.18686">
        <ele>673</ele>
      </trkpt>
      <trkpt lat="44.45863" lon="5.18703">
        <ele>675</ele>
      </trkpt>
      <trkpt lat="44.45856" lon="5.18711">
        <ele>675</ele>
      </trkpt>
      <trkpt lat="44.45828" lon="5.18794">
        <ele>668</ele>
      </trkpt>
      <trkpt lat="44.45818" lon="5.18815">
        <ele>667</ele>
      </trkpt>
      <trkpt lat="44.4581" lon="5.18825">
        <ele>667</ele>
      </trkpt>
      <trkpt lat="44.45782" lon="5.1884">
        <ele>664</ele>
      </trkpt>
      <trkpt lat="44.45757" lon="5.18856">
        <ele>666</ele>
      </trkpt>
      <trkpt lat="44.45739" lon="5.1888">
        <ele>662</ele>
      </trkpt>
      <trkpt lat="44.45731" lon="5.18916">
        <ele>660</ele>
      </trkpt>
      <trkpt lat="44.45731" lon="5.18945">
        <ele>656</ele>
      </trkpt>
      <trkpt lat="44.45727" lon="5.18962">
        <ele>651</ele>
      </trkpt>
      <trkpt lat="44.4572" lon="5.18971">
        <ele>651</ele>
      </trkpt>
      <trkpt lat="44.45695" lon="5.18985">
        <ele>648</ele>
      </trkpt>
      <trkpt lat="44.45678" lon="5.18992">
        <ele>651</ele>
      </trkpt>
      <trkpt lat="44.4565" lon="5.19016">
        <ele>647</ele>
      </trkpt>
      <trkpt lat="44.45617" lon="5.19049">
        <ele>646</ele>
      </trkpt>
      <trkpt lat="44.45595" lon="5.1906">
        <ele>654</ele>
      </trkpt>
      <trkpt lat="44.45585" lon="5.19076">
        <ele>648</ele>
      </trkpt>
      <trkpt lat="44.45582" lon="5.19099">
        <ele>642</ele>
      </trkpt>
      <trkpt lat="44.45584" lon="5.19129">
        <ele>638</ele>
      </trkpt>
      <trkpt lat="44.45581" lon="5.19146">
        <ele>635</ele>
      </trkpt>
      <trkpt lat="44.45563" lon="5.19175">
        <ele>637</ele>
      </trkpt>
      <trkpt lat="44.4555" lon="5.19235">
        <ele>630</ele>
      </trkpt>
      <trkpt lat="44.45552" lon="5.19268">
        <ele>625</ele>
      </trkpt>
      <trkpt lat="44.45554" lon="5.19284">
        <ele>621</ele>
      </trkpt>
      <trkpt lat="44.45552" lon="5.19299">
        <ele>619</ele>
      </trkpt>
      <trkpt lat="44.45515" lon="5.19374">
        <ele>615</ele>
      </trkpt>
      <trkpt lat="44.45507" lon="5.19405">
        <ele>613</ele>
      </trkpt>
      <trkpt lat="44.45495" lon="5.19424">
        <ele>606</ele>
      </trkpt>
      <trkpt lat="44.45462" lon="5.19458">
        <ele>606</ele>
      </trkpt>
      <trkpt lat="44.45454" lon="5.19475">
        <ele>612</ele>
      </trkpt>
      <trkpt lat="44.45426" lon="5.19565">
        <ele>593</ele>
      </trkpt>
      <trkpt lat="44.45393" lon="5.19632">
        <ele>594</ele>
      </trkpt>
      <trkpt lat="44.45385" lon="5.19659">
        <ele>586</ele>
      </trkpt>
      <trkpt lat="44.45372" lon="5.19681">
        <ele>587</ele>
      </trkpt>
      <trkpt lat="44.4529" lon="5.19746">
        <ele>590</ele>
      </trkpt>
      <trkpt lat="44.4527" lon="5.19753">
        <ele>590</ele>
      </trkpt>
      <trkpt lat="44.45254" lon="5.19762">
        <ele>584</ele>
      </trkpt>
      <trkpt lat="44.45242" lon="5.19782">
        <ele>581</ele>
      </trkpt>
      <trkpt lat="44.45179" lon="5.19821">
        <ele>584</ele>
      </trkpt>
      <trkpt lat="44.45122" lon="5.19868">
        <ele>569</ele>
      </trkpt>
      <trkpt lat="44.45088" lon="5.19885">
        <ele>566</ele>
      </trkpt>
      <trkpt lat="44.45076" lon="5.19886">
        <ele>566</ele>
      </trkpt>
      <trkpt lat="44.45066" lon="5.19878">
        <ele>566</ele>
      </trkpt>
      <trkpt lat="44.45039" lon="5.19843">
        <ele>574</ele>
      </trkpt>
      <trkpt lat="44.45032" lon="5.19841">
        <ele>573</ele>
      </trkpt>
      <trkpt lat="44.45026" lon="5.19844">
        <ele>573</ele>
      </trkpt>
      <trkpt lat="44.45022" lon="5.19853">
        <ele>572</ele>
      </trkpt>
      <trkpt lat="44.45021" lon="5.19897">
        <ele>557</ele>
      </trkpt>
      <trkpt lat="44.45017" lon="5.19909">
        <ele>555</ele>
      </trkpt>
      <trkpt lat="44.45011" lon="5.19914">
        <ele>556</ele>
      </trkpt>
      <trkpt lat="44.44994" lon="5.19912">
        <ele>557</ele>
      </trkpt>
      <trkpt lat="44.44964" lon="5.19892">
        <ele>563</ele>
      </trkpt>
      <trkpt lat="44.44957" lon="5.19888">
        <ele>563</ele>
      </trkpt>
      <trkpt lat="44.44947" lon="5.19888">
        <ele>563</ele>
      </trkpt>
      <trkpt lat="44.44931" lon="5.19895">
        <ele>556</ele>
      </trkpt>
      <trkpt lat="44.44915" lon="5.19897">
        <ele>554</ele>
      </trkpt>
      <trkpt lat="44.44894" lon="5.19891">
        <ele>557</ele>
      </trkpt>
      <trkpt lat="44.44876" lon="5.19894">
        <ele>556</ele>
      </trkpt>
      <trkpt lat="44.44854" lon="5.19904">
        <ele>550</ele>
      </trkpt>
      <trkpt lat="44.4483" lon="5.19903">
        <ele>551</ele>
      </trkpt>
      <trkpt lat="44.44797" lon="5.19918">
        <ele>553</ele>
      </trkpt>
      <trkpt lat="44.44754" lon="5.19969">
        <ele>543</ele>
      </trkpt>
      <trkpt lat="44.44753" lon="5.19976">
        <ele>543</ele>
      </trkpt>
      <trkpt lat="44.44757" lon="5.19981">
        <ele>538</ele>
      </trkpt>
      <trkpt lat="44.44764" lon="5.19981">
        <ele>536</ele>
      </trkpt>
      <trkpt lat="44.44777" lon="5.19964">
        <ele>539</ele>
      </trkpt>
      <trkpt lat="44.44798" lon="5.1995">
        <ele>541</ele>
      </trkpt>
      <trkpt lat="44.44832" lon="5.19954">
        <ele>540</ele>
      </trkpt>
      <trkpt lat="44.44859" lon="5.19968">
        <ele>538</ele>
      </trkpt>
      <trkpt lat="44.44871" lon="5.1999">
        <ele>536</ele>
      </trkpt>
      <trkpt lat="44.44885" lon="5.20007">
        <ele>531</ele>
      </trkpt>
      <trkpt lat="44.44896" lon="5.20011">
        <ele>530</ele>
      </trkpt>
      <trkpt lat="44.44926" lon="5.20001">
        <ele>532</ele>
      </trkpt>
      <trkpt lat="44.44956" lon="5.19998">
        <ele>533</ele>
      </trkpt>
      <trkpt lat="44.44987" lon="5.2001">
        <ele>530</ele>
      </trkpt>
      <trkpt lat="44.45008" lon="5.20029">
        <ele>528</ele>
      </trkpt>
      <trkpt lat="44.4501" lon="5.20039">
        <ele>526</ele>
      </trkpt>
      <trkpt lat="44.45007" lon="5.2005">
        <ele>526</ele>
      </trkpt>
      <trkpt lat="44.44995" lon="5.20055">
        <ele>526</ele>
      </trkpt>
      <trkpt lat="44.44962" lon="5.20059">
        <ele>526</ele>
      </trkpt>
      <trkpt lat="44.4494" lon="5.20069">
        <ele>523</ele>
      </trkpt>
      <trkpt lat="44.44932" lon="5.2008">
        <ele>522</ele>
      </trkpt>
      <trkpt lat="44.44927" lon="5.20097">
        <ele>519</ele>
      </trkpt>
      <trkpt lat="44.44926" lon="5.20137">
        <ele>519</ele>
      </trkpt>
      <trkpt lat="44.44924" lon="5.20149">
        <ele>522</ele>
      </trkpt>
      <trkpt lat="44.44915" lon="5.20156">
        <ele>522</ele>
      </trkpt>
      <trkpt lat="44.44835" lon="5.2017">
        <ele>530</ele>
      </trkpt>
      <trkpt lat="44.44784" lon="5.20166">
        <ele>526</ele>
      </trkpt>
      <trkpt lat="44.44765" lon="5.20167">
        <ele>525</ele>
      </trkpt>
      <trkpt lat="44.44752" lon="5.20163">
        <ele>521</ele>
      </trkpt>
      <trkpt lat="44.44741" lon="5.20155">
        <ele>520</ele>
      </trkpt>
      <trkpt lat="44.44733" lon="5.20155">
        <ele>520</ele>
      </trkpt>
      <trkpt lat="44.44714" lon="5.20167">
        <ele>522</ele>
      </trkpt>
      <trkpt lat="44.44703" lon="5.20164">
        <ele>523</ele>
      </trkpt>
      <trkpt lat="44.44694" lon="5.20157">
        <ele>522</ele>
      </trkpt>
      <trkpt lat="44.44686" lon="5.20163">
        <ele>524</ele>
      </trkpt>
      <trkpt lat="44.44681" lon="5.20182">
        <ele>530</ele>
      </trkpt>
      <trkpt lat="44.44675" lon="5.20199">
        <ele>532</ele>
      </trkpt>
      <trkpt lat="44.44661" lon="5.20213">
        <ele>539</ele>
      </trkpt>
      <trkpt lat="44.44646" lon="5.20219">
        <ele>535</ele>
      </trkpt>
      <trkpt lat="44.44624" lon="5.20216">
        <ele>533</ele>
      </trkpt>
      <trkpt lat="44.44606" lon="5.20206">
        <ele>527</ele>
      </trkpt>
      <trkpt lat="44.44586" lon="5.20207">
        <ele>522</ele>
      </trkpt>
      <trkpt lat="44.44565" lon="5.20197">
        <ele>518</ele>
      </trkpt>
      <trkpt lat="44.44556" lon="5.20195">
        <ele>517</ele>
      </trkpt>
      <trkpt lat="44.44544" lon="5.20196">
        <ele>518</ele>
      </trkpt>
      <trkpt lat="44.44527" lon="5.20204">
        <ele>524</ele>
      </trkpt>
      <trkpt lat="44.44514" lon="5.20205">
        <ele>526</ele>
      </trkpt>
      <trkpt lat="44.44502" lon="5.20199">
        <ele>521</ele>
      </trkpt>
      <trkpt lat="44.44496" lon="5.2019">
        <ele>519</ele>
      </trkpt>
      <trkpt lat="44.44491" lon="5.20177">
        <ele>518</ele>
      </trkpt>
      <trkpt lat="44.44483" lon="5.20168">
        <ele>515</ele>
      </trkpt>
      <trkpt lat="44.44472" lon="5.20166">
        <ele>513</ele>
      </trkpt>
      <trkpt lat="44.44448" lon="5.20181">
        <ele>518</ele>
      </trkpt>
      <trkpt lat="44.44437" lon="5.20184">
        <ele>519</ele>
      </trkpt>
      <trkpt lat="44.44346" lon="5.20163">
        <ele>508</ele>
      </trkpt>
      <trkpt lat="44.44334" lon="5.20162">
        <ele>505</ele>
      </trkpt>
      <trkpt lat="44.4432" lon="5.20165">
        <ele>506</ele>
      </trkpt>
      <trkpt lat="44.44275" lon="5.20191">
        <ele>501</ele>
      </trkpt>
      <trkpt lat="44.44262" lon="5.20205">
        <ele>502</ele>
      </trkpt>
      <trkpt lat="44.44251" lon="5.20223">
        <ele>502</ele>
      </trkpt>
      <trkpt lat="44.44214" lon="5.20307">
        <ele>508</ele>
      </trkpt>
      <trkpt lat="44.44179" lon="5.20366">
        <ele>516</ele>
      </trkpt>
      <trkpt lat="44.44166" lon="5.20379">
        <ele>513</ele>
      </trkpt>
      <trkpt lat="44.44117" lon="5.2041">
        <ele>490</ele>
      </trkpt>
      <trkpt lat="44.441" lon="5.20429">
        <ele>494</ele>
      </trkpt>
      <trkpt lat="44.4409" lon="5.2045">
        <ele>489</ele>
      </trkpt>
      <trkpt lat="44.44064" lon="5.20519">
        <ele>497</ele>
      </trkpt>
      <trkpt lat="44.44051" lon="5.20561">
        <ele>498</ele>
      </trkpt>
      <trkpt lat="44.44044" lon="5.20596">
        <ele>502</ele>
      </trkpt>
      <trkpt lat="44.44029" lon="5.20715">
        <ele>483</ele>
      </trkpt>
      <trkpt lat="44.44029" lon="5.20729">
        <ele>481</ele>
      </trkpt>
      <trkpt lat="44.44033" lon="5.2074">
        <ele>481</ele>
      </trkpt>
      <trkpt lat="44.44053" lon="5.20769">
        <ele>486</ele>
      </trkpt>
      <trkpt lat="44.44084" lon="5.20831">
        <ele>481</ele>
      </trkpt>
      <trkpt lat="44.44095" lon="5.20844">
        <ele>476</ele>
      </trkpt>
      <trkpt lat="44.44157" lon="5.20899">
        <ele>474</ele>
      </trkpt>
      <trkpt lat="44.44165" lon="5.2091">
        <ele>473</ele>
      </trkpt>
      <trkpt lat="44.44131" lon="5.20938">
        <ele>469</ele>
      </trkpt>
      <trkpt lat="44.44112" lon="5.20954">
        <ele>471</ele>
      </trkpt>
      <trkpt lat="44.44104" lon="5.20956">
        <ele>472</ele>
      </trkpt>
      <trkpt lat="44.4409" lon="5.20956">
        <ele>473</ele>
      </trkpt>
      <trkpt lat="44.43981" lon="5.20947">
        <ele>469</ele>
      </trkpt>
      <trkpt lat="44.43912" lon="5.20962">
        <ele>467</ele>
      </trkpt>
      <trkpt lat="44.4386" lon="5.20954">
        <ele>464</ele>
      </trkpt>
      <trkpt lat="44.43835" lon="5.20962">
        <ele>462</ele>
      </trkpt>
      <trkpt lat="44.43809" lon="5.20979">
        <ele>463</ele>
      </trkpt>
      <trkpt lat="44.43778" lon="5.2102">
        <ele>465</ele>
      </trkpt>
      <trkpt lat="44.43736" lon="5.21069">
        <ele>465</ele>
      </trkpt>
      <trkpt lat="44.43729" lon="5.21077">
        <ele>461</ele>
      </trkpt>
      <trkpt lat="44.4372" lon="5.21088">
        <ele>461</ele>
      </trkpt>
      <trkpt lat="44.43692" lon="5.21138">
        <ele>459</ele>
      </trkpt>
      <trkpt lat="44.43673" lon="5.21161">
        <ele>458</ele>
      </trkpt>
      <trkpt lat="44.4366" lon="5.2117">
        <ele>458</ele>
      </trkpt>
      <trkpt lat="44.43639" lon="5.21179">
        <ele>461</ele>
      </trkpt>
      <trkpt lat="44.43574" lon="5.21198">
        <ele>456</ele>
      </trkpt>
      <trkpt lat="44.43544" lon="5.21211">
        <ele>452</ele>
      </trkpt>
      <trkpt lat="44.43522" lon="5.21224">
        <ele>448</ele>
      </trkpt>
      <trkpt lat="44.43513" lon="5.21229">
        <ele>449</ele>
      </trkpt>
      <trkpt lat="44.43411" lon="5.21285">
        <ele>460</ele>
      </trkpt>
      <trkpt lat="44.43394" lon="5.21288">
        <ele>457</ele>
      </trkpt>
      <trkpt lat="44.43344" lon="5.21287">
        <ele>451</ele>
      </trkpt>
      <trkpt lat="44.43319" lon="5.21291">
        <ele>452</ele>
      </trkpt>
      <trkpt lat="44.43269" lon="5.21314">
        <ele>451</ele>
      </trkpt>
      <trkpt lat="44.43243" lon="5.21329">
        <ele>444</ele>
      </trkpt>
      <trkpt lat="44.4317" lon="5.21394">
        <ele>438</ele>
      </trkpt>
      <trkpt lat="44.43104" lon="5.21457">
        <ele>433</ele>
      </trkpt>
      <trkpt lat="44.42905" lon="5.21678">
        <ele>426</ele>
      </trkpt>
      <trkpt lat="44.42873" lon="5.21706">
        <ele>426</ele>
      </trkpt>
      <trkpt lat="44.42777" lon="5.21748">
        <ele>420</ele>
      </trkpt>
      <trkpt lat="44.42786" lon="5.21772">
        <ele>421</ele>
      </trkpt>
      <trkpt lat="44.42852" lon="5.21847">
        <ele>427</ele>
      </trkpt>
      <trkpt lat="44.42864" lon="5.21872">
        <ele>425</ele>
      </trkpt>
      <trkpt lat="44.42876" lon="5.21911">
        <ele>430</ele>
      </trkpt>
      <trkpt lat="44.42895" lon="5.22003">
        <ele>427</ele>
      </trkpt>
      <trkpt lat="44.4293" lon="5.2207">
        <ele>424</ele>
      </trkpt>
      <trkpt lat="44.42944" lon="5.22113">
        <ele>423</ele>
      </trkpt>
      <trkpt lat="44.42934" lon="5.22122">
        <ele>422</ele>
      </trkpt>
      <trkpt lat="44.42922" lon="5.22123">
        <ele>421</ele>
      </trkpt>
      <trkpt lat="44.42907" lon="5.2212">
        <ele>420</ele>
      </trkpt>
      <trkpt lat="44.42858" lon="5.22141">
        <ele>419</ele>
      </trkpt>
      <trkpt lat="44.42839" lon="5.22159">
        <ele>422</ele>
      </trkpt>
      <trkpt lat="44.42836" lon="5.22169">
        <ele>422</ele>
      </trkpt>
      <trkpt lat="44.42837" lon="5.2218">
        <ele>423</ele>
      </trkpt>
      <trkpt lat="44.42842" lon="5.22206">
        <ele>424</ele>
      </trkpt>
      <trkpt lat="44.42839" lon="5.22211">
        <ele>425</ele>
      </trkpt>
      <trkpt lat="44.42833" lon="5.2221">
        <ele>425</ele>
      </trkpt>
      <trkpt lat="44.42815" lon="5.22174">
        <ele>428</ele>
      </trkpt>
      <trkpt lat="44.42812" lon="5.22119">
        <ele>424</ele>
      </trkpt>
      <trkpt lat="44.42805" lon="5.22082">
        <ele>424</ele>
      </trkpt>
      <trkpt lat="44.42787" lon="5.22053">
        <ele>432</ele>
      </trkpt>
      <trkpt lat="44.42782" lon="5.22039">
        <ele>433</ele>
      </trkpt>
      <trkpt lat="44.42781" lon="5.22025">
        <ele>432</ele>
      </trkpt>
      <trkpt lat="44.42782" lon="5.22">
        <ele>429</ele>
      </trkpt>
      <trkpt lat="44.42779" lon="5.21982">
        <ele>428</ele>
      </trkpt>
      <trkpt lat="44.42777" lon="5.21973">
        <ele>425</ele>
      </trkpt>
      <trkpt lat="44.4277" lon="5.2197">
        <ele>426</ele>
      </trkpt>
      <trkpt lat="44.42769" lon="5.2198">
        <ele>429</ele>
      </trkpt>
      <trkpt lat="44.42769" lon="5.21997">
        <ele>430</ele>
      </trkpt>
      <trkpt lat="44.42763" lon="5.22044">
        <ele>435</ele>
      </trkpt>
      <trkpt lat="44.42776" lon="5.22093">
        <ele>435</ele>
      </trkpt>
      <trkpt lat="44.42774" lon="5.2211">
        <ele>436</ele>
      </trkpt>
      <trkpt lat="44.42766" lon="5.22132">
        <ele>438</ele>
      </trkpt>
      <trkpt lat="44.4274" lon="5.22174">
        <ele>453</ele>
      </trkpt>
      <trkpt lat="44.42739" lon="5.22191">
        <ele>453</ele>
      </trkpt>
      <trkpt lat="44.42743" lon="5.22213">
        <ele>454</ele>
      </trkpt>
      <trkpt lat="44.42747" lon="5.22228">
        <ele>453</ele>
      </trkpt>
      <trkpt lat="44.42742" lon="5.22235">
        <ele>455</ele>
      </trkpt>
      <trkpt lat="44.42736" lon="5.22234">
        <ele>456</ele>
      </trkpt>
      <trkpt lat="44.4273" lon="5.22225">
        <ele>461</ele>
      </trkpt>
      <trkpt lat="44.42727" lon="5.22208">
        <ele>461</ele>
      </trkpt>
      <trkpt lat="44.42713" lon="5.22184">
        <ele>461</ele>
      </trkpt>
      <trkpt lat="44.42714" lon="5.22168">
        <ele>462</ele>
      </trkpt>
      <trkpt lat="44.42717" lon="5.22152">
        <ele>462</ele>
      </trkpt>
      <trkpt lat="44.42737" lon="5.22125">
        <ele>452</ele>
      </trkpt>
      <trkpt lat="44.4274" lon="5.22119">
        <ele>451</ele>
      </trkpt>
      <trkpt lat="44.42733" lon="5.22113">
        <ele>460</ele>
      </trkpt>
      <trkpt lat="44.42713" lon="5.22133">
        <ele>464</ele>
      </trkpt>
      <trkpt lat="44.42694" lon="5.22172">
        <ele>469</ele>
      </trkpt>
      <trkpt lat="44.42693" lon="5.22184">
        <ele>468</ele>
      </trkpt>
      <trkpt lat="44.42698" lon="5.22228">
        <ele>469</ele>
      </trkpt>
      <trkpt lat="44.42695" lon="5.22258">
        <ele>474</ele>
      </trkpt>
      <trkpt lat="44.42691" lon="5.22275">
        <ele>474</ele>
      </trkpt>
      <trkpt lat="44.42681" lon="5.22289">
        <ele>478</ele>
      </trkpt>
      <trkpt lat="44.42669" lon="5.22299">
        <ele>484</ele>
      </trkpt>
      <trkpt lat="44.42667" lon="5.22305">
        <ele>485</ele>
      </trkpt>
      <trkpt lat="44.42674" lon="5.22327">
        <ele>488</ele>
      </trkpt>
      <trkpt lat="44.4271" lon="5.22377">
        <ele>483</ele>
      </trkpt>
      <trkpt lat="44.4271" lon="5.22383">
        <ele>483</ele>
      </trkpt>
      <trkpt lat="44.42708" lon="5.22389">
        <ele>484</ele>
      </trkpt>
      <trkpt lat="44.42695" lon="5.22378">
        <ele>490</ele>
      </trkpt>
      <trkpt lat="44.42692" lon="5.22368">
        <ele>489</ele>
      </trkpt>
      <trkpt lat="44.42666" lon="5.22355">
        <ele>494</ele>
      </trkpt>
      <trkpt lat="44.42648" lon="5.22342">
        <ele>500</ele>
      </trkpt>
      <trkpt lat="44.42631" lon="5.22328">
        <ele>498</ele>
      </trkpt>
      <trkpt lat="44.42625" lon="5.22319">
        <ele>498</ele>
      </trkpt>
      <trkpt lat="44.42622" lon="5.22308">
        <ele>501</ele>
      </trkpt>
      <trkpt lat="44.42616" lon="5.22255">
        <ele>496</ele>
      </trkpt>
      <trkpt lat="44.42609" lon="5.22218">
        <ele>496</ele>
      </trkpt>
      <trkpt lat="44.42604" lon="5.22182">
        <ele>494</ele>
      </trkpt>
      <trkpt lat="44.426" lon="5.22173">
        <ele>494</ele>
      </trkpt>
      <trkpt lat="44.42592" lon="5.22171">
        <ele>496</ele>
      </trkpt>
      <trkpt lat="44.42576" lon="5.22175">
        <ele>502</ele>
      </trkpt>
      <trkpt lat="44.42535" lon="5.22173">
        <ele>516</ele>
      </trkpt>
      <trkpt lat="44.42527" lon="5.22177">
        <ele>518</ele>
      </trkpt>
      <trkpt lat="44.42506" lon="5.22198">
        <ele>524</ele>
      </trkpt>
      <trkpt lat="44.42497" lon="5.22203">
        <ele>531</ele>
      </trkpt>
      <trkpt lat="44.42486" lon="5.22205">
        <ele>531</ele>
      </trkpt>
      <trkpt lat="44.42455" lon="5.22193">
        <ele>526</ele>
      </trkpt>
      <trkpt lat="44.42445" lon="5.22186">
        <ele>524</ele>
      </trkpt>
      <trkpt lat="44.42437" lon="5.22176">
        <ele>524</ele>
      </trkpt>
      <trkpt lat="44.42433" lon="5.22178">
        <ele>525</ele>
      </trkpt>
      <trkpt lat="44.42435" lon="5.22186">
        <ele>526</ele>
      </trkpt>
      <trkpt lat="44.42444" lon="5.22198">
        <ele>527</ele>
      </trkpt>
      <trkpt lat="44.4248" lon="5.22228">
        <ele>535</ele>
      </trkpt>
      <trkpt lat="44.42489" lon="5.2223">
        <ele>539</ele>
      </trkpt>
      <trkpt lat="44.42512" lon="5.22232">
        <ele>533</ele>
      </trkpt>
      <trkpt lat="44.42514" lon="5.22237">
        <ele>534</ele>
      </trkpt>
      <trkpt lat="44.42512" lon="5.22243">
        <ele>534</ele>
      </trkpt>
      <trkpt lat="44.42507" lon="5.22245">
        <ele>539</ele>
      </trkpt>
      <trkpt lat="44.42475" lon="5.22241">
        <ele>542</ele>
      </trkpt>
      <trkpt lat="44.42462" lon="5.22236">
        <ele>542</ele>
      </trkpt>
      <trkpt lat="44.42447" lon="5.22227">
        <ele>538</ele>
      </trkpt>
      <trkpt lat="44.42427" lon="5.22202">
        <ele>540</ele>
      </trkpt>
      <trkpt lat="44.42418" lon="5.22199">
        <ele>534</ele>
      </trkpt>
      <trkpt lat="44.4241" lon="5.22199">
        <ele>535</ele>
      </trkpt>
      <trkpt lat="44.42347" lon="5.22213">
        <ele>560</ele>
      </trkpt>
      <trkpt lat="44.42321" lon="5.22214">
        <ele>564</ele>
      </trkpt>
      <trkpt lat="44.42301" lon="5.22197">
        <ele>555</ele>
      </trkpt>
      <trkpt lat="44.42287" lon="5.22192">
        <ele>559</ele>
      </trkpt>
      <trkpt lat="44.42274" lon="5.22184">
        <ele>560</ele>
      </trkpt>
      <trkpt lat="44.42263" lon="5.22168">
        <ele>551</ele>
      </trkpt>
      <trkpt lat="44.42251" lon="5.22157">
        <ele>556</ele>
      </trkpt>
      <trkpt lat="44.42245" lon="5.22153">
        <ele>556</ele>
      </trkpt>
      <trkpt lat="44.42221" lon="5.22157">
        <ele>562</ele>
      </trkpt>
      <trkpt lat="44.42194" lon="5.22145">
        <ele>559</ele>
      </trkpt>
      <trkpt lat="44.42185" lon="5.22147">
        <ele>564</ele>
      </trkpt>
      <trkpt lat="44.42175" lon="5.22157">
        <ele>566</ele>
      </trkpt>
      <trkpt lat="44.4216" lon="5.22196">
        <ele>574</ele>
      </trkpt>
      <trkpt lat="44.42141" lon="5.22238">
        <ele>585</ele>
      </trkpt>
      <trkpt lat="44.42123" lon="5.22265">
        <ele>591</ele>
      </trkpt>
      <trkpt lat="44.42107" lon="5.22303">
        <ele>593</ele>
      </trkpt>
      <trkpt lat="44.42079" lon="5.22334">
        <ele>593</ele>
      </trkpt>
      <trkpt lat="44.42054" lon="5.22341">
        <ele>593</ele>
      </trkpt>
      <trkpt lat="44.42042" lon="5.22353">
        <ele>593</ele>
      </trkpt>
      <trkpt lat="44.42006" lon="5.22431">
        <ele>597</ele>
      </trkpt>
      <trkpt lat="44.41996" lon="5.22443">
        <ele>596</ele>
      </trkpt>
      <trkpt lat="44.4199" lon="5.22448">
        <ele>597</ele>
      </trkpt>
      <trkpt lat="44.4195" lon="5.22444">
        <ele>589</ele>
      </trkpt>
      <trkpt lat="44.41938" lon="5.22448">
        <ele>589</ele>
      </trkpt>
      <trkpt lat="44.41904" lon="5.2248">
        <ele>593</ele>
      </trkpt>
      <trkpt lat="44.41864" lon="5.22505">
        <ele>589</ele>
      </trkpt>
      <trkpt lat="44.41834" lon="5.22543">
        <ele>586</ele>
      </trkpt>
      <trkpt lat="44.41756" lon="5.22602">
        <ele>575</ele>
      </trkpt>
      <trkpt lat="44.41754" lon="5.22622">
        <ele>574</ele>
      </trkpt>
      <trkpt lat="44.4176" lon="5.22638">
        <ele>574</ele>
      </trkpt>
      <trkpt lat="44.41798" lon="5.22667">
        <ele>580</ele>
      </trkpt>
      <trkpt lat="44.41809" lon="5.22734">
        <ele>579</ele>
      </trkpt>
      <trkpt lat="44.41807" lon="5.22764">
        <ele>579</ele>
      </trkpt>
      <trkpt lat="44.41785" lon="5.22832">
        <ele>571</ele>
      </trkpt>
      <trkpt lat="44.41772" lon="5.22851">
        <ele>570</ele>
      </trkpt>
      <trkpt lat="44.41755" lon="5.2286">
        <ele>565</ele>
      </trkpt>
      <trkpt lat="44.41725" lon="5.22887">
        <ele>563</ele>
      </trkpt>
      <trkpt lat="44.41709" lon="5.2292">
        <ele>563</ele>
      </trkpt>
      <trkpt lat="44.41707" lon="5.22936">
        <ele>561</ele>
      </trkpt>
      <trkpt lat="44.41719" lon="5.22982">
        <ele>556</ele>
      </trkpt>
      <trkpt lat="44.41753" lon="5.2309">
        <ele>548</ele>
      </trkpt>
      <trkpt lat="44.4175" lon="5.23095">
        <ele>548</ele>
      </trkpt>
      <trkpt lat="44.41721" lon="5.23076">
        <ele>547</ele>
      </trkpt>
      <trkpt lat="44.4167" lon="5.2306">
        <ele>545</ele>
      </trkpt>
      <trkpt lat="44.41631" lon="5.23069">
        <ele>541</ele>
      </trkpt>
      <trkpt lat="44.41621" lon="5.2307">
        <ele>539</ele>
      </trkpt>
      <trkpt lat="44.41607" lon="5.23068">
        <ele>538</ele>
      </trkpt>
      <trkpt lat="44.41587" lon="5.23059">
        <ele>537</ele>
      </trkpt>
      <trkpt lat="44.41563" lon="5.23035">
        <ele>536</ele>
      </trkpt>
      <trkpt lat="44.41552" lon="5.23034">
        <ele>537</ele>
      </trkpt>
      <trkpt lat="44.41526" lon="5.23052">
        <ele>534</ele>
      </trkpt>
      <trkpt lat="44.41523" lon="5.23055">
        <ele>535</ele>
      </trkpt>
      <trkpt lat="44.41521" lon="5.23066">
        <ele>534</ele>
      </trkpt>
      <trkpt lat="44.4152" lon="5.23094">
        <ele>534</ele>
      </trkpt>
      <trkpt lat="44.41515" lon="5.23113">
        <ele>534</ele>
      </trkpt>
      <trkpt lat="44.41515" lon="5.23138">
        <ele>533</ele>
      </trkpt>
      <trkpt lat="44.41521" lon="5.23173">
        <ele>532</ele>
      </trkpt>
      <trkpt lat="44.41524" lon="5.23224">
        <ele>536</ele>
      </trkpt>
      <trkpt lat="44.41514" lon="5.2325">
        <ele>538</ele>
      </trkpt>
      <trkpt lat="44.41497" lon="5.23279">
        <ele>538</ele>
      </trkpt>
      <trkpt lat="44.41458" lon="5.2332">
        <ele>537</ele>
      </trkpt>
      <trkpt lat="44.41429" lon="5.23358">
        <ele>534</ele>
      </trkpt>
      <trkpt lat="44.41393" lon="5.23433">
        <ele>531</ele>
      </trkpt>
      <trkpt lat="44.41327" lon="5.23488">
        <ele>523</ele>
      </trkpt>
      <trkpt lat="44.4131" lon="5.23529">
        <ele>519</ele>
      </trkpt>
      <trkpt lat="44.4131" lon="5.23559">
        <ele>518</ele>
      </trkpt>
      <trkpt lat="44.41322" lon="5.23591">
        <ele>519</ele>
      </trkpt>
      <trkpt lat="44.41332" lon="5.23632">
        <ele>515</ele>
      </trkpt>
      <trkpt lat="44.4134" lon="5.23668">
        <ele>514</ele>
      </trkpt>
      <trkpt lat="44.41338" lon="5.23718">
        <ele>508</ele>
      </trkpt>
      <trkpt lat="44.41323" lon="5.23755">
        <ele>505</ele>
      </trkpt>
      <trkpt lat="44.41314" lon="5.23766">
        <ele>503</ele>
      </trkpt>
      <trkpt lat="44.41276" lon="5.23785">
        <ele>503</ele>
      </trkpt>
      <trkpt lat="44.4126" lon="5.23789">
        <ele>502</ele>
      </trkpt>
      <trkpt lat="44.41252" lon="5.23788">
        <ele>502</ele>
      </trkpt>
      <trkpt lat="44.41229" lon="5.23771">
        <ele>500</ele>
      </trkpt>
      <trkpt lat="44.41218" lon="5.23772">
        <ele>499</ele>
      </trkpt>
      <trkpt lat="44.41203" lon="5.23778">
        <ele>499</ele>
      </trkpt>
      <trkpt lat="44.41193" lon="5.23773">
        <ele>499</ele>
      </trkpt>
      <trkpt lat="44.41165" lon="5.23744">
        <ele>499</ele>
      </trkpt>
      <trkpt lat="44.41087" lon="5.23688">
        <ele>501</ele>
      </trkpt>
      <trkpt lat="44.41013" lon="5.23682">
        <ele>501</ele>
      </trkpt>
      <trkpt lat="44.40986" lon="5.23685">
        <ele>499</ele>
      </trkpt>
      <trkpt lat="44.40973" lon="5.23704">
        <ele>500</ele>
      </trkpt>
      <trkpt lat="44.40959" lon="5.23769">
        <ele>512</ele>
      </trkpt>
      <trkpt lat="44.40939" lon="5.23808">
        <ele>510</ele>
      </trkpt>
      <trkpt lat="44.4093" lon="5.2385">
        <ele>520</ele>
      </trkpt>
      <trkpt lat="44.40914" lon="5.23895">
        <ele>518</ele>
      </trkpt>
      <trkpt lat="44.40891" lon="5.23925">
        <ele>519</ele>
      </trkpt>
      <trkpt lat="44.40844" lon="5.23944">
        <ele>500</ele>
      </trkpt>
      <trkpt lat="44.40805" lon="5.23992">
        <ele>505</ele>
      </trkpt>
      <trkpt lat="44.40772" lon="5.24041">
        <ele>515</ele>
      </trkpt>
      <trkpt lat="44.40721" lon="5.24066">
        <ele>503</ele>
      </trkpt>
      <trkpt lat="44.40693" lon="5.24049">
        <ele>489</ele>
      </trkpt>
      <trkpt lat="44.40638" lon="5.24047">
        <ele>481</ele>
      </trkpt>
      <trkpt lat="44.40577" lon="5.24035">
        <ele>476</ele>
      </trkpt>
      <trkpt lat="44.40533" lon="5.2405">
        <ele>470</ele>
      </trkpt>
      <trkpt lat="44.40512" lon="5.24067">
        <ele>482</ele>
      </trkpt>
      <trkpt lat="44.40479" lon="5.24109">
        <ele>481</ele>
      </trkpt>
      <trkpt lat="44.40422" lon="5.24151">
        <ele>477</ele>
      </trkpt>
      <trkpt lat="44.40375" lon="5.24162">
        <ele>464</ele>
      </trkpt>
      <trkpt lat="44.4033" lon="5.24232">
        <ele>462</ele>
      </trkpt>
      <trkpt lat="44.40326" lon="5.24267">
        <ele>461</ele>
      </trkpt>
      <trkpt lat="44.40337" lon="5.24331">
        <ele>456</ele>
      </trkpt>
      <trkpt lat="44.40367" lon="5.24396">
        <ele>456</ele>
      </trkpt>
      <trkpt lat="44.40385" lon="5.24503">
        <ele>442</ele>
      </trkpt>
      <trkpt lat="44.40397" lon="5.24545">
        <ele>436</ele>
      </trkpt>
      <trkpt lat="44.40399" lon="5.24589">
        <ele>432</ele>
      </trkpt>
      <trkpt lat="44.40411" lon="5.24614">
        <ele>432</ele>
      </trkpt>
      <trkpt lat="44.40406" lon="5.24626">
        <ele>425</ele>
      </trkpt>
      <trkpt lat="44.40392" lon="5.24615">
        <ele>426</ele>
      </trkpt>
      <trkpt lat="44.40381" lon="5.2459">
        <ele>430</ele>
      </trkpt>
      <trkpt lat="44.40358" lon="5.24511">
        <ele>428</ele>
      </trkpt>
      <trkpt lat="44.40352" lon="5.24495">
        <ele>430</ele>
      </trkpt>
      <trkpt lat="44.40347" lon="5.24496">
        <ele>428</ele>
      </trkpt>
      <trkpt lat="44.40343" lon="5.245">
        <ele>421</ele>
      </trkpt>
      <trkpt lat="44.40343" lon="5.24513">
        <ele>419</ele>
      </trkpt>
      <trkpt lat="44.40351" lon="5.24537">
        <ele>425</ele>
      </trkpt>
      <trkpt lat="44.40352" lon="5.2456">
        <ele>424</ele>
      </trkpt>
      <trkpt lat="44.40344" lon="5.24585">
        <ele>417</ele>
      </trkpt>
      <trkpt lat="44.40316" lon="5.24627">
        <ele>408</ele>
      </trkpt>
      <trkpt lat="44.40306" lon="5.24661">
        <ele>403</ele>
      </trkpt>
      <trkpt lat="44.40307" lon="5.24671">
        <ele>402</ele>
      </trkpt>
      <trkpt lat="44.40315" lon="5.24685">
        <ele>397</ele>
      </trkpt>
      <trkpt lat="44.40337" lon="5.24703">
        <ele>391</ele>
      </trkpt>
      <trkpt lat="44.40361" lon="5.24708">
        <ele>391</ele>
      </trkpt>
      <trkpt lat="44.40397" lon="5.24705">
        <ele>392</ele>
      </trkpt>
      <trkpt lat="44.40472" lon="5.24722">
        <ele>403</ele>
      </trkpt>
      <trkpt lat="44.40496" lon="5.24756">
        <ele>401</ele>
      </trkpt>
      <trkpt lat="44.40522" lon="5.24775">
        <ele>401</ele>
      </trkpt>
      <trkpt lat="44.40565" lon="5.24853">
        <ele>387</ele>
      </trkpt>
      <trkpt lat="44.40573" lon="5.24877">
        <ele>385</ele>
      </trkpt>
      <trkpt lat="44.4058" lon="5.24931">
        <ele>375</ele>
      </trkpt>
      <trkpt lat="44.40589" lon="5.24948">
        <ele>375</ele>
      </trkpt>
      <trkpt lat="44.40653" lon="5.24996">
        <ele>376</ele>
      </trkpt>
      <trkpt lat="44.40667" lon="5.25012">
        <ele>372</ele>
      </trkpt>
      <trkpt lat="44.40667" lon="5.25109">
        <ele>360</ele>
      </trkpt>
      <trkpt lat="44.40675" lon="5.25132">
        <ele>357</ele>
      </trkpt>
      <trkpt lat="44.40714" lon="5.25157">
        <ele>357</ele>
      </trkpt>
      <trkpt lat="44.40738" lon="5.2517">
        <ele>359</ele>
      </trkpt>
      <trkpt lat="44.40763" lon="5.25173">
        <ele>361</ele>
      </trkpt>
      <trkpt lat="44.4077" lon="5.2519">
        <ele>358</ele>
      </trkpt>
      <trkpt lat="44.40769" lon="5.25196">
        <ele>357</ele>
      </trkpt>
      <trkpt lat="44.40745" lon="5.25189">
        <ele>356</ele>
      </trkpt>
      <trkpt lat="44.40726" lon="5.25185">
        <ele>353</ele>
      </trkpt>
      <trkpt lat="44.40691" lon="5.25184">
        <ele>351</ele>
      </trkpt>
      <trkpt lat="44.40671" lon="5.25177">
        <ele>350</ele>
      </trkpt>
      <trkpt lat="44.40655" lon="5.25165">
        <ele>353</ele>
      </trkpt>
      <trkpt lat="44.4064" lon="5.25148">
        <ele>352</ele>
      </trkpt>
      <trkpt lat="44.40624" lon="5.2512">
        <ele>354</ele>
      </trkpt>
      <trkpt lat="44.40612" lon="5.25086">
        <ele>355</ele>
      </trkpt>
      <trkpt lat="44.40596" lon="5.25054">
        <ele>358</ele>
      </trkpt>
      <trkpt lat="44.40574" lon="5.25026">
        <ele>359</ele>
      </trkpt>
      <trkpt lat="44.40457" lon="5.24923">
        <ele>359</ele>
      </trkpt>
      <trkpt lat="44.40431" lon="5.24905">
        <ele>355</ele>
      </trkpt>
      <trkpt lat="44.40405" lon="5.24896">
        <ele>352</ele>
      </trkpt>
      <trkpt lat="44.40389" lon="5.24893">
        <ele>352</ele>
      </trkpt>
      <trkpt lat="44.40353" lon="5.24892">
        <ele>350</ele>
      </trkpt>
      <trkpt lat="44.40304" lon="5.24894">
        <ele>349</ele>
      </trkpt>
      <trkpt lat="44.40276" lon="5.24888">
        <ele>350</ele>
      </trkpt>
      <trkpt lat="44.40253" lon="5.24873">
        <ele>349</ele>
      </trkpt>
      <trkpt lat="44.40238" lon="5.2486">
        <ele>353</ele>
      </trkpt>
      <trkpt lat="44.40222" lon="5.24838">
        <ele>355</ele>
      </trkpt>
      <trkpt lat="44.40212" lon="5.24816">
        <ele>355</ele>
      </trkpt>
      <trkpt lat="44.4018" lon="5.2472">
        <ele>364</ele>
      </trkpt>
      <trkpt lat="44.40145" lon="5.24646">
        <ele>352</ele>
      </trkpt>
      <trkpt lat="44.40139" lon="5.24624">
        <ele>351</ele>
      </trkpt>
      <trkpt lat="44.40136" lon="5.24599">
        <ele>351</ele>
      </trkpt>
      <trkpt lat="44.40139" lon="5.2456">
        <ele>352</ele>
      </trkpt>
      <trkpt lat="44.40148" lon="5.24487">
        <ele>353</ele>
      </trkpt>
      <trkpt lat="44.40148" lon="5.24445">
        <ele>353</ele>
      </trkpt>
      <trkpt lat="44.40134" lon="5.24324">
        <ele>350</ele>
      </trkpt>
      <trkpt lat="44.40129" lon="5.24288">
        <ele>352</ele>
      </trkpt>
      <trkpt lat="44.4013" lon="5.24252">
        <ele>354</ele>
      </trkpt>
      <trkpt lat="44.40137" lon="5.24154">
        <ele>356</ele>
      </trkpt>
      <trkpt lat="44.40135" lon="5.24117">
        <ele>354</ele>
      </trkpt>
      <trkpt lat="44.40123" lon="5.24065">
        <ele>351</ele>
      </trkpt>
      <trkpt lat="44.4011" lon="5.24034">
        <ele>345</ele>
      </trkpt>
      <trkpt lat="44.40093" lon="5.24006">
        <ele>340</ele>
      </trkpt>
      <trkpt lat="44.4008" lon="5.23989">
        <ele>339</ele>
      </trkpt>
      <trkpt lat="44.40059" lon="5.2397">
        <ele>339</ele>
      </trkpt>
      <trkpt lat="44.40039" lon="5.23949">
        <ele>343</ele>
      </trkpt>
      <trkpt lat="44.40023" lon="5.23928">
        <ele>341</ele>
      </trkpt>
      <trkpt lat="44.40006" lon="5.23896">
        <ele>343</ele>
      </trkpt>
      <trkpt lat="44.39996" lon="5.23868">
        <ele>347</ele>
      </trkpt>
      <trkpt lat="44.39969" lon="5.23772">
        <ele>367</ele>
      </trkpt>
      <trkpt lat="44.39963" lon="5.23747">
        <ele>370</ele>
      </trkpt>
      <trkpt lat="44.39955" lon="5.23691">
        <ele>357</ele>
      </trkpt>
      <trkpt lat="44.39951" lon="5.2367">
        <ele>356</ele>
      </trkpt>
      <trkpt lat="44.39946" lon="5.23651">
        <ele>355</ele>
      </trkpt>
      <trkpt lat="44.39937" lon="5.23628">
        <ele>357</ele>
      </trkpt>
      <trkpt lat="44.39923" lon="5.23604">
        <ele>355</ele>
      </trkpt>
      <trkpt lat="44.39873" lon="5.23542">
        <ele>355</ele>
      </trkpt>
      <trkpt lat="44.39858" lon="5.23529">
        <ele>352</ele>
      </trkpt>
      <trkpt lat="44.39844" lon="5.23519">
        <ele>347</ele>
      </trkpt>
      <trkpt lat="44.39826" lon="5.23511">
        <ele>346</ele>
      </trkpt>
      <trkpt lat="44.39801" lon="5.23504">
        <ele>345</ele>
      </trkpt>
      <trkpt lat="44.39651" lon="5.23477">
        <ele>343</ele>
      </trkpt>
      <trkpt lat="44.3953" lon="5.23424">
        <ele>341</ele>
      </trkpt>
      <trkpt lat="44.39495" lon="5.23417">
        <ele>342</ele>
      </trkpt>
      <trkpt lat="44.39418" lon="5.23409">
        <ele>338</ele>
      </trkpt>
      <trkpt lat="44.39387" lon="5.23402">
        <ele>339</ele>
      </trkpt>
      <trkpt lat="44.39358" lon="5.23387">
        <ele>341</ele>
      </trkpt>
      <trkpt lat="44.39282" lon="5.23326">
        <ele>342</ele>
      </trkpt>
      <trkpt lat="44.39246" lon="5.23312">
        <ele>345</ele>
      </trkpt>
      <trkpt lat="44.39159" lon="5.23302">
        <ele>339</ele>
      </trkpt>
      <trkpt lat="44.3894" lon="5.23297">
        <ele>335</ele>
      </trkpt>
      <trkpt lat="44.38869" lon="5.23289">
        <ele>335</ele>
      </trkpt>
      <trkpt lat="44.38843" lon="5.2329">
        <ele>333</ele>
      </trkpt>
      <trkpt lat="44.38823" lon="5.23285">
        <ele>333</ele>
      </trkpt>
      <trkpt lat="44.3882" lon="5.23286">
        <ele>333</ele>
      </trkpt>
      <trkpt lat="44.38818" lon="5.2329">
        <ele>332</ele>
      </trkpt>
      <trkpt lat="44.38817" lon="5.2331">
        <ele>332</ele>
      </trkpt>
      <trkpt lat="44.38805" lon="5.234">
        <ele>331</ele>
      </trkpt>
      <trkpt lat="44.38796" lon="5.23446">
        <ele>334</ele>
      </trkpt>
      <trkpt lat="44.38787" lon="5.2345">
        <ele>334</ele>
      </trkpt>
      <trkpt lat="44.38774" lon="5.23472">
        <ele>335</ele>
      </trkpt>
      <trkpt lat="44.38763" lon="5.23483">
        <ele>335</ele>
      </trkpt>
      <trkpt lat="44.38746" lon="5.23488">
        <ele>335</ele>
      </trkpt>
      <trkpt lat="44.38615" lon="5.23465">
        <ele>326</ele>
      </trkpt>
      <trkpt lat="44.3859" lon="5.2346">
        <ele>326</ele>
      </trkpt>
      <trkpt lat="44.38558" lon="5.23482">
        <ele>328</ele>
      </trkpt>
      <trkpt lat="44.38551" lon="5.23482">
        <ele>328</ele>
      </trkpt>
      <trkpt lat="44.38544" lon="5.23471">
        <ele>328</ele>
      </trkpt>
      <trkpt lat="44.38536" lon="5.23448">
        <ele>330</ele>
      </trkpt>
      <trkpt lat="44.38523" lon="5.23433">
        <ele>331</ele>
      </trkpt>
      <trkpt lat="44.38493" lon="5.23404">
        <ele>332</ele>
      </trkpt>
      <trkpt lat="44.38476" lon="5.23379">
        <ele>332</ele>
      </trkpt>
      <trkpt lat="44.38427" lon="5.23322">
        <ele>332</ele>
      </trkpt>
      <trkpt lat="44.38413" lon="5.23299">
        <ele>330</ele>
      </trkpt>
      <trkpt lat="44.38385" lon="5.23239">
        <ele>328</ele>
      </trkpt>
      <trkpt lat="44.383" lon="5.23046">
        <ele>327</ele>
      </trkpt>
      <trkpt lat="44.38291" lon="5.23003">
        <ele>326</ele>
      </trkpt>
      <trkpt lat="44.38285" lon="5.22944">
        <ele>327</ele>
      </trkpt>
      <trkpt lat="44.38284" lon="5.22695">
        <ele>324</ele>
      </trkpt>
      <trkpt lat="44.38274" lon="5.22553">
        <ele>322</ele>
      </trkpt>
      <trkpt lat="44.38266" lon="5.22508">
        <ele>323</ele>
      </trkpt>
      <trkpt lat="44.38229" lon="5.22343">
        <ele>327</ele>
      </trkpt>
      <trkpt lat="44.3821" lon="5.22225">
        <ele>325</ele>
      </trkpt>
      <trkpt lat="44.38202" lon="5.22195">
        <ele>325</ele>
      </trkpt>
      <trkpt lat="44.38182" lon="5.22172">
        <ele>325</ele>
      </trkpt>
      <trkpt lat="44.38164" lon="5.22162">
        <ele>326</ele>
      </trkpt>
      <trkpt lat="44.38186" lon="5.22134">
        <ele>325</ele>
      </trkpt>
      <trkpt lat="44.38199" lon="5.22125">
        <ele>324</ele>
      </trkpt>
      <trkpt lat="44.38203" lon="5.22112">
        <ele>325</ele>
      </trkpt>
      <trkpt lat="44.38202" lon="5.2209">
        <ele>326</ele>
      </trkpt>
      <trkpt lat="44.38204" lon="5.22079">
        <ele>327</ele>
      </trkpt>
      <trkpt lat="44.38214" lon="5.22074">
        <ele>326</ele>
      </trkpt>
      <trkpt lat="44.3825" lon="5.22079">
        <ele>326</ele>
      </trkpt>
      <trkpt lat="44.38309" lon="5.22096">
        <ele>323</ele>
      </trkpt>
      <trkpt lat="44.38327" lon="5.22108">
        <ele>321</ele>
      </trkpt>
      <trkpt lat="44.38347" lon="5.22111">
        <ele>320</ele>
      </trkpt>
      <trkpt lat="44.38369" lon="5.22083">
        <ele>320</ele>
      </trkpt>
      <trkpt lat="44.38386" lon="5.22029">
        <ele>321</ele>
      </trkpt>
      <trkpt lat="44.38409" lon="5.21898">
        <ele>319</ele>
      </trkpt>
      <trkpt lat="44.38428" lon="5.21853">
        <ele>320</ele>
      </trkpt>
      <trkpt lat="44.38445" lon="5.2183">
        <ele>321</ele>
      </trkpt>
      <trkpt lat="44.38554" lon="5.21699">
        <ele>321</ele>
      </trkpt>
      <trkpt lat="44.38577" lon="5.21681">
        <ele>318</ele>
      </trkpt>
      <trkpt lat="44.38596" lon="5.21662">
        <ele>317</ele>
      </trkpt>
      <trkpt lat="44.38618" lon="5.21607">
        <ele>319</ele>
      </trkpt>
      <trkpt lat="44.38628" lon="5.2157">
        <ele>316</ele>
      </trkpt>
      <trkpt lat="44.38627" lon="5.21546">
        <ele>316</ele>
      </trkpt>
      <trkpt lat="44.38617" lon="5.21495">
        <ele>318</ele>
      </trkpt>
      <trkpt lat="44.38585" lon="5.21364">
        <ele>315</ele>
      </trkpt>
      <trkpt lat="44.38557" lon="5.21281">
        <ele>315</ele>
      </trkpt>
      <trkpt lat="44.38534" lon="5.21249">
        <ele>315</ele>
      </trkpt>
      <trkpt lat="44.38471" lon="5.21192">
        <ele>319</ele>
      </trkpt>
      <trkpt lat="44.38459" lon="5.21179">
        <ele>319</ele>
      </trkpt>
      <trkpt lat="44.38425" lon="5.21156">
        <ele>322</ele>
      </trkpt>
      <trkpt lat="44.38406" lon="5.2113">
        <ele>317</ele>
      </trkpt>
      <trkpt lat="44.38374" lon="5.2107">
        <ele>317</ele>
      </trkpt>
      <trkpt lat="44.38331" lon="5.21019">
        <ele>319</ele>
      </trkpt>
      <trkpt lat="44.38322" lon="5.20984">
        <ele>317</ele>
      </trkpt>
      <trkpt lat="44.38302" lon="5.20941">
        <ele>313</ele>
      </trkpt>
      <trkpt lat="44.38286" lon="5.20894">
        <ele>313</ele>
      </trkpt>
      <trkpt lat="44.38274" lon="5.20793">
        <ele>311</ele>
      </trkpt>
      <trkpt lat="44.38269" lon="5.20729">
        <ele>311</ele>
      </trkpt>
      <trkpt lat="44.3827" lon="5.20704">
        <ele>311</ele>
      </trkpt>
      <trkpt lat="44.38275" lon="5.20641">
        <ele>309</ele>
      </trkpt>
      <trkpt lat="44.38274" lon="5.20609">
        <ele>308</ele>
      </trkpt>
      <trkpt lat="44.38256" lon="5.20509">
        <ele>312</ele>
      </trkpt>
      <trkpt lat="44.38257" lon="5.20438">
        <ele>313</ele>
      </trkpt>
      <trkpt lat="44.38256" lon="5.20415">
        <ele>312</ele>
      </trkpt>
      <trkpt lat="44.38259" lon="5.20345">
        <ele>311</ele>
      </trkpt>
      <trkpt lat="44.38256" lon="5.20266">
        <ele>312</ele>
      </trkpt>
      <trkpt lat="44.38245" lon="5.20189">
        <ele>306</ele>
      </trkpt>
      <trkpt lat="44.38239" lon="5.20162">
        <ele>305</ele>
      </trkpt>
      <trkpt lat="44.38232" lon="5.20146">
        <ele>307</ele>
      </trkpt>
      <trkpt lat="44.38222" lon="5.20133">
        <ele>305</ele>
      </trkpt>
      <trkpt lat="44.38209" lon="5.20123">
        <ele>306</ele>
      </trkpt>
      <trkpt lat="44.38198" lon="5.2011">
        <ele>310</ele>
      </trkpt>
      <trkpt lat="44.38188" lon="5.20089">
        <ele>311</ele>
      </trkpt>
      <trkpt lat="44.38174" lon="5.20047">
        <ele>314</ele>
      </trkpt>
      <trkpt lat="44.38152" lon="5.19957">
        <ele>308</ele>
      </trkpt>
      <trkpt lat="44.38146" lon="5.19942">
        <ele>310</ele>
      </trkpt>
      <trkpt lat="44.38139" lon="5.19931">
        <ele>310</ele>
      </trkpt>
      <trkpt lat="44.38134" lon="5.19927">
        <ele>310</ele>
      </trkpt>
      <trkpt lat="44.38109" lon="5.19917">
        <ele>312</ele>
      </trkpt>
      <trkpt lat="44.3809" lon="5.19913">
        <ele>316</ele>
      </trkpt>
      <trkpt lat="44.38062" lon="5.1991">
        <ele>321</ele>
      </trkpt>
      <trkpt lat="44.38042" lon="5.19911">
        <ele>322</ele>
      </trkpt>
      <trkpt lat="44.38024" lon="5.19917">
        <ele>324</ele>
      </trkpt>
      <trkpt lat="44.38014" lon="5.19912">
        <ele>324</ele>
      </trkpt>
      <trkpt lat="44.38005" lon="5.19897">
        <ele>324</ele>
      </trkpt>
      <trkpt lat="44.37994" lon="5.19849">
        <ele>313</ele>
      </trkpt>
      <trkpt lat="44.37977" lon="5.19817">
        <ele>314</ele>
      </trkpt>
      <trkpt lat="44.37901" lon="5.19716">
        <ele>311</ele>
      </trkpt>
      <trkpt lat="44.37849" lon="5.19612">
        <ele>309</ele>
      </trkpt>
      <trkpt lat="44.37842" lon="5.19586">
        <ele>312</ele>
      </trkpt>
      <trkpt lat="44.3784" lon="5.19549">
        <ele>311</ele>
      </trkpt>
      <trkpt lat="44.37816" lon="5.19445">
        <ele>308</ele>
      </trkpt>
      <trkpt lat="44.37811" lon="5.1941">
        <ele>306</ele>
      </trkpt>
      <trkpt lat="44.37819" lon="5.19264">
        <ele>303</ele>
      </trkpt>
      <trkpt lat="44.37828" lon="5.19213">
        <ele>306</ele>
      </trkpt>
      <trkpt lat="44.37845" lon="5.19154">
        <ele>302</ele>
      </trkpt>
      <trkpt lat="44.37848" lon="5.19136">
        <ele>303</ele>
      </trkpt>
      <trkpt lat="44.37841" lon="5.19085">
        <ele>307</ele>
      </trkpt>
      <trkpt lat="44.37854" lon="5.1908">
        <ele>306</ele>
      </trkpt>
      <trkpt lat="44.37897" lon="5.19075">
        <ele>312</ele>
      </trkpt>
      <trkpt lat="44.3789" lon="5.19045">
        <ele>315</ele>
      </trkpt>
      <trkpt lat="44.37893" lon="5.19034">
        <ele>317</ele>
      </trkpt>
      <trkpt lat="44.37908" lon="5.19009">
        <ele>332</ele>
      </trkpt>
      <trkpt lat="44.3792" lon="5.18998">
        <ele>334</ele>
      </trkpt>
      <trkpt lat="44.37916" lon="5.18954">
        <ele>328</ele>
      </trkpt>
      <trkpt lat="44.37917" lon="5.18924">
        <ele>324</ele>
      </trkpt>
      <trkpt lat="44.3792" lon="5.18892">
        <ele>318</ele>
      </trkpt>
      <trkpt lat="44.37925" lon="5.18851">
        <ele>316</ele>
      </trkpt>
      <trkpt lat="44.37957" lon="5.18726">
        <ele>318</ele>
      </trkpt>
      <trkpt lat="44.37968" lon="5.18673">
        <ele>316</ele>
      </trkpt>
      <trkpt lat="44.37972" lon="5.18641">
        <ele>314</ele>
      </trkpt>
      <trkpt lat="44.37968" lon="5.18591">
        <ele>315</ele>
      </trkpt>
      <trkpt lat="44.37962" lon="5.18565">
        <ele>318</ele>
      </trkpt>
      <trkpt lat="44.3795" lon="5.18534">
        <ele>314</ele>
      </trkpt>
      <trkpt lat="44.37936" lon="5.18508">
        <ele>316</ele>
      </trkpt>
      <trkpt lat="44.379" lon="5.18459">
        <ele>315</ele>
      </trkpt>
      <trkpt lat="44.37887" lon="5.18439">
        <ele>313</ele>
      </trkpt>
      <trkpt lat="44.37878" lon="5.18419">
        <ele>315</ele>
      </trkpt>
      <trkpt lat="44.37871" lon="5.18395">
        <ele>311</ele>
      </trkpt>
      <trkpt lat="44.37868" lon="5.18372">
        <ele>312</ele>
      </trkpt>
      <trkpt lat="44.3787" lon="5.18331">
        <ele>313</ele>
      </trkpt>
      <trkpt lat="44.3788" lon="5.18273">
        <ele>316</ele>
      </trkpt>
      <trkpt lat="44.37889" lon="5.18237">
        <ele>315</ele>
      </trkpt>
      <trkpt lat="44.37896" lon="5.18219">
        <ele>314</ele>
      </trkpt>
      <trkpt lat="44.37927" lon="5.18152">
        <ele>314</ele>
      </trkpt>
      <trkpt lat="44.37937" lon="5.18138">
        <ele>313</ele>
      </trkpt>
      <trkpt lat="44.37949" lon="5.18127">
        <ele>313</ele>
      </trkpt>
      <trkpt lat="44.38021" lon="5.18085">
        <ele>314</ele>
      </trkpt>
      <trkpt lat="44.38075" lon="5.18049">
        <ele>314</ele>
      </trkpt>
      <trkpt lat="44.3812" lon="5.18017">
        <ele>308</ele>
      </trkpt>
      <trkpt lat="44.38152" lon="5.17989">
        <ele>308</ele>
      </trkpt>
      <trkpt lat="44.38194" lon="5.17964">
        <ele>306</ele>
      </trkpt>
      <trkpt lat="44.38214" lon="5.17955">
        <ele>305</ele>
      </trkpt>
      <trkpt lat="44.38283" lon="5.17922">
        <ele>305</ele>
      </trkpt>
      <trkpt lat="44.38307" lon="5.17904">
        <ele>303</ele>
      </trkpt>
      <trkpt lat="44.38321" lon="5.17886">
        <ele>303</ele>
      </trkpt>
      <trkpt lat="44.38366" lon="5.17814">
        <ele>301</ele>
      </trkpt>
      <trkpt lat="44.3841" lon="5.1774">
        <ele>301</ele>
      </trkpt>
      <trkpt lat="44.38418" lon="5.17719">
        <ele>300</ele>
      </trkpt>
      <trkpt lat="44.38422" lon="5.177">
        <ele>300</ele>
      </trkpt>
      <trkpt lat="44.38425" lon="5.17674">
        <ele>299</ele>
      </trkpt>
      <trkpt lat="44.38431" lon="5.17592">
        <ele>302</ele>
      </trkpt>
      <trkpt lat="44.38431" lon="5.17554">
        <ele>305</ele>
      </trkpt>
      <trkpt lat="44.38426" lon="5.17476">
        <ele>307</ele>
      </trkpt>
      <trkpt lat="44.38415" lon="5.17358">
        <ele>316</ele>
      </trkpt>
      <trkpt lat="44.38405" lon="5.17296">
        <ele>325</ele>
      </trkpt>
      <trkpt lat="44.38394" lon="5.1725">
        <ele>320</ele>
      </trkpt>
      <trkpt lat="44.38379" lon="5.17215">
        <ele>321</ele>
      </trkpt>
      <trkpt lat="44.38361" lon="5.17192">
        <ele>314</ele>
      </trkpt>
      <trkpt lat="44.38333" lon="5.17167">
        <ele>312</ele>
      </trkpt>
      <trkpt lat="44.38305" lon="5.17147">
        <ele>306</ele>
      </trkpt>
      <trkpt lat="44.38281" lon="5.17133">
        <ele>309</ele>
      </trkpt>
      <trkpt lat="44.38227" lon="5.17118">
        <ele>303</ele>
      </trkpt>
      <trkpt lat="44.38118" lon="5.17115">
        <ele>303</ele>
      </trkpt>
      <trkpt lat="44.38037" lon="5.17101">
        <ele>301</ele>
      </trkpt>
      <trkpt lat="44.37969" lon="5.17096">
        <ele>302</ele>
      </trkpt>
      <trkpt lat="44.37877" lon="5.17096">
        <ele>304</ele>
      </trkpt>
      <trkpt lat="44.37853" lon="5.17098">
        <ele>304</ele>
      </trkpt>
      <trkpt lat="44.37813" lon="5.17087">
        <ele>304</ele>
      </trkpt>
      <trkpt lat="44.3779" lon="5.17078">
        <ele>303</ele>
      </trkpt>
      <trkpt lat="44.37768" lon="5.17067">
        <ele>301</ele>
      </trkpt>
      <trkpt lat="44.37757" lon="5.1705">
        <ele>300</ele>
      </trkpt>
      <trkpt lat="44.37756" lon="5.17041">
        <ele>300</ele>
      </trkpt>
      <trkpt lat="44.37753" lon="5.17033">
        <ele>300</ele>
      </trkpt>
      <trkpt lat="44.37746" lon="5.17029">
        <ele>301</ele>
      </trkpt>
      <trkpt lat="44.37738" lon="5.1703">
        <ele>301</ele>
      </trkpt>
      <trkpt lat="44.37726" lon="5.17025">
        <ele>300</ele>
      </trkpt>
      <trkpt lat="44.3772" lon="5.17013">
        <ele>299</ele>
      </trkpt>
      <trkpt lat="44.37676" lon="5.16854">
        <ele>296</ele>
      </trkpt>
      <trkpt lat="44.3767" lon="5.16831">
        <ele>296</ele>
      </trkpt>
      <trkpt lat="44.37662" lon="5.16805">
        <ele>297</ele>
      </trkpt>
      <trkpt lat="44.37652" lon="5.16784">
        <ele>297</ele>
      </trkpt>
      <trkpt lat="44.37641" lon="5.16771">
        <ele>298</ele>
      </trkpt>
      <trkpt lat="44.3761" lon="5.16751">
        <ele>300</ele>
      </trkpt>
      <trkpt lat="44.37571" lon="5.16718">
        <ele>300</ele>
      </trkpt>
      <trkpt lat="44.37534" lon="5.16672">
        <ele>297</ele>
      </trkpt>
      <trkpt lat="44.37491" lon="5.16633">
        <ele>298</ele>
      </trkpt>
      <trkpt lat="44.37462" lon="5.16598">
        <ele>297</ele>
      </trkpt>
      <trkpt lat="44.37437" lon="5.16549">
        <ele>298</ele>
      </trkpt>
      <trkpt lat="44.37427" lon="5.16532">
        <ele>296</ele>
      </trkpt>
      <trkpt lat="44.37409" lon="5.16514">
        <ele>295</ele>
      </trkpt>
      <trkpt lat="44.37379" lon="5.16494">
        <ele>294</ele>
      </trkpt>
      <trkpt lat="44.37349" lon="5.16468">
        <ele>293</ele>
      </trkpt>
      <trkpt lat="44.37326" lon="5.16437">
        <ele>293</ele>
      </trkpt>
      <trkpt lat="44.37301" lon="5.16389">
        <ele>293</ele>
      </trkpt>
      <trkpt lat="44.37285" lon="5.16345">
        <ele>292</ele>
      </trkpt>
      <trkpt lat="44.37273" lon="5.16278">
        <ele>292</ele>
      </trkpt>
      <trkpt lat="44.37271" lon="5.1625">
        <ele>293</ele>
      </trkpt>
      <trkpt lat="44.37272" lon="5.16223">
        <ele>295</ele>
      </trkpt>
      <trkpt lat="44.37278" lon="5.16161">
        <ele>296</ele>
      </trkpt>
      <trkpt lat="44.37278" lon="5.16136">
        <ele>298</ele>
      </trkpt>
      <trkpt lat="44.37276" lon="5.16108">
        <ele>302</ele>
      </trkpt>
      <trkpt lat="44.37272" lon="5.16066">
        <ele>309</ele>
      </trkpt>
      <trkpt lat="44.37266" lon="5.16029">
        <ele>313</ele>
      </trkpt>
      <trkpt lat="44.37265" lon="5.16018">
        <ele>313</ele>
      </trkpt>
      <trkpt lat="44.37271" lon="5.15982">
        <ele>314</ele>
      </trkpt>
      <trkpt lat="44.37271" lon="5.15956">
        <ele>314</ele>
      </trkpt>
      <trkpt lat="44.37253" lon="5.15782">
        <ele>305</ele>
      </trkpt>
      <trkpt lat="44.37253" lon="5.15721">
        <ele>304</ele>
      </trkpt>
      <trkpt lat="44.37248" lon="5.15687">
        <ele>302</ele>
      </trkpt>
      <trkpt lat="44.37234" lon="5.15628">
        <ele>304</ele>
      </trkpt>
      <trkpt lat="44.37222" lon="5.15552">
        <ele>299</ele>
      </trkpt>
      <trkpt lat="44.37214" lon="5.15521">
        <ele>300</ele>
      </trkpt>
      <trkpt lat="44.37207" lon="5.15484">
        <ele>302</ele>
      </trkpt>
      <trkpt lat="44.37195" lon="5.15395">
        <ele>299</ele>
      </trkpt>
      <trkpt lat="44.37188" lon="5.15359">
        <ele>297</ele>
      </trkpt>
      <trkpt lat="44.37155" lon="5.15239">
        <ele>302</ele>
      </trkpt>
      <trkpt lat="44.37142" lon="5.15204">
        <ele>297</ele>
      </trkpt>
      <trkpt lat="44.37131" lon="5.15186">
        <ele>297</ele>
      </trkpt>
      <trkpt lat="44.37116" lon="5.15165">
        <ele>294</ele>
      </trkpt>
      <trkpt lat="44.37098" lon="5.15146">
        <ele>294</ele>
      </trkpt>
      <trkpt lat="44.37079" lon="5.15132">
        <ele>295</ele>
      </trkpt>
      <trkpt lat="44.37053" lon="5.1512">
        <ele>290</ele>
      </trkpt>
      <trkpt lat="44.3702" lon="5.15109">
        <ele>291</ele>
      </trkpt>
      <trkpt lat="44.36887" lon="5.15073">
        <ele>282</ele>
      </trkpt>
      <trkpt lat="44.36855" lon="5.15072">
        <ele>283</ele>
      </trkpt>
      <trkpt lat="44.36813" lon="5.15084">
        <ele>285</ele>
      </trkpt>
      <trkpt lat="44.36807" lon="5.15083">
        <ele>286</ele>
      </trkpt>
      <trkpt lat="44.36754" lon="5.15087">
        <ele>289</ele>
      </trkpt>
      <trkpt lat="44.36739" lon="5.15094">
        <ele>285</ele>
      </trkpt>
      <trkpt lat="44.36722" lon="5.15107">
        <ele>286</ele>
      </trkpt>
      <trkpt lat="44.36709" lon="5.1512">
        <ele>283</ele>
      </trkpt>
      <trkpt lat="44.36698" lon="5.15137">
        <ele>285</ele>
      </trkpt>
      <trkpt lat="44.36677" lon="5.15177">
        <ele>279</ele>
      </trkpt>
      <trkpt lat="44.36642" lon="5.15253">
        <ele>278</ele>
      </trkpt>
      <trkpt lat="44.36619" lon="5.15297">
        <ele>278</ele>
      </trkpt>
      <trkpt lat="44.36603" lon="5.15319">
        <ele>277</ele>
      </trkpt>
      <trkpt lat="44.36582" lon="5.15339">
        <ele>278</ele>
      </trkpt>
      <trkpt lat="44.36567" lon="5.15349">
        <ele>277</ele>
      </trkpt>
      <trkpt lat="44.36539" lon="5.1536">
        <ele>277</ele>
      </trkpt>
      <trkpt lat="44.36518" lon="5.15361">
        <ele>276</ele>
      </trkpt>
      <trkpt lat="44.36489" lon="5.15355">
        <ele>276</ele>
      </trkpt>
      <trkpt lat="44.36469" lon="5.15345">
        <ele>275</ele>
      </trkpt>
      <trkpt lat="44.36453" lon="5.15332">
        <ele>275</ele>
      </trkpt>
      <trkpt lat="44.36387" lon="5.15259">
        <ele>271</ele>
      </trkpt>
      <trkpt lat="44.36257" lon="5.151">
        <ele>269</ele>
      </trkpt>
      <trkpt lat="44.36215" lon="5.15056">
        <ele>269</ele>
      </trkpt>
      <trkpt lat="44.36186" lon="5.15029">
        <ele>270</ele>
      </trkpt>
      <trkpt lat="44.36178" lon="5.15043">
        <ele>270</ele>
      </trkpt>
      <trkpt lat="44.36164" lon="5.15106">
        <ele>272</ele>
      </trkpt>
      <trkpt lat="44.36158" lon="5.15176">
        <ele>282</ele>
      </trkpt>
      <trkpt lat="44.36118" lon="5.15174">
        <ele>282</ele>
      </trkpt>
      <trkpt lat="44.36071" lon="5.15157">
        <ele>277</ele>
      </trkpt>
      <trkpt lat="44.35968" lon="5.15075">
        <ele>276</ele>
      </trkpt>
      <trkpt lat="44.3595" lon="5.15052">
        <ele>278</ele>
      </trkpt>
      <trkpt lat="44.35909" lon="5.14963">
        <ele>279</ele>
      </trkpt>
      <trkpt lat="44.35904" lon="5.14939">
        <ele>279</ele>
      </trkpt>
      <trkpt lat="44.359" lon="5.14933">
        <ele>280</ele>
      </trkpt>
      <trkpt lat="44.35897" lon="5.14892">
        <ele>283</ele>
      </trkpt>
      <trkpt lat="44.359" lon="5.1486">
        <ele>280</ele>
      </trkpt>
      <trkpt lat="44.35905" lon="5.14838">
        <ele>279</ele>
      </trkpt>
      <trkpt lat="44.35919" lon="5.14807">
        <ele>277</ele>
      </trkpt>
      <trkpt lat="44.35921" lon="5.14795">
        <ele>277</ele>
      </trkpt>
      <trkpt lat="44.3592" lon="5.14771">
        <ele>275</ele>
      </trkpt>
      <trkpt lat="44.35917" lon="5.14751">
        <ele>273</ele>
      </trkpt>
      <trkpt lat="44.35897" lon="5.14659">
        <ele>277</ele>
      </trkpt>
      <trkpt lat="44.35895" lon="5.14626">
        <ele>275</ele>
      </trkpt>
      <trkpt lat="44.35899" lon="5.14613">
        <ele>271</ele>
      </trkpt>
      <trkpt lat="44.35908" lon="5.1461">
        <ele>270</ele>
      </trkpt>
      <trkpt lat="44.35921" lon="5.1461">
        <ele>270</ele>
      </trkpt>
      <trkpt lat="44.35927" lon="5.14603">
        <ele>267</ele>
      </trkpt>
      <trkpt lat="44.35929" lon="5.14538">
        <ele>269</ele>
      </trkpt>
      <trkpt lat="44.35934" lon="5.14538">
        <ele>269</ele>
      </trkpt>
      <trkpt lat="44.3595" lon="5.1453">
        <ele>268</ele>
      </trkpt>
      <trkpt lat="44.35956" lon="5.14524">
        <ele>265</ele>
      </trkpt>
      <trkpt lat="44.35961" lon="5.1451">
        <ele>265</ele>
      </trkpt>
      <trkpt lat="44.35953" lon="5.14467">
        <ele>268</ele>
      </trkpt>
      <trkpt lat="44.35951" lon="5.14443">
        <ele>267</ele>
      </trkpt>
      <trkpt lat="44.35952" lon="5.14431">
        <ele>267</ele>
      </trkpt>
      <trkpt lat="44.35959" lon="5.14413">
        <ele>265</ele>
      </trkpt>
      <trkpt lat="44.35962" lon="5.14407">
        <ele>265</ele>
      </trkpt>
      <trkpt lat="44.35966" lon="5.14409">
        <ele>265</ele>
      </trkpt>
      <trkpt lat="44.36016" lon="5.14407">
        <ele>276</ele>
      </trkpt>
      <trkpt lat="44.36037" lon="5.1441">
        <ele>278</ele>
      </trkpt>
      <trkpt lat="44.36036" lon="5.14394">
        <ele>278</ele>
      </trkpt>
      <trkpt lat="44.36042" lon="5.14394">
        <ele>284</ele>
      </trkpt>
      <trkpt lat="44.3606" lon="5.14312">
        <ele>284</ele>
      </trkpt>
      <trkpt lat="44.36075" lon="5.14316">
        <ele>288</ele>
      </trkpt>
      <trkpt lat="44.36081" lon="5.14296">
        <ele>288</ele>
      </trkpt>
      <trkpt lat="44.36091" lon="5.143">
        <ele>289</ele>
      </trkpt>
      <trkpt lat="44.36099" lon="5.14244">
        <ele>288</ele>
      </trkpt>
      <trkpt lat="44.36102" lon="5.14217">
        <ele>286</ele>
      </trkpt>
      <trkpt lat="44.36102" lon="5.14201">
        <ele>286</ele>
      </trkpt>
      <trkpt lat="44.361" lon="5.14194">
        <ele>284</ele>
      </trkpt>
      <trkpt lat="44.36078" lon="5.14199">
        <ele>282</ele>
      </trkpt>
      <trkpt lat="44.36069" lon="5.14142">
        <ele>279</ele>
      </trkpt>
      <trkpt lat="44.36068" lon="5.14104">
        <ele>279</ele>
      </trkpt>
      <trkpt lat="44.36061" lon="5.14079">
        <ele>276</ele>
      </trkpt>
      <trkpt lat="44.36053" lon="5.1404">
        <ele>274</ele>
      </trkpt>
      <trkpt lat="44.36046" lon="5.13984">
        <ele>272</ele>
      </trkpt>
      <trkpt lat="44.36052" lon="5.13977">
        <ele>272</ele>
      </trkpt>
      <trkpt lat="44.36054" lon="5.13967">
        <ele>272</ele>
      </trkpt>
      <trkpt lat="44.36051" lon="5.13959">
        <ele>271</ele>
      </trkpt>
      <trkpt lat="44.36058" lon="5.13952">
        <ele>272</ele>
      </trkpt>
      <trkpt lat="44.3607" lon="5.13937">
        <ele>273</ele>
      </trkpt>
      <trkpt lat="44.36084" lon="5.13911">
        <ele>273</ele>
      </trkpt>
      <trkpt lat="44.36093" lon="5.1389">
        <ele>273</ele>
      </trkpt>
      <trkpt lat="44.36132" lon="5.13772">
        <ele>272</ele>
      </trkpt>
      <trkpt lat="44.36143" lon="5.13731">
        <ele>273</ele>
      </trkpt>
      <trkpt lat="44.36172" lon="5.13583">
        <ele>278</ele>
      </trkpt>
      <trkpt lat="44.3618" lon="5.13554">
        <ele>278</ele>
      </trkpt>
      <trkpt lat="44.36205" lon="5.13436">
        <ele>282</ele>
      </trkpt>
      <trkpt lat="44.36219" lon="5.13318">
        <ele>283</ele>
      </trkpt>
      <trkpt lat="44.36221" lon="5.13303">
        <ele>283</ele>
      </trkpt>
      <trkpt lat="44.36227" lon="5.13238">
        <ele>283</ele>
      </trkpt>
      <trkpt lat="44.36239" lon="5.13101">
        <ele>290</ele>
      </trkpt>
      <trkpt lat="44.36248" lon="5.12828">
        <ele>296</ele>
      </trkpt>
      <trkpt lat="44.36256" lon="5.12805">
        <ele>295</ele>
      </trkpt>
      <trkpt lat="44.36265" lon="5.1279">
        <ele>299</ele>
      </trkpt>
      <trkpt lat="44.36277" lon="5.1278">
        <ele>298</ele>
      </trkpt>
      <trkpt lat="44.36386" lon="5.1272">
        <ele>298</ele>
      </trkpt>
      <trkpt lat="44.36404" lon="5.12709">
        <ele>300</ele>
      </trkpt>
      <trkpt lat="44.36421" lon="5.12694">
        <ele>298</ele>
      </trkpt>
      <trkpt lat="44.36432" lon="5.1268">
        <ele>299</ele>
      </trkpt>
      <trkpt lat="44.36453" lon="5.12646">
        <ele>299</ele>
      </trkpt>
      <trkpt lat="44.36527" lon="5.12544">
        <ele>303</ele>
      </trkpt>
      <trkpt lat="44.3661" lon="5.12423">
        <ele>309</ele>
      </trkpt>
      <trkpt lat="44.36634" lon="5.12383">
        <ele>311</ele>
      </trkpt>
      <trkpt lat="44.36671" lon="5.12304">
        <ele>317</ele>
      </trkpt>
      <trkpt lat="44.36689" lon="5.12308">
        <ele>320</ele>
      </trkpt>
      <trkpt lat="44.36702" lon="5.12307">
        <ele>320</ele>
      </trkpt>
      <trkpt lat="44.36707" lon="5.1231">
        <ele>323</ele>
      </trkpt>
      <trkpt lat="44.36715" lon="5.12309">
        <ele>323</ele>
      </trkpt>
      <trkpt lat="44.36758" lon="5.12277">
        <ele>322</ele>
      </trkpt>
      <trkpt lat="44.36773" lon="5.12273">
        <ele>324</ele>
      </trkpt>
      <trkpt lat="44.36794" lon="5.12271">
        <ele>326</ele>
      </trkpt>
      <trkpt lat="44.3681" lon="5.12265">
        <ele>327</ele>
      </trkpt>
      <trkpt lat="44.3684" lon="5.12249">
        <ele>327</ele>
      </trkpt>
      <trkpt lat="44.36858" lon="5.12242">
        <ele>329</ele>
      </trkpt>
      <trkpt lat="44.36903" lon="5.12237">
        <ele>333</ele>
      </trkpt>
      <trkpt lat="44.3695" lon="5.12225">
        <ele>332</ele>
      </trkpt>
      <trkpt lat="44.36968" lon="5.12223">
        <ele>333</ele>
      </trkpt>
      <trkpt lat="44.36982" lon="5.12229">
        <ele>334</ele>
      </trkpt>
      <trkpt lat="44.36989" lon="5.12242">
        <ele>335</ele>
      </trkpt>
      <trkpt lat="44.37004" lon="5.12281">
        <ele>337</ele>
      </trkpt>
      <trkpt lat="44.37016" lon="5.12279">
        <ele>341</ele>
      </trkpt>
      <trkpt lat="44.37027" lon="5.12248">
        <ele>340</ele>
      </trkpt>
      <trkpt lat="44.37067" lon="5.12197">
        <ele>342</ele>
      </trkpt>
      <trkpt lat="44.371" lon="5.12182">
        <ele>344</ele>
      </trkpt>
      <trkpt lat="44.37201" lon="5.12148">
        <ele>346</ele>
      </trkpt>
      <trkpt lat="44.37249" lon="5.12121">
        <ele>349</ele>
      </trkpt>
      <trkpt lat="44.37256" lon="5.12114">
        <ele>348</ele>
      </trkpt>
      <trkpt lat="44.37309" lon="5.12027">
        <ele>349</ele>
      </trkpt>
      <trkpt lat="44.37327" lon="5.11989">
        <ele>349</ele>
      </trkpt>
      <trkpt lat="44.37347" lon="5.1194">
        <ele>352</ele>
      </trkpt>
      <trkpt lat="44.37372" lon="5.11903">
        <ele>355</ele>
      </trkpt>
      <trkpt lat="44.3738" lon="5.11889">
        <ele>357</ele>
      </trkpt>
      <trkpt lat="44.37386" lon="5.1187">
        <ele>357</ele>
      </trkpt>
      <trkpt lat="44.37398" lon="5.1182">
        <ele>361</ele>
      </trkpt>
      <trkpt lat="44.37412" lon="5.11789">
        <ele>364</ele>
      </trkpt>
      <trkpt lat="44.37415" lon="5.11747">
        <ele>361</ele>
      </trkpt>
      <trkpt lat="44.37415" lon="5.11712">
        <ele>357</ele>
      </trkpt>
      <trkpt lat="44.37417" lon="5.11689">
        <ele>355</ele>
      </trkpt>
      <trkpt lat="44.37422" lon="5.1168">
        <ele>355</ele>
      </trkpt>
      <trkpt lat="44.37437" lon="5.11662">
        <ele>354</ele>
      </trkpt>
      <trkpt lat="44.37494" lon="5.11612">
        <ele>351</ele>
      </trkpt>
      <trkpt lat="44.37501" lon="5.116">
        <ele>350</ele>
      </trkpt>
      <trkpt lat="44.37506" lon="5.1159">
        <ele>350</ele>
      </trkpt>
      <trkpt lat="44.37516" lon="5.11547">
        <ele>348</ele>
      </trkpt>
      <trkpt lat="44.37558" lon="5.1143">
        <ele>349</ele>
      </trkpt>
      <trkpt lat="44.37578" lon="5.11387">
        <ele>352</ele>
      </trkpt>
      <trkpt lat="44.37586" lon="5.11375">
        <ele>352</ele>
      </trkpt>
      <trkpt lat="44.37639" lon="5.11327">
        <ele>358</ele>
      </trkpt>
      <trkpt lat="44.37806" lon="5.11212">
        <ele>363</ele>
      </trkpt>
      <trkpt lat="44.37923" lon="5.11125">
        <ele>378</ele>
      </trkpt>
      <trkpt lat="44.37939" lon="5.11108">
        <ele>381</ele>
      </trkpt>
      <trkpt lat="44.37968" lon="5.11051">
        <ele>383</ele>
      </trkpt>
      <trkpt lat="44.37988" lon="5.11008">
        <ele>380</ele>
      </trkpt>
      <trkpt lat="44.38" lon="5.10991">
        <ele>378</ele>
      </trkpt>
      <trkpt lat="44.3804" lon="5.10948">
        <ele>378</ele>
      </trkpt>
      <trkpt lat="44.38074" lon="5.10918">
        <ele>382</ele>
      </trkpt>
      <trkpt lat="44.38084" lon="5.10907">
        <ele>382</ele>
      </trkpt>
      <trkpt lat="44.38093" lon="5.10886">
        <ele>382</ele>
      </trkpt>
      <trkpt lat="44.38108" lon="5.10842">
        <ele>381</ele>
      </trkpt>
      <trkpt lat="44.38119" lon="5.10823">
        <ele>380</ele>
      </trkpt>
      <trkpt lat="44.38135" lon="5.10808">
        <ele>381</ele>
      </trkpt>
      <trkpt lat="44.38208" lon="5.10764">
        <ele>387</ele>
      </trkpt>
      <trkpt lat="44.38223" lon="5.10752">
        <ele>386</ele>
      </trkpt>
      <trkpt lat="44.38266" lon="5.10683">
        <ele>385</ele>
      </trkpt>
      <trkpt lat="44.38284" lon="5.10661">
        <ele>385</ele>
      </trkpt>
      <trkpt lat="44.38301" lon="5.10643">
        <ele>387</ele>
      </trkpt>
      <trkpt lat="44.38609" lon="5.10429">
        <ele>409</ele>
      </trkpt>
      <trkpt lat="44.38623" lon="5.10423">
        <ele>409</ele>
      </trkpt>
      <trkpt lat="44.38644" lon="5.10431">
        <ele>410</ele>
      </trkpt>
      <trkpt lat="44.38667" lon="5.1042">
        <ele>410</ele>
      </trkpt>
      <trkpt lat="44.38695" lon="5.10424">
        <ele>411</ele>
      </trkpt>
      <trkpt lat="44.38702" lon="5.1042">
        <ele>411</ele>
      </trkpt>
      <trkpt lat="44.38707" lon="5.10405">
        <ele>411</ele>
      </trkpt>
      <trkpt lat="44.38706" lon="5.10376">
        <ele>412</ele>
      </trkpt>
      <trkpt lat="44.38717" lon="5.10325">
        <ele>422</ele>
      </trkpt>
      <trkpt lat="44.38717" lon="5.10306">
        <ele>425</ele>
      </trkpt>
      <trkpt lat="44.3871" lon="5.10283">
        <ele>426</ele>
      </trkpt>
      <trkpt lat="44.387" lon="5.10268">
        <ele>424</ele>
      </trkpt>
      <trkpt lat="44.38681" lon="5.10246">
        <ele>427</ele>
      </trkpt>
      <trkpt lat="44.38628" lon="5.10169">
        <ele>430</ele>
      </trkpt>
      <trkpt lat="44.38625" lon="5.10159">
        <ele>431</ele>
      </trkpt>
      <trkpt lat="44.38624" lon="5.10149">
        <ele>431</ele>
      </trkpt>
      <trkpt lat="44.38626" lon="5.10132">
        <ele>433</ele>
      </trkpt>
      <trkpt lat="44.38653" lon="5.10093">
        <ele>435</ele>
      </trkpt>
      <trkpt lat="44.38681" lon="5.10065">
        <ele>435</ele>
      </trkpt>
      <trkpt lat="44.38708" lon="5.10034">
        <ele>433</ele>
      </trkpt>
      <trkpt lat="44.38727" lon="5.10016">
        <ele>431</ele>
      </trkpt>
      <trkpt lat="44.38738" lon="5.10011">
        <ele>430</ele>
      </trkpt>
      <trkpt lat="44.38757" lon="5.10009">
        <ele>429</ele>
      </trkpt>
      <trkpt lat="44.38878" lon="5.10014">
        <ele>432</ele>
      </trkpt>
      <trkpt lat="44.3889" lon="5.10013">
        <ele>432</ele>
      </trkpt>
      <trkpt lat="44.38933" lon="5.09995">
        <ele>434</ele>
      </trkpt>
      <trkpt lat="44.38946" lon="5.09982">
        <ele>433</ele>
      </trkpt>
      <trkpt lat="44.38957" lon="5.09975">
        <ele>435</ele>
      </trkpt>
      <trkpt lat="44.38961" lon="5.09944">
        <ele>428</ele>
      </trkpt>
      <trkpt lat="44.38965" lon="5.09938">
        <ele>427</ele>
      </trkpt>
      <trkpt lat="44.39004" lon="5.09918">
        <ele>426</ele>
      </trkpt>
      <trkpt lat="44.3902" lon="5.09903">
        <ele>428</ele>
      </trkpt>
      <trkpt lat="44.39057" lon="5.09875">
        <ele>429</ele>
      </trkpt>
      <trkpt lat="44.39061" lon="5.09869">
        <ele>429</ele>
      </trkpt>
      <trkpt lat="44.39134" lon="5.09717">
        <ele>420</ele>
      </trkpt>
      <trkpt lat="44.39217" lon="5.09544">
        <ele>415</ele>
      </trkpt>
      <trkpt lat="44.39256" lon="5.09453">
        <ele>414</ele>
      </trkpt>
      <trkpt lat="44.3927" lon="5.09424">
        <ele>414</ele>
      </trkpt>
      <trkpt lat="44.39295" lon="5.09387">
        <ele>409</ele>
      </trkpt>
      <trkpt lat="44.39309" lon="5.09378">
        <ele>409</ele>
      </trkpt>
      <trkpt lat="44.39344" lon="5.09367">
        <ele>411</ele>
      </trkpt>
      <trkpt lat="44.39383" lon="5.09364">
        <ele>421</ele>
      </trkpt>
      <trkpt lat="44.39403" lon="5.09354">
        <ele>424</ele>
      </trkpt>
      <trkpt lat="44.3942" lon="5.09338">
        <ele>425</ele>
      </trkpt>
      <trkpt lat="44.39436" lon="5.09314">
        <ele>426</ele>
      </trkpt>
      <trkpt lat="44.39439" lon="5.09306">
        <ele>420</ele>
      </trkpt>
      <trkpt lat="44.3944" lon="5.09294">
        <ele>418</ele>
      </trkpt>
      <trkpt lat="44.39414" lon="5.0921">
        <ele>401</ele>
      </trkpt>
      <trkpt lat="44.39405" lon="5.09178">
        <ele>401</ele>
      </trkpt>
      <trkpt lat="44.39405" lon="5.09156">
        <ele>402</ele>
      </trkpt>
      <trkpt lat="44.39412" lon="5.09132">
        <ele>403</ele>
      </trkpt>
      <trkpt lat="44.39455" lon="5.09066">
        <ele>407</ele>
      </trkpt>
      <trkpt lat="44.39465" lon="5.09029">
        <ele>410</ele>
      </trkpt>
      <trkpt lat="44.39542" lon="5.0856">
        <ele>409</ele>
      </trkpt>
      <trkpt lat="44.39546" lon="5.08517">
        <ele>410</ele>
      </trkpt>
      <trkpt lat="44.39544" lon="5.08503">
        <ele>410</ele>
      </trkpt>
      <trkpt lat="44.39615" lon="5.08448">
        <ele>412</ele>
      </trkpt>
      <trkpt lat="44.39642" lon="5.0842">
        <ele>414</ele>
      </trkpt>
      <trkpt lat="44.3966" lon="5.084">
        <ele>415</ele>
      </trkpt>
      <trkpt lat="44.39708" lon="5.08333">
        <ele>418</ele>
      </trkpt>
      <trkpt lat="44.39761" lon="5.08251">
        <ele>420</ele>
      </trkpt>
      <trkpt lat="44.3978" lon="5.0821">
        <ele>421</ele>
      </trkpt>
      <trkpt lat="44.39815" lon="5.08105">
        <ele>422</ele>
      </trkpt>
      <trkpt lat="44.39829" lon="5.08079">
        <ele>423</ele>
      </trkpt>
      <trkpt lat="44.39851" lon="5.08045">
        <ele>424</ele>
      </trkpt>
      <trkpt lat="44.39876" lon="5.08017">
        <ele>425</ele>
      </trkpt>
      <trkpt lat="44.39986" lon="5.07928">
        <ele>425</ele>
      </trkpt>
      <trkpt lat="44.40023" lon="5.07893">
        <ele>425</ele>
      </trkpt>
      <trkpt lat="44.40041" lon="5.0787">
        <ele>424</ele>
      </trkpt>
      <trkpt lat="44.40152" lon="5.07704">
        <ele>426</ele>
      </trkpt>
      <trkpt lat="44.40199" lon="5.07615">
        <ele>428</ele>
      </trkpt>
      <trkpt lat="44.40212" lon="5.07583">
        <ele>429</ele>
      </trkpt>
      <trkpt lat="44.40217" lon="5.07563">
        <ele>429</ele>
      </trkpt>
      <trkpt lat="44.40221" lon="5.07534">
        <ele>429</ele>
      </trkpt>
      <trkpt lat="44.40222" lon="5.07466">
        <ele>426</ele>
      </trkpt>
      <trkpt lat="44.40222" lon="5.07368">
        <ele>426</ele>
      </trkpt>
      <trkpt lat="44.40227" lon="5.07334">
        <ele>427</ele>
      </trkpt>
      <trkpt lat="44.40233" lon="5.07327">
        <ele>427</ele>
      </trkpt>
      <trkpt lat="44.40236" lon="5.07321">
        <ele>428</ele>
      </trkpt>
      <trkpt lat="44.40236" lon="5.07314">
        <ele>427</ele>
      </trkpt>
      <trkpt lat="44.40233" lon="5.07301">
        <ele>426</ele>
      </trkpt>
      <trkpt lat="44.40226" lon="5.07294">
        <ele>426</ele>
      </trkpt>
      <trkpt lat="44.4022" lon="5.07274">
        <ele>424</ele>
      </trkpt>
      <trkpt lat="44.4021" lon="5.07225">
        <ele>423</ele>
      </trkpt>
      <trkpt lat="44.40207" lon="5.07171">
        <ele>421</ele>
      </trkpt>
      <trkpt lat="44.40224" lon="5.06855">
        <ele>406</ele>
      </trkpt>
      <trkpt lat="44.4022" lon="5.06788">
        <ele>404</ele>
      </trkpt>
      <trkpt lat="44.40216" lon="5.06765">
        <ele>403</ele>
      </trkpt>
      <trkpt lat="44.40106" lon="5.06409">
        <ele>381</ele>
      </trkpt>
      <trkpt lat="44.40094" lon="5.06361">
        <ele>379</ele>
      </trkpt>
      <trkpt lat="44.40072" lon="5.06291">
        <ele>377</ele>
      </trkpt>
      <trkpt lat="44.40048" lon="5.06216">
        <ele>372</ele>
      </trkpt>
      <trkpt lat="44.40032" lon="5.06174">
        <ele>368</ele>
      </trkpt>
      <trkpt lat="44.3993" lon="5.05861">
        <ele>359</ele>
      </trkpt>
      <trkpt lat="44.39885" lon="5.05674">
        <ele>354</ele>
      </trkpt>
      <trkpt lat="44.39855" lon="5.05542">
        <ele>351</ele>
      </trkpt>
      <trkpt lat="44.39842" lon="5.05464">
        <ele>350</ele>
      </trkpt>
      <trkpt lat="44.39786" lon="5.05051">
        <ele>337</ele>
      </trkpt>
      <trkpt lat="44.39731" lon="5.04699">
        <ele>326</ele>
      </trkpt>
      <trkpt lat="44.39708" lon="5.04542">
        <ele>321</ele>
      </trkpt>
      <trkpt lat="44.397" lon="5.04481">
        <ele>321</ele>
      </trkpt>
      <trkpt lat="44.39702" lon="5.04475">
        <ele>321</ele>
      </trkpt>
      <trkpt lat="44.39703" lon="5.04464">
        <ele>321</ele>
      </trkpt>
      <trkpt lat="44.39699" lon="5.04455">
        <ele>321</ele>
      </trkpt>
      <trkpt lat="44.39695" lon="5.0445">
        <ele>321</ele>
      </trkpt>
      <trkpt lat="44.39686" lon="5.04384">
        <ele>320</ele>
      </trkpt>
      <trkpt lat="44.39676" lon="5.04338">
        <ele>317</ele>
      </trkpt>
      <trkpt lat="44.39656" lon="5.04281">
        <ele>315</ele>
      </trkpt>
      <trkpt lat="44.39579" lon="5.04081">
        <ele>312</ele>
      </trkpt>
      <trkpt lat="44.39535" lon="5.03957">
        <ele>311</ele>
      </trkpt>
      <trkpt lat="44.39478" lon="5.03835">
        <ele>304</ele>
      </trkpt>
      <trkpt lat="44.39334" lon="5.03544">
        <ele>298</ele>
      </trkpt>
      <trkpt lat="44.39311" lon="5.03471">
        <ele>296</ele>
      </trkpt>
      <trkpt lat="44.39282" lon="5.03344">
        <ele>293</ele>
      </trkpt>
      <trkpt lat="44.3924" lon="5.03148">
        <ele>287</ele>
      </trkpt>
      <trkpt lat="44.39211" lon="5.02984">
        <ele>282</ele>
      </trkpt>
      <trkpt lat="44.39174" lon="5.029">
        <ele>281</ele>
      </trkpt>
      <trkpt lat="44.39144" lon="5.02843">
        <ele>282</ele>
      </trkpt>
      <trkpt lat="44.39135" lon="5.02821">
        <ele>281</ele>
      </trkpt>
      <trkpt lat="44.39118" lon="5.02768">
        <ele>281</ele>
      </trkpt>
      <trkpt lat="44.39102" lon="5.02697">
        <ele>281</ele>
      </trkpt>
      <trkpt lat="44.38975" lon="5.01884">
        <ele>267</ele>
      </trkpt>
      <trkpt lat="44.38968" lon="5.01859">
        <ele>266</ele>
      </trkpt>
      <trkpt lat="44.3896" lon="5.01838">
        <ele>266</ele>
      </trkpt>
      <trkpt lat="44.3889" lon="5.01701">
        <ele>262</ele>
      </trkpt>
      <trkpt lat="44.38827" lon="5.01575">
        <ele>260</ele>
      </trkpt>
      <trkpt lat="44.38817" lon="5.01546">
        <ele>259</ele>
      </trkpt>
      <trkpt lat="44.38763" lon="5.01374">
        <ele>258</ele>
      </trkpt>
      <trkpt lat="44.3875" lon="5.01327">
        <ele>258</ele>
      </trkpt>
      <trkpt lat="44.38729" lon="5.01232">
        <ele>257</ele>
      </trkpt>
      <trkpt lat="44.38708" lon="5.0115">
        <ele>255</ele>
      </trkpt>
      <trkpt lat="44.38639" lon="5.00918">
        <ele>255</ele>
      </trkpt>
      <trkpt lat="44.38628" lon="5.00869">
        <ele>255</ele>
      </trkpt>
      <trkpt lat="44.38627" lon="5.00852">
        <ele>254</ele>
      </trkpt>
      <trkpt lat="44.38627" lon="5.00847">
        <ele>254</ele>
      </trkpt>
      <trkpt lat="44.38626" lon="5.00839">
        <ele>254</ele>
      </trkpt>
      <trkpt lat="44.38619" lon="5.00832">
        <ele>254</ele>
      </trkpt>
      <trkpt lat="44.3861" lon="5.00811">
        <ele>254</ele>
      </trkpt>
      <trkpt lat="44.38604" lon="5.00792">
        <ele>254</ele>
      </trkpt>
      <trkpt lat="44.38598" lon="5.00752">
        <ele>254</ele>
      </trkpt>
      <trkpt lat="44.38598" lon="5.00727">
        <ele>254</ele>
      </trkpt>
      <trkpt lat="44.38602" lon="5.00708">
        <ele>253</ele>
      </trkpt>
      <trkpt lat="44.38612" lon="5.00687">
        <ele>252</ele>
      </trkpt>
      <trkpt lat="44.38614" lon="5.00683">
        <ele>252</ele>
      </trkpt>
      <trkpt lat="44.38617" lon="5.00672">
        <ele>252</ele>
      </trkpt>
      <trkpt lat="44.38626" lon="5.00603">
        <ele>251</ele>
      </trkpt>
      <trkpt lat="44.38626" lon="5.00588">
        <ele>251</ele>
      </trkpt>
      <trkpt lat="44.38633" lon="5.00537">
        <ele>251</ele>
      </trkpt>
      <trkpt lat="44.38636" lon="5.00509">
        <ele>251</ele>
      </trkpt>
      <trkpt lat="44.38668" lon="5.00238">
        <ele>247</ele>
      </trkpt>
      <trkpt lat="44.38684" lon="5.00093">
        <ele>243</ele>
      </trkpt>
      <trkpt lat="44.38696" lon="4.99951">
        <ele>242</ele>
      </trkpt>
      <trkpt lat="44.38703" lon="4.99935">
        <ele>242</ele>
      </trkpt>
      <trkpt lat="44.3871" lon="4.99936">
        <ele>241</ele>
      </trkpt>
      <trkpt lat="44.38715" lon="4.99933">
        <ele>241</ele>
      </trkpt>
      <trkpt lat="44.38718" lon="4.99929">
        <ele>241</ele>
      </trkpt>
      <trkpt lat="44.38721" lon="4.99917">
        <ele>241</ele>
      </trkpt>
      <trkpt lat="44.38721" lon="4.99911">
        <ele>241</ele>
      </trkpt>
      <trkpt lat="44.38715" lon="4.99902">
        <ele>242</ele>
      </trkpt>
      <trkpt lat="44.38711" lon="4.99899">
        <ele>242</ele>
      </trkpt>
      <trkpt lat="44.38708" lon="4.99888">
        <ele>242</ele>
      </trkpt>
      <trkpt lat="44.38707" lon="4.99876">
        <ele>242</ele>
      </trkpt>
      <trkpt lat="44.38749" lon="4.99502">
        <ele>238</ele>
      </trkpt>
      <trkpt lat="44.38756" lon="4.99409">
        <ele>235</ele>
      </trkpt>
      <trkpt lat="44.38759" lon="4.99344">
        <ele>235</ele>
      </trkpt>
      <trkpt lat="44.38758" lon="4.99299">
        <ele>234</ele>
      </trkpt>
      <trkpt lat="44.38747" lon="4.99158">
        <ele>232</ele>
      </trkpt>
      <trkpt lat="44.38745" lon="4.99085">
        <ele>231</ele>
      </trkpt>
      <trkpt lat="44.38752" lon="4.99063">
        <ele>231</ele>
      </trkpt>
      <trkpt lat="44.38758" lon="4.99046">
        <ele>230</ele>
      </trkpt>
      <trkpt lat="44.38764" lon="4.9904">
        <ele>230</ele>
      </trkpt>
      <trkpt lat="44.3888" lon="4.99001">
        <ele>230</ele>
      </trkpt>
      <trkpt lat="44.3898" lon="4.98971">
        <ele>229</ele>
      </trkpt>
      <trkpt lat="44.39072" lon="4.9894">
        <ele>229</ele>
      </trkpt>
      <trkpt lat="44.39103" lon="4.98919">
        <ele>229</ele>
      </trkpt>
      <trkpt lat="44.39138" lon="4.98889">
        <ele>228</ele>
      </trkpt>
      <trkpt lat="44.39156" lon="4.98875">
        <ele>228</ele>
      </trkpt>
      <trkpt lat="44.39187" lon="4.98858">
        <ele>227</ele>
      </trkpt>
      <trkpt lat="44.39305" lon="4.98799">
        <ele>229</ele>
      </trkpt>
      <trkpt lat="44.39367" lon="4.98784">
        <ele>228</ele>
      </trkpt>
      <trkpt lat="44.39552" lon="4.98722">
        <ele>230</ele>
      </trkpt>
      <trkpt lat="44.39579" lon="4.98711">
        <ele>230</ele>
      </trkpt>
      <trkpt lat="44.39767" lon="4.98607">
        <ele>232</ele>
      </trkpt>
      <trkpt lat="44.39798" lon="4.98591">
        <ele>232</ele>
      </trkpt>
      <trkpt lat="44.39912" lon="4.98549">
        <ele>233</ele>
      </trkpt>
      <trkpt lat="44.40068" lon="4.98508">
        <ele>236</ele>
      </trkpt>
      <trkpt lat="44.40129" lon="4.98484">
        <ele>233</ele>
      </trkpt>
      <trkpt lat="44.40323" lon="4.98397">
        <ele>234</ele>
      </trkpt>
      <trkpt lat="44.40411" lon="4.9836">
        <ele>234</ele>
      </trkpt>
      <trkpt lat="44.40647" lon="4.98295">
        <ele>232</ele>
      </trkpt>
      <trkpt lat="44.40709" lon="4.98274">
        <ele>235</ele>
      </trkpt>
      <trkpt lat="44.40741" lon="4.98267">
        <ele>234</ele>
      </trkpt>
      <trkpt lat="44.40826" lon="4.98254">
        <ele>236</ele>
      </trkpt>
      <trkpt lat="44.40884" lon="4.98249">
        <ele>237</ele>
      </trkpt>
      <trkpt lat="44.41028" lon="4.98253">
        <ele>238</ele>
      </trkpt>
      <trkpt lat="44.41069" lon="4.98257">
        <ele>239</ele>
      </trkpt>
      <trkpt lat="44.41112" lon="4.98264">
        <ele>239</ele>
      </trkpt>
      <trkpt lat="44.41185" lon="4.98289">
        <ele>240</ele>
      </trkpt>
      <trkpt lat="44.41204" lon="4.98298">
        <ele>240</ele>
      </trkpt>
      <trkpt lat="44.41222" lon="4.98308">
        <ele>240</ele>
      </trkpt>
      <trkpt lat="44.4133" lon="4.98391">
        <ele>243</ele>
      </trkpt>
      <trkpt lat="44.41346" lon="4.98401">
        <ele>244</ele>
      </trkpt>
      <trkpt lat="44.41357" lon="4.98404">
        <ele>244</ele>
      </trkpt>
      <trkpt lat="44.41371" lon="4.98406">
        <ele>244</ele>
      </trkpt>
      <trkpt lat="44.41855" lon="4.98304">
        <ele>249</ele>
      </trkpt>
      <trkpt lat="44.41896" lon="4.98305">
        <ele>250</ele>
      </trkpt>
      <trkpt lat="44.42068" lon="4.98321">
        <ele>251</ele>
      </trkpt>
      <trkpt lat="44.42291" lon="4.98376">
        <ele>246</ele>
      </trkpt>
      <trkpt lat="44.42332" lon="4.98387">
        <ele>246</ele>
      </trkpt>
      <trkpt lat="44.4238" lon="4.98401">
        <ele>246</ele>
      </trkpt>
      <trkpt lat="44.42444" lon="4.98409">
        <ele>248</ele>
      </trkpt>
      <trkpt lat="44.42495" lon="4.98409">
        <ele>248</ele>
      </trkpt>
      <trkpt lat="44.42531" lon="4.98405">
        <ele>248</ele>
      </trkpt>
      <trkpt lat="44.42576" lon="4.98395">
        <ele>248</ele>
      </trkpt>
      <trkpt lat="44.42607" lon="4.98385">
        <ele>247</ele>
      </trkpt>
      <trkpt lat="44.42753" lon="4.98323">
        <ele>248</ele>
      </trkpt>
      <trkpt lat="44.42809" lon="4.98308">
        <ele>250</ele>
      </trkpt>
      <trkpt lat="44.42927" lon="4.98294">
        <ele>252</ele>
      </trkpt>
      <trkpt lat="44.42962" lon="4.98293">
        <ele>256</ele>
      </trkpt>
      <trkpt lat="44.43069" lon="4.98298">
        <ele>258</ele>
      </trkpt>
      <trkpt lat="44.43178" lon="4.98295">
        <ele>255</ele>
      </trkpt>
      <trkpt lat="44.43199" lon="4.98292">
        <ele>255</ele>
      </trkpt>
      <trkpt lat="44.43229" lon="4.98283">
        <ele>255</ele>
      </trkpt>
      <trkpt lat="44.43254" lon="4.98271">
        <ele>256</ele>
      </trkpt>
      <trkpt lat="44.43267" lon="4.98263">
        <ele>257</ele>
      </trkpt>
      <trkpt lat="44.43282" lon="4.9825">
        <ele>257</ele>
      </trkpt>
      <trkpt lat="44.43292" lon="4.98237">
        <ele>257</ele>
      </trkpt>
      <trkpt lat="44.433" lon="4.9822">
        <ele>257</ele>
      </trkpt>
      <trkpt lat="44.43311" lon="4.98189">
        <ele>257</ele>
      </trkpt>
      <trkpt lat="44.43362" lon="4.97947">
        <ele>266</ele>
      </trkpt>
      <trkpt lat="44.4337" lon="4.97916">
        <ele>265</ele>
      </trkpt>
      <trkpt lat="44.43396" lon="4.97855">
        <ele>268</ele>
      </trkpt>
      <trkpt lat="44.43437" lon="4.9778">
        <ele>273</ele>
      </trkpt>
      <trkpt lat="44.43463" lon="4.97736">
        <ele>275</ele>
      </trkpt>
      <trkpt lat="44.4348" lon="4.97716">
        <ele>275</ele>
      </trkpt>
      <trkpt lat="44.43499" lon="4.97703">
        <ele>275</ele>
      </trkpt>
      <trkpt lat="44.43539" lon="4.97679">
        <ele>272</ele>
      </trkpt>
      <trkpt lat="44.43589" lon="4.97661">
        <ele>266</ele>
      </trkpt>
      <trkpt lat="44.43613" lon="4.9766">
        <ele>265</ele>
      </trkpt>
      <trkpt lat="44.43639" lon="4.97667">
        <ele>266</ele>
      </trkpt>
      <trkpt lat="44.43685" lon="4.97693">
        <ele>260</ele>
      </trkpt>
      <trkpt lat="44.43773" lon="4.97732">
        <ele>260</ele>
      </trkpt>
      <trkpt lat="44.43904" lon="4.97794">
        <ele>262</ele>
      </trkpt>
      <trkpt lat="44.43941" lon="4.97816">
        <ele>264</ele>
      </trkpt>
      <trkpt lat="44.43977" lon="4.97843">
        <ele>264</ele>
      </trkpt>
      <trkpt lat="44.44048" lon="4.97921">
        <ele>262</ele>
      </trkpt>
      <trkpt lat="44.44149" lon="4.98053">
        <ele>267</ele>
      </trkpt>
      <trkpt lat="44.44173" lon="4.98075">
        <ele>270</ele>
      </trkpt>
      <trkpt lat="44.44174" lon="4.98079">
        <ele>270</ele>
      </trkpt>
      <trkpt lat="44.44177" lon="4.98081">
        <ele>270</ele>
      </trkpt>
      <trkpt lat="44.4418" lon="4.98081">
        <ele>270</ele>
      </trkpt>
      <trkpt lat="44.44183" lon="4.98076">
        <ele>270</ele>
      </trkpt>
      <trkpt lat="44.44191" lon="4.9807">
        <ele>271</ele>
      </trkpt>
      <trkpt lat="44.44203" lon="4.98059">
        <ele>270</ele>
      </trkpt>
      <trkpt lat="44.44219" lon="4.9804">
        <ele>271</ele>
      </trkpt>
      <trkpt lat="44.44221" lon="4.98044">
        <ele>271</ele>
      </trkpt>
      <trkpt lat="44.44241" lon="4.98026">
        <ele>272</ele>
      </trkpt>
      <trkpt lat="44.44246" lon="4.98027">
        <ele>272</ele>
      </trkpt>
      <trkpt lat="44.44257" lon="4.97992">
        <ele>271</ele>
      </trkpt>
      <trkpt lat="44.44266" lon="4.97969">
        <ele>271</ele>
      </trkpt>
      <trkpt lat="44.44274" lon="4.97958">
        <ele>270</ele>
      </trkpt>
      <trkpt lat="44.4428" lon="4.97954">
        <ele>271</ele>
      </trkpt>
      <trkpt lat="44.44288" lon="4.97952">
        <ele>271</ele>
      </trkpt>
      <trkpt lat="44.44298" lon="4.97952">
        <ele>273</ele>
      </trkpt>
      <trkpt lat="44.4432" lon="4.97962">
        <ele>275</ele>
      </trkpt>
      <trkpt lat="44.4433" lon="4.97961">
        <ele>276</ele>
      </trkpt>
      <trkpt lat="44.44358" lon="4.97944">
        <ele>276</ele>
      </trkpt>
      <trkpt lat="44.44364" lon="4.97934">
        <ele>274</ele>
      </trkpt>
      <trkpt lat="44.44376" lon="4.97945">
        <ele>276</ele>
      </trkpt>
      <trkpt lat="44.44396" lon="4.97948">
        <ele>276</ele>
      </trkpt>
      <trkpt lat="44.4441" lon="4.97952">
        <ele>276</ele>
      </trkpt>
      <trkpt lat="44.44427" lon="4.97963">
        <ele>276</ele>
      </trkpt>
      <trkpt lat="44.4444" lon="4.97945">
        <ele>277</ele>
      </trkpt>
      <trkpt lat="44.44457" lon="4.97906">
        <ele>280</ele>
      </trkpt>
      <trkpt lat="44.44484" lon="4.97914">
        <ele>280</ele>
      </trkpt>
      <trkpt lat="44.44506" lon="4.97917">
        <ele>281</ele>
      </trkpt>
      <trkpt lat="44.44543" lon="4.97917">
        <ele>283</ele>
      </trkpt>
      <trkpt lat="44.44648" lon="4.97927">
        <ele>288</ele>
      </trkpt>
      <trkpt lat="44.44671" lon="4.97922">
        <ele>290</ele>
      </trkpt>
      <trkpt lat="44.44706" lon="4.97924">
        <ele>291</ele>
      </trkpt>
      <trkpt lat="44.44754" lon="4.97861">
        <ele>295</ele>
      </trkpt>
      <trkpt lat="44.44826" lon="4.97758">
        <ele>300</ele>
      </trkpt>
      <trkpt lat="44.44862" lon="4.97718">
        <ele>301</ele>
      </trkpt>
      <trkpt lat="44.4491" lon="4.97679">
        <ele>302</ele>
      </trkpt>
      <trkpt lat="44.45016" lon="4.97585">
        <ele>306</ele>
      </trkpt>
      <trkpt lat="44.45139" lon="4.97513">
        <ele>314</ele>
      </trkpt>
      <trkpt lat="44.45169" lon="4.97498">
        <ele>315</ele>
      </trkpt>
      <trkpt lat="44.45459" lon="4.97312">
        <ele>301</ele>
      </trkpt>
      <trkpt lat="44.45514" lon="4.97274">
        <ele>304</ele>
      </trkpt>
      <trkpt lat="44.45538" lon="4.97247">
        <ele>305</ele>
      </trkpt>
      <trkpt lat="44.45569" lon="4.97201">
        <ele>311</ele>
      </trkpt>
      <trkpt lat="44.45599" lon="4.97164">
        <ele>309</ele>
      </trkpt>
      <trkpt lat="44.45709" lon="4.97073">
        <ele>309</ele>
      </trkpt>
      <trkpt lat="44.45758" lon="4.97054">
        <ele>305</ele>
      </trkpt>
      <trkpt lat="44.45881" lon="4.9702">
        <ele>304</ele>
      </trkpt>
      <trkpt lat="44.45904" lon="4.97001">
        <ele>305</ele>
      </trkpt>
      <trkpt lat="44.46088" lon="4.96763">
        <ele>311</ele>
      </trkpt>
      <trkpt lat="44.46204" lon="4.96591">
        <ele>313</ele>
      </trkpt>
      <trkpt lat="44.46364" lon="4.96447">
        <ele>319</ele>
      </trkpt>
      <trkpt lat="44.46394" lon="4.96433">
        <ele>318</ele>
      </trkpt>
      <trkpt lat="44.46461" lon="4.96424">
        <ele>316</ele>
      </trkpt>
      <trkpt lat="44.4651" lon="4.96414">
        <ele>317</ele>
      </trkpt>
      <trkpt lat="44.46546" lon="4.96404">
        <ele>320</ele>
      </trkpt>
      <trkpt lat="44.4656" lon="4.96393">
        <ele>320</ele>
      </trkpt>
      <trkpt lat="44.46572" lon="4.96377">
        <ele>321</ele>
      </trkpt>
      <trkpt lat="44.46598" lon="4.96306">
        <ele>323</ele>
      </trkpt>
      <trkpt lat="44.46609" lon="4.96291">
        <ele>323</ele>
      </trkpt>
      <trkpt lat="44.46622" lon="4.9628">
        <ele>323</ele>
      </trkpt>
      <trkpt lat="44.46637" lon="4.96272">
        <ele>325</ele>
      </trkpt>
      <trkpt lat="44.46673" lon="4.96222">
        <ele>327</ele>
      </trkpt>
      <trkpt lat="44.46697" lon="4.962">
        <ele>329</ele>
      </trkpt>
      <trkpt lat="44.46722" lon="4.96184">
        <ele>331</ele>
      </trkpt>
      <trkpt lat="44.46774" lon="4.96128">
        <ele>332</ele>
      </trkpt>
      <trkpt lat="44.46802" lon="4.96093">
        <ele>333</ele>
      </trkpt>
      <trkpt lat="44.46844" lon="4.96028">
        <ele>336</ele>
      </trkpt>
      <trkpt lat="44.46855" lon="4.96014">
        <ele>337</ele>
      </trkpt>
      <trkpt lat="44.46875" lon="4.96001">
        <ele>337</ele>
      </trkpt>
      <trkpt lat="44.4703" lon="4.95929">
        <ele>344</ele>
      </trkpt>
      <trkpt lat="44.47045" lon="4.95918">
        <ele>348</ele>
      </trkpt>
      <trkpt lat="44.47087" lon="4.95847">
        <ele>349</ele>
      </trkpt>
      <trkpt lat="44.47101" lon="4.95834">
        <ele>353</ele>
      </trkpt>
      <trkpt lat="44.47113" lon="4.95829">
        <ele>355</ele>
      </trkpt>
      <trkpt lat="44.47132" lon="4.95829">
        <ele>358</ele>
      </trkpt>
      <trkpt lat="44.47301" lon="4.95875">
        <ele>371</ele>
      </trkpt>
      <trkpt lat="44.47392" lon="4.9591">
        <ele>378</ele>
      </trkpt>
      <trkpt lat="44.47422" lon="4.9592">
        <ele>376</ele>
      </trkpt>
      <trkpt lat="44.47452" lon="4.95921">
        <ele>378</ele>
      </trkpt>
      <trkpt lat="44.47537" lon="4.95931">
        <ele>387</ele>
      </trkpt>
      <trkpt lat="44.47615" lon="4.95947">
        <ele>387</ele>
      </trkpt>
      <trkpt lat="44.47649" lon="4.95947">
        <ele>389</ele>
      </trkpt>
      <trkpt lat="44.47738" lon="4.95925">
        <ele>399</ele>
      </trkpt>
      <trkpt lat="44.47771" lon="4.95927">
        <ele>402</ele>
      </trkpt>
      <trkpt lat="44.47827" lon="4.95943">
        <ele>407</ele>
      </trkpt>
      <trkpt lat="44.479" lon="4.95957">
        <ele>410</ele>
      </trkpt>
      <trkpt lat="44.4797" lon="4.95975">
        <ele>415</ele>
      </trkpt>
      <trkpt lat="44.47993" lon="4.95981">
        <ele>417</ele>
      </trkpt>
      <trkpt lat="44.48026" lon="4.95998">
        <ele>418</ele>
      </trkpt>
      <trkpt lat="44.48046" lon="4.96005">
        <ele>416</ele>
      </trkpt>
      <trkpt lat="44.48061" lon="4.96007">
        <ele>416</ele>
      </trkpt>
      <trkpt lat="44.48066" lon="4.96001">
        <ele>417</ele>
      </trkpt>
      <trkpt lat="44.48063" lon="4.95994">
        <ele>421</ele>
      </trkpt>
      <trkpt lat="44.4801" lon="4.95967">
        <ele>422</ele>
      </trkpt>
      <trkpt lat="44.47993" lon="4.95954">
        <ele>423</ele>
      </trkpt>
      <trkpt lat="44.47974" lon="4.95944">
        <ele>420</ele>
      </trkpt>
      <trkpt lat="44.47871" lon="4.95898">
        <ele>421</ele>
      </trkpt>
      <trkpt lat="44.4777" lon="4.95845">
        <ele>418</ele>
      </trkpt>
      <trkpt lat="44.47761" lon="4.95838">
        <ele>417</ele>
      </trkpt>
      <trkpt lat="44.47758" lon="4.95829">
        <ele>416</ele>
      </trkpt>
      <trkpt lat="44.47762" lon="4.95821">
        <ele>415</ele>
      </trkpt>
      <trkpt lat="44.47772" lon="4.95819">
        <ele>416</ele>
      </trkpt>
      <trkpt lat="44.47822" lon="4.95827">
        <ele>422</ele>
      </trkpt>
      <trkpt lat="44.47847" lon="4.95825">
        <ele>425</ele>
      </trkpt>
      <trkpt lat="44.47879" lon="4.95813">
        <ele>428</ele>
      </trkpt>
      <trkpt lat="44.47958" lon="4.95801">
        <ele>434</ele>
      </trkpt>
      <trkpt lat="44.48009" lon="4.95789">
        <ele>436</ele>
      </trkpt>
      <trkpt lat="44.48029" lon="4.95789">
        <ele>439</ele>
      </trkpt>
      <trkpt lat="44.48115" lon="4.95774">
        <ele>440</ele>
      </trkpt>
      <trkpt lat="44.48229" lon="4.95775">
        <ele>448</ele>
      </trkpt>
      <trkpt lat="44.48388" lon="4.95751">
        <ele>465</ele>
      </trkpt>
      <trkpt lat="44.48493" lon="4.95747">
        <ele>469</ele>
      </trkpt>
      <trkpt lat="44.48516" lon="4.95739">
        <ele>472</ele>
      </trkpt>
      <trkpt lat="44.48543" lon="4.95724">
        <ele>476</ele>
      </trkpt>
      <trkpt lat="44.48573" lon="4.95704">
        <ele>476</ele>
      </trkpt>
      <trkpt lat="44.48605" lon="4.9568">
        <ele>478</ele>
      </trkpt>
      <trkpt lat="44.48623" lon="4.9567">
        <ele>478</ele>
      </trkpt>
      <trkpt lat="44.48652" lon="4.95669">
        <ele>481</ele>
      </trkpt>
      <trkpt lat="44.48672" lon="4.95678">
        <ele>483</ele>
      </trkpt>
      <trkpt lat="44.48749" lon="4.95722">
        <ele>490</ele>
      </trkpt>
      <trkpt lat="44.48783" lon="4.95746">
        <ele>493</ele>
      </trkpt>
      <trkpt lat="44.48821" lon="4.95757">
        <ele>494</ele>
      </trkpt>
      <trkpt lat="44.48878" lon="4.95788">
        <ele>497</ele>
      </trkpt>
      <trkpt lat="44.48885" lon="4.95788">
        <ele>497</ele>
      </trkpt>
      <trkpt lat="44.48888" lon="4.95786">
        <ele>497</ele>
      </trkpt>
      <trkpt lat="44.4889" lon="4.95778">
        <ele>497</ele>
      </trkpt>
      <trkpt lat="44.48875" lon="4.95709">
        <ele>500</ele>
      </trkpt>
      <trkpt lat="44.48875" lon="4.9569">
        <ele>501</ele>
      </trkpt>
      <trkpt lat="44.48878" lon="4.95675">
        <ele>501</ele>
      </trkpt>
      <trkpt lat="44.489" lon="4.95644">
        <ele>503</ele>
      </trkpt>
      <trkpt lat="44.48956" lon="4.95589">
        <ele>505</ele>
      </trkpt>
      <trkpt lat="44.48972" lon="4.95577">
        <ele>506</ele>
      </trkpt>
      <trkpt lat="44.48992" lon="4.95563">
        <ele>507</ele>
      </trkpt>
      <trkpt lat="44.49031" lon="4.95544">
        <ele>507</ele>
      </trkpt>
      <trkpt lat="44.49073" lon="4.9554">
        <ele>507</ele>
      </trkpt>
      <trkpt lat="44.49112" lon="4.95511">
        <ele>506</ele>
      </trkpt>
      <trkpt lat="44.49138" lon="4.95488">
        <ele>507</ele>
      </trkpt>
      <trkpt lat="44.49152" lon="4.95461">
        <ele>507</ele>
      </trkpt>
      <trkpt lat="44.49165" lon="4.95408">
        <ele>507</ele>
      </trkpt>
      <trkpt lat="44.49178" lon="4.95374">
        <ele>506</ele>
      </trkpt>
      <trkpt lat="44.4919" lon="4.95331">
        <ele>508</ele>
      </trkpt>
      <trkpt lat="44.49206" lon="4.95252">
        <ele>506</ele>
      </trkpt>
      <trkpt lat="44.4922" lon="4.95208">
        <ele>505</ele>
      </trkpt>
      <trkpt lat="44.49302" lon="4.95089">
        <ele>501</ele>
      </trkpt>
      <trkpt lat="44.49361" lon="4.95019">
        <ele>503</ele>
      </trkpt>
      <trkpt lat="44.49398" lon="4.94952">
        <ele>500</ele>
      </trkpt>
      <trkpt lat="44.49441" lon="4.94892">
        <ele>500</ele>
      </trkpt>
      <trkpt lat="44.49485" lon="4.94838">
        <ele>496</ele>
      </trkpt>
      <trkpt lat="44.4956" lon="4.94771">
        <ele>492</ele>
      </trkpt>
      <trkpt lat="44.49574" lon="4.94763">
        <ele>493</ele>
      </trkpt>
      <trkpt lat="44.49588" lon="4.94751">
        <ele>493</ele>
      </trkpt>
      <trkpt lat="44.49598" lon="4.94738">
        <ele>492</ele>
      </trkpt>
      <trkpt lat="44.49622" lon="4.94714">
        <ele>492</ele>
      </trkpt>
      <trkpt lat="44.4965" lon="4.94669">
        <ele>493</ele>
      </trkpt>
      <trkpt lat="44.49654" lon="4.94644">
        <ele>493</ele>
      </trkpt>
      <trkpt lat="44.49653" lon="4.94587">
        <ele>493</ele>
      </trkpt>
      <trkpt lat="44.49629" lon="4.94412">
        <ele>494</ele>
      </trkpt>
      <trkpt lat="44.49612" lon="4.94346">
        <ele>495</ele>
      </trkpt>
      <trkpt lat="44.49584" lon="4.9428">
        <ele>493</ele>
      </trkpt>
      <trkpt lat="44.49549" lon="4.94202">
        <ele>487</ele>
      </trkpt>
      <trkpt lat="44.49534" lon="4.94132">
        <ele>488</ele>
      </trkpt>
      <trkpt lat="44.49518" lon="4.93989">
        <ele>489</ele>
      </trkpt>
      <trkpt lat="44.49513" lon="4.93955">
        <ele>490</ele>
      </trkpt>
      <trkpt lat="44.49513" lon="4.93932">
        <ele>491</ele>
      </trkpt>
      <trkpt lat="44.49516" lon="4.93902">
        <ele>492</ele>
      </trkpt>
      <trkpt lat="44.49514" lon="4.93884">
        <ele>492</ele>
      </trkpt>
      <trkpt lat="44.49506" lon="4.93863">
        <ele>491</ele>
      </trkpt>
      <trkpt lat="44.49497" lon="4.93846">
        <ele>490</ele>
      </trkpt>
      <trkpt lat="44.4949" lon="4.93816">
        <ele>489</ele>
      </trkpt>
      <trkpt lat="44.49489" lon="4.93765">
        <ele>487</ele>
      </trkpt>
      <trkpt lat="44.49493" lon="4.93724">
        <ele>486</ele>
      </trkpt>
      <trkpt lat="44.49499" lon="4.93708">
        <ele>484</ele>
      </trkpt>
      <trkpt lat="44.49501" lon="4.93695">
        <ele>484</ele>
      </trkpt>
      <trkpt lat="44.49491" lon="4.93675">
        <ele>483</ele>
      </trkpt>
      <trkpt lat="44.49497" lon="4.93658">
        <ele>481</ele>
      </trkpt>
      <trkpt lat="44.49509" lon="4.93636">
        <ele>480</ele>
      </trkpt>
      <trkpt lat="44.49524" lon="4.93615">
        <ele>480</ele>
      </trkpt>
      <trkpt lat="44.49532" lon="4.9361">
        <ele>480</ele>
      </trkpt>
      <trkpt lat="44.49543" lon="4.93609">
        <ele>478</ele>
      </trkpt>
      <trkpt lat="44.4956" lon="4.93615">
        <ele>479</ele>
      </trkpt>
      <trkpt lat="44.49609" lon="4.93643">
        <ele>479</ele>
      </trkpt>
      <trkpt lat="44.49629" lon="4.93647">
        <ele>478</ele>
      </trkpt>
      <trkpt lat="44.49648" lon="4.93641">
        <ele>478</ele>
      </trkpt>
      <trkpt lat="44.49685" lon="4.9361">
        <ele>472</ele>
      </trkpt>
      <trkpt lat="44.49693" lon="4.93607">
        <ele>471</ele>
      </trkpt>
      <trkpt lat="44.49707" lon="4.93606">
        <ele>471</ele>
      </trkpt>
      <trkpt lat="44.4972" lon="4.93614">
        <ele>468</ele>
      </trkpt>
      <trkpt lat="44.49729" lon="4.93626">
        <ele>468</ele>
      </trkpt>
      <trkpt lat="44.49736" lon="4.93639">
        <ele>468</ele>
      </trkpt>
      <trkpt lat="44.49753" lon="4.93702">
        <ele>468</ele>
      </trkpt>
      <trkpt lat="44.49757" lon="4.9371">
        <ele>468</ele>
      </trkpt>
      <trkpt lat="44.49767" lon="4.93719">
        <ele>466</ele>
      </trkpt>
      <trkpt lat="44.49777" lon="4.93722">
        <ele>466</ele>
      </trkpt>
      <trkpt lat="44.49788" lon="4.93721">
        <ele>466</ele>
      </trkpt>
      <trkpt lat="44.49798" lon="4.93716">
        <ele>465</ele>
      </trkpt>
      <trkpt lat="44.49846" lon="4.93669">
        <ele>464</ele>
      </trkpt>
      <trkpt lat="44.49865" lon="4.93657">
        <ele>463</ele>
      </trkpt>
      <trkpt lat="44.49878" lon="4.9365">
        <ele>462</ele>
      </trkpt>
      <trkpt lat="44.49932" lon="4.93632">
        <ele>458</ele>
      </trkpt>
      <trkpt lat="44.49959" lon="4.93625">
        <ele>456</ele>
      </trkpt>
      <trkpt lat="44.50006" lon="4.93623">
        <ele>454</ele>
      </trkpt>
      <trkpt lat="44.50018" lon="4.93625">
        <ele>452</ele>
      </trkpt>
      <trkpt lat="44.50026" lon="4.93632">
        <ele>451</ele>
      </trkpt>
      <trkpt lat="44.50034" lon="4.93645">
        <ele>452</ele>
      </trkpt>
      <trkpt lat="44.50036" lon="4.93659">
        <ele>452</ele>
      </trkpt>
      <trkpt lat="44.50033" lon="4.93675">
        <ele>451</ele>
      </trkpt>
      <trkpt lat="44.49995" lon="4.93734">
        <ele>445</ele>
      </trkpt>
      <trkpt lat="44.49986" lon="4.93758">
        <ele>444</ele>
      </trkpt>
      <trkpt lat="44.49969" lon="4.93944">
        <ele>434</ele>
      </trkpt>
      <trkpt lat="44.49964" lon="4.94028">
        <ele>432</ele>
      </trkpt>
      <trkpt lat="44.49968" lon="4.94054">
        <ele>432</ele>
      </trkpt>
      <trkpt lat="44.49984" lon="4.94075">
        <ele>431</ele>
      </trkpt>
      <trkpt lat="44.50221" lon="4.94226">
        <ele>422</ele>
      </trkpt>
      <trkpt lat="44.50236" lon="4.94226">
        <ele>422</ele>
      </trkpt>
      <trkpt lat="44.50249" lon="4.94217">
        <ele>420</ele>
      </trkpt>
      <trkpt lat="44.50276" lon="4.94175">
        <ele>417</ele>
      </trkpt>
      <trkpt lat="44.50293" lon="4.94158">
        <ele>414</ele>
      </trkpt>
      <trkpt lat="44.50315" lon="4.94147">
        <ele>414</ele>
      </trkpt>
      <trkpt lat="44.50448" lon="4.94103">
        <ele>414</ele>
      </trkpt>
      <trkpt lat="44.50468" lon="4.9409">
        <ele>417</ele>
      </trkpt>
      <trkpt lat="44.50484" lon="4.94075">
        <ele>411</ele>
      </trkpt>
      <trkpt lat="44.50569" lon="4.93968">
        <ele>401</ele>
      </trkpt>
      <trkpt lat="44.50617" lon="4.93922">
        <ele>401</ele>
      </trkpt>
      <trkpt lat="44.5067" lon="4.93877">
        <ele>389</ele>
      </trkpt>
      <trkpt lat="44.50685" lon="4.93867">
        <ele>389</ele>
      </trkpt>
      <trkpt lat="44.50703" lon="4.93862">
        <ele>388</ele>
      </trkpt>
      <trkpt lat="44.50734" lon="4.93858">
        <ele>383</ele>
      </trkpt>
      <trkpt lat="44.50773" lon="4.93847">
        <ele>387</ele>
      </trkpt>
      <trkpt lat="44.50807" lon="4.93825">
        <ele>384</ele>
      </trkpt>
      <trkpt lat="44.50839" lon="4.93796">
        <ele>380</ele>
      </trkpt>
      <trkpt lat="44.50883" lon="4.93726">
        <ele>368</ele>
      </trkpt>
      <trkpt lat="44.50896" lon="4.93719">
        <ele>363</ele>
      </trkpt>
      <trkpt lat="44.50915" lon="4.93717">
        <ele>360</ele>
      </trkpt>
      <trkpt lat="44.50929" lon="4.93722">
        <ele>364</ele>
      </trkpt>
      <trkpt lat="44.50941" lon="4.93731">
        <ele>361</ele>
      </trkpt>
      <trkpt lat="44.50946" lon="4.93743">
        <ele>362</ele>
      </trkpt>
      <trkpt lat="44.50946" lon="4.93757">
        <ele>368</ele>
      </trkpt>
      <trkpt lat="44.50942" lon="4.93784">
        <ele>375</ele>
      </trkpt>
      <trkpt lat="44.50943" lon="4.93797">
        <ele>376</ele>
      </trkpt>
      <trkpt lat="44.50952" lon="4.93809">
        <ele>380</ele>
      </trkpt>
      <trkpt lat="44.5096" lon="4.93811">
        <ele>378</ele>
      </trkpt>
      <trkpt lat="44.50967" lon="4.93811">
        <ele>377</ele>
      </trkpt>
      <trkpt lat="44.5109" lon="4.93776">
        <ele>357</ele>
      </trkpt>
      <trkpt lat="44.51132" lon="4.93772">
        <ele>354</ele>
      </trkpt>
      <trkpt lat="44.51214" lon="4.93782">
        <ele>359</ele>
      </trkpt>
      <trkpt lat="44.51283" lon="4.93779">
        <ele>359</ele>
      </trkpt>
      <trkpt lat="44.5145" lon="4.93736">
        <ele>340</ele>
      </trkpt>
      <trkpt lat="44.5149" lon="4.93738">
        <ele>333</ele>
      </trkpt>
      <trkpt lat="44.51571" lon="4.93774">
        <ele>330</ele>
      </trkpt>
      <trkpt lat="44.51596" lon="4.9378">
        <ele>336</ele>
      </trkpt>
      <trkpt lat="44.51641" lon="4.93784">
        <ele>328</ele>
      </trkpt>
      <trkpt lat="44.51739" lon="4.93803">
        <ele>317</ele>
      </trkpt>
      <trkpt lat="44.5175" lon="4.93808">
        <ele>319</ele>
      </trkpt>
      <trkpt lat="44.51758" lon="4.93818">
        <ele>319</ele>
      </trkpt>
      <trkpt lat="44.51764" lon="4.93833">
        <ele>321</ele>
      </trkpt>
      <trkpt lat="44.51769" lon="4.93898">
        <ele>318</ele>
      </trkpt>
      <trkpt lat="44.51771" lon="4.93977">
        <ele>319</ele>
      </trkpt>
      <trkpt lat="44.51768" lon="4.93991">
        <ele>319</ele>
      </trkpt>
      <trkpt lat="44.51762" lon="4.94003">
        <ele>322</ele>
      </trkpt>
      <trkpt lat="44.51729" lon="4.94043">
        <ele>324</ele>
      </trkpt>
      <trkpt lat="44.51724" lon="4.94055">
        <ele>323</ele>
      </trkpt>
      <trkpt lat="44.51728" lon="4.94074">
        <ele>323</ele>
      </trkpt>
      <trkpt lat="44.5173" lon="4.94078">
        <ele>324</ele>
      </trkpt>
      <trkpt lat="44.51738" lon="4.94081">
        <ele>323</ele>
      </trkpt>
      <trkpt lat="44.51746" lon="4.9408">
        <ele>324</ele>
      </trkpt>
      <trkpt lat="44.51815" lon="4.94024">
        <ele>318</ele>
      </trkpt>
      <trkpt lat="44.51825" lon="4.9401">
        <ele>322</ele>
      </trkpt>
      <trkpt lat="44.51833" lon="4.93994">
        <ele>324</ele>
      </trkpt>
      <trkpt lat="44.51835" lon="4.93979">
        <ele>324</ele>
      </trkpt>
      <trkpt lat="44.51834" lon="4.93931">
        <ele>325</ele>
      </trkpt>
      <trkpt lat="44.51869" lon="4.93766">
        <ele>313</ele>
      </trkpt>
      <trkpt lat="44.51882" lon="4.93735">
        <ele>312</ele>
      </trkpt>
      <trkpt lat="44.51896" lon="4.93719">
        <ele>308</ele>
      </trkpt>
      <trkpt lat="44.51957" lon="4.93688">
        <ele>306</ele>
      </trkpt>
      <trkpt lat="44.52007" lon="4.93665">
        <ele>306</ele>
      </trkpt>
      <trkpt lat="44.52062" lon="4.9366">
        <ele>303</ele>
      </trkpt>
      <trkpt lat="44.52126" lon="4.93648">
        <ele>291</ele>
      </trkpt>
      <trkpt lat="44.52138" lon="4.93652">
        <ele>289</ele>
      </trkpt>
      <trkpt lat="44.52185" lon="4.93698">
        <ele>303</ele>
      </trkpt>
      <trkpt lat="44.52196" lon="4.93701">
        <ele>303</ele>
      </trkpt>
      <trkpt lat="44.52245" lon="4.93695">
        <ele>298</ele>
      </trkpt>
      <trkpt lat="44.52259" lon="4.93699">
        <ele>298</ele>
      </trkpt>
      <trkpt lat="44.52282" lon="4.93713">
        <ele>298</ele>
      </trkpt>
      <trkpt lat="44.52294" lon="4.93714">
        <ele>299</ele>
      </trkpt>
      <trkpt lat="44.523" lon="4.93709">
        <ele>299</ele>
      </trkpt>
      <trkpt lat="44.52316" lon="4.93678">
        <ele>294</ele>
      </trkpt>
      <trkpt lat="44.52332" lon="4.93663">
        <ele>291</ele>
      </trkpt>
      <trkpt lat="44.52624" lon="4.93499">
        <ele>275</ele>
      </trkpt>
      <trkpt lat="44.52732" lon="4.93436">
        <ele>273</ele>
      </trkpt>
      <trkpt lat="44.52836" lon="4.9335">
        <ele>264</ele>
      </trkpt>
      <trkpt lat="44.53008" lon="4.93211">
        <ele>252</ele>
      </trkpt>
      <trkpt lat="44.53045" lon="4.93202">
        <ele>249</ele>
      </trkpt>
      <trkpt lat="44.53809" lon="4.93365">
        <ele>226</ele>
      </trkpt>
      <trkpt lat="44.53839" lon="4.93372">
        <ele>225</ele>
      </trkpt>
      <trkpt lat="44.54313" lon="4.93475">
        <ele>214</ele>
      </trkpt>
      <trkpt lat="44.54347" lon="4.93484">
        <ele>214</ele>
      </trkpt>
      <trkpt lat="44.5444" lon="4.93501">
        <ele>219</ele>
      </trkpt>
      <trkpt lat="44.54454" lon="4.93507">
        <ele>219</ele>
      </trkpt>
      <trkpt lat="44.54467" lon="4.93508">
        <ele>221</ele>
      </trkpt>
      <trkpt lat="44.54469" lon="4.93512">
        <ele>222</ele>
      </trkpt>
      <trkpt lat="44.5447" lon="4.9353">
        <ele>222</ele>
      </trkpt>
      <trkpt lat="44.54467" lon="4.9357">
        <ele>222</ele>
      </trkpt>
      <trkpt lat="44.54468" lon="4.93609">
        <ele>222</ele>
      </trkpt>
      <trkpt lat="44.54451" lon="4.93722">
        <ele>229</ele>
      </trkpt>
      <trkpt lat="44.54411" lon="4.93929">
        <ele>220</ele>
      </trkpt>
      <trkpt lat="44.54391" lon="4.94031">
        <ele>219</ele>
      </trkpt>
      <trkpt lat="44.54382" lon="4.94069">
        <ele>220</ele>
      </trkpt>
      <trkpt lat="44.54358" lon="4.94151">
        <ele>220</ele>
      </trkpt>
      <trkpt lat="44.54321" lon="4.94414">
        <ele>224</ele>
      </trkpt>
      <trkpt lat="44.54321" lon="4.94427">
        <ele>225</ele>
      </trkpt>
      <trkpt lat="44.54332" lon="4.94542">
        <ele>229</ele>
      </trkpt>
      <trkpt lat="44.54333" lon="4.94571">
        <ele>229</ele>
      </trkpt>
      <trkpt lat="44.54329" lon="4.94597">
        <ele>229</ele>
      </trkpt>
      <trkpt lat="44.54326" lon="4.94607">
        <ele>229</ele>
      </trkpt>
      <trkpt lat="44.54281" lon="4.94699">
        <ele>228</ele>
      </trkpt>
      <trkpt lat="44.54271" lon="4.94731">
        <ele>228</ele>
      </trkpt>
      <trkpt lat="44.5427" lon="4.94745">
        <ele>228</ele>
      </trkpt>
      <trkpt lat="44.54252" lon="4.94831">
        <ele>231</ele>
      </trkpt>
      <trkpt lat="44.54226" lon="4.94991">
        <ele>233</ele>
      </trkpt>
      <trkpt lat="44.54215" lon="4.95175">
        <ele>242</ele>
      </trkpt>
      <trkpt lat="44.5421" lon="4.95199">
        <ele>246</ele>
      </trkpt>
      <trkpt lat="44.54201" lon="4.95222">
        <ele>243</ele>
      </trkpt>
      <trkpt lat="44.54105" lon="4.95379">
        <ele>235</ele>
      </trkpt>
      <trkpt lat="44.54093" lon="4.95414">
        <ele>234</ele>
      </trkpt>
      <trkpt lat="44.5409" lon="4.95438">
        <ele>235</ele>
      </trkpt>
      <trkpt lat="44.54094" lon="4.95539">
        <ele>235</ele>
      </trkpt>
      <trkpt lat="44.5409" lon="4.9557">
        <ele>234</ele>
      </trkpt>
      <trkpt lat="44.54079" lon="4.9563">
        <ele>235</ele>
      </trkpt>
      <trkpt lat="44.54063" lon="4.9569">
        <ele>237</ele>
      </trkpt>
      <trkpt lat="44.54053" lon="4.95714">
        <ele>240</ele>
      </trkpt>
      <trkpt lat="44.54038" lon="4.95746">
        <ele>238</ele>
      </trkpt>
      <trkpt lat="44.53992" lon="4.9583">
        <ele>240</ele>
      </trkpt>
      <trkpt lat="44.53964" lon="4.95877">
        <ele>240</ele>
      </trkpt>
      <trkpt lat="44.53934" lon="4.95924">
        <ele>238</ele>
      </trkpt>
      <trkpt lat="44.53905" lon="4.9596">
        <ele>237</ele>
      </trkpt>
      <trkpt lat="44.53882" lon="4.95997">
        <ele>237</ele>
      </trkpt>
      <trkpt lat="44.53872" lon="4.96018">
        <ele>237</ele>
      </trkpt>
      <trkpt lat="44.5386" lon="4.96058">
        <ele>236</ele>
      </trkpt>
      <trkpt lat="44.53855" lon="4.96096">
        <ele>236</ele>
      </trkpt>
      <trkpt lat="44.53843" lon="4.96165">
        <ele>239</ele>
      </trkpt>
      <trkpt lat="44.53831" lon="4.9621">
        <ele>247</ele>
      </trkpt>
      <trkpt lat="44.53808" lon="4.96252">
        <ele>252</ele>
      </trkpt>
      <trkpt lat="44.53782" lon="4.96282">
        <ele>252</ele>
      </trkpt>
      <trkpt lat="44.53757" lon="4.96306">
        <ele>251</ele>
      </trkpt>
      <trkpt lat="44.53705" lon="4.96346">
        <ele>247</ele>
      </trkpt>
      <trkpt lat="44.53658" lon="4.96377">
        <ele>249</ele>
      </trkpt>
      <trkpt lat="44.53575" lon="4.96411">
        <ele>246</ele>
      </trkpt>
      <trkpt lat="44.53536" lon="4.96433">
        <ele>245</ele>
      </trkpt>
      <trkpt lat="44.53511" lon="4.96454">
        <ele>245</ele>
      </trkpt>
      <trkpt lat="44.53486" lon="4.96488">
        <ele>248</ele>
      </trkpt>
      <trkpt lat="44.53446" lon="4.96547">
        <ele>253</ele>
      </trkpt>
      <trkpt lat="44.53417" lon="4.96584">
        <ele>259</ele>
      </trkpt>
      <trkpt lat="44.53398" lon="4.96602">
        <ele>255</ele>
      </trkpt>
      <trkpt lat="44.53179" lon="4.9672">
        <ele>259</ele>
      </trkpt>
      <trkpt lat="44.53154" lon="4.96741">
        <ele>265</ele>
      </trkpt>
      <trkpt lat="44.53139" lon="4.96757">
        <ele>270</ele>
      </trkpt>
      <trkpt lat="44.53119" lon="4.96782">
        <ele>270</ele>
      </trkpt>
      <trkpt lat="44.53095" lon="4.96819">
        <ele>269</ele>
      </trkpt>
      <trkpt lat="44.53044" lon="4.96744">
        <ele>255</ele>
      </trkpt>
      <trkpt lat="44.53017" lon="4.96706">
        <ele>258</ele>
      </trkpt>
      <trkpt lat="44.53006" lon="4.96693">
        <ele>262</ele>
      </trkpt>
      <trkpt lat="44.52986" lon="4.96697">
        <ele>261</ele>
      </trkpt>
      <trkpt lat="44.52905" lon="4.96741">
        <ele>263</ele>
      </trkpt>
      <trkpt lat="44.5289" lon="4.96734">
        <ele>267</ele>
      </trkpt>
      <trkpt lat="44.52851" lon="4.96725">
        <ele>268</ele>
        <extensions>
          <visugpx:TrkExtension xmlns:visugpx="https://www.visugpx.com/editgpx/">
            <visugpx:node>1</visugpx:node>
            </visugpx:TrkExtension>
        </extensions>
      </trkpt>
    </trkseg>
  </trk>
  <trk>
    <name><![CDATA[Souspierre_7]]></name>
    <extensions>
      <line xmlns="http://www.topografix.com/GPX/gpx_style/0/2">
        <color>FF0000</color>
        <width>4</width>
      </line>
    </extensions>
    <trkseg>
      <trkpt lat="44.5285" lon="4.96725">
        <ele>268</ele>
      </trkpt>
      <trkpt lat="44.5289" lon="4.96734">
        <ele>267</ele>
      </trkpt>
      <trkpt lat="44.52905" lon="4.96741">
        <ele>263</ele>
      </trkpt>
      <trkpt lat="44.52986" lon="4.96697">
        <ele>261</ele>
      </trkpt>
      <trkpt lat="44.53006" lon="4.96693">
        <ele>262</ele>
      </trkpt>
      <trkpt lat="44.53017" lon="4.96706">
        <ele>258</ele>
      </trkpt>
      <trkpt lat="44.53044" lon="4.96744">
        <ele>255</ele>
      </trkpt>
      <trkpt lat="44.53095" lon="4.96819">
        <ele>269</ele>
      </trkpt>
      <trkpt lat="44.53049" lon="4.96897">
        <ele>264</ele>
      </trkpt>
      <trkpt lat="44.52629" lon="4.9755">
        <ele>263</ele>
      </trkpt>
      <trkpt lat="44.52591" lon="4.97628">
        <ele>265</ele>
      </trkpt>
      <trkpt lat="44.5257" lon="4.97698">
        <ele>265</ele>
      </trkpt>
      <trkpt lat="44.52558" lon="4.97767">
        <ele>266</ele>
      </trkpt>
      <trkpt lat="44.52555" lon="4.97824">
        <ele>266</ele>
      </trkpt>
      <trkpt lat="44.52555" lon="4.97995">
        <ele>273</ele>
      </trkpt>
      <trkpt lat="44.52557" lon="4.98064">
        <ele>275</ele>
      </trkpt>
      <trkpt lat="44.52557" lon="4.98101">
        <ele>276</ele>
      </trkpt>
      <trkpt lat="44.52559" lon="4.98139">
        <ele>276</ele>
      </trkpt>
      <trkpt lat="44.52563" lon="4.98167">
        <ele>277</ele>
      </trkpt>
      <trkpt lat="44.52598" lon="4.98287">
        <ele>279</ele>
      </trkpt>
      <trkpt lat="44.52683" lon="4.98563">
        <ele>289</ele>
      </trkpt>
      <trkpt lat="44.52703" lon="4.9861">
        <ele>287</ele>
      </trkpt>
      <trkpt lat="44.52726" lon="4.9865">
        <ele>287</ele>
      </trkpt>
      <trkpt lat="44.52971" lon="4.98966">
        <ele>286</ele>
      </trkpt>
      <trkpt lat="44.53005" lon="4.99021">
        <ele>287</ele>
      </trkpt>
      <trkpt lat="44.53024" lon="4.99057">
        <ele>289</ele>
      </trkpt>
      <trkpt lat="44.53052" lon="4.99125">
        <ele>290</ele>
      </trkpt>
      <trkpt lat="44.53064" lon="4.99161">
        <ele>287</ele>
      </trkpt>
      <trkpt lat="44.53231" lon="4.99785">
        <ele>292</ele>
      </trkpt>
      <trkpt lat="44.5324" lon="4.99833">
        <ele>295</ele>
      </trkpt>
      <trkpt lat="44.53247" lon="4.9989">
        <ele>294</ele>
      </trkpt>
      <trkpt lat="44.53248" lon="4.99967">
        <ele>296</ele>
      </trkpt>
      <trkpt lat="44.53244" lon="5.00027">
        <ele>299</ele>
      </trkpt>
      <trkpt lat="44.53235" lon="5.00081">
        <ele>297</ele>
      </trkpt>
      <trkpt lat="44.53191" lon="5.00272">
        <ele>301</ele>
      </trkpt>
      <trkpt lat="44.53167" lon="5.00399">
        <ele>301</ele>
      </trkpt>
      <trkpt lat="44.53159" lon="5.00454">
        <ele>301</ele>
      </trkpt>
      <trkpt lat="44.5312" lon="5.00837">
        <ele>309</ele>
      </trkpt>
      <trkpt lat="44.53109" lon="5.00982">
        <ele>308</ele>
      </trkpt>
      <trkpt lat="44.53107" lon="5.01034">
        <ele>310</ele>
      </trkpt>
      <trkpt lat="44.53102" lon="5.01084">
        <ele>312</ele>
      </trkpt>
      <trkpt lat="44.53082" lon="5.012">
        <ele>314</ele>
      </trkpt>
      <trkpt lat="44.5307" lon="5.01254">
        <ele>315</ele>
      </trkpt>
      <trkpt lat="44.53047" lon="5.0133">
        <ele>316</ele>
      </trkpt>
      <trkpt lat="44.53026" lon="5.01415">
        <ele>318</ele>
      </trkpt>
      <trkpt lat="44.52958" lon="5.0166">
        <ele>314</ele>
      </trkpt>
      <trkpt lat="44.52955" lon="5.01681">
        <ele>314</ele>
      </trkpt>
      <trkpt lat="44.52963" lon="5.01975">
        <ele>313</ele>
      </trkpt>
      <trkpt lat="44.52965" lon="5.021">
        <ele>317</ele>
      </trkpt>
      <trkpt lat="44.52958" lon="5.02355">
        <ele>324</ele>
      </trkpt>
      <trkpt lat="44.52955" lon="5.02418">
        <ele>326</ele>
      </trkpt>
      <trkpt lat="44.52946" lon="5.02456">
        <ele>327</ele>
      </trkpt>
      <trkpt lat="44.52934" lon="5.02489">
        <ele>328</ele>
      </trkpt>
      <trkpt lat="44.52911" lon="5.02533">
        <ele>328</ele>
      </trkpt>
      <trkpt lat="44.52881" lon="5.02578">
        <ele>328</ele>
      </trkpt>
      <trkpt lat="44.52703" lon="5.02801">
        <ele>328</ele>
      </trkpt>
      <trkpt lat="44.52691" lon="5.02819">
        <ele>329</ele>
      </trkpt>
      <trkpt lat="44.52684" lon="5.02834">
        <ele>330</ele>
      </trkpt>
      <trkpt lat="44.52671" lon="5.02866">
        <ele>332</ele>
      </trkpt>
      <trkpt lat="44.52619" lon="5.03041">
        <ele>332</ele>
      </trkpt>
      <trkpt lat="44.52604" lon="5.03112">
        <ele>333</ele>
      </trkpt>
      <trkpt lat="44.52593" lon="5.03174">
        <ele>331</ele>
      </trkpt>
      <trkpt lat="44.5258" lon="5.03264">
        <ele>332</ele>
      </trkpt>
      <trkpt lat="44.52569" lon="5.03357">
        <ele>334</ele>
      </trkpt>
      <trkpt lat="44.52555" lon="5.03566">
        <ele>336</ele>
      </trkpt>
      <trkpt lat="44.5256" lon="5.03569">
        <ele>336</ele>
      </trkpt>
      <trkpt lat="44.52664" lon="5.03602">
        <ele>348</ele>
      </trkpt>
      <trkpt lat="44.52673" lon="5.03612">
        <ele>349</ele>
      </trkpt>
      <trkpt lat="44.52686" lon="5.03632">
        <ele>354</ele>
      </trkpt>
      <trkpt lat="44.52693" lon="5.03663">
        <ele>355</ele>
      </trkpt>
      <trkpt lat="44.52699" lon="5.03698">
        <ele>356</ele>
      </trkpt>
      <trkpt lat="44.52702" lon="5.03739">
        <ele>357</ele>
      </trkpt>
      <trkpt lat="44.52705" lon="5.03752">
        <ele>358</ele>
      </trkpt>
      <trkpt lat="44.52709" lon="5.03759">
        <ele>358</ele>
      </trkpt>
      <trkpt lat="44.52754" lon="5.038">
        <ele>364</ele>
      </trkpt>
      <trkpt lat="44.52763" lon="5.03823">
        <ele>365</ele>
      </trkpt>
      <trkpt lat="44.52807" lon="5.03972">
        <ele>372</ele>
      </trkpt>
      <trkpt lat="44.52814" lon="5.03989">
        <ele>374</ele>
      </trkpt>
      <trkpt lat="44.52823" lon="5.03996">
        <ele>374</ele>
      </trkpt>
      <trkpt lat="44.52838" lon="5.03999">
        <ele>374</ele>
      </trkpt>
      <trkpt lat="44.52851" lon="5.04006">
        <ele>375</ele>
      </trkpt>
      <trkpt lat="44.52861" lon="5.04016">
        <ele>375</ele>
      </trkpt>
      <trkpt lat="44.52861" lon="5.04041">
        <ele>375</ele>
      </trkpt>
      <trkpt lat="44.52843" lon="5.04067">
        <ele>378</ele>
      </trkpt>
      <trkpt lat="44.52802" lon="5.04083">
        <ele>383</ele>
      </trkpt>
      <trkpt lat="44.52744" lon="5.04109">
        <ele>391</ele>
      </trkpt>
      <trkpt lat="44.52737" lon="5.0413">
        <ele>393</ele>
      </trkpt>
      <trkpt lat="44.52744" lon="5.04174">
        <ele>394</ele>
      </trkpt>
      <trkpt lat="44.52761" lon="5.0424">
        <ele>393</ele>
      </trkpt>
      <trkpt lat="44.52772" lon="5.04298">
        <ele>392</ele>
      </trkpt>
      <trkpt lat="44.52762" lon="5.04376">
        <ele>398</ele>
      </trkpt>
      <trkpt lat="44.52747" lon="5.04426">
        <ele>404</ele>
      </trkpt>
      <trkpt lat="44.52722" lon="5.04481">
        <ele>409</ele>
      </trkpt>
      <trkpt lat="44.52696" lon="5.04513">
        <ele>411</ele>
      </trkpt>
      <trkpt lat="44.52631" lon="5.04576">
        <ele>416</ele>
      </trkpt>
      <trkpt lat="44.52611" lon="5.04615">
        <ele>421</ele>
      </trkpt>
      <trkpt lat="44.5258" lon="5.04701">
        <ele>425</ele>
      </trkpt>
      <trkpt lat="44.52569" lon="5.04774">
        <ele>422</ele>
      </trkpt>
      <trkpt lat="44.5257" lon="5.04819">
        <ele>424</ele>
      </trkpt>
      <trkpt lat="44.52573" lon="5.04852">
        <ele>430</ele>
      </trkpt>
      <trkpt lat="44.52584" lon="5.04901">
        <ele>429</ele>
      </trkpt>
      <trkpt lat="44.52609" lon="5.04995">
        <ele>426</ele>
      </trkpt>
      <trkpt lat="44.52625" lon="5.0503">
        <ele>424</ele>
      </trkpt>
      <trkpt lat="44.52677" lon="5.05113">
        <ele>420</ele>
      </trkpt>
      <trkpt lat="44.52712" lon="5.05139">
        <ele>425</ele>
      </trkpt>
      <trkpt lat="44.52765" lon="5.05193">
        <ele>424</ele>
      </trkpt>
      <trkpt lat="44.52817" lon="5.0525">
        <ele>424</ele>
      </trkpt>
      <trkpt lat="44.52833" lon="5.0527">
        <ele>425</ele>
      </trkpt>
      <trkpt lat="44.52858" lon="5.0534">
        <ele>420</ele>
      </trkpt>
      <trkpt lat="44.52881" lon="5.05366">
        <ele>419</ele>
      </trkpt>
      <trkpt lat="44.52888" lon="5.05381">
        <ele>419</ele>
      </trkpt>
      <trkpt lat="44.52885" lon="5.05439">
        <ele>416</ele>
      </trkpt>
      <trkpt lat="44.52872" lon="5.05507">
        <ele>415</ele>
      </trkpt>
      <trkpt lat="44.5285" lon="5.05539">
        <ele>416</ele>
      </trkpt>
      <trkpt lat="44.52822" lon="5.05583">
        <ele>417</ele>
      </trkpt>
      <trkpt lat="44.52796" lon="5.05639">
        <ele>415</ele>
      </trkpt>
      <trkpt lat="44.52768" lon="5.05691">
        <ele>413</ele>
      </trkpt>
      <trkpt lat="44.52764" lon="5.05706">
        <ele>412</ele>
      </trkpt>
      <trkpt lat="44.52754" lon="5.05761">
        <ele>410</ele>
      </trkpt>
      <trkpt lat="44.52745" lon="5.05832">
        <ele>409</ele>
      </trkpt>
      <trkpt lat="44.52733" lon="5.05869">
        <ele>403</ele>
      </trkpt>
      <trkpt lat="44.52731" lon="5.05887">
        <ele>402</ele>
      </trkpt>
      <trkpt lat="44.52641" lon="5.05955">
        <ele>392</ele>
      </trkpt>
      <trkpt lat="44.52619" lon="5.05975">
        <ele>391</ele>
      </trkpt>
      <trkpt lat="44.52629" lon="5.05979">
        <ele>391</ele>
      </trkpt>
      <trkpt lat="44.52645" lon="5.05992">
        <ele>391</ele>
      </trkpt>
      <trkpt lat="44.52713" lon="5.06061">
        <ele>394</ele>
      </trkpt>
      <trkpt lat="44.52789" lon="5.06162">
        <ele>396</ele>
      </trkpt>
      <trkpt lat="44.52829" lon="5.06212">
        <ele>402</ele>
      </trkpt>
      <trkpt lat="44.53004" lon="5.06396">
        <ele>401</ele>
      </trkpt>
      <trkpt lat="44.53023" lon="5.06421">
        <ele>401</ele>
      </trkpt>
      <trkpt lat="44.53041" lon="5.06453">
        <ele>400</ele>
      </trkpt>
      <trkpt lat="44.53054" lon="5.06487">
        <ele>399</ele>
      </trkpt>
      <trkpt lat="44.53061" lon="5.06514">
        <ele>398</ele>
      </trkpt>
      <trkpt lat="44.53067" lon="5.06549">
        <ele>398</ele>
      </trkpt>
      <trkpt lat="44.53071" lon="5.06588">
        <ele>399</ele>
      </trkpt>
      <trkpt lat="44.53075" lon="5.06688">
        <ele>399</ele>
      </trkpt>
      <trkpt lat="44.53068" lon="5.06719">
        <ele>397</ele>
      </trkpt>
      <trkpt lat="44.53064" lon="5.06728">
        <ele>399</ele>
      </trkpt>
      <trkpt lat="44.53064" lon="5.06735">
        <ele>399</ele>
      </trkpt>
      <trkpt lat="44.53066" lon="5.06741">
        <ele>400</ele>
      </trkpt>
      <trkpt lat="44.5307" lon="5.06746">
        <ele>400</ele>
      </trkpt>
      <trkpt lat="44.53075" lon="5.06748">
        <ele>402</ele>
      </trkpt>
      <trkpt lat="44.5308" lon="5.06747">
        <ele>402</ele>
      </trkpt>
      <trkpt lat="44.53084" lon="5.06742">
        <ele>402</ele>
      </trkpt>
      <trkpt lat="44.53094" lon="5.06739">
        <ele>402</ele>
      </trkpt>
      <trkpt lat="44.53122" lon="5.06744">
        <ele>404</ele>
      </trkpt>
      <trkpt lat="44.53236" lon="5.06792">
        <ele>409</ele>
      </trkpt>
      <trkpt lat="44.53295" lon="5.06832">
        <ele>411</ele>
      </trkpt>
      <trkpt lat="44.53486" lon="5.06976">
        <ele>418</ele>
      </trkpt>
      <trkpt lat="44.53605" lon="5.07088">
        <ele>424</ele>
      </trkpt>
      <trkpt lat="44.53799" lon="5.07278">
        <ele>426</ele>
      </trkpt>
      <trkpt lat="44.53957" lon="5.07451">
        <ele>431</ele>
      </trkpt>
      <trkpt lat="44.53967" lon="5.07456">
        <ele>431</ele>
      </trkpt>
      <trkpt lat="44.54001" lon="5.07454">
        <ele>433</ele>
      </trkpt>
      <trkpt lat="44.54019" lon="5.07462">
        <ele>436</ele>
      </trkpt>
      <trkpt lat="44.54102" lon="5.07544">
        <ele>447</ele>
      </trkpt>
      <trkpt lat="44.54152" lon="5.07585">
        <ele>443</ele>
      </trkpt>
      <trkpt lat="44.54194" lon="5.07613">
        <ele>448</ele>
      </trkpt>
      <trkpt lat="44.54307" lon="5.07706">
        <ele>462</ele>
      </trkpt>
      <trkpt lat="44.54349" lon="5.07733">
        <ele>456</ele>
      </trkpt>
      <trkpt lat="44.54394" lon="5.07754">
        <ele>452</ele>
      </trkpt>
      <trkpt lat="44.54473" lon="5.07797">
        <ele>454</ele>
      </trkpt>
      <trkpt lat="44.54574" lon="5.07817">
        <ele>461</ele>
      </trkpt>
      <trkpt lat="44.54611" lon="5.07832">
        <ele>466</ele>
      </trkpt>
      <trkpt lat="44.54623" lon="5.07838">
        <ele>462</ele>
      </trkpt>
      <trkpt lat="44.54664" lon="5.07873">
        <ele>461</ele>
      </trkpt>
      <trkpt lat="44.54683" lon="5.07892">
        <ele>462</ele>
      </trkpt>
      <trkpt lat="44.54725" lon="5.07931">
        <ele>464</ele>
      </trkpt>
      <trkpt lat="44.54784" lon="5.07978">
        <ele>470</ele>
      </trkpt>
      <trkpt lat="44.54808" lon="5.08">
        <ele>477</ele>
      </trkpt>
      <trkpt lat="44.54876" lon="5.08102">
        <ele>471</ele>
      </trkpt>
      <trkpt lat="44.54883" lon="5.08116">
        <ele>475</ele>
      </trkpt>
      <trkpt lat="44.54889" lon="5.0813">
        <ele>475</ele>
      </trkpt>
      <trkpt lat="44.54897" lon="5.08165">
        <ele>472</ele>
      </trkpt>
      <trkpt lat="44.54903" lon="5.08189">
        <ele>470</ele>
      </trkpt>
      <trkpt lat="44.54912" lon="5.08211">
        <ele>472</ele>
      </trkpt>
      <trkpt lat="44.54924" lon="5.0823">
        <ele>470</ele>
      </trkpt>
      <trkpt lat="44.54944" lon="5.08247">
        <ele>474</ele>
      </trkpt>
      <trkpt lat="44.54962" lon="5.08257">
        <ele>478</ele>
      </trkpt>
      <trkpt lat="44.54995" lon="5.08292">
        <ele>483</ele>
      </trkpt>
      <trkpt lat="44.55025" lon="5.0833">
        <ele>489</ele>
      </trkpt>
      <trkpt lat="44.55035" lon="5.08349">
        <ele>488</ele>
      </trkpt>
      <trkpt lat="44.55061" lon="5.08418">
        <ele>490</ele>
      </trkpt>
      <trkpt lat="44.55082" lon="5.08447">
        <ele>490</ele>
      </trkpt>
      <trkpt lat="44.55113" lon="5.08487">
        <ele>491</ele>
      </trkpt>
      <trkpt lat="44.55145" lon="5.08532">
        <ele>494</ele>
      </trkpt>
      <trkpt lat="44.55174" lon="5.08582">
        <ele>497</ele>
      </trkpt>
      <trkpt lat="44.55303" lon="5.08822">
        <ele>511</ele>
      </trkpt>
      <trkpt lat="44.55311" lon="5.08827">
        <ele>511</ele>
      </trkpt>
      <trkpt lat="44.55315" lon="5.08827">
        <ele>511</ele>
      </trkpt>
      <trkpt lat="44.5532" lon="5.08822">
        <ele>511</ele>
      </trkpt>
      <trkpt lat="44.55322" lon="5.08816">
        <ele>514</ele>
      </trkpt>
      <trkpt lat="44.55323" lon="5.08769">
        <ele>518</ele>
      </trkpt>
      <trkpt lat="44.55334" lon="5.08655">
        <ele>527</ele>
      </trkpt>
      <trkpt lat="44.55338" lon="5.08632">
        <ele>528</ele>
      </trkpt>
      <trkpt lat="44.5534" lon="5.08623">
        <ele>528</ele>
      </trkpt>
      <trkpt lat="44.55344" lon="5.08618">
        <ele>528</ele>
      </trkpt>
      <trkpt lat="44.55347" lon="5.08616">
        <ele>529</ele>
      </trkpt>
      <trkpt lat="44.55351" lon="5.08617">
        <ele>533</ele>
      </trkpt>
      <trkpt lat="44.55355" lon="5.08621">
        <ele>534</ele>
      </trkpt>
      <trkpt lat="44.55356" lon="5.08627">
        <ele>534</ele>
      </trkpt>
      <trkpt lat="44.55354" lon="5.08653">
        <ele>532</ele>
      </trkpt>
      <trkpt lat="44.55355" lon="5.08673">
        <ele>531</ele>
      </trkpt>
      <trkpt lat="44.55366" lon="5.08704">
        <ele>530</ele>
      </trkpt>
      <trkpt lat="44.55374" lon="5.08714">
        <ele>530</ele>
      </trkpt>
      <trkpt lat="44.55392" lon="5.08732">
        <ele>532</ele>
      </trkpt>
      <trkpt lat="44.55464" lon="5.08781">
        <ele>544</ele>
      </trkpt>
      <trkpt lat="44.55473" lon="5.08792">
        <ele>544</ele>
      </trkpt>
      <trkpt lat="44.55494" lon="5.0884">
        <ele>548</ele>
      </trkpt>
      <trkpt lat="44.55498" lon="5.08851">
        <ele>548</ele>
      </trkpt>
      <trkpt lat="44.55499" lon="5.08863">
        <ele>548</ele>
      </trkpt>
      <trkpt lat="44.55491" lon="5.08897">
        <ele>544</ele>
      </trkpt>
      <trkpt lat="44.55493" lon="5.08906">
        <ele>544</ele>
      </trkpt>
      <trkpt lat="44.55495" lon="5.0891">
        <ele>544</ele>
      </trkpt>
      <trkpt lat="44.55499" lon="5.08915">
        <ele>543</ele>
      </trkpt>
      <trkpt lat="44.55504" lon="5.08916">
        <ele>544</ele>
      </trkpt>
      <trkpt lat="44.55541" lon="5.08911">
        <ele>547</ele>
      </trkpt>
      <trkpt lat="44.55562" lon="5.08912">
        <ele>550</ele>
      </trkpt>
      <trkpt lat="44.55586" lon="5.08916">
        <ele>553</ele>
      </trkpt>
      <trkpt lat="44.55604" lon="5.08922">
        <ele>556</ele>
      </trkpt>
      <trkpt lat="44.55612" lon="5.08927">
        <ele>556</ele>
      </trkpt>
      <trkpt lat="44.5562" lon="5.08937">
        <ele>556</ele>
      </trkpt>
      <trkpt lat="44.55623" lon="5.08953">
        <ele>555</ele>
      </trkpt>
      <trkpt lat="44.55622" lon="5.08974">
        <ele>555</ele>
      </trkpt>
      <trkpt lat="44.55624" lon="5.08986">
        <ele>553</ele>
      </trkpt>
      <trkpt lat="44.5563" lon="5.08996">
        <ele>556</ele>
      </trkpt>
      <trkpt lat="44.55641" lon="5.09002">
        <ele>556</ele>
      </trkpt>
      <trkpt lat="44.55655" lon="5.09007">
        <ele>557</ele>
      </trkpt>
      <trkpt lat="44.55765" lon="5.09027">
        <ele>566</ele>
      </trkpt>
      <trkpt lat="44.55772" lon="5.09026">
        <ele>568</ele>
      </trkpt>
      <trkpt lat="44.55777" lon="5.09022">
        <ele>568</ele>
      </trkpt>
      <trkpt lat="44.55779" lon="5.09014">
        <ele>568</ele>
      </trkpt>
      <trkpt lat="44.55777" lon="5.09005">
        <ele>569</ele>
      </trkpt>
      <trkpt lat="44.55773" lon="5.08999">
        <ele>573</ele>
      </trkpt>
      <trkpt lat="44.55763" lon="5.08995">
        <ele>571</ele>
      </trkpt>
      <trkpt lat="44.55748" lon="5.08992">
        <ele>571</ele>
      </trkpt>
      <trkpt lat="44.55735" lon="5.08985">
        <ele>571</ele>
      </trkpt>
      <trkpt lat="44.55717" lon="5.08971">
        <ele>575</ele>
      </trkpt>
      <trkpt lat="44.55707" lon="5.08961">
        <ele>573</ele>
      </trkpt>
      <trkpt lat="44.55701" lon="5.08952">
        <ele>574</ele>
      </trkpt>
      <trkpt lat="44.55698" lon="5.08941">
        <ele>577</ele>
      </trkpt>
      <trkpt lat="44.55697" lon="5.08929">
        <ele>578</ele>
      </trkpt>
      <trkpt lat="44.55699" lon="5.08916">
        <ele>581</ele>
      </trkpt>
      <trkpt lat="44.55711" lon="5.08873">
        <ele>589</ele>
      </trkpt>
      <trkpt lat="44.55714" lon="5.08859">
        <ele>591</ele>
      </trkpt>
      <trkpt lat="44.55714" lon="5.08849">
        <ele>592</ele>
      </trkpt>
      <trkpt lat="44.55713" lon="5.08839">
        <ele>592</ele>
      </trkpt>
      <trkpt lat="44.55706" lon="5.0883">
        <ele>588</ele>
      </trkpt>
      <trkpt lat="44.55685" lon="5.0882">
        <ele>586</ele>
      </trkpt>
      <trkpt lat="44.55677" lon="5.0881">
        <ele>582</ele>
      </trkpt>
      <trkpt lat="44.55675" lon="5.08798">
        <ele>583</ele>
      </trkpt>
      <trkpt lat="44.55682" lon="5.0875">
        <ele>589</ele>
      </trkpt>
      <trkpt lat="44.55685" lon="5.08743">
        <ele>595</ele>
      </trkpt>
      <trkpt lat="44.55691" lon="5.0874">
        <ele>595</ele>
      </trkpt>
      <trkpt lat="44.55698" lon="5.08741">
        <ele>596</ele>
      </trkpt>
      <trkpt lat="44.55704" lon="5.08746">
        <ele>597</ele>
      </trkpt>
      <trkpt lat="44.5572" lon="5.08791">
        <ele>598</ele>
      </trkpt>
      <trkpt lat="44.55746" lon="5.0884">
        <ele>598</ele>
      </trkpt>
      <trkpt lat="44.55758" lon="5.08856">
        <ele>598</ele>
      </trkpt>
      <trkpt lat="44.55775" lon="5.08868">
        <ele>599</ele>
      </trkpt>
      <trkpt lat="44.55828" lon="5.08892">
        <ele>597</ele>
      </trkpt>
      <trkpt lat="44.55839" lon="5.08894">
        <ele>597</ele>
      </trkpt>
      <trkpt lat="44.55849" lon="5.08891">
        <ele>600</ele>
      </trkpt>
      <trkpt lat="44.55858" lon="5.08884">
        <ele>601</ele>
      </trkpt>
      <trkpt lat="44.5588" lon="5.08863">
        <ele>607</ele>
      </trkpt>
      <trkpt lat="44.55888" lon="5.08858">
        <ele>608</ele>
      </trkpt>
      <trkpt lat="44.55902" lon="5.08859">
        <ele>608</ele>
      </trkpt>
      <trkpt lat="44.56201" lon="5.08925">
        <ele>626</ele>
      </trkpt>
      <trkpt lat="44.5621" lon="5.08929">
        <ele>627</ele>
      </trkpt>
      <trkpt lat="44.56218" lon="5.08935">
        <ele>628</ele>
      </trkpt>
      <trkpt lat="44.56222" lon="5.0894">
        <ele>628</ele>
      </trkpt>
      <trkpt lat="44.56225" lon="5.08948">
        <ele>628</ele>
      </trkpt>
      <trkpt lat="44.56226" lon="5.08957">
        <ele>628</ele>
      </trkpt>
      <trkpt lat="44.56224" lon="5.0897">
        <ele>628</ele>
      </trkpt>
      <trkpt lat="44.56216" lon="5.08989">
        <ele>629</ele>
      </trkpt>
      <trkpt lat="44.56173" lon="5.09063">
        <ele>633</ele>
      </trkpt>
      <trkpt lat="44.56168" lon="5.09082">
        <ele>634</ele>
      </trkpt>
      <trkpt lat="44.56164" lon="5.09103">
        <ele>637</ele>
      </trkpt>
      <trkpt lat="44.56178" lon="5.09313">
        <ele>642</ele>
      </trkpt>
      <trkpt lat="44.5619" lon="5.09381">
        <ele>646</ele>
      </trkpt>
      <trkpt lat="44.56209" lon="5.09467">
        <ele>647</ele>
      </trkpt>
      <trkpt lat="44.56217" lon="5.0953">
        <ele>653</ele>
      </trkpt>
      <trkpt lat="44.56218" lon="5.09566">
        <ele>651</ele>
      </trkpt>
      <trkpt lat="44.5621" lon="5.09636">
        <ele>640</ele>
      </trkpt>
      <trkpt lat="44.56213" lon="5.09659">
        <ele>643</ele>
      </trkpt>
      <trkpt lat="44.56218" lon="5.09681">
        <ele>642</ele>
      </trkpt>
      <trkpt lat="44.56228" lon="5.09701">
        <ele>641</ele>
      </trkpt>
      <trkpt lat="44.56247" lon="5.09731">
        <ele>644</ele>
      </trkpt>
      <trkpt lat="44.56361" lon="5.09873">
        <ele>635</ele>
      </trkpt>
      <trkpt lat="44.56357" lon="5.09882">
        <ele>635</ele>
      </trkpt>
      <trkpt lat="44.56358" lon="5.09892">
        <ele>636</ele>
      </trkpt>
      <trkpt lat="44.56366" lon="5.09903">
        <ele>636</ele>
      </trkpt>
      <trkpt lat="44.5637" lon="5.09916">
        <ele>636</ele>
      </trkpt>
      <trkpt lat="44.56374" lon="5.09937">
        <ele>636</ele>
      </trkpt>
      <trkpt lat="44.5643" lon="5.10361">
        <ele>648</ele>
      </trkpt>
      <trkpt lat="44.56429" lon="5.10379">
        <ele>649</ele>
      </trkpt>
      <trkpt lat="44.56404" lon="5.10488">
        <ele>655</ele>
      </trkpt>
      <trkpt lat="44.56393" lon="5.10543">
        <ele>659</ele>
      </trkpt>
      <trkpt lat="44.56384" lon="5.10604">
        <ele>665</ele>
      </trkpt>
      <trkpt lat="44.56379" lon="5.10627">
        <ele>668</ele>
      </trkpt>
      <trkpt lat="44.56371" lon="5.10647">
        <ele>668</ele>
      </trkpt>
      <trkpt lat="44.56361" lon="5.10662">
        <ele>667</ele>
      </trkpt>
      <trkpt lat="44.56285" lon="5.10762">
        <ele>660</ele>
      </trkpt>
      <trkpt lat="44.56264" lon="5.10787">
        <ele>661</ele>
      </trkpt>
      <trkpt lat="44.56216" lon="5.10832">
        <ele>662</ele>
      </trkpt>
      <trkpt lat="44.56192" lon="5.10857">
        <ele>663</ele>
      </trkpt>
      <trkpt lat="44.5609" lon="5.10982">
        <ele>668</ele>
      </trkpt>
      <trkpt lat="44.56077" lon="5.10999">
        <ele>668</ele>
      </trkpt>
      <trkpt lat="44.56057" lon="5.11043">
        <ele>670</ele>
      </trkpt>
      <trkpt lat="44.56033" lon="5.11087">
        <ele>676</ele>
      </trkpt>
      <trkpt lat="44.5602" lon="5.11131">
        <ele>677</ele>
      </trkpt>
      <trkpt lat="44.56002" lon="5.11176">
        <ele>679</ele>
      </trkpt>
      <trkpt lat="44.55995" lon="5.11215">
        <ele>681</ele>
      </trkpt>
      <trkpt lat="44.55988" lon="5.11233">
        <ele>683</ele>
      </trkpt>
      <trkpt lat="44.55974" lon="5.11259">
        <ele>683</ele>
      </trkpt>
      <trkpt lat="44.55957" lon="5.11283">
        <ele>684</ele>
      </trkpt>
      <trkpt lat="44.5591" lon="5.11341">
        <ele>684</ele>
      </trkpt>
      <trkpt lat="44.55892" lon="5.1136">
        <ele>683</ele>
      </trkpt>
      <trkpt lat="44.55826" lon="5.11417">
        <ele>685</ele>
      </trkpt>
      <trkpt lat="44.558" lon="5.11436">
        <ele>685</ele>
      </trkpt>
      <trkpt lat="44.55827" lon="5.11553">
        <ele>691</ele>
      </trkpt>
      <trkpt lat="44.55836" lon="5.11572">
        <ele>692</ele>
      </trkpt>
      <trkpt lat="44.55921" lon="5.11681">
        <ele>698</ele>
      </trkpt>
      <trkpt lat="44.55928" lon="5.11696">
        <ele>699</ele>
      </trkpt>
      <trkpt lat="44.55933" lon="5.11713">
        <ele>700</ele>
      </trkpt>
      <trkpt lat="44.55942" lon="5.11758">
        <ele>702</ele>
      </trkpt>
      <trkpt lat="44.55949" lon="5.11767">
        <ele>702</ele>
      </trkpt>
      <trkpt lat="44.55986" lon="5.11786">
        <ele>703</ele>
      </trkpt>
      <trkpt lat="44.56022" lon="5.11789">
        <ele>705</ele>
      </trkpt>
      <trkpt lat="44.56048" lon="5.11798">
        <ele>705</ele>
      </trkpt>
      <trkpt lat="44.56118" lon="5.11833">
        <ele>701</ele>
      </trkpt>
      <trkpt lat="44.5615" lon="5.11845">
        <ele>695</ele>
      </trkpt>
      <trkpt lat="44.56211" lon="5.11855">
        <ele>698</ele>
      </trkpt>
      <trkpt lat="44.56242" lon="5.11865">
        <ele>696</ele>
      </trkpt>
      <trkpt lat="44.5626" lon="5.11878">
        <ele>696</ele>
      </trkpt>
      <trkpt lat="44.56308" lon="5.11905">
        <ele>692</ele>
      </trkpt>
      <trkpt lat="44.56405" lon="5.11947">
        <ele>682</ele>
      </trkpt>
      <trkpt lat="44.56397" lon="5.11967">
        <ele>677</ele>
      </trkpt>
      <trkpt lat="44.56362" lon="5.12002">
        <ele>673</ele>
      </trkpt>
      <trkpt lat="44.56345" lon="5.12025">
        <ele>670</ele>
      </trkpt>
      <trkpt lat="44.56298" lon="5.12098">
        <ele>660</ele>
      </trkpt>
      <trkpt lat="44.56289" lon="5.12107">
        <ele>660</ele>
      </trkpt>
      <trkpt lat="44.5628" lon="5.12107">
        <ele>660</ele>
      </trkpt>
      <trkpt lat="44.56271" lon="5.12103">
        <ele>660</ele>
      </trkpt>
      <trkpt lat="44.5626" lon="5.12095">
        <ele>659</ele>
      </trkpt>
      <trkpt lat="44.56246" lon="5.12079">
        <ele>662</ele>
      </trkpt>
      <trkpt lat="44.56236" lon="5.12065">
        <ele>659</ele>
      </trkpt>
      <trkpt lat="44.56221" lon="5.12051">
        <ele>660</ele>
      </trkpt>
      <trkpt lat="44.5621" lon="5.12042">
        <ele>657</ele>
      </trkpt>
      <trkpt lat="44.56199" lon="5.12036">
        <ele>657</ele>
      </trkpt>
      <trkpt lat="44.56187" lon="5.12032">
        <ele>657</ele>
      </trkpt>
      <trkpt lat="44.56174" lon="5.12033">
        <ele>654</ele>
      </trkpt>
      <trkpt lat="44.56158" lon="5.12038">
        <ele>653</ele>
      </trkpt>
      <trkpt lat="44.56138" lon="5.12053">
        <ele>652</ele>
      </trkpt>
      <trkpt lat="44.56124" lon="5.12078">
        <ele>650</ele>
      </trkpt>
      <trkpt lat="44.56116" lon="5.12122">
        <ele>646</ele>
      </trkpt>
      <trkpt lat="44.56097" lon="5.12202">
        <ele>642</ele>
      </trkpt>
      <trkpt lat="44.56091" lon="5.12218">
        <ele>642</ele>
      </trkpt>
      <trkpt lat="44.56075" lon="5.12248">
        <ele>641</ele>
      </trkpt>
      <trkpt lat="44.56068" lon="5.12266">
        <ele>643</ele>
      </trkpt>
      <trkpt lat="44.56063" lon="5.12285">
        <ele>642</ele>
      </trkpt>
      <trkpt lat="44.5606" lon="5.12305">
        <ele>642</ele>
      </trkpt>
      <trkpt lat="44.5606" lon="5.12326">
        <ele>640</ele>
      </trkpt>
      <trkpt lat="44.56061" lon="5.12369">
        <ele>638</ele>
      </trkpt>
      <trkpt lat="44.56056" lon="5.12425">
        <ele>638</ele>
      </trkpt>
      <trkpt lat="44.56058" lon="5.1244">
        <ele>638</ele>
      </trkpt>
      <trkpt lat="44.56066" lon="5.12472">
        <ele>636</ele>
      </trkpt>
      <trkpt lat="44.56066" lon="5.12486">
        <ele>636</ele>
      </trkpt>
      <trkpt lat="44.56063" lon="5.12496">
        <ele>636</ele>
      </trkpt>
      <trkpt lat="44.56042" lon="5.12526">
        <ele>638</ele>
      </trkpt>
      <trkpt lat="44.5603" lon="5.12529">
        <ele>638</ele>
      </trkpt>
      <trkpt lat="44.56018" lon="5.12527">
        <ele>638</ele>
      </trkpt>
      <trkpt lat="44.55993" lon="5.1251">
        <ele>640</ele>
      </trkpt>
      <trkpt lat="44.55977" lon="5.12508">
        <ele>639</ele>
      </trkpt>
      <trkpt lat="44.55957" lon="5.12513">
        <ele>640</ele>
      </trkpt>
      <trkpt lat="44.55939" lon="5.12525">
        <ele>639</ele>
      </trkpt>
      <trkpt lat="44.55924" lon="5.1254">
        <ele>634</ele>
      </trkpt>
      <trkpt lat="44.55882" lon="5.12594">
        <ele>624</ele>
      </trkpt>
      <trkpt lat="44.55854" lon="5.12625">
        <ele>624</ele>
      </trkpt>
      <trkpt lat="44.55848" lon="5.12638">
        <ele>630</ele>
      </trkpt>
      <trkpt lat="44.55845" lon="5.12653">
        <ele>626</ele>
      </trkpt>
      <trkpt lat="44.55834" lon="5.12674">
        <ele>623</ele>
      </trkpt>
      <trkpt lat="44.55828" lon="5.12691">
        <ele>622</ele>
      </trkpt>
      <trkpt lat="44.55821" lon="5.1272">
        <ele>624</ele>
      </trkpt>
      <trkpt lat="44.55812" lon="5.12737">
        <ele>622</ele>
      </trkpt>
      <trkpt lat="44.55801" lon="5.12751">
        <ele>622</ele>
      </trkpt>
      <trkpt lat="44.55783" lon="5.12781">
        <ele>625</ele>
      </trkpt>
      <trkpt lat="44.55779" lon="5.12798">
        <ele>623</ele>
      </trkpt>
      <trkpt lat="44.55775" lon="5.12853">
        <ele>620</ele>
      </trkpt>
      <trkpt lat="44.55771" lon="5.12875">
        <ele>621</ele>
      </trkpt>
      <trkpt lat="44.55763" lon="5.1289">
        <ele>625</ele>
      </trkpt>
      <trkpt lat="44.55757" lon="5.1291">
        <ele>627</ele>
      </trkpt>
      <trkpt lat="44.55755" lon="5.12957">
        <ele>625</ele>
      </trkpt>
      <trkpt lat="44.5575" lon="5.12973">
        <ele>625</ele>
      </trkpt>
      <trkpt lat="44.55743" lon="5.12986">
        <ele>623</ele>
      </trkpt>
      <trkpt lat="44.55668" lon="5.13078">
        <ele>626</ele>
      </trkpt>
      <trkpt lat="44.55658" lon="5.13101">
        <ele>625</ele>
      </trkpt>
      <trkpt lat="44.55633" lon="5.13172">
        <ele>620</ele>
      </trkpt>
      <trkpt lat="44.55599" lon="5.13228">
        <ele>619</ele>
      </trkpt>
      <trkpt lat="44.5559" lon="5.13238">
        <ele>623</ele>
      </trkpt>
      <trkpt lat="44.55575" lon="5.13245">
        <ele>624</ele>
      </trkpt>
      <trkpt lat="44.55566" lon="5.13255">
        <ele>625</ele>
      </trkpt>
      <trkpt lat="44.55559" lon="5.13269">
        <ele>624</ele>
      </trkpt>
      <trkpt lat="44.5554" lon="5.13329">
        <ele>619</ele>
      </trkpt>
      <trkpt lat="44.55529" lon="5.1335">
        <ele>615</ele>
      </trkpt>
      <trkpt lat="44.55517" lon="5.13368">
        <ele>612</ele>
      </trkpt>
      <trkpt lat="44.55503" lon="5.13384">
        <ele>616</ele>
      </trkpt>
      <trkpt lat="44.55486" lon="5.13396">
        <ele>614</ele>
      </trkpt>
      <trkpt lat="44.55425" lon="5.1343">
        <ele>612</ele>
      </trkpt>
      <trkpt lat="44.55404" lon="5.13435">
        <ele>613</ele>
      </trkpt>
      <trkpt lat="44.55395" lon="5.13435">
        <ele>614</ele>
      </trkpt>
      <trkpt lat="44.55371" lon="5.13427">
        <ele>617</ele>
      </trkpt>
      <trkpt lat="44.55362" lon="5.13429">
        <ele>617</ele>
      </trkpt>
      <trkpt lat="44.55338" lon="5.13443">
        <ele>618</ele>
      </trkpt>
      <trkpt lat="44.55307" lon="5.13466">
        <ele>614</ele>
      </trkpt>
      <trkpt lat="44.55298" lon="5.1348">
        <ele>611</ele>
      </trkpt>
      <trkpt lat="44.55294" lon="5.13499">
        <ele>610</ele>
      </trkpt>
      <trkpt lat="44.55287" lon="5.13512">
        <ele>612</ele>
      </trkpt>
      <trkpt lat="44.55279" lon="5.13515">
        <ele>612</ele>
      </trkpt>
      <trkpt lat="44.55255" lon="5.13516">
        <ele>618</ele>
      </trkpt>
      <trkpt lat="44.55256" lon="5.13531">
        <ele>617</ele>
      </trkpt>
      <trkpt lat="44.55262" lon="5.13547">
        <ele>617</ele>
      </trkpt>
      <trkpt lat="44.55264" lon="5.13564">
        <ele>617</ele>
      </trkpt>
      <trkpt lat="44.55264" lon="5.13582">
        <ele>618</ele>
      </trkpt>
      <trkpt lat="44.55252" lon="5.13678">
        <ele>618</ele>
      </trkpt>
      <trkpt lat="44.55243" lon="5.13733">
        <ele>614</ele>
      </trkpt>
      <trkpt lat="44.55234" lon="5.13764">
        <ele>613</ele>
      </trkpt>
      <trkpt lat="44.5523" lon="5.13775">
        <ele>612</ele>
      </trkpt>
      <trkpt lat="44.55218" lon="5.13789">
        <ele>611</ele>
      </trkpt>
      <trkpt lat="44.5517" lon="5.1383">
        <ele>610</ele>
      </trkpt>
      <trkpt lat="44.55143" lon="5.13874">
        <ele>609</ele>
      </trkpt>
      <trkpt lat="44.55115" lon="5.13939">
        <ele>606</ele>
      </trkpt>
      <trkpt lat="44.55115" lon="5.13967">
        <ele>606</ele>
      </trkpt>
      <trkpt lat="44.55151" lon="5.14101">
        <ele>607</ele>
      </trkpt>
      <trkpt lat="44.55159" lon="5.14163">
        <ele>611</ele>
      </trkpt>
      <trkpt lat="44.55159" lon="5.14353">
        <ele>604</ele>
      </trkpt>
      <trkpt lat="44.5515" lon="5.14402">
        <ele>603</ele>
      </trkpt>
      <trkpt lat="44.55135" lon="5.14445">
        <ele>606</ele>
      </trkpt>
      <trkpt lat="44.55117" lon="5.14477">
        <ele>607</ele>
      </trkpt>
      <trkpt lat="44.55098" lon="5.14502">
        <ele>603</ele>
      </trkpt>
      <trkpt lat="44.55071" lon="5.14523">
        <ele>603</ele>
      </trkpt>
      <trkpt lat="44.5506" lon="5.14536">
        <ele>598</ele>
      </trkpt>
      <trkpt lat="44.55053" lon="5.1455">
        <ele>598</ele>
      </trkpt>
      <trkpt lat="44.5505" lon="5.14568">
        <ele>598</ele>
      </trkpt>
      <trkpt lat="44.5505" lon="5.14584">
        <ele>598</ele>
      </trkpt>
      <trkpt lat="44.55072" lon="5.14672">
        <ele>589</ele>
      </trkpt>
      <trkpt lat="44.55077" lon="5.14681">
        <ele>589</ele>
      </trkpt>
      <trkpt lat="44.55087" lon="5.14686">
        <ele>590</ele>
      </trkpt>
      <trkpt lat="44.55104" lon="5.1469">
        <ele>588</ele>
      </trkpt>
      <trkpt lat="44.55147" lon="5.14708">
        <ele>581</ele>
      </trkpt>
      <trkpt lat="44.55177" lon="5.14707">
        <ele>582</ele>
      </trkpt>
      <trkpt lat="44.5519" lon="5.1471">
        <ele>583</ele>
      </trkpt>
      <trkpt lat="44.55233" lon="5.14733">
        <ele>575</ele>
      </trkpt>
      <trkpt lat="44.55253" lon="5.1474">
        <ele>574</ele>
      </trkpt>
      <trkpt lat="44.55276" lon="5.14747">
        <ele>572</ele>
      </trkpt>
      <trkpt lat="44.55319" lon="5.14752">
        <ele>568</ele>
      </trkpt>
      <trkpt lat="44.55336" lon="5.1475">
        <ele>567</ele>
      </trkpt>
      <trkpt lat="44.55369" lon="5.14741">
        <ele>566</ele>
      </trkpt>
      <trkpt lat="44.55391" lon="5.14743">
        <ele>563</ele>
      </trkpt>
      <trkpt lat="44.5541" lon="5.14738">
        <ele>560</ele>
      </trkpt>
      <trkpt lat="44.55472" lon="5.14692">
        <ele>560</ele>
      </trkpt>
      <trkpt lat="44.55481" lon="5.1469">
        <ele>560</ele>
      </trkpt>
      <trkpt lat="44.5549" lon="5.1469">
        <ele>557</ele>
      </trkpt>
      <trkpt lat="44.55498" lon="5.14693">
        <ele>557</ele>
      </trkpt>
      <trkpt lat="44.55509" lon="5.14704">
        <ele>557</ele>
      </trkpt>
      <trkpt lat="44.55517" lon="5.14715">
        <ele>557</ele>
      </trkpt>
      <trkpt lat="44.55522" lon="5.14733">
        <ele>558</ele>
      </trkpt>
      <trkpt lat="44.55522" lon="5.1476">
        <ele>558</ele>
      </trkpt>
      <trkpt lat="44.55518" lon="5.14777">
        <ele>558</ele>
      </trkpt>
      <trkpt lat="44.55511" lon="5.14794">
        <ele>557</ele>
      </trkpt>
      <trkpt lat="44.55494" lon="5.14828">
        <ele>556</ele>
      </trkpt>
      <trkpt lat="44.55493" lon="5.1484">
        <ele>555</ele>
      </trkpt>
      <trkpt lat="44.55498" lon="5.14879">
        <ele>557</ele>
      </trkpt>
      <trkpt lat="44.55494" lon="5.1489">
        <ele>558</ele>
      </trkpt>
      <trkpt lat="44.55488" lon="5.14898">
        <ele>561</ele>
      </trkpt>
      <trkpt lat="44.5547" lon="5.1491">
        <ele>556</ele>
      </trkpt>
      <trkpt lat="44.5544" lon="5.14936">
        <ele>555</ele>
      </trkpt>
      <trkpt lat="44.55426" lon="5.14944">
        <ele>550</ele>
      </trkpt>
      <trkpt lat="44.55412" lon="5.14955">
        <ele>554</ele>
      </trkpt>
      <trkpt lat="44.55389" lon="5.14992">
        <ele>555</ele>
      </trkpt>
      <trkpt lat="44.55338" lon="5.15056">
        <ele>543</ele>
      </trkpt>
      <trkpt lat="44.55329" lon="5.15064">
        <ele>543</ele>
      </trkpt>
      <trkpt lat="44.55311" lon="5.15071">
        <ele>538</ele>
      </trkpt>
      <trkpt lat="44.55303" lon="5.15078">
        <ele>537</ele>
      </trkpt>
      <trkpt lat="44.55299" lon="5.15088">
        <ele>537</ele>
      </trkpt>
      <trkpt lat="44.55295" lon="5.15105">
        <ele>536</ele>
      </trkpt>
      <trkpt lat="44.55295" lon="5.15122">
        <ele>534</ele>
      </trkpt>
      <trkpt lat="44.55297" lon="5.15144">
        <ele>531</ele>
      </trkpt>
      <trkpt lat="44.553" lon="5.15156">
        <ele>531</ele>
      </trkpt>
      <trkpt lat="44.55307" lon="5.15168">
        <ele>530</ele>
      </trkpt>
      <trkpt lat="44.55315" lon="5.15176">
        <ele>527</ele>
      </trkpt>
      <trkpt lat="44.55352" lon="5.15194">
        <ele>532</ele>
      </trkpt>
      <trkpt lat="44.55362" lon="5.15204">
        <ele>530</ele>
      </trkpt>
      <trkpt lat="44.55364" lon="5.1521">
        <ele>529</ele>
      </trkpt>
      <trkpt lat="44.55364" lon="5.15217">
        <ele>529</ele>
      </trkpt>
      <trkpt lat="44.55361" lon="5.15221">
        <ele>529</ele>
      </trkpt>
      <trkpt lat="44.55356" lon="5.15221">
        <ele>529</ele>
      </trkpt>
      <trkpt lat="44.55338" lon="5.1521">
        <ele>524</ele>
      </trkpt>
      <trkpt lat="44.55327" lon="5.15208">
        <ele>524</ele>
      </trkpt>
      <trkpt lat="44.55315" lon="5.1521">
        <ele>521</ele>
      </trkpt>
      <trkpt lat="44.55291" lon="5.15223">
        <ele>518</ele>
      </trkpt>
      <trkpt lat="44.5528" lon="5.15227">
        <ele>516</ele>
      </trkpt>
      <trkpt lat="44.5527" lon="5.15226">
        <ele>518</ele>
      </trkpt>
      <trkpt lat="44.5526" lon="5.1522">
        <ele>515</ele>
      </trkpt>
      <trkpt lat="44.55226" lon="5.15188">
        <ele>513</ele>
      </trkpt>
      <trkpt lat="44.55221" lon="5.1518">
        <ele>513</ele>
      </trkpt>
      <trkpt lat="44.55219" lon="5.15168">
        <ele>514</ele>
      </trkpt>
      <trkpt lat="44.55222" lon="5.15155">
        <ele>514</ele>
      </trkpt>
      <trkpt lat="44.55222" lon="5.15146">
        <ele>515</ele>
      </trkpt>
      <trkpt lat="44.55219" lon="5.15141">
        <ele>515</ele>
      </trkpt>
      <trkpt lat="44.55214" lon="5.15139">
        <ele>514</ele>
      </trkpt>
      <trkpt lat="44.55208" lon="5.15141">
        <ele>510</ele>
      </trkpt>
      <trkpt lat="44.55205" lon="5.15149">
        <ele>509</ele>
      </trkpt>
      <trkpt lat="44.55204" lon="5.15187">
        <ele>508</ele>
      </trkpt>
      <trkpt lat="44.55204" lon="5.15217">
        <ele>507</ele>
      </trkpt>
      <trkpt lat="44.55203" lon="5.15232">
        <ele>506</ele>
      </trkpt>
      <trkpt lat="44.55195" lon="5.15247">
        <ele>505</ele>
      </trkpt>
      <trkpt lat="44.5518" lon="5.15264">
        <ele>503</ele>
      </trkpt>
      <trkpt lat="44.55172" lon="5.15282">
        <ele>503</ele>
      </trkpt>
      <trkpt lat="44.55167" lon="5.15298">
        <ele>503</ele>
      </trkpt>
      <trkpt lat="44.55167" lon="5.15314">
        <ele>499</ele>
      </trkpt>
      <trkpt lat="44.55171" lon="5.15327">
        <ele>499</ele>
      </trkpt>
      <trkpt lat="44.55181" lon="5.1534">
        <ele>496</ele>
      </trkpt>
      <trkpt lat="44.55197" lon="5.15355">
        <ele>496</ele>
      </trkpt>
      <trkpt lat="44.55215" lon="5.15377">
        <ele>496</ele>
      </trkpt>
      <trkpt lat="44.55227" lon="5.15396">
        <ele>496</ele>
      </trkpt>
      <trkpt lat="44.55231" lon="5.15411">
        <ele>497</ele>
      </trkpt>
      <trkpt lat="44.55233" lon="5.15428">
        <ele>497</ele>
      </trkpt>
      <trkpt lat="44.55216" lon="5.15543">
        <ele>493</ele>
      </trkpt>
      <trkpt lat="44.55215" lon="5.15559">
        <ele>492</ele>
      </trkpt>
      <trkpt lat="44.55218" lon="5.15569">
        <ele>490</ele>
      </trkpt>
      <trkpt lat="44.55224" lon="5.1558">
        <ele>489</ele>
      </trkpt>
      <trkpt lat="44.55233" lon="5.15588">
        <ele>486</ele>
      </trkpt>
      <trkpt lat="44.55247" lon="5.15593">
        <ele>486</ele>
      </trkpt>
      <trkpt lat="44.55263" lon="5.15596">
        <ele>486</ele>
      </trkpt>
      <trkpt lat="44.55277" lon="5.15604">
        <ele>486</ele>
      </trkpt>
      <trkpt lat="44.55293" lon="5.15619">
        <ele>482</ele>
      </trkpt>
      <trkpt lat="44.55368" lon="5.15661">
        <ele>478</ele>
      </trkpt>
      <trkpt lat="44.55395" lon="5.15679">
        <ele>477</ele>
      </trkpt>
      <trkpt lat="44.55449" lon="5.15737">
        <ele>474</ele>
      </trkpt>
      <trkpt lat="44.55457" lon="5.15741">
        <ele>474</ele>
      </trkpt>
      <trkpt lat="44.55471" lon="5.15745">
        <ele>474</ele>
      </trkpt>
      <trkpt lat="44.55564" lon="5.15751">
        <ele>470</ele>
      </trkpt>
      <trkpt lat="44.55579" lon="5.15754">
        <ele>469</ele>
      </trkpt>
      <trkpt lat="44.55637" lon="5.15785">
        <ele>465</ele>
      </trkpt>
      <trkpt lat="44.55651" lon="5.15796">
        <ele>465</ele>
      </trkpt>
      <trkpt lat="44.55662" lon="5.1581">
        <ele>464</ele>
      </trkpt>
      <trkpt lat="44.55677" lon="5.15836">
        <ele>464</ele>
      </trkpt>
      <trkpt lat="44.5568" lon="5.15849">
        <ele>463</ele>
      </trkpt>
      <trkpt lat="44.55681" lon="5.15862">
        <ele>463</ele>
      </trkpt>
      <trkpt lat="44.55674" lon="5.15884">
        <ele>464</ele>
      </trkpt>
      <trkpt lat="44.55656" lon="5.15907">
        <ele>464</ele>
      </trkpt>
      <trkpt lat="44.55652" lon="5.1592">
        <ele>464</ele>
      </trkpt>
      <trkpt lat="44.55652" lon="5.15933">
        <ele>465</ele>
      </trkpt>
      <trkpt lat="44.55656" lon="5.15947">
        <ele>464</ele>
      </trkpt>
      <trkpt lat="44.55668" lon="5.15964">
        <ele>464</ele>
      </trkpt>
      <trkpt lat="44.55682" lon="5.15977">
        <ele>464</ele>
      </trkpt>
      <trkpt lat="44.55697" lon="5.15989">
        <ele>463</ele>
      </trkpt>
      <trkpt lat="44.5584" lon="5.16087">
        <ele>460</ele>
      </trkpt>
      <trkpt lat="44.55848" lon="5.161">
        <ele>461</ele>
      </trkpt>
      <trkpt lat="44.55851" lon="5.16111">
        <ele>462</ele>
      </trkpt>
      <trkpt lat="44.5585" lon="5.16124">
        <ele>462</ele>
      </trkpt>
      <trkpt lat="44.55847" lon="5.16135">
        <ele>462</ele>
      </trkpt>
      <trkpt lat="44.55765" lon="5.16202">
        <ele>465</ele>
      </trkpt>
      <trkpt lat="44.5575" lon="5.1622">
        <ele>465</ele>
      </trkpt>
      <trkpt lat="44.55721" lon="5.16282">
        <ele>466</ele>
      </trkpt>
      <trkpt lat="44.55709" lon="5.16295">
        <ele>465</ele>
      </trkpt>
      <trkpt lat="44.5567" lon="5.16316">
        <ele>465</ele>
      </trkpt>
      <trkpt lat="44.55647" lon="5.16331">
        <ele>466</ele>
      </trkpt>
      <trkpt lat="44.55609" lon="5.16372">
        <ele>467</ele>
      </trkpt>
      <trkpt lat="44.5558" lon="5.16397">
        <ele>467</ele>
      </trkpt>
      <trkpt lat="44.55566" lon="5.16417">
        <ele>467</ele>
      </trkpt>
      <trkpt lat="44.55553" lon="5.16451">
        <ele>467</ele>
      </trkpt>
      <trkpt lat="44.55523" lon="5.16551">
        <ele>471</ele>
      </trkpt>
      <trkpt lat="44.55515" lon="5.16584">
        <ele>472</ele>
      </trkpt>
      <trkpt lat="44.55517" lon="5.16593">
        <ele>474</ele>
      </trkpt>
      <trkpt lat="44.55534" lon="5.16601">
        <ele>475</ele>
      </trkpt>
      <trkpt lat="44.55575" lon="5.16601">
        <ele>480</ele>
      </trkpt>
      <trkpt lat="44.55596" lon="5.16598">
        <ele>482</ele>
      </trkpt>
      <trkpt lat="44.55627" lon="5.1657">
        <ele>482</ele>
      </trkpt>
      <trkpt lat="44.55632" lon="5.16577">
        <ele>483</ele>
      </trkpt>
      <trkpt lat="44.55591" lon="5.1661">
        <ele>482</ele>
      </trkpt>
      <trkpt lat="44.55572" lon="5.16628">
        <ele>483</ele>
      </trkpt>
      <trkpt lat="44.5556" lon="5.16669">
        <ele>483</ele>
      </trkpt>
      <trkpt lat="44.55556" lon="5.16701">
        <ele>488</ele>
      </trkpt>
      <trkpt lat="44.55556" lon="5.16756">
        <ele>490</ele>
      </trkpt>
      <trkpt lat="44.5555" lon="5.16808">
        <ele>490</ele>
      </trkpt>
      <trkpt lat="44.55514" lon="5.16932">
        <ele>483</ele>
      </trkpt>
      <trkpt lat="44.55445" lon="5.17185">
        <ele>482</ele>
      </trkpt>
      <trkpt lat="44.55434" lon="5.17209">
        <ele>484</ele>
      </trkpt>
      <trkpt lat="44.55413" lon="5.17246">
        <ele>487</ele>
      </trkpt>
      <trkpt lat="44.5525" lon="5.17501">
        <ele>497</ele>
      </trkpt>
      <trkpt lat="44.55235" lon="5.1753">
        <ele>496</ele>
      </trkpt>
      <trkpt lat="44.55167" lon="5.17679">
        <ele>513</ele>
      </trkpt>
      <trkpt lat="44.55157" lon="5.17705">
        <ele>518</ele>
      </trkpt>
      <trkpt lat="44.55149" lon="5.17751">
        <ele>516</ele>
      </trkpt>
      <trkpt lat="44.55135" lon="5.17796">
        <ele>523</ele>
      </trkpt>
      <trkpt lat="44.55131" lon="5.17815">
        <ele>527</ele>
      </trkpt>
      <trkpt lat="44.5513" lon="5.17859">
        <ele>537</ele>
      </trkpt>
      <trkpt lat="44.55121" lon="5.17886">
        <ele>533</ele>
      </trkpt>
      <trkpt lat="44.55102" lon="5.17924">
        <ele>538</ele>
      </trkpt>
      <trkpt lat="44.55088" lon="5.17974">
        <ele>527</ele>
      </trkpt>
      <trkpt lat="44.55069" lon="5.18108">
        <ele>535</ele>
      </trkpt>
      <trkpt lat="44.55055" lon="5.18164">
        <ele>535</ele>
      </trkpt>
      <trkpt lat="44.55055" lon="5.18184">
        <ele>533</ele>
      </trkpt>
      <trkpt lat="44.55062" lon="5.18203">
        <ele>529</ele>
      </trkpt>
      <trkpt lat="44.55093" lon="5.18253">
        <ele>528</ele>
      </trkpt>
      <trkpt lat="44.55106" lon="5.18286">
        <ele>521</ele>
      </trkpt>
      <trkpt lat="44.55109" lon="5.1832">
        <ele>521</ele>
      </trkpt>
      <trkpt lat="44.55109" lon="5.18334">
        <ele>523</ele>
      </trkpt>
      <trkpt lat="44.55103" lon="5.18358">
        <ele>531</ele>
      </trkpt>
      <trkpt lat="44.55057" lon="5.18445">
        <ele>536</ele>
      </trkpt>
      <trkpt lat="44.55012" lon="5.18506">
        <ele>539</ele>
      </trkpt>
      <trkpt lat="44.54988" lon="5.18566">
        <ele>552</ele>
      </trkpt>
      <trkpt lat="44.54973" lon="5.18586">
        <ele>544</ele>
      </trkpt>
      <trkpt lat="44.54959" lon="5.186">
        <ele>541</ele>
      </trkpt>
      <trkpt lat="44.54908" lon="5.18638">
        <ele>539</ele>
      </trkpt>
      <trkpt lat="44.5486" lon="5.1867">
        <ele>538</ele>
      </trkpt>
      <trkpt lat="44.54823" lon="5.18714">
        <ele>546</ele>
      </trkpt>
      <trkpt lat="44.54805" lon="5.18732">
        <ele>547</ele>
      </trkpt>
      <trkpt lat="44.54793" lon="5.18736">
        <ele>546</ele>
      </trkpt>
      <trkpt lat="44.54782" lon="5.18736">
        <ele>542</ele>
      </trkpt>
      <trkpt lat="44.54757" lon="5.18727">
        <ele>535</ele>
      </trkpt>
      <trkpt lat="44.54738" lon="5.18724">
        <ele>535</ele>
      </trkpt>
      <trkpt lat="44.54673" lon="5.18731">
        <ele>546</ele>
      </trkpt>
      <trkpt lat="44.54652" lon="5.18741">
        <ele>542</ele>
      </trkpt>
      <trkpt lat="44.54583" lon="5.18825">
        <ele>563</ele>
      </trkpt>
      <trkpt lat="44.54561" lon="5.18839">
        <ele>567</ele>
      </trkpt>
      <trkpt lat="44.54523" lon="5.18847">
        <ele>562</ele>
      </trkpt>
      <trkpt lat="44.54452" lon="5.18851">
        <ele>553</ele>
      </trkpt>
      <trkpt lat="44.54431" lon="5.18862">
        <ele>551</ele>
      </trkpt>
      <trkpt lat="44.54402" lon="5.18891">
        <ele>554</ele>
      </trkpt>
      <trkpt lat="44.54351" lon="5.18978">
        <ele>572</ele>
      </trkpt>
      <trkpt lat="44.54314" lon="5.19022">
        <ele>564</ele>
      </trkpt>
      <trkpt lat="44.54253" lon="5.19077">
        <ele>565</ele>
      </trkpt>
      <trkpt lat="44.5418" lon="5.1912">
        <ele>561</ele>
      </trkpt>
      <trkpt lat="44.54116" lon="5.19176">
        <ele>559</ele>
      </trkpt>
      <trkpt lat="44.54103" lon="5.19196">
        <ele>560</ele>
      </trkpt>
      <trkpt lat="44.54085" lon="5.19256">
        <ele>577</ele>
      </trkpt>
      <trkpt lat="44.54078" lon="5.19276">
        <ele>578</ele>
      </trkpt>
      <trkpt lat="44.54039" lon="5.19342">
        <ele>565</ele>
      </trkpt>
      <trkpt lat="44.54031" lon="5.19371">
        <ele>568</ele>
      </trkpt>
      <trkpt lat="44.54025" lon="5.19426">
        <ele>583</ele>
      </trkpt>
      <trkpt lat="44.54016" lon="5.19453">
        <ele>589</ele>
      </trkpt>
      <trkpt lat="44.54008" lon="5.1947">
        <ele>577</ele>
      </trkpt>
      <trkpt lat="44.53995" lon="5.1949">
        <ele>579</ele>
      </trkpt>
      <trkpt lat="44.53972" lon="5.19514">
        <ele>566</ele>
      </trkpt>
      <trkpt lat="44.5395" lon="5.19535">
        <ele>560</ele>
      </trkpt>
      <trkpt lat="44.53939" lon="5.19551">
        <ele>560</ele>
      </trkpt>
      <trkpt lat="44.5393" lon="5.19568">
        <ele>559</ele>
      </trkpt>
      <trkpt lat="44.53925" lon="5.19584">
        <ele>560</ele>
      </trkpt>
      <trkpt lat="44.53914" lon="5.19628">
        <ele>563</ele>
      </trkpt>
      <trkpt lat="44.53908" lon="5.19647">
        <ele>565</ele>
      </trkpt>
      <trkpt lat="44.53845" lon="5.19796">
        <ele>569</ele>
      </trkpt>
      <trkpt lat="44.53826" lon="5.19827">
        <ele>574</ele>
      </trkpt>
      <trkpt lat="44.53789" lon="5.1987">
        <ele>573</ele>
      </trkpt>
      <trkpt lat="44.53733" lon="5.19952">
        <ele>579</ele>
      </trkpt>
      <trkpt lat="44.53693" lon="5.20003">
        <ele>576</ele>
      </trkpt>
      <trkpt lat="44.53681" lon="5.20021">
        <ele>573</ele>
      </trkpt>
      <trkpt lat="44.53672" lon="5.20037">
        <ele>577</ele>
      </trkpt>
      <trkpt lat="44.53662" lon="5.20065">
        <ele>580</ele>
      </trkpt>
      <trkpt lat="44.53649" lon="5.2009">
        <ele>575</ele>
      </trkpt>
      <trkpt lat="44.53606" lon="5.20154">
        <ele>573</ele>
      </trkpt>
      <trkpt lat="44.53593" lon="5.20175">
        <ele>571</ele>
      </trkpt>
      <trkpt lat="44.53582" lon="5.20199">
        <ele>572</ele>
      </trkpt>
      <trkpt lat="44.5356" lon="5.20235">
        <ele>574</ele>
      </trkpt>
      <trkpt lat="44.53546" lon="5.20255">
        <ele>574</ele>
      </trkpt>
      <trkpt lat="44.53539" lon="5.20268">
        <ele>571</ele>
      </trkpt>
      <trkpt lat="44.53536" lon="5.20279">
        <ele>571</ele>
      </trkpt>
      <trkpt lat="44.53529" lon="5.20329">
        <ele>575</ele>
      </trkpt>
      <trkpt lat="44.53528" lon="5.20351">
        <ele>578</ele>
      </trkpt>
      <trkpt lat="44.5353" lon="5.20402">
        <ele>581</ele>
      </trkpt>
      <trkpt lat="44.53528" lon="5.20432">
        <ele>583</ele>
      </trkpt>
      <trkpt lat="44.53523" lon="5.2047">
        <ele>588</ele>
      </trkpt>
      <trkpt lat="44.53509" lon="5.20515">
        <ele>589</ele>
      </trkpt>
      <trkpt lat="44.53498" lon="5.20533">
        <ele>589</ele>
      </trkpt>
      <trkpt lat="44.53488" lon="5.20545">
        <ele>594</ele>
      </trkpt>
      <trkpt lat="44.53471" lon="5.20556">
        <ele>582</ele>
      </trkpt>
      <trkpt lat="44.53451" lon="5.20567">
        <ele>582</ele>
      </trkpt>
      <trkpt lat="44.53398" lon="5.20587">
        <ele>574</ele>
      </trkpt>
      <trkpt lat="44.53382" lon="5.20596">
        <ele>577</ele>
      </trkpt>
      <trkpt lat="44.53374" lon="5.20603">
        <ele>575</ele>
      </trkpt>
      <trkpt lat="44.53363" lon="5.20619">
        <ele>578</ele>
      </trkpt>
      <trkpt lat="44.53352" lon="5.20641">
        <ele>578</ele>
      </trkpt>
      <trkpt lat="44.53346" lon="5.20666">
        <ele>576</ele>
      </trkpt>
      <trkpt lat="44.53323" lon="5.20829">
        <ele>583</ele>
      </trkpt>
      <trkpt lat="44.53313" lon="5.20873">
        <ele>582</ele>
      </trkpt>
      <trkpt lat="44.5329" lon="5.20944">
        <ele>580</ele>
      </trkpt>
      <trkpt lat="44.53285" lon="5.2097">
        <ele>580</ele>
      </trkpt>
      <trkpt lat="44.53286" lon="5.20988">
        <ele>580</ele>
      </trkpt>
      <trkpt lat="44.53291" lon="5.2101">
        <ele>580</ele>
      </trkpt>
      <trkpt lat="44.53327" lon="5.21114">
        <ele>586</ele>
      </trkpt>
      <trkpt lat="44.53351" lon="5.21177">
        <ele>585</ele>
      </trkpt>
      <trkpt lat="44.5336" lon="5.21192">
        <ele>585</ele>
      </trkpt>
      <trkpt lat="44.53392" lon="5.21227">
        <ele>587</ele>
      </trkpt>
      <trkpt lat="44.53414" lon="5.21254">
        <ele>590</ele>
      </trkpt>
      <trkpt lat="44.5343" lon="5.21278">
        <ele>589</ele>
      </trkpt>
      <trkpt lat="44.53453" lon="5.21324">
        <ele>591</ele>
      </trkpt>
      <trkpt lat="44.53461" lon="5.2135">
        <ele>594</ele>
      </trkpt>
      <trkpt lat="44.53463" lon="5.2136">
        <ele>594</ele>
      </trkpt>
      <trkpt lat="44.5346" lon="5.21388">
        <ele>592</ele>
      </trkpt>
      <trkpt lat="44.53455" lon="5.21399">
        <ele>587</ele>
      </trkpt>
      <trkpt lat="44.53381" lon="5.21516">
        <ele>589</ele>
      </trkpt>
      <trkpt lat="44.53363" lon="5.21533">
        <ele>589</ele>
      </trkpt>
      <trkpt lat="44.53152" lon="5.2168">
        <ele>590</ele>
      </trkpt>
      <trkpt lat="44.52819" lon="5.21846">
        <ele>592</ele>
      </trkpt>
      <trkpt lat="44.52772" lon="5.21871">
        <ele>591</ele>
      </trkpt>
      <trkpt lat="44.5275" lon="5.21881">
        <ele>588</ele>
      </trkpt>
      <trkpt lat="44.52735" lon="5.21884">
        <ele>590</ele>
      </trkpt>
      <trkpt lat="44.52716" lon="5.21883">
        <ele>590</ele>
      </trkpt>
      <trkpt lat="44.52473" lon="5.21824">
        <ele>592</ele>
      </trkpt>
      <trkpt lat="44.52408" lon="5.21821">
        <ele>594</ele>
      </trkpt>
      <trkpt lat="44.52383" lon="5.21815">
        <ele>596</ele>
      </trkpt>
      <trkpt lat="44.52369" lon="5.2181">
        <ele>595</ele>
      </trkpt>
      <trkpt lat="44.5235" lon="5.21798">
        <ele>595</ele>
      </trkpt>
      <trkpt lat="44.52297" lon="5.21755">
        <ele>594</ele>
      </trkpt>
      <trkpt lat="44.52271" lon="5.21745">
        <ele>595</ele>
      </trkpt>
      <trkpt lat="44.52245" lon="5.21751">
        <ele>596</ele>
      </trkpt>
      <trkpt lat="44.52215" lon="5.21763">
        <ele>598</ele>
      </trkpt>
      <trkpt lat="44.52202" lon="5.21765">
        <ele>599</ele>
      </trkpt>
      <trkpt lat="44.52182" lon="5.21761">
        <ele>599</ele>
      </trkpt>
      <trkpt lat="44.52025" lon="5.2169">
        <ele>602</ele>
      </trkpt>
      <trkpt lat="44.51976" lon="5.21674">
        <ele>607</ele>
      </trkpt>
      <trkpt lat="44.51954" lon="5.21656">
        <ele>608</ele>
      </trkpt>
      <trkpt lat="44.51934" lon="5.21634">
        <ele>611</ele>
      </trkpt>
      <trkpt lat="44.5192" lon="5.21623">
        <ele>610</ele>
      </trkpt>
      <trkpt lat="44.51866" lon="5.21584">
        <ele>611</ele>
      </trkpt>
      <trkpt lat="44.51849" lon="5.21576">
        <ele>611</ele>
      </trkpt>
      <trkpt lat="44.51776" lon="5.21556">
        <ele>612</ele>
      </trkpt>
      <trkpt lat="44.51758" lon="5.21555">
        <ele>614</ele>
      </trkpt>
      <trkpt lat="44.51694" lon="5.2156">
        <ele>615</ele>
      </trkpt>
      <trkpt lat="44.51672" lon="5.21591">
        <ele>621</ele>
      </trkpt>
      <trkpt lat="44.51653" lon="5.2161">
        <ele>618</ele>
      </trkpt>
      <trkpt lat="44.51624" lon="5.21648">
        <ele>620</ele>
      </trkpt>
      <trkpt lat="44.51601" lon="5.21668">
        <ele>620</ele>
      </trkpt>
      <trkpt lat="44.51577" lon="5.21706">
        <ele>622</ele>
      </trkpt>
      <trkpt lat="44.5155" lon="5.21807">
        <ele>629</ele>
      </trkpt>
      <trkpt lat="44.51538" lon="5.2186">
        <ele>631</ele>
      </trkpt>
      <trkpt lat="44.51519" lon="5.21894">
        <ele>634</ele>
      </trkpt>
      <trkpt lat="44.51477" lon="5.21982">
        <ele>643</ele>
      </trkpt>
      <trkpt lat="44.51436" lon="5.22096">
        <ele>650</ele>
      </trkpt>
      <trkpt lat="44.51428" lon="5.22146">
        <ele>649</ele>
      </trkpt>
      <trkpt lat="44.51412" lon="5.22218">
        <ele>655</ele>
      </trkpt>
      <trkpt lat="44.51403" lon="5.22247">
        <ele>649</ele>
      </trkpt>
      <trkpt lat="44.51393" lon="5.22275">
        <ele>651</ele>
      </trkpt>
      <trkpt lat="44.51339" lon="5.22377">
        <ele>657</ele>
      </trkpt>
      <trkpt lat="44.51327" lon="5.22405">
        <ele>662</ele>
      </trkpt>
      <trkpt lat="44.51319" lon="5.22429">
        <ele>659</ele>
      </trkpt>
      <trkpt lat="44.5131" lon="5.22479">
        <ele>666</ele>
      </trkpt>
      <trkpt lat="44.51298" lon="5.22539">
        <ele>672</ele>
      </trkpt>
      <trkpt lat="44.51296" lon="5.22549">
        <ele>672</ele>
      </trkpt>
      <trkpt lat="44.51299" lon="5.22594">
        <ele>680</ele>
      </trkpt>
      <trkpt lat="44.51298" lon="5.22612">
        <ele>680</ele>
      </trkpt>
      <trkpt lat="44.51297" lon="5.22632">
        <ele>684</ele>
      </trkpt>
      <trkpt lat="44.51293" lon="5.22654">
        <ele>688</ele>
      </trkpt>
      <trkpt lat="44.51288" lon="5.22673">
        <ele>682</ele>
      </trkpt>
      <trkpt lat="44.51261" lon="5.22719">
        <ele>672</ele>
      </trkpt>
      <trkpt lat="44.51253" lon="5.22735">
        <ele>675</ele>
      </trkpt>
      <trkpt lat="44.51248" lon="5.22748">
        <ele>675</ele>
      </trkpt>
      <trkpt lat="44.51246" lon="5.22772">
        <ele>675</ele>
      </trkpt>
      <trkpt lat="44.51248" lon="5.2279">
        <ele>673</ele>
      </trkpt>
      <trkpt lat="44.51252" lon="5.22806">
        <ele>673</ele>
      </trkpt>
      <trkpt lat="44.51301" lon="5.22893">
        <ele>675</ele>
      </trkpt>
      <trkpt lat="44.5131" lon="5.22913">
        <ele>675</ele>
      </trkpt>
      <trkpt lat="44.51315" lon="5.22927">
        <ele>676</ele>
      </trkpt>
      <trkpt lat="44.51316" lon="5.22941">
        <ele>677</ele>
      </trkpt>
      <trkpt lat="44.51313" lon="5.2296">
        <ele>679</ele>
      </trkpt>
      <trkpt lat="44.51308" lon="5.22971">
        <ele>680</ele>
      </trkpt>
      <trkpt lat="44.513" lon="5.22981">
        <ele>684</ele>
      </trkpt>
      <trkpt lat="44.51275" lon="5.23003">
        <ele>682</ele>
      </trkpt>
      <trkpt lat="44.51258" lon="5.23024">
        <ele>683</ele>
      </trkpt>
      <trkpt lat="44.51232" lon="5.23065">
        <ele>686</ele>
      </trkpt>
      <trkpt lat="44.51223" lon="5.23076">
        <ele>685</ele>
      </trkpt>
      <trkpt lat="44.51195" lon="5.23095">
        <ele>685</ele>
      </trkpt>
      <trkpt lat="44.51193" lon="5.23105">
        <ele>685</ele>
      </trkpt>
      <trkpt lat="44.51197" lon="5.23112">
        <ele>686</ele>
      </trkpt>
      <trkpt lat="44.51201" lon="5.23113">
        <ele>687</ele>
      </trkpt>
      <trkpt lat="44.51214" lon="5.23108">
        <ele>690</ele>
      </trkpt>
      <trkpt lat="44.51269" lon="5.23053">
        <ele>695</ele>
      </trkpt>
      <trkpt lat="44.51285" lon="5.23042">
        <ele>695</ele>
      </trkpt>
      <trkpt lat="44.51298" lon="5.23036">
        <ele>698</ele>
      </trkpt>
      <trkpt lat="44.51318" lon="5.2303">
        <ele>694</ele>
      </trkpt>
      <trkpt lat="44.51419" lon="5.23014">
        <ele>701</ele>
      </trkpt>
      <trkpt lat="44.51423" lon="5.23019">
        <ele>701</ele>
      </trkpt>
      <trkpt lat="44.51424" lon="5.23026">
        <ele>701</ele>
      </trkpt>
      <trkpt lat="44.51422" lon="5.23033">
        <ele>702</ele>
      </trkpt>
      <trkpt lat="44.51412" lon="5.2304">
        <ele>704</ele>
      </trkpt>
      <trkpt lat="44.5137" lon="5.23042">
        <ele>702</ele>
      </trkpt>
      <trkpt lat="44.51329" lon="5.23055">
        <ele>702</ele>
      </trkpt>
      <trkpt lat="44.51318" lon="5.23062">
        <ele>706</ele>
      </trkpt>
      <trkpt lat="44.51308" lon="5.23072">
        <ele>707</ele>
      </trkpt>
      <trkpt lat="44.51302" lon="5.23082">
        <ele>707</ele>
      </trkpt>
      <trkpt lat="44.51298" lon="5.23096">
        <ele>711</ele>
      </trkpt>
      <trkpt lat="44.51298" lon="5.23108">
        <ele>712</ele>
      </trkpt>
      <trkpt lat="44.51301" lon="5.23155">
        <ele>718</ele>
      </trkpt>
      <trkpt lat="44.51301" lon="5.23187">
        <ele>720</ele>
      </trkpt>
      <trkpt lat="44.51298" lon="5.23223">
        <ele>722</ele>
      </trkpt>
      <trkpt lat="44.51273" lon="5.23316">
        <ele>724</ele>
      </trkpt>
      <trkpt lat="44.51266" lon="5.23336">
        <ele>724</ele>
      </trkpt>
      <trkpt lat="44.51222" lon="5.23415">
        <ele>728</ele>
      </trkpt>
      <trkpt lat="44.51211" lon="5.23427">
        <ele>732</ele>
      </trkpt>
      <trkpt lat="44.51174" lon="5.23449">
        <ele>728</ele>
      </trkpt>
      <trkpt lat="44.51164" lon="5.23459">
        <ele>732</ele>
      </trkpt>
      <trkpt lat="44.51158" lon="5.23468">
        <ele>732</ele>
      </trkpt>
      <trkpt lat="44.51155" lon="5.23475">
        <ele>732</ele>
      </trkpt>
      <trkpt lat="44.51148" lon="5.23509">
        <ele>739</ele>
      </trkpt>
      <trkpt lat="44.51142" lon="5.23526">
        <ele>740</ele>
      </trkpt>
      <trkpt lat="44.51134" lon="5.23543">
        <ele>747</ele>
      </trkpt>
      <trkpt lat="44.51112" lon="5.23571">
        <ele>750</ele>
      </trkpt>
      <trkpt lat="44.51099" lon="5.23582">
        <ele>750</ele>
      </trkpt>
      <trkpt lat="44.51079" lon="5.23591">
        <ele>750</ele>
      </trkpt>
      <trkpt lat="44.51058" lon="5.23605">
        <ele>744</ele>
      </trkpt>
      <trkpt lat="44.51008" lon="5.23652">
        <ele>750</ele>
      </trkpt>
      <trkpt lat="44.50946" lon="5.23691">
        <ele>747</ele>
      </trkpt>
      <trkpt lat="44.50864" lon="5.23749">
        <ele>758</ele>
      </trkpt>
      <trkpt lat="44.50849" lon="5.23764">
        <ele>765</ele>
      </trkpt>
      <trkpt lat="44.50819" lon="5.23803">
        <ele>760</ele>
      </trkpt>
      <trkpt lat="44.50799" lon="5.2382">
        <ele>766</ele>
      </trkpt>
      <trkpt lat="44.50784" lon="5.23841">
        <ele>764</ele>
      </trkpt>
      <trkpt lat="44.50781" lon="5.23853">
        <ele>765</ele>
      </trkpt>
      <trkpt lat="44.50781" lon="5.23864">
        <ele>765</ele>
      </trkpt>
      <trkpt lat="44.50789" lon="5.23931">
        <ele>775</ele>
      </trkpt>
      <trkpt lat="44.50788" lon="5.23945">
        <ele>775</ele>
      </trkpt>
      <trkpt lat="44.50782" lon="5.23968">
        <ele>774</ele>
      </trkpt>
      <trkpt lat="44.50762" lon="5.24003">
        <ele>768</ele>
      </trkpt>
      <trkpt lat="44.50757" lon="5.24017">
        <ele>770</ele>
      </trkpt>
      <trkpt lat="44.50755" lon="5.24028">
        <ele>770</ele>
      </trkpt>
      <trkpt lat="44.50764" lon="5.24179">
        <ele>788</ele>
      </trkpt>
      <trkpt lat="44.50763" lon="5.24195">
        <ele>789</ele>
      </trkpt>
      <trkpt lat="44.50752" lon="5.24271">
        <ele>793</ele>
      </trkpt>
      <trkpt lat="44.50742" lon="5.24319">
        <ele>798</ele>
      </trkpt>
      <trkpt lat="44.50739" lon="5.24328">
        <ele>798</ele>
      </trkpt>
      <trkpt lat="44.50738" lon="5.2434">
        <ele>798</ele>
      </trkpt>
      <trkpt lat="44.5074" lon="5.24349">
        <ele>800</ele>
      </trkpt>
      <trkpt lat="44.50744" lon="5.24353">
        <ele>801</ele>
      </trkpt>
      <trkpt lat="44.50752" lon="5.24352">
        <ele>801</ele>
      </trkpt>
      <trkpt lat="44.50758" lon="5.24337">
        <ele>801</ele>
      </trkpt>
      <trkpt lat="44.50772" lon="5.24272">
        <ele>808</ele>
      </trkpt>
      <trkpt lat="44.50788" lon="5.24217">
        <ele>808</ele>
      </trkpt>
      <trkpt lat="44.50791" lon="5.24162">
        <ele>804</ele>
      </trkpt>
      <trkpt lat="44.508" lon="5.24085">
        <ele>800</ele>
      </trkpt>
      <trkpt lat="44.50802" lon="5.24079">
        <ele>800</ele>
      </trkpt>
      <trkpt lat="44.50807" lon="5.24077">
        <ele>801</ele>
      </trkpt>
      <trkpt lat="44.50811" lon="5.24078">
        <ele>801</ele>
      </trkpt>
      <trkpt lat="44.50815" lon="5.24085">
        <ele>802</ele>
      </trkpt>
      <trkpt lat="44.50816" lon="5.24091">
        <ele>806</ele>
      </trkpt>
      <trkpt lat="44.50811" lon="5.2411">
        <ele>808</ele>
      </trkpt>
      <trkpt lat="44.50806" lon="5.24124">
        <ele>812</ele>
      </trkpt>
      <trkpt lat="44.50803" lon="5.24139">
        <ele>813</ele>
      </trkpt>
      <trkpt lat="44.50803" lon="5.24159">
        <ele>818</ele>
      </trkpt>
      <trkpt lat="44.50806" lon="5.24229">
        <ele>826</ele>
      </trkpt>
      <trkpt lat="44.50803" lon="5.24261">
        <ele>828</ele>
      </trkpt>
      <trkpt lat="44.50796" lon="5.24296">
        <ele>829</ele>
      </trkpt>
      <trkpt lat="44.50793" lon="5.24376">
        <ele>835</ele>
      </trkpt>
      <trkpt lat="44.50779" lon="5.24464">
        <ele>832</ele>
      </trkpt>
      <trkpt lat="44.50775" lon="5.24499">
        <ele>832</ele>
      </trkpt>
      <trkpt lat="44.50772" lon="5.24575">
        <ele>834</ele>
      </trkpt>
      <trkpt lat="44.5077" lon="5.24648">
        <ele>837</ele>
      </trkpt>
      <trkpt lat="44.50772" lon="5.24729">
        <ele>835</ele>
      </trkpt>
      <trkpt lat="44.50779" lon="5.24814">
        <ele>826</ele>
      </trkpt>
      <trkpt lat="44.50781" lon="5.24838">
        <ele>824</ele>
      </trkpt>
      <trkpt lat="44.50788" lon="5.24871">
        <ele>822</ele>
      </trkpt>
      <trkpt lat="44.508" lon="5.24852">
        <ele>815</ele>
      </trkpt>
      <trkpt lat="44.50809" lon="5.24832">
        <ele>819</ele>
      </trkpt>
      <trkpt lat="44.50827" lon="5.24805">
        <ele>820</ele>
      </trkpt>
      <trkpt lat="44.50832" lon="5.248">
        <ele>821</ele>
      </trkpt>
      <trkpt lat="44.5086" lon="5.24783">
        <ele>815</ele>
      </trkpt>
      <trkpt lat="44.50869" lon="5.24772">
        <ele>815</ele>
      </trkpt>
      <trkpt lat="44.50877" lon="5.24759">
        <ele>806</ele>
      </trkpt>
      <trkpt lat="44.50896" lon="5.24713">
        <ele>810</ele>
      </trkpt>
      <trkpt lat="44.50907" lon="5.24683">
        <ele>802</ele>
      </trkpt>
      <trkpt lat="44.50911" lon="5.24657">
        <ele>805</ele>
      </trkpt>
      <trkpt lat="44.50917" lon="5.24641">
        <ele>810</ele>
      </trkpt>
      <trkpt lat="44.5094" lon="5.24614">
        <ele>804</ele>
      </trkpt>
      <trkpt lat="44.50959" lon="5.24576">
        <ele>804</ele>
      </trkpt>
      <trkpt lat="44.50964" lon="5.24567">
        <ele>804</ele>
      </trkpt>
      <trkpt lat="44.50987" lon="5.24549">
        <ele>804</ele>
      </trkpt>
      <trkpt lat="44.50995" lon="5.24539">
        <ele>804</ele>
      </trkpt>
      <trkpt lat="44.51011" lon="5.24512">
        <ele>810</ele>
      </trkpt>
      <trkpt lat="44.51026" lon="5.24501">
        <ele>809</ele>
      </trkpt>
      <trkpt lat="44.51046" lon="5.24497">
        <ele>804</ele>
      </trkpt>
      <trkpt lat="44.51069" lon="5.24499">
        <ele>802</ele>
      </trkpt>
      <trkpt lat="44.511" lon="5.24505">
        <ele>791</ele>
      </trkpt>
      <trkpt lat="44.51106" lon="5.24505">
        <ele>790</ele>
      </trkpt>
      <trkpt lat="44.51111" lon="5.24501">
        <ele>789</ele>
      </trkpt>
      <trkpt lat="44.51114" lon="5.24495">
        <ele>789</ele>
      </trkpt>
      <trkpt lat="44.51116" lon="5.2449">
        <ele>789</ele>
      </trkpt>
      <trkpt lat="44.51116" lon="5.24482">
        <ele>789</ele>
      </trkpt>
      <trkpt lat="44.5111" lon="5.24456">
        <ele>790</ele>
      </trkpt>
      <trkpt lat="44.5111" lon="5.24444">
        <ele>791</ele>
      </trkpt>
      <trkpt lat="44.51115" lon="5.24388">
        <ele>796</ele>
      </trkpt>
      <trkpt lat="44.5112" lon="5.24371">
        <ele>796</ele>
      </trkpt>
      <trkpt lat="44.51129" lon="5.24352">
        <ele>800</ele>
      </trkpt>
      <trkpt lat="44.51135" lon="5.24344">
        <ele>801</ele>
      </trkpt>
      <trkpt lat="44.51139" lon="5.24341">
        <ele>801</ele>
      </trkpt>
      <trkpt lat="44.51146" lon="5.2434">
        <ele>806</ele>
      </trkpt>
      <trkpt lat="44.5119" lon="5.24354">
        <ele>809</ele>
      </trkpt>
      <trkpt lat="44.51211" lon="5.24368">
        <ele>804</ele>
      </trkpt>
      <trkpt lat="44.51217" lon="5.2437">
        <ele>804</ele>
      </trkpt>
      <trkpt lat="44.51249" lon="5.2437">
        <ele>808</ele>
      </trkpt>
      <trkpt lat="44.51269" lon="5.24375">
        <ele>811</ele>
      </trkpt>
      <trkpt lat="44.51294" lon="5.24393">
        <ele>813</ele>
      </trkpt>
      <trkpt lat="44.51331" lon="5.24427">
        <ele>805</ele>
      </trkpt>
      <trkpt lat="44.51338" lon="5.2443">
        <ele>805</ele>
      </trkpt>
      <trkpt lat="44.51346" lon="5.2443">
        <ele>805</ele>
      </trkpt>
      <trkpt lat="44.51365" lon="5.24423">
        <ele>814</ele>
      </trkpt>
      <trkpt lat="44.5138" lon="5.24423">
        <ele>820</ele>
      </trkpt>
      <trkpt lat="44.51387" lon="5.24425">
        <ele>815</ele>
      </trkpt>
      <trkpt lat="44.51393" lon="5.24428">
        <ele>815</ele>
      </trkpt>
      <trkpt lat="44.51427" lon="5.24458">
        <ele>813</ele>
      </trkpt>
      <trkpt lat="44.51472" lon="5.24476">
        <ele>819</ele>
      </trkpt>
      <trkpt lat="44.51493" lon="5.24492">
        <ele>817</ele>
      </trkpt>
      <trkpt lat="44.51508" lon="5.24494">
        <ele>817</ele>
      </trkpt>
      <trkpt lat="44.51529" lon="5.24487">
        <ele>818</ele>
      </trkpt>
      <trkpt lat="44.51544" lon="5.24487">
        <ele>818</ele>
      </trkpt>
      <trkpt lat="44.51554" lon="5.24488">
        <ele>818</ele>
      </trkpt>
      <trkpt lat="44.51569" lon="5.24493">
        <ele>817</ele>
      </trkpt>
      <trkpt lat="44.51579" lon="5.24494">
        <ele>817</ele>
      </trkpt>
      <trkpt lat="44.51639" lon="5.24458">
        <ele>820</ele>
      </trkpt>
      <trkpt lat="44.51647" lon="5.24455">
        <ele>820</ele>
      </trkpt>
      <trkpt lat="44.51672" lon="5.24457">
        <ele>817</ele>
      </trkpt>
      <trkpt lat="44.51684" lon="5.24453">
        <ele>816</ele>
      </trkpt>
      <trkpt lat="44.5169" lon="5.24445">
        <ele>821</ele>
      </trkpt>
      <trkpt lat="44.51696" lon="5.24431">
        <ele>822</ele>
      </trkpt>
      <trkpt lat="44.51706" lon="5.24415">
        <ele>828</ele>
      </trkpt>
      <trkpt lat="44.51715" lon="5.24408">
        <ele>828</ele>
      </trkpt>
      <trkpt lat="44.51745" lon="5.24392">
        <ele>832</ele>
      </trkpt>
      <trkpt lat="44.51753" lon="5.24392">
        <ele>832</ele>
      </trkpt>
      <trkpt lat="44.51774" lon="5.24398">
        <ele>828</ele>
      </trkpt>
      <trkpt lat="44.51796" lon="5.24398">
        <ele>827</ele>
      </trkpt>
      <trkpt lat="44.51833" lon="5.2438">
        <ele>832</ele>
      </trkpt>
      <trkpt lat="44.51861" lon="5.24359">
        <ele>839</ele>
      </trkpt>
      <trkpt lat="44.51881" lon="5.24335">
        <ele>846</ele>
      </trkpt>
      <trkpt lat="44.51897" lon="5.24329">
        <ele>847</ele>
      </trkpt>
      <trkpt lat="44.51925" lon="5.2434">
        <ele>848</ele>
      </trkpt>
      <trkpt lat="44.51945" lon="5.24356">
        <ele>847</ele>
      </trkpt>
      <trkpt lat="44.51978" lon="5.24379">
        <ele>844</ele>
      </trkpt>
      <trkpt lat="44.51992" lon="5.24382">
        <ele>846</ele>
      </trkpt>
      <trkpt lat="44.52008" lon="5.24372">
        <ele>847</ele>
      </trkpt>
      <trkpt lat="44.52023" lon="5.24352">
        <ele>855</ele>
      </trkpt>
      <trkpt lat="44.52035" lon="5.24345">
        <ele>857</ele>
      </trkpt>
      <trkpt lat="44.52041" lon="5.24346">
        <ele>857</ele>
      </trkpt>
      <trkpt lat="44.52045" lon="5.2435">
        <ele>861</ele>
      </trkpt>
      <trkpt lat="44.52047" lon="5.24379">
        <ele>857</ele>
      </trkpt>
      <trkpt lat="44.52051" lon="5.24391">
        <ele>856</ele>
      </trkpt>
      <trkpt lat="44.52056" lon="5.24401">
        <ele>852</ele>
      </trkpt>
      <trkpt lat="44.52063" lon="5.24406">
        <ele>852</ele>
      </trkpt>
      <trkpt lat="44.52071" lon="5.24408">
        <ele>856</ele>
      </trkpt>
      <trkpt lat="44.52093" lon="5.24401">
        <ele>859</ele>
      </trkpt>
      <trkpt lat="44.52105" lon="5.244">
        <ele>864</ele>
      </trkpt>
      <trkpt lat="44.52128" lon="5.24416">
        <ele>868</ele>
      </trkpt>
      <trkpt lat="44.52156" lon="5.24445">
        <ele>862</ele>
      </trkpt>
      <trkpt lat="44.52179" lon="5.24454">
        <ele>853</ele>
      </trkpt>
      <trkpt lat="44.52214" lon="5.24455">
        <ele>855</ele>
      </trkpt>
      <trkpt lat="44.52273" lon="5.24444">
        <ele>861</ele>
      </trkpt>
      <trkpt lat="44.52319" lon="5.24428">
        <ele>860</ele>
      </trkpt>
      <trkpt lat="44.52363" lon="5.24404">
        <ele>869</ele>
      </trkpt>
      <trkpt lat="44.52384" lon="5.24395">
        <ele>876</ele>
      </trkpt>
      <trkpt lat="44.52404" lon="5.24389">
        <ele>875</ele>
      </trkpt>
      <trkpt lat="44.52517" lon="5.24344">
        <ele>876</ele>
      </trkpt>
      <trkpt lat="44.52546" lon="5.24337">
        <ele>882</ele>
      </trkpt>
      <trkpt lat="44.526" lon="5.24313">
        <ele>878</ele>
      </trkpt>
      <trkpt lat="44.52662" lon="5.2428">
        <ele>892</ele>
      </trkpt>
      <trkpt lat="44.52689" lon="5.24268">
        <ele>890</ele>
      </trkpt>
      <trkpt lat="44.52713" lon="5.24261">
        <ele>891</ele>
      </trkpt>
      <trkpt lat="44.52771" lon="5.2425">
        <ele>901</ele>
      </trkpt>
      <trkpt lat="44.52814" lon="5.24247">
        <ele>902</ele>
      </trkpt>
      <trkpt lat="44.52841" lon="5.24243">
        <ele>903</ele>
      </trkpt>
      <trkpt lat="44.52855" lon="5.24246">
        <ele>903</ele>
      </trkpt>
      <trkpt lat="44.52866" lon="5.24256">
        <ele>901</ele>
      </trkpt>
      <trkpt lat="44.52888" lon="5.24257">
        <ele>897</ele>
      </trkpt>
      <trkpt lat="44.52961" lon="5.24244">
        <ele>910</ele>
      </trkpt>
      <trkpt lat="44.52968" lon="5.24244">
        <ele>911</ele>
      </trkpt>
      <trkpt lat="44.52976" lon="5.24246">
        <ele>911</ele>
      </trkpt>
      <trkpt lat="44.53009" lon="5.24274">
        <ele>910</ele>
      </trkpt>
      <trkpt lat="44.53016" lon="5.24278">
        <ele>913</ele>
      </trkpt>
      <trkpt lat="44.53062" lon="5.24292">
        <ele>914</ele>
      </trkpt>
      <trkpt lat="44.53087" lon="5.24311">
        <ele>917</ele>
      </trkpt>
      <trkpt lat="44.53096" lon="5.24314">
        <ele>915</ele>
      </trkpt>
      <trkpt lat="44.53148" lon="5.24319">
        <ele>918</ele>
      </trkpt>
      <trkpt lat="44.53166" lon="5.24325">
        <ele>919</ele>
      </trkpt>
      <trkpt lat="44.53181" lon="5.24332">
        <ele>921</ele>
      </trkpt>
      <trkpt lat="44.53192" lon="5.24343">
        <ele>924</ele>
      </trkpt>
      <trkpt lat="44.53198" lon="5.24354">
        <ele>924</ele>
      </trkpt>
      <trkpt lat="44.53203" lon="5.24369">
        <ele>927</ele>
      </trkpt>
      <trkpt lat="44.53217" lon="5.24394">
        <ele>933</ele>
      </trkpt>
      <trkpt lat="44.53218" lon="5.24402">
        <ele>935</ele>
      </trkpt>
      <trkpt lat="44.53217" lon="5.24407">
        <ele>935</ele>
      </trkpt>
      <trkpt lat="44.53161" lon="5.24463">
        <ele>931</ele>
      </trkpt>
      <trkpt lat="44.53155" lon="5.2447">
        <ele>930</ele>
      </trkpt>
      <trkpt lat="44.5315" lon="5.24481">
        <ele>928</ele>
      </trkpt>
      <trkpt lat="44.53149" lon="5.24494">
        <ele>928</ele>
      </trkpt>
      <trkpt lat="44.53156" lon="5.24528">
        <ele>933</ele>
      </trkpt>
      <trkpt lat="44.53162" lon="5.2456">
        <ele>934</ele>
      </trkpt>
      <trkpt lat="44.53174" lon="5.24585">
        <ele>934</ele>
      </trkpt>
      <trkpt lat="44.53254" lon="5.24631">
        <ele>928</ele>
      </trkpt>
      <trkpt lat="44.53275" lon="5.24637">
        <ele>926</ele>
      </trkpt>
      <trkpt lat="44.53299" lon="5.2464">
        <ele>923</ele>
      </trkpt>
      <trkpt lat="44.53326" lon="5.24632">
        <ele>921</ele>
      </trkpt>
      <trkpt lat="44.5337" lon="5.24614">
        <ele>920</ele>
      </trkpt>
      <trkpt lat="44.53404" lon="5.24589">
        <ele>920</ele>
      </trkpt>
      <trkpt lat="44.53424" lon="5.24582">
        <ele>920</ele>
      </trkpt>
      <trkpt lat="44.53452" lon="5.24575">
        <ele>916</ele>
      </trkpt>
      <trkpt lat="44.53474" lon="5.24575">
        <ele>913</ele>
      </trkpt>
      <trkpt lat="44.53498" lon="5.24588">
        <ele>911</ele>
      </trkpt>
      <trkpt lat="44.53522" lon="5.24592">
        <ele>903</ele>
      </trkpt>
      <trkpt lat="44.53578" lon="5.24578">
        <ele>896</ele>
      </trkpt>
      <trkpt lat="44.53664" lon="5.24534">
        <ele>887</ele>
      </trkpt>
      <trkpt lat="44.5367" lon="5.24519">
        <ele>888</ele>
      </trkpt>
      <trkpt lat="44.5367" lon="5.2451">
        <ele>888</ele>
      </trkpt>
      <trkpt lat="44.53667" lon="5.24501">
        <ele>891</ele>
      </trkpt>
      <trkpt lat="44.53654" lon="5.24483">
        <ele>892</ele>
      </trkpt>
      <trkpt lat="44.53648" lon="5.24463">
        <ele>897</ele>
      </trkpt>
      <trkpt lat="44.53652" lon="5.24432">
        <ele>897</ele>
      </trkpt>
      <trkpt lat="44.5367" lon="5.24357">
        <ele>895</ele>
      </trkpt>
      <trkpt lat="44.53676" lon="5.24345">
        <ele>896</ele>
      </trkpt>
      <trkpt lat="44.53682" lon="5.24338">
        <ele>897</ele>
      </trkpt>
      <trkpt lat="44.53702" lon="5.24339">
        <ele>896</ele>
      </trkpt>
      <trkpt lat="44.53714" lon="5.24339">
        <ele>893</ele>
      </trkpt>
      <trkpt lat="44.53744" lon="5.2433">
        <ele>885</ele>
      </trkpt>
      <trkpt lat="44.5383" lon="5.24279">
        <ele>889</ele>
      </trkpt>
      <trkpt lat="44.53881" lon="5.24266">
        <ele>887</ele>
      </trkpt>
      <trkpt lat="44.53894" lon="5.2427">
        <ele>886</ele>
      </trkpt>
      <trkpt lat="44.53915" lon="5.24271">
        <ele>884</ele>
      </trkpt>
      <trkpt lat="44.53935" lon="5.24262">
        <ele>883</ele>
      </trkpt>
      <trkpt lat="44.53966" lon="5.24256">
        <ele>884</ele>
      </trkpt>
      <trkpt lat="44.53992" lon="5.2426">
        <ele>885</ele>
      </trkpt>
      <trkpt lat="44.54022" lon="5.2428">
        <ele>882</ele>
      </trkpt>
      <trkpt lat="44.54039" lon="5.24296">
        <ele>880</ele>
      </trkpt>
      <trkpt lat="44.54057" lon="5.243">
        <ele>879</ele>
      </trkpt>
      <trkpt lat="44.54073" lon="5.24301">
        <ele>879</ele>
      </trkpt>
      <trkpt lat="44.54239" lon="5.24235">
        <ele>870</ele>
      </trkpt>
      <trkpt lat="44.54251" lon="5.24224">
        <ele>872</ele>
      </trkpt>
      <trkpt lat="44.54269" lon="5.24203">
        <ele>875</ele>
      </trkpt>
      <trkpt lat="44.54283" lon="5.24194">
        <ele>877</ele>
      </trkpt>
      <trkpt lat="44.54303" lon="5.24194">
        <ele>877</ele>
      </trkpt>
      <trkpt lat="44.54335" lon="5.24216">
        <ele>877</ele>
      </trkpt>
      <trkpt lat="44.54409" lon="5.24296">
        <ele>863</ele>
      </trkpt>
      <trkpt lat="44.5443" lon="5.2431">
        <ele>860</ele>
      </trkpt>
      <trkpt lat="44.54507" lon="5.24314">
        <ele>849</ele>
      </trkpt>
      <trkpt lat="44.54523" lon="5.24309">
        <ele>851</ele>
      </trkpt>
      <trkpt lat="44.54536" lon="5.24293">
        <ele>852</ele>
      </trkpt>
      <trkpt lat="44.54543" lon="5.24289">
        <ele>853</ele>
      </trkpt>
      <trkpt lat="44.54552" lon="5.2429">
        <ele>852</ele>
      </trkpt>
      <trkpt lat="44.54593" lon="5.24308">
        <ele>846</ele>
      </trkpt>
      <trkpt lat="44.54605" lon="5.24316">
        <ele>845</ele>
      </trkpt>
      <trkpt lat="44.54615" lon="5.24317">
        <ele>845</ele>
      </trkpt>
      <trkpt lat="44.54624" lon="5.24311">
        <ele>845</ele>
      </trkpt>
      <trkpt lat="44.54647" lon="5.24255">
        <ele>843</ele>
      </trkpt>
      <trkpt lat="44.54661" lon="5.24246">
        <ele>844</ele>
      </trkpt>
      <trkpt lat="44.54722" lon="5.24251">
        <ele>847</ele>
      </trkpt>
      <trkpt lat="44.54739" lon="5.24259">
        <ele>847</ele>
      </trkpt>
      <trkpt lat="44.54759" lon="5.24276">
        <ele>848</ele>
      </trkpt>
      <trkpt lat="44.54777" lon="5.24322">
        <ele>840</ele>
      </trkpt>
      <trkpt lat="44.54808" lon="5.24381">
        <ele>830</ele>
      </trkpt>
      <trkpt lat="44.54833" lon="5.24441">
        <ele>820</ele>
      </trkpt>
      <trkpt lat="44.54845" lon="5.24452">
        <ele>820</ele>
      </trkpt>
      <trkpt lat="44.54894" lon="5.24464">
        <ele>819</ele>
      </trkpt>
      <trkpt lat="44.54924" lon="5.24483">
        <ele>812</ele>
      </trkpt>
      <trkpt lat="44.54928" lon="5.24483">
        <ele>811</ele>
      </trkpt>
      <trkpt lat="44.54935" lon="5.24478">
        <ele>809</ele>
      </trkpt>
      <trkpt lat="44.5494" lon="5.24468">
        <ele>808</ele>
      </trkpt>
      <trkpt lat="44.54942" lon="5.2446">
        <ele>808</ele>
      </trkpt>
      <trkpt lat="44.54948" lon="5.2445">
        <ele>807</ele>
      </trkpt>
      <trkpt lat="44.54951" lon="5.24449">
        <ele>807</ele>
      </trkpt>
      <trkpt lat="44.54953" lon="5.2445">
        <ele>807</ele>
      </trkpt>
      <trkpt lat="44.54955" lon="5.24461">
        <ele>807</ele>
      </trkpt>
      <trkpt lat="44.54945" lon="5.24497">
        <ele>805</ele>
      </trkpt>
      <trkpt lat="44.54937" lon="5.24508">
        <ele>805</ele>
      </trkpt>
      <trkpt lat="44.54871" lon="5.24507">
        <ele>804</ele>
      </trkpt>
      <trkpt lat="44.54853" lon="5.24514">
        <ele>801</ele>
      </trkpt>
      <trkpt lat="44.54838" lon="5.24511">
        <ele>799</ele>
      </trkpt>
      <trkpt lat="44.5483" lon="5.24514">
        <ele>798</ele>
      </trkpt>
      <trkpt lat="44.5483" lon="5.24524">
        <ele>798</ele>
      </trkpt>
      <trkpt lat="44.54835" lon="5.24529">
        <ele>798</ele>
      </trkpt>
      <trkpt lat="44.54853" lon="5.24532">
        <ele>797</ele>
      </trkpt>
      <trkpt lat="44.54876" lon="5.24544">
        <ele>796</ele>
      </trkpt>
      <trkpt lat="44.549" lon="5.2457">
        <ele>790</ele>
      </trkpt>
      <trkpt lat="44.5496" lon="5.24629">
        <ele>775</ele>
      </trkpt>
      <trkpt lat="44.54979" lon="5.24642">
        <ele>775</ele>
      </trkpt>
      <trkpt lat="44.54986" lon="5.2464">
        <ele>775</ele>
      </trkpt>
      <trkpt lat="44.54991" lon="5.24633">
        <ele>775</ele>
      </trkpt>
      <trkpt lat="44.55022" lon="5.2456">
        <ele>775</ele>
      </trkpt>
      <trkpt lat="44.55032" lon="5.24543">
        <ele>777</ele>
      </trkpt>
      <trkpt lat="44.55045" lon="5.24531">
        <ele>779</ele>
      </trkpt>
      <trkpt lat="44.55071" lon="5.24514">
        <ele>782</ele>
      </trkpt>
      <trkpt lat="44.55078" lon="5.24512">
        <ele>781</ele>
      </trkpt>
      <trkpt lat="44.55082" lon="5.24516">
        <ele>780</ele>
      </trkpt>
      <trkpt lat="44.55082" lon="5.24522">
        <ele>780</ele>
      </trkpt>
      <trkpt lat="44.55081" lon="5.24526">
        <ele>779</ele>
      </trkpt>
      <trkpt lat="44.55068" lon="5.24533">
        <ele>777</ele>
      </trkpt>
      <trkpt lat="44.55054" lon="5.24546">
        <ele>775</ele>
      </trkpt>
      <trkpt lat="44.55032" lon="5.24589">
        <ele>769</ele>
      </trkpt>
      <trkpt lat="44.55015" lon="5.24663">
        <ele>761</ele>
      </trkpt>
      <trkpt lat="44.55002" lon="5.24726">
        <ele>756</ele>
      </trkpt>
      <trkpt lat="44.54996" lon="5.24739">
        <ele>756</ele>
      </trkpt>
      <trkpt lat="44.54977" lon="5.24749">
        <ele>757</ele>
      </trkpt>
      <trkpt lat="44.54965" lon="5.24751">
        <ele>757</ele>
      </trkpt>
      <trkpt lat="44.54908" lon="5.24735">
        <ele>755</ele>
      </trkpt>
      <trkpt lat="44.54887" lon="5.24738">
        <ele>754</ele>
      </trkpt>
      <trkpt lat="44.54849" lon="5.2475">
        <ele>751</ele>
      </trkpt>
      <trkpt lat="44.5481" lon="5.24743">
        <ele>749</ele>
      </trkpt>
      <trkpt lat="44.54793" lon="5.24734">
        <ele>748</ele>
      </trkpt>
      <trkpt lat="44.54786" lon="5.24717">
        <ele>750</ele>
      </trkpt>
      <trkpt lat="44.54784" lon="5.24678">
        <ele>753</ele>
      </trkpt>
      <trkpt lat="44.54781" lon="5.2467">
        <ele>754</ele>
      </trkpt>
      <trkpt lat="44.54761" lon="5.24647">
        <ele>756</ele>
      </trkpt>
      <trkpt lat="44.54758" lon="5.2464">
        <ele>756</ele>
      </trkpt>
      <trkpt lat="44.54754" lon="5.24602">
        <ele>759</ele>
      </trkpt>
      <trkpt lat="44.54745" lon="5.2458">
        <ele>758</ele>
      </trkpt>
      <trkpt lat="44.54736" lon="5.24567">
        <ele>757</ele>
      </trkpt>
      <trkpt lat="44.54726" lon="5.24563">
        <ele>756</ele>
      </trkpt>
      <trkpt lat="44.54686" lon="5.24587">
        <ele>747</ele>
      </trkpt>
      <trkpt lat="44.54677" lon="5.24588">
        <ele>746</ele>
      </trkpt>
      <trkpt lat="44.54609" lon="5.24573">
        <ele>741</ele>
      </trkpt>
      <trkpt lat="44.54607" lon="5.24576">
        <ele>741</ele>
      </trkpt>
      <trkpt lat="44.54607" lon="5.24583">
        <ele>741</ele>
      </trkpt>
      <trkpt lat="44.5463" lon="5.24589">
        <ele>741</ele>
      </trkpt>
      <trkpt lat="44.54683" lon="5.24615">
        <ele>741</ele>
      </trkpt>
      <trkpt lat="44.54697" lon="5.24625">
        <ele>739</ele>
      </trkpt>
      <trkpt lat="44.54703" lon="5.24632">
        <ele>737</ele>
      </trkpt>
      <trkpt lat="44.54705" lon="5.24647">
        <ele>736</ele>
      </trkpt>
      <trkpt lat="44.54706" lon="5.24703">
        <ele>730</ele>
      </trkpt>
      <trkpt lat="44.54709" lon="5.24718">
        <ele>730</ele>
      </trkpt>
      <trkpt lat="44.54729" lon="5.24766">
        <ele>728</ele>
      </trkpt>
      <trkpt lat="44.54761" lon="5.24852">
        <ele>721</ele>
      </trkpt>
      <trkpt lat="44.5478" lon="5.24876">
        <ele>719</ele>
      </trkpt>
      <trkpt lat="44.54822" lon="5.24911">
        <ele>715</ele>
      </trkpt>
      <trkpt lat="44.54834" lon="5.24932">
        <ele>712</ele>
      </trkpt>
      <trkpt lat="44.54862" lon="5.24963">
        <ele>707</ele>
      </trkpt>
      <trkpt lat="44.54913" lon="5.25013">
        <ele>703</ele>
      </trkpt>
      <trkpt lat="44.54934" lon="5.25023">
        <ele>701</ele>
      </trkpt>
      <trkpt lat="44.54953" lon="5.25048">
        <ele>698</ele>
      </trkpt>
      <trkpt lat="44.54966" lon="5.25059">
        <ele>696</ele>
      </trkpt>
      <trkpt lat="44.55021" lon="5.25092">
        <ele>688</ele>
      </trkpt>
      <trkpt lat="44.5503" lon="5.25087">
        <ele>691</ele>
      </trkpt>
      <trkpt lat="44.55036" lon="5.25071">
        <ele>694</ele>
      </trkpt>
      <trkpt lat="44.55048" lon="5.25058">
        <ele>698</ele>
      </trkpt>
      <trkpt lat="44.55057" lon="5.25058">
        <ele>700</ele>
      </trkpt>
      <trkpt lat="44.55084" lon="5.25108">
        <ele>691</ele>
      </trkpt>
      <trkpt lat="44.55088" lon="5.25141">
        <ele>685</ele>
      </trkpt>
      <trkpt lat="44.55093" lon="5.25155">
        <ele>682</ele>
      </trkpt>
      <trkpt lat="44.55111" lon="5.25183">
        <ele>675</ele>
      </trkpt>
      <trkpt lat="44.55172" lon="5.25193">
        <ele>676</ele>
      </trkpt>
      <trkpt lat="44.55183" lon="5.25188">
        <ele>676</ele>
      </trkpt>
      <trkpt lat="44.55193" lon="5.25187">
        <ele>676</ele>
      </trkpt>
      <trkpt lat="44.5521" lon="5.25196">
        <ele>676</ele>
      </trkpt>
      <trkpt lat="44.55235" lon="5.2522">
        <ele>676</ele>
      </trkpt>
      <trkpt lat="44.5524" lon="5.25234">
        <ele>675</ele>
      </trkpt>
      <trkpt lat="44.55238" lon="5.25252">
        <ele>674</ele>
      </trkpt>
      <trkpt lat="44.55241" lon="5.25264">
        <ele>674</ele>
      </trkpt>
      <trkpt lat="44.55284" lon="5.2529">
        <ele>670</ele>
      </trkpt>
      <trkpt lat="44.55297" lon="5.25312">
        <ele>668</ele>
      </trkpt>
      <trkpt lat="44.55309" lon="5.25349">
        <ele>665</ele>
      </trkpt>
      <trkpt lat="44.55315" lon="5.25359">
        <ele>664</ele>
      </trkpt>
      <trkpt lat="44.55326" lon="5.25365">
        <ele>663</ele>
      </trkpt>
      <trkpt lat="44.55331" lon="5.25375">
        <ele>662</ele>
      </trkpt>
      <trkpt lat="44.5533" lon="5.25395">
        <ele>660</ele>
      </trkpt>
      <trkpt lat="44.55333" lon="5.25407">
        <ele>658</ele>
      </trkpt>
      <trkpt lat="44.55362" lon="5.25455">
        <ele>650</ele>
      </trkpt>
      <trkpt lat="44.55373" lon="5.25457">
        <ele>651</ele>
      </trkpt>
      <trkpt lat="44.55382" lon="5.25448">
        <ele>652</ele>
      </trkpt>
      <trkpt lat="44.55404" lon="5.25408">
        <ele>656</ele>
      </trkpt>
      <trkpt lat="44.55412" lon="5.25399">
        <ele>658</ele>
      </trkpt>
      <trkpt lat="44.55416" lon="5.25397">
        <ele>658</ele>
      </trkpt>
      <trkpt lat="44.55428" lon="5.25399">
        <ele>660</ele>
      </trkpt>
      <trkpt lat="44.55433" lon="5.25404">
        <ele>661</ele>
      </trkpt>
      <trkpt lat="44.55436" lon="5.2542">
        <ele>663</ele>
      </trkpt>
      <trkpt lat="44.55429" lon="5.2547">
        <ele>658</ele>
      </trkpt>
      <trkpt lat="44.55431" lon="5.25495">
        <ele>655</ele>
      </trkpt>
      <trkpt lat="44.55463" lon="5.25548">
        <ele>651</ele>
      </trkpt>
      <trkpt lat="44.55502" lon="5.25583">
        <ele>646</ele>
      </trkpt>
      <trkpt lat="44.55534" lon="5.25631">
        <ele>650</ele>
      </trkpt>
      <trkpt lat="44.55544" lon="5.25658">
        <ele>652</ele>
      </trkpt>
      <trkpt lat="44.55569" lon="5.25696">
        <ele>654</ele>
      </trkpt>
      <trkpt lat="44.55577" lon="5.25718">
        <ele>654</ele>
      </trkpt>
      <trkpt lat="44.55585" lon="5.25728">
        <ele>655</ele>
      </trkpt>
      <trkpt lat="44.55608" lon="5.25748">
        <ele>655</ele>
      </trkpt>
      <trkpt lat="44.5562" lon="5.2576">
        <ele>654</ele>
      </trkpt>
      <trkpt lat="44.55627" lon="5.25777">
        <ele>653</ele>
      </trkpt>
      <trkpt lat="44.55661" lon="5.25813">
        <ele>651</ele>
      </trkpt>
      <trkpt lat="44.55691" lon="5.25868">
        <ele>642</ele>
      </trkpt>
      <trkpt lat="44.55704" lon="5.25887">
        <ele>641</ele>
      </trkpt>
      <trkpt lat="44.55766" lon="5.25936">
        <ele>636</ele>
      </trkpt>
      <trkpt lat="44.55776" lon="5.25971">
        <ele>631</ele>
      </trkpt>
      <trkpt lat="44.558" lon="5.25985">
        <ele>627</ele>
      </trkpt>
      <trkpt lat="44.55822" lon="5.25995">
        <ele>632</ele>
      </trkpt>
      <trkpt lat="44.55839" lon="5.26006">
        <ele>637</ele>
      </trkpt>
      <trkpt lat="44.55866" lon="5.26027">
        <ele>642</ele>
      </trkpt>
      <trkpt lat="44.55881" lon="5.26055">
        <ele>646</ele>
      </trkpt>
      <trkpt lat="44.55893" lon="5.26081">
        <ele>637</ele>
      </trkpt>
      <trkpt lat="44.55898" lon="5.26111">
        <ele>629</ele>
      </trkpt>
      <trkpt lat="44.55929" lon="5.26173">
        <ele>624</ele>
      </trkpt>
      <trkpt lat="44.55942" lon="5.26187">
        <ele>623</ele>
      </trkpt>
      <trkpt lat="44.55965" lon="5.26204">
        <ele>621</ele>
      </trkpt>
      <trkpt lat="44.56028" lon="5.2626">
        <ele>620</ele>
      </trkpt>
      <trkpt lat="44.56043" lon="5.26284">
        <ele>618</ele>
      </trkpt>
      <trkpt lat="44.56085" lon="5.26374">
        <ele>610</ele>
      </trkpt>
      <trkpt lat="44.56097" lon="5.26404">
        <ele>604</ele>
      </trkpt>
      <trkpt lat="44.56101" lon="5.26429">
        <ele>600</ele>
      </trkpt>
      <trkpt lat="44.56102" lon="5.2645">
        <ele>599</ele>
      </trkpt>
      <trkpt lat="44.56108" lon="5.26474">
        <ele>597</ele>
      </trkpt>
      <trkpt lat="44.56117" lon="5.26497">
        <ele>595</ele>
      </trkpt>
      <trkpt lat="44.56134" lon="5.26512">
        <ele>594</ele>
      </trkpt>
      <trkpt lat="44.56157" lon="5.26524">
        <ele>593</ele>
      </trkpt>
      <trkpt lat="44.56198" lon="5.26529">
        <ele>593</ele>
      </trkpt>
      <trkpt lat="44.56219" lon="5.26529">
        <ele>593</ele>
      </trkpt>
      <trkpt lat="44.5624" lon="5.26537">
        <ele>593</ele>
      </trkpt>
      <trkpt lat="44.56254" lon="5.26546">
        <ele>593</ele>
      </trkpt>
      <trkpt lat="44.5627" lon="5.26562">
        <ele>593</ele>
      </trkpt>
      <trkpt lat="44.56278" lon="5.26577">
        <ele>593</ele>
      </trkpt>
      <trkpt lat="44.56283" lon="5.26597">
        <ele>593</ele>
      </trkpt>
      <trkpt lat="44.56289" lon="5.26612">
        <ele>592</ele>
      </trkpt>
      <trkpt lat="44.563" lon="5.26625">
        <ele>592</ele>
      </trkpt>
      <trkpt lat="44.56307" lon="5.26643">
        <ele>592</ele>
      </trkpt>
      <trkpt lat="44.56315" lon="5.26677">
        <ele>591</ele>
      </trkpt>
      <trkpt lat="44.56329" lon="5.26705">
        <ele>589</ele>
      </trkpt>
      <trkpt lat="44.56342" lon="5.26717">
        <ele>588</ele>
      </trkpt>
      <trkpt lat="44.56413" lon="5.26746">
        <ele>589</ele>
      </trkpt>
      <trkpt lat="44.56424" lon="5.26761">
        <ele>588</ele>
      </trkpt>
      <trkpt lat="44.56433" lon="5.26788">
        <ele>587</ele>
      </trkpt>
      <trkpt lat="44.56444" lon="5.26804">
        <ele>586</ele>
      </trkpt>
      <trkpt lat="44.56481" lon="5.26825">
        <ele>588</ele>
      </trkpt>
      <trkpt lat="44.56504" lon="5.26829">
        <ele>586</ele>
      </trkpt>
      <trkpt lat="44.5656" lon="5.2683">
        <ele>582</ele>
      </trkpt>
      <trkpt lat="44.56578" lon="5.26834">
        <ele>582</ele>
      </trkpt>
      <trkpt lat="44.5662" lon="5.26854">
        <ele>582</ele>
      </trkpt>
      <trkpt lat="44.56631" lon="5.2686">
        <ele>581</ele>
      </trkpt>
      <trkpt lat="44.5664" lon="5.26874">
        <ele>580</ele>
      </trkpt>
      <trkpt lat="44.56655" lon="5.2691">
        <ele>578</ele>
      </trkpt>
      <trkpt lat="44.56668" lon="5.26934">
        <ele>577</ele>
      </trkpt>
      <trkpt lat="44.56687" lon="5.26956">
        <ele>576</ele>
      </trkpt>
      <trkpt lat="44.56708" lon="5.26974">
        <ele>577</ele>
      </trkpt>
      <trkpt lat="44.56724" lon="5.26978">
        <ele>577</ele>
      </trkpt>
      <trkpt lat="44.56746" lon="5.26974">
        <ele>581</ele>
      </trkpt>
      <trkpt lat="44.56766" lon="5.26976">
        <ele>585</ele>
      </trkpt>
      <trkpt lat="44.56785" lon="5.26985">
        <ele>586</ele>
      </trkpt>
      <trkpt lat="44.56805" lon="5.27004">
        <ele>587</ele>
      </trkpt>
      <trkpt lat="44.56813" lon="5.27021">
        <ele>583</ele>
      </trkpt>
      <trkpt lat="44.56819" lon="5.27044">
        <ele>579</ele>
      </trkpt>
      <trkpt lat="44.56818" lon="5.27065">
        <ele>575</ele>
      </trkpt>
      <trkpt lat="44.56824" lon="5.27095">
        <ele>576</ele>
      </trkpt>
      <trkpt lat="44.56836" lon="5.27119">
        <ele>576</ele>
      </trkpt>
      <trkpt lat="44.56856" lon="5.27135">
        <ele>577</ele>
      </trkpt>
      <trkpt lat="44.56884" lon="5.27153">
        <ele>579</ele>
      </trkpt>
      <trkpt lat="44.56896" lon="5.27167">
        <ele>578</ele>
      </trkpt>
      <trkpt lat="44.56905" lon="5.27189">
        <ele>578</ele>
      </trkpt>
      <trkpt lat="44.56922" lon="5.27241">
        <ele>576</ele>
      </trkpt>
      <trkpt lat="44.56931" lon="5.27278">
        <ele>574</ele>
      </trkpt>
      <trkpt lat="44.56957" lon="5.27359">
        <ele>569</ele>
      </trkpt>
      <trkpt lat="44.56986" lon="5.27434">
        <ele>564</ele>
      </trkpt>
      <trkpt lat="44.57002" lon="5.27489">
        <ele>561</ele>
      </trkpt>
      <trkpt lat="44.57008" lon="5.27496">
        <ele>561</ele>
      </trkpt>
      <trkpt lat="44.57015" lon="5.27499">
        <ele>562</ele>
      </trkpt>
      <trkpt lat="44.5704" lon="5.27506">
        <ele>563</ele>
      </trkpt>
      <trkpt lat="44.57042" lon="5.27494">
        <ele>563</ele>
      </trkpt>
      <trkpt lat="44.57045" lon="5.27493">
        <ele>563</ele>
      </trkpt>
      <trkpt lat="44.57093" lon="5.2751">
        <ele>561</ele>
      </trkpt>
      <trkpt lat="44.57222" lon="5.27528">
        <ele>562</ele>
      </trkpt>
      <trkpt lat="44.57249" lon="5.27538">
        <ele>563</ele>
      </trkpt>
      <trkpt lat="44.57312" lon="5.27565">
        <ele>564</ele>
      </trkpt>
      <trkpt lat="44.57353" lon="5.27575">
        <ele>565</ele>
      </trkpt>
      <trkpt lat="44.57378" lon="5.27587">
        <ele>564</ele>
      </trkpt>
      <trkpt lat="44.57478" lon="5.27622">
        <ele>558</ele>
      </trkpt>
      <trkpt lat="44.57507" lon="5.27618">
        <ele>556</ele>
      </trkpt>
      <trkpt lat="44.5756" lon="5.27603">
        <ele>553</ele>
      </trkpt>
      <trkpt lat="44.57622" lon="5.27569">
        <ele>554</ele>
      </trkpt>
      <trkpt lat="44.57646" lon="5.27568">
        <ele>555</ele>
      </trkpt>
      <trkpt lat="44.57663" lon="5.27568">
        <ele>555</ele>
      </trkpt>
      <trkpt lat="44.57688" lon="5.27573">
        <ele>557</ele>
      </trkpt>
      <trkpt lat="44.57695" lon="5.27577">
        <ele>557</ele>
      </trkpt>
      <trkpt lat="44.577" lon="5.27583">
        <ele>557</ele>
      </trkpt>
      <trkpt lat="44.57732" lon="5.27645">
        <ele>561</ele>
      </trkpt>
      <trkpt lat="44.57746" lon="5.27667">
        <ele>560</ele>
      </trkpt>
      <trkpt lat="44.57768" lon="5.27697">
        <ele>559</ele>
      </trkpt>
      <trkpt lat="44.57777" lon="5.27705">
        <ele>558</ele>
      </trkpt>
      <trkpt lat="44.57798" lon="5.27718">
        <ele>557</ele>
      </trkpt>
      <trkpt lat="44.57816" lon="5.27722">
        <ele>556</ele>
      </trkpt>
      <trkpt lat="44.5783" lon="5.27722">
        <ele>555</ele>
      </trkpt>
      <trkpt lat="44.57859" lon="5.27715">
        <ele>553</ele>
      </trkpt>
      <trkpt lat="44.57915" lon="5.27685">
        <ele>552</ele>
      </trkpt>
      <trkpt lat="44.57927" lon="5.2768">
        <ele>552</ele>
      </trkpt>
      <trkpt lat="44.57938" lon="5.27678">
        <ele>552</ele>
      </trkpt>
      <trkpt lat="44.57965" lon="5.27677">
        <ele>553</ele>
      </trkpt>
      <trkpt lat="44.5801" lon="5.27689">
        <ele>551</ele>
      </trkpt>
      <trkpt lat="44.58038" lon="5.2769">
        <ele>549</ele>
      </trkpt>
      <trkpt lat="44.58079" lon="5.27686">
        <ele>545</ele>
      </trkpt>
      <trkpt lat="44.58099" lon="5.27681">
        <ele>547</ele>
      </trkpt>
      <trkpt lat="44.58134" lon="5.27668">
        <ele>551</ele>
      </trkpt>
      <trkpt lat="44.58157" lon="5.27664">
        <ele>551</ele>
      </trkpt>
      <trkpt lat="44.58191" lon="5.27663">
        <ele>552</ele>
      </trkpt>
      <trkpt lat="44.58205" lon="5.27664">
        <ele>552</ele>
      </trkpt>
      <trkpt lat="44.58218" lon="5.27671">
        <ele>553</ele>
      </trkpt>
      <trkpt lat="44.58242" lon="5.27687">
        <ele>553</ele>
      </trkpt>
      <trkpt lat="44.58257" lon="5.277">
        <ele>551</ele>
      </trkpt>
      <trkpt lat="44.58292" lon="5.27738">
        <ele>547</ele>
      </trkpt>
      <trkpt lat="44.58302" lon="5.27746">
        <ele>547</ele>
      </trkpt>
      <trkpt lat="44.58312" lon="5.2775">
        <ele>547</ele>
      </trkpt>
      <trkpt lat="44.58324" lon="5.27751">
        <ele>547</ele>
      </trkpt>
      <trkpt lat="44.58334" lon="5.2775">
        <ele>547</ele>
      </trkpt>
      <trkpt lat="44.58345" lon="5.27746">
        <ele>549</ele>
      </trkpt>
      <trkpt lat="44.58379" lon="5.27729">
        <ele>554</ele>
      </trkpt>
      <trkpt lat="44.58419" lon="5.27735">
        <ele>547</ele>
      </trkpt>
      <trkpt lat="44.58446" lon="5.27731">
        <ele>546</ele>
      </trkpt>
      <trkpt lat="44.58524" lon="5.27727">
        <ele>545</ele>
      </trkpt>
      <trkpt lat="44.58649" lon="5.27691">
        <ele>543</ele>
      </trkpt>
      <trkpt lat="44.5869" lon="5.27683">
        <ele>538</ele>
      </trkpt>
      <trkpt lat="44.58719" lon="5.27674">
        <ele>539</ele>
      </trkpt>
      <trkpt lat="44.58768" lon="5.27672">
        <ele>540</ele>
      </trkpt>
      <trkpt lat="44.58837" lon="5.27647">
        <ele>536</ele>
      </trkpt>
      <trkpt lat="44.58897" lon="5.27631">
        <ele>538</ele>
      </trkpt>
      <trkpt lat="44.58926" lon="5.27634">
        <ele>537</ele>
      </trkpt>
      <trkpt lat="44.59007" lon="5.27657">
        <ele>534</ele>
      </trkpt>
      <trkpt lat="44.59077" lon="5.27667">
        <ele>538</ele>
      </trkpt>
      <trkpt lat="44.59163" lon="5.27713">
        <ele>536</ele>
      </trkpt>
      <trkpt lat="44.59179" lon="5.27729">
        <ele>536</ele>
      </trkpt>
      <trkpt lat="44.59196" lon="5.27777">
        <ele>536</ele>
      </trkpt>
      <trkpt lat="44.59207" lon="5.27801">
        <ele>535</ele>
      </trkpt>
      <trkpt lat="44.59218" lon="5.27816">
        <ele>534</ele>
      </trkpt>
      <trkpt lat="44.59228" lon="5.27822">
        <ele>534</ele>
      </trkpt>
      <trkpt lat="44.59268" lon="5.27831">
        <ele>542</ele>
      </trkpt>
      <trkpt lat="44.59283" lon="5.27843">
        <ele>539</ele>
      </trkpt>
      <trkpt lat="44.59305" lon="5.27869">
        <ele>535</ele>
      </trkpt>
      <trkpt lat="44.59314" lon="5.27875">
        <ele>537</ele>
      </trkpt>
      <trkpt lat="44.59333" lon="5.2788">
        <ele>542</ele>
      </trkpt>
      <trkpt lat="44.59355" lon="5.27892">
        <ele>548</ele>
      </trkpt>
      <trkpt lat="44.59385" lon="5.27913">
        <ele>544</ele>
      </trkpt>
      <trkpt lat="44.59399" lon="5.27926">
        <ele>542</ele>
      </trkpt>
      <trkpt lat="44.59403" lon="5.27933">
        <ele>540</ele>
      </trkpt>
      <trkpt lat="44.59406" lon="5.27943">
        <ele>538</ele>
      </trkpt>
      <trkpt lat="44.59404" lon="5.27952">
        <ele>535</ele>
      </trkpt>
      <trkpt lat="44.59389" lon="5.27974">
        <ele>529</ele>
      </trkpt>
      <trkpt lat="44.59388" lon="5.27985">
        <ele>528</ele>
      </trkpt>
      <trkpt lat="44.59391" lon="5.28">
        <ele>527</ele>
      </trkpt>
      <trkpt lat="44.594" lon="5.28016">
        <ele>526</ele>
      </trkpt>
      <trkpt lat="44.59405" lon="5.28043">
        <ele>524</ele>
      </trkpt>
      <trkpt lat="44.59414" lon="5.28078">
        <ele>526</ele>
      </trkpt>
      <trkpt lat="44.59433" lon="5.28107">
        <ele>528</ele>
      </trkpt>
      <trkpt lat="44.5946" lon="5.2814">
        <ele>526</ele>
      </trkpt>
      <trkpt lat="44.59477" lon="5.28178">
        <ele>524</ele>
      </trkpt>
      <trkpt lat="44.59535" lon="5.28326">
        <ele>529</ele>
      </trkpt>
      <trkpt lat="44.59558" lon="5.28362">
        <ele>529</ele>
      </trkpt>
      <trkpt lat="44.59588" lon="5.28394">
        <ele>529</ele>
      </trkpt>
      <trkpt lat="44.59738" lon="5.28502">
        <ele>537</ele>
      </trkpt>
      <trkpt lat="44.5982" lon="5.28532">
        <ele>545</ele>
      </trkpt>
      <trkpt lat="44.59829" lon="5.2853">
        <ele>546</ele>
      </trkpt>
      <trkpt lat="44.59835" lon="5.28523">
        <ele>547</ele>
      </trkpt>
      <trkpt lat="44.59846" lon="5.28499">
        <ele>549</ele>
      </trkpt>
      <trkpt lat="44.59857" lon="5.28485">
        <ele>551</ele>
      </trkpt>
      <trkpt lat="44.59871" lon="5.28473">
        <ele>546</ele>
      </trkpt>
      <trkpt lat="44.59943" lon="5.28445">
        <ele>521</ele>
      </trkpt>
      <trkpt lat="44.59956" lon="5.28449">
        <ele>524</ele>
      </trkpt>
      <trkpt lat="44.59967" lon="5.28458">
        <ele>526</ele>
      </trkpt>
      <trkpt lat="44.59973" lon="5.28474">
        <ele>529</ele>
      </trkpt>
      <trkpt lat="44.59986" lon="5.28496">
        <ele>533</ele>
      </trkpt>
      <trkpt lat="44.60003" lon="5.28509">
        <ele>536</ele>
      </trkpt>
      <trkpt lat="44.60028" lon="5.28517">
        <ele>539</ele>
      </trkpt>
      <trkpt lat="44.60095" lon="5.28506">
        <ele>521</ele>
      </trkpt>
      <trkpt lat="44.60125" lon="5.28508">
        <ele>515</ele>
      </trkpt>
      <trkpt lat="44.60144" lon="5.28513">
        <ele>511</ele>
      </trkpt>
      <trkpt lat="44.60155" lon="5.28522">
        <ele>509</ele>
      </trkpt>
      <trkpt lat="44.60165" lon="5.28539">
        <ele>506</ele>
      </trkpt>
      <trkpt lat="44.60171" lon="5.28557">
        <ele>504</ele>
      </trkpt>
      <trkpt lat="44.60177" lon="5.28654">
        <ele>509</ele>
      </trkpt>
      <trkpt lat="44.6018" lon="5.28672">
        <ele>508</ele>
      </trkpt>
      <trkpt lat="44.60185" lon="5.28682">
        <ele>508</ele>
      </trkpt>
      <trkpt lat="44.60235" lon="5.28708">
        <ele>506</ele>
      </trkpt>
      <trkpt lat="44.60268" lon="5.28739">
        <ele>508</ele>
      </trkpt>
      <trkpt lat="44.60281" lon="5.28747">
        <ele>509</ele>
      </trkpt>
      <trkpt lat="44.60356" lon="5.28775">
        <ele>504</ele>
      </trkpt>
      <trkpt lat="44.60373" lon="5.28773">
        <ele>506</ele>
      </trkpt>
      <trkpt lat="44.60434" lon="5.28753">
        <ele>511</ele>
      </trkpt>
      <trkpt lat="44.60448" lon="5.28751">
        <ele>511</ele>
      </trkpt>
      <trkpt lat="44.60575" lon="5.28838">
        <ele>518</ele>
      </trkpt>
      <trkpt lat="44.60702" lon="5.2901">
        <ele>513</ele>
      </trkpt>
      <trkpt lat="44.60724" lon="5.29029">
        <ele>513</ele>
      </trkpt>
      <trkpt lat="44.60763" lon="5.29052">
        <ele>512</ele>
      </trkpt>
      <trkpt lat="44.60772" lon="5.29059">
        <ele>513</ele>
      </trkpt>
      <trkpt lat="44.6081" lon="5.29082">
        <ele>518</ele>
      </trkpt>
      <trkpt lat="44.60817" lon="5.29091">
        <ele>518</ele>
      </trkpt>
      <trkpt lat="44.60821" lon="5.29102">
        <ele>519</ele>
      </trkpt>
      <trkpt lat="44.60822" lon="5.29115">
        <ele>519</ele>
      </trkpt>
      <trkpt lat="44.60817" lon="5.29137">
        <ele>520</ele>
      </trkpt>
      <trkpt lat="44.6081" lon="5.29155">
        <ele>519</ele>
      </trkpt>
      <trkpt lat="44.60806" lon="5.29173">
        <ele>519</ele>
      </trkpt>
      <trkpt lat="44.60806" lon="5.29186">
        <ele>518</ele>
      </trkpt>
      <trkpt lat="44.60811" lon="5.29199">
        <ele>518</ele>
      </trkpt>
      <trkpt lat="44.60822" lon="5.29219">
        <ele>519</ele>
      </trkpt>
      <trkpt lat="44.60832" lon="5.2923">
        <ele>521</ele>
      </trkpt>
      <trkpt lat="44.60861" lon="5.29245">
        <ele>523</ele>
      </trkpt>
      <trkpt lat="44.60883" lon="5.29252">
        <ele>523</ele>
      </trkpt>
      <trkpt lat="44.60893" lon="5.29257">
        <ele>523</ele>
      </trkpt>
      <trkpt lat="44.60901" lon="5.29269">
        <ele>523</ele>
      </trkpt>
      <trkpt lat="44.60918" lon="5.29305">
        <ele>519</ele>
      </trkpt>
      <trkpt lat="44.60931" lon="5.2932">
        <ele>517</ele>
      </trkpt>
      <trkpt lat="44.6094" lon="5.29327">
        <ele>518</ele>
      </trkpt>
      <trkpt lat="44.6095" lon="5.2933">
        <ele>519</ele>
      </trkpt>
      <trkpt lat="44.60984" lon="5.2933">
        <ele>523</ele>
      </trkpt>
      <trkpt lat="44.61014" lon="5.29341">
        <ele>525</ele>
      </trkpt>
      <trkpt lat="44.61059" lon="5.29369">
        <ele>528</ele>
      </trkpt>
      <trkpt lat="44.61131" lon="5.29397">
        <ele>527</ele>
      </trkpt>
      <trkpt lat="44.61144" lon="5.29397">
        <ele>527</ele>
      </trkpt>
      <trkpt lat="44.61173" lon="5.29381">
        <ele>526</ele>
      </trkpt>
      <trkpt lat="44.61227" lon="5.29369">
        <ele>531</ele>
      </trkpt>
      <trkpt lat="44.61245" lon="5.2937">
        <ele>531</ele>
      </trkpt>
      <trkpt lat="44.61336" lon="5.29404">
        <ele>527</ele>
      </trkpt>
      <trkpt lat="44.61357" lon="5.29406">
        <ele>526</ele>
      </trkpt>
      <trkpt lat="44.61372" lon="5.29402">
        <ele>526</ele>
      </trkpt>
      <trkpt lat="44.61405" lon="5.2939">
        <ele>525</ele>
      </trkpt>
      <trkpt lat="44.61481" lon="5.29346">
        <ele>530</ele>
      </trkpt>
      <trkpt lat="44.61493" lon="5.29343">
        <ele>531</ele>
      </trkpt>
      <trkpt lat="44.61508" lon="5.29347">
        <ele>531</ele>
      </trkpt>
      <trkpt lat="44.61544" lon="5.29365">
        <ele>533</ele>
      </trkpt>
      <trkpt lat="44.61559" lon="5.29368">
        <ele>535</ele>
      </trkpt>
      <trkpt lat="44.61592" lon="5.2937">
        <ele>538</ele>
      </trkpt>
      <trkpt lat="44.61606" lon="5.29377">
        <ele>540</ele>
      </trkpt>
      <trkpt lat="44.61639" lon="5.29423">
        <ele>545</ele>
      </trkpt>
      <trkpt lat="44.61648" lon="5.29443">
        <ele>541</ele>
      </trkpt>
      <trkpt lat="44.61659" lon="5.29482">
        <ele>535</ele>
      </trkpt>
      <trkpt lat="44.61669" lon="5.29494">
        <ele>534</ele>
      </trkpt>
      <trkpt lat="44.61681" lon="5.29496">
        <ele>534</ele>
      </trkpt>
      <trkpt lat="44.61695" lon="5.2949">
        <ele>533</ele>
      </trkpt>
      <trkpt lat="44.61718" lon="5.29461">
        <ele>535</ele>
      </trkpt>
      <trkpt lat="44.61763" lon="5.29428">
        <ele>539</ele>
      </trkpt>
      <trkpt lat="44.61781" lon="5.29411">
        <ele>542</ele>
      </trkpt>
      <trkpt lat="44.61797" lon="5.29387">
        <ele>546</ele>
      </trkpt>
      <trkpt lat="44.61811" lon="5.29355">
        <ele>551</ele>
      </trkpt>
      <trkpt lat="44.61821" lon="5.29346">
        <ele>553</ele>
      </trkpt>
      <trkpt lat="44.61829" lon="5.29346">
        <ele>554</ele>
      </trkpt>
      <trkpt lat="44.61836" lon="5.2935">
        <ele>553</ele>
      </trkpt>
      <trkpt lat="44.61842" lon="5.29358">
        <ele>553</ele>
      </trkpt>
      <trkpt lat="44.61845" lon="5.29371">
        <ele>552</ele>
      </trkpt>
      <trkpt lat="44.61841" lon="5.29394">
        <ele>551</ele>
      </trkpt>
      <trkpt lat="44.6184" lon="5.29409">
        <ele>550</ele>
      </trkpt>
      <trkpt lat="44.61842" lon="5.29427">
        <ele>549</ele>
      </trkpt>
      <trkpt lat="44.6185" lon="5.29454">
        <ele>547</ele>
      </trkpt>
      <trkpt lat="44.6185" lon="5.29501">
        <ele>552</ele>
      </trkpt>
      <trkpt lat="44.61853" lon="5.2952">
        <ele>554</ele>
      </trkpt>
      <trkpt lat="44.61861" lon="5.29542">
        <ele>554</ele>
      </trkpt>
      <trkpt lat="44.61868" lon="5.29565">
        <ele>554</ele>
      </trkpt>
      <trkpt lat="44.61872" lon="5.29592">
        <ele>554</ele>
      </trkpt>
      <trkpt lat="44.61873" lon="5.2962">
        <ele>552</ele>
      </trkpt>
      <trkpt lat="44.61876" lon="5.29637">
        <ele>551</ele>
      </trkpt>
      <trkpt lat="44.61882" lon="5.29647">
        <ele>550</ele>
      </trkpt>
      <trkpt lat="44.61895" lon="5.29646">
        <ele>550</ele>
      </trkpt>
      <trkpt lat="44.61907" lon="5.29636">
        <ele>550</ele>
      </trkpt>
      <trkpt lat="44.61926" lon="5.29615">
        <ele>550</ele>
      </trkpt>
      <trkpt lat="44.61944" lon="5.29603">
        <ele>551</ele>
      </trkpt>
      <trkpt lat="44.61967" lon="5.29591">
        <ele>553</ele>
      </trkpt>
      <trkpt lat="44.62" lon="5.29587">
        <ele>555</ele>
      </trkpt>
      <trkpt lat="44.62027" lon="5.29591">
        <ele>556</ele>
      </trkpt>
      <trkpt lat="44.62042" lon="5.29602">
        <ele>551</ele>
      </trkpt>
      <trkpt lat="44.62062" lon="5.29625">
        <ele>544</ele>
      </trkpt>
      <trkpt lat="44.62083" lon="5.29656">
        <ele>540</ele>
      </trkpt>
      <trkpt lat="44.62094" lon="5.29663">
        <ele>539</ele>
      </trkpt>
      <trkpt lat="44.62107" lon="5.29661">
        <ele>541</ele>
      </trkpt>
      <trkpt lat="44.62118" lon="5.29652">
        <ele>543</ele>
      </trkpt>
      <trkpt lat="44.62135" lon="5.29632">
        <ele>547</ele>
      </trkpt>
      <trkpt lat="44.62145" lon="5.29626">
        <ele>547</ele>
      </trkpt>
      <trkpt lat="44.62154" lon="5.2963">
        <ele>546</ele>
      </trkpt>
      <trkpt lat="44.62162" lon="5.29638">
        <ele>546</ele>
      </trkpt>
      <trkpt lat="44.62167" lon="5.29671">
        <ele>545</ele>
      </trkpt>
      <trkpt lat="44.62181" lon="5.29708">
        <ele>544</ele>
      </trkpt>
      <trkpt lat="44.62182" lon="5.29721">
        <ele>544</ele>
      </trkpt>
      <trkpt lat="44.6218" lon="5.29731">
        <ele>544</ele>
      </trkpt>
      <trkpt lat="44.6217" lon="5.29753">
        <ele>545</ele>
      </trkpt>
      <trkpt lat="44.62168" lon="5.29764">
        <ele>546</ele>
      </trkpt>
      <trkpt lat="44.62174" lon="5.29798">
        <ele>548</ele>
      </trkpt>
      <trkpt lat="44.62173" lon="5.2981">
        <ele>547</ele>
      </trkpt>
      <trkpt lat="44.6217" lon="5.2982">
        <ele>547</ele>
      </trkpt>
      <trkpt lat="44.62162" lon="5.2983">
        <ele>546</ele>
      </trkpt>
      <trkpt lat="44.6213" lon="5.29848">
        <ele>544</ele>
      </trkpt>
      <trkpt lat="44.62108" lon="5.29865">
        <ele>540</ele>
      </trkpt>
      <trkpt lat="44.62091" lon="5.29869">
        <ele>538</ele>
      </trkpt>
      <trkpt lat="44.62051" lon="5.29866">
        <ele>534</ele>
      </trkpt>
      <trkpt lat="44.62038" lon="5.29872">
        <ele>535</ele>
      </trkpt>
      <trkpt lat="44.62031" lon="5.29881">
        <ele>536</ele>
      </trkpt>
      <trkpt lat="44.62027" lon="5.29903">
        <ele>537</ele>
      </trkpt>
      <trkpt lat="44.62024" lon="5.29948">
        <ele>539</ele>
      </trkpt>
      <trkpt lat="44.62016" lon="5.30012">
        <ele>535</ele>
      </trkpt>
      <trkpt lat="44.62015" lon="5.30031">
        <ele>536</ele>
      </trkpt>
      <trkpt lat="44.62019" lon="5.30047">
        <ele>536</ele>
      </trkpt>
      <trkpt lat="44.62043" lon="5.30101">
        <ele>538</ele>
      </trkpt>
      <trkpt lat="44.62052" lon="5.30126">
        <ele>540</ele>
      </trkpt>
      <trkpt lat="44.62059" lon="5.30157">
        <ele>542</ele>
      </trkpt>
      <trkpt lat="44.62067" lon="5.30203">
        <ele>544</ele>
      </trkpt>
      <trkpt lat="44.62079" lon="5.30253">
        <ele>546</ele>
      </trkpt>
      <trkpt lat="44.62082" lon="5.30278">
        <ele>545</ele>
      </trkpt>
      <trkpt lat="44.62083" lon="5.30299">
        <ele>544</ele>
      </trkpt>
      <trkpt lat="44.62075" lon="5.30328">
        <ele>543</ele>
      </trkpt>
      <trkpt lat="44.62054" lon="5.30377">
        <ele>540</ele>
      </trkpt>
      <trkpt lat="44.62042" lon="5.30397">
        <ele>537</ele>
      </trkpt>
      <trkpt lat="44.62028" lon="5.30413">
        <ele>535</ele>
      </trkpt>
      <trkpt lat="44.61975" lon="5.30449">
        <ele>526</ele>
      </trkpt>
      <trkpt lat="44.61953" lon="5.30468">
        <ele>521</ele>
      </trkpt>
      <trkpt lat="44.61906" lon="5.3049">
        <ele>511</ele>
      </trkpt>
      <trkpt lat="44.61902" lon="5.30496">
        <ele>511</ele>
      </trkpt>
      <trkpt lat="44.61902" lon="5.30506">
        <ele>511</ele>
      </trkpt>
      <trkpt lat="44.61906" lon="5.30513">
        <ele>511</ele>
      </trkpt>
      <trkpt lat="44.61917" lon="5.3052">
        <ele>511</ele>
      </trkpt>
      <trkpt lat="44.61965" lon="5.30542">
        <ele>511</ele>
      </trkpt>
      <trkpt lat="44.61982" lon="5.30555">
        <ele>506</ele>
      </trkpt>
      <trkpt lat="44.62009" lon="5.30567">
        <ele>498</ele>
      </trkpt>
      <trkpt lat="44.62026" lon="5.30566">
        <ele>501</ele>
      </trkpt>
      <trkpt lat="44.62054" lon="5.30554">
        <ele>505</ele>
      </trkpt>
      <trkpt lat="44.62092" lon="5.30557">
        <ele>501</ele>
      </trkpt>
      <trkpt lat="44.62134" lon="5.30551">
        <ele>496</ele>
      </trkpt>
      <trkpt lat="44.62157" lon="5.30549">
        <ele>495</ele>
      </trkpt>
      <trkpt lat="44.62181" lon="5.30555">
        <ele>494</ele>
      </trkpt>
      <trkpt lat="44.62201" lon="5.30564">
        <ele>489</ele>
      </trkpt>
      <trkpt lat="44.6223" lon="5.30581">
        <ele>482</ele>
      </trkpt>
      <trkpt lat="44.62251" lon="5.30588">
        <ele>482</ele>
      </trkpt>
      <trkpt lat="44.6228" lon="5.306">
        <ele>483</ele>
      </trkpt>
      <trkpt lat="44.62312" lon="5.30627">
        <ele>483</ele>
      </trkpt>
      <trkpt lat="44.62327" lon="5.30645">
        <ele>483</ele>
      </trkpt>
      <trkpt lat="44.62337" lon="5.30654">
        <ele>479</ele>
      </trkpt>
      <trkpt lat="44.62345" lon="5.3066">
        <ele>476</ele>
      </trkpt>
      <trkpt lat="44.62358" lon="5.30661">
        <ele>472</ele>
      </trkpt>
      <trkpt lat="44.62368" lon="5.30657">
        <ele>469</ele>
      </trkpt>
      <trkpt lat="44.62391" lon="5.30636">
        <ele>468</ele>
      </trkpt>
      <trkpt lat="44.62426" lon="5.3062">
        <ele>466</ele>
      </trkpt>
      <trkpt lat="44.62464" lon="5.30608">
        <ele>463</ele>
      </trkpt>
      <trkpt lat="44.62471" lon="5.30601">
        <ele>462</ele>
      </trkpt>
      <trkpt lat="44.6248" lon="5.30588">
        <ele>461</ele>
      </trkpt>
      <trkpt lat="44.62488" lon="5.3057">
        <ele>460</ele>
      </trkpt>
      <trkpt lat="44.62495" lon="5.30549">
        <ele>459</ele>
      </trkpt>
      <trkpt lat="44.62497" lon="5.3051">
        <ele>459</ele>
      </trkpt>
      <trkpt lat="44.62502" lon="5.30495">
        <ele>460</ele>
      </trkpt>
      <trkpt lat="44.62519" lon="5.30466">
        <ele>460</ele>
      </trkpt>
      <trkpt lat="44.62528" lon="5.30437">
        <ele>461</ele>
      </trkpt>
      <trkpt lat="44.62535" lon="5.30421">
        <ele>461</ele>
      </trkpt>
      <trkpt lat="44.62569" lon="5.30365">
        <ele>462</ele>
      </trkpt>
      <trkpt lat="44.6258" lon="5.30342">
        <ele>462</ele>
      </trkpt>
      <trkpt lat="44.62586" lon="5.30325">
        <ele>463</ele>
      </trkpt>
      <trkpt lat="44.62593" lon="5.30288">
        <ele>463</ele>
      </trkpt>
      <trkpt lat="44.62599" lon="5.30278">
        <ele>463</ele>
      </trkpt>
      <trkpt lat="44.62605" lon="5.30275">
        <ele>463</ele>
      </trkpt>
      <trkpt lat="44.6263" lon="5.30282">
        <ele>464</ele>
      </trkpt>
      <trkpt lat="44.62655" lon="5.3028">
        <ele>465</ele>
      </trkpt>
      <trkpt lat="44.62712" lon="5.30285">
        <ele>467</ele>
      </trkpt>
      <trkpt lat="44.62722" lon="5.30287">
        <ele>465</ele>
      </trkpt>
      <trkpt lat="44.62734" lon="5.30293">
        <ele>462</ele>
      </trkpt>
      <trkpt lat="44.62743" lon="5.30301">
        <ele>459</ele>
      </trkpt>
      <trkpt lat="44.62749" lon="5.3031">
        <ele>457</ele>
      </trkpt>
      <trkpt lat="44.62777" lon="5.3037">
        <ele>445</ele>
      </trkpt>
      <trkpt lat="44.62783" lon="5.30375">
        <ele>445</ele>
      </trkpt>
      <trkpt lat="44.62789" lon="5.30375">
        <ele>445</ele>
      </trkpt>
      <trkpt lat="44.62794" lon="5.30372">
        <ele>445</ele>
      </trkpt>
      <trkpt lat="44.62797" lon="5.30365">
        <ele>445</ele>
      </trkpt>
      <trkpt lat="44.62804" lon="5.30337">
        <ele>445</ele>
      </trkpt>
      <trkpt lat="44.62816" lon="5.30309">
        <ele>444</ele>
      </trkpt>
      <trkpt lat="44.62828" lon="5.30291">
        <ele>443</ele>
      </trkpt>
      <trkpt lat="44.62842" lon="5.30276">
        <ele>442</ele>
      </trkpt>
      <trkpt lat="44.62868" lon="5.30236">
        <ele>440</ele>
      </trkpt>
      <trkpt lat="44.62876" lon="5.30231">
        <ele>440</ele>
      </trkpt>
      <trkpt lat="44.62885" lon="5.30232">
        <ele>441</ele>
      </trkpt>
      <trkpt lat="44.62912" lon="5.3025">
        <ele>442</ele>
      </trkpt>
      <trkpt lat="44.62919" lon="5.30253">
        <ele>442</ele>
      </trkpt>
      <trkpt lat="44.62927" lon="5.3025">
        <ele>443</ele>
      </trkpt>
      <trkpt lat="44.62941" lon="5.30241">
        <ele>443</ele>
      </trkpt>
      <trkpt lat="44.6296" lon="5.30231">
        <ele>444</ele>
      </trkpt>
      <trkpt lat="44.63047" lon="5.30213">
        <ele>445</ele>
      </trkpt>
      <trkpt lat="44.63054" lon="5.30229">
        <ele>446</ele>
      </trkpt>
      <trkpt lat="44.63056" lon="5.30238">
        <ele>446</ele>
      </trkpt>
      <trkpt lat="44.63055" lon="5.30247">
        <ele>446</ele>
      </trkpt>
      <trkpt lat="44.6305" lon="5.30253">
        <ele>446</ele>
      </trkpt>
      <trkpt lat="44.63012" lon="5.30266">
        <ele>448</ele>
      </trkpt>
      <trkpt lat="44.6299" lon="5.3027">
        <ele>448</ele>
      </trkpt>
      <trkpt lat="44.62955" lon="5.30271">
        <ele>447</ele>
      </trkpt>
      <trkpt lat="44.62943" lon="5.30275">
        <ele>448</ele>
      </trkpt>
      <trkpt lat="44.62937" lon="5.30281">
        <ele>449</ele>
      </trkpt>
      <trkpt lat="44.62934" lon="5.30287">
        <ele>450</ele>
      </trkpt>
      <trkpt lat="44.62934" lon="5.30294">
        <ele>450</ele>
      </trkpt>
      <trkpt lat="44.62937" lon="5.30298">
        <ele>450</ele>
      </trkpt>
      <trkpt lat="44.62961" lon="5.30305">
        <ele>453</ele>
      </trkpt>
      <trkpt lat="44.62977" lon="5.30316">
        <ele>456</ele>
      </trkpt>
      <trkpt lat="44.6302" lon="5.30365">
        <ele>466</ele>
      </trkpt>
      <trkpt lat="44.63066" lon="5.30408">
        <ele>478</ele>
      </trkpt>
      <trkpt lat="44.63085" lon="5.30421">
        <ele>480</ele>
      </trkpt>
      <trkpt lat="44.63093" lon="5.30422">
        <ele>481</ele>
      </trkpt>
      <trkpt lat="44.63118" lon="5.30413">
        <ele>484</ele>
      </trkpt>
      <trkpt lat="44.63143" lon="5.30416">
        <ele>494</ele>
      </trkpt>
      <trkpt lat="44.63172" lon="5.30424">
        <ele>506</ele>
      </trkpt>
      <trkpt lat="44.63179" lon="5.30422">
        <ele>506</ele>
      </trkpt>
      <trkpt lat="44.63184" lon="5.30413">
        <ele>506</ele>
      </trkpt>
      <trkpt lat="44.63187" lon="5.30398">
        <ele>506</ele>
      </trkpt>
      <trkpt lat="44.63186" lon="5.30353">
        <ele>507</ele>
      </trkpt>
      <trkpt lat="44.63188" lon="5.30338">
        <ele>507</ele>
      </trkpt>
      <trkpt lat="44.63194" lon="5.30325">
        <ele>507</ele>
      </trkpt>
      <trkpt lat="44.63202" lon="5.30317">
        <ele>507</ele>
      </trkpt>
      <trkpt lat="44.63229" lon="5.30296">
        <ele>507</ele>
      </trkpt>
      <trkpt lat="44.63235" lon="5.30295">
        <ele>508</ele>
      </trkpt>
      <trkpt lat="44.63239" lon="5.30299">
        <ele>508</ele>
      </trkpt>
      <trkpt lat="44.63241" lon="5.30308">
        <ele>509</ele>
      </trkpt>
      <trkpt lat="44.63239" lon="5.30315">
        <ele>510</ele>
      </trkpt>
      <trkpt lat="44.63235" lon="5.30319">
        <ele>511</ele>
      </trkpt>
      <trkpt lat="44.63227" lon="5.30322">
        <ele>512</ele>
      </trkpt>
      <trkpt lat="44.63219" lon="5.30332">
        <ele>513</ele>
      </trkpt>
      <trkpt lat="44.63215" lon="5.30343">
        <ele>516</ele>
      </trkpt>
      <trkpt lat="44.63215" lon="5.30359">
        <ele>519</ele>
      </trkpt>
      <trkpt lat="44.63218" lon="5.30375">
        <ele>522</ele>
      </trkpt>
      <trkpt lat="44.63224" lon="5.30389">
        <ele>526</ele>
      </trkpt>
      <trkpt lat="44.63225" lon="5.30401">
        <ele>527</ele>
      </trkpt>
      <trkpt lat="44.63224" lon="5.3042">
        <ele>530</ele>
      </trkpt>
      <trkpt lat="44.63227" lon="5.3048">
        <ele>538</ele>
      </trkpt>
      <trkpt lat="44.63226" lon="5.30491">
        <ele>537</ele>
      </trkpt>
      <trkpt lat="44.63222" lon="5.30497">
        <ele>536</ele>
      </trkpt>
      <trkpt lat="44.63215" lon="5.30499">
        <ele>535</ele>
      </trkpt>
      <trkpt lat="44.63195" lon="5.30495">
        <ele>532</ele>
      </trkpt>
      <trkpt lat="44.63185" lon="5.30497">
        <ele>532</ele>
      </trkpt>
      <trkpt lat="44.63168" lon="5.30505">
        <ele>533</ele>
      </trkpt>
      <trkpt lat="44.63148" lon="5.30517">
        <ele>534</ele>
      </trkpt>
      <trkpt lat="44.63133" lon="5.30535">
        <ele>540</ele>
      </trkpt>
      <trkpt lat="44.63122" lon="5.30556">
        <ele>545</ele>
      </trkpt>
      <trkpt lat="44.63117" lon="5.30568">
        <ele>548</ele>
      </trkpt>
      <trkpt lat="44.63111" lon="5.30574">
        <ele>547</ele>
      </trkpt>
      <trkpt lat="44.63104" lon="5.30576">
        <ele>545</ele>
      </trkpt>
      <trkpt lat="44.63079" lon="5.30577">
        <ele>541</ele>
      </trkpt>
      <trkpt lat="44.63059" lon="5.30584">
        <ele>537</ele>
      </trkpt>
      <trkpt lat="44.6305" lon="5.30589">
        <ele>540</ele>
      </trkpt>
      <trkpt lat="44.63046" lon="5.30596">
        <ele>541</ele>
      </trkpt>
      <trkpt lat="44.63047" lon="5.30604">
        <ele>543</ele>
      </trkpt>
      <trkpt lat="44.6305" lon="5.30609">
        <ele>544</ele>
      </trkpt>
      <trkpt lat="44.63061" lon="5.30608">
        <ele>547</ele>
      </trkpt>
      <trkpt lat="44.63075" lon="5.30602">
        <ele>551</ele>
      </trkpt>
      <trkpt lat="44.63126" lon="5.30609">
        <ele>561</ele>
      </trkpt>
      <trkpt lat="44.63132" lon="5.30607">
        <ele>561</ele>
      </trkpt>
      <trkpt lat="44.63142" lon="5.30596">
        <ele>562</ele>
      </trkpt>
      <trkpt lat="44.63159" lon="5.30583">
        <ele>563</ele>
      </trkpt>
      <trkpt lat="44.63196" lon="5.3057">
        <ele>565</ele>
      </trkpt>
      <trkpt lat="44.63214" lon="5.3057">
        <ele>570</ele>
      </trkpt>
      <trkpt lat="44.63265" lon="5.3058">
        <ele>582</ele>
      </trkpt>
      <trkpt lat="44.63277" lon="5.30579">
        <ele>582</ele>
      </trkpt>
      <trkpt lat="44.63283" lon="5.30576">
        <ele>582</ele>
      </trkpt>
      <trkpt lat="44.63287" lon="5.30569">
        <ele>582</ele>
      </trkpt>
      <trkpt lat="44.63291" lon="5.30558">
        <ele>582</ele>
      </trkpt>
      <trkpt lat="44.63292" lon="5.30527">
        <ele>582</ele>
      </trkpt>
      <trkpt lat="44.63294" lon="5.30512">
        <ele>583</ele>
      </trkpt>
      <trkpt lat="44.63299" lon="5.30499">
        <ele>584</ele>
      </trkpt>
      <trkpt lat="44.63311" lon="5.30478">
        <ele>585</ele>
      </trkpt>
      <trkpt lat="44.63361" lon="5.30405">
        <ele>603</ele>
      </trkpt>
      <trkpt lat="44.63393" lon="5.30344">
        <ele>610</ele>
      </trkpt>
      <trkpt lat="44.63399" lon="5.30328">
        <ele>611</ele>
      </trkpt>
      <trkpt lat="44.63407" lon="5.3025">
        <ele>616</ele>
      </trkpt>
      <trkpt lat="44.63409" lon="5.30218">
        <ele>619</ele>
      </trkpt>
      <trkpt lat="44.63407" lon="5.30142">
        <ele>625</ele>
      </trkpt>
      <trkpt lat="44.63411" lon="5.30043">
        <ele>632</ele>
      </trkpt>
      <trkpt lat="44.6341" lon="5.30017">
        <ele>629</ele>
      </trkpt>
      <trkpt lat="44.63411" lon="5.30004">
        <ele>628</ele>
      </trkpt>
      <trkpt lat="44.63421" lon="5.29976">
        <ele>625</ele>
      </trkpt>
      <trkpt lat="44.63427" lon="5.2997">
        <ele>626</ele>
      </trkpt>
      <trkpt lat="44.63433" lon="5.29969">
        <ele>627</ele>
      </trkpt>
      <trkpt lat="44.63437" lon="5.29972">
        <ele>628</ele>
      </trkpt>
      <trkpt lat="44.63438" lon="5.29977">
        <ele>628</ele>
      </trkpt>
      <trkpt lat="44.63437" lon="5.29984">
        <ele>629</ele>
      </trkpt>
      <trkpt lat="44.6343" lon="5.29998">
        <ele>631</ele>
      </trkpt>
      <trkpt lat="44.63425" lon="5.30011">
        <ele>632</ele>
      </trkpt>
      <trkpt lat="44.63426" lon="5.30026">
        <ele>633</ele>
      </trkpt>
      <trkpt lat="44.63451" lon="5.30131">
        <ele>642</ele>
      </trkpt>
      <trkpt lat="44.63488" lon="5.30251">
        <ele>656</ele>
      </trkpt>
      <trkpt lat="44.63495" lon="5.30288">
        <ele>660</ele>
      </trkpt>
      <trkpt lat="44.63497" lon="5.30355">
        <ele>667</ele>
      </trkpt>
      <trkpt lat="44.63495" lon="5.30388">
        <ele>670</ele>
      </trkpt>
      <trkpt lat="44.63484" lon="5.30455">
        <ele>677</ele>
      </trkpt>
      <trkpt lat="44.63462" lon="5.30555">
        <ele>679</ele>
      </trkpt>
      <trkpt lat="44.63456" lon="5.30615">
        <ele>684</ele>
      </trkpt>
      <trkpt lat="44.6346" lon="5.30683">
        <ele>692</ele>
      </trkpt>
      <trkpt lat="44.63475" lon="5.30793">
        <ele>696</ele>
      </trkpt>
      <trkpt lat="44.63476" lon="5.30813">
        <ele>697</ele>
      </trkpt>
      <trkpt lat="44.63473" lon="5.30835">
        <ele>699</ele>
      </trkpt>
      <trkpt lat="44.63473" lon="5.30857">
        <ele>700</ele>
      </trkpt>
      <trkpt lat="44.63476" lon="5.30873">
        <ele>701</ele>
      </trkpt>
      <trkpt lat="44.63482" lon="5.30894">
        <ele>703</ele>
      </trkpt>
      <trkpt lat="44.63495" lon="5.30927">
        <ele>705</ele>
      </trkpt>
      <trkpt lat="44.63509" lon="5.30954">
        <ele>706</ele>
      </trkpt>
      <trkpt lat="44.63524" lon="5.30974">
        <ele>706</ele>
      </trkpt>
      <trkpt lat="44.63551" lon="5.31011">
        <ele>707</ele>
      </trkpt>
      <trkpt lat="44.63568" lon="5.31029">
        <ele>708</ele>
      </trkpt>
      <trkpt lat="44.63587" lon="5.31041">
        <ele>717</ele>
      </trkpt>
      <trkpt lat="44.63606" lon="5.31045">
        <ele>725</ele>
      </trkpt>
      <trkpt lat="44.63615" lon="5.31042">
        <ele>727</ele>
      </trkpt>
      <trkpt lat="44.63624" lon="5.31036">
        <ele>729</ele>
      </trkpt>
      <trkpt lat="44.63636" lon="5.31018">
        <ele>732</ele>
      </trkpt>
      <trkpt lat="44.63648" lon="5.30993">
        <ele>736</ele>
      </trkpt>
      <trkpt lat="44.6366" lon="5.30961">
        <ele>738</ele>
      </trkpt>
      <trkpt lat="44.63664" lon="5.30956">
        <ele>739</ele>
      </trkpt>
      <trkpt lat="44.63672" lon="5.30957">
        <ele>740</ele>
      </trkpt>
      <trkpt lat="44.63674" lon="5.3096">
        <ele>740</ele>
      </trkpt>
      <trkpt lat="44.63675" lon="5.30968">
        <ele>741</ele>
      </trkpt>
      <trkpt lat="44.63669" lon="5.30997">
        <ele>744</ele>
      </trkpt>
      <trkpt lat="44.6367" lon="5.31042">
        <ele>748</ele>
      </trkpt>
      <trkpt lat="44.63669" lon="5.31083">
        <ele>745</ele>
      </trkpt>
      <trkpt lat="44.6367" lon="5.31095">
        <ele>744</ele>
      </trkpt>
      <trkpt lat="44.63674" lon="5.31104">
        <ele>743</ele>
      </trkpt>
      <trkpt lat="44.63681" lon="5.31115">
        <ele>743</ele>
      </trkpt>
      <trkpt lat="44.63689" lon="5.31123">
        <ele>742</ele>
      </trkpt>
      <trkpt lat="44.63705" lon="5.31133">
        <ele>742</ele>
      </trkpt>
      <trkpt lat="44.63733" lon="5.31156">
        <ele>741</ele>
      </trkpt>
      <trkpt lat="44.63742" lon="5.3116">
        <ele>744</ele>
      </trkpt>
      <trkpt lat="44.63749" lon="5.3116">
        <ele>746</ele>
      </trkpt>
      <trkpt lat="44.63765" lon="5.31154">
        <ele>750</ele>
      </trkpt>
      <trkpt lat="44.63781" lon="5.31151">
        <ele>755</ele>
      </trkpt>
      <trkpt lat="44.63802" lon="5.31154">
        <ele>758</ele>
      </trkpt>
      <trkpt lat="44.63822" lon="5.31161">
        <ele>761</ele>
      </trkpt>
      <trkpt lat="44.6384" lon="5.31182">
        <ele>766</ele>
      </trkpt>
      <trkpt lat="44.6386" lon="5.31197">
        <ele>771</ele>
      </trkpt>
      <trkpt lat="44.6388" lon="5.3122">
        <ele>776</ele>
      </trkpt>
      <trkpt lat="44.63926" lon="5.31263">
        <ele>787</ele>
      </trkpt>
      <trkpt lat="44.63936" lon="5.31273">
        <ele>788</ele>
      </trkpt>
      <trkpt lat="44.63942" lon="5.31283">
        <ele>789</ele>
      </trkpt>
      <trkpt lat="44.63944" lon="5.31302">
        <ele>791</ele>
      </trkpt>
      <trkpt lat="44.63939" lon="5.31312">
        <ele>792</ele>
      </trkpt>
      <trkpt lat="44.63887" lon="5.31327">
        <ele>786</ele>
      </trkpt>
      <trkpt lat="44.63863" lon="5.31343">
        <ele>790</ele>
      </trkpt>
      <trkpt lat="44.6384" lon="5.31371">
        <ele>794</ele>
      </trkpt>
      <trkpt lat="44.63818" lon="5.31426">
        <ele>797</ele>
      </trkpt>
      <trkpt lat="44.63808" lon="5.31466">
        <ele>799</ele>
      </trkpt>
      <trkpt lat="44.63804" lon="5.31488">
        <ele>800</ele>
      </trkpt>
      <trkpt lat="44.63807" lon="5.31512">
        <ele>801</ele>
      </trkpt>
      <trkpt lat="44.63815" lon="5.31539">
        <ele>802</ele>
      </trkpt>
      <trkpt lat="44.63831" lon="5.31567">
        <ele>804</ele>
      </trkpt>
      <trkpt lat="44.6385" lon="5.31592">
        <ele>807</ele>
      </trkpt>
      <trkpt lat="44.63864" lon="5.31615">
        <ele>809</ele>
      </trkpt>
      <trkpt lat="44.6388" lon="5.31654">
        <ele>816</ele>
      </trkpt>
      <trkpt lat="44.63882" lon="5.31674">
        <ele>819</ele>
      </trkpt>
      <trkpt lat="44.63872" lon="5.31689">
        <ele>816</ele>
      </trkpt>
      <trkpt lat="44.63845" lon="5.31705">
        <ele>811</ele>
      </trkpt>
      <trkpt lat="44.63837" lon="5.31717">
        <ele>812</ele>
      </trkpt>
      <trkpt lat="44.63835" lon="5.3173">
        <ele>813</ele>
      </trkpt>
      <trkpt lat="44.63837" lon="5.31749">
        <ele>815</ele>
      </trkpt>
      <trkpt lat="44.63883" lon="5.31884">
        <ele>829</ele>
      </trkpt>
      <trkpt lat="44.63891" lon="5.31911">
        <ele>831</ele>
      </trkpt>
      <trkpt lat="44.63891" lon="5.31941">
        <ele>834</ele>
      </trkpt>
      <trkpt lat="44.63886" lon="5.31962">
        <ele>833</ele>
      </trkpt>
      <trkpt lat="44.63881" lon="5.31974">
        <ele>832</ele>
      </trkpt>
      <trkpt lat="44.63874" lon="5.31985">
        <ele>831</ele>
      </trkpt>
      <trkpt lat="44.63857" lon="5.31998">
        <ele>829</ele>
      </trkpt>
      <trkpt lat="44.6385" lon="5.3201">
        <ele>830</ele>
      </trkpt>
      <trkpt lat="44.63844" lon="5.32025">
        <ele>831</ele>
      </trkpt>
      <trkpt lat="44.63833" lon="5.3212">
        <ele>835</ele>
      </trkpt>
      <trkpt lat="44.63827" lon="5.32154">
        <ele>833</ele>
      </trkpt>
      <trkpt lat="44.63822" lon="5.32192">
        <ele>831</ele>
      </trkpt>
      <trkpt lat="44.63822" lon="5.32229">
        <ele>835</ele>
      </trkpt>
      <trkpt lat="44.63828" lon="5.32269">
        <ele>839</ele>
      </trkpt>
      <trkpt lat="44.63839" lon="5.32312">
        <ele>835</ele>
      </trkpt>
      <trkpt lat="44.63845" lon="5.32325">
        <ele>834</ele>
      </trkpt>
      <trkpt lat="44.63852" lon="5.32333">
        <ele>835</ele>
      </trkpt>
      <trkpt lat="44.63892" lon="5.32349">
        <ele>840</ele>
      </trkpt>
      <trkpt lat="44.63918" lon="5.32356">
        <ele>851</ele>
      </trkpt>
      <trkpt lat="44.63943" lon="5.3236">
        <ele>861</ele>
      </trkpt>
      <trkpt lat="44.63955" lon="5.32365">
        <ele>862</ele>
      </trkpt>
      <trkpt lat="44.63961" lon="5.32371">
        <ele>863</ele>
      </trkpt>
      <trkpt lat="44.64" lon="5.32416">
        <ele>869</ele>
      </trkpt>
      <trkpt lat="44.64018" lon="5.32432">
        <ele>868</ele>
      </trkpt>
      <trkpt lat="44.64026" lon="5.32452">
        <ele>867</ele>
      </trkpt>
      <trkpt lat="44.64032" lon="5.32462">
        <ele>867</ele>
      </trkpt>
      <trkpt lat="44.64087" lon="5.32516">
        <ele>872</ele>
      </trkpt>
      <trkpt lat="44.64102" lon="5.32525">
        <ele>875</ele>
      </trkpt>
      <trkpt lat="44.64185" lon="5.32561">
        <ele>893</ele>
      </trkpt>
      <trkpt lat="44.64197" lon="5.3257">
        <ele>894</ele>
      </trkpt>
      <trkpt lat="44.6421" lon="5.32585">
        <ele>895</ele>
      </trkpt>
      <trkpt lat="44.6423" lon="5.32597">
        <ele>896</ele>
      </trkpt>
      <trkpt lat="44.64239" lon="5.32607">
        <ele>896</ele>
      </trkpt>
      <trkpt lat="44.64239" lon="5.32625">
        <ele>897</ele>
      </trkpt>
      <trkpt lat="44.64227" lon="5.32662">
        <ele>898</ele>
      </trkpt>
      <trkpt lat="44.64192" lon="5.32714">
        <ele>901</ele>
      </trkpt>
      <trkpt lat="44.64189" lon="5.32724">
        <ele>902</ele>
      </trkpt>
      <trkpt lat="44.64188" lon="5.32743">
        <ele>903</ele>
      </trkpt>
      <trkpt lat="44.64182" lon="5.32753">
        <ele>904</ele>
      </trkpt>
      <trkpt lat="44.64156" lon="5.32794">
        <ele>909</ele>
      </trkpt>
      <trkpt lat="44.64125" lon="5.32836">
        <ele>909</ele>
      </trkpt>
      <trkpt lat="44.64077" lon="5.32942">
        <ele>917</ele>
      </trkpt>
      <trkpt lat="44.64078" lon="5.32957">
        <ele>918</ele>
      </trkpt>
      <trkpt lat="44.64098" lon="5.32996">
        <ele>921</ele>
      </trkpt>
      <trkpt lat="44.64115" lon="5.33042">
        <ele>927</ele>
      </trkpt>
      <trkpt lat="44.64115" lon="5.33056">
        <ele>929</ele>
      </trkpt>
      <trkpt lat="44.64107" lon="5.33086">
        <ele>931</ele>
      </trkpt>
      <trkpt lat="44.64094" lon="5.33155">
        <ele>935</ele>
      </trkpt>
      <trkpt lat="44.64076" lon="5.33237">
        <ele>948</ele>
      </trkpt>
      <trkpt lat="44.64061" lon="5.3327">
        <ele>947</ele>
      </trkpt>
      <trkpt lat="44.64041" lon="5.33293">
        <ele>946</ele>
      </trkpt>
      <trkpt lat="44.6401" lon="5.33309">
        <ele>944</ele>
      </trkpt>
      <trkpt lat="44.63998" lon="5.33323">
        <ele>943</ele>
      </trkpt>
      <trkpt lat="44.63994" lon="5.33346">
        <ele>945</ele>
      </trkpt>
      <trkpt lat="44.63994" lon="5.33374">
        <ele>947</ele>
      </trkpt>
      <trkpt lat="44.64013" lon="5.33464">
        <ele>954</ele>
      </trkpt>
      <trkpt lat="44.64034" lon="5.3354">
        <ele>972</ele>
      </trkpt>
      <trkpt lat="44.64036" lon="5.33564">
        <ele>974</ele>
      </trkpt>
      <trkpt lat="44.64025" lon="5.33599">
        <ele>978</ele>
      </trkpt>
      <trkpt lat="44.64002" lon="5.33635">
        <ele>973</ele>
      </trkpt>
      <trkpt lat="44.6398" lon="5.33652">
        <ele>970</ele>
      </trkpt>
      <trkpt lat="44.63968" lon="5.33676">
        <ele>972</ele>
      </trkpt>
      <trkpt lat="44.63953" lon="5.33769">
        <ele>978</ele>
      </trkpt>
      <trkpt lat="44.6396" lon="5.33816">
        <ele>977</ele>
      </trkpt>
      <trkpt lat="44.63976" lon="5.33845">
        <ele>977</ele>
      </trkpt>
      <trkpt lat="44.64045" lon="5.33911">
        <ele>989</ele>
      </trkpt>
      <trkpt lat="44.64064" lon="5.33944">
        <ele>994</ele>
      </trkpt>
      <trkpt lat="44.64096" lon="5.33978">
        <ele>1001</ele>
      </trkpt>
      <trkpt lat="44.64104" lon="5.33996">
        <ele>1002</ele>
      </trkpt>
      <trkpt lat="44.64117" lon="5.34045">
        <ele>1003</ele>
      </trkpt>
      <trkpt lat="44.64133" lon="5.34084">
        <ele>1004</ele>
      </trkpt>
      <trkpt lat="44.64174" lon="5.34156">
        <ele>1005</ele>
      </trkpt>
      <trkpt lat="44.64195" lon="5.34178">
        <ele>1011</ele>
      </trkpt>
      <trkpt lat="44.64216" lon="5.3419">
        <ele>1016</ele>
      </trkpt>
      <trkpt lat="44.64283" lon="5.34237">
        <ele>1014</ele>
      </trkpt>
      <trkpt lat="44.64305" lon="5.3425">
        <ele>1017</ele>
      </trkpt>
      <trkpt lat="44.6437" lon="5.34274">
        <ele>1024</ele>
      </trkpt>
      <trkpt lat="44.64397" lon="5.34286">
        <ele>1030</ele>
      </trkpt>
      <trkpt lat="44.64407" lon="5.34296">
        <ele>1033</ele>
      </trkpt>
      <trkpt lat="44.64413" lon="5.34295">
        <ele>1033</ele>
      </trkpt>
      <trkpt lat="44.64414" lon="5.34288">
        <ele>1033</ele>
      </trkpt>
      <trkpt lat="44.64409" lon="5.3428">
        <ele>1032</ele>
      </trkpt>
      <trkpt lat="44.64358" lon="5.34239">
        <ele>1030</ele>
      </trkpt>
      <trkpt lat="44.64342" lon="5.34229">
        <ele>1031</ele>
      </trkpt>
      <trkpt lat="44.64341" lon="5.34222">
        <ele>1031</ele>
      </trkpt>
      <trkpt lat="44.64344" lon="5.34221">
        <ele>1032</ele>
      </trkpt>
      <trkpt lat="44.64446" lon="5.3425">
        <ele>1040</ele>
      </trkpt>
      <trkpt lat="44.64474" lon="5.34256">
        <ele>1037</ele>
      </trkpt>
      <trkpt lat="44.64485" lon="5.34263">
        <ele>1036</ele>
      </trkpt>
      <trkpt lat="44.64492" lon="5.34273">
        <ele>1035</ele>
      </trkpt>
      <trkpt lat="44.64504" lon="5.34299">
        <ele>1032</ele>
      </trkpt>
      <trkpt lat="44.64521" lon="5.34326">
        <ele>1028</ele>
      </trkpt>
      <trkpt lat="44.6455" lon="5.34365">
        <ele>1015</ele>
      </trkpt>
      <trkpt lat="44.64556" lon="5.34376">
        <ele>1015</ele>
      </trkpt>
      <trkpt lat="44.64562" lon="5.34395">
        <ele>1014</ele>
      </trkpt>
      <trkpt lat="44.64575" lon="5.34419">
        <ele>1013</ele>
      </trkpt>
      <trkpt lat="44.64579" lon="5.34438">
        <ele>1018</ele>
      </trkpt>
      <trkpt lat="44.64581" lon="5.34466">
        <ele>1024</ele>
      </trkpt>
      <trkpt lat="44.64585" lon="5.34473">
        <ele>1026</ele>
      </trkpt>
      <trkpt lat="44.64603" lon="5.34499">
        <ele>1023</ele>
      </trkpt>
      <trkpt lat="44.64624" lon="5.34559">
        <ele>1018</ele>
      </trkpt>
      <trkpt lat="44.64625" lon="5.34626">
        <ele>1028</ele>
      </trkpt>
      <trkpt lat="44.64624" lon="5.34677">
        <ele>1025</ele>
      </trkpt>
      <trkpt lat="44.64604" lon="5.34736">
        <ele>1021</ele>
      </trkpt>
      <trkpt lat="44.64583" lon="5.34833">
        <ele>1023</ele>
      </trkpt>
      <trkpt lat="44.64579" lon="5.34867">
        <ele>1022</ele>
      </trkpt>
      <trkpt lat="44.64577" lon="5.34906">
        <ele>1021</ele>
      </trkpt>
      <trkpt lat="44.64578" lon="5.34936">
        <ele>1022</ele>
      </trkpt>
      <trkpt lat="44.64583" lon="5.34964">
        <ele>1022</ele>
      </trkpt>
      <trkpt lat="44.64607" lon="5.3502">
        <ele>1006</ele>
      </trkpt>
      <trkpt lat="44.64609" lon="5.35061">
        <ele>1003</ele>
      </trkpt>
      <trkpt lat="44.64605" lon="5.35091">
        <ele>1000</ele>
      </trkpt>
      <trkpt lat="44.64596" lon="5.35137">
        <ele>1007</ele>
      </trkpt>
      <trkpt lat="44.64593" lon="5.35166">
        <ele>1011</ele>
      </trkpt>
      <trkpt lat="44.6459" lon="5.35303">
        <ele>993</ele>
      </trkpt>
      <trkpt lat="44.64587" lon="5.35341">
        <ele>994</ele>
      </trkpt>
      <trkpt lat="44.64568" lon="5.35461">
        <ele>997</ele>
      </trkpt>
      <trkpt lat="44.6456" lon="5.3557">
        <ele>985</ele>
      </trkpt>
      <trkpt lat="44.64562" lon="5.35659">
        <ele>988</ele>
      </trkpt>
      <trkpt lat="44.64593" lon="5.35744">
        <ele>979</ele>
      </trkpt>
      <trkpt lat="44.64601" lon="5.35801">
        <ele>978</ele>
      </trkpt>
      <trkpt lat="44.64599" lon="5.35845">
        <ele>974</ele>
      </trkpt>
      <trkpt lat="44.64608" lon="5.35892">
        <ele>970</ele>
      </trkpt>
      <trkpt lat="44.64611" lon="5.35964">
        <ele>967</ele>
      </trkpt>
      <trkpt lat="44.64611" lon="5.36">
        <ele>965</ele>
      </trkpt>
      <trkpt lat="44.64616" lon="5.36097">
        <ele>958</ele>
      </trkpt>
      <trkpt lat="44.64611" lon="5.36141">
        <ele>958</ele>
      </trkpt>
      <trkpt lat="44.64605" lon="5.36162">
        <ele>958</ele>
      </trkpt>
      <trkpt lat="44.64602" lon="5.36182">
        <ele>957</ele>
      </trkpt>
      <trkpt lat="44.64609" lon="5.36202">
        <ele>956</ele>
      </trkpt>
      <trkpt lat="44.64621" lon="5.36282">
        <ele>953</ele>
      </trkpt>
      <trkpt lat="44.64625" lon="5.36321">
        <ele>952</ele>
      </trkpt>
      <trkpt lat="44.64623" lon="5.36361">
        <ele>952</ele>
      </trkpt>
      <trkpt lat="44.64624" lon="5.3639">
        <ele>952</ele>
      </trkpt>
      <trkpt lat="44.64628" lon="5.36421">
        <ele>953</ele>
      </trkpt>
      <trkpt lat="44.64654" lon="5.36508">
        <ele>948</ele>
      </trkpt>
      <trkpt lat="44.64659" lon="5.36533">
        <ele>946</ele>
      </trkpt>
      <trkpt lat="44.64668" lon="5.36547">
        <ele>944</ele>
      </trkpt>
      <trkpt lat="44.64672" lon="5.36543">
        <ele>943</ele>
      </trkpt>
      <trkpt lat="44.64672" lon="5.36531">
        <ele>942</ele>
      </trkpt>
      <trkpt lat="44.64664" lon="5.36509">
        <ele>939</ele>
      </trkpt>
      <trkpt lat="44.6466" lon="5.36472">
        <ele>935</ele>
      </trkpt>
      <trkpt lat="44.64665" lon="5.36444">
        <ele>934</ele>
      </trkpt>
      <trkpt lat="44.64658" lon="5.36411">
        <ele>932</ele>
      </trkpt>
      <trkpt lat="44.64659" lon="5.36379">
        <ele>930</ele>
      </trkpt>
      <trkpt lat="44.64664" lon="5.3635">
        <ele>928</ele>
      </trkpt>
      <trkpt lat="44.64669" lon="5.36322">
        <ele>928</ele>
      </trkpt>
      <trkpt lat="44.64684" lon="5.36281">
        <ele>927</ele>
      </trkpt>
      <trkpt lat="44.647" lon="5.36261">
        <ele>921</ele>
      </trkpt>
      <trkpt lat="44.64717" lon="5.36221">
        <ele>912</ele>
      </trkpt>
      <trkpt lat="44.64721" lon="5.36202">
        <ele>912</ele>
      </trkpt>
      <trkpt lat="44.64713" lon="5.36162">
        <ele>913</ele>
      </trkpt>
      <trkpt lat="44.64712" lon="5.36132">
        <ele>912</ele>
      </trkpt>
      <trkpt lat="44.64716" lon="5.36089">
        <ele>911</ele>
      </trkpt>
      <trkpt lat="44.64733" lon="5.36048">
        <ele>908</ele>
      </trkpt>
      <trkpt lat="44.64749" lon="5.35992">
        <ele>905</ele>
      </trkpt>
      <trkpt lat="44.64757" lon="5.35974">
        <ele>904</ele>
      </trkpt>
      <trkpt lat="44.64773" lon="5.35946">
        <ele>901</ele>
      </trkpt>
      <trkpt lat="44.64784" lon="5.35884">
        <ele>904</ele>
      </trkpt>
      <trkpt lat="44.64794" lon="5.3586">
        <ele>904</ele>
      </trkpt>
      <trkpt lat="44.64798" lon="5.3584">
        <ele>903</ele>
      </trkpt>
      <trkpt lat="44.64794" lon="5.35817">
        <ele>903</ele>
      </trkpt>
      <trkpt lat="44.64785" lon="5.35801">
        <ele>902</ele>
      </trkpt>
      <trkpt lat="44.64775" lon="5.35787">
        <ele>902</ele>
      </trkpt>
      <trkpt lat="44.64771" lon="5.35778">
        <ele>901</ele>
      </trkpt>
      <trkpt lat="44.64772" lon="5.35771">
        <ele>901</ele>
      </trkpt>
      <trkpt lat="44.64777" lon="5.35769">
        <ele>900</ele>
      </trkpt>
      <trkpt lat="44.64788" lon="5.35785">
        <ele>899</ele>
      </trkpt>
      <trkpt lat="44.64801" lon="5.35795">
        <ele>897</ele>
      </trkpt>
      <trkpt lat="44.64815" lon="5.35801">
        <ele>896</ele>
      </trkpt>
      <trkpt lat="44.64841" lon="5.35794">
        <ele>890</ele>
      </trkpt>
      <trkpt lat="44.64851" lon="5.35798">
        <ele>887</ele>
      </trkpt>
      <trkpt lat="44.64855" lon="5.3582">
        <ele>883</ele>
      </trkpt>
      <trkpt lat="44.64853" lon="5.35842">
        <ele>885</ele>
      </trkpt>
      <trkpt lat="44.64847" lon="5.35861">
        <ele>887</ele>
      </trkpt>
      <trkpt lat="44.64822" lon="5.35909">
        <ele>892</ele>
      </trkpt>
      <trkpt lat="44.64804" lon="5.36016">
        <ele>882</ele>
      </trkpt>
      <trkpt lat="44.64804" lon="5.36033">
        <ele>881</ele>
      </trkpt>
      <trkpt lat="44.64807" lon="5.36044">
        <ele>881</ele>
      </trkpt>
      <trkpt lat="44.64822" lon="5.36072">
        <ele>880</ele>
      </trkpt>
      <trkpt lat="44.64828" lon="5.3609">
        <ele>879</ele>
      </trkpt>
      <trkpt lat="44.64828" lon="5.36106">
        <ele>878</ele>
      </trkpt>
      <trkpt lat="44.64822" lon="5.36139">
        <ele>876</ele>
      </trkpt>
      <trkpt lat="44.6482" lon="5.36162">
        <ele>874</ele>
      </trkpt>
      <trkpt lat="44.64822" lon="5.36186">
        <ele>872</ele>
      </trkpt>
      <trkpt lat="44.64818" lon="5.36232">
        <ele>869</ele>
      </trkpt>
      <trkpt lat="44.64808" lon="5.36285">
        <ele>870</ele>
      </trkpt>
      <trkpt lat="44.6481" lon="5.36312">
        <ele>871</ele>
      </trkpt>
      <trkpt lat="44.64816" lon="5.36327">
        <ele>869</ele>
      </trkpt>
      <trkpt lat="44.64838" lon="5.3636">
        <ele>864</ele>
      </trkpt>
      <trkpt lat="44.64844" lon="5.36386">
        <ele>862</ele>
      </trkpt>
      <trkpt lat="44.64845" lon="5.36418">
        <ele>859</ele>
      </trkpt>
      <trkpt lat="44.64836" lon="5.36444">
        <ele>859</ele>
      </trkpt>
      <trkpt lat="44.64831" lon="5.36464">
        <ele>859</ele>
      </trkpt>
      <trkpt lat="44.64829" lon="5.3648">
        <ele>859</ele>
      </trkpt>
      <trkpt lat="44.64831" lon="5.36498">
        <ele>858</ele>
      </trkpt>
      <trkpt lat="44.64839" lon="5.36508">
        <ele>858</ele>
      </trkpt>
      <trkpt lat="44.64877" lon="5.36541">
        <ele>855</ele>
      </trkpt>
      <trkpt lat="44.64893" lon="5.36561">
        <ele>850</ele>
      </trkpt>
      <trkpt lat="44.6491" lon="5.366">
        <ele>842</ele>
      </trkpt>
      <trkpt lat="44.64918" lon="5.3663">
        <ele>841</ele>
      </trkpt>
      <trkpt lat="44.64917" lon="5.36652">
        <ele>841</ele>
      </trkpt>
      <trkpt lat="44.64913" lon="5.36683">
        <ele>840</ele>
      </trkpt>
      <trkpt lat="44.64912" lon="5.367">
        <ele>840</ele>
      </trkpt>
      <trkpt lat="44.6491" lon="5.36713">
        <ele>840</ele>
      </trkpt>
      <trkpt lat="44.64904" lon="5.3673">
        <ele>841</ele>
      </trkpt>
      <trkpt lat="44.64893" lon="5.36754">
        <ele>841</ele>
      </trkpt>
      <trkpt lat="44.64873" lon="5.36782">
        <ele>840</ele>
      </trkpt>
      <trkpt lat="44.64869" lon="5.36802">
        <ele>839</ele>
      </trkpt>
      <trkpt lat="44.64861" lon="5.3682">
        <ele>838</ele>
      </trkpt>
      <trkpt lat="44.64847" lon="5.36837">
        <ele>836</ele>
      </trkpt>
      <trkpt lat="44.64828" lon="5.36849">
        <ele>834</ele>
      </trkpt>
      <trkpt lat="44.6482" lon="5.36866">
        <ele>833</ele>
      </trkpt>
      <trkpt lat="44.64816" lon="5.36881">
        <ele>832</ele>
      </trkpt>
      <trkpt lat="44.64796" lon="5.36909">
        <ele>830</ele>
      </trkpt>
      <trkpt lat="44.64784" lon="5.3694">
        <ele>831</ele>
      </trkpt>
      <trkpt lat="44.64786" lon="5.36965">
        <ele>832</ele>
      </trkpt>
      <trkpt lat="44.64803" lon="5.37007">
        <ele>823</ele>
      </trkpt>
      <trkpt lat="44.6481" lon="5.37035">
        <ele>818</ele>
      </trkpt>
      <trkpt lat="44.64806" lon="5.37059">
        <ele>818</ele>
      </trkpt>
      <trkpt lat="44.64794" lon="5.37085">
        <ele>819</ele>
      </trkpt>
      <trkpt lat="44.64738" lon="5.3718">
        <ele>821</ele>
      </trkpt>
      <trkpt lat="44.64724" lon="5.37218">
        <ele>818</ele>
      </trkpt>
      <trkpt lat="44.64725" lon="5.37238">
        <ele>816</ele>
      </trkpt>
      <trkpt lat="44.64733" lon="5.37253">
        <ele>811</ele>
      </trkpt>
      <trkpt lat="44.64749" lon="5.37269">
        <ele>804</ele>
      </trkpt>
      <trkpt lat="44.64752" lon="5.37279">
        <ele>801</ele>
      </trkpt>
      <trkpt lat="44.64754" lon="5.37296">
        <ele>802</ele>
      </trkpt>
      <trkpt lat="44.64752" lon="5.37328">
        <ele>805</ele>
      </trkpt>
      <trkpt lat="44.64749" lon="5.37349">
        <ele>806</ele>
      </trkpt>
      <trkpt lat="44.64748" lon="5.37376">
        <ele>806</ele>
      </trkpt>
      <trkpt lat="44.64756" lon="5.37406">
        <ele>807</ele>
      </trkpt>
      <trkpt lat="44.64773" lon="5.37454">
        <ele>803</ele>
      </trkpt>
      <trkpt lat="44.64795" lon="5.37503">
        <ele>799</ele>
      </trkpt>
      <trkpt lat="44.64807" lon="5.37525">
        <ele>794</ele>
      </trkpt>
      <trkpt lat="44.6481" lon="5.37546">
        <ele>790</ele>
      </trkpt>
      <trkpt lat="44.64806" lon="5.37573">
        <ele>785</ele>
      </trkpt>
      <trkpt lat="44.64802" lon="5.37593">
        <ele>788</ele>
      </trkpt>
      <trkpt lat="44.6479" lon="5.37613">
        <ele>792</ele>
      </trkpt>
      <trkpt lat="44.64765" lon="5.37649">
        <ele>799</ele>
      </trkpt>
      <trkpt lat="44.64753" lon="5.3768">
        <ele>791</ele>
      </trkpt>
      <trkpt lat="44.64755" lon="5.37709">
        <ele>785</ele>
      </trkpt>
      <trkpt lat="44.64754" lon="5.37725">
        <ele>784</ele>
      </trkpt>
      <trkpt lat="44.64747" lon="5.37741">
        <ele>784</ele>
      </trkpt>
      <trkpt lat="44.64693" lon="5.37837">
        <ele>779</ele>
      </trkpt>
      <trkpt lat="44.64685" lon="5.37871">
        <ele>775</ele>
      </trkpt>
      <trkpt lat="44.64685" lon="5.37894">
        <ele>773</ele>
      </trkpt>
      <trkpt lat="44.6469" lon="5.37911">
        <ele>772</ele>
      </trkpt>
      <trkpt lat="44.64694" lon="5.37932">
        <ele>771</ele>
      </trkpt>
      <trkpt lat="44.64686" lon="5.37954">
        <ele>769</ele>
      </trkpt>
      <trkpt lat="44.64683" lon="5.37975">
        <ele>769</ele>
      </trkpt>
      <trkpt lat="44.64695" lon="5.38018">
        <ele>768</ele>
      </trkpt>
      <trkpt lat="44.64711" lon="5.38087">
        <ele>769</ele>
      </trkpt>
      <trkpt lat="44.64734" lon="5.38123">
        <ele>764</ele>
      </trkpt>
      <trkpt lat="44.64737" lon="5.3814">
        <ele>762</ele>
      </trkpt>
      <trkpt lat="44.64734" lon="5.38152">
        <ele>763</ele>
      </trkpt>
      <trkpt lat="44.6472" lon="5.38158">
        <ele>764</ele>
      </trkpt>
      <trkpt lat="44.64695" lon="5.38164">
        <ele>767</ele>
      </trkpt>
      <trkpt lat="44.64676" lon="5.3819">
        <ele>763</ele>
      </trkpt>
      <trkpt lat="44.64653" lon="5.38231">
        <ele>758</ele>
      </trkpt>
      <trkpt lat="44.64639" lon="5.38236">
        <ele>758</ele>
      </trkpt>
      <trkpt lat="44.64617" lon="5.38228">
        <ele>758</ele>
      </trkpt>
      <trkpt lat="44.64605" lon="5.38209">
        <ele>758</ele>
      </trkpt>
      <trkpt lat="44.64592" lon="5.38202">
        <ele>760</ele>
      </trkpt>
      <trkpt lat="44.64575" lon="5.38184">
        <ele>762</ele>
      </trkpt>
      <trkpt lat="44.64559" lon="5.38188">
        <ele>764</ele>
      </trkpt>
      <trkpt lat="44.6455" lon="5.38198">
        <ele>763</ele>
      </trkpt>
      <trkpt lat="44.64542" lon="5.38198">
        <ele>763</ele>
      </trkpt>
      <trkpt lat="44.64533" lon="5.38194">
        <ele>762</ele>
      </trkpt>
      <trkpt lat="44.64503" lon="5.382">
        <ele>760</ele>
      </trkpt>
      <trkpt lat="44.64492" lon="5.38197">
        <ele>758</ele>
      </trkpt>
      <trkpt lat="44.64484" lon="5.38199">
        <ele>756</ele>
      </trkpt>
      <trkpt lat="44.64475" lon="5.38213">
        <ele>754</ele>
      </trkpt>
      <trkpt lat="44.64466" lon="5.38213">
        <ele>752</ele>
      </trkpt>
      <trkpt lat="44.6446" lon="5.3821">
        <ele>753</ele>
      </trkpt>
      <trkpt lat="44.64455" lon="5.38214">
        <ele>753</ele>
      </trkpt>
      <trkpt lat="44.64453" lon="5.38224">
        <ele>754</ele>
      </trkpt>
      <trkpt lat="44.64447" lon="5.38234">
        <ele>754</ele>
      </trkpt>
      <trkpt lat="44.64438" lon="5.38233">
        <ele>755</ele>
      </trkpt>
      <trkpt lat="44.64428" lon="5.38235">
        <ele>756</ele>
      </trkpt>
      <trkpt lat="44.64424" lon="5.38248">
        <ele>752</ele>
      </trkpt>
      <trkpt lat="44.64426" lon="5.38265">
        <ele>747</ele>
      </trkpt>
      <trkpt lat="44.6444" lon="5.38309">
        <ele>734</ele>
      </trkpt>
      <trkpt lat="44.64445" lon="5.38335">
        <ele>731</ele>
      </trkpt>
      <trkpt lat="44.64447" lon="5.38364">
        <ele>728</ele>
      </trkpt>
      <trkpt lat="44.64442" lon="5.38379">
        <ele>730</ele>
      </trkpt>
      <trkpt lat="44.64426" lon="5.38406">
        <ele>736</ele>
      </trkpt>
      <trkpt lat="44.64423" lon="5.38421">
        <ele>738</ele>
      </trkpt>
      <trkpt lat="44.64427" lon="5.38437">
        <ele>736</ele>
      </trkpt>
      <trkpt lat="44.64434" lon="5.38452">
        <ele>733</ele>
      </trkpt>
      <trkpt lat="44.64436" lon="5.38466">
        <ele>731</ele>
      </trkpt>
      <trkpt lat="44.64437" lon="5.38485">
        <ele>728</ele>
      </trkpt>
      <trkpt lat="44.64449" lon="5.38558">
        <ele>731</ele>
      </trkpt>
      <trkpt lat="44.64449" lon="5.38582">
        <ele>729</ele>
      </trkpt>
      <trkpt lat="44.64453" lon="5.38596">
        <ele>728</ele>
      </trkpt>
      <trkpt lat="44.64495" lon="5.38617">
        <ele>724</ele>
      </trkpt>
      <trkpt lat="44.64524" lon="5.38615">
        <ele>720</ele>
      </trkpt>
      <trkpt lat="44.64535" lon="5.3862">
        <ele>718</ele>
      </trkpt>
      <trkpt lat="44.64557" lon="5.38645">
        <ele>717</ele>
      </trkpt>
      <trkpt lat="44.64569" lon="5.38652">
        <ele>716</ele>
      </trkpt>
      <trkpt lat="44.64585" lon="5.38658">
        <ele>715</ele>
      </trkpt>
      <trkpt lat="44.64592" lon="5.38675">
        <ele>713</ele>
      </trkpt>
      <trkpt lat="44.64592" lon="5.38696">
        <ele>712</ele>
      </trkpt>
      <trkpt lat="44.64589" lon="5.38713">
        <ele>713</ele>
      </trkpt>
      <trkpt lat="44.64562" lon="5.38738">
        <ele>716</ele>
      </trkpt>
      <trkpt lat="44.64537" lon="5.38754">
        <ele>718</ele>
      </trkpt>
      <trkpt lat="44.64513" lon="5.3876">
        <ele>719</ele>
      </trkpt>
      <trkpt lat="44.64493" lon="5.38756">
        <ele>720</ele>
      </trkpt>
      <trkpt lat="44.6447" lon="5.38745">
        <ele>722</ele>
      </trkpt>
      <trkpt lat="44.644" lon="5.38747">
        <ele>714</ele>
      </trkpt>
      <trkpt lat="44.64386" lon="5.38741">
        <ele>716</ele>
      </trkpt>
      <trkpt lat="44.64376" lon="5.38726">
        <ele>718</ele>
      </trkpt>
      <trkpt lat="44.64367" lon="5.38719">
        <ele>719</ele>
      </trkpt>
      <trkpt lat="44.64358" lon="5.38719">
        <ele>720</ele>
      </trkpt>
      <trkpt lat="44.64316" lon="5.38751">
        <ele>713</ele>
      </trkpt>
      <trkpt lat="44.64304" lon="5.38782">
        <ele>711</ele>
      </trkpt>
      <trkpt lat="44.64286" lon="5.38805">
        <ele>709</ele>
      </trkpt>
      <trkpt lat="44.64283" lon="5.38814">
        <ele>708</ele>
      </trkpt>
      <trkpt lat="44.64287" lon="5.38827">
        <ele>707</ele>
      </trkpt>
      <trkpt lat="44.64295" lon="5.3884">
        <ele>705</ele>
      </trkpt>
      <trkpt lat="44.64319" lon="5.38889">
        <ele>699</ele>
      </trkpt>
      <trkpt lat="44.64363" lon="5.38961">
        <ele>691</ele>
      </trkpt>
      <trkpt lat="44.64367" lon="5.38973">
        <ele>691</ele>
      </trkpt>
      <trkpt lat="44.6437" lon="5.3899">
        <ele>691</ele>
      </trkpt>
      <trkpt lat="44.64377" lon="5.39008">
        <ele>690</ele>
      </trkpt>
      <trkpt lat="44.6439" lon="5.39031">
        <ele>690</ele>
      </trkpt>
      <trkpt lat="44.64418" lon="5.39058">
        <ele>688</ele>
      </trkpt>
      <trkpt lat="44.64432" lon="5.39084">
        <ele>686</ele>
      </trkpt>
      <trkpt lat="44.64449" lon="5.39122">
        <ele>689</ele>
      </trkpt>
      <trkpt lat="44.6446" lon="5.39137">
        <ele>690</ele>
      </trkpt>
      <trkpt lat="44.64472" lon="5.39143">
        <ele>688</ele>
      </trkpt>
      <trkpt lat="44.64501" lon="5.39139">
        <ele>684</ele>
      </trkpt>
      <trkpt lat="44.64518" lon="5.39142">
        <ele>682</ele>
      </trkpt>
      <trkpt lat="44.64543" lon="5.39142">
        <ele>680</ele>
      </trkpt>
      <trkpt lat="44.64599" lon="5.39136">
        <ele>672</ele>
      </trkpt>
      <trkpt lat="44.64613" lon="5.39137">
        <ele>673</ele>
      </trkpt>
      <trkpt lat="44.64624" lon="5.39151">
        <ele>673</ele>
      </trkpt>
      <trkpt lat="44.64644" lon="5.39198">
        <ele>675</ele>
      </trkpt>
      <trkpt lat="44.64656" lon="5.39215">
        <ele>675</ele>
      </trkpt>
      <trkpt lat="44.64669" lon="5.39228">
        <ele>675</ele>
      </trkpt>
      <trkpt lat="44.64659" lon="5.39258">
        <ele>675</ele>
      </trkpt>
      <trkpt lat="44.64659" lon="5.39286">
        <ele>672</ele>
      </trkpt>
      <trkpt lat="44.64668" lon="5.39315">
        <ele>669</ele>
      </trkpt>
      <trkpt lat="44.64669" lon="5.3934">
        <ele>667</ele>
      </trkpt>
      <trkpt lat="44.64664" lon="5.39359">
        <ele>665</ele>
      </trkpt>
      <trkpt lat="44.64656" lon="5.39374">
        <ele>663</ele>
      </trkpt>
      <trkpt lat="44.64617" lon="5.39409">
        <ele>665</ele>
      </trkpt>
      <trkpt lat="44.64588" lon="5.39438">
        <ele>668</ele>
      </trkpt>
      <trkpt lat="44.64569" lon="5.3944">
        <ele>670</ele>
      </trkpt>
      <trkpt lat="44.64561" lon="5.39443">
        <ele>669</ele>
      </trkpt>
      <trkpt lat="44.64557" lon="5.3945">
        <ele>668</ele>
      </trkpt>
      <trkpt lat="44.64558" lon="5.39461">
        <ele>667</ele>
      </trkpt>
      <trkpt lat="44.64571" lon="5.39487">
        <ele>665</ele>
      </trkpt>
      <trkpt lat="44.64613" lon="5.3952">
        <ele>654</ele>
      </trkpt>
      <trkpt lat="44.64624" lon="5.39532">
        <ele>653</ele>
      </trkpt>
      <trkpt lat="44.64632" lon="5.39545">
        <ele>652</ele>
      </trkpt>
      <trkpt lat="44.64635" lon="5.39563">
        <ele>651</ele>
      </trkpt>
      <trkpt lat="44.64631" lon="5.39626">
        <ele>647</ele>
      </trkpt>
      <trkpt lat="44.64625" lon="5.39639">
        <ele>650</ele>
      </trkpt>
      <trkpt lat="44.64615" lon="5.39645">
        <ele>652</ele>
      </trkpt>
      <trkpt lat="44.64592" lon="5.39649">
        <ele>658</ele>
      </trkpt>
      <trkpt lat="44.64577" lon="5.39656">
        <ele>658</ele>
      </trkpt>
      <trkpt lat="44.64561" lon="5.39659">
        <ele>659</ele>
      </trkpt>
      <trkpt lat="44.64557" lon="5.39663">
        <ele>659</ele>
      </trkpt>
      <trkpt lat="44.64554" lon="5.39678">
        <ele>659</ele>
      </trkpt>
      <trkpt lat="44.64559" lon="5.39686">
        <ele>659</ele>
      </trkpt>
      <trkpt lat="44.64574" lon="5.39699">
        <ele>657</ele>
      </trkpt>
      <trkpt lat="44.64619" lon="5.39723">
        <ele>654</ele>
      </trkpt>
      <trkpt lat="44.64643" lon="5.39719">
        <ele>651</ele>
      </trkpt>
      <trkpt lat="44.64669" lon="5.39729">
        <ele>648</ele>
      </trkpt>
      <trkpt lat="44.64681" lon="5.39728">
        <ele>645</ele>
      </trkpt>
      <trkpt lat="44.64703" lon="5.39717">
        <ele>639</ele>
      </trkpt>
      <trkpt lat="44.64713" lon="5.39718">
        <ele>637</ele>
      </trkpt>
      <trkpt lat="44.6472" lon="5.39727">
        <ele>637</ele>
      </trkpt>
      <trkpt lat="44.6473" lon="5.39749">
        <ele>637</ele>
      </trkpt>
      <trkpt lat="44.64745" lon="5.398">
        <ele>638</ele>
      </trkpt>
      <trkpt lat="44.64754" lon="5.39815">
        <ele>636</ele>
      </trkpt>
      <trkpt lat="44.64804" lon="5.39881">
        <ele>628</ele>
      </trkpt>
      <trkpt lat="44.64823" lon="5.3991">
        <ele>624</ele>
      </trkpt>
      <trkpt lat="44.6486" lon="5.39955">
        <ele>616</ele>
      </trkpt>
      <trkpt lat="44.64867" lon="5.39973">
        <ele>617</ele>
      </trkpt>
      <trkpt lat="44.64867" lon="5.39989">
        <ele>617</ele>
      </trkpt>
      <trkpt lat="44.64861" lon="5.40009">
        <ele>618</ele>
      </trkpt>
      <trkpt lat="44.64851" lon="5.40028">
        <ele>617</ele>
      </trkpt>
      <trkpt lat="44.64849" lon="5.40037">
        <ele>616</ele>
      </trkpt>
      <trkpt lat="44.6485" lon="5.40048">
        <ele>616</ele>
      </trkpt>
      <trkpt lat="44.64855" lon="5.40064">
        <ele>615</ele>
      </trkpt>
      <trkpt lat="44.64854" lon="5.40081">
        <ele>615</ele>
      </trkpt>
      <trkpt lat="44.64847" lon="5.401">
        <ele>615</ele>
      </trkpt>
      <trkpt lat="44.64834" lon="5.4012">
        <ele>615</ele>
      </trkpt>
      <trkpt lat="44.6482" lon="5.40132">
        <ele>616</ele>
      </trkpt>
      <trkpt lat="44.64788" lon="5.40143">
        <ele>619</ele>
      </trkpt>
      <trkpt lat="44.64746" lon="5.40164">
        <ele>615</ele>
      </trkpt>
      <trkpt lat="44.6473" lon="5.40182">
        <ele>614</ele>
      </trkpt>
      <trkpt lat="44.64699" lon="5.40194">
        <ele>612</ele>
      </trkpt>
      <trkpt lat="44.64654" lon="5.40237">
        <ele>605</ele>
      </trkpt>
      <trkpt lat="44.6464" lon="5.40247">
        <ele>604</ele>
      </trkpt>
      <trkpt lat="44.64632" lon="5.40259">
        <ele>603</ele>
      </trkpt>
      <trkpt lat="44.64616" lon="5.4029">
        <ele>601</ele>
      </trkpt>
      <trkpt lat="44.64613" lon="5.40314">
        <ele>599</ele>
      </trkpt>
      <trkpt lat="44.64618" lon="5.40349">
        <ele>596</ele>
      </trkpt>
      <trkpt lat="44.64618" lon="5.4036">
        <ele>596</ele>
      </trkpt>
      <trkpt lat="44.64612" lon="5.40377">
        <ele>596</ele>
      </trkpt>
      <trkpt lat="44.64596" lon="5.40409">
        <ele>596</ele>
      </trkpt>
      <trkpt lat="44.64575" lon="5.40433">
        <ele>596</ele>
      </trkpt>
      <trkpt lat="44.64571" lon="5.40445">
        <ele>597</ele>
      </trkpt>
      <trkpt lat="44.64572" lon="5.40476">
        <ele>597</ele>
      </trkpt>
      <trkpt lat="44.64567" lon="5.40492">
        <ele>596</ele>
      </trkpt>
      <trkpt lat="44.64546" lon="5.40532">
        <ele>593</ele>
      </trkpt>
      <trkpt lat="44.64545" lon="5.4054">
        <ele>593</ele>
      </trkpt>
      <trkpt lat="44.64547" lon="5.40549">
        <ele>593</ele>
      </trkpt>
      <trkpt lat="44.64555" lon="5.40573">
        <ele>594</ele>
      </trkpt>
      <trkpt lat="44.64564" lon="5.40615">
        <ele>594</ele>
      </trkpt>
      <trkpt lat="44.64563" lon="5.40653">
        <ele>593</ele>
      </trkpt>
      <trkpt lat="44.6456" lon="5.40675">
        <ele>593</ele>
      </trkpt>
      <trkpt lat="44.64553" lon="5.40697">
        <ele>593</ele>
      </trkpt>
      <trkpt lat="44.64551" lon="5.40711">
        <ele>593</ele>
      </trkpt>
      <trkpt lat="44.64553" lon="5.40725">
        <ele>593</ele>
      </trkpt>
      <trkpt lat="44.64571" lon="5.4075">
        <ele>593</ele>
      </trkpt>
      <trkpt lat="44.64579" lon="5.40766">
        <ele>594</ele>
      </trkpt>
      <trkpt lat="44.64587" lon="5.40779">
        <ele>595</ele>
      </trkpt>
      <trkpt lat="44.64596" lon="5.40784">
        <ele>595</ele>
      </trkpt>
      <trkpt lat="44.6461" lon="5.40783">
        <ele>596</ele>
      </trkpt>
      <trkpt lat="44.64644" lon="5.40761">
        <ele>592</ele>
      </trkpt>
      <trkpt lat="44.64675" lon="5.4073">
        <ele>587</ele>
      </trkpt>
      <trkpt lat="44.64704" lon="5.40707">
        <ele>580</ele>
      </trkpt>
      <trkpt lat="44.64725" lon="5.40698">
        <ele>576</ele>
      </trkpt>
      <trkpt lat="44.64736" lon="5.40697">
        <ele>575</ele>
      </trkpt>
      <trkpt lat="44.64744" lon="5.40704">
        <ele>574</ele>
      </trkpt>
      <trkpt lat="44.6475" lon="5.40722">
        <ele>573</ele>
      </trkpt>
      <trkpt lat="44.64753" lon="5.40752">
        <ele>571</ele>
      </trkpt>
      <trkpt lat="44.64752" lon="5.40827">
        <ele>566</ele>
      </trkpt>
      <trkpt lat="44.64748" lon="5.40854">
        <ele>568</ele>
      </trkpt>
      <trkpt lat="44.64742" lon="5.40865">
        <ele>569</ele>
      </trkpt>
      <trkpt lat="44.64703" lon="5.40905">
        <ele>574</ele>
      </trkpt>
      <trkpt lat="44.647" lon="5.40914">
        <ele>573</ele>
      </trkpt>
      <trkpt lat="44.647" lon="5.40925">
        <ele>572</ele>
      </trkpt>
      <trkpt lat="44.64703" lon="5.40928">
        <ele>572</ele>
      </trkpt>
      <trkpt lat="44.6471" lon="5.40927">
        <ele>571</ele>
      </trkpt>
      <trkpt lat="44.64725" lon="5.40905">
        <ele>568</ele>
      </trkpt>
      <trkpt lat="44.64777" lon="5.40873">
        <ele>556</ele>
      </trkpt>
      <trkpt lat="44.64792" lon="5.40851">
        <ele>553</ele>
      </trkpt>
      <trkpt lat="44.64799" lon="5.40822">
        <ele>551</ele>
      </trkpt>
      <trkpt lat="44.64808" lon="5.40743">
        <ele>547</ele>
      </trkpt>
      <trkpt lat="44.64809" lon="5.40712">
        <ele>546</ele>
      </trkpt>
      <trkpt lat="44.64814" lon="5.40708">
        <ele>546</ele>
      </trkpt>
      <trkpt lat="44.64818" lon="5.40713">
        <ele>546</ele>
      </trkpt>
      <trkpt lat="44.6482" lon="5.40723">
        <ele>546</ele>
      </trkpt>
      <trkpt lat="44.6482" lon="5.40751">
        <ele>545</ele>
      </trkpt>
      <trkpt lat="44.64826" lon="5.4077">
        <ele>544</ele>
      </trkpt>
      <trkpt lat="44.64848" lon="5.40805">
        <ele>542</ele>
      </trkpt>
      <trkpt lat="44.64857" lon="5.40824">
        <ele>540</ele>
      </trkpt>
      <trkpt lat="44.6487" lon="5.40862">
        <ele>536</ele>
      </trkpt>
      <trkpt lat="44.64877" lon="5.40893">
        <ele>535</ele>
      </trkpt>
      <trkpt lat="44.64879" lon="5.40934">
        <ele>533</ele>
      </trkpt>
      <trkpt lat="44.64876" lon="5.40972">
        <ele>532</ele>
      </trkpt>
      <trkpt lat="44.64877" lon="5.40987">
        <ele>532</ele>
      </trkpt>
      <trkpt lat="44.64881" lon="5.41004">
        <ele>532</ele>
      </trkpt>
      <trkpt lat="44.64902" lon="5.41037">
        <ele>529</ele>
      </trkpt>
      <trkpt lat="44.64919" lon="5.41062">
        <ele>527</ele>
      </trkpt>
      <trkpt lat="44.64936" lon="5.41082">
        <ele>524</ele>
      </trkpt>
      <trkpt lat="44.64965" lon="5.41124">
        <ele>520</ele>
      </trkpt>
      <trkpt lat="44.6498" lon="5.41172">
        <ele>520</ele>
      </trkpt>
      <trkpt lat="44.64992" lon="5.41223">
        <ele>519</ele>
      </trkpt>
      <trkpt lat="44.64992" lon="5.41267">
        <ele>520</ele>
      </trkpt>
      <trkpt lat="44.64998" lon="5.41286">
        <ele>520</ele>
      </trkpt>
      <trkpt lat="44.65011" lon="5.41306">
        <ele>519</ele>
      </trkpt>
      <trkpt lat="44.65066" lon="5.41367">
        <ele>517</ele>
      </trkpt>
      <trkpt lat="44.65089" lon="5.41414">
        <ele>517</ele>
      </trkpt>
      <trkpt lat="44.65105" lon="5.41466">
        <ele>518</ele>
      </trkpt>
      <trkpt lat="44.65005" lon="5.41599">
        <ele>508</ele>
      </trkpt>
      <trkpt lat="44.64986" lon="5.4162">
        <ele>511</ele>
      </trkpt>
      <trkpt lat="44.64954" lon="5.41642">
        <ele>515</ele>
      </trkpt>
      <trkpt lat="44.64861" lon="5.41686">
        <ele>515</ele>
      </trkpt>
      <trkpt lat="44.64841" lon="5.41698">
        <ele>516</ele>
      </trkpt>
      <trkpt lat="44.64743" lon="5.41768">
        <ele>512</ele>
      </trkpt>
      <trkpt lat="44.64661" lon="5.41815">
        <ele>509</ele>
      </trkpt>
      <trkpt lat="44.64495" lon="5.41941">
        <ele>514</ele>
      </trkpt>
      <trkpt lat="44.64424" lon="5.4199">
        <ele>512</ele>
      </trkpt>
      <trkpt lat="44.64411" lon="5.41999">
        <ele>512</ele>
      </trkpt>
      <trkpt lat="44.64141" lon="5.42188">
        <ele>510</ele>
      </trkpt>
      <trkpt lat="44.64116" lon="5.4221">
        <ele>511</ele>
      </trkpt>
      <trkpt lat="44.63958" lon="5.42386">
        <ele>513</ele>
      </trkpt>
      <trkpt lat="44.63907" lon="5.4244">
        <ele>513</ele>
      </trkpt>
      <trkpt lat="44.63835" lon="5.42501">
        <ele>514</ele>
      </trkpt>
      <trkpt lat="44.63691" lon="5.42605">
        <ele>516</ele>
      </trkpt>
      <trkpt lat="44.63521" lon="5.42711">
        <ele>522</ele>
      </trkpt>
      <trkpt lat="44.63355" lon="5.42833">
        <ele>524</ele>
      </trkpt>
      <trkpt lat="44.63261" lon="5.42907">
        <ele>526</ele>
      </trkpt>
      <trkpt lat="44.63216" lon="5.42947">
        <ele>527</ele>
      </trkpt>
      <trkpt lat="44.6317" lon="5.42994">
        <ele>528</ele>
      </trkpt>
      <trkpt lat="44.63154" lon="5.43006">
        <ele>528</ele>
      </trkpt>
      <trkpt lat="44.63122" lon="5.43039">
        <ele>529</ele>
      </trkpt>
      <trkpt lat="44.63098" lon="5.43071">
        <ele>529</ele>
      </trkpt>
      <trkpt lat="44.63056" lon="5.43117">
        <ele>530</ele>
      </trkpt>
      <trkpt lat="44.63042" lon="5.43127">
        <ele>530</ele>
      </trkpt>
      <trkpt lat="44.6303" lon="5.4314">
        <ele>531</ele>
      </trkpt>
      <trkpt lat="44.63008" lon="5.43167">
        <ele>531</ele>
      </trkpt>
      <trkpt lat="44.62959" lon="5.43217">
        <ele>531</ele>
      </trkpt>
      <trkpt lat="44.62438" lon="5.43775">
        <ele>537</ele>
      </trkpt>
      <trkpt lat="44.62426" lon="5.43787">
        <ele>537</ele>
      </trkpt>
      <trkpt lat="44.62325" lon="5.43897">
        <ele>538</ele>
      </trkpt>
      <trkpt lat="44.62289" lon="5.43927">
        <ele>541</ele>
      </trkpt>
      <trkpt lat="44.62273" lon="5.43932">
        <ele>541</ele>
      </trkpt>
      <trkpt lat="44.62255" lon="5.43925">
        <ele>542</ele>
      </trkpt>
      <trkpt lat="44.61851" lon="5.43636">
        <ele>554</ele>
      </trkpt>
      <trkpt lat="44.61781" lon="5.43589">
        <ele>559</ele>
      </trkpt>
      <trkpt lat="44.61446" lon="5.4335">
        <ele>563</ele>
      </trkpt>
      <trkpt lat="44.61415" lon="5.43322">
        <ele>565</ele>
      </trkpt>
      <trkpt lat="44.61327" lon="5.43225">
        <ele>568</ele>
      </trkpt>
      <trkpt lat="44.6122" lon="5.43109">
        <ele>569</ele>
      </trkpt>
      <trkpt lat="44.60836" lon="5.42796">
        <ele>586</ele>
      </trkpt>
      <trkpt lat="44.60751" lon="5.42715">
        <ele>590</ele>
      </trkpt>
      <trkpt lat="44.60708" lon="5.4267">
        <ele>594</ele>
      </trkpt>
      <trkpt lat="44.60673" lon="5.42627">
        <ele>597</ele>
      </trkpt>
      <trkpt lat="44.60652" lon="5.42593">
        <ele>599</ele>
      </trkpt>
      <trkpt lat="44.60633" lon="5.42554">
        <ele>602</ele>
      </trkpt>
      <trkpt lat="44.60589" lon="5.4244">
        <ele>604</ele>
      </trkpt>
      <trkpt lat="44.60563" lon="5.42396">
        <ele>606</ele>
      </trkpt>
      <trkpt lat="44.60485" lon="5.42297">
        <ele>610</ele>
      </trkpt>
      <trkpt lat="44.60435" lon="5.42256">
        <ele>613</ele>
      </trkpt>
      <trkpt lat="44.60407" lon="5.42237">
        <ele>610</ele>
      </trkpt>
      <trkpt lat="44.60393" lon="5.4223">
        <ele>608</ele>
      </trkpt>
      <trkpt lat="44.60365" lon="5.42221">
        <ele>607</ele>
      </trkpt>
      <trkpt lat="44.60325" lon="5.42216">
        <ele>605</ele>
      </trkpt>
      <trkpt lat="44.60209" lon="5.42226">
        <ele>610</ele>
      </trkpt>
      <trkpt lat="44.60176" lon="5.42223">
        <ele>611</ele>
      </trkpt>
      <trkpt lat="44.60018" lon="5.42182">
        <ele>618</ele>
      </trkpt>
      <trkpt lat="44.59935" lon="5.42151">
        <ele>622</ele>
      </trkpt>
      <trkpt lat="44.59867" lon="5.42131">
        <ele>625</ele>
      </trkpt>
      <trkpt lat="44.59737" lon="5.42114">
        <ele>630</ele>
      </trkpt>
      <trkpt lat="44.59659" lon="5.4209">
        <ele>633</ele>
      </trkpt>
      <trkpt lat="44.59605" lon="5.42062">
        <ele>635</ele>
      </trkpt>
      <trkpt lat="44.59518" lon="5.41965">
        <ele>643</ele>
      </trkpt>
      <trkpt lat="44.5948" lon="5.41932">
        <ele>646</ele>
      </trkpt>
      <trkpt lat="44.59273" lon="5.41828">
        <ele>659</ele>
      </trkpt>
      <trkpt lat="44.59227" lon="5.41801">
        <ele>661</ele>
      </trkpt>
      <trkpt lat="44.59114" lon="5.4169">
        <ele>669</ele>
      </trkpt>
      <trkpt lat="44.59047" lon="5.41625">
        <ele>678</ele>
      </trkpt>
      <trkpt lat="44.59037" lon="5.41613">
        <ele>679</ele>
      </trkpt>
      <trkpt lat="44.59036" lon="5.41607">
        <ele>680</ele>
      </trkpt>
      <trkpt lat="44.59036" lon="5.416">
        <ele>680</ele>
      </trkpt>
      <trkpt lat="44.59041" lon="5.41589">
        <ele>681</ele>
      </trkpt>
      <trkpt lat="44.59055" lon="5.41577">
        <ele>683</ele>
      </trkpt>
      <trkpt lat="44.59102" lon="5.41545">
        <ele>691</ele>
      </trkpt>
      <trkpt lat="44.59108" lon="5.41534">
        <ele>692</ele>
      </trkpt>
      <trkpt lat="44.59108" lon="5.41523">
        <ele>692</ele>
      </trkpt>
      <trkpt lat="44.59102" lon="5.41512">
        <ele>693</ele>
      </trkpt>
      <trkpt lat="44.59073" lon="5.41495">
        <ele>696</ele>
      </trkpt>
      <trkpt lat="44.58989" lon="5.41434">
        <ele>700</ele>
      </trkpt>
      <trkpt lat="44.58962" lon="5.41421">
        <ele>699</ele>
      </trkpt>
      <trkpt lat="44.58898" lon="5.41403">
        <ele>697</ele>
      </trkpt>
      <trkpt lat="44.58886" lon="5.41396">
        <ele>698</ele>
      </trkpt>
      <trkpt lat="44.58817" lon="5.41329">
        <ele>706</ele>
      </trkpt>
      <trkpt lat="44.58783" lon="5.41302">
        <ele>708</ele>
      </trkpt>
      <trkpt lat="44.58765" lon="5.41284">
        <ele>709</ele>
      </trkpt>
      <trkpt lat="44.58763" lon="5.41276">
        <ele>710</ele>
      </trkpt>
      <trkpt lat="44.58766" lon="5.41266">
        <ele>711</ele>
      </trkpt>
      <trkpt lat="44.58801" lon="5.4126">
        <ele>715</ele>
      </trkpt>
      <trkpt lat="44.58817" lon="5.41243">
        <ele>720</ele>
      </trkpt>
      <trkpt lat="44.58837" lon="5.41233">
        <ele>725</ele>
      </trkpt>
      <trkpt lat="44.58856" lon="5.41238">
        <ele>726</ele>
      </trkpt>
      <trkpt lat="44.58877" lon="5.41257">
        <ele>727</ele>
      </trkpt>
      <trkpt lat="44.58882" lon="5.41259">
        <ele>728</ele>
      </trkpt>
      <trkpt lat="44.58885" lon="5.41258">
        <ele>729</ele>
      </trkpt>
      <trkpt lat="44.58888" lon="5.41254">
        <ele>729</ele>
      </trkpt>
      <trkpt lat="44.58887" lon="5.41245">
        <ele>730</ele>
      </trkpt>
      <trkpt lat="44.58869" lon="5.41229">
        <ele>734</ele>
      </trkpt>
      <trkpt lat="44.58859" lon="5.41216">
        <ele>734</ele>
      </trkpt>
      <trkpt lat="44.58838" lon="5.41186">
        <ele>733</ele>
      </trkpt>
      <trkpt lat="44.58821" lon="5.41154">
        <ele>737</ele>
      </trkpt>
      <trkpt lat="44.58806" lon="5.41135">
        <ele>739</ele>
      </trkpt>
      <trkpt lat="44.58766" lon="5.411">
        <ele>737</ele>
      </trkpt>
      <trkpt lat="44.58702" lon="5.41034">
        <ele>746</ele>
      </trkpt>
      <trkpt lat="44.58657" lon="5.40977">
        <ele>749</ele>
      </trkpt>
      <trkpt lat="44.58656" lon="5.40972">
        <ele>749</ele>
      </trkpt>
      <trkpt lat="44.58658" lon="5.40964">
        <ele>750</ele>
      </trkpt>
      <trkpt lat="44.5866" lon="5.4096">
        <ele>750</ele>
      </trkpt>
      <trkpt lat="44.58665" lon="5.40959">
        <ele>750</ele>
      </trkpt>
      <trkpt lat="44.58671" lon="5.4096">
        <ele>751</ele>
      </trkpt>
      <trkpt lat="44.58677" lon="5.40965">
        <ele>752</ele>
      </trkpt>
      <trkpt lat="44.587" lon="5.40993">
        <ele>754</ele>
      </trkpt>
      <trkpt lat="44.58704" lon="5.40996">
        <ele>755</ele>
      </trkpt>
      <trkpt lat="44.5871" lon="5.40994">
        <ele>757</ele>
      </trkpt>
      <trkpt lat="44.58712" lon="5.40989">
        <ele>757</ele>
      </trkpt>
      <trkpt lat="44.58711" lon="5.40982">
        <ele>759</ele>
      </trkpt>
      <trkpt lat="44.5869" lon="5.40955">
        <ele>765</ele>
      </trkpt>
      <trkpt lat="44.58633" lon="5.40842">
        <ele>771</ele>
      </trkpt>
      <trkpt lat="44.58611" lon="5.40796">
        <ele>769</ele>
      </trkpt>
      <trkpt lat="44.58595" lon="5.40769">
        <ele>767</ele>
      </trkpt>
      <trkpt lat="44.58586" lon="5.40743">
        <ele>765</ele>
      </trkpt>
      <trkpt lat="44.58578" lon="5.40734">
        <ele>764</ele>
      </trkpt>
      <trkpt lat="44.58555" lon="5.40735">
        <ele>762</ele>
      </trkpt>
      <trkpt lat="44.58546" lon="5.40734">
        <ele>762</ele>
      </trkpt>
      <trkpt lat="44.58534" lon="5.40727">
        <ele>763</ele>
      </trkpt>
      <trkpt lat="44.58528" lon="5.40719">
        <ele>763</ele>
      </trkpt>
      <trkpt lat="44.58525" lon="5.40711">
        <ele>763</ele>
      </trkpt>
      <trkpt lat="44.58525" lon="5.40702">
        <ele>763</ele>
      </trkpt>
      <trkpt lat="44.58527" lon="5.40689">
        <ele>764</ele>
      </trkpt>
      <trkpt lat="44.58539" lon="5.40646">
        <ele>768</ele>
      </trkpt>
      <trkpt lat="44.58553" lon="5.40605">
        <ele>775</ele>
      </trkpt>
      <trkpt lat="44.58551" lon="5.40598">
        <ele>776</ele>
      </trkpt>
      <trkpt lat="44.58548" lon="5.40594">
        <ele>777</ele>
      </trkpt>
      <trkpt lat="44.58542" lon="5.40594">
        <ele>776</ele>
      </trkpt>
      <trkpt lat="44.58538" lon="5.40598">
        <ele>775</ele>
      </trkpt>
      <trkpt lat="44.58526" lon="5.40616">
        <ele>772</ele>
      </trkpt>
      <trkpt lat="44.58509" lon="5.40661">
        <ele>766</ele>
      </trkpt>
      <trkpt lat="44.58507" lon="5.40663">
        <ele>766</ele>
      </trkpt>
      <trkpt lat="44.58497" lon="5.4066">
        <ele>767</ele>
      </trkpt>
      <trkpt lat="44.58495" lon="5.40652">
        <ele>768</ele>
      </trkpt>
      <trkpt lat="44.58513" lon="5.40536">
        <ele>778</ele>
      </trkpt>
      <trkpt lat="44.5851" lon="5.40525">
        <ele>779</ele>
      </trkpt>
      <trkpt lat="44.58507" lon="5.40521">
        <ele>779</ele>
      </trkpt>
      <trkpt lat="44.58498" lon="5.40522">
        <ele>780</ele>
      </trkpt>
      <trkpt lat="44.58456" lon="5.40554">
        <ele>783</ele>
      </trkpt>
      <trkpt lat="44.58446" lon="5.40552">
        <ele>783</ele>
      </trkpt>
      <trkpt lat="44.58444" lon="5.4055">
        <ele>784</ele>
      </trkpt>
      <trkpt lat="44.58442" lon="5.40545">
        <ele>784</ele>
      </trkpt>
      <trkpt lat="44.58443" lon="5.40536">
        <ele>784</ele>
      </trkpt>
      <trkpt lat="44.58468" lon="5.40493">
        <ele>786</ele>
      </trkpt>
      <trkpt lat="44.58479" lon="5.40468">
        <ele>787</ele>
      </trkpt>
      <trkpt lat="44.58481" lon="5.40451">
        <ele>787</ele>
      </trkpt>
      <trkpt lat="44.58479" lon="5.40441">
        <ele>787</ele>
      </trkpt>
      <trkpt lat="44.58472" lon="5.40434">
        <ele>788</ele>
      </trkpt>
      <trkpt lat="44.58464" lon="5.40433">
        <ele>789</ele>
      </trkpt>
      <trkpt lat="44.58454" lon="5.40436">
        <ele>790</ele>
      </trkpt>
      <trkpt lat="44.58424" lon="5.40466">
        <ele>795</ele>
      </trkpt>
      <trkpt lat="44.58388" lon="5.40525">
        <ele>798</ele>
      </trkpt>
      <trkpt lat="44.58381" lon="5.40531">
        <ele>798</ele>
      </trkpt>
      <trkpt lat="44.58375" lon="5.4053">
        <ele>799</ele>
      </trkpt>
      <trkpt lat="44.58373" lon="5.40526">
        <ele>799</ele>
      </trkpt>
      <trkpt lat="44.58374" lon="5.40516">
        <ele>799</ele>
      </trkpt>
      <trkpt lat="44.58402" lon="5.40466">
        <ele>802</ele>
      </trkpt>
      <trkpt lat="44.58403" lon="5.40453">
        <ele>803</ele>
      </trkpt>
      <trkpt lat="44.58374" lon="5.40341">
        <ele>814</ele>
      </trkpt>
      <trkpt lat="44.58308" lon="5.40233">
        <ele>818</ele>
      </trkpt>
      <trkpt lat="44.58254" lon="5.40162">
        <ele>824</ele>
      </trkpt>
      <trkpt lat="44.58201" lon="5.40065">
        <ele>831</ele>
      </trkpt>
      <trkpt lat="44.58194" lon="5.40054">
        <ele>833</ele>
      </trkpt>
      <trkpt lat="44.58188" lon="5.40053">
        <ele>834</ele>
      </trkpt>
      <trkpt lat="44.58184" lon="5.40054">
        <ele>835</ele>
      </trkpt>
      <trkpt lat="44.58179" lon="5.40061">
        <ele>836</ele>
      </trkpt>
      <trkpt lat="44.58179" lon="5.40066">
        <ele>837</ele>
      </trkpt>
      <trkpt lat="44.58181" lon="5.40083">
        <ele>839</ele>
      </trkpt>
      <trkpt lat="44.58191" lon="5.40106">
        <ele>839</ele>
      </trkpt>
      <trkpt lat="44.58207" lon="5.40129">
        <ele>838</ele>
      </trkpt>
      <trkpt lat="44.5821" lon="5.40139">
        <ele>838</ele>
      </trkpt>
      <trkpt lat="44.5821" lon="5.40146">
        <ele>839</ele>
      </trkpt>
      <trkpt lat="44.58207" lon="5.4015">
        <ele>839</ele>
      </trkpt>
      <trkpt lat="44.58203" lon="5.40152">
        <ele>839</ele>
      </trkpt>
      <trkpt lat="44.582" lon="5.40151">
        <ele>839</ele>
      </trkpt>
      <trkpt lat="44.58184" lon="5.40126">
        <ele>840</ele>
      </trkpt>
      <trkpt lat="44.58154" lon="5.4009">
        <ele>842</ele>
      </trkpt>
      <trkpt lat="44.581" lon="5.40032">
        <ele>846</ele>
      </trkpt>
      <trkpt lat="44.58071" lon="5.40008">
        <ele>852</ele>
      </trkpt>
      <trkpt lat="44.58064" lon="5.4">
        <ele>854</ele>
      </trkpt>
      <trkpt lat="44.58061" lon="5.39989">
        <ele>854</ele>
      </trkpt>
      <trkpt lat="44.58061" lon="5.39968">
        <ele>854</ele>
      </trkpt>
      <trkpt lat="44.5806" lon="5.39926">
        <ele>854</ele>
      </trkpt>
      <trkpt lat="44.58043" lon="5.39815">
        <ele>858</ele>
      </trkpt>
      <trkpt lat="44.58036" lon="5.39791">
        <ele>860</ele>
      </trkpt>
      <trkpt lat="44.58028" lon="5.39785">
        <ele>861</ele>
      </trkpt>
      <trkpt lat="44.58019" lon="5.39785">
        <ele>862</ele>
      </trkpt>
      <trkpt lat="44.58007" lon="5.39792">
        <ele>863</ele>
      </trkpt>
      <trkpt lat="44.57989" lon="5.3981">
        <ele>866</ele>
      </trkpt>
      <trkpt lat="44.57984" lon="5.39819">
        <ele>866</ele>
      </trkpt>
      <trkpt lat="44.57981" lon="5.3983">
        <ele>867</ele>
      </trkpt>
      <trkpt lat="44.57982" lon="5.3985">
        <ele>869</ele>
      </trkpt>
      <trkpt lat="44.57989" lon="5.39907">
        <ele>865</ele>
      </trkpt>
      <trkpt lat="44.57988" lon="5.39918">
        <ele>866</ele>
      </trkpt>
      <trkpt lat="44.57982" lon="5.39925">
        <ele>868</ele>
      </trkpt>
      <trkpt lat="44.57975" lon="5.39929">
        <ele>869</ele>
      </trkpt>
      <trkpt lat="44.57969" lon="5.39928">
        <ele>870</ele>
      </trkpt>
      <trkpt lat="44.57958" lon="5.39923">
        <ele>872</ele>
      </trkpt>
      <trkpt lat="44.57902" lon="5.39848">
        <ele>878</ele>
      </trkpt>
      <trkpt lat="44.57888" lon="5.39839">
        <ele>879</ele>
      </trkpt>
      <trkpt lat="44.57871" lon="5.39839">
        <ele>881</ele>
      </trkpt>
      <trkpt lat="44.57854" lon="5.39848">
        <ele>880</ele>
      </trkpt>
      <trkpt lat="44.57798" lon="5.39894">
        <ele>886</ele>
      </trkpt>
      <trkpt lat="44.57744" lon="5.39954">
        <ele>891</ele>
      </trkpt>
      <trkpt lat="44.57716" lon="5.39996">
        <ele>893</ele>
      </trkpt>
      <trkpt lat="44.57704" lon="5.40037">
        <ele>895</ele>
      </trkpt>
      <trkpt lat="44.57679" lon="5.40063">
        <ele>897</ele>
      </trkpt>
      <trkpt lat="44.5765" lon="5.40076">
        <ele>896</ele>
      </trkpt>
      <trkpt lat="44.576" lon="5.40077">
        <ele>897</ele>
      </trkpt>
      <trkpt lat="44.5751" lon="5.40121">
        <ele>901</ele>
      </trkpt>
      <trkpt lat="44.57402" lon="5.40138">
        <ele>902</ele>
      </trkpt>
      <trkpt lat="44.57376" lon="5.40145">
        <ele>905</ele>
      </trkpt>
      <trkpt lat="44.57321" lon="5.40199">
        <ele>909</ele>
      </trkpt>
      <trkpt lat="44.57219" lon="5.40372">
        <ele>908</ele>
      </trkpt>
      <trkpt lat="44.57201" lon="5.404">
        <ele>910</ele>
      </trkpt>
      <trkpt lat="44.57188" lon="5.40411">
        <ele>911</ele>
      </trkpt>
      <trkpt lat="44.57114" lon="5.40444">
        <ele>907</ele>
      </trkpt>
      <trkpt lat="44.57094" lon="5.40445">
        <ele>906</ele>
      </trkpt>
      <trkpt lat="44.57085" lon="5.40443">
        <ele>906</ele>
      </trkpt>
      <trkpt lat="44.57032" lon="5.40393">
        <ele>908</ele>
      </trkpt>
      <trkpt lat="44.57019" lon="5.40385">
        <ele>908</ele>
      </trkpt>
      <trkpt lat="44.57007" lon="5.4038">
        <ele>907</ele>
      </trkpt>
      <trkpt lat="44.56986" lon="5.40382">
        <ele>904</ele>
      </trkpt>
      <trkpt lat="44.56968" lon="5.40386">
        <ele>902</ele>
      </trkpt>
      <trkpt lat="44.56932" lon="5.40398">
        <ele>896</ele>
      </trkpt>
      <trkpt lat="44.56914" lon="5.40408">
        <ele>894</ele>
      </trkpt>
      <trkpt lat="44.56905" lon="5.40421">
        <ele>894</ele>
      </trkpt>
      <trkpt lat="44.56898" lon="5.40437">
        <ele>896</ele>
      </trkpt>
      <trkpt lat="44.56897" lon="5.40452">
        <ele>896</ele>
      </trkpt>
      <trkpt lat="44.56898" lon="5.40461">
        <ele>900</ele>
      </trkpt>
      <trkpt lat="44.56902" lon="5.40467">
        <ele>900</ele>
      </trkpt>
      <trkpt lat="44.56911" lon="5.40471">
        <ele>898</ele>
      </trkpt>
      <trkpt lat="44.56955" lon="5.40476">
        <ele>895</ele>
      </trkpt>
      <trkpt lat="44.56962" lon="5.40483">
        <ele>894</ele>
      </trkpt>
      <trkpt lat="44.56997" lon="5.40529">
        <ele>889</ele>
      </trkpt>
      <trkpt lat="44.57013" lon="5.40558">
        <ele>889</ele>
      </trkpt>
      <trkpt lat="44.57038" lon="5.40634">
        <ele>886</ele>
      </trkpt>
      <trkpt lat="44.57072" lon="5.40681">
        <ele>880</ele>
      </trkpt>
      <trkpt lat="44.57088" lon="5.40732">
        <ele>877</ele>
      </trkpt>
      <trkpt lat="44.57086" lon="5.40742">
        <ele>875</ele>
      </trkpt>
      <trkpt lat="44.5708" lon="5.40749">
        <ele>875</ele>
      </trkpt>
      <trkpt lat="44.57064" lon="5.40749">
        <ele>879</ele>
      </trkpt>
      <trkpt lat="44.57017" lon="5.40736">
        <ele>884</ele>
      </trkpt>
      <trkpt lat="44.57" lon="5.4072">
        <ele>890</ele>
      </trkpt>
      <trkpt lat="44.56988" lon="5.40714">
        <ele>890</ele>
      </trkpt>
      <trkpt lat="44.56973" lon="5.40711">
        <ele>891</ele>
      </trkpt>
      <trkpt lat="44.56936" lon="5.40718">
        <ele>889</ele>
      </trkpt>
      <trkpt lat="44.56921" lon="5.4073">
        <ele>891</ele>
      </trkpt>
      <trkpt lat="44.56901" lon="5.40778">
        <ele>879</ele>
      </trkpt>
      <trkpt lat="44.56886" lon="5.40799">
        <ele>874</ele>
      </trkpt>
      <trkpt lat="44.56875" lon="5.40809">
        <ele>881</ele>
      </trkpt>
      <trkpt lat="44.56863" lon="5.40812">
        <ele>883</ele>
      </trkpt>
      <trkpt lat="44.56848" lon="5.4081">
        <ele>889</ele>
      </trkpt>
      <trkpt lat="44.56802" lon="5.40789">
        <ele>899</ele>
      </trkpt>
      <trkpt lat="44.56776" lon="5.40784">
        <ele>898</ele>
      </trkpt>
      <trkpt lat="44.56755" lon="5.40782">
        <ele>896</ele>
      </trkpt>
      <trkpt lat="44.56702" lon="5.40785">
        <ele>893</ele>
      </trkpt>
      <trkpt lat="44.56659" lon="5.40795">
        <ele>888</ele>
      </trkpt>
      <trkpt lat="44.56625" lon="5.40799">
        <ele>891</ele>
      </trkpt>
      <trkpt lat="44.56564" lon="5.40811">
        <ele>891</ele>
      </trkpt>
      <trkpt lat="44.56505" lon="5.40789">
        <ele>897</ele>
      </trkpt>
      <trkpt lat="44.56491" lon="5.40789">
        <ele>897</ele>
      </trkpt>
      <trkpt lat="44.56469" lon="5.40792">
        <ele>891</ele>
      </trkpt>
      <trkpt lat="44.56422" lon="5.40814">
        <ele>890</ele>
      </trkpt>
      <trkpt lat="44.56411" lon="5.40823">
        <ele>888</ele>
      </trkpt>
      <trkpt lat="44.56404" lon="5.40836">
        <ele>889</ele>
      </trkpt>
      <trkpt lat="44.56398" lon="5.40844">
        <ele>890</ele>
      </trkpt>
      <trkpt lat="44.5639" lon="5.40845">
        <ele>893</ele>
      </trkpt>
      <trkpt lat="44.56346" lon="5.40829">
        <ele>895</ele>
      </trkpt>
      <trkpt lat="44.56274" lon="5.40797">
        <ele>896</ele>
      </trkpt>
      <trkpt lat="44.56258" lon="5.40793">
        <ele>897</ele>
      </trkpt>
      <trkpt lat="44.56216" lon="5.4079">
        <ele>898</ele>
      </trkpt>
      <trkpt lat="44.5616" lon="5.40778">
        <ele>898</ele>
      </trkpt>
      <trkpt lat="44.56111" lon="5.40765">
        <ele>903</ele>
      </trkpt>
      <trkpt lat="44.56085" lon="5.40762">
        <ele>904</ele>
      </trkpt>
      <trkpt lat="44.5599" lon="5.40757">
        <ele>908</ele>
      </trkpt>
      <trkpt lat="44.55944" lon="5.40751">
        <ele>911</ele>
      </trkpt>
      <trkpt lat="44.55928" lon="5.40752">
        <ele>912</ele>
      </trkpt>
      <trkpt lat="44.55909" lon="5.40759">
        <ele>912</ele>
      </trkpt>
      <trkpt lat="44.55902" lon="5.40763">
        <ele>916</ele>
      </trkpt>
      <trkpt lat="44.5589" lon="5.40775">
        <ele>917</ele>
      </trkpt>
      <trkpt lat="44.55879" lon="5.4079">
        <ele>922</ele>
      </trkpt>
      <trkpt lat="44.55836" lon="5.40835">
        <ele>923</ele>
      </trkpt>
      <trkpt lat="44.55828" lon="5.40846">
        <ele>926</ele>
      </trkpt>
      <trkpt lat="44.55825" lon="5.40856">
        <ele>926</ele>
      </trkpt>
      <trkpt lat="44.55822" lon="5.40866">
        <ele>927</ele>
      </trkpt>
      <trkpt lat="44.55821" lon="5.40875">
        <ele>926</ele>
      </trkpt>
      <trkpt lat="44.55826" lon="5.40936">
        <ele>939</ele>
      </trkpt>
      <trkpt lat="44.55825" lon="5.40966">
        <ele>944</ele>
      </trkpt>
      <trkpt lat="44.55821" lon="5.40994">
        <ele>942</ele>
      </trkpt>
      <trkpt lat="44.55803" lon="5.41083">
        <ele>949</ele>
      </trkpt>
      <trkpt lat="44.55796" lon="5.41095">
        <ele>950</ele>
      </trkpt>
      <trkpt lat="44.55787" lon="5.41103">
        <ele>945</ele>
      </trkpt>
      <trkpt lat="44.55776" lon="5.41105">
        <ele>944</ele>
      </trkpt>
      <trkpt lat="44.55733" lon="5.41098">
        <ele>941</ele>
      </trkpt>
      <trkpt lat="44.55716" lon="5.41098">
        <ele>940</ele>
      </trkpt>
      <trkpt lat="44.55704" lon="5.411">
        <ele>941</ele>
      </trkpt>
      <trkpt lat="44.55689" lon="5.41108">
        <ele>941</ele>
      </trkpt>
      <trkpt lat="44.5562" lon="5.41157">
        <ele>950</ele>
      </trkpt>
      <trkpt lat="44.55608" lon="5.41174">
        <ele>951</ele>
      </trkpt>
      <trkpt lat="44.5558" lon="5.41226">
        <ele>956</ele>
      </trkpt>
      <trkpt lat="44.55564" lon="5.41245">
        <ele>956</ele>
      </trkpt>
      <trkpt lat="44.55539" lon="5.4126">
        <ele>955</ele>
      </trkpt>
      <trkpt lat="44.55526" lon="5.41264">
        <ele>956</ele>
      </trkpt>
      <trkpt lat="44.55513" lon="5.41263">
        <ele>955</ele>
      </trkpt>
      <trkpt lat="44.55498" lon="5.4126">
        <ele>954</ele>
      </trkpt>
      <trkpt lat="44.55491" lon="5.41256">
        <ele>955</ele>
      </trkpt>
      <trkpt lat="44.55452" lon="5.41224">
        <ele>958</ele>
      </trkpt>
      <trkpt lat="44.55438" lon="5.41216">
        <ele>959</ele>
      </trkpt>
      <trkpt lat="44.55413" lon="5.41214">
        <ele>959</ele>
      </trkpt>
      <trkpt lat="44.55401" lon="5.41217">
        <ele>959</ele>
      </trkpt>
      <trkpt lat="44.55371" lon="5.41231">
        <ele>959</ele>
      </trkpt>
      <trkpt lat="44.55187" lon="5.41333">
        <ele>964</ele>
      </trkpt>
      <trkpt lat="44.55172" lon="5.41346">
        <ele>966</ele>
      </trkpt>
      <trkpt lat="44.55152" lon="5.4137">
        <ele>966</ele>
      </trkpt>
      <trkpt lat="44.55134" lon="5.41406">
        <ele>967</ele>
      </trkpt>
      <trkpt lat="44.55108" lon="5.41488">
        <ele>965</ele>
      </trkpt>
      <trkpt lat="44.55097" lon="5.41515">
        <ele>962</ele>
      </trkpt>
      <trkpt lat="44.5509" lon="5.41526">
        <ele>962</ele>
      </trkpt>
      <trkpt lat="44.55078" lon="5.41538">
        <ele>961</ele>
      </trkpt>
      <trkpt lat="44.55068" lon="5.41545">
        <ele>959</ele>
      </trkpt>
      <trkpt lat="44.55036" lon="5.41558">
        <ele>955</ele>
      </trkpt>
      <trkpt lat="44.55002" lon="5.41565">
        <ele>952</ele>
      </trkpt>
      <trkpt lat="44.549" lon="5.41568">
        <ele>946</ele>
      </trkpt>
      <trkpt lat="44.54828" lon="5.41568">
        <ele>941</ele>
      </trkpt>
      <trkpt lat="44.54794" lon="5.41566">
        <ele>936</ele>
      </trkpt>
      <trkpt lat="44.54782" lon="5.41567">
        <ele>934</ele>
      </trkpt>
      <trkpt lat="44.54764" lon="5.41572">
        <ele>936</ele>
      </trkpt>
      <trkpt lat="44.54754" lon="5.41579">
        <ele>937</ele>
      </trkpt>
      <trkpt lat="44.54712" lon="5.41613">
        <ele>938</ele>
      </trkpt>
      <trkpt lat="44.54647" lon="5.41655">
        <ele>932</ele>
      </trkpt>
      <trkpt lat="44.54543" lon="5.4173">
        <ele>924</ele>
      </trkpt>
      <trkpt lat="44.54479" lon="5.41762">
        <ele>918</ele>
      </trkpt>
      <trkpt lat="44.54469" lon="5.41776">
        <ele>918</ele>
      </trkpt>
      <trkpt lat="44.54461" lon="5.41807">
        <ele>923</ele>
      </trkpt>
      <trkpt lat="44.54456" lon="5.41835">
        <ele>920</ele>
      </trkpt>
      <trkpt lat="44.54448" lon="5.41924">
        <ele>925</ele>
      </trkpt>
      <trkpt lat="44.54439" lon="5.41949">
        <ele>924</ele>
      </trkpt>
      <trkpt lat="44.5443" lon="5.41966">
        <ele>916</ele>
      </trkpt>
      <trkpt lat="44.54418" lon="5.41995">
        <ele>915</ele>
      </trkpt>
      <trkpt lat="44.54415" lon="5.42022">
        <ele>914</ele>
      </trkpt>
      <trkpt lat="44.54421" lon="5.42112">
        <ele>909</ele>
      </trkpt>
      <trkpt lat="44.54418" lon="5.42128">
        <ele>909</ele>
      </trkpt>
      <trkpt lat="44.54411" lon="5.42147">
        <ele>909</ele>
      </trkpt>
      <trkpt lat="44.54394" lon="5.42171">
        <ele>904</ele>
      </trkpt>
      <trkpt lat="44.54385" lon="5.4219">
        <ele>908</ele>
      </trkpt>
      <trkpt lat="44.54377" lon="5.42224">
        <ele>912</ele>
      </trkpt>
      <trkpt lat="44.54368" lon="5.42276">
        <ele>910</ele>
      </trkpt>
      <trkpt lat="44.54363" lon="5.42298">
        <ele>911</ele>
      </trkpt>
      <trkpt lat="44.54353" lon="5.42318">
        <ele>910</ele>
      </trkpt>
      <trkpt lat="44.54338" lon="5.42342">
        <ele>899</ele>
      </trkpt>
      <trkpt lat="44.54333" lon="5.42352">
        <ele>899</ele>
      </trkpt>
      <trkpt lat="44.54322" lon="5.42392">
        <ele>898</ele>
      </trkpt>
      <trkpt lat="44.54311" lon="5.42411">
        <ele>892</ele>
      </trkpt>
      <trkpt lat="44.5429" lon="5.42436">
        <ele>889</ele>
      </trkpt>
      <trkpt lat="44.54254" lon="5.4247">
        <ele>891</ele>
      </trkpt>
      <trkpt lat="44.54197" lon="5.42507">
        <ele>885</ele>
      </trkpt>
      <trkpt lat="44.54124" lon="5.4256">
        <ele>877</ele>
      </trkpt>
      <trkpt lat="44.54087" lon="5.42583">
        <ele>878</ele>
      </trkpt>
      <trkpt lat="44.54064" lon="5.42593">
        <ele>877</ele>
      </trkpt>
      <trkpt lat="44.53986" lon="5.42609">
        <ele>871</ele>
      </trkpt>
      <trkpt lat="44.53918" lon="5.42612">
        <ele>865</ele>
      </trkpt>
      <trkpt lat="44.5389" lon="5.42619">
        <ele>864</ele>
      </trkpt>
      <trkpt lat="44.53872" lon="5.42626">
        <ele>865</ele>
      </trkpt>
      <trkpt lat="44.53864" lon="5.42631">
        <ele>865</ele>
      </trkpt>
      <trkpt lat="44.53852" lon="5.42643">
        <ele>866</ele>
      </trkpt>
      <trkpt lat="44.53837" lon="5.42666">
        <ele>865</ele>
      </trkpt>
      <trkpt lat="44.53828" lon="5.42692">
        <ele>868</ele>
      </trkpt>
      <trkpt lat="44.53801" lon="5.4278">
        <ele>859</ele>
      </trkpt>
      <trkpt lat="44.53794" lon="5.4279">
        <ele>856</ele>
      </trkpt>
      <trkpt lat="44.53784" lon="5.42791">
        <ele>854</ele>
      </trkpt>
      <trkpt lat="44.53776" lon="5.42787">
        <ele>855</ele>
      </trkpt>
      <trkpt lat="44.53765" lon="5.42781">
        <ele>854</ele>
      </trkpt>
      <trkpt lat="44.53758" lon="5.42777">
        <ele>853</ele>
      </trkpt>
      <trkpt lat="44.5375" lon="5.42779">
        <ele>852</ele>
      </trkpt>
      <trkpt lat="44.5373" lon="5.428">
        <ele>850</ele>
      </trkpt>
      <trkpt lat="44.53717" lon="5.42811">
        <ele>850</ele>
      </trkpt>
      <trkpt lat="44.53651" lon="5.42837">
        <ele>850</ele>
      </trkpt>
      <trkpt lat="44.53569" lon="5.42877">
        <ele>842</ele>
      </trkpt>
      <trkpt lat="44.53545" lon="5.42885">
        <ele>842</ele>
      </trkpt>
      <trkpt lat="44.53509" lon="5.42889">
        <ele>844</ele>
      </trkpt>
      <trkpt lat="44.53477" lon="5.42906">
        <ele>843</ele>
      </trkpt>
      <trkpt lat="44.53453" lon="5.42925">
        <ele>847</ele>
      </trkpt>
      <trkpt lat="44.53406" lon="5.42969">
        <ele>843</ele>
      </trkpt>
      <trkpt lat="44.53386" lon="5.42991">
        <ele>840</ele>
      </trkpt>
      <trkpt lat="44.5332" lon="5.43074">
        <ele>835</ele>
      </trkpt>
      <trkpt lat="44.53309" lon="5.43085">
        <ele>835</ele>
      </trkpt>
      <trkpt lat="44.53268" lon="5.43114">
        <ele>834</ele>
      </trkpt>
      <trkpt lat="44.53248" lon="5.43125">
        <ele>831</ele>
      </trkpt>
      <trkpt lat="44.53178" lon="5.43159">
        <ele>833</ele>
      </trkpt>
      <trkpt lat="44.53136" lon="5.43177">
        <ele>834</ele>
      </trkpt>
      <trkpt lat="44.53047" lon="5.43194">
        <ele>833</ele>
      </trkpt>
      <trkpt lat="44.5299" lon="5.43212">
        <ele>828</ele>
      </trkpt>
      <trkpt lat="44.52875" lon="5.43229">
        <ele>830</ele>
      </trkpt>
      <trkpt lat="44.52852" lon="5.43229">
        <ele>830</ele>
      </trkpt>
      <trkpt lat="44.52764" lon="5.43216">
        <ele>828</ele>
      </trkpt>
      <trkpt lat="44.52747" lon="5.4321">
        <ele>828</ele>
      </trkpt>
      <trkpt lat="44.52699" lon="5.43183">
        <ele>830</ele>
      </trkpt>
      <trkpt lat="44.5268" lon="5.43176">
        <ele>832</ele>
      </trkpt>
      <trkpt lat="44.5261" lon="5.43155">
        <ele>826</ele>
      </trkpt>
      <trkpt lat="44.52508" lon="5.43112">
        <ele>822</ele>
      </trkpt>
      <trkpt lat="44.5247" lon="5.43092">
        <ele>824</ele>
      </trkpt>
      <trkpt lat="44.52427" lon="5.43065">
        <ele>825</ele>
      </trkpt>
      <trkpt lat="44.52409" lon="5.43057">
        <ele>825</ele>
      </trkpt>
      <trkpt lat="44.5239" lon="5.43051">
        <ele>820</ele>
      </trkpt>
      <trkpt lat="44.52363" lon="5.43045">
        <ele>818</ele>
      </trkpt>
      <trkpt lat="44.52335" lon="5.43047">
        <ele>817</ele>
      </trkpt>
      <trkpt lat="44.52296" lon="5.43059">
        <ele>817</ele>
      </trkpt>
      <trkpt lat="44.52226" lon="5.43089">
        <ele>814</ele>
      </trkpt>
      <trkpt lat="44.52002" lon="5.43208">
        <ele>808</ele>
      </trkpt>
      <trkpt lat="44.51951" lon="5.43239">
        <ele>807</ele>
      </trkpt>
      <trkpt lat="44.51913" lon="5.43269">
        <ele>803</ele>
      </trkpt>
      <trkpt lat="44.51895" lon="5.43279">
        <ele>803</ele>
      </trkpt>
      <trkpt lat="44.51887" lon="5.4328">
        <ele>803</ele>
      </trkpt>
      <trkpt lat="44.51868" lon="5.43278">
        <ele>802</ele>
      </trkpt>
      <trkpt lat="44.51819" lon="5.43259">
        <ele>806</ele>
      </trkpt>
      <trkpt lat="44.51792" lon="5.43252">
        <ele>806</ele>
      </trkpt>
      <trkpt lat="44.51736" lon="5.43247">
        <ele>802</ele>
      </trkpt>
      <trkpt lat="44.5169" lon="5.43232">
        <ele>808</ele>
      </trkpt>
      <trkpt lat="44.51654" lon="5.43216">
        <ele>805</ele>
      </trkpt>
      <trkpt lat="44.51621" lon="5.43201">
        <ele>799</ele>
      </trkpt>
      <trkpt lat="44.51602" lon="5.43195">
        <ele>798</ele>
      </trkpt>
      <trkpt lat="44.51594" lon="5.43194">
        <ele>796</ele>
      </trkpt>
      <trkpt lat="44.5158" lon="5.43199">
        <ele>796</ele>
      </trkpt>
      <trkpt lat="44.51549" lon="5.43225">
        <ele>795</ele>
      </trkpt>
      <trkpt lat="44.51519" lon="5.43246">
        <ele>795</ele>
      </trkpt>
      <trkpt lat="44.51446" lon="5.43286">
        <ele>798</ele>
      </trkpt>
      <trkpt lat="44.51409" lon="5.43313">
        <ele>793</ele>
      </trkpt>
      <trkpt lat="44.51391" lon="5.43321">
        <ele>790</ele>
      </trkpt>
      <trkpt lat="44.51251" lon="5.43359">
        <ele>789</ele>
      </trkpt>
      <trkpt lat="44.51231" lon="5.43373">
        <ele>791</ele>
      </trkpt>
      <trkpt lat="44.51188" lon="5.43408">
        <ele>787</ele>
      </trkpt>
      <trkpt lat="44.51154" lon="5.43441">
        <ele>785</ele>
      </trkpt>
      <trkpt lat="44.51124" lon="5.43474">
        <ele>786</ele>
      </trkpt>
      <trkpt lat="44.51109" lon="5.43493">
        <ele>783</ele>
      </trkpt>
      <trkpt lat="44.51093" lon="5.43523">
        <ele>784</ele>
      </trkpt>
      <trkpt lat="44.51085" lon="5.43544">
        <ele>782</ele>
      </trkpt>
      <trkpt lat="44.51068" lon="5.43595">
        <ele>783</ele>
      </trkpt>
      <trkpt lat="44.51057" lon="5.43649">
        <ele>782</ele>
      </trkpt>
      <trkpt lat="44.51049" lon="5.43693">
        <ele>780</ele>
      </trkpt>
      <trkpt lat="44.5104" lon="5.43723">
        <ele>780</ele>
      </trkpt>
      <trkpt lat="44.51032" lon="5.43738">
        <ele>779</ele>
      </trkpt>
      <trkpt lat="44.51014" lon="5.43759">
        <ele>778</ele>
      </trkpt>
      <trkpt lat="44.51004" lon="5.43766">
        <ele>777</ele>
      </trkpt>
      <trkpt lat="44.50992" lon="5.43771">
        <ele>776</ele>
      </trkpt>
      <trkpt lat="44.50971" lon="5.43777">
        <ele>776</ele>
      </trkpt>
      <trkpt lat="44.50898" lon="5.43783">
        <ele>775</ele>
      </trkpt>
      <trkpt lat="44.50838" lon="5.43796">
        <ele>774</ele>
      </trkpt>
      <trkpt lat="44.50754" lon="5.43839">
        <ele>772</ele>
      </trkpt>
      <trkpt lat="44.50719" lon="5.43848">
        <ele>772</ele>
      </trkpt>
      <trkpt lat="44.50671" lon="5.43849">
        <ele>773</ele>
      </trkpt>
      <trkpt lat="44.50553" lon="5.43814">
        <ele>772</ele>
      </trkpt>
      <trkpt lat="44.50545" lon="5.43814">
        <ele>772</ele>
      </trkpt>
      <trkpt lat="44.50508" lon="5.43825">
        <ele>770</ele>
      </trkpt>
      <trkpt lat="44.50464" lon="5.43824">
        <ele>769</ele>
      </trkpt>
      <trkpt lat="44.50445" lon="5.43829">
        <ele>768</ele>
      </trkpt>
      <trkpt lat="44.50426" lon="5.43843">
        <ele>769</ele>
      </trkpt>
      <trkpt lat="44.50332" lon="5.43995">
        <ele>764</ele>
      </trkpt>
      <trkpt lat="44.50317" lon="5.4402">
        <ele>763</ele>
      </trkpt>
      <trkpt lat="44.50303" lon="5.44048">
        <ele>765</ele>
      </trkpt>
      <trkpt lat="44.50284" lon="5.44076">
        <ele>767</ele>
      </trkpt>
      <trkpt lat="44.5023" lon="5.44111">
        <ele>769</ele>
      </trkpt>
      <trkpt lat="44.50183" lon="5.44135">
        <ele>772</ele>
      </trkpt>
      <trkpt lat="44.5016" lon="5.44142">
        <ele>769</ele>
      </trkpt>
      <trkpt lat="44.50125" lon="5.44143">
        <ele>765</ele>
      </trkpt>
      <trkpt lat="44.50113" lon="5.44146">
        <ele>765</ele>
      </trkpt>
      <trkpt lat="44.50089" lon="5.44157">
        <ele>767</ele>
      </trkpt>
      <trkpt lat="44.50017" lon="5.44197">
        <ele>765</ele>
      </trkpt>
      <trkpt lat="44.49967" lon="5.44211">
        <ele>765</ele>
      </trkpt>
      <trkpt lat="44.49955" lon="5.44217">
        <ele>762</ele>
      </trkpt>
      <trkpt lat="44.49945" lon="5.44226">
        <ele>762</ele>
      </trkpt>
      <trkpt lat="44.49936" lon="5.44238">
        <ele>765</ele>
      </trkpt>
      <trkpt lat="44.4992" lon="5.44264">
        <ele>765</ele>
      </trkpt>
      <trkpt lat="44.49911" lon="5.44275">
        <ele>766</ele>
      </trkpt>
      <trkpt lat="44.49901" lon="5.44285">
        <ele>765</ele>
      </trkpt>
      <trkpt lat="44.49889" lon="5.44292">
        <ele>771</ele>
      </trkpt>
      <trkpt lat="44.49876" lon="5.44295">
        <ele>772</ele>
      </trkpt>
      <trkpt lat="44.49833" lon="5.44291">
        <ele>771</ele>
      </trkpt>
      <trkpt lat="44.49817" lon="5.44291">
        <ele>769</ele>
      </trkpt>
      <trkpt lat="44.49771" lon="5.44298">
        <ele>764</ele>
      </trkpt>
      <trkpt lat="44.49757" lon="5.44298">
        <ele>762</ele>
      </trkpt>
      <trkpt lat="44.49718" lon="5.44289">
        <ele>757</ele>
      </trkpt>
      <trkpt lat="44.49705" lon="5.4429">
        <ele>755</ele>
      </trkpt>
      <trkpt lat="44.49693" lon="5.44295">
        <ele>756</ele>
      </trkpt>
      <trkpt lat="44.49682" lon="5.44305">
        <ele>756</ele>
      </trkpt>
      <trkpt lat="44.49628" lon="5.44376">
        <ele>764</ele>
      </trkpt>
      <trkpt lat="44.4959" lon="5.44402">
        <ele>765</ele>
      </trkpt>
      <trkpt lat="44.49579" lon="5.44414">
        <ele>767</ele>
      </trkpt>
      <trkpt lat="44.49543" lon="5.44454">
        <ele>767</ele>
      </trkpt>
      <trkpt lat="44.49529" lon="5.44466">
        <ele>766</ele>
      </trkpt>
      <trkpt lat="44.49487" lon="5.44489">
        <ele>766</ele>
      </trkpt>
      <trkpt lat="44.4946" lon="5.44502">
        <ele>765</ele>
      </trkpt>
      <trkpt lat="44.49446" lon="5.44505">
        <ele>765</ele>
      </trkpt>
      <trkpt lat="44.49432" lon="5.44504">
        <ele>765</ele>
      </trkpt>
      <trkpt lat="44.49361" lon="5.44486">
        <ele>761</ele>
      </trkpt>
      <trkpt lat="44.49262" lon="5.44444">
        <ele>757</ele>
      </trkpt>
      <trkpt lat="44.49234" lon="5.44429">
        <ele>753</ele>
      </trkpt>
      <trkpt lat="44.49221" lon="5.44419">
        <ele>752</ele>
      </trkpt>
      <trkpt lat="44.49198" lon="5.44391">
        <ele>749</ele>
      </trkpt>
      <trkpt lat="44.49188" lon="5.44376">
        <ele>748</ele>
      </trkpt>
      <trkpt lat="44.49162" lon="5.44332">
        <ele>741</ele>
      </trkpt>
      <trkpt lat="44.49152" lon="5.44321">
        <ele>743</ele>
      </trkpt>
      <trkpt lat="44.4914" lon="5.44313">
        <ele>740</ele>
      </trkpt>
      <trkpt lat="44.49128" lon="5.4431">
        <ele>740</ele>
      </trkpt>
      <trkpt lat="44.49115" lon="5.44311">
        <ele>742</ele>
      </trkpt>
      <trkpt lat="44.49062" lon="5.44322">
        <ele>745</ele>
      </trkpt>
      <trkpt lat="44.49035" lon="5.44321">
        <ele>742</ele>
      </trkpt>
      <trkpt lat="44.48981" lon="5.44313">
        <ele>738</ele>
      </trkpt>
      <trkpt lat="44.48967" lon="5.44315">
        <ele>738</ele>
      </trkpt>
      <trkpt lat="44.48953" lon="5.44319">
        <ele>741</ele>
      </trkpt>
      <trkpt lat="44.48938" lon="5.44326">
        <ele>741</ele>
      </trkpt>
      <trkpt lat="44.48913" lon="5.44346">
        <ele>741</ele>
      </trkpt>
      <trkpt lat="44.48889" lon="5.4437">
        <ele>737</ele>
      </trkpt>
      <trkpt lat="44.48854" lon="5.44402">
        <ele>738</ele>
      </trkpt>
      <trkpt lat="44.48843" lon="5.44414">
        <ele>734</ele>
      </trkpt>
      <trkpt lat="44.48816" lon="5.44459">
        <ele>731</ele>
      </trkpt>
      <trkpt lat="44.48774" lon="5.44515">
        <ele>730</ele>
      </trkpt>
      <trkpt lat="44.48765" lon="5.44532">
        <ele>730</ele>
      </trkpt>
      <trkpt lat="44.48743" lon="5.44584">
        <ele>730</ele>
      </trkpt>
      <trkpt lat="44.48734" lon="5.446">
        <ele>728</ele>
      </trkpt>
      <trkpt lat="44.48711" lon="5.44623">
        <ele>726</ele>
      </trkpt>
      <trkpt lat="44.48651" lon="5.44673">
        <ele>714</ele>
      </trkpt>
      <trkpt lat="44.48606" lon="5.4472">
        <ele>718</ele>
      </trkpt>
      <trkpt lat="44.48577" lon="5.44762">
        <ele>717</ele>
      </trkpt>
      <trkpt lat="44.48546" lon="5.44817">
        <ele>722</ele>
      </trkpt>
      <trkpt lat="44.48537" lon="5.44826">
        <ele>721</ele>
      </trkpt>
      <trkpt lat="44.48528" lon="5.44831">
        <ele>720</ele>
      </trkpt>
      <trkpt lat="44.48517" lon="5.44831">
        <ele>719</ele>
      </trkpt>
      <trkpt lat="44.48482" lon="5.44823">
        <ele>709</ele>
      </trkpt>
      <trkpt lat="44.48418" lon="5.44813">
        <ele>698</ele>
      </trkpt>
      <trkpt lat="44.48391" lon="5.44815">
        <ele>696</ele>
      </trkpt>
      <trkpt lat="44.48363" lon="5.44826">
        <ele>697</ele>
      </trkpt>
      <trkpt lat="44.48349" lon="5.44833">
        <ele>698</ele>
      </trkpt>
      <trkpt lat="44.48298" lon="5.44871">
        <ele>695</ele>
      </trkpt>
      <trkpt lat="44.48285" lon="5.44875">
        <ele>695</ele>
      </trkpt>
      <trkpt lat="44.48273" lon="5.44876">
        <ele>693</ele>
      </trkpt>
      <trkpt lat="44.48247" lon="5.44872">
        <ele>682</ele>
      </trkpt>
      <trkpt lat="44.48234" lon="5.44872">
        <ele>680</ele>
      </trkpt>
      <trkpt lat="44.48222" lon="5.44875">
        <ele>683</ele>
      </trkpt>
      <trkpt lat="44.4821" lon="5.44882">
        <ele>684</ele>
      </trkpt>
      <trkpt lat="44.48199" lon="5.44892">
        <ele>680</ele>
      </trkpt>
      <trkpt lat="44.48189" lon="5.44905">
        <ele>685</ele>
      </trkpt>
      <trkpt lat="44.48181" lon="5.44921">
        <ele>685</ele>
      </trkpt>
      <trkpt lat="44.4816" lon="5.44973">
        <ele>682</ele>
      </trkpt>
      <trkpt lat="44.4812" lon="5.45041">
        <ele>671</ele>
      </trkpt>
      <trkpt lat="44.48088" lon="5.45088">
        <ele>666</ele>
      </trkpt>
      <trkpt lat="44.48065" lon="5.45116">
        <ele>665</ele>
      </trkpt>
      <trkpt lat="44.48053" lon="5.45128">
        <ele>668</ele>
      </trkpt>
      <trkpt lat="44.48024" lon="5.45144">
        <ele>660</ele>
      </trkpt>
      <trkpt lat="44.48009" lon="5.45148">
        <ele>658</ele>
      </trkpt>
      <trkpt lat="44.47948" lon="5.4515">
        <ele>658</ele>
      </trkpt>
      <trkpt lat="44.47935" lon="5.45155">
        <ele>659</ele>
      </trkpt>
      <trkpt lat="44.47924" lon="5.45163">
        <ele>655</ele>
      </trkpt>
      <trkpt lat="44.47899" lon="5.45197">
        <ele>654</ele>
      </trkpt>
      <trkpt lat="44.47893" lon="5.45203">
        <ele>653</ele>
      </trkpt>
      <trkpt lat="44.47859" lon="5.45219">
        <ele>652</ele>
      </trkpt>
      <trkpt lat="44.47837" lon="5.45221">
        <ele>651</ele>
      </trkpt>
      <trkpt lat="44.4777" lon="5.45208">
        <ele>652</ele>
      </trkpt>
      <trkpt lat="44.47756" lon="5.45209">
        <ele>652</ele>
      </trkpt>
      <trkpt lat="44.47746" lon="5.45212">
        <ele>651</ele>
      </trkpt>
      <trkpt lat="44.47711" lon="5.45245">
        <ele>650</ele>
      </trkpt>
      <trkpt lat="44.47678" lon="5.45265">
        <ele>649</ele>
      </trkpt>
      <trkpt lat="44.47656" lon="5.45286">
        <ele>647</ele>
      </trkpt>
      <trkpt lat="44.47635" lon="5.45313">
        <ele>644</ele>
      </trkpt>
      <trkpt lat="44.47616" lon="5.45343">
        <ele>640</ele>
      </trkpt>
      <trkpt lat="44.47554" lon="5.45452">
        <ele>634</ele>
      </trkpt>
      <trkpt lat="44.47545" lon="5.45465">
        <ele>634</ele>
      </trkpt>
      <trkpt lat="44.47534" lon="5.45475">
        <ele>629</ele>
      </trkpt>
      <trkpt lat="44.47521" lon="5.45479">
        <ele>629</ele>
      </trkpt>
      <trkpt lat="44.47508" lon="5.4548">
        <ele>626</ele>
      </trkpt>
      <trkpt lat="44.47495" lon="5.45476">
        <ele>626</ele>
      </trkpt>
      <trkpt lat="44.4743" lon="5.45439">
        <ele>623</ele>
      </trkpt>
      <trkpt lat="44.47405" lon="5.45423">
        <ele>621</ele>
      </trkpt>
      <trkpt lat="44.47381" lon="5.454">
        <ele>619</ele>
      </trkpt>
      <trkpt lat="44.47371" lon="5.45386">
        <ele>619</ele>
      </trkpt>
      <trkpt lat="44.47348" lon="5.45338">
        <ele>618</ele>
      </trkpt>
      <trkpt lat="44.4734" lon="5.45324">
        <ele>618</ele>
      </trkpt>
      <trkpt lat="44.47329" lon="5.45312">
        <ele>619</ele>
      </trkpt>
      <trkpt lat="44.47318" lon="5.45303">
        <ele>619</ele>
      </trkpt>
      <trkpt lat="44.47294" lon="5.45289">
        <ele>619</ele>
      </trkpt>
      <trkpt lat="44.47252" lon="5.45277">
        <ele>619</ele>
      </trkpt>
      <trkpt lat="44.47241" lon="5.45269">
        <ele>619</ele>
      </trkpt>
      <trkpt lat="44.47214" lon="5.45243">
        <ele>618</ele>
      </trkpt>
      <trkpt lat="44.47141" lon="5.45168">
        <ele>617</ele>
      </trkpt>
      <trkpt lat="44.47133" lon="5.45156">
        <ele>617</ele>
      </trkpt>
      <trkpt lat="44.47121" lon="5.45126">
        <ele>619</ele>
      </trkpt>
      <trkpt lat="44.47071" lon="5.4496">
        <ele>612</ele>
      </trkpt>
      <trkpt lat="44.47053" lon="5.44908">
        <ele>612</ele>
      </trkpt>
      <trkpt lat="44.4704" lon="5.44867">
        <ele>612</ele>
      </trkpt>
      <trkpt lat="44.47033" lon="5.44833">
        <ele>612</ele>
      </trkpt>
      <trkpt lat="44.47016" lon="5.44633">
        <ele>613</ele>
      </trkpt>
      <trkpt lat="44.47009" lon="5.44586">
        <ele>611</ele>
      </trkpt>
      <trkpt lat="44.46996" lon="5.44534">
        <ele>609</ele>
      </trkpt>
      <trkpt lat="44.46978" lon="5.44476">
        <ele>610</ele>
      </trkpt>
      <trkpt lat="44.4696" lon="5.44445">
        <ele>611</ele>
      </trkpt>
      <trkpt lat="44.46941" lon="5.44423">
        <ele>611</ele>
      </trkpt>
      <trkpt lat="44.46928" lon="5.44413">
        <ele>611</ele>
      </trkpt>
      <trkpt lat="44.46903" lon="5.44401">
        <ele>613</ele>
      </trkpt>
      <trkpt lat="44.46865" lon="5.44388">
        <ele>614</ele>
      </trkpt>
      <trkpt lat="44.46844" lon="5.44376">
        <ele>614</ele>
      </trkpt>
      <trkpt lat="44.46826" lon="5.44363">
        <ele>618</ele>
      </trkpt>
      <trkpt lat="44.46809" lon="5.44343">
        <ele>619</ele>
      </trkpt>
      <trkpt lat="44.46772" lon="5.44281">
        <ele>624</ele>
      </trkpt>
      <trkpt lat="44.46741" lon="5.44236">
        <ele>623</ele>
      </trkpt>
      <trkpt lat="44.46721" lon="5.44203">
        <ele>624</ele>
      </trkpt>
      <trkpt lat="44.46706" lon="5.44163">
        <ele>620</ele>
      </trkpt>
      <trkpt lat="44.46653" lon="5.43984">
        <ele>625</ele>
      </trkpt>
      <trkpt lat="44.46646" lon="5.43966">
        <ele>619</ele>
      </trkpt>
      <trkpt lat="44.46637" lon="5.4395">
        <ele>622</ele>
      </trkpt>
      <trkpt lat="44.46608" lon="5.43905">
        <ele>620</ele>
      </trkpt>
      <trkpt lat="44.46601" lon="5.43886">
        <ele>624</ele>
      </trkpt>
      <trkpt lat="44.46591" lon="5.43842">
        <ele>620</ele>
      </trkpt>
      <trkpt lat="44.46588" lon="5.43819">
        <ele>619</ele>
      </trkpt>
      <trkpt lat="44.46586" lon="5.43771">
        <ele>616</ele>
      </trkpt>
      <trkpt lat="44.46589" lon="5.43725">
        <ele>614</ele>
      </trkpt>
      <trkpt lat="44.46597" lon="5.4368">
        <ele>621</ele>
      </trkpt>
      <trkpt lat="44.46609" lon="5.43637">
        <ele>619</ele>
      </trkpt>
      <trkpt lat="44.46613" lon="5.43616">
        <ele>618</ele>
      </trkpt>
      <trkpt lat="44.46615" lon="5.43594">
        <ele>617</ele>
      </trkpt>
      <trkpt lat="44.46615" lon="5.4355">
        <ele>615</ele>
      </trkpt>
      <trkpt lat="44.46616" lon="5.43529">
        <ele>613</ele>
      </trkpt>
      <trkpt lat="44.4662" lon="5.43508">
        <ele>612</ele>
      </trkpt>
      <trkpt lat="44.46627" lon="5.43488">
        <ele>621</ele>
      </trkpt>
      <trkpt lat="44.4666" lon="5.43414">
        <ele>618</ele>
      </trkpt>
      <trkpt lat="44.46667" lon="5.43396">
        <ele>613</ele>
      </trkpt>
      <trkpt lat="44.46672" lon="5.43376">
        <ele>612</ele>
      </trkpt>
      <trkpt lat="44.46674" lon="5.43356">
        <ele>608</ele>
      </trkpt>
      <trkpt lat="44.46675" lon="5.43337">
        <ele>606</ele>
      </trkpt>
      <trkpt lat="44.46672" lon="5.43319">
        <ele>606</ele>
      </trkpt>
      <trkpt lat="44.46667" lon="5.43303">
        <ele>607</ele>
      </trkpt>
      <trkpt lat="44.46632" lon="5.43243">
        <ele>606</ele>
      </trkpt>
      <trkpt lat="44.46617" lon="5.43207">
        <ele>604</ele>
      </trkpt>
      <trkpt lat="44.46605" lon="5.43167">
        <ele>608</ele>
      </trkpt>
      <trkpt lat="44.466" lon="5.43147">
        <ele>610</ele>
      </trkpt>
      <trkpt lat="44.46596" lon="5.43106">
        <ele>606</ele>
      </trkpt>
      <trkpt lat="44.46598" lon="5.43063">
        <ele>614</ele>
      </trkpt>
      <trkpt lat="44.46619" lon="5.42938">
        <ele>611</ele>
      </trkpt>
      <trkpt lat="44.46642" lon="5.42775">
        <ele>607</ele>
      </trkpt>
      <trkpt lat="44.46647" lon="5.42722">
        <ele>606</ele>
      </trkpt>
      <trkpt lat="44.46648" lon="5.42622">
        <ele>602</ele>
      </trkpt>
      <trkpt lat="44.4665" lon="5.42598">
        <ele>602</ele>
      </trkpt>
      <trkpt lat="44.46655" lon="5.42575">
        <ele>608</ele>
      </trkpt>
      <trkpt lat="44.46663" lon="5.42553">
        <ele>606</ele>
      </trkpt>
      <trkpt lat="44.46684" lon="5.42512">
        <ele>612</ele>
      </trkpt>
      <trkpt lat="44.46693" lon="5.42491">
        <ele>609</ele>
      </trkpt>
      <trkpt lat="44.46706" lon="5.42443">
        <ele>605</ele>
      </trkpt>
      <trkpt lat="44.46746" lon="5.42275">
        <ele>606</ele>
      </trkpt>
      <trkpt lat="44.46753" lon="5.42253">
        <ele>603</ele>
      </trkpt>
      <trkpt lat="44.46771" lon="5.42212">
        <ele>606</ele>
      </trkpt>
      <trkpt lat="44.46781" lon="5.42194">
        <ele>600</ele>
      </trkpt>
      <trkpt lat="44.46793" lon="5.42177">
        <ele>597</ele>
      </trkpt>
      <trkpt lat="44.46807" lon="5.42164">
        <ele>596</ele>
      </trkpt>
      <trkpt lat="44.46849" lon="5.4213">
        <ele>594</ele>
      </trkpt>
      <trkpt lat="44.46862" lon="5.42117">
        <ele>589</ele>
      </trkpt>
      <trkpt lat="44.46881" lon="5.42088">
        <ele>585</ele>
      </trkpt>
      <trkpt lat="44.46891" lon="5.42076">
        <ele>584</ele>
      </trkpt>
      <trkpt lat="44.46904" lon="5.42067">
        <ele>582</ele>
      </trkpt>
      <trkpt lat="44.46963" lon="5.4206">
        <ele>584</ele>
      </trkpt>
      <trkpt lat="44.46978" lon="5.42052">
        <ele>584</ele>
      </trkpt>
      <trkpt lat="44.46992" lon="5.42041">
        <ele>585</ele>
      </trkpt>
      <trkpt lat="44.47227" lon="5.41846">
        <ele>583</ele>
      </trkpt>
      <trkpt lat="44.47266" lon="5.41812">
        <ele>587</ele>
      </trkpt>
      <trkpt lat="44.47278" lon="5.41799">
        <ele>588</ele>
      </trkpt>
      <trkpt lat="44.47289" lon="5.41785">
        <ele>590</ele>
      </trkpt>
      <trkpt lat="44.47295" lon="5.41771">
        <ele>596</ele>
      </trkpt>
      <trkpt lat="44.47301" lon="5.41755">
        <ele>596</ele>
      </trkpt>
      <trkpt lat="44.47326" lon="5.4154">
        <ele>585</ele>
      </trkpt>
      <trkpt lat="44.4733" lon="5.41524">
        <ele>583</ele>
      </trkpt>
      <trkpt lat="44.47475" lon="5.41125">
        <ele>583</ele>
      </trkpt>
      <trkpt lat="44.47479" lon="5.41104">
        <ele>582</ele>
      </trkpt>
      <trkpt lat="44.47483" lon="5.41076">
        <ele>582</ele>
      </trkpt>
      <trkpt lat="44.47486" lon="5.41026">
        <ele>590</ele>
      </trkpt>
      <trkpt lat="44.47489" lon="5.40941">
        <ele>581</ele>
      </trkpt>
      <trkpt lat="44.47493" lon="5.40924">
        <ele>577</ele>
      </trkpt>
      <trkpt lat="44.47501" lon="5.40907">
        <ele>576</ele>
      </trkpt>
      <trkpt lat="44.47513" lon="5.40897">
        <ele>574</ele>
      </trkpt>
      <trkpt lat="44.47539" lon="5.4088">
        <ele>577</ele>
      </trkpt>
      <trkpt lat="44.47551" lon="5.40867">
        <ele>577</ele>
      </trkpt>
      <trkpt lat="44.47563" lon="5.40852">
        <ele>577</ele>
      </trkpt>
      <trkpt lat="44.47675" lon="5.40661">
        <ele>573</ele>
      </trkpt>
      <trkpt lat="44.47754" lon="5.4052">
        <ele>573</ele>
      </trkpt>
      <trkpt lat="44.4777" lon="5.40485">
        <ele>574</ele>
      </trkpt>
      <trkpt lat="44.47778" lon="5.40461">
        <ele>573</ele>
      </trkpt>
      <trkpt lat="44.47816" lon="5.40323">
        <ele>571</ele>
      </trkpt>
      <trkpt lat="44.47824" lon="5.40303">
        <ele>570</ele>
      </trkpt>
      <trkpt lat="44.47836" lon="5.40289">
        <ele>570</ele>
      </trkpt>
      <trkpt lat="44.47845" lon="5.40282">
        <ele>569</ele>
      </trkpt>
      <trkpt lat="44.47876" lon="5.40269">
        <ele>571</ele>
      </trkpt>
      <trkpt lat="44.4789" lon="5.40259">
        <ele>570</ele>
      </trkpt>
      <trkpt lat="44.47904" lon="5.40247">
        <ele>571</ele>
      </trkpt>
      <trkpt lat="44.47917" lon="5.4023">
        <ele>570</ele>
      </trkpt>
      <trkpt lat="44.47929" lon="5.4021">
        <ele>571</ele>
      </trkpt>
      <trkpt lat="44.47949" lon="5.40163">
        <ele>571</ele>
      </trkpt>
      <trkpt lat="44.48043" lon="5.39906">
        <ele>575</ele>
      </trkpt>
      <trkpt lat="44.4805" lon="5.39884">
        <ele>574</ele>
      </trkpt>
      <trkpt lat="44.48054" lon="5.39861">
        <ele>574</ele>
      </trkpt>
      <trkpt lat="44.48056" lon="5.39836">
        <ele>574</ele>
      </trkpt>
      <trkpt lat="44.48055" lon="5.39677">
        <ele>570</ele>
      </trkpt>
      <trkpt lat="44.48056" lon="5.39642">
        <ele>570</ele>
      </trkpt>
      <trkpt lat="44.48058" lon="5.39565">
        <ele>569</ele>
      </trkpt>
      <trkpt lat="44.48063" lon="5.39529">
        <ele>569</ele>
      </trkpt>
      <trkpt lat="44.48068" lon="5.39511">
        <ele>569</ele>
      </trkpt>
      <trkpt lat="44.48078" lon="5.39488">
        <ele>570</ele>
      </trkpt>
      <trkpt lat="44.48094" lon="5.39456">
        <ele>568</ele>
      </trkpt>
      <trkpt lat="44.48116" lon="5.39417">
        <ele>567</ele>
      </trkpt>
      <trkpt lat="44.48141" lon="5.39381">
        <ele>566</ele>
      </trkpt>
      <trkpt lat="44.48155" lon="5.39365">
        <ele>565</ele>
      </trkpt>
      <trkpt lat="44.48245" lon="5.39274">
        <ele>559</ele>
      </trkpt>
      <trkpt lat="44.48275" lon="5.39247">
        <ele>556</ele>
      </trkpt>
      <trkpt lat="44.48305" lon="5.39234">
        <ele>558</ele>
      </trkpt>
      <trkpt lat="44.48319" lon="5.39223">
        <ele>560</ele>
      </trkpt>
      <trkpt lat="44.48332" lon="5.39208">
        <ele>561</ele>
      </trkpt>
      <trkpt lat="44.48344" lon="5.39189">
        <ele>559</ele>
      </trkpt>
      <trkpt lat="44.48353" lon="5.39167">
        <ele>560</ele>
      </trkpt>
      <trkpt lat="44.48376" lon="5.39093">
        <ele>557</ele>
      </trkpt>
      <trkpt lat="44.48396" lon="5.39022">
        <ele>554</ele>
      </trkpt>
      <trkpt lat="44.48408" lon="5.38986">
        <ele>554</ele>
      </trkpt>
      <trkpt lat="44.4842" lon="5.38966">
        <ele>552</ele>
      </trkpt>
      <trkpt lat="44.48428" lon="5.38959">
        <ele>552</ele>
      </trkpt>
      <trkpt lat="44.48443" lon="5.38953">
        <ele>553</ele>
      </trkpt>
      <trkpt lat="44.48469" lon="5.3895">
        <ele>556</ele>
      </trkpt>
      <trkpt lat="44.48486" lon="5.38945">
        <ele>560</ele>
      </trkpt>
      <trkpt lat="44.48497" lon="5.38937">
        <ele>561</ele>
      </trkpt>
      <trkpt lat="44.48512" lon="5.38915">
        <ele>559</ele>
      </trkpt>
      <trkpt lat="44.48518" lon="5.38895">
        <ele>562</ele>
      </trkpt>
      <trkpt lat="44.48521" lon="5.38874">
        <ele>561</ele>
      </trkpt>
      <trkpt lat="44.48522" lon="5.38836">
        <ele>560</ele>
      </trkpt>
      <trkpt lat="44.48525" lon="5.38809">
        <ele>560</ele>
      </trkpt>
      <trkpt lat="44.48534" lon="5.3877">
        <ele>560</ele>
      </trkpt>
      <trkpt lat="44.48536" lon="5.38748">
        <ele>559</ele>
      </trkpt>
      <trkpt lat="44.48532" lon="5.38722">
        <ele>557</ele>
      </trkpt>
      <trkpt lat="44.48521" lon="5.38679">
        <ele>557</ele>
      </trkpt>
      <trkpt lat="44.48512" lon="5.38637">
        <ele>553</ele>
      </trkpt>
      <trkpt lat="44.4851" lon="5.38612">
        <ele>553</ele>
      </trkpt>
      <trkpt lat="44.48514" lon="5.38588">
        <ele>555</ele>
      </trkpt>
      <trkpt lat="44.48544" lon="5.38493">
        <ele>553</ele>
      </trkpt>
      <trkpt lat="44.48575" lon="5.38406">
        <ele>553</ele>
      </trkpt>
      <trkpt lat="44.4859" lon="5.38359">
        <ele>552</ele>
      </trkpt>
      <trkpt lat="44.48597" lon="5.38332">
        <ele>553</ele>
      </trkpt>
      <trkpt lat="44.48599" lon="5.38317">
        <ele>554</ele>
      </trkpt>
      <trkpt lat="44.48595" lon="5.38292">
        <ele>552</ele>
      </trkpt>
      <trkpt lat="44.4856" lon="5.38166">
        <ele>552</ele>
      </trkpt>
      <trkpt lat="44.48538" lon="5.38099">
        <ele>552</ele>
      </trkpt>
      <trkpt lat="44.48529" lon="5.38083">
        <ele>552</ele>
      </trkpt>
      <trkpt lat="44.48464" lon="5.38013">
        <ele>554</ele>
      </trkpt>
      <trkpt lat="44.48455" lon="5.38">
        <ele>554</ele>
      </trkpt>
      <trkpt lat="44.48449" lon="5.37987">
        <ele>554</ele>
      </trkpt>
      <trkpt lat="44.48445" lon="5.37976">
        <ele>555</ele>
      </trkpt>
      <trkpt lat="44.48439" lon="5.37939">
        <ele>555</ele>
      </trkpt>
      <trkpt lat="44.48433" lon="5.37826">
        <ele>546</ele>
      </trkpt>
      <trkpt lat="44.48435" lon="5.3781">
        <ele>546</ele>
      </trkpt>
      <trkpt lat="44.48439" lon="5.3779">
        <ele>546</ele>
      </trkpt>
      <trkpt lat="44.48446" lon="5.37757">
        <ele>546</ele>
      </trkpt>
      <trkpt lat="44.48447" lon="5.3773">
        <ele>545</ele>
      </trkpt>
      <trkpt lat="44.48439" lon="5.37704">
        <ele>545</ele>
      </trkpt>
      <trkpt lat="44.48425" lon="5.37684">
        <ele>545</ele>
      </trkpt>
      <trkpt lat="44.48413" lon="5.37674">
        <ele>545</ele>
      </trkpt>
      <trkpt lat="44.48328" lon="5.37624">
        <ele>545</ele>
      </trkpt>
      <trkpt lat="44.48306" lon="5.37608">
        <ele>545</ele>
      </trkpt>
      <trkpt lat="44.48288" lon="5.37601">
        <ele>545</ele>
      </trkpt>
      <trkpt lat="44.48187" lon="5.37542">
        <ele>546</ele>
      </trkpt>
      <trkpt lat="44.48007" lon="5.37436">
        <ele>544</ele>
      </trkpt>
      <trkpt lat="44.47907" lon="5.3738">
        <ele>542</ele>
      </trkpt>
      <trkpt lat="44.47887" lon="5.37373">
        <ele>541</ele>
      </trkpt>
      <trkpt lat="44.47855" lon="5.37372">
        <ele>540</ele>
      </trkpt>
      <trkpt lat="44.47808" lon="5.37383">
        <ele>537</ele>
      </trkpt>
      <trkpt lat="44.47777" lon="5.37386">
        <ele>537</ele>
      </trkpt>
      <trkpt lat="44.47767" lon="5.37383">
        <ele>538</ele>
      </trkpt>
      <trkpt lat="44.4773" lon="5.37378">
        <ele>536</ele>
      </trkpt>
      <trkpt lat="44.4771" lon="5.37373">
        <ele>536</ele>
      </trkpt>
      <trkpt lat="44.47691" lon="5.37365">
        <ele>538</ele>
      </trkpt>
      <trkpt lat="44.4753" lon="5.37275">
        <ele>542</ele>
      </trkpt>
      <trkpt lat="44.4749" lon="5.3725">
        <ele>544</ele>
      </trkpt>
      <trkpt lat="44.47435" lon="5.37208">
        <ele>540</ele>
      </trkpt>
      <trkpt lat="44.47419" lon="5.37191">
        <ele>539</ele>
      </trkpt>
      <trkpt lat="44.47377" lon="5.37136">
        <ele>545</ele>
      </trkpt>
      <trkpt lat="44.47361" lon="5.37122">
        <ele>542</ele>
      </trkpt>
      <trkpt lat="44.47345" lon="5.37113">
        <ele>541</ele>
      </trkpt>
      <trkpt lat="44.47326" lon="5.37107">
        <ele>540</ele>
      </trkpt>
      <trkpt lat="44.47206" lon="5.37082">
        <ele>535</ele>
      </trkpt>
      <trkpt lat="44.47184" lon="5.37076">
        <ele>535</ele>
      </trkpt>
      <trkpt lat="44.47141" lon="5.37057">
        <ele>534</ele>
      </trkpt>
      <trkpt lat="44.47058" lon="5.37011">
        <ele>529</ele>
      </trkpt>
      <trkpt lat="44.4702" lon="5.36984">
        <ele>528</ele>
      </trkpt>
      <trkpt lat="44.47002" lon="5.36969">
        <ele>528</ele>
      </trkpt>
      <trkpt lat="44.46985" lon="5.36952">
        <ele>529</ele>
      </trkpt>
      <trkpt lat="44.46952" lon="5.3691">
        <ele>529</ele>
      </trkpt>
      <trkpt lat="44.46854" lon="5.36764">
        <ele>533</ele>
      </trkpt>
      <trkpt lat="44.46825" lon="5.3673">
        <ele>537</ele>
      </trkpt>
      <trkpt lat="44.46826" lon="5.36726">
        <ele>537</ele>
      </trkpt>
      <trkpt lat="44.46824" lon="5.36715">
        <ele>538</ele>
      </trkpt>
      <trkpt lat="44.468" lon="5.3666">
        <ele>540</ele>
      </trkpt>
      <trkpt lat="44.46795" lon="5.36643">
        <ele>543</ele>
      </trkpt>
      <trkpt lat="44.46794" lon="5.36601">
        <ele>546</ele>
      </trkpt>
      <trkpt lat="44.46791" lon="5.36589">
        <ele>547</ele>
      </trkpt>
      <trkpt lat="44.46784" lon="5.36578">
        <ele>541</ele>
      </trkpt>
      <trkpt lat="44.46766" lon="5.36563">
        <ele>542</ele>
      </trkpt>
      <trkpt lat="44.46752" lon="5.36547">
        <ele>539</ele>
      </trkpt>
      <trkpt lat="44.46749" lon="5.36537">
        <ele>543</ele>
      </trkpt>
      <trkpt lat="44.46747" lon="5.36497">
        <ele>551</ele>
      </trkpt>
      <trkpt lat="44.46743" lon="5.36486">
        <ele>551</ele>
      </trkpt>
      <trkpt lat="44.46736" lon="5.36482">
        <ele>555</ele>
      </trkpt>
      <trkpt lat="44.46689" lon="5.36496">
        <ele>545</ele>
      </trkpt>
      <trkpt lat="44.46668" lon="5.365">
        <ele>545</ele>
      </trkpt>
      <trkpt lat="44.4665" lon="5.365">
        <ele>545</ele>
      </trkpt>
      <trkpt lat="44.46633" lon="5.36493">
        <ele>545</ele>
      </trkpt>
      <trkpt lat="44.46621" lon="5.36486">
        <ele>543</ele>
      </trkpt>
      <trkpt lat="44.46609" lon="5.36471">
        <ele>546</ele>
      </trkpt>
      <trkpt lat="44.46607" lon="5.36455">
        <ele>546</ele>
      </trkpt>
      <trkpt lat="44.46612" lon="5.3644">
        <ele>548</ele>
      </trkpt>
      <trkpt lat="44.46622" lon="5.36429">
        <ele>547</ele>
      </trkpt>
      <trkpt lat="44.46637" lon="5.36421">
        <ele>549</ele>
      </trkpt>
      <trkpt lat="44.46685" lon="5.36406">
        <ele>554</ele>
      </trkpt>
      <trkpt lat="44.46719" lon="5.36403">
        <ele>559</ele>
      </trkpt>
      <trkpt lat="44.46745" lon="5.36408">
        <ele>564</ele>
      </trkpt>
      <trkpt lat="44.46763" lon="5.36418">
        <ele>569</ele>
      </trkpt>
      <trkpt lat="44.46774" lon="5.36421">
        <ele>570</ele>
      </trkpt>
      <trkpt lat="44.4678" lon="5.36417">
        <ele>571</ele>
      </trkpt>
      <trkpt lat="44.46784" lon="5.3641">
        <ele>571</ele>
      </trkpt>
      <trkpt lat="44.46787" lon="5.36392">
        <ele>572</ele>
      </trkpt>
      <trkpt lat="44.46794" lon="5.36381">
        <ele>577</ele>
      </trkpt>
      <trkpt lat="44.46802" lon="5.36375">
        <ele>578</ele>
      </trkpt>
      <trkpt lat="44.46826" lon="5.36381">
        <ele>584</ele>
      </trkpt>
      <trkpt lat="44.46834" lon="5.36381">
        <ele>585</ele>
      </trkpt>
      <trkpt lat="44.46839" lon="5.36376">
        <ele>586</ele>
      </trkpt>
      <trkpt lat="44.4684" lon="5.36364">
        <ele>586</ele>
      </trkpt>
      <trkpt lat="44.46833" lon="5.36335">
        <ele>583</ele>
      </trkpt>
      <trkpt lat="44.46832" lon="5.36324">
        <ele>582</ele>
      </trkpt>
      <trkpt lat="44.46835" lon="5.36313">
        <ele>579</ele>
      </trkpt>
      <trkpt lat="44.46841" lon="5.36305">
        <ele>579</ele>
      </trkpt>
      <trkpt lat="44.46878" lon="5.36291">
        <ele>599</ele>
      </trkpt>
      <trkpt lat="44.46885" lon="5.36285">
        <ele>597</ele>
      </trkpt>
      <trkpt lat="44.46894" lon="5.3627">
        <ele>598</ele>
      </trkpt>
      <trkpt lat="44.4691" lon="5.36258">
        <ele>606</ele>
      </trkpt>
      <trkpt lat="44.46916" lon="5.36251">
        <ele>606</ele>
      </trkpt>
      <trkpt lat="44.46919" lon="5.36241">
        <ele>606</ele>
      </trkpt>
      <trkpt lat="44.46919" lon="5.36211">
        <ele>603</ele>
      </trkpt>
      <trkpt lat="44.46924" lon="5.36165">
        <ele>599</ele>
      </trkpt>
      <trkpt lat="44.46927" lon="5.36156">
        <ele>599</ele>
      </trkpt>
      <trkpt lat="44.46947" lon="5.36137">
        <ele>612</ele>
      </trkpt>
      <trkpt lat="44.46952" lon="5.36127">
        <ele>614</ele>
      </trkpt>
      <trkpt lat="44.46954" lon="5.36116">
        <ele>614</ele>
      </trkpt>
      <trkpt lat="44.46952" lon="5.361">
        <ele>613</ele>
      </trkpt>
      <trkpt lat="44.46944" lon="5.36071">
        <ele>614</ele>
      </trkpt>
      <trkpt lat="44.46939" lon="5.36041">
        <ele>620</ele>
      </trkpt>
      <trkpt lat="44.46935" lon="5.36033">
        <ele>624</ele>
      </trkpt>
      <trkpt lat="44.46922" lon="5.36015">
        <ele>611</ele>
      </trkpt>
      <trkpt lat="44.46918" lon="5.36004">
        <ele>616</ele>
      </trkpt>
      <trkpt lat="44.46913" lon="5.35984">
        <ele>618</ele>
      </trkpt>
      <trkpt lat="44.46884" lon="5.35933">
        <ele>623</ele>
      </trkpt>
      <trkpt lat="44.46881" lon="5.35922">
        <ele>631</ele>
      </trkpt>
      <trkpt lat="44.4688" lon="5.35882">
        <ele>639</ele>
      </trkpt>
      <trkpt lat="44.46876" lon="5.35867">
        <ele>638</ele>
      </trkpt>
      <trkpt lat="44.46861" lon="5.3584">
        <ele>617</ele>
      </trkpt>
      <trkpt lat="44.46857" lon="5.3582">
        <ele>615</ele>
      </trkpt>
      <trkpt lat="44.46863" lon="5.35784">
        <ele>614</ele>
      </trkpt>
      <trkpt lat="44.46867" lon="5.35778">
        <ele>614</ele>
      </trkpt>
      <trkpt lat="44.46886" lon="5.35766">
        <ele>629</ele>
      </trkpt>
      <trkpt lat="44.4691" lon="5.35758">
        <ele>633</ele>
      </trkpt>
      <trkpt lat="44.46918" lon="5.35752">
        <ele>632</ele>
      </trkpt>
      <trkpt lat="44.46923" lon="5.35744">
        <ele>631</ele>
      </trkpt>
      <trkpt lat="44.46938" lon="5.35711">
        <ele>626</ele>
      </trkpt>
      <trkpt lat="44.46942" lon="5.35707">
        <ele>626</ele>
      </trkpt>
      <trkpt lat="44.46969" lon="5.35692">
        <ele>627</ele>
      </trkpt>
      <trkpt lat="44.47001" lon="5.35671">
        <ele>630</ele>
      </trkpt>
      <trkpt lat="44.47036" lon="5.35653">
        <ele>641</ele>
      </trkpt>
      <trkpt lat="44.47047" lon="5.35645">
        <ele>644</ele>
      </trkpt>
      <trkpt lat="44.47067" lon="5.35626">
        <ele>645</ele>
      </trkpt>
      <trkpt lat="44.4707" lon="5.35617">
        <ele>646</ele>
      </trkpt>
      <trkpt lat="44.47072" lon="5.35597">
        <ele>643</ele>
      </trkpt>
      <trkpt lat="44.47077" lon="5.3559">
        <ele>636</ele>
      </trkpt>
      <trkpt lat="44.47109" lon="5.35566">
        <ele>648</ele>
      </trkpt>
      <trkpt lat="44.47113" lon="5.35557">
        <ele>640</ele>
      </trkpt>
      <trkpt lat="44.47123" lon="5.3551">
        <ele>632</ele>
      </trkpt>
      <trkpt lat="44.47134" lon="5.35494">
        <ele>634</ele>
      </trkpt>
      <trkpt lat="44.4715" lon="5.35479">
        <ele>631</ele>
      </trkpt>
      <trkpt lat="44.47171" lon="5.35471">
        <ele>633</ele>
      </trkpt>
      <trkpt lat="44.47189" lon="5.35467">
        <ele>634</ele>
      </trkpt>
      <trkpt lat="44.47234" lon="5.35471">
        <ele>640</ele>
      </trkpt>
      <trkpt lat="44.47248" lon="5.35468">
        <ele>643</ele>
      </trkpt>
      <trkpt lat="44.47303" lon="5.35431">
        <ele>647</ele>
      </trkpt>
      <trkpt lat="44.47339" lon="5.35414">
        <ele>647</ele>
      </trkpt>
      <trkpt lat="44.4739" lon="5.35385">
        <ele>659</ele>
      </trkpt>
      <trkpt lat="44.47403" lon="5.35372">
        <ele>672</ele>
      </trkpt>
      <trkpt lat="44.47431" lon="5.35322">
        <ele>667</ele>
      </trkpt>
      <trkpt lat="44.47456" lon="5.35265">
        <ele>653</ele>
      </trkpt>
      <trkpt lat="44.4747" lon="5.35238">
        <ele>657</ele>
      </trkpt>
      <trkpt lat="44.47487" lon="5.35215">
        <ele>659</ele>
      </trkpt>
      <trkpt lat="44.47533" lon="5.35181">
        <ele>660</ele>
      </trkpt>
      <trkpt lat="44.47545" lon="5.35166">
        <ele>661</ele>
      </trkpt>
      <trkpt lat="44.47633" lon="5.35046">
        <ele>665</ele>
      </trkpt>
      <trkpt lat="44.47667" lon="5.34994">
        <ele>659</ele>
      </trkpt>
      <trkpt lat="44.47684" lon="5.34972">
        <ele>661</ele>
      </trkpt>
      <trkpt lat="44.47714" lon="5.34947">
        <ele>663</ele>
      </trkpt>
      <trkpt lat="44.47812" lon="5.34885">
        <ele>667</ele>
      </trkpt>
      <trkpt lat="44.47828" lon="5.34869">
        <ele>669</ele>
      </trkpt>
      <trkpt lat="44.47842" lon="5.34849">
        <ele>669</ele>
      </trkpt>
      <trkpt lat="44.47871" lon="5.34801">
        <ele>668</ele>
      </trkpt>
      <trkpt lat="44.47892" lon="5.34774">
        <ele>667</ele>
      </trkpt>
      <trkpt lat="44.47916" lon="5.34753">
        <ele>664</ele>
      </trkpt>
      <trkpt lat="44.48" lon="5.34706">
        <ele>674</ele>
      </trkpt>
      <trkpt lat="44.48012" lon="5.34695">
        <ele>670</ele>
      </trkpt>
      <trkpt lat="44.48045" lon="5.34608">
        <ele>671</ele>
      </trkpt>
      <trkpt lat="44.48063" lon="5.34586">
        <ele>668</ele>
      </trkpt>
      <trkpt lat="44.48086" lon="5.34571">
        <ele>672</ele>
      </trkpt>
      <trkpt lat="44.48141" lon="5.3456">
        <ele>678</ele>
      </trkpt>
      <trkpt lat="44.48154" lon="5.34555">
        <ele>684</ele>
      </trkpt>
      <trkpt lat="44.48163" lon="5.34546">
        <ele>684</ele>
      </trkpt>
      <trkpt lat="44.48173" lon="5.34528">
        <ele>680</ele>
      </trkpt>
      <trkpt lat="44.48222" lon="5.3446">
        <ele>677</ele>
      </trkpt>
      <trkpt lat="44.48251" lon="5.34407">
        <ele>677</ele>
      </trkpt>
      <trkpt lat="44.48253" lon="5.34391">
        <ele>679</ele>
      </trkpt>
      <trkpt lat="44.48242" lon="5.34254">
        <ele>691</ele>
      </trkpt>
      <trkpt lat="44.48243" lon="5.34222">
        <ele>691</ele>
      </trkpt>
      <trkpt lat="44.48246" lon="5.3419">
        <ele>690</ele>
      </trkpt>
      <trkpt lat="44.48259" lon="5.34122">
        <ele>692</ele>
      </trkpt>
      <trkpt lat="44.4828" lon="5.34033">
        <ele>692</ele>
      </trkpt>
      <trkpt lat="44.48285" lon="5.33995">
        <ele>692</ele>
      </trkpt>
      <trkpt lat="44.48286" lon="5.33956">
        <ele>694</ele>
      </trkpt>
      <trkpt lat="44.48284" lon="5.33875">
        <ele>695</ele>
      </trkpt>
      <trkpt lat="44.48285" lon="5.33851">
        <ele>693</ele>
      </trkpt>
      <trkpt lat="44.48292" lon="5.3383">
        <ele>699</ele>
      </trkpt>
      <trkpt lat="44.48326" lon="5.33773">
        <ele>709</ele>
      </trkpt>
      <trkpt lat="44.48334" lon="5.33755">
        <ele>708</ele>
      </trkpt>
      <trkpt lat="44.48336" lon="5.33734">
        <ele>708</ele>
      </trkpt>
      <trkpt lat="44.48333" lon="5.33672">
        <ele>702</ele>
      </trkpt>
      <trkpt lat="44.48332" lon="5.33635">
        <ele>700</ele>
      </trkpt>
      <trkpt lat="44.48334" lon="5.33616">
        <ele>699</ele>
      </trkpt>
      <trkpt lat="44.48338" lon="5.33601">
        <ele>699</ele>
      </trkpt>
      <trkpt lat="44.48367" lon="5.33556">
        <ele>702</ele>
      </trkpt>
      <trkpt lat="44.48383" lon="5.33523">
        <ele>704</ele>
      </trkpt>
      <trkpt lat="44.48391" lon="5.33512">
        <ele>703</ele>
      </trkpt>
      <trkpt lat="44.48402" lon="5.33504">
        <ele>699</ele>
      </trkpt>
      <trkpt lat="44.48437" lon="5.33485">
        <ele>707</ele>
      </trkpt>
      <trkpt lat="44.48446" lon="5.33478">
        <ele>704</ele>
      </trkpt>
      <trkpt lat="44.48454" lon="5.33466">
        <ele>705</ele>
      </trkpt>
      <trkpt lat="44.48459" lon="5.33452">
        <ele>707</ele>
      </trkpt>
      <trkpt lat="44.48478" lon="5.33352">
        <ele>703</ele>
      </trkpt>
      <trkpt lat="44.48485" lon="5.33325">
        <ele>702</ele>
      </trkpt>
      <trkpt lat="44.48491" lon="5.3331">
        <ele>703</ele>
      </trkpt>
      <trkpt lat="44.48498" lon="5.33299">
        <ele>704</ele>
      </trkpt>
      <trkpt lat="44.48568" lon="5.33219">
        <ele>709</ele>
      </trkpt>
      <trkpt lat="44.48575" lon="5.33207">
        <ele>711</ele>
      </trkpt>
      <trkpt lat="44.48599" lon="5.33132">
        <ele>710</ele>
      </trkpt>
      <trkpt lat="44.48607" lon="5.33119">
        <ele>709</ele>
      </trkpt>
      <trkpt lat="44.48625" lon="5.33103">
        <ele>713</ele>
      </trkpt>
      <trkpt lat="44.48641" lon="5.33093">
        <ele>714</ele>
      </trkpt>
      <trkpt lat="44.48664" lon="5.33055">
        <ele>718</ele>
      </trkpt>
      <trkpt lat="44.48695" lon="5.33019">
        <ele>722</ele>
      </trkpt>
      <trkpt lat="44.48744" lon="5.32971">
        <ele>728</ele>
      </trkpt>
      <trkpt lat="44.48753" lon="5.3296">
        <ele>728</ele>
      </trkpt>
      <trkpt lat="44.48778" lon="5.32921">
        <ele>725</ele>
      </trkpt>
      <trkpt lat="44.48791" lon="5.32909">
        <ele>725</ele>
      </trkpt>
      <trkpt lat="44.48823" lon="5.32888">
        <ele>730</ele>
      </trkpt>
      <trkpt lat="44.48838" lon="5.32875">
        <ele>730</ele>
      </trkpt>
      <trkpt lat="44.48874" lon="5.3282">
        <ele>727</ele>
      </trkpt>
      <trkpt lat="44.48897" lon="5.32791">
        <ele>730</ele>
      </trkpt>
      <trkpt lat="44.48965" lon="5.32736">
        <ele>738</ele>
      </trkpt>
      <trkpt lat="44.48986" lon="5.32705">
        <ele>739</ele>
      </trkpt>
      <trkpt lat="44.4902" lon="5.32637">
        <ele>736</ele>
      </trkpt>
      <trkpt lat="44.49026" lon="5.32613">
        <ele>734</ele>
      </trkpt>
      <trkpt lat="44.49034" lon="5.32542">
        <ele>731</ele>
      </trkpt>
      <trkpt lat="44.49043" lon="5.32524">
        <ele>732</ele>
      </trkpt>
      <trkpt lat="44.49056" lon="5.32508">
        <ele>730</ele>
      </trkpt>
      <trkpt lat="44.49091" lon="5.32485">
        <ele>734</ele>
      </trkpt>
      <trkpt lat="44.49118" lon="5.32462">
        <ele>737</ele>
      </trkpt>
      <trkpt lat="44.49155" lon="5.32394">
        <ele>741</ele>
      </trkpt>
      <trkpt lat="44.49175" lon="5.32363">
        <ele>740</ele>
      </trkpt>
      <trkpt lat="44.49207" lon="5.32278">
        <ele>740</ele>
      </trkpt>
      <trkpt lat="44.49217" lon="5.32263">
        <ele>743</ele>
      </trkpt>
      <trkpt lat="44.49231" lon="5.32251">
        <ele>742</ele>
      </trkpt>
      <trkpt lat="44.4929" lon="5.32223">
        <ele>746</ele>
      </trkpt>
      <trkpt lat="44.49302" lon="5.32213">
        <ele>748</ele>
      </trkpt>
      <trkpt lat="44.49316" lon="5.32186">
        <ele>745</ele>
      </trkpt>
      <trkpt lat="44.49317" lon="5.32172">
        <ele>743</ele>
      </trkpt>
      <trkpt lat="44.49315" lon="5.32151">
        <ele>742</ele>
      </trkpt>
      <trkpt lat="44.49286" lon="5.32003">
        <ele>753</ele>
      </trkpt>
      <trkpt lat="44.49292" lon="5.31955">
        <ele>760</ele>
      </trkpt>
      <trkpt lat="44.49309" lon="5.31889">
        <ele>757</ele>
      </trkpt>
      <trkpt lat="44.49322" lon="5.31862">
        <ele>760</ele>
      </trkpt>
      <trkpt lat="44.49333" lon="5.31845">
        <ele>760</ele>
      </trkpt>
      <trkpt lat="44.4936" lon="5.31815">
        <ele>764</ele>
      </trkpt>
      <trkpt lat="44.49375" lon="5.31788">
        <ele>765</ele>
      </trkpt>
      <trkpt lat="44.49383" lon="5.31762">
        <ele>764</ele>
      </trkpt>
      <trkpt lat="44.49407" lon="5.31656">
        <ele>770</ele>
      </trkpt>
      <trkpt lat="44.49418" lon="5.31598">
        <ele>774</ele>
      </trkpt>
      <trkpt lat="44.49422" lon="5.31534">
        <ele>778</ele>
      </trkpt>
      <trkpt lat="44.49436" lon="5.31445">
        <ele>781</ele>
      </trkpt>
      <trkpt lat="44.49454" lon="5.31386">
        <ele>780</ele>
      </trkpt>
      <trkpt lat="44.49464" lon="5.31363">
        <ele>783</ele>
      </trkpt>
      <trkpt lat="44.49467" lon="5.31348">
        <ele>783</ele>
      </trkpt>
      <trkpt lat="44.49466" lon="5.31334">
        <ele>784</ele>
      </trkpt>
      <trkpt lat="44.49461" lon="5.3132">
        <ele>784</ele>
      </trkpt>
      <trkpt lat="44.49454" lon="5.31308">
        <ele>785</ele>
      </trkpt>
      <trkpt lat="44.49446" lon="5.313">
        <ele>785</ele>
      </trkpt>
      <trkpt lat="44.49417" lon="5.31282">
        <ele>789</ele>
      </trkpt>
      <trkpt lat="44.49402" lon="5.31265">
        <ele>788</ele>
      </trkpt>
      <trkpt lat="44.49368" lon="5.31193">
        <ele>796</ele>
      </trkpt>
      <trkpt lat="44.49364" lon="5.31162">
        <ele>798</ele>
      </trkpt>
      <trkpt lat="44.49368" lon="5.3113">
        <ele>800</ele>
      </trkpt>
      <trkpt lat="44.49375" lon="5.31098">
        <ele>807</ele>
      </trkpt>
      <trkpt lat="44.49374" lon="5.31082">
        <ele>802</ele>
      </trkpt>
      <trkpt lat="44.49371" lon="5.31068">
        <ele>802</ele>
      </trkpt>
      <trkpt lat="44.49361" lon="5.31043">
        <ele>802</ele>
      </trkpt>
      <trkpt lat="44.49353" lon="5.31031">
        <ele>804</ele>
      </trkpt>
      <trkpt lat="44.49328" lon="5.31005">
        <ele>802</ele>
      </trkpt>
      <trkpt lat="44.49314" lon="5.30981">
        <ele>800</ele>
      </trkpt>
      <trkpt lat="44.49276" lon="5.30901">
        <ele>807</ele>
      </trkpt>
      <trkpt lat="44.4923" lon="5.30785">
        <ele>813</ele>
      </trkpt>
      <trkpt lat="44.49229" lon="5.30768">
        <ele>813</ele>
      </trkpt>
      <trkpt lat="44.49232" lon="5.30741">
        <ele>815</ele>
      </trkpt>
      <trkpt lat="44.4927" lon="5.30666">
        <ele>823</ele>
      </trkpt>
      <trkpt lat="44.49281" lon="5.30633">
        <ele>824</ele>
      </trkpt>
      <trkpt lat="44.49284" lon="5.30611">
        <ele>825</ele>
      </trkpt>
      <trkpt lat="44.49275" lon="5.30533">
        <ele>828</ele>
      </trkpt>
      <trkpt lat="44.49247" lon="5.30388">
        <ele>836</ele>
      </trkpt>
      <trkpt lat="44.49245" lon="5.30367">
        <ele>836</ele>
      </trkpt>
      <trkpt lat="44.49247" lon="5.30335">
        <ele>836</ele>
      </trkpt>
      <trkpt lat="44.49262" lon="5.30275">
        <ele>835</ele>
      </trkpt>
      <trkpt lat="44.49267" lon="5.30245">
        <ele>839</ele>
      </trkpt>
      <trkpt lat="44.49272" lon="5.30239">
        <ele>840</ele>
      </trkpt>
      <trkpt lat="44.49277" lon="5.30242">
        <ele>841</ele>
      </trkpt>
      <trkpt lat="44.49279" lon="5.30246">
        <ele>841</ele>
      </trkpt>
      <trkpt lat="44.49279" lon="5.30253">
        <ele>841</ele>
      </trkpt>
      <trkpt lat="44.49268" lon="5.30332">
        <ele>845</ele>
      </trkpt>
      <trkpt lat="44.49267" lon="5.30354">
        <ele>845</ele>
      </trkpt>
      <trkpt lat="44.49275" lon="5.30395">
        <ele>845</ele>
      </trkpt>
      <trkpt lat="44.49299" lon="5.30444">
        <ele>847</ele>
      </trkpt>
      <trkpt lat="44.49346" lon="5.30525">
        <ele>844</ele>
      </trkpt>
      <trkpt lat="44.49361" lon="5.30546">
        <ele>844</ele>
      </trkpt>
      <trkpt lat="44.49377" lon="5.30561">
        <ele>848</ele>
      </trkpt>
      <trkpt lat="44.49398" lon="5.30573">
        <ele>846</ele>
      </trkpt>
      <trkpt lat="44.49466" lon="5.30598">
        <ele>859</ele>
      </trkpt>
      <trkpt lat="44.4949" lon="5.30618">
        <ele>864</ele>
      </trkpt>
      <trkpt lat="44.4952" lon="5.3066">
        <ele>865</ele>
      </trkpt>
      <trkpt lat="44.49556" lon="5.30723">
        <ele>867</ele>
      </trkpt>
      <trkpt lat="44.49596" lon="5.30819">
        <ele>870</ele>
      </trkpt>
      <trkpt lat="44.4961" lon="5.30844">
        <ele>875</ele>
      </trkpt>
      <trkpt lat="44.4962" lon="5.30858">
        <ele>875</ele>
      </trkpt>
      <trkpt lat="44.49629" lon="5.30866">
        <ele>878</ele>
      </trkpt>
      <trkpt lat="44.4965" lon="5.30879">
        <ele>876</ele>
      </trkpt>
      <trkpt lat="44.49671" lon="5.30881">
        <ele>876</ele>
      </trkpt>
      <trkpt lat="44.49691" lon="5.30879">
        <ele>876</ele>
      </trkpt>
      <trkpt lat="44.49714" lon="5.30868">
        <ele>884</ele>
      </trkpt>
      <trkpt lat="44.49746" lon="5.30842">
        <ele>891</ele>
      </trkpt>
      <trkpt lat="44.49753" lon="5.30842">
        <ele>892</ele>
      </trkpt>
      <trkpt lat="44.49758" lon="5.30845">
        <ele>892</ele>
      </trkpt>
      <trkpt lat="44.49764" lon="5.30853">
        <ele>897</ele>
      </trkpt>
      <trkpt lat="44.49799" lon="5.30948">
        <ele>885</ele>
      </trkpt>
      <trkpt lat="44.4981" lon="5.30957">
        <ele>880</ele>
      </trkpt>
      <trkpt lat="44.49835" lon="5.30966">
        <ele>879</ele>
      </trkpt>
      <trkpt lat="44.49846" lon="5.30966">
        <ele>878</ele>
      </trkpt>
      <trkpt lat="44.49856" lon="5.30963">
        <ele>874</ele>
      </trkpt>
      <trkpt lat="44.49898" lon="5.30925">
        <ele>885</ele>
      </trkpt>
      <trkpt lat="44.49914" lon="5.30912">
        <ele>886</ele>
      </trkpt>
      <trkpt lat="44.49947" lon="5.30899">
        <ele>888</ele>
      </trkpt>
      <trkpt lat="44.50023" lon="5.30848">
        <ele>895</ele>
      </trkpt>
      <trkpt lat="44.50056" lon="5.30843">
        <ele>895</ele>
      </trkpt>
      <trkpt lat="44.50118" lon="5.30862">
        <ele>895</ele>
      </trkpt>
      <trkpt lat="44.5016" lon="5.30857">
        <ele>894</ele>
      </trkpt>
      <trkpt lat="44.50179" lon="5.30851">
        <ele>895</ele>
      </trkpt>
      <trkpt lat="44.50308" lon="5.30727">
        <ele>906</ele>
      </trkpt>
      <trkpt lat="44.50355" lon="5.30695">
        <ele>906</ele>
      </trkpt>
      <trkpt lat="44.50461" lon="5.30599">
        <ele>916</ele>
      </trkpt>
      <trkpt lat="44.50472" lon="5.3058">
        <ele>916</ele>
      </trkpt>
      <trkpt lat="44.50479" lon="5.30551">
        <ele>914</ele>
      </trkpt>
      <trkpt lat="44.50478" lon="5.3053">
        <ele>913</ele>
      </trkpt>
      <trkpt lat="44.50459" lon="5.30456">
        <ele>911</ele>
      </trkpt>
      <trkpt lat="44.5045" lon="5.30369">
        <ele>913</ele>
      </trkpt>
      <trkpt lat="44.5045" lon="5.30355">
        <ele>913</ele>
      </trkpt>
      <trkpt lat="44.50475" lon="5.30203">
        <ele>913</ele>
      </trkpt>
      <trkpt lat="44.50478" lon="5.30192">
        <ele>915</ele>
      </trkpt>
      <trkpt lat="44.50485" lon="5.30179">
        <ele>915</ele>
      </trkpt>
      <trkpt lat="44.50494" lon="5.30169">
        <ele>915</ele>
      </trkpt>
      <trkpt lat="44.50528" lon="5.30155">
        <ele>913</ele>
      </trkpt>
      <trkpt lat="44.5054" lon="5.30142">
        <ele>914</ele>
      </trkpt>
      <trkpt lat="44.506" lon="5.30016">
        <ele>912</ele>
      </trkpt>
      <trkpt lat="44.50629" lon="5.29942">
        <ele>913</ele>
      </trkpt>
      <trkpt lat="44.50642" lon="5.2988">
        <ele>912</ele>
      </trkpt>
      <trkpt lat="44.50639" lon="5.29861">
        <ele>911</ele>
      </trkpt>
      <trkpt lat="44.50637" lon="5.29836">
        <ele>908</ele>
      </trkpt>
      <trkpt lat="44.50603" lon="5.2967">
        <ele>908</ele>
      </trkpt>
      <trkpt lat="44.506" lon="5.29647">
        <ele>907</ele>
      </trkpt>
      <trkpt lat="44.50603" lon="5.29609">
        <ele>909</ele>
      </trkpt>
      <trkpt lat="44.50609" lon="5.29595">
        <ele>909</ele>
      </trkpt>
      <trkpt lat="44.50616" lon="5.29585">
        <ele>913</ele>
      </trkpt>
      <trkpt lat="44.50627" lon="5.29579">
        <ele>909</ele>
      </trkpt>
      <trkpt lat="44.50726" lon="5.29558">
        <ele>910</ele>
      </trkpt>
      <trkpt lat="44.50737" lon="5.2955">
        <ele>910</ele>
      </trkpt>
      <trkpt lat="44.50765" lon="5.2951">
        <ele>916</ele>
      </trkpt>
      <trkpt lat="44.5079" lon="5.29471">
        <ele>919</ele>
      </trkpt>
      <trkpt lat="44.50799" lon="5.2942">
        <ele>912</ele>
      </trkpt>
      <trkpt lat="44.50789" lon="5.29378">
        <ele>912</ele>
      </trkpt>
      <trkpt lat="44.50768" lon="5.29335">
        <ele>908</ele>
      </trkpt>
      <trkpt lat="44.50758" lon="5.29289">
        <ele>908</ele>
      </trkpt>
      <trkpt lat="44.50763" lon="5.29245">
        <ele>904</ele>
      </trkpt>
      <trkpt lat="44.50764" lon="5.29209">
        <ele>901</ele>
      </trkpt>
      <trkpt lat="44.50731" lon="5.29123">
        <ele>898</ele>
      </trkpt>
      <trkpt lat="44.50704" lon="5.2909">
        <ele>898</ele>
      </trkpt>
      <trkpt lat="44.50684" lon="5.29048">
        <ele>895</ele>
      </trkpt>
      <trkpt lat="44.50663" lon="5.28966">
        <ele>891</ele>
      </trkpt>
      <trkpt lat="44.50649" lon="5.28925">
        <ele>892</ele>
      </trkpt>
      <trkpt lat="44.50656" lon="5.28875">
        <ele>889</ele>
      </trkpt>
      <trkpt lat="44.50685" lon="5.28832">
        <ele>888</ele>
      </trkpt>
      <trkpt lat="44.50718" lon="5.28797">
        <ele>888</ele>
      </trkpt>
      <trkpt lat="44.50831" lon="5.28739">
        <ele>884</ele>
      </trkpt>
      <trkpt lat="44.50846" lon="5.28738">
        <ele>884</ele>
      </trkpt>
      <trkpt lat="44.50868" lon="5.28749">
        <ele>882</ele>
      </trkpt>
      <trkpt lat="44.50899" lon="5.28767">
        <ele>873</ele>
      </trkpt>
      <trkpt lat="44.50909" lon="5.2877">
        <ele>868</ele>
      </trkpt>
      <trkpt lat="44.5092" lon="5.28772">
        <ele>867</ele>
      </trkpt>
      <trkpt lat="44.50931" lon="5.28771">
        <ele>860</ele>
      </trkpt>
      <trkpt lat="44.50938" lon="5.28766">
        <ele>859</ele>
      </trkpt>
      <trkpt lat="44.50943" lon="5.28757">
        <ele>861</ele>
      </trkpt>
      <trkpt lat="44.50947" lon="5.28735">
        <ele>861</ele>
      </trkpt>
      <trkpt lat="44.50954" lon="5.28677">
        <ele>862</ele>
      </trkpt>
      <trkpt lat="44.50956" lon="5.28611">
        <ele>864</ele>
      </trkpt>
      <trkpt lat="44.5096" lon="5.28562">
        <ele>863</ele>
      </trkpt>
      <trkpt lat="44.50984" lon="5.28518">
        <ele>864</ele>
      </trkpt>
      <trkpt lat="44.51049" lon="5.28462">
        <ele>858</ele>
      </trkpt>
      <trkpt lat="44.51073" lon="5.28421">
        <ele>858</ele>
      </trkpt>
      <trkpt lat="44.51079" lon="5.28371">
        <ele>858</ele>
      </trkpt>
      <trkpt lat="44.51068" lon="5.28328">
        <ele>855</ele>
      </trkpt>
      <trkpt lat="44.51012" lon="5.28244">
        <ele>853</ele>
      </trkpt>
      <trkpt lat="44.50997" lon="5.28214">
        <ele>850</ele>
      </trkpt>
      <trkpt lat="44.5099" lon="5.28194">
        <ele>847</ele>
      </trkpt>
      <trkpt lat="44.50985" lon="5.28164">
        <ele>848</ele>
      </trkpt>
      <trkpt lat="44.5098" lon="5.28138">
        <ele>846</ele>
      </trkpt>
      <trkpt lat="44.50974" lon="5.28119">
        <ele>846</ele>
      </trkpt>
      <trkpt lat="44.50969" lon="5.28093">
        <ele>845</ele>
      </trkpt>
      <trkpt lat="44.50971" lon="5.28066">
        <ele>844</ele>
      </trkpt>
      <trkpt lat="44.50975" lon="5.28031">
        <ele>845</ele>
      </trkpt>
      <trkpt lat="44.50972" lon="5.28009">
        <ele>845</ele>
      </trkpt>
      <trkpt lat="44.50939" lon="5.27923">
        <ele>841</ele>
      </trkpt>
      <trkpt lat="44.50926" lon="5.27878">
        <ele>837</ele>
      </trkpt>
      <trkpt lat="44.50922" lon="5.27832">
        <ele>837</ele>
      </trkpt>
      <trkpt lat="44.50926" lon="5.27789">
        <ele>834</ele>
      </trkpt>
      <trkpt lat="44.50943" lon="5.27753">
        <ele>832</ele>
      </trkpt>
      <trkpt lat="44.50984" lon="5.27688">
        <ele>829</ele>
      </trkpt>
      <trkpt lat="44.50991" lon="5.27675">
        <ele>830</ele>
      </trkpt>
      <trkpt lat="44.50993" lon="5.27663">
        <ele>828</ele>
      </trkpt>
      <trkpt lat="44.50991" lon="5.2765">
        <ele>828</ele>
      </trkpt>
      <trkpt lat="44.50985" lon="5.27637">
        <ele>824</ele>
      </trkpt>
      <trkpt lat="44.50946" lon="5.27583">
        <ele>820</ele>
      </trkpt>
      <trkpt lat="44.50932" lon="5.27551">
        <ele>821</ele>
      </trkpt>
      <trkpt lat="44.50918" lon="5.27512">
        <ele>815</ele>
      </trkpt>
      <trkpt lat="44.50914" lon="5.27461">
        <ele>813</ele>
      </trkpt>
      <trkpt lat="44.50914" lon="5.2741">
        <ele>812</ele>
      </trkpt>
      <trkpt lat="44.50915" lon="5.27365">
        <ele>810</ele>
      </trkpt>
      <trkpt lat="44.50914" lon="5.27328">
        <ele>810</ele>
      </trkpt>
      <trkpt lat="44.50907" lon="5.27286">
        <ele>807</ele>
      </trkpt>
      <trkpt lat="44.50916" lon="5.27246">
        <ele>804</ele>
      </trkpt>
      <trkpt lat="44.50919" lon="5.2721">
        <ele>802</ele>
      </trkpt>
      <trkpt lat="44.50882" lon="5.27114">
        <ele>791</ele>
      </trkpt>
      <trkpt lat="44.50819" lon="5.26963">
        <ele>786</ele>
      </trkpt>
      <trkpt lat="44.50789" lon="5.26897">
        <ele>782</ele>
      </trkpt>
      <trkpt lat="44.50783" lon="5.26892">
        <ele>783</ele>
      </trkpt>
      <trkpt lat="44.5077" lon="5.26885">
        <ele>782</ele>
      </trkpt>
      <trkpt lat="44.50766" lon="5.26879">
        <ele>782</ele>
      </trkpt>
      <trkpt lat="44.50755" lon="5.2685">
        <ele>780</ele>
      </trkpt>
      <trkpt lat="44.50753" lon="5.2683">
        <ele>780</ele>
      </trkpt>
      <trkpt lat="44.50753" lon="5.26788">
        <ele>782</ele>
      </trkpt>
      <trkpt lat="44.50757" lon="5.26754">
        <ele>783</ele>
      </trkpt>
      <trkpt lat="44.50772" lon="5.26709">
        <ele>783</ele>
      </trkpt>
      <trkpt lat="44.50789" lon="5.26666">
        <ele>784</ele>
      </trkpt>
      <trkpt lat="44.50794" lon="5.26645">
        <ele>781</ele>
      </trkpt>
      <trkpt lat="44.50798" lon="5.26639">
        <ele>780</ele>
      </trkpt>
      <trkpt lat="44.50805" lon="5.26617">
        <ele>778</ele>
      </trkpt>
      <trkpt lat="44.50817" lon="5.26576">
        <ele>776</ele>
      </trkpt>
      <trkpt lat="44.50819" lon="5.26553">
        <ele>778</ele>
      </trkpt>
      <trkpt lat="44.50819" lon="5.26536">
        <ele>779</ele>
      </trkpt>
      <trkpt lat="44.50815" lon="5.26486">
        <ele>781</ele>
      </trkpt>
      <trkpt lat="44.50806" lon="5.26451">
        <ele>777</ele>
      </trkpt>
      <trkpt lat="44.50801" lon="5.2638">
        <ele>776</ele>
      </trkpt>
      <trkpt lat="44.50791" lon="5.26341">
        <ele>783</ele>
      </trkpt>
      <trkpt lat="44.50774" lon="5.26299">
        <ele>780</ele>
      </trkpt>
      <trkpt lat="44.5076" lon="5.26272">
        <ele>790</ele>
      </trkpt>
      <trkpt lat="44.50741" lon="5.26247">
        <ele>787</ele>
      </trkpt>
      <trkpt lat="44.5073" lon="5.26238">
        <ele>797</ele>
      </trkpt>
      <trkpt lat="44.50721" lon="5.26228">
        <ele>793</ele>
      </trkpt>
      <trkpt lat="44.50719" lon="5.26218">
        <ele>793</ele>
      </trkpt>
      <trkpt lat="44.50723" lon="5.26201">
        <ele>790</ele>
      </trkpt>
      <trkpt lat="44.50728" lon="5.26167">
        <ele>788</ele>
      </trkpt>
      <trkpt lat="44.50729" lon="5.26129">
        <ele>789</ele>
      </trkpt>
      <trkpt lat="44.50727" lon="5.26115">
        <ele>788</ele>
      </trkpt>
      <trkpt lat="44.50723" lon="5.26105">
        <ele>789</ele>
      </trkpt>
      <trkpt lat="44.50717" lon="5.26054">
        <ele>789</ele>
      </trkpt>
      <trkpt lat="44.50707" lon="5.26022">
        <ele>793</ele>
      </trkpt>
      <trkpt lat="44.50695" lon="5.25965">
        <ele>794</ele>
      </trkpt>
      <trkpt lat="44.50684" lon="5.25879">
        <ele>794</ele>
      </trkpt>
      <trkpt lat="44.50682" lon="5.25836">
        <ele>796</ele>
      </trkpt>
      <trkpt lat="44.5068" lon="5.2581">
        <ele>798</ele>
      </trkpt>
      <trkpt lat="44.50676" lon="5.25785">
        <ele>799</ele>
      </trkpt>
      <trkpt lat="44.50673" lon="5.25773">
        <ele>799</ele>
      </trkpt>
      <trkpt lat="44.50664" lon="5.25749">
        <ele>798</ele>
      </trkpt>
      <trkpt lat="44.50654" lon="5.25734">
        <ele>798</ele>
      </trkpt>
      <trkpt lat="44.50634" lon="5.25706">
        <ele>798</ele>
      </trkpt>
      <trkpt lat="44.50607" lon="5.25677">
        <ele>797</ele>
      </trkpt>
      <trkpt lat="44.50595" lon="5.25669">
        <ele>796</ele>
      </trkpt>
      <trkpt lat="44.50581" lon="5.25662">
        <ele>796</ele>
      </trkpt>
      <trkpt lat="44.5055" lon="5.25655">
        <ele>801</ele>
      </trkpt>
      <trkpt lat="44.50535" lon="5.2565">
        <ele>806</ele>
      </trkpt>
      <trkpt lat="44.50514" lon="5.25631">
        <ele>808</ele>
      </trkpt>
      <trkpt lat="44.50506" lon="5.25616">
        <ele>806</ele>
      </trkpt>
      <trkpt lat="44.50498" lon="5.25585">
        <ele>803</ele>
      </trkpt>
      <trkpt lat="44.50496" lon="5.25561">
        <ele>802</ele>
      </trkpt>
      <trkpt lat="44.50496" lon="5.25538">
        <ele>801</ele>
      </trkpt>
      <trkpt lat="44.505" lon="5.25499">
        <ele>804</ele>
      </trkpt>
      <trkpt lat="44.50506" lon="5.25474">
        <ele>808</ele>
      </trkpt>
      <trkpt lat="44.50515" lon="5.25447">
        <ele>807</ele>
      </trkpt>
      <trkpt lat="44.50538" lon="5.25409">
        <ele>811</ele>
      </trkpt>
      <trkpt lat="44.50584" lon="5.25343">
        <ele>809</ele>
      </trkpt>
      <trkpt lat="44.50698" lon="5.25193">
        <ele>818</ele>
      </trkpt>
      <trkpt lat="44.50717" lon="5.2515">
        <ele>814</ele>
      </trkpt>
      <trkpt lat="44.50744" lon="5.25054">
        <ele>820</ele>
      </trkpt>
      <trkpt lat="44.50747" lon="5.25029">
        <ele>825</ele>
      </trkpt>
      <trkpt lat="44.50751" lon="5.25015">
        <ele>825</ele>
      </trkpt>
      <trkpt lat="44.50759" lon="5.25003">
        <ele>829</ele>
      </trkpt>
      <trkpt lat="44.50775" lon="5.24991">
        <ele>825</ele>
      </trkpt>
      <trkpt lat="44.50786" lon="5.24977">
        <ele>827</ele>
      </trkpt>
      <trkpt lat="44.50791" lon="5.24945">
        <ele>826</ele>
      </trkpt>
      <trkpt lat="44.50788" lon="5.24871">
        <ele>822</ele>
      </trkpt>
      <trkpt lat="44.50781" lon="5.24838">
        <ele>824</ele>
      </trkpt>
      <trkpt lat="44.50779" lon="5.24814">
        <ele>826</ele>
      </trkpt>
      <trkpt lat="44.50772" lon="5.24729">
        <ele>835</ele>
      </trkpt>
      <trkpt lat="44.5077" lon="5.24648">
        <ele>837</ele>
      </trkpt>
      <trkpt lat="44.50772" lon="5.24575">
        <ele>834</ele>
      </trkpt>
      <trkpt lat="44.50775" lon="5.24499">
        <ele>832</ele>
      </trkpt>
      <trkpt lat="44.50779" lon="5.24464">
        <ele>832</ele>
      </trkpt>
      <trkpt lat="44.50793" lon="5.24376">
        <ele>835</ele>
      </trkpt>
      <trkpt lat="44.50796" lon="5.24296">
        <ele>829</ele>
      </trkpt>
      <trkpt lat="44.50803" lon="5.24261">
        <ele>828</ele>
      </trkpt>
      <trkpt lat="44.50806" lon="5.24229">
        <ele>826</ele>
      </trkpt>
      <trkpt lat="44.50803" lon="5.24159">
        <ele>818</ele>
      </trkpt>
      <trkpt lat="44.50803" lon="5.24139">
        <ele>813</ele>
      </trkpt>
      <trkpt lat="44.50806" lon="5.24124">
        <ele>812</ele>
      </trkpt>
      <trkpt lat="44.50811" lon="5.2411">
        <ele>808</ele>
      </trkpt>
      <trkpt lat="44.50816" lon="5.24091">
        <ele>806</ele>
      </trkpt>
      <trkpt lat="44.50815" lon="5.24085">
        <ele>802</ele>
      </trkpt>
      <trkpt lat="44.50811" lon="5.24078">
        <ele>801</ele>
      </trkpt>
      <trkpt lat="44.50807" lon="5.24077">
        <ele>801</ele>
      </trkpt>
      <trkpt lat="44.50802" lon="5.24079">
        <ele>800</ele>
      </trkpt>
      <trkpt lat="44.508" lon="5.24085">
        <ele>800</ele>
      </trkpt>
      <trkpt lat="44.50791" lon="5.24162">
        <ele>804</ele>
      </trkpt>
      <trkpt lat="44.50788" lon="5.24217">
        <ele>808</ele>
      </trkpt>
      <trkpt lat="44.50772" lon="5.24272">
        <ele>808</ele>
      </trkpt>
      <trkpt lat="44.50758" lon="5.24337">
        <ele>801</ele>
      </trkpt>
      <trkpt lat="44.50752" lon="5.24352">
        <ele>801</ele>
      </trkpt>
      <trkpt lat="44.50744" lon="5.24353">
        <ele>801</ele>
      </trkpt>
      <trkpt lat="44.5074" lon="5.24349">
        <ele>800</ele>
      </trkpt>
      <trkpt lat="44.50738" lon="5.2434">
        <ele>798</ele>
      </trkpt>
      <trkpt lat="44.50739" lon="5.24328">
        <ele>798</ele>
      </trkpt>
      <trkpt lat="44.50742" lon="5.24319">
        <ele>798</ele>
      </trkpt>
      <trkpt lat="44.50752" lon="5.24271">
        <ele>793</ele>
      </trkpt>
      <trkpt lat="44.50763" lon="5.24195">
        <ele>789</ele>
      </trkpt>
      <trkpt lat="44.50764" lon="5.24179">
        <ele>788</ele>
      </trkpt>
      <trkpt lat="44.50755" lon="5.24028">
        <ele>770</ele>
      </trkpt>
      <trkpt lat="44.50757" lon="5.24017">
        <ele>770</ele>
      </trkpt>
      <trkpt lat="44.50762" lon="5.24003">
        <ele>768</ele>
      </trkpt>
      <trkpt lat="44.50782" lon="5.23968">
        <ele>774</ele>
      </trkpt>
      <trkpt lat="44.50788" lon="5.23945">
        <ele>775</ele>
      </trkpt>
      <trkpt lat="44.50789" lon="5.23931">
        <ele>775</ele>
      </trkpt>
      <trkpt lat="44.50781" lon="5.23864">
        <ele>765</ele>
      </trkpt>
      <trkpt lat="44.50781" lon="5.23853">
        <ele>765</ele>
      </trkpt>
      <trkpt lat="44.50784" lon="5.23841">
        <ele>764</ele>
      </trkpt>
      <trkpt lat="44.50799" lon="5.2382">
        <ele>766</ele>
      </trkpt>
      <trkpt lat="44.50819" lon="5.23803">
        <ele>760</ele>
      </trkpt>
      <trkpt lat="44.50849" lon="5.23764">
        <ele>765</ele>
      </trkpt>
      <trkpt lat="44.50864" lon="5.23749">
        <ele>758</ele>
      </trkpt>
      <trkpt lat="44.50946" lon="5.23691">
        <ele>747</ele>
      </trkpt>
      <trkpt lat="44.51008" lon="5.23652">
        <ele>750</ele>
      </trkpt>
      <trkpt lat="44.51058" lon="5.23605">
        <ele>744</ele>
      </trkpt>
      <trkpt lat="44.51079" lon="5.23591">
        <ele>750</ele>
      </trkpt>
      <trkpt lat="44.51099" lon="5.23582">
        <ele>750</ele>
      </trkpt>
      <trkpt lat="44.51112" lon="5.23571">
        <ele>750</ele>
      </trkpt>
      <trkpt lat="44.5112" lon="5.23562">
        <ele>744</ele>
      </trkpt>
      <trkpt lat="44.51134" lon="5.23543">
        <ele>747</ele>
      </trkpt>
      <trkpt lat="44.51142" lon="5.23526">
        <ele>740</ele>
      </trkpt>
      <trkpt lat="44.51148" lon="5.23509">
        <ele>739</ele>
      </trkpt>
      <trkpt lat="44.51155" lon="5.23475">
        <ele>732</ele>
      </trkpt>
      <trkpt lat="44.51158" lon="5.23468">
        <ele>732</ele>
      </trkpt>
      <trkpt lat="44.51164" lon="5.23459">
        <ele>732</ele>
      </trkpt>
      <trkpt lat="44.51174" lon="5.23449">
        <ele>728</ele>
      </trkpt>
      <trkpt lat="44.51211" lon="5.23427">
        <ele>732</ele>
      </trkpt>
      <trkpt lat="44.51222" lon="5.23415">
        <ele>728</ele>
      </trkpt>
      <trkpt lat="44.51266" lon="5.23336">
        <ele>724</ele>
      </trkpt>
      <trkpt lat="44.51273" lon="5.23316">
        <ele>724</ele>
      </trkpt>
      <trkpt lat="44.51298" lon="5.23223">
        <ele>722</ele>
      </trkpt>
      <trkpt lat="44.51301" lon="5.23187">
        <ele>720</ele>
      </trkpt>
      <trkpt lat="44.51301" lon="5.23155">
        <ele>718</ele>
      </trkpt>
      <trkpt lat="44.51298" lon="5.23108">
        <ele>712</ele>
      </trkpt>
      <trkpt lat="44.51298" lon="5.23096">
        <ele>711</ele>
      </trkpt>
      <trkpt lat="44.51302" lon="5.23082">
        <ele>707</ele>
      </trkpt>
      <trkpt lat="44.51308" lon="5.23072">
        <ele>707</ele>
      </trkpt>
      <trkpt lat="44.51318" lon="5.23062">
        <ele>706</ele>
      </trkpt>
      <trkpt lat="44.51329" lon="5.23055">
        <ele>702</ele>
      </trkpt>
      <trkpt lat="44.5137" lon="5.23042">
        <ele>702</ele>
      </trkpt>
      <trkpt lat="44.51412" lon="5.2304">
        <ele>704</ele>
      </trkpt>
      <trkpt lat="44.51422" lon="5.23033">
        <ele>702</ele>
      </trkpt>
      <trkpt lat="44.51424" lon="5.23026">
        <ele>701</ele>
      </trkpt>
      <trkpt lat="44.51423" lon="5.23019">
        <ele>701</ele>
      </trkpt>
      <trkpt lat="44.51419" lon="5.23014">
        <ele>701</ele>
      </trkpt>
      <trkpt lat="44.51318" lon="5.2303">
        <ele>694</ele>
      </trkpt>
      <trkpt lat="44.51298" lon="5.23036">
        <ele>698</ele>
      </trkpt>
      <trkpt lat="44.51285" lon="5.23042">
        <ele>695</ele>
      </trkpt>
      <trkpt lat="44.51269" lon="5.23053">
        <ele>695</ele>
      </trkpt>
      <trkpt lat="44.51214" lon="5.23108">
        <ele>690</ele>
      </trkpt>
      <trkpt lat="44.51201" lon="5.23113">
        <ele>687</ele>
      </trkpt>
      <trkpt lat="44.51197" lon="5.23112">
        <ele>686</ele>
      </trkpt>
      <trkpt lat="44.51193" lon="5.23105">
        <ele>685</ele>
      </trkpt>
      <trkpt lat="44.51195" lon="5.23095">
        <ele>685</ele>
      </trkpt>
      <trkpt lat="44.51223" lon="5.23076">
        <ele>685</ele>
      </trkpt>
      <trkpt lat="44.51232" lon="5.23065">
        <ele>686</ele>
      </trkpt>
      <trkpt lat="44.51258" lon="5.23024">
        <ele>683</ele>
      </trkpt>
      <trkpt lat="44.51275" lon="5.23003">
        <ele>682</ele>
      </trkpt>
      <trkpt lat="44.513" lon="5.22981">
        <ele>684</ele>
      </trkpt>
      <trkpt lat="44.51308" lon="5.22971">
        <ele>680</ele>
      </trkpt>
      <trkpt lat="44.51313" lon="5.2296">
        <ele>679</ele>
      </trkpt>
      <trkpt lat="44.51316" lon="5.22941">
        <ele>677</ele>
      </trkpt>
      <trkpt lat="44.51315" lon="5.22927">
        <ele>676</ele>
      </trkpt>
      <trkpt lat="44.5131" lon="5.22913">
        <ele>675</ele>
      </trkpt>
      <trkpt lat="44.51301" lon="5.22893">
        <ele>675</ele>
      </trkpt>
      <trkpt lat="44.51252" lon="5.22806">
        <ele>673</ele>
      </trkpt>
      <trkpt lat="44.51248" lon="5.2279">
        <ele>673</ele>
      </trkpt>
      <trkpt lat="44.51246" lon="5.22772">
        <ele>675</ele>
      </trkpt>
      <trkpt lat="44.51248" lon="5.22748">
        <ele>675</ele>
      </trkpt>
      <trkpt lat="44.51253" lon="5.22735">
        <ele>675</ele>
      </trkpt>
      <trkpt lat="44.51261" lon="5.22719">
        <ele>672</ele>
      </trkpt>
      <trkpt lat="44.51288" lon="5.22673">
        <ele>682</ele>
      </trkpt>
      <trkpt lat="44.51293" lon="5.22654">
        <ele>688</ele>
      </trkpt>
      <trkpt lat="44.51297" lon="5.22632">
        <ele>684</ele>
      </trkpt>
      <trkpt lat="44.51298" lon="5.22612">
        <ele>680</ele>
      </trkpt>
      <trkpt lat="44.51299" lon="5.22594">
        <ele>680</ele>
      </trkpt>
      <trkpt lat="44.51296" lon="5.22549">
        <ele>672</ele>
      </trkpt>
      <trkpt lat="44.51298" lon="5.22539">
        <ele>672</ele>
      </trkpt>
      <trkpt lat="44.5131" lon="5.22479">
        <ele>666</ele>
      </trkpt>
      <trkpt lat="44.51319" lon="5.22429">
        <ele>659</ele>
      </trkpt>
      <trkpt lat="44.51327" lon="5.22405">
        <ele>662</ele>
      </trkpt>
      <trkpt lat="44.51339" lon="5.22377">
        <ele>657</ele>
      </trkpt>
      <trkpt lat="44.51393" lon="5.22275">
        <ele>651</ele>
      </trkpt>
      <trkpt lat="44.51403" lon="5.22247">
        <ele>649</ele>
      </trkpt>
      <trkpt lat="44.51412" lon="5.22218">
        <ele>655</ele>
      </trkpt>
      <trkpt lat="44.51428" lon="5.22146">
        <ele>649</ele>
      </trkpt>
      <trkpt lat="44.51436" lon="5.22096">
        <ele>650</ele>
      </trkpt>
      <trkpt lat="44.51477" lon="5.21982">
        <ele>643</ele>
      </trkpt>
      <trkpt lat="44.51519" lon="5.21894">
        <ele>634</ele>
      </trkpt>
      <trkpt lat="44.51538" lon="5.2186">
        <ele>631</ele>
      </trkpt>
      <trkpt lat="44.5155" lon="5.21807">
        <ele>629</ele>
      </trkpt>
      <trkpt lat="44.51577" lon="5.21706">
        <ele>622</ele>
      </trkpt>
      <trkpt lat="44.51601" lon="5.21668">
        <ele>620</ele>
      </trkpt>
      <trkpt lat="44.51624" lon="5.21648">
        <ele>620</ele>
      </trkpt>
      <trkpt lat="44.51653" lon="5.2161">
        <ele>618</ele>
      </trkpt>
      <trkpt lat="44.51672" lon="5.21591">
        <ele>621</ele>
      </trkpt>
      <trkpt lat="44.51694" lon="5.2156">
        <ele>615</ele>
      </trkpt>
      <trkpt lat="44.51758" lon="5.21555">
        <ele>614</ele>
      </trkpt>
      <trkpt lat="44.51776" lon="5.21556">
        <ele>612</ele>
      </trkpt>
      <trkpt lat="44.51849" lon="5.21576">
        <ele>611</ele>
      </trkpt>
      <trkpt lat="44.51866" lon="5.21584">
        <ele>611</ele>
      </trkpt>
      <trkpt lat="44.5192" lon="5.21623">
        <ele>610</ele>
      </trkpt>
      <trkpt lat="44.51934" lon="5.21634">
        <ele>611</ele>
      </trkpt>
      <trkpt lat="44.51954" lon="5.21656">
        <ele>608</ele>
      </trkpt>
      <trkpt lat="44.51976" lon="5.21674">
        <ele>607</ele>
      </trkpt>
      <trkpt lat="44.52025" lon="5.2169">
        <ele>602</ele>
      </trkpt>
      <trkpt lat="44.52182" lon="5.21761">
        <ele>599</ele>
      </trkpt>
      <trkpt lat="44.52192" lon="5.21764">
        <ele>599</ele>
      </trkpt>
      <trkpt lat="44.52202" lon="5.21765">
        <ele>599</ele>
      </trkpt>
      <trkpt lat="44.52215" lon="5.21763">
        <ele>598</ele>
      </trkpt>
      <trkpt lat="44.52245" lon="5.21751">
        <ele>596</ele>
      </trkpt>
      <trkpt lat="44.52271" lon="5.21745">
        <ele>595</ele>
      </trkpt>
      <trkpt lat="44.52297" lon="5.21755">
        <ele>594</ele>
      </trkpt>
      <trkpt lat="44.5235" lon="5.21798">
        <ele>595</ele>
      </trkpt>
      <trkpt lat="44.52369" lon="5.2181">
        <ele>595</ele>
      </trkpt>
      <trkpt lat="44.52385" lon="5.21815">
        <ele>596</ele>
      </trkpt>
      <trkpt lat="44.52408" lon="5.21821">
        <ele>594</ele>
      </trkpt>
      <trkpt lat="44.52473" lon="5.21824">
        <ele>592</ele>
      </trkpt>
      <trkpt lat="44.52716" lon="5.21883">
        <ele>590</ele>
      </trkpt>
      <trkpt lat="44.52735" lon="5.21884">
        <ele>590</ele>
      </trkpt>
      <trkpt lat="44.5275" lon="5.21881">
        <ele>588</ele>
      </trkpt>
      <trkpt lat="44.52772" lon="5.21871">
        <ele>591</ele>
      </trkpt>
      <trkpt lat="44.52819" lon="5.21846">
        <ele>592</ele>
      </trkpt>
      <trkpt lat="44.53152" lon="5.2168">
        <ele>590</ele>
      </trkpt>
      <trkpt lat="44.53363" lon="5.21533">
        <ele>589</ele>
      </trkpt>
      <trkpt lat="44.53381" lon="5.21516">
        <ele>589</ele>
      </trkpt>
      <trkpt lat="44.53455" lon="5.21399">
        <ele>587</ele>
      </trkpt>
      <trkpt lat="44.5346" lon="5.21388">
        <ele>592</ele>
      </trkpt>
      <trkpt lat="44.53463" lon="5.2136">
        <ele>594</ele>
      </trkpt>
      <trkpt lat="44.53461" lon="5.2135">
        <ele>594</ele>
      </trkpt>
      <trkpt lat="44.53453" lon="5.21324">
        <ele>591</ele>
      </trkpt>
      <trkpt lat="44.5343" lon="5.21278">
        <ele>589</ele>
      </trkpt>
      <trkpt lat="44.53414" lon="5.21254">
        <ele>590</ele>
      </trkpt>
      <trkpt lat="44.53392" lon="5.21227">
        <ele>587</ele>
      </trkpt>
      <trkpt lat="44.5336" lon="5.21192">
        <ele>585</ele>
      </trkpt>
      <trkpt lat="44.53351" lon="5.21177">
        <ele>585</ele>
      </trkpt>
      <trkpt lat="44.53327" lon="5.21114">
        <ele>586</ele>
      </trkpt>
      <trkpt lat="44.53291" lon="5.2101">
        <ele>580</ele>
      </trkpt>
      <trkpt lat="44.53286" lon="5.20988">
        <ele>580</ele>
      </trkpt>
      <trkpt lat="44.53285" lon="5.2097">
        <ele>580</ele>
      </trkpt>
      <trkpt lat="44.5329" lon="5.20944">
        <ele>580</ele>
      </trkpt>
      <trkpt lat="44.53313" lon="5.20873">
        <ele>582</ele>
      </trkpt>
      <trkpt lat="44.53323" lon="5.20829">
        <ele>583</ele>
      </trkpt>
      <trkpt lat="44.53346" lon="5.20666">
        <ele>576</ele>
      </trkpt>
      <trkpt lat="44.53352" lon="5.20641">
        <ele>578</ele>
      </trkpt>
      <trkpt lat="44.53363" lon="5.20619">
        <ele>578</ele>
      </trkpt>
      <trkpt lat="44.53374" lon="5.20603">
        <ele>575</ele>
      </trkpt>
      <trkpt lat="44.53382" lon="5.20596">
        <ele>577</ele>
      </trkpt>
      <trkpt lat="44.53398" lon="5.20587">
        <ele>574</ele>
      </trkpt>
      <trkpt lat="44.53451" lon="5.20567">
        <ele>582</ele>
      </trkpt>
      <trkpt lat="44.53471" lon="5.20556">
        <ele>582</ele>
      </trkpt>
      <trkpt lat="44.53488" lon="5.20545">
        <ele>594</ele>
      </trkpt>
      <trkpt lat="44.53498" lon="5.20533">
        <ele>589</ele>
      </trkpt>
      <trkpt lat="44.53509" lon="5.20515">
        <ele>589</ele>
      </trkpt>
      <trkpt lat="44.53523" lon="5.2047">
        <ele>588</ele>
      </trkpt>
      <trkpt lat="44.53528" lon="5.20432">
        <ele>583</ele>
      </trkpt>
      <trkpt lat="44.5353" lon="5.20402">
        <ele>581</ele>
      </trkpt>
      <trkpt lat="44.53528" lon="5.20351">
        <ele>578</ele>
      </trkpt>
      <trkpt lat="44.53529" lon="5.20329">
        <ele>575</ele>
      </trkpt>
      <trkpt lat="44.53536" lon="5.20279">
        <ele>571</ele>
      </trkpt>
      <trkpt lat="44.53539" lon="5.20268">
        <ele>571</ele>
      </trkpt>
      <trkpt lat="44.53546" lon="5.20255">
        <ele>574</ele>
      </trkpt>
      <trkpt lat="44.5356" lon="5.20235">
        <ele>574</ele>
      </trkpt>
      <trkpt lat="44.53582" lon="5.20199">
        <ele>572</ele>
      </trkpt>
      <trkpt lat="44.53593" lon="5.20175">
        <ele>571</ele>
      </trkpt>
      <trkpt lat="44.53606" lon="5.20154">
        <ele>573</ele>
      </trkpt>
      <trkpt lat="44.53649" lon="5.2009">
        <ele>575</ele>
      </trkpt>
      <trkpt lat="44.53662" lon="5.20065">
        <ele>580</ele>
      </trkpt>
      <trkpt lat="44.53672" lon="5.20037">
        <ele>577</ele>
      </trkpt>
      <trkpt lat="44.53681" lon="5.20021">
        <ele>573</ele>
      </trkpt>
      <trkpt lat="44.53693" lon="5.20003">
        <ele>576</ele>
      </trkpt>
      <trkpt lat="44.53733" lon="5.19952">
        <ele>579</ele>
      </trkpt>
      <trkpt lat="44.53789" lon="5.1987">
        <ele>573</ele>
      </trkpt>
      <trkpt lat="44.53826" lon="5.19827">
        <ele>574</ele>
      </trkpt>
      <trkpt lat="44.53845" lon="5.19796">
        <ele>569</ele>
      </trkpt>
      <trkpt lat="44.53908" lon="5.19647">
        <ele>565</ele>
      </trkpt>
      <trkpt lat="44.53914" lon="5.19628">
        <ele>563</ele>
      </trkpt>
      <trkpt lat="44.53925" lon="5.19584">
        <ele>560</ele>
      </trkpt>
      <trkpt lat="44.5393" lon="5.19568">
        <ele>559</ele>
      </trkpt>
      <trkpt lat="44.53939" lon="5.19551">
        <ele>560</ele>
      </trkpt>
      <trkpt lat="44.5395" lon="5.19535">
        <ele>560</ele>
      </trkpt>
      <trkpt lat="44.53972" lon="5.19514">
        <ele>566</ele>
      </trkpt>
      <trkpt lat="44.53995" lon="5.1949">
        <ele>579</ele>
      </trkpt>
      <trkpt lat="44.54008" lon="5.1947">
        <ele>577</ele>
      </trkpt>
      <trkpt lat="44.54016" lon="5.19453">
        <ele>589</ele>
      </trkpt>
      <trkpt lat="44.54025" lon="5.19426">
        <ele>583</ele>
      </trkpt>
      <trkpt lat="44.54031" lon="5.19371">
        <ele>568</ele>
      </trkpt>
      <trkpt lat="44.54039" lon="5.19342">
        <ele>565</ele>
      </trkpt>
      <trkpt lat="44.54078" lon="5.19276">
        <ele>578</ele>
      </trkpt>
      <trkpt lat="44.54085" lon="5.19256">
        <ele>577</ele>
      </trkpt>
      <trkpt lat="44.54103" lon="5.19196">
        <ele>560</ele>
      </trkpt>
      <trkpt lat="44.54116" lon="5.19176">
        <ele>559</ele>
      </trkpt>
      <trkpt lat="44.5418" lon="5.1912">
        <ele>561</ele>
      </trkpt>
      <trkpt lat="44.54253" lon="5.19077">
        <ele>565</ele>
      </trkpt>
      <trkpt lat="44.54314" lon="5.19022">
        <ele>564</ele>
      </trkpt>
      <trkpt lat="44.54351" lon="5.18978">
        <ele>572</ele>
      </trkpt>
      <trkpt lat="44.54402" lon="5.18891">
        <ele>554</ele>
      </trkpt>
      <trkpt lat="44.54431" lon="5.18862">
        <ele>551</ele>
      </trkpt>
      <trkpt lat="44.54452" lon="5.18851">
        <ele>553</ele>
      </trkpt>
      <trkpt lat="44.54523" lon="5.18847">
        <ele>562</ele>
      </trkpt>
      <trkpt lat="44.54561" lon="5.18839">
        <ele>567</ele>
      </trkpt>
      <trkpt lat="44.54583" lon="5.18825">
        <ele>563</ele>
      </trkpt>
      <trkpt lat="44.54652" lon="5.18741">
        <ele>542</ele>
      </trkpt>
      <trkpt lat="44.54673" lon="5.18731">
        <ele>546</ele>
      </trkpt>
      <trkpt lat="44.54738" lon="5.18724">
        <ele>535</ele>
      </trkpt>
      <trkpt lat="44.54757" lon="5.18727">
        <ele>535</ele>
      </trkpt>
      <trkpt lat="44.54782" lon="5.18736">
        <ele>542</ele>
      </trkpt>
      <trkpt lat="44.54793" lon="5.18736">
        <ele>546</ele>
      </trkpt>
      <trkpt lat="44.54805" lon="5.18732">
        <ele>547</ele>
      </trkpt>
      <trkpt lat="44.54823" lon="5.18714">
        <ele>546</ele>
      </trkpt>
      <trkpt lat="44.5486" lon="5.1867">
        <ele>538</ele>
      </trkpt>
      <trkpt lat="44.54908" lon="5.18638">
        <ele>539</ele>
      </trkpt>
      <trkpt lat="44.54959" lon="5.186">
        <ele>541</ele>
      </trkpt>
      <trkpt lat="44.54973" lon="5.18586">
        <ele>544</ele>
      </trkpt>
      <trkpt lat="44.54988" lon="5.18566">
        <ele>552</ele>
      </trkpt>
      <trkpt lat="44.55012" lon="5.18506">
        <ele>539</ele>
      </trkpt>
      <trkpt lat="44.55057" lon="5.18445">
        <ele>536</ele>
      </trkpt>
      <trkpt lat="44.55103" lon="5.18358">
        <ele>531</ele>
      </trkpt>
      <trkpt lat="44.55109" lon="5.18334">
        <ele>523</ele>
      </trkpt>
      <trkpt lat="44.55109" lon="5.1832">
        <ele>521</ele>
      </trkpt>
      <trkpt lat="44.55106" lon="5.18286">
        <ele>521</ele>
      </trkpt>
      <trkpt lat="44.55093" lon="5.18253">
        <ele>528</ele>
      </trkpt>
      <trkpt lat="44.55062" lon="5.18203">
        <ele>529</ele>
      </trkpt>
      <trkpt lat="44.55055" lon="5.18184">
        <ele>533</ele>
      </trkpt>
      <trkpt lat="44.55055" lon="5.18164">
        <ele>535</ele>
      </trkpt>
      <trkpt lat="44.55069" lon="5.18108">
        <ele>535</ele>
      </trkpt>
      <trkpt lat="44.55088" lon="5.17974">
        <ele>527</ele>
      </trkpt>
      <trkpt lat="44.55102" lon="5.17924">
        <ele>538</ele>
      </trkpt>
      <trkpt lat="44.55121" lon="5.17886">
        <ele>533</ele>
      </trkpt>
      <trkpt lat="44.5513" lon="5.17859">
        <ele>537</ele>
      </trkpt>
      <trkpt lat="44.55131" lon="5.17815">
        <ele>527</ele>
      </trkpt>
      <trkpt lat="44.55135" lon="5.17796">
        <ele>523</ele>
      </trkpt>
      <trkpt lat="44.55149" lon="5.17751">
        <ele>516</ele>
      </trkpt>
      <trkpt lat="44.55157" lon="5.17705">
        <ele>518</ele>
      </trkpt>
      <trkpt lat="44.55167" lon="5.17679">
        <ele>513</ele>
      </trkpt>
      <trkpt lat="44.55235" lon="5.1753">
        <ele>496</ele>
      </trkpt>
      <trkpt lat="44.5525" lon="5.17501">
        <ele>497</ele>
      </trkpt>
      <trkpt lat="44.55337" lon="5.17364">
        <ele>490</ele>
      </trkpt>
      <trkpt lat="44.5526" lon="5.17305">
        <ele>483</ele>
      </trkpt>
      <trkpt lat="44.55164" lon="5.17225">
        <ele>486</ele>
      </trkpt>
      <trkpt lat="44.55146" lon="5.17198">
        <ele>486</ele>
      </trkpt>
      <trkpt lat="44.55136" lon="5.17166">
        <ele>485</ele>
      </trkpt>
      <trkpt lat="44.55136" lon="5.1711">
        <ele>486</ele>
      </trkpt>
      <trkpt lat="44.55129" lon="5.17075">
        <ele>486</ele>
      </trkpt>
      <trkpt lat="44.55116" lon="5.17062">
        <ele>488</ele>
      </trkpt>
      <trkpt lat="44.551" lon="5.17055">
        <ele>489</ele>
      </trkpt>
      <trkpt lat="44.55014" lon="5.17065">
        <ele>501</ele>
      </trkpt>
      <trkpt lat="44.54957" lon="5.17056">
        <ele>501</ele>
      </trkpt>
      <trkpt lat="44.54933" lon="5.1705">
        <ele>501</ele>
      </trkpt>
      <trkpt lat="44.54644" lon="5.16885">
        <ele>505</ele>
      </trkpt>
      <trkpt lat="44.54421" lon="5.16749">
        <ele>515</ele>
      </trkpt>
      <trkpt lat="44.54146" lon="5.16652">
        <ele>530</ele>
      </trkpt>
      <trkpt lat="44.54133" lon="5.16652">
        <ele>530</ele>
      </trkpt>
      <trkpt lat="44.54016" lon="5.16689">
        <ele>540</ele>
      </trkpt>
      <trkpt lat="44.53972" lon="5.16707">
        <ele>542</ele>
      </trkpt>
      <trkpt lat="44.53952" lon="5.16711">
        <ele>543</ele>
      </trkpt>
      <trkpt lat="44.53933" lon="5.1671">
        <ele>543</ele>
      </trkpt>
      <trkpt lat="44.53912" lon="5.167">
        <ele>544</ele>
      </trkpt>
      <trkpt lat="44.53839" lon="5.1666">
        <ele>547</ele>
      </trkpt>
      <trkpt lat="44.53799" lon="5.16645">
        <ele>549</ele>
      </trkpt>
      <trkpt lat="44.5377" lon="5.16639">
        <ele>548</ele>
      </trkpt>
      <trkpt lat="44.5374" lon="5.16644">
        <ele>553</ele>
      </trkpt>
      <trkpt lat="44.53671" lon="5.16649">
        <ele>553</ele>
      </trkpt>
      <trkpt lat="44.53561" lon="5.16644">
        <ele>562</ele>
      </trkpt>
      <trkpt lat="44.53517" lon="5.16638">
        <ele>562</ele>
      </trkpt>
      <trkpt lat="44.53474" lon="5.16614">
        <ele>564</ele>
      </trkpt>
      <trkpt lat="44.53457" lon="5.16589">
        <ele>567</ele>
      </trkpt>
      <trkpt lat="44.53457" lon="5.16566">
        <ele>565</ele>
      </trkpt>
      <trkpt lat="44.53466" lon="5.16522">
        <ele>560</ele>
      </trkpt>
      <trkpt lat="44.53466" lon="5.1649">
        <ele>560</ele>
      </trkpt>
      <trkpt lat="44.5345" lon="5.16465">
        <ele>565</ele>
      </trkpt>
      <trkpt lat="44.5341" lon="5.16443">
        <ele>570</ele>
      </trkpt>
      <trkpt lat="44.53355" lon="5.16418">
        <ele>576</ele>
      </trkpt>
      <trkpt lat="44.53216" lon="5.16343">
        <ele>586</ele>
      </trkpt>
      <trkpt lat="44.53195" lon="5.16322">
        <ele>584</ele>
      </trkpt>
      <trkpt lat="44.53185" lon="5.16296">
        <ele>582</ele>
      </trkpt>
      <trkpt lat="44.53157" lon="5.16167">
        <ele>593</ele>
      </trkpt>
      <trkpt lat="44.53133" lon="5.16073">
        <ele>587</ele>
      </trkpt>
      <trkpt lat="44.53129" lon="5.1605">
        <ele>587</ele>
      </trkpt>
      <trkpt lat="44.53136" lon="5.16025">
        <ele>587</ele>
      </trkpt>
      <trkpt lat="44.53149" lon="5.16005">
        <ele>588</ele>
      </trkpt>
      <trkpt lat="44.53213" lon="5.15943">
        <ele>589</ele>
      </trkpt>
      <trkpt lat="44.53222" lon="5.15931">
        <ele>589</ele>
      </trkpt>
      <trkpt lat="44.5323" lon="5.15908">
        <ele>588</ele>
      </trkpt>
      <trkpt lat="44.53222" lon="5.15885">
        <ele>587</ele>
      </trkpt>
      <trkpt lat="44.53209" lon="5.15867">
        <ele>591</ele>
      </trkpt>
      <trkpt lat="44.53187" lon="5.15864">
        <ele>591</ele>
      </trkpt>
      <trkpt lat="44.53112" lon="5.15877">
        <ele>604</ele>
      </trkpt>
      <trkpt lat="44.53072" lon="5.15851">
        <ele>602</ele>
      </trkpt>
      <trkpt lat="44.53055" lon="5.15831">
        <ele>601</ele>
      </trkpt>
      <trkpt lat="44.53044" lon="5.15806">
        <ele>600</ele>
      </trkpt>
      <trkpt lat="44.53035" lon="5.1573">
        <ele>605</ele>
      </trkpt>
      <trkpt lat="44.53025" lon="5.1566">
        <ele>607</ele>
      </trkpt>
      <trkpt lat="44.53017" lon="5.15626">
        <ele>608</ele>
      </trkpt>
      <trkpt lat="44.53" lon="5.15601">
        <ele>609</ele>
      </trkpt>
      <trkpt lat="44.52962" lon="5.15574">
        <ele>614</ele>
      </trkpt>
      <trkpt lat="44.52883" lon="5.15525">
        <ele>616</ele>
      </trkpt>
      <trkpt lat="44.52827" lon="5.15486">
        <ele>615</ele>
      </trkpt>
      <trkpt lat="44.52794" lon="5.15448">
        <ele>616</ele>
      </trkpt>
      <trkpt lat="44.52764" lon="5.15398">
        <ele>612</ele>
      </trkpt>
      <trkpt lat="44.5274" lon="5.15374">
        <ele>614</ele>
      </trkpt>
      <trkpt lat="44.5273" lon="5.15369">
        <ele>611</ele>
      </trkpt>
      <trkpt lat="44.52711" lon="5.1537">
        <ele>610</ele>
      </trkpt>
      <trkpt lat="44.52645" lon="5.15391">
        <ele>606</ele>
      </trkpt>
      <trkpt lat="44.52619" lon="5.15395">
        <ele>603</ele>
      </trkpt>
      <trkpt lat="44.52603" lon="5.15387">
        <ele>604</ele>
      </trkpt>
      <trkpt lat="44.52581" lon="5.15365">
        <ele>604</ele>
      </trkpt>
      <trkpt lat="44.52481" lon="5.15245">
        <ele>601</ele>
      </trkpt>
      <trkpt lat="44.52454" lon="5.15231">
        <ele>597</ele>
      </trkpt>
      <trkpt lat="44.52368" lon="5.152">
        <ele>596</ele>
      </trkpt>
      <trkpt lat="44.52349" lon="5.15193">
        <ele>597</ele>
      </trkpt>
      <trkpt lat="44.52273" lon="5.15178">
        <ele>594</ele>
      </trkpt>
      <trkpt lat="44.52105" lon="5.15151">
        <ele>591</ele>
      </trkpt>
      <trkpt lat="44.51928" lon="5.15115">
        <ele>580</ele>
      </trkpt>
      <trkpt lat="44.51914" lon="5.15117">
        <ele>579</ele>
      </trkpt>
      <trkpt lat="44.51893" lon="5.15125">
        <ele>578</ele>
      </trkpt>
      <trkpt lat="44.51805" lon="5.15212">
        <ele>575</ele>
      </trkpt>
      <trkpt lat="44.51673" lon="5.15338">
        <ele>566</ele>
      </trkpt>
      <trkpt lat="44.51653" lon="5.15351">
        <ele>563</ele>
      </trkpt>
      <trkpt lat="44.51637" lon="5.15356">
        <ele>562</ele>
      </trkpt>
      <trkpt lat="44.51622" lon="5.15354">
        <ele>559</ele>
      </trkpt>
      <trkpt lat="44.51604" lon="5.15343">
        <ele>559</ele>
      </trkpt>
      <trkpt lat="44.51589" lon="5.15326">
        <ele>559</ele>
      </trkpt>
      <trkpt lat="44.51563" lon="5.15287">
        <ele>560</ele>
      </trkpt>
      <trkpt lat="44.5154" lon="5.15246">
        <ele>561</ele>
      </trkpt>
      <trkpt lat="44.51406" lon="5.14999">
        <ele>556</ele>
      </trkpt>
      <trkpt lat="44.51406" lon="5.14988">
        <ele>556</ele>
      </trkpt>
      <trkpt lat="44.51358" lon="5.14899">
        <ele>555</ele>
      </trkpt>
      <trkpt lat="44.51328" lon="5.14858">
        <ele>556</ele>
      </trkpt>
      <trkpt lat="44.51289" lon="5.14816">
        <ele>556</ele>
      </trkpt>
      <trkpt lat="44.51216" lon="5.14645">
        <ele>554</ele>
      </trkpt>
      <trkpt lat="44.51207" lon="5.14597">
        <ele>549</ele>
      </trkpt>
      <trkpt lat="44.51198" lon="5.14529">
        <ele>551</ele>
      </trkpt>
      <trkpt lat="44.51187" lon="5.14487">
        <ele>552</ele>
      </trkpt>
      <trkpt lat="44.5117" lon="5.14435">
        <ele>546</ele>
      </trkpt>
      <trkpt lat="44.51162" lon="5.14397">
        <ele>550</ele>
      </trkpt>
      <trkpt lat="44.51159" lon="5.14347">
        <ele>558</ele>
      </trkpt>
      <trkpt lat="44.5115" lon="5.14308">
        <ele>557</ele>
      </trkpt>
      <trkpt lat="44.51117" lon="5.14217">
        <ele>551</ele>
      </trkpt>
      <trkpt lat="44.51108" lon="5.14196">
        <ele>556</ele>
      </trkpt>
      <trkpt lat="44.51098" lon="5.1418">
        <ele>556</ele>
      </trkpt>
      <trkpt lat="44.5108" lon="5.14161">
        <ele>551</ele>
      </trkpt>
      <trkpt lat="44.50862" lon="5.13999">
        <ele>540</ele>
      </trkpt>
      <trkpt lat="44.5085" lon="5.13986">
        <ele>540</ele>
      </trkpt>
      <trkpt lat="44.50793" lon="5.13891">
        <ele>549</ele>
      </trkpt>
      <trkpt lat="44.50772" lon="5.13853">
        <ele>541</ele>
      </trkpt>
      <trkpt lat="44.50743" lon="5.13758">
        <ele>543</ele>
      </trkpt>
      <trkpt lat="44.50731" lon="5.13728">
        <ele>540</ele>
      </trkpt>
      <trkpt lat="44.50714" lon="5.13701">
        <ele>543</ele>
      </trkpt>
      <trkpt lat="44.50686" lon="5.1367">
        <ele>544</ele>
      </trkpt>
      <trkpt lat="44.50566" lon="5.13584">
        <ele>529</ele>
      </trkpt>
      <trkpt lat="44.50509" lon="5.1356">
        <ele>522</ele>
      </trkpt>
      <trkpt lat="44.50484" lon="5.13546">
        <ele>522</ele>
      </trkpt>
      <trkpt lat="44.50464" lon="5.13529">
        <ele>522</ele>
      </trkpt>
      <trkpt lat="44.50356" lon="5.13427">
        <ele>514</ele>
      </trkpt>
      <trkpt lat="44.50242" lon="5.13322">
        <ele>515</ele>
      </trkpt>
      <trkpt lat="44.5011" lon="5.13236">
        <ele>515</ele>
      </trkpt>
      <trkpt lat="44.50042" lon="5.13195">
        <ele>512</ele>
      </trkpt>
      <trkpt lat="44.50011" lon="5.13165">
        <ele>511</ele>
      </trkpt>
      <trkpt lat="44.49988" lon="5.13136">
        <ele>507</ele>
      </trkpt>
      <trkpt lat="44.49893" lon="5.13051">
        <ele>506</ele>
      </trkpt>
      <trkpt lat="44.49866" lon="5.13025">
        <ele>506</ele>
      </trkpt>
      <trkpt lat="44.49797" lon="5.12926">
        <ele>505</ele>
      </trkpt>
      <trkpt lat="44.49765" lon="5.12862">
        <ele>499</ele>
      </trkpt>
      <trkpt lat="44.49695" lon="5.127">
        <ele>501</ele>
      </trkpt>
      <trkpt lat="44.49595" lon="5.12495">
        <ele>500</ele>
      </trkpt>
      <trkpt lat="44.49573" lon="5.12423">
        <ele>497</ele>
      </trkpt>
      <trkpt lat="44.49546" lon="5.12253">
        <ele>494</ele>
      </trkpt>
      <trkpt lat="44.49544" lon="5.12207">
        <ele>493</ele>
      </trkpt>
      <trkpt lat="44.49546" lon="5.12118">
        <ele>489</ele>
      </trkpt>
      <trkpt lat="44.49554" lon="5.12051">
        <ele>490</ele>
      </trkpt>
      <trkpt lat="44.49567" lon="5.11985">
        <ele>493</ele>
      </trkpt>
      <trkpt lat="44.49576" lon="5.11909">
        <ele>488</ele>
      </trkpt>
      <trkpt lat="44.496" lon="5.11808">
        <ele>487</ele>
      </trkpt>
      <trkpt lat="44.4965" lon="5.11644">
        <ele>484</ele>
      </trkpt>
      <trkpt lat="44.49652" lon="5.11634">
        <ele>485</ele>
      </trkpt>
      <trkpt lat="44.49651" lon="5.11626">
        <ele>485</ele>
      </trkpt>
      <trkpt lat="44.49642" lon="5.11595">
        <ele>486</ele>
      </trkpt>
      <trkpt lat="44.49634" lon="5.11577">
        <ele>485</ele>
      </trkpt>
      <trkpt lat="44.4965" lon="5.11506">
        <ele>484</ele>
      </trkpt>
      <trkpt lat="44.49659" lon="5.11505">
        <ele>483</ele>
      </trkpt>
      <trkpt lat="44.4968" lon="5.11498">
        <ele>483</ele>
      </trkpt>
      <trkpt lat="44.49712" lon="5.1148">
        <ele>481</ele>
      </trkpt>
      <trkpt lat="44.49753" lon="5.11464">
        <ele>479</ele>
      </trkpt>
      <trkpt lat="44.49945" lon="5.11421">
        <ele>487</ele>
      </trkpt>
      <trkpt lat="44.49948" lon="5.11419">
        <ele>487</ele>
      </trkpt>
      <trkpt lat="44.49959" lon="5.114">
        <ele>489</ele>
      </trkpt>
      <trkpt lat="44.50013" lon="5.11286">
        <ele>484</ele>
      </trkpt>
      <trkpt lat="44.5003" lon="5.11258">
        <ele>481</ele>
      </trkpt>
      <trkpt lat="44.50104" lon="5.11158">
        <ele>476</ele>
      </trkpt>
      <trkpt lat="44.50136" lon="5.11123">
        <ele>479</ele>
      </trkpt>
      <trkpt lat="44.50219" lon="5.11014">
        <ele>482</ele>
      </trkpt>
      <trkpt lat="44.50318" lon="5.10893">
        <ele>481</ele>
      </trkpt>
      <trkpt lat="44.50336" lon="5.10855">
        <ele>482</ele>
      </trkpt>
      <trkpt lat="44.50433" lon="5.10409">
        <ele>477</ele>
      </trkpt>
      <trkpt lat="44.50456" lon="5.10268">
        <ele>480</ele>
      </trkpt>
      <trkpt lat="44.50483" lon="5.1008">
        <ele>487</ele>
      </trkpt>
      <trkpt lat="44.50495" lon="5.09989">
        <ele>497</ele>
      </trkpt>
      <trkpt lat="44.50494" lon="5.09953">
        <ele>497</ele>
      </trkpt>
      <trkpt lat="44.50488" lon="5.09839">
        <ele>492</ele>
      </trkpt>
      <trkpt lat="44.50492" lon="5.09818">
        <ele>490</ele>
      </trkpt>
      <trkpt lat="44.50498" lon="5.09806">
        <ele>486</ele>
      </trkpt>
      <trkpt lat="44.50513" lon="5.098">
        <ele>487</ele>
      </trkpt>
      <trkpt lat="44.50577" lon="5.0979">
        <ele>493</ele>
      </trkpt>
      <trkpt lat="44.50703" lon="5.09785">
        <ele>498</ele>
      </trkpt>
      <trkpt lat="44.50713" lon="5.09784">
        <ele>499</ele>
      </trkpt>
      <trkpt lat="44.50719" lon="5.09777">
        <ele>495</ele>
      </trkpt>
      <trkpt lat="44.50733" lon="5.09782">
        <ele>499</ele>
      </trkpt>
      <trkpt lat="44.50745" lon="5.09783">
        <ele>500</ele>
      </trkpt>
      <trkpt lat="44.50803" lon="5.09783">
        <ele>502</ele>
      </trkpt>
      <trkpt lat="44.50844" lon="5.09778">
        <ele>503</ele>
      </trkpt>
      <trkpt lat="44.50884" lon="5.09762">
        <ele>502</ele>
      </trkpt>
      <trkpt lat="44.50898" lon="5.09751">
        <ele>501</ele>
      </trkpt>
      <trkpt lat="44.50909" lon="5.09738">
        <ele>499</ele>
      </trkpt>
      <trkpt lat="44.50917" lon="5.09725">
        <ele>499</ele>
      </trkpt>
      <trkpt lat="44.50974" lon="5.09587">
        <ele>498</ele>
      </trkpt>
      <trkpt lat="44.50984" lon="5.09546">
        <ele>495</ele>
      </trkpt>
      <trkpt lat="44.50997" lon="5.09426">
        <ele>486</ele>
      </trkpt>
      <trkpt lat="44.51023" lon="5.09333">
        <ele>478</ele>
      </trkpt>
      <trkpt lat="44.51036" lon="5.09256">
        <ele>477</ele>
      </trkpt>
      <trkpt lat="44.51042" lon="5.09248">
        <ele>473</ele>
      </trkpt>
      <trkpt lat="44.51049" lon="5.09247">
        <ele>473</ele>
      </trkpt>
      <trkpt lat="44.51056" lon="5.09252">
        <ele>472</ele>
      </trkpt>
      <trkpt lat="44.51061" lon="5.0926">
        <ele>472</ele>
      </trkpt>
      <trkpt lat="44.51069" lon="5.09308">
        <ele>471</ele>
      </trkpt>
      <trkpt lat="44.51095" lon="5.0943">
        <ele>470</ele>
      </trkpt>
      <trkpt lat="44.5111" lon="5.09481">
        <ele>470</ele>
      </trkpt>
      <trkpt lat="44.51135" lon="5.09527">
        <ele>468</ele>
      </trkpt>
      <trkpt lat="44.51198" lon="5.09604">
        <ele>465</ele>
      </trkpt>
      <trkpt lat="44.51207" lon="5.09613">
        <ele>465</ele>
      </trkpt>
      <trkpt lat="44.51215" lon="5.09616">
        <ele>464</ele>
      </trkpt>
      <trkpt lat="44.51222" lon="5.09612">
        <ele>462</ele>
      </trkpt>
      <trkpt lat="44.51228" lon="5.09603">
        <ele>461</ele>
      </trkpt>
      <trkpt lat="44.5123" lon="5.09592">
        <ele>460</ele>
      </trkpt>
      <trkpt lat="44.51227" lon="5.09548">
        <ele>454</ele>
      </trkpt>
      <trkpt lat="44.51228" lon="5.09503">
        <ele>452</ele>
      </trkpt>
      <trkpt lat="44.51233" lon="5.09475">
        <ele>451</ele>
      </trkpt>
      <trkpt lat="44.51296" lon="5.09304">
        <ele>445</ele>
      </trkpt>
      <trkpt lat="44.513" lon="5.09282">
        <ele>445</ele>
      </trkpt>
      <trkpt lat="44.51324" lon="5.09094">
        <ele>437</ele>
      </trkpt>
      <trkpt lat="44.5133" lon="5.09063">
        <ele>437</ele>
      </trkpt>
      <trkpt lat="44.51341" lon="5.09043">
        <ele>437</ele>
      </trkpt>
      <trkpt lat="44.51353" lon="5.09031">
        <ele>438</ele>
      </trkpt>
      <trkpt lat="44.51395" lon="5.09009">
        <ele>443</ele>
      </trkpt>
      <trkpt lat="44.51411" lon="5.08997">
        <ele>447</ele>
      </trkpt>
      <trkpt lat="44.51422" lon="5.08983">
        <ele>447</ele>
      </trkpt>
      <trkpt lat="44.51468" lon="5.08874">
        <ele>442</ele>
      </trkpt>
      <trkpt lat="44.51491" lon="5.08839">
        <ele>437</ele>
      </trkpt>
      <trkpt lat="44.51553" lon="5.08761">
        <ele>431</ele>
      </trkpt>
      <trkpt lat="44.51565" lon="5.0874">
        <ele>430</ele>
      </trkpt>
      <trkpt lat="44.51572" lon="5.08716">
        <ele>430</ele>
      </trkpt>
      <trkpt lat="44.51575" lon="5.08692">
        <ele>429</ele>
      </trkpt>
      <trkpt lat="44.51583" lon="5.08512">
        <ele>429</ele>
      </trkpt>
      <trkpt lat="44.51586" lon="5.08486">
        <ele>428</ele>
      </trkpt>
      <trkpt lat="44.51592" lon="5.08461">
        <ele>426</ele>
      </trkpt>
      <trkpt lat="44.51606" lon="5.08417">
        <ele>424</ele>
      </trkpt>
      <trkpt lat="44.51669" lon="5.08237">
        <ele>408</ele>
      </trkpt>
      <trkpt lat="44.51694" lon="5.08171">
        <ele>412</ele>
      </trkpt>
      <trkpt lat="44.51729" lon="5.0809">
        <ele>413</ele>
      </trkpt>
      <trkpt lat="44.51742" lon="5.08062">
        <ele>413</ele>
      </trkpt>
      <trkpt lat="44.51753" lon="5.08044">
        <ele>413</ele>
      </trkpt>
      <trkpt lat="44.51818" lon="5.07966">
        <ele>415</ele>
      </trkpt>
      <trkpt lat="44.51834" lon="5.07937">
        <ele>413</ele>
      </trkpt>
      <trkpt lat="44.51839" lon="5.07925">
        <ele>413</ele>
      </trkpt>
      <trkpt lat="44.51858" lon="5.07856">
        <ele>416</ele>
      </trkpt>
      <trkpt lat="44.5188" lon="5.07807">
        <ele>420</ele>
      </trkpt>
      <trkpt lat="44.51901" lon="5.0775">
        <ele>419</ele>
      </trkpt>
      <trkpt lat="44.51937" lon="5.07556">
        <ele>425</ele>
      </trkpt>
      <trkpt lat="44.52005" lon="5.07275">
        <ele>411</ele>
      </trkpt>
      <trkpt lat="44.52022" lon="5.07188">
        <ele>402</ele>
      </trkpt>
      <trkpt lat="44.52031" lon="5.07163">
        <ele>400</ele>
      </trkpt>
      <trkpt lat="44.52066" lon="5.07089">
        <ele>400</ele>
      </trkpt>
      <trkpt lat="44.52109" lon="5.06933">
        <ele>397</ele>
      </trkpt>
      <trkpt lat="44.52124" lon="5.06895">
        <ele>395</ele>
      </trkpt>
      <trkpt lat="44.52159" lon="5.06818">
        <ele>394</ele>
      </trkpt>
      <trkpt lat="44.5217" lon="5.06778">
        <ele>393</ele>
      </trkpt>
      <trkpt lat="44.5219" lon="5.0667">
        <ele>393</ele>
      </trkpt>
      <trkpt lat="44.52196" lon="5.06659">
        <ele>392</ele>
      </trkpt>
      <trkpt lat="44.5222" lon="5.06626">
        <ele>393</ele>
      </trkpt>
      <trkpt lat="44.5228" lon="5.06578">
        <ele>392</ele>
      </trkpt>
      <trkpt lat="44.5231" lon="5.06559">
        <ele>393</ele>
      </trkpt>
      <trkpt lat="44.52325" lon="5.06551">
        <ele>392</ele>
      </trkpt>
      <trkpt lat="44.52311" lon="5.06537">
        <ele>390</ele>
      </trkpt>
      <trkpt lat="44.52297" lon="5.06524">
        <ele>388</ele>
      </trkpt>
      <trkpt lat="44.52288" lon="5.06517">
        <ele>388</ele>
      </trkpt>
      <trkpt lat="44.52284" lon="5.06511">
        <ele>388</ele>
      </trkpt>
      <trkpt lat="44.52278" lon="5.06485">
        <ele>385</ele>
      </trkpt>
      <trkpt lat="44.52278" lon="5.06465">
        <ele>382</ele>
      </trkpt>
      <trkpt lat="44.52281" lon="5.0643">
        <ele>379</ele>
      </trkpt>
      <trkpt lat="44.52286" lon="5.06413">
        <ele>377</ele>
      </trkpt>
      <trkpt lat="44.52301" lon="5.06384">
        <ele>374</ele>
      </trkpt>
      <trkpt lat="44.52316" lon="5.06357">
        <ele>375</ele>
      </trkpt>
      <trkpt lat="44.52329" lon="5.06329">
        <ele>376</ele>
      </trkpt>
      <trkpt lat="44.52332" lon="5.06321">
        <ele>376</ele>
      </trkpt>
      <trkpt lat="44.52338" lon="5.0632">
        <ele>376</ele>
      </trkpt>
      <trkpt lat="44.5234" lon="5.06313">
        <ele>377</ele>
      </trkpt>
      <trkpt lat="44.52339" lon="5.06308">
        <ele>377</ele>
      </trkpt>
      <trkpt lat="44.52344" lon="5.06305">
        <ele>378</ele>
      </trkpt>
      <trkpt lat="44.52348" lon="5.063">
        <ele>379</ele>
      </trkpt>
      <trkpt lat="44.52447" lon="5.06131">
        <ele>384</ele>
      </trkpt>
      <trkpt lat="44.52451" lon="5.06134">
        <ele>384</ele>
      </trkpt>
      <trkpt lat="44.52457" lon="5.06132">
        <ele>384</ele>
      </trkpt>
      <trkpt lat="44.52459" lon="5.06123">
        <ele>384</ele>
      </trkpt>
      <trkpt lat="44.52457" lon="5.06116">
        <ele>384</ele>
      </trkpt>
      <trkpt lat="44.52469" lon="5.06098">
        <ele>386</ele>
      </trkpt>
      <trkpt lat="44.52478" lon="5.06066">
        <ele>386</ele>
      </trkpt>
      <trkpt lat="44.52501" lon="5.0602">
        <ele>389</ele>
      </trkpt>
      <trkpt lat="44.52507" lon="5.06001">
        <ele>390</ele>
      </trkpt>
      <trkpt lat="44.52513" lon="5.06002">
        <ele>390</ele>
      </trkpt>
      <trkpt lat="44.52544" lon="5.05979">
        <ele>393</ele>
      </trkpt>
      <trkpt lat="44.52603" lon="5.05974">
        <ele>391</ele>
      </trkpt>
      <trkpt lat="44.52619" lon="5.05975">
        <ele>391</ele>
      </trkpt>
      <trkpt lat="44.52641" lon="5.05955">
        <ele>392</ele>
      </trkpt>
      <trkpt lat="44.52731" lon="5.05887">
        <ele>402</ele>
      </trkpt>
      <trkpt lat="44.52733" lon="5.05869">
        <ele>403</ele>
      </trkpt>
      <trkpt lat="44.52745" lon="5.05832">
        <ele>409</ele>
      </trkpt>
      <trkpt lat="44.52754" lon="5.05761">
        <ele>410</ele>
      </trkpt>
      <trkpt lat="44.52764" lon="5.05706">
        <ele>412</ele>
      </trkpt>
      <trkpt lat="44.52768" lon="5.05691">
        <ele>413</ele>
      </trkpt>
      <trkpt lat="44.52796" lon="5.05639">
        <ele>415</ele>
      </trkpt>
      <trkpt lat="44.52822" lon="5.05583">
        <ele>417</ele>
      </trkpt>
      <trkpt lat="44.5285" lon="5.05539">
        <ele>416</ele>
      </trkpt>
      <trkpt lat="44.52872" lon="5.05507">
        <ele>415</ele>
      </trkpt>
      <trkpt lat="44.52885" lon="5.05439">
        <ele>416</ele>
      </trkpt>
      <trkpt lat="44.52888" lon="5.05381">
        <ele>419</ele>
      </trkpt>
      <trkpt lat="44.52881" lon="5.05366">
        <ele>419</ele>
      </trkpt>
      <trkpt lat="44.52858" lon="5.0534">
        <ele>420</ele>
      </trkpt>
      <trkpt lat="44.52833" lon="5.0527">
        <ele>425</ele>
      </trkpt>
      <trkpt lat="44.52817" lon="5.0525">
        <ele>424</ele>
      </trkpt>
      <trkpt lat="44.52765" lon="5.05193">
        <ele>424</ele>
      </trkpt>
      <trkpt lat="44.52712" lon="5.05139">
        <ele>425</ele>
      </trkpt>
      <trkpt lat="44.52677" lon="5.05113">
        <ele>420</ele>
      </trkpt>
      <trkpt lat="44.52625" lon="5.0503">
        <ele>424</ele>
      </trkpt>
      <trkpt lat="44.52609" lon="5.04995">
        <ele>426</ele>
      </trkpt>
      <trkpt lat="44.52584" lon="5.04901">
        <ele>429</ele>
      </trkpt>
      <trkpt lat="44.52573" lon="5.04852">
        <ele>430</ele>
      </trkpt>
      <trkpt lat="44.5257" lon="5.04819">
        <ele>424</ele>
      </trkpt>
      <trkpt lat="44.52569" lon="5.04774">
        <ele>422</ele>
      </trkpt>
      <trkpt lat="44.5258" lon="5.04701">
        <ele>425</ele>
      </trkpt>
      <trkpt lat="44.52611" lon="5.04615">
        <ele>421</ele>
      </trkpt>
      <trkpt lat="44.52631" lon="5.04576">
        <ele>416</ele>
      </trkpt>
      <trkpt lat="44.52696" lon="5.04513">
        <ele>411</ele>
      </trkpt>
      <trkpt lat="44.52722" lon="5.04481">
        <ele>409</ele>
      </trkpt>
      <trkpt lat="44.52747" lon="5.04426">
        <ele>404</ele>
      </trkpt>
      <trkpt lat="44.52762" lon="5.04376">
        <ele>398</ele>
      </trkpt>
      <trkpt lat="44.52772" lon="5.04298">
        <ele>392</ele>
      </trkpt>
      <trkpt lat="44.52761" lon="5.0424">
        <ele>393</ele>
      </trkpt>
      <trkpt lat="44.52744" lon="5.04174">
        <ele>394</ele>
      </trkpt>
      <trkpt lat="44.52737" lon="5.0413">
        <ele>393</ele>
      </trkpt>
      <trkpt lat="44.52744" lon="5.04109">
        <ele>391</ele>
      </trkpt>
      <trkpt lat="44.52802" lon="5.04083">
        <ele>383</ele>
      </trkpt>
      <trkpt lat="44.52843" lon="5.04067">
        <ele>378</ele>
      </trkpt>
      <trkpt lat="44.52861" lon="5.04041">
        <ele>375</ele>
      </trkpt>
      <trkpt lat="44.52861" lon="5.04016">
        <ele>375</ele>
      </trkpt>
      <trkpt lat="44.52851" lon="5.04006">
        <ele>375</ele>
      </trkpt>
      <trkpt lat="44.52838" lon="5.03999">
        <ele>374</ele>
      </trkpt>
      <trkpt lat="44.52823" lon="5.03996">
        <ele>374</ele>
      </trkpt>
      <trkpt lat="44.52814" lon="5.03989">
        <ele>374</ele>
      </trkpt>
      <trkpt lat="44.52807" lon="5.03972">
        <ele>372</ele>
      </trkpt>
      <trkpt lat="44.52763" lon="5.03823">
        <ele>365</ele>
      </trkpt>
      <trkpt lat="44.52754" lon="5.038">
        <ele>364</ele>
      </trkpt>
      <trkpt lat="44.52709" lon="5.03759">
        <ele>358</ele>
      </trkpt>
      <trkpt lat="44.52705" lon="5.03752">
        <ele>358</ele>
      </trkpt>
      <trkpt lat="44.52702" lon="5.03739">
        <ele>357</ele>
      </trkpt>
      <trkpt lat="44.52699" lon="5.03698">
        <ele>356</ele>
      </trkpt>
      <trkpt lat="44.52693" lon="5.03663">
        <ele>355</ele>
      </trkpt>
      <trkpt lat="44.52686" lon="5.03632">
        <ele>354</ele>
      </trkpt>
      <trkpt lat="44.52673" lon="5.03612">
        <ele>349</ele>
      </trkpt>
      <trkpt lat="44.52664" lon="5.03602">
        <ele>348</ele>
      </trkpt>
      <trkpt lat="44.5256" lon="5.03569">
        <ele>336</ele>
      </trkpt>
      <trkpt lat="44.52564" lon="5.03491">
        <ele>335</ele>
      </trkpt>
      <trkpt lat="44.52565" lon="5.03438">
        <ele>335</ele>
      </trkpt>
      <trkpt lat="44.52569" lon="5.03357">
        <ele>334</ele>
      </trkpt>
      <trkpt lat="44.52585" lon="5.03265">
        <ele>332</ele>
      </trkpt>
      <trkpt lat="44.5259" lon="5.03235">
        <ele>331</ele>
      </trkpt>
      <trkpt lat="44.5259" lon="5.03216">
        <ele>331</ele>
      </trkpt>
      <trkpt lat="44.52594" lon="5.03185">
        <ele>331</ele>
      </trkpt>
      <trkpt lat="44.52599" lon="5.03177">
        <ele>333</ele>
      </trkpt>
      <trkpt lat="44.52612" lon="5.031">
        <ele>333</ele>
      </trkpt>
      <trkpt lat="44.52631" lon="5.03005">
        <ele>335</ele>
      </trkpt>
      <trkpt lat="44.52671" lon="5.02866">
        <ele>332</ele>
      </trkpt>
      <trkpt lat="44.52684" lon="5.02834">
        <ele>330</ele>
      </trkpt>
      <trkpt lat="44.52691" lon="5.02819">
        <ele>329</ele>
      </trkpt>
      <trkpt lat="44.52703" lon="5.02801">
        <ele>328</ele>
      </trkpt>
      <trkpt lat="44.52883" lon="5.02575">
        <ele>328</ele>
      </trkpt>
      <trkpt lat="44.52911" lon="5.02533">
        <ele>328</ele>
      </trkpt>
      <trkpt lat="44.52934" lon="5.02489">
        <ele>328</ele>
      </trkpt>
      <trkpt lat="44.52946" lon="5.02456">
        <ele>327</ele>
      </trkpt>
      <trkpt lat="44.52955" lon="5.02418">
        <ele>326</ele>
      </trkpt>
      <trkpt lat="44.52958" lon="5.02355">
        <ele>324</ele>
      </trkpt>
      <trkpt lat="44.52965" lon="5.021">
        <ele>317</ele>
      </trkpt>
      <trkpt lat="44.52963" lon="5.01975">
        <ele>313</ele>
      </trkpt>
      <trkpt lat="44.52955" lon="5.01681">
        <ele>314</ele>
      </trkpt>
      <trkpt lat="44.52958" lon="5.0166">
        <ele>314</ele>
      </trkpt>
      <trkpt lat="44.53026" lon="5.01415">
        <ele>318</ele>
      </trkpt>
      <trkpt lat="44.53047" lon="5.0133">
        <ele>316</ele>
      </trkpt>
      <trkpt lat="44.5307" lon="5.01254">
        <ele>315</ele>
      </trkpt>
      <trkpt lat="44.53082" lon="5.012">
        <ele>314</ele>
      </trkpt>
      <trkpt lat="44.53102" lon="5.01084">
        <ele>312</ele>
      </trkpt>
      <trkpt lat="44.53114" lon="5.00983">
        <ele>308</ele>
      </trkpt>
      <trkpt lat="44.53122" lon="5.009">
        <ele>308</ele>
      </trkpt>
      <trkpt lat="44.53121" lon="5.00872">
        <ele>308</ele>
      </trkpt>
      <trkpt lat="44.53124" lon="5.00836">
        <ele>309</ele>
      </trkpt>
      <trkpt lat="44.53127" lon="5.00834">
        <ele>309</ele>
      </trkpt>
      <trkpt lat="44.53139" lon="5.0069">
        <ele>304</ele>
      </trkpt>
      <trkpt lat="44.53143" lon="5.00615">
        <ele>302</ele>
      </trkpt>
      <trkpt lat="44.53159" lon="5.00454">
        <ele>301</ele>
      </trkpt>
      <trkpt lat="44.53167" lon="5.00399">
        <ele>301</ele>
      </trkpt>
      <trkpt lat="44.53191" lon="5.00272">
        <ele>301</ele>
      </trkpt>
      <trkpt lat="44.53235" lon="5.00081">
        <ele>297</ele>
      </trkpt>
      <trkpt lat="44.53244" lon="5.00027">
        <ele>299</ele>
      </trkpt>
      <trkpt lat="44.53248" lon="4.99967">
        <ele>296</ele>
      </trkpt>
      <trkpt lat="44.53247" lon="4.9989">
        <ele>294</ele>
      </trkpt>
      <trkpt lat="44.5324" lon="4.99833">
        <ele>295</ele>
      </trkpt>
      <trkpt lat="44.53231" lon="4.99785">
        <ele>292</ele>
      </trkpt>
      <trkpt lat="44.53064" lon="4.99161">
        <ele>287</ele>
      </trkpt>
      <trkpt lat="44.53052" lon="4.99125">
        <ele>290</ele>
      </trkpt>
      <trkpt lat="44.53024" lon="4.99057">
        <ele>289</ele>
      </trkpt>
      <trkpt lat="44.53005" lon="4.99021">
        <ele>287</ele>
      </trkpt>
      <trkpt lat="44.52971" lon="4.98966">
        <ele>286</ele>
      </trkpt>
      <trkpt lat="44.52726" lon="4.9865">
        <ele>287</ele>
      </trkpt>
      <trkpt lat="44.52703" lon="4.9861">
        <ele>287</ele>
      </trkpt>
      <trkpt lat="44.52683" lon="4.98563">
        <ele>289</ele>
      </trkpt>
      <trkpt lat="44.52598" lon="4.98287">
        <ele>279</ele>
      </trkpt>
      <trkpt lat="44.52579" lon="4.98219">
        <ele>279</ele>
      </trkpt>
      <trkpt lat="44.52569" lon="4.98165">
        <ele>277</ele>
      </trkpt>
      <trkpt lat="44.52557" lon="4.98064">
        <ele>275</ele>
      </trkpt>
      <trkpt lat="44.52555" lon="4.97995">
        <ele>273</ele>
      </trkpt>
      <trkpt lat="44.52555" lon="4.97824">
        <ele>266</ele>
      </trkpt>
      <trkpt lat="44.52558" lon="4.97767">
        <ele>266</ele>
      </trkpt>
      <trkpt lat="44.5257" lon="4.97698">
        <ele>265</ele>
      </trkpt>
      <trkpt lat="44.52591" lon="4.97628">
        <ele>265</ele>
      </trkpt>
      <trkpt lat="44.52629" lon="4.9755">
        <ele>263</ele>
      </trkpt>
      <trkpt lat="44.53049" lon="4.96897">
        <ele>264</ele>
      </trkpt>
      <trkpt lat="44.53095" lon="4.96819">
        <ele>269</ele>
      </trkpt>
      <trkpt lat="44.53044" lon="4.96744">
        <ele>255</ele>
      </trkpt>
      <trkpt lat="44.53017" lon="4.96706">
        <ele>258</ele>
      </trkpt>
      <trkpt lat="44.53006" lon="4.96693">
        <ele>262</ele>
      </trkpt>
      <trkpt lat="44.52986" lon="4.96697">
        <ele>261</ele>
      </trkpt>
      <trkpt lat="44.52905" lon="4.96741">
        <ele>263</ele>
      </trkpt>
      <trkpt lat="44.52823" lon="4.96782">
        <ele>260</ele>
        <extensions>
          <visugpx:TrkExtension xmlns:visugpx="https://www.visugpx.com/editgpx/">
            <visugpx:node>1</visugpx:node>
            </visugpx:TrkExtension>
        </extensions>
      </trkpt>
    </trkseg>
  </trk>
  <trk>
    <name><![CDATA[Souspierre_4]]></name>
    <extensions>
      <line xmlns="http://www.topografix.com/GPX/gpx_style/0/2">
        <color>00FFFF</color>
        <width>4</width>
      </line>
    </extensions>
    <trkseg>
      <trkpt lat="44.5285" lon="4.96725">
        <ele>268</ele>
      </trkpt>
      <trkpt lat="44.5289" lon="4.96734">
        <ele>267</ele>
      </trkpt>
      <trkpt lat="44.52905" lon="4.96741">
        <ele>263</ele>
      </trkpt>
      <trkpt lat="44.52986" lon="4.96697">
        <ele>261</ele>
      </trkpt>
      <trkpt lat="44.53006" lon="4.96693">
        <ele>262</ele>
      </trkpt>
      <trkpt lat="44.53017" lon="4.96706">
        <ele>258</ele>
      </trkpt>
      <trkpt lat="44.53044" lon="4.96744">
        <ele>255</ele>
      </trkpt>
      <trkpt lat="44.53095" lon="4.96819">
        <ele>269</ele>
      </trkpt>
      <trkpt lat="44.53119" lon="4.96782">
        <ele>270</ele>
      </trkpt>
      <trkpt lat="44.53139" lon="4.96757">
        <ele>270</ele>
      </trkpt>
      <trkpt lat="44.53154" lon="4.96741">
        <ele>265</ele>
      </trkpt>
      <trkpt lat="44.53179" lon="4.9672">
        <ele>259</ele>
      </trkpt>
      <trkpt lat="44.53398" lon="4.96602">
        <ele>255</ele>
      </trkpt>
      <trkpt lat="44.53417" lon="4.96584">
        <ele>259</ele>
      </trkpt>
      <trkpt lat="44.53446" lon="4.96547">
        <ele>253</ele>
      </trkpt>
      <trkpt lat="44.53486" lon="4.96488">
        <ele>248</ele>
      </trkpt>
      <trkpt lat="44.53511" lon="4.96454">
        <ele>245</ele>
      </trkpt>
      <trkpt lat="44.53536" lon="4.96433">
        <ele>245</ele>
      </trkpt>
      <trkpt lat="44.53575" lon="4.96411">
        <ele>246</ele>
      </trkpt>
      <trkpt lat="44.53658" lon="4.96377">
        <ele>249</ele>
      </trkpt>
      <trkpt lat="44.53705" lon="4.96346">
        <ele>247</ele>
      </trkpt>
      <trkpt lat="44.53757" lon="4.96306">
        <ele>251</ele>
      </trkpt>
      <trkpt lat="44.53782" lon="4.96282">
        <ele>252</ele>
      </trkpt>
      <trkpt lat="44.53808" lon="4.96252">
        <ele>252</ele>
      </trkpt>
      <trkpt lat="44.53831" lon="4.9621">
        <ele>247</ele>
      </trkpt>
      <trkpt lat="44.53843" lon="4.96165">
        <ele>239</ele>
      </trkpt>
      <trkpt lat="44.53855" lon="4.96096">
        <ele>236</ele>
      </trkpt>
      <trkpt lat="44.53872" lon="4.96038">
        <ele>236</ele>
      </trkpt>
      <trkpt lat="44.53886" lon="4.96003">
        <ele>237</ele>
      </trkpt>
      <trkpt lat="44.53899" lon="4.96022">
        <ele>238</ele>
      </trkpt>
      <trkpt lat="44.53898" lon="4.96042">
        <ele>238</ele>
      </trkpt>
      <trkpt lat="44.53875" lon="4.96104">
        <ele>237</ele>
      </trkpt>
      <trkpt lat="44.53851" lon="4.96211">
        <ele>251</ele>
      </trkpt>
      <trkpt lat="44.53855" lon="4.96223">
        <ele>256</ele>
      </trkpt>
      <trkpt lat="44.53865" lon="4.96229">
        <ele>258</ele>
      </trkpt>
      <trkpt lat="44.53912" lon="4.96198">
        <ele>255</ele>
      </trkpt>
      <trkpt lat="44.54017" lon="4.96116">
        <ele>262</ele>
      </trkpt>
      <trkpt lat="44.54059" lon="4.96059">
        <ele>265</ele>
      </trkpt>
      <trkpt lat="44.54106" lon="4.95959">
        <ele>269</ele>
      </trkpt>
      <trkpt lat="44.54117" lon="4.95952">
        <ele>269</ele>
      </trkpt>
      <trkpt lat="44.54126" lon="4.95952">
        <ele>269</ele>
      </trkpt>
      <trkpt lat="44.54184" lon="4.95977">
        <ele>270</ele>
      </trkpt>
      <trkpt lat="44.54262" lon="4.96061">
        <ele>276</ele>
      </trkpt>
      <trkpt lat="44.54301" lon="4.96099">
        <ele>279</ele>
      </trkpt>
      <trkpt lat="44.54325" lon="4.96119">
        <ele>281</ele>
      </trkpt>
      <trkpt lat="44.54429" lon="4.96166">
        <ele>289</ele>
      </trkpt>
      <trkpt lat="44.54458" lon="4.96173">
        <ele>291</ele>
      </trkpt>
      <trkpt lat="44.54507" lon="4.96181">
        <ele>291</ele>
      </trkpt>
      <trkpt lat="44.54558" lon="4.96187">
        <ele>291</ele>
      </trkpt>
      <trkpt lat="44.54578" lon="4.96193">
        <ele>291</ele>
      </trkpt>
      <trkpt lat="44.54598" lon="4.96205">
        <ele>293</ele>
      </trkpt>
      <trkpt lat="44.54629" lon="4.96229">
        <ele>295</ele>
      </trkpt>
      <trkpt lat="44.5465" lon="4.96248">
        <ele>295</ele>
      </trkpt>
      <trkpt lat="44.54711" lon="4.96313">
        <ele>300</ele>
      </trkpt>
      <trkpt lat="44.54724" lon="4.96324">
        <ele>300</ele>
      </trkpt>
      <trkpt lat="44.54878" lon="4.96373">
        <ele>310</ele>
      </trkpt>
      <trkpt lat="44.54912" lon="4.96385">
        <ele>311</ele>
      </trkpt>
      <trkpt lat="44.54931" lon="4.964">
        <ele>309</ele>
      </trkpt>
      <trkpt lat="44.54951" lon="4.96422">
        <ele>306</ele>
      </trkpt>
      <trkpt lat="44.54978" lon="4.96446">
        <ele>303</ele>
      </trkpt>
      <trkpt lat="44.54986" lon="4.96449">
        <ele>303</ele>
      </trkpt>
      <trkpt lat="44.54998" lon="4.96449">
        <ele>300</ele>
      </trkpt>
      <trkpt lat="44.55017" lon="4.96445">
        <ele>299</ele>
      </trkpt>
      <trkpt lat="44.55027" lon="4.96441">
        <ele>296</ele>
      </trkpt>
      <trkpt lat="44.55069" lon="4.96426">
        <ele>296</ele>
      </trkpt>
      <trkpt lat="44.55613" lon="4.9625">
        <ele>267</ele>
      </trkpt>
      <trkpt lat="44.5564" lon="4.96234">
        <ele>266</ele>
      </trkpt>
      <trkpt lat="44.55747" lon="4.96152">
        <ele>267</ele>
      </trkpt>
      <trkpt lat="44.55823" lon="4.96101">
        <ele>269</ele>
      </trkpt>
      <trkpt lat="44.55862" lon="4.96084">
        <ele>268</ele>
      </trkpt>
      <trkpt lat="44.55908" lon="4.96075">
        <ele>263</ele>
      </trkpt>
      <trkpt lat="44.55939" lon="4.96074">
        <ele>263</ele>
      </trkpt>
      <trkpt lat="44.55957" lon="4.96078">
        <ele>263</ele>
      </trkpt>
      <trkpt lat="44.55979" lon="4.96088">
        <ele>264</ele>
      </trkpt>
      <trkpt lat="44.56008" lon="4.96111">
        <ele>265</ele>
      </trkpt>
      <trkpt lat="44.56017" lon="4.96121">
        <ele>263</ele>
      </trkpt>
      <trkpt lat="44.56025" lon="4.96133">
        <ele>263</ele>
      </trkpt>
      <trkpt lat="44.56034" lon="4.96152">
        <ele>264</ele>
      </trkpt>
      <trkpt lat="44.5606" lon="4.96213">
        <ele>266</ele>
      </trkpt>
      <trkpt lat="44.56074" lon="4.96239">
        <ele>266</ele>
      </trkpt>
      <trkpt lat="44.56134" lon="4.96314">
        <ele>264</ele>
      </trkpt>
      <trkpt lat="44.56158" lon="4.96336">
        <ele>266</ele>
      </trkpt>
      <trkpt lat="44.5618" lon="4.96348">
        <ele>267</ele>
      </trkpt>
      <trkpt lat="44.56201" lon="4.96356">
        <ele>268</ele>
      </trkpt>
      <trkpt lat="44.56249" lon="4.96365">
        <ele>268</ele>
      </trkpt>
      <trkpt lat="44.56288" lon="4.96384">
        <ele>267</ele>
      </trkpt>
      <trkpt lat="44.56307" lon="4.96402">
        <ele>268</ele>
      </trkpt>
      <trkpt lat="44.56312" lon="4.96413">
        <ele>269</ele>
      </trkpt>
      <trkpt lat="44.56344" lon="4.96501">
        <ele>273</ele>
      </trkpt>
      <trkpt lat="44.5635" lon="4.96511">
        <ele>274</ele>
      </trkpt>
      <trkpt lat="44.56367" lon="4.96527">
        <ele>275</ele>
      </trkpt>
      <trkpt lat="44.56379" lon="4.96533">
        <ele>276</ele>
      </trkpt>
      <trkpt lat="44.56394" lon="4.96538">
        <ele>276</ele>
      </trkpt>
      <trkpt lat="44.56413" lon="4.96539">
        <ele>278</ele>
      </trkpt>
      <trkpt lat="44.56435" lon="4.9654">
        <ele>279</ele>
      </trkpt>
      <trkpt lat="44.56484" lon="4.96533">
        <ele>281</ele>
      </trkpt>
      <trkpt lat="44.56503" lon="4.96534">
        <ele>281</ele>
      </trkpt>
      <trkpt lat="44.56516" lon="4.96538">
        <ele>281</ele>
      </trkpt>
      <trkpt lat="44.56527" lon="4.96545">
        <ele>281</ele>
      </trkpt>
      <trkpt lat="44.56547" lon="4.96563">
        <ele>282</ele>
      </trkpt>
      <trkpt lat="44.56636" lon="4.96669">
        <ele>282</ele>
      </trkpt>
      <trkpt lat="44.56683" lon="4.96729">
        <ele>279</ele>
      </trkpt>
      <trkpt lat="44.56711" lon="4.96758">
        <ele>278</ele>
      </trkpt>
      <trkpt lat="44.5675" lon="4.96774">
        <ele>277</ele>
      </trkpt>
      <trkpt lat="44.56921" lon="4.96821">
        <ele>268</ele>
      </trkpt>
      <trkpt lat="44.56938" lon="4.9683">
        <ele>267</ele>
      </trkpt>
      <trkpt lat="44.56982" lon="4.96895">
        <ele>270</ele>
      </trkpt>
      <trkpt lat="44.57112" lon="4.97121">
        <ele>261</ele>
      </trkpt>
      <trkpt lat="44.57168" lon="4.97222">
        <ele>260</ele>
      </trkpt>
      <trkpt lat="44.57212" lon="4.97281">
        <ele>261</ele>
      </trkpt>
      <trkpt lat="44.57546" lon="4.97621">
        <ele>267</ele>
      </trkpt>
      <trkpt lat="44.57554" lon="4.97627">
        <ele>267</ele>
      </trkpt>
      <trkpt lat="44.57595" lon="4.9769">
        <ele>267</ele>
      </trkpt>
      <trkpt lat="44.57604" lon="4.97704">
        <ele>267</ele>
      </trkpt>
      <trkpt lat="44.57646" lon="4.97779">
        <ele>268</ele>
      </trkpt>
      <trkpt lat="44.57706" lon="4.97878">
        <ele>269</ele>
      </trkpt>
      <trkpt lat="44.57767" lon="4.97976">
        <ele>271</ele>
      </trkpt>
      <trkpt lat="44.58001" lon="4.98367">
        <ele>280</ele>
      </trkpt>
      <trkpt lat="44.5803" lon="4.98402">
        <ele>280</ele>
      </trkpt>
      <trkpt lat="44.58336" lon="4.98638">
        <ele>288</ele>
      </trkpt>
      <trkpt lat="44.58356" lon="4.98663">
        <ele>288</ele>
      </trkpt>
      <trkpt lat="44.58365" lon="4.987">
        <ele>289</ele>
      </trkpt>
      <trkpt lat="44.58388" lon="4.98897">
        <ele>285</ele>
      </trkpt>
      <trkpt lat="44.58382" lon="4.98951">
        <ele>285</ele>
      </trkpt>
      <trkpt lat="44.5837" lon="4.98979">
        <ele>285</ele>
      </trkpt>
      <trkpt lat="44.58348" lon="4.99007">
        <ele>285</ele>
      </trkpt>
      <trkpt lat="44.583" lon="4.99063">
        <ele>280</ele>
      </trkpt>
      <trkpt lat="44.58289" lon="4.9908">
        <ele>281</ele>
      </trkpt>
      <trkpt lat="44.58283" lon="4.99097">
        <ele>278</ele>
      </trkpt>
      <trkpt lat="44.5828" lon="4.99113">
        <ele>276</ele>
      </trkpt>
      <trkpt lat="44.58279" lon="4.99128">
        <ele>275</ele>
      </trkpt>
      <trkpt lat="44.58281" lon="4.99144">
        <ele>275</ele>
      </trkpt>
      <trkpt lat="44.58288" lon="4.99163">
        <ele>274</ele>
      </trkpt>
      <trkpt lat="44.58541" lon="4.99621">
        <ele>254</ele>
      </trkpt>
      <trkpt lat="44.58565" lon="4.9967">
        <ele>255</ele>
      </trkpt>
      <trkpt lat="44.5858" lon="4.99683">
        <ele>255</ele>
      </trkpt>
      <trkpt lat="44.58606" lon="4.99698">
        <ele>254</ele>
      </trkpt>
      <trkpt lat="44.59171" lon="4.99897">
        <ele>243</ele>
      </trkpt>
      <trkpt lat="44.59193" lon="4.99914">
        <ele>243</ele>
      </trkpt>
      <trkpt lat="44.59218" lon="4.99929">
        <ele>245</ele>
      </trkpt>
      <trkpt lat="44.59274" lon="5">
        <ele>248</ele>
      </trkpt>
      <trkpt lat="44.59389" lon="5.00135">
        <ele>243</ele>
      </trkpt>
      <trkpt lat="44.5953" lon="5.00335">
        <ele>245</ele>
      </trkpt>
      <trkpt lat="44.5956" lon="5.00388">
        <ele>244</ele>
      </trkpt>
      <trkpt lat="44.59584" lon="5.00428">
        <ele>245</ele>
      </trkpt>
      <trkpt lat="44.59654" lon="5.0056">
        <ele>245</ele>
      </trkpt>
      <trkpt lat="44.5967" lon="5.00586">
        <ele>245</ele>
      </trkpt>
      <trkpt lat="44.59694" lon="5.00604">
        <ele>244</ele>
      </trkpt>
      <trkpt lat="44.598" lon="5.00634">
        <ele>238</ele>
      </trkpt>
      <trkpt lat="44.59809" lon="5.00637">
        <ele>238</ele>
      </trkpt>
      <trkpt lat="44.59821" lon="5.00634">
        <ele>238</ele>
      </trkpt>
      <trkpt lat="44.59824" lon="5.00632">
        <ele>237</ele>
      </trkpt>
      <trkpt lat="44.59895" lon="5.00712">
        <ele>238</ele>
      </trkpt>
      <trkpt lat="44.60008" lon="5.00851">
        <ele>239</ele>
      </trkpt>
      <trkpt lat="44.60034" lon="5.00888">
        <ele>239</ele>
      </trkpt>
      <trkpt lat="44.6011" lon="5.00975">
        <ele>239</ele>
      </trkpt>
      <trkpt lat="44.60182" lon="5.01064">
        <ele>246</ele>
      </trkpt>
      <trkpt lat="44.60189" lon="5.01079">
        <ele>246</ele>
      </trkpt>
      <trkpt lat="44.60197" lon="5.0113">
        <ele>248</ele>
      </trkpt>
      <trkpt lat="44.60219" lon="5.01141">
        <ele>249</ele>
      </trkpt>
      <trkpt lat="44.60381" lon="5.01277">
        <ele>249</ele>
      </trkpt>
      <trkpt lat="44.60392" lon="5.01285">
        <ele>249</ele>
      </trkpt>
      <trkpt lat="44.60403" lon="5.01286">
        <ele>249</ele>
      </trkpt>
      <trkpt lat="44.60441" lon="5.01281">
        <ele>257</ele>
      </trkpt>
      <trkpt lat="44.60511" lon="5.01271">
        <ele>260</ele>
      </trkpt>
      <trkpt lat="44.60516" lon="5.01268">
        <ele>259</ele>
      </trkpt>
      <trkpt lat="44.60523" lon="5.01253">
        <ele>255</ele>
      </trkpt>
      <trkpt lat="44.60557" lon="5.01086">
        <ele>256</ele>
      </trkpt>
      <trkpt lat="44.60574" lon="5.01042">
        <ele>260</ele>
      </trkpt>
      <trkpt lat="44.60608" lon="5.01028">
        <ele>263</ele>
      </trkpt>
      <trkpt lat="44.60643" lon="5.01028">
        <ele>262</ele>
      </trkpt>
      <trkpt lat="44.60766" lon="5.01043">
        <ele>258</ele>
      </trkpt>
      <trkpt lat="44.60892" lon="5.01088">
        <ele>253</ele>
      </trkpt>
      <trkpt lat="44.60996" lon="5.01117">
        <ele>254</ele>
      </trkpt>
      <trkpt lat="44.61044" lon="5.01118">
        <ele>256</ele>
      </trkpt>
      <trkpt lat="44.61076" lon="5.01109">
        <ele>259</ele>
      </trkpt>
      <trkpt lat="44.61106" lon="5.01096">
        <ele>260</ele>
      </trkpt>
      <trkpt lat="44.61371" lon="5.00938">
        <ele>263</ele>
      </trkpt>
      <trkpt lat="44.61519" lon="5.00854">
        <ele>256</ele>
      </trkpt>
      <trkpt lat="44.61584" lon="5.00821">
        <ele>255</ele>
      </trkpt>
      <trkpt lat="44.61718" lon="5.00745">
        <ele>259</ele>
      </trkpt>
      <trkpt lat="44.62062" lon="5.00551">
        <ele>265</ele>
      </trkpt>
      <trkpt lat="44.62221" lon="5.00464">
        <ele>267</ele>
      </trkpt>
      <trkpt lat="44.62272" lon="5.00453">
        <ele>271</ele>
      </trkpt>
      <trkpt lat="44.62356" lon="5.00505">
        <ele>270</ele>
      </trkpt>
      <trkpt lat="44.62565" lon="5.00662">
        <ele>267</ele>
      </trkpt>
      <trkpt lat="44.62564" lon="5.00684">
        <ele>267</ele>
      </trkpt>
      <trkpt lat="44.62565" lon="5.00726">
        <ele>266</ele>
      </trkpt>
      <trkpt lat="44.62579" lon="5.0097">
        <ele>269</ele>
      </trkpt>
      <trkpt lat="44.62583" lon="5.01009">
        <ele>270</ele>
      </trkpt>
      <trkpt lat="44.62587" lon="5.01034">
        <ele>270</ele>
      </trkpt>
      <trkpt lat="44.62609" lon="5.0111">
        <ele>271</ele>
      </trkpt>
      <trkpt lat="44.62618" lon="5.01168">
        <ele>272</ele>
      </trkpt>
      <trkpt lat="44.62618" lon="5.01257">
        <ele>273</ele>
      </trkpt>
      <trkpt lat="44.62616" lon="5.01281">
        <ele>272</ele>
      </trkpt>
      <trkpt lat="44.6261" lon="5.01309">
        <ele>271</ele>
      </trkpt>
      <trkpt lat="44.62602" lon="5.01364">
        <ele>271</ele>
      </trkpt>
      <trkpt lat="44.62599" lon="5.01382">
        <ele>269</ele>
      </trkpt>
      <trkpt lat="44.62512" lon="5.01617">
        <ele>277</ele>
      </trkpt>
      <trkpt lat="44.62509" lon="5.0164">
        <ele>277</ele>
      </trkpt>
      <trkpt lat="44.62512" lon="5.01675">
        <ele>277</ele>
      </trkpt>
      <trkpt lat="44.6252" lon="5.01706">
        <ele>284</ele>
      </trkpt>
      <trkpt lat="44.62535" lon="5.01738">
        <ele>288</ele>
      </trkpt>
      <trkpt lat="44.62554" lon="5.01789">
        <ele>298</ele>
      </trkpt>
      <trkpt lat="44.62561" lon="5.01811">
        <ele>302</ele>
      </trkpt>
      <trkpt lat="44.62562" lon="5.0182">
        <ele>301</ele>
      </trkpt>
      <trkpt lat="44.62561" lon="5.01829">
        <ele>302</ele>
      </trkpt>
      <trkpt lat="44.62556" lon="5.01855">
        <ele>306</ele>
      </trkpt>
      <trkpt lat="44.62547" lon="5.01882">
        <ele>311</ele>
      </trkpt>
      <trkpt lat="44.62518" lon="5.01939">
        <ele>305</ele>
      </trkpt>
      <trkpt lat="44.62499" lon="5.01993">
        <ele>299</ele>
      </trkpt>
      <trkpt lat="44.62497" lon="5.02002">
        <ele>300</ele>
      </trkpt>
      <trkpt lat="44.62495" lon="5.02021">
        <ele>299</ele>
      </trkpt>
      <trkpt lat="44.62496" lon="5.0204">
        <ele>298</ele>
      </trkpt>
      <trkpt lat="44.625" lon="5.02055">
        <ele>297</ele>
      </trkpt>
      <trkpt lat="44.62507" lon="5.02064">
        <ele>293</ele>
      </trkpt>
      <trkpt lat="44.62541" lon="5.02074">
        <ele>300</ele>
      </trkpt>
      <trkpt lat="44.62581" lon="5.02102">
        <ele>310</ele>
      </trkpt>
      <trkpt lat="44.62587" lon="5.02108">
        <ele>311</ele>
      </trkpt>
      <trkpt lat="44.62597" lon="5.02124">
        <ele>305</ele>
      </trkpt>
      <trkpt lat="44.62602" lon="5.02135">
        <ele>314</ele>
      </trkpt>
      <trkpt lat="44.62616" lon="5.02177">
        <ele>302</ele>
      </trkpt>
      <trkpt lat="44.62629" lon="5.02233">
        <ele>312</ele>
      </trkpt>
      <trkpt lat="44.6263" lon="5.02257">
        <ele>312</ele>
      </trkpt>
      <trkpt lat="44.62629" lon="5.02281">
        <ele>310</ele>
      </trkpt>
      <trkpt lat="44.6262" lon="5.02384">
        <ele>300</ele>
      </trkpt>
      <trkpt lat="44.6259" lon="5.0257">
        <ele>308</ele>
      </trkpt>
      <trkpt lat="44.62587" lon="5.02615">
        <ele>309</ele>
      </trkpt>
      <trkpt lat="44.62588" lon="5.02667">
        <ele>310</ele>
      </trkpt>
      <trkpt lat="44.62596" lon="5.02723">
        <ele>302</ele>
      </trkpt>
      <trkpt lat="44.62609" lon="5.02768">
        <ele>308</ele>
      </trkpt>
      <trkpt lat="44.6263" lon="5.0283">
        <ele>314</ele>
      </trkpt>
      <trkpt lat="44.62637" lon="5.02844">
        <ele>311</ele>
      </trkpt>
      <trkpt lat="44.62658" lon="5.02877">
        <ele>316</ele>
      </trkpt>
      <trkpt lat="44.62665" lon="5.02895">
        <ele>314</ele>
      </trkpt>
      <trkpt lat="44.62674" lon="5.02926">
        <ele>312</ele>
      </trkpt>
      <trkpt lat="44.62677" lon="5.02948">
        <ele>309</ele>
      </trkpt>
      <trkpt lat="44.6268" lon="5.03014">
        <ele>303</ele>
      </trkpt>
      <trkpt lat="44.62691" lon="5.03063">
        <ele>309</ele>
      </trkpt>
      <trkpt lat="44.62692" lon="5.03076">
        <ele>309</ele>
      </trkpt>
      <trkpt lat="44.6269" lon="5.03093">
        <ele>307</ele>
      </trkpt>
      <trkpt lat="44.62684" lon="5.03121">
        <ele>300</ele>
      </trkpt>
      <trkpt lat="44.62682" lon="5.03142">
        <ele>301</ele>
      </trkpt>
      <trkpt lat="44.62682" lon="5.03183">
        <ele>304</ele>
      </trkpt>
      <trkpt lat="44.62684" lon="5.0321">
        <ele>306</ele>
      </trkpt>
      <trkpt lat="44.62697" lon="5.03275">
        <ele>310</ele>
      </trkpt>
      <trkpt lat="44.627" lon="5.03333">
        <ele>304</ele>
      </trkpt>
      <trkpt lat="44.62703" lon="5.03363">
        <ele>303</ele>
      </trkpt>
      <trkpt lat="44.62717" lon="5.03446">
        <ele>309</ele>
      </trkpt>
      <trkpt lat="44.62721" lon="5.03503">
        <ele>312</ele>
      </trkpt>
      <trkpt lat="44.62713" lon="5.03583">
        <ele>312</ele>
      </trkpt>
      <trkpt lat="44.62705" lon="5.03699">
        <ele>298</ele>
      </trkpt>
      <trkpt lat="44.62709" lon="5.03731">
        <ele>296</ele>
      </trkpt>
      <trkpt lat="44.62715" lon="5.03749">
        <ele>300</ele>
      </trkpt>
      <trkpt lat="44.62759" lon="5.03847">
        <ele>299</ele>
      </trkpt>
      <trkpt lat="44.62791" lon="5.03926">
        <ele>295</ele>
      </trkpt>
      <trkpt lat="44.62802" lon="5.03943">
        <ele>299</ele>
      </trkpt>
      <trkpt lat="44.62812" lon="5.03954">
        <ele>295</ele>
      </trkpt>
      <trkpt lat="44.62828" lon="5.03967">
        <ele>298</ele>
      </trkpt>
      <trkpt lat="44.62972" lon="5.04055">
        <ele>300</ele>
      </trkpt>
      <trkpt lat="44.63032" lon="5.04079">
        <ele>297</ele>
      </trkpt>
      <trkpt lat="44.63058" lon="5.04086">
        <ele>293</ele>
      </trkpt>
      <trkpt lat="44.63097" lon="5.04091">
        <ele>293</ele>
      </trkpt>
      <trkpt lat="44.63502" lon="5.04118">
        <ele>303</ele>
      </trkpt>
      <trkpt lat="44.63514" lon="5.0412">
        <ele>304</ele>
      </trkpt>
      <trkpt lat="44.63526" lon="5.04127">
        <ele>306</ele>
      </trkpt>
      <trkpt lat="44.63539" lon="5.04139">
        <ele>306</ele>
      </trkpt>
      <trkpt lat="44.63632" lon="5.04252">
        <ele>310</ele>
      </trkpt>
      <trkpt lat="44.63646" lon="5.04272">
        <ele>310</ele>
      </trkpt>
      <trkpt lat="44.63757" lon="5.04498">
        <ele>319</ele>
      </trkpt>
      <trkpt lat="44.63766" lon="5.04518">
        <ele>319</ele>
      </trkpt>
      <trkpt lat="44.6377" lon="5.04533">
        <ele>321</ele>
      </trkpt>
      <trkpt lat="44.63781" lon="5.0463">
        <ele>314</ele>
      </trkpt>
      <trkpt lat="44.63785" lon="5.04648">
        <ele>311</ele>
      </trkpt>
      <trkpt lat="44.63792" lon="5.04664">
        <ele>310</ele>
      </trkpt>
      <trkpt lat="44.638" lon="5.04679">
        <ele>309</ele>
      </trkpt>
      <trkpt lat="44.64039" lon="5.04967">
        <ele>309</ele>
      </trkpt>
      <trkpt lat="44.64064" lon="5.04987">
        <ele>308</ele>
      </trkpt>
      <trkpt lat="44.64118" lon="5.05016">
        <ele>312</ele>
      </trkpt>
      <trkpt lat="44.64134" lon="5.05027">
        <ele>313</ele>
      </trkpt>
      <trkpt lat="44.64161" lon="5.05051">
        <ele>314</ele>
      </trkpt>
      <trkpt lat="44.64352" lon="5.05269">
        <ele>328</ele>
      </trkpt>
      <trkpt lat="44.64358" lon="5.05273">
        <ele>328</ele>
      </trkpt>
      <trkpt lat="44.64367" lon="5.05275">
        <ele>329</ele>
      </trkpt>
      <trkpt lat="44.64372" lon="5.05316">
        <ele>325</ele>
      </trkpt>
      <trkpt lat="44.64377" lon="5.05335">
        <ele>324</ele>
      </trkpt>
      <trkpt lat="44.64454" lon="5.05556">
        <ele>328</ele>
      </trkpt>
      <trkpt lat="44.64465" lon="5.05595">
        <ele>327</ele>
      </trkpt>
      <trkpt lat="44.64478" lon="5.05664">
        <ele>326</ele>
      </trkpt>
      <trkpt lat="44.64476" lon="5.05667">
        <ele>325</ele>
      </trkpt>
      <trkpt lat="44.64475" lon="5.05679">
        <ele>326</ele>
      </trkpt>
      <trkpt lat="44.6448" lon="5.05689">
        <ele>325</ele>
      </trkpt>
      <trkpt lat="44.64483" lon="5.05691">
        <ele>325</ele>
      </trkpt>
      <trkpt lat="44.64495" lon="5.05729">
        <ele>326</ele>
      </trkpt>
      <trkpt lat="44.64563" lon="5.06019">
        <ele>329</ele>
      </trkpt>
      <trkpt lat="44.64584" lon="5.0612">
        <ele>329</ele>
      </trkpt>
      <trkpt lat="44.64585" lon="5.06127">
        <ele>329</ele>
      </trkpt>
      <trkpt lat="44.64584" lon="5.06141">
        <ele>330</ele>
      </trkpt>
      <trkpt lat="44.64562" lon="5.06206">
        <ele>330</ele>
      </trkpt>
      <trkpt lat="44.64562" lon="5.06217">
        <ele>330</ele>
      </trkpt>
      <trkpt lat="44.64564" lon="5.06231">
        <ele>330</ele>
      </trkpt>
      <trkpt lat="44.64568" lon="5.06244">
        <ele>330</ele>
      </trkpt>
      <trkpt lat="44.64585" lon="5.0627">
        <ele>330</ele>
      </trkpt>
      <trkpt lat="44.64589" lon="5.06286">
        <ele>329</ele>
      </trkpt>
      <trkpt lat="44.64591" lon="5.06327">
        <ele>329</ele>
      </trkpt>
      <trkpt lat="44.64592" lon="5.06334">
        <ele>329</ele>
      </trkpt>
      <trkpt lat="44.64606" lon="5.06362">
        <ele>329</ele>
      </trkpt>
      <trkpt lat="44.6471" lon="5.06514">
        <ele>333</ele>
      </trkpt>
      <trkpt lat="44.6472" lon="5.06534">
        <ele>335</ele>
      </trkpt>
      <trkpt lat="44.64782" lon="5.06767">
        <ele>346</ele>
      </trkpt>
      <trkpt lat="44.64787" lon="5.06801">
        <ele>347</ele>
      </trkpt>
      <trkpt lat="44.64791" lon="5.06916">
        <ele>344</ele>
      </trkpt>
      <trkpt lat="44.64792" lon="5.06985">
        <ele>346</ele>
      </trkpt>
      <trkpt lat="44.64794" lon="5.07005">
        <ele>346</ele>
      </trkpt>
      <trkpt lat="44.64823" lon="5.0714">
        <ele>348</ele>
      </trkpt>
      <trkpt lat="44.64836" lon="5.07175">
        <ele>350</ele>
      </trkpt>
      <trkpt lat="44.64881" lon="5.07262">
        <ele>356</ele>
      </trkpt>
      <trkpt lat="44.64917" lon="5.07335">
        <ele>360</ele>
      </trkpt>
      <trkpt lat="44.64922" lon="5.07354">
        <ele>360</ele>
      </trkpt>
      <trkpt lat="44.64973" lon="5.07693">
        <ele>368</ele>
      </trkpt>
      <trkpt lat="44.64979" lon="5.07776">
        <ele>366</ele>
      </trkpt>
      <trkpt lat="44.64982" lon="5.07798">
        <ele>365</ele>
      </trkpt>
      <trkpt lat="44.64992" lon="5.07838">
        <ele>367</ele>
      </trkpt>
      <trkpt lat="44.65013" lon="5.07885">
        <ele>367</ele>
      </trkpt>
      <trkpt lat="44.65094" lon="5.08042">
        <ele>368</ele>
      </trkpt>
      <trkpt lat="44.65158" lon="5.08232">
        <ele>379</ele>
      </trkpt>
      <trkpt lat="44.65171" lon="5.08281">
        <ele>381</ele>
      </trkpt>
      <trkpt lat="44.65192" lon="5.0841">
        <ele>381</ele>
      </trkpt>
      <trkpt lat="44.652" lon="5.08449">
        <ele>380</ele>
      </trkpt>
      <trkpt lat="44.65237" lon="5.08563">
        <ele>382</ele>
      </trkpt>
      <trkpt lat="44.65271" lon="5.08679">
        <ele>386</ele>
      </trkpt>
      <trkpt lat="44.65325" lon="5.08822">
        <ele>405</ele>
      </trkpt>
      <trkpt lat="44.65338" lon="5.0886">
        <ele>401</ele>
      </trkpt>
      <trkpt lat="44.65371" lon="5.09032">
        <ele>398</ele>
      </trkpt>
      <trkpt lat="44.65381" lon="5.09108">
        <ele>403</ele>
      </trkpt>
      <trkpt lat="44.65395" lon="5.09182">
        <ele>397</ele>
      </trkpt>
      <trkpt lat="44.654" lon="5.09228">
        <ele>400</ele>
      </trkpt>
      <trkpt lat="44.65402" lon="5.09311">
        <ele>401</ele>
      </trkpt>
      <trkpt lat="44.65411" lon="5.09357">
        <ele>406</ele>
      </trkpt>
      <trkpt lat="44.65434" lon="5.09403">
        <ele>398</ele>
      </trkpt>
      <trkpt lat="44.65455" lon="5.0943">
        <ele>393</ele>
      </trkpt>
      <trkpt lat="44.65474" lon="5.09461">
        <ele>389</ele>
      </trkpt>
      <trkpt lat="44.65506" lon="5.0953">
        <ele>399</ele>
      </trkpt>
      <trkpt lat="44.65516" lon="5.09547">
        <ele>398</ele>
      </trkpt>
      <trkpt lat="44.65523" lon="5.09552">
        <ele>397</ele>
      </trkpt>
      <trkpt lat="44.65531" lon="5.09551">
        <ele>396</ele>
      </trkpt>
      <trkpt lat="44.65551" lon="5.09544">
        <ele>398</ele>
      </trkpt>
      <trkpt lat="44.65629" lon="5.09554">
        <ele>399</ele>
      </trkpt>
      <trkpt lat="44.65691" lon="5.09557">
        <ele>404</ele>
      </trkpt>
      <trkpt lat="44.65725" lon="5.09565">
        <ele>400</ele>
      </trkpt>
      <trkpt lat="44.65757" lon="5.09556">
        <ele>403</ele>
      </trkpt>
      <trkpt lat="44.65785" lon="5.09538">
        <ele>403</ele>
      </trkpt>
      <trkpt lat="44.65809" lon="5.09512">
        <ele>402</ele>
      </trkpt>
      <trkpt lat="44.65865" lon="5.09391">
        <ele>405</ele>
      </trkpt>
      <trkpt lat="44.65881" lon="5.09341">
        <ele>403</ele>
      </trkpt>
      <trkpt lat="44.65894" lon="5.09261">
        <ele>405</ele>
      </trkpt>
      <trkpt lat="44.65941" lon="5.08905">
        <ele>409</ele>
      </trkpt>
      <trkpt lat="44.65946" lon="5.08837">
        <ele>412</ele>
      </trkpt>
      <trkpt lat="44.65956" lon="5.08785">
        <ele>416</ele>
      </trkpt>
      <trkpt lat="44.65973" lon="5.08641">
        <ele>418</ele>
      </trkpt>
      <trkpt lat="44.65979" lon="5.08602">
        <ele>420</ele>
      </trkpt>
      <trkpt lat="44.65991" lon="5.08553">
        <ele>422</ele>
      </trkpt>
      <trkpt lat="44.66016" lon="5.08479">
        <ele>425</ele>
      </trkpt>
      <trkpt lat="44.6602" lon="5.08467">
        <ele>425</ele>
      </trkpt>
      <trkpt lat="44.66027" lon="5.08457">
        <ele>425</ele>
      </trkpt>
      <trkpt lat="44.6605" lon="5.0843">
        <ele>427</ele>
      </trkpt>
      <trkpt lat="44.66058" lon="5.08425">
        <ele>427</ele>
      </trkpt>
      <trkpt lat="44.66084" lon="5.08416">
        <ele>431</ele>
      </trkpt>
      <trkpt lat="44.66103" lon="5.08402">
        <ele>435</ele>
      </trkpt>
      <trkpt lat="44.66109" lon="5.08393">
        <ele>435</ele>
      </trkpt>
      <trkpt lat="44.66119" lon="5.08372">
        <ele>437</ele>
      </trkpt>
      <trkpt lat="44.66123" lon="5.0836">
        <ele>437</ele>
      </trkpt>
      <trkpt lat="44.66132" lon="5.08315">
        <ele>440</ele>
      </trkpt>
      <trkpt lat="44.66131" lon="5.08287">
        <ele>443</ele>
      </trkpt>
      <trkpt lat="44.66127" lon="5.08274">
        <ele>444</ele>
      </trkpt>
      <trkpt lat="44.66114" lon="5.0825">
        <ele>447</ele>
      </trkpt>
      <trkpt lat="44.66106" lon="5.08231">
        <ele>448</ele>
      </trkpt>
      <trkpt lat="44.66084" lon="5.08144">
        <ele>453</ele>
      </trkpt>
      <trkpt lat="44.66082" lon="5.08133">
        <ele>456</ele>
      </trkpt>
      <trkpt lat="44.66082" lon="5.08095">
        <ele>460</ele>
      </trkpt>
      <trkpt lat="44.6608" lon="5.0809">
        <ele>460</ele>
      </trkpt>
      <trkpt lat="44.66055" lon="5.08078">
        <ele>455</ele>
      </trkpt>
      <trkpt lat="44.66047" lon="5.0807">
        <ele>455</ele>
      </trkpt>
      <trkpt lat="44.66042" lon="5.0806">
        <ele>452</ele>
      </trkpt>
      <trkpt lat="44.66017" lon="5.07992">
        <ele>462</ele>
      </trkpt>
      <trkpt lat="44.65993" lon="5.07941">
        <ele>471</ele>
      </trkpt>
      <trkpt lat="44.65977" lon="5.07915">
        <ele>472</ele>
      </trkpt>
      <trkpt lat="44.65948" lon="5.07854">
        <ele>481</ele>
      </trkpt>
      <trkpt lat="44.65932" lon="5.07826">
        <ele>480</ele>
      </trkpt>
      <trkpt lat="44.65903" lon="5.07786">
        <ele>480</ele>
      </trkpt>
      <trkpt lat="44.65901" lon="5.07781">
        <ele>480</ele>
      </trkpt>
      <trkpt lat="44.65904" lon="5.07773">
        <ele>484</ele>
      </trkpt>
      <trkpt lat="44.6591" lon="5.07773">
        <ele>487</ele>
      </trkpt>
      <trkpt lat="44.65949" lon="5.0781">
        <ele>488</ele>
      </trkpt>
      <trkpt lat="44.6598" lon="5.07854">
        <ele>487</ele>
      </trkpt>
      <trkpt lat="44.66008" lon="5.07882">
        <ele>486</ele>
      </trkpt>
      <trkpt lat="44.66028" lon="5.07892">
        <ele>486</ele>
      </trkpt>
      <trkpt lat="44.66047" lon="5.07897">
        <ele>489</ele>
      </trkpt>
      <trkpt lat="44.66086" lon="5.07895">
        <ele>490</ele>
      </trkpt>
      <trkpt lat="44.66093" lon="5.07891">
        <ele>492</ele>
      </trkpt>
      <trkpt lat="44.661" lon="5.07883">
        <ele>492</ele>
      </trkpt>
      <trkpt lat="44.66118" lon="5.07855">
        <ele>495</ele>
      </trkpt>
      <trkpt lat="44.66143" lon="5.07824">
        <ele>499</ele>
      </trkpt>
      <trkpt lat="44.66194" lon="5.07786">
        <ele>507</ele>
      </trkpt>
      <trkpt lat="44.66205" lon="5.07774">
        <ele>508</ele>
      </trkpt>
      <trkpt lat="44.66214" lon="5.07758">
        <ele>511</ele>
      </trkpt>
      <trkpt lat="44.66246" lon="5.0769">
        <ele>510</ele>
      </trkpt>
      <trkpt lat="44.66251" lon="5.07669">
        <ele>509</ele>
      </trkpt>
      <trkpt lat="44.66254" lon="5.07644">
        <ele>508</ele>
      </trkpt>
      <trkpt lat="44.66254" lon="5.07631">
        <ele>507</ele>
      </trkpt>
      <trkpt lat="44.66246" lon="5.07578">
        <ele>506</ele>
      </trkpt>
      <trkpt lat="44.6622" lon="5.07438">
        <ele>497</ele>
      </trkpt>
      <trkpt lat="44.66217" lon="5.07414">
        <ele>496</ele>
      </trkpt>
      <trkpt lat="44.66217" lon="5.07374">
        <ele>495</ele>
      </trkpt>
      <trkpt lat="44.6622" lon="5.07317">
        <ele>490</ele>
      </trkpt>
      <trkpt lat="44.66218" lon="5.07296">
        <ele>487</ele>
      </trkpt>
      <trkpt lat="44.66214" lon="5.07287">
        <ele>487</ele>
      </trkpt>
      <trkpt lat="44.66209" lon="5.07281">
        <ele>487</ele>
      </trkpt>
      <trkpt lat="44.66182" lon="5.07266">
        <ele>489</ele>
      </trkpt>
      <trkpt lat="44.66164" lon="5.07259">
        <ele>489</ele>
      </trkpt>
      <trkpt lat="44.66161" lon="5.07256">
        <ele>489</ele>
      </trkpt>
      <trkpt lat="44.66159" lon="5.07252">
        <ele>489</ele>
      </trkpt>
      <trkpt lat="44.66166" lon="5.07246">
        <ele>489</ele>
      </trkpt>
      <trkpt lat="44.66174" lon="5.07243">
        <ele>488</ele>
      </trkpt>
      <trkpt lat="44.66218" lon="5.07239">
        <ele>483</ele>
      </trkpt>
      <trkpt lat="44.66227" lon="5.07236">
        <ele>482</ele>
      </trkpt>
      <trkpt lat="44.66241" lon="5.07227">
        <ele>484</ele>
      </trkpt>
      <trkpt lat="44.66248" lon="5.07211">
        <ele>482</ele>
      </trkpt>
      <trkpt lat="44.66256" lon="5.07175">
        <ele>481</ele>
      </trkpt>
      <trkpt lat="44.66267" lon="5.0714">
        <ele>478</ele>
      </trkpt>
      <trkpt lat="44.66284" lon="5.07091">
        <ele>470</ele>
      </trkpt>
      <trkpt lat="44.66296" lon="5.07055">
        <ele>462</ele>
      </trkpt>
      <trkpt lat="44.66295" lon="5.07043">
        <ele>462</ele>
      </trkpt>
      <trkpt lat="44.66288" lon="5.07033">
        <ele>461</ele>
      </trkpt>
      <trkpt lat="44.66274" lon="5.07022">
        <ele>461</ele>
      </trkpt>
      <trkpt lat="44.66258" lon="5.07013">
        <ele>463</ele>
      </trkpt>
      <trkpt lat="44.66221" lon="5.06996">
        <ele>467</ele>
      </trkpt>
      <trkpt lat="44.66216" lon="5.06991">
        <ele>467</ele>
      </trkpt>
      <trkpt lat="44.66217" lon="5.06984">
        <ele>467</ele>
      </trkpt>
      <trkpt lat="44.66219" lon="5.06981">
        <ele>466</ele>
      </trkpt>
      <trkpt lat="44.66225" lon="5.06978">
        <ele>466</ele>
      </trkpt>
      <trkpt lat="44.66237" lon="5.06981">
        <ele>466</ele>
      </trkpt>
      <trkpt lat="44.66271" lon="5.07">
        <ele>461</ele>
      </trkpt>
      <trkpt lat="44.6632" lon="5.0702">
        <ele>458</ele>
      </trkpt>
      <trkpt lat="44.66335" lon="5.07023">
        <ele>457</ele>
      </trkpt>
      <trkpt lat="44.66345" lon="5.07021">
        <ele>457</ele>
      </trkpt>
      <trkpt lat="44.66363" lon="5.07014">
        <ele>457</ele>
      </trkpt>
      <trkpt lat="44.66374" lon="5.07007">
        <ele>458</ele>
      </trkpt>
      <trkpt lat="44.66412" lon="5.06953">
        <ele>455</ele>
      </trkpt>
      <trkpt lat="44.66452" lon="5.06929">
        <ele>449</ele>
      </trkpt>
      <trkpt lat="44.66468" lon="5.06912">
        <ele>450</ele>
      </trkpt>
      <trkpt lat="44.66483" lon="5.0691">
        <ele>450</ele>
      </trkpt>
      <trkpt lat="44.66527" lon="5.0692">
        <ele>453</ele>
      </trkpt>
      <trkpt lat="44.66545" lon="5.06917">
        <ele>450</ele>
      </trkpt>
      <trkpt lat="44.66561" lon="5.06918">
        <ele>446</ele>
      </trkpt>
      <trkpt lat="44.66584" lon="5.06926">
        <ele>443</ele>
      </trkpt>
      <trkpt lat="44.66607" lon="5.06957">
        <ele>452</ele>
      </trkpt>
      <trkpt lat="44.66626" lon="5.06969">
        <ele>454</ele>
      </trkpt>
      <trkpt lat="44.66647" lon="5.06976">
        <ele>473</ele>
      </trkpt>
      <trkpt lat="44.6668" lon="5.06963">
        <ele>447</ele>
      </trkpt>
      <trkpt lat="44.66696" lon="5.06962">
        <ele>432</ele>
      </trkpt>
      <trkpt lat="44.6672" lon="5.06959">
        <ele>422</ele>
      </trkpt>
      <trkpt lat="44.66792" lon="5.06927">
        <ele>406</ele>
      </trkpt>
      <trkpt lat="44.66823" lon="5.0692">
        <ele>411</ele>
      </trkpt>
      <trkpt lat="44.6687" lon="5.06914">
        <ele>403</ele>
      </trkpt>
      <trkpt lat="44.66885" lon="5.06909">
        <ele>399</ele>
      </trkpt>
      <trkpt lat="44.66915" lon="5.06892">
        <ele>396</ele>
      </trkpt>
      <trkpt lat="44.66931" lon="5.06888">
        <ele>389</ele>
      </trkpt>
      <trkpt lat="44.66958" lon="5.06884">
        <ele>388</ele>
      </trkpt>
      <trkpt lat="44.66992" lon="5.0689">
        <ele>382</ele>
      </trkpt>
      <trkpt lat="44.67006" lon="5.06888">
        <ele>381</ele>
      </trkpt>
      <trkpt lat="44.67028" lon="5.06881">
        <ele>377</ele>
      </trkpt>
      <trkpt lat="44.6709" lon="5.06889">
        <ele>374</ele>
      </trkpt>
      <trkpt lat="44.67108" lon="5.06888">
        <ele>371</ele>
      </trkpt>
      <trkpt lat="44.67187" lon="5.06859">
        <ele>362</ele>
      </trkpt>
      <trkpt lat="44.67201" lon="5.06851">
        <ele>362</ele>
      </trkpt>
      <trkpt lat="44.67228" lon="5.06828">
        <ele>361</ele>
      </trkpt>
      <trkpt lat="44.67288" lon="5.06794">
        <ele>362</ele>
      </trkpt>
      <trkpt lat="44.67365" lon="5.06755">
        <ele>360</ele>
      </trkpt>
      <trkpt lat="44.67449" lon="5.06729">
        <ele>353</ele>
      </trkpt>
      <trkpt lat="44.67458" lon="5.06729">
        <ele>353</ele>
      </trkpt>
      <trkpt lat="44.67484" lon="5.06739">
        <ele>353</ele>
      </trkpt>
      <trkpt lat="44.67504" lon="5.06743">
        <ele>351</ele>
      </trkpt>
      <trkpt lat="44.67519" lon="5.06741">
        <ele>350</ele>
      </trkpt>
      <trkpt lat="44.67554" lon="5.06728">
        <ele>347</ele>
      </trkpt>
      <trkpt lat="44.6757" lon="5.06728">
        <ele>346</ele>
      </trkpt>
      <trkpt lat="44.67586" lon="5.06732">
        <ele>345</ele>
      </trkpt>
      <trkpt lat="44.6766" lon="5.06758">
        <ele>335</ele>
      </trkpt>
      <trkpt lat="44.67666" lon="5.06764">
        <ele>335</ele>
      </trkpt>
      <trkpt lat="44.67671" lon="5.06775">
        <ele>335</ele>
      </trkpt>
      <trkpt lat="44.67674" lon="5.06789">
        <ele>338</ele>
      </trkpt>
      <trkpt lat="44.67685" lon="5.06811">
        <ele>341</ele>
      </trkpt>
      <trkpt lat="44.67692" lon="5.06816">
        <ele>340</ele>
      </trkpt>
      <trkpt lat="44.67708" lon="5.06818">
        <ele>340</ele>
      </trkpt>
      <trkpt lat="44.67718" lon="5.06805">
        <ele>336</ele>
      </trkpt>
      <trkpt lat="44.6772" lon="5.06796">
        <ele>336</ele>
      </trkpt>
      <trkpt lat="44.67719" lon="5.06786">
        <ele>336</ele>
      </trkpt>
      <trkpt lat="44.67722" lon="5.0677">
        <ele>334</ele>
      </trkpt>
      <trkpt lat="44.67727" lon="5.06756">
        <ele>333</ele>
      </trkpt>
      <trkpt lat="44.67731" lon="5.0675">
        <ele>332</ele>
      </trkpt>
      <trkpt lat="44.67747" lon="5.06744">
        <ele>331</ele>
      </trkpt>
      <trkpt lat="44.67846" lon="5.06722">
        <ele>321</ele>
      </trkpt>
      <trkpt lat="44.67854" lon="5.06722">
        <ele>319</ele>
      </trkpt>
      <trkpt lat="44.6786" lon="5.06726">
        <ele>318</ele>
      </trkpt>
      <trkpt lat="44.67865" lon="5.06731">
        <ele>318</ele>
      </trkpt>
      <trkpt lat="44.67868" lon="5.06741">
        <ele>318</ele>
      </trkpt>
      <trkpt lat="44.67868" lon="5.06832">
        <ele>322</ele>
      </trkpt>
      <trkpt lat="44.67873" lon="5.06851">
        <ele>323</ele>
      </trkpt>
      <trkpt lat="44.67878" lon="5.06855">
        <ele>323</ele>
      </trkpt>
      <trkpt lat="44.67887" lon="5.06857">
        <ele>324</ele>
      </trkpt>
      <trkpt lat="44.67895" lon="5.06853">
        <ele>324</ele>
      </trkpt>
      <trkpt lat="44.67901" lon="5.06844">
        <ele>324</ele>
      </trkpt>
      <trkpt lat="44.67913" lon="5.06809">
        <ele>324</ele>
      </trkpt>
      <trkpt lat="44.67924" lon="5.06723">
        <ele>317</ele>
      </trkpt>
      <trkpt lat="44.67968" lon="5.06601">
        <ele>311</ele>
      </trkpt>
      <trkpt lat="44.67985" lon="5.06571">
        <ele>308</ele>
      </trkpt>
      <trkpt lat="44.67999" lon="5.06554">
        <ele>307</ele>
      </trkpt>
      <trkpt lat="44.68006" lon="5.06542">
        <ele>306</ele>
      </trkpt>
      <trkpt lat="44.68033" lon="5.06485">
        <ele>302</ele>
      </trkpt>
      <trkpt lat="44.68046" lon="5.06465">
        <ele>300</ele>
      </trkpt>
      <trkpt lat="44.68116" lon="5.06379">
        <ele>296</ele>
      </trkpt>
      <trkpt lat="44.68386" lon="5.061">
        <ele>293</ele>
      </trkpt>
      <trkpt lat="44.68459" lon="5.0602">
        <ele>295</ele>
      </trkpt>
      <trkpt lat="44.68475" lon="5.05997">
        <ele>296</ele>
      </trkpt>
      <trkpt lat="44.68509" lon="5.05928">
        <ele>291</ele>
      </trkpt>
      <trkpt lat="44.68524" lon="5.05907">
        <ele>290</ele>
      </trkpt>
      <trkpt lat="44.68549" lon="5.05891">
        <ele>290</ele>
      </trkpt>
      <trkpt lat="44.68569" lon="5.05884">
        <ele>284</ele>
      </trkpt>
      <trkpt lat="44.68589" lon="5.05879">
        <ele>283</ele>
      </trkpt>
      <trkpt lat="44.68609" lon="5.05878">
        <ele>279</ele>
      </trkpt>
      <trkpt lat="44.68666" lon="5.05891">
        <ele>273</ele>
      </trkpt>
      <trkpt lat="44.68687" lon="5.05902">
        <ele>270</ele>
      </trkpt>
      <trkpt lat="44.68697" lon="5.05912">
        <ele>270</ele>
      </trkpt>
      <trkpt lat="44.6874" lon="5.05969">
        <ele>274</ele>
      </trkpt>
      <trkpt lat="44.68747" lon="5.05973">
        <ele>276</ele>
      </trkpt>
      <trkpt lat="44.68755" lon="5.05973">
        <ele>276</ele>
      </trkpt>
      <trkpt lat="44.68762" lon="5.05969">
        <ele>276</ele>
      </trkpt>
      <trkpt lat="44.68768" lon="5.05961">
        <ele>277</ele>
      </trkpt>
      <trkpt lat="44.68793" lon="5.05906">
        <ele>274</ele>
      </trkpt>
      <trkpt lat="44.68801" lon="5.05894">
        <ele>277</ele>
      </trkpt>
      <trkpt lat="44.68824" lon="5.05878">
        <ele>274</ele>
      </trkpt>
      <trkpt lat="44.6886" lon="5.05859">
        <ele>275</ele>
      </trkpt>
      <trkpt lat="44.68913" lon="5.05828">
        <ele>271</ele>
      </trkpt>
      <trkpt lat="44.6893" lon="5.05816">
        <ele>271</ele>
      </trkpt>
      <trkpt lat="44.68978" lon="5.05776">
        <ele>270</ele>
      </trkpt>
      <trkpt lat="44.69085" lon="5.05685">
        <ele>263</ele>
      </trkpt>
      <trkpt lat="44.69192" lon="5.05565">
        <ele>257</ele>
      </trkpt>
      <trkpt lat="44.69201" lon="5.05558">
        <ele>257</ele>
      </trkpt>
      <trkpt lat="44.6922" lon="5.05555">
        <ele>253</ele>
      </trkpt>
      <trkpt lat="44.69233" lon="5.05559">
        <ele>255</ele>
      </trkpt>
      <trkpt lat="44.69351" lon="5.05597">
        <ele>252</ele>
      </trkpt>
      <trkpt lat="44.69401" lon="5.05617">
        <ele>252</ele>
      </trkpt>
      <trkpt lat="44.69429" lon="5.05625">
        <ele>252</ele>
      </trkpt>
      <trkpt lat="44.69467" lon="5.0563">
        <ele>251</ele>
      </trkpt>
      <trkpt lat="44.69604" lon="5.05639">
        <ele>247</ele>
      </trkpt>
      <trkpt lat="44.69639" lon="5.05648">
        <ele>245</ele>
      </trkpt>
      <trkpt lat="44.69757" lon="5.05726">
        <ele>242</ele>
      </trkpt>
      <trkpt lat="44.6977" lon="5.05731">
        <ele>241</ele>
      </trkpt>
      <trkpt lat="44.69948" lon="5.05742">
        <ele>233</ele>
      </trkpt>
      <trkpt lat="44.69961" lon="5.05747">
        <ele>234</ele>
      </trkpt>
      <trkpt lat="44.7" lon="5.05772">
        <ele>234</ele>
      </trkpt>
      <trkpt lat="44.70041" lon="5.05794">
        <ele>232</ele>
      </trkpt>
      <trkpt lat="44.70079" lon="5.05816">
        <ele>226</ele>
      </trkpt>
      <trkpt lat="44.70094" lon="5.05827">
        <ele>226</ele>
      </trkpt>
      <trkpt lat="44.70122" lon="5.05853">
        <ele>227</ele>
      </trkpt>
      <trkpt lat="44.70135" lon="5.0586">
        <ele>228</ele>
      </trkpt>
      <trkpt lat="44.70187" lon="5.0587">
        <ele>230</ele>
      </trkpt>
      <trkpt lat="44.7025" lon="5.05915">
        <ele>229</ele>
      </trkpt>
      <trkpt lat="44.7027" lon="5.05925">
        <ele>228</ele>
      </trkpt>
      <trkpt lat="44.70295" lon="5.05947">
        <ele>229</ele>
      </trkpt>
      <trkpt lat="44.70309" lon="5.05957">
        <ele>230</ele>
      </trkpt>
      <trkpt lat="44.70326" lon="5.05962">
        <ele>229</ele>
      </trkpt>
      <trkpt lat="44.70352" lon="5.05962">
        <ele>229</ele>
      </trkpt>
      <trkpt lat="44.70397" lon="5.05967">
        <ele>227</ele>
      </trkpt>
      <trkpt lat="44.70425" lon="5.05966">
        <ele>226</ele>
      </trkpt>
      <trkpt lat="44.70456" lon="5.05971">
        <ele>226</ele>
      </trkpt>
      <trkpt lat="44.70472" lon="5.05969">
        <ele>226</ele>
      </trkpt>
      <trkpt lat="44.70508" lon="5.05957">
        <ele>225</ele>
      </trkpt>
      <trkpt lat="44.70569" lon="5.05943">
        <ele>223</ele>
      </trkpt>
      <trkpt lat="44.70707" lon="5.059">
        <ele>219</ele>
      </trkpt>
      <trkpt lat="44.70789" lon="5.05885">
        <ele>215</ele>
      </trkpt>
      <trkpt lat="44.70943" lon="5.05839">
        <ele>208</ele>
      </trkpt>
      <trkpt lat="44.70957" lon="5.05837">
        <ele>207</ele>
      </trkpt>
      <trkpt lat="44.70985" lon="5.05843">
        <ele>207</ele>
      </trkpt>
      <trkpt lat="44.70988" lon="5.05853">
        <ele>207</ele>
      </trkpt>
      <trkpt lat="44.70997" lon="5.0586">
        <ele>207</ele>
      </trkpt>
      <trkpt lat="44.71006" lon="5.05859">
        <ele>207</ele>
      </trkpt>
      <trkpt lat="44.71014" lon="5.05848">
        <ele>207</ele>
      </trkpt>
      <trkpt lat="44.71033" lon="5.05834">
        <ele>206</ele>
      </trkpt>
      <trkpt lat="44.71096" lon="5.05805">
        <ele>203</ele>
      </trkpt>
      <trkpt lat="44.71257" lon="5.05747">
        <ele>203</ele>
      </trkpt>
      <trkpt lat="44.71258" lon="5.05761">
        <ele>202</ele>
      </trkpt>
      <trkpt lat="44.71233" lon="5.05851">
        <ele>201</ele>
      </trkpt>
      <trkpt lat="44.71222" lon="5.05875">
        <ele>200</ele>
      </trkpt>
      <trkpt lat="44.712" lon="5.05904">
        <ele>201</ele>
      </trkpt>
      <trkpt lat="44.71143" lon="5.06011">
        <ele>201</ele>
      </trkpt>
      <trkpt lat="44.71133" lon="5.06037">
        <ele>201</ele>
      </trkpt>
      <trkpt lat="44.71124" lon="5.06067">
        <ele>203</ele>
      </trkpt>
      <trkpt lat="44.71052" lon="5.06325">
        <ele>203</ele>
      </trkpt>
      <trkpt lat="44.71046" lon="5.0634">
        <ele>203</ele>
      </trkpt>
      <trkpt lat="44.71042" lon="5.06344">
        <ele>203</ele>
      </trkpt>
      <trkpt lat="44.71036" lon="5.06344">
        <ele>203</ele>
      </trkpt>
      <trkpt lat="44.71033" lon="5.06379">
        <ele>203</ele>
      </trkpt>
      <trkpt lat="44.7103" lon="5.06392">
        <ele>203</ele>
      </trkpt>
      <trkpt lat="44.71014" lon="5.06432">
        <ele>204</ele>
      </trkpt>
      <trkpt lat="44.71002" lon="5.06473">
        <ele>205</ele>
      </trkpt>
      <trkpt lat="44.70998" lon="5.06493">
        <ele>206</ele>
      </trkpt>
      <trkpt lat="44.70993" lon="5.06558">
        <ele>207</ele>
      </trkpt>
      <trkpt lat="44.70993" lon="5.06625">
        <ele>207</ele>
      </trkpt>
      <trkpt lat="44.70997" lon="5.06731">
        <ele>208</ele>
      </trkpt>
      <trkpt lat="44.71004" lon="5.06884">
        <ele>209</ele>
      </trkpt>
      <trkpt lat="44.7103" lon="5.07368">
        <ele>209</ele>
      </trkpt>
      <trkpt lat="44.71059" lon="5.07372">
        <ele>209</ele>
      </trkpt>
      <trkpt lat="44.71062" lon="5.07386">
        <ele>209</ele>
      </trkpt>
      <trkpt lat="44.7105" lon="5.07651">
        <ele>210</ele>
      </trkpt>
      <trkpt lat="44.71042" lon="5.07683">
        <ele>210</ele>
      </trkpt>
      <trkpt lat="44.7104" lon="5.07757">
        <ele>208</ele>
      </trkpt>
      <trkpt lat="44.71033" lon="5.07832">
        <ele>209</ele>
      </trkpt>
      <trkpt lat="44.71018" lon="5.07925">
        <ele>209</ele>
      </trkpt>
      <trkpt lat="44.70995" lon="5.08014">
        <ele>209</ele>
      </trkpt>
      <trkpt lat="44.70947" lon="5.08134">
        <ele>210</ele>
      </trkpt>
      <trkpt lat="44.70716" lon="5.08531">
        <ele>215</ele>
      </trkpt>
      <trkpt lat="44.7069" lon="5.08583">
        <ele>215</ele>
      </trkpt>
      <trkpt lat="44.70666" lon="5.08651">
        <ele>215</ele>
      </trkpt>
      <trkpt lat="44.70653" lon="5.08704">
        <ele>215</ele>
      </trkpt>
      <trkpt lat="44.70636" lon="5.08825">
        <ele>215</ele>
      </trkpt>
      <trkpt lat="44.70629" lon="5.08876">
        <ele>216</ele>
      </trkpt>
      <trkpt lat="44.70628" lon="5.08919">
        <ele>216</ele>
      </trkpt>
      <trkpt lat="44.70619" lon="5.08915">
        <ele>216</ele>
      </trkpt>
      <trkpt lat="44.70525" lon="5.08892">
        <ele>218</ele>
      </trkpt>
      <trkpt lat="44.70515" lon="5.08888">
        <ele>218</ele>
      </trkpt>
      <trkpt lat="44.70498" lon="5.0887">
        <ele>218</ele>
      </trkpt>
      <trkpt lat="44.70498" lon="5.08863">
        <ele>217</ele>
      </trkpt>
      <trkpt lat="44.70494" lon="5.08854">
        <ele>217</ele>
      </trkpt>
      <trkpt lat="44.70488" lon="5.08848">
        <ele>217</ele>
      </trkpt>
      <trkpt lat="44.7048" lon="5.08847">
        <ele>216</ele>
      </trkpt>
      <trkpt lat="44.70476" lon="5.08849">
        <ele>216</ele>
      </trkpt>
      <trkpt lat="44.7047" lon="5.08856">
        <ele>217</ele>
      </trkpt>
      <trkpt lat="44.7045" lon="5.08859">
        <ele>217</ele>
      </trkpt>
      <trkpt lat="44.70445" lon="5.08865">
        <ele>217</ele>
      </trkpt>
      <trkpt lat="44.70442" lon="5.08884">
        <ele>217</ele>
      </trkpt>
      <trkpt lat="44.70372" lon="5.09129">
        <ele>218</ele>
      </trkpt>
      <trkpt lat="44.70366" lon="5.09161">
        <ele>219</ele>
      </trkpt>
      <trkpt lat="44.70358" lon="5.09404">
        <ele>219</ele>
      </trkpt>
      <trkpt lat="44.70355" lon="5.09435">
        <ele>220</ele>
      </trkpt>
      <trkpt lat="44.70349" lon="5.09466">
        <ele>220</ele>
      </trkpt>
      <trkpt lat="44.70334" lon="5.0951">
        <ele>219</ele>
      </trkpt>
      <trkpt lat="44.70309" lon="5.09554">
        <ele>219</ele>
      </trkpt>
      <trkpt lat="44.70243" lon="5.097">
        <ele>222</ele>
      </trkpt>
      <trkpt lat="44.70229" lon="5.09726">
        <ele>223</ele>
      </trkpt>
      <trkpt lat="44.70203" lon="5.09844">
        <ele>223</ele>
      </trkpt>
      <trkpt lat="44.70207" lon="5.09883">
        <ele>223</ele>
      </trkpt>
      <trkpt lat="44.70223" lon="5.0993">
        <ele>223</ele>
      </trkpt>
      <trkpt lat="44.70215" lon="5.09965">
        <ele>222</ele>
      </trkpt>
      <trkpt lat="44.70203" lon="5.10073">
        <ele>224</ele>
      </trkpt>
      <trkpt lat="44.70182" lon="5.10154">
        <ele>225</ele>
      </trkpt>
      <trkpt lat="44.70138" lon="5.10284">
        <ele>225</ele>
      </trkpt>
      <trkpt lat="44.70112" lon="5.10367">
        <ele>225</ele>
      </trkpt>
      <trkpt lat="44.70018" lon="5.10812">
        <ele>229</ele>
      </trkpt>
      <trkpt lat="44.70007" lon="5.10862">
        <ele>230</ele>
      </trkpt>
      <trkpt lat="44.69944" lon="5.11044">
        <ele>230</ele>
      </trkpt>
      <trkpt lat="44.69916" lon="5.11113">
        <ele>230</ele>
      </trkpt>
      <trkpt lat="44.6989" lon="5.11179">
        <ele>228</ele>
      </trkpt>
      <trkpt lat="44.69884" lon="5.1121">
        <ele>227</ele>
      </trkpt>
      <trkpt lat="44.69864" lon="5.11405">
        <ele>230</ele>
      </trkpt>
      <trkpt lat="44.69855" lon="5.11439">
        <ele>231</ele>
      </trkpt>
      <trkpt lat="44.69816" lon="5.11551">
        <ele>233</ele>
      </trkpt>
      <trkpt lat="44.69781" lon="5.11631">
        <ele>230</ele>
      </trkpt>
      <trkpt lat="44.69726" lon="5.11743">
        <ele>233</ele>
      </trkpt>
      <trkpt lat="44.69577" lon="5.12019">
        <ele>228</ele>
      </trkpt>
      <trkpt lat="44.69538" lon="5.12126">
        <ele>232</ele>
      </trkpt>
      <trkpt lat="44.69522" lon="5.12181">
        <ele>232</ele>
      </trkpt>
      <trkpt lat="44.69518" lon="5.12213">
        <ele>234</ele>
      </trkpt>
      <trkpt lat="44.69513" lon="5.12307">
        <ele>234</ele>
      </trkpt>
      <trkpt lat="44.6951" lon="5.125">
        <ele>232</ele>
      </trkpt>
      <trkpt lat="44.69511" lon="5.12547">
        <ele>232</ele>
      </trkpt>
      <trkpt lat="44.69523" lon="5.12693">
        <ele>232</ele>
      </trkpt>
      <trkpt lat="44.69517" lon="5.12823">
        <ele>233</ele>
      </trkpt>
      <trkpt lat="44.69503" lon="5.12984">
        <ele>234</ele>
      </trkpt>
      <trkpt lat="44.69489" lon="5.1304">
        <ele>233</ele>
      </trkpt>
      <trkpt lat="44.69436" lon="5.13273">
        <ele>234</ele>
      </trkpt>
      <trkpt lat="44.69401" lon="5.13533">
        <ele>236</ele>
      </trkpt>
      <trkpt lat="44.69369" lon="5.13752">
        <ele>238</ele>
      </trkpt>
      <trkpt lat="44.6937" lon="5.13774">
        <ele>238</ele>
      </trkpt>
      <trkpt lat="44.69376" lon="5.13821">
        <ele>239</ele>
      </trkpt>
      <trkpt lat="44.69372" lon="5.13831">
        <ele>239</ele>
      </trkpt>
      <trkpt lat="44.69335" lon="5.13855">
        <ele>242</ele>
      </trkpt>
      <trkpt lat="44.69299" lon="5.13929">
        <ele>246</ele>
      </trkpt>
      <trkpt lat="44.69276" lon="5.13993">
        <ele>249</ele>
      </trkpt>
      <trkpt lat="44.69271" lon="5.14019">
        <ele>249</ele>
      </trkpt>
      <trkpt lat="44.69269" lon="5.14066">
        <ele>253</ele>
      </trkpt>
      <trkpt lat="44.69273" lon="5.14309">
        <ele>251</ele>
      </trkpt>
      <trkpt lat="44.69261" lon="5.14496">
        <ele>250</ele>
      </trkpt>
      <trkpt lat="44.6926" lon="5.14575">
        <ele>251</ele>
      </trkpt>
      <trkpt lat="44.69262" lon="5.14649">
        <ele>249</ele>
      </trkpt>
      <trkpt lat="44.69238" lon="5.14807">
        <ele>252</ele>
      </trkpt>
      <trkpt lat="44.69236" lon="5.14886">
        <ele>252</ele>
      </trkpt>
      <trkpt lat="44.69224" lon="5.15088">
        <ele>250</ele>
      </trkpt>
      <trkpt lat="44.69246" lon="5.15164">
        <ele>248</ele>
      </trkpt>
      <trkpt lat="44.69286" lon="5.15274">
        <ele>250</ele>
      </trkpt>
      <trkpt lat="44.69291" lon="5.15335">
        <ele>252</ele>
      </trkpt>
      <trkpt lat="44.69293" lon="5.15393">
        <ele>252</ele>
      </trkpt>
      <trkpt lat="44.69297" lon="5.15429">
        <ele>253</ele>
      </trkpt>
      <trkpt lat="44.69302" lon="5.15452">
        <ele>254</ele>
      </trkpt>
      <trkpt lat="44.69308" lon="5.15476">
        <ele>254</ele>
      </trkpt>
      <trkpt lat="44.69326" lon="5.15527">
        <ele>257</ele>
      </trkpt>
      <trkpt lat="44.69337" lon="5.15554">
        <ele>258</ele>
      </trkpt>
      <trkpt lat="44.69359" lon="5.15598">
        <ele>257</ele>
      </trkpt>
      <trkpt lat="44.69378" lon="5.1563">
        <ele>255</ele>
      </trkpt>
      <trkpt lat="44.69416" lon="5.15707">
        <ele>250</ele>
      </trkpt>
      <trkpt lat="44.69446" lon="5.15749">
        <ele>248</ele>
      </trkpt>
      <trkpt lat="44.69461" lon="5.15765">
        <ele>249</ele>
      </trkpt>
      <trkpt lat="44.69466" lon="5.15774">
        <ele>248</ele>
      </trkpt>
      <trkpt lat="44.69468" lon="5.15785">
        <ele>248</ele>
      </trkpt>
      <trkpt lat="44.69468" lon="5.158">
        <ele>248</ele>
      </trkpt>
      <trkpt lat="44.69462" lon="5.15832">
        <ele>248</ele>
      </trkpt>
      <trkpt lat="44.69455" lon="5.15858">
        <ele>247</ele>
      </trkpt>
      <trkpt lat="44.69451" lon="5.15869">
        <ele>246</ele>
      </trkpt>
      <trkpt lat="44.69446" lon="5.15894">
        <ele>246</ele>
      </trkpt>
      <trkpt lat="44.69442" lon="5.15967">
        <ele>245</ele>
      </trkpt>
      <trkpt lat="44.69419" lon="5.16071">
        <ele>245</ele>
      </trkpt>
      <trkpt lat="44.69411" lon="5.16154">
        <ele>246</ele>
      </trkpt>
      <trkpt lat="44.69404" lon="5.16211">
        <ele>246</ele>
      </trkpt>
      <trkpt lat="44.69393" lon="5.16268">
        <ele>243</ele>
      </trkpt>
      <trkpt lat="44.69389" lon="5.16308">
        <ele>244</ele>
      </trkpt>
      <trkpt lat="44.69389" lon="5.16355">
        <ele>245</ele>
      </trkpt>
      <trkpt lat="44.69392" lon="5.16432">
        <ele>247</ele>
      </trkpt>
      <trkpt lat="44.69387" lon="5.16503">
        <ele>247</ele>
      </trkpt>
      <trkpt lat="44.69367" lon="5.16635">
        <ele>249</ele>
      </trkpt>
      <trkpt lat="44.69333" lon="5.16738">
        <ele>246</ele>
      </trkpt>
      <trkpt lat="44.69311" lon="5.16773">
        <ele>247</ele>
      </trkpt>
      <trkpt lat="44.69264" lon="5.16828">
        <ele>254</ele>
      </trkpt>
      <trkpt lat="44.69251" lon="5.16856">
        <ele>253</ele>
      </trkpt>
      <trkpt lat="44.69243" lon="5.16885">
        <ele>252</ele>
      </trkpt>
      <trkpt lat="44.69229" lon="5.16983">
        <ele>250</ele>
      </trkpt>
      <trkpt lat="44.69211" lon="5.1708">
        <ele>253</ele>
      </trkpt>
      <trkpt lat="44.69211" lon="5.1713">
        <ele>251</ele>
      </trkpt>
      <trkpt lat="44.6922" lon="5.17266">
        <ele>251</ele>
      </trkpt>
      <trkpt lat="44.69213" lon="5.17315">
        <ele>253</ele>
      </trkpt>
      <trkpt lat="44.69219" lon="5.17347">
        <ele>251</ele>
      </trkpt>
      <trkpt lat="44.69227" lon="5.17372">
        <ele>251</ele>
      </trkpt>
      <trkpt lat="44.69236" lon="5.17427">
        <ele>251</ele>
      </trkpt>
      <trkpt lat="44.69248" lon="5.17521">
        <ele>250</ele>
      </trkpt>
      <trkpt lat="44.69245" lon="5.17539">
        <ele>250</ele>
      </trkpt>
      <trkpt lat="44.69239" lon="5.17559">
        <ele>251</ele>
      </trkpt>
      <trkpt lat="44.69237" lon="5.17576">
        <ele>250</ele>
      </trkpt>
      <trkpt lat="44.69246" lon="5.17588">
        <ele>250</ele>
      </trkpt>
      <trkpt lat="44.69267" lon="5.17593">
        <ele>250</ele>
      </trkpt>
      <trkpt lat="44.69265" lon="5.17714">
        <ele>252</ele>
      </trkpt>
      <trkpt lat="44.69256" lon="5.1781">
        <ele>252</ele>
      </trkpt>
      <trkpt lat="44.69207" lon="5.18166">
        <ele>253</ele>
      </trkpt>
      <trkpt lat="44.69204" lon="5.18207">
        <ele>253</ele>
      </trkpt>
      <trkpt lat="44.69203" lon="5.18264">
        <ele>255</ele>
      </trkpt>
      <trkpt lat="44.69204" lon="5.18291">
        <ele>255</ele>
      </trkpt>
      <trkpt lat="44.69215" lon="5.18377">
        <ele>254</ele>
      </trkpt>
      <trkpt lat="44.69272" lon="5.18705">
        <ele>258</ele>
      </trkpt>
      <trkpt lat="44.69291" lon="5.18762">
        <ele>257</ele>
      </trkpt>
      <trkpt lat="44.69315" lon="5.18826">
        <ele>256</ele>
      </trkpt>
      <trkpt lat="44.69371" lon="5.18951">
        <ele>256</ele>
      </trkpt>
      <trkpt lat="44.69397" lon="5.19022">
        <ele>256</ele>
      </trkpt>
      <trkpt lat="44.6942" lon="5.19099">
        <ele>260</ele>
      </trkpt>
      <trkpt lat="44.69434" lon="5.19171">
        <ele>263</ele>
      </trkpt>
      <trkpt lat="44.69471" lon="5.19447">
        <ele>265</ele>
      </trkpt>
      <trkpt lat="44.69487" lon="5.19641">
        <ele>267</ele>
      </trkpt>
      <trkpt lat="44.69501" lon="5.19794">
        <ele>266</ele>
      </trkpt>
      <trkpt lat="44.69506" lon="5.19895">
        <ele>265</ele>
      </trkpt>
      <trkpt lat="44.69503" lon="5.19946">
        <ele>265</ele>
      </trkpt>
      <trkpt lat="44.69497" lon="5.19991">
        <ele>269</ele>
      </trkpt>
      <trkpt lat="44.69467" lon="5.20091">
        <ele>275</ele>
      </trkpt>
      <trkpt lat="44.69456" lon="5.20118">
        <ele>275</ele>
      </trkpt>
      <trkpt lat="44.69407" lon="5.20263">
        <ele>274</ele>
      </trkpt>
      <trkpt lat="44.69378" lon="5.20328">
        <ele>270</ele>
      </trkpt>
      <trkpt lat="44.6929" lon="5.20512">
        <ele>274</ele>
      </trkpt>
      <trkpt lat="44.69258" lon="5.2057">
        <ele>279</ele>
      </trkpt>
      <trkpt lat="44.69192" lon="5.20672">
        <ele>282</ele>
      </trkpt>
      <trkpt lat="44.69102" lon="5.2079">
        <ele>290</ele>
      </trkpt>
      <trkpt lat="44.69058" lon="5.20854">
        <ele>289</ele>
      </trkpt>
      <trkpt lat="44.69035" lon="5.20908">
        <ele>291</ele>
      </trkpt>
      <trkpt lat="44.69025" lon="5.20956">
        <ele>290</ele>
      </trkpt>
      <trkpt lat="44.69026" lon="5.21015">
        <ele>295</ele>
      </trkpt>
      <trkpt lat="44.6902" lon="5.21064">
        <ele>306</ele>
      </trkpt>
      <trkpt lat="44.68981" lon="5.21158">
        <ele>286</ele>
      </trkpt>
      <trkpt lat="44.6898" lon="5.21191">
        <ele>286</ele>
      </trkpt>
      <trkpt lat="44.68989" lon="5.21225">
        <ele>286</ele>
      </trkpt>
      <trkpt lat="44.69089" lon="5.21338">
        <ele>287</ele>
      </trkpt>
      <trkpt lat="44.69136" lon="5.21396">
        <ele>296</ele>
      </trkpt>
      <trkpt lat="44.69157" lon="5.21434">
        <ele>293</ele>
      </trkpt>
      <trkpt lat="44.69171" lon="5.21473">
        <ele>302</ele>
      </trkpt>
      <trkpt lat="44.69178" lon="5.21519">
        <ele>302</ele>
      </trkpt>
      <trkpt lat="44.6917" lon="5.21577">
        <ele>302</ele>
      </trkpt>
      <trkpt lat="44.69148" lon="5.21634">
        <ele>293</ele>
      </trkpt>
      <trkpt lat="44.6912" lon="5.21686">
        <ele>288</ele>
      </trkpt>
      <trkpt lat="44.69081" lon="5.21747">
        <ele>281</ele>
      </trkpt>
      <trkpt lat="44.69053" lon="5.21824">
        <ele>282</ele>
      </trkpt>
      <trkpt lat="44.69038" lon="5.2191">
        <ele>280</ele>
      </trkpt>
      <trkpt lat="44.69026" lon="5.22002">
        <ele>281</ele>
      </trkpt>
      <trkpt lat="44.68873" lon="5.22839">
        <ele>284</ele>
      </trkpt>
      <trkpt lat="44.68861" lon="5.22928">
        <ele>293</ele>
      </trkpt>
      <trkpt lat="44.68863" lon="5.23012">
        <ele>300</ele>
      </trkpt>
      <trkpt lat="44.68879" lon="5.23109">
        <ele>300</ele>
      </trkpt>
      <trkpt lat="44.68884" lon="5.23177">
        <ele>302</ele>
      </trkpt>
      <trkpt lat="44.68881" lon="5.23392">
        <ele>302</ele>
      </trkpt>
      <trkpt lat="44.68883" lon="5.23441">
        <ele>302</ele>
      </trkpt>
      <trkpt lat="44.68892" lon="5.2352">
        <ele>299</ele>
      </trkpt>
      <trkpt lat="44.68905" lon="5.2358">
        <ele>298</ele>
      </trkpt>
      <trkpt lat="44.68922" lon="5.23636">
        <ele>297</ele>
      </trkpt>
      <trkpt lat="44.68999" lon="5.2376">
        <ele>291</ele>
      </trkpt>
      <trkpt lat="44.6897" lon="5.23814">
        <ele>285</ele>
      </trkpt>
      <trkpt lat="44.68969" lon="5.23821">
        <ele>286</ele>
      </trkpt>
      <trkpt lat="44.68972" lon="5.23827">
        <ele>286</ele>
      </trkpt>
      <trkpt lat="44.69045" lon="5.2388">
        <ele>290</ele>
      </trkpt>
      <trkpt lat="44.69084" lon="5.23916">
        <ele>285</ele>
      </trkpt>
      <trkpt lat="44.69196" lon="5.23958">
        <ele>289</ele>
      </trkpt>
      <trkpt lat="44.69254" lon="5.23987">
        <ele>284</ele>
      </trkpt>
      <trkpt lat="44.69312" lon="5.24038">
        <ele>284</ele>
      </trkpt>
      <trkpt lat="44.69381" lon="5.24155">
        <ele>287</ele>
      </trkpt>
      <trkpt lat="44.69459" lon="5.24294">
        <ele>286</ele>
      </trkpt>
      <trkpt lat="44.6953" lon="5.24432">
        <ele>286</ele>
      </trkpt>
      <trkpt lat="44.69575" lon="5.24596">
        <ele>286</ele>
      </trkpt>
      <trkpt lat="44.69614" lon="5.2478">
        <ele>287</ele>
      </trkpt>
      <trkpt lat="44.69627" lon="5.24909">
        <ele>289</ele>
      </trkpt>
      <trkpt lat="44.69619" lon="5.25044">
        <ele>289</ele>
      </trkpt>
      <trkpt lat="44.69636" lon="5.25227">
        <ele>289</ele>
      </trkpt>
      <trkpt lat="44.69634" lon="5.25288">
        <ele>291</ele>
      </trkpt>
      <trkpt lat="44.69603" lon="5.25393">
        <ele>290</ele>
      </trkpt>
      <trkpt lat="44.69587" lon="5.25451">
        <ele>297</ele>
      </trkpt>
      <trkpt lat="44.69576" lon="5.25515">
        <ele>295</ele>
      </trkpt>
      <trkpt lat="44.69567" lon="5.25541">
        <ele>295</ele>
      </trkpt>
      <trkpt lat="44.69531" lon="5.25596">
        <ele>294</ele>
      </trkpt>
      <trkpt lat="44.69494" lon="5.25665">
        <ele>295</ele>
      </trkpt>
      <trkpt lat="44.69477" lon="5.25702">
        <ele>298</ele>
      </trkpt>
      <trkpt lat="44.69457" lon="5.25823">
        <ele>297</ele>
      </trkpt>
      <trkpt lat="44.69464" lon="5.2587">
        <ele>294</ele>
      </trkpt>
      <trkpt lat="44.6951" lon="5.25981">
        <ele>292</ele>
      </trkpt>
      <trkpt lat="44.69572" lon="5.26132">
        <ele>298</ele>
      </trkpt>
      <trkpt lat="44.69641" lon="5.26098">
        <ele>300</ele>
      </trkpt>
      <trkpt lat="44.69699" lon="5.26101">
        <ele>301</ele>
      </trkpt>
      <trkpt lat="44.69739" lon="5.26123">
        <ele>301</ele>
      </trkpt>
      <trkpt lat="44.69794" lon="5.26163">
        <ele>299</ele>
      </trkpt>
      <trkpt lat="44.6982" lon="5.26199">
        <ele>298</ele>
      </trkpt>
      <trkpt lat="44.69851" lon="5.26263">
        <ele>301</ele>
      </trkpt>
      <trkpt lat="44.69885" lon="5.26371">
        <ele>299</ele>
      </trkpt>
      <trkpt lat="44.699" lon="5.26448">
        <ele>300</ele>
      </trkpt>
      <trkpt lat="44.69922" lon="5.26487">
        <ele>301</ele>
      </trkpt>
      <trkpt lat="44.69958" lon="5.26517">
        <ele>300</ele>
      </trkpt>
      <trkpt lat="44.70033" lon="5.26562">
        <ele>302</ele>
      </trkpt>
      <trkpt lat="44.7005" lon="5.26557">
        <ele>302</ele>
      </trkpt>
      <trkpt lat="44.70093" lon="5.26531">
        <ele>301</ele>
      </trkpt>
      <trkpt lat="44.70133" lon="5.26521">
        <ele>301</ele>
      </trkpt>
      <trkpt lat="44.70152" lon="5.26531">
        <ele>301</ele>
      </trkpt>
      <trkpt lat="44.70182" lon="5.26568">
        <ele>302</ele>
      </trkpt>
      <trkpt lat="44.70255" lon="5.26687">
        <ele>302</ele>
      </trkpt>
      <trkpt lat="44.70316" lon="5.26781">
        <ele>307</ele>
      </trkpt>
      <trkpt lat="44.704" lon="5.26866">
        <ele>305</ele>
      </trkpt>
      <trkpt lat="44.70506" lon="5.26966">
        <ele>306</ele>
      </trkpt>
      <trkpt lat="44.70709" lon="5.27033">
        <ele>303</ele>
      </trkpt>
      <trkpt lat="44.70754" lon="5.27061">
        <ele>304</ele>
      </trkpt>
      <trkpt lat="44.70804" lon="5.27104">
        <ele>310</ele>
      </trkpt>
      <trkpt lat="44.70858" lon="5.27145">
        <ele>311</ele>
      </trkpt>
      <trkpt lat="44.70914" lon="5.27151">
        <ele>309</ele>
      </trkpt>
      <trkpt lat="44.7097" lon="5.27151">
        <ele>308</ele>
      </trkpt>
      <trkpt lat="44.71129" lon="5.27221">
        <ele>308</ele>
      </trkpt>
      <trkpt lat="44.71158" lon="5.27239">
        <ele>309</ele>
      </trkpt>
      <trkpt lat="44.7121" lon="5.27282">
        <ele>310</ele>
      </trkpt>
      <trkpt lat="44.71234" lon="5.27293">
        <ele>311</ele>
      </trkpt>
      <trkpt lat="44.71295" lon="5.27315">
        <ele>311</ele>
      </trkpt>
      <trkpt lat="44.7131" lon="5.27326">
        <ele>311</ele>
      </trkpt>
      <trkpt lat="44.71342" lon="5.27357">
        <ele>314</ele>
      </trkpt>
      <trkpt lat="44.71356" lon="5.27366">
        <ele>315</ele>
      </trkpt>
      <trkpt lat="44.71365" lon="5.27367">
        <ele>315</ele>
      </trkpt>
      <trkpt lat="44.71385" lon="5.27365">
        <ele>315</ele>
      </trkpt>
      <trkpt lat="44.71416" lon="5.27357">
        <ele>314</ele>
      </trkpt>
      <trkpt lat="44.71556" lon="5.27339">
        <ele>317</ele>
      </trkpt>
      <trkpt lat="44.71686" lon="5.27299">
        <ele>317</ele>
      </trkpt>
      <trkpt lat="44.71721" lon="5.27297">
        <ele>316</ele>
      </trkpt>
      <trkpt lat="44.71799" lon="5.27308">
        <ele>318</ele>
      </trkpt>
      <trkpt lat="44.7207" lon="5.27301">
        <ele>315</ele>
      </trkpt>
      <trkpt lat="44.72107" lon="5.27296">
        <ele>315</ele>
      </trkpt>
      <trkpt lat="44.72162" lon="5.27268">
        <ele>317</ele>
      </trkpt>
      <trkpt lat="44.72192" lon="5.27258">
        <ele>320</ele>
      </trkpt>
      <trkpt lat="44.72255" lon="5.27245">
        <ele>321</ele>
      </trkpt>
      <trkpt lat="44.72272" lon="5.27238">
        <ele>323</ele>
      </trkpt>
      <trkpt lat="44.72304" lon="5.27215">
        <ele>321</ele>
      </trkpt>
      <trkpt lat="44.72327" lon="5.27203">
        <ele>321</ele>
      </trkpt>
      <trkpt lat="44.72348" lon="5.27204">
        <ele>321</ele>
      </trkpt>
      <trkpt lat="44.725" lon="5.27281">
        <ele>322</ele>
      </trkpt>
      <trkpt lat="44.72516" lon="5.27301">
        <ele>324</ele>
      </trkpt>
      <trkpt lat="44.72526" lon="5.27322">
        <ele>324</ele>
      </trkpt>
      <trkpt lat="44.72545" lon="5.27395">
        <ele>328</ele>
      </trkpt>
      <trkpt lat="44.72552" lon="5.27414">
        <ele>326</ele>
      </trkpt>
      <trkpt lat="44.72558" lon="5.27423">
        <ele>326</ele>
      </trkpt>
      <trkpt lat="44.72569" lon="5.27425">
        <ele>327</ele>
      </trkpt>
      <trkpt lat="44.72617" lon="5.27409">
        <ele>324</ele>
      </trkpt>
      <trkpt lat="44.72637" lon="5.27416">
        <ele>324</ele>
      </trkpt>
      <trkpt lat="44.72699" lon="5.27474">
        <ele>326</ele>
      </trkpt>
      <trkpt lat="44.72722" lon="5.27485">
        <ele>327</ele>
      </trkpt>
      <trkpt lat="44.72812" lon="5.27486">
        <ele>327</ele>
      </trkpt>
      <trkpt lat="44.72836" lon="5.27481">
        <ele>328</ele>
      </trkpt>
      <trkpt lat="44.72899" lon="5.27453">
        <ele>329</ele>
      </trkpt>
      <trkpt lat="44.72913" lon="5.27447">
        <ele>328</ele>
      </trkpt>
      <trkpt lat="44.72955" lon="5.27449">
        <ele>328</ele>
      </trkpt>
      <trkpt lat="44.73026" lon="5.27441">
        <ele>326</ele>
      </trkpt>
      <trkpt lat="44.73127" lon="5.27436">
        <ele>327</ele>
      </trkpt>
      <trkpt lat="44.7322" lon="5.27414">
        <ele>337</ele>
      </trkpt>
      <trkpt lat="44.73242" lon="5.27403">
        <ele>337</ele>
      </trkpt>
      <trkpt lat="44.73261" lon="5.2739">
        <ele>336</ele>
      </trkpt>
      <trkpt lat="44.73339" lon="5.27301">
        <ele>335</ele>
      </trkpt>
      <trkpt lat="44.73373" lon="5.27268">
        <ele>335</ele>
      </trkpt>
      <trkpt lat="44.73398" lon="5.27247">
        <ele>334</ele>
      </trkpt>
      <trkpt lat="44.73425" lon="5.27232">
        <ele>334</ele>
      </trkpt>
      <trkpt lat="44.73442" lon="5.27229">
        <ele>332</ele>
      </trkpt>
      <trkpt lat="44.73464" lon="5.27228">
        <ele>333</ele>
      </trkpt>
      <trkpt lat="44.73534" lon="5.27241">
        <ele>333</ele>
      </trkpt>
      <trkpt lat="44.73624" lon="5.27276">
        <ele>341</ele>
      </trkpt>
      <trkpt lat="44.73637" lon="5.27277">
        <ele>345</ele>
      </trkpt>
      <trkpt lat="44.73649" lon="5.27276">
        <ele>346</ele>
      </trkpt>
      <trkpt lat="44.73669" lon="5.27258">
        <ele>353</ele>
      </trkpt>
      <trkpt lat="44.7368" lon="5.27234">
        <ele>351</ele>
      </trkpt>
      <trkpt lat="44.73723" lon="5.27185">
        <ele>355</ele>
      </trkpt>
      <trkpt lat="44.73751" lon="5.27162">
        <ele>352</ele>
      </trkpt>
      <trkpt lat="44.73778" lon="5.2715">
        <ele>354</ele>
      </trkpt>
      <trkpt lat="44.73885" lon="5.27138">
        <ele>356</ele>
      </trkpt>
      <trkpt lat="44.73907" lon="5.27144">
        <ele>358</ele>
      </trkpt>
      <trkpt lat="44.73923" lon="5.27145">
        <ele>359</ele>
      </trkpt>
      <trkpt lat="44.73944" lon="5.2713">
        <ele>361</ele>
      </trkpt>
      <trkpt lat="44.73949" lon="5.27121">
        <ele>360</ele>
      </trkpt>
      <trkpt lat="44.73968" lon="5.27076">
        <ele>355</ele>
      </trkpt>
      <trkpt lat="44.73984" lon="5.27055">
        <ele>352</ele>
      </trkpt>
      <trkpt lat="44.74022" lon="5.27039">
        <ele>358</ele>
      </trkpt>
      <trkpt lat="44.74037" lon="5.27027">
        <ele>355</ele>
      </trkpt>
      <trkpt lat="44.74075" lon="5.26979">
        <ele>349</ele>
      </trkpt>
      <trkpt lat="44.74098" lon="5.26966">
        <ele>352</ele>
      </trkpt>
      <trkpt lat="44.74308" lon="5.268">
        <ele>357</ele>
      </trkpt>
      <trkpt lat="44.74348" lon="5.26758">
        <ele>361</ele>
      </trkpt>
      <trkpt lat="44.74366" lon="5.26729">
        <ele>356</ele>
      </trkpt>
      <trkpt lat="44.74379" lon="5.26702">
        <ele>354</ele>
      </trkpt>
      <trkpt lat="44.74395" lon="5.26679">
        <ele>352</ele>
      </trkpt>
      <trkpt lat="44.74414" lon="5.26658">
        <ele>350</ele>
      </trkpt>
      <trkpt lat="44.74427" lon="5.26648">
        <ele>350</ele>
      </trkpt>
      <trkpt lat="44.74444" lon="5.26647">
        <ele>355</ele>
      </trkpt>
      <trkpt lat="44.74457" lon="5.26634">
        <ele>348</ele>
      </trkpt>
      <trkpt lat="44.74498" lon="5.2661">
        <ele>346</ele>
      </trkpt>
      <trkpt lat="44.7452" lon="5.26602">
        <ele>346</ele>
      </trkpt>
      <trkpt lat="44.74552" lon="5.26598">
        <ele>356</ele>
      </trkpt>
      <trkpt lat="44.74589" lon="5.2658">
        <ele>353</ele>
      </trkpt>
      <trkpt lat="44.74606" lon="5.26566">
        <ele>357</ele>
      </trkpt>
      <trkpt lat="44.74663" lon="5.26496">
        <ele>340</ele>
      </trkpt>
      <trkpt lat="44.7468" lon="5.26486">
        <ele>340</ele>
      </trkpt>
      <trkpt lat="44.7473" lon="5.2649">
        <ele>349</ele>
      </trkpt>
      <trkpt lat="44.74759" lon="5.26482">
        <ele>349</ele>
      </trkpt>
      <trkpt lat="44.74798" lon="5.26468">
        <ele>345</ele>
      </trkpt>
      <trkpt lat="44.74825" lon="5.26454">
        <ele>348</ele>
      </trkpt>
      <trkpt lat="44.7485" lon="5.26432">
        <ele>344</ele>
      </trkpt>
      <trkpt lat="44.74862" lon="5.2643">
        <ele>345</ele>
      </trkpt>
      <trkpt lat="44.74934" lon="5.26434">
        <ele>342</ele>
      </trkpt>
      <trkpt lat="44.74946" lon="5.26437">
        <ele>339</ele>
      </trkpt>
      <trkpt lat="44.74968" lon="5.26452">
        <ele>340</ele>
      </trkpt>
      <trkpt lat="44.7499" lon="5.26459">
        <ele>339</ele>
      </trkpt>
      <trkpt lat="44.74993" lon="5.26457">
        <ele>339</ele>
      </trkpt>
      <trkpt lat="44.74957" lon="5.26425">
        <ele>339</ele>
      </trkpt>
      <trkpt lat="44.74935" lon="5.26402">
        <ele>337</ele>
      </trkpt>
      <trkpt lat="44.74887" lon="5.26336">
        <ele>337</ele>
      </trkpt>
      <trkpt lat="44.74896" lon="5.26328">
        <ele>337</ele>
      </trkpt>
      <trkpt lat="44.74928" lon="5.26327">
        <ele>339</ele>
      </trkpt>
      <trkpt lat="44.74938" lon="5.26337">
        <ele>343</ele>
      </trkpt>
      <trkpt lat="44.74928" lon="5.26327">
        <ele>339</ele>
      </trkpt>
      <trkpt lat="44.74896" lon="5.26328">
        <ele>337</ele>
      </trkpt>
      <trkpt lat="44.74887" lon="5.26336">
        <ele>337</ele>
      </trkpt>
      <trkpt lat="44.74935" lon="5.26402">
        <ele>337</ele>
      </trkpt>
      <trkpt lat="44.74957" lon="5.26425">
        <ele>339</ele>
      </trkpt>
      <trkpt lat="44.74993" lon="5.26457">
        <ele>339</ele>
      </trkpt>
      <trkpt lat="44.7499" lon="5.26459">
        <ele>339</ele>
      </trkpt>
      <trkpt lat="44.74968" lon="5.26452">
        <ele>340</ele>
      </trkpt>
      <trkpt lat="44.74946" lon="5.26437">
        <ele>339</ele>
      </trkpt>
      <trkpt lat="44.74934" lon="5.26434">
        <ele>342</ele>
      </trkpt>
      <trkpt lat="44.74862" lon="5.2643">
        <ele>345</ele>
      </trkpt>
      <trkpt lat="44.7485" lon="5.26432">
        <ele>344</ele>
      </trkpt>
      <trkpt lat="44.74825" lon="5.26454">
        <ele>348</ele>
      </trkpt>
      <trkpt lat="44.74798" lon="5.26468">
        <ele>345</ele>
      </trkpt>
      <trkpt lat="44.74759" lon="5.26482">
        <ele>349</ele>
      </trkpt>
      <trkpt lat="44.7473" lon="5.2649">
        <ele>349</ele>
      </trkpt>
      <trkpt lat="44.7468" lon="5.26486">
        <ele>340</ele>
      </trkpt>
      <trkpt lat="44.74663" lon="5.26496">
        <ele>340</ele>
      </trkpt>
      <trkpt lat="44.74606" lon="5.26566">
        <ele>357</ele>
      </trkpt>
      <trkpt lat="44.74589" lon="5.2658">
        <ele>353</ele>
      </trkpt>
      <trkpt lat="44.74552" lon="5.26598">
        <ele>356</ele>
      </trkpt>
      <trkpt lat="44.7452" lon="5.26602">
        <ele>346</ele>
      </trkpt>
      <trkpt lat="44.74498" lon="5.2661">
        <ele>346</ele>
      </trkpt>
      <trkpt lat="44.74457" lon="5.26634">
        <ele>348</ele>
      </trkpt>
      <trkpt lat="44.74444" lon="5.26647">
        <ele>355</ele>
      </trkpt>
      <trkpt lat="44.74427" lon="5.26648">
        <ele>350</ele>
      </trkpt>
      <trkpt lat="44.74414" lon="5.26658">
        <ele>350</ele>
      </trkpt>
      <trkpt lat="44.74395" lon="5.26679">
        <ele>352</ele>
      </trkpt>
      <trkpt lat="44.74379" lon="5.26702">
        <ele>354</ele>
      </trkpt>
      <trkpt lat="44.74366" lon="5.26729">
        <ele>356</ele>
      </trkpt>
      <trkpt lat="44.74348" lon="5.26758">
        <ele>361</ele>
      </trkpt>
      <trkpt lat="44.74308" lon="5.268">
        <ele>357</ele>
      </trkpt>
      <trkpt lat="44.74098" lon="5.26966">
        <ele>352</ele>
      </trkpt>
      <trkpt lat="44.74075" lon="5.26979">
        <ele>349</ele>
      </trkpt>
      <trkpt lat="44.74037" lon="5.27027">
        <ele>355</ele>
      </trkpt>
      <trkpt lat="44.74022" lon="5.27039">
        <ele>358</ele>
      </trkpt>
      <trkpt lat="44.73984" lon="5.27055">
        <ele>352</ele>
      </trkpt>
      <trkpt lat="44.73968" lon="5.27076">
        <ele>355</ele>
      </trkpt>
      <trkpt lat="44.73949" lon="5.27121">
        <ele>360</ele>
      </trkpt>
      <trkpt lat="44.73944" lon="5.2713">
        <ele>361</ele>
      </trkpt>
      <trkpt lat="44.73923" lon="5.27145">
        <ele>359</ele>
      </trkpt>
      <trkpt lat="44.73907" lon="5.27144">
        <ele>358</ele>
      </trkpt>
      <trkpt lat="44.73885" lon="5.27138">
        <ele>356</ele>
      </trkpt>
      <trkpt lat="44.73778" lon="5.2715">
        <ele>354</ele>
      </trkpt>
      <trkpt lat="44.73751" lon="5.27162">
        <ele>352</ele>
      </trkpt>
      <trkpt lat="44.73723" lon="5.27185">
        <ele>355</ele>
      </trkpt>
      <trkpt lat="44.7368" lon="5.27234">
        <ele>351</ele>
      </trkpt>
      <trkpt lat="44.73669" lon="5.27258">
        <ele>353</ele>
      </trkpt>
      <trkpt lat="44.73649" lon="5.27276">
        <ele>346</ele>
      </trkpt>
      <trkpt lat="44.73637" lon="5.27277">
        <ele>345</ele>
      </trkpt>
      <trkpt lat="44.73624" lon="5.27276">
        <ele>341</ele>
      </trkpt>
      <trkpt lat="44.73534" lon="5.27241">
        <ele>333</ele>
      </trkpt>
      <trkpt lat="44.73464" lon="5.27228">
        <ele>333</ele>
      </trkpt>
      <trkpt lat="44.73442" lon="5.27229">
        <ele>332</ele>
      </trkpt>
      <trkpt lat="44.73425" lon="5.27232">
        <ele>334</ele>
      </trkpt>
      <trkpt lat="44.73398" lon="5.27247">
        <ele>334</ele>
      </trkpt>
      <trkpt lat="44.73373" lon="5.27268">
        <ele>335</ele>
      </trkpt>
      <trkpt lat="44.73339" lon="5.27301">
        <ele>335</ele>
      </trkpt>
      <trkpt lat="44.73261" lon="5.2739">
        <ele>336</ele>
      </trkpt>
      <trkpt lat="44.73242" lon="5.27403">
        <ele>337</ele>
      </trkpt>
      <trkpt lat="44.7322" lon="5.27414">
        <ele>337</ele>
      </trkpt>
      <trkpt lat="44.73127" lon="5.27436">
        <ele>327</ele>
      </trkpt>
      <trkpt lat="44.73026" lon="5.27441">
        <ele>326</ele>
      </trkpt>
      <trkpt lat="44.72955" lon="5.27449">
        <ele>328</ele>
      </trkpt>
      <trkpt lat="44.72913" lon="5.27447">
        <ele>328</ele>
      </trkpt>
      <trkpt lat="44.72899" lon="5.27453">
        <ele>329</ele>
      </trkpt>
      <trkpt lat="44.72836" lon="5.27481">
        <ele>328</ele>
      </trkpt>
      <trkpt lat="44.72812" lon="5.27486">
        <ele>327</ele>
      </trkpt>
      <trkpt lat="44.72722" lon="5.27485">
        <ele>327</ele>
      </trkpt>
      <trkpt lat="44.72699" lon="5.27474">
        <ele>326</ele>
      </trkpt>
      <trkpt lat="44.72637" lon="5.27416">
        <ele>324</ele>
      </trkpt>
      <trkpt lat="44.72617" lon="5.27409">
        <ele>324</ele>
      </trkpt>
      <trkpt lat="44.72569" lon="5.27425">
        <ele>327</ele>
      </trkpt>
      <trkpt lat="44.72558" lon="5.27423">
        <ele>326</ele>
      </trkpt>
      <trkpt lat="44.72552" lon="5.27414">
        <ele>326</ele>
      </trkpt>
      <trkpt lat="44.72545" lon="5.27395">
        <ele>328</ele>
      </trkpt>
      <trkpt lat="44.72526" lon="5.27322">
        <ele>324</ele>
      </trkpt>
      <trkpt lat="44.72516" lon="5.27301">
        <ele>324</ele>
      </trkpt>
      <trkpt lat="44.725" lon="5.27281">
        <ele>322</ele>
      </trkpt>
      <trkpt lat="44.72348" lon="5.27204">
        <ele>321</ele>
      </trkpt>
      <trkpt lat="44.72327" lon="5.27203">
        <ele>321</ele>
      </trkpt>
      <trkpt lat="44.72304" lon="5.27215">
        <ele>321</ele>
      </trkpt>
      <trkpt lat="44.72272" lon="5.27238">
        <ele>323</ele>
      </trkpt>
      <trkpt lat="44.72255" lon="5.27245">
        <ele>321</ele>
      </trkpt>
      <trkpt lat="44.72192" lon="5.27258">
        <ele>320</ele>
      </trkpt>
      <trkpt lat="44.72162" lon="5.27268">
        <ele>317</ele>
      </trkpt>
      <trkpt lat="44.72107" lon="5.27296">
        <ele>315</ele>
      </trkpt>
      <trkpt lat="44.7207" lon="5.27301">
        <ele>315</ele>
      </trkpt>
      <trkpt lat="44.71799" lon="5.27308">
        <ele>318</ele>
      </trkpt>
      <trkpt lat="44.71721" lon="5.27297">
        <ele>316</ele>
      </trkpt>
      <trkpt lat="44.71686" lon="5.27299">
        <ele>317</ele>
      </trkpt>
      <trkpt lat="44.71556" lon="5.27339">
        <ele>317</ele>
      </trkpt>
      <trkpt lat="44.71416" lon="5.27357">
        <ele>314</ele>
      </trkpt>
      <trkpt lat="44.71385" lon="5.27365">
        <ele>315</ele>
      </trkpt>
      <trkpt lat="44.71365" lon="5.27367">
        <ele>315</ele>
      </trkpt>
      <trkpt lat="44.71356" lon="5.27366">
        <ele>315</ele>
      </trkpt>
      <trkpt lat="44.71342" lon="5.27357">
        <ele>314</ele>
      </trkpt>
      <trkpt lat="44.7131" lon="5.27326">
        <ele>311</ele>
      </trkpt>
      <trkpt lat="44.71295" lon="5.27315">
        <ele>311</ele>
      </trkpt>
      <trkpt lat="44.71234" lon="5.27293">
        <ele>311</ele>
      </trkpt>
      <trkpt lat="44.7121" lon="5.27282">
        <ele>310</ele>
      </trkpt>
      <trkpt lat="44.71158" lon="5.27239">
        <ele>309</ele>
      </trkpt>
      <trkpt lat="44.71129" lon="5.27221">
        <ele>308</ele>
      </trkpt>
      <trkpt lat="44.7097" lon="5.27151">
        <ele>308</ele>
      </trkpt>
      <trkpt lat="44.70914" lon="5.27151">
        <ele>309</ele>
      </trkpt>
      <trkpt lat="44.70858" lon="5.27145">
        <ele>311</ele>
      </trkpt>
      <trkpt lat="44.70804" lon="5.27104">
        <ele>310</ele>
      </trkpt>
      <trkpt lat="44.70754" lon="5.27061">
        <ele>304</ele>
      </trkpt>
      <trkpt lat="44.70709" lon="5.27033">
        <ele>303</ele>
      </trkpt>
      <trkpt lat="44.70506" lon="5.26966">
        <ele>306</ele>
      </trkpt>
      <trkpt lat="44.704" lon="5.26866">
        <ele>305</ele>
      </trkpt>
      <trkpt lat="44.70316" lon="5.26781">
        <ele>307</ele>
      </trkpt>
      <trkpt lat="44.70255" lon="5.26687">
        <ele>302</ele>
      </trkpt>
      <trkpt lat="44.70182" lon="5.26568">
        <ele>302</ele>
      </trkpt>
      <trkpt lat="44.70152" lon="5.26531">
        <ele>301</ele>
      </trkpt>
      <trkpt lat="44.70133" lon="5.26521">
        <ele>301</ele>
      </trkpt>
      <trkpt lat="44.70093" lon="5.26531">
        <ele>301</ele>
      </trkpt>
      <trkpt lat="44.7005" lon="5.26557">
        <ele>302</ele>
      </trkpt>
      <trkpt lat="44.70033" lon="5.26562">
        <ele>302</ele>
      </trkpt>
      <trkpt lat="44.69958" lon="5.26517">
        <ele>300</ele>
      </trkpt>
      <trkpt lat="44.69922" lon="5.26487">
        <ele>301</ele>
      </trkpt>
      <trkpt lat="44.699" lon="5.26448">
        <ele>300</ele>
      </trkpt>
      <trkpt lat="44.69885" lon="5.26371">
        <ele>299</ele>
      </trkpt>
      <trkpt lat="44.69851" lon="5.26263">
        <ele>301</ele>
      </trkpt>
      <trkpt lat="44.6982" lon="5.26199">
        <ele>298</ele>
      </trkpt>
      <trkpt lat="44.69794" lon="5.26163">
        <ele>299</ele>
      </trkpt>
      <trkpt lat="44.69739" lon="5.26123">
        <ele>301</ele>
      </trkpt>
      <trkpt lat="44.69699" lon="5.26101">
        <ele>301</ele>
      </trkpt>
      <trkpt lat="44.69641" lon="5.26098">
        <ele>300</ele>
      </trkpt>
      <trkpt lat="44.69572" lon="5.26132">
        <ele>298</ele>
      </trkpt>
      <trkpt lat="44.6951" lon="5.25981">
        <ele>292</ele>
      </trkpt>
      <trkpt lat="44.69464" lon="5.2587">
        <ele>294</ele>
      </trkpt>
      <trkpt lat="44.69457" lon="5.25823">
        <ele>297</ele>
      </trkpt>
      <trkpt lat="44.69477" lon="5.25702">
        <ele>298</ele>
      </trkpt>
      <trkpt lat="44.69494" lon="5.25665">
        <ele>295</ele>
      </trkpt>
      <trkpt lat="44.69531" lon="5.25596">
        <ele>294</ele>
      </trkpt>
      <trkpt lat="44.69567" lon="5.25541">
        <ele>295</ele>
      </trkpt>
      <trkpt lat="44.69576" lon="5.25515">
        <ele>295</ele>
      </trkpt>
      <trkpt lat="44.69587" lon="5.25451">
        <ele>297</ele>
      </trkpt>
      <trkpt lat="44.69603" lon="5.25393">
        <ele>290</ele>
      </trkpt>
      <trkpt lat="44.69634" lon="5.25288">
        <ele>291</ele>
      </trkpt>
      <trkpt lat="44.69636" lon="5.25227">
        <ele>289</ele>
      </trkpt>
      <trkpt lat="44.69619" lon="5.25044">
        <ele>289</ele>
      </trkpt>
      <trkpt lat="44.69627" lon="5.24909">
        <ele>289</ele>
      </trkpt>
      <trkpt lat="44.69614" lon="5.2478">
        <ele>287</ele>
      </trkpt>
      <trkpt lat="44.69575" lon="5.24596">
        <ele>286</ele>
      </trkpt>
      <trkpt lat="44.6953" lon="5.24432">
        <ele>286</ele>
      </trkpt>
      <trkpt lat="44.69459" lon="5.24294">
        <ele>286</ele>
      </trkpt>
      <trkpt lat="44.69381" lon="5.24155">
        <ele>287</ele>
      </trkpt>
      <trkpt lat="44.69312" lon="5.24038">
        <ele>284</ele>
      </trkpt>
      <trkpt lat="44.69254" lon="5.23987">
        <ele>284</ele>
      </trkpt>
      <trkpt lat="44.69196" lon="5.23958">
        <ele>289</ele>
      </trkpt>
      <trkpt lat="44.69084" lon="5.23916">
        <ele>285</ele>
      </trkpt>
      <trkpt lat="44.69045" lon="5.2388">
        <ele>290</ele>
      </trkpt>
      <trkpt lat="44.68972" lon="5.23827">
        <ele>286</ele>
      </trkpt>
      <trkpt lat="44.68969" lon="5.23821">
        <ele>286</ele>
      </trkpt>
      <trkpt lat="44.6897" lon="5.23814">
        <ele>285</ele>
      </trkpt>
      <trkpt lat="44.68999" lon="5.2376">
        <ele>291</ele>
      </trkpt>
      <trkpt lat="44.68922" lon="5.23636">
        <ele>297</ele>
      </trkpt>
      <trkpt lat="44.68905" lon="5.2358">
        <ele>298</ele>
      </trkpt>
      <trkpt lat="44.68892" lon="5.2352">
        <ele>299</ele>
      </trkpt>
      <trkpt lat="44.68883" lon="5.23441">
        <ele>302</ele>
      </trkpt>
      <trkpt lat="44.68881" lon="5.23392">
        <ele>302</ele>
      </trkpt>
      <trkpt lat="44.68884" lon="5.23177">
        <ele>302</ele>
      </trkpt>
      <trkpt lat="44.68879" lon="5.23109">
        <ele>300</ele>
      </trkpt>
      <trkpt lat="44.68863" lon="5.23012">
        <ele>300</ele>
      </trkpt>
      <trkpt lat="44.68861" lon="5.22928">
        <ele>293</ele>
      </trkpt>
      <trkpt lat="44.68873" lon="5.22839">
        <ele>284</ele>
      </trkpt>
      <trkpt lat="44.69026" lon="5.22002">
        <ele>281</ele>
      </trkpt>
      <trkpt lat="44.69038" lon="5.2191">
        <ele>280</ele>
      </trkpt>
      <trkpt lat="44.69053" lon="5.21824">
        <ele>282</ele>
      </trkpt>
      <trkpt lat="44.69081" lon="5.21747">
        <ele>281</ele>
      </trkpt>
      <trkpt lat="44.6912" lon="5.21686">
        <ele>288</ele>
      </trkpt>
      <trkpt lat="44.69148" lon="5.21634">
        <ele>293</ele>
      </trkpt>
      <trkpt lat="44.6917" lon="5.21577">
        <ele>302</ele>
      </trkpt>
      <trkpt lat="44.69178" lon="5.21519">
        <ele>302</ele>
      </trkpt>
      <trkpt lat="44.69171" lon="5.21473">
        <ele>302</ele>
      </trkpt>
      <trkpt lat="44.69157" lon="5.21434">
        <ele>293</ele>
      </trkpt>
      <trkpt lat="44.69136" lon="5.21396">
        <ele>296</ele>
      </trkpt>
      <trkpt lat="44.69089" lon="5.21338">
        <ele>287</ele>
      </trkpt>
      <trkpt lat="44.69045" lon="5.21288">
        <ele>281</ele>
      </trkpt>
      <trkpt lat="44.68989" lon="5.21225">
        <ele>286</ele>
      </trkpt>
      <trkpt lat="44.6898" lon="5.21191">
        <ele>286</ele>
      </trkpt>
      <trkpt lat="44.68981" lon="5.21158">
        <ele>286</ele>
      </trkpt>
      <trkpt lat="44.6902" lon="5.21064">
        <ele>306</ele>
      </trkpt>
      <trkpt lat="44.69026" lon="5.21015">
        <ele>295</ele>
      </trkpt>
      <trkpt lat="44.69025" lon="5.20956">
        <ele>290</ele>
      </trkpt>
      <trkpt lat="44.69035" lon="5.20908">
        <ele>291</ele>
      </trkpt>
      <trkpt lat="44.69058" lon="5.20854">
        <ele>289</ele>
      </trkpt>
      <trkpt lat="44.69102" lon="5.2079">
        <ele>290</ele>
      </trkpt>
      <trkpt lat="44.69192" lon="5.20672">
        <ele>282</ele>
      </trkpt>
      <trkpt lat="44.69258" lon="5.2057">
        <ele>279</ele>
      </trkpt>
      <trkpt lat="44.6929" lon="5.20512">
        <ele>274</ele>
      </trkpt>
      <trkpt lat="44.69378" lon="5.20328">
        <ele>270</ele>
      </trkpt>
      <trkpt lat="44.69407" lon="5.20263">
        <ele>274</ele>
      </trkpt>
      <trkpt lat="44.69456" lon="5.20118">
        <ele>275</ele>
      </trkpt>
      <trkpt lat="44.69467" lon="5.20091">
        <ele>275</ele>
      </trkpt>
      <trkpt lat="44.69475" lon="5.20096">
        <ele>275</ele>
      </trkpt>
      <trkpt lat="44.69485" lon="5.20097">
        <ele>275</ele>
      </trkpt>
      <trkpt lat="44.69495" lon="5.20089">
        <ele>275</ele>
      </trkpt>
      <trkpt lat="44.69501" lon="5.20077">
        <ele>275</ele>
      </trkpt>
      <trkpt lat="44.69506" lon="5.20064">
        <ele>274</ele>
      </trkpt>
      <trkpt lat="44.69507" lon="5.20052">
        <ele>274</ele>
      </trkpt>
      <trkpt lat="44.69506" lon="5.20037">
        <ele>273</ele>
      </trkpt>
      <trkpt lat="44.69501" lon="5.20019">
        <ele>272</ele>
      </trkpt>
      <trkpt lat="44.69478" lon="5.19981">
        <ele>274</ele>
      </trkpt>
      <trkpt lat="44.69473" lon="5.19968">
        <ele>273</ele>
      </trkpt>
      <trkpt lat="44.69471" lon="5.19954">
        <ele>272</ele>
      </trkpt>
      <trkpt lat="44.69471" lon="5.19938">
        <ele>272</ele>
      </trkpt>
      <trkpt lat="44.69469" lon="5.19921">
        <ele>272</ele>
      </trkpt>
      <trkpt lat="44.69462" lon="5.19909">
        <ele>276</ele>
      </trkpt>
      <trkpt lat="44.69438" lon="5.19888">
        <ele>279</ele>
      </trkpt>
      <trkpt lat="44.69407" lon="5.1987">
        <ele>286</ele>
      </trkpt>
      <trkpt lat="44.69348" lon="5.19851">
        <ele>289</ele>
      </trkpt>
      <trkpt lat="44.69279" lon="5.19847">
        <ele>290</ele>
      </trkpt>
      <trkpt lat="44.69161" lon="5.19835">
        <ele>294</ele>
      </trkpt>
      <trkpt lat="44.69166" lon="5.19678">
        <ele>302</ele>
      </trkpt>
      <trkpt lat="44.69161" lon="5.19652">
        <ele>302</ele>
      </trkpt>
      <trkpt lat="44.69138" lon="5.19627">
        <ele>306</ele>
      </trkpt>
      <trkpt lat="44.69065" lon="5.19579">
        <ele>320</ele>
      </trkpt>
      <trkpt lat="44.69057" lon="5.19566">
        <ele>319</ele>
      </trkpt>
      <trkpt lat="44.69054" lon="5.19553">
        <ele>317</ele>
      </trkpt>
      <trkpt lat="44.69054" lon="5.19528">
        <ele>316</ele>
      </trkpt>
      <trkpt lat="44.69068" lon="5.19442">
        <ele>322</ele>
      </trkpt>
      <trkpt lat="44.69079" lon="5.19412">
        <ele>319</ele>
      </trkpt>
      <trkpt lat="44.69078" lon="5.19403">
        <ele>320</ele>
      </trkpt>
      <trkpt lat="44.69072" lon="5.19398">
        <ele>326</ele>
      </trkpt>
      <trkpt lat="44.69068" lon="5.19399">
        <ele>327</ele>
      </trkpt>
      <trkpt lat="44.69065" lon="5.19403">
        <ele>327</ele>
      </trkpt>
      <trkpt lat="44.69054" lon="5.1943">
        <ele>324</ele>
      </trkpt>
      <trkpt lat="44.69032" lon="5.19475">
        <ele>325</ele>
      </trkpt>
      <trkpt lat="44.69021" lon="5.19493">
        <ele>323</ele>
      </trkpt>
      <trkpt lat="44.69012" lon="5.19502">
        <ele>328</ele>
      </trkpt>
      <trkpt lat="44.69001" lon="5.19505">
        <ele>328</ele>
      </trkpt>
      <trkpt lat="44.68995" lon="5.19505">
        <ele>329</ele>
      </trkpt>
      <trkpt lat="44.68986" lon="5.19501">
        <ele>333</ele>
      </trkpt>
      <trkpt lat="44.68906" lon="5.19416">
        <ele>349</ele>
      </trkpt>
      <trkpt lat="44.68892" lon="5.19407">
        <ele>349</ele>
      </trkpt>
      <trkpt lat="44.68835" lon="5.19397">
        <ele>352</ele>
      </trkpt>
      <trkpt lat="44.68774" lon="5.1937">
        <ele>357</ele>
      </trkpt>
      <trkpt lat="44.6875" lon="5.19363">
        <ele>360</ele>
      </trkpt>
      <trkpt lat="44.68683" lon="5.19356">
        <ele>365</ele>
      </trkpt>
      <trkpt lat="44.68661" lon="5.19352">
        <ele>366</ele>
      </trkpt>
      <trkpt lat="44.68593" lon="5.19326">
        <ele>373</ele>
      </trkpt>
      <trkpt lat="44.68572" lon="5.19321">
        <ele>376</ele>
      </trkpt>
      <trkpt lat="44.6855" lon="5.19322">
        <ele>377</ele>
      </trkpt>
      <trkpt lat="44.68504" lon="5.19333">
        <ele>383</ele>
      </trkpt>
      <trkpt lat="44.68452" lon="5.19346">
        <ele>385</ele>
      </trkpt>
      <trkpt lat="44.68378" lon="5.19371">
        <ele>385</ele>
      </trkpt>
      <trkpt lat="44.68364" lon="5.19371">
        <ele>386</ele>
      </trkpt>
      <trkpt lat="44.68351" lon="5.19366">
        <ele>392</ele>
      </trkpt>
      <trkpt lat="44.68343" lon="5.1936">
        <ele>393</ele>
      </trkpt>
      <trkpt lat="44.68333" lon="5.19349">
        <ele>394</ele>
      </trkpt>
      <trkpt lat="44.68329" lon="5.19344">
        <ele>394</ele>
      </trkpt>
      <trkpt lat="44.68327" lon="5.19332">
        <ele>400</ele>
      </trkpt>
      <trkpt lat="44.68328" lon="5.19313">
        <ele>401</ele>
      </trkpt>
      <trkpt lat="44.68335" lon="5.19284">
        <ele>407</ele>
      </trkpt>
      <trkpt lat="44.68341" lon="5.1924">
        <ele>410</ele>
      </trkpt>
      <trkpt lat="44.68342" lon="5.19229">
        <ele>410</ele>
      </trkpt>
      <trkpt lat="44.6834" lon="5.19212">
        <ele>410</ele>
      </trkpt>
      <trkpt lat="44.68335" lon="5.19198">
        <ele>411</ele>
      </trkpt>
      <trkpt lat="44.68325" lon="5.19194">
        <ele>411</ele>
      </trkpt>
      <trkpt lat="44.68321" lon="5.19194">
        <ele>411</ele>
      </trkpt>
      <trkpt lat="44.68314" lon="5.19198">
        <ele>411</ele>
      </trkpt>
      <trkpt lat="44.68308" lon="5.19208">
        <ele>410</ele>
      </trkpt>
      <trkpt lat="44.68296" lon="5.19243">
        <ele>408</ele>
      </trkpt>
      <trkpt lat="44.68285" lon="5.19262">
        <ele>405</ele>
      </trkpt>
      <trkpt lat="44.68267" lon="5.19275">
        <ele>406</ele>
      </trkpt>
      <trkpt lat="44.6826" lon="5.19275">
        <ele>406</ele>
      </trkpt>
      <trkpt lat="44.68256" lon="5.19272">
        <ele>407</ele>
      </trkpt>
      <trkpt lat="44.68252" lon="5.19267">
        <ele>407</ele>
      </trkpt>
      <trkpt lat="44.68245" lon="5.19249">
        <ele>411</ele>
      </trkpt>
      <trkpt lat="44.6823" lon="5.19197">
        <ele>420</ele>
      </trkpt>
      <trkpt lat="44.68225" lon="5.19184">
        <ele>422</ele>
      </trkpt>
      <trkpt lat="44.68212" lon="5.19166">
        <ele>424</ele>
      </trkpt>
      <trkpt lat="44.68204" lon="5.1916">
        <ele>425</ele>
      </trkpt>
      <trkpt lat="44.68151" lon="5.19131">
        <ele>426</ele>
      </trkpt>
      <trkpt lat="44.6811" lon="5.19113">
        <ele>432</ele>
      </trkpt>
      <trkpt lat="44.68093" lon="5.19102">
        <ele>430</ele>
      </trkpt>
      <trkpt lat="44.68067" lon="5.19081">
        <ele>432</ele>
      </trkpt>
      <trkpt lat="44.68058" lon="5.19061">
        <ele>434</ele>
      </trkpt>
      <trkpt lat="44.68056" lon="5.19049">
        <ele>438</ele>
      </trkpt>
      <trkpt lat="44.68059" lon="5.19021">
        <ele>444</ele>
      </trkpt>
      <trkpt lat="44.68065" lon="5.18994">
        <ele>447</ele>
      </trkpt>
      <trkpt lat="44.68066" lon="5.18982">
        <ele>447</ele>
      </trkpt>
      <trkpt lat="44.68065" lon="5.1897">
        <ele>449</ele>
      </trkpt>
      <trkpt lat="44.6806" lon="5.18949">
        <ele>449</ele>
      </trkpt>
      <trkpt lat="44.68054" lon="5.1894">
        <ele>449</ele>
      </trkpt>
      <trkpt lat="44.68049" lon="5.18935">
        <ele>449</ele>
      </trkpt>
      <trkpt lat="44.68036" lon="5.18929">
        <ele>447</ele>
      </trkpt>
      <trkpt lat="44.6803" lon="5.18929">
        <ele>447</ele>
      </trkpt>
      <trkpt lat="44.68019" lon="5.18934">
        <ele>446</ele>
      </trkpt>
      <trkpt lat="44.68001" lon="5.18939">
        <ele>443</ele>
      </trkpt>
      <trkpt lat="44.67983" lon="5.18932">
        <ele>442</ele>
      </trkpt>
      <trkpt lat="44.67975" lon="5.18924">
        <ele>443</ele>
      </trkpt>
      <trkpt lat="44.6793" lon="5.18863">
        <ele>456</ele>
      </trkpt>
      <trkpt lat="44.67893" lon="5.18819">
        <ele>460</ele>
      </trkpt>
      <trkpt lat="44.67859" lon="5.18768">
        <ele>468</ele>
      </trkpt>
      <trkpt lat="44.67845" lon="5.18766">
        <ele>467</ele>
      </trkpt>
      <trkpt lat="44.67802" lon="5.18785">
        <ele>461</ele>
      </trkpt>
      <trkpt lat="44.67784" lon="5.18786">
        <ele>461</ele>
      </trkpt>
      <trkpt lat="44.67759" lon="5.18777">
        <ele>465</ele>
      </trkpt>
      <trkpt lat="44.67734" lon="5.18755">
        <ele>473</ele>
      </trkpt>
      <trkpt lat="44.67708" lon="5.1875">
        <ele>474</ele>
      </trkpt>
      <trkpt lat="44.67614" lon="5.18754">
        <ele>477</ele>
      </trkpt>
      <trkpt lat="44.6758" lon="5.18754">
        <ele>479</ele>
      </trkpt>
      <trkpt lat="44.67554" lon="5.18756">
        <ele>470</ele>
      </trkpt>
      <trkpt lat="44.6753" lon="5.18754">
        <ele>482</ele>
      </trkpt>
      <trkpt lat="44.67505" lon="5.18758">
        <ele>479</ele>
      </trkpt>
      <trkpt lat="44.67479" lon="5.18773">
        <ele>483</ele>
      </trkpt>
      <trkpt lat="44.67456" lon="5.18773">
        <ele>486</ele>
      </trkpt>
      <trkpt lat="44.67406" lon="5.18754">
        <ele>496</ele>
      </trkpt>
      <trkpt lat="44.67332" lon="5.18736">
        <ele>499</ele>
      </trkpt>
      <trkpt lat="44.6731" lon="5.18726">
        <ele>506</ele>
      </trkpt>
      <trkpt lat="44.67288" lon="5.18704">
        <ele>507</ele>
      </trkpt>
      <trkpt lat="44.67282" lon="5.18672">
        <ele>512</ele>
      </trkpt>
      <trkpt lat="44.6728" lon="5.18649">
        <ele>514</ele>
      </trkpt>
      <trkpt lat="44.67274" lon="5.1863">
        <ele>514</ele>
      </trkpt>
      <trkpt lat="44.67231" lon="5.18592">
        <ele>513</ele>
      </trkpt>
      <trkpt lat="44.67222" lon="5.18562">
        <ele>514</ele>
      </trkpt>
      <trkpt lat="44.67208" lon="5.18496">
        <ele>516</ele>
      </trkpt>
      <trkpt lat="44.672" lon="5.18485">
        <ele>516</ele>
      </trkpt>
      <trkpt lat="44.6719" lon="5.1848">
        <ele>518</ele>
      </trkpt>
      <trkpt lat="44.67159" lon="5.18477">
        <ele>523</ele>
      </trkpt>
      <trkpt lat="44.67134" lon="5.18492">
        <ele>528</ele>
      </trkpt>
      <trkpt lat="44.67127" lon="5.18507">
        <ele>531</ele>
      </trkpt>
      <trkpt lat="44.67121" lon="5.18541">
        <ele>533</ele>
      </trkpt>
      <trkpt lat="44.67108" lon="5.18559">
        <ele>533</ele>
      </trkpt>
      <trkpt lat="44.67079" lon="5.18573">
        <ele>533</ele>
      </trkpt>
      <trkpt lat="44.67026" lon="5.18612">
        <ele>541</ele>
      </trkpt>
      <trkpt lat="44.66996" lon="5.18642">
        <ele>544</ele>
      </trkpt>
      <trkpt lat="44.66968" lon="5.18666">
        <ele>546</ele>
      </trkpt>
      <trkpt lat="44.66888" lon="5.18717">
        <ele>553</ele>
      </trkpt>
      <trkpt lat="44.66862" lon="5.18726">
        <ele>557</ele>
      </trkpt>
      <trkpt lat="44.66823" lon="5.18737">
        <ele>561</ele>
      </trkpt>
      <trkpt lat="44.66781" lon="5.18741">
        <ele>567</ele>
      </trkpt>
      <trkpt lat="44.66711" lon="5.18772">
        <ele>579</ele>
      </trkpt>
      <trkpt lat="44.66693" lon="5.18787">
        <ele>575</ele>
      </trkpt>
      <trkpt lat="44.66679" lon="5.18806">
        <ele>580</ele>
      </trkpt>
      <trkpt lat="44.66663" lon="5.18834">
        <ele>578</ele>
      </trkpt>
      <trkpt lat="44.66645" lon="5.18856">
        <ele>581</ele>
      </trkpt>
      <trkpt lat="44.66599" lon="5.18881">
        <ele>589</ele>
      </trkpt>
      <trkpt lat="44.6658" lon="5.18896">
        <ele>585</ele>
      </trkpt>
      <trkpt lat="44.66562" lon="5.18907">
        <ele>589</ele>
      </trkpt>
      <trkpt lat="44.66541" lon="5.18906">
        <ele>591</ele>
      </trkpt>
      <trkpt lat="44.66516" lon="5.18893">
        <ele>599</ele>
      </trkpt>
      <trkpt lat="44.66471" lon="5.1886">
        <ele>607</ele>
      </trkpt>
      <trkpt lat="44.6643" lon="5.18815">
        <ele>615</ele>
      </trkpt>
      <trkpt lat="44.66418" lon="5.18792">
        <ele>622</ele>
      </trkpt>
      <trkpt lat="44.66403" lon="5.18744">
        <ele>632</ele>
      </trkpt>
      <trkpt lat="44.66398" lon="5.18737">
        <ele>631</ele>
      </trkpt>
      <trkpt lat="44.66388" lon="5.18735">
        <ele>631</ele>
      </trkpt>
      <trkpt lat="44.66382" lon="5.18738">
        <ele>630</ele>
      </trkpt>
      <trkpt lat="44.66374" lon="5.18747">
        <ele>627</ele>
      </trkpt>
      <trkpt lat="44.66361" lon="5.18772">
        <ele>621</ele>
      </trkpt>
      <trkpt lat="44.66353" lon="5.18817">
        <ele>619</ele>
      </trkpt>
      <trkpt lat="44.66348" lon="5.18832">
        <ele>624</ele>
      </trkpt>
      <trkpt lat="44.6634" lon="5.18846">
        <ele>624</ele>
      </trkpt>
      <trkpt lat="44.66318" lon="5.18878">
        <ele>632</ele>
      </trkpt>
      <trkpt lat="44.66312" lon="5.18894">
        <ele>633</ele>
      </trkpt>
      <trkpt lat="44.66311" lon="5.18917">
        <ele>633</ele>
      </trkpt>
      <trkpt lat="44.66313" lon="5.18945">
        <ele>634</ele>
      </trkpt>
      <trkpt lat="44.66309" lon="5.19001">
        <ele>639</ele>
      </trkpt>
      <trkpt lat="44.66305" lon="5.19039">
        <ele>641</ele>
      </trkpt>
      <trkpt lat="44.66296" lon="5.19072">
        <ele>641</ele>
      </trkpt>
      <trkpt lat="44.66281" lon="5.19085">
        <ele>641</ele>
      </trkpt>
      <trkpt lat="44.66267" lon="5.19094">
        <ele>639</ele>
      </trkpt>
      <trkpt lat="44.66219" lon="5.19114">
        <ele>643</ele>
      </trkpt>
      <trkpt lat="44.66189" lon="5.19132">
        <ele>643</ele>
      </trkpt>
      <trkpt lat="44.66148" lon="5.19185">
        <ele>641</ele>
      </trkpt>
      <trkpt lat="44.66124" lon="5.19212">
        <ele>641</ele>
      </trkpt>
      <trkpt lat="44.66104" lon="5.19228">
        <ele>638</ele>
      </trkpt>
      <trkpt lat="44.66074" lon="5.19237">
        <ele>645</ele>
      </trkpt>
      <trkpt lat="44.66049" lon="5.19253">
        <ele>651</ele>
      </trkpt>
      <trkpt lat="44.66008" lon="5.19306">
        <ele>654</ele>
      </trkpt>
      <trkpt lat="44.65992" lon="5.19318">
        <ele>651</ele>
      </trkpt>
      <trkpt lat="44.65976" lon="5.1934">
        <ele>655</ele>
      </trkpt>
      <trkpt lat="44.65968" lon="5.19361">
        <ele>655</ele>
      </trkpt>
      <trkpt lat="44.65964" lon="5.19404">
        <ele>654</ele>
      </trkpt>
      <trkpt lat="44.65961" lon="5.19415">
        <ele>660</ele>
      </trkpt>
      <trkpt lat="44.65947" lon="5.19438">
        <ele>662</ele>
      </trkpt>
      <trkpt lat="44.65943" lon="5.19451">
        <ele>665</ele>
      </trkpt>
      <trkpt lat="44.65944" lon="5.19465">
        <ele>666</ele>
      </trkpt>
      <trkpt lat="44.65947" lon="5.19479">
        <ele>669</ele>
      </trkpt>
      <trkpt lat="44.65964" lon="5.19504">
        <ele>661</ele>
      </trkpt>
      <trkpt lat="44.65977" lon="5.19547">
        <ele>662</ele>
      </trkpt>
      <trkpt lat="44.6599" lon="5.19583">
        <ele>668</ele>
      </trkpt>
      <trkpt lat="44.66002" lon="5.19621">
        <ele>668</ele>
      </trkpt>
      <trkpt lat="44.6601" lon="5.19659">
        <ele>673</ele>
      </trkpt>
      <trkpt lat="44.66039" lon="5.19737">
        <ele>675</ele>
      </trkpt>
      <trkpt lat="44.66057" lon="5.19812">
        <ele>672</ele>
      </trkpt>
      <trkpt lat="44.66064" lon="5.1985">
        <ele>677</ele>
      </trkpt>
      <trkpt lat="44.66074" lon="5.19923">
        <ele>676</ele>
      </trkpt>
      <trkpt lat="44.66073" lon="5.19935">
        <ele>684</ele>
      </trkpt>
      <trkpt lat="44.66069" lon="5.19951">
        <ele>685</ele>
      </trkpt>
      <trkpt lat="44.66057" lon="5.19981">
        <ele>684</ele>
      </trkpt>
      <trkpt lat="44.66044" lon="5.20026">
        <ele>688</ele>
      </trkpt>
      <trkpt lat="44.66038" lon="5.20036">
        <ele>685</ele>
      </trkpt>
      <trkpt lat="44.65995" lon="5.2008">
        <ele>691</ele>
      </trkpt>
      <trkpt lat="44.65965" lon="5.2012">
        <ele>690</ele>
      </trkpt>
      <trkpt lat="44.65905" lon="5.20194">
        <ele>698</ele>
      </trkpt>
      <trkpt lat="44.65817" lon="5.20253">
        <ele>704</ele>
      </trkpt>
      <trkpt lat="44.65794" lon="5.20259">
        <ele>705</ele>
      </trkpt>
      <trkpt lat="44.6578" lon="5.20265">
        <ele>705</ele>
      </trkpt>
      <trkpt lat="44.65766" lon="5.20286">
        <ele>708</ele>
      </trkpt>
      <trkpt lat="44.6576" lon="5.203">
        <ele>708</ele>
      </trkpt>
      <trkpt lat="44.65753" lon="5.20335">
        <ele>706</ele>
      </trkpt>
      <trkpt lat="44.65748" lon="5.20348">
        <ele>704</ele>
      </trkpt>
      <trkpt lat="44.65743" lon="5.20355">
        <ele>705</ele>
      </trkpt>
      <trkpt lat="44.6569" lon="5.20383">
        <ele>712</ele>
      </trkpt>
      <trkpt lat="44.65649" lon="5.20412">
        <ele>715</ele>
      </trkpt>
      <trkpt lat="44.6559" lon="5.20449">
        <ele>718</ele>
      </trkpt>
      <trkpt lat="44.65513" lon="5.20523">
        <ele>724</ele>
      </trkpt>
      <trkpt lat="44.65467" lon="5.20639">
        <ele>724</ele>
      </trkpt>
      <trkpt lat="44.65433" lon="5.20667">
        <ele>737</ele>
      </trkpt>
      <trkpt lat="44.65413" lon="5.20699">
        <ele>735</ele>
      </trkpt>
      <trkpt lat="44.65375" lon="5.20805">
        <ele>742</ele>
      </trkpt>
      <trkpt lat="44.6537" lon="5.20839">
        <ele>739</ele>
      </trkpt>
      <trkpt lat="44.65365" lon="5.20855">
        <ele>738</ele>
      </trkpt>
      <trkpt lat="44.65352" lon="5.20878">
        <ele>736</ele>
      </trkpt>
      <trkpt lat="44.65338" lon="5.20896">
        <ele>738</ele>
      </trkpt>
      <trkpt lat="44.65329" lon="5.209">
        <ele>738</ele>
      </trkpt>
      <trkpt lat="44.65297" lon="5.20902">
        <ele>746</ele>
      </trkpt>
      <trkpt lat="44.65272" lon="5.20908">
        <ele>750</ele>
      </trkpt>
      <trkpt lat="44.6526" lon="5.20923">
        <ele>749</ele>
      </trkpt>
      <trkpt lat="44.65251" lon="5.20929">
        <ele>749</ele>
      </trkpt>
      <trkpt lat="44.65194" lon="5.20948">
        <ele>758</ele>
      </trkpt>
      <trkpt lat="44.6516" lon="5.21001">
        <ele>756</ele>
      </trkpt>
      <trkpt lat="44.65158" lon="5.2101">
        <ele>756</ele>
      </trkpt>
      <trkpt lat="44.65159" lon="5.2102">
        <ele>757</ele>
      </trkpt>
      <trkpt lat="44.65161" lon="5.2103">
        <ele>757</ele>
      </trkpt>
      <trkpt lat="44.65168" lon="5.21045">
        <ele>759</ele>
      </trkpt>
      <trkpt lat="44.65201" lon="5.21065">
        <ele>758</ele>
      </trkpt>
      <trkpt lat="44.65205" lon="5.21071">
        <ele>758</ele>
      </trkpt>
      <trkpt lat="44.65208" lon="5.21077">
        <ele>757</ele>
      </trkpt>
      <trkpt lat="44.6521" lon="5.21088">
        <ele>758</ele>
      </trkpt>
      <trkpt lat="44.65208" lon="5.21096">
        <ele>759</ele>
      </trkpt>
      <trkpt lat="44.65159" lon="5.21152">
        <ele>771</ele>
      </trkpt>
      <trkpt lat="44.65154" lon="5.21162">
        <ele>775</ele>
      </trkpt>
      <trkpt lat="44.65148" lon="5.21174">
        <ele>775</ele>
      </trkpt>
      <trkpt lat="44.65138" lon="5.21215">
        <ele>775</ele>
      </trkpt>
      <trkpt lat="44.65135" lon="5.21235">
        <ele>773</ele>
      </trkpt>
      <trkpt lat="44.65125" lon="5.21253">
        <ele>778</ele>
      </trkpt>
      <trkpt lat="44.65101" lon="5.21271">
        <ele>784</ele>
      </trkpt>
      <trkpt lat="44.65097" lon="5.21283">
        <ele>784</ele>
      </trkpt>
      <trkpt lat="44.65094" lon="5.21301">
        <ele>784</ele>
      </trkpt>
      <trkpt lat="44.65087" lon="5.21336">
        <ele>785</ele>
      </trkpt>
      <trkpt lat="44.6508" lon="5.2135">
        <ele>785</ele>
      </trkpt>
      <trkpt lat="44.65073" lon="5.2136">
        <ele>790</ele>
      </trkpt>
      <trkpt lat="44.65065" lon="5.21365">
        <ele>791</ele>
      </trkpt>
      <trkpt lat="44.65062" lon="5.21364">
        <ele>791</ele>
      </trkpt>
      <trkpt lat="44.65059" lon="5.21359">
        <ele>791</ele>
      </trkpt>
      <trkpt lat="44.65057" lon="5.21351">
        <ele>791</ele>
      </trkpt>
      <trkpt lat="44.65055" lon="5.21317">
        <ele>793</ele>
      </trkpt>
      <trkpt lat="44.65023" lon="5.21139">
        <ele>799</ele>
      </trkpt>
      <trkpt lat="44.65019" lon="5.21129">
        <ele>800</ele>
      </trkpt>
      <trkpt lat="44.65013" lon="5.21129">
        <ele>805</ele>
      </trkpt>
      <trkpt lat="44.65009" lon="5.21132">
        <ele>806</ele>
      </trkpt>
      <trkpt lat="44.65009" lon="5.21184">
        <ele>808</ele>
      </trkpt>
      <trkpt lat="44.65003" lon="5.21209">
        <ele>808</ele>
      </trkpt>
      <trkpt lat="44.64995" lon="5.21222">
        <ele>808</ele>
      </trkpt>
      <trkpt lat="44.64973" lon="5.21246">
        <ele>812</ele>
      </trkpt>
      <trkpt lat="44.64958" lon="5.21277">
        <ele>816</ele>
      </trkpt>
      <trkpt lat="44.64944" lon="5.21297">
        <ele>817</ele>
      </trkpt>
      <trkpt lat="44.64927" lon="5.21343">
        <ele>823</ele>
      </trkpt>
      <trkpt lat="44.64882" lon="5.2143">
        <ele>826</ele>
      </trkpt>
      <trkpt lat="44.64753" lon="5.21527">
        <ele>838</ele>
      </trkpt>
      <trkpt lat="44.64743" lon="5.21537">
        <ele>836</ele>
      </trkpt>
      <trkpt lat="44.64731" lon="5.2155">
        <ele>840</ele>
      </trkpt>
      <trkpt lat="44.64664" lon="5.21669">
        <ele>841</ele>
      </trkpt>
      <trkpt lat="44.64635" lon="5.21709">
        <ele>841</ele>
      </trkpt>
      <trkpt lat="44.64607" lon="5.21738">
        <ele>843</ele>
      </trkpt>
      <trkpt lat="44.64573" lon="5.21793">
        <ele>848</ele>
      </trkpt>
      <trkpt lat="44.64553" lon="5.21815">
        <ele>846</ele>
      </trkpt>
      <trkpt lat="44.64539" lon="5.21823">
        <ele>851</ele>
      </trkpt>
      <trkpt lat="44.64522" lon="5.21826">
        <ele>852</ele>
      </trkpt>
      <trkpt lat="44.6451" lon="5.21824">
        <ele>856</ele>
      </trkpt>
      <trkpt lat="44.64505" lon="5.21821">
        <ele>856</ele>
      </trkpt>
      <trkpt lat="44.64498" lon="5.21814">
        <ele>857</ele>
      </trkpt>
      <trkpt lat="44.64493" lon="5.21805">
        <ele>861</ele>
      </trkpt>
      <trkpt lat="44.64475" lon="5.21729">
        <ele>869</ele>
      </trkpt>
      <trkpt lat="44.64472" lon="5.2171">
        <ele>871</ele>
      </trkpt>
      <trkpt lat="44.64468" lon="5.21667">
        <ele>877</ele>
      </trkpt>
      <trkpt lat="44.64458" lon="5.2164">
        <ele>877</ele>
      </trkpt>
      <trkpt lat="44.64432" lon="5.21592">
        <ele>878</ele>
      </trkpt>
      <trkpt lat="44.64426" lon="5.21572">
        <ele>884</ele>
      </trkpt>
      <trkpt lat="44.64424" lon="5.21559">
        <ele>888</ele>
      </trkpt>
      <trkpt lat="44.64425" lon="5.21533">
        <ele>893</ele>
      </trkpt>
      <trkpt lat="44.64421" lon="5.2151">
        <ele>894</ele>
      </trkpt>
      <trkpt lat="44.64413" lon="5.21494">
        <ele>897</ele>
      </trkpt>
      <trkpt lat="44.64393" lon="5.21475">
        <ele>892</ele>
      </trkpt>
      <trkpt lat="44.64383" lon="5.21459">
        <ele>892</ele>
      </trkpt>
      <trkpt lat="44.64356" lon="5.21371">
        <ele>896</ele>
      </trkpt>
      <trkpt lat="44.64338" lon="5.21328">
        <ele>905</ele>
      </trkpt>
      <trkpt lat="44.64323" lon="5.21296">
        <ele>902</ele>
      </trkpt>
      <trkpt lat="44.64313" lon="5.2127">
        <ele>907</ele>
      </trkpt>
      <trkpt lat="44.64301" lon="5.21223">
        <ele>917</ele>
      </trkpt>
      <trkpt lat="44.64294" lon="5.21189">
        <ele>916</ele>
      </trkpt>
      <trkpt lat="44.64288" lon="5.21171">
        <ele>920</ele>
      </trkpt>
      <trkpt lat="44.64272" lon="5.21149">
        <ele>920</ele>
      </trkpt>
      <trkpt lat="44.64263" lon="5.21141">
        <ele>919</ele>
      </trkpt>
      <trkpt lat="44.64229" lon="5.21133">
        <ele>913</ele>
      </trkpt>
      <trkpt lat="44.64216" lon="5.21125">
        <ele>912</ele>
      </trkpt>
      <trkpt lat="44.64209" lon="5.21117">
        <ele>909</ele>
      </trkpt>
      <trkpt lat="44.64197" lon="5.21097">
        <ele>913</ele>
      </trkpt>
      <trkpt lat="44.64192" lon="5.21082">
        <ele>918</ele>
      </trkpt>
      <trkpt lat="44.64187" lon="5.21064">
        <ele>918</ele>
      </trkpt>
      <trkpt lat="44.6418" lon="5.21051">
        <ele>917</ele>
      </trkpt>
      <trkpt lat="44.64174" lon="5.21047">
        <ele>917</ele>
      </trkpt>
      <trkpt lat="44.64163" lon="5.21043">
        <ele>916</ele>
      </trkpt>
      <trkpt lat="44.64146" lon="5.21044">
        <ele>914</ele>
      </trkpt>
      <trkpt lat="44.6413" lon="5.21051">
        <ele>915</ele>
      </trkpt>
      <trkpt lat="44.64103" lon="5.2107">
        <ele>915</ele>
      </trkpt>
      <trkpt lat="44.64094" lon="5.21072">
        <ele>919</ele>
      </trkpt>
      <trkpt lat="44.64077" lon="5.21072">
        <ele>921</ele>
      </trkpt>
      <trkpt lat="44.64034" lon="5.21065">
        <ele>926</ele>
      </trkpt>
      <trkpt lat="44.64018" lon="5.21056">
        <ele>932</ele>
      </trkpt>
      <trkpt lat="44.64" lon="5.21042">
        <ele>933</ele>
      </trkpt>
      <trkpt lat="44.63996" lon="5.2104">
        <ele>933</ele>
      </trkpt>
      <trkpt lat="44.63987" lon="5.2104">
        <ele>933</ele>
      </trkpt>
      <trkpt lat="44.63959" lon="5.21045">
        <ele>933</ele>
      </trkpt>
      <trkpt lat="44.63901" lon="5.21041">
        <ele>933</ele>
      </trkpt>
      <trkpt lat="44.63891" lon="5.21037">
        <ele>933</ele>
      </trkpt>
      <trkpt lat="44.63882" lon="5.21028">
        <ele>938</ele>
      </trkpt>
      <trkpt lat="44.63867" lon="5.21007">
        <ele>940</ele>
      </trkpt>
      <trkpt lat="44.63858" lon="5.21003">
        <ele>945</ele>
      </trkpt>
      <trkpt lat="44.63848" lon="5.21004">
        <ele>945</ele>
      </trkpt>
      <trkpt lat="44.63836" lon="5.21009">
        <ele>940</ele>
      </trkpt>
      <trkpt lat="44.63802" lon="5.21037">
        <ele>937</ele>
      </trkpt>
      <trkpt lat="44.63788" lon="5.2104">
        <ele>941</ele>
      </trkpt>
      <trkpt lat="44.63776" lon="5.21038">
        <ele>942</ele>
      </trkpt>
      <trkpt lat="44.63695" lon="5.20994">
        <ele>960</ele>
      </trkpt>
      <trkpt lat="44.6368" lon="5.2099">
        <ele>959</ele>
      </trkpt>
      <trkpt lat="44.63669" lon="5.2099">
        <ele>958</ele>
      </trkpt>
      <trkpt lat="44.63622" lon="5.20996">
        <ele>957</ele>
      </trkpt>
      <trkpt lat="44.6361" lon="5.20993">
        <ele>957</ele>
      </trkpt>
      <trkpt lat="44.63599" lon="5.20984">
        <ele>958</ele>
      </trkpt>
      <trkpt lat="44.63582" lon="5.20965">
        <ele>962</ele>
      </trkpt>
      <trkpt lat="44.63565" lon="5.20957">
        <ele>965</ele>
      </trkpt>
      <trkpt lat="44.63555" lon="5.20957">
        <ele>965</ele>
      </trkpt>
      <trkpt lat="44.63517" lon="5.20972">
        <ele>967</ele>
      </trkpt>
      <trkpt lat="44.63499" lon="5.20974">
        <ele>967</ele>
      </trkpt>
      <trkpt lat="44.63461" lon="5.20972">
        <ele>972</ele>
      </trkpt>
      <trkpt lat="44.63429" lon="5.20982">
        <ele>969</ele>
      </trkpt>
      <trkpt lat="44.63417" lon="5.20982">
        <ele>970</ele>
      </trkpt>
      <trkpt lat="44.63405" lon="5.20979">
        <ele>970</ele>
      </trkpt>
      <trkpt lat="44.63367" lon="5.20937">
        <ele>980</ele>
      </trkpt>
      <trkpt lat="44.63348" lon="5.2092">
        <ele>984</ele>
      </trkpt>
      <trkpt lat="44.6334" lon="5.20916">
        <ele>985</ele>
      </trkpt>
      <trkpt lat="44.6333" lon="5.20915">
        <ele>985</ele>
      </trkpt>
      <trkpt lat="44.63319" lon="5.20923">
        <ele>982</ele>
      </trkpt>
      <trkpt lat="44.63304" lon="5.20939">
        <ele>981</ele>
      </trkpt>
      <trkpt lat="44.63294" lon="5.20944">
        <ele>983</ele>
      </trkpt>
      <trkpt lat="44.63272" lon="5.20945">
        <ele>984</ele>
      </trkpt>
      <trkpt lat="44.63256" lon="5.20943">
        <ele>986</ele>
      </trkpt>
      <trkpt lat="44.63218" lon="5.20937">
        <ele>988</ele>
      </trkpt>
      <trkpt lat="44.6319" lon="5.20929">
        <ele>987</ele>
      </trkpt>
      <trkpt lat="44.63174" lon="5.20917">
        <ele>990</ele>
      </trkpt>
      <trkpt lat="44.63149" lon="5.20884">
        <ele>996</ele>
      </trkpt>
      <trkpt lat="44.63139" lon="5.20874">
        <ele>997</ele>
      </trkpt>
      <trkpt lat="44.63131" lon="5.20867">
        <ele>997</ele>
      </trkpt>
      <trkpt lat="44.63106" lon="5.20855">
        <ele>1000</ele>
      </trkpt>
      <trkpt lat="44.63075" lon="5.20826">
        <ele>1004</ele>
      </trkpt>
      <trkpt lat="44.63057" lon="5.20805">
        <ele>1008</ele>
      </trkpt>
      <trkpt lat="44.63041" lon="5.20773">
        <ele>1011</ele>
      </trkpt>
      <trkpt lat="44.63031" lon="5.20739">
        <ele>1017</ele>
      </trkpt>
      <trkpt lat="44.63026" lon="5.20697">
        <ele>1022</ele>
      </trkpt>
      <trkpt lat="44.6303" lon="5.20639">
        <ele>1029</ele>
      </trkpt>
      <trkpt lat="44.6303" lon="5.20632">
        <ele>1029</ele>
      </trkpt>
      <trkpt lat="44.63027" lon="5.20622">
        <ele>1029</ele>
      </trkpt>
      <trkpt lat="44.63004" lon="5.20588">
        <ele>1027</ele>
      </trkpt>
      <trkpt lat="44.62993" lon="5.20557">
        <ele>1031</ele>
      </trkpt>
      <trkpt lat="44.62981" lon="5.2054">
        <ele>1027</ele>
      </trkpt>
      <trkpt lat="44.62965" lon="5.20522">
        <ele>1032</ele>
      </trkpt>
      <trkpt lat="44.62926" lon="5.20487">
        <ele>1027</ele>
      </trkpt>
      <trkpt lat="44.62922" lon="5.20476">
        <ele>1031</ele>
      </trkpt>
      <trkpt lat="44.62919" lon="5.20456">
        <ele>1032</ele>
      </trkpt>
      <trkpt lat="44.6292" lon="5.20432">
        <ele>1038</ele>
      </trkpt>
      <trkpt lat="44.62919" lon="5.20422">
        <ele>1045</ele>
      </trkpt>
      <trkpt lat="44.62915" lon="5.20411">
        <ele>1047</ele>
      </trkpt>
      <trkpt lat="44.62907" lon="5.20396">
        <ele>1047</ele>
      </trkpt>
      <trkpt lat="44.62861" lon="5.20342">
        <ele>1048</ele>
      </trkpt>
      <trkpt lat="44.62839" lon="5.20296">
        <ele>1054</ele>
      </trkpt>
      <trkpt lat="44.62771" lon="5.20202">
        <ele>1057</ele>
      </trkpt>
      <trkpt lat="44.62762" lon="5.20195">
        <ele>1056</ele>
      </trkpt>
      <trkpt lat="44.6272" lon="5.20178">
        <ele>1046</ele>
      </trkpt>
      <trkpt lat="44.62696" lon="5.20161">
        <ele>1048</ele>
      </trkpt>
      <trkpt lat="44.6266" lon="5.20119">
        <ele>1051</ele>
      </trkpt>
      <trkpt lat="44.62647" lon="5.201">
        <ele>1050</ele>
      </trkpt>
      <trkpt lat="44.62612" lon="5.20026">
        <ele>1040</ele>
      </trkpt>
      <trkpt lat="44.62505" lon="5.19873">
        <ele>1034</ele>
      </trkpt>
      <trkpt lat="44.62484" lon="5.19823">
        <ele>1028</ele>
      </trkpt>
      <trkpt lat="44.62464" lon="5.19787">
        <ele>1025</ele>
      </trkpt>
      <trkpt lat="44.62462" lon="5.19772">
        <ele>1023</ele>
      </trkpt>
      <trkpt lat="44.62463" lon="5.19751">
        <ele>1021</ele>
      </trkpt>
      <trkpt lat="44.62466" lon="5.19728">
        <ele>1021</ele>
      </trkpt>
      <trkpt lat="44.62467" lon="5.19708">
        <ele>1018</ele>
      </trkpt>
      <trkpt lat="44.62464" lon="5.19693">
        <ele>1015</ele>
      </trkpt>
      <trkpt lat="44.62421" lon="5.19628">
        <ele>1023</ele>
      </trkpt>
      <trkpt lat="44.62405" lon="5.19596">
        <ele>1028</ele>
      </trkpt>
      <trkpt lat="44.62398" lon="5.19572">
        <ele>1024</ele>
      </trkpt>
      <trkpt lat="44.62393" lon="5.19521">
        <ele>1011</ele>
      </trkpt>
      <trkpt lat="44.62384" lon="5.19493">
        <ele>1008</ele>
      </trkpt>
      <trkpt lat="44.62358" lon="5.1944">
        <ele>1016</ele>
      </trkpt>
      <trkpt lat="44.62352" lon="5.19415">
        <ele>1011</ele>
      </trkpt>
      <trkpt lat="44.62349" lon="5.19367">
        <ele>1012</ele>
      </trkpt>
      <trkpt lat="44.62338" lon="5.19317">
        <ele>1004</ele>
      </trkpt>
      <trkpt lat="44.62308" lon="5.19258">
        <ele>1005</ele>
      </trkpt>
      <trkpt lat="44.62295" lon="5.19241">
        <ele>1005</ele>
      </trkpt>
      <trkpt lat="44.62279" lon="5.19232">
        <ele>1006</ele>
      </trkpt>
      <trkpt lat="44.62235" lon="5.19224">
        <ele>1013</ele>
      </trkpt>
      <trkpt lat="44.62229" lon="5.19218">
        <ele>1013</ele>
      </trkpt>
      <trkpt lat="44.62223" lon="5.19209">
        <ele>1013</ele>
      </trkpt>
      <trkpt lat="44.62217" lon="5.19191">
        <ele>1004</ele>
      </trkpt>
      <trkpt lat="44.62196" lon="5.1896">
        <ele>982</ele>
      </trkpt>
      <trkpt lat="44.62186" lon="5.18877">
        <ele>973</ele>
      </trkpt>
      <trkpt lat="44.62158" lon="5.18745">
        <ele>964</ele>
      </trkpt>
      <trkpt lat="44.62108" lon="5.18597">
        <ele>962</ele>
      </trkpt>
      <trkpt lat="44.62082" lon="5.18542">
        <ele>960</ele>
      </trkpt>
      <trkpt lat="44.62075" lon="5.18521">
        <ele>956</ele>
      </trkpt>
      <trkpt lat="44.62063" lon="5.18495">
        <ele>957</ele>
      </trkpt>
      <trkpt lat="44.62037" lon="5.18447">
        <ele>961</ele>
      </trkpt>
      <trkpt lat="44.61987" lon="5.18372">
        <ele>962</ele>
      </trkpt>
      <trkpt lat="44.61976" lon="5.1836">
        <ele>960</ele>
      </trkpt>
      <trkpt lat="44.6196" lon="5.18347">
        <ele>961</ele>
      </trkpt>
      <trkpt lat="44.61929" lon="5.18336">
        <ele>957</ele>
      </trkpt>
      <trkpt lat="44.61881" lon="5.18325">
        <ele>953</ele>
      </trkpt>
      <trkpt lat="44.61741" lon="5.18306">
        <ele>940</ele>
      </trkpt>
      <trkpt lat="44.61585" lon="5.18273">
        <ele>925</ele>
      </trkpt>
      <trkpt lat="44.61564" lon="5.18275">
        <ele>924</ele>
      </trkpt>
      <trkpt lat="44.61447" lon="5.18323">
        <ele>926</ele>
      </trkpt>
      <trkpt lat="44.61439" lon="5.18323">
        <ele>925</ele>
      </trkpt>
      <trkpt lat="44.61416" lon="5.18312">
        <ele>917</ele>
      </trkpt>
      <trkpt lat="44.61402" lon="5.18309">
        <ele>907</ele>
      </trkpt>
      <trkpt lat="44.61367" lon="5.18313">
        <ele>910</ele>
      </trkpt>
      <trkpt lat="44.61328" lon="5.18342">
        <ele>909</ele>
      </trkpt>
      <trkpt lat="44.61294" lon="5.18348">
        <ele>903</ele>
      </trkpt>
      <trkpt lat="44.61273" lon="5.18355">
        <ele>903</ele>
      </trkpt>
      <trkpt lat="44.61258" lon="5.18356">
        <ele>901</ele>
      </trkpt>
      <trkpt lat="44.61188" lon="5.18337">
        <ele>888</ele>
      </trkpt>
      <trkpt lat="44.61165" lon="5.18337">
        <ele>883</ele>
      </trkpt>
      <trkpt lat="44.6111" lon="5.18357">
        <ele>882</ele>
      </trkpt>
      <trkpt lat="44.61074" lon="5.1838">
        <ele>883</ele>
      </trkpt>
      <trkpt lat="44.61049" lon="5.18388">
        <ele>879</ele>
      </trkpt>
      <trkpt lat="44.6102" lon="5.18391">
        <ele>875</ele>
      </trkpt>
      <trkpt lat="44.60969" lon="5.18402">
        <ele>875</ele>
      </trkpt>
      <trkpt lat="44.60947" lon="5.18412">
        <ele>872</ele>
      </trkpt>
      <trkpt lat="44.60929" lon="5.18411">
        <ele>868</ele>
      </trkpt>
      <trkpt lat="44.60912" lon="5.18408">
        <ele>867</ele>
      </trkpt>
      <trkpt lat="44.609" lon="5.184">
        <ele>864</ele>
      </trkpt>
      <trkpt lat="44.60896" lon="5.18387">
        <ele>861</ele>
      </trkpt>
      <trkpt lat="44.60897" lon="5.18374">
        <ele>860</ele>
      </trkpt>
      <trkpt lat="44.60904" lon="5.18364">
        <ele>858</ele>
      </trkpt>
      <trkpt lat="44.60933" lon="5.18344">
        <ele>860</ele>
      </trkpt>
      <trkpt lat="44.60968" lon="5.18314">
        <ele>858</ele>
      </trkpt>
      <trkpt lat="44.6099" lon="5.18287">
        <ele>854</ele>
      </trkpt>
      <trkpt lat="44.61013" lon="5.18272">
        <ele>849</ele>
      </trkpt>
      <trkpt lat="44.61032" lon="5.18253">
        <ele>845</ele>
      </trkpt>
      <trkpt lat="44.61135" lon="5.18174">
        <ele>842</ele>
      </trkpt>
      <trkpt lat="44.6114" lon="5.18166">
        <ele>837</ele>
      </trkpt>
      <trkpt lat="44.6114" lon="5.18157">
        <ele>836</ele>
      </trkpt>
      <trkpt lat="44.61137" lon="5.18151">
        <ele>836</ele>
      </trkpt>
      <trkpt lat="44.61128" lon="5.18146">
        <ele>834</ele>
      </trkpt>
      <trkpt lat="44.61089" lon="5.18144">
        <ele>831</ele>
      </trkpt>
      <trkpt lat="44.61006" lon="5.18121">
        <ele>821</ele>
      </trkpt>
      <trkpt lat="44.60994" lon="5.1812">
        <ele>821</ele>
      </trkpt>
      <trkpt lat="44.60985" lon="5.18117">
        <ele>821</ele>
      </trkpt>
      <trkpt lat="44.60952" lon="5.18093">
        <ele>815</ele>
      </trkpt>
      <trkpt lat="44.60896" lon="5.18072">
        <ele>811</ele>
      </trkpt>
      <trkpt lat="44.60878" lon="5.1807">
        <ele>810</ele>
      </trkpt>
      <trkpt lat="44.60826" lon="5.18082">
        <ele>810</ele>
      </trkpt>
      <trkpt lat="44.6081" lon="5.18087">
        <ele>808</ele>
      </trkpt>
      <trkpt lat="44.6078" lon="5.18105">
        <ele>807</ele>
      </trkpt>
      <trkpt lat="44.60772" lon="5.18112">
        <ele>807</ele>
      </trkpt>
      <trkpt lat="44.60765" lon="5.18113">
        <ele>803</ele>
      </trkpt>
      <trkpt lat="44.60761" lon="5.18108">
        <ele>802</ele>
      </trkpt>
      <trkpt lat="44.6076" lon="5.18102">
        <ele>801</ele>
      </trkpt>
      <trkpt lat="44.60762" lon="5.18091">
        <ele>801</ele>
      </trkpt>
      <trkpt lat="44.60771" lon="5.18065">
        <ele>800</ele>
      </trkpt>
      <trkpt lat="44.60782" lon="5.18047">
        <ele>796</ele>
      </trkpt>
      <trkpt lat="44.60845" lon="5.18003">
        <ele>786</ele>
      </trkpt>
      <trkpt lat="44.60875" lon="5.17987">
        <ele>785</ele>
      </trkpt>
      <trkpt lat="44.60899" lon="5.17981">
        <ele>785</ele>
      </trkpt>
      <trkpt lat="44.60922" lon="5.17978">
        <ele>788</ele>
      </trkpt>
      <trkpt lat="44.60934" lon="5.17971">
        <ele>788</ele>
      </trkpt>
      <trkpt lat="44.60941" lon="5.17961">
        <ele>788</ele>
      </trkpt>
      <trkpt lat="44.60946" lon="5.17947">
        <ele>785</ele>
      </trkpt>
      <trkpt lat="44.60959" lon="5.17879">
        <ele>778</ele>
      </trkpt>
      <trkpt lat="44.60967" lon="5.1786">
        <ele>778</ele>
      </trkpt>
      <trkpt lat="44.60991" lon="5.17815">
        <ele>773</ele>
      </trkpt>
      <trkpt lat="44.61006" lon="5.17798">
        <ele>766</ele>
      </trkpt>
      <trkpt lat="44.61019" lon="5.17786">
        <ele>765</ele>
      </trkpt>
      <trkpt lat="44.61034" lon="5.17778">
        <ele>757</ele>
      </trkpt>
      <trkpt lat="44.61044" lon="5.17776">
        <ele>756</ele>
      </trkpt>
      <trkpt lat="44.61062" lon="5.17776">
        <ele>755</ele>
      </trkpt>
      <trkpt lat="44.61106" lon="5.17781">
        <ele>752</ele>
      </trkpt>
      <trkpt lat="44.61152" lon="5.17777">
        <ele>747</ele>
      </trkpt>
      <trkpt lat="44.61185" lon="5.17784">
        <ele>744</ele>
      </trkpt>
      <trkpt lat="44.61216" lon="5.17792">
        <ele>739</ele>
      </trkpt>
      <trkpt lat="44.61233" lon="5.17801">
        <ele>738</ele>
      </trkpt>
      <trkpt lat="44.61287" lon="5.17842">
        <ele>739</ele>
      </trkpt>
      <trkpt lat="44.61338" lon="5.17871">
        <ele>735</ele>
      </trkpt>
      <trkpt lat="44.61344" lon="5.17871">
        <ele>735</ele>
      </trkpt>
      <trkpt lat="44.61349" lon="5.17864">
        <ele>729</ele>
      </trkpt>
      <trkpt lat="44.61349" lon="5.17857">
        <ele>728</ele>
      </trkpt>
      <trkpt lat="44.61346" lon="5.1785">
        <ele>727</ele>
      </trkpt>
      <trkpt lat="44.61301" lon="5.17792">
        <ele>722</ele>
      </trkpt>
      <trkpt lat="44.61286" lon="5.1776">
        <ele>719</ele>
      </trkpt>
      <trkpt lat="44.61278" lon="5.17749">
        <ele>714</ele>
      </trkpt>
      <trkpt lat="44.61208" lon="5.17694">
        <ele>711</ele>
      </trkpt>
      <trkpt lat="44.6117" lon="5.17681">
        <ele>713</ele>
      </trkpt>
      <trkpt lat="44.6116" lon="5.17672">
        <ele>712</ele>
      </trkpt>
      <trkpt lat="44.6115" lon="5.17659">
        <ele>707</ele>
      </trkpt>
      <trkpt lat="44.61132" lon="5.17648">
        <ele>706</ele>
      </trkpt>
      <trkpt lat="44.61112" lon="5.17647">
        <ele>705</ele>
      </trkpt>
      <trkpt lat="44.61097" lon="5.17652">
        <ele>706</ele>
      </trkpt>
      <trkpt lat="44.61089" lon="5.17652">
        <ele>705</ele>
      </trkpt>
      <trkpt lat="44.61048" lon="5.17629">
        <ele>695</ele>
      </trkpt>
      <trkpt lat="44.61032" lon="5.17622">
        <ele>696</ele>
      </trkpt>
      <trkpt lat="44.6101" lon="5.17616">
        <ele>690</ele>
      </trkpt>
      <trkpt lat="44.6099" lon="5.17614">
        <ele>690</ele>
      </trkpt>
      <trkpt lat="44.60954" lon="5.17602">
        <ele>690</ele>
      </trkpt>
      <trkpt lat="44.60948" lon="5.17603">
        <ele>690</ele>
      </trkpt>
      <trkpt lat="44.60928" lon="5.17616">
        <ele>691</ele>
      </trkpt>
      <trkpt lat="44.6092" lon="5.17618">
        <ele>695</ele>
      </trkpt>
      <trkpt lat="44.60911" lon="5.17611">
        <ele>691</ele>
      </trkpt>
      <trkpt lat="44.60908" lon="5.17604">
        <ele>691</ele>
      </trkpt>
      <trkpt lat="44.60912" lon="5.1759">
        <ele>690</ele>
      </trkpt>
      <trkpt lat="44.60919" lon="5.1758">
        <ele>685</ele>
      </trkpt>
      <trkpt lat="44.6094" lon="5.17561">
        <ele>683</ele>
      </trkpt>
      <trkpt lat="44.60951" lon="5.17556">
        <ele>677</ele>
      </trkpt>
      <trkpt lat="44.61019" lon="5.17549">
        <ele>668</ele>
      </trkpt>
      <trkpt lat="44.61044" lon="5.17551">
        <ele>669</ele>
      </trkpt>
      <trkpt lat="44.61077" lon="5.1756">
        <ele>674</ele>
      </trkpt>
      <trkpt lat="44.61115" lon="5.17552">
        <ele>674</ele>
      </trkpt>
      <trkpt lat="44.61189" lon="5.17504">
        <ele>653</ele>
      </trkpt>
      <trkpt lat="44.61223" lon="5.17505">
        <ele>655</ele>
      </trkpt>
      <trkpt lat="44.61227" lon="5.17496">
        <ele>649</ele>
      </trkpt>
      <trkpt lat="44.61226" lon="5.17491">
        <ele>649</ele>
      </trkpt>
      <trkpt lat="44.61222" lon="5.17486">
        <ele>648</ele>
      </trkpt>
      <trkpt lat="44.61185" lon="5.17474">
        <ele>646</ele>
      </trkpt>
      <trkpt lat="44.61131" lon="5.17463">
        <ele>650</ele>
      </trkpt>
      <trkpt lat="44.61062" lon="5.17466">
        <ele>644</ele>
      </trkpt>
      <trkpt lat="44.61054" lon="5.17464">
        <ele>644</ele>
      </trkpt>
      <trkpt lat="44.60959" lon="5.17387">
        <ele>628</ele>
      </trkpt>
      <trkpt lat="44.60933" lon="5.1737">
        <ele>628</ele>
      </trkpt>
      <trkpt lat="44.60912" lon="5.17362">
        <ele>621</ele>
      </trkpt>
      <trkpt lat="44.60884" lon="5.17366">
        <ele>629</ele>
      </trkpt>
      <trkpt lat="44.60849" lon="5.17366">
        <ele>629</ele>
      </trkpt>
      <trkpt lat="44.60836" lon="5.17361">
        <ele>622</ele>
      </trkpt>
      <trkpt lat="44.608" lon="5.17337">
        <ele>613</ele>
      </trkpt>
      <trkpt lat="44.6079" lon="5.17335">
        <ele>612</ele>
      </trkpt>
      <trkpt lat="44.60747" lon="5.17358">
        <ele>616</ele>
      </trkpt>
      <trkpt lat="44.60699" lon="5.17378">
        <ele>613</ele>
      </trkpt>
      <trkpt lat="44.60632" lon="5.17419">
        <ele>603</ele>
      </trkpt>
      <trkpt lat="44.6062" lon="5.17434">
        <ele>602</ele>
      </trkpt>
      <trkpt lat="44.60608" lon="5.17456">
        <ele>605</ele>
      </trkpt>
      <trkpt lat="44.60598" lon="5.17464">
        <ele>600</ele>
      </trkpt>
      <trkpt lat="44.60589" lon="5.17466">
        <ele>599</ele>
      </trkpt>
      <trkpt lat="44.60577" lon="5.17465">
        <ele>598</ele>
      </trkpt>
      <trkpt lat="44.60566" lon="5.17461">
        <ele>594</ele>
      </trkpt>
      <trkpt lat="44.60544" lon="5.17463">
        <ele>591</ele>
      </trkpt>
      <trkpt lat="44.60501" lon="5.17475">
        <ele>587</ele>
      </trkpt>
      <trkpt lat="44.60483" lon="5.17484">
        <ele>587</ele>
      </trkpt>
      <trkpt lat="44.60471" lon="5.17495">
        <ele>587</ele>
      </trkpt>
      <trkpt lat="44.60443" lon="5.1755">
        <ele>589</ele>
      </trkpt>
      <trkpt lat="44.60437" lon="5.17552">
        <ele>589</ele>
      </trkpt>
      <trkpt lat="44.60382" lon="5.17521">
        <ele>573</ele>
      </trkpt>
      <trkpt lat="44.60374" lon="5.17518">
        <ele>571</ele>
      </trkpt>
      <trkpt lat="44.60366" lon="5.17519">
        <ele>571</ele>
      </trkpt>
      <trkpt lat="44.60357" lon="5.17528">
        <ele>571</ele>
      </trkpt>
      <trkpt lat="44.6035" lon="5.17554">
        <ele>572</ele>
      </trkpt>
      <trkpt lat="44.60346" lon="5.17582">
        <ele>575</ele>
      </trkpt>
      <trkpt lat="44.6034" lon="5.17596">
        <ele>578</ele>
      </trkpt>
      <trkpt lat="44.60323" lon="5.17615">
        <ele>578</ele>
      </trkpt>
      <trkpt lat="44.60314" lon="5.1762">
        <ele>575</ele>
      </trkpt>
      <trkpt lat="44.60304" lon="5.17617">
        <ele>574</ele>
      </trkpt>
      <trkpt lat="44.60294" lon="5.176">
        <ele>570</ele>
      </trkpt>
      <trkpt lat="44.60293" lon="5.17589">
        <ele>569</ele>
      </trkpt>
      <trkpt lat="44.60294" lon="5.17578">
        <ele>567</ele>
      </trkpt>
      <trkpt lat="44.60304" lon="5.17541">
        <ele>564</ele>
      </trkpt>
      <trkpt lat="44.60304" lon="5.17509">
        <ele>561</ele>
      </trkpt>
      <trkpt lat="44.60291" lon="5.17478">
        <ele>555</ele>
      </trkpt>
      <trkpt lat="44.60235" lon="5.17396">
        <ele>546</ele>
      </trkpt>
      <trkpt lat="44.60218" lon="5.17377">
        <ele>542</ele>
      </trkpt>
      <trkpt lat="44.60155" lon="5.1732">
        <ele>545</ele>
      </trkpt>
      <trkpt lat="44.60126" lon="5.17285">
        <ele>547</ele>
      </trkpt>
      <trkpt lat="44.60111" lon="5.17261">
        <ele>543</ele>
      </trkpt>
      <trkpt lat="44.60099" lon="5.17228">
        <ele>543</ele>
      </trkpt>
      <trkpt lat="44.60091" lon="5.17197">
        <ele>538</ele>
      </trkpt>
      <trkpt lat="44.60083" lon="5.17177">
        <ele>538</ele>
      </trkpt>
      <trkpt lat="44.60041" lon="5.17098">
        <ele>536</ele>
      </trkpt>
      <trkpt lat="44.60032" lon="5.17086">
        <ele>538</ele>
      </trkpt>
      <trkpt lat="44.6" lon="5.17066">
        <ele>535</ele>
      </trkpt>
      <trkpt lat="44.59982" lon="5.17044">
        <ele>536</ele>
      </trkpt>
      <trkpt lat="44.59973" lon="5.17022">
        <ele>537</ele>
      </trkpt>
      <trkpt lat="44.59873" lon="5.16936">
        <ele>525</ele>
      </trkpt>
      <trkpt lat="44.59854" lon="5.16912">
        <ele>525</ele>
      </trkpt>
      <trkpt lat="44.59796" lon="5.16862">
        <ele>523</ele>
      </trkpt>
      <trkpt lat="44.59785" lon="5.16857">
        <ele>521</ele>
      </trkpt>
      <trkpt lat="44.59772" lon="5.16859">
        <ele>521</ele>
      </trkpt>
      <trkpt lat="44.59746" lon="5.16868">
        <ele>515</ele>
      </trkpt>
      <trkpt lat="44.59729" lon="5.16868">
        <ele>513</ele>
      </trkpt>
      <trkpt lat="44.5969" lon="5.16845">
        <ele>512</ele>
      </trkpt>
      <trkpt lat="44.59672" lon="5.16825">
        <ele>511</ele>
      </trkpt>
      <trkpt lat="44.59665" lon="5.16809">
        <ele>511</ele>
      </trkpt>
      <trkpt lat="44.59655" lon="5.1673">
        <ele>509</ele>
      </trkpt>
      <trkpt lat="44.59641" lon="5.16631">
        <ele>508</ele>
      </trkpt>
      <trkpt lat="44.59574" lon="5.16336">
        <ele>491</ele>
      </trkpt>
      <trkpt lat="44.5957" lon="5.16297">
        <ele>487</ele>
      </trkpt>
      <trkpt lat="44.59573" lon="5.16218">
        <ele>482</ele>
      </trkpt>
      <trkpt lat="44.59577" lon="5.1618">
        <ele>481</ele>
      </trkpt>
      <trkpt lat="44.59599" lon="5.16135">
        <ele>481</ele>
      </trkpt>
      <trkpt lat="44.59613" lon="5.16067">
        <ele>480</ele>
      </trkpt>
      <trkpt lat="44.5963" lon="5.16029">
        <ele>480</ele>
      </trkpt>
      <trkpt lat="44.5968" lon="5.1595">
        <ele>479</ele>
      </trkpt>
      <trkpt lat="44.59766" lon="5.15746">
        <ele>477</ele>
      </trkpt>
      <trkpt lat="44.59773" lon="5.1572">
        <ele>477</ele>
      </trkpt>
      <trkpt lat="44.59781" lon="5.15673">
        <ele>475</ele>
      </trkpt>
      <trkpt lat="44.59791" lon="5.15647">
        <ele>474</ele>
      </trkpt>
      <trkpt lat="44.59837" lon="5.15562">
        <ele>468</ele>
      </trkpt>
      <trkpt lat="44.59859" lon="5.15528">
        <ele>464</ele>
      </trkpt>
      <trkpt lat="44.5991" lon="5.15438">
        <ele>461</ele>
      </trkpt>
      <trkpt lat="44.59946" lon="5.15367">
        <ele>463</ele>
      </trkpt>
      <trkpt lat="44.59948" lon="5.15358">
        <ele>465</ele>
      </trkpt>
      <trkpt lat="44.59958" lon="5.1521">
        <ele>472</ele>
      </trkpt>
      <trkpt lat="44.59952" lon="5.15175">
        <ele>471</ele>
      </trkpt>
      <trkpt lat="44.59935" lon="5.15137">
        <ele>468</ele>
      </trkpt>
      <trkpt lat="44.59911" lon="5.15102">
        <ele>462</ele>
      </trkpt>
      <trkpt lat="44.59852" lon="5.15047">
        <ele>451</ele>
      </trkpt>
      <trkpt lat="44.59844" lon="5.15035">
        <ele>451</ele>
      </trkpt>
      <trkpt lat="44.59841" lon="5.15018">
        <ele>452</ele>
      </trkpt>
      <trkpt lat="44.59843" lon="5.14998">
        <ele>455</ele>
      </trkpt>
      <trkpt lat="44.59848" lon="5.1497">
        <ele>457</ele>
      </trkpt>
      <trkpt lat="44.59851" lon="5.1493">
        <ele>461</ele>
      </trkpt>
      <trkpt lat="44.59846" lon="5.14879">
        <ele>462</ele>
      </trkpt>
      <trkpt lat="44.59837" lon="5.14844">
        <ele>464</ele>
      </trkpt>
      <trkpt lat="44.59824" lon="5.14816">
        <ele>465</ele>
      </trkpt>
      <trkpt lat="44.59793" lon="5.14766">
        <ele>453</ele>
      </trkpt>
      <trkpt lat="44.59783" lon="5.14736">
        <ele>451</ele>
      </trkpt>
      <trkpt lat="44.59756" lon="5.14662">
        <ele>450</ele>
      </trkpt>
      <trkpt lat="44.59748" lon="5.14651">
        <ele>450</ele>
      </trkpt>
      <trkpt lat="44.59738" lon="5.14642">
        <ele>448</ele>
      </trkpt>
      <trkpt lat="44.59691" lon="5.14618">
        <ele>446</ele>
      </trkpt>
      <trkpt lat="44.59683" lon="5.14607">
        <ele>444</ele>
      </trkpt>
      <trkpt lat="44.59675" lon="5.14592">
        <ele>444</ele>
      </trkpt>
      <trkpt lat="44.59666" lon="5.14566">
        <ele>444</ele>
      </trkpt>
      <trkpt lat="44.59636" lon="5.14453">
        <ele>441</ele>
      </trkpt>
      <trkpt lat="44.59631" lon="5.14423">
        <ele>442</ele>
      </trkpt>
      <trkpt lat="44.59628" lon="5.14369">
        <ele>441</ele>
      </trkpt>
      <trkpt lat="44.59622" lon="5.14346">
        <ele>438</ele>
      </trkpt>
      <trkpt lat="44.59614" lon="5.14326">
        <ele>436</ele>
      </trkpt>
      <trkpt lat="44.59603" lon="5.14308">
        <ele>436</ele>
      </trkpt>
      <trkpt lat="44.59574" lon="5.14285">
        <ele>433</ele>
      </trkpt>
      <trkpt lat="44.5956" lon="5.14277">
        <ele>432</ele>
      </trkpt>
      <trkpt lat="44.59547" lon="5.14274">
        <ele>431</ele>
      </trkpt>
      <trkpt lat="44.59521" lon="5.14274">
        <ele>429</ele>
      </trkpt>
      <trkpt lat="44.59497" lon="5.14269">
        <ele>428</ele>
      </trkpt>
      <trkpt lat="44.59486" lon="5.1426">
        <ele>428</ele>
      </trkpt>
      <trkpt lat="44.59476" lon="5.14248">
        <ele>427</ele>
      </trkpt>
      <trkpt lat="44.59467" lon="5.14228">
        <ele>427</ele>
      </trkpt>
      <trkpt lat="44.59449" lon="5.1418">
        <ele>428</ele>
      </trkpt>
      <trkpt lat="44.59437" lon="5.14132">
        <ele>426</ele>
      </trkpt>
      <trkpt lat="44.59422" lon="5.14055">
        <ele>422</ele>
      </trkpt>
      <trkpt lat="44.59408" lon="5.14006">
        <ele>421</ele>
      </trkpt>
      <trkpt lat="44.59399" lon="5.13985">
        <ele>420</ele>
      </trkpt>
      <trkpt lat="44.59343" lon="5.13917">
        <ele>420</ele>
      </trkpt>
      <trkpt lat="44.5933" lon="5.13886">
        <ele>420</ele>
      </trkpt>
      <trkpt lat="44.59307" lon="5.13793">
        <ele>419</ele>
      </trkpt>
      <trkpt lat="44.59294" lon="5.13765">
        <ele>417</ele>
      </trkpt>
      <trkpt lat="44.59246" lon="5.13726">
        <ele>415</ele>
      </trkpt>
      <trkpt lat="44.59227" lon="5.13698">
        <ele>415</ele>
      </trkpt>
      <trkpt lat="44.59216" lon="5.1367">
        <ele>415</ele>
      </trkpt>
      <trkpt lat="44.59203" lon="5.13626">
        <ele>413</ele>
      </trkpt>
      <trkpt lat="44.59183" lon="5.13577">
        <ele>411</ele>
      </trkpt>
      <trkpt lat="44.59159" lon="5.13531">
        <ele>409</ele>
      </trkpt>
      <trkpt lat="44.59152" lon="5.13499">
        <ele>408</ele>
      </trkpt>
      <trkpt lat="44.59144" lon="5.13412">
        <ele>408</ele>
      </trkpt>
      <trkpt lat="44.59127" lon="5.13308">
        <ele>407</ele>
      </trkpt>
      <trkpt lat="44.59109" lon="5.13191">
        <ele>408</ele>
      </trkpt>
      <trkpt lat="44.59087" lon="5.132">
        <ele>406</ele>
      </trkpt>
      <trkpt lat="44.5887" lon="5.13344">
        <ele>406</ele>
      </trkpt>
      <trkpt lat="44.58728" lon="5.13434">
        <ele>405</ele>
      </trkpt>
      <trkpt lat="44.58726" lon="5.1343">
        <ele>405</ele>
      </trkpt>
      <trkpt lat="44.58698" lon="5.13367">
        <ele>407</ele>
      </trkpt>
      <trkpt lat="44.58692" lon="5.13361">
        <ele>407</ele>
      </trkpt>
      <trkpt lat="44.58689" lon="5.13363">
        <ele>407</ele>
      </trkpt>
      <trkpt lat="44.58642" lon="5.13405">
        <ele>406</ele>
      </trkpt>
      <trkpt lat="44.58638" lon="5.13407">
        <ele>406</ele>
      </trkpt>
      <trkpt lat="44.58593" lon="5.13398">
        <ele>406</ele>
      </trkpt>
      <trkpt lat="44.58527" lon="5.13381">
        <ele>407</ele>
      </trkpt>
      <trkpt lat="44.5852" lon="5.13383">
        <ele>408</ele>
      </trkpt>
      <trkpt lat="44.58503" lon="5.13395">
        <ele>409</ele>
      </trkpt>
      <trkpt lat="44.58463" lon="5.13417">
        <ele>410</ele>
      </trkpt>
      <trkpt lat="44.58424" lon="5.13426">
        <ele>410</ele>
      </trkpt>
      <trkpt lat="44.58398" lon="5.13434">
        <ele>413</ele>
      </trkpt>
      <trkpt lat="44.58372" lon="5.13445">
        <ele>416</ele>
      </trkpt>
      <trkpt lat="44.58348" lon="5.13463">
        <ele>418</ele>
      </trkpt>
      <trkpt lat="44.5831" lon="5.13492">
        <ele>417</ele>
      </trkpt>
      <trkpt lat="44.58286" lon="5.13502">
        <ele>419</ele>
      </trkpt>
      <trkpt lat="44.58276" lon="5.13501">
        <ele>419</ele>
      </trkpt>
      <trkpt lat="44.5827" lon="5.13496">
        <ele>419</ele>
      </trkpt>
      <trkpt lat="44.58265" lon="5.13487">
        <ele>420</ele>
      </trkpt>
      <trkpt lat="44.58254" lon="5.13425">
        <ele>428</ele>
      </trkpt>
      <trkpt lat="44.58236" lon="5.13387">
        <ele>433</ele>
      </trkpt>
      <trkpt lat="44.58218" lon="5.13365">
        <ele>435</ele>
      </trkpt>
      <trkpt lat="44.58184" lon="5.1334">
        <ele>439</ele>
      </trkpt>
      <trkpt lat="44.58171" lon="5.13317">
        <ele>441</ele>
      </trkpt>
      <trkpt lat="44.58163" lon="5.13289">
        <ele>445</ele>
      </trkpt>
      <trkpt lat="44.58162" lon="5.13276">
        <ele>447</ele>
      </trkpt>
      <trkpt lat="44.58164" lon="5.13251">
        <ele>448</ele>
      </trkpt>
      <trkpt lat="44.58173" lon="5.13215">
        <ele>450</ele>
      </trkpt>
      <trkpt lat="44.58173" lon="5.132">
        <ele>450</ele>
      </trkpt>
      <trkpt lat="44.58171" lon="5.13186">
        <ele>450</ele>
      </trkpt>
      <trkpt lat="44.58167" lon="5.13178">
        <ele>450</ele>
      </trkpt>
      <trkpt lat="44.58157" lon="5.13168">
        <ele>450</ele>
      </trkpt>
      <trkpt lat="44.58127" lon="5.1315">
        <ele>445</ele>
      </trkpt>
      <trkpt lat="44.58113" lon="5.13135">
        <ele>449</ele>
      </trkpt>
      <trkpt lat="44.58077" lon="5.13047">
        <ele>460</ele>
      </trkpt>
      <trkpt lat="44.58064" lon="5.13031">
        <ele>461</ele>
      </trkpt>
      <trkpt lat="44.58034" lon="5.13001">
        <ele>462</ele>
      </trkpt>
      <trkpt lat="44.58027" lon="5.12989">
        <ele>463</ele>
      </trkpt>
      <trkpt lat="44.58023" lon="5.12973">
        <ele>466</ele>
      </trkpt>
      <trkpt lat="44.58019" lon="5.12914">
        <ele>470</ele>
      </trkpt>
      <trkpt lat="44.5802" lon="5.12894">
        <ele>471</ele>
      </trkpt>
      <trkpt lat="44.58035" lon="5.12842">
        <ele>474</ele>
      </trkpt>
      <trkpt lat="44.58048" lon="5.12793">
        <ele>477</ele>
      </trkpt>
      <trkpt lat="44.58049" lon="5.1277">
        <ele>477</ele>
      </trkpt>
      <trkpt lat="44.58046" lon="5.12751">
        <ele>477</ele>
      </trkpt>
      <trkpt lat="44.58026" lon="5.12714">
        <ele>477</ele>
      </trkpt>
      <trkpt lat="44.58015" lon="5.12703">
        <ele>478</ele>
      </trkpt>
      <trkpt lat="44.58005" lon="5.12702">
        <ele>478</ele>
      </trkpt>
      <trkpt lat="44.57991" lon="5.12705">
        <ele>478</ele>
      </trkpt>
      <trkpt lat="44.57984" lon="5.1271">
        <ele>481</ele>
      </trkpt>
      <trkpt lat="44.57976" lon="5.12718">
        <ele>481</ele>
      </trkpt>
      <trkpt lat="44.57961" lon="5.12747">
        <ele>480</ele>
      </trkpt>
      <trkpt lat="44.57953" lon="5.12758">
        <ele>482</ele>
      </trkpt>
      <trkpt lat="44.57941" lon="5.12764">
        <ele>482</ele>
      </trkpt>
      <trkpt lat="44.5793" lon="5.12764">
        <ele>484</ele>
      </trkpt>
      <trkpt lat="44.57897" lon="5.12751">
        <ele>488</ele>
      </trkpt>
      <trkpt lat="44.5789" lon="5.1275">
        <ele>489</ele>
      </trkpt>
      <trkpt lat="44.57877" lon="5.12754">
        <ele>488</ele>
      </trkpt>
      <trkpt lat="44.57852" lon="5.12771">
        <ele>488</ele>
      </trkpt>
      <trkpt lat="44.57845" lon="5.12771">
        <ele>490</ele>
      </trkpt>
      <trkpt lat="44.57839" lon="5.12763">
        <ele>490</ele>
      </trkpt>
      <trkpt lat="44.57839" lon="5.12752">
        <ele>491</ele>
      </trkpt>
      <trkpt lat="44.57841" lon="5.12744">
        <ele>492</ele>
      </trkpt>
      <trkpt lat="44.57851" lon="5.12727">
        <ele>491</ele>
      </trkpt>
      <trkpt lat="44.57874" lon="5.12701">
        <ele>494</ele>
      </trkpt>
      <trkpt lat="44.57936" lon="5.12653">
        <ele>495</ele>
      </trkpt>
      <trkpt lat="44.57948" lon="5.1264">
        <ele>498</ele>
      </trkpt>
      <trkpt lat="44.58008" lon="5.1254">
        <ele>512</ele>
      </trkpt>
      <trkpt lat="44.58015" lon="5.12531">
        <ele>518</ele>
      </trkpt>
      <trkpt lat="44.58023" lon="5.12524">
        <ele>517</ele>
      </trkpt>
      <trkpt lat="44.58036" lon="5.1252">
        <ele>518</ele>
      </trkpt>
      <trkpt lat="44.5807" lon="5.1252">
        <ele>518</ele>
      </trkpt>
      <trkpt lat="44.58083" lon="5.12522">
        <ele>520</ele>
      </trkpt>
      <trkpt lat="44.58127" lon="5.12548">
        <ele>514</ele>
      </trkpt>
      <trkpt lat="44.58137" lon="5.12549">
        <ele>512</ele>
      </trkpt>
      <trkpt lat="44.58144" lon="5.12547">
        <ele>512</ele>
      </trkpt>
      <trkpt lat="44.5815" lon="5.12543">
        <ele>512</ele>
      </trkpt>
      <trkpt lat="44.58165" lon="5.12527">
        <ele>514</ele>
      </trkpt>
      <trkpt lat="44.58183" lon="5.12488">
        <ele>520</ele>
      </trkpt>
      <trkpt lat="44.58193" lon="5.12478">
        <ele>521</ele>
      </trkpt>
      <trkpt lat="44.58213" lon="5.12468">
        <ele>523</ele>
      </trkpt>
      <trkpt lat="44.58235" lon="5.1246">
        <ele>523</ele>
      </trkpt>
      <trkpt lat="44.58247" lon="5.1245">
        <ele>519</ele>
      </trkpt>
      <trkpt lat="44.58243" lon="5.12445">
        <ele>523</ele>
      </trkpt>
      <trkpt lat="44.58231" lon="5.12442">
        <ele>528</ele>
      </trkpt>
      <trkpt lat="44.58202" lon="5.12442">
        <ele>532</ele>
      </trkpt>
      <trkpt lat="44.58175" lon="5.12445">
        <ele>535</ele>
      </trkpt>
      <trkpt lat="44.58143" lon="5.12453">
        <ele>535</ele>
      </trkpt>
      <trkpt lat="44.58133" lon="5.12453">
        <ele>535</ele>
      </trkpt>
      <trkpt lat="44.58062" lon="5.12439">
        <ele>543</ele>
      </trkpt>
      <trkpt lat="44.58033" lon="5.1243">
        <ele>545</ele>
      </trkpt>
      <trkpt lat="44.58022" lon="5.12425">
        <ele>546</ele>
      </trkpt>
      <trkpt lat="44.58002" lon="5.1241">
        <ele>557</ele>
      </trkpt>
      <trkpt lat="44.57994" lon="5.12409">
        <ele>557</ele>
      </trkpt>
      <trkpt lat="44.57988" lon="5.12411">
        <ele>558</ele>
      </trkpt>
      <trkpt lat="44.57974" lon="5.12422">
        <ele>552</ele>
      </trkpt>
      <trkpt lat="44.57954" lon="5.12432">
        <ele>555</ele>
      </trkpt>
      <trkpt lat="44.57934" lon="5.12453">
        <ele>550</ele>
      </trkpt>
      <trkpt lat="44.57923" lon="5.1246">
        <ele>553</ele>
      </trkpt>
      <trkpt lat="44.57917" lon="5.12462">
        <ele>553</ele>
      </trkpt>
      <trkpt lat="44.57911" lon="5.12461">
        <ele>553</ele>
      </trkpt>
      <trkpt lat="44.57899" lon="5.12452">
        <ele>556</ele>
      </trkpt>
      <trkpt lat="44.5789" lon="5.1245">
        <ele>556</ele>
      </trkpt>
      <trkpt lat="44.57851" lon="5.12462">
        <ele>558</ele>
      </trkpt>
      <trkpt lat="44.57835" lon="5.12457">
        <ele>560</ele>
      </trkpt>
      <trkpt lat="44.57819" lon="5.1245">
        <ele>562</ele>
      </trkpt>
      <trkpt lat="44.578" lon="5.12434">
        <ele>572</ele>
      </trkpt>
      <trkpt lat="44.57775" lon="5.12401">
        <ele>578</ele>
      </trkpt>
      <trkpt lat="44.57745" lon="5.12349">
        <ele>590</ele>
      </trkpt>
      <trkpt lat="44.57739" lon="5.12344">
        <ele>590</ele>
      </trkpt>
      <trkpt lat="44.57711" lon="5.12329">
        <ele>590</ele>
      </trkpt>
      <trkpt lat="44.57702" lon="5.12324">
        <ele>588</ele>
      </trkpt>
      <trkpt lat="44.57687" lon="5.1231">
        <ele>589</ele>
      </trkpt>
      <trkpt lat="44.57681" lon="5.12307">
        <ele>593</ele>
      </trkpt>
      <trkpt lat="44.57646" lon="5.12315">
        <ele>586</ele>
      </trkpt>
      <trkpt lat="44.57593" lon="5.12321">
        <ele>587</ele>
      </trkpt>
      <trkpt lat="44.57573" lon="5.12319">
        <ele>588</ele>
      </trkpt>
      <trkpt lat="44.57556" lon="5.12311">
        <ele>590</ele>
      </trkpt>
      <trkpt lat="44.57544" lon="5.12298">
        <ele>595</ele>
      </trkpt>
      <trkpt lat="44.57527" lon="5.12272">
        <ele>600</ele>
      </trkpt>
      <trkpt lat="44.57514" lon="5.12256">
        <ele>600</ele>
      </trkpt>
      <trkpt lat="44.57494" lon="5.12225">
        <ele>608</ele>
      </trkpt>
      <trkpt lat="44.57485" lon="5.12215">
        <ele>608</ele>
      </trkpt>
      <trkpt lat="44.57453" lon="5.12198">
        <ele>607</ele>
      </trkpt>
      <trkpt lat="44.57398" lon="5.12174">
        <ele>611</ele>
      </trkpt>
      <trkpt lat="44.57367" lon="5.12144">
        <ele>617</ele>
      </trkpt>
      <trkpt lat="44.57354" lon="5.12134">
        <ele>621</ele>
      </trkpt>
      <trkpt lat="44.5731" lon="5.12112">
        <ele>619</ele>
      </trkpt>
      <trkpt lat="44.57272" lon="5.12091">
        <ele>619</ele>
      </trkpt>
      <trkpt lat="44.57243" lon="5.1207">
        <ele>624</ele>
      </trkpt>
      <trkpt lat="44.57237" lon="5.1207">
        <ele>625</ele>
      </trkpt>
      <trkpt lat="44.57223" lon="5.1208">
        <ele>625</ele>
      </trkpt>
      <trkpt lat="44.57195" lon="5.12117">
        <ele>622</ele>
      </trkpt>
      <trkpt lat="44.57183" lon="5.12138">
        <ele>622</ele>
      </trkpt>
      <trkpt lat="44.57176" lon="5.12144">
        <ele>624</ele>
      </trkpt>
      <trkpt lat="44.57169" lon="5.12148">
        <ele>624</ele>
      </trkpt>
      <trkpt lat="44.57156" lon="5.12146">
        <ele>624</ele>
      </trkpt>
      <trkpt lat="44.5712" lon="5.12119">
        <ele>631</ele>
      </trkpt>
      <trkpt lat="44.57098" lon="5.12107">
        <ele>636</ele>
      </trkpt>
      <trkpt lat="44.57088" lon="5.12103">
        <ele>636</ele>
      </trkpt>
      <trkpt lat="44.57071" lon="5.12104">
        <ele>638</ele>
      </trkpt>
      <trkpt lat="44.57031" lon="5.12121">
        <ele>637</ele>
      </trkpt>
      <trkpt lat="44.5702" lon="5.12128">
        <ele>637</ele>
      </trkpt>
      <trkpt lat="44.57011" lon="5.12137">
        <ele>638</ele>
      </trkpt>
      <trkpt lat="44.57001" lon="5.1215">
        <ele>634</ele>
      </trkpt>
      <trkpt lat="44.5699" lon="5.12159">
        <ele>635</ele>
      </trkpt>
      <trkpt lat="44.56974" lon="5.12168">
        <ele>637</ele>
      </trkpt>
      <trkpt lat="44.56957" lon="5.12174">
        <ele>638</ele>
      </trkpt>
      <trkpt lat="44.56941" lon="5.12183">
        <ele>638</ele>
      </trkpt>
      <trkpt lat="44.56924" lon="5.12196">
        <ele>641</ele>
      </trkpt>
      <trkpt lat="44.56908" lon="5.12213">
        <ele>639</ele>
      </trkpt>
      <trkpt lat="44.5689" lon="5.12227">
        <ele>638</ele>
      </trkpt>
      <trkpt lat="44.5688" lon="5.12231">
        <ele>638</ele>
      </trkpt>
      <trkpt lat="44.56871" lon="5.12235">
        <ele>639</ele>
      </trkpt>
      <trkpt lat="44.56839" lon="5.12238">
        <ele>642</ele>
      </trkpt>
      <trkpt lat="44.56818" lon="5.12236">
        <ele>644</ele>
      </trkpt>
      <trkpt lat="44.56783" lon="5.1223">
        <ele>645</ele>
      </trkpt>
      <trkpt lat="44.56745" lon="5.1221">
        <ele>649</ele>
      </trkpt>
      <trkpt lat="44.56709" lon="5.12198">
        <ele>653</ele>
      </trkpt>
      <trkpt lat="44.56683" lon="5.12179">
        <ele>659</ele>
      </trkpt>
      <trkpt lat="44.56592" lon="5.1212">
        <ele>664</ele>
      </trkpt>
      <trkpt lat="44.56581" lon="5.12106">
        <ele>669</ele>
      </trkpt>
      <trkpt lat="44.56551" lon="5.12029">
        <ele>677</ele>
      </trkpt>
      <trkpt lat="44.56543" lon="5.12014">
        <ele>674</ele>
      </trkpt>
      <trkpt lat="44.56533" lon="5.11999">
        <ele>677</ele>
      </trkpt>
      <trkpt lat="44.56518" lon="5.11987">
        <ele>677</ele>
      </trkpt>
      <trkpt lat="44.56465" lon="5.1196">
        <ele>676</ele>
      </trkpt>
      <trkpt lat="44.56431" lon="5.11945">
        <ele>682</ele>
      </trkpt>
      <trkpt lat="44.56423" lon="5.11944">
        <ele>682</ele>
      </trkpt>
      <trkpt lat="44.56405" lon="5.11947">
        <ele>682</ele>
      </trkpt>
      <trkpt lat="44.56308" lon="5.11905">
        <ele>692</ele>
      </trkpt>
      <trkpt lat="44.5626" lon="5.11878">
        <ele>696</ele>
      </trkpt>
      <trkpt lat="44.56242" lon="5.11865">
        <ele>696</ele>
      </trkpt>
      <trkpt lat="44.56211" lon="5.11855">
        <ele>698</ele>
      </trkpt>
      <trkpt lat="44.5615" lon="5.11845">
        <ele>695</ele>
      </trkpt>
      <trkpt lat="44.56118" lon="5.11833">
        <ele>701</ele>
      </trkpt>
      <trkpt lat="44.56048" lon="5.11798">
        <ele>705</ele>
      </trkpt>
      <trkpt lat="44.56022" lon="5.11789">
        <ele>705</ele>
      </trkpt>
      <trkpt lat="44.55986" lon="5.11786">
        <ele>703</ele>
      </trkpt>
      <trkpt lat="44.55949" lon="5.11767">
        <ele>702</ele>
      </trkpt>
      <trkpt lat="44.55942" lon="5.11758">
        <ele>702</ele>
      </trkpt>
      <trkpt lat="44.55933" lon="5.11713">
        <ele>700</ele>
      </trkpt>
      <trkpt lat="44.55928" lon="5.11696">
        <ele>699</ele>
      </trkpt>
      <trkpt lat="44.55921" lon="5.11681">
        <ele>698</ele>
      </trkpt>
      <trkpt lat="44.55836" lon="5.11572">
        <ele>692</ele>
      </trkpt>
      <trkpt lat="44.55827" lon="5.11553">
        <ele>691</ele>
      </trkpt>
      <trkpt lat="44.558" lon="5.11436">
        <ele>685</ele>
      </trkpt>
      <trkpt lat="44.55788" lon="5.11424">
        <ele>685</ele>
      </trkpt>
      <trkpt lat="44.55753" lon="5.11382">
        <ele>684</ele>
      </trkpt>
      <trkpt lat="44.55664" lon="5.11314">
        <ele>682</ele>
      </trkpt>
      <trkpt lat="44.5545" lon="5.11174">
        <ele>675</ele>
      </trkpt>
      <trkpt lat="44.5531" lon="5.11081">
        <ele>671</ele>
      </trkpt>
      <trkpt lat="44.55295" lon="5.11082">
        <ele>671</ele>
      </trkpt>
      <trkpt lat="44.55282" lon="5.11101">
        <ele>673</ele>
      </trkpt>
      <trkpt lat="44.55258" lon="5.11177">
        <ele>678</ele>
      </trkpt>
      <trkpt lat="44.55226" lon="5.11265">
        <ele>681</ele>
      </trkpt>
      <trkpt lat="44.5522" lon="5.11277">
        <ele>681</ele>
      </trkpt>
      <trkpt lat="44.55209" lon="5.11286">
        <ele>679</ele>
      </trkpt>
      <trkpt lat="44.55162" lon="5.1131">
        <ele>678</ele>
      </trkpt>
      <trkpt lat="44.55142" lon="5.11314">
        <ele>677</ele>
      </trkpt>
      <trkpt lat="44.55096" lon="5.11318">
        <ele>677</ele>
      </trkpt>
      <trkpt lat="44.55079" lon="5.11324">
        <ele>677</ele>
      </trkpt>
      <trkpt lat="44.55066" lon="5.11331">
        <ele>677</ele>
      </trkpt>
      <trkpt lat="44.55054" lon="5.11342">
        <ele>680</ele>
      </trkpt>
      <trkpt lat="44.55019" lon="5.11393">
        <ele>684</ele>
      </trkpt>
      <trkpt lat="44.5501" lon="5.114">
        <ele>683</ele>
      </trkpt>
      <trkpt lat="44.55003" lon="5.11402">
        <ele>683</ele>
      </trkpt>
      <trkpt lat="44.54992" lon="5.114">
        <ele>683</ele>
      </trkpt>
      <trkpt lat="44.54957" lon="5.1138">
        <ele>681</ele>
      </trkpt>
      <trkpt lat="44.5495" lon="5.11372">
        <ele>681</ele>
      </trkpt>
      <trkpt lat="44.54943" lon="5.11359">
        <ele>679</ele>
      </trkpt>
      <trkpt lat="44.54932" lon="5.11326">
        <ele>676</ele>
      </trkpt>
      <trkpt lat="44.54926" lon="5.11311">
        <ele>677</ele>
      </trkpt>
      <trkpt lat="44.54919" lon="5.11299">
        <ele>675</ele>
      </trkpt>
      <trkpt lat="44.54911" lon="5.11293">
        <ele>675</ele>
      </trkpt>
      <trkpt lat="44.54903" lon="5.11289">
        <ele>677</ele>
      </trkpt>
      <trkpt lat="44.54888" lon="5.1129">
        <ele>678</ele>
      </trkpt>
      <trkpt lat="44.54834" lon="5.11302">
        <ele>681</ele>
      </trkpt>
      <trkpt lat="44.54816" lon="5.1131">
        <ele>681</ele>
      </trkpt>
      <trkpt lat="44.54809" lon="5.1131">
        <ele>681</ele>
      </trkpt>
      <trkpt lat="44.54782" lon="5.11327">
        <ele>680</ele>
      </trkpt>
      <trkpt lat="44.54772" lon="5.11328">
        <ele>680</ele>
      </trkpt>
      <trkpt lat="44.54765" lon="5.11322">
        <ele>680</ele>
      </trkpt>
      <trkpt lat="44.54741" lon="5.11288">
        <ele>677</ele>
      </trkpt>
      <trkpt lat="44.54731" lon="5.11277">
        <ele>676</ele>
      </trkpt>
      <trkpt lat="44.5468" lon="5.11244">
        <ele>677</ele>
      </trkpt>
      <trkpt lat="44.54633" lon="5.11202">
        <ele>674</ele>
      </trkpt>
      <trkpt lat="44.54608" lon="5.11178">
        <ele>673</ele>
      </trkpt>
      <trkpt lat="44.54588" lon="5.11166">
        <ele>671</ele>
      </trkpt>
      <trkpt lat="44.5457" lon="5.11163">
        <ele>673</ele>
      </trkpt>
      <trkpt lat="44.54541" lon="5.11164">
        <ele>675</ele>
      </trkpt>
      <trkpt lat="44.54504" lon="5.11171">
        <ele>680</ele>
      </trkpt>
      <trkpt lat="44.54483" lon="5.11181">
        <ele>678</ele>
      </trkpt>
      <trkpt lat="44.54434" lon="5.11221">
        <ele>679</ele>
      </trkpt>
      <trkpt lat="44.54409" lon="5.11234">
        <ele>680</ele>
      </trkpt>
      <trkpt lat="44.54394" lon="5.11237">
        <ele>677</ele>
      </trkpt>
      <trkpt lat="44.54359" lon="5.11237">
        <ele>675</ele>
      </trkpt>
      <trkpt lat="44.54347" lon="5.11236">
        <ele>674</ele>
      </trkpt>
      <trkpt lat="44.54328" lon="5.11223">
        <ele>670</ele>
      </trkpt>
      <trkpt lat="44.54308" lon="5.11205">
        <ele>667</ele>
      </trkpt>
      <trkpt lat="44.5429" lon="5.11182">
        <ele>661</ele>
      </trkpt>
      <trkpt lat="44.54272" lon="5.1115">
        <ele>656</ele>
      </trkpt>
      <trkpt lat="44.54237" lon="5.11091">
        <ele>650</ele>
      </trkpt>
      <trkpt lat="44.54227" lon="5.11072">
        <ele>649</ele>
      </trkpt>
      <trkpt lat="44.54223" lon="5.11056">
        <ele>649</ele>
      </trkpt>
      <trkpt lat="44.54222" lon="5.11037">
        <ele>649</ele>
      </trkpt>
      <trkpt lat="44.54225" lon="5.10956">
        <ele>646</ele>
      </trkpt>
      <trkpt lat="44.54229" lon="5.10905">
        <ele>644</ele>
      </trkpt>
      <trkpt lat="44.54229" lon="5.10884">
        <ele>644</ele>
      </trkpt>
      <trkpt lat="44.54226" lon="5.10875">
        <ele>644</ele>
      </trkpt>
      <trkpt lat="44.5422" lon="5.10872">
        <ele>643</ele>
      </trkpt>
      <trkpt lat="44.54215" lon="5.10873">
        <ele>643</ele>
      </trkpt>
      <trkpt lat="44.54206" lon="5.10885">
        <ele>640</ele>
      </trkpt>
      <trkpt lat="44.54196" lon="5.10904">
        <ele>641</ele>
      </trkpt>
      <trkpt lat="44.54157" lon="5.10999">
        <ele>639</ele>
      </trkpt>
      <trkpt lat="44.54144" lon="5.11016">
        <ele>638</ele>
      </trkpt>
      <trkpt lat="44.54119" lon="5.11023">
        <ele>636</ele>
      </trkpt>
      <trkpt lat="44.54089" lon="5.1102">
        <ele>633</ele>
      </trkpt>
      <trkpt lat="44.54079" lon="5.11024">
        <ele>633</ele>
      </trkpt>
      <trkpt lat="44.5407" lon="5.11036">
        <ele>630</ele>
      </trkpt>
      <trkpt lat="44.54067" lon="5.11051">
        <ele>629</ele>
      </trkpt>
      <trkpt lat="44.54068" lon="5.11073">
        <ele>629</ele>
      </trkpt>
      <trkpt lat="44.54077" lon="5.11114">
        <ele>635</ele>
      </trkpt>
      <trkpt lat="44.54078" lon="5.1114">
        <ele>637</ele>
      </trkpt>
      <trkpt lat="44.54074" lon="5.11161">
        <ele>639</ele>
      </trkpt>
      <trkpt lat="44.5407" lon="5.11171">
        <ele>636</ele>
      </trkpt>
      <trkpt lat="44.54054" lon="5.1119">
        <ele>634</ele>
      </trkpt>
      <trkpt lat="44.54039" lon="5.11241">
        <ele>633</ele>
      </trkpt>
      <trkpt lat="44.54026" lon="5.11253">
        <ele>632</ele>
      </trkpt>
      <trkpt lat="44.54004" lon="5.11261">
        <ele>628</ele>
      </trkpt>
      <trkpt lat="44.53993" lon="5.11259">
        <ele>627</ele>
      </trkpt>
      <trkpt lat="44.53977" lon="5.11243">
        <ele>623</ele>
      </trkpt>
      <trkpt lat="44.53972" lon="5.11231">
        <ele>623</ele>
      </trkpt>
      <trkpt lat="44.53971" lon="5.11212">
        <ele>619</ele>
      </trkpt>
      <trkpt lat="44.53972" lon="5.11142">
        <ele>615</ele>
      </trkpt>
      <trkpt lat="44.53969" lon="5.11114">
        <ele>611</ele>
      </trkpt>
      <trkpt lat="44.53959" lon="5.11093">
        <ele>612</ele>
      </trkpt>
      <trkpt lat="44.53931" lon="5.11065">
        <ele>610</ele>
      </trkpt>
      <trkpt lat="44.53912" lon="5.11051">
        <ele>605</ele>
      </trkpt>
      <trkpt lat="44.53892" lon="5.11044">
        <ele>611</ele>
      </trkpt>
      <trkpt lat="44.53845" lon="5.11044">
        <ele>614</ele>
      </trkpt>
      <trkpt lat="44.53806" lon="5.11053">
        <ele>612</ele>
      </trkpt>
      <trkpt lat="44.53768" lon="5.11071">
        <ele>615</ele>
      </trkpt>
      <trkpt lat="44.53752" lon="5.11085">
        <ele>611</ele>
      </trkpt>
      <trkpt lat="44.53746" lon="5.11086">
        <ele>610</ele>
      </trkpt>
      <trkpt lat="44.53741" lon="5.1108">
        <ele>609</ele>
      </trkpt>
      <trkpt lat="44.53742" lon="5.11072">
        <ele>609</ele>
      </trkpt>
      <trkpt lat="44.53744" lon="5.11068">
        <ele>609</ele>
      </trkpt>
      <trkpt lat="44.53775" lon="5.11049">
        <ele>608</ele>
      </trkpt>
      <trkpt lat="44.53814" lon="5.11007">
        <ele>600</ele>
      </trkpt>
      <trkpt lat="44.53881" lon="5.10991">
        <ele>595</ele>
      </trkpt>
      <trkpt lat="44.53885" lon="5.10985">
        <ele>594</ele>
      </trkpt>
      <trkpt lat="44.53885" lon="5.10978">
        <ele>593</ele>
      </trkpt>
      <trkpt lat="44.53879" lon="5.10972">
        <ele>588</ele>
      </trkpt>
      <trkpt lat="44.5384" lon="5.10978">
        <ele>593</ele>
      </trkpt>
      <trkpt lat="44.53805" lon="5.10972">
        <ele>585</ele>
      </trkpt>
      <trkpt lat="44.53777" lon="5.10977">
        <ele>588</ele>
      </trkpt>
      <trkpt lat="44.53757" lon="5.10994">
        <ele>587</ele>
      </trkpt>
      <trkpt lat="44.53722" lon="5.11">
        <ele>584</ele>
      </trkpt>
      <trkpt lat="44.53694" lon="5.11012">
        <ele>583</ele>
      </trkpt>
      <trkpt lat="44.53689" lon="5.11021">
        <ele>583</ele>
      </trkpt>
      <trkpt lat="44.53679" lon="5.11054">
        <ele>579</ele>
      </trkpt>
      <trkpt lat="44.53672" lon="5.11116">
        <ele>584</ele>
      </trkpt>
      <trkpt lat="44.53664" lon="5.11141">
        <ele>584</ele>
      </trkpt>
      <trkpt lat="44.53659" lon="5.11147">
        <ele>584</ele>
      </trkpt>
      <trkpt lat="44.53655" lon="5.11149">
        <ele>583</ele>
      </trkpt>
      <trkpt lat="44.53652" lon="5.11148">
        <ele>578</ele>
      </trkpt>
      <trkpt lat="44.5365" lon="5.11144">
        <ele>576</ele>
      </trkpt>
      <trkpt lat="44.5365" lon="5.11137">
        <ele>575</ele>
      </trkpt>
      <trkpt lat="44.53655" lon="5.1112">
        <ele>582</ele>
      </trkpt>
      <trkpt lat="44.53658" lon="5.11102">
        <ele>581</ele>
      </trkpt>
      <trkpt lat="44.53656" lon="5.11086">
        <ele>579</ele>
      </trkpt>
      <trkpt lat="44.53639" lon="5.11019">
        <ele>563</ele>
      </trkpt>
      <trkpt lat="44.53624" lon="5.10993">
        <ele>557</ele>
      </trkpt>
      <trkpt lat="44.53621" lon="5.10982">
        <ele>556</ele>
      </trkpt>
      <trkpt lat="44.53621" lon="5.10972">
        <ele>554</ele>
      </trkpt>
      <trkpt lat="44.53629" lon="5.10952">
        <ele>556</ele>
      </trkpt>
      <trkpt lat="44.53681" lon="5.10885">
        <ele>547</ele>
      </trkpt>
      <trkpt lat="44.53685" lon="5.10878">
        <ele>551</ele>
      </trkpt>
      <trkpt lat="44.53685" lon="5.1087">
        <ele>551</ele>
      </trkpt>
      <trkpt lat="44.53682" lon="5.10864">
        <ele>551</ele>
      </trkpt>
      <trkpt lat="44.53672" lon="5.10853">
        <ele>546</ele>
      </trkpt>
      <trkpt lat="44.5356" lon="5.10764">
        <ele>537</ele>
      </trkpt>
      <trkpt lat="44.53535" lon="5.10741">
        <ele>536</ele>
      </trkpt>
      <trkpt lat="44.53466" lon="5.10647">
        <ele>535</ele>
      </trkpt>
      <trkpt lat="44.53448" lon="5.10627">
        <ele>532</ele>
      </trkpt>
      <trkpt lat="44.53379" lon="5.10569">
        <ele>529</ele>
      </trkpt>
      <trkpt lat="44.53341" lon="5.10539">
        <ele>522</ele>
      </trkpt>
      <trkpt lat="44.53316" lon="5.10514">
        <ele>522</ele>
      </trkpt>
      <trkpt lat="44.53293" lon="5.10486">
        <ele>525</ele>
      </trkpt>
      <trkpt lat="44.5323" lon="5.10425">
        <ele>520</ele>
      </trkpt>
      <trkpt lat="44.53187" lon="5.10389">
        <ele>522</ele>
      </trkpt>
      <trkpt lat="44.53174" lon="5.10366">
        <ele>519</ele>
      </trkpt>
      <trkpt lat="44.5317" lon="5.10342">
        <ele>521</ele>
      </trkpt>
      <trkpt lat="44.53168" lon="5.10313">
        <ele>524</ele>
      </trkpt>
      <trkpt lat="44.53168" lon="5.10282">
        <ele>525</ele>
      </trkpt>
      <trkpt lat="44.53166" lon="5.10251">
        <ele>527</ele>
      </trkpt>
      <trkpt lat="44.53159" lon="5.1021">
        <ele>530</ele>
      </trkpt>
      <trkpt lat="44.53151" lon="5.10179">
        <ele>527</ele>
      </trkpt>
      <trkpt lat="44.53134" lon="5.10138">
        <ele>530</ele>
      </trkpt>
      <trkpt lat="44.53103" lon="5.10054">
        <ele>521</ele>
      </trkpt>
      <trkpt lat="44.53082" lon="5.10016">
        <ele>516</ele>
      </trkpt>
      <trkpt lat="44.53074" lon="5.09997">
        <ele>522</ele>
      </trkpt>
      <trkpt lat="44.53063" lon="5.09955">
        <ele>519</ele>
      </trkpt>
      <trkpt lat="44.53056" lon="5.09937">
        <ele>521</ele>
      </trkpt>
      <trkpt lat="44.53044" lon="5.0992">
        <ele>518</ele>
      </trkpt>
      <trkpt lat="44.53036" lon="5.09904">
        <ele>508</ele>
      </trkpt>
      <trkpt lat="44.53022" lon="5.09866">
        <ele>511</ele>
      </trkpt>
      <trkpt lat="44.53002" lon="5.09827">
        <ele>510</ele>
      </trkpt>
      <trkpt lat="44.52961" lon="5.09713">
        <ele>507</ele>
      </trkpt>
      <trkpt lat="44.52946" lon="5.09667">
        <ele>503</ele>
      </trkpt>
      <trkpt lat="44.52932" lon="5.09637">
        <ele>508</ele>
      </trkpt>
      <trkpt lat="44.52903" lon="5.09595">
        <ele>495</ele>
      </trkpt>
      <trkpt lat="44.52846" lon="5.09501">
        <ele>493</ele>
      </trkpt>
      <trkpt lat="44.52799" lon="5.09409">
        <ele>493</ele>
      </trkpt>
      <trkpt lat="44.52768" lon="5.09344">
        <ele>484</ele>
      </trkpt>
      <trkpt lat="44.52745" lon="5.09263">
        <ele>476</ele>
      </trkpt>
      <trkpt lat="44.52618" lon="5.08999">
        <ele>466</ele>
      </trkpt>
      <trkpt lat="44.52606" lon="5.08979">
        <ele>465</ele>
      </trkpt>
      <trkpt lat="44.52576" lon="5.08941">
        <ele>463</ele>
      </trkpt>
      <trkpt lat="44.52556" lon="5.08922">
        <ele>458</ele>
      </trkpt>
      <trkpt lat="44.52539" lon="5.08911">
        <ele>456</ele>
      </trkpt>
      <trkpt lat="44.52436" lon="5.08866">
        <ele>447</ele>
      </trkpt>
      <trkpt lat="44.52315" lon="5.08818">
        <ele>442</ele>
      </trkpt>
      <trkpt lat="44.52129" lon="5.0874">
        <ele>436</ele>
      </trkpt>
      <trkpt lat="44.52111" lon="5.08726">
        <ele>434</ele>
      </trkpt>
      <trkpt lat="44.52046" lon="5.08651">
        <ele>431</ele>
      </trkpt>
      <trkpt lat="44.52034" lon="5.08626">
        <ele>430</ele>
      </trkpt>
      <trkpt lat="44.52017" lon="5.08574">
        <ele>430</ele>
      </trkpt>
      <trkpt lat="44.5197" lon="5.08491">
        <ele>427</ele>
      </trkpt>
      <trkpt lat="44.51916" lon="5.08402">
        <ele>427</ele>
      </trkpt>
      <trkpt lat="44.51848" lon="5.08262">
        <ele>423</ele>
      </trkpt>
      <trkpt lat="44.51835" lon="5.08227">
        <ele>421</ele>
      </trkpt>
      <trkpt lat="44.51777" lon="5.08014">
        <ele>415</ele>
      </trkpt>
      <trkpt lat="44.51818" lon="5.07966">
        <ele>415</ele>
      </trkpt>
      <trkpt lat="44.51834" lon="5.07937">
        <ele>413</ele>
      </trkpt>
      <trkpt lat="44.51839" lon="5.07925">
        <ele>413</ele>
      </trkpt>
      <trkpt lat="44.51858" lon="5.07856">
        <ele>416</ele>
      </trkpt>
      <trkpt lat="44.5188" lon="5.07807">
        <ele>420</ele>
      </trkpt>
      <trkpt lat="44.51901" lon="5.0775">
        <ele>419</ele>
      </trkpt>
      <trkpt lat="44.51937" lon="5.07556">
        <ele>425</ele>
      </trkpt>
      <trkpt lat="44.52005" lon="5.07275">
        <ele>411</ele>
      </trkpt>
      <trkpt lat="44.52022" lon="5.07188">
        <ele>402</ele>
      </trkpt>
      <trkpt lat="44.52031" lon="5.07163">
        <ele>400</ele>
      </trkpt>
      <trkpt lat="44.52066" lon="5.07089">
        <ele>400</ele>
      </trkpt>
      <trkpt lat="44.52109" lon="5.06933">
        <ele>397</ele>
      </trkpt>
      <trkpt lat="44.52135" lon="5.06871">
        <ele>395</ele>
      </trkpt>
      <trkpt lat="44.52159" lon="5.06818">
        <ele>394</ele>
      </trkpt>
      <trkpt lat="44.5217" lon="5.06778">
        <ele>393</ele>
      </trkpt>
      <trkpt lat="44.5219" lon="5.0667">
        <ele>393</ele>
      </trkpt>
      <trkpt lat="44.52196" lon="5.06659">
        <ele>392</ele>
      </trkpt>
      <trkpt lat="44.5222" lon="5.06626">
        <ele>393</ele>
      </trkpt>
      <trkpt lat="44.5228" lon="5.06578">
        <ele>392</ele>
      </trkpt>
      <trkpt lat="44.5231" lon="5.06559">
        <ele>393</ele>
      </trkpt>
      <trkpt lat="44.52325" lon="5.06551">
        <ele>392</ele>
      </trkpt>
      <trkpt lat="44.52311" lon="5.06537">
        <ele>390</ele>
      </trkpt>
      <trkpt lat="44.52297" lon="5.06524">
        <ele>388</ele>
      </trkpt>
      <trkpt lat="44.52288" lon="5.06517">
        <ele>388</ele>
      </trkpt>
      <trkpt lat="44.52284" lon="5.06511">
        <ele>388</ele>
      </trkpt>
      <trkpt lat="44.52278" lon="5.06485">
        <ele>385</ele>
      </trkpt>
      <trkpt lat="44.52278" lon="5.06465">
        <ele>382</ele>
      </trkpt>
      <trkpt lat="44.52281" lon="5.0643">
        <ele>379</ele>
      </trkpt>
      <trkpt lat="44.52286" lon="5.06413">
        <ele>377</ele>
      </trkpt>
      <trkpt lat="44.52301" lon="5.06384">
        <ele>374</ele>
      </trkpt>
      <trkpt lat="44.52316" lon="5.06357">
        <ele>375</ele>
      </trkpt>
      <trkpt lat="44.52329" lon="5.06329">
        <ele>376</ele>
      </trkpt>
      <trkpt lat="44.52332" lon="5.06321">
        <ele>376</ele>
      </trkpt>
      <trkpt lat="44.52338" lon="5.0632">
        <ele>376</ele>
      </trkpt>
      <trkpt lat="44.5234" lon="5.06313">
        <ele>377</ele>
      </trkpt>
      <trkpt lat="44.52339" lon="5.06308">
        <ele>377</ele>
      </trkpt>
      <trkpt lat="44.52334" lon="5.06304">
        <ele>378</ele>
      </trkpt>
      <trkpt lat="44.5233" lon="5.06306">
        <ele>377</ele>
      </trkpt>
      <trkpt lat="44.52173" lon="5.05851">
        <ele>374</ele>
      </trkpt>
      <trkpt lat="44.52132" lon="5.05732">
        <ele>372</ele>
      </trkpt>
      <trkpt lat="44.52127" lon="5.05709">
        <ele>373</ele>
      </trkpt>
      <trkpt lat="44.52128" lon="5.0556">
        <ele>370</ele>
      </trkpt>
      <trkpt lat="44.52127" lon="5.055">
        <ele>366</ele>
      </trkpt>
      <trkpt lat="44.52136" lon="5.0521">
        <ele>357</ele>
      </trkpt>
      <trkpt lat="44.52157" lon="5.04965">
        <ele>351</ele>
      </trkpt>
      <trkpt lat="44.52169" lon="5.04873">
        <ele>347</ele>
      </trkpt>
      <trkpt lat="44.52176" lon="5.04843">
        <ele>346</ele>
      </trkpt>
      <trkpt lat="44.52182" lon="5.04831">
        <ele>347</ele>
      </trkpt>
      <trkpt lat="44.52257" lon="5.04719">
        <ele>345</ele>
      </trkpt>
      <trkpt lat="44.52264" lon="5.04711">
        <ele>345</ele>
      </trkpt>
      <trkpt lat="44.52273" lon="5.04705">
        <ele>347</ele>
      </trkpt>
      <trkpt lat="44.52282" lon="5.04703">
        <ele>347</ele>
      </trkpt>
      <trkpt lat="44.52288" lon="5.04693">
        <ele>346</ele>
      </trkpt>
      <trkpt lat="44.52289" lon="5.04686">
        <ele>346</ele>
      </trkpt>
      <trkpt lat="44.52296" lon="5.04663">
        <ele>345</ele>
      </trkpt>
      <trkpt lat="44.52314" lon="5.04623">
        <ele>343</ele>
      </trkpt>
      <trkpt lat="44.52325" lon="5.04588">
        <ele>342</ele>
      </trkpt>
      <trkpt lat="44.52334" lon="5.04541">
        <ele>342</ele>
      </trkpt>
      <trkpt lat="44.52347" lon="5.04447">
        <ele>340</ele>
      </trkpt>
      <trkpt lat="44.52379" lon="5.04262">
        <ele>343</ele>
      </trkpt>
      <trkpt lat="44.52393" lon="5.04201">
        <ele>344</ele>
      </trkpt>
      <trkpt lat="44.52411" lon="5.04149">
        <ele>345</ele>
      </trkpt>
      <trkpt lat="44.52514" lon="5.0389">
        <ele>347</ele>
      </trkpt>
      <trkpt lat="44.52525" lon="5.03855">
        <ele>351</ele>
      </trkpt>
      <trkpt lat="44.52532" lon="5.0382">
        <ele>349</ele>
      </trkpt>
      <trkpt lat="44.52553" lon="5.03674">
        <ele>340</ele>
      </trkpt>
      <trkpt lat="44.5256" lon="5.03569">
        <ele>336</ele>
      </trkpt>
      <trkpt lat="44.52564" lon="5.03491">
        <ele>335</ele>
      </trkpt>
      <trkpt lat="44.52565" lon="5.03438">
        <ele>335</ele>
      </trkpt>
      <trkpt lat="44.52569" lon="5.03357">
        <ele>334</ele>
      </trkpt>
      <trkpt lat="44.52585" lon="5.03265">
        <ele>332</ele>
      </trkpt>
      <trkpt lat="44.5259" lon="5.03235">
        <ele>331</ele>
      </trkpt>
      <trkpt lat="44.5259" lon="5.03216">
        <ele>331</ele>
      </trkpt>
      <trkpt lat="44.52594" lon="5.03185">
        <ele>331</ele>
      </trkpt>
      <trkpt lat="44.52599" lon="5.03177">
        <ele>333</ele>
      </trkpt>
      <trkpt lat="44.52612" lon="5.031">
        <ele>333</ele>
      </trkpt>
      <trkpt lat="44.52631" lon="5.03005">
        <ele>335</ele>
      </trkpt>
      <trkpt lat="44.52671" lon="5.02866">
        <ele>332</ele>
      </trkpt>
      <trkpt lat="44.52684" lon="5.02834">
        <ele>330</ele>
      </trkpt>
      <trkpt lat="44.52691" lon="5.02819">
        <ele>329</ele>
      </trkpt>
      <trkpt lat="44.52703" lon="5.02801">
        <ele>328</ele>
      </trkpt>
      <trkpt lat="44.52883" lon="5.02575">
        <ele>328</ele>
      </trkpt>
      <trkpt lat="44.52911" lon="5.02533">
        <ele>328</ele>
      </trkpt>
      <trkpt lat="44.52934" lon="5.02489">
        <ele>328</ele>
      </trkpt>
      <trkpt lat="44.52946" lon="5.02456">
        <ele>327</ele>
      </trkpt>
      <trkpt lat="44.52955" lon="5.02418">
        <ele>326</ele>
      </trkpt>
      <trkpt lat="44.52958" lon="5.02355">
        <ele>324</ele>
      </trkpt>
      <trkpt lat="44.52965" lon="5.021">
        <ele>317</ele>
      </trkpt>
      <trkpt lat="44.52963" lon="5.01975">
        <ele>313</ele>
      </trkpt>
      <trkpt lat="44.52955" lon="5.01681">
        <ele>314</ele>
      </trkpt>
      <trkpt lat="44.52958" lon="5.0166">
        <ele>314</ele>
      </trkpt>
      <trkpt lat="44.53026" lon="5.01415">
        <ele>318</ele>
      </trkpt>
      <trkpt lat="44.53047" lon="5.0133">
        <ele>316</ele>
      </trkpt>
      <trkpt lat="44.5307" lon="5.01254">
        <ele>315</ele>
      </trkpt>
      <trkpt lat="44.53082" lon="5.012">
        <ele>314</ele>
      </trkpt>
      <trkpt lat="44.53102" lon="5.01084">
        <ele>312</ele>
      </trkpt>
      <trkpt lat="44.53114" lon="5.00983">
        <ele>308</ele>
      </trkpt>
      <trkpt lat="44.53122" lon="5.009">
        <ele>308</ele>
      </trkpt>
      <trkpt lat="44.53121" lon="5.00872">
        <ele>308</ele>
      </trkpt>
      <trkpt lat="44.53124" lon="5.00836">
        <ele>309</ele>
      </trkpt>
      <trkpt lat="44.53127" lon="5.00834">
        <ele>309</ele>
      </trkpt>
      <trkpt lat="44.53139" lon="5.0069">
        <ele>304</ele>
      </trkpt>
      <trkpt lat="44.53143" lon="5.00615">
        <ele>302</ele>
      </trkpt>
      <trkpt lat="44.53159" lon="5.00454">
        <ele>301</ele>
      </trkpt>
      <trkpt lat="44.53167" lon="5.00399">
        <ele>301</ele>
      </trkpt>
      <trkpt lat="44.53191" lon="5.00272">
        <ele>301</ele>
      </trkpt>
      <trkpt lat="44.53235" lon="5.00081">
        <ele>297</ele>
      </trkpt>
      <trkpt lat="44.53244" lon="5.00027">
        <ele>299</ele>
      </trkpt>
      <trkpt lat="44.53248" lon="4.99967">
        <ele>296</ele>
      </trkpt>
      <trkpt lat="44.53247" lon="4.9989">
        <ele>294</ele>
      </trkpt>
      <trkpt lat="44.5324" lon="4.99833">
        <ele>295</ele>
      </trkpt>
      <trkpt lat="44.53231" lon="4.99785">
        <ele>292</ele>
      </trkpt>
      <trkpt lat="44.53064" lon="4.99161">
        <ele>287</ele>
      </trkpt>
      <trkpt lat="44.53052" lon="4.99125">
        <ele>290</ele>
      </trkpt>
      <trkpt lat="44.53024" lon="4.99057">
        <ele>289</ele>
      </trkpt>
      <trkpt lat="44.53005" lon="4.99021">
        <ele>287</ele>
      </trkpt>
      <trkpt lat="44.52971" lon="4.98966">
        <ele>286</ele>
      </trkpt>
      <trkpt lat="44.52726" lon="4.9865">
        <ele>287</ele>
      </trkpt>
      <trkpt lat="44.52703" lon="4.9861">
        <ele>287</ele>
      </trkpt>
      <trkpt lat="44.52683" lon="4.98563">
        <ele>289</ele>
      </trkpt>
      <trkpt lat="44.52598" lon="4.98287">
        <ele>279</ele>
      </trkpt>
      <trkpt lat="44.52579" lon="4.98219">
        <ele>279</ele>
      </trkpt>
      <trkpt lat="44.52569" lon="4.98165">
        <ele>277</ele>
      </trkpt>
      <trkpt lat="44.52557" lon="4.98064">
        <ele>275</ele>
      </trkpt>
      <trkpt lat="44.52555" lon="4.97995">
        <ele>273</ele>
      </trkpt>
      <trkpt lat="44.52555" lon="4.97824">
        <ele>266</ele>
      </trkpt>
      <trkpt lat="44.52558" lon="4.97767">
        <ele>266</ele>
      </trkpt>
      <trkpt lat="44.5257" lon="4.97698">
        <ele>265</ele>
      </trkpt>
      <trkpt lat="44.52591" lon="4.97628">
        <ele>265</ele>
      </trkpt>
      <trkpt lat="44.52629" lon="4.9755">
        <ele>263</ele>
      </trkpt>
      <trkpt lat="44.53049" lon="4.96897">
        <ele>264</ele>
      </trkpt>
      <trkpt lat="44.53095" lon="4.96819">
        <ele>269</ele>
      </trkpt>
      <trkpt lat="44.53044" lon="4.96744">
        <ele>255</ele>
      </trkpt>
      <trkpt lat="44.53017" lon="4.96706">
        <ele>258</ele>
      </trkpt>
      <trkpt lat="44.53006" lon="4.96693">
        <ele>262</ele>
      </trkpt>
      <trkpt lat="44.52986" lon="4.96697">
        <ele>261</ele>
      </trkpt>
      <trkpt lat="44.52905" lon="4.96741">
        <ele>263</ele>
      </trkpt>
      <trkpt lat="44.52823" lon="4.96782">
        <ele>260</ele>
      </trkpt>
    </trkseg>
  </trk>
</gpx>